<?xml version="1.0" encoding="UTF-8"?>
<gpx version="1.1" creator="https://www.www-youtrack-es.amenigma.com" xsi:schemaLocation="http://www.topografix.com/GPX/1/1 http://www.topografix.com/GPX/1/1/gpx.xsd http://www.garmin.com/xmlschemas/GpxExtensions/v3 http://www.garmin.com/xmlschemas/GpxExtensionsv3.xsd http://www.garmin.com/xmlschemas/TrackPointExtension/v1 http://www.garmin.com/xmlschemas/TrackPointExtensionv1.xsd" xmlns:gpxtpx="http://www.garmin.com/xmlschemas/TrackPointExtension/v1" xmlns:gpxx="http://www.garmin.com/xmlschemas/GpxExtensions/v3" xmlns:xsi="http://www.w3.org/2001/XMLSchema-instance">
  <metadata>
    <link href="https://www.www-youtrack-es.amenigma.com">
      <text>YouTrack.es</text>
    </link>
    <time>2026-08-31T04:41:17Z</time>
  </metadata>
  <trk>
    <src>https://www.www-youtrack-es.amenigma.com</src>
    <link href="https://www.www-youtrack-es.amenigma.com/ruta/14656-salsalvador-3">
      <text>YouTrack.es</text>
    </link>
    <trkseg>
      <trkpt lat="42.8705597" lon="-5.6917237">
        <ele>1043.95</ele>
        <time>2020-07-21T05:52:41.000Z</time>
      </trkpt>
      <trkpt lat="42.8705597" lon="-5.6917237">
        <ele>1043.95</ele>
        <time>2020-07-21T05:52:42.000Z</time>
      </trkpt>
      <trkpt lat="42.8705597" lon="-5.6917237">
        <ele>1043.95</ele>
        <time>2020-07-21T05:52:43.000Z</time>
      </trkpt>
      <trkpt lat="42.8705625" lon="-5.691722">
        <ele>1043.95</ele>
        <time>2020-07-21T05:52:44.000Z</time>
      </trkpt>
      <trkpt lat="42.8705665" lon="-5.6917208">
        <ele>1043.95</ele>
        <time>2020-07-21T05:52:45.000Z</time>
      </trkpt>
      <trkpt lat="42.870569" lon="-5.6917185">
        <ele>1043.95</ele>
        <time>2020-07-21T05:52:46.000Z</time>
      </trkpt>
      <trkpt lat="42.8705642" lon="-5.691714">
        <ele>1043.95</ele>
        <time>2020-07-21T05:52:47.000Z</time>
      </trkpt>
      <trkpt lat="42.870559" lon="-5.6917107">
        <ele>1043.95</ele>
        <time>2020-07-21T05:52:48.000Z</time>
      </trkpt>
      <trkpt lat="42.8705533" lon="-5.6917088">
        <ele>1043.95</ele>
        <time>2020-07-21T05:52:49.000Z</time>
      </trkpt>
      <trkpt lat="42.8705527" lon="-5.69171">
        <ele>1043.95</ele>
        <time>2020-07-21T05:52:50.000Z</time>
      </trkpt>
      <trkpt lat="42.8705525" lon="-5.691712">
        <ele>1043.8</ele>
        <time>2020-07-21T05:52:51.000Z</time>
      </trkpt>
      <trkpt lat="42.8705547" lon="-5.6917145">
        <ele>1043.8</ele>
        <time>2020-07-21T05:52:52.000Z</time>
      </trkpt>
      <trkpt lat="42.8705612" lon="-5.6917175">
        <ele>1043.8</ele>
        <time>2020-07-21T05:52:53.000Z</time>
      </trkpt>
      <trkpt lat="42.8705685" lon="-5.691719">
        <ele>1043.8</ele>
        <time>2020-07-21T05:52:54.000Z</time>
      </trkpt>
      <trkpt lat="42.8705767" lon="-5.6917195">
        <ele>1043.65</ele>
        <time>2020-07-21T05:52:55.000Z</time>
      </trkpt>
      <trkpt lat="42.8705828" lon="-5.6917185">
        <ele>1043.65</ele>
        <time>2020-07-21T05:52:56.000Z</time>
      </trkpt>
      <trkpt lat="42.8705898" lon="-5.6917182">
        <ele>1043.65</ele>
        <time>2020-07-21T05:52:57.000Z</time>
      </trkpt>
      <trkpt lat="42.8705958" lon="-5.6917183">
        <ele>1043.65</ele>
        <time>2020-07-21T05:52:58.000Z</time>
      </trkpt>
      <trkpt lat="42.8705988" lon="-5.6917207">
        <ele>1043.49</ele>
        <time>2020-07-21T05:52:59.000Z</time>
      </trkpt>
      <trkpt lat="42.8705972" lon="-5.6917217">
        <ele>1043.49</ele>
        <time>2020-07-21T05:53:00.000Z</time>
      </trkpt>
      <trkpt lat="42.8705927" lon="-5.6917207">
        <ele>1043.49</ele>
        <time>2020-07-21T05:53:01.000Z</time>
      </trkpt>
      <trkpt lat="42.870588" lon="-5.6917187">
        <ele>1043.49</ele>
        <time>2020-07-21T05:53:02.000Z</time>
      </trkpt>
      <trkpt lat="42.8705845" lon="-5.6917185">
        <ele>1043.49</ele>
        <time>2020-07-21T05:53:03.000Z</time>
      </trkpt>
      <trkpt lat="42.8705827" lon="-5.6917208">
        <ele>1043.49</ele>
        <time>2020-07-21T05:53:04.000Z</time>
      </trkpt>
      <trkpt lat="42.8705798" lon="-5.6917233">
        <ele>1043.49</ele>
        <time>2020-07-21T05:53:05.000Z</time>
      </trkpt>
      <trkpt lat="42.8705778" lon="-5.6917258">
        <ele>1043.49</ele>
        <time>2020-07-21T05:53:06.000Z</time>
      </trkpt>
      <trkpt lat="42.8705767" lon="-5.691728">
        <ele>1043.34</ele>
        <time>2020-07-21T05:53:07.000Z</time>
      </trkpt>
      <trkpt lat="42.8705762" lon="-5.6917292">
        <ele>1043.34</ele>
        <time>2020-07-21T05:53:08.000Z</time>
      </trkpt>
      <trkpt lat="42.8705753" lon="-5.6917302">
        <ele>1043.19</ele>
        <time>2020-07-21T05:53:09.000Z</time>
      </trkpt>
      <trkpt lat="42.8705743" lon="-5.6917303">
        <ele>1043.19</ele>
        <time>2020-07-21T05:53:10.000Z</time>
      </trkpt>
      <trkpt lat="42.8705747" lon="-5.6917308">
        <ele>1043.04</ele>
        <time>2020-07-21T05:53:11.000Z</time>
      </trkpt>
      <trkpt lat="42.8705758" lon="-5.6917308">
        <ele>1043.04</ele>
        <time>2020-07-21T05:53:12.000Z</time>
      </trkpt>
      <trkpt lat="42.8705777" lon="-5.6917307">
        <ele>1042.73</ele>
        <time>2020-07-21T05:53:13.000Z</time>
      </trkpt>
      <trkpt lat="42.870579" lon="-5.6917305">
        <ele>1042.73</ele>
        <time>2020-07-21T05:53:14.000Z</time>
      </trkpt>
      <trkpt lat="42.8705802" lon="-5.6917303">
        <ele>1042.58</ele>
        <time>2020-07-21T05:53:15.000Z</time>
      </trkpt>
      <trkpt lat="42.8705812" lon="-5.6917303">
        <ele>1042.58</ele>
        <time>2020-07-21T05:53:16.000Z</time>
      </trkpt>
      <trkpt lat="42.8705823" lon="-5.69173">
        <ele>1042.28</ele>
        <time>2020-07-21T05:53:17.000Z</time>
      </trkpt>
      <trkpt lat="42.8705835" lon="-5.6917298">
        <ele>1042.28</ele>
        <time>2020-07-21T05:53:18.000Z</time>
      </trkpt>
      <trkpt lat="42.8705845" lon="-5.6917293">
        <ele>1041.97</ele>
        <time>2020-07-21T05:53:19.000Z</time>
      </trkpt>
      <trkpt lat="42.870586" lon="-5.6917298">
        <ele>1041.97</ele>
        <time>2020-07-21T05:53:20.000Z</time>
      </trkpt>
      <trkpt lat="42.8705902" lon="-5.691733">
        <ele>1041.67</ele>
        <time>2020-07-21T05:53:21.000Z</time>
      </trkpt>
      <trkpt lat="42.8705937" lon="-5.6917395">
        <ele>1041.67</ele>
        <time>2020-07-21T05:53:22.000Z</time>
      </trkpt>
      <trkpt lat="42.8706" lon="-5.6917458">
        <ele>1041.51</ele>
        <time>2020-07-21T05:53:23.000Z</time>
      </trkpt>
      <trkpt lat="42.8706053" lon="-5.6917528">
        <ele>1041.51</ele>
        <time>2020-07-21T05:53:24.000Z</time>
      </trkpt>
      <trkpt lat="42.8706118" lon="-5.6917597">
        <ele>1041.21</ele>
        <time>2020-07-21T05:53:25.000Z</time>
      </trkpt>
      <trkpt lat="42.8706157" lon="-5.691769">
        <ele>1041.21</ele>
        <time>2020-07-21T05:53:26.000Z</time>
      </trkpt>
      <trkpt lat="42.8706172" lon="-5.6917792">
        <ele>1040.91</ele>
        <time>2020-07-21T05:53:27.000Z</time>
      </trkpt>
      <trkpt lat="42.8706185" lon="-5.6917898">
        <ele>1040.91</ele>
        <time>2020-07-21T05:53:28.000Z</time>
      </trkpt>
      <trkpt lat="42.8706207" lon="-5.6918015">
        <ele>1040.6</ele>
        <time>2020-07-21T05:53:29.000Z</time>
      </trkpt>
      <trkpt lat="42.8706303" lon="-5.6918192">
        <ele>1040.6</ele>
        <time>2020-07-21T05:53:30.000Z</time>
      </trkpt>
      <trkpt lat="42.8706425" lon="-5.6918385">
        <ele>1040.3</ele>
        <time>2020-07-21T05:53:31.000Z</time>
      </trkpt>
      <trkpt lat="42.870658" lon="-5.691861">
        <ele>1040.3</ele>
        <time>2020-07-21T05:53:32.000Z</time>
      </trkpt>
      <trkpt lat="42.8706683" lon="-5.69188">
        <ele>1039.84</ele>
        <time>2020-07-21T05:53:33.000Z</time>
      </trkpt>
      <trkpt lat="42.870679" lon="-5.6918993">
        <ele>1039.84</ele>
        <time>2020-07-21T05:53:34.000Z</time>
      </trkpt>
      <trkpt lat="42.8706868" lon="-5.6919158">
        <ele>1039.53</ele>
        <time>2020-07-21T05:53:35.000Z</time>
      </trkpt>
      <trkpt lat="42.8706935" lon="-5.6919292">
        <ele>1039.53</ele>
        <time>2020-07-21T05:53:36.000Z</time>
      </trkpt>
      <trkpt lat="42.8706977" lon="-5.6919415">
        <ele>1039.08</ele>
        <time>2020-07-21T05:53:37.000Z</time>
      </trkpt>
      <trkpt lat="42.8707007" lon="-5.6919525">
        <ele>1039.08</ele>
        <time>2020-07-21T05:53:38.000Z</time>
      </trkpt>
      <trkpt lat="42.8707033" lon="-5.691965">
        <ele>1038.77</ele>
        <time>2020-07-21T05:53:39.000Z</time>
      </trkpt>
      <trkpt lat="42.8707073" lon="-5.6919782">
        <ele>1038.77</ele>
        <time>2020-07-21T05:53:40.000Z</time>
      </trkpt>
      <trkpt lat="42.870713" lon="-5.6919913">
        <ele>1038.47</ele>
        <time>2020-07-21T05:53:41.000Z</time>
      </trkpt>
      <trkpt lat="42.8707202" lon="-5.6920002">
        <ele>1038.47</ele>
        <time>2020-07-21T05:53:42.000Z</time>
      </trkpt>
      <trkpt lat="42.870729" lon="-5.6920027">
        <ele>1038.01</ele>
        <time>2020-07-21T05:53:43.000Z</time>
      </trkpt>
      <trkpt lat="42.8707398" lon="-5.692003">
        <ele>1038.01</ele>
        <time>2020-07-21T05:53:44.000Z</time>
      </trkpt>
      <trkpt lat="42.8707525" lon="-5.692002">
        <ele>1037.7</ele>
        <time>2020-07-21T05:53:45.000Z</time>
      </trkpt>
      <trkpt lat="42.870765" lon="-5.692003">
        <ele>1037.7</ele>
        <time>2020-07-21T05:53:46.000Z</time>
      </trkpt>
      <trkpt lat="42.8707765" lon="-5.6920027">
        <ele>1037.4</ele>
        <time>2020-07-21T05:53:47.000Z</time>
      </trkpt>
      <trkpt lat="42.8707895" lon="-5.6920025">
        <ele>1037.4</ele>
        <time>2020-07-21T05:53:48.000Z</time>
      </trkpt>
      <trkpt lat="42.8708032" lon="-5.6920018">
        <ele>1037.09</ele>
        <time>2020-07-21T05:53:49.000Z</time>
      </trkpt>
      <trkpt lat="42.8708178" lon="-5.6919998">
        <ele>1037.09</ele>
        <time>2020-07-21T05:53:50.000Z</time>
      </trkpt>
      <trkpt lat="42.8708315" lon="-5.6919978">
        <ele>1036.79</ele>
        <time>2020-07-21T05:53:51.000Z</time>
      </trkpt>
      <trkpt lat="42.870844" lon="-5.6919952">
        <ele>1036.79</ele>
        <time>2020-07-21T05:53:52.000Z</time>
      </trkpt>
      <trkpt lat="42.8708562" lon="-5.6919925">
        <ele>1036.48</ele>
        <time>2020-07-21T05:53:53.000Z</time>
      </trkpt>
      <trkpt lat="42.870869" lon="-5.6919907">
        <ele>1036.48</ele>
        <time>2020-07-21T05:53:54.000Z</time>
      </trkpt>
      <trkpt lat="42.8708823" lon="-5.691989">
        <ele>1036.18</ele>
        <time>2020-07-21T05:53:55.000Z</time>
      </trkpt>
      <trkpt lat="42.8708957" lon="-5.6919878">
        <ele>1036.18</ele>
        <time>2020-07-21T05:53:56.000Z</time>
      </trkpt>
      <trkpt lat="42.8709075" lon="-5.6919852">
        <ele>1035.88</ele>
        <time>2020-07-21T05:53:57.000Z</time>
      </trkpt>
      <trkpt lat="42.8709183" lon="-5.6919808">
        <ele>1035.88</ele>
        <time>2020-07-21T05:53:58.000Z</time>
      </trkpt>
      <trkpt lat="42.8709285" lon="-5.6919745">
        <ele>1035.57</ele>
        <time>2020-07-21T05:53:59.000Z</time>
      </trkpt>
      <trkpt lat="42.8709382" lon="-5.6919675">
        <ele>1035.57</ele>
        <time>2020-07-21T05:54:00.000Z</time>
      </trkpt>
      <trkpt lat="42.8709472" lon="-5.6919603">
        <ele>1035.27</ele>
        <time>2020-07-21T05:54:01.000Z</time>
      </trkpt>
      <trkpt lat="42.8709553" lon="-5.6919518">
        <ele>1035.27</ele>
        <time>2020-07-21T05:54:02.000Z</time>
      </trkpt>
      <trkpt lat="42.8709628" lon="-5.6919413">
        <ele>1034.96</ele>
        <time>2020-07-21T05:54:03.000Z</time>
      </trkpt>
      <trkpt lat="42.8709702" lon="-5.691929">
        <ele>1034.96</ele>
        <time>2020-07-21T05:54:04.000Z</time>
      </trkpt>
      <trkpt lat="42.8709778" lon="-5.691916">
        <ele>1034.81</ele>
        <time>2020-07-21T05:54:05.000Z</time>
      </trkpt>
      <trkpt lat="42.8709847" lon="-5.6919027">
        <ele>1034.81</ele>
        <time>2020-07-21T05:54:06.000Z</time>
      </trkpt>
      <trkpt lat="42.87099" lon="-5.6918887">
        <ele>1034.66</ele>
        <time>2020-07-21T05:54:07.000Z</time>
      </trkpt>
      <trkpt lat="42.8709913" lon="-5.691873">
        <ele>1034.66</ele>
        <time>2020-07-21T05:54:08.000Z</time>
      </trkpt>
      <trkpt lat="42.8709913" lon="-5.691856">
        <ele>1034.5</ele>
        <time>2020-07-21T05:54:09.000Z</time>
      </trkpt>
      <trkpt lat="42.8709883" lon="-5.6918392">
        <ele>1034.5</ele>
        <time>2020-07-21T05:54:10.000Z</time>
      </trkpt>
      <trkpt lat="42.8709862" lon="-5.6918232">
        <ele>1034.35</ele>
        <time>2020-07-21T05:54:11.000Z</time>
      </trkpt>
      <trkpt lat="42.8709833" lon="-5.6918075">
        <ele>1034.35</ele>
        <time>2020-07-21T05:54:12.000Z</time>
      </trkpt>
      <trkpt lat="42.870982" lon="-5.6917915">
        <ele>1034.2</ele>
        <time>2020-07-21T05:54:13.000Z</time>
      </trkpt>
      <trkpt lat="42.8709803" lon="-5.6917757">
        <ele>1034.2</ele>
        <time>2020-07-21T05:54:14.000Z</time>
      </trkpt>
      <trkpt lat="42.870978" lon="-5.6917603">
        <ele>1034.05</ele>
        <time>2020-07-21T05:54:15.000Z</time>
      </trkpt>
      <trkpt lat="42.8709763" lon="-5.6917458">
        <ele>1034.05</ele>
        <time>2020-07-21T05:54:16.000Z</time>
      </trkpt>
      <trkpt lat="42.8709752" lon="-5.6917308">
        <ele>1033.89</ele>
        <time>2020-07-21T05:54:17.000Z</time>
      </trkpt>
      <trkpt lat="42.8709742" lon="-5.6917148">
        <ele>1033.89</ele>
        <time>2020-07-21T05:54:18.000Z</time>
      </trkpt>
      <trkpt lat="42.8709713" lon="-5.691698">
        <ele>1033.89</ele>
        <time>2020-07-21T05:54:19.000Z</time>
      </trkpt>
      <trkpt lat="42.8709678" lon="-5.6916812">
        <ele>1033.89</ele>
        <time>2020-07-21T05:54:20.000Z</time>
      </trkpt>
      <trkpt lat="42.8709642" lon="-5.6916645">
        <ele>1033.74</ele>
        <time>2020-07-21T05:54:21.000Z</time>
      </trkpt>
      <trkpt lat="42.8709612" lon="-5.691648">
        <ele>1033.74</ele>
        <time>2020-07-21T05:54:22.000Z</time>
      </trkpt>
      <trkpt lat="42.8709575" lon="-5.6916315">
        <ele>1033.59</ele>
        <time>2020-07-21T05:54:23.000Z</time>
      </trkpt>
      <trkpt lat="42.8709533" lon="-5.6916152">
        <ele>1033.59</ele>
        <time>2020-07-21T05:54:24.000Z</time>
      </trkpt>
      <trkpt lat="42.8709492" lon="-5.6915987">
        <ele>1033.59</ele>
        <time>2020-07-21T05:54:25.000Z</time>
      </trkpt>
      <trkpt lat="42.8709458" lon="-5.691582">
        <ele>1033.59</ele>
        <time>2020-07-21T05:54:26.000Z</time>
      </trkpt>
      <trkpt lat="42.870943" lon="-5.6915648">
        <ele>1033.44</ele>
        <time>2020-07-21T05:54:27.000Z</time>
      </trkpt>
      <trkpt lat="42.8709388" lon="-5.691548">
        <ele>1033.44</ele>
        <time>2020-07-21T05:54:28.000Z</time>
      </trkpt>
      <trkpt lat="42.870934" lon="-5.6915313">
        <ele>1033.29</ele>
        <time>2020-07-21T05:54:29.000Z</time>
      </trkpt>
      <trkpt lat="42.8709288" lon="-5.691515">
        <ele>1033.29</ele>
        <time>2020-07-21T05:54:30.000Z</time>
      </trkpt>
      <trkpt lat="42.8709243" lon="-5.6914983">
        <ele>1033.13</ele>
        <time>2020-07-21T05:54:31.000Z</time>
      </trkpt>
      <trkpt lat="42.8709197" lon="-5.6914817">
        <ele>1033.13</ele>
        <time>2020-07-21T05:54:32.000Z</time>
      </trkpt>
      <trkpt lat="42.870916" lon="-5.6914655">
        <ele>1032.98</ele>
        <time>2020-07-21T05:54:33.000Z</time>
      </trkpt>
      <trkpt lat="42.8709113" lon="-5.6914502">
        <ele>1032.98</ele>
        <time>2020-07-21T05:54:34.000Z</time>
      </trkpt>
      <trkpt lat="42.8709072" lon="-5.6914348">
        <ele>1032.98</ele>
        <time>2020-07-21T05:54:35.000Z</time>
      </trkpt>
      <trkpt lat="42.8709023" lon="-5.6914195">
        <ele>1032.98</ele>
        <time>2020-07-21T05:54:36.000Z</time>
      </trkpt>
      <trkpt lat="42.8708975" lon="-5.6914027">
        <ele>1032.98</ele>
        <time>2020-07-21T05:54:37.000Z</time>
      </trkpt>
      <trkpt lat="42.8708922" lon="-5.6913855">
        <ele>1032.98</ele>
        <time>2020-07-21T05:54:38.000Z</time>
      </trkpt>
      <trkpt lat="42.870888" lon="-5.6913682">
        <ele>1032.83</ele>
        <time>2020-07-21T05:54:39.000Z</time>
      </trkpt>
      <trkpt lat="42.8708847" lon="-5.6913513">
        <ele>1032.83</ele>
        <time>2020-07-21T05:54:40.000Z</time>
      </trkpt>
      <trkpt lat="42.8708828" lon="-5.6913345">
        <ele>1032.83</ele>
        <time>2020-07-21T05:54:41.000Z</time>
      </trkpt>
      <trkpt lat="42.870882" lon="-5.691318">
        <ele>1032.83</ele>
        <time>2020-07-21T05:54:42.000Z</time>
      </trkpt>
      <trkpt lat="42.8708815" lon="-5.6913008">
        <ele>1032.83</ele>
        <time>2020-07-21T05:54:43.000Z</time>
      </trkpt>
      <trkpt lat="42.8708808" lon="-5.6912842">
        <ele>1032.83</ele>
        <time>2020-07-21T05:54:44.000Z</time>
      </trkpt>
      <trkpt lat="42.8708792" lon="-5.6912672">
        <ele>1032.68</ele>
        <time>2020-07-21T05:54:45.000Z</time>
      </trkpt>
      <trkpt lat="42.870877" lon="-5.691251">
        <ele>1032.68</ele>
        <time>2020-07-21T05:54:46.000Z</time>
      </trkpt>
      <trkpt lat="42.8708752" lon="-5.6912345">
        <ele>1032.68</ele>
        <time>2020-07-21T05:54:47.000Z</time>
      </trkpt>
      <trkpt lat="42.8708725" lon="-5.6912183">
        <ele>1032.68</ele>
        <time>2020-07-21T05:54:48.000Z</time>
      </trkpt>
      <trkpt lat="42.8708702" lon="-5.6912017">
        <ele>1032.68</ele>
        <time>2020-07-21T05:54:49.000Z</time>
      </trkpt>
      <trkpt lat="42.8708668" lon="-5.6911853">
        <ele>1032.68</ele>
        <time>2020-07-21T05:54:50.000Z</time>
      </trkpt>
      <trkpt lat="42.8708648" lon="-5.6911687">
        <ele>1032.68</ele>
        <time>2020-07-21T05:54:51.000Z</time>
      </trkpt>
      <trkpt lat="42.8708633" lon="-5.6911525">
        <ele>1032.68</ele>
        <time>2020-07-21T05:54:52.000Z</time>
      </trkpt>
      <trkpt lat="42.8708615" lon="-5.6911362">
        <ele>1032.68</ele>
        <time>2020-07-21T05:54:53.000Z</time>
      </trkpt>
      <trkpt lat="42.8708587" lon="-5.6911207">
        <ele>1032.68</ele>
        <time>2020-07-21T05:54:54.000Z</time>
      </trkpt>
      <trkpt lat="42.8708557" lon="-5.691105">
        <ele>1032.68</ele>
        <time>2020-07-21T05:54:55.000Z</time>
      </trkpt>
      <trkpt lat="42.8708533" lon="-5.691089">
        <ele>1032.68</ele>
        <time>2020-07-21T05:54:56.000Z</time>
      </trkpt>
      <trkpt lat="42.8708517" lon="-5.6910723">
        <ele>1032.52</ele>
        <time>2020-07-21T05:54:57.000Z</time>
      </trkpt>
      <trkpt lat="42.8708507" lon="-5.691056">
        <ele>1032.52</ele>
        <time>2020-07-21T05:54:58.000Z</time>
      </trkpt>
      <trkpt lat="42.8708498" lon="-5.6910397">
        <ele>1032.52</ele>
        <time>2020-07-21T05:54:59.000Z</time>
      </trkpt>
      <trkpt lat="42.870848" lon="-5.6910232">
        <ele>1032.52</ele>
        <time>2020-07-21T05:55:00.000Z</time>
      </trkpt>
      <trkpt lat="42.8708448" lon="-5.6910065">
        <ele>1032.37</ele>
        <time>2020-07-21T05:55:01.000Z</time>
      </trkpt>
      <trkpt lat="42.870843" lon="-5.69099">
        <ele>1032.37</ele>
        <time>2020-07-21T05:55:02.000Z</time>
      </trkpt>
      <trkpt lat="42.8708415" lon="-5.6909742">
        <ele>1032.22</ele>
        <time>2020-07-21T05:55:03.000Z</time>
      </trkpt>
      <trkpt lat="42.8708407" lon="-5.6909585">
        <ele>1032.22</ele>
        <time>2020-07-21T05:55:04.000Z</time>
      </trkpt>
      <trkpt lat="42.8708387" lon="-5.6909425">
        <ele>1032.06</ele>
        <time>2020-07-21T05:55:05.000Z</time>
      </trkpt>
      <trkpt lat="42.8708363" lon="-5.6909258">
        <ele>1032.06</ele>
        <time>2020-07-21T05:55:06.000Z</time>
      </trkpt>
      <trkpt lat="42.8708337" lon="-5.6909087">
        <ele>1032.06</ele>
        <time>2020-07-21T05:55:07.000Z</time>
      </trkpt>
      <trkpt lat="42.870832" lon="-5.6908912">
        <ele>1032.06</ele>
        <time>2020-07-21T05:55:08.000Z</time>
      </trkpt>
      <trkpt lat="42.87083" lon="-5.690874">
        <ele>1031.91</ele>
        <time>2020-07-21T05:55:09.000Z</time>
      </trkpt>
      <trkpt lat="42.8708287" lon="-5.6908575">
        <ele>1031.91</ele>
        <time>2020-07-21T05:55:10.000Z</time>
      </trkpt>
      <trkpt lat="42.8708267" lon="-5.690841">
        <ele>1031.91</ele>
        <time>2020-07-21T05:55:11.000Z</time>
      </trkpt>
      <trkpt lat="42.8708245" lon="-5.6908245">
        <ele>1031.91</ele>
        <time>2020-07-21T05:55:12.000Z</time>
      </trkpt>
      <trkpt lat="42.8708213" lon="-5.6908078">
        <ele>1031.91</ele>
        <time>2020-07-21T05:55:13.000Z</time>
      </trkpt>
      <trkpt lat="42.8708182" lon="-5.6907915">
        <ele>1031.91</ele>
        <time>2020-07-21T05:55:14.000Z</time>
      </trkpt>
      <trkpt lat="42.8708157" lon="-5.6907755">
        <ele>1031.91</ele>
        <time>2020-07-21T05:55:15.000Z</time>
      </trkpt>
      <trkpt lat="42.8708138" lon="-5.690759">
        <ele>1031.91</ele>
        <time>2020-07-21T05:55:16.000Z</time>
      </trkpt>
      <trkpt lat="42.8708127" lon="-5.6907427">
        <ele>1031.76</ele>
        <time>2020-07-21T05:55:17.000Z</time>
      </trkpt>
      <trkpt lat="42.870811" lon="-5.6907263">
        <ele>1031.76</ele>
        <time>2020-07-21T05:55:18.000Z</time>
      </trkpt>
      <trkpt lat="42.8708092" lon="-5.6907103">
        <ele>1031.76</ele>
        <time>2020-07-21T05:55:19.000Z</time>
      </trkpt>
      <trkpt lat="42.8708058" lon="-5.6906943">
        <ele>1031.76</ele>
        <time>2020-07-21T05:55:20.000Z</time>
      </trkpt>
      <trkpt lat="42.8708013" lon="-5.6906788">
        <ele>1031.76</ele>
        <time>2020-07-21T05:55:21.000Z</time>
      </trkpt>
      <trkpt lat="42.8707965" lon="-5.6906627">
        <ele>1031.76</ele>
        <time>2020-07-21T05:55:22.000Z</time>
      </trkpt>
      <trkpt lat="42.8707918" lon="-5.690646">
        <ele>1031.76</ele>
        <time>2020-07-21T05:55:23.000Z</time>
      </trkpt>
      <trkpt lat="42.8707887" lon="-5.6906288">
        <ele>1031.76</ele>
        <time>2020-07-21T05:55:24.000Z</time>
      </trkpt>
      <trkpt lat="42.870785" lon="-5.6906122">
        <ele>1031.61</ele>
        <time>2020-07-21T05:55:25.000Z</time>
      </trkpt>
      <trkpt lat="42.8707812" lon="-5.6905952">
        <ele>1031.61</ele>
        <time>2020-07-21T05:55:26.000Z</time>
      </trkpt>
      <trkpt lat="42.8707782" lon="-5.6905785">
        <ele>1031.61</ele>
        <time>2020-07-21T05:55:27.000Z</time>
      </trkpt>
      <trkpt lat="42.8707763" lon="-5.6905615">
        <ele>1031.61</ele>
        <time>2020-07-21T05:55:28.000Z</time>
      </trkpt>
      <trkpt lat="42.870774" lon="-5.6905448">
        <ele>1031.61</ele>
        <time>2020-07-21T05:55:29.000Z</time>
      </trkpt>
      <trkpt lat="42.8707692" lon="-5.6905278">
        <ele>1031.61</ele>
        <time>2020-07-21T05:55:30.000Z</time>
      </trkpt>
      <trkpt lat="42.8707648" lon="-5.690511">
        <ele>1031.46</ele>
        <time>2020-07-21T05:55:31.000Z</time>
      </trkpt>
      <trkpt lat="42.870763" lon="-5.6904938">
        <ele>1031.46</ele>
        <time>2020-07-21T05:55:32.000Z</time>
      </trkpt>
      <trkpt lat="42.8707618" lon="-5.6904765">
        <ele>1031.46</ele>
        <time>2020-07-21T05:55:33.000Z</time>
      </trkpt>
      <trkpt lat="42.8707593" lon="-5.6904598">
        <ele>1031.46</ele>
        <time>2020-07-21T05:55:34.000Z</time>
      </trkpt>
      <trkpt lat="42.8707582" lon="-5.6904437">
        <ele>1031.3</ele>
        <time>2020-07-21T05:55:35.000Z</time>
      </trkpt>
      <trkpt lat="42.8707582" lon="-5.6904268">
        <ele>1031.3</ele>
        <time>2020-07-21T05:55:36.000Z</time>
      </trkpt>
      <trkpt lat="42.8707563" lon="-5.6904085">
        <ele>1031.3</ele>
        <time>2020-07-21T05:55:37.000Z</time>
      </trkpt>
      <trkpt lat="42.8707532" lon="-5.6903902">
        <ele>1031.3</ele>
        <time>2020-07-21T05:55:38.000Z</time>
      </trkpt>
      <trkpt lat="42.8707555" lon="-5.690372">
        <ele>1031.15</ele>
        <time>2020-07-21T05:55:39.000Z</time>
      </trkpt>
      <trkpt lat="42.8707593" lon="-5.690355">
        <ele>1031.15</ele>
        <time>2020-07-21T05:55:40.000Z</time>
      </trkpt>
      <trkpt lat="42.8707635" lon="-5.6903375">
        <ele>1031.15</ele>
        <time>2020-07-21T05:55:41.000Z</time>
      </trkpt>
      <trkpt lat="42.870762" lon="-5.690321">
        <ele>1031.15</ele>
        <time>2020-07-21T05:55:42.000Z</time>
      </trkpt>
      <trkpt lat="42.8707612" lon="-5.6903035">
        <ele>1031.15</ele>
        <time>2020-07-21T05:55:43.000Z</time>
      </trkpt>
      <trkpt lat="42.8707595" lon="-5.6902867">
        <ele>1031.15</ele>
        <time>2020-07-21T05:55:44.000Z</time>
      </trkpt>
      <trkpt lat="42.8707567" lon="-5.6902682">
        <ele>1031</ele>
        <time>2020-07-21T05:55:45.000Z</time>
      </trkpt>
      <trkpt lat="42.870754" lon="-5.6902508">
        <ele>1031</ele>
        <time>2020-07-21T05:55:46.000Z</time>
      </trkpt>
      <trkpt lat="42.8707505" lon="-5.6902328">
        <ele>1031</ele>
        <time>2020-07-21T05:55:47.000Z</time>
      </trkpt>
      <trkpt lat="42.8707477" lon="-5.6902163">
        <ele>1031</ele>
        <time>2020-07-21T05:55:48.000Z</time>
      </trkpt>
      <trkpt lat="42.8707438" lon="-5.6901992">
        <ele>1031</ele>
        <time>2020-07-21T05:55:49.000Z</time>
      </trkpt>
      <trkpt lat="42.87074" lon="-5.6901823">
        <ele>1031</ele>
        <time>2020-07-21T05:55:50.000Z</time>
      </trkpt>
      <trkpt lat="42.8707355" lon="-5.6901658">
        <ele>1030.85</ele>
        <time>2020-07-21T05:55:51.000Z</time>
      </trkpt>
      <trkpt lat="42.8707333" lon="-5.6901503">
        <ele>1030.85</ele>
        <time>2020-07-21T05:55:52.000Z</time>
      </trkpt>
      <trkpt lat="42.8707322" lon="-5.6901348">
        <ele>1030.85</ele>
        <time>2020-07-21T05:55:53.000Z</time>
      </trkpt>
      <trkpt lat="42.8707322" lon="-5.6901192">
        <ele>1030.85</ele>
        <time>2020-07-21T05:55:54.000Z</time>
      </trkpt>
      <trkpt lat="42.8707317" lon="-5.6901027">
        <ele>1030.85</ele>
        <time>2020-07-21T05:55:55.000Z</time>
      </trkpt>
      <trkpt lat="42.8707307" lon="-5.6900862">
        <ele>1030.85</ele>
        <time>2020-07-21T05:55:56.000Z</time>
      </trkpt>
      <trkpt lat="42.8707293" lon="-5.6900703">
        <ele>1030.69</ele>
        <time>2020-07-21T05:55:57.000Z</time>
      </trkpt>
      <trkpt lat="42.8707267" lon="-5.690055">
        <ele>1030.69</ele>
        <time>2020-07-21T05:55:58.000Z</time>
      </trkpt>
      <trkpt lat="42.870723" lon="-5.6900388">
        <ele>1030.69</ele>
        <time>2020-07-21T05:55:59.000Z</time>
      </trkpt>
      <trkpt lat="42.8707193" lon="-5.690022">
        <ele>1030.69</ele>
        <time>2020-07-21T05:56:00.000Z</time>
      </trkpt>
      <trkpt lat="42.870716" lon="-5.6900053">
        <ele>1030.69</ele>
        <time>2020-07-21T05:56:01.000Z</time>
      </trkpt>
      <trkpt lat="42.870714" lon="-5.6899893">
        <ele>1030.69</ele>
        <time>2020-07-21T05:56:02.000Z</time>
      </trkpt>
      <trkpt lat="42.8707118" lon="-5.6899725">
        <ele>1030.54</ele>
        <time>2020-07-21T05:56:03.000Z</time>
      </trkpt>
      <trkpt lat="42.8707098" lon="-5.6899553">
        <ele>1030.54</ele>
        <time>2020-07-21T05:56:04.000Z</time>
      </trkpt>
      <trkpt lat="42.8707077" lon="-5.6899383">
        <ele>1030.54</ele>
        <time>2020-07-21T05:56:05.000Z</time>
      </trkpt>
      <trkpt lat="42.8707045" lon="-5.6899217">
        <ele>1030.54</ele>
        <time>2020-07-21T05:56:06.000Z</time>
      </trkpt>
      <trkpt lat="42.8707012" lon="-5.6899053">
        <ele>1030.54</ele>
        <time>2020-07-21T05:56:07.000Z</time>
      </trkpt>
      <trkpt lat="42.870697" lon="-5.6898887">
        <ele>1030.54</ele>
        <time>2020-07-21T05:56:08.000Z</time>
      </trkpt>
      <trkpt lat="42.8706945" lon="-5.6898712">
        <ele>1030.54</ele>
        <time>2020-07-21T05:56:09.000Z</time>
      </trkpt>
      <trkpt lat="42.8706918" lon="-5.6898533">
        <ele>1030.54</ele>
        <time>2020-07-21T05:56:10.000Z</time>
      </trkpt>
      <trkpt lat="42.8706895" lon="-5.689836">
        <ele>1030.39</ele>
        <time>2020-07-21T05:56:11.000Z</time>
      </trkpt>
      <trkpt lat="42.8706872" lon="-5.6898195">
        <ele>1030.39</ele>
        <time>2020-07-21T05:56:12.000Z</time>
      </trkpt>
      <trkpt lat="42.8706832" lon="-5.6898035">
        <ele>1030.39</ele>
        <time>2020-07-21T05:56:13.000Z</time>
      </trkpt>
      <trkpt lat="42.8706795" lon="-5.6897878">
        <ele>1030.39</ele>
        <time>2020-07-21T05:56:14.000Z</time>
      </trkpt>
      <trkpt lat="42.870674" lon="-5.6897718">
        <ele>1030.39</ele>
        <time>2020-07-21T05:56:15.000Z</time>
      </trkpt>
      <trkpt lat="42.8706692" lon="-5.6897558">
        <ele>1030.39</ele>
        <time>2020-07-21T05:56:16.000Z</time>
      </trkpt>
      <trkpt lat="42.8706637" lon="-5.6897398">
        <ele>1030.39</ele>
        <time>2020-07-21T05:56:17.000Z</time>
      </trkpt>
      <trkpt lat="42.8706585" lon="-5.6897248">
        <ele>1030.39</ele>
        <time>2020-07-21T05:56:18.000Z</time>
      </trkpt>
      <trkpt lat="42.870653" lon="-5.689709">
        <ele>1030.39</ele>
        <time>2020-07-21T05:56:19.000Z</time>
      </trkpt>
      <trkpt lat="42.8706482" lon="-5.6896922">
        <ele>1030.39</ele>
        <time>2020-07-21T05:56:20.000Z</time>
      </trkpt>
      <trkpt lat="42.870644" lon="-5.6896748">
        <ele>1030.39</ele>
        <time>2020-07-21T05:56:21.000Z</time>
      </trkpt>
      <trkpt lat="42.8706402" lon="-5.6896578">
        <ele>1030.39</ele>
        <time>2020-07-21T05:56:22.000Z</time>
      </trkpt>
      <trkpt lat="42.8706368" lon="-5.6896412">
        <ele>1030.39</ele>
        <time>2020-07-21T05:56:23.000Z</time>
      </trkpt>
      <trkpt lat="42.8706328" lon="-5.6896242">
        <ele>1030.39</ele>
        <time>2020-07-21T05:56:24.000Z</time>
      </trkpt>
      <trkpt lat="42.8706302" lon="-5.689607">
        <ele>1030.39</ele>
        <time>2020-07-21T05:56:25.000Z</time>
      </trkpt>
      <trkpt lat="42.870628" lon="-5.6895895">
        <ele>1030.39</ele>
        <time>2020-07-21T05:56:26.000Z</time>
      </trkpt>
      <trkpt lat="42.8706265" lon="-5.6895722">
        <ele>1030.39</ele>
        <time>2020-07-21T05:56:27.000Z</time>
      </trkpt>
      <trkpt lat="42.8706247" lon="-5.6895553">
        <ele>1030.39</ele>
        <time>2020-07-21T05:56:28.000Z</time>
      </trkpt>
      <trkpt lat="42.8706223" lon="-5.6895392">
        <ele>1030.39</ele>
        <time>2020-07-21T05:56:29.000Z</time>
      </trkpt>
      <trkpt lat="42.8706198" lon="-5.6895233">
        <ele>1030.39</ele>
        <time>2020-07-21T05:56:30.000Z</time>
      </trkpt>
      <trkpt lat="42.8706172" lon="-5.6895072">
        <ele>1030.39</ele>
        <time>2020-07-21T05:56:31.000Z</time>
      </trkpt>
      <trkpt lat="42.8706142" lon="-5.6894905">
        <ele>1030.39</ele>
        <time>2020-07-21T05:56:32.000Z</time>
      </trkpt>
      <trkpt lat="42.8706115" lon="-5.6894737">
        <ele>1030.54</ele>
        <time>2020-07-21T05:56:33.000Z</time>
      </trkpt>
      <trkpt lat="42.8706093" lon="-5.6894568">
        <ele>1030.54</ele>
        <time>2020-07-21T05:56:34.000Z</time>
      </trkpt>
      <trkpt lat="42.8706077" lon="-5.6894398">
        <ele>1030.54</ele>
        <time>2020-07-21T05:56:35.000Z</time>
      </trkpt>
      <trkpt lat="42.8706048" lon="-5.689422">
        <ele>1030.54</ele>
        <time>2020-07-21T05:56:36.000Z</time>
      </trkpt>
      <trkpt lat="42.870601" lon="-5.6894033">
        <ele>1030.54</ele>
        <time>2020-07-21T05:56:37.000Z</time>
      </trkpt>
      <trkpt lat="42.8705975" lon="-5.6893848">
        <ele>1030.54</ele>
        <time>2020-07-21T05:56:38.000Z</time>
      </trkpt>
      <trkpt lat="42.8705942" lon="-5.6893668">
        <ele>1030.69</ele>
        <time>2020-07-21T05:56:39.000Z</time>
      </trkpt>
      <trkpt lat="42.8705902" lon="-5.689349">
        <ele>1030.69</ele>
        <time>2020-07-21T05:56:40.000Z</time>
      </trkpt>
      <trkpt lat="42.8705865" lon="-5.6893317">
        <ele>1030.69</ele>
        <time>2020-07-21T05:56:41.000Z</time>
      </trkpt>
      <trkpt lat="42.8705822" lon="-5.6893142">
        <ele>1030.69</ele>
        <time>2020-07-21T05:56:42.000Z</time>
      </trkpt>
      <trkpt lat="42.87058" lon="-5.6892975">
        <ele>1030.69</ele>
        <time>2020-07-21T05:56:43.000Z</time>
      </trkpt>
      <trkpt lat="42.8705773" lon="-5.68928">
        <ele>1030.69</ele>
        <time>2020-07-21T05:56:44.000Z</time>
      </trkpt>
      <trkpt lat="42.870575" lon="-5.6892627">
        <ele>1030.85</ele>
        <time>2020-07-21T05:56:45.000Z</time>
      </trkpt>
      <trkpt lat="42.8705728" lon="-5.6892455">
        <ele>1030.85</ele>
        <time>2020-07-21T05:56:46.000Z</time>
      </trkpt>
      <trkpt lat="42.8705702" lon="-5.6892287">
        <ele>1031</ele>
        <time>2020-07-21T05:56:47.000Z</time>
      </trkpt>
      <trkpt lat="42.8705677" lon="-5.6892118">
        <ele>1031</ele>
        <time>2020-07-21T05:56:48.000Z</time>
      </trkpt>
      <trkpt lat="42.870564" lon="-5.6891945">
        <ele>1031</ele>
        <time>2020-07-21T05:56:49.000Z</time>
      </trkpt>
      <trkpt lat="42.8705598" lon="-5.689178">
        <ele>1031</ele>
        <time>2020-07-21T05:56:50.000Z</time>
      </trkpt>
      <trkpt lat="42.8705552" lon="-5.6891613">
        <ele>1031.15</ele>
        <time>2020-07-21T05:56:51.000Z</time>
      </trkpt>
      <trkpt lat="42.87055" lon="-5.6891453">
        <ele>1031.15</ele>
        <time>2020-07-21T05:56:52.000Z</time>
      </trkpt>
      <trkpt lat="42.8705452" lon="-5.6891293">
        <ele>1031.3</ele>
        <time>2020-07-21T05:56:53.000Z</time>
      </trkpt>
      <trkpt lat="42.8705415" lon="-5.6891132">
        <ele>1031.3</ele>
        <time>2020-07-21T05:56:54.000Z</time>
      </trkpt>
      <trkpt lat="42.8705385" lon="-5.6890972">
        <ele>1031.3</ele>
        <time>2020-07-21T05:56:55.000Z</time>
      </trkpt>
      <trkpt lat="42.870535" lon="-5.6890807">
        <ele>1031.3</ele>
        <time>2020-07-21T05:56:56.000Z</time>
      </trkpt>
      <trkpt lat="42.8705298" lon="-5.6890637">
        <ele>1031.46</ele>
        <time>2020-07-21T05:56:57.000Z</time>
      </trkpt>
      <trkpt lat="42.8705238" lon="-5.6890455">
        <ele>1031.46</ele>
        <time>2020-07-21T05:56:58.000Z</time>
      </trkpt>
      <trkpt lat="42.8705195" lon="-5.6890267">
        <ele>1031.46</ele>
        <time>2020-07-21T05:56:59.000Z</time>
      </trkpt>
      <trkpt lat="42.8705157" lon="-5.6890087">
        <ele>1031.46</ele>
        <time>2020-07-21T05:57:00.000Z</time>
      </trkpt>
      <trkpt lat="42.8705132" lon="-5.6889912">
        <ele>1031.61</ele>
        <time>2020-07-21T05:57:01.000Z</time>
      </trkpt>
      <trkpt lat="42.8705112" lon="-5.6889737">
        <ele>1031.61</ele>
        <time>2020-07-21T05:57:02.000Z</time>
      </trkpt>
      <trkpt lat="42.8705107" lon="-5.6889555">
        <ele>1031.61</ele>
        <time>2020-07-21T05:57:03.000Z</time>
      </trkpt>
      <trkpt lat="42.8705102" lon="-5.6889372">
        <ele>1031.61</ele>
        <time>2020-07-21T05:57:04.000Z</time>
      </trkpt>
      <trkpt lat="42.870509" lon="-5.6889195">
        <ele>1031.76</ele>
        <time>2020-07-21T05:57:05.000Z</time>
      </trkpt>
      <trkpt lat="42.870508" lon="-5.688902">
        <ele>1031.76</ele>
        <time>2020-07-21T05:57:06.000Z</time>
      </trkpt>
      <trkpt lat="42.8705063" lon="-5.6888845">
        <ele>1031.76</ele>
        <time>2020-07-21T05:57:07.000Z</time>
      </trkpt>
      <trkpt lat="42.870504" lon="-5.6888665">
        <ele>1031.76</ele>
        <time>2020-07-21T05:57:08.000Z</time>
      </trkpt>
      <trkpt lat="42.8705008" lon="-5.6888487">
        <ele>1031.91</ele>
        <time>2020-07-21T05:57:09.000Z</time>
      </trkpt>
      <trkpt lat="42.8704978" lon="-5.6888307">
        <ele>1031.91</ele>
        <time>2020-07-21T05:57:10.000Z</time>
      </trkpt>
      <trkpt lat="42.8704933" lon="-5.6888127">
        <ele>1031.91</ele>
        <time>2020-07-21T05:57:11.000Z</time>
      </trkpt>
      <trkpt lat="42.8704883" lon="-5.6887948">
        <ele>1031.91</ele>
        <time>2020-07-21T05:57:12.000Z</time>
      </trkpt>
      <trkpt lat="42.870483" lon="-5.6887775">
        <ele>1031.91</ele>
        <time>2020-07-21T05:57:13.000Z</time>
      </trkpt>
      <trkpt lat="42.8704787" lon="-5.688761">
        <ele>1031.91</ele>
        <time>2020-07-21T05:57:14.000Z</time>
      </trkpt>
      <trkpt lat="42.870475" lon="-5.6887452">
        <ele>1031.91</ele>
        <time>2020-07-21T05:57:15.000Z</time>
      </trkpt>
      <trkpt lat="42.8704723" lon="-5.6887295">
        <ele>1031.91</ele>
        <time>2020-07-21T05:57:16.000Z</time>
      </trkpt>
      <trkpt lat="42.8704697" lon="-5.6887132">
        <ele>1032.06</ele>
        <time>2020-07-21T05:57:17.000Z</time>
      </trkpt>
      <trkpt lat="42.8704677" lon="-5.6886965">
        <ele>1032.06</ele>
        <time>2020-07-21T05:57:18.000Z</time>
      </trkpt>
      <trkpt lat="42.8704642" lon="-5.6886792">
        <ele>1032.06</ele>
        <time>2020-07-21T05:57:19.000Z</time>
      </trkpt>
      <trkpt lat="42.8704607" lon="-5.6886613">
        <ele>1032.06</ele>
        <time>2020-07-21T05:57:20.000Z</time>
      </trkpt>
      <trkpt lat="42.8704562" lon="-5.6886422">
        <ele>1032.06</ele>
        <time>2020-07-21T05:57:21.000Z</time>
      </trkpt>
      <trkpt lat="42.870452" lon="-5.6886232">
        <ele>1032.06</ele>
        <time>2020-07-21T05:57:22.000Z</time>
      </trkpt>
      <trkpt lat="42.8704487" lon="-5.6886042">
        <ele>1032.06</ele>
        <time>2020-07-21T05:57:23.000Z</time>
      </trkpt>
      <trkpt lat="42.8704457" lon="-5.6885855">
        <ele>1032.06</ele>
        <time>2020-07-21T05:57:24.000Z</time>
      </trkpt>
      <trkpt lat="42.8704423" lon="-5.6885683">
        <ele>1032.06</ele>
        <time>2020-07-21T05:57:25.000Z</time>
      </trkpt>
      <trkpt lat="42.8704375" lon="-5.688551">
        <ele>1032.06</ele>
        <time>2020-07-21T05:57:26.000Z</time>
      </trkpt>
      <trkpt lat="42.870434" lon="-5.6885343">
        <ele>1032.06</ele>
        <time>2020-07-21T05:57:27.000Z</time>
      </trkpt>
      <trkpt lat="42.8704315" lon="-5.6885167">
        <ele>1032.06</ele>
        <time>2020-07-21T05:57:28.000Z</time>
      </trkpt>
      <trkpt lat="42.87043" lon="-5.6884995">
        <ele>1032.06</ele>
        <time>2020-07-21T05:57:29.000Z</time>
      </trkpt>
      <trkpt lat="42.8704275" lon="-5.6884833">
        <ele>1032.06</ele>
        <time>2020-07-21T05:57:30.000Z</time>
      </trkpt>
      <trkpt lat="42.8704248" lon="-5.688467">
        <ele>1032.06</ele>
        <time>2020-07-21T05:57:31.000Z</time>
      </trkpt>
      <trkpt lat="42.8704208" lon="-5.6884513">
        <ele>1032.06</ele>
        <time>2020-07-21T05:57:32.000Z</time>
      </trkpt>
      <trkpt lat="42.8704168" lon="-5.6884338">
        <ele>1032.22</ele>
        <time>2020-07-21T05:57:33.000Z</time>
      </trkpt>
      <trkpt lat="42.8704127" lon="-5.688416">
        <ele>1032.22</ele>
        <time>2020-07-21T05:57:34.000Z</time>
      </trkpt>
      <trkpt lat="42.870409" lon="-5.6883975">
        <ele>1032.22</ele>
        <time>2020-07-21T05:57:35.000Z</time>
      </trkpt>
      <trkpt lat="42.870404" lon="-5.68838">
        <ele>1032.22</ele>
        <time>2020-07-21T05:57:36.000Z</time>
      </trkpt>
      <trkpt lat="42.8703985" lon="-5.6883622">
        <ele>1032.22</ele>
        <time>2020-07-21T05:57:37.000Z</time>
      </trkpt>
      <trkpt lat="42.8703938" lon="-5.6883437">
        <ele>1032.22</ele>
        <time>2020-07-21T05:57:38.000Z</time>
      </trkpt>
      <trkpt lat="42.8703912" lon="-5.6883252">
        <ele>1032.22</ele>
        <time>2020-07-21T05:57:39.000Z</time>
      </trkpt>
      <trkpt lat="42.870387" lon="-5.6883052">
        <ele>1032.22</ele>
        <time>2020-07-21T05:57:40.000Z</time>
      </trkpt>
      <trkpt lat="42.8703828" lon="-5.6882853">
        <ele>1032.22</ele>
        <time>2020-07-21T05:57:41.000Z</time>
      </trkpt>
      <trkpt lat="42.8703787" lon="-5.6882652">
        <ele>1032.22</ele>
        <time>2020-07-21T05:57:42.000Z</time>
      </trkpt>
      <trkpt lat="42.870376" lon="-5.6882458">
        <ele>1032.22</ele>
        <time>2020-07-21T05:57:43.000Z</time>
      </trkpt>
      <trkpt lat="42.8703728" lon="-5.688227">
        <ele>1032.22</ele>
        <time>2020-07-21T05:57:44.000Z</time>
      </trkpt>
      <trkpt lat="42.870369" lon="-5.6882093">
        <ele>1032.22</ele>
        <time>2020-07-21T05:57:45.000Z</time>
      </trkpt>
      <trkpt lat="42.8703655" lon="-5.6881932">
        <ele>1032.22</ele>
        <time>2020-07-21T05:57:46.000Z</time>
      </trkpt>
      <trkpt lat="42.8703608" lon="-5.6881767">
        <ele>1032.22</ele>
        <time>2020-07-21T05:57:47.000Z</time>
      </trkpt>
      <trkpt lat="42.8703572" lon="-5.6881592">
        <ele>1032.22</ele>
        <time>2020-07-21T05:57:48.000Z</time>
      </trkpt>
      <trkpt lat="42.8703533" lon="-5.6881405">
        <ele>1032.22</ele>
        <time>2020-07-21T05:57:49.000Z</time>
      </trkpt>
      <trkpt lat="42.870351" lon="-5.6881222">
        <ele>1032.22</ele>
        <time>2020-07-21T05:57:50.000Z</time>
      </trkpt>
      <trkpt lat="42.8703492" lon="-5.688104">
        <ele>1032.22</ele>
        <time>2020-07-21T05:57:51.000Z</time>
      </trkpt>
      <trkpt lat="42.8703483" lon="-5.6880862">
        <ele>1032.22</ele>
        <time>2020-07-21T05:57:52.000Z</time>
      </trkpt>
      <trkpt lat="42.8703475" lon="-5.688068">
        <ele>1032.06</ele>
        <time>2020-07-21T05:57:53.000Z</time>
      </trkpt>
      <trkpt lat="42.8703463" lon="-5.68805">
        <ele>1032.06</ele>
        <time>2020-07-21T05:57:54.000Z</time>
      </trkpt>
      <trkpt lat="42.8703468" lon="-5.6880337">
        <ele>1032.06</ele>
        <time>2020-07-21T05:57:55.000Z</time>
      </trkpt>
      <trkpt lat="42.8703492" lon="-5.6880172">
        <ele>1032.06</ele>
        <time>2020-07-21T05:57:56.000Z</time>
      </trkpt>
      <trkpt lat="42.8703525" lon="-5.6880003">
        <ele>1032.06</ele>
        <time>2020-07-21T05:57:57.000Z</time>
      </trkpt>
      <trkpt lat="42.8703547" lon="-5.687982">
        <ele>1032.06</ele>
        <time>2020-07-21T05:57:58.000Z</time>
      </trkpt>
      <trkpt lat="42.8703555" lon="-5.6879633">
        <ele>1032.06</ele>
        <time>2020-07-21T05:57:59.000Z</time>
      </trkpt>
      <trkpt lat="42.8703553" lon="-5.6879447">
        <ele>1032.06</ele>
        <time>2020-07-21T05:58:00.000Z</time>
      </trkpt>
      <trkpt lat="42.8703547" lon="-5.6879262">
        <ele>1032.06</ele>
        <time>2020-07-21T05:58:01.000Z</time>
      </trkpt>
      <trkpt lat="42.870354" lon="-5.6879088">
        <ele>1032.06</ele>
        <time>2020-07-21T05:58:02.000Z</time>
      </trkpt>
      <trkpt lat="42.8703532" lon="-5.6878913">
        <ele>1032.06</ele>
        <time>2020-07-21T05:58:03.000Z</time>
      </trkpt>
      <trkpt lat="42.8703535" lon="-5.6878742">
        <ele>1032.06</ele>
        <time>2020-07-21T05:58:04.000Z</time>
      </trkpt>
      <trkpt lat="42.8703543" lon="-5.6878565">
        <ele>1032.06</ele>
        <time>2020-07-21T05:58:05.000Z</time>
      </trkpt>
      <trkpt lat="42.8703555" lon="-5.687839">
        <ele>1032.06</ele>
        <time>2020-07-21T05:58:06.000Z</time>
      </trkpt>
      <trkpt lat="42.8703552" lon="-5.6878212">
        <ele>1032.06</ele>
        <time>2020-07-21T05:58:07.000Z</time>
      </trkpt>
      <trkpt lat="42.8703552" lon="-5.6878033">
        <ele>1032.06</ele>
        <time>2020-07-21T05:58:08.000Z</time>
      </trkpt>
      <trkpt lat="42.8703572" lon="-5.6877847">
        <ele>1032.06</ele>
        <time>2020-07-21T05:58:09.000Z</time>
      </trkpt>
      <trkpt lat="42.8703603" lon="-5.687766">
        <ele>1032.06</ele>
        <time>2020-07-21T05:58:10.000Z</time>
      </trkpt>
      <trkpt lat="42.8703635" lon="-5.6877468">
        <ele>1032.06</ele>
        <time>2020-07-21T05:58:11.000Z</time>
      </trkpt>
      <trkpt lat="42.8703658" lon="-5.6877283">
        <ele>1032.06</ele>
        <time>2020-07-21T05:58:12.000Z</time>
      </trkpt>
      <trkpt lat="42.8703683" lon="-5.68771">
        <ele>1032.06</ele>
        <time>2020-07-21T05:58:13.000Z</time>
      </trkpt>
      <trkpt lat="42.8703703" lon="-5.6876918">
        <ele>1032.06</ele>
        <time>2020-07-21T05:58:14.000Z</time>
      </trkpt>
      <trkpt lat="42.8703725" lon="-5.6876743">
        <ele>1031.91</ele>
        <time>2020-07-21T05:58:15.000Z</time>
      </trkpt>
      <trkpt lat="42.8703748" lon="-5.6876572">
        <ele>1031.91</ele>
        <time>2020-07-21T05:58:16.000Z</time>
      </trkpt>
      <trkpt lat="42.8703778" lon="-5.6876405">
        <ele>1031.91</ele>
        <time>2020-07-21T05:58:17.000Z</time>
      </trkpt>
      <trkpt lat="42.8703815" lon="-5.6876223">
        <ele>1031.91</ele>
        <time>2020-07-21T05:58:18.000Z</time>
      </trkpt>
      <trkpt lat="42.8703842" lon="-5.6876042">
        <ele>1031.76</ele>
        <time>2020-07-21T05:58:19.000Z</time>
      </trkpt>
      <trkpt lat="42.8703862" lon="-5.687586">
        <ele>1031.76</ele>
        <time>2020-07-21T05:58:20.000Z</time>
      </trkpt>
      <trkpt lat="42.870387" lon="-5.6875685">
        <ele>1031.76</ele>
        <time>2020-07-21T05:58:21.000Z</time>
      </trkpt>
      <trkpt lat="42.8703863" lon="-5.6875525">
        <ele>1031.76</ele>
        <time>2020-07-21T05:58:22.000Z</time>
      </trkpt>
      <trkpt lat="42.8703827" lon="-5.6875395">
        <ele>1031.61</ele>
        <time>2020-07-21T05:58:23.000Z</time>
      </trkpt>
      <trkpt lat="42.8703783" lon="-5.6875297">
        <ele>1031.61</ele>
        <time>2020-07-21T05:58:24.000Z</time>
      </trkpt>
      <trkpt lat="42.8703763" lon="-5.6875232">
        <ele>1031.61</ele>
        <time>2020-07-21T05:58:25.000Z</time>
      </trkpt>
      <trkpt lat="42.87038" lon="-5.6875203">
        <ele>1031.61</ele>
        <time>2020-07-21T05:58:26.000Z</time>
      </trkpt>
      <trkpt lat="42.8703835" lon="-5.6875198">
        <ele>1031.46</ele>
        <time>2020-07-21T05:58:27.000Z</time>
      </trkpt>
      <trkpt lat="42.8703857" lon="-5.6875193">
        <ele>1031.46</ele>
        <time>2020-07-21T05:58:28.000Z</time>
      </trkpt>
      <trkpt lat="42.8703842" lon="-5.6875182">
        <ele>1031.46</ele>
        <time>2020-07-21T05:58:29.000Z</time>
      </trkpt>
      <trkpt lat="42.8703823" lon="-5.6875172">
        <ele>1031.46</ele>
        <time>2020-07-21T05:58:30.000Z</time>
      </trkpt>
      <trkpt lat="42.8703805" lon="-5.687516">
        <ele>1031.3</ele>
        <time>2020-07-21T05:58:31.000Z</time>
      </trkpt>
      <trkpt lat="42.8703792" lon="-5.687513">
        <ele>1031.3</ele>
        <time>2020-07-21T05:58:32.000Z</time>
      </trkpt>
      <trkpt lat="42.8703783" lon="-5.6875078">
        <ele>1031.3</ele>
        <time>2020-07-21T05:58:33.000Z</time>
      </trkpt>
      <trkpt lat="42.8703765" lon="-5.6874988">
        <ele>1031.3</ele>
        <time>2020-07-21T05:58:34.000Z</time>
      </trkpt>
      <trkpt lat="42.8703748" lon="-5.6874875">
        <ele>1031.15</ele>
        <time>2020-07-21T05:58:35.000Z</time>
      </trkpt>
      <trkpt lat="42.8703748" lon="-5.6874742">
        <ele>1031.15</ele>
        <time>2020-07-21T05:58:36.000Z</time>
      </trkpt>
      <trkpt lat="42.8703765" lon="-5.6874603">
        <ele>1031</ele>
        <time>2020-07-21T05:58:37.000Z</time>
      </trkpt>
      <trkpt lat="42.8703782" lon="-5.687445">
        <ele>1031</ele>
        <time>2020-07-21T05:58:38.000Z</time>
      </trkpt>
      <trkpt lat="42.8703797" lon="-5.6874292">
        <ele>1031</ele>
        <time>2020-07-21T05:58:39.000Z</time>
      </trkpt>
      <trkpt lat="42.870381" lon="-5.687413">
        <ele>1031</ele>
        <time>2020-07-21T05:58:40.000Z</time>
      </trkpt>
      <trkpt lat="42.8703823" lon="-5.687397">
        <ele>1030.85</ele>
        <time>2020-07-21T05:58:41.000Z</time>
      </trkpt>
      <trkpt lat="42.870383" lon="-5.6873808">
        <ele>1030.85</ele>
        <time>2020-07-21T05:58:42.000Z</time>
      </trkpt>
      <trkpt lat="42.8703838" lon="-5.687365">
        <ele>1030.85</ele>
        <time>2020-07-21T05:58:43.000Z</time>
      </trkpt>
      <trkpt lat="42.8703852" lon="-5.6873493">
        <ele>1030.85</ele>
        <time>2020-07-21T05:58:44.000Z</time>
      </trkpt>
      <trkpt lat="42.8703855" lon="-5.6873333">
        <ele>1030.69</ele>
        <time>2020-07-21T05:58:45.000Z</time>
      </trkpt>
      <trkpt lat="42.8703852" lon="-5.6873172">
        <ele>1030.69</ele>
        <time>2020-07-21T05:58:46.000Z</time>
      </trkpt>
      <trkpt lat="42.8703845" lon="-5.6873008">
        <ele>1030.69</ele>
        <time>2020-07-21T05:58:47.000Z</time>
      </trkpt>
      <trkpt lat="42.870384" lon="-5.687284">
        <ele>1030.69</ele>
        <time>2020-07-21T05:58:48.000Z</time>
      </trkpt>
      <trkpt lat="42.8703837" lon="-5.6872672">
        <ele>1030.54</ele>
        <time>2020-07-21T05:58:49.000Z</time>
      </trkpt>
      <trkpt lat="42.8703845" lon="-5.6872502">
        <ele>1030.54</ele>
        <time>2020-07-21T05:58:50.000Z</time>
      </trkpt>
      <trkpt lat="42.8703867" lon="-5.6872337">
        <ele>1030.54</ele>
        <time>2020-07-21T05:58:51.000Z</time>
      </trkpt>
      <trkpt lat="42.8703892" lon="-5.6872172">
        <ele>1030.54</ele>
        <time>2020-07-21T05:58:52.000Z</time>
      </trkpt>
      <trkpt lat="42.8703907" lon="-5.687201">
        <ele>1030.54</ele>
        <time>2020-07-21T05:58:53.000Z</time>
      </trkpt>
      <trkpt lat="42.870391" lon="-5.6871842">
        <ele>1030.54</ele>
        <time>2020-07-21T05:58:54.000Z</time>
      </trkpt>
      <trkpt lat="42.8703917" lon="-5.6871677">
        <ele>1030.54</ele>
        <time>2020-07-21T05:58:55.000Z</time>
      </trkpt>
      <trkpt lat="42.8703942" lon="-5.6871505">
        <ele>1030.54</ele>
        <time>2020-07-21T05:58:56.000Z</time>
      </trkpt>
      <trkpt lat="42.8703968" lon="-5.6871328">
        <ele>1030.54</ele>
        <time>2020-07-21T05:58:57.000Z</time>
      </trkpt>
      <trkpt lat="42.8704003" lon="-5.6871145">
        <ele>1030.54</ele>
        <time>2020-07-21T05:58:58.000Z</time>
      </trkpt>
      <trkpt lat="42.8704023" lon="-5.6870962">
        <ele>1030.39</ele>
        <time>2020-07-21T05:58:59.000Z</time>
      </trkpt>
      <trkpt lat="42.8704048" lon="-5.6870785">
        <ele>1030.39</ele>
        <time>2020-07-21T05:59:00.000Z</time>
      </trkpt>
      <trkpt lat="42.8704063" lon="-5.6870612">
        <ele>1030.39</ele>
        <time>2020-07-21T05:59:01.000Z</time>
      </trkpt>
      <trkpt lat="42.8704077" lon="-5.6870435">
        <ele>1030.39</ele>
        <time>2020-07-21T05:59:02.000Z</time>
      </trkpt>
      <trkpt lat="42.8704078" lon="-5.687026">
        <ele>1030.39</ele>
        <time>2020-07-21T05:59:03.000Z</time>
      </trkpt>
      <trkpt lat="42.870407" lon="-5.687008">
        <ele>1030.39</ele>
        <time>2020-07-21T05:59:04.000Z</time>
      </trkpt>
      <trkpt lat="42.8704058" lon="-5.6869903">
        <ele>1030.39</ele>
        <time>2020-07-21T05:59:05.000Z</time>
      </trkpt>
      <trkpt lat="42.870404" lon="-5.6869718">
        <ele>1030.39</ele>
        <time>2020-07-21T05:59:06.000Z</time>
      </trkpt>
      <trkpt lat="42.870402" lon="-5.6869545">
        <ele>1030.24</ele>
        <time>2020-07-21T05:59:07.000Z</time>
      </trkpt>
      <trkpt lat="42.8704002" lon="-5.6869377">
        <ele>1030.24</ele>
        <time>2020-07-21T05:59:08.000Z</time>
      </trkpt>
      <trkpt lat="42.8703993" lon="-5.686922">
        <ele>1030.24</ele>
        <time>2020-07-21T05:59:09.000Z</time>
      </trkpt>
      <trkpt lat="42.8703983" lon="-5.6869053">
        <ele>1030.24</ele>
        <time>2020-07-21T05:59:10.000Z</time>
      </trkpt>
      <trkpt lat="42.8703987" lon="-5.686889">
        <ele>1030.24</ele>
        <time>2020-07-21T05:59:11.000Z</time>
      </trkpt>
      <trkpt lat="42.8703995" lon="-5.6868718">
        <ele>1030.24</ele>
        <time>2020-07-21T05:59:12.000Z</time>
      </trkpt>
      <trkpt lat="42.8704005" lon="-5.6868552">
        <ele>1030.24</ele>
        <time>2020-07-21T05:59:13.000Z</time>
      </trkpt>
      <trkpt lat="42.8703985" lon="-5.6868387">
        <ele>1030.24</ele>
        <time>2020-07-21T05:59:14.000Z</time>
      </trkpt>
      <trkpt lat="42.8703958" lon="-5.6868225">
        <ele>1030.24</ele>
        <time>2020-07-21T05:59:15.000Z</time>
      </trkpt>
      <trkpt lat="42.8703945" lon="-5.6868065">
        <ele>1030.24</ele>
        <time>2020-07-21T05:59:16.000Z</time>
      </trkpt>
      <trkpt lat="42.8703945" lon="-5.6867892">
        <ele>1030.24</ele>
        <time>2020-07-21T05:59:17.000Z</time>
      </trkpt>
      <trkpt lat="42.8703943" lon="-5.6867718">
        <ele>1030.24</ele>
        <time>2020-07-21T05:59:18.000Z</time>
      </trkpt>
      <trkpt lat="42.8703923" lon="-5.6867543">
        <ele>1030.24</ele>
        <time>2020-07-21T05:59:19.000Z</time>
      </trkpt>
      <trkpt lat="42.8703895" lon="-5.6867365">
        <ele>1030.24</ele>
        <time>2020-07-21T05:59:20.000Z</time>
      </trkpt>
      <trkpt lat="42.8703852" lon="-5.6867183">
        <ele>1030.24</ele>
        <time>2020-07-21T05:59:21.000Z</time>
      </trkpt>
      <trkpt lat="42.8703805" lon="-5.6867">
        <ele>1030.24</ele>
        <time>2020-07-21T05:59:22.000Z</time>
      </trkpt>
      <trkpt lat="42.8703762" lon="-5.6866827">
        <ele>1030.24</ele>
        <time>2020-07-21T05:59:23.000Z</time>
      </trkpt>
      <trkpt lat="42.8703737" lon="-5.686665">
        <ele>1030.24</ele>
        <time>2020-07-21T05:59:24.000Z</time>
      </trkpt>
      <trkpt lat="42.870371" lon="-5.6866467">
        <ele>1030.39</ele>
        <time>2020-07-21T05:59:25.000Z</time>
      </trkpt>
      <trkpt lat="42.8703677" lon="-5.6866285">
        <ele>1030.39</ele>
        <time>2020-07-21T05:59:26.000Z</time>
      </trkpt>
      <trkpt lat="42.870363" lon="-5.6866113">
        <ele>1030.39</ele>
        <time>2020-07-21T05:59:27.000Z</time>
      </trkpt>
      <trkpt lat="42.8703588" lon="-5.6865948">
        <ele>1030.39</ele>
        <time>2020-07-21T05:59:28.000Z</time>
      </trkpt>
      <trkpt lat="42.8703553" lon="-5.686579">
        <ele>1030.54</ele>
        <time>2020-07-21T05:59:29.000Z</time>
      </trkpt>
      <trkpt lat="42.8703503" lon="-5.6865632">
        <ele>1030.54</ele>
        <time>2020-07-21T05:59:30.000Z</time>
      </trkpt>
      <trkpt lat="42.8703445" lon="-5.6865477">
        <ele>1030.54</ele>
        <time>2020-07-21T05:59:31.000Z</time>
      </trkpt>
      <trkpt lat="42.8703383" lon="-5.6865312">
        <ele>1030.54</ele>
        <time>2020-07-21T05:59:32.000Z</time>
      </trkpt>
      <trkpt lat="42.8703332" lon="-5.6865142">
        <ele>1030.69</ele>
        <time>2020-07-21T05:59:33.000Z</time>
      </trkpt>
      <trkpt lat="42.8703292" lon="-5.6864975">
        <ele>1030.69</ele>
        <time>2020-07-21T05:59:34.000Z</time>
      </trkpt>
      <trkpt lat="42.8703237" lon="-5.6864802">
        <ele>1030.69</ele>
        <time>2020-07-21T05:59:35.000Z</time>
      </trkpt>
      <trkpt lat="42.8703195" lon="-5.6864628">
        <ele>1030.69</ele>
        <time>2020-07-21T05:59:36.000Z</time>
      </trkpt>
      <trkpt lat="42.8703143" lon="-5.6864462">
        <ele>1030.85</ele>
        <time>2020-07-21T05:59:37.000Z</time>
      </trkpt>
      <trkpt lat="42.8703105" lon="-5.6864307">
        <ele>1030.85</ele>
        <time>2020-07-21T05:59:38.000Z</time>
      </trkpt>
      <trkpt lat="42.8703048" lon="-5.686415">
        <ele>1030.85</ele>
        <time>2020-07-21T05:59:39.000Z</time>
      </trkpt>
      <trkpt lat="42.870299" lon="-5.6863985">
        <ele>1030.85</ele>
        <time>2020-07-21T05:59:40.000Z</time>
      </trkpt>
      <trkpt lat="42.8702945" lon="-5.6863822">
        <ele>1031</ele>
        <time>2020-07-21T05:59:41.000Z</time>
      </trkpt>
      <trkpt lat="42.8702918" lon="-5.686366">
        <ele>1031</ele>
        <time>2020-07-21T05:59:42.000Z</time>
      </trkpt>
      <trkpt lat="42.8702945" lon="-5.6863498">
        <ele>1031</ele>
        <time>2020-07-21T05:59:43.000Z</time>
      </trkpt>
      <trkpt lat="42.8702998" lon="-5.6863353">
        <ele>1031</ele>
        <time>2020-07-21T05:59:44.000Z</time>
      </trkpt>
      <trkpt lat="42.870312" lon="-5.6863212">
        <ele>1031.15</ele>
        <time>2020-07-21T05:59:45.000Z</time>
      </trkpt>
      <trkpt lat="42.870324" lon="-5.6863088">
        <ele>1031.15</ele>
        <time>2020-07-21T05:59:46.000Z</time>
      </trkpt>
      <trkpt lat="42.8703348" lon="-5.6862953">
        <ele>1031.15</ele>
        <time>2020-07-21T05:59:47.000Z</time>
      </trkpt>
      <trkpt lat="42.8703405" lon="-5.6862825">
        <ele>1031.15</ele>
        <time>2020-07-21T05:59:48.000Z</time>
      </trkpt>
      <trkpt lat="42.8703453" lon="-5.686269">
        <ele>1031.3</ele>
        <time>2020-07-21T05:59:49.000Z</time>
      </trkpt>
      <trkpt lat="42.8703525" lon="-5.6862573">
        <ele>1031.3</ele>
        <time>2020-07-21T05:59:50.000Z</time>
      </trkpt>
      <trkpt lat="42.8703625" lon="-5.6862467">
        <ele>1031.3</ele>
        <time>2020-07-21T05:59:51.000Z</time>
      </trkpt>
      <trkpt lat="42.8703733" lon="-5.6862372">
        <ele>1031.3</ele>
        <time>2020-07-21T05:59:52.000Z</time>
      </trkpt>
      <trkpt lat="42.8703838" lon="-5.6862283">
        <ele>1031.3</ele>
        <time>2020-07-21T05:59:53.000Z</time>
      </trkpt>
      <trkpt lat="42.8703968" lon="-5.6862218">
        <ele>1031.3</ele>
        <time>2020-07-21T05:59:54.000Z</time>
      </trkpt>
      <trkpt lat="42.8704113" lon="-5.6862185">
        <ele>1031.3</ele>
        <time>2020-07-21T05:59:55.000Z</time>
      </trkpt>
      <trkpt lat="42.8704263" lon="-5.6862182">
        <ele>1031.3</ele>
        <time>2020-07-21T05:59:56.000Z</time>
      </trkpt>
      <trkpt lat="42.8704388" lon="-5.6862198">
        <ele>1031.3</ele>
        <time>2020-07-21T05:59:57.000Z</time>
      </trkpt>
      <trkpt lat="42.8704498" lon="-5.6862225">
        <ele>1031.3</ele>
        <time>2020-07-21T05:59:58.000Z</time>
      </trkpt>
      <trkpt lat="42.8704615" lon="-5.6862267">
        <ele>1031.3</ele>
        <time>2020-07-21T05:59:59.000Z</time>
      </trkpt>
      <trkpt lat="42.8704733" lon="-5.6862323">
        <ele>1031.3</ele>
        <time>2020-07-21T06:00:00.000Z</time>
      </trkpt>
      <trkpt lat="42.8704858" lon="-5.6862378">
        <ele>1031.3</ele>
        <time>2020-07-21T06:00:01.000Z</time>
      </trkpt>
      <trkpt lat="42.8704982" lon="-5.6862435">
        <ele>1031.3</ele>
        <time>2020-07-21T06:00:02.000Z</time>
      </trkpt>
      <trkpt lat="42.870511" lon="-5.6862483">
        <ele>1031.3</ele>
        <time>2020-07-21T06:00:03.000Z</time>
      </trkpt>
      <trkpt lat="42.8705233" lon="-5.6862533">
        <ele>1031.3</ele>
        <time>2020-07-21T06:00:04.000Z</time>
      </trkpt>
      <trkpt lat="42.8705355" lon="-5.686259">
        <ele>1031.3</ele>
        <time>2020-07-21T06:00:05.000Z</time>
      </trkpt>
      <trkpt lat="42.8705473" lon="-5.6862655">
        <ele>1031.3</ele>
        <time>2020-07-21T06:00:06.000Z</time>
      </trkpt>
      <trkpt lat="42.8705587" lon="-5.6862723">
        <ele>1031.3</ele>
        <time>2020-07-21T06:00:07.000Z</time>
      </trkpt>
      <trkpt lat="42.8705707" lon="-5.6862805">
        <ele>1031.3</ele>
        <time>2020-07-21T06:00:08.000Z</time>
      </trkpt>
      <trkpt lat="42.8705822" lon="-5.6862887">
        <ele>1031.3</ele>
        <time>2020-07-21T06:00:09.000Z</time>
      </trkpt>
      <trkpt lat="42.8705938" lon="-5.6862972">
        <ele>1031.3</ele>
        <time>2020-07-21T06:00:10.000Z</time>
      </trkpt>
      <trkpt lat="42.8706042" lon="-5.6863057">
        <ele>1031.3</ele>
        <time>2020-07-21T06:00:11.000Z</time>
      </trkpt>
      <trkpt lat="42.8706135" lon="-5.686314">
        <ele>1031.46</ele>
        <time>2020-07-21T06:00:12.000Z</time>
      </trkpt>
      <trkpt lat="42.8706228" lon="-5.6863223">
        <ele>1031.46</ele>
        <time>2020-07-21T06:00:13.000Z</time>
      </trkpt>
      <trkpt lat="42.8706315" lon="-5.6863298">
        <ele>1031.61</ele>
        <time>2020-07-21T06:00:14.000Z</time>
      </trkpt>
      <trkpt lat="42.870642" lon="-5.6863378">
        <ele>1031.61</ele>
        <time>2020-07-21T06:00:15.000Z</time>
      </trkpt>
      <trkpt lat="42.8706523" lon="-5.6863472">
        <ele>1031.91</ele>
        <time>2020-07-21T06:00:16.000Z</time>
      </trkpt>
      <trkpt lat="42.8706632" lon="-5.6863563">
        <ele>1031.91</ele>
        <time>2020-07-21T06:00:17.000Z</time>
      </trkpt>
      <trkpt lat="42.8706735" lon="-5.6863673">
        <ele>1032.06</ele>
        <time>2020-07-21T06:00:18.000Z</time>
      </trkpt>
      <trkpt lat="42.870683" lon="-5.6863792">
        <ele>1032.06</ele>
        <time>2020-07-21T06:00:19.000Z</time>
      </trkpt>
      <trkpt lat="42.8706922" lon="-5.6863922">
        <ele>1032.37</ele>
        <time>2020-07-21T06:00:20.000Z</time>
      </trkpt>
      <trkpt lat="42.8707017" lon="-5.6864035">
        <ele>1032.37</ele>
        <time>2020-07-21T06:00:21.000Z</time>
      </trkpt>
      <trkpt lat="42.8707128" lon="-5.6864123">
        <ele>1032.52</ele>
        <time>2020-07-21T06:00:22.000Z</time>
      </trkpt>
      <trkpt lat="42.870725" lon="-5.6864212">
        <ele>1032.52</ele>
        <time>2020-07-21T06:00:23.000Z</time>
      </trkpt>
      <trkpt lat="42.8707367" lon="-5.686429">
        <ele>1032.83</ele>
        <time>2020-07-21T06:00:24.000Z</time>
      </trkpt>
      <trkpt lat="42.8707475" lon="-5.6864365">
        <ele>1032.83</ele>
        <time>2020-07-21T06:00:25.000Z</time>
      </trkpt>
      <trkpt lat="42.8707582" lon="-5.6864447">
        <ele>1032.98</ele>
        <time>2020-07-21T06:00:26.000Z</time>
      </trkpt>
      <trkpt lat="42.8707687" lon="-5.6864555">
        <ele>1032.98</ele>
        <time>2020-07-21T06:00:27.000Z</time>
      </trkpt>
      <trkpt lat="42.8707788" lon="-5.6864667">
        <ele>1033.13</ele>
        <time>2020-07-21T06:00:28.000Z</time>
      </trkpt>
      <trkpt lat="42.8707887" lon="-5.6864785">
        <ele>1033.13</ele>
        <time>2020-07-21T06:00:29.000Z</time>
      </trkpt>
      <trkpt lat="42.8707977" lon="-5.6864902">
        <ele>1033.44</ele>
        <time>2020-07-21T06:00:30.000Z</time>
      </trkpt>
      <trkpt lat="42.8708082" lon="-5.686502">
        <ele>1033.44</ele>
        <time>2020-07-21T06:00:31.000Z</time>
      </trkpt>
      <trkpt lat="42.8708182" lon="-5.6865135">
        <ele>1033.59</ele>
        <time>2020-07-21T06:00:32.000Z</time>
      </trkpt>
      <trkpt lat="42.870829" lon="-5.6865252">
        <ele>1033.59</ele>
        <time>2020-07-21T06:00:33.000Z</time>
      </trkpt>
      <trkpt lat="42.8708382" lon="-5.686536">
        <ele>1033.74</ele>
        <time>2020-07-21T06:00:34.000Z</time>
      </trkpt>
      <trkpt lat="42.8708472" lon="-5.6865462">
        <ele>1033.74</ele>
        <time>2020-07-21T06:00:35.000Z</time>
      </trkpt>
      <trkpt lat="42.8708557" lon="-5.6865555">
        <ele>1033.89</ele>
        <time>2020-07-21T06:00:36.000Z</time>
      </trkpt>
      <trkpt lat="42.870864" lon="-5.6865643">
        <ele>1033.89</ele>
        <time>2020-07-21T06:00:37.000Z</time>
      </trkpt>
      <trkpt lat="42.870873" lon="-5.686572">
        <ele>1034.05</ele>
        <time>2020-07-21T06:00:38.000Z</time>
      </trkpt>
      <trkpt lat="42.870882" lon="-5.68658">
        <ele>1034.05</ele>
        <time>2020-07-21T06:00:39.000Z</time>
      </trkpt>
      <trkpt lat="42.8708923" lon="-5.6865887">
        <ele>1034.2</ele>
        <time>2020-07-21T06:00:40.000Z</time>
      </trkpt>
      <trkpt lat="42.8709033" lon="-5.6865985">
        <ele>1034.2</ele>
        <time>2020-07-21T06:00:41.000Z</time>
      </trkpt>
      <trkpt lat="42.8709142" lon="-5.6866085">
        <ele>1034.2</ele>
        <time>2020-07-21T06:00:42.000Z</time>
      </trkpt>
      <trkpt lat="42.8709242" lon="-5.6866178">
        <ele>1034.2</ele>
        <time>2020-07-21T06:00:43.000Z</time>
      </trkpt>
      <trkpt lat="42.870934" lon="-5.686627">
        <ele>1034.35</ele>
        <time>2020-07-21T06:00:44.000Z</time>
      </trkpt>
      <trkpt lat="42.8709442" lon="-5.6866358">
        <ele>1034.35</ele>
        <time>2020-07-21T06:00:45.000Z</time>
      </trkpt>
      <trkpt lat="42.8709553" lon="-5.6866445">
        <ele>1034.35</ele>
        <time>2020-07-21T06:00:46.000Z</time>
      </trkpt>
      <trkpt lat="42.8709553" lon="-5.6866445">
        <ele>1034.35</ele>
        <time>2020-07-21T06:00:47.000Z</time>
      </trkpt>
      <trkpt lat="42.8709553" lon="-5.6866445">
        <ele>1034.5</ele>
        <time>2020-07-21T06:00:48.000Z</time>
      </trkpt>
      <trkpt lat="42.8709553" lon="-5.6866445">
        <ele>1034.5</ele>
        <time>2020-07-21T06:00:49.000Z</time>
      </trkpt>
      <trkpt lat="42.8709553" lon="-5.6866445">
        <ele>1034.5</ele>
        <time>2020-07-21T06:00:50.000Z</time>
      </trkpt>
      <trkpt lat="42.8709553" lon="-5.6866445">
        <ele>1034.5</ele>
        <time>2020-07-21T06:00:51.000Z</time>
      </trkpt>
      <trkpt lat="42.8709553" lon="-5.6866445">
        <ele>1034.66</ele>
        <time>2020-07-21T06:00:52.000Z</time>
      </trkpt>
      <trkpt lat="42.8709553" lon="-5.6866445">
        <ele>1034.66</ele>
        <time>2020-07-21T06:00:53.000Z</time>
      </trkpt>
      <trkpt lat="42.8709662" lon="-5.6866532">
        <ele>1034.81</ele>
        <time>2020-07-21T06:00:54.000Z</time>
      </trkpt>
      <trkpt lat="42.870977" lon="-5.686661">
        <ele>1034.81</ele>
        <time>2020-07-21T06:00:55.000Z</time>
      </trkpt>
      <trkpt lat="42.870977" lon="-5.686661">
        <ele>1034.81</ele>
        <time>2020-07-21T06:00:56.000Z</time>
      </trkpt>
      <trkpt lat="42.870977" lon="-5.686661">
        <ele>1034.81</ele>
        <time>2020-07-21T06:00:57.000Z</time>
      </trkpt>
      <trkpt lat="42.8710222" lon="-5.6867003">
        <ele>1034.96</ele>
        <time>2020-07-21T06:00:58.000Z</time>
      </trkpt>
      <trkpt lat="42.8710677" lon="-5.6867383">
        <ele>1034.96</ele>
        <time>2020-07-21T06:00:59.000Z</time>
      </trkpt>
      <trkpt lat="42.8711125" lon="-5.6867773">
        <ele>1034.96</ele>
        <time>2020-07-21T06:01:00.000Z</time>
      </trkpt>
      <trkpt lat="42.8711238" lon="-5.6867867">
        <ele>1034.96</ele>
        <time>2020-07-21T06:01:01.000Z</time>
      </trkpt>
      <trkpt lat="42.871136" lon="-5.6867977">
        <ele>1035.11</ele>
        <time>2020-07-21T06:01:02.000Z</time>
      </trkpt>
      <trkpt lat="42.8711495" lon="-5.6868093">
        <ele>1035.11</ele>
        <time>2020-07-21T06:01:03.000Z</time>
      </trkpt>
      <trkpt lat="42.8711625" lon="-5.686819">
        <ele>1035.11</ele>
        <time>2020-07-21T06:01:04.000Z</time>
      </trkpt>
      <trkpt lat="42.8711753" lon="-5.686826">
        <ele>1035.11</ele>
        <time>2020-07-21T06:01:05.000Z</time>
      </trkpt>
      <trkpt lat="42.8711885" lon="-5.6868287">
        <ele>1035.11</ele>
        <time>2020-07-21T06:01:06.000Z</time>
      </trkpt>
      <trkpt lat="42.8712017" lon="-5.6868298">
        <ele>1035.11</ele>
        <time>2020-07-21T06:01:07.000Z</time>
      </trkpt>
      <trkpt lat="42.871215" lon="-5.6868335">
        <ele>1035.27</ele>
        <time>2020-07-21T06:01:08.000Z</time>
      </trkpt>
      <trkpt lat="42.8712268" lon="-5.6868395">
        <ele>1035.27</ele>
        <time>2020-07-21T06:01:09.000Z</time>
      </trkpt>
      <trkpt lat="42.871238" lon="-5.686847">
        <ele>1035.42</ele>
        <time>2020-07-21T06:01:10.000Z</time>
      </trkpt>
      <trkpt lat="42.8712483" lon="-5.6868545">
        <ele>1035.42</ele>
        <time>2020-07-21T06:01:11.000Z</time>
      </trkpt>
      <trkpt lat="42.871261" lon="-5.6868635">
        <ele>1035.42</ele>
        <time>2020-07-21T06:01:12.000Z</time>
      </trkpt>
      <trkpt lat="42.8712738" lon="-5.6868712">
        <ele>1035.42</ele>
        <time>2020-07-21T06:01:13.000Z</time>
      </trkpt>
      <trkpt lat="42.8712863" lon="-5.6868777">
        <ele>1035.57</ele>
        <time>2020-07-21T06:01:14.000Z</time>
      </trkpt>
      <trkpt lat="42.8712958" lon="-5.686879">
        <ele>1035.57</ele>
        <time>2020-07-21T06:01:15.000Z</time>
      </trkpt>
      <trkpt lat="42.8713037" lon="-5.68688">
        <ele>1035.57</ele>
        <time>2020-07-21T06:01:16.000Z</time>
      </trkpt>
      <trkpt lat="42.8713122" lon="-5.6868802">
        <ele>1035.57</ele>
        <time>2020-07-21T06:01:17.000Z</time>
      </trkpt>
      <trkpt lat="42.8713227" lon="-5.686883">
        <ele>1035.72</ele>
        <time>2020-07-21T06:01:18.000Z</time>
      </trkpt>
      <trkpt lat="42.8713348" lon="-5.686885">
        <ele>1035.72</ele>
        <time>2020-07-21T06:01:19.000Z</time>
      </trkpt>
      <trkpt lat="42.871344" lon="-5.6868868">
        <ele>1035.88</ele>
        <time>2020-07-21T06:01:20.000Z</time>
      </trkpt>
      <trkpt lat="42.8713528" lon="-5.6868893">
        <ele>1035.88</ele>
        <time>2020-07-21T06:01:21.000Z</time>
      </trkpt>
      <trkpt lat="42.8713615" lon="-5.686893">
        <ele>1036.03</ele>
        <time>2020-07-21T06:01:22.000Z</time>
      </trkpt>
      <trkpt lat="42.871373" lon="-5.6868973">
        <ele>1036.03</ele>
        <time>2020-07-21T06:01:23.000Z</time>
      </trkpt>
      <trkpt lat="42.8713835" lon="-5.6869003">
        <ele>1036.18</ele>
        <time>2020-07-21T06:01:24.000Z</time>
      </trkpt>
      <trkpt lat="42.871394" lon="-5.6869027">
        <ele>1036.18</ele>
        <time>2020-07-21T06:01:25.000Z</time>
      </trkpt>
      <trkpt lat="42.8714038" lon="-5.6869047">
        <ele>1036.33</ele>
        <time>2020-07-21T06:01:26.000Z</time>
      </trkpt>
      <trkpt lat="42.8714135" lon="-5.6869073">
        <ele>1036.33</ele>
        <time>2020-07-21T06:01:27.000Z</time>
      </trkpt>
      <trkpt lat="42.8714203" lon="-5.6869107">
        <ele>1036.33</ele>
        <time>2020-07-21T06:01:28.000Z</time>
      </trkpt>
      <trkpt lat="42.8714287" lon="-5.6869153">
        <ele>1036.33</ele>
        <time>2020-07-21T06:01:29.000Z</time>
      </trkpt>
      <trkpt lat="42.871438" lon="-5.6869203">
        <ele>1036.48</ele>
        <time>2020-07-21T06:01:30.000Z</time>
      </trkpt>
      <trkpt lat="42.8714508" lon="-5.6869252">
        <ele>1036.48</ele>
        <time>2020-07-21T06:01:31.000Z</time>
      </trkpt>
      <trkpt lat="42.871461" lon="-5.6869265">
        <ele>1036.64</ele>
        <time>2020-07-21T06:01:32.000Z</time>
      </trkpt>
      <trkpt lat="42.8714707" lon="-5.6869272">
        <ele>1036.64</ele>
        <time>2020-07-21T06:01:33.000Z</time>
      </trkpt>
      <trkpt lat="42.8714793" lon="-5.6869273">
        <ele>1036.79</ele>
        <time>2020-07-21T06:01:34.000Z</time>
      </trkpt>
      <trkpt lat="42.8714893" lon="-5.6869292">
        <ele>1036.79</ele>
        <time>2020-07-21T06:01:35.000Z</time>
      </trkpt>
      <trkpt lat="42.8714985" lon="-5.6869313">
        <ele>1036.79</ele>
        <time>2020-07-21T06:01:36.000Z</time>
      </trkpt>
      <trkpt lat="42.8715082" lon="-5.686932">
        <ele>1036.79</ele>
        <time>2020-07-21T06:01:37.000Z</time>
      </trkpt>
      <trkpt lat="42.8715173" lon="-5.6869317">
        <ele>1036.94</ele>
        <time>2020-07-21T06:01:38.000Z</time>
      </trkpt>
      <trkpt lat="42.8715262" lon="-5.6869308">
        <ele>1036.94</ele>
        <time>2020-07-21T06:01:39.000Z</time>
      </trkpt>
      <trkpt lat="42.8715362" lon="-5.6869305">
        <ele>1036.94</ele>
        <time>2020-07-21T06:01:40.000Z</time>
      </trkpt>
      <trkpt lat="42.8715487" lon="-5.6869338">
        <ele>1036.94</ele>
        <time>2020-07-21T06:01:41.000Z</time>
      </trkpt>
      <trkpt lat="42.8715628" lon="-5.6869367">
        <ele>1037.09</ele>
        <time>2020-07-21T06:01:42.000Z</time>
      </trkpt>
      <trkpt lat="42.8715765" lon="-5.6869397">
        <ele>1037.09</ele>
        <time>2020-07-21T06:01:43.000Z</time>
      </trkpt>
      <trkpt lat="42.8715873" lon="-5.6869397">
        <ele>1037.25</ele>
        <time>2020-07-21T06:01:44.000Z</time>
      </trkpt>
      <trkpt lat="42.8715983" lon="-5.6869403">
        <ele>1037.25</ele>
        <time>2020-07-21T06:01:45.000Z</time>
      </trkpt>
      <trkpt lat="42.8716095" lon="-5.6869417">
        <ele>1037.25</ele>
        <time>2020-07-21T06:01:46.000Z</time>
      </trkpt>
      <trkpt lat="42.8716225" lon="-5.6869438">
        <ele>1037.25</ele>
        <time>2020-07-21T06:01:47.000Z</time>
      </trkpt>
      <trkpt lat="42.8716342" lon="-5.6869462">
        <ele>1037.4</ele>
        <time>2020-07-21T06:01:48.000Z</time>
      </trkpt>
      <trkpt lat="42.8716467" lon="-5.6869485">
        <ele>1037.4</ele>
        <time>2020-07-21T06:01:49.000Z</time>
      </trkpt>
      <trkpt lat="42.8716605" lon="-5.686952">
        <ele>1037.55</ele>
        <time>2020-07-21T06:01:50.000Z</time>
      </trkpt>
      <trkpt lat="42.8716743" lon="-5.6869553">
        <ele>1037.55</ele>
        <time>2020-07-21T06:01:51.000Z</time>
      </trkpt>
      <trkpt lat="42.8716878" lon="-5.6869575">
        <ele>1037.7</ele>
        <time>2020-07-21T06:01:52.000Z</time>
      </trkpt>
      <trkpt lat="42.8717002" lon="-5.6869567">
        <ele>1037.7</ele>
        <time>2020-07-21T06:01:53.000Z</time>
      </trkpt>
      <trkpt lat="42.871715" lon="-5.6869552">
        <ele>1037.86</ele>
        <time>2020-07-21T06:01:54.000Z</time>
      </trkpt>
      <trkpt lat="42.8717295" lon="-5.6869533">
        <ele>1037.86</ele>
        <time>2020-07-21T06:01:55.000Z</time>
      </trkpt>
      <trkpt lat="42.8717432" lon="-5.6869535">
        <ele>1038.01</ele>
        <time>2020-07-21T06:01:56.000Z</time>
      </trkpt>
      <trkpt lat="42.8717543" lon="-5.6869538">
        <ele>1038.01</ele>
        <time>2020-07-21T06:01:57.000Z</time>
      </trkpt>
      <trkpt lat="42.8717665" lon="-5.6869525">
        <ele>1038.16</ele>
        <time>2020-07-21T06:01:58.000Z</time>
      </trkpt>
      <trkpt lat="42.8717798" lon="-5.6869508">
        <ele>1038.16</ele>
        <time>2020-07-21T06:01:59.000Z</time>
      </trkpt>
      <trkpt lat="42.8717945" lon="-5.6869497">
        <ele>1038.31</ele>
        <time>2020-07-21T06:02:00.000Z</time>
      </trkpt>
      <trkpt lat="42.871806" lon="-5.6869512">
        <ele>1038.31</ele>
        <time>2020-07-21T06:02:01.000Z</time>
      </trkpt>
      <trkpt lat="42.871817" lon="-5.6869518">
        <ele>1038.47</ele>
        <time>2020-07-21T06:02:02.000Z</time>
      </trkpt>
      <trkpt lat="42.8718287" lon="-5.686953">
        <ele>1038.47</ele>
        <time>2020-07-21T06:02:03.000Z</time>
      </trkpt>
      <trkpt lat="42.8718423" lon="-5.6869537">
        <ele>1038.77</ele>
        <time>2020-07-21T06:02:04.000Z</time>
      </trkpt>
      <trkpt lat="42.8718557" lon="-5.6869547">
        <ele>1038.77</ele>
        <time>2020-07-21T06:02:05.000Z</time>
      </trkpt>
      <trkpt lat="42.871869" lon="-5.686956">
        <ele>1038.92</ele>
        <time>2020-07-21T06:02:06.000Z</time>
      </trkpt>
      <trkpt lat="42.8718823" lon="-5.686957">
        <ele>1038.92</ele>
        <time>2020-07-21T06:02:07.000Z</time>
      </trkpt>
      <trkpt lat="42.8718945" lon="-5.6869565">
        <ele>1039.23</ele>
        <time>2020-07-21T06:02:08.000Z</time>
      </trkpt>
      <trkpt lat="42.8719048" lon="-5.6869548">
        <ele>1039.23</ele>
        <time>2020-07-21T06:02:09.000Z</time>
      </trkpt>
      <trkpt lat="42.8719142" lon="-5.686952">
        <ele>1039.53</ele>
        <time>2020-07-21T06:02:10.000Z</time>
      </trkpt>
      <trkpt lat="42.8719232" lon="-5.686947">
        <ele>1039.53</ele>
        <time>2020-07-21T06:02:11.000Z</time>
      </trkpt>
      <trkpt lat="42.871932" lon="-5.6869402">
        <ele>1039.99</ele>
        <time>2020-07-21T06:02:12.000Z</time>
      </trkpt>
      <trkpt lat="42.8719437" lon="-5.686936">
        <ele>1039.99</ele>
        <time>2020-07-21T06:02:13.000Z</time>
      </trkpt>
      <trkpt lat="42.8719567" lon="-5.6869347">
        <ele>1040.75</ele>
        <time>2020-07-21T06:02:14.000Z</time>
      </trkpt>
      <trkpt lat="42.8719703" lon="-5.6869348">
        <ele>1040.75</ele>
        <time>2020-07-21T06:02:15.000Z</time>
      </trkpt>
      <trkpt lat="42.8719825" lon="-5.686932">
        <ele>1041.51</ele>
        <time>2020-07-21T06:02:16.000Z</time>
      </trkpt>
      <trkpt lat="42.8719962" lon="-5.6869285">
        <ele>1041.51</ele>
        <time>2020-07-21T06:02:17.000Z</time>
      </trkpt>
      <trkpt lat="42.8720107" lon="-5.6869242">
        <ele>1042.43</ele>
        <time>2020-07-21T06:02:18.000Z</time>
      </trkpt>
      <trkpt lat="42.8720258" lon="-5.6869208">
        <ele>1042.43</ele>
        <time>2020-07-21T06:02:19.000Z</time>
      </trkpt>
      <trkpt lat="42.872041" lon="-5.6869175">
        <ele>1043.65</ele>
        <time>2020-07-21T06:02:20.000Z</time>
      </trkpt>
      <trkpt lat="42.872055" lon="-5.6869135">
        <ele>1043.65</ele>
        <time>2020-07-21T06:02:21.000Z</time>
      </trkpt>
      <trkpt lat="42.8720685" lon="-5.6869103">
        <ele>1044.87</ele>
        <time>2020-07-21T06:02:22.000Z</time>
      </trkpt>
      <trkpt lat="42.8720807" lon="-5.6869062">
        <ele>1044.87</ele>
        <time>2020-07-21T06:02:23.000Z</time>
      </trkpt>
      <trkpt lat="42.8720947" lon="-5.6869023">
        <ele>1046.24</ele>
        <time>2020-07-21T06:02:24.000Z</time>
      </trkpt>
      <trkpt lat="42.8721095" lon="-5.6868972">
        <ele>1046.24</ele>
        <time>2020-07-21T06:02:25.000Z</time>
      </trkpt>
      <trkpt lat="42.872123" lon="-5.6868925">
        <ele>1047.76</ele>
        <time>2020-07-21T06:02:26.000Z</time>
      </trkpt>
      <trkpt lat="42.8721352" lon="-5.6868875">
        <ele>1047.76</ele>
        <time>2020-07-21T06:02:27.000Z</time>
      </trkpt>
      <trkpt lat="42.872145" lon="-5.6868833">
        <ele>1049.13</ele>
        <time>2020-07-21T06:02:28.000Z</time>
      </trkpt>
      <trkpt lat="42.8721562" lon="-5.6868797">
        <ele>1049.13</ele>
        <time>2020-07-21T06:02:29.000Z</time>
      </trkpt>
      <trkpt lat="42.872167" lon="-5.6868768">
        <ele>1050.66</ele>
        <time>2020-07-21T06:02:30.000Z</time>
      </trkpt>
      <trkpt lat="42.8721777" lon="-5.686872">
        <ele>1050.66</ele>
        <time>2020-07-21T06:02:31.000Z</time>
      </trkpt>
      <trkpt lat="42.8721875" lon="-5.6868665">
        <ele>1052.03</ele>
        <time>2020-07-21T06:02:32.000Z</time>
      </trkpt>
      <trkpt lat="42.872197" lon="-5.6868612">
        <ele>1052.03</ele>
        <time>2020-07-21T06:02:33.000Z</time>
      </trkpt>
      <trkpt lat="42.8722087" lon="-5.6868572">
        <ele>1053.4</ele>
        <time>2020-07-21T06:02:34.000Z</time>
      </trkpt>
      <trkpt lat="42.8722208" lon="-5.686853">
        <ele>1053.4</ele>
        <time>2020-07-21T06:02:35.000Z</time>
      </trkpt>
      <trkpt lat="42.8722315" lon="-5.6868468">
        <ele>1054.77</ele>
        <time>2020-07-21T06:02:36.000Z</time>
      </trkpt>
      <trkpt lat="42.8722425" lon="-5.6868405">
        <ele>1054.77</ele>
        <time>2020-07-21T06:02:37.000Z</time>
      </trkpt>
      <trkpt lat="42.872253" lon="-5.686834">
        <ele>1055.84</ele>
        <time>2020-07-21T06:02:38.000Z</time>
      </trkpt>
      <trkpt lat="42.872265" lon="-5.6868298">
        <ele>1055.84</ele>
        <time>2020-07-21T06:02:39.000Z</time>
      </trkpt>
      <trkpt lat="42.872276" lon="-5.6868273">
        <ele>1056.91</ele>
        <time>2020-07-21T06:02:40.000Z</time>
      </trkpt>
      <trkpt lat="42.8722873" lon="-5.6868262">
        <ele>1056.91</ele>
        <time>2020-07-21T06:02:41.000Z</time>
      </trkpt>
      <trkpt lat="42.872298" lon="-5.6868248">
        <ele>1057.97</ele>
        <time>2020-07-21T06:02:42.000Z</time>
      </trkpt>
      <trkpt lat="42.8723088" lon="-5.686823">
        <ele>1057.97</ele>
        <time>2020-07-21T06:02:43.000Z</time>
      </trkpt>
      <trkpt lat="42.8723223" lon="-5.686822">
        <ele>1058.89</ele>
        <time>2020-07-21T06:02:44.000Z</time>
      </trkpt>
      <trkpt lat="42.8723377" lon="-5.6868198">
        <ele>1058.89</ele>
        <time>2020-07-21T06:02:45.000Z</time>
      </trkpt>
      <trkpt lat="42.8723525" lon="-5.6868193">
        <ele>1059.8</ele>
        <time>2020-07-21T06:02:46.000Z</time>
      </trkpt>
      <trkpt lat="42.8723648" lon="-5.6868165">
        <ele>1059.8</ele>
        <time>2020-07-21T06:02:47.000Z</time>
      </trkpt>
      <trkpt lat="42.8723733" lon="-5.6868128">
        <ele>1060.56</ele>
        <time>2020-07-21T06:02:48.000Z</time>
      </trkpt>
      <trkpt lat="42.8723812" lon="-5.6868075">
        <ele>1060.56</ele>
        <time>2020-07-21T06:02:49.000Z</time>
      </trkpt>
      <trkpt lat="42.8723937" lon="-5.6868043">
        <ele>1061.48</ele>
        <time>2020-07-21T06:02:50.000Z</time>
      </trkpt>
      <trkpt lat="42.872407" lon="-5.6868007">
        <ele>1061.48</ele>
        <time>2020-07-21T06:02:51.000Z</time>
      </trkpt>
      <trkpt lat="42.8724198" lon="-5.6867985">
        <ele>1062.09</ele>
        <time>2020-07-21T06:02:52.000Z</time>
      </trkpt>
      <trkpt lat="42.8724288" lon="-5.6867958">
        <ele>1062.09</ele>
        <time>2020-07-21T06:02:53.000Z</time>
      </trkpt>
      <trkpt lat="42.8724412" lon="-5.6867968">
        <ele>1062.85</ele>
        <time>2020-07-21T06:02:54.000Z</time>
      </trkpt>
      <trkpt lat="42.8724552" lon="-5.686798">
        <ele>1062.85</ele>
        <time>2020-07-21T06:02:55.000Z</time>
      </trkpt>
      <trkpt lat="42.8724708" lon="-5.6867997">
        <ele>1063.46</ele>
        <time>2020-07-21T06:02:56.000Z</time>
      </trkpt>
      <trkpt lat="42.8724872" lon="-5.6868017">
        <ele>1063.46</ele>
        <time>2020-07-21T06:02:57.000Z</time>
      </trkpt>
      <trkpt lat="42.8725037" lon="-5.6868047">
        <ele>1064.07</ele>
        <time>2020-07-21T06:02:58.000Z</time>
      </trkpt>
      <trkpt lat="42.8725183" lon="-5.686808">
        <ele>1064.07</ele>
        <time>2020-07-21T06:02:59.000Z</time>
      </trkpt>
      <trkpt lat="42.872532" lon="-5.6868122">
        <ele>1064.53</ele>
        <time>2020-07-21T06:03:00.000Z</time>
      </trkpt>
      <trkpt lat="42.8725445" lon="-5.6868162">
        <ele>1064.53</ele>
        <time>2020-07-21T06:03:01.000Z</time>
      </trkpt>
      <trkpt lat="42.872557" lon="-5.6868202">
        <ele>1065.14</ele>
        <time>2020-07-21T06:03:02.000Z</time>
      </trkpt>
      <trkpt lat="42.8725695" lon="-5.6868247">
        <ele>1065.14</ele>
        <time>2020-07-21T06:03:03.000Z</time>
      </trkpt>
      <trkpt lat="42.8725823" lon="-5.6868312">
        <ele>1065.59</ele>
        <time>2020-07-21T06:03:04.000Z</time>
      </trkpt>
      <trkpt lat="42.8725963" lon="-5.6868408">
        <ele>1065.59</ele>
        <time>2020-07-21T06:03:05.000Z</time>
      </trkpt>
      <trkpt lat="42.8726097" lon="-5.6868485">
        <ele>1065.9</ele>
        <time>2020-07-21T06:03:06.000Z</time>
      </trkpt>
      <trkpt lat="42.8726243" lon="-5.6868545">
        <ele>1065.9</ele>
        <time>2020-07-21T06:03:07.000Z</time>
      </trkpt>
      <trkpt lat="42.8726372" lon="-5.6868577">
        <ele>1066.2</ele>
        <time>2020-07-21T06:03:08.000Z</time>
      </trkpt>
      <trkpt lat="42.8726485" lon="-5.6868592">
        <ele>1066.2</ele>
        <time>2020-07-21T06:03:09.000Z</time>
      </trkpt>
      <trkpt lat="42.8726575" lon="-5.686861">
        <ele>1066.36</ele>
        <time>2020-07-21T06:03:10.000Z</time>
      </trkpt>
      <trkpt lat="42.8726668" lon="-5.6868633">
        <ele>1066.36</ele>
        <time>2020-07-21T06:03:11.000Z</time>
      </trkpt>
      <trkpt lat="42.87268" lon="-5.6868687">
        <ele>1066.36</ele>
        <time>2020-07-21T06:03:12.000Z</time>
      </trkpt>
      <trkpt lat="42.872694" lon="-5.6868743">
        <ele>1066.36</ele>
        <time>2020-07-21T06:03:13.000Z</time>
      </trkpt>
      <trkpt lat="42.8727075" lon="-5.6868795">
        <ele>1066.36</ele>
        <time>2020-07-21T06:03:14.000Z</time>
      </trkpt>
      <trkpt lat="42.8727198" lon="-5.6868837">
        <ele>1066.36</ele>
        <time>2020-07-21T06:03:15.000Z</time>
      </trkpt>
      <trkpt lat="42.8727325" lon="-5.6868872">
        <ele>1066.36</ele>
        <time>2020-07-21T06:03:16.000Z</time>
      </trkpt>
      <trkpt lat="42.872746" lon="-5.6868917">
        <ele>1066.36</ele>
        <time>2020-07-21T06:03:17.000Z</time>
      </trkpt>
      <trkpt lat="42.8727582" lon="-5.6868957">
        <ele>1066.2</ele>
        <time>2020-07-21T06:03:18.000Z</time>
      </trkpt>
      <trkpt lat="42.872768" lon="-5.6868983">
        <ele>1066.2</ele>
        <time>2020-07-21T06:03:19.000Z</time>
      </trkpt>
      <trkpt lat="42.8727747" lon="-5.6869003">
        <ele>1066.05</ele>
        <time>2020-07-21T06:03:20.000Z</time>
      </trkpt>
      <trkpt lat="42.8727835" lon="-5.6869042">
        <ele>1066.05</ele>
        <time>2020-07-21T06:03:21.000Z</time>
      </trkpt>
      <trkpt lat="42.8727932" lon="-5.6869105">
        <ele>1065.75</ele>
        <time>2020-07-21T06:03:22.000Z</time>
      </trkpt>
      <trkpt lat="42.872805" lon="-5.6869162">
        <ele>1065.75</ele>
        <time>2020-07-21T06:03:23.000Z</time>
      </trkpt>
      <trkpt lat="42.8728138" lon="-5.6869207">
        <ele>1065.44</ele>
        <time>2020-07-21T06:03:24.000Z</time>
      </trkpt>
      <trkpt lat="42.8728255" lon="-5.6869252">
        <ele>1065.44</ele>
        <time>2020-07-21T06:03:25.000Z</time>
      </trkpt>
      <trkpt lat="42.8728382" lon="-5.6869298">
        <ele>1065.14</ele>
        <time>2020-07-21T06:03:26.000Z</time>
      </trkpt>
      <trkpt lat="42.872853" lon="-5.6869345">
        <ele>1065.14</ele>
        <time>2020-07-21T06:03:27.000Z</time>
      </trkpt>
      <trkpt lat="42.8728655" lon="-5.6869388">
        <ele>1064.83</ele>
        <time>2020-07-21T06:03:28.000Z</time>
      </trkpt>
      <trkpt lat="42.8728787" lon="-5.6869447">
        <ele>1064.83</ele>
        <time>2020-07-21T06:03:29.000Z</time>
      </trkpt>
      <trkpt lat="42.8728905" lon="-5.6869505">
        <ele>1064.38</ele>
        <time>2020-07-21T06:03:30.000Z</time>
      </trkpt>
      <trkpt lat="42.872905" lon="-5.6869568">
        <ele>1064.38</ele>
        <time>2020-07-21T06:03:31.000Z</time>
      </trkpt>
      <trkpt lat="42.87292" lon="-5.6869605">
        <ele>1063.92</ele>
        <time>2020-07-21T06:03:32.000Z</time>
      </trkpt>
      <trkpt lat="42.8729357" lon="-5.6869635">
        <ele>1063.92</ele>
        <time>2020-07-21T06:03:33.000Z</time>
      </trkpt>
      <trkpt lat="42.8729482" lon="-5.6869665">
        <ele>1063.46</ele>
        <time>2020-07-21T06:03:34.000Z</time>
      </trkpt>
      <trkpt lat="42.8729593" lon="-5.6869725">
        <ele>1063.46</ele>
        <time>2020-07-21T06:03:35.000Z</time>
      </trkpt>
      <trkpt lat="42.872972" lon="-5.6869808">
        <ele>1063</ele>
        <time>2020-07-21T06:03:36.000Z</time>
      </trkpt>
      <trkpt lat="42.8729842" lon="-5.6869903">
        <ele>1063</ele>
        <time>2020-07-21T06:03:37.000Z</time>
      </trkpt>
      <trkpt lat="42.8729968" lon="-5.6869988">
        <ele>1062.55</ele>
        <time>2020-07-21T06:03:38.000Z</time>
      </trkpt>
      <trkpt lat="42.8730082" lon="-5.6870093">
        <ele>1062.55</ele>
        <time>2020-07-21T06:03:39.000Z</time>
      </trkpt>
      <trkpt lat="42.8730205" lon="-5.6870217">
        <ele>1062.09</ele>
        <time>2020-07-21T06:03:40.000Z</time>
      </trkpt>
      <trkpt lat="42.8730343" lon="-5.6870362">
        <ele>1062.09</ele>
        <time>2020-07-21T06:03:41.000Z</time>
      </trkpt>
      <trkpt lat="42.8730485" lon="-5.6870507">
        <ele>1061.63</ele>
        <time>2020-07-21T06:03:42.000Z</time>
      </trkpt>
      <trkpt lat="42.8730633" lon="-5.6870645">
        <ele>1061.63</ele>
        <time>2020-07-21T06:03:43.000Z</time>
      </trkpt>
      <trkpt lat="42.873075" lon="-5.6870797">
        <ele>1061.17</ele>
        <time>2020-07-21T06:03:44.000Z</time>
      </trkpt>
      <trkpt lat="42.8730865" lon="-5.6870937">
        <ele>1061.17</ele>
        <time>2020-07-21T06:03:45.000Z</time>
      </trkpt>
      <trkpt lat="42.8730997" lon="-5.6871102">
        <ele>1060.56</ele>
        <time>2020-07-21T06:03:46.000Z</time>
      </trkpt>
      <trkpt lat="42.8731148" lon="-5.6871262">
        <ele>1060.56</ele>
        <time>2020-07-21T06:03:47.000Z</time>
      </trkpt>
      <trkpt lat="42.8731293" lon="-5.6871423">
        <ele>1060.11</ele>
        <time>2020-07-21T06:03:48.000Z</time>
      </trkpt>
      <trkpt lat="42.8731445" lon="-5.6871582">
        <ele>1060.11</ele>
        <time>2020-07-21T06:03:49.000Z</time>
      </trkpt>
      <trkpt lat="42.8731588" lon="-5.6871732">
        <ele>1059.65</ele>
        <time>2020-07-21T06:03:50.000Z</time>
      </trkpt>
      <trkpt lat="42.8731737" lon="-5.6871877">
        <ele>1059.65</ele>
        <time>2020-07-21T06:03:51.000Z</time>
      </trkpt>
      <trkpt lat="42.8731892" lon="-5.6872003">
        <ele>1059.19</ele>
        <time>2020-07-21T06:03:52.000Z</time>
      </trkpt>
      <trkpt lat="42.8732048" lon="-5.6872153">
        <ele>1059.19</ele>
        <time>2020-07-21T06:03:53.000Z</time>
      </trkpt>
      <trkpt lat="42.8732212" lon="-5.6872312">
        <ele>1058.74</ele>
        <time>2020-07-21T06:03:54.000Z</time>
      </trkpt>
      <trkpt lat="42.8732337" lon="-5.6872457">
        <ele>1058.74</ele>
        <time>2020-07-21T06:03:55.000Z</time>
      </trkpt>
      <trkpt lat="42.8732458" lon="-5.6872545">
        <ele>1058.43</ele>
        <time>2020-07-21T06:03:56.000Z</time>
      </trkpt>
      <trkpt lat="42.8732585" lon="-5.6872608">
        <ele>1058.43</ele>
        <time>2020-07-21T06:03:57.000Z</time>
      </trkpt>
      <trkpt lat="42.8732727" lon="-5.6872665">
        <ele>1057.97</ele>
        <time>2020-07-21T06:03:58.000Z</time>
      </trkpt>
      <trkpt lat="42.8732902" lon="-5.6872722">
        <ele>1057.97</ele>
        <time>2020-07-21T06:03:59.000Z</time>
      </trkpt>
      <trkpt lat="42.873308" lon="-5.6872778">
        <ele>1057.52</ele>
        <time>2020-07-21T06:04:00.000Z</time>
      </trkpt>
      <trkpt lat="42.8733252" lon="-5.687284">
        <ele>1057.52</ele>
        <time>2020-07-21T06:04:01.000Z</time>
      </trkpt>
      <trkpt lat="42.8733397" lon="-5.6872912">
        <ele>1057.21</ele>
        <time>2020-07-21T06:04:02.000Z</time>
      </trkpt>
      <trkpt lat="42.8733538" lon="-5.6872977">
        <ele>1057.21</ele>
        <time>2020-07-21T06:04:03.000Z</time>
      </trkpt>
      <trkpt lat="42.873369" lon="-5.6873048">
        <ele>1056.75</ele>
        <time>2020-07-21T06:04:04.000Z</time>
      </trkpt>
      <trkpt lat="42.8733847" lon="-5.6873132">
        <ele>1056.75</ele>
        <time>2020-07-21T06:04:05.000Z</time>
      </trkpt>
      <trkpt lat="42.8733977" lon="-5.6873247">
        <ele>1056.45</ele>
        <time>2020-07-21T06:04:06.000Z</time>
      </trkpt>
      <trkpt lat="42.873409" lon="-5.6873372">
        <ele>1056.45</ele>
        <time>2020-07-21T06:04:07.000Z</time>
      </trkpt>
      <trkpt lat="42.8734172" lon="-5.68735">
        <ele>1055.99</ele>
        <time>2020-07-21T06:04:08.000Z</time>
      </trkpt>
      <trkpt lat="42.8734253" lon="-5.6873613">
        <ele>1055.99</ele>
        <time>2020-07-21T06:04:09.000Z</time>
      </trkpt>
      <trkpt lat="42.8734333" lon="-5.687371">
        <ele>1055.69</ele>
        <time>2020-07-21T06:04:10.000Z</time>
      </trkpt>
      <trkpt lat="42.8734423" lon="-5.6873807">
        <ele>1055.69</ele>
        <time>2020-07-21T06:04:11.000Z</time>
      </trkpt>
      <trkpt lat="42.873452" lon="-5.6873902">
        <ele>1055.38</ele>
        <time>2020-07-21T06:04:12.000Z</time>
      </trkpt>
      <trkpt lat="42.8734623" lon="-5.687399">
        <ele>1055.38</ele>
        <time>2020-07-21T06:04:13.000Z</time>
      </trkpt>
      <trkpt lat="42.8734753" lon="-5.6874077">
        <ele>1055.08</ele>
        <time>2020-07-21T06:04:14.000Z</time>
      </trkpt>
      <trkpt lat="42.8734892" lon="-5.687416">
        <ele>1055.08</ele>
        <time>2020-07-21T06:04:15.000Z</time>
      </trkpt>
      <trkpt lat="42.8735025" lon="-5.6874242">
        <ele>1054.93</ele>
        <time>2020-07-21T06:04:16.000Z</time>
      </trkpt>
      <trkpt lat="42.8735155" lon="-5.6874315">
        <ele>1054.93</ele>
        <time>2020-07-21T06:04:17.000Z</time>
      </trkpt>
      <trkpt lat="42.8735283" lon="-5.687438">
        <ele>1054.62</ele>
        <time>2020-07-21T06:04:18.000Z</time>
      </trkpt>
      <trkpt lat="42.8735427" lon="-5.687444">
        <ele>1054.62</ele>
        <time>2020-07-21T06:04:19.000Z</time>
      </trkpt>
      <trkpt lat="42.873556" lon="-5.6874487">
        <ele>1054.32</ele>
        <time>2020-07-21T06:04:20.000Z</time>
      </trkpt>
      <trkpt lat="42.8735693" lon="-5.6874518">
        <ele>1054.32</ele>
        <time>2020-07-21T06:04:21.000Z</time>
      </trkpt>
      <trkpt lat="42.8735797" lon="-5.6874548">
        <ele>1054.01</ele>
        <time>2020-07-21T06:04:22.000Z</time>
      </trkpt>
      <trkpt lat="42.873587" lon="-5.687458">
        <ele>1054.01</ele>
        <time>2020-07-21T06:04:23.000Z</time>
      </trkpt>
      <trkpt lat="42.8735943" lon="-5.6874622">
        <ele>1053.86</ele>
        <time>2020-07-21T06:04:24.000Z</time>
      </trkpt>
      <trkpt lat="42.873603" lon="-5.6874663">
        <ele>1053.86</ele>
        <time>2020-07-21T06:04:25.000Z</time>
      </trkpt>
      <trkpt lat="42.8736127" lon="-5.6874713">
        <ele>1053.71</ele>
        <time>2020-07-21T06:04:26.000Z</time>
      </trkpt>
      <trkpt lat="42.8736208" lon="-5.6874757">
        <ele>1053.71</ele>
        <time>2020-07-21T06:04:27.000Z</time>
      </trkpt>
      <trkpt lat="42.8736288" lon="-5.6874805">
        <ele>1053.55</ele>
        <time>2020-07-21T06:04:28.000Z</time>
      </trkpt>
      <trkpt lat="42.8736367" lon="-5.687485">
        <ele>1053.55</ele>
        <time>2020-07-21T06:04:29.000Z</time>
      </trkpt>
      <trkpt lat="42.8736445" lon="-5.6874902">
        <ele>1053.4</ele>
        <time>2020-07-21T06:04:30.000Z</time>
      </trkpt>
      <trkpt lat="42.8736508" lon="-5.6874948">
        <ele>1053.4</ele>
        <time>2020-07-21T06:04:31.000Z</time>
      </trkpt>
      <trkpt lat="42.8736572" lon="-5.6874992">
        <ele>1053.25</ele>
        <time>2020-07-21T06:04:32.000Z</time>
      </trkpt>
      <trkpt lat="42.8736647" lon="-5.687503">
        <ele>1053.25</ele>
        <time>2020-07-21T06:04:33.000Z</time>
      </trkpt>
      <trkpt lat="42.8736725" lon="-5.6875057">
        <ele>1053.25</ele>
        <time>2020-07-21T06:04:34.000Z</time>
      </trkpt>
      <trkpt lat="42.8736812" lon="-5.687506">
        <ele>1053.25</ele>
        <time>2020-07-21T06:04:35.000Z</time>
      </trkpt>
      <trkpt lat="42.8736892" lon="-5.6875032">
        <ele>1053.1</ele>
        <time>2020-07-21T06:04:36.000Z</time>
      </trkpt>
      <trkpt lat="42.8736982" lon="-5.687498">
        <ele>1053.1</ele>
        <time>2020-07-21T06:04:37.000Z</time>
      </trkpt>
      <trkpt lat="42.8737088" lon="-5.6874915">
        <ele>1053.1</ele>
        <time>2020-07-21T06:04:38.000Z</time>
      </trkpt>
      <trkpt lat="42.8737203" lon="-5.6874832">
        <ele>1053.1</ele>
        <time>2020-07-21T06:04:39.000Z</time>
      </trkpt>
      <trkpt lat="42.873731" lon="-5.6874752">
        <ele>1053.1</ele>
        <time>2020-07-21T06:04:40.000Z</time>
      </trkpt>
      <trkpt lat="42.8737412" lon="-5.6874687">
        <ele>1053.1</ele>
        <time>2020-07-21T06:04:41.000Z</time>
      </trkpt>
      <trkpt lat="42.8737493" lon="-5.6874655">
        <ele>1053.1</ele>
        <time>2020-07-21T06:04:42.000Z</time>
      </trkpt>
      <trkpt lat="42.8737568" lon="-5.6874635">
        <ele>1053.1</ele>
        <time>2020-07-21T06:04:43.000Z</time>
      </trkpt>
      <trkpt lat="42.8737655" lon="-5.6874613">
        <ele>1053.1</ele>
        <time>2020-07-21T06:04:44.000Z</time>
      </trkpt>
      <trkpt lat="42.8737797" lon="-5.6874568">
        <ele>1053.1</ele>
        <time>2020-07-21T06:04:45.000Z</time>
      </trkpt>
      <trkpt lat="42.873797" lon="-5.6874507">
        <ele>1053.25</ele>
        <time>2020-07-21T06:04:46.000Z</time>
      </trkpt>
      <trkpt lat="42.8738145" lon="-5.6874438">
        <ele>1053.25</ele>
        <time>2020-07-21T06:04:47.000Z</time>
      </trkpt>
      <trkpt lat="42.8738298" lon="-5.6874385">
        <ele>1053.25</ele>
        <time>2020-07-21T06:04:48.000Z</time>
      </trkpt>
      <trkpt lat="42.8738448" lon="-5.6874342">
        <ele>1053.25</ele>
        <time>2020-07-21T06:04:49.000Z</time>
      </trkpt>
      <trkpt lat="42.8738585" lon="-5.6874302">
        <ele>1053.25</ele>
        <time>2020-07-21T06:04:50.000Z</time>
      </trkpt>
      <trkpt lat="42.8738703" lon="-5.6874257">
        <ele>1053.25</ele>
        <time>2020-07-21T06:04:51.000Z</time>
      </trkpt>
      <trkpt lat="42.8738817" lon="-5.6874212">
        <ele>1053.25</ele>
        <time>2020-07-21T06:04:52.000Z</time>
      </trkpt>
      <trkpt lat="42.8738933" lon="-5.6874168">
        <ele>1053.25</ele>
        <time>2020-07-21T06:04:53.000Z</time>
      </trkpt>
      <trkpt lat="42.8739047" lon="-5.6874127">
        <ele>1053.1</ele>
        <time>2020-07-21T06:04:54.000Z</time>
      </trkpt>
      <trkpt lat="42.8739157" lon="-5.6874087">
        <ele>1053.1</ele>
        <time>2020-07-21T06:04:55.000Z</time>
      </trkpt>
      <trkpt lat="42.8739263" lon="-5.6874045">
        <ele>1053.1</ele>
        <time>2020-07-21T06:04:56.000Z</time>
      </trkpt>
      <trkpt lat="42.8739367" lon="-5.6874003">
        <ele>1053.1</ele>
        <time>2020-07-21T06:04:57.000Z</time>
      </trkpt>
      <trkpt lat="42.8739475" lon="-5.6873967">
        <ele>1052.94</ele>
        <time>2020-07-21T06:04:58.000Z</time>
      </trkpt>
      <trkpt lat="42.8739593" lon="-5.6873937">
        <ele>1052.94</ele>
        <time>2020-07-21T06:04:59.000Z</time>
      </trkpt>
      <trkpt lat="42.8739712" lon="-5.68739">
        <ele>1052.79</ele>
        <time>2020-07-21T06:05:00.000Z</time>
      </trkpt>
      <trkpt lat="42.8739827" lon="-5.6873857">
        <ele>1052.79</ele>
        <time>2020-07-21T06:05:01.000Z</time>
      </trkpt>
      <trkpt lat="42.8739908" lon="-5.687377">
        <ele>1052.79</ele>
        <time>2020-07-21T06:05:02.000Z</time>
      </trkpt>
      <trkpt lat="42.8740008" lon="-5.687367">
        <ele>1052.79</ele>
        <time>2020-07-21T06:05:03.000Z</time>
      </trkpt>
      <trkpt lat="42.8740132" lon="-5.6873565">
        <ele>1052.64</ele>
        <time>2020-07-21T06:05:04.000Z</time>
      </trkpt>
      <trkpt lat="42.8740283" lon="-5.6873507">
        <ele>1052.64</ele>
        <time>2020-07-21T06:05:05.000Z</time>
      </trkpt>
      <trkpt lat="42.8740417" lon="-5.6873463">
        <ele>1052.49</ele>
        <time>2020-07-21T06:05:06.000Z</time>
      </trkpt>
      <trkpt lat="42.8740525" lon="-5.6873427">
        <ele>1052.49</ele>
        <time>2020-07-21T06:05:07.000Z</time>
      </trkpt>
      <trkpt lat="42.874062" lon="-5.687339">
        <ele>1052.33</ele>
        <time>2020-07-21T06:05:08.000Z</time>
      </trkpt>
      <trkpt lat="42.8740707" lon="-5.6873353">
        <ele>1052.33</ele>
        <time>2020-07-21T06:05:09.000Z</time>
      </trkpt>
      <trkpt lat="42.8740778" lon="-5.6873312">
        <ele>1052.33</ele>
        <time>2020-07-21T06:05:10.000Z</time>
      </trkpt>
      <trkpt lat="42.8740852" lon="-5.6873277">
        <ele>1052.33</ele>
        <time>2020-07-21T06:05:11.000Z</time>
      </trkpt>
      <trkpt lat="42.8740938" lon="-5.6873258">
        <ele>1052.18</ele>
        <time>2020-07-21T06:05:12.000Z</time>
      </trkpt>
      <trkpt lat="42.8741027" lon="-5.6873243">
        <ele>1052.18</ele>
        <time>2020-07-21T06:05:13.000Z</time>
      </trkpt>
      <trkpt lat="42.8741125" lon="-5.6873223">
        <ele>1052.03</ele>
        <time>2020-07-21T06:05:14.000Z</time>
      </trkpt>
      <trkpt lat="42.8741213" lon="-5.6873183">
        <ele>1052.03</ele>
        <time>2020-07-21T06:05:15.000Z</time>
      </trkpt>
      <trkpt lat="42.8741315" lon="-5.6873145">
        <ele>1051.88</ele>
        <time>2020-07-21T06:05:16.000Z</time>
      </trkpt>
      <trkpt lat="42.874141" lon="-5.6873102">
        <ele>1051.88</ele>
        <time>2020-07-21T06:05:17.000Z</time>
      </trkpt>
      <trkpt lat="42.8741515" lon="-5.6873065">
        <ele>1051.88</ele>
        <time>2020-07-21T06:05:18.000Z</time>
      </trkpt>
      <trkpt lat="42.8741632" lon="-5.6873028">
        <ele>1051.88</ele>
        <time>2020-07-21T06:05:19.000Z</time>
      </trkpt>
      <trkpt lat="42.8741765" lon="-5.6872993">
        <ele>1051.72</ele>
        <time>2020-07-21T06:05:20.000Z</time>
      </trkpt>
      <trkpt lat="42.8741908" lon="-5.6872947">
        <ele>1051.72</ele>
        <time>2020-07-21T06:05:21.000Z</time>
      </trkpt>
      <trkpt lat="42.8742037" lon="-5.6872907">
        <ele>1051.72</ele>
        <time>2020-07-21T06:05:22.000Z</time>
      </trkpt>
      <trkpt lat="42.874215" lon="-5.6872872">
        <ele>1051.72</ele>
        <time>2020-07-21T06:05:23.000Z</time>
      </trkpt>
      <trkpt lat="42.8742263" lon="-5.6872848">
        <ele>1051.57</ele>
        <time>2020-07-21T06:05:24.000Z</time>
      </trkpt>
      <trkpt lat="42.8742383" lon="-5.6872827">
        <ele>1051.57</ele>
        <time>2020-07-21T06:05:25.000Z</time>
      </trkpt>
      <trkpt lat="42.8742502" lon="-5.687281">
        <ele>1051.57</ele>
        <time>2020-07-21T06:05:26.000Z</time>
      </trkpt>
      <trkpt lat="42.8742607" lon="-5.6872792">
        <ele>1051.57</ele>
        <time>2020-07-21T06:05:27.000Z</time>
      </trkpt>
      <trkpt lat="42.8742707" lon="-5.6872777">
        <ele>1051.42</ele>
        <time>2020-07-21T06:05:28.000Z</time>
      </trkpt>
      <trkpt lat="42.8742812" lon="-5.6872765">
        <ele>1051.42</ele>
        <time>2020-07-21T06:05:29.000Z</time>
      </trkpt>
      <trkpt lat="42.8742923" lon="-5.6872765">
        <ele>1051.42</ele>
        <time>2020-07-21T06:05:30.000Z</time>
      </trkpt>
      <trkpt lat="42.8743038" lon="-5.687278">
        <ele>1051.42</ele>
        <time>2020-07-21T06:05:31.000Z</time>
      </trkpt>
      <trkpt lat="42.874315" lon="-5.6872807">
        <ele>1051.27</ele>
        <time>2020-07-21T06:05:32.000Z</time>
      </trkpt>
      <trkpt lat="42.8743253" lon="-5.687284">
        <ele>1051.27</ele>
        <time>2020-07-21T06:05:33.000Z</time>
      </trkpt>
      <trkpt lat="42.8743353" lon="-5.6872872">
        <ele>1051.27</ele>
        <time>2020-07-21T06:05:34.000Z</time>
      </trkpt>
      <trkpt lat="42.8743455" lon="-5.6872905">
        <ele>1051.27</ele>
        <time>2020-07-21T06:05:35.000Z</time>
      </trkpt>
      <trkpt lat="42.874357" lon="-5.6872935">
        <ele>1051.12</ele>
        <time>2020-07-21T06:05:36.000Z</time>
      </trkpt>
      <trkpt lat="42.8743702" lon="-5.687296">
        <ele>1051.12</ele>
        <time>2020-07-21T06:05:37.000Z</time>
      </trkpt>
      <trkpt lat="42.8743843" lon="-5.687299">
        <ele>1051.12</ele>
        <time>2020-07-21T06:05:38.000Z</time>
      </trkpt>
      <trkpt lat="42.8743993" lon="-5.6873027">
        <ele>1051.12</ele>
        <time>2020-07-21T06:05:39.000Z</time>
      </trkpt>
      <trkpt lat="42.8744128" lon="-5.687306">
        <ele>1050.96</ele>
        <time>2020-07-21T06:05:40.000Z</time>
      </trkpt>
      <trkpt lat="42.8744258" lon="-5.6873087">
        <ele>1050.96</ele>
        <time>2020-07-21T06:05:41.000Z</time>
      </trkpt>
      <trkpt lat="42.874438" lon="-5.6873108">
        <ele>1050.81</ele>
        <time>2020-07-21T06:05:42.000Z</time>
      </trkpt>
      <trkpt lat="42.8744502" lon="-5.6873118">
        <ele>1050.81</ele>
        <time>2020-07-21T06:05:43.000Z</time>
      </trkpt>
      <trkpt lat="42.8744623" lon="-5.6873118">
        <ele>1050.81</ele>
        <time>2020-07-21T06:05:44.000Z</time>
      </trkpt>
      <trkpt lat="42.874474" lon="-5.6873115">
        <ele>1050.81</ele>
        <time>2020-07-21T06:05:45.000Z</time>
      </trkpt>
      <trkpt lat="42.874486" lon="-5.6873123">
        <ele>1050.66</ele>
        <time>2020-07-21T06:05:46.000Z</time>
      </trkpt>
      <trkpt lat="42.8744982" lon="-5.6873133">
        <ele>1050.66</ele>
        <time>2020-07-21T06:05:47.000Z</time>
      </trkpt>
      <trkpt lat="42.87451" lon="-5.6873142">
        <ele>1050.66</ele>
        <time>2020-07-21T06:05:48.000Z</time>
      </trkpt>
      <trkpt lat="42.8745222" lon="-5.6873172">
        <ele>1050.66</ele>
        <time>2020-07-21T06:05:49.000Z</time>
      </trkpt>
      <trkpt lat="42.874534" lon="-5.6873213">
        <ele>1050.51</ele>
        <time>2020-07-21T06:05:50.000Z</time>
      </trkpt>
      <trkpt lat="42.8745465" lon="-5.6873278">
        <ele>1050.51</ele>
        <time>2020-07-21T06:05:51.000Z</time>
      </trkpt>
      <trkpt lat="42.8745592" lon="-5.6873325">
        <ele>1050.51</ele>
        <time>2020-07-21T06:05:52.000Z</time>
      </trkpt>
      <trkpt lat="42.874572" lon="-5.6873368">
        <ele>1050.51</ele>
        <time>2020-07-21T06:05:53.000Z</time>
      </trkpt>
      <trkpt lat="42.8745832" lon="-5.6873408">
        <ele>1050.51</ele>
        <time>2020-07-21T06:05:54.000Z</time>
      </trkpt>
      <trkpt lat="42.8745937" lon="-5.6873462">
        <ele>1050.51</ele>
        <time>2020-07-21T06:05:55.000Z</time>
      </trkpt>
      <trkpt lat="42.8746033" lon="-5.687353">
        <ele>1050.51</ele>
        <time>2020-07-21T06:05:56.000Z</time>
      </trkpt>
      <trkpt lat="42.8746135" lon="-5.6873595">
        <ele>1050.51</ele>
        <time>2020-07-21T06:05:57.000Z</time>
      </trkpt>
      <trkpt lat="42.8746237" lon="-5.6873653">
        <ele>1050.51</ele>
        <time>2020-07-21T06:05:58.000Z</time>
      </trkpt>
      <trkpt lat="42.8746347" lon="-5.6873703">
        <ele>1050.51</ele>
        <time>2020-07-21T06:05:59.000Z</time>
      </trkpt>
      <trkpt lat="42.8746452" lon="-5.6873753">
        <ele>1050.51</ele>
        <time>2020-07-21T06:06:00.000Z</time>
      </trkpt>
      <trkpt lat="42.8746562" lon="-5.6873805">
        <ele>1050.51</ele>
        <time>2020-07-21T06:06:01.000Z</time>
      </trkpt>
      <trkpt lat="42.8746667" lon="-5.6873862">
        <ele>1050.66</ele>
        <time>2020-07-21T06:06:02.000Z</time>
      </trkpt>
      <trkpt lat="42.8746777" lon="-5.687392">
        <ele>1050.66</ele>
        <time>2020-07-21T06:06:03.000Z</time>
      </trkpt>
      <trkpt lat="42.8746882" lon="-5.687398">
        <ele>1050.66</ele>
        <time>2020-07-21T06:06:04.000Z</time>
      </trkpt>
      <trkpt lat="42.8746995" lon="-5.6874048">
        <ele>1050.66</ele>
        <time>2020-07-21T06:06:05.000Z</time>
      </trkpt>
      <trkpt lat="42.8747098" lon="-5.6874113">
        <ele>1050.66</ele>
        <time>2020-07-21T06:06:06.000Z</time>
      </trkpt>
      <trkpt lat="42.8747198" lon="-5.6874173">
        <ele>1050.66</ele>
        <time>2020-07-21T06:06:07.000Z</time>
      </trkpt>
      <trkpt lat="42.8747292" lon="-5.6874222">
        <ele>1050.66</ele>
        <time>2020-07-21T06:06:08.000Z</time>
      </trkpt>
      <trkpt lat="42.8747388" lon="-5.6874277">
        <ele>1050.66</ele>
        <time>2020-07-21T06:06:09.000Z</time>
      </trkpt>
      <trkpt lat="42.8747482" lon="-5.6874335">
        <ele>1050.81</ele>
        <time>2020-07-21T06:06:10.000Z</time>
      </trkpt>
      <trkpt lat="42.8747568" lon="-5.6874403">
        <ele>1050.81</ele>
        <time>2020-07-21T06:06:11.000Z</time>
      </trkpt>
      <trkpt lat="42.8747657" lon="-5.6874468">
        <ele>1050.96</ele>
        <time>2020-07-21T06:06:12.000Z</time>
      </trkpt>
      <trkpt lat="42.8747747" lon="-5.6874532">
        <ele>1050.96</ele>
        <time>2020-07-21T06:06:13.000Z</time>
      </trkpt>
      <trkpt lat="42.8747847" lon="-5.6874575">
        <ele>1051.12</ele>
        <time>2020-07-21T06:06:14.000Z</time>
      </trkpt>
      <trkpt lat="42.8747952" lon="-5.6874602">
        <ele>1051.12</ele>
        <time>2020-07-21T06:06:15.000Z</time>
      </trkpt>
      <trkpt lat="42.8748067" lon="-5.6874602">
        <ele>1051.12</ele>
        <time>2020-07-21T06:06:16.000Z</time>
      </trkpt>
      <trkpt lat="42.8748178" lon="-5.6874587">
        <ele>1051.12</ele>
        <time>2020-07-21T06:06:17.000Z</time>
      </trkpt>
      <trkpt lat="42.8748293" lon="-5.6874563">
        <ele>1051.27</ele>
        <time>2020-07-21T06:06:18.000Z</time>
      </trkpt>
      <trkpt lat="42.8748405" lon="-5.6874535">
        <ele>1051.27</ele>
        <time>2020-07-21T06:06:19.000Z</time>
      </trkpt>
      <trkpt lat="42.874853" lon="-5.6874508">
        <ele>1051.42</ele>
        <time>2020-07-21T06:06:20.000Z</time>
      </trkpt>
      <trkpt lat="42.874866" lon="-5.6874483">
        <ele>1051.42</ele>
        <time>2020-07-21T06:06:21.000Z</time>
      </trkpt>
      <trkpt lat="42.8748785" lon="-5.6874475">
        <ele>1051.57</ele>
        <time>2020-07-21T06:06:22.000Z</time>
      </trkpt>
      <trkpt lat="42.8748902" lon="-5.6874467">
        <ele>1051.57</ele>
        <time>2020-07-21T06:06:23.000Z</time>
      </trkpt>
      <trkpt lat="42.8749015" lon="-5.6874445">
        <ele>1051.72</ele>
        <time>2020-07-21T06:06:24.000Z</time>
      </trkpt>
      <trkpt lat="42.8749128" lon="-5.6874423">
        <ele>1051.72</ele>
        <time>2020-07-21T06:06:25.000Z</time>
      </trkpt>
      <trkpt lat="42.874924" lon="-5.6874388">
        <ele>1051.88</ele>
        <time>2020-07-21T06:06:26.000Z</time>
      </trkpt>
      <trkpt lat="42.8749352" lon="-5.6874358">
        <ele>1051.88</ele>
        <time>2020-07-21T06:06:27.000Z</time>
      </trkpt>
      <trkpt lat="42.8749463" lon="-5.6874327">
        <ele>1052.18</ele>
        <time>2020-07-21T06:06:28.000Z</time>
      </trkpt>
      <trkpt lat="42.874958" lon="-5.6874298">
        <ele>1052.18</ele>
        <time>2020-07-21T06:06:29.000Z</time>
      </trkpt>
      <trkpt lat="42.8749678" lon="-5.6874262">
        <ele>1052.33</ele>
        <time>2020-07-21T06:06:30.000Z</time>
      </trkpt>
      <trkpt lat="42.8749802" lon="-5.6874225">
        <ele>1052.33</ele>
        <time>2020-07-21T06:06:31.000Z</time>
      </trkpt>
      <trkpt lat="42.8749927" lon="-5.6874188">
        <ele>1052.49</ele>
        <time>2020-07-21T06:06:32.000Z</time>
      </trkpt>
      <trkpt lat="42.8750062" lon="-5.6874148">
        <ele>1052.49</ele>
        <time>2020-07-21T06:06:33.000Z</time>
      </trkpt>
      <trkpt lat="42.8750183" lon="-5.6874105">
        <ele>1052.64</ele>
        <time>2020-07-21T06:06:34.000Z</time>
      </trkpt>
      <trkpt lat="42.8750305" lon="-5.6874065">
        <ele>1052.64</ele>
        <time>2020-07-21T06:06:35.000Z</time>
      </trkpt>
      <trkpt lat="42.8750428" lon="-5.6874038">
        <ele>1052.79</ele>
        <time>2020-07-21T06:06:36.000Z</time>
      </trkpt>
      <trkpt lat="42.8750553" lon="-5.687401">
        <ele>1052.79</ele>
        <time>2020-07-21T06:06:37.000Z</time>
      </trkpt>
      <trkpt lat="42.8750673" lon="-5.687398">
        <ele>1052.94</ele>
        <time>2020-07-21T06:06:38.000Z</time>
      </trkpt>
      <trkpt lat="42.8750803" lon="-5.687396">
        <ele>1052.94</ele>
        <time>2020-07-21T06:06:39.000Z</time>
      </trkpt>
      <trkpt lat="42.8750927" lon="-5.6873938">
        <ele>1053.1</ele>
        <time>2020-07-21T06:06:40.000Z</time>
      </trkpt>
      <trkpt lat="42.875105" lon="-5.6873915">
        <ele>1053.1</ele>
        <time>2020-07-21T06:06:41.000Z</time>
      </trkpt>
      <trkpt lat="42.8751165" lon="-5.6873882">
        <ele>1053.4</ele>
        <time>2020-07-21T06:06:42.000Z</time>
      </trkpt>
      <trkpt lat="42.8751282" lon="-5.6873858">
        <ele>1053.4</ele>
        <time>2020-07-21T06:06:43.000Z</time>
      </trkpt>
      <trkpt lat="42.8751408" lon="-5.6873842">
        <ele>1053.55</ele>
        <time>2020-07-21T06:06:44.000Z</time>
      </trkpt>
      <trkpt lat="42.8751553" lon="-5.6873832">
        <ele>1053.55</ele>
        <time>2020-07-21T06:06:45.000Z</time>
      </trkpt>
      <trkpt lat="42.8751698" lon="-5.6873808">
        <ele>1053.71</ele>
        <time>2020-07-21T06:06:46.000Z</time>
      </trkpt>
      <trkpt lat="42.8751835" lon="-5.6873787">
        <ele>1053.71</ele>
        <time>2020-07-21T06:06:47.000Z</time>
      </trkpt>
      <trkpt lat="42.8751953" lon="-5.687376">
        <ele>1053.86</ele>
        <time>2020-07-21T06:06:48.000Z</time>
      </trkpt>
      <trkpt lat="42.8752067" lon="-5.6873738">
        <ele>1053.86</ele>
        <time>2020-07-21T06:06:49.000Z</time>
      </trkpt>
      <trkpt lat="42.8752173" lon="-5.6873715">
        <ele>1054.01</ele>
        <time>2020-07-21T06:06:50.000Z</time>
      </trkpt>
      <trkpt lat="42.8752278" lon="-5.6873697">
        <ele>1054.01</ele>
        <time>2020-07-21T06:06:51.000Z</time>
      </trkpt>
      <trkpt lat="42.8752383" lon="-5.6873675">
        <ele>1054.01</ele>
        <time>2020-07-21T06:06:52.000Z</time>
      </trkpt>
      <trkpt lat="42.8752485" lon="-5.6873647">
        <ele>1054.01</ele>
        <time>2020-07-21T06:06:53.000Z</time>
      </trkpt>
      <trkpt lat="42.8752588" lon="-5.687362">
        <ele>1054.16</ele>
        <time>2020-07-21T06:06:54.000Z</time>
      </trkpt>
      <trkpt lat="42.8752687" lon="-5.6873588">
        <ele>1054.16</ele>
        <time>2020-07-21T06:06:55.000Z</time>
      </trkpt>
      <trkpt lat="42.8752777" lon="-5.6873568">
        <ele>1054.32</ele>
        <time>2020-07-21T06:06:56.000Z</time>
      </trkpt>
      <trkpt lat="42.875285" lon="-5.6873547">
        <ele>1054.32</ele>
        <time>2020-07-21T06:06:57.000Z</time>
      </trkpt>
      <trkpt lat="42.875292" lon="-5.6873528">
        <ele>1054.47</ele>
        <time>2020-07-21T06:06:58.000Z</time>
      </trkpt>
      <trkpt lat="42.8752997" lon="-5.6873495">
        <ele>1054.47</ele>
        <time>2020-07-21T06:06:59.000Z</time>
      </trkpt>
      <trkpt lat="42.8753093" lon="-5.6873458">
        <ele>1054.62</ele>
        <time>2020-07-21T06:07:00.000Z</time>
      </trkpt>
      <trkpt lat="42.8753202" lon="-5.6873412">
        <ele>1054.62</ele>
        <time>2020-07-21T06:07:01.000Z</time>
      </trkpt>
      <trkpt lat="42.8753313" lon="-5.6873365">
        <ele>1054.77</ele>
        <time>2020-07-21T06:07:02.000Z</time>
      </trkpt>
      <trkpt lat="42.8753418" lon="-5.687331">
        <ele>1054.77</ele>
        <time>2020-07-21T06:07:03.000Z</time>
      </trkpt>
      <trkpt lat="42.8753522" lon="-5.687326">
        <ele>1054.77</ele>
        <time>2020-07-21T06:07:04.000Z</time>
      </trkpt>
      <trkpt lat="42.8753635" lon="-5.687321">
        <ele>1054.77</ele>
        <time>2020-07-21T06:07:05.000Z</time>
      </trkpt>
      <trkpt lat="42.8753757" lon="-5.6873168">
        <ele>1054.93</ele>
        <time>2020-07-21T06:07:06.000Z</time>
      </trkpt>
      <trkpt lat="42.8753872" lon="-5.6873122">
        <ele>1054.93</ele>
        <time>2020-07-21T06:07:07.000Z</time>
      </trkpt>
      <trkpt lat="42.875398" lon="-5.6873067">
        <ele>1054.93</ele>
        <time>2020-07-21T06:07:08.000Z</time>
      </trkpt>
      <trkpt lat="42.8754077" lon="-5.6873002">
        <ele>1054.93</ele>
        <time>2020-07-21T06:07:09.000Z</time>
      </trkpt>
      <trkpt lat="42.8754183" lon="-5.6872925">
        <ele>1054.93</ele>
        <time>2020-07-21T06:07:10.000Z</time>
      </trkpt>
      <trkpt lat="42.8754278" lon="-5.6872848">
        <ele>1054.93</ele>
        <time>2020-07-21T06:07:11.000Z</time>
      </trkpt>
      <trkpt lat="42.875437" lon="-5.6872782">
        <ele>1055.08</ele>
        <time>2020-07-21T06:07:12.000Z</time>
      </trkpt>
      <trkpt lat="42.8754442" lon="-5.6872717">
        <ele>1055.08</ele>
        <time>2020-07-21T06:07:13.000Z</time>
      </trkpt>
      <trkpt lat="42.875451" lon="-5.6872655">
        <ele>1055.08</ele>
        <time>2020-07-21T06:07:14.000Z</time>
      </trkpt>
      <trkpt lat="42.8754592" lon="-5.6872592">
        <ele>1055.08</ele>
        <time>2020-07-21T06:07:15.000Z</time>
      </trkpt>
      <trkpt lat="42.8754682" lon="-5.6872528">
        <ele>1055.08</ele>
        <time>2020-07-21T06:07:16.000Z</time>
      </trkpt>
      <trkpt lat="42.8754787" lon="-5.6872472">
        <ele>1055.08</ele>
        <time>2020-07-21T06:07:17.000Z</time>
      </trkpt>
      <trkpt lat="42.8754887" lon="-5.6872408">
        <ele>1055.08</ele>
        <time>2020-07-21T06:07:18.000Z</time>
      </trkpt>
      <trkpt lat="42.875499" lon="-5.687234">
        <ele>1055.08</ele>
        <time>2020-07-21T06:07:19.000Z</time>
      </trkpt>
      <trkpt lat="42.8755103" lon="-5.6872258">
        <ele>1055.08</ele>
        <time>2020-07-21T06:07:20.000Z</time>
      </trkpt>
      <trkpt lat="42.8755217" lon="-5.6872168">
        <ele>1055.08</ele>
        <time>2020-07-21T06:07:21.000Z</time>
      </trkpt>
      <trkpt lat="42.875534" lon="-5.6872077">
        <ele>1055.23</ele>
        <time>2020-07-21T06:07:22.000Z</time>
      </trkpt>
      <trkpt lat="42.8755462" lon="-5.6871992">
        <ele>1055.23</ele>
        <time>2020-07-21T06:07:23.000Z</time>
      </trkpt>
      <trkpt lat="42.8755562" lon="-5.6871917">
        <ele>1055.23</ele>
        <time>2020-07-21T06:07:24.000Z</time>
      </trkpt>
      <trkpt lat="42.8755648" lon="-5.6871852">
        <ele>1055.23</ele>
        <time>2020-07-21T06:07:25.000Z</time>
      </trkpt>
      <trkpt lat="42.8755707" lon="-5.6871788">
        <ele>1055.08</ele>
        <time>2020-07-21T06:07:26.000Z</time>
      </trkpt>
      <trkpt lat="42.875577" lon="-5.6871725">
        <ele>1055.08</ele>
        <time>2020-07-21T06:07:27.000Z</time>
      </trkpt>
      <trkpt lat="42.8755827" lon="-5.6871663">
        <ele>1055.08</ele>
        <time>2020-07-21T06:07:28.000Z</time>
      </trkpt>
      <trkpt lat="42.8755925" lon="-5.6871593">
        <ele>1055.08</ele>
        <time>2020-07-21T06:07:29.000Z</time>
      </trkpt>
      <trkpt lat="42.875603" lon="-5.6871512">
        <ele>1055.08</ele>
        <time>2020-07-21T06:07:30.000Z</time>
      </trkpt>
      <trkpt lat="42.875615" lon="-5.6871422">
        <ele>1055.08</ele>
        <time>2020-07-21T06:07:31.000Z</time>
      </trkpt>
      <trkpt lat="42.8756265" lon="-5.6871335">
        <ele>1055.08</ele>
        <time>2020-07-21T06:07:32.000Z</time>
      </trkpt>
      <trkpt lat="42.8756377" lon="-5.6871253">
        <ele>1055.08</ele>
        <time>2020-07-21T06:07:33.000Z</time>
      </trkpt>
      <trkpt lat="42.8756498" lon="-5.6871163">
        <ele>1055.08</ele>
        <time>2020-07-21T06:07:34.000Z</time>
      </trkpt>
      <trkpt lat="42.8756602" lon="-5.6871083">
        <ele>1055.08</ele>
        <time>2020-07-21T06:07:35.000Z</time>
      </trkpt>
      <trkpt lat="42.8756717" lon="-5.6870997">
        <ele>1055.08</ele>
        <time>2020-07-21T06:07:36.000Z</time>
      </trkpt>
      <trkpt lat="42.875684" lon="-5.687091">
        <ele>1055.08</ele>
        <time>2020-07-21T06:07:37.000Z</time>
      </trkpt>
      <trkpt lat="42.8756955" lon="-5.6870828">
        <ele>1055.23</ele>
        <time>2020-07-21T06:07:38.000Z</time>
      </trkpt>
      <trkpt lat="42.8757063" lon="-5.6870763">
        <ele>1055.23</ele>
        <time>2020-07-21T06:07:39.000Z</time>
      </trkpt>
      <trkpt lat="42.8757155" lon="-5.6870725">
        <ele>1055.38</ele>
        <time>2020-07-21T06:07:40.000Z</time>
      </trkpt>
      <trkpt lat="42.8757263" lon="-5.6870683">
        <ele>1055.38</ele>
        <time>2020-07-21T06:07:41.000Z</time>
      </trkpt>
      <trkpt lat="42.8757388" lon="-5.6870647">
        <ele>1055.54</ele>
        <time>2020-07-21T06:07:42.000Z</time>
      </trkpt>
      <trkpt lat="42.8757505" lon="-5.68706">
        <ele>1055.54</ele>
        <time>2020-07-21T06:07:43.000Z</time>
      </trkpt>
      <trkpt lat="42.8757612" lon="-5.687055">
        <ele>1055.54</ele>
        <time>2020-07-21T06:07:44.000Z</time>
      </trkpt>
      <trkpt lat="42.8757712" lon="-5.6870498">
        <ele>1055.54</ele>
        <time>2020-07-21T06:07:45.000Z</time>
      </trkpt>
      <trkpt lat="42.8757832" lon="-5.6870448">
        <ele>1055.69</ele>
        <time>2020-07-21T06:07:46.000Z</time>
      </trkpt>
      <trkpt lat="42.8757948" lon="-5.6870403">
        <ele>1055.69</ele>
        <time>2020-07-21T06:07:47.000Z</time>
      </trkpt>
      <trkpt lat="42.8758057" lon="-5.6870375">
        <ele>1055.84</ele>
        <time>2020-07-21T06:07:48.000Z</time>
      </trkpt>
      <trkpt lat="42.8758152" lon="-5.6870355">
        <ele>1055.84</ele>
        <time>2020-07-21T06:07:49.000Z</time>
      </trkpt>
      <trkpt lat="42.8758247" lon="-5.6870347">
        <ele>1055.84</ele>
        <time>2020-07-21T06:07:50.000Z</time>
      </trkpt>
      <trkpt lat="42.8758342" lon="-5.6870348">
        <ele>1055.84</ele>
        <time>2020-07-21T06:07:51.000Z</time>
      </trkpt>
      <trkpt lat="42.8758442" lon="-5.6870353">
        <ele>1055.84</ele>
        <time>2020-07-21T06:07:52.000Z</time>
      </trkpt>
      <trkpt lat="42.8758557" lon="-5.6870362">
        <ele>1055.84</ele>
        <time>2020-07-21T06:07:53.000Z</time>
      </trkpt>
      <trkpt lat="42.8758675" lon="-5.6870365">
        <ele>1055.99</ele>
        <time>2020-07-21T06:07:54.000Z</time>
      </trkpt>
      <trkpt lat="42.8758793" lon="-5.6870377">
        <ele>1055.99</ele>
        <time>2020-07-21T06:07:55.000Z</time>
      </trkpt>
      <trkpt lat="42.8758902" lon="-5.6870392">
        <ele>1055.99</ele>
        <time>2020-07-21T06:07:56.000Z</time>
      </trkpt>
      <trkpt lat="42.8759012" lon="-5.6870417">
        <ele>1055.99</ele>
        <time>2020-07-21T06:07:57.000Z</time>
      </trkpt>
      <trkpt lat="42.8759123" lon="-5.6870457">
        <ele>1055.99</ele>
        <time>2020-07-21T06:07:58.000Z</time>
      </trkpt>
      <trkpt lat="42.8759263" lon="-5.68705">
        <ele>1055.99</ele>
        <time>2020-07-21T06:07:59.000Z</time>
      </trkpt>
      <trkpt lat="42.8759405" lon="-5.6870555">
        <ele>1056.15</ele>
        <time>2020-07-21T06:08:00.000Z</time>
      </trkpt>
      <trkpt lat="42.8759533" lon="-5.6870602">
        <ele>1056.15</ele>
        <time>2020-07-21T06:08:01.000Z</time>
      </trkpt>
      <trkpt lat="42.8759632" lon="-5.6870662">
        <ele>1056.15</ele>
        <time>2020-07-21T06:08:02.000Z</time>
      </trkpt>
      <trkpt lat="42.8759732" lon="-5.6870727">
        <ele>1056.15</ele>
        <time>2020-07-21T06:08:03.000Z</time>
      </trkpt>
      <trkpt lat="42.8759837" lon="-5.6870795">
        <ele>1056.15</ele>
        <time>2020-07-21T06:08:04.000Z</time>
      </trkpt>
      <trkpt lat="42.8759943" lon="-5.687086">
        <ele>1056.15</ele>
        <time>2020-07-21T06:08:05.000Z</time>
      </trkpt>
      <trkpt lat="42.8760032" lon="-5.687092">
        <ele>1056.15</ele>
        <time>2020-07-21T06:08:06.000Z</time>
      </trkpt>
      <trkpt lat="42.8760123" lon="-5.6870985">
        <ele>1056.15</ele>
        <time>2020-07-21T06:08:07.000Z</time>
      </trkpt>
      <trkpt lat="42.8760227" lon="-5.6871045">
        <ele>1056.15</ele>
        <time>2020-07-21T06:08:08.000Z</time>
      </trkpt>
      <trkpt lat="42.8760347" lon="-5.6871112">
        <ele>1056.15</ele>
        <time>2020-07-21T06:08:09.000Z</time>
      </trkpt>
      <trkpt lat="42.8760463" lon="-5.6871183">
        <ele>1056.15</ele>
        <time>2020-07-21T06:08:10.000Z</time>
      </trkpt>
      <trkpt lat="42.876058" lon="-5.6871263">
        <ele>1056.15</ele>
        <time>2020-07-21T06:08:11.000Z</time>
      </trkpt>
      <trkpt lat="42.8760685" lon="-5.6871337">
        <ele>1056.15</ele>
        <time>2020-07-21T06:08:12.000Z</time>
      </trkpt>
      <trkpt lat="42.8760793" lon="-5.6871412">
        <ele>1056.15</ele>
        <time>2020-07-21T06:08:13.000Z</time>
      </trkpt>
      <trkpt lat="42.8760888" lon="-5.6871473">
        <ele>1056.15</ele>
        <time>2020-07-21T06:08:14.000Z</time>
      </trkpt>
      <trkpt lat="42.8760997" lon="-5.6871532">
        <ele>1056.15</ele>
        <time>2020-07-21T06:08:15.000Z</time>
      </trkpt>
      <trkpt lat="42.876111" lon="-5.687158">
        <ele>1055.99</ele>
        <time>2020-07-21T06:08:16.000Z</time>
      </trkpt>
      <trkpt lat="42.8761228" lon="-5.6871637">
        <ele>1055.99</ele>
        <time>2020-07-21T06:08:17.000Z</time>
      </trkpt>
      <trkpt lat="42.8761343" lon="-5.6871692">
        <ele>1055.99</ele>
        <time>2020-07-21T06:08:18.000Z</time>
      </trkpt>
      <trkpt lat="42.8761458" lon="-5.687175">
        <ele>1055.99</ele>
        <time>2020-07-21T06:08:19.000Z</time>
      </trkpt>
      <trkpt lat="42.8761578" lon="-5.6871805">
        <ele>1055.99</ele>
        <time>2020-07-21T06:08:20.000Z</time>
      </trkpt>
      <trkpt lat="42.8761695" lon="-5.6871867">
        <ele>1055.99</ele>
        <time>2020-07-21T06:08:21.000Z</time>
      </trkpt>
      <trkpt lat="42.87618" lon="-5.6871945">
        <ele>1055.84</ele>
        <time>2020-07-21T06:08:22.000Z</time>
      </trkpt>
      <trkpt lat="42.8761895" lon="-5.6872033">
        <ele>1055.84</ele>
        <time>2020-07-21T06:08:23.000Z</time>
      </trkpt>
      <trkpt lat="42.8761988" lon="-5.6872133">
        <ele>1055.84</ele>
        <time>2020-07-21T06:08:24.000Z</time>
      </trkpt>
      <trkpt lat="42.876209" lon="-5.6872212">
        <ele>1055.84</ele>
        <time>2020-07-21T06:08:25.000Z</time>
      </trkpt>
      <trkpt lat="42.8762187" lon="-5.6872282">
        <ele>1055.69</ele>
        <time>2020-07-21T06:08:26.000Z</time>
      </trkpt>
      <trkpt lat="42.8762282" lon="-5.6872347">
        <ele>1055.69</ele>
        <time>2020-07-21T06:08:27.000Z</time>
      </trkpt>
      <trkpt lat="42.8762367" lon="-5.6872408">
        <ele>1055.69</ele>
        <time>2020-07-21T06:08:28.000Z</time>
      </trkpt>
      <trkpt lat="42.8762475" lon="-5.687248">
        <ele>1055.69</ele>
        <time>2020-07-21T06:08:29.000Z</time>
      </trkpt>
      <trkpt lat="42.8762582" lon="-5.6872545">
        <ele>1055.54</ele>
        <time>2020-07-21T06:08:30.000Z</time>
      </trkpt>
      <trkpt lat="42.8762692" lon="-5.6872622">
        <ele>1055.54</ele>
        <time>2020-07-21T06:08:31.000Z</time>
      </trkpt>
      <trkpt lat="42.876279" lon="-5.6872682">
        <ele>1055.38</ele>
        <time>2020-07-21T06:08:32.000Z</time>
      </trkpt>
      <trkpt lat="42.8762893" lon="-5.6872743">
        <ele>1055.38</ele>
        <time>2020-07-21T06:08:33.000Z</time>
      </trkpt>
      <trkpt lat="42.8763002" lon="-5.6872805">
        <ele>1055.23</ele>
        <time>2020-07-21T06:08:34.000Z</time>
      </trkpt>
      <trkpt lat="42.8763108" lon="-5.6872865">
        <ele>1055.23</ele>
        <time>2020-07-21T06:08:35.000Z</time>
      </trkpt>
      <trkpt lat="42.8763227" lon="-5.6872908">
        <ele>1055.23</ele>
        <time>2020-07-21T06:08:36.000Z</time>
      </trkpt>
      <trkpt lat="42.8763347" lon="-5.6872948">
        <ele>1055.23</ele>
        <time>2020-07-21T06:08:37.000Z</time>
      </trkpt>
      <trkpt lat="42.8763463" lon="-5.6873003">
        <ele>1055.23</ele>
        <time>2020-07-21T06:08:38.000Z</time>
      </trkpt>
      <trkpt lat="42.876357" lon="-5.687308">
        <ele>1055.23</ele>
        <time>2020-07-21T06:08:39.000Z</time>
      </trkpt>
      <trkpt lat="42.8763678" lon="-5.6873155">
        <ele>1055.23</ele>
        <time>2020-07-21T06:08:40.000Z</time>
      </trkpt>
      <trkpt lat="42.8763788" lon="-5.6873227">
        <ele>1055.23</ele>
        <time>2020-07-21T06:08:41.000Z</time>
      </trkpt>
      <trkpt lat="42.8763898" lon="-5.6873308">
        <ele>1055.23</ele>
        <time>2020-07-21T06:08:42.000Z</time>
      </trkpt>
      <trkpt lat="42.8764003" lon="-5.687339">
        <ele>1055.23</ele>
        <time>2020-07-21T06:08:43.000Z</time>
      </trkpt>
      <trkpt lat="42.8764113" lon="-5.6873462">
        <ele>1055.38</ele>
        <time>2020-07-21T06:08:44.000Z</time>
      </trkpt>
      <trkpt lat="42.8764208" lon="-5.6873512">
        <ele>1055.38</ele>
        <time>2020-07-21T06:08:45.000Z</time>
      </trkpt>
      <trkpt lat="42.8764303" lon="-5.6873562">
        <ele>1055.54</ele>
        <time>2020-07-21T06:08:46.000Z</time>
      </trkpt>
      <trkpt lat="42.8764398" lon="-5.6873607">
        <ele>1055.54</ele>
        <time>2020-07-21T06:08:47.000Z</time>
      </trkpt>
      <trkpt lat="42.8764512" lon="-5.6873655">
        <ele>1055.54</ele>
        <time>2020-07-21T06:08:48.000Z</time>
      </trkpt>
      <trkpt lat="42.876464" lon="-5.6873698">
        <ele>1055.54</ele>
        <time>2020-07-21T06:08:49.000Z</time>
      </trkpt>
      <trkpt lat="42.8764762" lon="-5.6873753">
        <ele>1055.69</ele>
        <time>2020-07-21T06:08:50.000Z</time>
      </trkpt>
      <trkpt lat="42.8764867" lon="-5.6873815">
        <ele>1055.69</ele>
        <time>2020-07-21T06:08:51.000Z</time>
      </trkpt>
      <trkpt lat="42.8764942" lon="-5.687388">
        <ele>1055.84</ele>
        <time>2020-07-21T06:08:52.000Z</time>
      </trkpt>
      <trkpt lat="42.8765005" lon="-5.6873938">
        <ele>1055.84</ele>
        <time>2020-07-21T06:08:53.000Z</time>
      </trkpt>
      <trkpt lat="42.8765082" lon="-5.687398">
        <ele>1055.99</ele>
        <time>2020-07-21T06:08:54.000Z</time>
      </trkpt>
      <trkpt lat="42.8765188" lon="-5.6874003">
        <ele>1055.99</ele>
        <time>2020-07-21T06:08:55.000Z</time>
      </trkpt>
      <trkpt lat="42.8765303" lon="-5.6874023">
        <ele>1055.99</ele>
        <time>2020-07-21T06:08:56.000Z</time>
      </trkpt>
      <trkpt lat="42.876541" lon="-5.6874058">
        <ele>1055.99</ele>
        <time>2020-07-21T06:08:57.000Z</time>
      </trkpt>
      <trkpt lat="42.8765515" lon="-5.6874107">
        <ele>1056.15</ele>
        <time>2020-07-21T06:08:58.000Z</time>
      </trkpt>
      <trkpt lat="42.8765622" lon="-5.6874165">
        <ele>1056.15</ele>
        <time>2020-07-21T06:08:59.000Z</time>
      </trkpt>
      <trkpt lat="42.8765747" lon="-5.6874207">
        <ele>1056.45</ele>
        <time>2020-07-21T06:09:00.000Z</time>
      </trkpt>
      <trkpt lat="42.8765867" lon="-5.6874245">
        <ele>1056.45</ele>
        <time>2020-07-21T06:09:01.000Z</time>
      </trkpt>
      <trkpt lat="42.8765987" lon="-5.6874293">
        <ele>1056.6</ele>
        <time>2020-07-21T06:09:02.000Z</time>
      </trkpt>
      <trkpt lat="42.8766095" lon="-5.687435">
        <ele>1056.6</ele>
        <time>2020-07-21T06:09:03.000Z</time>
      </trkpt>
      <trkpt lat="42.8766188" lon="-5.6874415">
        <ele>1056.75</ele>
        <time>2020-07-21T06:09:04.000Z</time>
      </trkpt>
      <trkpt lat="42.8766277" lon="-5.6874492">
        <ele>1056.75</ele>
        <time>2020-07-21T06:09:05.000Z</time>
      </trkpt>
      <trkpt lat="42.876638" lon="-5.6874558">
        <ele>1056.91</ele>
        <time>2020-07-21T06:09:06.000Z</time>
      </trkpt>
      <trkpt lat="42.8766482" lon="-5.687462">
        <ele>1056.91</ele>
        <time>2020-07-21T06:09:07.000Z</time>
      </trkpt>
      <trkpt lat="42.8766585" lon="-5.6874663">
        <ele>1057.06</ele>
        <time>2020-07-21T06:09:08.000Z</time>
      </trkpt>
      <trkpt lat="42.8766685" lon="-5.6874715">
        <ele>1057.06</ele>
        <time>2020-07-21T06:09:09.000Z</time>
      </trkpt>
      <trkpt lat="42.8766798" lon="-5.6874748">
        <ele>1057.21</ele>
        <time>2020-07-21T06:09:10.000Z</time>
      </trkpt>
      <trkpt lat="42.8766923" lon="-5.687474">
        <ele>1057.21</ele>
        <time>2020-07-21T06:09:11.000Z</time>
      </trkpt>
      <trkpt lat="42.8767038" lon="-5.6874712">
        <ele>1057.36</ele>
        <time>2020-07-21T06:09:12.000Z</time>
      </trkpt>
      <trkpt lat="42.8767177" lon="-5.6874665">
        <ele>1057.36</ele>
        <time>2020-07-21T06:09:13.000Z</time>
      </trkpt>
      <trkpt lat="42.8767312" lon="-5.6874603">
        <ele>1057.52</ele>
        <time>2020-07-21T06:09:14.000Z</time>
      </trkpt>
      <trkpt lat="42.876746" lon="-5.6874535">
        <ele>1057.52</ele>
        <time>2020-07-21T06:09:15.000Z</time>
      </trkpt>
      <trkpt lat="42.8767583" lon="-5.6874472">
        <ele>1057.67</ele>
        <time>2020-07-21T06:09:16.000Z</time>
      </trkpt>
      <trkpt lat="42.8767703" lon="-5.6874433">
        <ele>1057.67</ele>
        <time>2020-07-21T06:09:17.000Z</time>
      </trkpt>
      <trkpt lat="42.8767805" lon="-5.6874398">
        <ele>1057.82</ele>
        <time>2020-07-21T06:09:18.000Z</time>
      </trkpt>
      <trkpt lat="42.876791" lon="-5.6874422">
        <ele>1057.82</ele>
        <time>2020-07-21T06:09:19.000Z</time>
      </trkpt>
      <trkpt lat="42.8768042" lon="-5.6874432">
        <ele>1057.82</ele>
        <time>2020-07-21T06:09:20.000Z</time>
      </trkpt>
      <trkpt lat="42.8768175" lon="-5.6874433">
        <ele>1057.82</ele>
        <time>2020-07-21T06:09:21.000Z</time>
      </trkpt>
      <trkpt lat="42.8768307" lon="-5.6874387">
        <ele>1057.97</ele>
        <time>2020-07-21T06:09:22.000Z</time>
      </trkpt>
      <trkpt lat="42.8768425" lon="-5.6874342">
        <ele>1057.97</ele>
        <time>2020-07-21T06:09:23.000Z</time>
      </trkpt>
      <trkpt lat="42.8768553" lon="-5.6874303">
        <ele>1058.13</ele>
        <time>2020-07-21T06:09:24.000Z</time>
      </trkpt>
      <trkpt lat="42.876868" lon="-5.687427">
        <ele>1058.13</ele>
        <time>2020-07-21T06:09:25.000Z</time>
      </trkpt>
      <trkpt lat="42.8768805" lon="-5.6874255">
        <ele>1058.28</ele>
        <time>2020-07-21T06:09:26.000Z</time>
      </trkpt>
      <trkpt lat="42.876892" lon="-5.6874242">
        <ele>1058.28</ele>
        <time>2020-07-21T06:09:27.000Z</time>
      </trkpt>
      <trkpt lat="42.8769028" lon="-5.6874213">
        <ele>1058.28</ele>
        <time>2020-07-21T06:09:28.000Z</time>
      </trkpt>
      <trkpt lat="42.8769135" lon="-5.6874173">
        <ele>1058.28</ele>
        <time>2020-07-21T06:09:29.000Z</time>
      </trkpt>
      <trkpt lat="42.8769247" lon="-5.687415">
        <ele>1058.43</ele>
        <time>2020-07-21T06:09:30.000Z</time>
      </trkpt>
      <trkpt lat="42.8769363" lon="-5.6874133">
        <ele>1058.43</ele>
        <time>2020-07-21T06:09:31.000Z</time>
      </trkpt>
      <trkpt lat="42.8769482" lon="-5.6874128">
        <ele>1058.58</ele>
        <time>2020-07-21T06:09:32.000Z</time>
      </trkpt>
      <trkpt lat="42.8769592" lon="-5.6874097">
        <ele>1058.58</ele>
        <time>2020-07-21T06:09:33.000Z</time>
      </trkpt>
      <trkpt lat="42.8769705" lon="-5.6874055">
        <ele>1058.74</ele>
        <time>2020-07-21T06:09:34.000Z</time>
      </trkpt>
      <trkpt lat="42.876983" lon="-5.687401">
        <ele>1058.74</ele>
        <time>2020-07-21T06:09:35.000Z</time>
      </trkpt>
      <trkpt lat="42.876996" lon="-5.6873973">
        <ele>1059.04</ele>
        <time>2020-07-21T06:09:36.000Z</time>
      </trkpt>
      <trkpt lat="42.8770082" lon="-5.6873953">
        <ele>1059.04</ele>
        <time>2020-07-21T06:09:37.000Z</time>
      </trkpt>
      <trkpt lat="42.8770188" lon="-5.687394">
        <ele>1059.19</ele>
        <time>2020-07-21T06:09:38.000Z</time>
      </trkpt>
      <trkpt lat="42.8770302" lon="-5.6873932">
        <ele>1059.19</ele>
        <time>2020-07-21T06:09:39.000Z</time>
      </trkpt>
      <trkpt lat="42.8770417" lon="-5.6873925">
        <ele>1059.34</ele>
        <time>2020-07-21T06:09:40.000Z</time>
      </trkpt>
      <trkpt lat="42.8770523" lon="-5.6873927">
        <ele>1059.34</ele>
        <time>2020-07-21T06:09:41.000Z</time>
      </trkpt>
      <trkpt lat="42.8770615" lon="-5.6873933">
        <ele>1059.5</ele>
        <time>2020-07-21T06:09:42.000Z</time>
      </trkpt>
      <trkpt lat="42.877071" lon="-5.6873927">
        <ele>1059.5</ele>
        <time>2020-07-21T06:09:43.000Z</time>
      </trkpt>
      <trkpt lat="42.8770805" lon="-5.6873905">
        <ele>1059.65</ele>
        <time>2020-07-21T06:09:44.000Z</time>
      </trkpt>
      <trkpt lat="42.877089" lon="-5.6873872">
        <ele>1059.65</ele>
        <time>2020-07-21T06:09:45.000Z</time>
      </trkpt>
      <trkpt lat="42.8770967" lon="-5.6873842">
        <ele>1059.8</ele>
        <time>2020-07-21T06:09:46.000Z</time>
      </trkpt>
      <trkpt lat="42.8771048" lon="-5.6873823">
        <ele>1059.8</ele>
        <time>2020-07-21T06:09:47.000Z</time>
      </trkpt>
      <trkpt lat="42.877114" lon="-5.6873793">
        <ele>1060.11</ele>
        <time>2020-07-21T06:09:48.000Z</time>
      </trkpt>
      <trkpt lat="42.8771233" lon="-5.6873762">
        <ele>1060.11</ele>
        <time>2020-07-21T06:09:49.000Z</time>
      </trkpt>
      <trkpt lat="42.877135" lon="-5.6873718">
        <ele>1060.26</ele>
        <time>2020-07-21T06:09:50.000Z</time>
      </trkpt>
      <trkpt lat="42.8771472" lon="-5.6873685">
        <ele>1060.26</ele>
        <time>2020-07-21T06:09:51.000Z</time>
      </trkpt>
      <trkpt lat="42.877161" lon="-5.6873647">
        <ele>1060.41</ele>
        <time>2020-07-21T06:09:52.000Z</time>
      </trkpt>
      <trkpt lat="42.877173" lon="-5.687361">
        <ele>1060.41</ele>
        <time>2020-07-21T06:09:53.000Z</time>
      </trkpt>
      <trkpt lat="42.8771845" lon="-5.6873567">
        <ele>1060.72</ele>
        <time>2020-07-21T06:09:54.000Z</time>
      </trkpt>
      <trkpt lat="42.8771948" lon="-5.6873533">
        <ele>1060.72</ele>
        <time>2020-07-21T06:09:55.000Z</time>
      </trkpt>
      <trkpt lat="42.8772048" lon="-5.6873508">
        <ele>1060.87</ele>
        <time>2020-07-21T06:09:56.000Z</time>
      </trkpt>
      <trkpt lat="42.8772158" lon="-5.6873482">
        <ele>1060.87</ele>
        <time>2020-07-21T06:09:57.000Z</time>
      </trkpt>
      <trkpt lat="42.8772258" lon="-5.6873463">
        <ele>1061.02</ele>
        <time>2020-07-21T06:09:58.000Z</time>
      </trkpt>
      <trkpt lat="42.8772357" lon="-5.6873435">
        <ele>1061.02</ele>
        <time>2020-07-21T06:09:59.000Z</time>
      </trkpt>
      <trkpt lat="42.8772428" lon="-5.6873417">
        <ele>1061.17</ele>
        <time>2020-07-21T06:10:00.000Z</time>
      </trkpt>
      <trkpt lat="42.87725" lon="-5.6873397">
        <ele>1061.17</ele>
        <time>2020-07-21T06:10:01.000Z</time>
      </trkpt>
      <trkpt lat="42.877257" lon="-5.6873372">
        <ele>1061.33</ele>
        <time>2020-07-21T06:10:02.000Z</time>
      </trkpt>
      <trkpt lat="42.8772655" lon="-5.6873353">
        <ele>1061.33</ele>
        <time>2020-07-21T06:10:03.000Z</time>
      </trkpt>
      <trkpt lat="42.877274" lon="-5.6873318">
        <ele>1061.48</ele>
        <time>2020-07-21T06:10:04.000Z</time>
      </trkpt>
      <trkpt lat="42.877287" lon="-5.6873288">
        <ele>1061.48</ele>
        <time>2020-07-21T06:10:05.000Z</time>
      </trkpt>
      <trkpt lat="42.8773038" lon="-5.6873282">
        <ele>1061.63</ele>
        <time>2020-07-21T06:10:06.000Z</time>
      </trkpt>
      <trkpt lat="42.8773262" lon="-5.687335">
        <ele>1061.63</ele>
        <time>2020-07-21T06:10:07.000Z</time>
      </trkpt>
      <trkpt lat="42.8773467" lon="-5.6873442">
        <ele>1061.78</ele>
        <time>2020-07-21T06:10:08.000Z</time>
      </trkpt>
      <trkpt lat="42.877365" lon="-5.6873507">
        <ele>1061.78</ele>
        <time>2020-07-21T06:10:09.000Z</time>
      </trkpt>
      <trkpt lat="42.8773798" lon="-5.6873515">
        <ele>1061.94</ele>
        <time>2020-07-21T06:10:10.000Z</time>
      </trkpt>
      <trkpt lat="42.8773927" lon="-5.6873513">
        <ele>1061.94</ele>
        <time>2020-07-21T06:10:11.000Z</time>
      </trkpt>
      <trkpt lat="42.8774062" lon="-5.6873533">
        <ele>1062.09</ele>
        <time>2020-07-21T06:10:12.000Z</time>
      </trkpt>
      <trkpt lat="42.8774207" lon="-5.687357">
        <ele>1062.09</ele>
        <time>2020-07-21T06:10:13.000Z</time>
      </trkpt>
      <trkpt lat="42.8774363" lon="-5.6873603">
        <ele>1062.09</ele>
        <time>2020-07-21T06:10:14.000Z</time>
      </trkpt>
      <trkpt lat="42.8774508" lon="-5.6873617">
        <ele>1062.09</ele>
        <time>2020-07-21T06:10:15.000Z</time>
      </trkpt>
      <trkpt lat="42.8774635" lon="-5.6873618">
        <ele>1062.24</ele>
        <time>2020-07-21T06:10:16.000Z</time>
      </trkpt>
      <trkpt lat="42.8774753" lon="-5.6873628">
        <ele>1062.24</ele>
        <time>2020-07-21T06:10:17.000Z</time>
      </trkpt>
      <trkpt lat="42.8774865" lon="-5.6873637">
        <ele>1062.24</ele>
        <time>2020-07-21T06:10:18.000Z</time>
      </trkpt>
      <trkpt lat="42.8774982" lon="-5.6873645">
        <ele>1062.24</ele>
        <time>2020-07-21T06:10:19.000Z</time>
      </trkpt>
      <trkpt lat="42.8775087" lon="-5.6873655">
        <ele>1062.24</ele>
        <time>2020-07-21T06:10:20.000Z</time>
      </trkpt>
      <trkpt lat="42.8775225" lon="-5.6873655">
        <ele>1062.24</ele>
        <time>2020-07-21T06:10:21.000Z</time>
      </trkpt>
      <trkpt lat="42.8775385" lon="-5.6873645">
        <ele>1062.39</ele>
        <time>2020-07-21T06:10:22.000Z</time>
      </trkpt>
      <trkpt lat="42.8775568" lon="-5.687363">
        <ele>1062.39</ele>
        <time>2020-07-21T06:10:23.000Z</time>
      </trkpt>
      <trkpt lat="42.8775723" lon="-5.6873617">
        <ele>1062.39</ele>
        <time>2020-07-21T06:10:24.000Z</time>
      </trkpt>
      <trkpt lat="42.8775857" lon="-5.687362">
        <ele>1062.39</ele>
        <time>2020-07-21T06:10:25.000Z</time>
      </trkpt>
      <trkpt lat="42.8775975" lon="-5.6873637">
        <ele>1062.55</ele>
        <time>2020-07-21T06:10:26.000Z</time>
      </trkpt>
      <trkpt lat="42.8776087" lon="-5.6873672">
        <ele>1062.55</ele>
        <time>2020-07-21T06:10:27.000Z</time>
      </trkpt>
      <trkpt lat="42.8776195" lon="-5.6873702">
        <ele>1062.55</ele>
        <time>2020-07-21T06:10:28.000Z</time>
      </trkpt>
      <trkpt lat="42.8776303" lon="-5.6873727">
        <ele>1062.55</ele>
        <time>2020-07-21T06:10:29.000Z</time>
      </trkpt>
      <trkpt lat="42.8776418" lon="-5.6873748">
        <ele>1062.7</ele>
        <time>2020-07-21T06:10:30.000Z</time>
      </trkpt>
      <trkpt lat="42.8776532" lon="-5.6873765">
        <ele>1062.7</ele>
        <time>2020-07-21T06:10:31.000Z</time>
      </trkpt>
      <trkpt lat="42.8776635" lon="-5.6873778">
        <ele>1062.7</ele>
        <time>2020-07-21T06:10:32.000Z</time>
      </trkpt>
      <trkpt lat="42.8776735" lon="-5.687378">
        <ele>1062.7</ele>
        <time>2020-07-21T06:10:33.000Z</time>
      </trkpt>
      <trkpt lat="42.8776823" lon="-5.6873783">
        <ele>1062.85</ele>
        <time>2020-07-21T06:10:34.000Z</time>
      </trkpt>
      <trkpt lat="42.8776922" lon="-5.6873782">
        <ele>1062.85</ele>
        <time>2020-07-21T06:10:35.000Z</time>
      </trkpt>
      <trkpt lat="42.8777013" lon="-5.6873785">
        <ele>1063</ele>
        <time>2020-07-21T06:10:36.000Z</time>
      </trkpt>
      <trkpt lat="42.8777108" lon="-5.6873787">
        <ele>1063</ele>
        <time>2020-07-21T06:10:37.000Z</time>
      </trkpt>
      <trkpt lat="42.8777205" lon="-5.6873792">
        <ele>1063</ele>
        <time>2020-07-21T06:10:38.000Z</time>
      </trkpt>
      <trkpt lat="42.8777312" lon="-5.6873792">
        <ele>1063</ele>
        <time>2020-07-21T06:10:39.000Z</time>
      </trkpt>
      <trkpt lat="42.8777425" lon="-5.6873797">
        <ele>1063.16</ele>
        <time>2020-07-21T06:10:40.000Z</time>
      </trkpt>
      <trkpt lat="42.877754" lon="-5.6873815">
        <ele>1063.16</ele>
        <time>2020-07-21T06:10:41.000Z</time>
      </trkpt>
      <trkpt lat="42.877754" lon="-5.6873815">
        <ele>1063.31</ele>
        <time>2020-07-21T06:10:42.000Z</time>
      </trkpt>
      <trkpt lat="42.877769" lon="-5.6873823">
        <ele>1063.31</ele>
        <time>2020-07-21T06:10:43.000Z</time>
      </trkpt>
      <trkpt lat="42.8777863" lon="-5.6873805">
        <ele>1063.31</ele>
        <time>2020-07-21T06:10:44.000Z</time>
      </trkpt>
      <trkpt lat="42.8778053" lon="-5.6873783">
        <ele>1063.31</ele>
        <time>2020-07-21T06:10:45.000Z</time>
      </trkpt>
      <trkpt lat="42.8778193" lon="-5.687374">
        <ele>1063.46</ele>
        <time>2020-07-21T06:10:46.000Z</time>
      </trkpt>
      <trkpt lat="42.8778325" lon="-5.6873638">
        <ele>1063.46</ele>
        <time>2020-07-21T06:10:47.000Z</time>
      </trkpt>
      <trkpt lat="42.8778433" lon="-5.6873557">
        <ele>1063.46</ele>
        <time>2020-07-21T06:10:48.000Z</time>
      </trkpt>
      <trkpt lat="42.8778555" lon="-5.6873503">
        <ele>1063.46</ele>
        <time>2020-07-21T06:10:49.000Z</time>
      </trkpt>
      <trkpt lat="42.8778668" lon="-5.6873528">
        <ele>1063.46</ele>
        <time>2020-07-21T06:10:50.000Z</time>
      </trkpt>
      <trkpt lat="42.8778792" lon="-5.6873525">
        <ele>1063.46</ele>
        <time>2020-07-21T06:10:51.000Z</time>
      </trkpt>
      <trkpt lat="42.8778923" lon="-5.6873533">
        <ele>1063.46</ele>
        <time>2020-07-21T06:10:52.000Z</time>
      </trkpt>
      <trkpt lat="42.8779047" lon="-5.6873547">
        <ele>1063.46</ele>
        <time>2020-07-21T06:10:53.000Z</time>
      </trkpt>
      <trkpt lat="42.8779162" lon="-5.6873555">
        <ele>1063.46</ele>
        <time>2020-07-21T06:10:54.000Z</time>
      </trkpt>
      <trkpt lat="42.8779272" lon="-5.6873557">
        <ele>1063.46</ele>
        <time>2020-07-21T06:10:55.000Z</time>
      </trkpt>
      <trkpt lat="42.8779378" lon="-5.6873552">
        <ele>1063.31</ele>
        <time>2020-07-21T06:10:56.000Z</time>
      </trkpt>
      <trkpt lat="42.8779483" lon="-5.6873548">
        <ele>1063.31</ele>
        <time>2020-07-21T06:10:57.000Z</time>
      </trkpt>
      <trkpt lat="42.877958" lon="-5.6873543">
        <ele>1063.31</ele>
        <time>2020-07-21T06:10:58.000Z</time>
      </trkpt>
      <trkpt lat="42.8779677" lon="-5.6873547">
        <ele>1063.31</ele>
        <time>2020-07-21T06:10:59.000Z</time>
      </trkpt>
      <trkpt lat="42.8779783" lon="-5.6873555">
        <ele>1063.16</ele>
        <time>2020-07-21T06:11:00.000Z</time>
      </trkpt>
      <trkpt lat="42.8779897" lon="-5.6873563">
        <ele>1063.16</ele>
        <time>2020-07-21T06:11:01.000Z</time>
      </trkpt>
      <trkpt lat="42.8780003" lon="-5.6873573">
        <ele>1063.16</ele>
        <time>2020-07-21T06:11:02.000Z</time>
      </trkpt>
      <trkpt lat="42.8780105" lon="-5.6873585">
        <ele>1063.16</ele>
        <time>2020-07-21T06:11:03.000Z</time>
      </trkpt>
      <trkpt lat="42.878021" lon="-5.6873607">
        <ele>1063</ele>
        <time>2020-07-21T06:11:04.000Z</time>
      </trkpt>
      <trkpt lat="42.8780322" lon="-5.6873632">
        <ele>1063</ele>
        <time>2020-07-21T06:11:05.000Z</time>
      </trkpt>
      <trkpt lat="42.8780435" lon="-5.6873658">
        <ele>1063</ele>
        <time>2020-07-21T06:11:06.000Z</time>
      </trkpt>
      <trkpt lat="42.8780543" lon="-5.6873683">
        <ele>1063</ele>
        <time>2020-07-21T06:11:07.000Z</time>
      </trkpt>
      <trkpt lat="42.878065" lon="-5.6873698">
        <ele>1062.85</ele>
        <time>2020-07-21T06:11:08.000Z</time>
      </trkpt>
      <trkpt lat="42.8780752" lon="-5.6873692">
        <ele>1062.85</ele>
        <time>2020-07-21T06:11:09.000Z</time>
      </trkpt>
      <trkpt lat="42.8780857" lon="-5.6873673">
        <ele>1062.85</ele>
        <time>2020-07-21T06:11:10.000Z</time>
      </trkpt>
      <trkpt lat="42.8780973" lon="-5.6873652">
        <ele>1062.85</ele>
        <time>2020-07-21T06:11:11.000Z</time>
      </trkpt>
      <trkpt lat="42.8781097" lon="-5.6873652">
        <ele>1062.7</ele>
        <time>2020-07-21T06:11:12.000Z</time>
      </trkpt>
      <trkpt lat="42.878123" lon="-5.687365">
        <ele>1062.7</ele>
        <time>2020-07-21T06:11:13.000Z</time>
      </trkpt>
      <trkpt lat="42.878136" lon="-5.6873647">
        <ele>1062.55</ele>
        <time>2020-07-21T06:11:14.000Z</time>
      </trkpt>
      <trkpt lat="42.8781492" lon="-5.6873635">
        <ele>1062.55</ele>
        <time>2020-07-21T06:11:15.000Z</time>
      </trkpt>
      <trkpt lat="42.8781595" lon="-5.6873617">
        <ele>1062.55</ele>
        <time>2020-07-21T06:11:16.000Z</time>
      </trkpt>
      <trkpt lat="42.8781693" lon="-5.687359">
        <ele>1062.55</ele>
        <time>2020-07-21T06:11:17.000Z</time>
      </trkpt>
      <trkpt lat="42.8781782" lon="-5.6873553">
        <ele>1062.39</ele>
        <time>2020-07-21T06:11:18.000Z</time>
      </trkpt>
      <trkpt lat="42.8781892" lon="-5.6873508">
        <ele>1062.39</ele>
        <time>2020-07-21T06:11:19.000Z</time>
      </trkpt>
      <trkpt lat="42.8781992" lon="-5.6873458">
        <ele>1062.39</ele>
        <time>2020-07-21T06:11:20.000Z</time>
      </trkpt>
      <trkpt lat="42.8782092" lon="-5.6873392">
        <ele>1062.39</ele>
        <time>2020-07-21T06:11:21.000Z</time>
      </trkpt>
      <trkpt lat="42.8782182" lon="-5.6873322">
        <ele>1062.39</ele>
        <time>2020-07-21T06:11:22.000Z</time>
      </trkpt>
      <trkpt lat="42.8782265" lon="-5.6873243">
        <ele>1062.39</ele>
        <time>2020-07-21T06:11:23.000Z</time>
      </trkpt>
      <trkpt lat="42.8782345" lon="-5.687317">
        <ele>1062.39</ele>
        <time>2020-07-21T06:11:24.000Z</time>
      </trkpt>
      <trkpt lat="42.8782442" lon="-5.6873092">
        <ele>1062.39</ele>
        <time>2020-07-21T06:11:25.000Z</time>
      </trkpt>
      <trkpt lat="42.8782547" lon="-5.6873007">
        <ele>1062.39</ele>
        <time>2020-07-21T06:11:26.000Z</time>
      </trkpt>
      <trkpt lat="42.8782667" lon="-5.6872912">
        <ele>1062.39</ele>
        <time>2020-07-21T06:11:27.000Z</time>
      </trkpt>
      <trkpt lat="42.8782782" lon="-5.6872815">
        <ele>1062.39</ele>
        <time>2020-07-21T06:11:28.000Z</time>
      </trkpt>
      <trkpt lat="42.8782893" lon="-5.6872723">
        <ele>1062.39</ele>
        <time>2020-07-21T06:11:29.000Z</time>
      </trkpt>
      <trkpt lat="42.8783002" lon="-5.6872635">
        <ele>1062.39</ele>
        <time>2020-07-21T06:11:30.000Z</time>
      </trkpt>
      <trkpt lat="42.878312" lon="-5.6872545">
        <ele>1062.39</ele>
        <time>2020-07-21T06:11:31.000Z</time>
      </trkpt>
      <trkpt lat="42.8783233" lon="-5.687246">
        <ele>1062.39</ele>
        <time>2020-07-21T06:11:32.000Z</time>
      </trkpt>
      <trkpt lat="42.8783337" lon="-5.6872375">
        <ele>1062.39</ele>
        <time>2020-07-21T06:11:33.000Z</time>
      </trkpt>
      <trkpt lat="42.8783425" lon="-5.6872298">
        <ele>1062.39</ele>
        <time>2020-07-21T06:11:34.000Z</time>
      </trkpt>
      <trkpt lat="42.8783528" lon="-5.6872222">
        <ele>1062.39</ele>
        <time>2020-07-21T06:11:35.000Z</time>
      </trkpt>
      <trkpt lat="42.8783633" lon="-5.6872147">
        <ele>1062.39</ele>
        <time>2020-07-21T06:11:36.000Z</time>
      </trkpt>
      <trkpt lat="42.8783743" lon="-5.6872077">
        <ele>1062.39</ele>
        <time>2020-07-21T06:11:37.000Z</time>
      </trkpt>
      <trkpt lat="42.878382" lon="-5.6872012">
        <ele>1062.39</ele>
        <time>2020-07-21T06:11:38.000Z</time>
      </trkpt>
      <trkpt lat="42.878388" lon="-5.6871937">
        <ele>1062.39</ele>
        <time>2020-07-21T06:11:39.000Z</time>
      </trkpt>
      <trkpt lat="42.8783942" lon="-5.6871863">
        <ele>1062.39</ele>
        <time>2020-07-21T06:11:40.000Z</time>
      </trkpt>
      <trkpt lat="42.8784038" lon="-5.687178">
        <ele>1062.39</ele>
        <time>2020-07-21T06:11:41.000Z</time>
      </trkpt>
      <trkpt lat="42.8784155" lon="-5.6871713">
        <ele>1062.39</ele>
        <time>2020-07-21T06:11:42.000Z</time>
      </trkpt>
      <trkpt lat="42.8784267" lon="-5.687163">
        <ele>1062.39</ele>
        <time>2020-07-21T06:11:43.000Z</time>
      </trkpt>
      <trkpt lat="42.8784365" lon="-5.6871547">
        <ele>1062.39</ele>
        <time>2020-07-21T06:11:44.000Z</time>
      </trkpt>
      <trkpt lat="42.8784457" lon="-5.6871447">
        <ele>1062.39</ele>
        <time>2020-07-21T06:11:45.000Z</time>
      </trkpt>
      <trkpt lat="42.8784587" lon="-5.6871345">
        <ele>1062.39</ele>
        <time>2020-07-21T06:11:46.000Z</time>
      </trkpt>
      <trkpt lat="42.8784725" lon="-5.6871245">
        <ele>1062.39</ele>
        <time>2020-07-21T06:11:47.000Z</time>
      </trkpt>
      <trkpt lat="42.8784888" lon="-5.6871148">
        <ele>1062.39</ele>
        <time>2020-07-21T06:11:48.000Z</time>
      </trkpt>
      <trkpt lat="42.8785028" lon="-5.6871063">
        <ele>1062.39</ele>
        <time>2020-07-21T06:11:49.000Z</time>
      </trkpt>
      <trkpt lat="42.8785168" lon="-5.6870982">
        <ele>1062.55</ele>
        <time>2020-07-21T06:11:50.000Z</time>
      </trkpt>
      <trkpt lat="42.878529" lon="-5.687091">
        <ele>1062.55</ele>
        <time>2020-07-21T06:11:51.000Z</time>
      </trkpt>
      <trkpt lat="42.8785405" lon="-5.6870843">
        <ele>1062.7</ele>
        <time>2020-07-21T06:11:52.000Z</time>
      </trkpt>
      <trkpt lat="42.8785522" lon="-5.6870787">
        <ele>1062.7</ele>
        <time>2020-07-21T06:11:53.000Z</time>
      </trkpt>
      <trkpt lat="42.8785627" lon="-5.6870732">
        <ele>1062.85</ele>
        <time>2020-07-21T06:11:54.000Z</time>
      </trkpt>
      <trkpt lat="42.8785735" lon="-5.6870665">
        <ele>1062.85</ele>
        <time>2020-07-21T06:11:55.000Z</time>
      </trkpt>
      <trkpt lat="42.878584" lon="-5.6870592">
        <ele>1063</ele>
        <time>2020-07-21T06:11:56.000Z</time>
      </trkpt>
      <trkpt lat="42.8785947" lon="-5.6870515">
        <ele>1063</ele>
        <time>2020-07-21T06:11:57.000Z</time>
      </trkpt>
      <trkpt lat="42.878605" lon="-5.6870438">
        <ele>1063.16</ele>
        <time>2020-07-21T06:11:58.000Z</time>
      </trkpt>
      <trkpt lat="42.8786153" lon="-5.6870357">
        <ele>1063.16</ele>
        <time>2020-07-21T06:11:59.000Z</time>
      </trkpt>
      <trkpt lat="42.8786263" lon="-5.687027">
        <ele>1063.31</ele>
        <time>2020-07-21T06:12:00.000Z</time>
      </trkpt>
      <trkpt lat="42.8786373" lon="-5.6870177">
        <ele>1063.31</ele>
        <time>2020-07-21T06:12:01.000Z</time>
      </trkpt>
      <trkpt lat="42.8786477" lon="-5.6870085">
        <ele>1063.46</ele>
        <time>2020-07-21T06:12:02.000Z</time>
      </trkpt>
      <trkpt lat="42.8786572" lon="-5.6869992">
        <ele>1063.46</ele>
        <time>2020-07-21T06:12:03.000Z</time>
      </trkpt>
      <trkpt lat="42.878665" lon="-5.6869898">
        <ele>1063.46</ele>
        <time>2020-07-21T06:12:04.000Z</time>
      </trkpt>
      <trkpt lat="42.8786723" lon="-5.6869807">
        <ele>1063.46</ele>
        <time>2020-07-21T06:12:05.000Z</time>
      </trkpt>
      <trkpt lat="42.8786807" lon="-5.6869722">
        <ele>1063.61</ele>
        <time>2020-07-21T06:12:06.000Z</time>
      </trkpt>
      <trkpt lat="42.8786887" lon="-5.6869638">
        <ele>1063.61</ele>
        <time>2020-07-21T06:12:07.000Z</time>
      </trkpt>
      <trkpt lat="42.8786975" lon="-5.6869545">
        <ele>1063.77</ele>
        <time>2020-07-21T06:12:08.000Z</time>
      </trkpt>
      <trkpt lat="42.878706" lon="-5.6869418">
        <ele>1063.77</ele>
        <time>2020-07-21T06:12:09.000Z</time>
      </trkpt>
      <trkpt lat="42.8787153" lon="-5.6869277">
        <ele>1063.92</ele>
        <time>2020-07-21T06:12:10.000Z</time>
      </trkpt>
      <trkpt lat="42.8787243" lon="-5.6869135">
        <ele>1063.92</ele>
        <time>2020-07-21T06:12:11.000Z</time>
      </trkpt>
      <trkpt lat="42.8787325" lon="-5.6869005">
        <ele>1064.07</ele>
        <time>2020-07-21T06:12:12.000Z</time>
      </trkpt>
      <trkpt lat="42.8787412" lon="-5.6868897">
        <ele>1064.07</ele>
        <time>2020-07-21T06:12:13.000Z</time>
      </trkpt>
      <trkpt lat="42.8787492" lon="-5.686878">
        <ele>1064.22</ele>
        <time>2020-07-21T06:12:14.000Z</time>
      </trkpt>
      <trkpt lat="42.8787587" lon="-5.686865">
        <ele>1064.22</ele>
        <time>2020-07-21T06:12:15.000Z</time>
      </trkpt>
      <trkpt lat="42.878768" lon="-5.686849">
        <ele>1064.38</ele>
        <time>2020-07-21T06:12:16.000Z</time>
      </trkpt>
      <trkpt lat="42.8787788" lon="-5.6868315">
        <ele>1064.38</ele>
        <time>2020-07-21T06:12:17.000Z</time>
      </trkpt>
      <trkpt lat="42.8787885" lon="-5.686814">
        <ele>1064.68</ele>
        <time>2020-07-21T06:12:18.000Z</time>
      </trkpt>
      <trkpt lat="42.878798" lon="-5.6867968">
        <ele>1064.68</ele>
        <time>2020-07-21T06:12:19.000Z</time>
      </trkpt>
      <trkpt lat="42.8788055" lon="-5.6867808">
        <ele>1064.83</ele>
        <time>2020-07-21T06:12:20.000Z</time>
      </trkpt>
      <trkpt lat="42.878812" lon="-5.6867662">
        <ele>1064.83</ele>
        <time>2020-07-21T06:12:21.000Z</time>
      </trkpt>
      <trkpt lat="42.8788178" lon="-5.6867537">
        <ele>1065.14</ele>
        <time>2020-07-21T06:12:22.000Z</time>
      </trkpt>
      <trkpt lat="42.8788245" lon="-5.6867417">
        <ele>1065.14</ele>
        <time>2020-07-21T06:12:23.000Z</time>
      </trkpt>
      <trkpt lat="42.8788318" lon="-5.6867297">
        <ele>1065.29</ele>
        <time>2020-07-21T06:12:24.000Z</time>
      </trkpt>
      <trkpt lat="42.8788397" lon="-5.6867168">
        <ele>1065.29</ele>
        <time>2020-07-21T06:12:25.000Z</time>
      </trkpt>
      <trkpt lat="42.8788472" lon="-5.6867043">
        <ele>1065.59</ele>
        <time>2020-07-21T06:12:26.000Z</time>
      </trkpt>
      <trkpt lat="42.8788533" lon="-5.6866922">
        <ele>1065.59</ele>
        <time>2020-07-21T06:12:27.000Z</time>
      </trkpt>
      <trkpt lat="42.8788602" lon="-5.6866813">
        <ele>1065.9</ele>
        <time>2020-07-21T06:12:28.000Z</time>
      </trkpt>
      <trkpt lat="42.878868" lon="-5.6866708">
        <ele>1065.9</ele>
        <time>2020-07-21T06:12:29.000Z</time>
      </trkpt>
      <trkpt lat="42.8788778" lon="-5.6866607">
        <ele>1066.2</ele>
        <time>2020-07-21T06:12:30.000Z</time>
      </trkpt>
      <trkpt lat="42.8788875" lon="-5.6866503">
        <ele>1066.2</ele>
        <time>2020-07-21T06:12:31.000Z</time>
      </trkpt>
      <trkpt lat="42.8788968" lon="-5.6866397">
        <ele>1066.51</ele>
        <time>2020-07-21T06:12:32.000Z</time>
      </trkpt>
      <trkpt lat="42.8789068" lon="-5.6866293">
        <ele>1066.51</ele>
        <time>2020-07-21T06:12:33.000Z</time>
      </trkpt>
      <trkpt lat="42.8789167" lon="-5.6866207">
        <ele>1066.96</ele>
        <time>2020-07-21T06:12:34.000Z</time>
      </trkpt>
      <trkpt lat="42.8789285" lon="-5.6866148">
        <ele>1066.96</ele>
        <time>2020-07-21T06:12:35.000Z</time>
      </trkpt>
      <trkpt lat="42.8789417" lon="-5.68661">
        <ele>1067.27</ele>
        <time>2020-07-21T06:12:36.000Z</time>
      </trkpt>
      <trkpt lat="42.8789558" lon="-5.6866048">
        <ele>1067.27</ele>
        <time>2020-07-21T06:12:37.000Z</time>
      </trkpt>
      <trkpt lat="42.8789678" lon="-5.6865993">
        <ele>1067.57</ele>
        <time>2020-07-21T06:12:38.000Z</time>
      </trkpt>
      <trkpt lat="42.8789775" lon="-5.6865948">
        <ele>1067.57</ele>
        <time>2020-07-21T06:12:39.000Z</time>
      </trkpt>
      <trkpt lat="42.8789872" lon="-5.6865905">
        <ele>1068.03</ele>
        <time>2020-07-21T06:12:40.000Z</time>
      </trkpt>
      <trkpt lat="42.8789977" lon="-5.6865868">
        <ele>1068.03</ele>
        <time>2020-07-21T06:12:41.000Z</time>
      </trkpt>
      <trkpt lat="42.8790093" lon="-5.6865842">
        <ele>1068.49</ele>
        <time>2020-07-21T06:12:42.000Z</time>
      </trkpt>
      <trkpt lat="42.879021" lon="-5.6865828">
        <ele>1068.49</ele>
        <time>2020-07-21T06:12:43.000Z</time>
      </trkpt>
      <trkpt lat="42.8790323" lon="-5.6865808">
        <ele>1068.95</ele>
        <time>2020-07-21T06:12:44.000Z</time>
      </trkpt>
      <trkpt lat="42.8790452" lon="-5.6865793">
        <ele>1068.95</ele>
        <time>2020-07-21T06:12:45.000Z</time>
      </trkpt>
      <trkpt lat="42.8790588" lon="-5.686578">
        <ele>1069.4</ele>
        <time>2020-07-21T06:12:46.000Z</time>
      </trkpt>
      <trkpt lat="42.879074" lon="-5.6865777">
        <ele>1069.4</ele>
        <time>2020-07-21T06:12:47.000Z</time>
      </trkpt>
      <trkpt lat="42.8790883" lon="-5.686578">
        <ele>1069.86</ele>
        <time>2020-07-21T06:12:48.000Z</time>
      </trkpt>
      <trkpt lat="42.8791028" lon="-5.6865812">
        <ele>1069.86</ele>
        <time>2020-07-21T06:12:49.000Z</time>
      </trkpt>
      <trkpt lat="42.8791173" lon="-5.6865863">
        <ele>1070.17</ele>
        <time>2020-07-21T06:12:50.000Z</time>
      </trkpt>
      <trkpt lat="42.8791307" lon="-5.6865918">
        <ele>1070.17</ele>
        <time>2020-07-21T06:12:51.000Z</time>
      </trkpt>
      <trkpt lat="42.8791412" lon="-5.686595">
        <ele>1070.62</ele>
        <time>2020-07-21T06:12:52.000Z</time>
      </trkpt>
      <trkpt lat="42.8791505" lon="-5.6865975">
        <ele>1070.62</ele>
        <time>2020-07-21T06:12:53.000Z</time>
      </trkpt>
      <trkpt lat="42.8791605" lon="-5.6866005">
        <ele>1070.93</ele>
        <time>2020-07-21T06:12:54.000Z</time>
      </trkpt>
      <trkpt lat="42.879172" lon="-5.6866043">
        <ele>1070.93</ele>
        <time>2020-07-21T06:12:55.000Z</time>
      </trkpt>
      <trkpt lat="42.8791843" lon="-5.6866082">
        <ele>1071.23</ele>
        <time>2020-07-21T06:12:56.000Z</time>
      </trkpt>
      <trkpt lat="42.8791968" lon="-5.6866117">
        <ele>1071.23</ele>
        <time>2020-07-21T06:12:57.000Z</time>
      </trkpt>
      <trkpt lat="42.8792083" lon="-5.6866143">
        <ele>1071.69</ele>
        <time>2020-07-21T06:12:58.000Z</time>
      </trkpt>
      <trkpt lat="42.8792192" lon="-5.6866177">
        <ele>1071.69</ele>
        <time>2020-07-21T06:12:59.000Z</time>
      </trkpt>
      <trkpt lat="42.8792308" lon="-5.6866217">
        <ele>1071.99</ele>
        <time>2020-07-21T06:13:00.000Z</time>
      </trkpt>
      <trkpt lat="42.8792438" lon="-5.6866272">
        <ele>1071.99</ele>
        <time>2020-07-21T06:13:01.000Z</time>
      </trkpt>
      <trkpt lat="42.8792585" lon="-5.6866325">
        <ele>1072.45</ele>
        <time>2020-07-21T06:13:02.000Z</time>
      </trkpt>
      <trkpt lat="42.8792715" lon="-5.6866373">
        <ele>1072.45</ele>
        <time>2020-07-21T06:13:03.000Z</time>
      </trkpt>
      <trkpt lat="42.879284" lon="-5.686642">
        <ele>1072.91</ele>
        <time>2020-07-21T06:13:04.000Z</time>
      </trkpt>
      <trkpt lat="42.8792968" lon="-5.6866472">
        <ele>1072.91</ele>
        <time>2020-07-21T06:13:05.000Z</time>
      </trkpt>
      <trkpt lat="42.8793102" lon="-5.6866535">
        <ele>1073.21</ele>
        <time>2020-07-21T06:13:06.000Z</time>
      </trkpt>
      <trkpt lat="42.8793243" lon="-5.6866595">
        <ele>1073.21</ele>
        <time>2020-07-21T06:13:07.000Z</time>
      </trkpt>
      <trkpt lat="42.8793377" lon="-5.6866663">
        <ele>1073.67</ele>
        <time>2020-07-21T06:13:08.000Z</time>
      </trkpt>
      <trkpt lat="42.8793503" lon="-5.686673">
        <ele>1073.67</ele>
        <time>2020-07-21T06:13:09.000Z</time>
      </trkpt>
      <trkpt lat="42.8793613" lon="-5.6866802">
        <ele>1073.98</ele>
        <time>2020-07-21T06:13:10.000Z</time>
      </trkpt>
      <trkpt lat="42.8793715" lon="-5.6866878">
        <ele>1073.98</ele>
        <time>2020-07-21T06:13:11.000Z</time>
      </trkpt>
      <trkpt lat="42.8793797" lon="-5.6866935">
        <ele>1074.28</ele>
        <time>2020-07-21T06:13:12.000Z</time>
      </trkpt>
      <trkpt lat="42.879389" lon="-5.6867003">
        <ele>1074.28</ele>
        <time>2020-07-21T06:13:13.000Z</time>
      </trkpt>
      <trkpt lat="42.8793978" lon="-5.6867063">
        <ele>1074.58</ele>
        <time>2020-07-21T06:13:14.000Z</time>
      </trkpt>
      <trkpt lat="42.879408" lon="-5.6867148">
        <ele>1074.58</ele>
        <time>2020-07-21T06:13:15.000Z</time>
      </trkpt>
      <trkpt lat="42.8794188" lon="-5.6867237">
        <ele>1074.89</ele>
        <time>2020-07-21T06:13:16.000Z</time>
      </trkpt>
      <trkpt lat="42.879431" lon="-5.6867337">
        <ele>1074.89</ele>
        <time>2020-07-21T06:13:17.000Z</time>
      </trkpt>
      <trkpt lat="42.8794438" lon="-5.6867433">
        <ele>1075.04</ele>
        <time>2020-07-21T06:13:18.000Z</time>
      </trkpt>
      <trkpt lat="42.8794547" lon="-5.686754">
        <ele>1075.04</ele>
        <time>2020-07-21T06:13:19.000Z</time>
      </trkpt>
      <trkpt lat="42.8794643" lon="-5.6867648">
        <ele>1075.19</ele>
        <time>2020-07-21T06:13:20.000Z</time>
      </trkpt>
      <trkpt lat="42.8794732" lon="-5.6867777">
        <ele>1075.19</ele>
        <time>2020-07-21T06:13:21.000Z</time>
      </trkpt>
      <trkpt lat="42.8794823" lon="-5.6867907">
        <ele>1075.35</ele>
        <time>2020-07-21T06:13:22.000Z</time>
      </trkpt>
      <trkpt lat="42.879491" lon="-5.6868037">
        <ele>1075.35</ele>
        <time>2020-07-21T06:13:23.000Z</time>
      </trkpt>
      <trkpt lat="42.8794988" lon="-5.6868163">
        <ele>1075.35</ele>
        <time>2020-07-21T06:13:24.000Z</time>
      </trkpt>
      <trkpt lat="42.8795065" lon="-5.6868282">
        <ele>1075.35</ele>
        <time>2020-07-21T06:13:25.000Z</time>
      </trkpt>
      <trkpt lat="42.8795147" lon="-5.6868392">
        <ele>1075.35</ele>
        <time>2020-07-21T06:13:26.000Z</time>
      </trkpt>
      <trkpt lat="42.8795238" lon="-5.6868488">
        <ele>1075.35</ele>
        <time>2020-07-21T06:13:27.000Z</time>
      </trkpt>
      <trkpt lat="42.8795328" lon="-5.6868585">
        <ele>1075.35</ele>
        <time>2020-07-21T06:13:28.000Z</time>
      </trkpt>
      <trkpt lat="42.8795428" lon="-5.6868688">
        <ele>1075.35</ele>
        <time>2020-07-21T06:13:29.000Z</time>
      </trkpt>
      <trkpt lat="42.8795538" lon="-5.686879">
        <ele>1075.35</ele>
        <time>2020-07-21T06:13:30.000Z</time>
      </trkpt>
      <trkpt lat="42.8795663" lon="-5.6868885">
        <ele>1075.35</ele>
        <time>2020-07-21T06:13:31.000Z</time>
      </trkpt>
      <trkpt lat="42.879579" lon="-5.6868973">
        <ele>1075.19</ele>
        <time>2020-07-21T06:13:32.000Z</time>
      </trkpt>
      <trkpt lat="42.8795907" lon="-5.6869067">
        <ele>1075.19</ele>
        <time>2020-07-21T06:13:33.000Z</time>
      </trkpt>
      <trkpt lat="42.8796022" lon="-5.6869167">
        <ele>1075.19</ele>
        <time>2020-07-21T06:13:34.000Z</time>
      </trkpt>
      <trkpt lat="42.8796117" lon="-5.6869282">
        <ele>1075.19</ele>
        <time>2020-07-21T06:13:35.000Z</time>
      </trkpt>
      <trkpt lat="42.8796227" lon="-5.6869402">
        <ele>1075.04</ele>
        <time>2020-07-21T06:13:36.000Z</time>
      </trkpt>
      <trkpt lat="42.879633" lon="-5.686952">
        <ele>1075.04</ele>
        <time>2020-07-21T06:13:37.000Z</time>
      </trkpt>
      <trkpt lat="42.8796437" lon="-5.686964">
        <ele>1074.89</ele>
        <time>2020-07-21T06:13:38.000Z</time>
      </trkpt>
      <trkpt lat="42.879652" lon="-5.6869772">
        <ele>1074.89</ele>
        <time>2020-07-21T06:13:39.000Z</time>
      </trkpt>
      <trkpt lat="42.8796597" lon="-5.686992">
        <ele>1074.89</ele>
        <time>2020-07-21T06:13:40.000Z</time>
      </trkpt>
      <trkpt lat="42.879667" lon="-5.6870055">
        <ele>1074.89</ele>
        <time>2020-07-21T06:13:41.000Z</time>
      </trkpt>
      <trkpt lat="42.8796758" lon="-5.6870182">
        <ele>1074.74</ele>
        <time>2020-07-21T06:13:42.000Z</time>
      </trkpt>
      <trkpt lat="42.8796837" lon="-5.68703">
        <ele>1074.74</ele>
        <time>2020-07-21T06:13:43.000Z</time>
      </trkpt>
      <trkpt lat="42.8796907" lon="-5.6870433">
        <ele>1074.58</ele>
        <time>2020-07-21T06:13:44.000Z</time>
      </trkpt>
      <trkpt lat="42.8796957" lon="-5.6870582">
        <ele>1074.58</ele>
        <time>2020-07-21T06:13:45.000Z</time>
      </trkpt>
      <trkpt lat="42.8797015" lon="-5.6870728">
        <ele>1074.28</ele>
        <time>2020-07-21T06:13:46.000Z</time>
      </trkpt>
      <trkpt lat="42.8797073" lon="-5.687087">
        <ele>1074.28</ele>
        <time>2020-07-21T06:13:47.000Z</time>
      </trkpt>
      <trkpt lat="42.8797145" lon="-5.6871003">
        <ele>1074.13</ele>
        <time>2020-07-21T06:13:48.000Z</time>
      </trkpt>
      <trkpt lat="42.879721" lon="-5.6871152">
        <ele>1074.13</ele>
        <time>2020-07-21T06:13:49.000Z</time>
      </trkpt>
      <trkpt lat="42.879728" lon="-5.6871293">
        <ele>1073.98</ele>
        <time>2020-07-21T06:13:50.000Z</time>
      </trkpt>
      <trkpt lat="42.8797352" lon="-5.687144">
        <ele>1073.98</ele>
        <time>2020-07-21T06:13:51.000Z</time>
      </trkpt>
      <trkpt lat="42.8797423" lon="-5.6871588">
        <ele>1073.82</ele>
        <time>2020-07-21T06:13:52.000Z</time>
      </trkpt>
      <trkpt lat="42.8797495" lon="-5.6871757">
        <ele>1073.82</ele>
        <time>2020-07-21T06:13:53.000Z</time>
      </trkpt>
      <trkpt lat="42.8797553" lon="-5.6871937">
        <ele>1073.52</ele>
        <time>2020-07-21T06:13:54.000Z</time>
      </trkpt>
      <trkpt lat="42.8797612" lon="-5.6872115">
        <ele>1073.52</ele>
        <time>2020-07-21T06:13:55.000Z</time>
      </trkpt>
      <trkpt lat="42.8797653" lon="-5.6872305">
        <ele>1073.37</ele>
        <time>2020-07-21T06:13:56.000Z</time>
      </trkpt>
      <trkpt lat="42.8797692" lon="-5.6872502">
        <ele>1073.37</ele>
        <time>2020-07-21T06:13:57.000Z</time>
      </trkpt>
      <trkpt lat="42.8797727" lon="-5.6872688">
        <ele>1073.06</ele>
        <time>2020-07-21T06:13:58.000Z</time>
      </trkpt>
      <trkpt lat="42.8797765" lon="-5.6872868">
        <ele>1073.06</ele>
        <time>2020-07-21T06:13:59.000Z</time>
      </trkpt>
      <trkpt lat="42.8797807" lon="-5.6873033">
        <ele>1072.91</ele>
        <time>2020-07-21T06:14:00.000Z</time>
      </trkpt>
      <trkpt lat="42.879785" lon="-5.68732">
        <ele>1072.91</ele>
        <time>2020-07-21T06:14:01.000Z</time>
      </trkpt>
      <trkpt lat="42.8797888" lon="-5.6873373">
        <ele>1072.6</ele>
        <time>2020-07-21T06:14:02.000Z</time>
      </trkpt>
      <trkpt lat="42.8797943" lon="-5.687355">
        <ele>1072.6</ele>
        <time>2020-07-21T06:14:03.000Z</time>
      </trkpt>
      <trkpt lat="42.8797995" lon="-5.6873745">
        <ele>1072.45</ele>
        <time>2020-07-21T06:14:04.000Z</time>
      </trkpt>
      <trkpt lat="42.8798052" lon="-5.6873918">
        <ele>1072.45</ele>
        <time>2020-07-21T06:14:05.000Z</time>
      </trkpt>
      <trkpt lat="42.87981" lon="-5.6874103">
        <ele>1072.3</ele>
        <time>2020-07-21T06:14:06.000Z</time>
      </trkpt>
      <trkpt lat="42.8798155" lon="-5.6874272">
        <ele>1072.3</ele>
        <time>2020-07-21T06:14:07.000Z</time>
      </trkpt>
      <trkpt lat="42.8798223" lon="-5.6874438">
        <ele>1072.15</ele>
        <time>2020-07-21T06:14:08.000Z</time>
      </trkpt>
      <trkpt lat="42.8798293" lon="-5.6874593">
        <ele>1072.15</ele>
        <time>2020-07-21T06:14:09.000Z</time>
      </trkpt>
      <trkpt lat="42.8798347" lon="-5.6874733">
        <ele>1071.99</ele>
        <time>2020-07-21T06:14:10.000Z</time>
      </trkpt>
      <trkpt lat="42.8798337" lon="-5.687486">
        <ele>1071.99</ele>
        <time>2020-07-21T06:14:11.000Z</time>
      </trkpt>
      <trkpt lat="42.8798303" lon="-5.6874953">
        <ele>1071.84</ele>
        <time>2020-07-21T06:14:12.000Z</time>
      </trkpt>
      <trkpt lat="42.8798255" lon="-5.6875012">
        <ele>1071.84</ele>
        <time>2020-07-21T06:14:13.000Z</time>
      </trkpt>
      <trkpt lat="42.8798238" lon="-5.6875035">
        <ele>1071.69</ele>
        <time>2020-07-21T06:14:14.000Z</time>
      </trkpt>
      <trkpt lat="42.8798222" lon="-5.6875035">
        <ele>1071.69</ele>
        <time>2020-07-21T06:14:15.000Z</time>
      </trkpt>
      <trkpt lat="42.8798232" lon="-5.6875018">
        <ele>1071.54</ele>
        <time>2020-07-21T06:14:16.000Z</time>
      </trkpt>
      <trkpt lat="42.8798248" lon="-5.6874992">
        <ele>1071.54</ele>
        <time>2020-07-21T06:14:17.000Z</time>
      </trkpt>
      <trkpt lat="42.879827" lon="-5.6874962">
        <ele>1071.39</ele>
        <time>2020-07-21T06:14:18.000Z</time>
      </trkpt>
      <trkpt lat="42.8798282" lon="-5.6874937">
        <ele>1071.39</ele>
        <time>2020-07-21T06:14:19.000Z</time>
      </trkpt>
      <trkpt lat="42.8798293" lon="-5.6874908">
        <ele>1071.23</ele>
        <time>2020-07-21T06:14:20.000Z</time>
      </trkpt>
      <trkpt lat="42.8798307" lon="-5.6874877">
        <ele>1071.23</ele>
        <time>2020-07-21T06:14:21.000Z</time>
      </trkpt>
      <trkpt lat="42.8798328" lon="-5.6874842">
        <ele>1071.23</ele>
        <time>2020-07-21T06:14:22.000Z</time>
      </trkpt>
      <trkpt lat="42.8798345" lon="-5.6874827">
        <ele>1071.23</ele>
        <time>2020-07-21T06:14:23.000Z</time>
      </trkpt>
      <trkpt lat="42.8798353" lon="-5.6874828">
        <ele>1071.08</ele>
        <time>2020-07-21T06:14:24.000Z</time>
      </trkpt>
      <trkpt lat="42.8798347" lon="-5.6874837">
        <ele>1071.08</ele>
        <time>2020-07-21T06:14:25.000Z</time>
      </trkpt>
      <trkpt lat="42.8798335" lon="-5.6874875">
        <ele>1070.93</ele>
        <time>2020-07-21T06:14:26.000Z</time>
      </trkpt>
      <trkpt lat="42.8798343" lon="-5.6874955">
        <ele>1070.93</ele>
        <time>2020-07-21T06:14:27.000Z</time>
      </trkpt>
      <trkpt lat="42.8798373" lon="-5.6875077">
        <ele>1070.78</ele>
        <time>2020-07-21T06:14:28.000Z</time>
      </trkpt>
      <trkpt lat="42.8798403" lon="-5.6875213">
        <ele>1070.78</ele>
        <time>2020-07-21T06:14:29.000Z</time>
      </trkpt>
      <trkpt lat="42.8798423" lon="-5.687534">
        <ele>1070.62</ele>
        <time>2020-07-21T06:14:30.000Z</time>
      </trkpt>
      <trkpt lat="42.8798443" lon="-5.6875482">
        <ele>1070.62</ele>
        <time>2020-07-21T06:14:31.000Z</time>
      </trkpt>
      <trkpt lat="42.8798483" lon="-5.6875648">
        <ele>1070.62</ele>
        <time>2020-07-21T06:14:32.000Z</time>
      </trkpt>
      <trkpt lat="42.879853" lon="-5.687584">
        <ele>1070.62</ele>
        <time>2020-07-21T06:14:33.000Z</time>
      </trkpt>
      <trkpt lat="42.8798568" lon="-5.6876025">
        <ele>1070.47</ele>
        <time>2020-07-21T06:14:34.000Z</time>
      </trkpt>
      <trkpt lat="42.879861" lon="-5.6876193">
        <ele>1070.47</ele>
        <time>2020-07-21T06:14:35.000Z</time>
      </trkpt>
      <trkpt lat="42.879865" lon="-5.6876355">
        <ele>1070.47</ele>
        <time>2020-07-21T06:14:36.000Z</time>
      </trkpt>
      <trkpt lat="42.8798697" lon="-5.6876523">
        <ele>1070.47</ele>
        <time>2020-07-21T06:14:37.000Z</time>
      </trkpt>
      <trkpt lat="42.8798738" lon="-5.6876695">
        <ele>1070.47</ele>
        <time>2020-07-21T06:14:38.000Z</time>
      </trkpt>
      <trkpt lat="42.8798785" lon="-5.6876852">
        <ele>1070.47</ele>
        <time>2020-07-21T06:14:39.000Z</time>
      </trkpt>
      <trkpt lat="42.8798852" lon="-5.687701">
        <ele>1070.32</ele>
        <time>2020-07-21T06:14:40.000Z</time>
      </trkpt>
      <trkpt lat="42.8798928" lon="-5.6877145">
        <ele>1070.32</ele>
        <time>2020-07-21T06:14:41.000Z</time>
      </trkpt>
      <trkpt lat="42.8799017" lon="-5.6877305">
        <ele>1070.32</ele>
        <time>2020-07-21T06:14:42.000Z</time>
      </trkpt>
      <trkpt lat="42.8799092" lon="-5.687745">
        <ele>1070.32</ele>
        <time>2020-07-21T06:14:43.000Z</time>
      </trkpt>
      <trkpt lat="42.879918" lon="-5.6877603">
        <ele>1070.32</ele>
        <time>2020-07-21T06:14:44.000Z</time>
      </trkpt>
      <trkpt lat="42.8799272" lon="-5.6877727">
        <ele>1070.32</ele>
        <time>2020-07-21T06:14:45.000Z</time>
      </trkpt>
      <trkpt lat="42.8799368" lon="-5.6877843">
        <ele>1070.32</ele>
        <time>2020-07-21T06:14:46.000Z</time>
      </trkpt>
      <trkpt lat="42.8799463" lon="-5.6877942">
        <ele>1070.32</ele>
        <time>2020-07-21T06:14:47.000Z</time>
      </trkpt>
      <trkpt lat="42.8799557" lon="-5.6878038">
        <ele>1070.32</ele>
        <time>2020-07-21T06:14:48.000Z</time>
      </trkpt>
      <trkpt lat="42.879965" lon="-5.6878135">
        <ele>1070.32</ele>
        <time>2020-07-21T06:14:49.000Z</time>
      </trkpt>
      <trkpt lat="42.8799768" lon="-5.6878233">
        <ele>1070.47</ele>
        <time>2020-07-21T06:14:50.000Z</time>
      </trkpt>
      <trkpt lat="42.8799893" lon="-5.6878323">
        <ele>1070.47</ele>
        <time>2020-07-21T06:14:51.000Z</time>
      </trkpt>
      <trkpt lat="42.8800027" lon="-5.687841">
        <ele>1070.47</ele>
        <time>2020-07-21T06:14:52.000Z</time>
      </trkpt>
      <trkpt lat="42.8800148" lon="-5.6878498">
        <ele>1070.47</ele>
        <time>2020-07-21T06:14:53.000Z</time>
      </trkpt>
      <trkpt lat="42.8800273" lon="-5.6878575">
        <ele>1070.47</ele>
        <time>2020-07-21T06:14:54.000Z</time>
      </trkpt>
      <trkpt lat="42.8800417" lon="-5.6878633">
        <ele>1070.47</ele>
        <time>2020-07-21T06:14:55.000Z</time>
      </trkpt>
      <trkpt lat="42.8800555" lon="-5.6878682">
        <ele>1070.47</ele>
        <time>2020-07-21T06:14:56.000Z</time>
      </trkpt>
      <trkpt lat="42.8800688" lon="-5.6878732">
        <ele>1070.47</ele>
        <time>2020-07-21T06:14:57.000Z</time>
      </trkpt>
      <trkpt lat="42.8800818" lon="-5.6878792">
        <ele>1070.47</ele>
        <time>2020-07-21T06:14:58.000Z</time>
      </trkpt>
      <trkpt lat="42.880095" lon="-5.6878867">
        <ele>1070.47</ele>
        <time>2020-07-21T06:14:59.000Z</time>
      </trkpt>
      <trkpt lat="42.8801095" lon="-5.6878948">
        <ele>1070.47</ele>
        <time>2020-07-21T06:15:00.000Z</time>
      </trkpt>
      <trkpt lat="42.8801227" lon="-5.6879028">
        <ele>1070.47</ele>
        <time>2020-07-21T06:15:01.000Z</time>
      </trkpt>
      <trkpt lat="42.8801358" lon="-5.6879102">
        <ele>1070.47</ele>
        <time>2020-07-21T06:15:02.000Z</time>
      </trkpt>
      <trkpt lat="42.8801475" lon="-5.6879145">
        <ele>1070.47</ele>
        <time>2020-07-21T06:15:03.000Z</time>
      </trkpt>
      <trkpt lat="42.8801603" lon="-5.6879163">
        <ele>1070.62</ele>
        <time>2020-07-21T06:15:04.000Z</time>
      </trkpt>
      <trkpt lat="42.8801747" lon="-5.6879142">
        <ele>1070.62</ele>
        <time>2020-07-21T06:15:05.000Z</time>
      </trkpt>
      <trkpt lat="42.8801898" lon="-5.6879107">
        <ele>1070.62</ele>
        <time>2020-07-21T06:15:06.000Z</time>
      </trkpt>
      <trkpt lat="42.8802048" lon="-5.6879053">
        <ele>1070.62</ele>
        <time>2020-07-21T06:15:07.000Z</time>
      </trkpt>
      <trkpt lat="42.880218" lon="-5.687901">
        <ele>1070.62</ele>
        <time>2020-07-21T06:15:08.000Z</time>
      </trkpt>
      <trkpt lat="42.8802317" lon="-5.6878977">
        <ele>1070.62</ele>
        <time>2020-07-21T06:15:09.000Z</time>
      </trkpt>
      <trkpt lat="42.8802433" lon="-5.6878977">
        <ele>1070.78</ele>
        <time>2020-07-21T06:15:10.000Z</time>
      </trkpt>
      <trkpt lat="42.8802557" lon="-5.6878968">
        <ele>1070.78</ele>
        <time>2020-07-21T06:15:11.000Z</time>
      </trkpt>
      <trkpt lat="42.8802678" lon="-5.6878972">
        <ele>1070.78</ele>
        <time>2020-07-21T06:15:12.000Z</time>
      </trkpt>
      <trkpt lat="42.8802807" lon="-5.6878965">
        <ele>1070.78</ele>
        <time>2020-07-21T06:15:13.000Z</time>
      </trkpt>
      <trkpt lat="42.8802928" lon="-5.6878963">
        <ele>1070.78</ele>
        <time>2020-07-21T06:15:14.000Z</time>
      </trkpt>
      <trkpt lat="42.8803053" lon="-5.687896">
        <ele>1070.78</ele>
        <time>2020-07-21T06:15:15.000Z</time>
      </trkpt>
      <trkpt lat="42.8803185" lon="-5.6878947">
        <ele>1070.93</ele>
        <time>2020-07-21T06:15:16.000Z</time>
      </trkpt>
      <trkpt lat="42.880332" lon="-5.6878942">
        <ele>1070.93</ele>
        <time>2020-07-21T06:15:17.000Z</time>
      </trkpt>
      <trkpt lat="42.8803442" lon="-5.6878943">
        <ele>1070.93</ele>
        <time>2020-07-21T06:15:18.000Z</time>
      </trkpt>
      <trkpt lat="42.880357" lon="-5.6878953">
        <ele>1070.93</ele>
        <time>2020-07-21T06:15:19.000Z</time>
      </trkpt>
      <trkpt lat="42.8803755" lon="-5.6878965">
        <ele>1070.93</ele>
        <time>2020-07-21T06:15:20.000Z</time>
      </trkpt>
      <trkpt lat="42.880396" lon="-5.6878977">
        <ele>1070.93</ele>
        <time>2020-07-21T06:15:21.000Z</time>
      </trkpt>
      <trkpt lat="42.8804165" lon="-5.6878998">
        <ele>1071.08</ele>
        <time>2020-07-21T06:15:22.000Z</time>
      </trkpt>
      <trkpt lat="42.8804305" lon="-5.6879032">
        <ele>1071.08</ele>
        <time>2020-07-21T06:15:23.000Z</time>
      </trkpt>
      <trkpt lat="42.880445" lon="-5.687907">
        <ele>1071.08</ele>
        <time>2020-07-21T06:15:24.000Z</time>
      </trkpt>
      <trkpt lat="42.8804582" lon="-5.6879112">
        <ele>1071.08</ele>
        <time>2020-07-21T06:15:25.000Z</time>
      </trkpt>
      <trkpt lat="42.880472" lon="-5.6879148">
        <ele>1071.08</ele>
        <time>2020-07-21T06:15:26.000Z</time>
      </trkpt>
      <trkpt lat="42.8804833" lon="-5.687917">
        <ele>1071.08</ele>
        <time>2020-07-21T06:15:27.000Z</time>
      </trkpt>
      <trkpt lat="42.8804955" lon="-5.6879188">
        <ele>1071.08</ele>
        <time>2020-07-21T06:15:28.000Z</time>
      </trkpt>
      <trkpt lat="42.8805077" lon="-5.6879207">
        <ele>1071.08</ele>
        <time>2020-07-21T06:15:29.000Z</time>
      </trkpt>
      <trkpt lat="42.8805205" lon="-5.6879228">
        <ele>1071.23</ele>
        <time>2020-07-21T06:15:30.000Z</time>
      </trkpt>
      <trkpt lat="42.8805327" lon="-5.6879237">
        <ele>1071.23</ele>
        <time>2020-07-21T06:15:31.000Z</time>
      </trkpt>
      <trkpt lat="42.880544" lon="-5.6879237">
        <ele>1071.23</ele>
        <time>2020-07-21T06:15:32.000Z</time>
      </trkpt>
      <trkpt lat="42.8805548" lon="-5.6879225">
        <ele>1071.23</ele>
        <time>2020-07-21T06:15:33.000Z</time>
      </trkpt>
      <trkpt lat="42.8805652" lon="-5.6879208">
        <ele>1071.23</ele>
        <time>2020-07-21T06:15:34.000Z</time>
      </trkpt>
      <trkpt lat="42.880576" lon="-5.6879185">
        <ele>1071.23</ele>
        <time>2020-07-21T06:15:35.000Z</time>
      </trkpt>
      <trkpt lat="42.8805873" lon="-5.6879165">
        <ele>1071.39</ele>
        <time>2020-07-21T06:15:36.000Z</time>
      </trkpt>
      <trkpt lat="42.8805988" lon="-5.6879145">
        <ele>1071.39</ele>
        <time>2020-07-21T06:15:37.000Z</time>
      </trkpt>
      <trkpt lat="42.8806107" lon="-5.6879117">
        <ele>1071.39</ele>
        <time>2020-07-21T06:15:38.000Z</time>
      </trkpt>
      <trkpt lat="42.8806227" lon="-5.6879088">
        <ele>1071.39</ele>
        <time>2020-07-21T06:15:39.000Z</time>
      </trkpt>
      <trkpt lat="42.8806352" lon="-5.6879062">
        <ele>1071.39</ele>
        <time>2020-07-21T06:15:40.000Z</time>
      </trkpt>
      <trkpt lat="42.880647" lon="-5.6879037">
        <ele>1071.39</ele>
        <time>2020-07-21T06:15:41.000Z</time>
      </trkpt>
      <trkpt lat="42.8806578" lon="-5.687901">
        <ele>1071.39</ele>
        <time>2020-07-21T06:15:42.000Z</time>
      </trkpt>
      <trkpt lat="42.8806687" lon="-5.6878977">
        <ele>1071.39</ele>
        <time>2020-07-21T06:15:43.000Z</time>
      </trkpt>
      <trkpt lat="42.8806802" lon="-5.6878955">
        <ele>1071.39</ele>
        <time>2020-07-21T06:15:44.000Z</time>
      </trkpt>
      <trkpt lat="42.8806917" lon="-5.6878925">
        <ele>1071.39</ele>
        <time>2020-07-21T06:15:45.000Z</time>
      </trkpt>
      <trkpt lat="42.8807027" lon="-5.6878895">
        <ele>1071.39</ele>
        <time>2020-07-21T06:15:46.000Z</time>
      </trkpt>
      <trkpt lat="42.8807133" lon="-5.6878848">
        <ele>1071.39</ele>
        <time>2020-07-21T06:15:47.000Z</time>
      </trkpt>
      <trkpt lat="42.8807243" lon="-5.68788">
        <ele>1071.54</ele>
        <time>2020-07-21T06:15:48.000Z</time>
      </trkpt>
      <trkpt lat="42.8807355" lon="-5.6878748">
        <ele>1071.54</ele>
        <time>2020-07-21T06:15:49.000Z</time>
      </trkpt>
      <trkpt lat="42.8807472" lon="-5.6878707">
        <ele>1071.54</ele>
        <time>2020-07-21T06:15:50.000Z</time>
      </trkpt>
      <trkpt lat="42.8807583" lon="-5.6878662">
        <ele>1071.54</ele>
        <time>2020-07-21T06:15:51.000Z</time>
      </trkpt>
      <trkpt lat="42.8807697" lon="-5.6878613">
        <ele>1071.69</ele>
        <time>2020-07-21T06:15:52.000Z</time>
      </trkpt>
      <trkpt lat="42.8807805" lon="-5.6878558">
        <ele>1071.69</ele>
        <time>2020-07-21T06:15:53.000Z</time>
      </trkpt>
      <trkpt lat="42.8807925" lon="-5.6878505">
        <ele>1071.69</ele>
        <time>2020-07-21T06:15:54.000Z</time>
      </trkpt>
      <trkpt lat="42.8808043" lon="-5.6878452">
        <ele>1071.69</ele>
        <time>2020-07-21T06:15:55.000Z</time>
      </trkpt>
      <trkpt lat="42.8808158" lon="-5.687839">
        <ele>1071.84</ele>
        <time>2020-07-21T06:15:56.000Z</time>
      </trkpt>
      <trkpt lat="42.8808262" lon="-5.6878327">
        <ele>1071.84</ele>
        <time>2020-07-21T06:15:57.000Z</time>
      </trkpt>
      <trkpt lat="42.8808353" lon="-5.6878262">
        <ele>1071.84</ele>
        <time>2020-07-21T06:15:58.000Z</time>
      </trkpt>
      <trkpt lat="42.8808448" lon="-5.687819">
        <ele>1071.84</ele>
        <time>2020-07-21T06:15:59.000Z</time>
      </trkpt>
      <trkpt lat="42.8808545" lon="-5.6878115">
        <ele>1071.99</ele>
        <time>2020-07-21T06:16:00.000Z</time>
      </trkpt>
      <trkpt lat="42.8808652" lon="-5.687804">
        <ele>1071.99</ele>
        <time>2020-07-21T06:16:01.000Z</time>
      </trkpt>
      <trkpt lat="42.880876" lon="-5.6877952">
        <ele>1072.15</ele>
        <time>2020-07-21T06:16:02.000Z</time>
      </trkpt>
      <trkpt lat="42.8808882" lon="-5.6877853">
        <ele>1072.15</ele>
        <time>2020-07-21T06:16:03.000Z</time>
      </trkpt>
      <trkpt lat="42.8809007" lon="-5.6877752">
        <ele>1072.3</ele>
        <time>2020-07-21T06:16:04.000Z</time>
      </trkpt>
      <trkpt lat="42.8809135" lon="-5.6877665">
        <ele>1072.3</ele>
        <time>2020-07-21T06:16:05.000Z</time>
      </trkpt>
      <trkpt lat="42.8809247" lon="-5.687758">
        <ele>1072.45</ele>
        <time>2020-07-21T06:16:06.000Z</time>
      </trkpt>
      <trkpt lat="42.880935" lon="-5.6877495">
        <ele>1072.45</ele>
        <time>2020-07-21T06:16:07.000Z</time>
      </trkpt>
      <trkpt lat="42.8809443" lon="-5.6877407">
        <ele>1072.45</ele>
        <time>2020-07-21T06:16:08.000Z</time>
      </trkpt>
      <trkpt lat="42.880954" lon="-5.6877327">
        <ele>1072.45</ele>
        <time>2020-07-21T06:16:09.000Z</time>
      </trkpt>
      <trkpt lat="42.8809643" lon="-5.6877245">
        <ele>1072.6</ele>
        <time>2020-07-21T06:16:10.000Z</time>
      </trkpt>
      <trkpt lat="42.8809752" lon="-5.6877168">
        <ele>1072.6</ele>
        <time>2020-07-21T06:16:11.000Z</time>
      </trkpt>
      <trkpt lat="42.8809865" lon="-5.6877092">
        <ele>1072.76</ele>
        <time>2020-07-21T06:16:12.000Z</time>
      </trkpt>
      <trkpt lat="42.8809973" lon="-5.6877017">
        <ele>1072.76</ele>
        <time>2020-07-21T06:16:13.000Z</time>
      </trkpt>
      <trkpt lat="42.8810082" lon="-5.6876942">
        <ele>1072.91</ele>
        <time>2020-07-21T06:16:14.000Z</time>
      </trkpt>
      <trkpt lat="42.8810192" lon="-5.687687">
        <ele>1072.91</ele>
        <time>2020-07-21T06:16:15.000Z</time>
      </trkpt>
      <trkpt lat="42.8810298" lon="-5.6876807">
        <ele>1072.91</ele>
        <time>2020-07-21T06:16:16.000Z</time>
      </trkpt>
      <trkpt lat="42.8810405" lon="-5.6876743">
        <ele>1072.91</ele>
        <time>2020-07-21T06:16:17.000Z</time>
      </trkpt>
      <trkpt lat="42.8810505" lon="-5.6876675">
        <ele>1073.06</ele>
        <time>2020-07-21T06:16:18.000Z</time>
      </trkpt>
      <trkpt lat="42.8810603" lon="-5.6876605">
        <ele>1073.06</ele>
        <time>2020-07-21T06:16:19.000Z</time>
      </trkpt>
      <trkpt lat="42.881069" lon="-5.6876522">
        <ele>1073.06</ele>
        <time>2020-07-21T06:16:20.000Z</time>
      </trkpt>
      <trkpt lat="42.8810757" lon="-5.6876423">
        <ele>1073.06</ele>
        <time>2020-07-21T06:16:21.000Z</time>
      </trkpt>
      <trkpt lat="42.881077" lon="-5.6876285">
        <ele>1073.06</ele>
        <time>2020-07-21T06:16:22.000Z</time>
      </trkpt>
      <trkpt lat="42.8810748" lon="-5.6876135">
        <ele>1073.06</ele>
        <time>2020-07-21T06:16:23.000Z</time>
      </trkpt>
      <trkpt lat="42.8810707" lon="-5.6875995">
        <ele>1073.06</ele>
        <time>2020-07-21T06:16:24.000Z</time>
      </trkpt>
      <trkpt lat="42.8810687" lon="-5.6875885">
        <ele>1073.06</ele>
        <time>2020-07-21T06:16:25.000Z</time>
      </trkpt>
      <trkpt lat="42.8810675" lon="-5.6875798">
        <ele>1073.06</ele>
        <time>2020-07-21T06:16:26.000Z</time>
      </trkpt>
      <trkpt lat="42.8810665" lon="-5.6875737">
        <ele>1073.06</ele>
        <time>2020-07-21T06:16:27.000Z</time>
      </trkpt>
      <trkpt lat="42.8810665" lon="-5.68757">
        <ele>1073.21</ele>
        <time>2020-07-21T06:16:28.000Z</time>
      </trkpt>
      <trkpt lat="42.8810662" lon="-5.6875672">
        <ele>1073.21</ele>
        <time>2020-07-21T06:16:29.000Z</time>
      </trkpt>
      <trkpt lat="42.8810662" lon="-5.6875628">
        <ele>1073.21</ele>
        <time>2020-07-21T06:16:30.000Z</time>
      </trkpt>
      <trkpt lat="42.8810647" lon="-5.6875585">
        <ele>1073.21</ele>
        <time>2020-07-21T06:16:31.000Z</time>
      </trkpt>
      <trkpt lat="42.8810643" lon="-5.6875555">
        <ele>1073.21</ele>
        <time>2020-07-21T06:16:32.000Z</time>
      </trkpt>
      <trkpt lat="42.8810642" lon="-5.6875532">
        <ele>1073.21</ele>
        <time>2020-07-21T06:16:33.000Z</time>
      </trkpt>
      <trkpt lat="42.881065" lon="-5.6875503">
        <ele>1073.37</ele>
        <time>2020-07-21T06:16:34.000Z</time>
      </trkpt>
      <trkpt lat="42.881063" lon="-5.6875392">
        <ele>1073.37</ele>
        <time>2020-07-21T06:16:35.000Z</time>
      </trkpt>
      <trkpt lat="42.8810608" lon="-5.6875263">
        <ele>1073.37</ele>
        <time>2020-07-21T06:16:36.000Z</time>
      </trkpt>
      <trkpt lat="42.8810608" lon="-5.6875147">
        <ele>1073.37</ele>
        <time>2020-07-21T06:16:37.000Z</time>
      </trkpt>
      <trkpt lat="42.8810725" lon="-5.6875115">
        <ele>1073.52</ele>
        <time>2020-07-21T06:16:38.000Z</time>
      </trkpt>
      <trkpt lat="42.8810933" lon="-5.6875125">
        <ele>1073.52</ele>
        <time>2020-07-21T06:16:39.000Z</time>
      </trkpt>
      <trkpt lat="42.8811122" lon="-5.687522">
        <ele>1073.52</ele>
        <time>2020-07-21T06:16:40.000Z</time>
      </trkpt>
      <trkpt lat="42.8811238" lon="-5.6875348">
        <ele>1073.52</ele>
        <time>2020-07-21T06:16:41.000Z</time>
      </trkpt>
      <trkpt lat="42.88113" lon="-5.6875502">
        <ele>1073.67</ele>
        <time>2020-07-21T06:16:42.000Z</time>
      </trkpt>
      <trkpt lat="42.8811388" lon="-5.68756">
        <ele>1073.67</ele>
        <time>2020-07-21T06:16:43.000Z</time>
      </trkpt>
      <trkpt lat="42.8811473" lon="-5.687573">
        <ele>1073.82</ele>
        <time>2020-07-21T06:16:44.000Z</time>
      </trkpt>
      <trkpt lat="42.8811557" lon="-5.6875848">
        <ele>1073.82</ele>
        <time>2020-07-21T06:16:45.000Z</time>
      </trkpt>
      <trkpt lat="42.8811638" lon="-5.6875957">
        <ele>1073.82</ele>
        <time>2020-07-21T06:16:46.000Z</time>
      </trkpt>
      <trkpt lat="42.8811735" lon="-5.6876008">
        <ele>1073.82</ele>
        <time>2020-07-21T06:16:47.000Z</time>
      </trkpt>
      <trkpt lat="42.881179" lon="-5.6876018">
        <ele>1073.98</ele>
        <time>2020-07-21T06:16:48.000Z</time>
      </trkpt>
      <trkpt lat="42.8811792" lon="-5.6876013">
        <ele>1073.98</ele>
        <time>2020-07-21T06:16:49.000Z</time>
      </trkpt>
      <trkpt lat="42.881175" lon="-5.6876002">
        <ele>1074.13</ele>
        <time>2020-07-21T06:16:50.000Z</time>
      </trkpt>
      <trkpt lat="42.8811713" lon="-5.6875983">
        <ele>1074.13</ele>
        <time>2020-07-21T06:16:51.000Z</time>
      </trkpt>
      <trkpt lat="42.8811712" lon="-5.6875947">
        <ele>1074.28</ele>
        <time>2020-07-21T06:16:52.000Z</time>
      </trkpt>
      <trkpt lat="42.8811722" lon="-5.6875918">
        <ele>1074.28</ele>
        <time>2020-07-21T06:16:53.000Z</time>
      </trkpt>
      <trkpt lat="42.8811727" lon="-5.6875918">
        <ele>1074.28</ele>
        <time>2020-07-21T06:16:54.000Z</time>
      </trkpt>
      <trkpt lat="42.8811718" lon="-5.6875928">
        <ele>1074.28</ele>
        <time>2020-07-21T06:16:55.000Z</time>
      </trkpt>
      <trkpt lat="42.881171" lon="-5.6875933">
        <ele>1074.43</ele>
        <time>2020-07-21T06:16:56.000Z</time>
      </trkpt>
      <trkpt lat="42.8811703" lon="-5.6875928">
        <ele>1074.43</ele>
        <time>2020-07-21T06:16:57.000Z</time>
      </trkpt>
      <trkpt lat="42.8811695" lon="-5.6875923">
        <ele>1074.58</ele>
        <time>2020-07-21T06:16:58.000Z</time>
      </trkpt>
      <trkpt lat="42.8811687" lon="-5.6875918">
        <ele>1074.58</ele>
        <time>2020-07-21T06:16:59.000Z</time>
      </trkpt>
      <trkpt lat="42.8811677" lon="-5.6875917">
        <ele>1074.58</ele>
        <time>2020-07-21T06:17:00.000Z</time>
      </trkpt>
      <trkpt lat="42.8811668" lon="-5.6875915">
        <ele>1074.58</ele>
        <time>2020-07-21T06:17:01.000Z</time>
      </trkpt>
      <trkpt lat="42.8811662" lon="-5.6875913">
        <ele>1074.74</ele>
        <time>2020-07-21T06:17:02.000Z</time>
      </trkpt>
      <trkpt lat="42.8811653" lon="-5.6875908">
        <ele>1074.74</ele>
        <time>2020-07-21T06:17:03.000Z</time>
      </trkpt>
      <trkpt lat="42.8811645" lon="-5.6875905">
        <ele>1074.74</ele>
        <time>2020-07-21T06:17:04.000Z</time>
      </trkpt>
      <trkpt lat="42.8811638" lon="-5.68759">
        <ele>1074.74</ele>
        <time>2020-07-21T06:17:05.000Z</time>
      </trkpt>
      <trkpt lat="42.8811635" lon="-5.6875897">
        <ele>1074.89</ele>
        <time>2020-07-21T06:17:06.000Z</time>
      </trkpt>
      <trkpt lat="42.8811633" lon="-5.687589">
        <ele>1074.89</ele>
        <time>2020-07-21T06:17:07.000Z</time>
      </trkpt>
      <trkpt lat="42.8811635" lon="-5.6875882">
        <ele>1074.89</ele>
        <time>2020-07-21T06:17:08.000Z</time>
      </trkpt>
      <trkpt lat="42.8811645" lon="-5.6875862">
        <ele>1074.89</ele>
        <time>2020-07-21T06:17:09.000Z</time>
      </trkpt>
      <trkpt lat="42.8811652" lon="-5.6875835">
        <ele>1075.04</ele>
        <time>2020-07-21T06:17:10.000Z</time>
      </trkpt>
      <trkpt lat="42.8811688" lon="-5.6875782">
        <ele>1075.04</ele>
        <time>2020-07-21T06:17:11.000Z</time>
      </trkpt>
      <trkpt lat="42.8811765" lon="-5.6875713">
        <ele>1075.04</ele>
        <time>2020-07-21T06:17:12.000Z</time>
      </trkpt>
      <trkpt lat="42.8811865" lon="-5.6875648">
        <ele>1075.04</ele>
        <time>2020-07-21T06:17:13.000Z</time>
      </trkpt>
      <trkpt lat="42.881197" lon="-5.687559">
        <ele>1075.19</ele>
        <time>2020-07-21T06:17:14.000Z</time>
      </trkpt>
      <trkpt lat="42.8812065" lon="-5.6875528">
        <ele>1075.19</ele>
        <time>2020-07-21T06:17:15.000Z</time>
      </trkpt>
      <trkpt lat="42.8812175" lon="-5.6875467">
        <ele>1075.35</ele>
        <time>2020-07-21T06:17:16.000Z</time>
      </trkpt>
      <trkpt lat="42.881228" lon="-5.687541">
        <ele>1075.35</ele>
        <time>2020-07-21T06:17:17.000Z</time>
      </trkpt>
      <trkpt lat="42.881238" lon="-5.6875378">
        <ele>1075.35</ele>
        <time>2020-07-21T06:17:18.000Z</time>
      </trkpt>
      <trkpt lat="42.8812473" lon="-5.6875337">
        <ele>1075.35</ele>
        <time>2020-07-21T06:17:19.000Z</time>
      </trkpt>
      <trkpt lat="42.8812562" lon="-5.6875297">
        <ele>1075.5</ele>
        <time>2020-07-21T06:17:20.000Z</time>
      </trkpt>
      <trkpt lat="42.8812653" lon="-5.6875248">
        <ele>1075.5</ele>
        <time>2020-07-21T06:17:21.000Z</time>
      </trkpt>
      <trkpt lat="42.8812757" lon="-5.6875202">
        <ele>1075.65</ele>
        <time>2020-07-21T06:17:22.000Z</time>
      </trkpt>
      <trkpt lat="42.8812877" lon="-5.6875148">
        <ele>1075.65</ele>
        <time>2020-07-21T06:17:23.000Z</time>
      </trkpt>
      <trkpt lat="42.8812997" lon="-5.6875102">
        <ele>1075.81</ele>
        <time>2020-07-21T06:17:24.000Z</time>
      </trkpt>
      <trkpt lat="42.8813118" lon="-5.6875063">
        <ele>1075.81</ele>
        <time>2020-07-21T06:17:25.000Z</time>
      </trkpt>
      <trkpt lat="42.8813245" lon="-5.6875053">
        <ele>1075.96</ele>
        <time>2020-07-21T06:17:26.000Z</time>
      </trkpt>
      <trkpt lat="42.8813377" lon="-5.6875043">
        <ele>1075.96</ele>
        <time>2020-07-21T06:17:27.000Z</time>
      </trkpt>
      <trkpt lat="42.8813507" lon="-5.6875032">
        <ele>1076.11</ele>
        <time>2020-07-21T06:17:28.000Z</time>
      </trkpt>
      <trkpt lat="42.881362" lon="-5.6875008">
        <ele>1076.11</ele>
        <time>2020-07-21T06:17:29.000Z</time>
      </trkpt>
      <trkpt lat="42.8813737" lon="-5.6874987">
        <ele>1076.26</ele>
        <time>2020-07-21T06:17:30.000Z</time>
      </trkpt>
      <trkpt lat="42.881385" lon="-5.6874968">
        <ele>1076.26</ele>
        <time>2020-07-21T06:17:31.000Z</time>
      </trkpt>
      <trkpt lat="42.8813978" lon="-5.6874957">
        <ele>1076.41</ele>
        <time>2020-07-21T06:17:32.000Z</time>
      </trkpt>
      <trkpt lat="42.8814108" lon="-5.6874955">
        <ele>1076.41</ele>
        <time>2020-07-21T06:17:33.000Z</time>
      </trkpt>
      <trkpt lat="42.8814263" lon="-5.687496">
        <ele>1076.72</ele>
        <time>2020-07-21T06:17:34.000Z</time>
      </trkpt>
      <trkpt lat="42.881442" lon="-5.6874975">
        <ele>1076.72</ele>
        <time>2020-07-21T06:17:35.000Z</time>
      </trkpt>
      <trkpt lat="42.881457" lon="-5.687499">
        <ele>1076.87</ele>
        <time>2020-07-21T06:17:36.000Z</time>
      </trkpt>
      <trkpt lat="42.8814707" lon="-5.6875">
        <ele>1076.87</ele>
        <time>2020-07-21T06:17:37.000Z</time>
      </trkpt>
      <trkpt lat="42.8814832" lon="-5.6875002">
        <ele>1077.02</ele>
        <time>2020-07-21T06:17:38.000Z</time>
      </trkpt>
      <trkpt lat="42.8814962" lon="-5.6875005">
        <ele>1077.02</ele>
        <time>2020-07-21T06:17:39.000Z</time>
      </trkpt>
      <trkpt lat="42.8815088" lon="-5.6875017">
        <ele>1077.33</ele>
        <time>2020-07-21T06:17:40.000Z</time>
      </trkpt>
      <trkpt lat="42.8815208" lon="-5.6875028">
        <ele>1077.33</ele>
        <time>2020-07-21T06:17:41.000Z</time>
      </trkpt>
      <trkpt lat="42.8815308" lon="-5.6875035">
        <ele>1077.48</ele>
        <time>2020-07-21T06:17:42.000Z</time>
      </trkpt>
      <trkpt lat="42.8815378" lon="-5.6875027">
        <ele>1077.48</ele>
        <time>2020-07-21T06:17:43.000Z</time>
      </trkpt>
      <trkpt lat="42.881539" lon="-5.6875003">
        <ele>1077.79</ele>
        <time>2020-07-21T06:17:44.000Z</time>
      </trkpt>
      <trkpt lat="42.8815398" lon="-5.687499">
        <ele>1077.79</ele>
        <time>2020-07-21T06:17:45.000Z</time>
      </trkpt>
      <trkpt lat="42.8815397" lon="-5.6874982">
        <ele>1077.94</ele>
        <time>2020-07-21T06:17:46.000Z</time>
      </trkpt>
      <trkpt lat="42.8815437" lon="-5.6874982">
        <ele>1077.94</ele>
        <time>2020-07-21T06:17:47.000Z</time>
      </trkpt>
      <trkpt lat="42.8815475" lon="-5.6874975">
        <ele>1078.24</ele>
        <time>2020-07-21T06:17:48.000Z</time>
      </trkpt>
      <trkpt lat="42.881553" lon="-5.6874983">
        <ele>1078.24</ele>
        <time>2020-07-21T06:17:49.000Z</time>
      </trkpt>
      <trkpt lat="42.8815592" lon="-5.687501">
        <ele>1078.55</ele>
        <time>2020-07-21T06:17:50.000Z</time>
      </trkpt>
      <trkpt lat="42.8815658" lon="-5.6875038">
        <ele>1078.55</ele>
        <time>2020-07-21T06:17:51.000Z</time>
      </trkpt>
      <trkpt lat="42.8815755" lon="-5.687507">
        <ele>1078.85</ele>
        <time>2020-07-21T06:17:52.000Z</time>
      </trkpt>
      <trkpt lat="42.8815878" lon="-5.6875085">
        <ele>1078.85</ele>
        <time>2020-07-21T06:17:53.000Z</time>
      </trkpt>
      <trkpt lat="42.8816015" lon="-5.6875102">
        <ele>1079.16</ele>
        <time>2020-07-21T06:17:54.000Z</time>
      </trkpt>
      <trkpt lat="42.8816152" lon="-5.687511">
        <ele>1079.16</ele>
        <time>2020-07-21T06:17:55.000Z</time>
      </trkpt>
      <trkpt lat="42.8816277" lon="-5.687513">
        <ele>1079.46</ele>
        <time>2020-07-21T06:17:56.000Z</time>
      </trkpt>
      <trkpt lat="42.8816397" lon="-5.6875142">
        <ele>1079.46</ele>
        <time>2020-07-21T06:17:57.000Z</time>
      </trkpt>
      <trkpt lat="42.8816515" lon="-5.6875143">
        <ele>1079.77</ele>
        <time>2020-07-21T06:17:58.000Z</time>
      </trkpt>
      <trkpt lat="42.881665" lon="-5.6875132">
        <ele>1079.77</ele>
        <time>2020-07-21T06:17:59.000Z</time>
      </trkpt>
      <trkpt lat="42.881665" lon="-5.6875132">
        <ele>1080.07</ele>
        <time>2020-07-21T06:18:00.000Z</time>
      </trkpt>
      <trkpt lat="42.8816833" lon="-5.687512">
        <ele>1080.07</ele>
        <time>2020-07-21T06:18:01.000Z</time>
      </trkpt>
      <trkpt lat="42.8817017" lon="-5.6875115">
        <ele>1080.38</ele>
        <time>2020-07-21T06:18:02.000Z</time>
      </trkpt>
      <trkpt lat="42.881719" lon="-5.6875128">
        <ele>1080.38</ele>
        <time>2020-07-21T06:18:03.000Z</time>
      </trkpt>
      <trkpt lat="42.8817323" lon="-5.6875152">
        <ele>1080.83</ele>
        <time>2020-07-21T06:18:04.000Z</time>
      </trkpt>
      <trkpt lat="42.8817445" lon="-5.6875185">
        <ele>1080.83</ele>
        <time>2020-07-21T06:18:05.000Z</time>
      </trkpt>
      <trkpt lat="42.8817555" lon="-5.6875213">
        <ele>1081.14</ele>
        <time>2020-07-21T06:18:06.000Z</time>
      </trkpt>
      <trkpt lat="42.8817665" lon="-5.687523">
        <ele>1081.14</ele>
        <time>2020-07-21T06:18:07.000Z</time>
      </trkpt>
      <trkpt lat="42.8817783" lon="-5.6875242">
        <ele>1081.44</ele>
        <time>2020-07-21T06:18:08.000Z</time>
      </trkpt>
      <trkpt lat="42.8817913" lon="-5.6875253">
        <ele>1081.44</ele>
        <time>2020-07-21T06:18:09.000Z</time>
      </trkpt>
      <trkpt lat="42.8818038" lon="-5.687527">
        <ele>1081.75</ele>
        <time>2020-07-21T06:18:10.000Z</time>
      </trkpt>
      <trkpt lat="42.8818157" lon="-5.6875278">
        <ele>1081.75</ele>
        <time>2020-07-21T06:18:11.000Z</time>
      </trkpt>
      <trkpt lat="42.8818273" lon="-5.6875282">
        <ele>1082.05</ele>
        <time>2020-07-21T06:18:12.000Z</time>
      </trkpt>
      <trkpt lat="42.8818382" lon="-5.6875263">
        <ele>1082.05</ele>
        <time>2020-07-21T06:18:13.000Z</time>
      </trkpt>
      <trkpt lat="42.8818495" lon="-5.687523">
        <ele>1082.21</ele>
        <time>2020-07-21T06:18:14.000Z</time>
      </trkpt>
      <trkpt lat="42.8818612" lon="-5.6875197">
        <ele>1082.21</ele>
        <time>2020-07-21T06:18:15.000Z</time>
      </trkpt>
      <trkpt lat="42.8818745" lon="-5.6875177">
        <ele>1082.36</ele>
        <time>2020-07-21T06:18:16.000Z</time>
      </trkpt>
      <trkpt lat="42.8818885" lon="-5.6875187">
        <ele>1082.36</ele>
        <time>2020-07-21T06:18:17.000Z</time>
      </trkpt>
      <trkpt lat="42.8819" lon="-5.6875212">
        <ele>1082.51</ele>
        <time>2020-07-21T06:18:18.000Z</time>
      </trkpt>
      <trkpt lat="42.8819092" lon="-5.687523">
        <ele>1082.51</ele>
        <time>2020-07-21T06:18:19.000Z</time>
      </trkpt>
      <trkpt lat="42.8819163" lon="-5.6875243">
        <ele>1082.66</ele>
        <time>2020-07-21T06:18:20.000Z</time>
      </trkpt>
      <trkpt lat="42.8819238" lon="-5.6875235">
        <ele>1082.66</ele>
        <time>2020-07-21T06:18:21.000Z</time>
      </trkpt>
      <trkpt lat="42.8819328" lon="-5.6875242">
        <ele>1082.66</ele>
        <time>2020-07-21T06:18:22.000Z</time>
      </trkpt>
      <trkpt lat="42.8819415" lon="-5.6875237">
        <ele>1082.66</ele>
        <time>2020-07-21T06:18:23.000Z</time>
      </trkpt>
      <trkpt lat="42.8819503" lon="-5.6875247">
        <ele>1082.66</ele>
        <time>2020-07-21T06:18:24.000Z</time>
      </trkpt>
      <trkpt lat="42.8819582" lon="-5.6875243">
        <ele>1082.66</ele>
        <time>2020-07-21T06:18:25.000Z</time>
      </trkpt>
      <trkpt lat="42.8819667" lon="-5.687525">
        <ele>1082.81</ele>
        <time>2020-07-21T06:18:26.000Z</time>
      </trkpt>
      <trkpt lat="42.8819745" lon="-5.6875242">
        <ele>1082.81</ele>
        <time>2020-07-21T06:18:27.000Z</time>
      </trkpt>
      <trkpt lat="42.8819823" lon="-5.6875235">
        <ele>1082.81</ele>
        <time>2020-07-21T06:18:28.000Z</time>
      </trkpt>
      <trkpt lat="42.8819895" lon="-5.687522">
        <ele>1082.81</ele>
        <time>2020-07-21T06:18:29.000Z</time>
      </trkpt>
      <trkpt lat="42.8819975" lon="-5.6875202">
        <ele>1082.81</ele>
        <time>2020-07-21T06:18:30.000Z</time>
      </trkpt>
      <trkpt lat="42.882006" lon="-5.6875183">
        <ele>1082.81</ele>
        <time>2020-07-21T06:18:31.000Z</time>
      </trkpt>
      <trkpt lat="42.8820162" lon="-5.687517">
        <ele>1082.66</ele>
        <time>2020-07-21T06:18:32.000Z</time>
      </trkpt>
      <trkpt lat="42.8820283" lon="-5.687515">
        <ele>1082.66</ele>
        <time>2020-07-21T06:18:33.000Z</time>
      </trkpt>
      <trkpt lat="42.8820438" lon="-5.6875143">
        <ele>1082.66</ele>
        <time>2020-07-21T06:18:34.000Z</time>
      </trkpt>
      <trkpt lat="42.8820612" lon="-5.687514">
        <ele>1082.66</ele>
        <time>2020-07-21T06:18:35.000Z</time>
      </trkpt>
      <trkpt lat="42.8820772" lon="-5.687514">
        <ele>1082.66</ele>
        <time>2020-07-21T06:18:36.000Z</time>
      </trkpt>
      <trkpt lat="42.8820898" lon="-5.6875122">
        <ele>1082.66</ele>
        <time>2020-07-21T06:18:37.000Z</time>
      </trkpt>
      <trkpt lat="42.8820985" lon="-5.6875095">
        <ele>1082.51</ele>
        <time>2020-07-21T06:18:38.000Z</time>
      </trkpt>
      <trkpt lat="42.8821067" lon="-5.6875075">
        <ele>1082.51</ele>
        <time>2020-07-21T06:18:39.000Z</time>
      </trkpt>
      <trkpt lat="42.8821173" lon="-5.687507">
        <ele>1082.36</ele>
        <time>2020-07-21T06:18:40.000Z</time>
      </trkpt>
      <trkpt lat="42.8821308" lon="-5.687507">
        <ele>1082.36</ele>
        <time>2020-07-21T06:18:41.000Z</time>
      </trkpt>
      <trkpt lat="42.8821452" lon="-5.687507">
        <ele>1082.21</ele>
        <time>2020-07-21T06:18:42.000Z</time>
      </trkpt>
      <trkpt lat="42.8821582" lon="-5.6875068">
        <ele>1082.21</ele>
        <time>2020-07-21T06:18:43.000Z</time>
      </trkpt>
      <trkpt lat="42.88217" lon="-5.6875065">
        <ele>1082.05</ele>
        <time>2020-07-21T06:18:44.000Z</time>
      </trkpt>
      <trkpt lat="42.8821808" lon="-5.6875072">
        <ele>1082.05</ele>
        <time>2020-07-21T06:18:45.000Z</time>
      </trkpt>
      <trkpt lat="42.882189" lon="-5.6875057">
        <ele>1081.9</ele>
        <time>2020-07-21T06:18:46.000Z</time>
      </trkpt>
      <trkpt lat="42.8821988" lon="-5.6875045">
        <ele>1081.9</ele>
        <time>2020-07-21T06:18:47.000Z</time>
      </trkpt>
      <trkpt lat="42.882212" lon="-5.6875038">
        <ele>1081.75</ele>
        <time>2020-07-21T06:18:48.000Z</time>
      </trkpt>
      <trkpt lat="42.8822283" lon="-5.6875057">
        <ele>1081.75</ele>
        <time>2020-07-21T06:18:49.000Z</time>
      </trkpt>
      <trkpt lat="42.8822437" lon="-5.687508">
        <ele>1081.44</ele>
        <time>2020-07-21T06:18:50.000Z</time>
      </trkpt>
      <trkpt lat="42.8822565" lon="-5.6875093">
        <ele>1081.44</ele>
        <time>2020-07-21T06:18:51.000Z</time>
      </trkpt>
      <trkpt lat="42.8822675" lon="-5.6875093">
        <ele>1081.29</ele>
        <time>2020-07-21T06:18:52.000Z</time>
      </trkpt>
      <trkpt lat="42.88228" lon="-5.6875085">
        <ele>1081.29</ele>
        <time>2020-07-21T06:18:53.000Z</time>
      </trkpt>
      <trkpt lat="42.882295" lon="-5.6875087">
        <ele>1080.99</ele>
        <time>2020-07-21T06:18:54.000Z</time>
      </trkpt>
      <trkpt lat="42.8823112" lon="-5.6875093">
        <ele>1080.99</ele>
        <time>2020-07-21T06:18:55.000Z</time>
      </trkpt>
      <trkpt lat="42.8823273" lon="-5.687511">
        <ele>1080.83</ele>
        <time>2020-07-21T06:18:56.000Z</time>
      </trkpt>
      <trkpt lat="42.8823425" lon="-5.6875118">
        <ele>1080.83</ele>
        <time>2020-07-21T06:18:57.000Z</time>
      </trkpt>
      <trkpt lat="42.8823595" lon="-5.687515">
        <ele>1080.68</ele>
        <time>2020-07-21T06:18:58.000Z</time>
      </trkpt>
      <trkpt lat="42.8823745" lon="-5.6875195">
        <ele>1080.68</ele>
        <time>2020-07-21T06:18:59.000Z</time>
      </trkpt>
      <trkpt lat="42.8823893" lon="-5.6875255">
        <ele>1080.53</ele>
        <time>2020-07-21T06:19:00.000Z</time>
      </trkpt>
      <trkpt lat="42.8824042" lon="-5.6875302">
        <ele>1080.53</ele>
        <time>2020-07-21T06:19:01.000Z</time>
      </trkpt>
      <trkpt lat="42.8824225" lon="-5.6875338">
        <ele>1080.38</ele>
        <time>2020-07-21T06:19:02.000Z</time>
      </trkpt>
      <trkpt lat="42.8824425" lon="-5.6875375">
        <ele>1080.38</ele>
        <time>2020-07-21T06:19:03.000Z</time>
      </trkpt>
      <trkpt lat="42.8824628" lon="-5.6875412">
        <ele>1080.38</ele>
        <time>2020-07-21T06:19:04.000Z</time>
      </trkpt>
      <trkpt lat="42.88248" lon="-5.687545">
        <ele>1080.38</ele>
        <time>2020-07-21T06:19:05.000Z</time>
      </trkpt>
      <trkpt lat="42.8824952" lon="-5.687548">
        <ele>1080.22</ele>
        <time>2020-07-21T06:19:06.000Z</time>
      </trkpt>
      <trkpt lat="42.8825092" lon="-5.6875508">
        <ele>1080.22</ele>
        <time>2020-07-21T06:19:07.000Z</time>
      </trkpt>
      <trkpt lat="42.8825252" lon="-5.6875545">
        <ele>1080.22</ele>
        <time>2020-07-21T06:19:08.000Z</time>
      </trkpt>
      <trkpt lat="42.8825418" lon="-5.6875577">
        <ele>1080.22</ele>
        <time>2020-07-21T06:19:09.000Z</time>
      </trkpt>
      <trkpt lat="42.8825575" lon="-5.6875605">
        <ele>1080.22</ele>
        <time>2020-07-21T06:19:10.000Z</time>
      </trkpt>
      <trkpt lat="42.8825737" lon="-5.6875632">
        <ele>1080.22</ele>
        <time>2020-07-21T06:19:11.000Z</time>
      </trkpt>
      <trkpt lat="42.8825912" lon="-5.6875663">
        <ele>1080.22</ele>
        <time>2020-07-21T06:19:12.000Z</time>
      </trkpt>
      <trkpt lat="42.8826105" lon="-5.6875695">
        <ele>1080.22</ele>
        <time>2020-07-21T06:19:13.000Z</time>
      </trkpt>
      <trkpt lat="42.8826297" lon="-5.6875727">
        <ele>1080.38</ele>
        <time>2020-07-21T06:19:14.000Z</time>
      </trkpt>
      <trkpt lat="42.8826467" lon="-5.687575">
        <ele>1080.38</ele>
        <time>2020-07-21T06:19:15.000Z</time>
      </trkpt>
      <trkpt lat="42.882661" lon="-5.6875767">
        <ele>1080.38</ele>
        <time>2020-07-21T06:19:16.000Z</time>
      </trkpt>
      <trkpt lat="42.882676" lon="-5.6875773">
        <ele>1080.38</ele>
        <time>2020-07-21T06:19:17.000Z</time>
      </trkpt>
      <trkpt lat="42.8826915" lon="-5.6875775">
        <ele>1080.38</ele>
        <time>2020-07-21T06:19:18.000Z</time>
      </trkpt>
      <trkpt lat="42.8827088" lon="-5.6875777">
        <ele>1080.38</ele>
        <time>2020-07-21T06:19:19.000Z</time>
      </trkpt>
      <trkpt lat="42.8827253" lon="-5.6875772">
        <ele>1080.53</ele>
        <time>2020-07-21T06:19:20.000Z</time>
      </trkpt>
      <trkpt lat="42.8827423" lon="-5.6875772">
        <ele>1080.53</ele>
        <time>2020-07-21T06:19:21.000Z</time>
      </trkpt>
      <trkpt lat="42.8827607" lon="-5.6875767">
        <ele>1080.68</ele>
        <time>2020-07-21T06:19:22.000Z</time>
      </trkpt>
      <trkpt lat="42.8827788" lon="-5.687576">
        <ele>1080.68</ele>
        <time>2020-07-21T06:19:23.000Z</time>
      </trkpt>
      <trkpt lat="42.882801" lon="-5.6875745">
        <ele>1080.83</ele>
        <time>2020-07-21T06:19:24.000Z</time>
      </trkpt>
      <trkpt lat="42.8828242" lon="-5.687572">
        <ele>1080.83</ele>
        <time>2020-07-21T06:19:25.000Z</time>
      </trkpt>
      <trkpt lat="42.882847" lon="-5.6875688">
        <ele>1080.99</ele>
        <time>2020-07-21T06:19:26.000Z</time>
      </trkpt>
      <trkpt lat="42.8828653" lon="-5.687565">
        <ele>1080.99</ele>
        <time>2020-07-21T06:19:27.000Z</time>
      </trkpt>
      <trkpt lat="42.8828815" lon="-5.6875615">
        <ele>1081.14</ele>
        <time>2020-07-21T06:19:28.000Z</time>
      </trkpt>
      <trkpt lat="42.882898" lon="-5.6875575">
        <ele>1081.14</ele>
        <time>2020-07-21T06:19:29.000Z</time>
      </trkpt>
      <trkpt lat="42.8829145" lon="-5.6875538">
        <ele>1081.29</ele>
        <time>2020-07-21T06:19:30.000Z</time>
      </trkpt>
      <trkpt lat="42.8829307" lon="-5.6875508">
        <ele>1081.29</ele>
        <time>2020-07-21T06:19:31.000Z</time>
      </trkpt>
      <trkpt lat="42.8829463" lon="-5.6875495">
        <ele>1081.29</ele>
        <time>2020-07-21T06:19:32.000Z</time>
      </trkpt>
      <trkpt lat="42.8829627" lon="-5.6875478">
        <ele>1081.29</ele>
        <time>2020-07-21T06:19:33.000Z</time>
      </trkpt>
      <trkpt lat="42.882978" lon="-5.6875455">
        <ele>1081.44</ele>
        <time>2020-07-21T06:19:34.000Z</time>
      </trkpt>
      <trkpt lat="42.8829922" lon="-5.6875433">
        <ele>1081.44</ele>
        <time>2020-07-21T06:19:35.000Z</time>
      </trkpt>
      <trkpt lat="42.883004" lon="-5.687541">
        <ele>1081.6</ele>
        <time>2020-07-21T06:19:36.000Z</time>
      </trkpt>
      <trkpt lat="42.8830155" lon="-5.687539">
        <ele>1081.6</ele>
        <time>2020-07-21T06:19:37.000Z</time>
      </trkpt>
      <trkpt lat="42.8830272" lon="-5.6875368">
        <ele>1081.6</ele>
        <time>2020-07-21T06:19:38.000Z</time>
      </trkpt>
      <trkpt lat="42.8830385" lon="-5.687536">
        <ele>1081.6</ele>
        <time>2020-07-21T06:19:39.000Z</time>
      </trkpt>
      <trkpt lat="42.8830482" lon="-5.6875357">
        <ele>1081.75</ele>
        <time>2020-07-21T06:19:40.000Z</time>
      </trkpt>
      <trkpt lat="42.883057" lon="-5.687536">
        <ele>1081.75</ele>
        <time>2020-07-21T06:19:41.000Z</time>
      </trkpt>
      <trkpt lat="42.8830658" lon="-5.6875363">
        <ele>1081.9</ele>
        <time>2020-07-21T06:19:42.000Z</time>
      </trkpt>
      <trkpt lat="42.8830743" lon="-5.6875365">
        <ele>1081.9</ele>
        <time>2020-07-21T06:19:43.000Z</time>
      </trkpt>
      <trkpt lat="42.883081" lon="-5.6875357">
        <ele>1082.05</ele>
        <time>2020-07-21T06:19:44.000Z</time>
      </trkpt>
      <trkpt lat="42.8830868" lon="-5.6875343">
        <ele>1082.05</ele>
        <time>2020-07-21T06:19:45.000Z</time>
      </trkpt>
      <trkpt lat="42.8830928" lon="-5.6875335">
        <ele>1082.21</ele>
        <time>2020-07-21T06:19:46.000Z</time>
      </trkpt>
      <trkpt lat="42.8830993" lon="-5.6875327">
        <ele>1082.21</ele>
        <time>2020-07-21T06:19:47.000Z</time>
      </trkpt>
      <trkpt lat="42.8831062" lon="-5.6875323">
        <ele>1082.36</ele>
        <time>2020-07-21T06:19:48.000Z</time>
      </trkpt>
      <trkpt lat="42.8831128" lon="-5.6875315">
        <ele>1082.36</ele>
        <time>2020-07-21T06:19:49.000Z</time>
      </trkpt>
      <trkpt lat="42.8831203" lon="-5.68753">
        <ele>1082.36</ele>
        <time>2020-07-21T06:19:50.000Z</time>
      </trkpt>
      <trkpt lat="42.8831283" lon="-5.687528">
        <ele>1082.36</ele>
        <time>2020-07-21T06:19:51.000Z</time>
      </trkpt>
      <trkpt lat="42.8831363" lon="-5.6875253">
        <ele>1082.51</ele>
        <time>2020-07-21T06:19:52.000Z</time>
      </trkpt>
      <trkpt lat="42.8831447" lon="-5.6875228">
        <ele>1082.51</ele>
        <time>2020-07-21T06:19:53.000Z</time>
      </trkpt>
      <trkpt lat="42.883152" lon="-5.6875195">
        <ele>1082.66</ele>
        <time>2020-07-21T06:19:54.000Z</time>
      </trkpt>
      <trkpt lat="42.8831595" lon="-5.6875168">
        <ele>1082.66</ele>
        <time>2020-07-21T06:19:55.000Z</time>
      </trkpt>
      <trkpt lat="42.8831665" lon="-5.6875133">
        <ele>1082.81</ele>
        <time>2020-07-21T06:19:56.000Z</time>
      </trkpt>
      <trkpt lat="42.8831747" lon="-5.68751">
        <ele>1082.81</ele>
        <time>2020-07-21T06:19:57.000Z</time>
      </trkpt>
      <trkpt lat="42.8831842" lon="-5.6875063">
        <ele>1082.81</ele>
        <time>2020-07-21T06:19:58.000Z</time>
      </trkpt>
      <trkpt lat="42.8831937" lon="-5.6875027">
        <ele>1082.81</ele>
        <time>2020-07-21T06:19:59.000Z</time>
      </trkpt>
      <trkpt lat="42.8832028" lon="-5.6874987">
        <ele>1082.97</ele>
        <time>2020-07-21T06:20:00.000Z</time>
      </trkpt>
      <trkpt lat="42.8832113" lon="-5.6874943">
        <ele>1082.97</ele>
        <time>2020-07-21T06:20:01.000Z</time>
      </trkpt>
      <trkpt lat="42.8832207" lon="-5.68749">
        <ele>1083.12</ele>
        <time>2020-07-21T06:20:02.000Z</time>
      </trkpt>
      <trkpt lat="42.8832308" lon="-5.6874862">
        <ele>1083.12</ele>
        <time>2020-07-21T06:20:03.000Z</time>
      </trkpt>
      <trkpt lat="42.8832405" lon="-5.6874828">
        <ele>1083.12</ele>
        <time>2020-07-21T06:20:04.000Z</time>
      </trkpt>
      <trkpt lat="42.8832498" lon="-5.6874803">
        <ele>1083.12</ele>
        <time>2020-07-21T06:20:05.000Z</time>
      </trkpt>
      <trkpt lat="42.8832585" lon="-5.6874783">
        <ele>1083.27</ele>
        <time>2020-07-21T06:20:06.000Z</time>
      </trkpt>
      <trkpt lat="42.8832675" lon="-5.6874767">
        <ele>1083.27</ele>
        <time>2020-07-21T06:20:07.000Z</time>
      </trkpt>
      <trkpt lat="42.8832767" lon="-5.6874747">
        <ele>1083.27</ele>
        <time>2020-07-21T06:20:08.000Z</time>
      </trkpt>
      <trkpt lat="42.883286" lon="-5.6874722">
        <ele>1083.27</ele>
        <time>2020-07-21T06:20:09.000Z</time>
      </trkpt>
      <trkpt lat="42.8832955" lon="-5.6874692">
        <ele>1083.27</ele>
        <time>2020-07-21T06:20:10.000Z</time>
      </trkpt>
      <trkpt lat="42.8833047" lon="-5.687466">
        <ele>1083.27</ele>
        <time>2020-07-21T06:20:11.000Z</time>
      </trkpt>
      <trkpt lat="42.8833137" lon="-5.6874628">
        <ele>1083.12</ele>
        <time>2020-07-21T06:20:12.000Z</time>
      </trkpt>
      <trkpt lat="42.8833235" lon="-5.6874613">
        <ele>1083.12</ele>
        <time>2020-07-21T06:20:13.000Z</time>
      </trkpt>
      <trkpt lat="42.8833332" lon="-5.6874587">
        <ele>1083.12</ele>
        <time>2020-07-21T06:20:14.000Z</time>
      </trkpt>
      <trkpt lat="42.8833447" lon="-5.6874598">
        <ele>1083.12</ele>
        <time>2020-07-21T06:20:15.000Z</time>
      </trkpt>
      <trkpt lat="42.8833565" lon="-5.6874588">
        <ele>1083.12</ele>
        <time>2020-07-21T06:20:16.000Z</time>
      </trkpt>
      <trkpt lat="42.883369" lon="-5.6874585">
        <ele>1083.12</ele>
        <time>2020-07-21T06:20:17.000Z</time>
      </trkpt>
      <trkpt lat="42.8833807" lon="-5.6874548">
        <ele>1082.97</ele>
        <time>2020-07-21T06:20:18.000Z</time>
      </trkpt>
      <trkpt lat="42.8833927" lon="-5.6874522">
        <ele>1082.97</ele>
        <time>2020-07-21T06:20:19.000Z</time>
      </trkpt>
      <trkpt lat="42.8834048" lon="-5.6874497">
        <ele>1082.81</ele>
        <time>2020-07-21T06:20:20.000Z</time>
      </trkpt>
      <trkpt lat="42.8834172" lon="-5.6874492">
        <ele>1082.81</ele>
        <time>2020-07-21T06:20:21.000Z</time>
      </trkpt>
      <trkpt lat="42.8834292" lon="-5.6874482">
        <ele>1082.66</ele>
        <time>2020-07-21T06:20:22.000Z</time>
      </trkpt>
      <trkpt lat="42.8834397" lon="-5.6874475">
        <ele>1082.66</ele>
        <time>2020-07-21T06:20:23.000Z</time>
      </trkpt>
      <trkpt lat="42.8834495" lon="-5.6874452">
        <ele>1082.66</ele>
        <time>2020-07-21T06:20:24.000Z</time>
      </trkpt>
      <trkpt lat="42.8834595" lon="-5.687443">
        <ele>1082.66</ele>
        <time>2020-07-21T06:20:25.000Z</time>
      </trkpt>
      <trkpt lat="42.8834707" lon="-5.6874408">
        <ele>1082.51</ele>
        <time>2020-07-21T06:20:26.000Z</time>
      </trkpt>
      <trkpt lat="42.8834837" lon="-5.687438">
        <ele>1082.51</ele>
        <time>2020-07-21T06:20:27.000Z</time>
      </trkpt>
      <trkpt lat="42.8834973" lon="-5.6874345">
        <ele>1082.36</ele>
        <time>2020-07-21T06:20:28.000Z</time>
      </trkpt>
      <trkpt lat="42.8835108" lon="-5.6874312">
        <ele>1082.36</ele>
        <time>2020-07-21T06:20:29.000Z</time>
      </trkpt>
      <trkpt lat="42.8835233" lon="-5.6874282">
        <ele>1082.21</ele>
        <time>2020-07-21T06:20:30.000Z</time>
      </trkpt>
      <trkpt lat="42.8835363" lon="-5.687425">
        <ele>1082.21</ele>
        <time>2020-07-21T06:20:31.000Z</time>
      </trkpt>
      <trkpt lat="42.8835497" lon="-5.6874217">
        <ele>1082.21</ele>
        <time>2020-07-21T06:20:32.000Z</time>
      </trkpt>
      <trkpt lat="42.8835628" lon="-5.687418">
        <ele>1082.21</ele>
        <time>2020-07-21T06:20:33.000Z</time>
      </trkpt>
      <trkpt lat="42.8835753" lon="-5.6874152">
        <ele>1082.05</ele>
        <time>2020-07-21T06:20:34.000Z</time>
      </trkpt>
      <trkpt lat="42.8835883" lon="-5.6874117">
        <ele>1082.05</ele>
        <time>2020-07-21T06:20:35.000Z</time>
      </trkpt>
      <trkpt lat="42.8836022" lon="-5.6874087">
        <ele>1081.9</ele>
        <time>2020-07-21T06:20:36.000Z</time>
      </trkpt>
      <trkpt lat="42.8836178" lon="-5.6874053">
        <ele>1081.9</ele>
        <time>2020-07-21T06:20:37.000Z</time>
      </trkpt>
      <trkpt lat="42.883635" lon="-5.687403">
        <ele>1081.9</ele>
        <time>2020-07-21T06:20:38.000Z</time>
      </trkpt>
      <trkpt lat="42.8836513" lon="-5.6874012">
        <ele>1081.9</ele>
        <time>2020-07-21T06:20:39.000Z</time>
      </trkpt>
      <trkpt lat="42.8836655" lon="-5.6874002">
        <ele>1081.75</ele>
        <time>2020-07-21T06:20:40.000Z</time>
      </trkpt>
      <trkpt lat="42.8836778" lon="-5.6874">
        <ele>1081.75</ele>
        <time>2020-07-21T06:20:41.000Z</time>
      </trkpt>
      <trkpt lat="42.8836905" lon="-5.6874005">
        <ele>1081.75</ele>
        <time>2020-07-21T06:20:42.000Z</time>
      </trkpt>
      <trkpt lat="42.8837043" lon="-5.6874013">
        <ele>1081.75</ele>
        <time>2020-07-21T06:20:43.000Z</time>
      </trkpt>
      <trkpt lat="42.8837175" lon="-5.6874022">
        <ele>1081.6</ele>
        <time>2020-07-21T06:20:44.000Z</time>
      </trkpt>
      <trkpt lat="42.8837318" lon="-5.6874027">
        <ele>1081.6</ele>
        <time>2020-07-21T06:20:45.000Z</time>
      </trkpt>
      <trkpt lat="42.8837458" lon="-5.6874042">
        <ele>1081.6</ele>
        <time>2020-07-21T06:20:46.000Z</time>
      </trkpt>
      <trkpt lat="42.883761" lon="-5.687405">
        <ele>1081.6</ele>
        <time>2020-07-21T06:20:47.000Z</time>
      </trkpt>
      <trkpt lat="42.8837757" lon="-5.6874053">
        <ele>1081.44</ele>
        <time>2020-07-21T06:20:48.000Z</time>
      </trkpt>
      <trkpt lat="42.8837913" lon="-5.6874047">
        <ele>1081.44</ele>
        <time>2020-07-21T06:20:49.000Z</time>
      </trkpt>
      <trkpt lat="42.8838067" lon="-5.687404">
        <ele>1081.29</ele>
        <time>2020-07-21T06:20:50.000Z</time>
      </trkpt>
      <trkpt lat="42.8838213" lon="-5.6874042">
        <ele>1081.29</ele>
        <time>2020-07-21T06:20:51.000Z</time>
      </trkpt>
      <trkpt lat="42.8838353" lon="-5.6874058">
        <ele>1081.29</ele>
        <time>2020-07-21T06:20:52.000Z</time>
      </trkpt>
      <trkpt lat="42.8838482" lon="-5.687408">
        <ele>1081.29</ele>
        <time>2020-07-21T06:20:53.000Z</time>
      </trkpt>
      <trkpt lat="42.8838603" lon="-5.6874102">
        <ele>1081.14</ele>
        <time>2020-07-21T06:20:54.000Z</time>
      </trkpt>
      <trkpt lat="42.8838722" lon="-5.6874115">
        <ele>1081.14</ele>
        <time>2020-07-21T06:20:55.000Z</time>
      </trkpt>
      <trkpt lat="42.8838853" lon="-5.6874125">
        <ele>1081.14</ele>
        <time>2020-07-21T06:20:56.000Z</time>
      </trkpt>
      <trkpt lat="42.8838975" lon="-5.6874135">
        <ele>1081.14</ele>
        <time>2020-07-21T06:20:57.000Z</time>
      </trkpt>
      <trkpt lat="42.8839082" lon="-5.6874142">
        <ele>1080.99</ele>
        <time>2020-07-21T06:20:58.000Z</time>
      </trkpt>
      <trkpt lat="42.8839183" lon="-5.6874145">
        <ele>1080.99</ele>
        <time>2020-07-21T06:20:59.000Z</time>
      </trkpt>
      <trkpt lat="42.8839275" lon="-5.6874163">
        <ele>1080.99</ele>
        <time>2020-07-21T06:21:00.000Z</time>
      </trkpt>
      <trkpt lat="42.8839367" lon="-5.6874187">
        <ele>1080.99</ele>
        <time>2020-07-21T06:21:01.000Z</time>
      </trkpt>
      <trkpt lat="42.8839447" lon="-5.6874217">
        <ele>1080.83</ele>
        <time>2020-07-21T06:21:02.000Z</time>
      </trkpt>
      <trkpt lat="42.883953" lon="-5.6874238">
        <ele>1080.83</ele>
        <time>2020-07-21T06:21:03.000Z</time>
      </trkpt>
      <trkpt lat="42.8839618" lon="-5.6874262">
        <ele>1080.83</ele>
        <time>2020-07-21T06:21:04.000Z</time>
      </trkpt>
      <trkpt lat="42.883972" lon="-5.6874283">
        <ele>1080.83</ele>
        <time>2020-07-21T06:21:05.000Z</time>
      </trkpt>
      <trkpt lat="42.8839832" lon="-5.6874312">
        <ele>1080.68</ele>
        <time>2020-07-21T06:21:06.000Z</time>
      </trkpt>
      <trkpt lat="42.8839952" lon="-5.6874343">
        <ele>1080.68</ele>
        <time>2020-07-21T06:21:07.000Z</time>
      </trkpt>
      <trkpt lat="42.8840075" lon="-5.6874377">
        <ele>1080.68</ele>
        <time>2020-07-21T06:21:08.000Z</time>
      </trkpt>
      <trkpt lat="42.8840198" lon="-5.6874407">
        <ele>1080.68</ele>
        <time>2020-07-21T06:21:09.000Z</time>
      </trkpt>
      <trkpt lat="42.884032" lon="-5.6874432">
        <ele>1080.53</ele>
        <time>2020-07-21T06:21:10.000Z</time>
      </trkpt>
      <trkpt lat="42.8840437" lon="-5.6874458">
        <ele>1080.53</ele>
        <time>2020-07-21T06:21:11.000Z</time>
      </trkpt>
      <trkpt lat="42.884055" lon="-5.6874483">
        <ele>1080.53</ele>
        <time>2020-07-21T06:21:12.000Z</time>
      </trkpt>
      <trkpt lat="42.8840658" lon="-5.6874503">
        <ele>1080.53</ele>
        <time>2020-07-21T06:21:13.000Z</time>
      </trkpt>
      <trkpt lat="42.8840768" lon="-5.6874508">
        <ele>1080.38</ele>
        <time>2020-07-21T06:21:14.000Z</time>
      </trkpt>
      <trkpt lat="42.8840895" lon="-5.6874518">
        <ele>1080.38</ele>
        <time>2020-07-21T06:21:15.000Z</time>
      </trkpt>
      <trkpt lat="42.8841028" lon="-5.6874518">
        <ele>1080.38</ele>
        <time>2020-07-21T06:21:16.000Z</time>
      </trkpt>
      <trkpt lat="42.8841168" lon="-5.6874537">
        <ele>1080.38</ele>
        <time>2020-07-21T06:21:17.000Z</time>
      </trkpt>
      <trkpt lat="42.8841287" lon="-5.687456">
        <ele>1080.22</ele>
        <time>2020-07-21T06:21:18.000Z</time>
      </trkpt>
      <trkpt lat="42.8841397" lon="-5.6874595">
        <ele>1080.22</ele>
        <time>2020-07-21T06:21:19.000Z</time>
      </trkpt>
      <trkpt lat="42.8841502" lon="-5.6874627">
        <ele>1080.22</ele>
        <time>2020-07-21T06:21:20.000Z</time>
      </trkpt>
      <trkpt lat="42.884162" lon="-5.6874643">
        <ele>1080.22</ele>
        <time>2020-07-21T06:21:21.000Z</time>
      </trkpt>
      <trkpt lat="42.8841752" lon="-5.687466">
        <ele>1080.07</ele>
        <time>2020-07-21T06:21:22.000Z</time>
      </trkpt>
      <trkpt lat="42.8841885" lon="-5.6874673">
        <ele>1080.07</ele>
        <time>2020-07-21T06:21:23.000Z</time>
      </trkpt>
      <trkpt lat="42.8842018" lon="-5.687471">
        <ele>1080.07</ele>
        <time>2020-07-21T06:21:24.000Z</time>
      </trkpt>
      <trkpt lat="42.8842143" lon="-5.687473">
        <ele>1080.07</ele>
        <time>2020-07-21T06:21:25.000Z</time>
      </trkpt>
      <trkpt lat="42.8842263" lon="-5.6874732">
        <ele>1080.07</ele>
        <time>2020-07-21T06:21:26.000Z</time>
      </trkpt>
      <trkpt lat="42.8842373" lon="-5.687472">
        <ele>1080.07</ele>
        <time>2020-07-21T06:21:27.000Z</time>
      </trkpt>
      <trkpt lat="42.8842473" lon="-5.687471">
        <ele>1079.92</ele>
        <time>2020-07-21T06:21:28.000Z</time>
      </trkpt>
      <trkpt lat="42.884256" lon="-5.6874733">
        <ele>1079.92</ele>
        <time>2020-07-21T06:21:29.000Z</time>
      </trkpt>
      <trkpt lat="42.8842645" lon="-5.6874737">
        <ele>1079.92</ele>
        <time>2020-07-21T06:21:30.000Z</time>
      </trkpt>
      <trkpt lat="42.884273" lon="-5.6874745">
        <ele>1079.92</ele>
        <time>2020-07-21T06:21:31.000Z</time>
      </trkpt>
      <trkpt lat="42.8842813" lon="-5.6874727">
        <ele>1079.77</ele>
        <time>2020-07-21T06:21:32.000Z</time>
      </trkpt>
      <trkpt lat="42.8842917" lon="-5.6874708">
        <ele>1079.77</ele>
        <time>2020-07-21T06:21:33.000Z</time>
      </trkpt>
      <trkpt lat="42.8843025" lon="-5.6874678">
        <ele>1079.77</ele>
        <time>2020-07-21T06:21:34.000Z</time>
      </trkpt>
      <trkpt lat="42.8843145" lon="-5.6874648">
        <ele>1079.77</ele>
        <time>2020-07-21T06:21:35.000Z</time>
      </trkpt>
      <trkpt lat="42.8843233" lon="-5.6874613">
        <ele>1079.61</ele>
        <time>2020-07-21T06:21:36.000Z</time>
      </trkpt>
      <trkpt lat="42.8843348" lon="-5.6874615">
        <ele>1079.61</ele>
        <time>2020-07-21T06:21:37.000Z</time>
      </trkpt>
      <trkpt lat="42.8843468" lon="-5.6874623">
        <ele>1079.61</ele>
        <time>2020-07-21T06:21:38.000Z</time>
      </trkpt>
      <trkpt lat="42.8843597" lon="-5.6874633">
        <ele>1079.61</ele>
        <time>2020-07-21T06:21:39.000Z</time>
      </trkpt>
      <trkpt lat="42.884369" lon="-5.6874625">
        <ele>1079.61</ele>
        <time>2020-07-21T06:21:40.000Z</time>
      </trkpt>
      <trkpt lat="42.8843783" lon="-5.6874613">
        <ele>1079.61</ele>
        <time>2020-07-21T06:21:41.000Z</time>
      </trkpt>
      <trkpt lat="42.8843878" lon="-5.6874603">
        <ele>1079.61</ele>
        <time>2020-07-21T06:21:42.000Z</time>
      </trkpt>
      <trkpt lat="42.8843978" lon="-5.6874585">
        <ele>1079.61</ele>
        <time>2020-07-21T06:21:43.000Z</time>
      </trkpt>
      <trkpt lat="42.8844083" lon="-5.6874562">
        <ele>1079.46</ele>
        <time>2020-07-21T06:21:44.000Z</time>
      </trkpt>
      <trkpt lat="42.8844188" lon="-5.687454">
        <ele>1079.46</ele>
        <time>2020-07-21T06:21:45.000Z</time>
      </trkpt>
      <trkpt lat="42.8844307" lon="-5.6874512">
        <ele>1079.46</ele>
        <time>2020-07-21T06:21:46.000Z</time>
      </trkpt>
      <trkpt lat="42.884442" lon="-5.6874478">
        <ele>1079.46</ele>
        <time>2020-07-21T06:21:47.000Z</time>
      </trkpt>
      <trkpt lat="42.8844553" lon="-5.6874442">
        <ele>1079.46</ele>
        <time>2020-07-21T06:21:48.000Z</time>
      </trkpt>
      <trkpt lat="42.8844687" lon="-5.6874398">
        <ele>1079.46</ele>
        <time>2020-07-21T06:21:49.000Z</time>
      </trkpt>
      <trkpt lat="42.884483" lon="-5.6874353">
        <ele>1079.46</ele>
        <time>2020-07-21T06:21:50.000Z</time>
      </trkpt>
      <trkpt lat="42.884495" lon="-5.6874293">
        <ele>1079.46</ele>
        <time>2020-07-21T06:21:51.000Z</time>
      </trkpt>
      <trkpt lat="42.8845062" lon="-5.6874223">
        <ele>1079.31</ele>
        <time>2020-07-21T06:21:52.000Z</time>
      </trkpt>
      <trkpt lat="42.8845158" lon="-5.6874153">
        <ele>1079.31</ele>
        <time>2020-07-21T06:21:53.000Z</time>
      </trkpt>
      <trkpt lat="42.8845263" lon="-5.6874085">
        <ele>1079.31</ele>
        <time>2020-07-21T06:21:54.000Z</time>
      </trkpt>
      <trkpt lat="42.8845355" lon="-5.687401">
        <ele>1079.31</ele>
        <time>2020-07-21T06:21:55.000Z</time>
      </trkpt>
      <trkpt lat="42.8845447" lon="-5.6873937">
        <ele>1079.31</ele>
        <time>2020-07-21T06:21:56.000Z</time>
      </trkpt>
      <trkpt lat="42.8845542" lon="-5.6873862">
        <ele>1079.31</ele>
        <time>2020-07-21T06:21:57.000Z</time>
      </trkpt>
      <trkpt lat="42.8845658" lon="-5.687379">
        <ele>1079.31</ele>
        <time>2020-07-21T06:21:58.000Z</time>
      </trkpt>
      <trkpt lat="42.8845773" lon="-5.6873713">
        <ele>1079.31</ele>
        <time>2020-07-21T06:21:59.000Z</time>
      </trkpt>
      <trkpt lat="42.884589" lon="-5.687363">
        <ele>1079.16</ele>
        <time>2020-07-21T06:22:00.000Z</time>
      </trkpt>
      <trkpt lat="42.8846013" lon="-5.6873543">
        <ele>1079.16</ele>
        <time>2020-07-21T06:22:01.000Z</time>
      </trkpt>
      <trkpt lat="42.8846155" lon="-5.6873453">
        <ele>1079.16</ele>
        <time>2020-07-21T06:22:02.000Z</time>
      </trkpt>
      <trkpt lat="42.8846313" lon="-5.6873368">
        <ele>1079.16</ele>
        <time>2020-07-21T06:22:03.000Z</time>
      </trkpt>
      <trkpt lat="42.8846467" lon="-5.6873288">
        <ele>1079.16</ele>
        <time>2020-07-21T06:22:04.000Z</time>
      </trkpt>
      <trkpt lat="42.8846617" lon="-5.6873212">
        <ele>1079.16</ele>
        <time>2020-07-21T06:22:05.000Z</time>
      </trkpt>
      <trkpt lat="42.884675" lon="-5.6873133">
        <ele>1079.16</ele>
        <time>2020-07-21T06:22:06.000Z</time>
      </trkpt>
      <trkpt lat="42.8846883" lon="-5.6873062">
        <ele>1079.16</ele>
        <time>2020-07-21T06:22:07.000Z</time>
      </trkpt>
      <trkpt lat="42.8847" lon="-5.6872983">
        <ele>1079.16</ele>
        <time>2020-07-21T06:22:08.000Z</time>
      </trkpt>
      <trkpt lat="42.8847107" lon="-5.6872908">
        <ele>1079.16</ele>
        <time>2020-07-21T06:22:09.000Z</time>
      </trkpt>
      <trkpt lat="42.8847215" lon="-5.6872832">
        <ele>1079.16</ele>
        <time>2020-07-21T06:22:10.000Z</time>
      </trkpt>
      <trkpt lat="42.8847337" lon="-5.687276">
        <ele>1079.16</ele>
        <time>2020-07-21T06:22:11.000Z</time>
      </trkpt>
      <trkpt lat="42.8847458" lon="-5.6872695">
        <ele>1079.16</ele>
        <time>2020-07-21T06:22:12.000Z</time>
      </trkpt>
      <trkpt lat="42.8847575" lon="-5.687263">
        <ele>1079.16</ele>
        <time>2020-07-21T06:22:13.000Z</time>
      </trkpt>
      <trkpt lat="42.884769" lon="-5.6872573">
        <ele>1079.16</ele>
        <time>2020-07-21T06:22:14.000Z</time>
      </trkpt>
      <trkpt lat="42.8847802" lon="-5.6872525">
        <ele>1079.16</ele>
        <time>2020-07-21T06:22:15.000Z</time>
      </trkpt>
      <trkpt lat="42.8847898" lon="-5.6872478">
        <ele>1079.16</ele>
        <time>2020-07-21T06:22:16.000Z</time>
      </trkpt>
      <trkpt lat="42.8847975" lon="-5.687243">
        <ele>1079.16</ele>
        <time>2020-07-21T06:22:17.000Z</time>
      </trkpt>
      <trkpt lat="42.8848062" lon="-5.6872363">
        <ele>1079.16</ele>
        <time>2020-07-21T06:22:18.000Z</time>
      </trkpt>
      <trkpt lat="42.8848163" lon="-5.687229">
        <ele>1079.16</ele>
        <time>2020-07-21T06:22:19.000Z</time>
      </trkpt>
      <trkpt lat="42.8848287" lon="-5.6872207">
        <ele>1079.16</ele>
        <time>2020-07-21T06:22:20.000Z</time>
      </trkpt>
      <trkpt lat="42.8848403" lon="-5.6872133">
        <ele>1079.16</ele>
        <time>2020-07-21T06:22:21.000Z</time>
      </trkpt>
      <trkpt lat="42.8848513" lon="-5.6872062">
        <ele>1079.16</ele>
        <time>2020-07-21T06:22:22.000Z</time>
      </trkpt>
      <trkpt lat="42.884861" lon="-5.6871997">
        <ele>1079.16</ele>
        <time>2020-07-21T06:22:23.000Z</time>
      </trkpt>
      <trkpt lat="42.8848713" lon="-5.6871925">
        <ele>1079.16</ele>
        <time>2020-07-21T06:22:24.000Z</time>
      </trkpt>
      <trkpt lat="42.8848827" lon="-5.6871857">
        <ele>1079.16</ele>
        <time>2020-07-21T06:22:25.000Z</time>
      </trkpt>
      <trkpt lat="42.8848947" lon="-5.6871778">
        <ele>1079.16</ele>
        <time>2020-07-21T06:22:26.000Z</time>
      </trkpt>
      <trkpt lat="42.8849073" lon="-5.6871693">
        <ele>1079.16</ele>
        <time>2020-07-21T06:22:27.000Z</time>
      </trkpt>
      <trkpt lat="42.8849195" lon="-5.6871603">
        <ele>1079.16</ele>
        <time>2020-07-21T06:22:28.000Z</time>
      </trkpt>
      <trkpt lat="42.8849312" lon="-5.6871507">
        <ele>1079.16</ele>
        <time>2020-07-21T06:22:29.000Z</time>
      </trkpt>
      <trkpt lat="42.8849422" lon="-5.6871408">
        <ele>1079.31</ele>
        <time>2020-07-21T06:22:30.000Z</time>
      </trkpt>
      <trkpt lat="42.8849532" lon="-5.68713">
        <ele>1079.31</ele>
        <time>2020-07-21T06:22:31.000Z</time>
      </trkpt>
      <trkpt lat="42.8849627" lon="-5.6871198">
        <ele>1079.31</ele>
        <time>2020-07-21T06:22:32.000Z</time>
      </trkpt>
      <trkpt lat="42.8849707" lon="-5.6871095">
        <ele>1079.31</ele>
        <time>2020-07-21T06:22:33.000Z</time>
      </trkpt>
      <trkpt lat="42.884977" lon="-5.6870992">
        <ele>1079.31</ele>
        <time>2020-07-21T06:22:34.000Z</time>
      </trkpt>
      <trkpt lat="42.884985" lon="-5.6870888">
        <ele>1079.31</ele>
        <time>2020-07-21T06:22:35.000Z</time>
      </trkpt>
      <trkpt lat="42.8849945" lon="-5.687078">
        <ele>1079.46</ele>
        <time>2020-07-21T06:22:36.000Z</time>
      </trkpt>
      <trkpt lat="42.8850045" lon="-5.687067">
        <ele>1079.46</ele>
        <time>2020-07-21T06:22:37.000Z</time>
      </trkpt>
      <trkpt lat="42.8850133" lon="-5.687055">
        <ele>1079.46</ele>
        <time>2020-07-21T06:22:38.000Z</time>
      </trkpt>
      <trkpt lat="42.8850213" lon="-5.6870433">
        <ele>1079.46</ele>
        <time>2020-07-21T06:22:39.000Z</time>
      </trkpt>
      <trkpt lat="42.8850288" lon="-5.6870323">
        <ele>1079.61</ele>
        <time>2020-07-21T06:22:40.000Z</time>
      </trkpt>
      <trkpt lat="42.8850367" lon="-5.6870223">
        <ele>1079.61</ele>
        <time>2020-07-21T06:22:41.000Z</time>
      </trkpt>
      <trkpt lat="42.8850442" lon="-5.6870122">
        <ele>1079.77</ele>
        <time>2020-07-21T06:22:42.000Z</time>
      </trkpt>
      <trkpt lat="42.8850515" lon="-5.6870015">
        <ele>1079.77</ele>
        <time>2020-07-21T06:22:43.000Z</time>
      </trkpt>
      <trkpt lat="42.8850598" lon="-5.68699">
        <ele>1079.77</ele>
        <time>2020-07-21T06:22:44.000Z</time>
      </trkpt>
      <trkpt lat="42.8850687" lon="-5.686978">
        <ele>1079.77</ele>
        <time>2020-07-21T06:22:45.000Z</time>
      </trkpt>
      <trkpt lat="42.8850773" lon="-5.6869667">
        <ele>1079.92</ele>
        <time>2020-07-21T06:22:46.000Z</time>
      </trkpt>
      <trkpt lat="42.8850847" lon="-5.6869558">
        <ele>1079.92</ele>
        <time>2020-07-21T06:22:47.000Z</time>
      </trkpt>
      <trkpt lat="42.8850908" lon="-5.6869448">
        <ele>1080.07</ele>
        <time>2020-07-21T06:22:48.000Z</time>
      </trkpt>
      <trkpt lat="42.8850975" lon="-5.6869327">
        <ele>1080.07</ele>
        <time>2020-07-21T06:22:49.000Z</time>
      </trkpt>
      <trkpt lat="42.8851043" lon="-5.6869192">
        <ele>1080.22</ele>
        <time>2020-07-21T06:22:50.000Z</time>
      </trkpt>
      <trkpt lat="42.8851122" lon="-5.6869055">
        <ele>1080.22</ele>
        <time>2020-07-21T06:22:51.000Z</time>
      </trkpt>
      <trkpt lat="42.8851203" lon="-5.6868925">
        <ele>1080.38</ele>
        <time>2020-07-21T06:22:52.000Z</time>
      </trkpt>
      <trkpt lat="42.8851292" lon="-5.6868808">
        <ele>1080.38</ele>
        <time>2020-07-21T06:22:53.000Z</time>
      </trkpt>
      <trkpt lat="42.8851382" lon="-5.6868685">
        <ele>1080.38</ele>
        <time>2020-07-21T06:22:54.000Z</time>
      </trkpt>
      <trkpt lat="42.8851475" lon="-5.6868547">
        <ele>1080.38</ele>
        <time>2020-07-21T06:22:55.000Z</time>
      </trkpt>
      <trkpt lat="42.8851578" lon="-5.6868403">
        <ele>1080.53</ele>
        <time>2020-07-21T06:22:56.000Z</time>
      </trkpt>
      <trkpt lat="42.8851668" lon="-5.6868273">
        <ele>1080.53</ele>
        <time>2020-07-21T06:22:57.000Z</time>
      </trkpt>
      <trkpt lat="42.8851758" lon="-5.6868152">
        <ele>1080.68</ele>
        <time>2020-07-21T06:22:58.000Z</time>
      </trkpt>
      <trkpt lat="42.8851828" lon="-5.6868035">
        <ele>1080.68</ele>
        <time>2020-07-21T06:22:59.000Z</time>
      </trkpt>
      <trkpt lat="42.8851902" lon="-5.686791">
        <ele>1080.83</ele>
        <time>2020-07-21T06:23:00.000Z</time>
      </trkpt>
      <trkpt lat="42.8851957" lon="-5.6867788">
        <ele>1080.83</ele>
        <time>2020-07-21T06:23:01.000Z</time>
      </trkpt>
      <trkpt lat="42.8852012" lon="-5.6867672">
        <ele>1080.99</ele>
        <time>2020-07-21T06:23:02.000Z</time>
      </trkpt>
      <trkpt lat="42.8852063" lon="-5.6867562">
        <ele>1080.99</ele>
        <time>2020-07-21T06:23:03.000Z</time>
      </trkpt>
      <trkpt lat="42.8852128" lon="-5.6867455">
        <ele>1081.14</ele>
        <time>2020-07-21T06:23:04.000Z</time>
      </trkpt>
      <trkpt lat="42.8852197" lon="-5.6867335">
        <ele>1081.14</ele>
        <time>2020-07-21T06:23:05.000Z</time>
      </trkpt>
      <trkpt lat="42.8852273" lon="-5.6867208">
        <ele>1081.29</ele>
        <time>2020-07-21T06:23:06.000Z</time>
      </trkpt>
      <trkpt lat="42.8852353" lon="-5.6867068">
        <ele>1081.29</ele>
        <time>2020-07-21T06:23:07.000Z</time>
      </trkpt>
      <trkpt lat="42.8852432" lon="-5.686693">
        <ele>1081.44</ele>
        <time>2020-07-21T06:23:08.000Z</time>
      </trkpt>
      <trkpt lat="42.885251" lon="-5.6866795">
        <ele>1081.44</ele>
        <time>2020-07-21T06:23:09.000Z</time>
      </trkpt>
      <trkpt lat="42.885259" lon="-5.6866663">
        <ele>1081.6</ele>
        <time>2020-07-21T06:23:10.000Z</time>
      </trkpt>
      <trkpt lat="42.885267" lon="-5.6866533">
        <ele>1081.6</ele>
        <time>2020-07-21T06:23:11.000Z</time>
      </trkpt>
      <trkpt lat="42.8852757" lon="-5.6866402">
        <ele>1081.75</ele>
        <time>2020-07-21T06:23:12.000Z</time>
      </trkpt>
      <trkpt lat="42.8852837" lon="-5.6866277">
        <ele>1081.75</ele>
        <time>2020-07-21T06:23:13.000Z</time>
      </trkpt>
      <trkpt lat="42.8852912" lon="-5.6866158">
        <ele>1081.9</ele>
        <time>2020-07-21T06:23:14.000Z</time>
      </trkpt>
      <trkpt lat="42.8852983" lon="-5.6866038">
        <ele>1081.9</ele>
        <time>2020-07-21T06:23:15.000Z</time>
      </trkpt>
      <trkpt lat="42.8853045" lon="-5.6865913">
        <ele>1082.05</ele>
        <time>2020-07-21T06:23:16.000Z</time>
      </trkpt>
      <trkpt lat="42.8853098" lon="-5.686579">
        <ele>1082.05</ele>
        <time>2020-07-21T06:23:17.000Z</time>
      </trkpt>
      <trkpt lat="42.8853132" lon="-5.6865668">
        <ele>1082.21</ele>
        <time>2020-07-21T06:23:18.000Z</time>
      </trkpt>
      <trkpt lat="42.8853183" lon="-5.6865547">
        <ele>1082.21</ele>
        <time>2020-07-21T06:23:19.000Z</time>
      </trkpt>
      <trkpt lat="42.8853255" lon="-5.6865425">
        <ele>1082.36</ele>
        <time>2020-07-21T06:23:20.000Z</time>
      </trkpt>
      <trkpt lat="42.8853342" lon="-5.6865302">
        <ele>1082.36</ele>
        <time>2020-07-21T06:23:21.000Z</time>
      </trkpt>
      <trkpt lat="42.8853415" lon="-5.686518">
        <ele>1082.36</ele>
        <time>2020-07-21T06:23:22.000Z</time>
      </trkpt>
      <trkpt lat="42.8853477" lon="-5.6865057">
        <ele>1082.36</ele>
        <time>2020-07-21T06:23:23.000Z</time>
      </trkpt>
      <trkpt lat="42.8853538" lon="-5.686493">
        <ele>1082.51</ele>
        <time>2020-07-21T06:23:24.000Z</time>
      </trkpt>
      <trkpt lat="42.8853603" lon="-5.6864805">
        <ele>1082.51</ele>
        <time>2020-07-21T06:23:25.000Z</time>
      </trkpt>
      <trkpt lat="42.8853675" lon="-5.6864677">
        <ele>1082.66</ele>
        <time>2020-07-21T06:23:26.000Z</time>
      </trkpt>
      <trkpt lat="42.8853748" lon="-5.6864542">
        <ele>1082.66</ele>
        <time>2020-07-21T06:23:27.000Z</time>
      </trkpt>
      <trkpt lat="42.8853832" lon="-5.6864398">
        <ele>1082.81</ele>
        <time>2020-07-21T06:23:28.000Z</time>
      </trkpt>
      <trkpt lat="42.8853907" lon="-5.6864257">
        <ele>1082.81</ele>
        <time>2020-07-21T06:23:29.000Z</time>
      </trkpt>
      <trkpt lat="42.8853995" lon="-5.6864122">
        <ele>1082.97</ele>
        <time>2020-07-21T06:23:30.000Z</time>
      </trkpt>
      <trkpt lat="42.8854083" lon="-5.6863992">
        <ele>1082.97</ele>
        <time>2020-07-21T06:23:31.000Z</time>
      </trkpt>
      <trkpt lat="42.8854173" lon="-5.6863862">
        <ele>1083.12</ele>
        <time>2020-07-21T06:23:32.000Z</time>
      </trkpt>
      <trkpt lat="42.8854253" lon="-5.6863725">
        <ele>1083.12</ele>
        <time>2020-07-21T06:23:33.000Z</time>
      </trkpt>
      <trkpt lat="42.8854322" lon="-5.6863592">
        <ele>1083.27</ele>
        <time>2020-07-21T06:23:34.000Z</time>
      </trkpt>
      <trkpt lat="42.8854383" lon="-5.6863457">
        <ele>1083.27</ele>
        <time>2020-07-21T06:23:35.000Z</time>
      </trkpt>
      <trkpt lat="42.8854442" lon="-5.6863327">
        <ele>1083.43</ele>
        <time>2020-07-21T06:23:36.000Z</time>
      </trkpt>
      <trkpt lat="42.8854493" lon="-5.6863198">
        <ele>1083.43</ele>
        <time>2020-07-21T06:23:37.000Z</time>
      </trkpt>
      <trkpt lat="42.8854547" lon="-5.686307">
        <ele>1083.73</ele>
        <time>2020-07-21T06:23:38.000Z</time>
      </trkpt>
      <trkpt lat="42.8854602" lon="-5.686294">
        <ele>1083.73</ele>
        <time>2020-07-21T06:23:39.000Z</time>
      </trkpt>
      <trkpt lat="42.8854663" lon="-5.6862807">
        <ele>1083.88</ele>
        <time>2020-07-21T06:23:40.000Z</time>
      </trkpt>
      <trkpt lat="42.8854735" lon="-5.6862675">
        <ele>1083.88</ele>
        <time>2020-07-21T06:23:41.000Z</time>
      </trkpt>
      <trkpt lat="42.8854808" lon="-5.6862543">
        <ele>1084.03</ele>
        <time>2020-07-21T06:23:42.000Z</time>
      </trkpt>
      <trkpt lat="42.8854888" lon="-5.6862407">
        <ele>1084.03</ele>
        <time>2020-07-21T06:23:43.000Z</time>
      </trkpt>
      <trkpt lat="42.8854968" lon="-5.6862262">
        <ele>1084.19</ele>
        <time>2020-07-21T06:23:44.000Z</time>
      </trkpt>
      <trkpt lat="42.8855048" lon="-5.686212">
        <ele>1084.19</ele>
        <time>2020-07-21T06:23:45.000Z</time>
      </trkpt>
      <trkpt lat="42.885512" lon="-5.686198">
        <ele>1084.49</ele>
        <time>2020-07-21T06:23:46.000Z</time>
      </trkpt>
      <trkpt lat="42.8855195" lon="-5.686185">
        <ele>1084.49</ele>
        <time>2020-07-21T06:23:47.000Z</time>
      </trkpt>
      <trkpt lat="42.885526" lon="-5.6861718">
        <ele>1084.64</ele>
        <time>2020-07-21T06:23:48.000Z</time>
      </trkpt>
      <trkpt lat="42.885533" lon="-5.6861582">
        <ele>1084.64</ele>
        <time>2020-07-21T06:23:49.000Z</time>
      </trkpt>
      <trkpt lat="42.885539" lon="-5.6861448">
        <ele>1084.8</ele>
        <time>2020-07-21T06:23:50.000Z</time>
      </trkpt>
      <trkpt lat="42.885545" lon="-5.6861315">
        <ele>1084.8</ele>
        <time>2020-07-21T06:23:51.000Z</time>
      </trkpt>
      <trkpt lat="42.8855518" lon="-5.6861182">
        <ele>1084.95</ele>
        <time>2020-07-21T06:23:52.000Z</time>
      </trkpt>
      <trkpt lat="42.8855583" lon="-5.6861047">
        <ele>1084.95</ele>
        <time>2020-07-21T06:23:53.000Z</time>
      </trkpt>
      <trkpt lat="42.885566" lon="-5.6860913">
        <ele>1085.25</ele>
        <time>2020-07-21T06:23:54.000Z</time>
      </trkpt>
      <trkpt lat="42.885573" lon="-5.6860783">
        <ele>1085.25</ele>
        <time>2020-07-21T06:23:55.000Z</time>
      </trkpt>
      <trkpt lat="42.8855812" lon="-5.6860645">
        <ele>1085.41</ele>
        <time>2020-07-21T06:23:56.000Z</time>
      </trkpt>
      <trkpt lat="42.8855892" lon="-5.68605">
        <ele>1085.41</ele>
        <time>2020-07-21T06:23:57.000Z</time>
      </trkpt>
      <trkpt lat="42.8855965" lon="-5.6860357">
        <ele>1085.56</ele>
        <time>2020-07-21T06:23:58.000Z</time>
      </trkpt>
      <trkpt lat="42.8856045" lon="-5.6860213">
        <ele>1085.56</ele>
        <time>2020-07-21T06:23:59.000Z</time>
      </trkpt>
      <trkpt lat="42.8856122" lon="-5.6860078">
        <ele>1085.71</ele>
        <time>2020-07-21T06:24:00.000Z</time>
      </trkpt>
      <trkpt lat="42.8856197" lon="-5.6859935">
        <ele>1085.71</ele>
        <time>2020-07-21T06:24:01.000Z</time>
      </trkpt>
      <trkpt lat="42.8856245" lon="-5.6859792">
        <ele>1086.02</ele>
        <time>2020-07-21T06:24:02.000Z</time>
      </trkpt>
      <trkpt lat="42.8856313" lon="-5.6859627">
        <ele>1086.02</ele>
        <time>2020-07-21T06:24:03.000Z</time>
      </trkpt>
      <trkpt lat="42.885639" lon="-5.6859465">
        <ele>1086.17</ele>
        <time>2020-07-21T06:24:04.000Z</time>
      </trkpt>
      <trkpt lat="42.885649" lon="-5.6859298">
        <ele>1086.17</ele>
        <time>2020-07-21T06:24:05.000Z</time>
      </trkpt>
      <trkpt lat="42.8856568" lon="-5.6859143">
        <ele>1086.47</ele>
        <time>2020-07-21T06:24:06.000Z</time>
      </trkpt>
      <trkpt lat="42.885664" lon="-5.6858987">
        <ele>1086.47</ele>
        <time>2020-07-21T06:24:07.000Z</time>
      </trkpt>
      <trkpt lat="42.8856713" lon="-5.6858823">
        <ele>1086.62</ele>
        <time>2020-07-21T06:24:08.000Z</time>
      </trkpt>
      <trkpt lat="42.8856778" lon="-5.6858655">
        <ele>1086.62</ele>
        <time>2020-07-21T06:24:09.000Z</time>
      </trkpt>
      <trkpt lat="42.8856835" lon="-5.6858497">
        <ele>1086.93</ele>
        <time>2020-07-21T06:24:10.000Z</time>
      </trkpt>
      <trkpt lat="42.8856872" lon="-5.6858333">
        <ele>1086.93</ele>
        <time>2020-07-21T06:24:11.000Z</time>
      </trkpt>
      <trkpt lat="42.8856907" lon="-5.685817">
        <ele>1087.08</ele>
        <time>2020-07-21T06:24:12.000Z</time>
      </trkpt>
      <trkpt lat="42.8856925" lon="-5.6858">
        <ele>1087.08</ele>
        <time>2020-07-21T06:24:13.000Z</time>
      </trkpt>
      <trkpt lat="42.8856935" lon="-5.6857835">
        <ele>1087.39</ele>
        <time>2020-07-21T06:24:14.000Z</time>
      </trkpt>
      <trkpt lat="42.8856938" lon="-5.6857677">
        <ele>1087.39</ele>
        <time>2020-07-21T06:24:15.000Z</time>
      </trkpt>
      <trkpt lat="42.8856948" lon="-5.6857512">
        <ele>1087.69</ele>
        <time>2020-07-21T06:24:16.000Z</time>
      </trkpt>
      <trkpt lat="42.8856967" lon="-5.6857345">
        <ele>1087.69</ele>
        <time>2020-07-21T06:24:17.000Z</time>
      </trkpt>
      <trkpt lat="42.8856978" lon="-5.6857183">
        <ele>1087.84</ele>
        <time>2020-07-21T06:24:18.000Z</time>
      </trkpt>
      <trkpt lat="42.885698" lon="-5.6857027">
        <ele>1087.84</ele>
        <time>2020-07-21T06:24:19.000Z</time>
      </trkpt>
      <trkpt lat="42.8856945" lon="-5.6856867">
        <ele>1088.15</ele>
        <time>2020-07-21T06:24:20.000Z</time>
      </trkpt>
      <trkpt lat="42.8856918" lon="-5.6856707">
        <ele>1088.15</ele>
        <time>2020-07-21T06:24:21.000Z</time>
      </trkpt>
      <trkpt lat="42.8856902" lon="-5.6856542">
        <ele>1088.3</ele>
        <time>2020-07-21T06:24:22.000Z</time>
      </trkpt>
      <trkpt lat="42.8856902" lon="-5.6856362">
        <ele>1088.3</ele>
        <time>2020-07-21T06:24:23.000Z</time>
      </trkpt>
      <trkpt lat="42.8856918" lon="-5.6856183">
        <ele>1088.45</ele>
        <time>2020-07-21T06:24:24.000Z</time>
      </trkpt>
      <trkpt lat="42.8856948" lon="-5.6856002">
        <ele>1088.45</ele>
        <time>2020-07-21T06:24:25.000Z</time>
      </trkpt>
      <trkpt lat="42.8857007" lon="-5.6855847">
        <ele>1088.76</ele>
        <time>2020-07-21T06:24:26.000Z</time>
      </trkpt>
      <trkpt lat="42.8857072" lon="-5.68557">
        <ele>1088.76</ele>
        <time>2020-07-21T06:24:27.000Z</time>
      </trkpt>
      <trkpt lat="42.8857152" lon="-5.685557">
        <ele>1088.91</ele>
        <time>2020-07-21T06:24:28.000Z</time>
      </trkpt>
      <trkpt lat="42.8857237" lon="-5.685545">
        <ele>1088.91</ele>
        <time>2020-07-21T06:24:29.000Z</time>
      </trkpt>
      <trkpt lat="42.8857313" lon="-5.6855322">
        <ele>1089.06</ele>
        <time>2020-07-21T06:24:30.000Z</time>
      </trkpt>
      <trkpt lat="42.8857385" lon="-5.685519">
        <ele>1089.06</ele>
        <time>2020-07-21T06:24:31.000Z</time>
      </trkpt>
      <trkpt lat="42.8857462" lon="-5.6855058">
        <ele>1089.22</ele>
        <time>2020-07-21T06:24:32.000Z</time>
      </trkpt>
      <trkpt lat="42.8857537" lon="-5.685493">
        <ele>1089.22</ele>
        <time>2020-07-21T06:24:33.000Z</time>
      </trkpt>
      <trkpt lat="42.8857607" lon="-5.685481">
        <ele>1089.37</ele>
        <time>2020-07-21T06:24:34.000Z</time>
      </trkpt>
      <trkpt lat="42.8857678" lon="-5.6854693">
        <ele>1089.37</ele>
        <time>2020-07-21T06:24:35.000Z</time>
      </trkpt>
      <trkpt lat="42.8857768" lon="-5.6854578">
        <ele>1089.52</ele>
        <time>2020-07-21T06:24:36.000Z</time>
      </trkpt>
      <trkpt lat="42.885787" lon="-5.6854465">
        <ele>1089.52</ele>
        <time>2020-07-21T06:24:37.000Z</time>
      </trkpt>
      <trkpt lat="42.885797" lon="-5.6854357">
        <ele>1089.67</ele>
        <time>2020-07-21T06:24:38.000Z</time>
      </trkpt>
      <trkpt lat="42.8858062" lon="-5.6854257">
        <ele>1089.67</ele>
        <time>2020-07-21T06:24:39.000Z</time>
      </trkpt>
      <trkpt lat="42.8858143" lon="-5.6854157">
        <ele>1089.83</ele>
        <time>2020-07-21T06:24:40.000Z</time>
      </trkpt>
      <trkpt lat="42.8858228" lon="-5.6854057">
        <ele>1089.83</ele>
        <time>2020-07-21T06:24:41.000Z</time>
      </trkpt>
      <trkpt lat="42.8858317" lon="-5.6853958">
        <ele>1089.98</ele>
        <time>2020-07-21T06:24:42.000Z</time>
      </trkpt>
      <trkpt lat="42.8858405" lon="-5.6853857">
        <ele>1089.98</ele>
        <time>2020-07-21T06:24:43.000Z</time>
      </trkpt>
      <trkpt lat="42.8858478" lon="-5.6853758">
        <ele>1089.98</ele>
        <time>2020-07-21T06:24:44.000Z</time>
      </trkpt>
      <trkpt lat="42.8858543" lon="-5.685366">
        <ele>1089.98</ele>
        <time>2020-07-21T06:24:45.000Z</time>
      </trkpt>
      <trkpt lat="42.8858605" lon="-5.6853567">
        <ele>1090.13</ele>
        <time>2020-07-21T06:24:46.000Z</time>
      </trkpt>
      <trkpt lat="42.8858677" lon="-5.6853472">
        <ele>1090.13</ele>
        <time>2020-07-21T06:24:47.000Z</time>
      </trkpt>
      <trkpt lat="42.8858767" lon="-5.6853373">
        <ele>1090.28</ele>
        <time>2020-07-21T06:24:48.000Z</time>
      </trkpt>
      <trkpt lat="42.885886" lon="-5.6853282">
        <ele>1090.28</ele>
        <time>2020-07-21T06:24:49.000Z</time>
      </trkpt>
      <trkpt lat="42.8858955" lon="-5.685319">
        <ele>1090.44</ele>
        <time>2020-07-21T06:24:50.000Z</time>
      </trkpt>
      <trkpt lat="42.8859047" lon="-5.6853102">
        <ele>1090.44</ele>
        <time>2020-07-21T06:24:51.000Z</time>
      </trkpt>
      <trkpt lat="42.8859137" lon="-5.6853008">
        <ele>1090.59</ele>
        <time>2020-07-21T06:24:52.000Z</time>
      </trkpt>
      <trkpt lat="42.8859228" lon="-5.6852905">
        <ele>1090.59</ele>
        <time>2020-07-21T06:24:53.000Z</time>
      </trkpt>
      <trkpt lat="42.8859317" lon="-5.6852803">
        <ele>1090.74</ele>
        <time>2020-07-21T06:24:54.000Z</time>
      </trkpt>
      <trkpt lat="42.8859428" lon="-5.6852708">
        <ele>1090.74</ele>
        <time>2020-07-21T06:24:55.000Z</time>
      </trkpt>
      <trkpt lat="42.8859547" lon="-5.6852628">
        <ele>1090.89</ele>
        <time>2020-07-21T06:24:56.000Z</time>
      </trkpt>
      <trkpt lat="42.885967" lon="-5.6852552">
        <ele>1090.89</ele>
        <time>2020-07-21T06:24:57.000Z</time>
      </trkpt>
      <trkpt lat="42.8859775" lon="-5.6852462">
        <ele>1091.05</ele>
        <time>2020-07-21T06:24:58.000Z</time>
      </trkpt>
      <trkpt lat="42.8859855" lon="-5.6852367">
        <ele>1091.05</ele>
        <time>2020-07-21T06:24:59.000Z</time>
      </trkpt>
      <trkpt lat="42.8859927" lon="-5.6852262">
        <ele>1091.2</ele>
        <time>2020-07-21T06:25:00.000Z</time>
      </trkpt>
      <trkpt lat="42.8859995" lon="-5.6852158">
        <ele>1091.2</ele>
        <time>2020-07-21T06:25:01.000Z</time>
      </trkpt>
      <trkpt lat="42.886007" lon="-5.685205">
        <ele>1091.35</ele>
        <time>2020-07-21T06:25:02.000Z</time>
      </trkpt>
      <trkpt lat="42.8860145" lon="-5.6851938">
        <ele>1091.35</ele>
        <time>2020-07-21T06:25:03.000Z</time>
      </trkpt>
      <trkpt lat="42.8860223" lon="-5.6851817">
        <ele>1091.5</ele>
        <time>2020-07-21T06:25:04.000Z</time>
      </trkpt>
      <trkpt lat="42.8860317" lon="-5.6851707">
        <ele>1091.5</ele>
        <time>2020-07-21T06:25:05.000Z</time>
      </trkpt>
      <trkpt lat="42.8860398" lon="-5.6851602">
        <ele>1091.65</ele>
        <time>2020-07-21T06:25:06.000Z</time>
      </trkpt>
      <trkpt lat="42.886049" lon="-5.6851503">
        <ele>1091.65</ele>
        <time>2020-07-21T06:25:07.000Z</time>
      </trkpt>
      <trkpt lat="42.8860582" lon="-5.6851392">
        <ele>1091.65</ele>
        <time>2020-07-21T06:25:08.000Z</time>
      </trkpt>
      <trkpt lat="42.886069" lon="-5.6851278">
        <ele>1091.65</ele>
        <time>2020-07-21T06:25:09.000Z</time>
      </trkpt>
      <trkpt lat="42.8860792" lon="-5.6851172">
        <ele>1091.81</ele>
        <time>2020-07-21T06:25:10.000Z</time>
      </trkpt>
      <trkpt lat="42.8860898" lon="-5.6851077">
        <ele>1091.81</ele>
        <time>2020-07-21T06:25:11.000Z</time>
      </trkpt>
      <trkpt lat="42.8861002" lon="-5.6850992">
        <ele>1091.81</ele>
        <time>2020-07-21T06:25:12.000Z</time>
      </trkpt>
      <trkpt lat="42.8861112" lon="-5.6850915">
        <ele>1091.81</ele>
        <time>2020-07-21T06:25:13.000Z</time>
      </trkpt>
      <trkpt lat="42.8861197" lon="-5.6850838">
        <ele>1091.81</ele>
        <time>2020-07-21T06:25:14.000Z</time>
      </trkpt>
      <trkpt lat="42.8861262" lon="-5.6850762">
        <ele>1091.81</ele>
        <time>2020-07-21T06:25:15.000Z</time>
      </trkpt>
      <trkpt lat="42.8861325" lon="-5.6850685">
        <ele>1091.81</ele>
        <time>2020-07-21T06:25:16.000Z</time>
      </trkpt>
      <trkpt lat="42.8861408" lon="-5.68506">
        <ele>1091.81</ele>
        <time>2020-07-21T06:25:17.000Z</time>
      </trkpt>
      <trkpt lat="42.8861525" lon="-5.685051">
        <ele>1091.81</ele>
        <time>2020-07-21T06:25:18.000Z</time>
      </trkpt>
      <trkpt lat="42.8861648" lon="-5.685042">
        <ele>1091.81</ele>
        <time>2020-07-21T06:25:19.000Z</time>
      </trkpt>
      <trkpt lat="42.886176" lon="-5.6850335">
        <ele>1091.96</ele>
        <time>2020-07-21T06:25:20.000Z</time>
      </trkpt>
      <trkpt lat="42.8861863" lon="-5.6850265">
        <ele>1091.96</ele>
        <time>2020-07-21T06:25:21.000Z</time>
      </trkpt>
      <trkpt lat="42.8861963" lon="-5.6850197">
        <ele>1091.96</ele>
        <time>2020-07-21T06:25:22.000Z</time>
      </trkpt>
      <trkpt lat="42.8862073" lon="-5.6850137">
        <ele>1091.96</ele>
        <time>2020-07-21T06:25:23.000Z</time>
      </trkpt>
      <trkpt lat="42.8862165" lon="-5.685008">
        <ele>1091.96</ele>
        <time>2020-07-21T06:25:24.000Z</time>
      </trkpt>
      <trkpt lat="42.886226" lon="-5.685003">
        <ele>1091.96</ele>
        <time>2020-07-21T06:25:25.000Z</time>
      </trkpt>
      <trkpt lat="42.8862348" lon="-5.6849988">
        <ele>1091.96</ele>
        <time>2020-07-21T06:25:26.000Z</time>
      </trkpt>
      <trkpt lat="42.886244" lon="-5.6849955">
        <ele>1091.96</ele>
        <time>2020-07-21T06:25:27.000Z</time>
      </trkpt>
      <trkpt lat="42.8862522" lon="-5.684992">
        <ele>1091.96</ele>
        <time>2020-07-21T06:25:28.000Z</time>
      </trkpt>
      <trkpt lat="42.8862603" lon="-5.6849878">
        <ele>1091.96</ele>
        <time>2020-07-21T06:25:29.000Z</time>
      </trkpt>
      <trkpt lat="42.8862705" lon="-5.684983">
        <ele>1091.96</ele>
        <time>2020-07-21T06:25:30.000Z</time>
      </trkpt>
      <trkpt lat="42.8862822" lon="-5.6849785">
        <ele>1091.96</ele>
        <time>2020-07-21T06:25:31.000Z</time>
      </trkpt>
      <trkpt lat="42.8862972" lon="-5.6849743">
        <ele>1092.11</ele>
        <time>2020-07-21T06:25:32.000Z</time>
      </trkpt>
      <trkpt lat="42.8863108" lon="-5.6849703">
        <ele>1092.11</ele>
        <time>2020-07-21T06:25:33.000Z</time>
      </trkpt>
      <trkpt lat="42.8863232" lon="-5.6849678">
        <ele>1092.11</ele>
        <time>2020-07-21T06:25:34.000Z</time>
      </trkpt>
      <trkpt lat="42.8863302" lon="-5.684966">
        <ele>1092.11</ele>
        <time>2020-07-21T06:25:35.000Z</time>
      </trkpt>
      <trkpt lat="42.8863337" lon="-5.6849657">
        <ele>1092.26</ele>
        <time>2020-07-21T06:25:36.000Z</time>
      </trkpt>
      <trkpt lat="42.8863357" lon="-5.684965">
        <ele>1092.26</ele>
        <time>2020-07-21T06:25:37.000Z</time>
      </trkpt>
      <trkpt lat="42.8863393" lon="-5.6849648">
        <ele>1092.42</ele>
        <time>2020-07-21T06:25:38.000Z</time>
      </trkpt>
      <trkpt lat="42.8863448" lon="-5.6849657">
        <ele>1092.42</ele>
        <time>2020-07-21T06:25:39.000Z</time>
      </trkpt>
      <trkpt lat="42.8863487" lon="-5.6849665">
        <ele>1092.42</ele>
        <time>2020-07-21T06:25:40.000Z</time>
      </trkpt>
      <trkpt lat="42.8863512" lon="-5.684968">
        <ele>1092.42</ele>
        <time>2020-07-21T06:25:41.000Z</time>
      </trkpt>
      <trkpt lat="42.8863518" lon="-5.6849683">
        <ele>1092.72</ele>
        <time>2020-07-21T06:25:42.000Z</time>
      </trkpt>
      <trkpt lat="42.8863517" lon="-5.6849673">
        <ele>1092.72</ele>
        <time>2020-07-21T06:25:43.000Z</time>
      </trkpt>
      <trkpt lat="42.886356" lon="-5.6849658">
        <ele>1092.87</ele>
        <time>2020-07-21T06:25:44.000Z</time>
      </trkpt>
      <trkpt lat="42.8863622" lon="-5.6849643">
        <ele>1092.87</ele>
        <time>2020-07-21T06:25:45.000Z</time>
      </trkpt>
      <trkpt lat="42.88637" lon="-5.6849638">
        <ele>1093.03</ele>
        <time>2020-07-21T06:25:46.000Z</time>
      </trkpt>
      <trkpt lat="42.8863743" lon="-5.6849632">
        <ele>1093.03</ele>
        <time>2020-07-21T06:25:47.000Z</time>
      </trkpt>
      <trkpt lat="42.886378" lon="-5.6849622">
        <ele>1093.33</ele>
        <time>2020-07-21T06:25:48.000Z</time>
      </trkpt>
      <trkpt lat="42.8863815" lon="-5.6849612">
        <ele>1093.33</ele>
        <time>2020-07-21T06:25:49.000Z</time>
      </trkpt>
      <trkpt lat="42.8863843" lon="-5.6849607">
        <ele>1093.48</ele>
        <time>2020-07-21T06:25:50.000Z</time>
      </trkpt>
      <trkpt lat="42.8863867" lon="-5.6849607">
        <ele>1093.48</ele>
        <time>2020-07-21T06:25:51.000Z</time>
      </trkpt>
      <trkpt lat="42.8863888" lon="-5.684961">
        <ele>1093.64</ele>
        <time>2020-07-21T06:25:52.000Z</time>
      </trkpt>
      <trkpt lat="42.886391" lon="-5.6849612">
        <ele>1093.64</ele>
        <time>2020-07-21T06:25:53.000Z</time>
      </trkpt>
      <trkpt lat="42.8863933" lon="-5.6849612">
        <ele>1093.79</ele>
        <time>2020-07-21T06:25:54.000Z</time>
      </trkpt>
      <trkpt lat="42.886396" lon="-5.6849608">
        <ele>1093.79</ele>
        <time>2020-07-21T06:25:55.000Z</time>
      </trkpt>
      <trkpt lat="42.8863983" lon="-5.6849603">
        <ele>1093.94</ele>
        <time>2020-07-21T06:25:56.000Z</time>
      </trkpt>
      <trkpt lat="42.8864003" lon="-5.6849597">
        <ele>1093.94</ele>
        <time>2020-07-21T06:25:57.000Z</time>
      </trkpt>
      <trkpt lat="42.8864018" lon="-5.6849592">
        <ele>1094.09</ele>
        <time>2020-07-21T06:25:58.000Z</time>
      </trkpt>
      <trkpt lat="42.8864028" lon="-5.6849588">
        <ele>1094.09</ele>
        <time>2020-07-21T06:25:59.000Z</time>
      </trkpt>
      <trkpt lat="42.8864037" lon="-5.6849588">
        <ele>1094.09</ele>
        <time>2020-07-21T06:26:00.000Z</time>
      </trkpt>
      <trkpt lat="42.886404" lon="-5.6849588">
        <ele>1094.09</ele>
        <time>2020-07-21T06:26:01.000Z</time>
      </trkpt>
      <trkpt lat="42.8864042" lon="-5.6849592">
        <ele>1094.24</ele>
        <time>2020-07-21T06:26:02.000Z</time>
      </trkpt>
      <trkpt lat="42.8864038" lon="-5.6849593">
        <ele>1094.24</ele>
        <time>2020-07-21T06:26:03.000Z</time>
      </trkpt>
      <trkpt lat="42.8864035" lon="-5.6849597">
        <ele>1094.24</ele>
        <time>2020-07-21T06:26:04.000Z</time>
      </trkpt>
      <trkpt lat="42.8864028" lon="-5.6849598">
        <ele>1094.24</ele>
        <time>2020-07-21T06:26:05.000Z</time>
      </trkpt>
      <trkpt lat="42.8864022" lon="-5.6849602">
        <ele>1094.4</ele>
        <time>2020-07-21T06:26:06.000Z</time>
      </trkpt>
      <trkpt lat="42.8864017" lon="-5.6849607">
        <ele>1094.4</ele>
        <time>2020-07-21T06:26:07.000Z</time>
      </trkpt>
      <trkpt lat="42.8864015" lon="-5.684961">
        <ele>1094.4</ele>
        <time>2020-07-21T06:26:08.000Z</time>
      </trkpt>
      <trkpt lat="42.8864015" lon="-5.6849615">
        <ele>1094.4</ele>
        <time>2020-07-21T06:26:09.000Z</time>
      </trkpt>
      <trkpt lat="42.8864012" lon="-5.6849622">
        <ele>1094.55</ele>
        <time>2020-07-21T06:26:10.000Z</time>
      </trkpt>
      <trkpt lat="42.8864012" lon="-5.6849635">
        <ele>1094.55</ele>
        <time>2020-07-21T06:26:11.000Z</time>
      </trkpt>
      <trkpt lat="42.886401" lon="-5.6849647">
        <ele>1094.55</ele>
        <time>2020-07-21T06:26:12.000Z</time>
      </trkpt>
      <trkpt lat="42.8864012" lon="-5.6849653">
        <ele>1094.55</ele>
        <time>2020-07-21T06:26:13.000Z</time>
      </trkpt>
      <trkpt lat="42.8864013" lon="-5.6849652">
        <ele>1094.7</ele>
        <time>2020-07-21T06:26:14.000Z</time>
      </trkpt>
      <trkpt lat="42.8864015" lon="-5.6849645">
        <ele>1094.7</ele>
        <time>2020-07-21T06:26:15.000Z</time>
      </trkpt>
      <trkpt lat="42.886402" lon="-5.6849645">
        <ele>1094.85</ele>
        <time>2020-07-21T06:26:16.000Z</time>
      </trkpt>
      <trkpt lat="42.8864007" lon="-5.6849653">
        <ele>1094.85</ele>
        <time>2020-07-21T06:26:17.000Z</time>
      </trkpt>
      <trkpt lat="42.8863985" lon="-5.6849667">
        <ele>1095.01</ele>
        <time>2020-07-21T06:26:18.000Z</time>
      </trkpt>
      <trkpt lat="42.8863953" lon="-5.6849673">
        <ele>1095.01</ele>
        <time>2020-07-21T06:26:19.000Z</time>
      </trkpt>
      <trkpt lat="42.8863938" lon="-5.6849667">
        <ele>1095.16</ele>
        <time>2020-07-21T06:26:20.000Z</time>
      </trkpt>
      <trkpt lat="42.8863935" lon="-5.6849653">
        <ele>1095.16</ele>
        <time>2020-07-21T06:26:21.000Z</time>
      </trkpt>
      <trkpt lat="42.8863952" lon="-5.6849643">
        <ele>1095.31</ele>
        <time>2020-07-21T06:26:22.000Z</time>
      </trkpt>
      <trkpt lat="42.8863982" lon="-5.6849632">
        <ele>1095.31</ele>
        <time>2020-07-21T06:26:23.000Z</time>
      </trkpt>
      <trkpt lat="42.8864025" lon="-5.6849625">
        <ele>1095.46</ele>
        <time>2020-07-21T06:26:24.000Z</time>
      </trkpt>
      <trkpt lat="42.8864088" lon="-5.6849607">
        <ele>1095.46</ele>
        <time>2020-07-21T06:26:25.000Z</time>
      </trkpt>
      <trkpt lat="42.8864152" lon="-5.6849588">
        <ele>1095.62</ele>
        <time>2020-07-21T06:26:26.000Z</time>
      </trkpt>
      <trkpt lat="42.8864223" lon="-5.6849572">
        <ele>1095.62</ele>
        <time>2020-07-21T06:26:27.000Z</time>
      </trkpt>
      <trkpt lat="42.8864283" lon="-5.6849557">
        <ele>1095.77</ele>
        <time>2020-07-21T06:26:28.000Z</time>
      </trkpt>
      <trkpt lat="42.886437" lon="-5.6849542">
        <ele>1095.77</ele>
        <time>2020-07-21T06:26:29.000Z</time>
      </trkpt>
      <trkpt lat="42.8864468" lon="-5.6849532">
        <ele>1095.92</ele>
        <time>2020-07-21T06:26:30.000Z</time>
      </trkpt>
      <trkpt lat="42.8864577" lon="-5.6849518">
        <ele>1095.92</ele>
        <time>2020-07-21T06:26:31.000Z</time>
      </trkpt>
      <trkpt lat="42.8864675" lon="-5.68495">
        <ele>1096.07</ele>
        <time>2020-07-21T06:26:32.000Z</time>
      </trkpt>
      <trkpt lat="42.886477" lon="-5.6849468">
        <ele>1096.07</ele>
        <time>2020-07-21T06:26:33.000Z</time>
      </trkpt>
      <trkpt lat="42.8864872" lon="-5.684943">
        <ele>1096.23</ele>
        <time>2020-07-21T06:26:34.000Z</time>
      </trkpt>
      <trkpt lat="42.8864973" lon="-5.6849387">
        <ele>1096.23</ele>
        <time>2020-07-21T06:26:35.000Z</time>
      </trkpt>
      <trkpt lat="42.8865077" lon="-5.6849347">
        <ele>1096.38</ele>
        <time>2020-07-21T06:26:36.000Z</time>
      </trkpt>
      <trkpt lat="42.8865177" lon="-5.6849303">
        <ele>1096.38</ele>
        <time>2020-07-21T06:26:37.000Z</time>
      </trkpt>
      <trkpt lat="42.886528" lon="-5.6849258">
        <ele>1096.68</ele>
        <time>2020-07-21T06:26:38.000Z</time>
      </trkpt>
      <trkpt lat="42.8865365" lon="-5.6849207">
        <ele>1096.68</ele>
        <time>2020-07-21T06:26:39.000Z</time>
      </trkpt>
      <trkpt lat="42.8865437" lon="-5.684916">
        <ele>1096.84</ele>
        <time>2020-07-21T06:26:40.000Z</time>
      </trkpt>
      <trkpt lat="42.8865495" lon="-5.6849105">
        <ele>1096.84</ele>
        <time>2020-07-21T06:26:41.000Z</time>
      </trkpt>
      <trkpt lat="42.8865595" lon="-5.6849063">
        <ele>1096.99</ele>
        <time>2020-07-21T06:26:42.000Z</time>
      </trkpt>
      <trkpt lat="42.8865705" lon="-5.684902">
        <ele>1096.99</ele>
        <time>2020-07-21T06:26:43.000Z</time>
      </trkpt>
      <trkpt lat="42.8865822" lon="-5.6848988">
        <ele>1097.29</ele>
        <time>2020-07-21T06:26:44.000Z</time>
      </trkpt>
      <trkpt lat="42.8865918" lon="-5.6848948">
        <ele>1097.29</ele>
        <time>2020-07-21T06:26:45.000Z</time>
      </trkpt>
      <trkpt lat="42.8866012" lon="-5.6848902">
        <ele>1097.6</ele>
        <time>2020-07-21T06:26:46.000Z</time>
      </trkpt>
      <trkpt lat="42.8866125" lon="-5.6848855">
        <ele>1097.6</ele>
        <time>2020-07-21T06:26:47.000Z</time>
      </trkpt>
      <trkpt lat="42.8866227" lon="-5.6848808">
        <ele>1097.75</ele>
        <time>2020-07-21T06:26:48.000Z</time>
      </trkpt>
      <trkpt lat="42.8866347" lon="-5.684877">
        <ele>1097.75</ele>
        <time>2020-07-21T06:26:49.000Z</time>
      </trkpt>
      <trkpt lat="42.8866455" lon="-5.6848732">
        <ele>1098.06</ele>
        <time>2020-07-21T06:26:50.000Z</time>
      </trkpt>
      <trkpt lat="42.8866568" lon="-5.6848693">
        <ele>1098.06</ele>
        <time>2020-07-21T06:26:51.000Z</time>
      </trkpt>
      <trkpt lat="42.886668" lon="-5.6848647">
        <ele>1098.36</ele>
        <time>2020-07-21T06:26:52.000Z</time>
      </trkpt>
      <trkpt lat="42.8866797" lon="-5.6848583">
        <ele>1098.36</ele>
        <time>2020-07-21T06:26:53.000Z</time>
      </trkpt>
      <trkpt lat="42.8866927" lon="-5.6848498">
        <ele>1098.82</ele>
        <time>2020-07-21T06:26:54.000Z</time>
      </trkpt>
      <trkpt lat="42.8867055" lon="-5.6848393">
        <ele>1098.82</ele>
        <time>2020-07-21T06:26:55.000Z</time>
      </trkpt>
      <trkpt lat="42.886718" lon="-5.6848283">
        <ele>1099.12</ele>
        <time>2020-07-21T06:26:56.000Z</time>
      </trkpt>
      <trkpt lat="42.8867315" lon="-5.6848173">
        <ele>1099.12</ele>
        <time>2020-07-21T06:26:57.000Z</time>
      </trkpt>
      <trkpt lat="42.886744" lon="-5.6848057">
        <ele>1099.43</ele>
        <time>2020-07-21T06:26:58.000Z</time>
      </trkpt>
      <trkpt lat="42.8867567" lon="-5.6847937">
        <ele>1099.43</ele>
        <time>2020-07-21T06:26:59.000Z</time>
      </trkpt>
      <trkpt lat="42.8867695" lon="-5.6847817">
        <ele>1099.73</ele>
        <time>2020-07-21T06:27:00.000Z</time>
      </trkpt>
      <trkpt lat="42.8867825" lon="-5.6847712">
        <ele>1099.73</ele>
        <time>2020-07-21T06:27:01.000Z</time>
      </trkpt>
      <trkpt lat="42.8867953" lon="-5.6847618">
        <ele>1100.04</ele>
        <time>2020-07-21T06:27:02.000Z</time>
      </trkpt>
      <trkpt lat="42.886806" lon="-5.6847518">
        <ele>1100.04</ele>
        <time>2020-07-21T06:27:03.000Z</time>
      </trkpt>
      <trkpt lat="42.8868167" lon="-5.6847415">
        <ele>1100.34</ele>
        <time>2020-07-21T06:27:04.000Z</time>
      </trkpt>
      <trkpt lat="42.8868263" lon="-5.6847312">
        <ele>1100.34</ele>
        <time>2020-07-21T06:27:05.000Z</time>
      </trkpt>
      <trkpt lat="42.8868377" lon="-5.684721">
        <ele>1100.65</ele>
        <time>2020-07-21T06:27:06.000Z</time>
      </trkpt>
      <trkpt lat="42.8868485" lon="-5.6847113">
        <ele>1100.65</ele>
        <time>2020-07-21T06:27:07.000Z</time>
      </trkpt>
      <trkpt lat="42.8868605" lon="-5.6847002">
        <ele>1100.95</ele>
        <time>2020-07-21T06:27:08.000Z</time>
      </trkpt>
      <trkpt lat="42.8868715" lon="-5.6846888">
        <ele>1100.95</ele>
        <time>2020-07-21T06:27:09.000Z</time>
      </trkpt>
      <trkpt lat="42.8868835" lon="-5.6846758">
        <ele>1101.26</ele>
        <time>2020-07-21T06:27:10.000Z</time>
      </trkpt>
      <trkpt lat="42.8868948" lon="-5.6846633">
        <ele>1101.26</ele>
        <time>2020-07-21T06:27:11.000Z</time>
      </trkpt>
      <trkpt lat="42.8869062" lon="-5.6846515">
        <ele>1101.56</ele>
        <time>2020-07-21T06:27:12.000Z</time>
      </trkpt>
      <trkpt lat="42.8869232" lon="-5.6846393">
        <ele>1101.56</ele>
        <time>2020-07-21T06:27:13.000Z</time>
      </trkpt>
      <trkpt lat="42.8869408" lon="-5.6846263">
        <ele>1101.71</ele>
        <time>2020-07-21T06:27:14.000Z</time>
      </trkpt>
      <trkpt lat="42.8869577" lon="-5.6846133">
        <ele>1101.71</ele>
        <time>2020-07-21T06:27:15.000Z</time>
      </trkpt>
      <trkpt lat="42.8869692" lon="-5.6846037">
        <ele>1101.86</ele>
        <time>2020-07-21T06:27:16.000Z</time>
      </trkpt>
      <trkpt lat="42.8869777" lon="-5.6845938">
        <ele>1101.86</ele>
        <time>2020-07-21T06:27:17.000Z</time>
      </trkpt>
      <trkpt lat="42.886985" lon="-5.6845847">
        <ele>1102.02</ele>
        <time>2020-07-21T06:27:18.000Z</time>
      </trkpt>
      <trkpt lat="42.88699" lon="-5.6845735">
        <ele>1102.02</ele>
        <time>2020-07-21T06:27:19.000Z</time>
      </trkpt>
      <trkpt lat="42.8869955" lon="-5.6845637">
        <ele>1102.17</ele>
        <time>2020-07-21T06:27:20.000Z</time>
      </trkpt>
      <trkpt lat="42.887" lon="-5.6845533">
        <ele>1102.17</ele>
        <time>2020-07-21T06:27:21.000Z</time>
      </trkpt>
      <trkpt lat="42.8870053" lon="-5.6845425">
        <ele>1102.32</ele>
        <time>2020-07-21T06:27:22.000Z</time>
      </trkpt>
      <trkpt lat="42.8870115" lon="-5.6845308">
        <ele>1102.32</ele>
        <time>2020-07-21T06:27:23.000Z</time>
      </trkpt>
      <trkpt lat="42.8870197" lon="-5.6845202">
        <ele>1102.47</ele>
        <time>2020-07-21T06:27:24.000Z</time>
      </trkpt>
      <trkpt lat="42.8870332" lon="-5.6845132">
        <ele>1102.47</ele>
        <time>2020-07-21T06:27:25.000Z</time>
      </trkpt>
      <trkpt lat="42.887047" lon="-5.6845073">
        <ele>1102.63</ele>
        <time>2020-07-21T06:27:26.000Z</time>
      </trkpt>
      <trkpt lat="42.8870627" lon="-5.6845017">
        <ele>1102.63</ele>
        <time>2020-07-21T06:27:27.000Z</time>
      </trkpt>
      <trkpt lat="42.8870728" lon="-5.6844933">
        <ele>1102.63</ele>
        <time>2020-07-21T06:27:28.000Z</time>
      </trkpt>
      <trkpt lat="42.8870828" lon="-5.6844858">
        <ele>1102.63</ele>
        <time>2020-07-21T06:27:29.000Z</time>
      </trkpt>
      <trkpt lat="42.8870907" lon="-5.6844792">
        <ele>1102.78</ele>
        <time>2020-07-21T06:27:30.000Z</time>
      </trkpt>
      <trkpt lat="42.8871013" lon="-5.6844732">
        <ele>1102.78</ele>
        <time>2020-07-21T06:27:31.000Z</time>
      </trkpt>
      <trkpt lat="42.8871133" lon="-5.6844667">
        <ele>1102.78</ele>
        <time>2020-07-21T06:27:32.000Z</time>
      </trkpt>
      <trkpt lat="42.887127" lon="-5.6844595">
        <ele>1102.78</ele>
        <time>2020-07-21T06:27:33.000Z</time>
      </trkpt>
      <trkpt lat="42.8871387" lon="-5.6844525">
        <ele>1102.78</ele>
        <time>2020-07-21T06:27:34.000Z</time>
      </trkpt>
      <trkpt lat="42.8871498" lon="-5.6844453">
        <ele>1102.78</ele>
        <time>2020-07-21T06:27:35.000Z</time>
      </trkpt>
      <trkpt lat="42.8871602" lon="-5.684438">
        <ele>1102.78</ele>
        <time>2020-07-21T06:27:36.000Z</time>
      </trkpt>
      <trkpt lat="42.8871703" lon="-5.6844305">
        <ele>1102.78</ele>
        <time>2020-07-21T06:27:37.000Z</time>
      </trkpt>
      <trkpt lat="42.8871805" lon="-5.6844235">
        <ele>1102.78</ele>
        <time>2020-07-21T06:27:38.000Z</time>
      </trkpt>
      <trkpt lat="42.88719" lon="-5.6844172">
        <ele>1102.78</ele>
        <time>2020-07-21T06:27:39.000Z</time>
      </trkpt>
      <trkpt lat="42.8871995" lon="-5.6844105">
        <ele>1102.93</ele>
        <time>2020-07-21T06:27:40.000Z</time>
      </trkpt>
      <trkpt lat="42.8872062" lon="-5.6844035">
        <ele>1102.93</ele>
        <time>2020-07-21T06:27:41.000Z</time>
      </trkpt>
      <trkpt lat="42.887212" lon="-5.6843967">
        <ele>1102.93</ele>
        <time>2020-07-21T06:27:42.000Z</time>
      </trkpt>
      <trkpt lat="42.887217" lon="-5.68439">
        <ele>1102.93</ele>
        <time>2020-07-21T06:27:43.000Z</time>
      </trkpt>
      <trkpt lat="42.8872242" lon="-5.6843832">
        <ele>1102.78</ele>
        <time>2020-07-21T06:27:44.000Z</time>
      </trkpt>
      <trkpt lat="42.887232" lon="-5.6843747">
        <ele>1102.78</ele>
        <time>2020-07-21T06:27:45.000Z</time>
      </trkpt>
      <trkpt lat="42.8872397" lon="-5.6843662">
        <ele>1102.78</ele>
        <time>2020-07-21T06:27:46.000Z</time>
      </trkpt>
      <trkpt lat="42.8872458" lon="-5.6843593">
        <ele>1102.78</ele>
        <time>2020-07-21T06:27:47.000Z</time>
      </trkpt>
      <trkpt lat="42.8872508" lon="-5.684353">
        <ele>1102.78</ele>
        <time>2020-07-21T06:27:48.000Z</time>
      </trkpt>
      <trkpt lat="42.8872595" lon="-5.6843472">
        <ele>1102.78</ele>
        <time>2020-07-21T06:27:49.000Z</time>
      </trkpt>
      <trkpt lat="42.8872712" lon="-5.684342">
        <ele>1102.78</ele>
        <time>2020-07-21T06:27:50.000Z</time>
      </trkpt>
      <trkpt lat="42.8872842" lon="-5.6843377">
        <ele>1102.78</ele>
        <time>2020-07-21T06:27:51.000Z</time>
      </trkpt>
      <trkpt lat="42.887294" lon="-5.684334">
        <ele>1102.78</ele>
        <time>2020-07-21T06:27:52.000Z</time>
      </trkpt>
      <trkpt lat="42.8873015" lon="-5.6843293">
        <ele>1102.78</ele>
        <time>2020-07-21T06:27:53.000Z</time>
      </trkpt>
      <trkpt lat="42.887308" lon="-5.6843248">
        <ele>1102.78</ele>
        <time>2020-07-21T06:27:54.000Z</time>
      </trkpt>
      <trkpt lat="42.887316" lon="-5.6843203">
        <ele>1102.78</ele>
        <time>2020-07-21T06:27:55.000Z</time>
      </trkpt>
      <trkpt lat="42.887327" lon="-5.684316">
        <ele>1102.78</ele>
        <time>2020-07-21T06:27:56.000Z</time>
      </trkpt>
      <trkpt lat="42.8873378" lon="-5.6843107">
        <ele>1102.78</ele>
        <time>2020-07-21T06:27:57.000Z</time>
      </trkpt>
      <trkpt lat="42.8873433" lon="-5.6843058">
        <ele>1102.78</ele>
        <time>2020-07-21T06:27:58.000Z</time>
      </trkpt>
      <trkpt lat="42.8873423" lon="-5.6843003">
        <ele>1102.78</ele>
        <time>2020-07-21T06:27:59.000Z</time>
      </trkpt>
      <trkpt lat="42.887343" lon="-5.6842952">
        <ele>1102.78</ele>
        <time>2020-07-21T06:28:00.000Z</time>
      </trkpt>
      <trkpt lat="42.8873448" lon="-5.6842893">
        <ele>1102.78</ele>
        <time>2020-07-21T06:28:01.000Z</time>
      </trkpt>
      <trkpt lat="42.8873512" lon="-5.6842837">
        <ele>1102.78</ele>
        <time>2020-07-21T06:28:02.000Z</time>
      </trkpt>
      <trkpt lat="42.8873558" lon="-5.6842778">
        <ele>1102.78</ele>
        <time>2020-07-21T06:28:03.000Z</time>
      </trkpt>
      <trkpt lat="42.8873612" lon="-5.6842715">
        <ele>1102.78</ele>
        <time>2020-07-21T06:28:04.000Z</time>
      </trkpt>
      <trkpt lat="42.8873653" lon="-5.6842648">
        <ele>1102.78</ele>
        <time>2020-07-21T06:28:05.000Z</time>
      </trkpt>
      <trkpt lat="42.887368" lon="-5.6842585">
        <ele>1102.78</ele>
        <time>2020-07-21T06:28:06.000Z</time>
      </trkpt>
      <trkpt lat="42.8873747" lon="-5.6842525">
        <ele>1102.78</ele>
        <time>2020-07-21T06:28:07.000Z</time>
      </trkpt>
      <trkpt lat="42.8873803" lon="-5.6842465">
        <ele>1102.78</ele>
        <time>2020-07-21T06:28:08.000Z</time>
      </trkpt>
      <trkpt lat="42.887386" lon="-5.68424">
        <ele>1102.78</ele>
        <time>2020-07-21T06:28:09.000Z</time>
      </trkpt>
      <trkpt lat="42.8873837" lon="-5.6842332">
        <ele>1102.78</ele>
        <time>2020-07-21T06:28:10.000Z</time>
      </trkpt>
      <trkpt lat="42.887383" lon="-5.6842263">
        <ele>1102.78</ele>
        <time>2020-07-21T06:28:11.000Z</time>
      </trkpt>
      <trkpt lat="42.8873833" lon="-5.6842193">
        <ele>1102.63</ele>
        <time>2020-07-21T06:28:12.000Z</time>
      </trkpt>
      <trkpt lat="42.8873875" lon="-5.6842117">
        <ele>1102.63</ele>
        <time>2020-07-21T06:28:13.000Z</time>
      </trkpt>
      <trkpt lat="42.8873927" lon="-5.6842033">
        <ele>1102.63</ele>
        <time>2020-07-21T06:28:14.000Z</time>
      </trkpt>
      <trkpt lat="42.8874022" lon="-5.6841952">
        <ele>1102.63</ele>
        <time>2020-07-21T06:28:15.000Z</time>
      </trkpt>
      <trkpt lat="42.8874133" lon="-5.6841873">
        <ele>1102.47</ele>
        <time>2020-07-21T06:28:16.000Z</time>
      </trkpt>
      <trkpt lat="42.8874242" lon="-5.6841808">
        <ele>1102.47</ele>
        <time>2020-07-21T06:28:17.000Z</time>
      </trkpt>
      <trkpt lat="42.8874297" lon="-5.684176">
        <ele>1102.32</ele>
        <time>2020-07-21T06:28:18.000Z</time>
      </trkpt>
      <trkpt lat="42.887436" lon="-5.6841725">
        <ele>1102.32</ele>
        <time>2020-07-21T06:28:19.000Z</time>
      </trkpt>
      <trkpt lat="42.8874413" lon="-5.6841677">
        <ele>1102.17</ele>
        <time>2020-07-21T06:28:20.000Z</time>
      </trkpt>
      <trkpt lat="42.8874495" lon="-5.6841612">
        <ele>1102.17</ele>
        <time>2020-07-21T06:28:21.000Z</time>
      </trkpt>
      <trkpt lat="42.8874585" lon="-5.6841543">
        <ele>1102.17</ele>
        <time>2020-07-21T06:28:22.000Z</time>
      </trkpt>
      <trkpt lat="42.8874677" lon="-5.6841485">
        <ele>1102.17</ele>
        <time>2020-07-21T06:28:23.000Z</time>
      </trkpt>
      <trkpt lat="42.8874767" lon="-5.6841438">
        <ele>1102.02</ele>
        <time>2020-07-21T06:28:24.000Z</time>
      </trkpt>
      <trkpt lat="42.8874833" lon="-5.6841403">
        <ele>1102.02</ele>
        <time>2020-07-21T06:28:25.000Z</time>
      </trkpt>
      <trkpt lat="42.8874888" lon="-5.6841362">
        <ele>1102.02</ele>
        <time>2020-07-21T06:28:26.000Z</time>
      </trkpt>
      <trkpt lat="42.887496" lon="-5.6841313">
        <ele>1102.02</ele>
        <time>2020-07-21T06:28:27.000Z</time>
      </trkpt>
      <trkpt lat="42.8875057" lon="-5.6841258">
        <ele>1102.02</ele>
        <time>2020-07-21T06:28:28.000Z</time>
      </trkpt>
      <trkpt lat="42.8875188" lon="-5.6841215">
        <ele>1102.02</ele>
        <time>2020-07-21T06:28:29.000Z</time>
      </trkpt>
      <trkpt lat="42.8875323" lon="-5.6841173">
        <ele>1102.17</ele>
        <time>2020-07-21T06:28:30.000Z</time>
      </trkpt>
      <trkpt lat="42.8875465" lon="-5.6841122">
        <ele>1102.17</ele>
        <time>2020-07-21T06:28:31.000Z</time>
      </trkpt>
      <trkpt lat="42.8875588" lon="-5.6841073">
        <ele>1102.17</ele>
        <time>2020-07-21T06:28:32.000Z</time>
      </trkpt>
      <trkpt lat="42.8875717" lon="-5.6841033">
        <ele>1102.17</ele>
        <time>2020-07-21T06:28:33.000Z</time>
      </trkpt>
      <trkpt lat="42.8875847" lon="-5.6841">
        <ele>1102.17</ele>
        <time>2020-07-21T06:28:34.000Z</time>
      </trkpt>
      <trkpt lat="42.8876002" lon="-5.684097">
        <ele>1102.17</ele>
        <time>2020-07-21T06:28:35.000Z</time>
      </trkpt>
      <trkpt lat="42.8876162" lon="-5.6840935">
        <ele>1102.32</ele>
        <time>2020-07-21T06:28:36.000Z</time>
      </trkpt>
      <trkpt lat="42.8876342" lon="-5.684091">
        <ele>1102.32</ele>
        <time>2020-07-21T06:28:37.000Z</time>
      </trkpt>
      <trkpt lat="42.8876527" lon="-5.6840888">
        <ele>1102.32</ele>
        <time>2020-07-21T06:28:38.000Z</time>
      </trkpt>
      <trkpt lat="42.887672" lon="-5.6840867">
        <ele>1102.32</ele>
        <time>2020-07-21T06:28:39.000Z</time>
      </trkpt>
      <trkpt lat="42.8876915" lon="-5.6840852">
        <ele>1102.32</ele>
        <time>2020-07-21T06:28:40.000Z</time>
      </trkpt>
      <trkpt lat="42.8877107" lon="-5.684084">
        <ele>1102.32</ele>
        <time>2020-07-21T06:28:41.000Z</time>
      </trkpt>
      <trkpt lat="42.88773" lon="-5.6840838">
        <ele>1102.47</ele>
        <time>2020-07-21T06:28:42.000Z</time>
      </trkpt>
      <trkpt lat="42.8877462" lon="-5.6840818">
        <ele>1102.47</ele>
        <time>2020-07-21T06:28:43.000Z</time>
      </trkpt>
      <trkpt lat="42.8877617" lon="-5.6840802">
        <ele>1102.47</ele>
        <time>2020-07-21T06:28:44.000Z</time>
      </trkpt>
      <trkpt lat="42.8877743" lon="-5.6840792">
        <ele>1102.47</ele>
        <time>2020-07-21T06:28:45.000Z</time>
      </trkpt>
      <trkpt lat="42.8877865" lon="-5.68408">
        <ele>1102.47</ele>
        <time>2020-07-21T06:28:46.000Z</time>
      </trkpt>
      <trkpt lat="42.8877973" lon="-5.6840815">
        <ele>1102.47</ele>
        <time>2020-07-21T06:28:47.000Z</time>
      </trkpt>
      <trkpt lat="42.8878107" lon="-5.6840827">
        <ele>1102.63</ele>
        <time>2020-07-21T06:28:48.000Z</time>
      </trkpt>
      <trkpt lat="42.8878238" lon="-5.6840843">
        <ele>1102.63</ele>
        <time>2020-07-21T06:28:49.000Z</time>
      </trkpt>
      <trkpt lat="42.8878372" lon="-5.6840857">
        <ele>1102.78</ele>
        <time>2020-07-21T06:28:50.000Z</time>
      </trkpt>
      <trkpt lat="42.887849" lon="-5.684087">
        <ele>1102.78</ele>
        <time>2020-07-21T06:28:51.000Z</time>
      </trkpt>
      <trkpt lat="42.8878608" lon="-5.6840882">
        <ele>1102.78</ele>
        <time>2020-07-21T06:28:52.000Z</time>
      </trkpt>
      <trkpt lat="42.8878718" lon="-5.6840892">
        <ele>1102.78</ele>
        <time>2020-07-21T06:28:53.000Z</time>
      </trkpt>
      <trkpt lat="42.8878828" lon="-5.6840917">
        <ele>1102.93</ele>
        <time>2020-07-21T06:28:54.000Z</time>
      </trkpt>
      <trkpt lat="42.887895" lon="-5.6840943">
        <ele>1102.93</ele>
        <time>2020-07-21T06:28:55.000Z</time>
      </trkpt>
      <trkpt lat="42.8879088" lon="-5.6840978">
        <ele>1102.93</ele>
        <time>2020-07-21T06:28:56.000Z</time>
      </trkpt>
      <trkpt lat="42.8879228" lon="-5.684101">
        <ele>1102.93</ele>
        <time>2020-07-21T06:28:57.000Z</time>
      </trkpt>
      <trkpt lat="42.8879385" lon="-5.6841045">
        <ele>1102.93</ele>
        <time>2020-07-21T06:28:58.000Z</time>
      </trkpt>
      <trkpt lat="42.887955" lon="-5.684108">
        <ele>1102.93</ele>
        <time>2020-07-21T06:28:59.000Z</time>
      </trkpt>
      <trkpt lat="42.88797" lon="-5.6841105">
        <ele>1102.93</ele>
        <time>2020-07-21T06:29:00.000Z</time>
      </trkpt>
      <trkpt lat="42.887984" lon="-5.6841123">
        <ele>1102.93</ele>
        <time>2020-07-21T06:29:01.000Z</time>
      </trkpt>
      <trkpt lat="42.8879978" lon="-5.6841142">
        <ele>1103.08</ele>
        <time>2020-07-21T06:29:02.000Z</time>
      </trkpt>
      <trkpt lat="42.8880148" lon="-5.6841173">
        <ele>1103.08</ele>
        <time>2020-07-21T06:29:03.000Z</time>
      </trkpt>
      <trkpt lat="42.8880312" lon="-5.6841208">
        <ele>1103.08</ele>
        <time>2020-07-21T06:29:04.000Z</time>
      </trkpt>
      <trkpt lat="42.8880467" lon="-5.6841252">
        <ele>1103.08</ele>
        <time>2020-07-21T06:29:05.000Z</time>
      </trkpt>
      <trkpt lat="42.888062" lon="-5.6841302">
        <ele>1103.08</ele>
        <time>2020-07-21T06:29:06.000Z</time>
      </trkpt>
      <trkpt lat="42.8880755" lon="-5.6841348">
        <ele>1103.08</ele>
        <time>2020-07-21T06:29:07.000Z</time>
      </trkpt>
      <trkpt lat="42.8880883" lon="-5.6841398">
        <ele>1103.08</ele>
        <time>2020-07-21T06:29:08.000Z</time>
      </trkpt>
      <trkpt lat="42.8880967" lon="-5.6841442">
        <ele>1103.08</ele>
        <time>2020-07-21T06:29:09.000Z</time>
      </trkpt>
      <trkpt lat="42.8881027" lon="-5.6841478">
        <ele>1103.08</ele>
        <time>2020-07-21T06:29:10.000Z</time>
      </trkpt>
      <trkpt lat="42.8881065" lon="-5.6841498">
        <ele>1103.08</ele>
        <time>2020-07-21T06:29:11.000Z</time>
      </trkpt>
      <trkpt lat="42.8881107" lon="-5.6841502">
        <ele>1103.08</ele>
        <time>2020-07-21T06:29:12.000Z</time>
      </trkpt>
      <trkpt lat="42.8881165" lon="-5.6841502">
        <ele>1103.08</ele>
        <time>2020-07-21T06:29:13.000Z</time>
      </trkpt>
      <trkpt lat="42.8881227" lon="-5.6841503">
        <ele>1103.08</ele>
        <time>2020-07-21T06:29:14.000Z</time>
      </trkpt>
      <trkpt lat="42.888128" lon="-5.6841507">
        <ele>1103.08</ele>
        <time>2020-07-21T06:29:15.000Z</time>
      </trkpt>
      <trkpt lat="42.888132" lon="-5.6841518">
        <ele>1102.93</ele>
        <time>2020-07-21T06:29:16.000Z</time>
      </trkpt>
      <trkpt lat="42.8881368" lon="-5.6841527">
        <ele>1102.93</ele>
        <time>2020-07-21T06:29:17.000Z</time>
      </trkpt>
      <trkpt lat="42.8881437" lon="-5.6841548">
        <ele>1102.93</ele>
        <time>2020-07-21T06:29:18.000Z</time>
      </trkpt>
      <trkpt lat="42.8881528" lon="-5.6841577">
        <ele>1102.93</ele>
        <time>2020-07-21T06:29:19.000Z</time>
      </trkpt>
      <trkpt lat="42.8881628" lon="-5.6841607">
        <ele>1102.78</ele>
        <time>2020-07-21T06:29:20.000Z</time>
      </trkpt>
      <trkpt lat="42.8881723" lon="-5.6841633">
        <ele>1102.78</ele>
        <time>2020-07-21T06:29:21.000Z</time>
      </trkpt>
      <trkpt lat="42.8881817" lon="-5.6841657">
        <ele>1102.78</ele>
        <time>2020-07-21T06:29:22.000Z</time>
      </trkpt>
      <trkpt lat="42.8881915" lon="-5.6841685">
        <ele>1102.78</ele>
        <time>2020-07-21T06:29:23.000Z</time>
      </trkpt>
      <trkpt lat="42.8882017" lon="-5.6841717">
        <ele>1102.63</ele>
        <time>2020-07-21T06:29:24.000Z</time>
      </trkpt>
      <trkpt lat="42.8882108" lon="-5.684176">
        <ele>1102.63</ele>
        <time>2020-07-21T06:29:25.000Z</time>
      </trkpt>
      <trkpt lat="42.8882198" lon="-5.684179">
        <ele>1102.63</ele>
        <time>2020-07-21T06:29:26.000Z</time>
      </trkpt>
      <trkpt lat="42.8882277" lon="-5.6841822">
        <ele>1102.63</ele>
        <time>2020-07-21T06:29:27.000Z</time>
      </trkpt>
      <trkpt lat="42.8882353" lon="-5.6841835">
        <ele>1102.47</ele>
        <time>2020-07-21T06:29:28.000Z</time>
      </trkpt>
      <trkpt lat="42.8882427" lon="-5.6841855">
        <ele>1102.47</ele>
        <time>2020-07-21T06:29:29.000Z</time>
      </trkpt>
      <trkpt lat="42.8882517" lon="-5.6841867">
        <ele>1102.47</ele>
        <time>2020-07-21T06:29:30.000Z</time>
      </trkpt>
      <trkpt lat="42.8882625" lon="-5.6841878">
        <ele>1102.47</ele>
        <time>2020-07-21T06:29:31.000Z</time>
      </trkpt>
      <trkpt lat="42.8882713" lon="-5.6841885">
        <ele>1102.32</ele>
        <time>2020-07-21T06:29:32.000Z</time>
      </trkpt>
      <trkpt lat="42.8882783" lon="-5.6841887">
        <ele>1102.32</ele>
        <time>2020-07-21T06:29:33.000Z</time>
      </trkpt>
      <trkpt lat="42.8882852" lon="-5.6841892">
        <ele>1102.32</ele>
        <time>2020-07-21T06:29:34.000Z</time>
      </trkpt>
      <trkpt lat="42.8882933" lon="-5.6841895">
        <ele>1102.32</ele>
        <time>2020-07-21T06:29:35.000Z</time>
      </trkpt>
      <trkpt lat="42.8883047" lon="-5.6841885">
        <ele>1102.32</ele>
        <time>2020-07-21T06:29:36.000Z</time>
      </trkpt>
      <trkpt lat="42.8883167" lon="-5.6841862">
        <ele>1102.32</ele>
        <time>2020-07-21T06:29:37.000Z</time>
      </trkpt>
      <trkpt lat="42.8883327" lon="-5.6841855">
        <ele>1102.32</ele>
        <time>2020-07-21T06:29:38.000Z</time>
      </trkpt>
      <trkpt lat="42.888348" lon="-5.6841862">
        <ele>1102.32</ele>
        <time>2020-07-21T06:29:39.000Z</time>
      </trkpt>
      <trkpt lat="42.8883643" lon="-5.6841893">
        <ele>1102.17</ele>
        <time>2020-07-21T06:29:40.000Z</time>
      </trkpt>
      <trkpt lat="42.8883778" lon="-5.684194">
        <ele>1102.17</ele>
        <time>2020-07-21T06:29:41.000Z</time>
      </trkpt>
      <trkpt lat="42.8883898" lon="-5.6842008">
        <ele>1102.32</ele>
        <time>2020-07-21T06:29:42.000Z</time>
      </trkpt>
      <trkpt lat="42.8883982" lon="-5.6842088">
        <ele>1102.32</ele>
        <time>2020-07-21T06:29:43.000Z</time>
      </trkpt>
      <trkpt lat="42.88841" lon="-5.6842163">
        <ele>1102.32</ele>
        <time>2020-07-21T06:29:44.000Z</time>
      </trkpt>
      <trkpt lat="42.8884238" lon="-5.684223">
        <ele>1102.32</ele>
        <time>2020-07-21T06:29:45.000Z</time>
      </trkpt>
      <trkpt lat="42.8884387" lon="-5.6842307">
        <ele>1102.32</ele>
        <time>2020-07-21T06:29:46.000Z</time>
      </trkpt>
      <trkpt lat="42.8884518" lon="-5.6842395">
        <ele>1102.32</ele>
        <time>2020-07-21T06:29:47.000Z</time>
      </trkpt>
      <trkpt lat="42.8884643" lon="-5.6842448">
        <ele>1102.32</ele>
        <time>2020-07-21T06:29:48.000Z</time>
      </trkpt>
      <trkpt lat="42.8884773" lon="-5.6842473">
        <ele>1102.32</ele>
        <time>2020-07-21T06:29:49.000Z</time>
      </trkpt>
      <trkpt lat="42.8884885" lon="-5.6842472">
        <ele>1102.32</ele>
        <time>2020-07-21T06:29:50.000Z</time>
      </trkpt>
      <trkpt lat="42.8884962" lon="-5.684255">
        <ele>1102.32</ele>
        <time>2020-07-21T06:29:51.000Z</time>
      </trkpt>
      <trkpt lat="42.8884997" lon="-5.684263">
        <ele>1102.32</ele>
        <time>2020-07-21T06:29:52.000Z</time>
      </trkpt>
      <trkpt lat="42.8885" lon="-5.6842702">
        <ele>1102.32</ele>
        <time>2020-07-21T06:29:53.000Z</time>
      </trkpt>
      <trkpt lat="42.8885" lon="-5.6842718">
        <ele>1102.32</ele>
        <time>2020-07-21T06:29:54.000Z</time>
      </trkpt>
      <trkpt lat="42.8885007" lon="-5.684275">
        <ele>1102.32</ele>
        <time>2020-07-21T06:29:55.000Z</time>
      </trkpt>
      <trkpt lat="42.8885008" lon="-5.6842802">
        <ele>1102.17</ele>
        <time>2020-07-21T06:29:56.000Z</time>
      </trkpt>
      <trkpt lat="42.8885008" lon="-5.6842853">
        <ele>1102.17</ele>
        <time>2020-07-21T06:29:57.000Z</time>
      </trkpt>
      <trkpt lat="42.8884998" lon="-5.684288">
        <ele>1102.17</ele>
        <time>2020-07-21T06:29:58.000Z</time>
      </trkpt>
      <trkpt lat="42.8884995" lon="-5.6842887">
        <ele>1102.17</ele>
        <time>2020-07-21T06:29:59.000Z</time>
      </trkpt>
      <trkpt lat="42.8885032" lon="-5.6842885">
        <ele>1102.17</ele>
        <time>2020-07-21T06:30:00.000Z</time>
      </trkpt>
      <trkpt lat="42.8885108" lon="-5.6842873">
        <ele>1102.17</ele>
        <time>2020-07-21T06:30:01.000Z</time>
      </trkpt>
      <trkpt lat="42.8885177" lon="-5.6842865">
        <ele>1102.32</ele>
        <time>2020-07-21T06:30:02.000Z</time>
      </trkpt>
      <trkpt lat="42.8885205" lon="-5.6842855">
        <ele>1102.32</ele>
        <time>2020-07-21T06:30:03.000Z</time>
      </trkpt>
      <trkpt lat="42.8885195" lon="-5.684285">
        <ele>1102.32</ele>
        <time>2020-07-21T06:30:04.000Z</time>
      </trkpt>
      <trkpt lat="42.8885198" lon="-5.6842843">
        <ele>1102.32</ele>
        <time>2020-07-21T06:30:05.000Z</time>
      </trkpt>
      <trkpt lat="42.8885248" lon="-5.6842838">
        <ele>1102.32</ele>
        <time>2020-07-21T06:30:06.000Z</time>
      </trkpt>
      <trkpt lat="42.888537" lon="-5.6842827">
        <ele>1102.32</ele>
        <time>2020-07-21T06:30:07.000Z</time>
      </trkpt>
      <trkpt lat="42.8885513" lon="-5.6842805">
        <ele>1102.32</ele>
        <time>2020-07-21T06:30:08.000Z</time>
      </trkpt>
      <trkpt lat="42.888565" lon="-5.6842747">
        <ele>1102.32</ele>
        <time>2020-07-21T06:30:09.000Z</time>
      </trkpt>
      <trkpt lat="42.888572" lon="-5.6842667">
        <ele>1102.32</ele>
        <time>2020-07-21T06:30:10.000Z</time>
      </trkpt>
      <trkpt lat="42.8885762" lon="-5.6842573">
        <ele>1102.32</ele>
        <time>2020-07-21T06:30:11.000Z</time>
      </trkpt>
      <trkpt lat="42.8885787" lon="-5.6842495">
        <ele>1102.47</ele>
        <time>2020-07-21T06:30:12.000Z</time>
      </trkpt>
      <trkpt lat="42.888583" lon="-5.6842427">
        <ele>1102.47</ele>
        <time>2020-07-21T06:30:13.000Z</time>
      </trkpt>
      <trkpt lat="42.8885875" lon="-5.6842352">
        <ele>1102.47</ele>
        <time>2020-07-21T06:30:14.000Z</time>
      </trkpt>
      <trkpt lat="42.8885908" lon="-5.6842253">
        <ele>1102.47</ele>
        <time>2020-07-21T06:30:15.000Z</time>
      </trkpt>
      <trkpt lat="42.888594" lon="-5.6842133">
        <ele>1102.63</ele>
        <time>2020-07-21T06:30:16.000Z</time>
      </trkpt>
      <trkpt lat="42.8885953" lon="-5.6842012">
        <ele>1102.63</ele>
        <time>2020-07-21T06:30:17.000Z</time>
      </trkpt>
      <trkpt lat="42.8885958" lon="-5.6841912">
        <ele>1102.78</ele>
        <time>2020-07-21T06:30:18.000Z</time>
      </trkpt>
      <trkpt lat="42.8885948" lon="-5.6841842">
        <ele>1102.78</ele>
        <time>2020-07-21T06:30:19.000Z</time>
      </trkpt>
      <trkpt lat="42.8885967" lon="-5.6841797">
        <ele>1102.93</ele>
        <time>2020-07-21T06:30:20.000Z</time>
      </trkpt>
      <trkpt lat="42.8885978" lon="-5.684176">
        <ele>1102.93</ele>
        <time>2020-07-21T06:30:21.000Z</time>
      </trkpt>
      <trkpt lat="42.8885995" lon="-5.6841725">
        <ele>1102.93</ele>
        <time>2020-07-21T06:30:22.000Z</time>
      </trkpt>
      <trkpt lat="42.8886013" lon="-5.6841702">
        <ele>1102.93</ele>
        <time>2020-07-21T06:30:23.000Z</time>
      </trkpt>
      <trkpt lat="42.888604" lon="-5.6841688">
        <ele>1103.08</ele>
        <time>2020-07-21T06:30:24.000Z</time>
      </trkpt>
      <trkpt lat="42.8886043" lon="-5.6841683">
        <ele>1103.08</ele>
        <time>2020-07-21T06:30:25.000Z</time>
      </trkpt>
      <trkpt lat="42.8886025" lon="-5.6841673">
        <ele>1103.24</ele>
        <time>2020-07-21T06:30:26.000Z</time>
      </trkpt>
      <trkpt lat="42.8886003" lon="-5.6841668">
        <ele>1103.24</ele>
        <time>2020-07-21T06:30:27.000Z</time>
      </trkpt>
      <trkpt lat="42.888598" lon="-5.6841662">
        <ele>1103.39</ele>
        <time>2020-07-21T06:30:28.000Z</time>
      </trkpt>
      <trkpt lat="42.888597" lon="-5.6841652">
        <ele>1103.39</ele>
        <time>2020-07-21T06:30:29.000Z</time>
      </trkpt>
      <trkpt lat="42.8885965" lon="-5.684164">
        <ele>1103.54</ele>
        <time>2020-07-21T06:30:30.000Z</time>
      </trkpt>
      <trkpt lat="42.8885993" lon="-5.6841617">
        <ele>1103.54</ele>
        <time>2020-07-21T06:30:31.000Z</time>
      </trkpt>
      <trkpt lat="42.8886" lon="-5.684159">
        <ele>1103.54</ele>
        <time>2020-07-21T06:30:32.000Z</time>
      </trkpt>
      <trkpt lat="42.8886008" lon="-5.6841562">
        <ele>1103.54</ele>
        <time>2020-07-21T06:30:33.000Z</time>
      </trkpt>
      <trkpt lat="42.888601" lon="-5.6841542">
        <ele>1103.69</ele>
        <time>2020-07-21T06:30:34.000Z</time>
      </trkpt>
      <trkpt lat="42.8886048" lon="-5.6841525">
        <ele>1103.69</ele>
        <time>2020-07-21T06:30:35.000Z</time>
      </trkpt>
      <trkpt lat="42.8886112" lon="-5.684151">
        <ele>1103.85</ele>
        <time>2020-07-21T06:30:36.000Z</time>
      </trkpt>
      <trkpt lat="42.888619" lon="-5.6841485">
        <ele>1103.85</ele>
        <time>2020-07-21T06:30:37.000Z</time>
      </trkpt>
      <trkpt lat="42.8886258" lon="-5.6841453">
        <ele>1103.85</ele>
        <time>2020-07-21T06:30:38.000Z</time>
      </trkpt>
      <trkpt lat="42.8886332" lon="-5.6841417">
        <ele>1103.85</ele>
        <time>2020-07-21T06:30:39.000Z</time>
      </trkpt>
      <trkpt lat="42.88864" lon="-5.6841385">
        <ele>1104</ele>
        <time>2020-07-21T06:30:40.000Z</time>
      </trkpt>
      <trkpt lat="42.8886475" lon="-5.684135">
        <ele>1104</ele>
        <time>2020-07-21T06:30:41.000Z</time>
      </trkpt>
      <trkpt lat="42.888656" lon="-5.6841287">
        <ele>1104.15</ele>
        <time>2020-07-21T06:30:42.000Z</time>
      </trkpt>
      <trkpt lat="42.8886643" lon="-5.6841218">
        <ele>1104.15</ele>
        <time>2020-07-21T06:30:43.000Z</time>
      </trkpt>
      <trkpt lat="42.8886725" lon="-5.684116">
        <ele>1104.15</ele>
        <time>2020-07-21T06:30:44.000Z</time>
      </trkpt>
      <trkpt lat="42.88868" lon="-5.6841122">
        <ele>1104.15</ele>
        <time>2020-07-21T06:30:45.000Z</time>
      </trkpt>
      <trkpt lat="42.8886898" lon="-5.6841077">
        <ele>1104.3</ele>
        <time>2020-07-21T06:30:46.000Z</time>
      </trkpt>
      <trkpt lat="42.8886998" lon="-5.6841023">
        <ele>1104.3</ele>
        <time>2020-07-21T06:30:47.000Z</time>
      </trkpt>
      <trkpt lat="42.888709" lon="-5.684098">
        <ele>1104.3</ele>
        <time>2020-07-21T06:30:48.000Z</time>
      </trkpt>
      <trkpt lat="42.8887162" lon="-5.6840947">
        <ele>1104.3</ele>
        <time>2020-07-21T06:30:49.000Z</time>
      </trkpt>
      <trkpt lat="42.8887227" lon="-5.6840923">
        <ele>1104.46</ele>
        <time>2020-07-21T06:30:50.000Z</time>
      </trkpt>
      <trkpt lat="42.8887282" lon="-5.6840903">
        <ele>1104.46</ele>
        <time>2020-07-21T06:30:51.000Z</time>
      </trkpt>
      <trkpt lat="42.8887345" lon="-5.6840883">
        <ele>1104.46</ele>
        <time>2020-07-21T06:30:52.000Z</time>
      </trkpt>
      <trkpt lat="42.8887415" lon="-5.6840872">
        <ele>1104.46</ele>
        <time>2020-07-21T06:30:53.000Z</time>
      </trkpt>
      <trkpt lat="42.8887498" lon="-5.684085">
        <ele>1104.61</ele>
        <time>2020-07-21T06:30:54.000Z</time>
      </trkpt>
      <trkpt lat="42.8887578" lon="-5.684083">
        <ele>1104.61</ele>
        <time>2020-07-21T06:30:55.000Z</time>
      </trkpt>
      <trkpt lat="42.8887663" lon="-5.6840808">
        <ele>1104.76</ele>
        <time>2020-07-21T06:30:56.000Z</time>
      </trkpt>
      <trkpt lat="42.888779" lon="-5.6840802">
        <ele>1104.76</ele>
        <time>2020-07-21T06:30:57.000Z</time>
      </trkpt>
      <trkpt lat="42.888793" lon="-5.6840808">
        <ele>1104.91</ele>
        <time>2020-07-21T06:30:58.000Z</time>
      </trkpt>
      <trkpt lat="42.8888062" lon="-5.6840817">
        <ele>1104.91</ele>
        <time>2020-07-21T06:30:59.000Z</time>
      </trkpt>
      <trkpt lat="42.8888165" lon="-5.6840823">
        <ele>1105.07</ele>
        <time>2020-07-21T06:31:00.000Z</time>
      </trkpt>
      <trkpt lat="42.8888262" lon="-5.684083">
        <ele>1105.07</ele>
        <time>2020-07-21T06:31:01.000Z</time>
      </trkpt>
      <trkpt lat="42.888837" lon="-5.6840847">
        <ele>1105.07</ele>
        <time>2020-07-21T06:31:02.000Z</time>
      </trkpt>
      <trkpt lat="42.8888468" lon="-5.6840873">
        <ele>1105.07</ele>
        <time>2020-07-21T06:31:03.000Z</time>
      </trkpt>
      <trkpt lat="42.8888557" lon="-5.6840895">
        <ele>1105.22</ele>
        <time>2020-07-21T06:31:04.000Z</time>
      </trkpt>
      <trkpt lat="42.8888632" lon="-5.6840922">
        <ele>1105.22</ele>
        <time>2020-07-21T06:31:05.000Z</time>
      </trkpt>
      <trkpt lat="42.8888717" lon="-5.684095">
        <ele>1105.22</ele>
        <time>2020-07-21T06:31:06.000Z</time>
      </trkpt>
      <trkpt lat="42.8888797" lon="-5.6841">
        <ele>1105.22</ele>
        <time>2020-07-21T06:31:07.000Z</time>
      </trkpt>
      <trkpt lat="42.8888885" lon="-5.6841055">
        <ele>1105.37</ele>
        <time>2020-07-21T06:31:08.000Z</time>
      </trkpt>
      <trkpt lat="42.8888973" lon="-5.684112">
        <ele>1105.37</ele>
        <time>2020-07-21T06:31:09.000Z</time>
      </trkpt>
      <trkpt lat="42.888908" lon="-5.6841187">
        <ele>1105.37</ele>
        <time>2020-07-21T06:31:10.000Z</time>
      </trkpt>
      <trkpt lat="42.8889185" lon="-5.6841252">
        <ele>1105.37</ele>
        <time>2020-07-21T06:31:11.000Z</time>
      </trkpt>
      <trkpt lat="42.8889283" lon="-5.6841317">
        <ele>1105.52</ele>
        <time>2020-07-21T06:31:12.000Z</time>
      </trkpt>
      <trkpt lat="42.8889372" lon="-5.6841373">
        <ele>1105.52</ele>
        <time>2020-07-21T06:31:13.000Z</time>
      </trkpt>
      <trkpt lat="42.888946" lon="-5.6841432">
        <ele>1105.52</ele>
        <time>2020-07-21T06:31:14.000Z</time>
      </trkpt>
      <trkpt lat="42.8889548" lon="-5.6841492">
        <ele>1105.52</ele>
        <time>2020-07-21T06:31:15.000Z</time>
      </trkpt>
      <trkpt lat="42.8889648" lon="-5.6841552">
        <ele>1105.52</ele>
        <time>2020-07-21T06:31:16.000Z</time>
      </trkpt>
      <trkpt lat="42.8889743" lon="-5.6841623">
        <ele>1105.52</ele>
        <time>2020-07-21T06:31:17.000Z</time>
      </trkpt>
      <trkpt lat="42.888985" lon="-5.6841698">
        <ele>1105.68</ele>
        <time>2020-07-21T06:31:18.000Z</time>
      </trkpt>
      <trkpt lat="42.888995" lon="-5.6841788">
        <ele>1105.68</ele>
        <time>2020-07-21T06:31:19.000Z</time>
      </trkpt>
      <trkpt lat="42.8890057" lon="-5.6841892">
        <ele>1105.68</ele>
        <time>2020-07-21T06:31:20.000Z</time>
      </trkpt>
      <trkpt lat="42.889015" lon="-5.6842005">
        <ele>1105.68</ele>
        <time>2020-07-21T06:31:21.000Z</time>
      </trkpt>
      <trkpt lat="42.8890242" lon="-5.6842132">
        <ele>1105.68</ele>
        <time>2020-07-21T06:31:22.000Z</time>
      </trkpt>
      <trkpt lat="42.8890317" lon="-5.6842242">
        <ele>1105.68</ele>
        <time>2020-07-21T06:31:23.000Z</time>
      </trkpt>
      <trkpt lat="42.8890388" lon="-5.6842347">
        <ele>1105.68</ele>
        <time>2020-07-21T06:31:24.000Z</time>
      </trkpt>
      <trkpt lat="42.8890453" lon="-5.6842437">
        <ele>1105.68</ele>
        <time>2020-07-21T06:31:25.000Z</time>
      </trkpt>
      <trkpt lat="42.8890538" lon="-5.6842527">
        <ele>1105.83</ele>
        <time>2020-07-21T06:31:26.000Z</time>
      </trkpt>
      <trkpt lat="42.889062" lon="-5.684262">
        <ele>1105.83</ele>
        <time>2020-07-21T06:31:27.000Z</time>
      </trkpt>
      <trkpt lat="42.8890708" lon="-5.6842707">
        <ele>1105.83</ele>
        <time>2020-07-21T06:31:28.000Z</time>
      </trkpt>
      <trkpt lat="42.8890783" lon="-5.6842802">
        <ele>1105.83</ele>
        <time>2020-07-21T06:31:29.000Z</time>
      </trkpt>
      <trkpt lat="42.8890858" lon="-5.6842913">
        <ele>1105.83</ele>
        <time>2020-07-21T06:31:30.000Z</time>
      </trkpt>
      <trkpt lat="42.8890915" lon="-5.6843067">
        <ele>1105.83</ele>
        <time>2020-07-21T06:31:31.000Z</time>
      </trkpt>
      <trkpt lat="42.8890973" lon="-5.6843227">
        <ele>1105.83</ele>
        <time>2020-07-21T06:31:32.000Z</time>
      </trkpt>
      <trkpt lat="42.8891025" lon="-5.6843385">
        <ele>1105.83</ele>
        <time>2020-07-21T06:31:33.000Z</time>
      </trkpt>
      <trkpt lat="42.8891078" lon="-5.684353">
        <ele>1105.83</ele>
        <time>2020-07-21T06:31:34.000Z</time>
      </trkpt>
      <trkpt lat="42.8891117" lon="-5.6843675">
        <ele>1105.83</ele>
        <time>2020-07-21T06:31:35.000Z</time>
      </trkpt>
      <trkpt lat="42.8891167" lon="-5.6843813">
        <ele>1105.83</ele>
        <time>2020-07-21T06:31:36.000Z</time>
      </trkpt>
      <trkpt lat="42.8891238" lon="-5.6843927">
        <ele>1105.83</ele>
        <time>2020-07-21T06:31:37.000Z</time>
      </trkpt>
      <trkpt lat="42.8891315" lon="-5.6844038">
        <ele>1105.98</ele>
        <time>2020-07-21T06:31:38.000Z</time>
      </trkpt>
      <trkpt lat="42.8891387" lon="-5.6844157">
        <ele>1105.98</ele>
        <time>2020-07-21T06:31:39.000Z</time>
      </trkpt>
      <trkpt lat="42.8891432" lon="-5.6844295">
        <ele>1105.98</ele>
        <time>2020-07-21T06:31:40.000Z</time>
      </trkpt>
      <trkpt lat="42.8891463" lon="-5.6844438">
        <ele>1105.98</ele>
        <time>2020-07-21T06:31:41.000Z</time>
      </trkpt>
      <trkpt lat="42.8891473" lon="-5.6844583">
        <ele>1105.98</ele>
        <time>2020-07-21T06:31:42.000Z</time>
      </trkpt>
      <trkpt lat="42.8891478" lon="-5.6844742">
        <ele>1105.98</ele>
        <time>2020-07-21T06:31:43.000Z</time>
      </trkpt>
      <trkpt lat="42.8891492" lon="-5.6844902">
        <ele>1106.13</ele>
        <time>2020-07-21T06:31:44.000Z</time>
      </trkpt>
      <trkpt lat="42.8891503" lon="-5.6845067">
        <ele>1106.13</ele>
        <time>2020-07-21T06:31:45.000Z</time>
      </trkpt>
      <trkpt lat="42.8891538" lon="-5.6845215">
        <ele>1106.13</ele>
        <time>2020-07-21T06:31:46.000Z</time>
      </trkpt>
      <trkpt lat="42.8891547" lon="-5.6845382">
        <ele>1106.13</ele>
        <time>2020-07-21T06:31:47.000Z</time>
      </trkpt>
      <trkpt lat="42.889158" lon="-5.6845552">
        <ele>1106.29</ele>
        <time>2020-07-21T06:31:48.000Z</time>
      </trkpt>
      <trkpt lat="42.889159" lon="-5.6845725">
        <ele>1106.29</ele>
        <time>2020-07-21T06:31:49.000Z</time>
      </trkpt>
      <trkpt lat="42.8891645" lon="-5.6845875">
        <ele>1106.29</ele>
        <time>2020-07-21T06:31:50.000Z</time>
      </trkpt>
      <trkpt lat="42.8891695" lon="-5.684601">
        <ele>1106.29</ele>
        <time>2020-07-21T06:31:51.000Z</time>
      </trkpt>
      <trkpt lat="42.8891762" lon="-5.6846133">
        <ele>1106.44</ele>
        <time>2020-07-21T06:31:52.000Z</time>
      </trkpt>
      <trkpt lat="42.8891813" lon="-5.684625">
        <ele>1106.44</ele>
        <time>2020-07-21T06:31:53.000Z</time>
      </trkpt>
      <trkpt lat="42.8891883" lon="-5.6846353">
        <ele>1106.59</ele>
        <time>2020-07-21T06:31:54.000Z</time>
      </trkpt>
      <trkpt lat="42.8891963" lon="-5.6846452">
        <ele>1106.59</ele>
        <time>2020-07-21T06:31:55.000Z</time>
      </trkpt>
      <trkpt lat="42.8892052" lon="-5.6846552">
        <ele>1106.74</ele>
        <time>2020-07-21T06:31:56.000Z</time>
      </trkpt>
      <trkpt lat="42.889212" lon="-5.6846677">
        <ele>1106.74</ele>
        <time>2020-07-21T06:31:57.000Z</time>
      </trkpt>
      <trkpt lat="42.8892177" lon="-5.6846813">
        <ele>1106.74</ele>
        <time>2020-07-21T06:31:58.000Z</time>
      </trkpt>
      <trkpt lat="42.8892217" lon="-5.6846948">
        <ele>1106.74</ele>
        <time>2020-07-21T06:31:59.000Z</time>
      </trkpt>
      <trkpt lat="42.8892253" lon="-5.6847075">
        <ele>1106.9</ele>
        <time>2020-07-21T06:32:00.000Z</time>
      </trkpt>
      <trkpt lat="42.889229" lon="-5.6847202">
        <ele>1106.9</ele>
        <time>2020-07-21T06:32:01.000Z</time>
      </trkpt>
      <trkpt lat="42.8892313" lon="-5.684733">
        <ele>1106.9</ele>
        <time>2020-07-21T06:32:02.000Z</time>
      </trkpt>
      <trkpt lat="42.8892325" lon="-5.6847458">
        <ele>1106.9</ele>
        <time>2020-07-21T06:32:03.000Z</time>
      </trkpt>
      <trkpt lat="42.8892333" lon="-5.6847582">
        <ele>1107.05</ele>
        <time>2020-07-21T06:32:04.000Z</time>
      </trkpt>
      <trkpt lat="42.8892342" lon="-5.6847698">
        <ele>1107.05</ele>
        <time>2020-07-21T06:32:05.000Z</time>
      </trkpt>
      <trkpt lat="42.88924" lon="-5.6847802">
        <ele>1107.2</ele>
        <time>2020-07-21T06:32:06.000Z</time>
      </trkpt>
      <trkpt lat="42.8892485" lon="-5.6847908">
        <ele>1107.2</ele>
        <time>2020-07-21T06:32:07.000Z</time>
      </trkpt>
      <trkpt lat="42.8892585" lon="-5.6848017">
        <ele>1107.2</ele>
        <time>2020-07-21T06:32:08.000Z</time>
      </trkpt>
      <trkpt lat="42.8892672" lon="-5.6848133">
        <ele>1107.2</ele>
        <time>2020-07-21T06:32:09.000Z</time>
      </trkpt>
      <trkpt lat="42.889274" lon="-5.6848238">
        <ele>1107.35</ele>
        <time>2020-07-21T06:32:10.000Z</time>
      </trkpt>
      <trkpt lat="42.889286" lon="-5.6848313">
        <ele>1107.35</ele>
        <time>2020-07-21T06:32:11.000Z</time>
      </trkpt>
      <trkpt lat="42.889301" lon="-5.6848378">
        <ele>1107.35</ele>
        <time>2020-07-21T06:32:12.000Z</time>
      </trkpt>
      <trkpt lat="42.8893198" lon="-5.6848423">
        <ele>1107.35</ele>
        <time>2020-07-21T06:32:13.000Z</time>
      </trkpt>
      <trkpt lat="42.889336" lon="-5.6848478">
        <ele>1107.5</ele>
        <time>2020-07-21T06:32:14.000Z</time>
      </trkpt>
      <trkpt lat="42.8893485" lon="-5.6848533">
        <ele>1107.5</ele>
        <time>2020-07-21T06:32:15.000Z</time>
      </trkpt>
      <trkpt lat="42.8893593" lon="-5.6848597">
        <ele>1107.66</ele>
        <time>2020-07-21T06:32:16.000Z</time>
      </trkpt>
      <trkpt lat="42.8893707" lon="-5.6848643">
        <ele>1107.66</ele>
        <time>2020-07-21T06:32:17.000Z</time>
      </trkpt>
      <trkpt lat="42.8893852" lon="-5.6848673">
        <ele>1107.66</ele>
        <time>2020-07-21T06:32:18.000Z</time>
      </trkpt>
      <trkpt lat="42.889398" lon="-5.6848702">
        <ele>1107.66</ele>
        <time>2020-07-21T06:32:19.000Z</time>
      </trkpt>
      <trkpt lat="42.8894093" lon="-5.6848738">
        <ele>1107.81</ele>
        <time>2020-07-21T06:32:20.000Z</time>
      </trkpt>
      <trkpt lat="42.8894178" lon="-5.6848782">
        <ele>1107.81</ele>
        <time>2020-07-21T06:32:21.000Z</time>
      </trkpt>
      <trkpt lat="42.8894273" lon="-5.6848815">
        <ele>1107.96</ele>
        <time>2020-07-21T06:32:22.000Z</time>
      </trkpt>
      <trkpt lat="42.8894377" lon="-5.6848843">
        <ele>1107.96</ele>
        <time>2020-07-21T06:32:23.000Z</time>
      </trkpt>
      <trkpt lat="42.889449" lon="-5.6848865">
        <ele>1108.11</ele>
        <time>2020-07-21T06:32:24.000Z</time>
      </trkpt>
      <trkpt lat="42.889459" lon="-5.68489">
        <ele>1108.11</ele>
        <time>2020-07-21T06:32:25.000Z</time>
      </trkpt>
      <trkpt lat="42.8894693" lon="-5.684894">
        <ele>1108.27</ele>
        <time>2020-07-21T06:32:26.000Z</time>
      </trkpt>
      <trkpt lat="42.8894845" lon="-5.6848968">
        <ele>1108.27</ele>
        <time>2020-07-21T06:32:27.000Z</time>
      </trkpt>
      <trkpt lat="42.8895023" lon="-5.6848978">
        <ele>1108.27</ele>
        <time>2020-07-21T06:32:28.000Z</time>
      </trkpt>
      <trkpt lat="42.8895188" lon="-5.6848982">
        <ele>1108.27</ele>
        <time>2020-07-21T06:32:29.000Z</time>
      </trkpt>
      <trkpt lat="42.8895312" lon="-5.6848988">
        <ele>1108.42</ele>
        <time>2020-07-21T06:32:30.000Z</time>
      </trkpt>
      <trkpt lat="42.8895437" lon="-5.6848992">
        <ele>1108.42</ele>
        <time>2020-07-21T06:32:31.000Z</time>
      </trkpt>
      <trkpt lat="42.8895585" lon="-5.6848972">
        <ele>1108.57</ele>
        <time>2020-07-21T06:32:32.000Z</time>
      </trkpt>
      <trkpt lat="42.889574" lon="-5.684896">
        <ele>1108.57</ele>
        <time>2020-07-21T06:32:33.000Z</time>
      </trkpt>
      <trkpt lat="42.8895892" lon="-5.6848943">
        <ele>1108.72</ele>
        <time>2020-07-21T06:32:34.000Z</time>
      </trkpt>
      <trkpt lat="42.8896032" lon="-5.6848938">
        <ele>1108.72</ele>
        <time>2020-07-21T06:32:35.000Z</time>
      </trkpt>
      <trkpt lat="42.8896163" lon="-5.684893">
        <ele>1108.72</ele>
        <time>2020-07-21T06:32:36.000Z</time>
      </trkpt>
      <trkpt lat="42.8896295" lon="-5.6848928">
        <ele>1108.72</ele>
        <time>2020-07-21T06:32:37.000Z</time>
      </trkpt>
      <trkpt lat="42.8896432" lon="-5.684893">
        <ele>1108.88</ele>
        <time>2020-07-21T06:32:38.000Z</time>
      </trkpt>
      <trkpt lat="42.8896573" lon="-5.6848915">
        <ele>1108.88</ele>
        <time>2020-07-21T06:32:39.000Z</time>
      </trkpt>
      <trkpt lat="42.8896713" lon="-5.6848902">
        <ele>1109.03</ele>
        <time>2020-07-21T06:32:40.000Z</time>
      </trkpt>
      <trkpt lat="42.8896853" lon="-5.684889">
        <ele>1109.03</ele>
        <time>2020-07-21T06:32:41.000Z</time>
      </trkpt>
      <trkpt lat="42.8896982" lon="-5.6848898">
        <ele>1109.18</ele>
        <time>2020-07-21T06:32:42.000Z</time>
      </trkpt>
      <trkpt lat="42.8897105" lon="-5.6848897">
        <ele>1109.18</ele>
        <time>2020-07-21T06:32:43.000Z</time>
      </trkpt>
      <trkpt lat="42.8897215" lon="-5.6848893">
        <ele>1109.33</ele>
        <time>2020-07-21T06:32:44.000Z</time>
      </trkpt>
      <trkpt lat="42.8897327" lon="-5.6848883">
        <ele>1109.33</ele>
        <time>2020-07-21T06:32:45.000Z</time>
      </trkpt>
      <trkpt lat="42.8897427" lon="-5.6848885">
        <ele>1109.48</ele>
        <time>2020-07-21T06:32:46.000Z</time>
      </trkpt>
      <trkpt lat="42.889752" lon="-5.6848893">
        <ele>1109.48</ele>
        <time>2020-07-21T06:32:47.000Z</time>
      </trkpt>
      <trkpt lat="42.889763" lon="-5.6848903">
        <ele>1109.64</ele>
        <time>2020-07-21T06:32:48.000Z</time>
      </trkpt>
      <trkpt lat="42.8897748" lon="-5.6848905">
        <ele>1109.64</ele>
        <time>2020-07-21T06:32:49.000Z</time>
      </trkpt>
      <trkpt lat="42.8897913" lon="-5.6848905">
        <ele>1109.79</ele>
        <time>2020-07-21T06:32:50.000Z</time>
      </trkpt>
      <trkpt lat="42.8898122" lon="-5.6848908">
        <ele>1109.79</ele>
        <time>2020-07-21T06:32:51.000Z</time>
      </trkpt>
      <trkpt lat="42.8898363" lon="-5.6848912">
        <ele>1109.94</ele>
        <time>2020-07-21T06:32:52.000Z</time>
      </trkpt>
      <trkpt lat="42.8898587" lon="-5.6848925">
        <ele>1109.94</ele>
        <time>2020-07-21T06:32:53.000Z</time>
      </trkpt>
      <trkpt lat="42.8898757" lon="-5.6848937">
        <ele>1110.09</ele>
        <time>2020-07-21T06:32:54.000Z</time>
      </trkpt>
      <trkpt lat="42.8898903" lon="-5.6848957">
        <ele>1110.09</ele>
        <time>2020-07-21T06:32:55.000Z</time>
      </trkpt>
      <trkpt lat="42.8899043" lon="-5.6848965">
        <ele>1110.25</ele>
        <time>2020-07-21T06:32:56.000Z</time>
      </trkpt>
      <trkpt lat="42.8899175" lon="-5.6848973">
        <ele>1110.25</ele>
        <time>2020-07-21T06:32:57.000Z</time>
      </trkpt>
      <trkpt lat="42.8899312" lon="-5.6848982">
        <ele>1110.25</ele>
        <time>2020-07-21T06:32:58.000Z</time>
      </trkpt>
      <trkpt lat="42.8899432" lon="-5.6848992">
        <ele>1110.25</ele>
        <time>2020-07-21T06:32:59.000Z</time>
      </trkpt>
      <trkpt lat="42.8899542" lon="-5.6848997">
        <ele>1110.4</ele>
        <time>2020-07-21T06:33:00.000Z</time>
      </trkpt>
      <trkpt lat="42.8899632" lon="-5.6849005">
        <ele>1110.4</ele>
        <time>2020-07-21T06:33:01.000Z</time>
      </trkpt>
      <trkpt lat="42.8899723" lon="-5.6849012">
        <ele>1110.55</ele>
        <time>2020-07-21T06:33:02.000Z</time>
      </trkpt>
      <trkpt lat="42.8899835" lon="-5.6849025">
        <ele>1110.55</ele>
        <time>2020-07-21T06:33:03.000Z</time>
      </trkpt>
      <trkpt lat="42.8899935" lon="-5.6849042">
        <ele>1110.7</ele>
        <time>2020-07-21T06:33:04.000Z</time>
      </trkpt>
      <trkpt lat="42.8900047" lon="-5.6849062">
        <ele>1110.7</ele>
        <time>2020-07-21T06:33:05.000Z</time>
      </trkpt>
      <trkpt lat="42.8900163" lon="-5.6849085">
        <ele>1110.86</ele>
        <time>2020-07-21T06:33:06.000Z</time>
      </trkpt>
      <trkpt lat="42.8900307" lon="-5.6849103">
        <ele>1110.86</ele>
        <time>2020-07-21T06:33:07.000Z</time>
      </trkpt>
      <trkpt lat="42.890044" lon="-5.6849108">
        <ele>1110.86</ele>
        <time>2020-07-21T06:33:08.000Z</time>
      </trkpt>
      <trkpt lat="42.8900585" lon="-5.684911">
        <ele>1110.86</ele>
        <time>2020-07-21T06:33:09.000Z</time>
      </trkpt>
      <trkpt lat="42.8900732" lon="-5.6849118">
        <ele>1111.01</ele>
        <time>2020-07-21T06:33:10.000Z</time>
      </trkpt>
      <trkpt lat="42.8900885" lon="-5.684914">
        <ele>1111.01</ele>
        <time>2020-07-21T06:33:11.000Z</time>
      </trkpt>
      <trkpt lat="42.890102" lon="-5.6849165">
        <ele>1111.16</ele>
        <time>2020-07-21T06:33:12.000Z</time>
      </trkpt>
      <trkpt lat="42.8901153" lon="-5.6849193">
        <ele>1111.16</ele>
        <time>2020-07-21T06:33:13.000Z</time>
      </trkpt>
      <trkpt lat="42.8901285" lon="-5.6849222">
        <ele>1111.16</ele>
        <time>2020-07-21T06:33:14.000Z</time>
      </trkpt>
      <trkpt lat="42.8901422" lon="-5.6849252">
        <ele>1111.16</ele>
        <time>2020-07-21T06:33:15.000Z</time>
      </trkpt>
      <trkpt lat="42.8901543" lon="-5.6849275">
        <ele>1111.31</ele>
        <time>2020-07-21T06:33:16.000Z</time>
      </trkpt>
      <trkpt lat="42.8901655" lon="-5.6849302">
        <ele>1111.31</ele>
        <time>2020-07-21T06:33:17.000Z</time>
      </trkpt>
      <trkpt lat="42.8901757" lon="-5.684933">
        <ele>1111.31</ele>
        <time>2020-07-21T06:33:18.000Z</time>
      </trkpt>
      <trkpt lat="42.8901858" lon="-5.6849362">
        <ele>1111.31</ele>
        <time>2020-07-21T06:33:19.000Z</time>
      </trkpt>
      <trkpt lat="42.890197" lon="-5.6849393">
        <ele>1111.47</ele>
        <time>2020-07-21T06:33:20.000Z</time>
      </trkpt>
      <trkpt lat="42.8902085" lon="-5.6849423">
        <ele>1111.47</ele>
        <time>2020-07-21T06:33:21.000Z</time>
      </trkpt>
      <trkpt lat="42.8902217" lon="-5.6849448">
        <ele>1111.47</ele>
        <time>2020-07-21T06:33:22.000Z</time>
      </trkpt>
      <trkpt lat="42.8902348" lon="-5.6849477">
        <ele>1111.47</ele>
        <time>2020-07-21T06:33:23.000Z</time>
      </trkpt>
      <trkpt lat="42.8902478" lon="-5.6849505">
        <ele>1111.62</ele>
        <time>2020-07-21T06:33:24.000Z</time>
      </trkpt>
      <trkpt lat="42.8902602" lon="-5.6849538">
        <ele>1111.62</ele>
        <time>2020-07-21T06:33:25.000Z</time>
      </trkpt>
      <trkpt lat="42.890271" lon="-5.6849572">
        <ele>1111.77</ele>
        <time>2020-07-21T06:33:26.000Z</time>
      </trkpt>
      <trkpt lat="42.8902818" lon="-5.6849607">
        <ele>1111.77</ele>
        <time>2020-07-21T06:33:27.000Z</time>
      </trkpt>
      <trkpt lat="42.8902925" lon="-5.6849642">
        <ele>1111.77</ele>
        <time>2020-07-21T06:33:28.000Z</time>
      </trkpt>
      <trkpt lat="42.890304" lon="-5.6849673">
        <ele>1111.77</ele>
        <time>2020-07-21T06:33:29.000Z</time>
      </trkpt>
      <trkpt lat="42.8903155" lon="-5.6849703">
        <ele>1111.92</ele>
        <time>2020-07-21T06:33:30.000Z</time>
      </trkpt>
      <trkpt lat="42.8903257" lon="-5.6849732">
        <ele>1111.92</ele>
        <time>2020-07-21T06:33:31.000Z</time>
      </trkpt>
      <trkpt lat="42.8903358" lon="-5.6849762">
        <ele>1112.08</ele>
        <time>2020-07-21T06:33:32.000Z</time>
      </trkpt>
      <trkpt lat="42.8903458" lon="-5.6849792">
        <ele>1112.08</ele>
        <time>2020-07-21T06:33:33.000Z</time>
      </trkpt>
      <trkpt lat="42.8903568" lon="-5.6849823">
        <ele>1112.08</ele>
        <time>2020-07-21T06:33:34.000Z</time>
      </trkpt>
      <trkpt lat="42.8903682" lon="-5.6849855">
        <ele>1112.08</ele>
        <time>2020-07-21T06:33:35.000Z</time>
      </trkpt>
      <trkpt lat="42.8903787" lon="-5.6849888">
        <ele>1112.23</ele>
        <time>2020-07-21T06:33:36.000Z</time>
      </trkpt>
      <trkpt lat="42.8903883" lon="-5.6849925">
        <ele>1112.23</ele>
        <time>2020-07-21T06:33:37.000Z</time>
      </trkpt>
      <trkpt lat="42.8903987" lon="-5.6849965">
        <ele>1112.23</ele>
        <time>2020-07-21T06:33:38.000Z</time>
      </trkpt>
      <trkpt lat="42.8904095" lon="-5.6850003">
        <ele>1112.23</ele>
        <time>2020-07-21T06:33:39.000Z</time>
      </trkpt>
      <trkpt lat="42.8904207" lon="-5.6850037">
        <ele>1112.38</ele>
        <time>2020-07-21T06:33:40.000Z</time>
      </trkpt>
      <trkpt lat="42.8904317" lon="-5.6850063">
        <ele>1112.38</ele>
        <time>2020-07-21T06:33:41.000Z</time>
      </trkpt>
      <trkpt lat="42.8904428" lon="-5.6850092">
        <ele>1112.53</ele>
        <time>2020-07-21T06:33:42.000Z</time>
      </trkpt>
      <trkpt lat="42.890455" lon="-5.6850123">
        <ele>1112.53</ele>
        <time>2020-07-21T06:33:43.000Z</time>
      </trkpt>
      <trkpt lat="42.8904672" lon="-5.6850153">
        <ele>1112.69</ele>
        <time>2020-07-21T06:33:44.000Z</time>
      </trkpt>
      <trkpt lat="42.890479" lon="-5.6850178">
        <ele>1112.69</ele>
        <time>2020-07-21T06:33:45.000Z</time>
      </trkpt>
      <trkpt lat="42.8904907" lon="-5.68502">
        <ele>1112.69</ele>
        <time>2020-07-21T06:33:46.000Z</time>
      </trkpt>
      <trkpt lat="42.890503" lon="-5.6850208">
        <ele>1112.69</ele>
        <time>2020-07-21T06:33:47.000Z</time>
      </trkpt>
      <trkpt lat="42.890516" lon="-5.6850193">
        <ele>1112.84</ele>
        <time>2020-07-21T06:33:48.000Z</time>
      </trkpt>
      <trkpt lat="42.890528" lon="-5.6850158">
        <ele>1112.84</ele>
        <time>2020-07-21T06:33:49.000Z</time>
      </trkpt>
      <trkpt lat="42.89054" lon="-5.6850133">
        <ele>1112.99</ele>
        <time>2020-07-21T06:33:50.000Z</time>
      </trkpt>
      <trkpt lat="42.8905507" lon="-5.6850107">
        <ele>1112.99</ele>
        <time>2020-07-21T06:33:51.000Z</time>
      </trkpt>
      <trkpt lat="42.890562" lon="-5.6850075">
        <ele>1112.99</ele>
        <time>2020-07-21T06:33:52.000Z</time>
      </trkpt>
      <trkpt lat="42.8905727" lon="-5.685002">
        <ele>1112.99</ele>
        <time>2020-07-21T06:33:53.000Z</time>
      </trkpt>
      <trkpt lat="42.8905838" lon="-5.6849975">
        <ele>1113.14</ele>
        <time>2020-07-21T06:33:54.000Z</time>
      </trkpt>
      <trkpt lat="42.8905948" lon="-5.6849943">
        <ele>1113.14</ele>
        <time>2020-07-21T06:33:55.000Z</time>
      </trkpt>
      <trkpt lat="42.8906063" lon="-5.6849932">
        <ele>1113.14</ele>
        <time>2020-07-21T06:33:56.000Z</time>
      </trkpt>
      <trkpt lat="42.8906175" lon="-5.6849925">
        <ele>1113.14</ele>
        <time>2020-07-21T06:33:57.000Z</time>
      </trkpt>
      <trkpt lat="42.8906287" lon="-5.684994">
        <ele>1113.3</ele>
        <time>2020-07-21T06:33:58.000Z</time>
      </trkpt>
      <trkpt lat="42.89064" lon="-5.684996">
        <ele>1113.3</ele>
        <time>2020-07-21T06:33:59.000Z</time>
      </trkpt>
      <trkpt lat="42.8906518" lon="-5.685001">
        <ele>1113.45</ele>
        <time>2020-07-21T06:34:00.000Z</time>
      </trkpt>
      <trkpt lat="42.8906635" lon="-5.6850057">
        <ele>1113.45</ele>
        <time>2020-07-21T06:34:01.000Z</time>
      </trkpt>
      <trkpt lat="42.890675" lon="-5.6850115">
        <ele>1113.6</ele>
        <time>2020-07-21T06:34:02.000Z</time>
      </trkpt>
      <trkpt lat="42.8906865" lon="-5.685018">
        <ele>1113.6</ele>
        <time>2020-07-21T06:34:03.000Z</time>
      </trkpt>
      <trkpt lat="42.8906973" lon="-5.6850263">
        <ele>1113.6</ele>
        <time>2020-07-21T06:34:04.000Z</time>
      </trkpt>
      <trkpt lat="42.8907082" lon="-5.6850352">
        <ele>1113.6</ele>
        <time>2020-07-21T06:34:05.000Z</time>
      </trkpt>
      <trkpt lat="42.8907188" lon="-5.6850435">
        <ele>1113.75</ele>
        <time>2020-07-21T06:34:06.000Z</time>
      </trkpt>
      <trkpt lat="42.890729" lon="-5.6850512">
        <ele>1113.75</ele>
        <time>2020-07-21T06:34:07.000Z</time>
      </trkpt>
      <trkpt lat="42.8907397" lon="-5.6850593">
        <ele>1113.91</ele>
        <time>2020-07-21T06:34:08.000Z</time>
      </trkpt>
      <trkpt lat="42.8907498" lon="-5.6850667">
        <ele>1113.91</ele>
        <time>2020-07-21T06:34:09.000Z</time>
      </trkpt>
      <trkpt lat="42.8907607" lon="-5.6850737">
        <ele>1114.06</ele>
        <time>2020-07-21T06:34:10.000Z</time>
      </trkpt>
      <trkpt lat="42.8907717" lon="-5.6850792">
        <ele>1114.06</ele>
        <time>2020-07-21T06:34:11.000Z</time>
      </trkpt>
      <trkpt lat="42.8907827" lon="-5.6850847">
        <ele>1114.06</ele>
        <time>2020-07-21T06:34:12.000Z</time>
      </trkpt>
      <trkpt lat="42.8907938" lon="-5.68509">
        <ele>1114.06</ele>
        <time>2020-07-21T06:34:13.000Z</time>
      </trkpt>
      <trkpt lat="42.8908042" lon="-5.6850965">
        <ele>1114.21</ele>
        <time>2020-07-21T06:34:14.000Z</time>
      </trkpt>
      <trkpt lat="42.8908155" lon="-5.6851038">
        <ele>1114.21</ele>
        <time>2020-07-21T06:34:15.000Z</time>
      </trkpt>
      <trkpt lat="42.8908267" lon="-5.6851117">
        <ele>1114.36</ele>
        <time>2020-07-21T06:34:16.000Z</time>
      </trkpt>
      <trkpt lat="42.890838" lon="-5.68512">
        <ele>1114.36</ele>
        <time>2020-07-21T06:34:17.000Z</time>
      </trkpt>
      <trkpt lat="42.890849" lon="-5.6851285">
        <ele>1114.52</ele>
        <time>2020-07-21T06:34:18.000Z</time>
      </trkpt>
      <trkpt lat="42.89086" lon="-5.685137">
        <ele>1114.52</ele>
        <time>2020-07-21T06:34:19.000Z</time>
      </trkpt>
      <trkpt lat="42.890871" lon="-5.6851447">
        <ele>1114.52</ele>
        <time>2020-07-21T06:34:20.000Z</time>
      </trkpt>
      <trkpt lat="42.8908817" lon="-5.6851522">
        <ele>1114.52</ele>
        <time>2020-07-21T06:34:21.000Z</time>
      </trkpt>
      <trkpt lat="42.890892" lon="-5.68516">
        <ele>1114.67</ele>
        <time>2020-07-21T06:34:22.000Z</time>
      </trkpt>
      <trkpt lat="42.8909017" lon="-5.6851677">
        <ele>1114.67</ele>
        <time>2020-07-21T06:34:23.000Z</time>
      </trkpt>
      <trkpt lat="42.8909115" lon="-5.6851753">
        <ele>1114.82</ele>
        <time>2020-07-21T06:34:24.000Z</time>
      </trkpt>
      <trkpt lat="42.8909208" lon="-5.685183">
        <ele>1114.82</ele>
        <time>2020-07-21T06:34:25.000Z</time>
      </trkpt>
      <trkpt lat="42.8909312" lon="-5.685191">
        <ele>1114.82</ele>
        <time>2020-07-21T06:34:26.000Z</time>
      </trkpt>
      <trkpt lat="42.8909422" lon="-5.685199">
        <ele>1114.82</ele>
        <time>2020-07-21T06:34:27.000Z</time>
      </trkpt>
      <trkpt lat="42.8909537" lon="-5.685207">
        <ele>1114.82</ele>
        <time>2020-07-21T06:34:28.000Z</time>
      </trkpt>
      <trkpt lat="42.890965" lon="-5.685215">
        <ele>1114.82</ele>
        <time>2020-07-21T06:34:29.000Z</time>
      </trkpt>
      <trkpt lat="42.8909757" lon="-5.6852238">
        <ele>1114.97</ele>
        <time>2020-07-21T06:34:30.000Z</time>
      </trkpt>
      <trkpt lat="42.8909857" lon="-5.6852333">
        <ele>1114.97</ele>
        <time>2020-07-21T06:34:31.000Z</time>
      </trkpt>
      <trkpt lat="42.890995" lon="-5.6852428">
        <ele>1114.97</ele>
        <time>2020-07-21T06:34:32.000Z</time>
      </trkpt>
      <trkpt lat="42.8910042" lon="-5.685252">
        <ele>1114.97</ele>
        <time>2020-07-21T06:34:33.000Z</time>
      </trkpt>
      <trkpt lat="42.8910132" lon="-5.6852607">
        <ele>1114.97</ele>
        <time>2020-07-21T06:34:34.000Z</time>
      </trkpt>
      <trkpt lat="42.8910217" lon="-5.6852698">
        <ele>1114.97</ele>
        <time>2020-07-21T06:34:35.000Z</time>
      </trkpt>
      <trkpt lat="42.8910288" lon="-5.6852792">
        <ele>1114.97</ele>
        <time>2020-07-21T06:34:36.000Z</time>
      </trkpt>
      <trkpt lat="42.8910355" lon="-5.6852887">
        <ele>1114.97</ele>
        <time>2020-07-21T06:34:37.000Z</time>
      </trkpt>
      <trkpt lat="42.8910427" lon="-5.6852973">
        <ele>1115.12</ele>
        <time>2020-07-21T06:34:38.000Z</time>
      </trkpt>
      <trkpt lat="42.891052" lon="-5.6853057">
        <ele>1115.12</ele>
        <time>2020-07-21T06:34:39.000Z</time>
      </trkpt>
      <trkpt lat="42.8910615" lon="-5.6853133">
        <ele>1115.12</ele>
        <time>2020-07-21T06:34:40.000Z</time>
      </trkpt>
      <trkpt lat="42.891071" lon="-5.6853217">
        <ele>1115.12</ele>
        <time>2020-07-21T06:34:41.000Z</time>
      </trkpt>
      <trkpt lat="42.8910792" lon="-5.6853297">
        <ele>1115.28</ele>
        <time>2020-07-21T06:34:42.000Z</time>
      </trkpt>
      <trkpt lat="42.8910872" lon="-5.6853377">
        <ele>1115.28</ele>
        <time>2020-07-21T06:34:43.000Z</time>
      </trkpt>
      <trkpt lat="42.891095" lon="-5.6853458">
        <ele>1115.28</ele>
        <time>2020-07-21T06:34:44.000Z</time>
      </trkpt>
      <trkpt lat="42.8911025" lon="-5.6853543">
        <ele>1115.28</ele>
        <time>2020-07-21T06:34:45.000Z</time>
      </trkpt>
      <trkpt lat="42.8911092" lon="-5.6853633">
        <ele>1115.43</ele>
        <time>2020-07-21T06:34:46.000Z</time>
      </trkpt>
      <trkpt lat="42.8911157" lon="-5.6853718">
        <ele>1115.43</ele>
        <time>2020-07-21T06:34:47.000Z</time>
      </trkpt>
      <trkpt lat="42.8911232" lon="-5.6853803">
        <ele>1115.58</ele>
        <time>2020-07-21T06:34:48.000Z</time>
      </trkpt>
      <trkpt lat="42.8911317" lon="-5.6853887">
        <ele>1115.58</ele>
        <time>2020-07-21T06:34:49.000Z</time>
      </trkpt>
      <trkpt lat="42.8911413" lon="-5.6853973">
        <ele>1115.73</ele>
        <time>2020-07-21T06:34:50.000Z</time>
      </trkpt>
      <trkpt lat="42.8911513" lon="-5.6854058">
        <ele>1115.73</ele>
        <time>2020-07-21T06:34:51.000Z</time>
      </trkpt>
      <trkpt lat="42.8911622" lon="-5.6854143">
        <ele>1115.89</ele>
        <time>2020-07-21T06:34:52.000Z</time>
      </trkpt>
      <trkpt lat="42.8911743" lon="-5.6854228">
        <ele>1115.89</ele>
        <time>2020-07-21T06:34:53.000Z</time>
      </trkpt>
      <trkpt lat="42.891187" lon="-5.6854313">
        <ele>1116.04</ele>
        <time>2020-07-21T06:34:54.000Z</time>
      </trkpt>
      <trkpt lat="42.8911995" lon="-5.6854403">
        <ele>1116.04</ele>
        <time>2020-07-21T06:34:55.000Z</time>
      </trkpt>
      <trkpt lat="42.891211" lon="-5.6854488">
        <ele>1116.19</ele>
        <time>2020-07-21T06:34:56.000Z</time>
      </trkpt>
      <trkpt lat="42.8912213" lon="-5.6854572">
        <ele>1116.19</ele>
        <time>2020-07-21T06:34:57.000Z</time>
      </trkpt>
      <trkpt lat="42.8912313" lon="-5.6854655">
        <ele>1116.34</ele>
        <time>2020-07-21T06:34:58.000Z</time>
      </trkpt>
      <trkpt lat="42.8912403" lon="-5.6854745">
        <ele>1116.34</ele>
        <time>2020-07-21T06:34:59.000Z</time>
      </trkpt>
      <trkpt lat="42.8912498" lon="-5.6854838">
        <ele>1116.5</ele>
        <time>2020-07-21T06:35:00.000Z</time>
      </trkpt>
      <trkpt lat="42.8912593" lon="-5.6854928">
        <ele>1116.5</ele>
        <time>2020-07-21T06:35:01.000Z</time>
      </trkpt>
      <trkpt lat="42.8912688" lon="-5.6855017">
        <ele>1116.8</ele>
        <time>2020-07-21T06:35:02.000Z</time>
      </trkpt>
      <trkpt lat="42.8912795" lon="-5.6855102">
        <ele>1116.8</ele>
        <time>2020-07-21T06:35:03.000Z</time>
      </trkpt>
      <trkpt lat="42.8912903" lon="-5.685518">
        <ele>1116.95</ele>
        <time>2020-07-21T06:35:04.000Z</time>
      </trkpt>
      <trkpt lat="42.8913023" lon="-5.685525">
        <ele>1116.95</ele>
        <time>2020-07-21T06:35:05.000Z</time>
      </trkpt>
      <trkpt lat="42.8913117" lon="-5.685531">
        <ele>1117.11</ele>
        <time>2020-07-21T06:35:06.000Z</time>
      </trkpt>
      <trkpt lat="42.8913202" lon="-5.6855362">
        <ele>1117.11</ele>
        <time>2020-07-21T06:35:07.000Z</time>
      </trkpt>
      <trkpt lat="42.8913265" lon="-5.6855407">
        <ele>1117.26</ele>
        <time>2020-07-21T06:35:08.000Z</time>
      </trkpt>
      <trkpt lat="42.8913347" lon="-5.6855458">
        <ele>1117.26</ele>
        <time>2020-07-21T06:35:09.000Z</time>
      </trkpt>
      <trkpt lat="42.8913435" lon="-5.6855512">
        <ele>1117.41</ele>
        <time>2020-07-21T06:35:10.000Z</time>
      </trkpt>
      <trkpt lat="42.8913528" lon="-5.6855572">
        <ele>1117.41</ele>
        <time>2020-07-21T06:35:11.000Z</time>
      </trkpt>
      <trkpt lat="42.891361" lon="-5.6855632">
        <ele>1117.71</ele>
        <time>2020-07-21T06:35:12.000Z</time>
      </trkpt>
      <trkpt lat="42.8913682" lon="-5.6855712">
        <ele>1117.71</ele>
        <time>2020-07-21T06:35:13.000Z</time>
      </trkpt>
      <trkpt lat="42.8913768" lon="-5.6855805">
        <ele>1117.87</ele>
        <time>2020-07-21T06:35:14.000Z</time>
      </trkpt>
      <trkpt lat="42.891386" lon="-5.6855905">
        <ele>1117.87</ele>
        <time>2020-07-21T06:35:15.000Z</time>
      </trkpt>
      <trkpt lat="42.8913963" lon="-5.6855993">
        <ele>1117.87</ele>
        <time>2020-07-21T06:35:16.000Z</time>
      </trkpt>
      <trkpt lat="42.8914055" lon="-5.6856077">
        <ele>1117.87</ele>
        <time>2020-07-21T06:35:17.000Z</time>
      </trkpt>
      <trkpt lat="42.8914147" lon="-5.6856158">
        <ele>1118.02</ele>
        <time>2020-07-21T06:35:18.000Z</time>
      </trkpt>
      <trkpt lat="42.8914242" lon="-5.6856243">
        <ele>1118.02</ele>
        <time>2020-07-21T06:35:19.000Z</time>
      </trkpt>
      <trkpt lat="42.8914338" lon="-5.685633">
        <ele>1118.17</ele>
        <time>2020-07-21T06:35:20.000Z</time>
      </trkpt>
      <trkpt lat="42.8914437" lon="-5.6856418">
        <ele>1118.17</ele>
        <time>2020-07-21T06:35:21.000Z</time>
      </trkpt>
      <trkpt lat="42.891453" lon="-5.6856515">
        <ele>1118.17</ele>
        <time>2020-07-21T06:35:22.000Z</time>
      </trkpt>
      <trkpt lat="42.8914622" lon="-5.6856605">
        <ele>1118.17</ele>
        <time>2020-07-21T06:35:23.000Z</time>
      </trkpt>
      <trkpt lat="42.8914717" lon="-5.6856697">
        <ele>1118.32</ele>
        <time>2020-07-21T06:35:24.000Z</time>
      </trkpt>
      <trkpt lat="42.8914812" lon="-5.6856782">
        <ele>1118.32</ele>
        <time>2020-07-21T06:35:25.000Z</time>
      </trkpt>
      <trkpt lat="42.8914908" lon="-5.6856872">
        <ele>1118.48</ele>
        <time>2020-07-21T06:35:26.000Z</time>
      </trkpt>
      <trkpt lat="42.8914998" lon="-5.6856943">
        <ele>1118.48</ele>
        <time>2020-07-21T06:35:27.000Z</time>
      </trkpt>
      <trkpt lat="42.8915097" lon="-5.6857013">
        <ele>1118.63</ele>
        <time>2020-07-21T06:35:28.000Z</time>
      </trkpt>
      <trkpt lat="42.8915195" lon="-5.6857085">
        <ele>1118.63</ele>
        <time>2020-07-21T06:35:29.000Z</time>
      </trkpt>
      <trkpt lat="42.8915297" lon="-5.6857178">
        <ele>1118.63</ele>
        <time>2020-07-21T06:35:30.000Z</time>
      </trkpt>
      <trkpt lat="42.8915388" lon="-5.6857273">
        <ele>1118.63</ele>
        <time>2020-07-21T06:35:31.000Z</time>
      </trkpt>
      <trkpt lat="42.891548" lon="-5.6857363">
        <ele>1118.78</ele>
        <time>2020-07-21T06:35:32.000Z</time>
      </trkpt>
      <trkpt lat="42.8915572" lon="-5.6857453">
        <ele>1118.78</ele>
        <time>2020-07-21T06:35:33.000Z</time>
      </trkpt>
      <trkpt lat="42.8915668" lon="-5.6857542">
        <ele>1118.93</ele>
        <time>2020-07-21T06:35:34.000Z</time>
      </trkpt>
      <trkpt lat="42.8915767" lon="-5.6857633">
        <ele>1118.93</ele>
        <time>2020-07-21T06:35:35.000Z</time>
      </trkpt>
      <trkpt lat="42.8915863" lon="-5.6857713">
        <ele>1118.93</ele>
        <time>2020-07-21T06:35:36.000Z</time>
      </trkpt>
      <trkpt lat="42.8915962" lon="-5.6857792">
        <ele>1118.93</ele>
        <time>2020-07-21T06:35:37.000Z</time>
      </trkpt>
      <trkpt lat="42.8916062" lon="-5.6857865">
        <ele>1119.09</ele>
        <time>2020-07-21T06:35:38.000Z</time>
      </trkpt>
      <trkpt lat="42.8916163" lon="-5.6857937">
        <ele>1119.09</ele>
        <time>2020-07-21T06:35:39.000Z</time>
      </trkpt>
      <trkpt lat="42.8916262" lon="-5.685801">
        <ele>1119.24</ele>
        <time>2020-07-21T06:35:40.000Z</time>
      </trkpt>
      <trkpt lat="42.8916357" lon="-5.6858083">
        <ele>1119.24</ele>
        <time>2020-07-21T06:35:41.000Z</time>
      </trkpt>
      <trkpt lat="42.8916447" lon="-5.6858177">
        <ele>1119.24</ele>
        <time>2020-07-21T06:35:42.000Z</time>
      </trkpt>
      <trkpt lat="42.8916542" lon="-5.6858273">
        <ele>1119.24</ele>
        <time>2020-07-21T06:35:43.000Z</time>
      </trkpt>
      <trkpt lat="42.891664" lon="-5.6858372">
        <ele>1119.24</ele>
        <time>2020-07-21T06:35:44.000Z</time>
      </trkpt>
      <trkpt lat="42.8916748" lon="-5.6858457">
        <ele>1119.24</ele>
        <time>2020-07-21T06:35:45.000Z</time>
      </trkpt>
      <trkpt lat="42.8916857" lon="-5.6858542">
        <ele>1119.39</ele>
        <time>2020-07-21T06:35:46.000Z</time>
      </trkpt>
      <trkpt lat="42.8916962" lon="-5.6858633">
        <ele>1119.39</ele>
        <time>2020-07-21T06:35:47.000Z</time>
      </trkpt>
      <trkpt lat="42.8917058" lon="-5.6858725">
        <ele>1119.39</ele>
        <time>2020-07-21T06:35:48.000Z</time>
      </trkpt>
      <trkpt lat="42.8917155" lon="-5.6858813">
        <ele>1119.39</ele>
        <time>2020-07-21T06:35:49.000Z</time>
      </trkpt>
      <trkpt lat="42.8917265" lon="-5.6858892">
        <ele>1119.54</ele>
        <time>2020-07-21T06:35:50.000Z</time>
      </trkpt>
      <trkpt lat="42.8917383" lon="-5.6858962">
        <ele>1119.54</ele>
        <time>2020-07-21T06:35:51.000Z</time>
      </trkpt>
      <trkpt lat="42.8917503" lon="-5.6859025">
        <ele>1119.7</ele>
        <time>2020-07-21T06:35:52.000Z</time>
      </trkpt>
      <trkpt lat="42.8917625" lon="-5.6859077">
        <ele>1119.7</ele>
        <time>2020-07-21T06:35:53.000Z</time>
      </trkpt>
      <trkpt lat="42.8917752" lon="-5.6859115">
        <ele>1119.7</ele>
        <time>2020-07-21T06:35:54.000Z</time>
      </trkpt>
      <trkpt lat="42.8917878" lon="-5.6859157">
        <ele>1119.7</ele>
        <time>2020-07-21T06:35:55.000Z</time>
      </trkpt>
      <trkpt lat="42.8918" lon="-5.685921">
        <ele>1119.85</ele>
        <time>2020-07-21T06:35:56.000Z</time>
      </trkpt>
      <trkpt lat="42.8918108" lon="-5.6859287">
        <ele>1119.85</ele>
        <time>2020-07-21T06:35:57.000Z</time>
      </trkpt>
      <trkpt lat="42.8918222" lon="-5.6859358">
        <ele>1120</ele>
        <time>2020-07-21T06:35:58.000Z</time>
      </trkpt>
      <trkpt lat="42.8918335" lon="-5.685943">
        <ele>1120</ele>
        <time>2020-07-21T06:35:59.000Z</time>
      </trkpt>
      <trkpt lat="42.891845" lon="-5.6859505">
        <ele>1120</ele>
        <time>2020-07-21T06:36:00.000Z</time>
      </trkpt>
      <trkpt lat="42.8918553" lon="-5.6859582">
        <ele>1120</ele>
        <time>2020-07-21T06:36:01.000Z</time>
      </trkpt>
      <trkpt lat="42.8918653" lon="-5.6859658">
        <ele>1120.15</ele>
        <time>2020-07-21T06:36:02.000Z</time>
      </trkpt>
      <trkpt lat="42.8918753" lon="-5.6859732">
        <ele>1120.15</ele>
        <time>2020-07-21T06:36:03.000Z</time>
      </trkpt>
      <trkpt lat="42.8918847" lon="-5.6859803">
        <ele>1120.31</ele>
        <time>2020-07-21T06:36:04.000Z</time>
      </trkpt>
      <trkpt lat="42.8918932" lon="-5.685987">
        <ele>1120.31</ele>
        <time>2020-07-21T06:36:05.000Z</time>
      </trkpt>
      <trkpt lat="42.891901" lon="-5.685995">
        <ele>1120.31</ele>
        <time>2020-07-21T06:36:06.000Z</time>
      </trkpt>
      <trkpt lat="42.8919082" lon="-5.6860038">
        <ele>1120.31</ele>
        <time>2020-07-21T06:36:07.000Z</time>
      </trkpt>
      <trkpt lat="42.8919152" lon="-5.686015">
        <ele>1120.46</ele>
        <time>2020-07-21T06:36:08.000Z</time>
      </trkpt>
      <trkpt lat="42.8919222" lon="-5.6860263">
        <ele>1120.46</ele>
        <time>2020-07-21T06:36:09.000Z</time>
      </trkpt>
      <trkpt lat="42.8919308" lon="-5.6860378">
        <ele>1120.46</ele>
        <time>2020-07-21T06:36:10.000Z</time>
      </trkpt>
      <trkpt lat="42.8919408" lon="-5.6860495">
        <ele>1120.46</ele>
        <time>2020-07-21T06:36:11.000Z</time>
      </trkpt>
      <trkpt lat="42.8919515" lon="-5.6860615">
        <ele>1120.61</ele>
        <time>2020-07-21T06:36:12.000Z</time>
      </trkpt>
      <trkpt lat="42.8919617" lon="-5.6860738">
        <ele>1120.61</ele>
        <time>2020-07-21T06:36:13.000Z</time>
      </trkpt>
      <trkpt lat="42.8919708" lon="-5.6860853">
        <ele>1120.76</ele>
        <time>2020-07-21T06:36:14.000Z</time>
      </trkpt>
      <trkpt lat="42.8919802" lon="-5.6860963">
        <ele>1120.76</ele>
        <time>2020-07-21T06:36:15.000Z</time>
      </trkpt>
      <trkpt lat="42.8919898" lon="-5.6861068">
        <ele>1120.92</ele>
        <time>2020-07-21T06:36:16.000Z</time>
      </trkpt>
      <trkpt lat="42.8920007" lon="-5.686116">
        <ele>1120.92</ele>
        <time>2020-07-21T06:36:17.000Z</time>
      </trkpt>
      <trkpt lat="42.8920102" lon="-5.6861262">
        <ele>1121.07</ele>
        <time>2020-07-21T06:36:18.000Z</time>
      </trkpt>
      <trkpt lat="42.8920195" lon="-5.6861362">
        <ele>1121.07</ele>
        <time>2020-07-21T06:36:19.000Z</time>
      </trkpt>
      <trkpt lat="42.8920288" lon="-5.6861472">
        <ele>1121.22</ele>
        <time>2020-07-21T06:36:20.000Z</time>
      </trkpt>
      <trkpt lat="42.892038" lon="-5.686159">
        <ele>1121.22</ele>
        <time>2020-07-21T06:36:21.000Z</time>
      </trkpt>
      <trkpt lat="42.8920472" lon="-5.6861708">
        <ele>1121.37</ele>
        <time>2020-07-21T06:36:22.000Z</time>
      </trkpt>
      <trkpt lat="42.8920558" lon="-5.6861825">
        <ele>1121.37</ele>
        <time>2020-07-21T06:36:23.000Z</time>
      </trkpt>
      <trkpt lat="42.8920655" lon="-5.6861925">
        <ele>1121.53</ele>
        <time>2020-07-21T06:36:24.000Z</time>
      </trkpt>
      <trkpt lat="42.8920752" lon="-5.6862027">
        <ele>1121.53</ele>
        <time>2020-07-21T06:36:25.000Z</time>
      </trkpt>
      <trkpt lat="42.8920847" lon="-5.6862137">
        <ele>1121.53</ele>
        <time>2020-07-21T06:36:26.000Z</time>
      </trkpt>
      <trkpt lat="42.892094" lon="-5.6862245">
        <ele>1121.53</ele>
        <time>2020-07-21T06:36:27.000Z</time>
      </trkpt>
      <trkpt lat="42.8921035" lon="-5.6862357">
        <ele>1121.68</ele>
        <time>2020-07-21T06:36:28.000Z</time>
      </trkpt>
      <trkpt lat="42.8921128" lon="-5.6862455">
        <ele>1121.68</ele>
        <time>2020-07-21T06:36:29.000Z</time>
      </trkpt>
      <trkpt lat="42.8921223" lon="-5.6862547">
        <ele>1121.83</ele>
        <time>2020-07-21T06:36:30.000Z</time>
      </trkpt>
      <trkpt lat="42.892132" lon="-5.6862632">
        <ele>1121.83</ele>
        <time>2020-07-21T06:36:31.000Z</time>
      </trkpt>
      <trkpt lat="42.8921413" lon="-5.6862715">
        <ele>1121.98</ele>
        <time>2020-07-21T06:36:32.000Z</time>
      </trkpt>
      <trkpt lat="42.8921507" lon="-5.6862797">
        <ele>1121.98</ele>
        <time>2020-07-21T06:36:33.000Z</time>
      </trkpt>
      <trkpt lat="42.8921595" lon="-5.6862875">
        <ele>1122.14</ele>
        <time>2020-07-21T06:36:34.000Z</time>
      </trkpt>
      <trkpt lat="42.8921685" lon="-5.6862948">
        <ele>1122.14</ele>
        <time>2020-07-21T06:36:35.000Z</time>
      </trkpt>
      <trkpt lat="42.8921787" lon="-5.6863022">
        <ele>1122.29</ele>
        <time>2020-07-21T06:36:36.000Z</time>
      </trkpt>
      <trkpt lat="42.8921887" lon="-5.6863087">
        <ele>1122.29</ele>
        <time>2020-07-21T06:36:37.000Z</time>
      </trkpt>
      <trkpt lat="42.8921995" lon="-5.6863148">
        <ele>1122.44</ele>
        <time>2020-07-21T06:36:38.000Z</time>
      </trkpt>
      <trkpt lat="42.8922105" lon="-5.6863205">
        <ele>1122.44</ele>
        <time>2020-07-21T06:36:39.000Z</time>
      </trkpt>
      <trkpt lat="42.8922232" lon="-5.6863267">
        <ele>1122.74</ele>
        <time>2020-07-21T06:36:40.000Z</time>
      </trkpt>
      <trkpt lat="42.892237" lon="-5.6863328">
        <ele>1122.74</ele>
        <time>2020-07-21T06:36:41.000Z</time>
      </trkpt>
      <trkpt lat="42.8922498" lon="-5.6863395">
        <ele>1122.9</ele>
        <time>2020-07-21T06:36:42.000Z</time>
      </trkpt>
      <trkpt lat="42.8922622" lon="-5.6863458">
        <ele>1122.9</ele>
        <time>2020-07-21T06:36:43.000Z</time>
      </trkpt>
      <trkpt lat="42.8922728" lon="-5.6863518">
        <ele>1123.2</ele>
        <time>2020-07-21T06:36:44.000Z</time>
      </trkpt>
      <trkpt lat="42.892286" lon="-5.6863548">
        <ele>1123.2</ele>
        <time>2020-07-21T06:36:45.000Z</time>
      </trkpt>
      <trkpt lat="42.8922987" lon="-5.6863565">
        <ele>1123.35</ele>
        <time>2020-07-21T06:36:46.000Z</time>
      </trkpt>
      <trkpt lat="42.892312" lon="-5.6863562">
        <ele>1123.35</ele>
        <time>2020-07-21T06:36:47.000Z</time>
      </trkpt>
      <trkpt lat="42.892322" lon="-5.6863583">
        <ele>1123.51</ele>
        <time>2020-07-21T06:36:48.000Z</time>
      </trkpt>
      <trkpt lat="42.8923328" lon="-5.6863603">
        <ele>1123.51</ele>
        <time>2020-07-21T06:36:49.000Z</time>
      </trkpt>
      <trkpt lat="42.8923443" lon="-5.6863637">
        <ele>1123.81</ele>
        <time>2020-07-21T06:36:50.000Z</time>
      </trkpt>
      <trkpt lat="42.8923565" lon="-5.6863647">
        <ele>1123.81</ele>
        <time>2020-07-21T06:36:51.000Z</time>
      </trkpt>
      <trkpt lat="42.8923687" lon="-5.6863665">
        <ele>1123.96</ele>
        <time>2020-07-21T06:36:52.000Z</time>
      </trkpt>
      <trkpt lat="42.89238" lon="-5.686368">
        <ele>1123.96</ele>
        <time>2020-07-21T06:36:53.000Z</time>
      </trkpt>
      <trkpt lat="42.8923923" lon="-5.686371">
        <ele>1124.27</ele>
        <time>2020-07-21T06:36:54.000Z</time>
      </trkpt>
      <trkpt lat="42.892407" lon="-5.6863742">
        <ele>1124.27</ele>
        <time>2020-07-21T06:36:55.000Z</time>
      </trkpt>
      <trkpt lat="42.8924225" lon="-5.6863775">
        <ele>1124.42</ele>
        <time>2020-07-21T06:36:56.000Z</time>
      </trkpt>
      <trkpt lat="42.8924373" lon="-5.6863807">
        <ele>1124.42</ele>
        <time>2020-07-21T06:36:57.000Z</time>
      </trkpt>
      <trkpt lat="42.8924488" lon="-5.6863828">
        <ele>1124.57</ele>
        <time>2020-07-21T06:36:58.000Z</time>
      </trkpt>
      <trkpt lat="42.8924587" lon="-5.6863852">
        <ele>1124.57</ele>
        <time>2020-07-21T06:36:59.000Z</time>
      </trkpt>
      <trkpt lat="42.892468" lon="-5.6863883">
        <ele>1124.73</ele>
        <time>2020-07-21T06:37:00.000Z</time>
      </trkpt>
      <trkpt lat="42.892477" lon="-5.6863915">
        <ele>1124.73</ele>
        <time>2020-07-21T06:37:01.000Z</time>
      </trkpt>
      <trkpt lat="42.8924847" lon="-5.6863947">
        <ele>1124.88</ele>
        <time>2020-07-21T06:37:02.000Z</time>
      </trkpt>
      <trkpt lat="42.8924917" lon="-5.686398">
        <ele>1124.88</ele>
        <time>2020-07-21T06:37:03.000Z</time>
      </trkpt>
      <trkpt lat="42.8924968" lon="-5.6864027">
        <ele>1124.88</ele>
        <time>2020-07-21T06:37:04.000Z</time>
      </trkpt>
      <trkpt lat="42.8925017" lon="-5.6864082">
        <ele>1124.88</ele>
        <time>2020-07-21T06:37:05.000Z</time>
      </trkpt>
      <trkpt lat="42.8925062" lon="-5.686413">
        <ele>1125.03</ele>
        <time>2020-07-21T06:37:06.000Z</time>
      </trkpt>
      <trkpt lat="42.892512" lon="-5.6864172">
        <ele>1125.03</ele>
        <time>2020-07-21T06:37:07.000Z</time>
      </trkpt>
      <trkpt lat="42.8925185" lon="-5.6864208">
        <ele>1125.03</ele>
        <time>2020-07-21T06:37:08.000Z</time>
      </trkpt>
      <trkpt lat="42.8925255" lon="-5.6864245">
        <ele>1125.03</ele>
        <time>2020-07-21T06:37:09.000Z</time>
      </trkpt>
      <trkpt lat="42.8925332" lon="-5.686428">
        <ele>1125.03</ele>
        <time>2020-07-21T06:37:10.000Z</time>
      </trkpt>
      <trkpt lat="42.8925408" lon="-5.6864312">
        <ele>1125.03</ele>
        <time>2020-07-21T06:37:11.000Z</time>
      </trkpt>
      <trkpt lat="42.8925495" lon="-5.6864357">
        <ele>1125.03</ele>
        <time>2020-07-21T06:37:12.000Z</time>
      </trkpt>
      <trkpt lat="42.8925582" lon="-5.6864402">
        <ele>1125.03</ele>
        <time>2020-07-21T06:37:13.000Z</time>
      </trkpt>
      <trkpt lat="42.8925675" lon="-5.6864455">
        <ele>1125.03</ele>
        <time>2020-07-21T06:37:14.000Z</time>
      </trkpt>
      <trkpt lat="42.8925768" lon="-5.6864522">
        <ele>1125.03</ele>
        <time>2020-07-21T06:37:15.000Z</time>
      </trkpt>
      <trkpt lat="42.8925847" lon="-5.6864595">
        <ele>1125.03</ele>
        <time>2020-07-21T06:37:16.000Z</time>
      </trkpt>
      <trkpt lat="42.8925892" lon="-5.6864662">
        <ele>1125.03</ele>
        <time>2020-07-21T06:37:17.000Z</time>
      </trkpt>
      <trkpt lat="42.892593" lon="-5.6864715">
        <ele>1124.88</ele>
        <time>2020-07-21T06:37:18.000Z</time>
      </trkpt>
      <trkpt lat="42.8926" lon="-5.686478">
        <ele>1124.88</ele>
        <time>2020-07-21T06:37:19.000Z</time>
      </trkpt>
      <trkpt lat="42.8926095" lon="-5.686485">
        <ele>1124.88</ele>
        <time>2020-07-21T06:37:20.000Z</time>
      </trkpt>
      <trkpt lat="42.8926202" lon="-5.6864917">
        <ele>1124.88</ele>
        <time>2020-07-21T06:37:21.000Z</time>
      </trkpt>
      <trkpt lat="42.8926397" lon="-5.686496">
        <ele>1124.88</ele>
        <time>2020-07-21T06:37:22.000Z</time>
      </trkpt>
      <trkpt lat="42.8926695" lon="-5.6864985">
        <ele>1124.88</ele>
        <time>2020-07-21T06:37:23.000Z</time>
      </trkpt>
      <trkpt lat="42.8927015" lon="-5.6865023">
        <ele>1124.88</ele>
        <time>2020-07-21T06:37:24.000Z</time>
      </trkpt>
      <trkpt lat="42.8927287" lon="-5.6865065">
        <ele>1124.88</ele>
        <time>2020-07-21T06:37:25.000Z</time>
      </trkpt>
      <trkpt lat="42.8927492" lon="-5.686512">
        <ele>1124.88</ele>
        <time>2020-07-21T06:37:26.000Z</time>
      </trkpt>
      <trkpt lat="42.8927675" lon="-5.6865162">
        <ele>1124.88</ele>
        <time>2020-07-21T06:37:27.000Z</time>
      </trkpt>
      <trkpt lat="42.892781" lon="-5.6865205">
        <ele>1124.88</ele>
        <time>2020-07-21T06:37:28.000Z</time>
      </trkpt>
      <trkpt lat="42.8927957" lon="-5.6865238">
        <ele>1124.88</ele>
        <time>2020-07-21T06:37:29.000Z</time>
      </trkpt>
      <trkpt lat="42.8928123" lon="-5.6865258">
        <ele>1124.88</ele>
        <time>2020-07-21T06:37:30.000Z</time>
      </trkpt>
      <trkpt lat="42.8928293" lon="-5.6865278">
        <ele>1124.88</ele>
        <time>2020-07-21T06:37:31.000Z</time>
      </trkpt>
      <trkpt lat="42.8928413" lon="-5.6865285">
        <ele>1124.88</ele>
        <time>2020-07-21T06:37:32.000Z</time>
      </trkpt>
      <trkpt lat="42.8928507" lon="-5.6865307">
        <ele>1124.88</ele>
        <time>2020-07-21T06:37:33.000Z</time>
      </trkpt>
      <trkpt lat="42.8928608" lon="-5.6865337">
        <ele>1124.88</ele>
        <time>2020-07-21T06:37:34.000Z</time>
      </trkpt>
      <trkpt lat="42.892873" lon="-5.6865405">
        <ele>1124.88</ele>
        <time>2020-07-21T06:37:35.000Z</time>
      </trkpt>
      <trkpt lat="42.892885" lon="-5.6865487">
        <ele>1124.88</ele>
        <time>2020-07-21T06:37:36.000Z</time>
      </trkpt>
      <trkpt lat="42.8928965" lon="-5.6865583">
        <ele>1124.88</ele>
        <time>2020-07-21T06:37:37.000Z</time>
      </trkpt>
      <trkpt lat="42.8929053" lon="-5.6865677">
        <ele>1124.88</ele>
        <time>2020-07-21T06:37:38.000Z</time>
      </trkpt>
      <trkpt lat="42.8929142" lon="-5.6865775">
        <ele>1124.88</ele>
        <time>2020-07-21T06:37:39.000Z</time>
      </trkpt>
      <trkpt lat="42.8929212" lon="-5.6865855">
        <ele>1125.03</ele>
        <time>2020-07-21T06:37:40.000Z</time>
      </trkpt>
      <trkpt lat="42.892927" lon="-5.6865937">
        <ele>1125.03</ele>
        <time>2020-07-21T06:37:41.000Z</time>
      </trkpt>
      <trkpt lat="42.8929332" lon="-5.6866005">
        <ele>1125.03</ele>
        <time>2020-07-21T06:37:42.000Z</time>
      </trkpt>
      <trkpt lat="42.8929445" lon="-5.6866065">
        <ele>1125.03</ele>
        <time>2020-07-21T06:37:43.000Z</time>
      </trkpt>
      <trkpt lat="42.892958" lon="-5.6866107">
        <ele>1125.03</ele>
        <time>2020-07-21T06:37:44.000Z</time>
      </trkpt>
      <trkpt lat="42.892972" lon="-5.6866133">
        <ele>1125.03</ele>
        <time>2020-07-21T06:37:45.000Z</time>
      </trkpt>
      <trkpt lat="42.8929832" lon="-5.6866157">
        <ele>1125.03</ele>
        <time>2020-07-21T06:37:46.000Z</time>
      </trkpt>
      <trkpt lat="42.8929953" lon="-5.6866168">
        <ele>1125.03</ele>
        <time>2020-07-21T06:37:47.000Z</time>
      </trkpt>
      <trkpt lat="42.893007" lon="-5.6866198">
        <ele>1125.03</ele>
        <time>2020-07-21T06:37:48.000Z</time>
      </trkpt>
      <trkpt lat="42.8930173" lon="-5.686623">
        <ele>1125.03</ele>
        <time>2020-07-21T06:37:49.000Z</time>
      </trkpt>
      <trkpt lat="42.8930267" lon="-5.6866277">
        <ele>1125.18</ele>
        <time>2020-07-21T06:37:50.000Z</time>
      </trkpt>
      <trkpt lat="42.8930345" lon="-5.686631">
        <ele>1125.18</ele>
        <time>2020-07-21T06:37:51.000Z</time>
      </trkpt>
      <trkpt lat="42.8930417" lon="-5.686634">
        <ele>1125.18</ele>
        <time>2020-07-21T06:37:52.000Z</time>
      </trkpt>
      <trkpt lat="42.893048" lon="-5.6866367">
        <ele>1125.18</ele>
        <time>2020-07-21T06:37:53.000Z</time>
      </trkpt>
      <trkpt lat="42.893054" lon="-5.6866393">
        <ele>1125.18</ele>
        <time>2020-07-21T06:37:54.000Z</time>
      </trkpt>
      <trkpt lat="42.89306" lon="-5.6866415">
        <ele>1125.18</ele>
        <time>2020-07-21T06:37:55.000Z</time>
      </trkpt>
      <trkpt lat="42.8930663" lon="-5.6866437">
        <ele>1125.33</ele>
        <time>2020-07-21T06:37:56.000Z</time>
      </trkpt>
      <trkpt lat="42.8930737" lon="-5.6866452">
        <ele>1125.33</ele>
        <time>2020-07-21T06:37:57.000Z</time>
      </trkpt>
      <trkpt lat="42.8930805" lon="-5.6866485">
        <ele>1125.49</ele>
        <time>2020-07-21T06:37:58.000Z</time>
      </trkpt>
      <trkpt lat="42.893086" lon="-5.6866523">
        <ele>1125.49</ele>
        <time>2020-07-21T06:37:59.000Z</time>
      </trkpt>
      <trkpt lat="42.8930895" lon="-5.686657">
        <ele>1125.64</ele>
        <time>2020-07-21T06:38:00.000Z</time>
      </trkpt>
      <trkpt lat="42.8930923" lon="-5.6866613">
        <ele>1125.64</ele>
        <time>2020-07-21T06:38:01.000Z</time>
      </trkpt>
      <trkpt lat="42.8930955" lon="-5.6866665">
        <ele>1125.79</ele>
        <time>2020-07-21T06:38:02.000Z</time>
      </trkpt>
      <trkpt lat="42.8930998" lon="-5.686672">
        <ele>1125.79</ele>
        <time>2020-07-21T06:38:03.000Z</time>
      </trkpt>
      <trkpt lat="42.8931028" lon="-5.6866782">
        <ele>1125.94</ele>
        <time>2020-07-21T06:38:04.000Z</time>
      </trkpt>
      <trkpt lat="42.8931052" lon="-5.6866833">
        <ele>1125.94</ele>
        <time>2020-07-21T06:38:05.000Z</time>
      </trkpt>
      <trkpt lat="42.8931065" lon="-5.6866883">
        <ele>1126.1</ele>
        <time>2020-07-21T06:38:06.000Z</time>
      </trkpt>
      <trkpt lat="42.8931078" lon="-5.6866928">
        <ele>1126.1</ele>
        <time>2020-07-21T06:38:07.000Z</time>
      </trkpt>
      <trkpt lat="42.8931127" lon="-5.6866972">
        <ele>1126.4</ele>
        <time>2020-07-21T06:38:08.000Z</time>
      </trkpt>
      <trkpt lat="42.8931183" lon="-5.6867022">
        <ele>1126.4</ele>
        <time>2020-07-21T06:38:09.000Z</time>
      </trkpt>
      <trkpt lat="42.893126" lon="-5.6867065">
        <ele>1126.55</ele>
        <time>2020-07-21T06:38:10.000Z</time>
      </trkpt>
      <trkpt lat="42.8931353" lon="-5.6867092">
        <ele>1126.55</ele>
        <time>2020-07-21T06:38:11.000Z</time>
      </trkpt>
      <trkpt lat="42.8931457" lon="-5.6867095">
        <ele>1126.86</ele>
        <time>2020-07-21T06:38:12.000Z</time>
      </trkpt>
      <trkpt lat="42.8931548" lon="-5.6867083">
        <ele>1126.86</ele>
        <time>2020-07-21T06:38:13.000Z</time>
      </trkpt>
      <trkpt lat="42.8931602" lon="-5.6867052">
        <ele>1127.01</ele>
        <time>2020-07-21T06:38:14.000Z</time>
      </trkpt>
      <trkpt lat="42.8931673" lon="-5.6867005">
        <ele>1127.01</ele>
        <time>2020-07-21T06:38:15.000Z</time>
      </trkpt>
      <trkpt lat="42.8931852" lon="-5.6866943">
        <ele>1127.16</ele>
        <time>2020-07-21T06:38:16.000Z</time>
      </trkpt>
      <trkpt lat="42.8932058" lon="-5.6866902">
        <ele>1127.16</ele>
        <time>2020-07-21T06:38:17.000Z</time>
      </trkpt>
      <trkpt lat="42.8932268" lon="-5.6866863">
        <ele>1127.32</ele>
        <time>2020-07-21T06:38:18.000Z</time>
      </trkpt>
      <trkpt lat="42.8932403" lon="-5.686683">
        <ele>1127.32</ele>
        <time>2020-07-21T06:38:19.000Z</time>
      </trkpt>
      <trkpt lat="42.8932532" lon="-5.6866793">
        <ele>1127.47</ele>
        <time>2020-07-21T06:38:20.000Z</time>
      </trkpt>
      <trkpt lat="42.893266" lon="-5.6866767">
        <ele>1127.47</ele>
        <time>2020-07-21T06:38:21.000Z</time>
      </trkpt>
      <trkpt lat="42.8932792" lon="-5.6866747">
        <ele>1127.62</ele>
        <time>2020-07-21T06:38:22.000Z</time>
      </trkpt>
      <trkpt lat="42.8932938" lon="-5.6866723">
        <ele>1127.62</ele>
        <time>2020-07-21T06:38:23.000Z</time>
      </trkpt>
      <trkpt lat="42.8933092" lon="-5.6866702">
        <ele>1127.77</ele>
        <time>2020-07-21T06:38:24.000Z</time>
      </trkpt>
      <trkpt lat="42.8933252" lon="-5.6866682">
        <ele>1127.77</ele>
        <time>2020-07-21T06:38:25.000Z</time>
      </trkpt>
      <trkpt lat="42.8933387" lon="-5.6866655">
        <ele>1127.93</ele>
        <time>2020-07-21T06:38:26.000Z</time>
      </trkpt>
      <trkpt lat="42.8933497" lon="-5.6866622">
        <ele>1127.93</ele>
        <time>2020-07-21T06:38:27.000Z</time>
      </trkpt>
      <trkpt lat="42.8933587" lon="-5.6866585">
        <ele>1128.08</ele>
        <time>2020-07-21T06:38:28.000Z</time>
      </trkpt>
      <trkpt lat="42.8933695" lon="-5.6866568">
        <ele>1128.08</ele>
        <time>2020-07-21T06:38:29.000Z</time>
      </trkpt>
      <trkpt lat="42.8933808" lon="-5.6866547">
        <ele>1128.23</ele>
        <time>2020-07-21T06:38:30.000Z</time>
      </trkpt>
      <trkpt lat="42.8933938" lon="-5.6866522">
        <ele>1128.23</ele>
        <time>2020-07-21T06:38:31.000Z</time>
      </trkpt>
      <trkpt lat="42.893409" lon="-5.6866465">
        <ele>1128.38</ele>
        <time>2020-07-21T06:38:32.000Z</time>
      </trkpt>
      <trkpt lat="42.8934277" lon="-5.6866398">
        <ele>1128.38</ele>
        <time>2020-07-21T06:38:33.000Z</time>
      </trkpt>
      <trkpt lat="42.8934462" lon="-5.6866323">
        <ele>1128.54</ele>
        <time>2020-07-21T06:38:34.000Z</time>
      </trkpt>
      <trkpt lat="42.8934628" lon="-5.686629">
        <ele>1128.54</ele>
        <time>2020-07-21T06:38:35.000Z</time>
      </trkpt>
      <trkpt lat="42.8934778" lon="-5.6866272">
        <ele>1128.54</ele>
        <time>2020-07-21T06:38:36.000Z</time>
      </trkpt>
      <trkpt lat="42.8934917" lon="-5.6866268">
        <ele>1128.54</ele>
        <time>2020-07-21T06:38:37.000Z</time>
      </trkpt>
      <trkpt lat="42.8935035" lon="-5.6866257">
        <ele>1128.69</ele>
        <time>2020-07-21T06:38:38.000Z</time>
      </trkpt>
      <trkpt lat="42.8935137" lon="-5.6866248">
        <ele>1128.69</ele>
        <time>2020-07-21T06:38:39.000Z</time>
      </trkpt>
      <trkpt lat="42.8935223" lon="-5.686625">
        <ele>1128.69</ele>
        <time>2020-07-21T06:38:40.000Z</time>
      </trkpt>
      <trkpt lat="42.8935312" lon="-5.686626">
        <ele>1128.69</ele>
        <time>2020-07-21T06:38:41.000Z</time>
      </trkpt>
      <trkpt lat="42.8935407" lon="-5.6866287">
        <ele>1128.84</ele>
        <time>2020-07-21T06:38:42.000Z</time>
      </trkpt>
      <trkpt lat="42.8935515" lon="-5.6866325">
        <ele>1128.84</ele>
        <time>2020-07-21T06:38:43.000Z</time>
      </trkpt>
      <trkpt lat="42.8935643" lon="-5.6866357">
        <ele>1128.84</ele>
        <time>2020-07-21T06:38:44.000Z</time>
      </trkpt>
      <trkpt lat="42.8935782" lon="-5.6866375">
        <ele>1128.84</ele>
        <time>2020-07-21T06:38:45.000Z</time>
      </trkpt>
      <trkpt lat="42.8935967" lon="-5.6866387">
        <ele>1128.84</ele>
        <time>2020-07-21T06:38:46.000Z</time>
      </trkpt>
      <trkpt lat="42.893615" lon="-5.68664">
        <ele>1128.84</ele>
        <time>2020-07-21T06:38:47.000Z</time>
      </trkpt>
      <trkpt lat="42.8936343" lon="-5.6866408">
        <ele>1128.99</ele>
        <time>2020-07-21T06:38:48.000Z</time>
      </trkpt>
      <trkpt lat="42.8936507" lon="-5.6866425">
        <ele>1128.99</ele>
        <time>2020-07-21T06:38:49.000Z</time>
      </trkpt>
      <trkpt lat="42.8936662" lon="-5.6866447">
        <ele>1128.99</ele>
        <time>2020-07-21T06:38:50.000Z</time>
      </trkpt>
      <trkpt lat="42.8936812" lon="-5.6866472">
        <ele>1128.99</ele>
        <time>2020-07-21T06:38:51.000Z</time>
      </trkpt>
      <trkpt lat="42.8936955" lon="-5.6866478">
        <ele>1129.15</ele>
        <time>2020-07-21T06:38:52.000Z</time>
      </trkpt>
      <trkpt lat="42.8937097" lon="-5.6866482">
        <ele>1129.15</ele>
        <time>2020-07-21T06:38:53.000Z</time>
      </trkpt>
      <trkpt lat="42.893723" lon="-5.6866487">
        <ele>1129.15</ele>
        <time>2020-07-21T06:38:54.000Z</time>
      </trkpt>
      <trkpt lat="42.8937365" lon="-5.6866497">
        <ele>1129.15</ele>
        <time>2020-07-21T06:38:55.000Z</time>
      </trkpt>
      <trkpt lat="42.8937512" lon="-5.6866503">
        <ele>1129.15</ele>
        <time>2020-07-21T06:38:56.000Z</time>
      </trkpt>
      <trkpt lat="42.8937668" lon="-5.6866518">
        <ele>1129.15</ele>
        <time>2020-07-21T06:38:57.000Z</time>
      </trkpt>
      <trkpt lat="42.893783" lon="-5.6866538">
        <ele>1129.3</ele>
        <time>2020-07-21T06:38:58.000Z</time>
      </trkpt>
      <trkpt lat="42.8937987" lon="-5.6866573">
        <ele>1129.3</ele>
        <time>2020-07-21T06:38:59.000Z</time>
      </trkpt>
      <trkpt lat="42.893814" lon="-5.686661">
        <ele>1129.3</ele>
        <time>2020-07-21T06:39:00.000Z</time>
      </trkpt>
      <trkpt lat="42.8938282" lon="-5.6866653">
        <ele>1129.3</ele>
        <time>2020-07-21T06:39:01.000Z</time>
      </trkpt>
      <trkpt lat="42.8938417" lon="-5.6866695">
        <ele>1129.3</ele>
        <time>2020-07-21T06:39:02.000Z</time>
      </trkpt>
      <trkpt lat="42.8938547" lon="-5.6866735">
        <ele>1129.3</ele>
        <time>2020-07-21T06:39:03.000Z</time>
      </trkpt>
      <trkpt lat="42.8938682" lon="-5.6866775">
        <ele>1129.45</ele>
        <time>2020-07-21T06:39:04.000Z</time>
      </trkpt>
      <trkpt lat="42.8938805" lon="-5.6866815">
        <ele>1129.45</ele>
        <time>2020-07-21T06:39:05.000Z</time>
      </trkpt>
      <trkpt lat="42.8938922" lon="-5.6866855">
        <ele>1129.45</ele>
        <time>2020-07-21T06:39:06.000Z</time>
      </trkpt>
      <trkpt lat="42.8939038" lon="-5.6866887">
        <ele>1129.45</ele>
        <time>2020-07-21T06:39:07.000Z</time>
      </trkpt>
      <trkpt lat="42.8939168" lon="-5.686691">
        <ele>1129.45</ele>
        <time>2020-07-21T06:39:08.000Z</time>
      </trkpt>
      <trkpt lat="42.8939303" lon="-5.686693">
        <ele>1129.45</ele>
        <time>2020-07-21T06:39:09.000Z</time>
      </trkpt>
      <trkpt lat="42.893944" lon="-5.6866957">
        <ele>1129.45</ele>
        <time>2020-07-21T06:39:10.000Z</time>
      </trkpt>
      <trkpt lat="42.8939577" lon="-5.6866992">
        <ele>1129.45</ele>
        <time>2020-07-21T06:39:11.000Z</time>
      </trkpt>
      <trkpt lat="42.8939733" lon="-5.686704">
        <ele>1129.45</ele>
        <time>2020-07-21T06:39:12.000Z</time>
      </trkpt>
      <trkpt lat="42.8939882" lon="-5.6867087">
        <ele>1129.45</ele>
        <time>2020-07-21T06:39:13.000Z</time>
      </trkpt>
      <trkpt lat="42.8940025" lon="-5.6867113">
        <ele>1129.3</ele>
        <time>2020-07-21T06:39:14.000Z</time>
      </trkpt>
      <trkpt lat="42.894013" lon="-5.6867122">
        <ele>1129.3</ele>
        <time>2020-07-21T06:39:15.000Z</time>
      </trkpt>
      <trkpt lat="42.8940232" lon="-5.6867118">
        <ele>1129.3</ele>
        <time>2020-07-21T06:39:16.000Z</time>
      </trkpt>
      <trkpt lat="42.8940325" lon="-5.6867127">
        <ele>1129.3</ele>
        <time>2020-07-21T06:39:17.000Z</time>
      </trkpt>
      <trkpt lat="42.8940432" lon="-5.6867135">
        <ele>1129.15</ele>
        <time>2020-07-21T06:39:18.000Z</time>
      </trkpt>
      <trkpt lat="42.8940535" lon="-5.686714">
        <ele>1129.15</ele>
        <time>2020-07-21T06:39:19.000Z</time>
      </trkpt>
      <trkpt lat="42.8940627" lon="-5.6867138">
        <ele>1129.15</ele>
        <time>2020-07-21T06:39:20.000Z</time>
      </trkpt>
      <trkpt lat="42.8940722" lon="-5.6867133">
        <ele>1129.15</ele>
        <time>2020-07-21T06:39:21.000Z</time>
      </trkpt>
      <trkpt lat="42.8940827" lon="-5.6867135">
        <ele>1128.99</ele>
        <time>2020-07-21T06:39:22.000Z</time>
      </trkpt>
      <trkpt lat="42.894095" lon="-5.6867142">
        <ele>1128.99</ele>
        <time>2020-07-21T06:39:23.000Z</time>
      </trkpt>
      <trkpt lat="42.894103" lon="-5.6867152">
        <ele>1128.99</ele>
        <time>2020-07-21T06:39:24.000Z</time>
      </trkpt>
      <trkpt lat="42.8941108" lon="-5.6867152">
        <ele>1128.99</ele>
        <time>2020-07-21T06:39:25.000Z</time>
      </trkpt>
      <trkpt lat="42.8941202" lon="-5.686714">
        <ele>1128.99</ele>
        <time>2020-07-21T06:39:26.000Z</time>
      </trkpt>
      <trkpt lat="42.894134" lon="-5.6867125">
        <ele>1128.99</ele>
        <time>2020-07-21T06:39:27.000Z</time>
      </trkpt>
      <trkpt lat="42.8941473" lon="-5.6867107">
        <ele>1129.15</ele>
        <time>2020-07-21T06:39:28.000Z</time>
      </trkpt>
      <trkpt lat="42.8941585" lon="-5.6867078">
        <ele>1129.15</ele>
        <time>2020-07-21T06:39:29.000Z</time>
      </trkpt>
      <trkpt lat="42.8941688" lon="-5.6867037">
        <ele>1129.15</ele>
        <time>2020-07-21T06:39:30.000Z</time>
      </trkpt>
      <trkpt lat="42.8941785" lon="-5.6867002">
        <ele>1129.15</ele>
        <time>2020-07-21T06:39:31.000Z</time>
      </trkpt>
      <trkpt lat="42.8941863" lon="-5.6866983">
        <ele>1129.3</ele>
        <time>2020-07-21T06:39:32.000Z</time>
      </trkpt>
      <trkpt lat="42.8941917" lon="-5.6866982">
        <ele>1129.3</ele>
        <time>2020-07-21T06:39:33.000Z</time>
      </trkpt>
      <trkpt lat="42.8941963" lon="-5.6866968">
        <ele>1129.45</ele>
        <time>2020-07-21T06:39:34.000Z</time>
      </trkpt>
      <trkpt lat="42.894201" lon="-5.6866953">
        <ele>1129.45</ele>
        <time>2020-07-21T06:39:35.000Z</time>
      </trkpt>
      <trkpt lat="42.8942073" lon="-5.6866922">
        <ele>1129.45</ele>
        <time>2020-07-21T06:39:36.000Z</time>
      </trkpt>
      <trkpt lat="42.894215" lon="-5.6866893">
        <ele>1129.45</ele>
        <time>2020-07-21T06:39:37.000Z</time>
      </trkpt>
      <trkpt lat="42.8942228" lon="-5.6866875">
        <ele>1129.6</ele>
        <time>2020-07-21T06:39:38.000Z</time>
      </trkpt>
      <trkpt lat="42.8942315" lon="-5.6866863">
        <ele>1129.6</ele>
        <time>2020-07-21T06:39:39.000Z</time>
      </trkpt>
      <trkpt lat="42.894238" lon="-5.6866862">
        <ele>1129.91</ele>
        <time>2020-07-21T06:39:40.000Z</time>
      </trkpt>
      <trkpt lat="42.894245" lon="-5.6866853">
        <ele>1129.91</ele>
        <time>2020-07-21T06:39:41.000Z</time>
      </trkpt>
      <trkpt lat="42.8942497" lon="-5.686682">
        <ele>1130.06</ele>
        <time>2020-07-21T06:39:42.000Z</time>
      </trkpt>
      <trkpt lat="42.8942543" lon="-5.6866777">
        <ele>1130.06</ele>
        <time>2020-07-21T06:39:43.000Z</time>
      </trkpt>
      <trkpt lat="42.8942572" lon="-5.686672">
        <ele>1130.21</ele>
        <time>2020-07-21T06:39:44.000Z</time>
      </trkpt>
      <trkpt lat="42.8942578" lon="-5.6866673">
        <ele>1130.21</ele>
        <time>2020-07-21T06:39:45.000Z</time>
      </trkpt>
      <trkpt lat="42.8942592" lon="-5.6866658">
        <ele>1130.52</ele>
        <time>2020-07-21T06:39:46.000Z</time>
      </trkpt>
      <trkpt lat="42.8942612" lon="-5.6866675">
        <ele>1130.52</ele>
        <time>2020-07-21T06:39:47.000Z</time>
      </trkpt>
      <trkpt lat="42.8942653" lon="-5.6866733">
        <ele>1130.67</ele>
        <time>2020-07-21T06:39:48.000Z</time>
      </trkpt>
      <trkpt lat="42.8942668" lon="-5.6866807">
        <ele>1130.67</ele>
        <time>2020-07-21T06:39:49.000Z</time>
      </trkpt>
      <trkpt lat="42.8942652" lon="-5.6866897">
        <ele>1130.82</ele>
        <time>2020-07-21T06:39:50.000Z</time>
      </trkpt>
      <trkpt lat="42.89426" lon="-5.686699">
        <ele>1130.82</ele>
        <time>2020-07-21T06:39:51.000Z</time>
      </trkpt>
      <trkpt lat="42.8942528" lon="-5.6867088">
        <ele>1131.13</ele>
        <time>2020-07-21T06:39:52.000Z</time>
      </trkpt>
      <trkpt lat="42.8942447" lon="-5.686719">
        <ele>1131.13</ele>
        <time>2020-07-21T06:39:53.000Z</time>
      </trkpt>
      <trkpt lat="42.8942357" lon="-5.6867303">
        <ele>1131.28</ele>
        <time>2020-07-21T06:39:54.000Z</time>
      </trkpt>
      <trkpt lat="42.8942272" lon="-5.686743">
        <ele>1131.28</ele>
        <time>2020-07-21T06:39:55.000Z</time>
      </trkpt>
      <trkpt lat="42.8942212" lon="-5.6867577">
        <ele>1131.43</ele>
        <time>2020-07-21T06:39:56.000Z</time>
      </trkpt>
      <trkpt lat="42.8942177" lon="-5.6867728">
        <ele>1131.43</ele>
        <time>2020-07-21T06:39:57.000Z</time>
      </trkpt>
      <trkpt lat="42.894215" lon="-5.6867877">
        <ele>1131.58</ele>
        <time>2020-07-21T06:39:58.000Z</time>
      </trkpt>
      <trkpt lat="42.894212" lon="-5.686802">
        <ele>1131.58</ele>
        <time>2020-07-21T06:39:59.000Z</time>
      </trkpt>
      <trkpt lat="42.8942088" lon="-5.6868165">
        <ele>1131.74</ele>
        <time>2020-07-21T06:40:00.000Z</time>
      </trkpt>
      <trkpt lat="42.8942062" lon="-5.6868308">
        <ele>1131.74</ele>
        <time>2020-07-21T06:40:01.000Z</time>
      </trkpt>
      <trkpt lat="42.8942035" lon="-5.6868452">
        <ele>1131.89</ele>
        <time>2020-07-21T06:40:02.000Z</time>
      </trkpt>
      <trkpt lat="42.8942008" lon="-5.6868582">
        <ele>1131.89</ele>
        <time>2020-07-21T06:40:03.000Z</time>
      </trkpt>
      <trkpt lat="42.894199" lon="-5.6868705">
        <ele>1132.04</ele>
        <time>2020-07-21T06:40:04.000Z</time>
      </trkpt>
      <trkpt lat="42.8941975" lon="-5.686882">
        <ele>1132.04</ele>
        <time>2020-07-21T06:40:05.000Z</time>
      </trkpt>
      <trkpt lat="42.8941968" lon="-5.6868942">
        <ele>1132.19</ele>
        <time>2020-07-21T06:40:06.000Z</time>
      </trkpt>
      <trkpt lat="42.8941968" lon="-5.6869057">
        <ele>1132.19</ele>
        <time>2020-07-21T06:40:07.000Z</time>
      </trkpt>
      <trkpt lat="42.8941982" lon="-5.6869165">
        <ele>1132.35</ele>
        <time>2020-07-21T06:40:08.000Z</time>
      </trkpt>
      <trkpt lat="42.8941998" lon="-5.6869253">
        <ele>1132.35</ele>
        <time>2020-07-21T06:40:09.000Z</time>
      </trkpt>
      <trkpt lat="42.8942018" lon="-5.6869323">
        <ele>1132.35</ele>
        <time>2020-07-21T06:40:10.000Z</time>
      </trkpt>
      <trkpt lat="42.8942032" lon="-5.686937">
        <ele>1132.35</ele>
        <time>2020-07-21T06:40:11.000Z</time>
      </trkpt>
      <trkpt lat="42.8942052" lon="-5.6869403">
        <ele>1132.5</ele>
        <time>2020-07-21T06:40:12.000Z</time>
      </trkpt>
      <trkpt lat="42.8942067" lon="-5.6869425">
        <ele>1132.5</ele>
        <time>2020-07-21T06:40:13.000Z</time>
      </trkpt>
      <trkpt lat="42.8942097" lon="-5.6869447">
        <ele>1132.5</ele>
        <time>2020-07-21T06:40:14.000Z</time>
      </trkpt>
      <trkpt lat="42.894213" lon="-5.6869468">
        <ele>1132.5</ele>
        <time>2020-07-21T06:40:15.000Z</time>
      </trkpt>
      <trkpt lat="42.8942182" lon="-5.6869488">
        <ele>1132.5</ele>
        <time>2020-07-21T06:40:16.000Z</time>
      </trkpt>
      <trkpt lat="42.8942242" lon="-5.6869498">
        <ele>1132.5</ele>
        <time>2020-07-21T06:40:17.000Z</time>
      </trkpt>
      <trkpt lat="42.89423" lon="-5.6869508">
        <ele>1132.65</ele>
        <time>2020-07-21T06:40:18.000Z</time>
      </trkpt>
      <trkpt lat="42.8942355" lon="-5.6869537">
        <ele>1132.65</ele>
        <time>2020-07-21T06:40:19.000Z</time>
      </trkpt>
      <trkpt lat="42.8942432" lon="-5.6869557">
        <ele>1132.65</ele>
        <time>2020-07-21T06:40:20.000Z</time>
      </trkpt>
      <trkpt lat="42.8942525" lon="-5.6869562">
        <ele>1132.65</ele>
        <time>2020-07-21T06:40:21.000Z</time>
      </trkpt>
      <trkpt lat="42.8942627" lon="-5.686955">
        <ele>1132.65</ele>
        <time>2020-07-21T06:40:22.000Z</time>
      </trkpt>
      <trkpt lat="42.8942715" lon="-5.6869538">
        <ele>1132.65</ele>
        <time>2020-07-21T06:40:23.000Z</time>
      </trkpt>
      <trkpt lat="42.8942798" lon="-5.686952">
        <ele>1132.65</ele>
        <time>2020-07-21T06:40:24.000Z</time>
      </trkpt>
      <trkpt lat="42.8942893" lon="-5.6869497">
        <ele>1132.65</ele>
        <time>2020-07-21T06:40:25.000Z</time>
      </trkpt>
      <trkpt lat="42.8943005" lon="-5.686948">
        <ele>1132.65</ele>
        <time>2020-07-21T06:40:26.000Z</time>
      </trkpt>
      <trkpt lat="42.8943128" lon="-5.6869468">
        <ele>1132.65</ele>
        <time>2020-07-21T06:40:27.000Z</time>
      </trkpt>
      <trkpt lat="42.8943253" lon="-5.6869452">
        <ele>1132.65</ele>
        <time>2020-07-21T06:40:28.000Z</time>
      </trkpt>
      <trkpt lat="42.8943372" lon="-5.6869438">
        <ele>1132.65</ele>
        <time>2020-07-21T06:40:29.000Z</time>
      </trkpt>
      <trkpt lat="42.8943498" lon="-5.6869432">
        <ele>1132.65</ele>
        <time>2020-07-21T06:40:30.000Z</time>
      </trkpt>
      <trkpt lat="42.8943628" lon="-5.6869438">
        <ele>1132.65</ele>
        <time>2020-07-21T06:40:31.000Z</time>
      </trkpt>
      <trkpt lat="42.8943758" lon="-5.6869453">
        <ele>1132.65</ele>
        <time>2020-07-21T06:40:32.000Z</time>
      </trkpt>
      <trkpt lat="42.8943877" lon="-5.686948">
        <ele>1132.65</ele>
        <time>2020-07-21T06:40:33.000Z</time>
      </trkpt>
      <trkpt lat="42.894399" lon="-5.686951">
        <ele>1132.65</ele>
        <time>2020-07-21T06:40:34.000Z</time>
      </trkpt>
      <trkpt lat="42.8944092" lon="-5.6869552">
        <ele>1132.65</ele>
        <time>2020-07-21T06:40:35.000Z</time>
      </trkpt>
      <trkpt lat="42.8944187" lon="-5.6869593">
        <ele>1132.65</ele>
        <time>2020-07-21T06:40:36.000Z</time>
      </trkpt>
      <trkpt lat="42.8944295" lon="-5.6869637">
        <ele>1132.65</ele>
        <time>2020-07-21T06:40:37.000Z</time>
      </trkpt>
      <trkpt lat="42.8944407" lon="-5.6869682">
        <ele>1132.65</ele>
        <time>2020-07-21T06:40:38.000Z</time>
      </trkpt>
      <trkpt lat="42.8944525" lon="-5.6869725">
        <ele>1132.65</ele>
        <time>2020-07-21T06:40:39.000Z</time>
      </trkpt>
      <trkpt lat="42.8944635" lon="-5.686976">
        <ele>1132.8</ele>
        <time>2020-07-21T06:40:40.000Z</time>
      </trkpt>
      <trkpt lat="42.894474" lon="-5.6869767">
        <ele>1132.8</ele>
        <time>2020-07-21T06:40:41.000Z</time>
      </trkpt>
      <trkpt lat="42.8944843" lon="-5.6869773">
        <ele>1132.8</ele>
        <time>2020-07-21T06:40:42.000Z</time>
      </trkpt>
      <trkpt lat="42.8944952" lon="-5.6869775">
        <ele>1132.8</ele>
        <time>2020-07-21T06:40:43.000Z</time>
      </trkpt>
      <trkpt lat="42.8945103" lon="-5.6869798">
        <ele>1132.8</ele>
        <time>2020-07-21T06:40:44.000Z</time>
      </trkpt>
      <trkpt lat="42.8945257" lon="-5.6869795">
        <ele>1132.8</ele>
        <time>2020-07-21T06:40:45.000Z</time>
      </trkpt>
      <trkpt lat="42.8945417" lon="-5.6869787">
        <ele>1132.95</ele>
        <time>2020-07-21T06:40:46.000Z</time>
      </trkpt>
      <trkpt lat="42.894553" lon="-5.6869758">
        <ele>1132.95</ele>
        <time>2020-07-21T06:40:47.000Z</time>
      </trkpt>
      <trkpt lat="42.8945638" lon="-5.6869757">
        <ele>1132.95</ele>
        <time>2020-07-21T06:40:48.000Z</time>
      </trkpt>
      <trkpt lat="42.894573" lon="-5.686974">
        <ele>1132.95</ele>
        <time>2020-07-21T06:40:49.000Z</time>
      </trkpt>
      <trkpt lat="42.894583" lon="-5.6869737">
        <ele>1133.11</ele>
        <time>2020-07-21T06:40:50.000Z</time>
      </trkpt>
      <trkpt lat="42.8945937" lon="-5.6869725">
        <ele>1133.11</ele>
        <time>2020-07-21T06:40:51.000Z</time>
      </trkpt>
      <trkpt lat="42.894604" lon="-5.6869738">
        <ele>1133.11</ele>
        <time>2020-07-21T06:40:52.000Z</time>
      </trkpt>
      <trkpt lat="42.8946155" lon="-5.6869748">
        <ele>1133.11</ele>
        <time>2020-07-21T06:40:53.000Z</time>
      </trkpt>
      <trkpt lat="42.8946292" lon="-5.6869608">
        <ele>1133.26</ele>
        <time>2020-07-21T06:40:54.000Z</time>
      </trkpt>
      <trkpt lat="42.8946438" lon="-5.6869465">
        <ele>1133.26</ele>
        <time>2020-07-21T06:40:55.000Z</time>
      </trkpt>
      <trkpt lat="42.8946552" lon="-5.6869283">
        <ele>1133.41</ele>
        <time>2020-07-21T06:40:56.000Z</time>
      </trkpt>
      <trkpt lat="42.8946648" lon="-5.6869248">
        <ele>1133.41</ele>
        <time>2020-07-21T06:40:57.000Z</time>
      </trkpt>
      <trkpt lat="42.8946747" lon="-5.6869203">
        <ele>1133.41</ele>
        <time>2020-07-21T06:40:58.000Z</time>
      </trkpt>
      <trkpt lat="42.8946842" lon="-5.6869172">
        <ele>1133.41</ele>
        <time>2020-07-21T06:40:59.000Z</time>
      </trkpt>
      <trkpt lat="42.8946892" lon="-5.686911">
        <ele>1133.56</ele>
        <time>2020-07-21T06:41:00.000Z</time>
      </trkpt>
      <trkpt lat="42.8946902" lon="-5.6869047">
        <ele>1133.56</ele>
        <time>2020-07-21T06:41:01.000Z</time>
      </trkpt>
      <trkpt lat="42.8946898" lon="-5.6869008">
        <ele>1133.72</ele>
        <time>2020-07-21T06:41:02.000Z</time>
      </trkpt>
      <trkpt lat="42.8946888" lon="-5.6869003">
        <ele>1133.72</ele>
        <time>2020-07-21T06:41:03.000Z</time>
      </trkpt>
      <trkpt lat="42.8946875" lon="-5.6869005">
        <ele>1133.72</ele>
        <time>2020-07-21T06:41:04.000Z</time>
      </trkpt>
      <trkpt lat="42.8946867" lon="-5.6869007">
        <ele>1133.72</ele>
        <time>2020-07-21T06:41:05.000Z</time>
      </trkpt>
      <trkpt lat="42.8946867" lon="-5.6869015">
        <ele>1133.87</ele>
        <time>2020-07-21T06:41:06.000Z</time>
      </trkpt>
      <trkpt lat="42.8946882" lon="-5.686901">
        <ele>1133.87</ele>
        <time>2020-07-21T06:41:07.000Z</time>
      </trkpt>
      <trkpt lat="42.8946913" lon="-5.6868977">
        <ele>1133.87</ele>
        <time>2020-07-21T06:41:08.000Z</time>
      </trkpt>
      <trkpt lat="42.8946962" lon="-5.6868943">
        <ele>1133.87</ele>
        <time>2020-07-21T06:41:09.000Z</time>
      </trkpt>
      <trkpt lat="42.8947022" lon="-5.6868923">
        <ele>1133.87</ele>
        <time>2020-07-21T06:41:10.000Z</time>
      </trkpt>
      <trkpt lat="42.8947087" lon="-5.6868933">
        <ele>1133.87</ele>
        <time>2020-07-21T06:41:11.000Z</time>
      </trkpt>
      <trkpt lat="42.8947155" lon="-5.6868947">
        <ele>1133.87</ele>
        <time>2020-07-21T06:41:12.000Z</time>
      </trkpt>
      <trkpt lat="42.8947198" lon="-5.686895">
        <ele>1133.87</ele>
        <time>2020-07-21T06:41:13.000Z</time>
      </trkpt>
      <trkpt lat="42.894722" lon="-5.6868947">
        <ele>1134.02</ele>
        <time>2020-07-21T06:41:14.000Z</time>
      </trkpt>
      <trkpt lat="42.8947235" lon="-5.686895">
        <ele>1134.02</ele>
        <time>2020-07-21T06:41:15.000Z</time>
      </trkpt>
      <trkpt lat="42.894726" lon="-5.6868957">
        <ele>1134.02</ele>
        <time>2020-07-21T06:41:16.000Z</time>
      </trkpt>
      <trkpt lat="42.8947283" lon="-5.6868958">
        <ele>1134.02</ele>
        <time>2020-07-21T06:41:17.000Z</time>
      </trkpt>
      <trkpt lat="42.8947295" lon="-5.686894">
        <ele>1134.02</ele>
        <time>2020-07-21T06:41:18.000Z</time>
      </trkpt>
      <trkpt lat="42.8947295" lon="-5.686893">
        <ele>1134.02</ele>
        <time>2020-07-21T06:41:19.000Z</time>
      </trkpt>
      <trkpt lat="42.89473" lon="-5.6868928">
        <ele>1134.02</ele>
        <time>2020-07-21T06:41:20.000Z</time>
      </trkpt>
      <trkpt lat="42.8947308" lon="-5.6868937">
        <ele>1134.02</ele>
        <time>2020-07-21T06:41:21.000Z</time>
      </trkpt>
      <trkpt lat="42.8947333" lon="-5.686893">
        <ele>1134.02</ele>
        <time>2020-07-21T06:41:22.000Z</time>
      </trkpt>
      <trkpt lat="42.8947367" lon="-5.6868883">
        <ele>1134.02</ele>
        <time>2020-07-21T06:41:23.000Z</time>
      </trkpt>
      <trkpt lat="42.8947405" lon="-5.68688">
        <ele>1134.02</ele>
        <time>2020-07-21T06:41:24.000Z</time>
      </trkpt>
      <trkpt lat="42.8947485" lon="-5.6868692">
        <ele>1134.02</ele>
        <time>2020-07-21T06:41:25.000Z</time>
      </trkpt>
      <trkpt lat="42.8947563" lon="-5.6868582">
        <ele>1134.02</ele>
        <time>2020-07-21T06:41:26.000Z</time>
      </trkpt>
      <trkpt lat="42.8947668" lon="-5.6868467">
        <ele>1134.02</ele>
        <time>2020-07-21T06:41:27.000Z</time>
      </trkpt>
      <trkpt lat="42.8947733" lon="-5.6868347">
        <ele>1134.18</ele>
        <time>2020-07-21T06:41:28.000Z</time>
      </trkpt>
      <trkpt lat="42.8947822" lon="-5.6868238">
        <ele>1134.18</ele>
        <time>2020-07-21T06:41:29.000Z</time>
      </trkpt>
      <trkpt lat="42.8947905" lon="-5.6868128">
        <ele>1134.18</ele>
        <time>2020-07-21T06:41:30.000Z</time>
      </trkpt>
      <trkpt lat="42.8947997" lon="-5.686802">
        <ele>1134.18</ele>
        <time>2020-07-21T06:41:31.000Z</time>
      </trkpt>
      <trkpt lat="42.8948083" lon="-5.686791">
        <ele>1134.18</ele>
        <time>2020-07-21T06:41:32.000Z</time>
      </trkpt>
      <trkpt lat="42.8948153" lon="-5.6867808">
        <ele>1134.18</ele>
        <time>2020-07-21T06:41:33.000Z</time>
      </trkpt>
      <trkpt lat="42.8948217" lon="-5.6867702">
        <ele>1134.18</ele>
        <time>2020-07-21T06:41:34.000Z</time>
      </trkpt>
      <trkpt lat="42.8948282" lon="-5.6867582">
        <ele>1134.18</ele>
        <time>2020-07-21T06:41:35.000Z</time>
      </trkpt>
      <trkpt lat="42.8948357" lon="-5.6867453">
        <ele>1134.18</ele>
        <time>2020-07-21T06:41:36.000Z</time>
      </trkpt>
      <trkpt lat="42.894843" lon="-5.6867322">
        <ele>1134.18</ele>
        <time>2020-07-21T06:41:37.000Z</time>
      </trkpt>
      <trkpt lat="42.8948505" lon="-5.6867198">
        <ele>1134.18</ele>
        <time>2020-07-21T06:41:38.000Z</time>
      </trkpt>
      <trkpt lat="42.894857" lon="-5.6867082">
        <ele>1134.18</ele>
        <time>2020-07-21T06:41:39.000Z</time>
      </trkpt>
      <trkpt lat="42.8948623" lon="-5.6866968">
        <ele>1134.18</ele>
        <time>2020-07-21T06:41:40.000Z</time>
      </trkpt>
      <trkpt lat="42.894867" lon="-5.6866847">
        <ele>1134.18</ele>
        <time>2020-07-21T06:41:41.000Z</time>
      </trkpt>
      <trkpt lat="42.8948713" lon="-5.6866712">
        <ele>1134.18</ele>
        <time>2020-07-21T06:41:42.000Z</time>
      </trkpt>
      <trkpt lat="42.8948753" lon="-5.6866568">
        <ele>1134.18</ele>
        <time>2020-07-21T06:41:43.000Z</time>
      </trkpt>
      <trkpt lat="42.8948785" lon="-5.6866425">
        <ele>1134.18</ele>
        <time>2020-07-21T06:41:44.000Z</time>
      </trkpt>
      <trkpt lat="42.8948795" lon="-5.6866278">
        <ele>1134.18</ele>
        <time>2020-07-21T06:41:45.000Z</time>
      </trkpt>
      <trkpt lat="42.8948793" lon="-5.686613">
        <ele>1134.18</ele>
        <time>2020-07-21T06:41:46.000Z</time>
      </trkpt>
      <trkpt lat="42.8948783" lon="-5.686598">
        <ele>1134.18</ele>
        <time>2020-07-21T06:41:47.000Z</time>
      </trkpt>
      <trkpt lat="42.8948778" lon="-5.6865823">
        <ele>1134.18</ele>
        <time>2020-07-21T06:41:48.000Z</time>
      </trkpt>
      <trkpt lat="42.8948812" lon="-5.6865662">
        <ele>1134.18</ele>
        <time>2020-07-21T06:41:49.000Z</time>
      </trkpt>
      <trkpt lat="42.8948833" lon="-5.6865495">
        <ele>1134.18</ele>
        <time>2020-07-21T06:41:50.000Z</time>
      </trkpt>
      <trkpt lat="42.894886" lon="-5.6865343">
        <ele>1134.18</ele>
        <time>2020-07-21T06:41:51.000Z</time>
      </trkpt>
      <trkpt lat="42.894886" lon="-5.6865193">
        <ele>1134.18</ele>
        <time>2020-07-21T06:41:52.000Z</time>
      </trkpt>
      <trkpt lat="42.894888" lon="-5.686505">
        <ele>1134.18</ele>
        <time>2020-07-21T06:41:53.000Z</time>
      </trkpt>
      <trkpt lat="42.894891" lon="-5.6864908">
        <ele>1134.18</ele>
        <time>2020-07-21T06:41:54.000Z</time>
      </trkpt>
      <trkpt lat="42.8948947" lon="-5.6864783">
        <ele>1134.18</ele>
        <time>2020-07-21T06:41:55.000Z</time>
      </trkpt>
      <trkpt lat="42.8948988" lon="-5.686468">
        <ele>1134.18</ele>
        <time>2020-07-21T06:41:56.000Z</time>
      </trkpt>
      <trkpt lat="42.8949033" lon="-5.6864595">
        <ele>1134.18</ele>
        <time>2020-07-21T06:41:57.000Z</time>
      </trkpt>
      <trkpt lat="42.8949078" lon="-5.686453">
        <ele>1134.18</ele>
        <time>2020-07-21T06:41:58.000Z</time>
      </trkpt>
      <trkpt lat="42.894912" lon="-5.6864483">
        <ele>1134.18</ele>
        <time>2020-07-21T06:41:59.000Z</time>
      </trkpt>
      <trkpt lat="42.894916" lon="-5.6864423">
        <ele>1134.33</ele>
        <time>2020-07-21T06:42:00.000Z</time>
      </trkpt>
      <trkpt lat="42.8949187" lon="-5.686433">
        <ele>1134.33</ele>
        <time>2020-07-21T06:42:01.000Z</time>
      </trkpt>
      <trkpt lat="42.8949203" lon="-5.6864205">
        <ele>1134.33</ele>
        <time>2020-07-21T06:42:02.000Z</time>
      </trkpt>
      <trkpt lat="42.894923" lon="-5.6864072">
        <ele>1134.33</ele>
        <time>2020-07-21T06:42:03.000Z</time>
      </trkpt>
      <trkpt lat="42.8949267" lon="-5.6863947">
        <ele>1134.33</ele>
        <time>2020-07-21T06:42:04.000Z</time>
      </trkpt>
      <trkpt lat="42.8949328" lon="-5.6863823">
        <ele>1134.33</ele>
        <time>2020-07-21T06:42:05.000Z</time>
      </trkpt>
      <trkpt lat="42.894939" lon="-5.6863697">
        <ele>1134.33</ele>
        <time>2020-07-21T06:42:06.000Z</time>
      </trkpt>
      <trkpt lat="42.894945" lon="-5.6863557">
        <ele>1134.33</ele>
        <time>2020-07-21T06:42:07.000Z</time>
      </trkpt>
      <trkpt lat="42.8949497" lon="-5.6863422">
        <ele>1134.33</ele>
        <time>2020-07-21T06:42:08.000Z</time>
      </trkpt>
      <trkpt lat="42.8949538" lon="-5.6863295">
        <ele>1134.33</ele>
        <time>2020-07-21T06:42:09.000Z</time>
      </trkpt>
      <trkpt lat="42.8949592" lon="-5.686319">
        <ele>1134.33</ele>
        <time>2020-07-21T06:42:10.000Z</time>
      </trkpt>
      <trkpt lat="42.8949665" lon="-5.6863108">
        <ele>1134.33</ele>
        <time>2020-07-21T06:42:11.000Z</time>
      </trkpt>
      <trkpt lat="42.8949745" lon="-5.686305">
        <ele>1134.33</ele>
        <time>2020-07-21T06:42:12.000Z</time>
      </trkpt>
      <trkpt lat="42.8949823" lon="-5.6862995">
        <ele>1134.33</ele>
        <time>2020-07-21T06:42:13.000Z</time>
      </trkpt>
      <trkpt lat="42.8949888" lon="-5.686294">
        <ele>1134.48</ele>
        <time>2020-07-21T06:42:14.000Z</time>
      </trkpt>
      <trkpt lat="42.8949945" lon="-5.6862887">
        <ele>1134.48</ele>
        <time>2020-07-21T06:42:15.000Z</time>
      </trkpt>
      <trkpt lat="42.895" lon="-5.6862828">
        <ele>1134.48</ele>
        <time>2020-07-21T06:42:16.000Z</time>
      </trkpt>
      <trkpt lat="42.8950023" lon="-5.6862782">
        <ele>1134.48</ele>
        <time>2020-07-21T06:42:17.000Z</time>
      </trkpt>
      <trkpt lat="42.8950042" lon="-5.6862738">
        <ele>1134.48</ele>
        <time>2020-07-21T06:42:18.000Z</time>
      </trkpt>
      <trkpt lat="42.8950055" lon="-5.6862715">
        <ele>1134.48</ele>
        <time>2020-07-21T06:42:19.000Z</time>
      </trkpt>
      <trkpt lat="42.895011" lon="-5.6862685">
        <ele>1134.48</ele>
        <time>2020-07-21T06:42:20.000Z</time>
      </trkpt>
      <trkpt lat="42.8950172" lon="-5.6862653">
        <ele>1134.48</ele>
        <time>2020-07-21T06:42:21.000Z</time>
      </trkpt>
      <trkpt lat="42.8950233" lon="-5.6862627">
        <ele>1134.48</ele>
        <time>2020-07-21T06:42:22.000Z</time>
      </trkpt>
      <trkpt lat="42.8950282" lon="-5.6862603">
        <ele>1134.48</ele>
        <time>2020-07-21T06:42:23.000Z</time>
      </trkpt>
      <trkpt lat="42.8950317" lon="-5.686257">
        <ele>1134.63</ele>
        <time>2020-07-21T06:42:24.000Z</time>
      </trkpt>
      <trkpt lat="42.8950367" lon="-5.6862545">
        <ele>1134.63</ele>
        <time>2020-07-21T06:42:25.000Z</time>
      </trkpt>
      <trkpt lat="42.895042" lon="-5.6862523">
        <ele>1134.63</ele>
        <time>2020-07-21T06:42:26.000Z</time>
      </trkpt>
      <trkpt lat="42.8950478" lon="-5.6862515">
        <ele>1134.63</ele>
        <time>2020-07-21T06:42:27.000Z</time>
      </trkpt>
      <trkpt lat="42.8950528" lon="-5.6862495">
        <ele>1134.63</ele>
        <time>2020-07-21T06:42:28.000Z</time>
      </trkpt>
      <trkpt lat="42.8950573" lon="-5.6862475">
        <ele>1134.63</ele>
        <time>2020-07-21T06:42:29.000Z</time>
      </trkpt>
      <trkpt lat="42.8950622" lon="-5.686245">
        <ele>1134.78</ele>
        <time>2020-07-21T06:42:30.000Z</time>
      </trkpt>
      <trkpt lat="42.8950668" lon="-5.6862432">
        <ele>1134.78</ele>
        <time>2020-07-21T06:42:31.000Z</time>
      </trkpt>
      <trkpt lat="42.8950715" lon="-5.6862405">
        <ele>1134.78</ele>
        <time>2020-07-21T06:42:32.000Z</time>
      </trkpt>
      <trkpt lat="42.8950747" lon="-5.6862383">
        <ele>1134.78</ele>
        <time>2020-07-21T06:42:33.000Z</time>
      </trkpt>
      <trkpt lat="42.8950757" lon="-5.6862308">
        <ele>1134.78</ele>
        <time>2020-07-21T06:42:34.000Z</time>
      </trkpt>
      <trkpt lat="42.8950703" lon="-5.6862252">
        <ele>1134.78</ele>
        <time>2020-07-21T06:42:35.000Z</time>
      </trkpt>
      <trkpt lat="42.8950647" lon="-5.686219">
        <ele>1134.78</ele>
        <time>2020-07-21T06:42:36.000Z</time>
      </trkpt>
      <trkpt lat="42.8950627" lon="-5.6862208">
        <ele>1134.78</ele>
        <time>2020-07-21T06:42:37.000Z</time>
      </trkpt>
      <trkpt lat="42.8950643" lon="-5.6862175">
        <ele>1134.94</ele>
        <time>2020-07-21T06:42:38.000Z</time>
      </trkpt>
      <trkpt lat="42.8950643" lon="-5.6862128">
        <ele>1134.94</ele>
        <time>2020-07-21T06:42:39.000Z</time>
      </trkpt>
      <trkpt lat="42.895062" lon="-5.6862075">
        <ele>1134.94</ele>
        <time>2020-07-21T06:42:40.000Z</time>
      </trkpt>
      <trkpt lat="42.895063" lon="-5.6862078">
        <ele>1134.94</ele>
        <time>2020-07-21T06:42:41.000Z</time>
      </trkpt>
      <trkpt lat="42.8950677" lon="-5.6862132">
        <ele>1134.94</ele>
        <time>2020-07-21T06:42:42.000Z</time>
      </trkpt>
      <trkpt lat="42.8950725" lon="-5.6862163">
        <ele>1134.94</ele>
        <time>2020-07-21T06:42:43.000Z</time>
      </trkpt>
      <trkpt lat="42.8950762" lon="-5.6862197">
        <ele>1134.94</ele>
        <time>2020-07-21T06:42:44.000Z</time>
      </trkpt>
      <trkpt lat="42.8950788" lon="-5.6862213">
        <ele>1134.94</ele>
        <time>2020-07-21T06:42:45.000Z</time>
      </trkpt>
      <trkpt lat="42.8950805" lon="-5.6862262">
        <ele>1134.94</ele>
        <time>2020-07-21T06:42:46.000Z</time>
      </trkpt>
      <trkpt lat="42.8950802" lon="-5.6862315">
        <ele>1134.94</ele>
        <time>2020-07-21T06:42:47.000Z</time>
      </trkpt>
      <trkpt lat="42.895078" lon="-5.6862387">
        <ele>1135.09</ele>
        <time>2020-07-21T06:42:48.000Z</time>
      </trkpt>
      <trkpt lat="42.8950755" lon="-5.6862453">
        <ele>1135.09</ele>
        <time>2020-07-21T06:42:49.000Z</time>
      </trkpt>
      <trkpt lat="42.8950728" lon="-5.6862527">
        <ele>1135.09</ele>
        <time>2020-07-21T06:42:50.000Z</time>
      </trkpt>
      <trkpt lat="42.8950705" lon="-5.6862605">
        <ele>1135.09</ele>
        <time>2020-07-21T06:42:51.000Z</time>
      </trkpt>
      <trkpt lat="42.8950658" lon="-5.6862677">
        <ele>1135.09</ele>
        <time>2020-07-21T06:42:52.000Z</time>
      </trkpt>
      <trkpt lat="42.8950612" lon="-5.6862772">
        <ele>1135.09</ele>
        <time>2020-07-21T06:42:53.000Z</time>
      </trkpt>
      <trkpt lat="42.8950548" lon="-5.6862865">
        <ele>1135.09</ele>
        <time>2020-07-21T06:42:54.000Z</time>
      </trkpt>
      <trkpt lat="42.8950498" lon="-5.686298">
        <ele>1135.09</ele>
        <time>2020-07-21T06:42:55.000Z</time>
      </trkpt>
      <trkpt lat="42.8950432" lon="-5.6863078">
        <ele>1135.09</ele>
        <time>2020-07-21T06:42:56.000Z</time>
      </trkpt>
      <trkpt lat="42.8950367" lon="-5.6863188">
        <ele>1135.09</ele>
        <time>2020-07-21T06:42:57.000Z</time>
      </trkpt>
      <trkpt lat="42.8950285" lon="-5.6863298">
        <ele>1135.09</ele>
        <time>2020-07-21T06:42:58.000Z</time>
      </trkpt>
      <trkpt lat="42.8950207" lon="-5.686341">
        <ele>1135.09</ele>
        <time>2020-07-21T06:42:59.000Z</time>
      </trkpt>
      <trkpt lat="42.895012" lon="-5.6863512">
        <ele>1135.24</ele>
        <time>2020-07-21T06:43:00.000Z</time>
      </trkpt>
      <trkpt lat="42.8950028" lon="-5.6863612">
        <ele>1135.24</ele>
        <time>2020-07-21T06:43:01.000Z</time>
      </trkpt>
      <trkpt lat="42.8949928" lon="-5.686371">
        <ele>1135.39</ele>
        <time>2020-07-21T06:43:02.000Z</time>
      </trkpt>
      <trkpt lat="42.8949828" lon="-5.6863793">
        <ele>1135.39</ele>
        <time>2020-07-21T06:43:03.000Z</time>
      </trkpt>
      <trkpt lat="42.8949732" lon="-5.6863868">
        <ele>1135.7</ele>
        <time>2020-07-21T06:43:04.000Z</time>
      </trkpt>
      <trkpt lat="42.8949633" lon="-5.6863943">
        <ele>1135.7</ele>
        <time>2020-07-21T06:43:05.000Z</time>
      </trkpt>
      <trkpt lat="42.8949543" lon="-5.686403">
        <ele>1135.85</ele>
        <time>2020-07-21T06:43:06.000Z</time>
      </trkpt>
      <trkpt lat="42.8949463" lon="-5.6864128">
        <ele>1135.85</ele>
        <time>2020-07-21T06:43:07.000Z</time>
      </trkpt>
      <trkpt lat="42.8949383" lon="-5.6864237">
        <ele>1136.16</ele>
        <time>2020-07-21T06:43:08.000Z</time>
      </trkpt>
      <trkpt lat="42.8949308" lon="-5.6864355">
        <ele>1136.16</ele>
        <time>2020-07-21T06:43:09.000Z</time>
      </trkpt>
      <trkpt lat="42.8949232" lon="-5.6864498">
        <ele>1136.61</ele>
        <time>2020-07-21T06:43:10.000Z</time>
      </trkpt>
      <trkpt lat="42.8949185" lon="-5.6864663">
        <ele>1136.61</ele>
        <time>2020-07-21T06:43:11.000Z</time>
      </trkpt>
      <trkpt lat="42.8949142" lon="-5.6864853">
        <ele>1136.92</ele>
        <time>2020-07-21T06:43:12.000Z</time>
      </trkpt>
      <trkpt lat="42.8949107" lon="-5.6865042">
        <ele>1136.92</ele>
        <time>2020-07-21T06:43:13.000Z</time>
      </trkpt>
      <trkpt lat="42.894905" lon="-5.6865222">
        <ele>1137.38</ele>
        <time>2020-07-21T06:43:14.000Z</time>
      </trkpt>
      <trkpt lat="42.8948985" lon="-5.6865388">
        <ele>1137.38</ele>
        <time>2020-07-21T06:43:15.000Z</time>
      </trkpt>
      <trkpt lat="42.8948935" lon="-5.6865545">
        <ele>1137.68</ele>
        <time>2020-07-21T06:43:16.000Z</time>
      </trkpt>
      <trkpt lat="42.894891" lon="-5.686569">
        <ele>1137.68</ele>
        <time>2020-07-21T06:43:17.000Z</time>
      </trkpt>
      <trkpt lat="42.8948885" lon="-5.686585">
        <ele>1138.14</ele>
        <time>2020-07-21T06:43:18.000Z</time>
      </trkpt>
      <trkpt lat="42.8948847" lon="-5.6866017">
        <ele>1138.14</ele>
        <time>2020-07-21T06:43:19.000Z</time>
      </trkpt>
      <trkpt lat="42.8948775" lon="-5.6866237">
        <ele>1138.59</ele>
        <time>2020-07-21T06:43:20.000Z</time>
      </trkpt>
      <trkpt lat="42.8948722" lon="-5.6866418">
        <ele>1138.59</ele>
        <time>2020-07-21T06:43:21.000Z</time>
      </trkpt>
      <trkpt lat="42.894865" lon="-5.6866623">
        <ele>1139.05</ele>
        <time>2020-07-21T06:43:22.000Z</time>
      </trkpt>
      <trkpt lat="42.8948598" lon="-5.686679">
        <ele>1139.05</ele>
        <time>2020-07-21T06:43:23.000Z</time>
      </trkpt>
      <trkpt lat="42.8948533" lon="-5.6866967">
        <ele>1139.51</ele>
        <time>2020-07-21T06:43:24.000Z</time>
      </trkpt>
      <trkpt lat="42.8948478" lon="-5.6867098">
        <ele>1139.51</ele>
        <time>2020-07-21T06:43:25.000Z</time>
      </trkpt>
      <trkpt lat="42.8948408" lon="-5.6867208">
        <ele>1139.97</ele>
        <time>2020-07-21T06:43:26.000Z</time>
      </trkpt>
      <trkpt lat="42.8948327" lon="-5.6867297">
        <ele>1139.97</ele>
        <time>2020-07-21T06:43:27.000Z</time>
      </trkpt>
      <trkpt lat="42.8948258" lon="-5.686736">
        <ele>1140.42</ele>
        <time>2020-07-21T06:43:28.000Z</time>
      </trkpt>
      <trkpt lat="42.8948188" lon="-5.6867408">
        <ele>1140.42</ele>
        <time>2020-07-21T06:43:29.000Z</time>
      </trkpt>
      <trkpt lat="42.8948118" lon="-5.6867445">
        <ele>1140.88</ele>
        <time>2020-07-21T06:43:30.000Z</time>
      </trkpt>
      <trkpt lat="42.894804" lon="-5.68675">
        <ele>1140.88</ele>
        <time>2020-07-21T06:43:31.000Z</time>
      </trkpt>
      <trkpt lat="42.8947965" lon="-5.686759">
        <ele>1141.34</ele>
        <time>2020-07-21T06:43:32.000Z</time>
      </trkpt>
      <trkpt lat="42.8947902" lon="-5.68677">
        <ele>1141.34</ele>
        <time>2020-07-21T06:43:33.000Z</time>
      </trkpt>
      <trkpt lat="42.894785" lon="-5.6867818">
        <ele>1141.95</ele>
        <time>2020-07-21T06:43:34.000Z</time>
      </trkpt>
      <trkpt lat="42.894781" lon="-5.6867922">
        <ele>1141.95</ele>
        <time>2020-07-21T06:43:35.000Z</time>
      </trkpt>
      <trkpt lat="42.894778" lon="-5.6868032">
        <ele>1142.4</ele>
        <time>2020-07-21T06:43:36.000Z</time>
      </trkpt>
      <trkpt lat="42.894776" lon="-5.6868163">
        <ele>1142.4</ele>
        <time>2020-07-21T06:43:37.000Z</time>
      </trkpt>
      <trkpt lat="42.8947755" lon="-5.6868312">
        <ele>1142.86</ele>
        <time>2020-07-21T06:43:38.000Z</time>
      </trkpt>
      <trkpt lat="42.8947762" lon="-5.6868467">
        <ele>1142.86</ele>
        <time>2020-07-21T06:43:39.000Z</time>
      </trkpt>
      <trkpt lat="42.8947777" lon="-5.6868617">
        <ele>1143.32</ele>
        <time>2020-07-21T06:43:40.000Z</time>
      </trkpt>
      <trkpt lat="42.894779" lon="-5.6868767">
        <ele>1143.32</ele>
        <time>2020-07-21T06:43:41.000Z</time>
      </trkpt>
      <trkpt lat="42.8947793" lon="-5.6868918">
        <ele>1143.62</ele>
        <time>2020-07-21T06:43:42.000Z</time>
      </trkpt>
      <trkpt lat="42.8947788" lon="-5.686908">
        <ele>1143.62</ele>
        <time>2020-07-21T06:43:43.000Z</time>
      </trkpt>
      <trkpt lat="42.894777" lon="-5.6869243">
        <ele>1144.08</ele>
        <time>2020-07-21T06:43:44.000Z</time>
      </trkpt>
      <trkpt lat="42.8947755" lon="-5.6869392">
        <ele>1144.08</ele>
        <time>2020-07-21T06:43:45.000Z</time>
      </trkpt>
      <trkpt lat="42.8947745" lon="-5.6869527">
        <ele>1144.54</ele>
        <time>2020-07-21T06:43:46.000Z</time>
      </trkpt>
      <trkpt lat="42.8947747" lon="-5.6869647">
        <ele>1144.54</ele>
        <time>2020-07-21T06:43:47.000Z</time>
      </trkpt>
      <trkpt lat="42.894775" lon="-5.6869782">
        <ele>1144.84</ele>
        <time>2020-07-21T06:43:48.000Z</time>
      </trkpt>
      <trkpt lat="42.894775" lon="-5.6869917">
        <ele>1144.84</ele>
        <time>2020-07-21T06:43:49.000Z</time>
      </trkpt>
      <trkpt lat="42.8947758" lon="-5.6870063">
        <ele>1145.3</ele>
        <time>2020-07-21T06:43:50.000Z</time>
      </trkpt>
      <trkpt lat="42.894779" lon="-5.6870198">
        <ele>1145.3</ele>
        <time>2020-07-21T06:43:51.000Z</time>
      </trkpt>
      <trkpt lat="42.8947878" lon="-5.6870333">
        <ele>1145.76</ele>
        <time>2020-07-21T06:43:52.000Z</time>
      </trkpt>
      <trkpt lat="42.8947975" lon="-5.6870475">
        <ele>1145.76</ele>
        <time>2020-07-21T06:43:53.000Z</time>
      </trkpt>
      <trkpt lat="42.8948055" lon="-5.687063">
        <ele>1146.06</ele>
        <time>2020-07-21T06:43:54.000Z</time>
      </trkpt>
      <trkpt lat="42.8948133" lon="-5.6870773">
        <ele>1146.06</ele>
        <time>2020-07-21T06:43:55.000Z</time>
      </trkpt>
      <trkpt lat="42.894823" lon="-5.6870908">
        <ele>1146.52</ele>
        <time>2020-07-21T06:43:56.000Z</time>
      </trkpt>
      <trkpt lat="42.8948345" lon="-5.6871032">
        <ele>1146.52</ele>
        <time>2020-07-21T06:43:57.000Z</time>
      </trkpt>
      <trkpt lat="42.8948427" lon="-5.6871167">
        <ele>1146.82</ele>
        <time>2020-07-21T06:43:58.000Z</time>
      </trkpt>
      <trkpt lat="42.89485" lon="-5.6871303">
        <ele>1146.82</ele>
        <time>2020-07-21T06:43:59.000Z</time>
      </trkpt>
      <trkpt lat="42.8948572" lon="-5.6871435">
        <ele>1147.28</ele>
        <time>2020-07-21T06:44:00.000Z</time>
      </trkpt>
      <trkpt lat="42.8948642" lon="-5.6871565">
        <ele>1147.28</ele>
        <time>2020-07-21T06:44:01.000Z</time>
      </trkpt>
      <trkpt lat="42.894871" lon="-5.687169">
        <ele>1147.59</ele>
        <time>2020-07-21T06:44:02.000Z</time>
      </trkpt>
      <trkpt lat="42.8948775" lon="-5.6871812">
        <ele>1147.59</ele>
        <time>2020-07-21T06:44:03.000Z</time>
      </trkpt>
      <trkpt lat="42.8948835" lon="-5.687194">
        <ele>1147.89</ele>
        <time>2020-07-21T06:44:04.000Z</time>
      </trkpt>
      <trkpt lat="42.8948882" lon="-5.6872075">
        <ele>1147.89</ele>
        <time>2020-07-21T06:44:05.000Z</time>
      </trkpt>
      <trkpt lat="42.8948928" lon="-5.6872212">
        <ele>1148.2</ele>
        <time>2020-07-21T06:44:06.000Z</time>
      </trkpt>
      <trkpt lat="42.8948965" lon="-5.6872338">
        <ele>1148.2</ele>
        <time>2020-07-21T06:44:07.000Z</time>
      </trkpt>
      <trkpt lat="42.8949" lon="-5.6872455">
        <ele>1148.5</ele>
        <time>2020-07-21T06:44:08.000Z</time>
      </trkpt>
      <trkpt lat="42.8949028" lon="-5.6872558">
        <ele>1148.5</ele>
        <time>2020-07-21T06:44:09.000Z</time>
      </trkpt>
      <trkpt lat="42.8949053" lon="-5.6872662">
        <ele>1148.81</ele>
        <time>2020-07-21T06:44:10.000Z</time>
      </trkpt>
      <trkpt lat="42.8949082" lon="-5.6872763">
        <ele>1148.81</ele>
        <time>2020-07-21T06:44:11.000Z</time>
      </trkpt>
      <trkpt lat="42.894911" lon="-5.6872867">
        <ele>1149.11</ele>
        <time>2020-07-21T06:44:12.000Z</time>
      </trkpt>
      <trkpt lat="42.8949142" lon="-5.6872973">
        <ele>1149.11</ele>
        <time>2020-07-21T06:44:13.000Z</time>
      </trkpt>
      <trkpt lat="42.894918" lon="-5.687308">
        <ele>1149.42</ele>
        <time>2020-07-21T06:44:14.000Z</time>
      </trkpt>
      <trkpt lat="42.894921" lon="-5.6873188">
        <ele>1149.42</ele>
        <time>2020-07-21T06:44:15.000Z</time>
      </trkpt>
      <trkpt lat="42.8949248" lon="-5.6873287">
        <ele>1149.57</ele>
        <time>2020-07-21T06:44:16.000Z</time>
      </trkpt>
      <trkpt lat="42.894928" lon="-5.6873375">
        <ele>1149.57</ele>
        <time>2020-07-21T06:44:17.000Z</time>
      </trkpt>
      <trkpt lat="42.8949313" lon="-5.6873462">
        <ele>1149.87</ele>
        <time>2020-07-21T06:44:18.000Z</time>
      </trkpt>
      <trkpt lat="42.8949347" lon="-5.6873545">
        <ele>1149.87</ele>
        <time>2020-07-21T06:44:19.000Z</time>
      </trkpt>
      <trkpt lat="42.8949395" lon="-5.6873637">
        <ele>1150.18</ele>
        <time>2020-07-21T06:44:20.000Z</time>
      </trkpt>
      <trkpt lat="42.8949458" lon="-5.687373">
        <ele>1150.18</ele>
        <time>2020-07-21T06:44:21.000Z</time>
      </trkpt>
      <trkpt lat="42.8949525" lon="-5.6873817">
        <ele>1150.33</ele>
        <time>2020-07-21T06:44:22.000Z</time>
      </trkpt>
      <trkpt lat="42.8949593" lon="-5.687391">
        <ele>1150.33</ele>
        <time>2020-07-21T06:44:23.000Z</time>
      </trkpt>
      <trkpt lat="42.8949655" lon="-5.6874022">
        <ele>1150.63</ele>
        <time>2020-07-21T06:44:24.000Z</time>
      </trkpt>
      <trkpt lat="42.8949703" lon="-5.6874155">
        <ele>1150.63</ele>
        <time>2020-07-21T06:44:25.000Z</time>
      </trkpt>
      <trkpt lat="42.8949742" lon="-5.687428">
        <ele>1150.79</ele>
        <time>2020-07-21T06:44:26.000Z</time>
      </trkpt>
      <trkpt lat="42.894979" lon="-5.6874402">
        <ele>1150.79</ele>
        <time>2020-07-21T06:44:27.000Z</time>
      </trkpt>
      <trkpt lat="42.8949848" lon="-5.6874522">
        <ele>1150.94</ele>
        <time>2020-07-21T06:44:28.000Z</time>
      </trkpt>
      <trkpt lat="42.8949912" lon="-5.6874643">
        <ele>1150.94</ele>
        <time>2020-07-21T06:44:29.000Z</time>
      </trkpt>
      <trkpt lat="42.8949972" lon="-5.6874748">
        <ele>1151.24</ele>
        <time>2020-07-21T06:44:30.000Z</time>
      </trkpt>
      <trkpt lat="42.8950108" lon="-5.6874842">
        <ele>1151.24</ele>
        <time>2020-07-21T06:44:31.000Z</time>
      </trkpt>
      <trkpt lat="42.8950398" lon="-5.6874898">
        <ele>1151.4</ele>
        <time>2020-07-21T06:44:32.000Z</time>
      </trkpt>
      <trkpt lat="42.8950705" lon="-5.6874937">
        <ele>1151.4</ele>
        <time>2020-07-21T06:44:33.000Z</time>
      </trkpt>
      <trkpt lat="42.8950947" lon="-5.6874958">
        <ele>1151.7</ele>
        <time>2020-07-21T06:44:34.000Z</time>
      </trkpt>
      <trkpt lat="42.8951038" lon="-5.6874995">
        <ele>1151.7</ele>
        <time>2020-07-21T06:44:35.000Z</time>
      </trkpt>
      <trkpt lat="42.895112" lon="-5.6875045">
        <ele>1151.85</ele>
        <time>2020-07-21T06:44:36.000Z</time>
      </trkpt>
      <trkpt lat="42.8951197" lon="-5.6875095">
        <ele>1151.85</ele>
        <time>2020-07-21T06:44:37.000Z</time>
      </trkpt>
      <trkpt lat="42.895128" lon="-5.6875138">
        <ele>1152.01</ele>
        <time>2020-07-21T06:44:38.000Z</time>
      </trkpt>
      <trkpt lat="42.8951358" lon="-5.6875158">
        <ele>1152.01</ele>
        <time>2020-07-21T06:44:39.000Z</time>
      </trkpt>
      <trkpt lat="42.8951442" lon="-5.6875157">
        <ele>1152.31</ele>
        <time>2020-07-21T06:44:40.000Z</time>
      </trkpt>
      <trkpt lat="42.8951538" lon="-5.6875138">
        <ele>1152.31</ele>
        <time>2020-07-21T06:44:41.000Z</time>
      </trkpt>
      <trkpt lat="42.8951642" lon="-5.6875122">
        <ele>1152.46</ele>
        <time>2020-07-21T06:44:42.000Z</time>
      </trkpt>
      <trkpt lat="42.8951745" lon="-5.6875108">
        <ele>1152.46</ele>
        <time>2020-07-21T06:44:43.000Z</time>
      </trkpt>
      <trkpt lat="42.8951838" lon="-5.687511">
        <ele>1152.77</ele>
        <time>2020-07-21T06:44:44.000Z</time>
      </trkpt>
      <trkpt lat="42.8951925" lon="-5.6875108">
        <ele>1152.77</ele>
        <time>2020-07-21T06:44:45.000Z</time>
      </trkpt>
      <trkpt lat="42.8952015" lon="-5.6875113">
        <ele>1152.92</ele>
        <time>2020-07-21T06:44:46.000Z</time>
      </trkpt>
      <trkpt lat="42.8952103" lon="-5.6875103">
        <ele>1152.92</ele>
        <time>2020-07-21T06:44:47.000Z</time>
      </trkpt>
      <trkpt lat="42.8952203" lon="-5.6875083">
        <ele>1153.22</ele>
        <time>2020-07-21T06:44:48.000Z</time>
      </trkpt>
      <trkpt lat="42.8952298" lon="-5.6875057">
        <ele>1153.22</ele>
        <time>2020-07-21T06:44:49.000Z</time>
      </trkpt>
      <trkpt lat="42.8952398" lon="-5.687504">
        <ele>1153.53</ele>
        <time>2020-07-21T06:44:50.000Z</time>
      </trkpt>
      <trkpt lat="42.8952508" lon="-5.6875038">
        <ele>1153.53</ele>
        <time>2020-07-21T06:44:51.000Z</time>
      </trkpt>
      <trkpt lat="42.8952627" lon="-5.687504">
        <ele>1153.68</ele>
        <time>2020-07-21T06:44:52.000Z</time>
      </trkpt>
      <trkpt lat="42.8952742" lon="-5.6875043">
        <ele>1153.68</ele>
        <time>2020-07-21T06:44:53.000Z</time>
      </trkpt>
      <trkpt lat="42.8952855" lon="-5.6875042">
        <ele>1153.99</ele>
        <time>2020-07-21T06:44:54.000Z</time>
      </trkpt>
      <trkpt lat="42.8952962" lon="-5.6875042">
        <ele>1153.99</ele>
        <time>2020-07-21T06:44:55.000Z</time>
      </trkpt>
      <trkpt lat="42.8953065" lon="-5.6875025">
        <ele>1154.29</ele>
        <time>2020-07-21T06:44:56.000Z</time>
      </trkpt>
      <trkpt lat="42.8953162" lon="-5.6874998">
        <ele>1154.29</ele>
        <time>2020-07-21T06:44:57.000Z</time>
      </trkpt>
      <trkpt lat="42.8953263" lon="-5.687497">
        <ele>1154.6</ele>
        <time>2020-07-21T06:44:58.000Z</time>
      </trkpt>
      <trkpt lat="42.8953353" lon="-5.6874958">
        <ele>1154.6</ele>
        <time>2020-07-21T06:44:59.000Z</time>
      </trkpt>
      <trkpt lat="42.8953438" lon="-5.6874948">
        <ele>1154.9</ele>
        <time>2020-07-21T06:45:00.000Z</time>
      </trkpt>
      <trkpt lat="42.8953528" lon="-5.6874943">
        <ele>1154.9</ele>
        <time>2020-07-21T06:45:01.000Z</time>
      </trkpt>
      <trkpt lat="42.8953638" lon="-5.6874943">
        <ele>1155.36</ele>
        <time>2020-07-21T06:45:02.000Z</time>
      </trkpt>
      <trkpt lat="42.8953747" lon="-5.6874952">
        <ele>1155.36</ele>
        <time>2020-07-21T06:45:03.000Z</time>
      </trkpt>
      <trkpt lat="42.8953843" lon="-5.6874972">
        <ele>1155.66</ele>
        <time>2020-07-21T06:45:04.000Z</time>
      </trkpt>
      <trkpt lat="42.8953932" lon="-5.6874987">
        <ele>1155.66</ele>
        <time>2020-07-21T06:45:05.000Z</time>
      </trkpt>
      <trkpt lat="42.8954042" lon="-5.6875003">
        <ele>1155.97</ele>
        <time>2020-07-21T06:45:06.000Z</time>
      </trkpt>
      <trkpt lat="42.8954143" lon="-5.6875023">
        <ele>1155.97</ele>
        <time>2020-07-21T06:45:07.000Z</time>
      </trkpt>
      <trkpt lat="42.8954262" lon="-5.687506">
        <ele>1156.27</ele>
        <time>2020-07-21T06:45:08.000Z</time>
      </trkpt>
      <trkpt lat="42.895437" lon="-5.6875103">
        <ele>1156.27</ele>
        <time>2020-07-21T06:45:09.000Z</time>
      </trkpt>
      <trkpt lat="42.8954493" lon="-5.6875142">
        <ele>1156.73</ele>
        <time>2020-07-21T06:45:10.000Z</time>
      </trkpt>
      <trkpt lat="42.89546" lon="-5.6875173">
        <ele>1156.73</ele>
        <time>2020-07-21T06:45:11.000Z</time>
      </trkpt>
      <trkpt lat="42.8954712" lon="-5.687521">
        <ele>1157.04</ele>
        <time>2020-07-21T06:45:12.000Z</time>
      </trkpt>
      <trkpt lat="42.8954817" lon="-5.6875245">
        <ele>1157.04</ele>
        <time>2020-07-21T06:45:13.000Z</time>
      </trkpt>
      <trkpt lat="42.8954922" lon="-5.6875277">
        <ele>1157.34</ele>
        <time>2020-07-21T06:45:14.000Z</time>
      </trkpt>
      <trkpt lat="42.8955035" lon="-5.6875297">
        <ele>1157.34</ele>
        <time>2020-07-21T06:45:15.000Z</time>
      </trkpt>
      <trkpt lat="42.8955145" lon="-5.687532">
        <ele>1157.64</ele>
        <time>2020-07-21T06:45:16.000Z</time>
      </trkpt>
      <trkpt lat="42.8955265" lon="-5.6875343">
        <ele>1157.64</ele>
        <time>2020-07-21T06:45:17.000Z</time>
      </trkpt>
      <trkpt lat="42.8955365" lon="-5.6875363">
        <ele>1157.95</ele>
        <time>2020-07-21T06:45:18.000Z</time>
      </trkpt>
      <trkpt lat="42.8955467" lon="-5.6875383">
        <ele>1157.95</ele>
        <time>2020-07-21T06:45:19.000Z</time>
      </trkpt>
      <trkpt lat="42.8955555" lon="-5.6875418">
        <ele>1158.25</ele>
        <time>2020-07-21T06:45:20.000Z</time>
      </trkpt>
      <trkpt lat="42.8955653" lon="-5.6875468">
        <ele>1158.25</ele>
        <time>2020-07-21T06:45:21.000Z</time>
      </trkpt>
      <trkpt lat="42.8955757" lon="-5.6875518">
        <ele>1158.56</ele>
        <time>2020-07-21T06:45:22.000Z</time>
      </trkpt>
      <trkpt lat="42.895587" lon="-5.687555">
        <ele>1158.56</ele>
        <time>2020-07-21T06:45:23.000Z</time>
      </trkpt>
      <trkpt lat="42.8956" lon="-5.6875573">
        <ele>1158.86</ele>
        <time>2020-07-21T06:45:24.000Z</time>
      </trkpt>
      <trkpt lat="42.8956142" lon="-5.6875597">
        <ele>1158.86</ele>
        <time>2020-07-21T06:45:25.000Z</time>
      </trkpt>
      <trkpt lat="42.8956288" lon="-5.6875638">
        <ele>1159.17</ele>
        <time>2020-07-21T06:45:26.000Z</time>
      </trkpt>
      <trkpt lat="42.8956417" lon="-5.6875683">
        <ele>1159.17</ele>
        <time>2020-07-21T06:45:27.000Z</time>
      </trkpt>
      <trkpt lat="42.895653" lon="-5.6875732">
        <ele>1159.47</ele>
        <time>2020-07-21T06:45:28.000Z</time>
      </trkpt>
      <trkpt lat="42.8956627" lon="-5.6875782">
        <ele>1159.47</ele>
        <time>2020-07-21T06:45:29.000Z</time>
      </trkpt>
      <trkpt lat="42.8956722" lon="-5.687584">
        <ele>1159.78</ele>
        <time>2020-07-21T06:45:30.000Z</time>
      </trkpt>
      <trkpt lat="42.8956828" lon="-5.68759">
        <ele>1159.78</ele>
        <time>2020-07-21T06:45:31.000Z</time>
      </trkpt>
      <trkpt lat="42.8956947" lon="-5.6875955">
        <ele>1160.08</ele>
        <time>2020-07-21T06:45:32.000Z</time>
      </trkpt>
      <trkpt lat="42.895707" lon="-5.6876">
        <ele>1160.08</ele>
        <time>2020-07-21T06:45:33.000Z</time>
      </trkpt>
      <trkpt lat="42.8957187" lon="-5.687606">
        <ele>1160.39</ele>
        <time>2020-07-21T06:45:34.000Z</time>
      </trkpt>
      <trkpt lat="42.8957317" lon="-5.6876127">
        <ele>1160.39</ele>
        <time>2020-07-21T06:45:35.000Z</time>
      </trkpt>
      <trkpt lat="42.8957458" lon="-5.6876185">
        <ele>1160.69</ele>
        <time>2020-07-21T06:45:36.000Z</time>
      </trkpt>
      <trkpt lat="42.8957597" lon="-5.6876233">
        <ele>1160.69</ele>
        <time>2020-07-21T06:45:37.000Z</time>
      </trkpt>
      <trkpt lat="42.8957727" lon="-5.6876275">
        <ele>1161</ele>
        <time>2020-07-21T06:45:38.000Z</time>
      </trkpt>
      <trkpt lat="42.8957848" lon="-5.687633">
        <ele>1161</ele>
        <time>2020-07-21T06:45:39.000Z</time>
      </trkpt>
      <trkpt lat="42.8957978" lon="-5.6876385">
        <ele>1161.3</ele>
        <time>2020-07-21T06:45:40.000Z</time>
      </trkpt>
      <trkpt lat="42.8958113" lon="-5.6876443">
        <ele>1161.3</ele>
        <time>2020-07-21T06:45:41.000Z</time>
      </trkpt>
      <trkpt lat="42.8958262" lon="-5.6876497">
        <ele>1161.61</ele>
        <time>2020-07-21T06:45:42.000Z</time>
      </trkpt>
      <trkpt lat="42.8958413" lon="-5.6876542">
        <ele>1161.61</ele>
        <time>2020-07-21T06:45:43.000Z</time>
      </trkpt>
      <trkpt lat="42.8958557" lon="-5.6876585">
        <ele>1161.76</ele>
        <time>2020-07-21T06:45:44.000Z</time>
      </trkpt>
      <trkpt lat="42.8958695" lon="-5.6876632">
        <ele>1161.76</ele>
        <time>2020-07-21T06:45:45.000Z</time>
      </trkpt>
      <trkpt lat="42.8958823" lon="-5.6876687">
        <ele>1162.06</ele>
        <time>2020-07-21T06:45:46.000Z</time>
      </trkpt>
      <trkpt lat="42.8958955" lon="-5.687674">
        <ele>1162.06</ele>
        <time>2020-07-21T06:45:47.000Z</time>
      </trkpt>
      <trkpt lat="42.8959093" lon="-5.6876802">
        <ele>1162.37</ele>
        <time>2020-07-21T06:45:48.000Z</time>
      </trkpt>
      <trkpt lat="42.8959232" lon="-5.687687">
        <ele>1162.37</ele>
        <time>2020-07-21T06:45:49.000Z</time>
      </trkpt>
      <trkpt lat="42.8959362" lon="-5.6876933">
        <ele>1162.67</ele>
        <time>2020-07-21T06:45:50.000Z</time>
      </trkpt>
      <trkpt lat="42.8959493" lon="-5.6876983">
        <ele>1162.67</ele>
        <time>2020-07-21T06:45:51.000Z</time>
      </trkpt>
      <trkpt lat="42.895963" lon="-5.6877018">
        <ele>1162.83</ele>
        <time>2020-07-21T06:45:52.000Z</time>
      </trkpt>
      <trkpt lat="42.8959777" lon="-5.6877052">
        <ele>1162.83</ele>
        <time>2020-07-21T06:45:53.000Z</time>
      </trkpt>
      <trkpt lat="42.8959917" lon="-5.687709">
        <ele>1163.13</ele>
        <time>2020-07-21T06:45:54.000Z</time>
      </trkpt>
      <trkpt lat="42.8960048" lon="-5.6877135">
        <ele>1163.13</ele>
        <time>2020-07-21T06:45:55.000Z</time>
      </trkpt>
      <trkpt lat="42.8960178" lon="-5.6877177">
        <ele>1163.44</ele>
        <time>2020-07-21T06:45:56.000Z</time>
      </trkpt>
      <trkpt lat="42.896031" lon="-5.6877207">
        <ele>1163.44</ele>
        <time>2020-07-21T06:45:57.000Z</time>
      </trkpt>
      <trkpt lat="42.8960455" lon="-5.6877245">
        <ele>1163.74</ele>
        <time>2020-07-21T06:45:58.000Z</time>
      </trkpt>
      <trkpt lat="42.8960602" lon="-5.6877298">
        <ele>1163.74</ele>
        <time>2020-07-21T06:45:59.000Z</time>
      </trkpt>
      <trkpt lat="42.8960728" lon="-5.6877358">
        <ele>1163.89</ele>
        <time>2020-07-21T06:46:00.000Z</time>
      </trkpt>
      <trkpt lat="42.8960842" lon="-5.6877403">
        <ele>1163.89</ele>
        <time>2020-07-21T06:46:01.000Z</time>
      </trkpt>
      <trkpt lat="42.8960957" lon="-5.6877428">
        <ele>1164.2</ele>
        <time>2020-07-21T06:46:02.000Z</time>
      </trkpt>
      <trkpt lat="42.8961082" lon="-5.6877458">
        <ele>1164.2</ele>
        <time>2020-07-21T06:46:03.000Z</time>
      </trkpt>
      <trkpt lat="42.8961205" lon="-5.6877492">
        <ele>1164.5</ele>
        <time>2020-07-21T06:46:04.000Z</time>
      </trkpt>
      <trkpt lat="42.8961322" lon="-5.687754">
        <ele>1164.5</ele>
        <time>2020-07-21T06:46:05.000Z</time>
      </trkpt>
      <trkpt lat="42.896144" lon="-5.6877587">
        <ele>1164.81</ele>
        <time>2020-07-21T06:46:06.000Z</time>
      </trkpt>
      <trkpt lat="42.8961553" lon="-5.6877637">
        <ele>1164.81</ele>
        <time>2020-07-21T06:46:07.000Z</time>
      </trkpt>
      <trkpt lat="42.8961672" lon="-5.6877682">
        <ele>1164.96</ele>
        <time>2020-07-21T06:46:08.000Z</time>
      </trkpt>
      <trkpt lat="42.8961778" lon="-5.6877722">
        <ele>1164.96</ele>
        <time>2020-07-21T06:46:09.000Z</time>
      </trkpt>
      <trkpt lat="42.896188" lon="-5.687777">
        <ele>1165.27</ele>
        <time>2020-07-21T06:46:10.000Z</time>
      </trkpt>
      <trkpt lat="42.8961972" lon="-5.6877827">
        <ele>1165.27</ele>
        <time>2020-07-21T06:46:11.000Z</time>
      </trkpt>
      <trkpt lat="42.896207" lon="-5.6877892">
        <ele>1165.57</ele>
        <time>2020-07-21T06:46:12.000Z</time>
      </trkpt>
      <trkpt lat="42.8962172" lon="-5.6877953">
        <ele>1165.57</ele>
        <time>2020-07-21T06:46:13.000Z</time>
      </trkpt>
      <trkpt lat="42.8962263" lon="-5.687801">
        <ele>1165.87</ele>
        <time>2020-07-21T06:46:14.000Z</time>
      </trkpt>
      <trkpt lat="42.8962353" lon="-5.6878072">
        <ele>1165.87</ele>
        <time>2020-07-21T06:46:15.000Z</time>
      </trkpt>
      <trkpt lat="42.896244" lon="-5.6878135">
        <ele>1166.18</ele>
        <time>2020-07-21T06:46:16.000Z</time>
      </trkpt>
      <trkpt lat="42.8962528" lon="-5.6878202">
        <ele>1166.18</ele>
        <time>2020-07-21T06:46:17.000Z</time>
      </trkpt>
      <trkpt lat="42.8962603" lon="-5.6878272">
        <ele>1166.33</ele>
        <time>2020-07-21T06:46:18.000Z</time>
      </trkpt>
      <trkpt lat="42.8962675" lon="-5.6878333">
        <ele>1166.33</ele>
        <time>2020-07-21T06:46:19.000Z</time>
      </trkpt>
      <trkpt lat="42.8962755" lon="-5.6878388">
        <ele>1166.64</ele>
        <time>2020-07-21T06:46:20.000Z</time>
      </trkpt>
      <trkpt lat="42.8962842" lon="-5.687844">
        <ele>1166.64</ele>
        <time>2020-07-21T06:46:21.000Z</time>
      </trkpt>
      <trkpt lat="42.8962925" lon="-5.6878503">
        <ele>1166.94</ele>
        <time>2020-07-21T06:46:22.000Z</time>
      </trkpt>
      <trkpt lat="42.8962992" lon="-5.6878568">
        <ele>1166.94</ele>
        <time>2020-07-21T06:46:23.000Z</time>
      </trkpt>
      <trkpt lat="42.8963058" lon="-5.6878625">
        <ele>1167.25</ele>
        <time>2020-07-21T06:46:24.000Z</time>
      </trkpt>
      <trkpt lat="42.896313" lon="-5.6878682">
        <ele>1167.25</ele>
        <time>2020-07-21T06:46:25.000Z</time>
      </trkpt>
      <trkpt lat="42.8963202" lon="-5.6878748">
        <ele>1167.55</ele>
        <time>2020-07-21T06:46:26.000Z</time>
      </trkpt>
      <trkpt lat="42.8963265" lon="-5.687882">
        <ele>1167.55</ele>
        <time>2020-07-21T06:46:27.000Z</time>
      </trkpt>
      <trkpt lat="42.8963325" lon="-5.6878885">
        <ele>1167.85</ele>
        <time>2020-07-21T06:46:28.000Z</time>
      </trkpt>
      <trkpt lat="42.8963387" lon="-5.6878952">
        <ele>1167.85</ele>
        <time>2020-07-21T06:46:29.000Z</time>
      </trkpt>
      <trkpt lat="42.8963457" lon="-5.6879025">
        <ele>1168.16</ele>
        <time>2020-07-21T06:46:30.000Z</time>
      </trkpt>
      <trkpt lat="42.8963523" lon="-5.6879105">
        <ele>1168.16</ele>
        <time>2020-07-21T06:46:31.000Z</time>
      </trkpt>
      <trkpt lat="42.8963587" lon="-5.6879182">
        <ele>1168.46</ele>
        <time>2020-07-21T06:46:32.000Z</time>
      </trkpt>
      <trkpt lat="42.8963642" lon="-5.6879257">
        <ele>1168.46</ele>
        <time>2020-07-21T06:46:33.000Z</time>
      </trkpt>
      <trkpt lat="42.8963702" lon="-5.6879342">
        <ele>1168.77</ele>
        <time>2020-07-21T06:46:34.000Z</time>
      </trkpt>
      <trkpt lat="42.8963768" lon="-5.687944">
        <ele>1168.77</ele>
        <time>2020-07-21T06:46:35.000Z</time>
      </trkpt>
      <trkpt lat="42.896384" lon="-5.6879543">
        <ele>1169.07</ele>
        <time>2020-07-21T06:46:36.000Z</time>
      </trkpt>
      <trkpt lat="42.8963912" lon="-5.6879637">
        <ele>1169.07</ele>
        <time>2020-07-21T06:46:37.000Z</time>
      </trkpt>
      <trkpt lat="42.8963985" lon="-5.6879725">
        <ele>1169.38</ele>
        <time>2020-07-21T06:46:38.000Z</time>
      </trkpt>
      <trkpt lat="42.896406" lon="-5.6879813">
        <ele>1169.38</ele>
        <time>2020-07-21T06:46:39.000Z</time>
      </trkpt>
      <trkpt lat="42.8964125" lon="-5.68799">
        <ele>1169.68</ele>
        <time>2020-07-21T06:46:40.000Z</time>
      </trkpt>
      <trkpt lat="42.8964197" lon="-5.687999">
        <ele>1169.68</ele>
        <time>2020-07-21T06:46:41.000Z</time>
      </trkpt>
      <trkpt lat="42.8964267" lon="-5.688009">
        <ele>1169.99</ele>
        <time>2020-07-21T06:46:42.000Z</time>
      </trkpt>
      <trkpt lat="42.896434" lon="-5.6880207">
        <ele>1169.99</ele>
        <time>2020-07-21T06:46:43.000Z</time>
      </trkpt>
      <trkpt lat="42.896441" lon="-5.6880312">
        <ele>1170.29</ele>
        <time>2020-07-21T06:46:44.000Z</time>
      </trkpt>
      <trkpt lat="42.896449" lon="-5.6880398">
        <ele>1170.29</ele>
        <time>2020-07-21T06:46:45.000Z</time>
      </trkpt>
      <trkpt lat="42.8964582" lon="-5.6880465">
        <ele>1170.45</ele>
        <time>2020-07-21T06:46:46.000Z</time>
      </trkpt>
      <trkpt lat="42.896467" lon="-5.6880528">
        <ele>1170.45</ele>
        <time>2020-07-21T06:46:47.000Z</time>
      </trkpt>
      <trkpt lat="42.8964753" lon="-5.6880597">
        <ele>1170.75</ele>
        <time>2020-07-21T06:46:48.000Z</time>
      </trkpt>
      <trkpt lat="42.896485" lon="-5.6880655">
        <ele>1170.75</ele>
        <time>2020-07-21T06:46:49.000Z</time>
      </trkpt>
      <trkpt lat="42.8964953" lon="-5.6880703">
        <ele>1171.06</ele>
        <time>2020-07-21T06:46:50.000Z</time>
      </trkpt>
      <trkpt lat="42.896506" lon="-5.688075">
        <ele>1171.06</ele>
        <time>2020-07-21T06:46:51.000Z</time>
      </trkpt>
      <trkpt lat="42.8965162" lon="-5.6880802">
        <ele>1171.36</ele>
        <time>2020-07-21T06:46:52.000Z</time>
      </trkpt>
      <trkpt lat="42.896527" lon="-5.6880858">
        <ele>1171.36</ele>
        <time>2020-07-21T06:46:53.000Z</time>
      </trkpt>
      <trkpt lat="42.896539" lon="-5.688091">
        <ele>1171.67</ele>
        <time>2020-07-21T06:46:54.000Z</time>
      </trkpt>
      <trkpt lat="42.8965508" lon="-5.688097">
        <ele>1171.67</ele>
        <time>2020-07-21T06:46:55.000Z</time>
      </trkpt>
      <trkpt lat="42.8965618" lon="-5.6881038">
        <ele>1171.97</ele>
        <time>2020-07-21T06:46:56.000Z</time>
      </trkpt>
      <trkpt lat="42.8965718" lon="-5.6881118">
        <ele>1171.97</ele>
        <time>2020-07-21T06:46:57.000Z</time>
      </trkpt>
      <trkpt lat="42.8965818" lon="-5.6881203">
        <ele>1172.12</ele>
        <time>2020-07-21T06:46:58.000Z</time>
      </trkpt>
      <trkpt lat="42.8965917" lon="-5.6881297">
        <ele>1172.12</ele>
        <time>2020-07-21T06:46:59.000Z</time>
      </trkpt>
      <trkpt lat="42.8966015" lon="-5.6881387">
        <ele>1172.43</ele>
        <time>2020-07-21T06:47:00.000Z</time>
      </trkpt>
      <trkpt lat="42.8966108" lon="-5.6881472">
        <ele>1172.43</ele>
        <time>2020-07-21T06:47:01.000Z</time>
      </trkpt>
      <trkpt lat="42.8966205" lon="-5.6881547">
        <ele>1172.73</ele>
        <time>2020-07-21T06:47:02.000Z</time>
      </trkpt>
      <trkpt lat="42.8966305" lon="-5.6881615">
        <ele>1172.73</ele>
        <time>2020-07-21T06:47:03.000Z</time>
      </trkpt>
      <trkpt lat="42.8966407" lon="-5.6881673">
        <ele>1173.04</ele>
        <time>2020-07-21T06:47:04.000Z</time>
      </trkpt>
      <trkpt lat="42.8966513" lon="-5.6881718">
        <ele>1173.04</ele>
        <time>2020-07-21T06:47:05.000Z</time>
      </trkpt>
      <trkpt lat="42.8966615" lon="-5.6881745">
        <ele>1173.34</ele>
        <time>2020-07-21T06:47:06.000Z</time>
      </trkpt>
      <trkpt lat="42.896672" lon="-5.6881763">
        <ele>1173.34</ele>
        <time>2020-07-21T06:47:07.000Z</time>
      </trkpt>
      <trkpt lat="42.8966818" lon="-5.6881775">
        <ele>1173.65</ele>
        <time>2020-07-21T06:47:08.000Z</time>
      </trkpt>
      <trkpt lat="42.8966918" lon="-5.6881795">
        <ele>1173.65</ele>
        <time>2020-07-21T06:47:09.000Z</time>
      </trkpt>
      <trkpt lat="42.8967023" lon="-5.6881813">
        <ele>1173.8</ele>
        <time>2020-07-21T06:47:10.000Z</time>
      </trkpt>
      <trkpt lat="42.8967132" lon="-5.6881837">
        <ele>1173.8</ele>
        <time>2020-07-21T06:47:11.000Z</time>
      </trkpt>
      <trkpt lat="42.896725" lon="-5.688185">
        <ele>1174.1</ele>
        <time>2020-07-21T06:47:12.000Z</time>
      </trkpt>
      <trkpt lat="42.896737" lon="-5.6881868">
        <ele>1174.1</ele>
        <time>2020-07-21T06:47:13.000Z</time>
      </trkpt>
      <trkpt lat="42.8967488" lon="-5.6881893">
        <ele>1174.41</ele>
        <time>2020-07-21T06:47:14.000Z</time>
      </trkpt>
      <trkpt lat="42.8967612" lon="-5.6881927">
        <ele>1174.41</ele>
        <time>2020-07-21T06:47:15.000Z</time>
      </trkpt>
      <trkpt lat="42.8967733" lon="-5.6881962">
        <ele>1174.71</ele>
        <time>2020-07-21T06:47:16.000Z</time>
      </trkpt>
      <trkpt lat="42.8967863" lon="-5.6881993">
        <ele>1174.71</ele>
        <time>2020-07-21T06:47:17.000Z</time>
      </trkpt>
      <trkpt lat="42.8967992" lon="-5.6882025">
        <ele>1174.87</ele>
        <time>2020-07-21T06:47:18.000Z</time>
      </trkpt>
      <trkpt lat="42.8968117" lon="-5.688206">
        <ele>1174.87</ele>
        <time>2020-07-21T06:47:19.000Z</time>
      </trkpt>
      <trkpt lat="42.8968235" lon="-5.68821">
        <ele>1175.17</ele>
        <time>2020-07-21T06:47:20.000Z</time>
      </trkpt>
      <trkpt lat="42.8968355" lon="-5.6882138">
        <ele>1175.17</ele>
        <time>2020-07-21T06:47:21.000Z</time>
      </trkpt>
      <trkpt lat="42.896847" lon="-5.6882178">
        <ele>1175.47</ele>
        <time>2020-07-21T06:47:22.000Z</time>
      </trkpt>
      <trkpt lat="42.8968582" lon="-5.6882222">
        <ele>1175.47</ele>
        <time>2020-07-21T06:47:23.000Z</time>
      </trkpt>
      <trkpt lat="42.896869" lon="-5.688227">
        <ele>1175.78</ele>
        <time>2020-07-21T06:47:24.000Z</time>
      </trkpt>
      <trkpt lat="42.8968797" lon="-5.688231">
        <ele>1175.78</ele>
        <time>2020-07-21T06:47:25.000Z</time>
      </trkpt>
      <trkpt lat="42.8968907" lon="-5.6882347">
        <ele>1176.08</ele>
        <time>2020-07-21T06:47:26.000Z</time>
      </trkpt>
      <trkpt lat="42.8969015" lon="-5.6882378">
        <ele>1176.08</ele>
        <time>2020-07-21T06:47:27.000Z</time>
      </trkpt>
      <trkpt lat="42.8969128" lon="-5.6882413">
        <ele>1176.39</ele>
        <time>2020-07-21T06:47:28.000Z</time>
      </trkpt>
      <trkpt lat="42.8969235" lon="-5.6882447">
        <ele>1176.39</ele>
        <time>2020-07-21T06:47:29.000Z</time>
      </trkpt>
      <trkpt lat="42.8969343" lon="-5.6882483">
        <ele>1176.54</ele>
        <time>2020-07-21T06:47:30.000Z</time>
      </trkpt>
      <trkpt lat="42.896945" lon="-5.6882518">
        <ele>1176.54</ele>
        <time>2020-07-21T06:47:31.000Z</time>
      </trkpt>
      <trkpt lat="42.8969558" lon="-5.6882543">
        <ele>1176.85</ele>
        <time>2020-07-21T06:47:32.000Z</time>
      </trkpt>
      <trkpt lat="42.8969663" lon="-5.688256">
        <ele>1176.85</ele>
        <time>2020-07-21T06:47:33.000Z</time>
      </trkpt>
      <trkpt lat="42.896977" lon="-5.6882572">
        <ele>1177.15</ele>
        <time>2020-07-21T06:47:34.000Z</time>
      </trkpt>
      <trkpt lat="42.8969882" lon="-5.688259">
        <ele>1177.15</ele>
        <time>2020-07-21T06:47:35.000Z</time>
      </trkpt>
      <trkpt lat="42.8969992" lon="-5.6882608">
        <ele>1177.46</ele>
        <time>2020-07-21T06:47:36.000Z</time>
      </trkpt>
      <trkpt lat="42.8970105" lon="-5.6882633">
        <ele>1177.46</ele>
        <time>2020-07-21T06:47:37.000Z</time>
      </trkpt>
      <trkpt lat="42.8970215" lon="-5.6882653">
        <ele>1177.61</ele>
        <time>2020-07-21T06:47:38.000Z</time>
      </trkpt>
      <trkpt lat="42.8970325" lon="-5.6882672">
        <ele>1177.61</ele>
        <time>2020-07-21T06:47:39.000Z</time>
      </trkpt>
      <trkpt lat="42.8970432" lon="-5.6882677">
        <ele>1177.91</ele>
        <time>2020-07-21T06:47:40.000Z</time>
      </trkpt>
      <trkpt lat="42.8970528" lon="-5.688267">
        <ele>1177.91</ele>
        <time>2020-07-21T06:47:41.000Z</time>
      </trkpt>
      <trkpt lat="42.8970627" lon="-5.6882658">
        <ele>1178.07</ele>
        <time>2020-07-21T06:47:42.000Z</time>
      </trkpt>
      <trkpt lat="42.8970733" lon="-5.6882642">
        <ele>1178.07</ele>
        <time>2020-07-21T06:47:43.000Z</time>
      </trkpt>
      <trkpt lat="42.897084" lon="-5.6882635">
        <ele>1178.37</ele>
        <time>2020-07-21T06:47:44.000Z</time>
      </trkpt>
      <trkpt lat="42.8970945" lon="-5.6882635">
        <ele>1178.37</ele>
        <time>2020-07-21T06:47:45.000Z</time>
      </trkpt>
      <trkpt lat="42.8971037" lon="-5.6882632">
        <ele>1178.52</ele>
        <time>2020-07-21T06:47:46.000Z</time>
      </trkpt>
      <trkpt lat="42.8971127" lon="-5.688263">
        <ele>1178.52</ele>
        <time>2020-07-21T06:47:47.000Z</time>
      </trkpt>
      <trkpt lat="42.8971223" lon="-5.6882632">
        <ele>1178.83</ele>
        <time>2020-07-21T06:47:48.000Z</time>
      </trkpt>
      <trkpt lat="42.897132" lon="-5.6882652">
        <ele>1178.83</ele>
        <time>2020-07-21T06:47:49.000Z</time>
      </trkpt>
      <trkpt lat="42.8971423" lon="-5.6882677">
        <ele>1178.98</ele>
        <time>2020-07-21T06:47:50.000Z</time>
      </trkpt>
      <trkpt lat="42.897152" lon="-5.6882703">
        <ele>1178.98</ele>
        <time>2020-07-21T06:47:51.000Z</time>
      </trkpt>
      <trkpt lat="42.8971618" lon="-5.6882718">
        <ele>1179.13</ele>
        <time>2020-07-21T06:47:52.000Z</time>
      </trkpt>
      <trkpt lat="42.8971708" lon="-5.6882733">
        <ele>1179.13</ele>
        <time>2020-07-21T06:47:53.000Z</time>
      </trkpt>
      <trkpt lat="42.8971802" lon="-5.6882753">
        <ele>1179.44</ele>
        <time>2020-07-21T06:47:54.000Z</time>
      </trkpt>
      <trkpt lat="42.8971895" lon="-5.6882788">
        <ele>1179.44</ele>
        <time>2020-07-21T06:47:55.000Z</time>
      </trkpt>
      <trkpt lat="42.8971992" lon="-5.6882815">
        <ele>1179.59</ele>
        <time>2020-07-21T06:47:56.000Z</time>
      </trkpt>
      <trkpt lat="42.8972088" lon="-5.688284">
        <ele>1179.59</ele>
        <time>2020-07-21T06:47:57.000Z</time>
      </trkpt>
      <trkpt lat="42.8972185" lon="-5.6882855">
        <ele>1179.74</ele>
        <time>2020-07-21T06:47:58.000Z</time>
      </trkpt>
      <trkpt lat="42.8972278" lon="-5.688287">
        <ele>1179.74</ele>
        <time>2020-07-21T06:47:59.000Z</time>
      </trkpt>
      <trkpt lat="42.8972377" lon="-5.6882865">
        <ele>1179.9</ele>
        <time>2020-07-21T06:48:00.000Z</time>
      </trkpt>
      <trkpt lat="42.8972475" lon="-5.6882848">
        <ele>1179.9</ele>
        <time>2020-07-21T06:48:01.000Z</time>
      </trkpt>
      <trkpt lat="42.8972577" lon="-5.6882828">
        <ele>1180.2</ele>
        <time>2020-07-21T06:48:02.000Z</time>
      </trkpt>
      <trkpt lat="42.8972672" lon="-5.6882812">
        <ele>1180.2</ele>
        <time>2020-07-21T06:48:03.000Z</time>
      </trkpt>
      <trkpt lat="42.8972768" lon="-5.6882782">
        <ele>1180.35</ele>
        <time>2020-07-21T06:48:04.000Z</time>
      </trkpt>
      <trkpt lat="42.8972858" lon="-5.6882742">
        <ele>1180.35</ele>
        <time>2020-07-21T06:48:05.000Z</time>
      </trkpt>
      <trkpt lat="42.8972947" lon="-5.6882705">
        <ele>1180.51</ele>
        <time>2020-07-21T06:48:06.000Z</time>
      </trkpt>
      <trkpt lat="42.8973028" lon="-5.6882665">
        <ele>1180.51</ele>
        <time>2020-07-21T06:48:07.000Z</time>
      </trkpt>
      <trkpt lat="42.8973112" lon="-5.688262">
        <ele>1180.81</ele>
        <time>2020-07-21T06:48:08.000Z</time>
      </trkpt>
      <trkpt lat="42.8973188" lon="-5.6882558">
        <ele>1180.81</ele>
        <time>2020-07-21T06:48:09.000Z</time>
      </trkpt>
      <trkpt lat="42.897326" lon="-5.6882483">
        <ele>1180.96</ele>
        <time>2020-07-21T06:48:10.000Z</time>
      </trkpt>
      <trkpt lat="42.8973332" lon="-5.688241">
        <ele>1180.96</ele>
        <time>2020-07-21T06:48:11.000Z</time>
      </trkpt>
      <trkpt lat="42.8973408" lon="-5.6882337">
        <ele>1181.27</ele>
        <time>2020-07-21T06:48:12.000Z</time>
      </trkpt>
      <trkpt lat="42.8973487" lon="-5.6882268">
        <ele>1181.27</ele>
        <time>2020-07-21T06:48:13.000Z</time>
      </trkpt>
      <trkpt lat="42.8973562" lon="-5.688219">
        <ele>1181.42</ele>
        <time>2020-07-21T06:48:14.000Z</time>
      </trkpt>
      <trkpt lat="42.897364" lon="-5.6882117">
        <ele>1181.42</ele>
        <time>2020-07-21T06:48:15.000Z</time>
      </trkpt>
      <trkpt lat="42.8973722" lon="-5.6882048">
        <ele>1181.57</ele>
        <time>2020-07-21T06:48:16.000Z</time>
      </trkpt>
      <trkpt lat="42.8973805" lon="-5.688199">
        <ele>1181.57</ele>
        <time>2020-07-21T06:48:17.000Z</time>
      </trkpt>
      <trkpt lat="42.8973885" lon="-5.6881937">
        <ele>1181.88</ele>
        <time>2020-07-21T06:48:18.000Z</time>
      </trkpt>
      <trkpt lat="42.8973963" lon="-5.688188">
        <ele>1181.88</ele>
        <time>2020-07-21T06:48:19.000Z</time>
      </trkpt>
      <trkpt lat="42.8974045" lon="-5.6881825">
        <ele>1182.03</ele>
        <time>2020-07-21T06:48:20.000Z</time>
      </trkpt>
      <trkpt lat="42.8974127" lon="-5.6881775">
        <ele>1182.03</ele>
        <time>2020-07-21T06:48:21.000Z</time>
      </trkpt>
      <trkpt lat="42.8974213" lon="-5.6881738">
        <ele>1182.33</ele>
        <time>2020-07-21T06:48:22.000Z</time>
      </trkpt>
      <trkpt lat="42.8974298" lon="-5.6881702">
        <ele>1182.33</ele>
        <time>2020-07-21T06:48:23.000Z</time>
      </trkpt>
      <trkpt lat="42.8974398" lon="-5.6881667">
        <ele>1182.49</ele>
        <time>2020-07-21T06:48:24.000Z</time>
      </trkpt>
      <trkpt lat="42.8974493" lon="-5.6881622">
        <ele>1182.49</ele>
        <time>2020-07-21T06:48:25.000Z</time>
      </trkpt>
      <trkpt lat="42.8974588" lon="-5.6881572">
        <ele>1182.79</ele>
        <time>2020-07-21T06:48:26.000Z</time>
      </trkpt>
      <trkpt lat="42.897467" lon="-5.688151">
        <ele>1182.79</ele>
        <time>2020-07-21T06:48:27.000Z</time>
      </trkpt>
      <trkpt lat="42.8974758" lon="-5.6881458">
        <ele>1182.94</ele>
        <time>2020-07-21T06:48:28.000Z</time>
      </trkpt>
      <trkpt lat="42.8974843" lon="-5.6881408">
        <ele>1182.94</ele>
        <time>2020-07-21T06:48:29.000Z</time>
      </trkpt>
      <trkpt lat="42.8974917" lon="-5.6881358">
        <ele>1183.25</ele>
        <time>2020-07-21T06:48:30.000Z</time>
      </trkpt>
      <trkpt lat="42.8975" lon="-5.6881297">
        <ele>1183.25</ele>
        <time>2020-07-21T06:48:31.000Z</time>
      </trkpt>
      <trkpt lat="42.8975092" lon="-5.6881245">
        <ele>1183.55</ele>
        <time>2020-07-21T06:48:32.000Z</time>
      </trkpt>
      <trkpt lat="42.8975193" lon="-5.68812">
        <ele>1183.55</ele>
        <time>2020-07-21T06:48:33.000Z</time>
      </trkpt>
      <trkpt lat="42.8975292" lon="-5.688116">
        <ele>1183.7</ele>
        <time>2020-07-21T06:48:34.000Z</time>
      </trkpt>
      <trkpt lat="42.89754" lon="-5.6881113">
        <ele>1183.7</ele>
        <time>2020-07-21T06:48:35.000Z</time>
      </trkpt>
      <trkpt lat="42.8975507" lon="-5.6881078">
        <ele>1184.01</ele>
        <time>2020-07-21T06:48:36.000Z</time>
      </trkpt>
      <trkpt lat="42.8975603" lon="-5.688105">
        <ele>1184.01</ele>
        <time>2020-07-21T06:48:37.000Z</time>
      </trkpt>
      <trkpt lat="42.8975697" lon="-5.6881043">
        <ele>1184.31</ele>
        <time>2020-07-21T06:48:38.000Z</time>
      </trkpt>
      <trkpt lat="42.8975792" lon="-5.6881052">
        <ele>1184.31</ele>
        <time>2020-07-21T06:48:39.000Z</time>
      </trkpt>
      <trkpt lat="42.8975898" lon="-5.6881075">
        <ele>1184.62</ele>
        <time>2020-07-21T06:48:40.000Z</time>
      </trkpt>
      <trkpt lat="42.897599" lon="-5.6881097">
        <ele>1184.62</ele>
        <time>2020-07-21T06:48:41.000Z</time>
      </trkpt>
      <trkpt lat="42.897607" lon="-5.6881123">
        <ele>1184.92</ele>
        <time>2020-07-21T06:48:42.000Z</time>
      </trkpt>
      <trkpt lat="42.8976137" lon="-5.6881173">
        <ele>1184.92</ele>
        <time>2020-07-21T06:48:43.000Z</time>
      </trkpt>
      <trkpt lat="42.8976217" lon="-5.6881238">
        <ele>1185.08</ele>
        <time>2020-07-21T06:48:44.000Z</time>
      </trkpt>
      <trkpt lat="42.8976307" lon="-5.6881333">
        <ele>1185.08</ele>
        <time>2020-07-21T06:48:45.000Z</time>
      </trkpt>
      <trkpt lat="42.8976387" lon="-5.6881437">
        <ele>1185.38</ele>
        <time>2020-07-21T06:48:46.000Z</time>
      </trkpt>
      <trkpt lat="42.8976445" lon="-5.6881547">
        <ele>1185.38</ele>
        <time>2020-07-21T06:48:47.000Z</time>
      </trkpt>
      <trkpt lat="42.8976505" lon="-5.688165">
        <ele>1185.69</ele>
        <time>2020-07-21T06:48:48.000Z</time>
      </trkpt>
      <trkpt lat="42.8976578" lon="-5.6881745">
        <ele>1185.69</ele>
        <time>2020-07-21T06:48:49.000Z</time>
      </trkpt>
      <trkpt lat="42.8976662" lon="-5.6881843">
        <ele>1185.99</ele>
        <time>2020-07-21T06:48:50.000Z</time>
      </trkpt>
      <trkpt lat="42.8976745" lon="-5.6881935">
        <ele>1185.99</ele>
        <time>2020-07-21T06:48:51.000Z</time>
      </trkpt>
      <trkpt lat="42.8976838" lon="-5.6882023">
        <ele>1186.3</ele>
        <time>2020-07-21T06:48:52.000Z</time>
      </trkpt>
      <trkpt lat="42.8976942" lon="-5.68821">
        <ele>1186.3</ele>
        <time>2020-07-21T06:48:53.000Z</time>
      </trkpt>
      <trkpt lat="42.8977053" lon="-5.6882167">
        <ele>1186.6</ele>
        <time>2020-07-21T06:48:54.000Z</time>
      </trkpt>
      <trkpt lat="42.8977158" lon="-5.688223">
        <ele>1186.6</ele>
        <time>2020-07-21T06:48:55.000Z</time>
      </trkpt>
      <trkpt lat="42.8977258" lon="-5.6882293">
        <ele>1186.91</ele>
        <time>2020-07-21T06:48:56.000Z</time>
      </trkpt>
      <trkpt lat="42.8977353" lon="-5.6882362">
        <ele>1186.91</ele>
        <time>2020-07-21T06:48:57.000Z</time>
      </trkpt>
      <trkpt lat="42.8977452" lon="-5.6882442">
        <ele>1187.21</ele>
        <time>2020-07-21T06:48:58.000Z</time>
      </trkpt>
      <trkpt lat="42.8977557" lon="-5.6882532">
        <ele>1187.21</ele>
        <time>2020-07-21T06:48:59.000Z</time>
      </trkpt>
      <trkpt lat="42.8977657" lon="-5.6882635">
        <ele>1187.67</ele>
        <time>2020-07-21T06:49:00.000Z</time>
      </trkpt>
      <trkpt lat="42.8977747" lon="-5.6882755">
        <ele>1187.67</ele>
        <time>2020-07-21T06:49:01.000Z</time>
      </trkpt>
      <trkpt lat="42.897783" lon="-5.6882877">
        <ele>1187.97</ele>
        <time>2020-07-21T06:49:02.000Z</time>
      </trkpt>
      <trkpt lat="42.8977918" lon="-5.6882998">
        <ele>1187.97</ele>
        <time>2020-07-21T06:49:03.000Z</time>
      </trkpt>
      <trkpt lat="42.8978007" lon="-5.6883123">
        <ele>1188.28</ele>
        <time>2020-07-21T06:49:04.000Z</time>
      </trkpt>
      <trkpt lat="42.8978095" lon="-5.6883257">
        <ele>1188.28</ele>
        <time>2020-07-21T06:49:05.000Z</time>
      </trkpt>
      <trkpt lat="42.8978165" lon="-5.6883402">
        <ele>1188.43</ele>
        <time>2020-07-21T06:49:06.000Z</time>
      </trkpt>
      <trkpt lat="42.8978217" lon="-5.6883558">
        <ele>1188.43</ele>
        <time>2020-07-21T06:49:07.000Z</time>
      </trkpt>
      <trkpt lat="42.8978258" lon="-5.6883725">
        <ele>1188.73</ele>
        <time>2020-07-21T06:49:08.000Z</time>
      </trkpt>
      <trkpt lat="42.8978303" lon="-5.6883885">
        <ele>1188.73</ele>
        <time>2020-07-21T06:49:09.000Z</time>
      </trkpt>
      <trkpt lat="42.8978352" lon="-5.688404">
        <ele>1188.89</ele>
        <time>2020-07-21T06:49:10.000Z</time>
      </trkpt>
      <trkpt lat="42.8978393" lon="-5.6884187">
        <ele>1188.89</ele>
        <time>2020-07-21T06:49:11.000Z</time>
      </trkpt>
      <trkpt lat="42.897844" lon="-5.688433">
        <ele>1189.19</ele>
        <time>2020-07-21T06:49:12.000Z</time>
      </trkpt>
      <trkpt lat="42.8978483" lon="-5.6884477">
        <ele>1189.19</ele>
        <time>2020-07-21T06:49:13.000Z</time>
      </trkpt>
      <trkpt lat="42.8978515" lon="-5.6884645">
        <ele>1189.34</ele>
        <time>2020-07-21T06:49:14.000Z</time>
      </trkpt>
      <trkpt lat="42.8978538" lon="-5.6884813">
        <ele>1189.34</ele>
        <time>2020-07-21T06:49:15.000Z</time>
      </trkpt>
      <trkpt lat="42.897856" lon="-5.6884968">
        <ele>1189.5</ele>
        <time>2020-07-21T06:49:16.000Z</time>
      </trkpt>
      <trkpt lat="42.8978582" lon="-5.6885097">
        <ele>1189.5</ele>
        <time>2020-07-21T06:49:17.000Z</time>
      </trkpt>
      <trkpt lat="42.8978592" lon="-5.688523">
        <ele>1189.65</ele>
        <time>2020-07-21T06:49:18.000Z</time>
      </trkpt>
      <trkpt lat="42.897859" lon="-5.6885373">
        <ele>1189.65</ele>
        <time>2020-07-21T06:49:19.000Z</time>
      </trkpt>
      <trkpt lat="42.897859" lon="-5.6885523">
        <ele>1189.95</ele>
        <time>2020-07-21T06:49:20.000Z</time>
      </trkpt>
      <trkpt lat="42.8978588" lon="-5.6885675">
        <ele>1189.95</ele>
        <time>2020-07-21T06:49:21.000Z</time>
      </trkpt>
      <trkpt lat="42.8978595" lon="-5.6885828">
        <ele>1190.11</ele>
        <time>2020-07-21T06:49:22.000Z</time>
      </trkpt>
      <trkpt lat="42.8978613" lon="-5.6885977">
        <ele>1190.11</ele>
        <time>2020-07-21T06:49:23.000Z</time>
      </trkpt>
      <trkpt lat="42.897864" lon="-5.6886125">
        <ele>1190.26</ele>
        <time>2020-07-21T06:49:24.000Z</time>
      </trkpt>
      <trkpt lat="42.8978672" lon="-5.6886278">
        <ele>1190.26</ele>
        <time>2020-07-21T06:49:25.000Z</time>
      </trkpt>
      <trkpt lat="42.8978685" lon="-5.688646">
        <ele>1190.56</ele>
        <time>2020-07-21T06:49:26.000Z</time>
      </trkpt>
      <trkpt lat="42.8978693" lon="-5.6886643">
        <ele>1190.56</ele>
        <time>2020-07-21T06:49:27.000Z</time>
      </trkpt>
      <trkpt lat="42.8978697" lon="-5.6886822">
        <ele>1190.72</ele>
        <time>2020-07-21T06:49:28.000Z</time>
      </trkpt>
      <trkpt lat="42.8978715" lon="-5.688697">
        <ele>1190.72</ele>
        <time>2020-07-21T06:49:29.000Z</time>
      </trkpt>
      <trkpt lat="42.8978738" lon="-5.6887112">
        <ele>1190.87</ele>
        <time>2020-07-21T06:49:30.000Z</time>
      </trkpt>
      <trkpt lat="42.8978763" lon="-5.6887263">
        <ele>1190.87</ele>
        <time>2020-07-21T06:49:31.000Z</time>
      </trkpt>
      <trkpt lat="42.897878" lon="-5.6887433">
        <ele>1191.17</ele>
        <time>2020-07-21T06:49:32.000Z</time>
      </trkpt>
      <trkpt lat="42.8978797" lon="-5.6887608">
        <ele>1191.17</ele>
        <time>2020-07-21T06:49:33.000Z</time>
      </trkpt>
      <trkpt lat="42.8978815" lon="-5.6887775">
        <ele>1191.32</ele>
        <time>2020-07-21T06:49:34.000Z</time>
      </trkpt>
      <trkpt lat="42.8978843" lon="-5.6887933">
        <ele>1191.32</ele>
        <time>2020-07-21T06:49:35.000Z</time>
      </trkpt>
      <trkpt lat="42.8978862" lon="-5.688809">
        <ele>1191.63</ele>
        <time>2020-07-21T06:49:36.000Z</time>
      </trkpt>
      <trkpt lat="42.8978867" lon="-5.6888242">
        <ele>1191.63</ele>
        <time>2020-07-21T06:49:37.000Z</time>
      </trkpt>
      <trkpt lat="42.8978863" lon="-5.6888403">
        <ele>1191.78</ele>
        <time>2020-07-21T06:49:38.000Z</time>
      </trkpt>
      <trkpt lat="42.8978882" lon="-5.6888563">
        <ele>1191.78</ele>
        <time>2020-07-21T06:49:39.000Z</time>
      </trkpt>
      <trkpt lat="42.8978918" lon="-5.6888723">
        <ele>1192.09</ele>
        <time>2020-07-21T06:49:40.000Z</time>
      </trkpt>
      <trkpt lat="42.897896" lon="-5.6888885">
        <ele>1192.09</ele>
        <time>2020-07-21T06:49:41.000Z</time>
      </trkpt>
      <trkpt lat="42.8978997" lon="-5.6889037">
        <ele>1192.24</ele>
        <time>2020-07-21T06:49:42.000Z</time>
      </trkpt>
      <trkpt lat="42.8979028" lon="-5.6889187">
        <ele>1192.24</ele>
        <time>2020-07-21T06:49:43.000Z</time>
      </trkpt>
      <trkpt lat="42.8979058" lon="-5.6889335">
        <ele>1192.54</ele>
        <time>2020-07-21T06:49:44.000Z</time>
      </trkpt>
      <trkpt lat="42.8979093" lon="-5.6889487">
        <ele>1192.54</ele>
        <time>2020-07-21T06:49:45.000Z</time>
      </trkpt>
      <trkpt lat="42.8979127" lon="-5.688964">
        <ele>1192.7</ele>
        <time>2020-07-21T06:49:46.000Z</time>
      </trkpt>
      <trkpt lat="42.8979157" lon="-5.6889797">
        <ele>1192.7</ele>
        <time>2020-07-21T06:49:47.000Z</time>
      </trkpt>
      <trkpt lat="42.8979178" lon="-5.6889957">
        <ele>1193</ele>
        <time>2020-07-21T06:49:48.000Z</time>
      </trkpt>
      <trkpt lat="42.8979192" lon="-5.6890123">
        <ele>1193</ele>
        <time>2020-07-21T06:49:49.000Z</time>
      </trkpt>
      <trkpt lat="42.8979198" lon="-5.6890288">
        <ele>1193.31</ele>
        <time>2020-07-21T06:49:50.000Z</time>
      </trkpt>
      <trkpt lat="42.8979205" lon="-5.6890448">
        <ele>1193.31</ele>
        <time>2020-07-21T06:49:51.000Z</time>
      </trkpt>
      <trkpt lat="42.8979223" lon="-5.6890588">
        <ele>1193.46</ele>
        <time>2020-07-21T06:49:52.000Z</time>
      </trkpt>
      <trkpt lat="42.8979257" lon="-5.689071">
        <ele>1193.46</ele>
        <time>2020-07-21T06:49:53.000Z</time>
      </trkpt>
      <trkpt lat="42.8979288" lon="-5.6890823">
        <ele>1193.76</ele>
        <time>2020-07-21T06:49:54.000Z</time>
      </trkpt>
      <trkpt lat="42.8979325" lon="-5.6890935">
        <ele>1193.76</ele>
        <time>2020-07-21T06:49:55.000Z</time>
      </trkpt>
      <trkpt lat="42.897937" lon="-5.6891048">
        <ele>1194.07</ele>
        <time>2020-07-21T06:49:56.000Z</time>
      </trkpt>
      <trkpt lat="42.8979433" lon="-5.6891152">
        <ele>1194.07</ele>
        <time>2020-07-21T06:49:57.000Z</time>
      </trkpt>
      <trkpt lat="42.897952" lon="-5.6891232">
        <ele>1194.37</ele>
        <time>2020-07-21T06:49:58.000Z</time>
      </trkpt>
      <trkpt lat="42.8979612" lon="-5.689129">
        <ele>1194.37</ele>
        <time>2020-07-21T06:49:59.000Z</time>
      </trkpt>
      <trkpt lat="42.8979697" lon="-5.6891338">
        <ele>1194.53</ele>
        <time>2020-07-21T06:50:00.000Z</time>
      </trkpt>
      <trkpt lat="42.8979755" lon="-5.689141">
        <ele>1194.53</ele>
        <time>2020-07-21T06:50:01.000Z</time>
      </trkpt>
      <trkpt lat="42.897981" lon="-5.6891477">
        <ele>1194.83</ele>
        <time>2020-07-21T06:50:02.000Z</time>
      </trkpt>
      <trkpt lat="42.8979883" lon="-5.6891522">
        <ele>1194.83</ele>
        <time>2020-07-21T06:50:03.000Z</time>
      </trkpt>
      <trkpt lat="42.8979972" lon="-5.6891532">
        <ele>1195.14</ele>
        <time>2020-07-21T06:50:04.000Z</time>
      </trkpt>
      <trkpt lat="42.8980072" lon="-5.689153">
        <ele>1195.14</ele>
        <time>2020-07-21T06:50:05.000Z</time>
      </trkpt>
      <trkpt lat="42.8980168" lon="-5.689153">
        <ele>1195.44</ele>
        <time>2020-07-21T06:50:06.000Z</time>
      </trkpt>
      <trkpt lat="42.898026" lon="-5.6891512">
        <ele>1195.44</ele>
        <time>2020-07-21T06:50:07.000Z</time>
      </trkpt>
      <trkpt lat="42.8980353" lon="-5.6891475">
        <ele>1195.59</ele>
        <time>2020-07-21T06:50:08.000Z</time>
      </trkpt>
      <trkpt lat="42.898045" lon="-5.6891422">
        <ele>1195.59</ele>
        <time>2020-07-21T06:50:09.000Z</time>
      </trkpt>
      <trkpt lat="42.8980555" lon="-5.689137">
        <ele>1195.9</ele>
        <time>2020-07-21T06:50:10.000Z</time>
      </trkpt>
      <trkpt lat="42.8980657" lon="-5.6891327">
        <ele>1195.9</ele>
        <time>2020-07-21T06:50:11.000Z</time>
      </trkpt>
      <trkpt lat="42.8980755" lon="-5.6891293">
        <ele>1196.2</ele>
        <time>2020-07-21T06:50:12.000Z</time>
      </trkpt>
      <trkpt lat="42.8980853" lon="-5.6891263">
        <ele>1196.2</ele>
        <time>2020-07-21T06:50:13.000Z</time>
      </trkpt>
      <trkpt lat="42.8980952" lon="-5.689124">
        <ele>1196.51</ele>
        <time>2020-07-21T06:50:14.000Z</time>
      </trkpt>
      <trkpt lat="42.898105" lon="-5.6891223">
        <ele>1196.51</ele>
        <time>2020-07-21T06:50:15.000Z</time>
      </trkpt>
      <trkpt lat="42.8981145" lon="-5.6891208">
        <ele>1196.81</ele>
        <time>2020-07-21T06:50:16.000Z</time>
      </trkpt>
      <trkpt lat="42.8981238" lon="-5.6891197">
        <ele>1196.81</ele>
        <time>2020-07-21T06:50:17.000Z</time>
      </trkpt>
      <trkpt lat="42.8981325" lon="-5.6891193">
        <ele>1197.12</ele>
        <time>2020-07-21T06:50:18.000Z</time>
      </trkpt>
      <trkpt lat="42.8981407" lon="-5.6891207">
        <ele>1197.12</ele>
        <time>2020-07-21T06:50:19.000Z</time>
      </trkpt>
      <trkpt lat="42.8981485" lon="-5.6891212">
        <ele>1197.42</ele>
        <time>2020-07-21T06:50:20.000Z</time>
      </trkpt>
      <trkpt lat="42.8981568" lon="-5.6891195">
        <ele>1197.42</ele>
        <time>2020-07-21T06:50:21.000Z</time>
      </trkpt>
      <trkpt lat="42.8981662" lon="-5.6891162">
        <ele>1197.73</ele>
        <time>2020-07-21T06:50:22.000Z</time>
      </trkpt>
      <trkpt lat="42.8981762" lon="-5.6891135">
        <ele>1197.73</ele>
        <time>2020-07-21T06:50:23.000Z</time>
      </trkpt>
      <trkpt lat="42.898186" lon="-5.6891115">
        <ele>1197.88</ele>
        <time>2020-07-21T06:50:24.000Z</time>
      </trkpt>
      <trkpt lat="42.898192" lon="-5.6891113">
        <ele>1197.88</ele>
        <time>2020-07-21T06:50:25.000Z</time>
      </trkpt>
      <trkpt lat="42.8981957" lon="-5.6891105">
        <ele>1198.18</ele>
        <time>2020-07-21T06:50:26.000Z</time>
      </trkpt>
      <trkpt lat="42.8981965" lon="-5.689111">
        <ele>1198.18</ele>
        <time>2020-07-21T06:50:27.000Z</time>
      </trkpt>
      <trkpt lat="42.8981975" lon="-5.6891103">
        <ele>1198.49</ele>
        <time>2020-07-21T06:50:28.000Z</time>
      </trkpt>
      <trkpt lat="42.8981975" lon="-5.6891103">
        <ele>1198.49</ele>
        <time>2020-07-21T06:50:29.000Z</time>
      </trkpt>
      <trkpt lat="42.8981973" lon="-5.6891102">
        <ele>1198.79</ele>
        <time>2020-07-21T06:50:30.000Z</time>
      </trkpt>
      <trkpt lat="42.8981973" lon="-5.68911">
        <ele>1198.79</ele>
        <time>2020-07-21T06:50:31.000Z</time>
      </trkpt>
      <trkpt lat="42.8981973" lon="-5.6891102">
        <ele>1199.1</ele>
        <time>2020-07-21T06:50:32.000Z</time>
      </trkpt>
      <trkpt lat="42.8981973" lon="-5.6891105">
        <ele>1199.1</ele>
        <time>2020-07-21T06:50:33.000Z</time>
      </trkpt>
      <trkpt lat="42.8981978" lon="-5.689111">
        <ele>1199.25</ele>
        <time>2020-07-21T06:50:34.000Z</time>
      </trkpt>
      <trkpt lat="42.8981988" lon="-5.6891117">
        <ele>1199.25</ele>
        <time>2020-07-21T06:50:35.000Z</time>
      </trkpt>
      <trkpt lat="42.8982005" lon="-5.689112">
        <ele>1199.56</ele>
        <time>2020-07-21T06:50:36.000Z</time>
      </trkpt>
      <trkpt lat="42.8982027" lon="-5.6891122">
        <ele>1199.56</ele>
        <time>2020-07-21T06:50:37.000Z</time>
      </trkpt>
      <trkpt lat="42.8982055" lon="-5.6891122">
        <ele>1199.86</ele>
        <time>2020-07-21T06:50:38.000Z</time>
      </trkpt>
      <trkpt lat="42.8982078" lon="-5.689112">
        <ele>1199.86</ele>
        <time>2020-07-21T06:50:39.000Z</time>
      </trkpt>
      <trkpt lat="42.8982105" lon="-5.6891107">
        <ele>1200.17</ele>
        <time>2020-07-21T06:50:40.000Z</time>
      </trkpt>
      <trkpt lat="42.8982122" lon="-5.6891105">
        <ele>1200.17</ele>
        <time>2020-07-21T06:50:41.000Z</time>
      </trkpt>
      <trkpt lat="42.8982128" lon="-5.6891103">
        <ele>1200.47</ele>
        <time>2020-07-21T06:50:42.000Z</time>
      </trkpt>
      <trkpt lat="42.8982155" lon="-5.6891125">
        <ele>1200.47</ele>
        <time>2020-07-21T06:50:43.000Z</time>
      </trkpt>
      <trkpt lat="42.8982207" lon="-5.6891138">
        <ele>1200.77</ele>
        <time>2020-07-21T06:50:44.000Z</time>
      </trkpt>
      <trkpt lat="42.8982302" lon="-5.6891143">
        <ele>1200.77</ele>
        <time>2020-07-21T06:50:45.000Z</time>
      </trkpt>
      <trkpt lat="42.8982403" lon="-5.6891145">
        <ele>1201.08</ele>
        <time>2020-07-21T06:50:46.000Z</time>
      </trkpt>
      <trkpt lat="42.8982518" lon="-5.6891153">
        <ele>1201.08</ele>
        <time>2020-07-21T06:50:47.000Z</time>
      </trkpt>
      <trkpt lat="42.898263" lon="-5.689118">
        <ele>1201.38</ele>
        <time>2020-07-21T06:50:48.000Z</time>
      </trkpt>
      <trkpt lat="42.8982747" lon="-5.6891202">
        <ele>1201.38</ele>
        <time>2020-07-21T06:50:49.000Z</time>
      </trkpt>
      <trkpt lat="42.898286" lon="-5.6891215">
        <ele>1201.69</ele>
        <time>2020-07-21T06:50:50.000Z</time>
      </trkpt>
      <trkpt lat="42.8982972" lon="-5.6891228">
        <ele>1201.69</ele>
        <time>2020-07-21T06:50:51.000Z</time>
      </trkpt>
      <trkpt lat="42.8983075" lon="-5.689125">
        <ele>1201.84</ele>
        <time>2020-07-21T06:50:52.000Z</time>
      </trkpt>
      <trkpt lat="42.8983182" lon="-5.689128">
        <ele>1201.84</ele>
        <time>2020-07-21T06:50:53.000Z</time>
      </trkpt>
      <trkpt lat="42.8983288" lon="-5.6891307">
        <ele>1202.15</ele>
        <time>2020-07-21T06:50:54.000Z</time>
      </trkpt>
      <trkpt lat="42.8983405" lon="-5.689133">
        <ele>1202.15</ele>
        <time>2020-07-21T06:50:55.000Z</time>
      </trkpt>
      <trkpt lat="42.898352" lon="-5.6891363">
        <ele>1202.45</ele>
        <time>2020-07-21T06:50:56.000Z</time>
      </trkpt>
      <trkpt lat="42.8983635" lon="-5.6891405">
        <ele>1202.45</ele>
        <time>2020-07-21T06:50:57.000Z</time>
      </trkpt>
      <trkpt lat="42.8983745" lon="-5.6891457">
        <ele>1202.76</ele>
        <time>2020-07-21T06:50:58.000Z</time>
      </trkpt>
      <trkpt lat="42.8983858" lon="-5.6891502">
        <ele>1202.76</ele>
        <time>2020-07-21T06:50:59.000Z</time>
      </trkpt>
      <trkpt lat="42.8983973" lon="-5.6891543">
        <ele>1203.06</ele>
        <time>2020-07-21T06:51:00.000Z</time>
      </trkpt>
      <trkpt lat="42.898409" lon="-5.689158">
        <ele>1203.06</ele>
        <time>2020-07-21T06:51:01.000Z</time>
      </trkpt>
      <trkpt lat="42.8984208" lon="-5.6891617">
        <ele>1203.36</ele>
        <time>2020-07-21T06:51:02.000Z</time>
      </trkpt>
      <trkpt lat="42.898433" lon="-5.6891657">
        <ele>1203.36</ele>
        <time>2020-07-21T06:51:03.000Z</time>
      </trkpt>
      <trkpt lat="42.898445" lon="-5.6891702">
        <ele>1203.67</ele>
        <time>2020-07-21T06:51:04.000Z</time>
      </trkpt>
      <trkpt lat="42.8984568" lon="-5.6891755">
        <ele>1203.67</ele>
        <time>2020-07-21T06:51:05.000Z</time>
      </trkpt>
      <trkpt lat="42.8984685" lon="-5.6891813">
        <ele>1203.97</ele>
        <time>2020-07-21T06:51:06.000Z</time>
      </trkpt>
      <trkpt lat="42.8984802" lon="-5.6891873">
        <ele>1203.97</ele>
        <time>2020-07-21T06:51:07.000Z</time>
      </trkpt>
      <trkpt lat="42.8984913" lon="-5.6891935">
        <ele>1204.28</ele>
        <time>2020-07-21T06:51:08.000Z</time>
      </trkpt>
      <trkpt lat="42.8985023" lon="-5.6891993">
        <ele>1204.28</ele>
        <time>2020-07-21T06:51:09.000Z</time>
      </trkpt>
      <trkpt lat="42.8985127" lon="-5.6892048">
        <ele>1204.58</ele>
        <time>2020-07-21T06:51:10.000Z</time>
      </trkpt>
      <trkpt lat="42.8985232" lon="-5.6892107">
        <ele>1204.58</ele>
        <time>2020-07-21T06:51:11.000Z</time>
      </trkpt>
      <trkpt lat="42.8985333" lon="-5.6892172">
        <ele>1204.89</ele>
        <time>2020-07-21T06:51:12.000Z</time>
      </trkpt>
      <trkpt lat="42.8985437" lon="-5.6892247">
        <ele>1204.89</ele>
        <time>2020-07-21T06:51:13.000Z</time>
      </trkpt>
      <trkpt lat="42.8985542" lon="-5.6892323">
        <ele>1205.19</ele>
        <time>2020-07-21T06:51:14.000Z</time>
      </trkpt>
      <trkpt lat="42.8985645" lon="-5.6892397">
        <ele>1205.19</ele>
        <time>2020-07-21T06:51:15.000Z</time>
      </trkpt>
      <trkpt lat="42.8985748" lon="-5.6892468">
        <ele>1205.65</ele>
        <time>2020-07-21T06:51:16.000Z</time>
      </trkpt>
      <trkpt lat="42.8985852" lon="-5.6892538">
        <ele>1205.65</ele>
        <time>2020-07-21T06:51:17.000Z</time>
      </trkpt>
      <trkpt lat="42.8985957" lon="-5.6892613">
        <ele>1205.96</ele>
        <time>2020-07-21T06:51:18.000Z</time>
      </trkpt>
      <trkpt lat="42.898606" lon="-5.689269">
        <ele>1205.96</ele>
        <time>2020-07-21T06:51:19.000Z</time>
      </trkpt>
      <trkpt lat="42.898615" lon="-5.689277">
        <ele>1206.26</ele>
        <time>2020-07-21T06:51:20.000Z</time>
      </trkpt>
      <trkpt lat="42.8986242" lon="-5.689285">
        <ele>1206.26</ele>
        <time>2020-07-21T06:51:21.000Z</time>
      </trkpt>
      <trkpt lat="42.8986333" lon="-5.6892928">
        <ele>1206.56</ele>
        <time>2020-07-21T06:51:22.000Z</time>
      </trkpt>
      <trkpt lat="42.8986437" lon="-5.6893">
        <ele>1206.56</ele>
        <time>2020-07-21T06:51:23.000Z</time>
      </trkpt>
      <trkpt lat="42.8986535" lon="-5.6893073">
        <ele>1206.87</ele>
        <time>2020-07-21T06:51:24.000Z</time>
      </trkpt>
      <trkpt lat="42.8986632" lon="-5.6893142">
        <ele>1206.87</ele>
        <time>2020-07-21T06:51:25.000Z</time>
      </trkpt>
      <trkpt lat="42.898672" lon="-5.6893218">
        <ele>1207.18</ele>
        <time>2020-07-21T06:51:26.000Z</time>
      </trkpt>
      <trkpt lat="42.8986802" lon="-5.6893307">
        <ele>1207.18</ele>
        <time>2020-07-21T06:51:27.000Z</time>
      </trkpt>
      <trkpt lat="42.898688" lon="-5.6893408">
        <ele>1207.48</ele>
        <time>2020-07-21T06:51:28.000Z</time>
      </trkpt>
      <trkpt lat="42.8986963" lon="-5.6893507">
        <ele>1207.48</ele>
        <time>2020-07-21T06:51:29.000Z</time>
      </trkpt>
      <trkpt lat="42.8987055" lon="-5.68936">
        <ele>1207.94</ele>
        <time>2020-07-21T06:51:30.000Z</time>
      </trkpt>
      <trkpt lat="42.8987157" lon="-5.6893685">
        <ele>1207.94</ele>
        <time>2020-07-21T06:51:31.000Z</time>
      </trkpt>
      <trkpt lat="42.8987255" lon="-5.6893768">
        <ele>1208.24</ele>
        <time>2020-07-21T06:51:32.000Z</time>
      </trkpt>
      <trkpt lat="42.8987352" lon="-5.6893862">
        <ele>1208.24</ele>
        <time>2020-07-21T06:51:33.000Z</time>
      </trkpt>
      <trkpt lat="42.8987437" lon="-5.6893967">
        <ele>1208.55</ele>
        <time>2020-07-21T06:51:34.000Z</time>
      </trkpt>
      <trkpt lat="42.8987523" lon="-5.6894078">
        <ele>1208.55</ele>
        <time>2020-07-21T06:51:35.000Z</time>
      </trkpt>
      <trkpt lat="42.8987608" lon="-5.6894183">
        <ele>1208.85</ele>
        <time>2020-07-21T06:51:36.000Z</time>
      </trkpt>
      <trkpt lat="42.8987698" lon="-5.6894277">
        <ele>1208.85</ele>
        <time>2020-07-21T06:51:37.000Z</time>
      </trkpt>
      <trkpt lat="42.898779" lon="-5.6894363">
        <ele>1209.16</ele>
        <time>2020-07-21T06:51:38.000Z</time>
      </trkpt>
      <trkpt lat="42.8987878" lon="-5.6894448">
        <ele>1209.16</ele>
        <time>2020-07-21T06:51:39.000Z</time>
      </trkpt>
      <trkpt lat="42.8987972" lon="-5.6894535">
        <ele>1209.46</ele>
        <time>2020-07-21T06:51:40.000Z</time>
      </trkpt>
      <trkpt lat="42.8988062" lon="-5.6894625">
        <ele>1209.46</ele>
        <time>2020-07-21T06:51:41.000Z</time>
      </trkpt>
      <trkpt lat="42.898815" lon="-5.6894722">
        <ele>1209.77</ele>
        <time>2020-07-21T06:51:42.000Z</time>
      </trkpt>
      <trkpt lat="42.8988233" lon="-5.6894815">
        <ele>1209.77</ele>
        <time>2020-07-21T06:51:43.000Z</time>
      </trkpt>
      <trkpt lat="42.898833" lon="-5.689491">
        <ele>1210.07</ele>
        <time>2020-07-21T06:51:44.000Z</time>
      </trkpt>
      <trkpt lat="42.8988428" lon="-5.6895007">
        <ele>1210.07</ele>
        <time>2020-07-21T06:51:45.000Z</time>
      </trkpt>
      <trkpt lat="42.8988528" lon="-5.6895107">
        <ele>1210.38</ele>
        <time>2020-07-21T06:51:46.000Z</time>
      </trkpt>
      <trkpt lat="42.8988617" lon="-5.6895205">
        <ele>1210.38</ele>
        <time>2020-07-21T06:51:47.000Z</time>
      </trkpt>
      <trkpt lat="42.8988712" lon="-5.6895297">
        <ele>1210.68</ele>
        <time>2020-07-21T06:51:48.000Z</time>
      </trkpt>
      <trkpt lat="42.8988812" lon="-5.6895393">
        <ele>1210.68</ele>
        <time>2020-07-21T06:51:49.000Z</time>
      </trkpt>
      <trkpt lat="42.8988912" lon="-5.6895488">
        <ele>1210.98</ele>
        <time>2020-07-21T06:51:50.000Z</time>
      </trkpt>
      <trkpt lat="42.8989003" lon="-5.6895595">
        <ele>1210.98</ele>
        <time>2020-07-21T06:51:51.000Z</time>
      </trkpt>
      <trkpt lat="42.8989097" lon="-5.6895693">
        <ele>1211.29</ele>
        <time>2020-07-21T06:51:52.000Z</time>
      </trkpt>
      <trkpt lat="42.8989197" lon="-5.6895775">
        <ele>1211.29</ele>
        <time>2020-07-21T06:51:53.000Z</time>
      </trkpt>
      <trkpt lat="42.8989303" lon="-5.689584">
        <ele>1211.59</ele>
        <time>2020-07-21T06:51:54.000Z</time>
      </trkpt>
      <trkpt lat="42.89894" lon="-5.6895902">
        <ele>1211.59</ele>
        <time>2020-07-21T06:51:55.000Z</time>
      </trkpt>
      <trkpt lat="42.8989488" lon="-5.6895973">
        <ele>1211.9</ele>
        <time>2020-07-21T06:51:56.000Z</time>
      </trkpt>
      <trkpt lat="42.8989572" lon="-5.6896038">
        <ele>1211.9</ele>
        <time>2020-07-21T06:51:57.000Z</time>
      </trkpt>
      <trkpt lat="42.898966" lon="-5.6896103">
        <ele>1212.2</ele>
        <time>2020-07-21T06:51:58.000Z</time>
      </trkpt>
      <trkpt lat="42.8989743" lon="-5.689617">
        <ele>1212.2</ele>
        <time>2020-07-21T06:51:59.000Z</time>
      </trkpt>
      <trkpt lat="42.8989832" lon="-5.6896247">
        <ele>1212.51</ele>
        <time>2020-07-21T06:52:00.000Z</time>
      </trkpt>
      <trkpt lat="42.898992" lon="-5.6896322">
        <ele>1212.51</ele>
        <time>2020-07-21T06:52:01.000Z</time>
      </trkpt>
      <trkpt lat="42.899001" lon="-5.6896393">
        <ele>1212.81</ele>
        <time>2020-07-21T06:52:02.000Z</time>
      </trkpt>
      <trkpt lat="42.8990098" lon="-5.6896482">
        <ele>1212.81</ele>
        <time>2020-07-21T06:52:03.000Z</time>
      </trkpt>
      <trkpt lat="42.899018" lon="-5.6896585">
        <ele>1213.12</ele>
        <time>2020-07-21T06:52:04.000Z</time>
      </trkpt>
      <trkpt lat="42.8990252" lon="-5.6896692">
        <ele>1213.12</ele>
        <time>2020-07-21T06:52:05.000Z</time>
      </trkpt>
      <trkpt lat="42.899032" lon="-5.6896782">
        <ele>1213.42</ele>
        <time>2020-07-21T06:52:06.000Z</time>
      </trkpt>
      <trkpt lat="42.8990393" lon="-5.6896858">
        <ele>1213.42</ele>
        <time>2020-07-21T06:52:07.000Z</time>
      </trkpt>
      <trkpt lat="42.8990478" lon="-5.6896935">
        <ele>1213.73</ele>
        <time>2020-07-21T06:52:08.000Z</time>
      </trkpt>
      <trkpt lat="42.899056" lon="-5.6897022">
        <ele>1213.73</ele>
        <time>2020-07-21T06:52:09.000Z</time>
      </trkpt>
      <trkpt lat="42.8990638" lon="-5.6897112">
        <ele>1214.03</ele>
        <time>2020-07-21T06:52:10.000Z</time>
      </trkpt>
      <trkpt lat="42.899071" lon="-5.6897207">
        <ele>1214.03</ele>
        <time>2020-07-21T06:52:11.000Z</time>
      </trkpt>
      <trkpt lat="42.8990785" lon="-5.6897297">
        <ele>1214.34</ele>
        <time>2020-07-21T06:52:12.000Z</time>
      </trkpt>
      <trkpt lat="42.899086" lon="-5.6897395">
        <ele>1214.34</ele>
        <time>2020-07-21T06:52:13.000Z</time>
      </trkpt>
      <trkpt lat="42.8990937" lon="-5.6897492">
        <ele>1214.64</ele>
        <time>2020-07-21T06:52:14.000Z</time>
      </trkpt>
      <trkpt lat="42.8991015" lon="-5.6897587">
        <ele>1214.64</ele>
        <time>2020-07-21T06:52:15.000Z</time>
      </trkpt>
      <trkpt lat="42.8991098" lon="-5.6897667">
        <ele>1214.95</ele>
        <time>2020-07-21T06:52:16.000Z</time>
      </trkpt>
      <trkpt lat="42.8991178" lon="-5.6897747">
        <ele>1214.95</ele>
        <time>2020-07-21T06:52:17.000Z</time>
      </trkpt>
      <trkpt lat="42.8991253" lon="-5.6897832">
        <ele>1215.25</ele>
        <time>2020-07-21T06:52:18.000Z</time>
      </trkpt>
      <trkpt lat="42.8991327" lon="-5.689793">
        <ele>1215.25</ele>
        <time>2020-07-21T06:52:19.000Z</time>
      </trkpt>
      <trkpt lat="42.8991405" lon="-5.6898025">
        <ele>1215.56</ele>
        <time>2020-07-21T06:52:20.000Z</time>
      </trkpt>
      <trkpt lat="42.8991488" lon="-5.6898123">
        <ele>1215.56</ele>
        <time>2020-07-21T06:52:21.000Z</time>
      </trkpt>
      <trkpt lat="42.8991568" lon="-5.6898217">
        <ele>1215.71</ele>
        <time>2020-07-21T06:52:22.000Z</time>
      </trkpt>
      <trkpt lat="42.8991647" lon="-5.6898317">
        <ele>1215.71</ele>
        <time>2020-07-21T06:52:23.000Z</time>
      </trkpt>
      <trkpt lat="42.8991717" lon="-5.689842">
        <ele>1216.01</ele>
        <time>2020-07-21T06:52:24.000Z</time>
      </trkpt>
      <trkpt lat="42.8991788" lon="-5.6898525">
        <ele>1216.01</ele>
        <time>2020-07-21T06:52:25.000Z</time>
      </trkpt>
      <trkpt lat="42.8991862" lon="-5.6898628">
        <ele>1216.32</ele>
        <time>2020-07-21T06:52:26.000Z</time>
      </trkpt>
      <trkpt lat="42.8991937" lon="-5.6898732">
        <ele>1216.32</ele>
        <time>2020-07-21T06:52:27.000Z</time>
      </trkpt>
      <trkpt lat="42.8992007" lon="-5.6898837">
        <ele>1216.62</ele>
        <time>2020-07-21T06:52:28.000Z</time>
      </trkpt>
      <trkpt lat="42.8992078" lon="-5.6898942">
        <ele>1216.62</ele>
        <time>2020-07-21T06:52:29.000Z</time>
      </trkpt>
      <trkpt lat="42.899216" lon="-5.6899043">
        <ele>1216.93</ele>
        <time>2020-07-21T06:52:30.000Z</time>
      </trkpt>
      <trkpt lat="42.8992247" lon="-5.689914">
        <ele>1216.93</ele>
        <time>2020-07-21T06:52:31.000Z</time>
      </trkpt>
      <trkpt lat="42.8992332" lon="-5.6899235">
        <ele>1217.23</ele>
        <time>2020-07-21T06:52:32.000Z</time>
      </trkpt>
      <trkpt lat="42.8992405" lon="-5.6899327">
        <ele>1217.23</ele>
        <time>2020-07-21T06:52:33.000Z</time>
      </trkpt>
      <trkpt lat="42.8992472" lon="-5.6899425">
        <ele>1217.39</ele>
        <time>2020-07-21T06:52:34.000Z</time>
      </trkpt>
      <trkpt lat="42.8992537" lon="-5.6899522">
        <ele>1217.39</ele>
        <time>2020-07-21T06:52:35.000Z</time>
      </trkpt>
      <trkpt lat="42.899261" lon="-5.6899613">
        <ele>1217.69</ele>
        <time>2020-07-21T06:52:36.000Z</time>
      </trkpt>
      <trkpt lat="42.8992692" lon="-5.6899703">
        <ele>1217.69</ele>
        <time>2020-07-21T06:52:37.000Z</time>
      </trkpt>
      <trkpt lat="42.8992783" lon="-5.6899787">
        <ele>1218</ele>
        <time>2020-07-21T06:52:38.000Z</time>
      </trkpt>
      <trkpt lat="42.899286" lon="-5.6899867">
        <ele>1218</ele>
        <time>2020-07-21T06:52:39.000Z</time>
      </trkpt>
      <trkpt lat="42.8992937" lon="-5.689994">
        <ele>1218.15</ele>
        <time>2020-07-21T06:52:40.000Z</time>
      </trkpt>
      <trkpt lat="42.8993017" lon="-5.6900028">
        <ele>1218.15</ele>
        <time>2020-07-21T06:52:41.000Z</time>
      </trkpt>
      <trkpt lat="42.899311" lon="-5.6900113">
        <ele>1218.45</ele>
        <time>2020-07-21T06:52:42.000Z</time>
      </trkpt>
      <trkpt lat="42.89932" lon="-5.6900197">
        <ele>1218.45</ele>
        <time>2020-07-21T06:52:43.000Z</time>
      </trkpt>
      <trkpt lat="42.8993268" lon="-5.6900262">
        <ele>1218.76</ele>
        <time>2020-07-21T06:52:44.000Z</time>
      </trkpt>
      <trkpt lat="42.8993348" lon="-5.6900317">
        <ele>1218.76</ele>
        <time>2020-07-21T06:52:45.000Z</time>
      </trkpt>
      <trkpt lat="42.8993425" lon="-5.690037">
        <ele>1219.06</ele>
        <time>2020-07-21T06:52:46.000Z</time>
      </trkpt>
      <trkpt lat="42.8993518" lon="-5.6900413">
        <ele>1219.06</ele>
        <time>2020-07-21T06:52:47.000Z</time>
      </trkpt>
      <trkpt lat="42.8993613" lon="-5.690045">
        <ele>1219.21</ele>
        <time>2020-07-21T06:52:48.000Z</time>
      </trkpt>
      <trkpt lat="42.899372" lon="-5.6900473">
        <ele>1219.21</ele>
        <time>2020-07-21T06:52:49.000Z</time>
      </trkpt>
      <trkpt lat="42.8993825" lon="-5.6900493">
        <ele>1219.52</ele>
        <time>2020-07-21T06:52:50.000Z</time>
      </trkpt>
      <trkpt lat="42.899392" lon="-5.6900505">
        <ele>1219.52</ele>
        <time>2020-07-21T06:52:51.000Z</time>
      </trkpt>
      <trkpt lat="42.899402" lon="-5.6900505">
        <ele>1219.82</ele>
        <time>2020-07-21T06:52:52.000Z</time>
      </trkpt>
      <trkpt lat="42.8994118" lon="-5.6900487">
        <ele>1219.82</ele>
        <time>2020-07-21T06:52:53.000Z</time>
      </trkpt>
      <trkpt lat="42.899422" lon="-5.6900463">
        <ele>1220.13</ele>
        <time>2020-07-21T06:52:54.000Z</time>
      </trkpt>
      <trkpt lat="42.899431" lon="-5.6900448">
        <ele>1220.13</ele>
        <time>2020-07-21T06:52:55.000Z</time>
      </trkpt>
      <trkpt lat="42.8994402" lon="-5.6900437">
        <ele>1220.43</ele>
        <time>2020-07-21T06:52:56.000Z</time>
      </trkpt>
      <trkpt lat="42.89945" lon="-5.6900425">
        <ele>1220.43</ele>
        <time>2020-07-21T06:52:57.000Z</time>
      </trkpt>
      <trkpt lat="42.8994603" lon="-5.6900407">
        <ele>1220.74</ele>
        <time>2020-07-21T06:52:58.000Z</time>
      </trkpt>
      <trkpt lat="42.8994708" lon="-5.690038">
        <ele>1220.74</ele>
        <time>2020-07-21T06:52:59.000Z</time>
      </trkpt>
      <trkpt lat="42.8994805" lon="-5.690035">
        <ele>1221.04</ele>
        <time>2020-07-21T06:53:00.000Z</time>
      </trkpt>
      <trkpt lat="42.899491" lon="-5.6900312">
        <ele>1221.04</ele>
        <time>2020-07-21T06:53:01.000Z</time>
      </trkpt>
      <trkpt lat="42.8995013" lon="-5.6900285">
        <ele>1221.2</ele>
        <time>2020-07-21T06:53:02.000Z</time>
      </trkpt>
      <trkpt lat="42.8995123" lon="-5.690026">
        <ele>1221.2</ele>
        <time>2020-07-21T06:53:03.000Z</time>
      </trkpt>
      <trkpt lat="42.8995232" lon="-5.690023">
        <ele>1221.5</ele>
        <time>2020-07-21T06:53:04.000Z</time>
      </trkpt>
      <trkpt lat="42.899534" lon="-5.6900182">
        <ele>1221.5</ele>
        <time>2020-07-21T06:53:05.000Z</time>
      </trkpt>
      <trkpt lat="42.8995443" lon="-5.6900125">
        <ele>1221.65</ele>
        <time>2020-07-21T06:53:06.000Z</time>
      </trkpt>
      <trkpt lat="42.8995538" lon="-5.6900065">
        <ele>1221.65</ele>
        <time>2020-07-21T06:53:07.000Z</time>
      </trkpt>
      <trkpt lat="42.899563" lon="-5.6900005">
        <ele>1221.96</ele>
        <time>2020-07-21T06:53:08.000Z</time>
      </trkpt>
      <trkpt lat="42.899572" lon="-5.6899942">
        <ele>1221.96</ele>
        <time>2020-07-21T06:53:09.000Z</time>
      </trkpt>
      <trkpt lat="42.8995815" lon="-5.6899882">
        <ele>1222.11</ele>
        <time>2020-07-21T06:53:10.000Z</time>
      </trkpt>
      <trkpt lat="42.8995908" lon="-5.6899827">
        <ele>1222.11</ele>
        <time>2020-07-21T06:53:11.000Z</time>
      </trkpt>
      <trkpt lat="42.8996003" lon="-5.6899767">
        <ele>1222.42</ele>
        <time>2020-07-21T06:53:12.000Z</time>
      </trkpt>
      <trkpt lat="42.8996092" lon="-5.6899695">
        <ele>1222.42</ele>
        <time>2020-07-21T06:53:13.000Z</time>
      </trkpt>
      <trkpt lat="42.8996175" lon="-5.6899602">
        <ele>1222.72</ele>
        <time>2020-07-21T06:53:14.000Z</time>
      </trkpt>
      <trkpt lat="42.8996265" lon="-5.6899503">
        <ele>1222.72</ele>
        <time>2020-07-21T06:53:15.000Z</time>
      </trkpt>
      <trkpt lat="42.8996357" lon="-5.6899413">
        <ele>1222.87</ele>
        <time>2020-07-21T06:53:16.000Z</time>
      </trkpt>
      <trkpt lat="42.8996455" lon="-5.6899333">
        <ele>1222.87</ele>
        <time>2020-07-21T06:53:17.000Z</time>
      </trkpt>
      <trkpt lat="42.8996548" lon="-5.689925">
        <ele>1223.18</ele>
        <time>2020-07-21T06:53:18.000Z</time>
      </trkpt>
      <trkpt lat="42.8996633" lon="-5.6899148">
        <ele>1223.18</ele>
        <time>2020-07-21T06:53:19.000Z</time>
      </trkpt>
      <trkpt lat="42.8996715" lon="-5.6899038">
        <ele>1223.33</ele>
        <time>2020-07-21T06:53:20.000Z</time>
      </trkpt>
      <trkpt lat="42.8996788" lon="-5.6898923">
        <ele>1223.33</ele>
        <time>2020-07-21T06:53:21.000Z</time>
      </trkpt>
      <trkpt lat="42.8996868" lon="-5.6898813">
        <ele>1223.63</ele>
        <time>2020-07-21T06:53:22.000Z</time>
      </trkpt>
      <trkpt lat="42.8996947" lon="-5.6898703">
        <ele>1223.63</ele>
        <time>2020-07-21T06:53:23.000Z</time>
      </trkpt>
      <trkpt lat="42.8997032" lon="-5.6898593">
        <ele>1223.94</ele>
        <time>2020-07-21T06:53:24.000Z</time>
      </trkpt>
      <trkpt lat="42.8997118" lon="-5.6898488">
        <ele>1223.94</ele>
        <time>2020-07-21T06:53:25.000Z</time>
      </trkpt>
      <trkpt lat="42.8997202" lon="-5.689838">
        <ele>1224.09</ele>
        <time>2020-07-21T06:53:26.000Z</time>
      </trkpt>
      <trkpt lat="42.8997282" lon="-5.6898263">
        <ele>1224.09</ele>
        <time>2020-07-21T06:53:27.000Z</time>
      </trkpt>
      <trkpt lat="42.8997345" lon="-5.6898127">
        <ele>1224.4</ele>
        <time>2020-07-21T06:53:28.000Z</time>
      </trkpt>
      <trkpt lat="42.8997402" lon="-5.6897977">
        <ele>1224.4</ele>
        <time>2020-07-21T06:53:29.000Z</time>
      </trkpt>
      <trkpt lat="42.8997453" lon="-5.689783">
        <ele>1224.7</ele>
        <time>2020-07-21T06:53:30.000Z</time>
      </trkpt>
      <trkpt lat="42.8997527" lon="-5.6897703">
        <ele>1224.7</ele>
        <time>2020-07-21T06:53:31.000Z</time>
      </trkpt>
      <trkpt lat="42.8997607" lon="-5.6897588">
        <ele>1224.85</ele>
        <time>2020-07-21T06:53:32.000Z</time>
      </trkpt>
      <trkpt lat="42.8997687" lon="-5.6897472">
        <ele>1224.85</ele>
        <time>2020-07-21T06:53:33.000Z</time>
      </trkpt>
      <trkpt lat="42.8997755" lon="-5.689734">
        <ele>1225.16</ele>
        <time>2020-07-21T06:53:34.000Z</time>
      </trkpt>
      <trkpt lat="42.8997815" lon="-5.68972">
        <ele>1225.16</ele>
        <time>2020-07-21T06:53:35.000Z</time>
      </trkpt>
      <trkpt lat="42.8997873" lon="-5.6897058">
        <ele>1225.46</ele>
        <time>2020-07-21T06:53:36.000Z</time>
      </trkpt>
      <trkpt lat="42.8997937" lon="-5.6896918">
        <ele>1225.46</ele>
        <time>2020-07-21T06:53:37.000Z</time>
      </trkpt>
      <trkpt lat="42.8997988" lon="-5.6896777">
        <ele>1225.77</ele>
        <time>2020-07-21T06:53:38.000Z</time>
      </trkpt>
      <trkpt lat="42.8998042" lon="-5.689663">
        <ele>1225.77</ele>
        <time>2020-07-21T06:53:39.000Z</time>
      </trkpt>
      <trkpt lat="42.8998082" lon="-5.6896478">
        <ele>1226.07</ele>
        <time>2020-07-21T06:53:40.000Z</time>
      </trkpt>
      <trkpt lat="42.899813" lon="-5.6896323">
        <ele>1226.07</ele>
        <time>2020-07-21T06:53:41.000Z</time>
      </trkpt>
      <trkpt lat="42.899818" lon="-5.689617">
        <ele>1226.38</ele>
        <time>2020-07-21T06:53:42.000Z</time>
      </trkpt>
      <trkpt lat="42.8998235" lon="-5.6896017">
        <ele>1226.38</ele>
        <time>2020-07-21T06:53:43.000Z</time>
      </trkpt>
      <trkpt lat="42.8998285" lon="-5.6895868">
        <ele>1226.53</ele>
        <time>2020-07-21T06:53:44.000Z</time>
      </trkpt>
      <trkpt lat="42.8998337" lon="-5.689572">
        <ele>1226.53</ele>
        <time>2020-07-21T06:53:45.000Z</time>
      </trkpt>
      <trkpt lat="42.899839" lon="-5.689558">
        <ele>1226.83</ele>
        <time>2020-07-21T06:53:46.000Z</time>
      </trkpt>
      <trkpt lat="42.8998453" lon="-5.6895433">
        <ele>1226.83</ele>
        <time>2020-07-21T06:53:47.000Z</time>
      </trkpt>
      <trkpt lat="42.899851" lon="-5.6895288">
        <ele>1227.14</ele>
        <time>2020-07-21T06:53:48.000Z</time>
      </trkpt>
      <trkpt lat="42.8998567" lon="-5.689515">
        <ele>1227.14</ele>
        <time>2020-07-21T06:53:49.000Z</time>
      </trkpt>
      <trkpt lat="42.8998625" lon="-5.6895023">
        <ele>1227.44</ele>
        <time>2020-07-21T06:53:50.000Z</time>
      </trkpt>
      <trkpt lat="42.8998698" lon="-5.689489">
        <ele>1227.44</ele>
        <time>2020-07-21T06:53:51.000Z</time>
      </trkpt>
      <trkpt lat="42.8998772" lon="-5.6894742">
        <ele>1227.75</ele>
        <time>2020-07-21T06:53:52.000Z</time>
      </trkpt>
      <trkpt lat="42.8998848" lon="-5.6894583">
        <ele>1227.75</ele>
        <time>2020-07-21T06:53:53.000Z</time>
      </trkpt>
      <trkpt lat="42.8998912" lon="-5.6894433">
        <ele>1228.05</ele>
        <time>2020-07-21T06:53:54.000Z</time>
      </trkpt>
      <trkpt lat="42.8998975" lon="-5.6894285">
        <ele>1228.05</ele>
        <time>2020-07-21T06:53:55.000Z</time>
      </trkpt>
      <trkpt lat="42.8999032" lon="-5.6894142">
        <ele>1228.36</ele>
        <time>2020-07-21T06:53:56.000Z</time>
      </trkpt>
      <trkpt lat="42.8999097" lon="-5.6893993">
        <ele>1228.36</ele>
        <time>2020-07-21T06:53:57.000Z</time>
      </trkpt>
      <trkpt lat="42.899915" lon="-5.6893842">
        <ele>1228.66</ele>
        <time>2020-07-21T06:53:58.000Z</time>
      </trkpt>
      <trkpt lat="42.8999205" lon="-5.6893693">
        <ele>1228.66</ele>
        <time>2020-07-21T06:53:59.000Z</time>
      </trkpt>
      <trkpt lat="42.899926" lon="-5.6893547">
        <ele>1229.12</ele>
        <time>2020-07-21T06:54:00.000Z</time>
      </trkpt>
      <trkpt lat="42.8999315" lon="-5.6893407">
        <ele>1229.12</ele>
        <time>2020-07-21T06:54:01.000Z</time>
      </trkpt>
      <trkpt lat="42.8999377" lon="-5.6893258">
        <ele>1229.43</ele>
        <time>2020-07-21T06:54:02.000Z</time>
      </trkpt>
      <trkpt lat="42.8999437" lon="-5.6893108">
        <ele>1229.43</ele>
        <time>2020-07-21T06:54:03.000Z</time>
      </trkpt>
      <trkpt lat="42.8999507" lon="-5.689295">
        <ele>1229.73</ele>
        <time>2020-07-21T06:54:04.000Z</time>
      </trkpt>
      <trkpt lat="42.8999572" lon="-5.6892802">
        <ele>1229.73</ele>
        <time>2020-07-21T06:54:05.000Z</time>
      </trkpt>
      <trkpt lat="42.8999643" lon="-5.6892648">
        <ele>1230.04</ele>
        <time>2020-07-21T06:54:06.000Z</time>
      </trkpt>
      <trkpt lat="42.899971" lon="-5.6892507">
        <ele>1230.04</ele>
        <time>2020-07-21T06:54:07.000Z</time>
      </trkpt>
      <trkpt lat="42.8999788" lon="-5.6892365">
        <ele>1230.34</ele>
        <time>2020-07-21T06:54:08.000Z</time>
      </trkpt>
      <trkpt lat="42.899987" lon="-5.689223">
        <ele>1230.34</ele>
        <time>2020-07-21T06:54:09.000Z</time>
      </trkpt>
      <trkpt lat="42.8999957" lon="-5.6892087">
        <ele>1230.65</ele>
        <time>2020-07-21T06:54:10.000Z</time>
      </trkpt>
      <trkpt lat="42.9000033" lon="-5.6891947">
        <ele>1230.65</ele>
        <time>2020-07-21T06:54:11.000Z</time>
      </trkpt>
      <trkpt lat="42.9000107" lon="-5.6891812">
        <ele>1230.95</ele>
        <time>2020-07-21T06:54:12.000Z</time>
      </trkpt>
      <trkpt lat="42.9000182" lon="-5.6891683">
        <ele>1230.95</ele>
        <time>2020-07-21T06:54:13.000Z</time>
      </trkpt>
      <trkpt lat="42.9000263" lon="-5.689156">
        <ele>1231.26</ele>
        <time>2020-07-21T06:54:14.000Z</time>
      </trkpt>
      <trkpt lat="42.9000343" lon="-5.6891455">
        <ele>1231.26</ele>
        <time>2020-07-21T06:54:15.000Z</time>
      </trkpt>
      <trkpt lat="42.9000435" lon="-5.689137">
        <ele>1231.71</ele>
        <time>2020-07-21T06:54:16.000Z</time>
      </trkpt>
      <trkpt lat="42.9000518" lon="-5.6891298">
        <ele>1231.71</ele>
        <time>2020-07-21T06:54:17.000Z</time>
      </trkpt>
      <trkpt lat="42.9000603" lon="-5.689123">
        <ele>1232.02</ele>
        <time>2020-07-21T06:54:18.000Z</time>
      </trkpt>
      <trkpt lat="42.9000665" lon="-5.6891183">
        <ele>1232.02</ele>
        <time>2020-07-21T06:54:19.000Z</time>
      </trkpt>
      <trkpt lat="42.9000715" lon="-5.6891147">
        <ele>1232.32</ele>
        <time>2020-07-21T06:54:20.000Z</time>
      </trkpt>
      <trkpt lat="42.9000775" lon="-5.6891133">
        <ele>1232.32</ele>
        <time>2020-07-21T06:54:21.000Z</time>
      </trkpt>
      <trkpt lat="42.900086" lon="-5.6891127">
        <ele>1232.63</ele>
        <time>2020-07-21T06:54:22.000Z</time>
      </trkpt>
      <trkpt lat="42.9000962" lon="-5.6891148">
        <ele>1232.63</ele>
        <time>2020-07-21T06:54:23.000Z</time>
      </trkpt>
      <trkpt lat="42.9001052" lon="-5.6891208">
        <ele>1232.93</ele>
        <time>2020-07-21T06:54:24.000Z</time>
      </trkpt>
      <trkpt lat="42.900112" lon="-5.6891303">
        <ele>1232.93</ele>
        <time>2020-07-21T06:54:25.000Z</time>
      </trkpt>
      <trkpt lat="42.900118" lon="-5.6891422">
        <ele>1233.39</ele>
        <time>2020-07-21T06:54:26.000Z</time>
      </trkpt>
      <trkpt lat="42.9001225" lon="-5.6891537">
        <ele>1233.39</ele>
        <time>2020-07-21T06:54:27.000Z</time>
      </trkpt>
      <trkpt lat="42.9001253" lon="-5.6891663">
        <ele>1233.69</ele>
        <time>2020-07-21T06:54:28.000Z</time>
      </trkpt>
      <trkpt lat="42.9001268" lon="-5.6891792">
        <ele>1233.69</ele>
        <time>2020-07-21T06:54:29.000Z</time>
      </trkpt>
      <trkpt lat="42.9001287" lon="-5.689193">
        <ele>1234</ele>
        <time>2020-07-21T06:54:30.000Z</time>
      </trkpt>
      <trkpt lat="42.9001328" lon="-5.6892062">
        <ele>1234</ele>
        <time>2020-07-21T06:54:31.000Z</time>
      </trkpt>
      <trkpt lat="42.9001387" lon="-5.689218">
        <ele>1234.45</ele>
        <time>2020-07-21T06:54:32.000Z</time>
      </trkpt>
      <trkpt lat="42.9001453" lon="-5.6892277">
        <ele>1234.45</ele>
        <time>2020-07-21T06:54:33.000Z</time>
      </trkpt>
      <trkpt lat="42.9001508" lon="-5.6892375">
        <ele>1234.76</ele>
        <time>2020-07-21T06:54:34.000Z</time>
      </trkpt>
      <trkpt lat="42.9001562" lon="-5.689248">
        <ele>1234.76</ele>
        <time>2020-07-21T06:54:35.000Z</time>
      </trkpt>
      <trkpt lat="42.9001618" lon="-5.689259">
        <ele>1235.06</ele>
        <time>2020-07-21T06:54:36.000Z</time>
      </trkpt>
      <trkpt lat="42.9001695" lon="-5.6892688">
        <ele>1235.06</ele>
        <time>2020-07-21T06:54:37.000Z</time>
      </trkpt>
      <trkpt lat="42.9001777" lon="-5.6892763">
        <ele>1235.52</ele>
        <time>2020-07-21T06:54:38.000Z</time>
      </trkpt>
      <trkpt lat="42.9001865" lon="-5.6892822">
        <ele>1235.52</ele>
        <time>2020-07-21T06:54:39.000Z</time>
      </trkpt>
      <trkpt lat="42.9001958" lon="-5.6892862">
        <ele>1235.83</ele>
        <time>2020-07-21T06:54:40.000Z</time>
      </trkpt>
      <trkpt lat="42.9002052" lon="-5.6892902">
        <ele>1235.83</ele>
        <time>2020-07-21T06:54:41.000Z</time>
      </trkpt>
      <trkpt lat="42.900214" lon="-5.6892943">
        <ele>1236.28</ele>
        <time>2020-07-21T06:54:42.000Z</time>
      </trkpt>
      <trkpt lat="42.9002227" lon="-5.6892992">
        <ele>1236.28</ele>
        <time>2020-07-21T06:54:43.000Z</time>
      </trkpt>
      <trkpt lat="42.900231" lon="-5.6893043">
        <ele>1236.59</ele>
        <time>2020-07-21T06:54:44.000Z</time>
      </trkpt>
      <trkpt lat="42.9002385" lon="-5.6893098">
        <ele>1236.59</ele>
        <time>2020-07-21T06:54:45.000Z</time>
      </trkpt>
      <trkpt lat="42.9002458" lon="-5.6893157">
        <ele>1237.05</ele>
        <time>2020-07-21T06:54:46.000Z</time>
      </trkpt>
      <trkpt lat="42.9002532" lon="-5.6893225">
        <ele>1237.05</ele>
        <time>2020-07-21T06:54:47.000Z</time>
      </trkpt>
      <trkpt lat="42.9002607" lon="-5.6893305">
        <ele>1237.35</ele>
        <time>2020-07-21T06:54:48.000Z</time>
      </trkpt>
      <trkpt lat="42.9002677" lon="-5.6893397">
        <ele>1237.35</ele>
        <time>2020-07-21T06:54:49.000Z</time>
      </trkpt>
      <trkpt lat="42.900275" lon="-5.6893482">
        <ele>1237.81</ele>
        <time>2020-07-21T06:54:50.000Z</time>
      </trkpt>
      <trkpt lat="42.9002833" lon="-5.6893553">
        <ele>1237.81</ele>
        <time>2020-07-21T06:54:51.000Z</time>
      </trkpt>
      <trkpt lat="42.9002918" lon="-5.6893623">
        <ele>1238.27</ele>
        <time>2020-07-21T06:54:52.000Z</time>
      </trkpt>
      <trkpt lat="42.9003015" lon="-5.6893688">
        <ele>1238.27</ele>
        <time>2020-07-21T06:54:53.000Z</time>
      </trkpt>
      <trkpt lat="42.9003115" lon="-5.689376">
        <ele>1238.72</ele>
        <time>2020-07-21T06:54:54.000Z</time>
      </trkpt>
      <trkpt lat="42.9003228" lon="-5.6893822">
        <ele>1238.72</ele>
        <time>2020-07-21T06:54:55.000Z</time>
      </trkpt>
      <trkpt lat="42.9003333" lon="-5.6893887">
        <ele>1239.18</ele>
        <time>2020-07-21T06:54:56.000Z</time>
      </trkpt>
      <trkpt lat="42.900345" lon="-5.689394">
        <ele>1239.18</ele>
        <time>2020-07-21T06:54:57.000Z</time>
      </trkpt>
      <trkpt lat="42.9003568" lon="-5.6893988">
        <ele>1239.48</ele>
        <time>2020-07-21T06:54:58.000Z</time>
      </trkpt>
      <trkpt lat="42.900368" lon="-5.6894025">
        <ele>1239.48</ele>
        <time>2020-07-21T06:54:59.000Z</time>
      </trkpt>
      <trkpt lat="42.9003772" lon="-5.6894058">
        <ele>1239.94</ele>
        <time>2020-07-21T06:55:00.000Z</time>
      </trkpt>
      <trkpt lat="42.9003843" lon="-5.6894102">
        <ele>1239.94</ele>
        <time>2020-07-21T06:55:01.000Z</time>
      </trkpt>
      <trkpt lat="42.9003918" lon="-5.6894157">
        <ele>1240.4</ele>
        <time>2020-07-21T06:55:02.000Z</time>
      </trkpt>
      <trkpt lat="42.9003992" lon="-5.6894232">
        <ele>1240.4</ele>
        <time>2020-07-21T06:55:03.000Z</time>
      </trkpt>
      <trkpt lat="42.900408" lon="-5.6894308">
        <ele>1240.7</ele>
        <time>2020-07-21T06:55:04.000Z</time>
      </trkpt>
      <trkpt lat="42.9004175" lon="-5.6894368">
        <ele>1240.7</ele>
        <time>2020-07-21T06:55:05.000Z</time>
      </trkpt>
      <trkpt lat="42.9004273" lon="-5.6894403">
        <ele>1241.16</ele>
        <time>2020-07-21T06:55:06.000Z</time>
      </trkpt>
      <trkpt lat="42.9004357" lon="-5.6894432">
        <ele>1241.16</ele>
        <time>2020-07-21T06:55:07.000Z</time>
      </trkpt>
      <trkpt lat="42.9004437" lon="-5.6894465">
        <ele>1241.62</ele>
        <time>2020-07-21T06:55:08.000Z</time>
      </trkpt>
      <trkpt lat="42.9004515" lon="-5.6894525">
        <ele>1241.62</ele>
        <time>2020-07-21T06:55:09.000Z</time>
      </trkpt>
      <trkpt lat="42.9004605" lon="-5.689457">
        <ele>1241.92</ele>
        <time>2020-07-21T06:55:10.000Z</time>
      </trkpt>
      <trkpt lat="42.9004685" lon="-5.6894623">
        <ele>1241.92</ele>
        <time>2020-07-21T06:55:11.000Z</time>
      </trkpt>
      <trkpt lat="42.900476" lon="-5.689466">
        <ele>1242.38</ele>
        <time>2020-07-21T06:55:12.000Z</time>
      </trkpt>
      <trkpt lat="42.9004827" lon="-5.6894708">
        <ele>1242.38</ele>
        <time>2020-07-21T06:55:13.000Z</time>
      </trkpt>
      <trkpt lat="42.9004897" lon="-5.6894758">
        <ele>1242.69</ele>
        <time>2020-07-21T06:55:14.000Z</time>
      </trkpt>
      <trkpt lat="42.9004972" lon="-5.6894803">
        <ele>1242.69</ele>
        <time>2020-07-21T06:55:15.000Z</time>
      </trkpt>
      <trkpt lat="42.900505" lon="-5.6894837">
        <ele>1242.99</ele>
        <time>2020-07-21T06:55:16.000Z</time>
      </trkpt>
      <trkpt lat="42.9005127" lon="-5.6894858">
        <ele>1242.99</ele>
        <time>2020-07-21T06:55:17.000Z</time>
      </trkpt>
      <trkpt lat="42.9005203" lon="-5.6894872">
        <ele>1243.45</ele>
        <time>2020-07-21T06:55:18.000Z</time>
      </trkpt>
      <trkpt lat="42.9005275" lon="-5.689489">
        <ele>1243.45</ele>
        <time>2020-07-21T06:55:19.000Z</time>
      </trkpt>
      <trkpt lat="42.9005353" lon="-5.6894918">
        <ele>1243.75</ele>
        <time>2020-07-21T06:55:20.000Z</time>
      </trkpt>
      <trkpt lat="42.9005437" lon="-5.689495">
        <ele>1243.75</ele>
        <time>2020-07-21T06:55:21.000Z</time>
      </trkpt>
      <trkpt lat="42.9005523" lon="-5.6894973">
        <ele>1244.06</ele>
        <time>2020-07-21T06:55:22.000Z</time>
      </trkpt>
      <trkpt lat="42.9005608" lon="-5.689499">
        <ele>1244.06</ele>
        <time>2020-07-21T06:55:23.000Z</time>
      </trkpt>
      <trkpt lat="42.9005697" lon="-5.6895005">
        <ele>1244.51</ele>
        <time>2020-07-21T06:55:24.000Z</time>
      </trkpt>
      <trkpt lat="42.9005787" lon="-5.6895022">
        <ele>1244.51</ele>
        <time>2020-07-21T06:55:25.000Z</time>
      </trkpt>
      <trkpt lat="42.9005873" lon="-5.6895027">
        <ele>1244.82</ele>
        <time>2020-07-21T06:55:26.000Z</time>
      </trkpt>
      <trkpt lat="42.9005948" lon="-5.689503">
        <ele>1244.82</ele>
        <time>2020-07-21T06:55:27.000Z</time>
      </trkpt>
      <trkpt lat="42.9006028" lon="-5.6895027">
        <ele>1245.12</ele>
        <time>2020-07-21T06:55:28.000Z</time>
      </trkpt>
      <trkpt lat="42.9006097" lon="-5.689503">
        <ele>1245.12</ele>
        <time>2020-07-21T06:55:29.000Z</time>
      </trkpt>
      <trkpt lat="42.9006175" lon="-5.6895042">
        <ele>1245.58</ele>
        <time>2020-07-21T06:55:30.000Z</time>
      </trkpt>
      <trkpt lat="42.9006255" lon="-5.689506">
        <ele>1245.58</ele>
        <time>2020-07-21T06:55:31.000Z</time>
      </trkpt>
      <trkpt lat="42.9006333" lon="-5.6895075">
        <ele>1245.89</ele>
        <time>2020-07-21T06:55:32.000Z</time>
      </trkpt>
      <trkpt lat="42.900641" lon="-5.6895072">
        <ele>1245.89</ele>
        <time>2020-07-21T06:55:33.000Z</time>
      </trkpt>
      <trkpt lat="42.9006483" lon="-5.6895043">
        <ele>1246.34</ele>
        <time>2020-07-21T06:55:34.000Z</time>
      </trkpt>
      <trkpt lat="42.9006558" lon="-5.6895007">
        <ele>1246.34</ele>
        <time>2020-07-21T06:55:35.000Z</time>
      </trkpt>
      <trkpt lat="42.9006625" lon="-5.6894973">
        <ele>1246.65</ele>
        <time>2020-07-21T06:55:36.000Z</time>
      </trkpt>
      <trkpt lat="42.9006687" lon="-5.6894953">
        <ele>1246.65</ele>
        <time>2020-07-21T06:55:37.000Z</time>
      </trkpt>
      <trkpt lat="42.9006758" lon="-5.6894935">
        <ele>1247.1</ele>
        <time>2020-07-21T06:55:38.000Z</time>
      </trkpt>
      <trkpt lat="42.9006828" lon="-5.6894918">
        <ele>1247.1</ele>
        <time>2020-07-21T06:55:39.000Z</time>
      </trkpt>
      <trkpt lat="42.9006902" lon="-5.6894903">
        <ele>1247.56</ele>
        <time>2020-07-21T06:55:40.000Z</time>
      </trkpt>
      <trkpt lat="42.9006978" lon="-5.6894898">
        <ele>1247.56</ele>
        <time>2020-07-21T06:55:41.000Z</time>
      </trkpt>
      <trkpt lat="42.9007075" lon="-5.6894908">
        <ele>1247.87</ele>
        <time>2020-07-21T06:55:42.000Z</time>
      </trkpt>
      <trkpt lat="42.9007185" lon="-5.689492">
        <ele>1247.87</ele>
        <time>2020-07-21T06:55:43.000Z</time>
      </trkpt>
      <trkpt lat="42.9007293" lon="-5.6894918">
        <ele>1248.32</ele>
        <time>2020-07-21T06:55:44.000Z</time>
      </trkpt>
      <trkpt lat="42.9007378" lon="-5.6894903">
        <ele>1248.32</ele>
        <time>2020-07-21T06:55:45.000Z</time>
      </trkpt>
      <trkpt lat="42.9007458" lon="-5.6894887">
        <ele>1248.63</ele>
        <time>2020-07-21T06:55:46.000Z</time>
      </trkpt>
      <trkpt lat="42.9007548" lon="-5.6894885">
        <ele>1248.63</ele>
        <time>2020-07-21T06:55:47.000Z</time>
      </trkpt>
      <trkpt lat="42.9007643" lon="-5.6894887">
        <ele>1249.09</ele>
        <time>2020-07-21T06:55:48.000Z</time>
      </trkpt>
      <trkpt lat="42.9007733" lon="-5.6894885">
        <ele>1249.09</ele>
        <time>2020-07-21T06:55:49.000Z</time>
      </trkpt>
      <trkpt lat="42.900783" lon="-5.6894868">
        <ele>1249.39</ele>
        <time>2020-07-21T06:55:50.000Z</time>
      </trkpt>
      <trkpt lat="42.900794" lon="-5.6894842">
        <ele>1249.39</ele>
        <time>2020-07-21T06:55:51.000Z</time>
      </trkpt>
      <trkpt lat="42.9008053" lon="-5.6894818">
        <ele>1249.85</ele>
        <time>2020-07-21T06:55:52.000Z</time>
      </trkpt>
      <trkpt lat="42.9008152" lon="-5.6894795">
        <ele>1249.85</ele>
        <time>2020-07-21T06:55:53.000Z</time>
      </trkpt>
      <trkpt lat="42.9008235" lon="-5.689477">
        <ele>1250.31</ele>
        <time>2020-07-21T06:55:54.000Z</time>
      </trkpt>
      <trkpt lat="42.9008315" lon="-5.689473">
        <ele>1250.31</ele>
        <time>2020-07-21T06:55:55.000Z</time>
      </trkpt>
      <trkpt lat="42.9008392" lon="-5.689468">
        <ele>1250.76</ele>
        <time>2020-07-21T06:55:56.000Z</time>
      </trkpt>
      <trkpt lat="42.9008468" lon="-5.6894603">
        <ele>1250.76</ele>
        <time>2020-07-21T06:55:57.000Z</time>
      </trkpt>
      <trkpt lat="42.9008537" lon="-5.6894522">
        <ele>1251.07</ele>
        <time>2020-07-21T06:55:58.000Z</time>
      </trkpt>
      <trkpt lat="42.9008607" lon="-5.689444">
        <ele>1251.07</ele>
        <time>2020-07-21T06:55:59.000Z</time>
      </trkpt>
      <trkpt lat="42.9008665" lon="-5.6894378">
        <ele>1251.52</ele>
        <time>2020-07-21T06:56:00.000Z</time>
      </trkpt>
      <trkpt lat="42.9008728" lon="-5.6894328">
        <ele>1251.52</ele>
        <time>2020-07-21T06:56:01.000Z</time>
      </trkpt>
      <trkpt lat="42.9008797" lon="-5.6894285">
        <ele>1251.98</ele>
        <time>2020-07-21T06:56:02.000Z</time>
      </trkpt>
      <trkpt lat="42.9008868" lon="-5.6894243">
        <ele>1251.98</ele>
        <time>2020-07-21T06:56:03.000Z</time>
      </trkpt>
      <trkpt lat="42.9008937" lon="-5.6894202">
        <ele>1252.44</ele>
        <time>2020-07-21T06:56:04.000Z</time>
      </trkpt>
      <trkpt lat="42.9009" lon="-5.6894162">
        <ele>1252.44</ele>
        <time>2020-07-21T06:56:05.000Z</time>
      </trkpt>
      <trkpt lat="42.9009068" lon="-5.6894123">
        <ele>1253.05</ele>
        <time>2020-07-21T06:56:06.000Z</time>
      </trkpt>
      <trkpt lat="42.9009135" lon="-5.6894083">
        <ele>1253.05</ele>
        <time>2020-07-21T06:56:07.000Z</time>
      </trkpt>
      <trkpt lat="42.9009192" lon="-5.6894033">
        <ele>1253.51</ele>
        <time>2020-07-21T06:56:08.000Z</time>
      </trkpt>
      <trkpt lat="42.9009252" lon="-5.6893977">
        <ele>1253.51</ele>
        <time>2020-07-21T06:56:09.000Z</time>
      </trkpt>
      <trkpt lat="42.9009332" lon="-5.6893927">
        <ele>1253.96</ele>
        <time>2020-07-21T06:56:10.000Z</time>
      </trkpt>
      <trkpt lat="42.9009417" lon="-5.6893885">
        <ele>1253.96</ele>
        <time>2020-07-21T06:56:11.000Z</time>
      </trkpt>
      <trkpt lat="42.9009508" lon="-5.6893855">
        <ele>1254.42</ele>
        <time>2020-07-21T06:56:12.000Z</time>
      </trkpt>
      <trkpt lat="42.9009608" lon="-5.6893813">
        <ele>1254.42</ele>
        <time>2020-07-21T06:56:13.000Z</time>
      </trkpt>
      <trkpt lat="42.9009743" lon="-5.6893767">
        <ele>1255.03</ele>
        <time>2020-07-21T06:56:14.000Z</time>
      </trkpt>
      <trkpt lat="42.9009897" lon="-5.689371">
        <ele>1255.03</ele>
        <time>2020-07-21T06:56:15.000Z</time>
      </trkpt>
      <trkpt lat="42.9010035" lon="-5.6893652">
        <ele>1255.49</ele>
        <time>2020-07-21T06:56:16.000Z</time>
      </trkpt>
      <trkpt lat="42.9010197" lon="-5.6893588">
        <ele>1255.49</ele>
        <time>2020-07-21T06:56:17.000Z</time>
      </trkpt>
      <trkpt lat="42.9010352" lon="-5.6893538">
        <ele>1255.94</ele>
        <time>2020-07-21T06:56:18.000Z</time>
      </trkpt>
      <trkpt lat="42.9010507" lon="-5.6893498">
        <ele>1255.94</ele>
        <time>2020-07-21T06:56:19.000Z</time>
      </trkpt>
      <trkpt lat="42.901062" lon="-5.6893463">
        <ele>1256.4</ele>
        <time>2020-07-21T06:56:20.000Z</time>
      </trkpt>
      <trkpt lat="42.9010737" lon="-5.6893407">
        <ele>1256.4</ele>
        <time>2020-07-21T06:56:21.000Z</time>
      </trkpt>
      <trkpt lat="42.9010847" lon="-5.6893345">
        <ele>1256.86</ele>
        <time>2020-07-21T06:56:22.000Z</time>
      </trkpt>
      <trkpt lat="42.9010943" lon="-5.6893283">
        <ele>1256.86</ele>
        <time>2020-07-21T06:56:23.000Z</time>
      </trkpt>
      <trkpt lat="42.9011033" lon="-5.6893212">
        <ele>1257.31</ele>
        <time>2020-07-21T06:56:24.000Z</time>
      </trkpt>
      <trkpt lat="42.9011127" lon="-5.6893115">
        <ele>1257.31</ele>
        <time>2020-07-21T06:56:25.000Z</time>
      </trkpt>
      <trkpt lat="42.9011228" lon="-5.6893013">
        <ele>1257.77</ele>
        <time>2020-07-21T06:56:26.000Z</time>
      </trkpt>
      <trkpt lat="42.901133" lon="-5.6892938">
        <ele>1257.77</ele>
        <time>2020-07-21T06:56:27.000Z</time>
      </trkpt>
      <trkpt lat="42.9011428" lon="-5.6892892">
        <ele>1258.23</ele>
        <time>2020-07-21T06:56:28.000Z</time>
      </trkpt>
      <trkpt lat="42.9011542" lon="-5.6892853">
        <ele>1258.23</ele>
        <time>2020-07-21T06:56:29.000Z</time>
      </trkpt>
      <trkpt lat="42.9011668" lon="-5.6892828">
        <ele>1258.69</ele>
        <time>2020-07-21T06:56:30.000Z</time>
      </trkpt>
      <trkpt lat="42.90118" lon="-5.6892818">
        <ele>1258.69</ele>
        <time>2020-07-21T06:56:31.000Z</time>
      </trkpt>
      <trkpt lat="42.9011912" lon="-5.6892815">
        <ele>1259.14</ele>
        <time>2020-07-21T06:56:32.000Z</time>
      </trkpt>
      <trkpt lat="42.9012018" lon="-5.6892817">
        <ele>1259.14</ele>
        <time>2020-07-21T06:56:33.000Z</time>
      </trkpt>
      <trkpt lat="42.9012137" lon="-5.6892805">
        <ele>1259.6</ele>
        <time>2020-07-21T06:56:34.000Z</time>
      </trkpt>
      <trkpt lat="42.9012265" lon="-5.689279">
        <ele>1259.6</ele>
        <time>2020-07-21T06:56:35.000Z</time>
      </trkpt>
      <trkpt lat="42.9012383" lon="-5.689277">
        <ele>1260.06</ele>
        <time>2020-07-21T06:56:36.000Z</time>
      </trkpt>
      <trkpt lat="42.9012488" lon="-5.6892752">
        <ele>1260.06</ele>
        <time>2020-07-21T06:56:37.000Z</time>
      </trkpt>
      <trkpt lat="42.9012595" lon="-5.6892728">
        <ele>1260.52</ele>
        <time>2020-07-21T06:56:38.000Z</time>
      </trkpt>
      <trkpt lat="42.9012707" lon="-5.6892675">
        <ele>1260.52</ele>
        <time>2020-07-21T06:56:39.000Z</time>
      </trkpt>
      <trkpt lat="42.901281" lon="-5.689264">
        <ele>1260.97</ele>
        <time>2020-07-21T06:56:40.000Z</time>
      </trkpt>
      <trkpt lat="42.9012907" lon="-5.6892608">
        <ele>1260.97</ele>
        <time>2020-07-21T06:56:41.000Z</time>
      </trkpt>
      <trkpt lat="42.9012995" lon="-5.6892593">
        <ele>1261.43</ele>
        <time>2020-07-21T06:56:42.000Z</time>
      </trkpt>
      <trkpt lat="42.9013092" lon="-5.689255">
        <ele>1261.43</ele>
        <time>2020-07-21T06:56:43.000Z</time>
      </trkpt>
      <trkpt lat="42.9013202" lon="-5.6892493">
        <ele>1262.04</ele>
        <time>2020-07-21T06:56:44.000Z</time>
      </trkpt>
      <trkpt lat="42.9013312" lon="-5.6892438">
        <ele>1262.04</ele>
        <time>2020-07-21T06:56:45.000Z</time>
      </trkpt>
      <trkpt lat="42.9013417" lon="-5.6892398">
        <ele>1262.5</ele>
        <time>2020-07-21T06:56:46.000Z</time>
      </trkpt>
      <trkpt lat="42.9013513" lon="-5.6892365">
        <ele>1262.5</ele>
        <time>2020-07-21T06:56:47.000Z</time>
      </trkpt>
      <trkpt lat="42.9013622" lon="-5.689231">
        <ele>1262.95</ele>
        <time>2020-07-21T06:56:48.000Z</time>
      </trkpt>
      <trkpt lat="42.9013727" lon="-5.6892238">
        <ele>1262.95</ele>
        <time>2020-07-21T06:56:49.000Z</time>
      </trkpt>
      <trkpt lat="42.901382" lon="-5.6892175">
        <ele>1263.41</ele>
        <time>2020-07-21T06:56:50.000Z</time>
      </trkpt>
      <trkpt lat="42.9013907" lon="-5.6892137">
        <ele>1263.41</ele>
        <time>2020-07-21T06:56:51.000Z</time>
      </trkpt>
      <trkpt lat="42.9013997" lon="-5.6892113">
        <ele>1263.87</ele>
        <time>2020-07-21T06:56:52.000Z</time>
      </trkpt>
      <trkpt lat="42.9014102" lon="-5.6892078">
        <ele>1263.87</ele>
        <time>2020-07-21T06:56:53.000Z</time>
      </trkpt>
      <trkpt lat="42.9014195" lon="-5.6892053">
        <ele>1264.33</ele>
        <time>2020-07-21T06:56:54.000Z</time>
      </trkpt>
      <trkpt lat="42.901429" lon="-5.6892022">
        <ele>1264.33</ele>
        <time>2020-07-21T06:56:55.000Z</time>
      </trkpt>
      <trkpt lat="42.9014378" lon="-5.6891992">
        <ele>1264.78</ele>
        <time>2020-07-21T06:56:56.000Z</time>
      </trkpt>
      <trkpt lat="42.9014477" lon="-5.6891928">
        <ele>1264.78</ele>
        <time>2020-07-21T06:56:57.000Z</time>
      </trkpt>
      <trkpt lat="42.9014567" lon="-5.6891875">
        <ele>1265.24</ele>
        <time>2020-07-21T06:56:58.000Z</time>
      </trkpt>
      <trkpt lat="42.9014653" lon="-5.6891827">
        <ele>1265.24</ele>
        <time>2020-07-21T06:56:59.000Z</time>
      </trkpt>
      <trkpt lat="42.901474" lon="-5.68918">
        <ele>1265.7</ele>
        <time>2020-07-21T06:57:00.000Z</time>
      </trkpt>
      <trkpt lat="42.901483" lon="-5.6891762">
        <ele>1265.7</ele>
        <time>2020-07-21T06:57:01.000Z</time>
      </trkpt>
      <trkpt lat="42.901492" lon="-5.6891727">
        <ele>1266.16</ele>
        <time>2020-07-21T06:57:02.000Z</time>
      </trkpt>
      <trkpt lat="42.9015022" lon="-5.6891697">
        <ele>1266.16</ele>
        <time>2020-07-21T06:57:03.000Z</time>
      </trkpt>
      <trkpt lat="42.901514" lon="-5.689166">
        <ele>1266.46</ele>
        <time>2020-07-21T06:57:04.000Z</time>
      </trkpt>
      <trkpt lat="42.9015265" lon="-5.6891618">
        <ele>1266.46</ele>
        <time>2020-07-21T06:57:05.000Z</time>
      </trkpt>
      <trkpt lat="42.9015365" lon="-5.6891585">
        <ele>1266.92</ele>
        <time>2020-07-21T06:57:06.000Z</time>
      </trkpt>
      <trkpt lat="42.9015443" lon="-5.6891562">
        <ele>1266.92</ele>
        <time>2020-07-21T06:57:07.000Z</time>
      </trkpt>
      <trkpt lat="42.9015497" lon="-5.6891523">
        <ele>1267.37</ele>
        <time>2020-07-21T06:57:08.000Z</time>
      </trkpt>
      <trkpt lat="42.9015552" lon="-5.6891473">
        <ele>1267.37</ele>
        <time>2020-07-21T06:57:09.000Z</time>
      </trkpt>
      <trkpt lat="42.9015598" lon="-5.6891435">
        <ele>1267.68</ele>
        <time>2020-07-21T06:57:10.000Z</time>
      </trkpt>
      <trkpt lat="42.9015662" lon="-5.6891418">
        <ele>1267.68</ele>
        <time>2020-07-21T06:57:11.000Z</time>
      </trkpt>
      <trkpt lat="42.9015732" lon="-5.6891398">
        <ele>1267.98</ele>
        <time>2020-07-21T06:57:12.000Z</time>
      </trkpt>
      <trkpt lat="42.9015813" lon="-5.689138">
        <ele>1267.98</ele>
        <time>2020-07-21T06:57:13.000Z</time>
      </trkpt>
      <trkpt lat="42.9015902" lon="-5.6891352">
        <ele>1268.29</ele>
        <time>2020-07-21T06:57:14.000Z</time>
      </trkpt>
      <trkpt lat="42.9015995" lon="-5.6891303">
        <ele>1268.29</ele>
        <time>2020-07-21T06:57:15.000Z</time>
      </trkpt>
      <trkpt lat="42.9016088" lon="-5.6891227">
        <ele>1268.59</ele>
        <time>2020-07-21T06:57:16.000Z</time>
      </trkpt>
      <trkpt lat="42.9016172" lon="-5.689115">
        <ele>1268.59</ele>
        <time>2020-07-21T06:57:17.000Z</time>
      </trkpt>
      <trkpt lat="42.9016243" lon="-5.6891093">
        <ele>1269.05</ele>
        <time>2020-07-21T06:57:18.000Z</time>
      </trkpt>
      <trkpt lat="42.9016315" lon="-5.6891052">
        <ele>1269.05</ele>
        <time>2020-07-21T06:57:19.000Z</time>
      </trkpt>
      <trkpt lat="42.9016383" lon="-5.6891012">
        <ele>1269.35</ele>
        <time>2020-07-21T06:57:20.000Z</time>
      </trkpt>
      <trkpt lat="42.9016445" lon="-5.6890983">
        <ele>1269.35</ele>
        <time>2020-07-21T06:57:21.000Z</time>
      </trkpt>
      <trkpt lat="42.9016505" lon="-5.689096">
        <ele>1269.66</ele>
        <time>2020-07-21T06:57:22.000Z</time>
      </trkpt>
      <trkpt lat="42.901657" lon="-5.6890932">
        <ele>1269.66</ele>
        <time>2020-07-21T06:57:23.000Z</time>
      </trkpt>
      <trkpt lat="42.9016643" lon="-5.6890885">
        <ele>1269.96</ele>
        <time>2020-07-21T06:57:24.000Z</time>
      </trkpt>
      <trkpt lat="42.9016717" lon="-5.6890837">
        <ele>1269.96</ele>
        <time>2020-07-21T06:57:25.000Z</time>
      </trkpt>
      <trkpt lat="42.9016785" lon="-5.6890795">
        <ele>1270.27</ele>
        <time>2020-07-21T06:57:26.000Z</time>
      </trkpt>
      <trkpt lat="42.9016867" lon="-5.6890772">
        <ele>1270.27</ele>
        <time>2020-07-21T06:57:27.000Z</time>
      </trkpt>
      <trkpt lat="42.9016958" lon="-5.6890745">
        <ele>1270.57</ele>
        <time>2020-07-21T06:57:28.000Z</time>
      </trkpt>
      <trkpt lat="42.9017053" lon="-5.6890728">
        <ele>1270.57</ele>
        <time>2020-07-21T06:57:29.000Z</time>
      </trkpt>
      <trkpt lat="42.9017152" lon="-5.6890708">
        <ele>1270.88</ele>
        <time>2020-07-21T06:57:30.000Z</time>
      </trkpt>
      <trkpt lat="42.9017245" lon="-5.6890697">
        <ele>1270.88</ele>
        <time>2020-07-21T06:57:31.000Z</time>
      </trkpt>
      <trkpt lat="42.9017343" lon="-5.6890653">
        <ele>1271.18</ele>
        <time>2020-07-21T06:57:32.000Z</time>
      </trkpt>
      <trkpt lat="42.9017425" lon="-5.6890645">
        <ele>1271.18</ele>
        <time>2020-07-21T06:57:33.000Z</time>
      </trkpt>
      <trkpt lat="42.90175" lon="-5.6890623">
        <ele>1271.49</ele>
        <time>2020-07-21T06:57:34.000Z</time>
      </trkpt>
      <trkpt lat="42.901757" lon="-5.6890612">
        <ele>1271.49</ele>
        <time>2020-07-21T06:57:35.000Z</time>
      </trkpt>
      <trkpt lat="42.9017643" lon="-5.6890562">
        <ele>1271.79</ele>
        <time>2020-07-21T06:57:36.000Z</time>
      </trkpt>
      <trkpt lat="42.901773" lon="-5.6890532">
        <ele>1271.79</ele>
        <time>2020-07-21T06:57:37.000Z</time>
      </trkpt>
      <trkpt lat="42.901781" lon="-5.6890502">
        <ele>1272.1</ele>
        <time>2020-07-21T06:57:38.000Z</time>
      </trkpt>
      <trkpt lat="42.9017897" lon="-5.6890468">
        <ele>1272.1</ele>
        <time>2020-07-21T06:57:39.000Z</time>
      </trkpt>
      <trkpt lat="42.901798" lon="-5.6890428">
        <ele>1272.4</ele>
        <time>2020-07-21T06:57:40.000Z</time>
      </trkpt>
      <trkpt lat="42.90181" lon="-5.6890425">
        <ele>1272.4</ele>
        <time>2020-07-21T06:57:41.000Z</time>
      </trkpt>
      <trkpt lat="42.9018213" lon="-5.6890435">
        <ele>1272.71</ele>
        <time>2020-07-21T06:57:42.000Z</time>
      </trkpt>
      <trkpt lat="42.9018335" lon="-5.6890428">
        <ele>1272.71</ele>
        <time>2020-07-21T06:57:43.000Z</time>
      </trkpt>
      <trkpt lat="42.9018423" lon="-5.6890385">
        <ele>1273.01</ele>
        <time>2020-07-21T06:57:44.000Z</time>
      </trkpt>
      <trkpt lat="42.9018508" lon="-5.6890327">
        <ele>1273.01</ele>
        <time>2020-07-21T06:57:45.000Z</time>
      </trkpt>
      <trkpt lat="42.9018573" lon="-5.6890277">
        <ele>1273.32</ele>
        <time>2020-07-21T06:57:46.000Z</time>
      </trkpt>
      <trkpt lat="42.9018633" lon="-5.6890233">
        <ele>1273.32</ele>
        <time>2020-07-21T06:57:47.000Z</time>
      </trkpt>
      <trkpt lat="42.901871" lon="-5.689019">
        <ele>1273.62</ele>
        <time>2020-07-21T06:57:48.000Z</time>
      </trkpt>
      <trkpt lat="42.901879" lon="-5.6890147">
        <ele>1273.62</ele>
        <time>2020-07-21T06:57:49.000Z</time>
      </trkpt>
      <trkpt lat="42.9018898" lon="-5.689011">
        <ele>1273.93</ele>
        <time>2020-07-21T06:57:50.000Z</time>
      </trkpt>
      <trkpt lat="42.9018995" lon="-5.689006">
        <ele>1273.93</ele>
        <time>2020-07-21T06:57:51.000Z</time>
      </trkpt>
      <trkpt lat="42.901909" lon="-5.6890008">
        <ele>1274.23</ele>
        <time>2020-07-21T06:57:52.000Z</time>
      </trkpt>
      <trkpt lat="42.9019173" lon="-5.6889942">
        <ele>1274.23</ele>
        <time>2020-07-21T06:57:53.000Z</time>
      </trkpt>
      <trkpt lat="42.9019268" lon="-5.6889895">
        <ele>1274.54</ele>
        <time>2020-07-21T06:57:54.000Z</time>
      </trkpt>
      <trkpt lat="42.901938" lon="-5.6889852">
        <ele>1274.54</ele>
        <time>2020-07-21T06:57:55.000Z</time>
      </trkpt>
      <trkpt lat="42.9019498" lon="-5.6889805">
        <ele>1274.84</ele>
        <time>2020-07-21T06:57:56.000Z</time>
      </trkpt>
      <trkpt lat="42.901963" lon="-5.6889748">
        <ele>1274.84</ele>
        <time>2020-07-21T06:57:57.000Z</time>
      </trkpt>
      <trkpt lat="42.9019758" lon="-5.6889692">
        <ele>1275.3</ele>
        <time>2020-07-21T06:57:58.000Z</time>
      </trkpt>
      <trkpt lat="42.9019888" lon="-5.6889622">
        <ele>1275.3</ele>
        <time>2020-07-21T06:57:59.000Z</time>
      </trkpt>
      <trkpt lat="42.9020008" lon="-5.6889535">
        <ele>1275.6</ele>
        <time>2020-07-21T06:58:00.000Z</time>
      </trkpt>
      <trkpt lat="42.9020092" lon="-5.6889445">
        <ele>1275.6</ele>
        <time>2020-07-21T06:58:01.000Z</time>
      </trkpt>
      <trkpt lat="42.9020152" lon="-5.688938">
        <ele>1275.91</ele>
        <time>2020-07-21T06:58:02.000Z</time>
      </trkpt>
      <trkpt lat="42.9020208" lon="-5.6889323">
        <ele>1275.91</ele>
        <time>2020-07-21T06:58:03.000Z</time>
      </trkpt>
      <trkpt lat="42.9020293" lon="-5.6889267">
        <ele>1276.21</ele>
        <time>2020-07-21T06:58:04.000Z</time>
      </trkpt>
      <trkpt lat="42.9020383" lon="-5.6889187">
        <ele>1276.21</ele>
        <time>2020-07-21T06:58:05.000Z</time>
      </trkpt>
      <trkpt lat="42.9020453" lon="-5.6889082">
        <ele>1276.67</ele>
        <time>2020-07-21T06:58:06.000Z</time>
      </trkpt>
      <trkpt lat="42.9020517" lon="-5.6888972">
        <ele>1276.67</ele>
        <time>2020-07-21T06:58:07.000Z</time>
      </trkpt>
      <trkpt lat="42.9020573" lon="-5.6888868">
        <ele>1276.97</ele>
        <time>2020-07-21T06:58:08.000Z</time>
      </trkpt>
      <trkpt lat="42.902065" lon="-5.6888783">
        <ele>1276.97</ele>
        <time>2020-07-21T06:58:09.000Z</time>
      </trkpt>
      <trkpt lat="42.9020725" lon="-5.6888707">
        <ele>1277.28</ele>
        <time>2020-07-21T06:58:10.000Z</time>
      </trkpt>
      <trkpt lat="42.9020798" lon="-5.688862">
        <ele>1277.28</ele>
        <time>2020-07-21T06:58:11.000Z</time>
      </trkpt>
      <trkpt lat="42.9020863" lon="-5.6888543">
        <ele>1277.58</ele>
        <time>2020-07-21T06:58:12.000Z</time>
      </trkpt>
      <trkpt lat="42.9020935" lon="-5.6888465">
        <ele>1277.58</ele>
        <time>2020-07-21T06:58:13.000Z</time>
      </trkpt>
      <trkpt lat="42.9021013" lon="-5.68884">
        <ele>1278.04</ele>
        <time>2020-07-21T06:58:14.000Z</time>
      </trkpt>
      <trkpt lat="42.90211" lon="-5.6888347">
        <ele>1278.04</ele>
        <time>2020-07-21T06:58:15.000Z</time>
      </trkpt>
      <trkpt lat="42.90212" lon="-5.6888295">
        <ele>1278.35</ele>
        <time>2020-07-21T06:58:16.000Z</time>
      </trkpt>
      <trkpt lat="42.90213" lon="-5.6888247">
        <ele>1278.35</ele>
        <time>2020-07-21T06:58:17.000Z</time>
      </trkpt>
      <trkpt lat="42.9021397" lon="-5.6888193">
        <ele>1278.65</ele>
        <time>2020-07-21T06:58:18.000Z</time>
      </trkpt>
      <trkpt lat="42.9021487" lon="-5.6888145">
        <ele>1278.65</ele>
        <time>2020-07-21T06:58:19.000Z</time>
      </trkpt>
      <trkpt lat="42.9021573" lon="-5.6888095">
        <ele>1278.96</ele>
        <time>2020-07-21T06:58:20.000Z</time>
      </trkpt>
      <trkpt lat="42.9021662" lon="-5.6888053">
        <ele>1278.96</ele>
        <time>2020-07-21T06:58:21.000Z</time>
      </trkpt>
      <trkpt lat="42.9021757" lon="-5.6888013">
        <ele>1279.41</ele>
        <time>2020-07-21T06:58:22.000Z</time>
      </trkpt>
      <trkpt lat="42.9021855" lon="-5.6887985">
        <ele>1279.41</ele>
        <time>2020-07-21T06:58:23.000Z</time>
      </trkpt>
      <trkpt lat="42.9021955" lon="-5.6887965">
        <ele>1279.72</ele>
        <time>2020-07-21T06:58:24.000Z</time>
      </trkpt>
      <trkpt lat="42.9022052" lon="-5.6887952">
        <ele>1279.72</ele>
        <time>2020-07-21T06:58:25.000Z</time>
      </trkpt>
      <trkpt lat="42.9022152" lon="-5.6887935">
        <ele>1280.18</ele>
        <time>2020-07-21T06:58:26.000Z</time>
      </trkpt>
      <trkpt lat="42.9022248" lon="-5.6887913">
        <ele>1280.18</ele>
        <time>2020-07-21T06:58:27.000Z</time>
      </trkpt>
      <trkpt lat="42.9022348" lon="-5.6887885">
        <ele>1280.63</ele>
        <time>2020-07-21T06:58:28.000Z</time>
      </trkpt>
      <trkpt lat="42.9022442" lon="-5.6887853">
        <ele>1280.63</ele>
        <time>2020-07-21T06:58:29.000Z</time>
      </trkpt>
      <trkpt lat="42.9022527" lon="-5.6887825">
        <ele>1280.94</ele>
        <time>2020-07-21T06:58:30.000Z</time>
      </trkpt>
      <trkpt lat="42.9022602" lon="-5.68878">
        <ele>1280.94</ele>
        <time>2020-07-21T06:58:31.000Z</time>
      </trkpt>
      <trkpt lat="42.902268" lon="-5.6887778">
        <ele>1281.4</ele>
        <time>2020-07-21T06:58:32.000Z</time>
      </trkpt>
      <trkpt lat="42.9022762" lon="-5.6887757">
        <ele>1281.4</ele>
        <time>2020-07-21T06:58:33.000Z</time>
      </trkpt>
      <trkpt lat="42.9022843" lon="-5.6887735">
        <ele>1281.85</ele>
        <time>2020-07-21T06:58:34.000Z</time>
      </trkpt>
      <trkpt lat="42.9022917" lon="-5.688771">
        <ele>1281.85</ele>
        <time>2020-07-21T06:58:35.000Z</time>
      </trkpt>
      <trkpt lat="42.9022985" lon="-5.6887687">
        <ele>1282.16</ele>
        <time>2020-07-21T06:58:36.000Z</time>
      </trkpt>
      <trkpt lat="42.9023062" lon="-5.6887663">
        <ele>1282.16</ele>
        <time>2020-07-21T06:58:37.000Z</time>
      </trkpt>
      <trkpt lat="42.902314" lon="-5.6887645">
        <ele>1282.61</ele>
        <time>2020-07-21T06:58:38.000Z</time>
      </trkpt>
      <trkpt lat="42.902322" lon="-5.6887623">
        <ele>1282.61</ele>
        <time>2020-07-21T06:58:39.000Z</time>
      </trkpt>
      <trkpt lat="42.9023313" lon="-5.68876">
        <ele>1283.07</ele>
        <time>2020-07-21T06:58:40.000Z</time>
      </trkpt>
      <trkpt lat="42.9023418" lon="-5.6887572">
        <ele>1283.07</ele>
        <time>2020-07-21T06:58:41.000Z</time>
      </trkpt>
      <trkpt lat="42.902352" lon="-5.688754">
        <ele>1283.38</ele>
        <time>2020-07-21T06:58:42.000Z</time>
      </trkpt>
      <trkpt lat="42.90236" lon="-5.6887493">
        <ele>1283.38</ele>
        <time>2020-07-21T06:58:43.000Z</time>
      </trkpt>
      <trkpt lat="42.902368" lon="-5.6887433">
        <ele>1283.68</ele>
        <time>2020-07-21T06:58:44.000Z</time>
      </trkpt>
      <trkpt lat="42.9023763" lon="-5.6887365">
        <ele>1283.68</ele>
        <time>2020-07-21T06:58:45.000Z</time>
      </trkpt>
      <trkpt lat="42.9023848" lon="-5.6887313">
        <ele>1284.14</ele>
        <time>2020-07-21T06:58:46.000Z</time>
      </trkpt>
      <trkpt lat="42.9023927" lon="-5.6887262">
        <ele>1284.14</ele>
        <time>2020-07-21T06:58:47.000Z</time>
      </trkpt>
      <trkpt lat="42.9024013" lon="-5.688721">
        <ele>1284.44</ele>
        <time>2020-07-21T06:58:48.000Z</time>
      </trkpt>
      <trkpt lat="42.9024107" lon="-5.6887145">
        <ele>1284.44</ele>
        <time>2020-07-21T06:58:49.000Z</time>
      </trkpt>
      <trkpt lat="42.9024208" lon="-5.6887075">
        <ele>1284.75</ele>
        <time>2020-07-21T06:58:50.000Z</time>
      </trkpt>
      <trkpt lat="42.9024307" lon="-5.6886997">
        <ele>1284.75</ele>
        <time>2020-07-21T06:58:51.000Z</time>
      </trkpt>
      <trkpt lat="42.902441" lon="-5.6886915">
        <ele>1285.05</ele>
        <time>2020-07-21T06:58:52.000Z</time>
      </trkpt>
      <trkpt lat="42.9024523" lon="-5.6886827">
        <ele>1285.05</ele>
        <time>2020-07-21T06:58:53.000Z</time>
      </trkpt>
      <trkpt lat="42.9024632" lon="-5.6886745">
        <ele>1285.36</ele>
        <time>2020-07-21T06:58:54.000Z</time>
      </trkpt>
      <trkpt lat="42.9024735" lon="-5.688666">
        <ele>1285.36</ele>
        <time>2020-07-21T06:58:55.000Z</time>
      </trkpt>
      <trkpt lat="42.902483" lon="-5.6886572">
        <ele>1285.66</ele>
        <time>2020-07-21T06:58:56.000Z</time>
      </trkpt>
      <trkpt lat="42.9024938" lon="-5.6886473">
        <ele>1285.66</ele>
        <time>2020-07-21T06:58:57.000Z</time>
      </trkpt>
      <trkpt lat="42.9025052" lon="-5.6886367">
        <ele>1285.97</ele>
        <time>2020-07-21T06:58:58.000Z</time>
      </trkpt>
      <trkpt lat="42.9025168" lon="-5.6886263">
        <ele>1285.97</ele>
        <time>2020-07-21T06:58:59.000Z</time>
      </trkpt>
      <trkpt lat="42.9025283" lon="-5.6886162">
        <ele>1286.27</ele>
        <time>2020-07-21T06:59:00.000Z</time>
      </trkpt>
      <trkpt lat="42.9025397" lon="-5.6886068">
        <ele>1286.27</ele>
        <time>2020-07-21T06:59:01.000Z</time>
      </trkpt>
      <trkpt lat="42.9025508" lon="-5.6885972">
        <ele>1286.42</ele>
        <time>2020-07-21T06:59:02.000Z</time>
      </trkpt>
      <trkpt lat="42.9025613" lon="-5.6885888">
        <ele>1286.42</ele>
        <time>2020-07-21T06:59:03.000Z</time>
      </trkpt>
      <trkpt lat="42.9025712" lon="-5.6885812">
        <ele>1286.73</ele>
        <time>2020-07-21T06:59:04.000Z</time>
      </trkpt>
      <trkpt lat="42.9025808" lon="-5.6885738">
        <ele>1286.73</ele>
        <time>2020-07-21T06:59:05.000Z</time>
      </trkpt>
      <trkpt lat="42.9025908" lon="-5.6885657">
        <ele>1287.03</ele>
        <time>2020-07-21T06:59:06.000Z</time>
      </trkpt>
      <trkpt lat="42.9026022" lon="-5.6885582">
        <ele>1287.03</ele>
        <time>2020-07-21T06:59:07.000Z</time>
      </trkpt>
      <trkpt lat="42.9026142" lon="-5.6885515">
        <ele>1287.34</ele>
        <time>2020-07-21T06:59:08.000Z</time>
      </trkpt>
      <trkpt lat="42.9026258" lon="-5.6885463">
        <ele>1287.34</ele>
        <time>2020-07-21T06:59:09.000Z</time>
      </trkpt>
      <trkpt lat="42.902638" lon="-5.6885415">
        <ele>1287.64</ele>
        <time>2020-07-21T06:59:10.000Z</time>
      </trkpt>
      <trkpt lat="42.9026495" lon="-5.6885373">
        <ele>1287.64</ele>
        <time>2020-07-21T06:59:11.000Z</time>
      </trkpt>
      <trkpt lat="42.9026615" lon="-5.6885327">
        <ele>1287.8</ele>
        <time>2020-07-21T06:59:12.000Z</time>
      </trkpt>
      <trkpt lat="42.9026723" lon="-5.6885275">
        <ele>1287.8</ele>
        <time>2020-07-21T06:59:13.000Z</time>
      </trkpt>
      <trkpt lat="42.9026845" lon="-5.688521">
        <ele>1288.1</ele>
        <time>2020-07-21T06:59:14.000Z</time>
      </trkpt>
      <trkpt lat="42.902695" lon="-5.6885173">
        <ele>1288.1</ele>
        <time>2020-07-21T06:59:15.000Z</time>
      </trkpt>
      <trkpt lat="42.9027055" lon="-5.6885145">
        <ele>1288.41</ele>
        <time>2020-07-21T06:59:16.000Z</time>
      </trkpt>
      <trkpt lat="42.902715" lon="-5.688513">
        <ele>1288.41</ele>
        <time>2020-07-21T06:59:17.000Z</time>
      </trkpt>
      <trkpt lat="42.9027263" lon="-5.6885093">
        <ele>1288.71</ele>
        <time>2020-07-21T06:59:18.000Z</time>
      </trkpt>
      <trkpt lat="42.9027377" lon="-5.6885065">
        <ele>1288.71</ele>
        <time>2020-07-21T06:59:19.000Z</time>
      </trkpt>
      <trkpt lat="42.902748" lon="-5.6885048">
        <ele>1288.86</ele>
        <time>2020-07-21T06:59:20.000Z</time>
      </trkpt>
      <trkpt lat="42.9027577" lon="-5.6885037">
        <ele>1288.86</ele>
        <time>2020-07-21T06:59:21.000Z</time>
      </trkpt>
      <trkpt lat="42.902766" lon="-5.688503">
        <ele>1289.02</ele>
        <time>2020-07-21T06:59:22.000Z</time>
      </trkpt>
      <trkpt lat="42.9027738" lon="-5.6885037">
        <ele>1289.02</ele>
        <time>2020-07-21T06:59:23.000Z</time>
      </trkpt>
      <trkpt lat="42.9027817" lon="-5.6885052">
        <ele>1289.32</ele>
        <time>2020-07-21T06:59:24.000Z</time>
      </trkpt>
      <trkpt lat="42.9027922" lon="-5.6885055">
        <ele>1289.32</ele>
        <time>2020-07-21T06:59:25.000Z</time>
      </trkpt>
      <trkpt lat="42.9028052" lon="-5.688505">
        <ele>1289.47</ele>
        <time>2020-07-21T06:59:26.000Z</time>
      </trkpt>
      <trkpt lat="42.9028185" lon="-5.688505">
        <ele>1289.47</ele>
        <time>2020-07-21T06:59:27.000Z</time>
      </trkpt>
      <trkpt lat="42.9028305" lon="-5.6885063">
        <ele>1289.62</ele>
        <time>2020-07-21T06:59:28.000Z</time>
      </trkpt>
      <trkpt lat="42.9028417" lon="-5.6885078">
        <ele>1289.62</ele>
        <time>2020-07-21T06:59:29.000Z</time>
      </trkpt>
      <trkpt lat="42.9028512" lon="-5.6885098">
        <ele>1289.78</ele>
        <time>2020-07-21T06:59:30.000Z</time>
      </trkpt>
      <trkpt lat="42.9028602" lon="-5.6885115">
        <ele>1289.78</ele>
        <time>2020-07-21T06:59:31.000Z</time>
      </trkpt>
      <trkpt lat="42.902871" lon="-5.6885133">
        <ele>1289.93</ele>
        <time>2020-07-21T06:59:32.000Z</time>
      </trkpt>
      <trkpt lat="42.9028828" lon="-5.6885128">
        <ele>1289.93</ele>
        <time>2020-07-21T06:59:33.000Z</time>
      </trkpt>
      <trkpt lat="42.9028942" lon="-5.6885112">
        <ele>1290.08</ele>
        <time>2020-07-21T06:59:34.000Z</time>
      </trkpt>
      <trkpt lat="42.902902" lon="-5.6885078">
        <ele>1290.08</ele>
        <time>2020-07-21T06:59:35.000Z</time>
      </trkpt>
      <trkpt lat="42.90291" lon="-5.6885055">
        <ele>1290.23</ele>
        <time>2020-07-21T06:59:36.000Z</time>
      </trkpt>
      <trkpt lat="42.9029197" lon="-5.688503">
        <ele>1290.23</ele>
        <time>2020-07-21T06:59:37.000Z</time>
      </trkpt>
      <trkpt lat="42.9029295" lon="-5.6885027">
        <ele>1290.39</ele>
        <time>2020-07-21T06:59:38.000Z</time>
      </trkpt>
      <trkpt lat="42.902939" lon="-5.6885033">
        <ele>1290.39</ele>
        <time>2020-07-21T06:59:39.000Z</time>
      </trkpt>
      <trkpt lat="42.9029473" lon="-5.688505">
        <ele>1290.54</ele>
        <time>2020-07-21T06:59:40.000Z</time>
      </trkpt>
      <trkpt lat="42.9029563" lon="-5.6885058">
        <ele>1290.54</ele>
        <time>2020-07-21T06:59:41.000Z</time>
      </trkpt>
      <trkpt lat="42.9029657" lon="-5.6885062">
        <ele>1290.69</ele>
        <time>2020-07-21T06:59:42.000Z</time>
      </trkpt>
      <trkpt lat="42.9029743" lon="-5.6885068">
        <ele>1290.69</ele>
        <time>2020-07-21T06:59:43.000Z</time>
      </trkpt>
      <trkpt lat="42.9029827" lon="-5.6885065">
        <ele>1290.84</ele>
        <time>2020-07-21T06:59:44.000Z</time>
      </trkpt>
      <trkpt lat="42.9029933" lon="-5.6885033">
        <ele>1290.84</ele>
        <time>2020-07-21T06:59:45.000Z</time>
      </trkpt>
      <trkpt lat="42.9030043" lon="-5.6884992">
        <ele>1291</ele>
        <time>2020-07-21T06:59:46.000Z</time>
      </trkpt>
      <trkpt lat="42.9030132" lon="-5.6884958">
        <ele>1291</ele>
        <time>2020-07-21T06:59:47.000Z</time>
      </trkpt>
      <trkpt lat="42.9030207" lon="-5.6884943">
        <ele>1291.15</ele>
        <time>2020-07-21T06:59:48.000Z</time>
      </trkpt>
      <trkpt lat="42.9030277" lon="-5.6884927">
        <ele>1291.15</ele>
        <time>2020-07-21T06:59:49.000Z</time>
      </trkpt>
      <trkpt lat="42.9030367" lon="-5.6884908">
        <ele>1291.3</ele>
        <time>2020-07-21T06:59:50.000Z</time>
      </trkpt>
      <trkpt lat="42.9030453" lon="-5.6884892">
        <ele>1291.3</ele>
        <time>2020-07-21T06:59:51.000Z</time>
      </trkpt>
      <trkpt lat="42.9030547" lon="-5.6884873">
        <ele>1291.45</ele>
        <time>2020-07-21T06:59:52.000Z</time>
      </trkpt>
      <trkpt lat="42.9030637" lon="-5.6884832">
        <ele>1291.45</ele>
        <time>2020-07-21T06:59:53.000Z</time>
      </trkpt>
      <trkpt lat="42.9030712" lon="-5.688478">
        <ele>1291.61</ele>
        <time>2020-07-21T06:59:54.000Z</time>
      </trkpt>
      <trkpt lat="42.9030773" lon="-5.688473">
        <ele>1291.61</ele>
        <time>2020-07-21T06:59:55.000Z</time>
      </trkpt>
      <trkpt lat="42.9030853" lon="-5.6884688">
        <ele>1291.76</ele>
        <time>2020-07-21T06:59:56.000Z</time>
      </trkpt>
      <trkpt lat="42.9030958" lon="-5.6884653">
        <ele>1291.76</ele>
        <time>2020-07-21T06:59:57.000Z</time>
      </trkpt>
      <trkpt lat="42.9031065" lon="-5.6884632">
        <ele>1291.91</ele>
        <time>2020-07-21T06:59:58.000Z</time>
      </trkpt>
      <trkpt lat="42.9031158" lon="-5.688463">
        <ele>1291.91</ele>
        <time>2020-07-21T06:59:59.000Z</time>
      </trkpt>
      <trkpt lat="42.9031238" lon="-5.688463">
        <ele>1292.06</ele>
        <time>2020-07-21T07:00:00.000Z</time>
      </trkpt>
      <trkpt lat="42.903132" lon="-5.6884623">
        <ele>1292.06</ele>
        <time>2020-07-21T07:00:01.000Z</time>
      </trkpt>
      <trkpt lat="42.9031398" lon="-5.688461">
        <ele>1292.21</ele>
        <time>2020-07-21T07:00:02.000Z</time>
      </trkpt>
      <trkpt lat="42.903148" lon="-5.6884598">
        <ele>1292.21</ele>
        <time>2020-07-21T07:00:03.000Z</time>
      </trkpt>
      <trkpt lat="42.9031573" lon="-5.6884592">
        <ele>1292.21</ele>
        <time>2020-07-21T07:00:04.000Z</time>
      </trkpt>
      <trkpt lat="42.9031668" lon="-5.6884595">
        <ele>1292.21</ele>
        <time>2020-07-21T07:00:05.000Z</time>
      </trkpt>
      <trkpt lat="42.9031762" lon="-5.6884582">
        <ele>1292.37</ele>
        <time>2020-07-21T07:00:06.000Z</time>
      </trkpt>
      <trkpt lat="42.903184" lon="-5.6884557">
        <ele>1292.37</ele>
        <time>2020-07-21T07:00:07.000Z</time>
      </trkpt>
      <trkpt lat="42.9031915" lon="-5.6884505">
        <ele>1292.52</ele>
        <time>2020-07-21T07:00:08.000Z</time>
      </trkpt>
      <trkpt lat="42.9032" lon="-5.6884432">
        <ele>1292.52</ele>
        <time>2020-07-21T07:00:09.000Z</time>
      </trkpt>
      <trkpt lat="42.9032093" lon="-5.6884352">
        <ele>1292.67</ele>
        <time>2020-07-21T07:00:10.000Z</time>
      </trkpt>
      <trkpt lat="42.9032207" lon="-5.6884272">
        <ele>1292.67</ele>
        <time>2020-07-21T07:00:11.000Z</time>
      </trkpt>
      <trkpt lat="42.9032317" lon="-5.688422">
        <ele>1292.82</ele>
        <time>2020-07-21T07:00:12.000Z</time>
      </trkpt>
      <trkpt lat="42.9032428" lon="-5.6884165">
        <ele>1292.82</ele>
        <time>2020-07-21T07:00:13.000Z</time>
      </trkpt>
      <trkpt lat="42.903253" lon="-5.6884108">
        <ele>1292.98</ele>
        <time>2020-07-21T07:00:14.000Z</time>
      </trkpt>
      <trkpt lat="42.9032633" lon="-5.6884048">
        <ele>1292.98</ele>
        <time>2020-07-21T07:00:15.000Z</time>
      </trkpt>
      <trkpt lat="42.9032745" lon="-5.6883977">
        <ele>1293.13</ele>
        <time>2020-07-21T07:00:16.000Z</time>
      </trkpt>
      <trkpt lat="42.9032872" lon="-5.6883915">
        <ele>1293.13</ele>
        <time>2020-07-21T07:00:17.000Z</time>
      </trkpt>
      <trkpt lat="42.903301" lon="-5.6883852">
        <ele>1293.13</ele>
        <time>2020-07-21T07:00:18.000Z</time>
      </trkpt>
      <trkpt lat="42.903315" lon="-5.688379">
        <ele>1293.13</ele>
        <time>2020-07-21T07:00:19.000Z</time>
      </trkpt>
      <trkpt lat="42.9033272" lon="-5.6883718">
        <ele>1293.28</ele>
        <time>2020-07-21T07:00:20.000Z</time>
      </trkpt>
      <trkpt lat="42.9033375" lon="-5.688366">
        <ele>1293.28</ele>
        <time>2020-07-21T07:00:21.000Z</time>
      </trkpt>
      <trkpt lat="42.9033457" lon="-5.6883625">
        <ele>1293.43</ele>
        <time>2020-07-21T07:00:22.000Z</time>
      </trkpt>
      <trkpt lat="42.9033512" lon="-5.6883613">
        <ele>1293.43</ele>
        <time>2020-07-21T07:00:23.000Z</time>
      </trkpt>
      <trkpt lat="42.903354" lon="-5.6883612">
        <ele>1293.43</ele>
        <time>2020-07-21T07:00:24.000Z</time>
      </trkpt>
      <trkpt lat="42.9033553" lon="-5.6883618">
        <ele>1293.43</ele>
        <time>2020-07-21T07:00:25.000Z</time>
      </trkpt>
      <trkpt lat="42.9033568" lon="-5.6883625">
        <ele>1293.59</ele>
        <time>2020-07-21T07:00:26.000Z</time>
      </trkpt>
      <trkpt lat="42.903358" lon="-5.6883632">
        <ele>1293.59</ele>
        <time>2020-07-21T07:00:27.000Z</time>
      </trkpt>
      <trkpt lat="42.9033588" lon="-5.6883638">
        <ele>1293.59</ele>
        <time>2020-07-21T07:00:28.000Z</time>
      </trkpt>
      <trkpt lat="42.9033592" lon="-5.6883645">
        <ele>1293.59</ele>
        <time>2020-07-21T07:00:29.000Z</time>
      </trkpt>
      <trkpt lat="42.9033595" lon="-5.6883652">
        <ele>1293.74</ele>
        <time>2020-07-21T07:00:30.000Z</time>
      </trkpt>
      <trkpt lat="42.9033597" lon="-5.688366">
        <ele>1293.74</ele>
        <time>2020-07-21T07:00:31.000Z</time>
      </trkpt>
      <trkpt lat="42.9033597" lon="-5.688367">
        <ele>1293.74</ele>
        <time>2020-07-21T07:00:32.000Z</time>
      </trkpt>
      <trkpt lat="42.9033595" lon="-5.6883678">
        <ele>1293.74</ele>
        <time>2020-07-21T07:00:33.000Z</time>
      </trkpt>
      <trkpt lat="42.9033592" lon="-5.6883688">
        <ele>1293.89</ele>
        <time>2020-07-21T07:00:34.000Z</time>
      </trkpt>
      <trkpt lat="42.903359" lon="-5.6883692">
        <ele>1293.89</ele>
        <time>2020-07-21T07:00:35.000Z</time>
      </trkpt>
      <trkpt lat="42.9033588" lon="-5.6883697">
        <ele>1293.89</ele>
        <time>2020-07-21T07:00:36.000Z</time>
      </trkpt>
      <trkpt lat="42.9033593" lon="-5.6883698">
        <ele>1293.89</ele>
        <time>2020-07-21T07:00:37.000Z</time>
      </trkpt>
      <trkpt lat="42.9033575" lon="-5.6883698">
        <ele>1293.89</ele>
        <time>2020-07-21T07:00:38.000Z</time>
      </trkpt>
      <trkpt lat="42.9033548" lon="-5.6883693">
        <ele>1293.89</ele>
        <time>2020-07-21T07:00:39.000Z</time>
      </trkpt>
      <trkpt lat="42.9033517" lon="-5.6883688">
        <ele>1293.89</ele>
        <time>2020-07-21T07:00:40.000Z</time>
      </trkpt>
      <trkpt lat="42.9033505" lon="-5.6883687">
        <ele>1293.89</ele>
        <time>2020-07-21T07:00:41.000Z</time>
      </trkpt>
      <trkpt lat="42.9033495" lon="-5.6883673">
        <ele>1293.89</ele>
        <time>2020-07-21T07:00:42.000Z</time>
      </trkpt>
      <trkpt lat="42.903349" lon="-5.6883665">
        <ele>1293.89</ele>
        <time>2020-07-21T07:00:43.000Z</time>
      </trkpt>
      <trkpt lat="42.9033483" lon="-5.6883653">
        <ele>1293.89</ele>
        <time>2020-07-21T07:00:44.000Z</time>
      </trkpt>
      <trkpt lat="42.9033485" lon="-5.6883657">
        <ele>1293.89</ele>
        <time>2020-07-21T07:00:45.000Z</time>
      </trkpt>
      <trkpt lat="42.9033485" lon="-5.6883652">
        <ele>1293.89</ele>
        <time>2020-07-21T07:00:46.000Z</time>
      </trkpt>
      <trkpt lat="42.9033468" lon="-5.6883663">
        <ele>1293.89</ele>
        <time>2020-07-21T07:00:47.000Z</time>
      </trkpt>
      <trkpt lat="42.9033458" lon="-5.688369">
        <ele>1293.89</ele>
        <time>2020-07-21T07:00:48.000Z</time>
      </trkpt>
      <trkpt lat="42.903343" lon="-5.6883737">
        <ele>1293.89</ele>
        <time>2020-07-21T07:00:49.000Z</time>
      </trkpt>
      <trkpt lat="42.9033425" lon="-5.6883772">
        <ele>1293.89</ele>
        <time>2020-07-21T07:00:50.000Z</time>
      </trkpt>
      <trkpt lat="42.9033392" lon="-5.6883758">
        <ele>1293.89</ele>
        <time>2020-07-21T07:00:51.000Z</time>
      </trkpt>
      <trkpt lat="42.9033363" lon="-5.6883732">
        <ele>1293.89</ele>
        <time>2020-07-21T07:00:52.000Z</time>
      </trkpt>
      <trkpt lat="42.9033307" lon="-5.6883702">
        <ele>1293.89</ele>
        <time>2020-07-21T07:00:53.000Z</time>
      </trkpt>
      <trkpt lat="42.9033247" lon="-5.688371">
        <ele>1293.89</ele>
        <time>2020-07-21T07:00:54.000Z</time>
      </trkpt>
      <trkpt lat="42.9033183" lon="-5.6883715">
        <ele>1293.89</ele>
        <time>2020-07-21T07:00:55.000Z</time>
      </trkpt>
      <trkpt lat="42.9033122" lon="-5.6883725">
        <ele>1293.89</ele>
        <time>2020-07-21T07:00:56.000Z</time>
      </trkpt>
      <trkpt lat="42.9033083" lon="-5.6883725">
        <ele>1293.89</ele>
        <time>2020-07-21T07:00:57.000Z</time>
      </trkpt>
      <trkpt lat="42.9033067" lon="-5.6883727">
        <ele>1293.89</ele>
        <time>2020-07-21T07:00:58.000Z</time>
      </trkpt>
      <trkpt lat="42.9033072" lon="-5.6883725">
        <ele>1293.89</ele>
        <time>2020-07-21T07:00:59.000Z</time>
      </trkpt>
      <trkpt lat="42.9033078" lon="-5.6883727">
        <ele>1293.89</ele>
        <time>2020-07-21T07:01:00.000Z</time>
      </trkpt>
      <trkpt lat="42.9033082" lon="-5.6883725">
        <ele>1293.89</ele>
        <time>2020-07-21T07:01:01.000Z</time>
      </trkpt>
      <trkpt lat="42.9033085" lon="-5.688372">
        <ele>1293.89</ele>
        <time>2020-07-21T07:01:02.000Z</time>
      </trkpt>
      <trkpt lat="42.9033087" lon="-5.6883718">
        <ele>1293.89</ele>
        <time>2020-07-21T07:01:03.000Z</time>
      </trkpt>
      <trkpt lat="42.9033087" lon="-5.6883715">
        <ele>1294.04</ele>
        <time>2020-07-21T07:01:04.000Z</time>
      </trkpt>
      <trkpt lat="42.9033088" lon="-5.6883712">
        <ele>1294.04</ele>
        <time>2020-07-21T07:01:05.000Z</time>
      </trkpt>
      <trkpt lat="42.903309" lon="-5.6883712">
        <ele>1294.04</ele>
        <time>2020-07-21T07:01:06.000Z</time>
      </trkpt>
      <trkpt lat="42.903309" lon="-5.688371">
        <ele>1294.04</ele>
        <time>2020-07-21T07:01:07.000Z</time>
      </trkpt>
      <trkpt lat="42.9033087" lon="-5.6883712">
        <ele>1294.2</ele>
        <time>2020-07-21T07:01:08.000Z</time>
      </trkpt>
      <trkpt lat="42.9033085" lon="-5.688371">
        <ele>1294.2</ele>
        <time>2020-07-21T07:01:09.000Z</time>
      </trkpt>
      <trkpt lat="42.9033087" lon="-5.6883708">
        <ele>1294.2</ele>
        <time>2020-07-21T07:01:10.000Z</time>
      </trkpt>
      <trkpt lat="42.9033087" lon="-5.6883707">
        <ele>1294.2</ele>
        <time>2020-07-21T07:01:11.000Z</time>
      </trkpt>
      <trkpt lat="42.9033087" lon="-5.6883705">
        <ele>1294.35</ele>
        <time>2020-07-21T07:01:12.000Z</time>
      </trkpt>
      <trkpt lat="42.9033083" lon="-5.6883705">
        <ele>1294.35</ele>
        <time>2020-07-21T07:01:13.000Z</time>
      </trkpt>
      <trkpt lat="42.9033083" lon="-5.6883703">
        <ele>1294.35</ele>
        <time>2020-07-21T07:01:14.000Z</time>
      </trkpt>
      <trkpt lat="42.903308" lon="-5.6883705">
        <ele>1294.35</ele>
        <time>2020-07-21T07:01:15.000Z</time>
      </trkpt>
      <trkpt lat="42.9033077" lon="-5.6883705">
        <ele>1294.5</ele>
        <time>2020-07-21T07:01:16.000Z</time>
      </trkpt>
      <trkpt lat="42.903307" lon="-5.6883705">
        <ele>1294.5</ele>
        <time>2020-07-21T07:01:17.000Z</time>
      </trkpt>
      <trkpt lat="42.9033067" lon="-5.6883705">
        <ele>1294.5</ele>
        <time>2020-07-21T07:01:18.000Z</time>
      </trkpt>
      <trkpt lat="42.9033067" lon="-5.6883707">
        <ele>1294.5</ele>
        <time>2020-07-21T07:01:19.000Z</time>
      </trkpt>
      <trkpt lat="42.9033067" lon="-5.6883708">
        <ele>1294.65</ele>
        <time>2020-07-21T07:01:20.000Z</time>
      </trkpt>
      <trkpt lat="42.9033068" lon="-5.688371">
        <ele>1294.65</ele>
        <time>2020-07-21T07:01:21.000Z</time>
      </trkpt>
      <trkpt lat="42.903307" lon="-5.6883712">
        <ele>1294.81</ele>
        <time>2020-07-21T07:01:22.000Z</time>
      </trkpt>
      <trkpt lat="42.9033072" lon="-5.6883713">
        <ele>1294.81</ele>
        <time>2020-07-21T07:01:23.000Z</time>
      </trkpt>
      <trkpt lat="42.9033075" lon="-5.6883713">
        <ele>1294.96</ele>
        <time>2020-07-21T07:01:24.000Z</time>
      </trkpt>
      <trkpt lat="42.9033078" lon="-5.6883713">
        <ele>1294.96</ele>
        <time>2020-07-21T07:01:25.000Z</time>
      </trkpt>
      <trkpt lat="42.9033082" lon="-5.6883712">
        <ele>1295.11</ele>
        <time>2020-07-21T07:01:26.000Z</time>
      </trkpt>
      <trkpt lat="42.9033083" lon="-5.6883712">
        <ele>1295.11</ele>
        <time>2020-07-21T07:01:27.000Z</time>
      </trkpt>
      <trkpt lat="42.9033085" lon="-5.688371">
        <ele>1295.11</ele>
        <time>2020-07-21T07:01:28.000Z</time>
      </trkpt>
      <trkpt lat="42.9033085" lon="-5.6883708">
        <ele>1295.11</ele>
        <time>2020-07-21T07:01:29.000Z</time>
      </trkpt>
      <trkpt lat="42.9033087" lon="-5.6883708">
        <ele>1295.26</ele>
        <time>2020-07-21T07:01:30.000Z</time>
      </trkpt>
      <trkpt lat="42.903309" lon="-5.6883708">
        <ele>1295.26</ele>
        <time>2020-07-21T07:01:31.000Z</time>
      </trkpt>
      <trkpt lat="42.9033093" lon="-5.6883703">
        <ele>1295.42</ele>
        <time>2020-07-21T07:01:32.000Z</time>
      </trkpt>
      <trkpt lat="42.903309" lon="-5.6883698">
        <ele>1295.42</ele>
        <time>2020-07-21T07:01:33.000Z</time>
      </trkpt>
      <trkpt lat="42.9033087" lon="-5.6883697">
        <ele>1295.57</ele>
        <time>2020-07-21T07:01:34.000Z</time>
      </trkpt>
      <trkpt lat="42.9033078" lon="-5.6883698">
        <ele>1295.57</ele>
        <time>2020-07-21T07:01:35.000Z</time>
      </trkpt>
      <trkpt lat="42.903307" lon="-5.6883703">
        <ele>1295.57</ele>
        <time>2020-07-21T07:01:36.000Z</time>
      </trkpt>
      <trkpt lat="42.9033058" lon="-5.6883708">
        <ele>1295.57</ele>
        <time>2020-07-21T07:01:37.000Z</time>
      </trkpt>
      <trkpt lat="42.9033048" lon="-5.6883715">
        <ele>1295.72</ele>
        <time>2020-07-21T07:01:38.000Z</time>
      </trkpt>
      <trkpt lat="42.9033042" lon="-5.6883718">
        <ele>1295.72</ele>
        <time>2020-07-21T07:01:39.000Z</time>
      </trkpt>
      <trkpt lat="42.903304" lon="-5.688372">
        <ele>1295.87</ele>
        <time>2020-07-21T07:01:40.000Z</time>
      </trkpt>
      <trkpt lat="42.903304" lon="-5.688372">
        <ele>1295.87</ele>
        <time>2020-07-21T07:01:41.000Z</time>
      </trkpt>
      <trkpt lat="42.9033038" lon="-5.688372">
        <ele>1296.03</ele>
        <time>2020-07-21T07:01:42.000Z</time>
      </trkpt>
      <trkpt lat="42.9033033" lon="-5.688372">
        <ele>1296.03</ele>
        <time>2020-07-21T07:01:43.000Z</time>
      </trkpt>
      <trkpt lat="42.9033028" lon="-5.688372">
        <ele>1296.03</ele>
        <time>2020-07-21T07:01:44.000Z</time>
      </trkpt>
      <trkpt lat="42.9033027" lon="-5.688372">
        <ele>1296.03</ele>
        <time>2020-07-21T07:01:45.000Z</time>
      </trkpt>
      <trkpt lat="42.9033032" lon="-5.6883723">
        <ele>1296.18</ele>
        <time>2020-07-21T07:01:46.000Z</time>
      </trkpt>
      <trkpt lat="42.9033038" lon="-5.6883727">
        <ele>1296.18</ele>
        <time>2020-07-21T07:01:47.000Z</time>
      </trkpt>
      <trkpt lat="42.9033043" lon="-5.6883728">
        <ele>1296.33</ele>
        <time>2020-07-21T07:01:48.000Z</time>
      </trkpt>
      <trkpt lat="42.903305" lon="-5.688373">
        <ele>1296.33</ele>
        <time>2020-07-21T07:01:49.000Z</time>
      </trkpt>
      <trkpt lat="42.9033057" lon="-5.6883732">
        <ele>1296.48</ele>
        <time>2020-07-21T07:01:50.000Z</time>
      </trkpt>
      <trkpt lat="42.9033063" lon="-5.6883732">
        <ele>1296.48</ele>
        <time>2020-07-21T07:01:51.000Z</time>
      </trkpt>
      <trkpt lat="42.903307" lon="-5.6883733">
        <ele>1296.64</ele>
        <time>2020-07-21T07:01:52.000Z</time>
      </trkpt>
      <trkpt lat="42.9033072" lon="-5.6883732">
        <ele>1296.64</ele>
        <time>2020-07-21T07:01:53.000Z</time>
      </trkpt>
      <trkpt lat="42.903307" lon="-5.6883727">
        <ele>1296.79</ele>
        <time>2020-07-21T07:01:54.000Z</time>
      </trkpt>
      <trkpt lat="42.9033072" lon="-5.6883723">
        <ele>1296.79</ele>
        <time>2020-07-21T07:01:55.000Z</time>
      </trkpt>
      <trkpt lat="42.9033072" lon="-5.6883718">
        <ele>1296.94</ele>
        <time>2020-07-21T07:01:56.000Z</time>
      </trkpt>
      <trkpt lat="42.9033077" lon="-5.6883713">
        <ele>1296.94</ele>
        <time>2020-07-21T07:01:57.000Z</time>
      </trkpt>
      <trkpt lat="42.9033075" lon="-5.6883703">
        <ele>1297.24</ele>
        <time>2020-07-21T07:01:58.000Z</time>
      </trkpt>
      <trkpt lat="42.903308" lon="-5.6883692">
        <ele>1297.24</ele>
        <time>2020-07-21T07:01:59.000Z</time>
      </trkpt>
      <trkpt lat="42.9033087" lon="-5.6883682">
        <ele>1297.4</ele>
        <time>2020-07-21T07:02:00.000Z</time>
      </trkpt>
      <trkpt lat="42.9033093" lon="-5.6883677">
        <ele>1297.4</ele>
        <time>2020-07-21T07:02:01.000Z</time>
      </trkpt>
      <trkpt lat="42.9033097" lon="-5.6883675">
        <ele>1297.55</ele>
        <time>2020-07-21T07:02:02.000Z</time>
      </trkpt>
      <trkpt lat="42.9033098" lon="-5.6883673">
        <ele>1297.55</ele>
        <time>2020-07-21T07:02:03.000Z</time>
      </trkpt>
      <trkpt lat="42.9033095" lon="-5.6883665">
        <ele>1297.7</ele>
        <time>2020-07-21T07:02:04.000Z</time>
      </trkpt>
      <trkpt lat="42.9033097" lon="-5.688367">
        <ele>1297.7</ele>
        <time>2020-07-21T07:02:05.000Z</time>
      </trkpt>
      <trkpt lat="42.9033122" lon="-5.6883673">
        <ele>1298.01</ele>
        <time>2020-07-21T07:02:06.000Z</time>
      </trkpt>
      <trkpt lat="42.9033177" lon="-5.6883693">
        <ele>1298.01</ele>
        <time>2020-07-21T07:02:07.000Z</time>
      </trkpt>
      <trkpt lat="42.9033255" lon="-5.6883697">
        <ele>1298.16</ele>
        <time>2020-07-21T07:02:08.000Z</time>
      </trkpt>
      <trkpt lat="42.9033347" lon="-5.6883682">
        <ele>1298.16</ele>
        <time>2020-07-21T07:02:09.000Z</time>
      </trkpt>
      <trkpt lat="42.9033452" lon="-5.6883643">
        <ele>1298.31</ele>
        <time>2020-07-21T07:02:10.000Z</time>
      </trkpt>
      <trkpt lat="42.9033568" lon="-5.6883567">
        <ele>1298.31</ele>
        <time>2020-07-21T07:02:11.000Z</time>
      </trkpt>
      <trkpt lat="42.9033685" lon="-5.688348">
        <ele>1298.46</ele>
        <time>2020-07-21T07:02:12.000Z</time>
      </trkpt>
      <trkpt lat="42.9033798" lon="-5.6883392">
        <ele>1298.46</ele>
        <time>2020-07-21T07:02:13.000Z</time>
      </trkpt>
      <trkpt lat="42.9033918" lon="-5.6883322">
        <ele>1298.62</ele>
        <time>2020-07-21T07:02:14.000Z</time>
      </trkpt>
      <trkpt lat="42.9034055" lon="-5.688323">
        <ele>1298.62</ele>
        <time>2020-07-21T07:02:15.000Z</time>
      </trkpt>
      <trkpt lat="42.9034192" lon="-5.6883143">
        <ele>1298.77</ele>
        <time>2020-07-21T07:02:16.000Z</time>
      </trkpt>
      <trkpt lat="42.9034318" lon="-5.6883058">
        <ele>1298.77</ele>
        <time>2020-07-21T07:02:17.000Z</time>
      </trkpt>
      <trkpt lat="42.9034433" lon="-5.6882967">
        <ele>1298.77</ele>
        <time>2020-07-21T07:02:18.000Z</time>
      </trkpt>
      <trkpt lat="42.9034533" lon="-5.6882852">
        <ele>1298.77</ele>
        <time>2020-07-21T07:02:19.000Z</time>
      </trkpt>
      <trkpt lat="42.9034617" lon="-5.6882747">
        <ele>1298.92</ele>
        <time>2020-07-21T07:02:20.000Z</time>
      </trkpt>
      <trkpt lat="42.9034695" lon="-5.6882673">
        <ele>1298.92</ele>
        <time>2020-07-21T07:02:21.000Z</time>
      </trkpt>
      <trkpt lat="42.903478" lon="-5.6882583">
        <ele>1299.07</ele>
        <time>2020-07-21T07:02:22.000Z</time>
      </trkpt>
      <trkpt lat="42.9034842" lon="-5.6882493">
        <ele>1299.07</ele>
        <time>2020-07-21T07:02:23.000Z</time>
      </trkpt>
      <trkpt lat="42.9034883" lon="-5.6882405">
        <ele>1299.23</ele>
        <time>2020-07-21T07:02:24.000Z</time>
      </trkpt>
      <trkpt lat="42.903492" lon="-5.6882343">
        <ele>1299.23</ele>
        <time>2020-07-21T07:02:25.000Z</time>
      </trkpt>
      <trkpt lat="42.9034977" lon="-5.6882268">
        <ele>1299.38</ele>
        <time>2020-07-21T07:02:26.000Z</time>
      </trkpt>
      <trkpt lat="42.9035045" lon="-5.688218">
        <ele>1299.38</ele>
        <time>2020-07-21T07:02:27.000Z</time>
      </trkpt>
      <trkpt lat="42.9035113" lon="-5.688207">
        <ele>1299.53</ele>
        <time>2020-07-21T07:02:28.000Z</time>
      </trkpt>
      <trkpt lat="42.9035182" lon="-5.6881945">
        <ele>1299.53</ele>
        <time>2020-07-21T07:02:29.000Z</time>
      </trkpt>
      <trkpt lat="42.9035245" lon="-5.6881805">
        <ele>1299.53</ele>
        <time>2020-07-21T07:02:30.000Z</time>
      </trkpt>
      <trkpt lat="42.9035313" lon="-5.6881672">
        <ele>1299.53</ele>
        <time>2020-07-21T07:02:31.000Z</time>
      </trkpt>
      <trkpt lat="42.9035383" lon="-5.688153">
        <ele>1299.68</ele>
        <time>2020-07-21T07:02:32.000Z</time>
      </trkpt>
      <trkpt lat="42.9035447" lon="-5.6881375">
        <ele>1299.68</ele>
        <time>2020-07-21T07:02:33.000Z</time>
      </trkpt>
      <trkpt lat="42.9035472" lon="-5.6881178">
        <ele>1299.83</ele>
        <time>2020-07-21T07:02:34.000Z</time>
      </trkpt>
      <trkpt lat="42.9035487" lon="-5.6880983">
        <ele>1299.83</ele>
        <time>2020-07-21T07:02:35.000Z</time>
      </trkpt>
      <trkpt lat="42.9035483" lon="-5.6880792">
        <ele>1299.99</ele>
        <time>2020-07-21T07:02:36.000Z</time>
      </trkpt>
      <trkpt lat="42.9035472" lon="-5.688061">
        <ele>1299.99</ele>
        <time>2020-07-21T07:02:37.000Z</time>
      </trkpt>
      <trkpt lat="42.9035428" lon="-5.6880422">
        <ele>1300.14</ele>
        <time>2020-07-21T07:02:38.000Z</time>
      </trkpt>
      <trkpt lat="42.9035377" lon="-5.6880237">
        <ele>1300.14</ele>
        <time>2020-07-21T07:02:39.000Z</time>
      </trkpt>
      <trkpt lat="42.9035337" lon="-5.6880072">
        <ele>1300.29</ele>
        <time>2020-07-21T07:02:40.000Z</time>
      </trkpt>
      <trkpt lat="42.9035315" lon="-5.6879912">
        <ele>1300.29</ele>
        <time>2020-07-21T07:02:41.000Z</time>
      </trkpt>
      <trkpt lat="42.9035307" lon="-5.6879753">
        <ele>1300.44</ele>
        <time>2020-07-21T07:02:42.000Z</time>
      </trkpt>
      <trkpt lat="42.9035292" lon="-5.687958">
        <ele>1300.44</ele>
        <time>2020-07-21T07:02:43.000Z</time>
      </trkpt>
      <trkpt lat="42.903526" lon="-5.6879405">
        <ele>1300.6</ele>
        <time>2020-07-21T07:02:44.000Z</time>
      </trkpt>
      <trkpt lat="42.9035217" lon="-5.6879228">
        <ele>1300.6</ele>
        <time>2020-07-21T07:02:45.000Z</time>
      </trkpt>
      <trkpt lat="42.9035182" lon="-5.6879057">
        <ele>1300.75</ele>
        <time>2020-07-21T07:02:46.000Z</time>
      </trkpt>
      <trkpt lat="42.9035143" lon="-5.6878888">
        <ele>1300.75</ele>
        <time>2020-07-21T07:02:47.000Z</time>
      </trkpt>
      <trkpt lat="42.9035108" lon="-5.6878728">
        <ele>1300.9</ele>
        <time>2020-07-21T07:02:48.000Z</time>
      </trkpt>
      <trkpt lat="42.9035073" lon="-5.6878577">
        <ele>1300.9</ele>
        <time>2020-07-21T07:02:49.000Z</time>
      </trkpt>
      <trkpt lat="42.9035047" lon="-5.6878415">
        <ele>1301.06</ele>
        <time>2020-07-21T07:02:50.000Z</time>
      </trkpt>
      <trkpt lat="42.9035028" lon="-5.6878245">
        <ele>1301.06</ele>
        <time>2020-07-21T07:02:51.000Z</time>
      </trkpt>
      <trkpt lat="42.9035027" lon="-5.6878067">
        <ele>1301.21</ele>
        <time>2020-07-21T07:02:52.000Z</time>
      </trkpt>
      <trkpt lat="42.9035043" lon="-5.6877897">
        <ele>1301.21</ele>
        <time>2020-07-21T07:02:53.000Z</time>
      </trkpt>
      <trkpt lat="42.9035075" lon="-5.6877735">
        <ele>1301.36</ele>
        <time>2020-07-21T07:02:54.000Z</time>
      </trkpt>
      <trkpt lat="42.9035107" lon="-5.6877582">
        <ele>1301.36</ele>
        <time>2020-07-21T07:02:55.000Z</time>
      </trkpt>
      <trkpt lat="42.9035145" lon="-5.6877435">
        <ele>1301.66</ele>
        <time>2020-07-21T07:02:56.000Z</time>
      </trkpt>
      <trkpt lat="42.9035182" lon="-5.6877278">
        <ele>1301.66</ele>
        <time>2020-07-21T07:02:57.000Z</time>
      </trkpt>
      <trkpt lat="42.903523" lon="-5.687711">
        <ele>1301.82</ele>
        <time>2020-07-21T07:02:58.000Z</time>
      </trkpt>
      <trkpt lat="42.9035302" lon="-5.6876943">
        <ele>1301.82</ele>
        <time>2020-07-21T07:02:59.000Z</time>
      </trkpt>
      <trkpt lat="42.9035387" lon="-5.6876792">
        <ele>1301.97</ele>
        <time>2020-07-21T07:03:00.000Z</time>
      </trkpt>
      <trkpt lat="42.9035475" lon="-5.6876658">
        <ele>1301.97</ele>
        <time>2020-07-21T07:03:01.000Z</time>
      </trkpt>
      <trkpt lat="42.9035557" lon="-5.6876525">
        <ele>1302.27</ele>
        <time>2020-07-21T07:03:02.000Z</time>
      </trkpt>
      <trkpt lat="42.9035638" lon="-5.687639">
        <ele>1302.27</ele>
        <time>2020-07-21T07:03:03.000Z</time>
      </trkpt>
      <trkpt lat="42.9035725" lon="-5.6876245">
        <ele>1302.43</ele>
        <time>2020-07-21T07:03:04.000Z</time>
      </trkpt>
      <trkpt lat="42.9035808" lon="-5.6876105">
        <ele>1302.43</ele>
        <time>2020-07-21T07:03:05.000Z</time>
      </trkpt>
      <trkpt lat="42.9035903" lon="-5.6875965">
        <ele>1302.73</ele>
        <time>2020-07-21T07:03:06.000Z</time>
      </trkpt>
      <trkpt lat="42.9036" lon="-5.6875838">
        <ele>1302.73</ele>
        <time>2020-07-21T07:03:07.000Z</time>
      </trkpt>
      <trkpt lat="42.9036105" lon="-5.6875727">
        <ele>1303.04</ele>
        <time>2020-07-21T07:03:08.000Z</time>
      </trkpt>
      <trkpt lat="42.9036213" lon="-5.6875628">
        <ele>1303.04</ele>
        <time>2020-07-21T07:03:09.000Z</time>
      </trkpt>
      <trkpt lat="42.9036322" lon="-5.6875538">
        <ele>1303.19</ele>
        <time>2020-07-21T07:03:10.000Z</time>
      </trkpt>
      <trkpt lat="42.9036427" lon="-5.6875438">
        <ele>1303.19</ele>
        <time>2020-07-21T07:03:11.000Z</time>
      </trkpt>
      <trkpt lat="42.903653" lon="-5.6875337">
        <ele>1303.49</ele>
        <time>2020-07-21T07:03:12.000Z</time>
      </trkpt>
      <trkpt lat="42.9036642" lon="-5.6875245">
        <ele>1303.49</ele>
        <time>2020-07-21T07:03:13.000Z</time>
      </trkpt>
      <trkpt lat="42.9036758" lon="-5.6875167">
        <ele>1303.65</ele>
        <time>2020-07-21T07:03:14.000Z</time>
      </trkpt>
      <trkpt lat="42.9036875" lon="-5.6875102">
        <ele>1303.65</ele>
        <time>2020-07-21T07:03:15.000Z</time>
      </trkpt>
      <trkpt lat="42.9036982" lon="-5.687504">
        <ele>1303.95</ele>
        <time>2020-07-21T07:03:16.000Z</time>
      </trkpt>
      <trkpt lat="42.9037105" lon="-5.6874965">
        <ele>1303.95</ele>
        <time>2020-07-21T07:03:17.000Z</time>
      </trkpt>
      <trkpt lat="42.9037208" lon="-5.687489">
        <ele>1304.26</ele>
        <time>2020-07-21T07:03:18.000Z</time>
      </trkpt>
      <trkpt lat="42.9037312" lon="-5.6874823">
        <ele>1304.26</ele>
        <time>2020-07-21T07:03:19.000Z</time>
      </trkpt>
      <trkpt lat="42.9037397" lon="-5.6874775">
        <ele>1304.41</ele>
        <time>2020-07-21T07:03:20.000Z</time>
      </trkpt>
      <trkpt lat="42.90375" lon="-5.6874722">
        <ele>1304.41</ele>
        <time>2020-07-21T07:03:21.000Z</time>
      </trkpt>
      <trkpt lat="42.9037612" lon="-5.6874653">
        <ele>1304.71</ele>
        <time>2020-07-21T07:03:22.000Z</time>
      </trkpt>
      <trkpt lat="42.9037732" lon="-5.6874603">
        <ele>1304.71</ele>
        <time>2020-07-21T07:03:23.000Z</time>
      </trkpt>
      <trkpt lat="42.9037848" lon="-5.6874562">
        <ele>1305.02</ele>
        <time>2020-07-21T07:03:24.000Z</time>
      </trkpt>
      <trkpt lat="42.9037958" lon="-5.6874507">
        <ele>1305.02</ele>
        <time>2020-07-21T07:03:25.000Z</time>
      </trkpt>
      <trkpt lat="42.9038063" lon="-5.687443">
        <ele>1305.32</ele>
        <time>2020-07-21T07:03:26.000Z</time>
      </trkpt>
      <trkpt lat="42.9038172" lon="-5.6874343">
        <ele>1305.32</ele>
        <time>2020-07-21T07:03:27.000Z</time>
      </trkpt>
      <trkpt lat="42.9038297" lon="-5.6874258">
        <ele>1305.63</ele>
        <time>2020-07-21T07:03:28.000Z</time>
      </trkpt>
      <trkpt lat="42.9038415" lon="-5.6874165">
        <ele>1305.63</ele>
        <time>2020-07-21T07:03:29.000Z</time>
      </trkpt>
      <trkpt lat="42.9038522" lon="-5.6874077">
        <ele>1305.93</ele>
        <time>2020-07-21T07:03:30.000Z</time>
      </trkpt>
      <trkpt lat="42.9038612" lon="-5.6873992">
        <ele>1305.93</ele>
        <time>2020-07-21T07:03:31.000Z</time>
      </trkpt>
      <trkpt lat="42.9038723" lon="-5.6873915">
        <ele>1306.24</ele>
        <time>2020-07-21T07:03:32.000Z</time>
      </trkpt>
      <trkpt lat="42.9038855" lon="-5.687383">
        <ele>1306.24</ele>
        <time>2020-07-21T07:03:33.000Z</time>
      </trkpt>
      <trkpt lat="42.903899" lon="-5.6873752">
        <ele>1306.54</ele>
        <time>2020-07-21T07:03:34.000Z</time>
      </trkpt>
      <trkpt lat="42.9039113" lon="-5.6873668">
        <ele>1306.54</ele>
        <time>2020-07-21T07:03:35.000Z</time>
      </trkpt>
      <trkpt lat="42.9039225" lon="-5.6873587">
        <ele>1306.85</ele>
        <time>2020-07-21T07:03:36.000Z</time>
      </trkpt>
      <trkpt lat="42.9039332" lon="-5.6873502">
        <ele>1306.85</ele>
        <time>2020-07-21T07:03:37.000Z</time>
      </trkpt>
      <trkpt lat="42.9039442" lon="-5.6873417">
        <ele>1307.15</ele>
        <time>2020-07-21T07:03:38.000Z</time>
      </trkpt>
      <trkpt lat="42.9039562" lon="-5.687334">
        <ele>1307.15</ele>
        <time>2020-07-21T07:03:39.000Z</time>
      </trkpt>
      <trkpt lat="42.9039683" lon="-5.6873282">
        <ele>1307.45</ele>
        <time>2020-07-21T07:03:40.000Z</time>
      </trkpt>
      <trkpt lat="42.9039795" lon="-5.6873228">
        <ele>1307.45</ele>
        <time>2020-07-21T07:03:41.000Z</time>
      </trkpt>
      <trkpt lat="42.903991" lon="-5.687316">
        <ele>1307.76</ele>
        <time>2020-07-21T07:03:42.000Z</time>
      </trkpt>
      <trkpt lat="42.9040038" lon="-5.6873083">
        <ele>1307.76</ele>
        <time>2020-07-21T07:03:43.000Z</time>
      </trkpt>
      <trkpt lat="42.9040173" lon="-5.6873008">
        <ele>1308.06</ele>
        <time>2020-07-21T07:03:44.000Z</time>
      </trkpt>
      <trkpt lat="42.9040308" lon="-5.6872933">
        <ele>1308.06</ele>
        <time>2020-07-21T07:03:45.000Z</time>
      </trkpt>
      <trkpt lat="42.9040432" lon="-5.687286">
        <ele>1308.22</ele>
        <time>2020-07-21T07:03:46.000Z</time>
      </trkpt>
      <trkpt lat="42.9040558" lon="-5.6872783">
        <ele>1308.22</ele>
        <time>2020-07-21T07:03:47.000Z</time>
      </trkpt>
      <trkpt lat="42.9040678" lon="-5.6872718">
        <ele>1308.52</ele>
        <time>2020-07-21T07:03:48.000Z</time>
      </trkpt>
      <trkpt lat="42.9040802" lon="-5.6872652">
        <ele>1308.52</ele>
        <time>2020-07-21T07:03:49.000Z</time>
      </trkpt>
      <trkpt lat="42.904092" lon="-5.6872587">
        <ele>1308.83</ele>
        <time>2020-07-21T07:03:50.000Z</time>
      </trkpt>
      <trkpt lat="42.9041032" lon="-5.6872518">
        <ele>1308.83</ele>
        <time>2020-07-21T07:03:51.000Z</time>
      </trkpt>
      <trkpt lat="42.904114" lon="-5.6872453">
        <ele>1308.98</ele>
        <time>2020-07-21T07:03:52.000Z</time>
      </trkpt>
      <trkpt lat="42.9041255" lon="-5.6872388">
        <ele>1308.98</ele>
        <time>2020-07-21T07:03:53.000Z</time>
      </trkpt>
      <trkpt lat="42.9041373" lon="-5.6872338">
        <ele>1309.28</ele>
        <time>2020-07-21T07:03:54.000Z</time>
      </trkpt>
      <trkpt lat="42.90415" lon="-5.6872275">
        <ele>1309.28</ele>
        <time>2020-07-21T07:03:55.000Z</time>
      </trkpt>
      <trkpt lat="42.9041622" lon="-5.6872212">
        <ele>1309.59</ele>
        <time>2020-07-21T07:03:56.000Z</time>
      </trkpt>
      <trkpt lat="42.9041745" lon="-5.6872147">
        <ele>1309.59</ele>
        <time>2020-07-21T07:03:57.000Z</time>
      </trkpt>
      <trkpt lat="42.9041865" lon="-5.6872082">
        <ele>1309.74</ele>
        <time>2020-07-21T07:03:58.000Z</time>
      </trkpt>
      <trkpt lat="42.9041987" lon="-5.6872017">
        <ele>1309.74</ele>
        <time>2020-07-21T07:03:59.000Z</time>
      </trkpt>
      <trkpt lat="42.9042095" lon="-5.6871965">
        <ele>1310.05</ele>
        <time>2020-07-21T07:04:00.000Z</time>
      </trkpt>
      <trkpt lat="42.9042192" lon="-5.6871923">
        <ele>1310.05</ele>
        <time>2020-07-21T07:04:01.000Z</time>
      </trkpt>
      <trkpt lat="42.9042287" lon="-5.6871873">
        <ele>1310.35</ele>
        <time>2020-07-21T07:04:02.000Z</time>
      </trkpt>
      <trkpt lat="42.9042412" lon="-5.6871802">
        <ele>1310.35</ele>
        <time>2020-07-21T07:04:03.000Z</time>
      </trkpt>
      <trkpt lat="42.9042548" lon="-5.6871733">
        <ele>1310.66</ele>
        <time>2020-07-21T07:04:04.000Z</time>
      </trkpt>
      <trkpt lat="42.9042685" lon="-5.6871668">
        <ele>1310.66</ele>
        <time>2020-07-21T07:04:05.000Z</time>
      </trkpt>
      <trkpt lat="42.9042795" lon="-5.687162">
        <ele>1310.96</ele>
        <time>2020-07-21T07:04:06.000Z</time>
      </trkpt>
      <trkpt lat="42.9042907" lon="-5.6871578">
        <ele>1310.96</ele>
        <time>2020-07-21T07:04:07.000Z</time>
      </trkpt>
      <trkpt lat="42.9043023" lon="-5.6871532">
        <ele>1311.27</ele>
        <time>2020-07-21T07:04:08.000Z</time>
      </trkpt>
      <trkpt lat="42.9043137" lon="-5.6871488">
        <ele>1311.27</ele>
        <time>2020-07-21T07:04:09.000Z</time>
      </trkpt>
      <trkpt lat="42.9043248" lon="-5.6871443">
        <ele>1311.57</ele>
        <time>2020-07-21T07:04:10.000Z</time>
      </trkpt>
      <trkpt lat="42.9043355" lon="-5.6871403">
        <ele>1311.57</ele>
        <time>2020-07-21T07:04:11.000Z</time>
      </trkpt>
      <trkpt lat="42.9043468" lon="-5.6871355">
        <ele>1311.88</ele>
        <time>2020-07-21T07:04:12.000Z</time>
      </trkpt>
      <trkpt lat="42.904359" lon="-5.6871312">
        <ele>1311.88</ele>
        <time>2020-07-21T07:04:13.000Z</time>
      </trkpt>
      <trkpt lat="42.9043733" lon="-5.6871268">
        <ele>1312.18</ele>
        <time>2020-07-21T07:04:14.000Z</time>
      </trkpt>
      <trkpt lat="42.9043857" lon="-5.687124">
        <ele>1312.18</ele>
        <time>2020-07-21T07:04:15.000Z</time>
      </trkpt>
      <trkpt lat="42.9043977" lon="-5.6871213">
        <ele>1312.48</ele>
        <time>2020-07-21T07:04:16.000Z</time>
      </trkpt>
      <trkpt lat="42.9044078" lon="-5.6871202">
        <ele>1312.48</ele>
        <time>2020-07-21T07:04:17.000Z</time>
      </trkpt>
      <trkpt lat="42.9044212" lon="-5.687119">
        <ele>1312.79</ele>
        <time>2020-07-21T07:04:18.000Z</time>
      </trkpt>
      <trkpt lat="42.9044347" lon="-5.6871198">
        <ele>1312.79</ele>
        <time>2020-07-21T07:04:19.000Z</time>
      </trkpt>
      <trkpt lat="42.9044477" lon="-5.6871222">
        <ele>1313.25</ele>
        <time>2020-07-21T07:04:20.000Z</time>
      </trkpt>
      <trkpt lat="42.9044588" lon="-5.6871255">
        <ele>1313.25</ele>
        <time>2020-07-21T07:04:21.000Z</time>
      </trkpt>
      <trkpt lat="42.9044707" lon="-5.6871298">
        <ele>1313.55</ele>
        <time>2020-07-21T07:04:22.000Z</time>
      </trkpt>
      <trkpt lat="42.9044822" lon="-5.6871338">
        <ele>1313.55</ele>
        <time>2020-07-21T07:04:23.000Z</time>
      </trkpt>
      <trkpt lat="42.9044932" lon="-5.6871378">
        <ele>1313.86</ele>
        <time>2020-07-21T07:04:24.000Z</time>
      </trkpt>
      <trkpt lat="42.9045045" lon="-5.6871412">
        <ele>1313.86</ele>
        <time>2020-07-21T07:04:25.000Z</time>
      </trkpt>
      <trkpt lat="42.9045165" lon="-5.6871445">
        <ele>1314.31</ele>
        <time>2020-07-21T07:04:26.000Z</time>
      </trkpt>
      <trkpt lat="42.9045315" lon="-5.6871453">
        <ele>1314.31</ele>
        <time>2020-07-21T07:04:27.000Z</time>
      </trkpt>
      <trkpt lat="42.904545" lon="-5.6871463">
        <ele>1314.62</ele>
        <time>2020-07-21T07:04:28.000Z</time>
      </trkpt>
      <trkpt lat="42.9045585" lon="-5.6871475">
        <ele>1314.62</ele>
        <time>2020-07-21T07:04:29.000Z</time>
      </trkpt>
      <trkpt lat="42.9045695" lon="-5.6871502">
        <ele>1314.92</ele>
        <time>2020-07-21T07:04:30.000Z</time>
      </trkpt>
      <trkpt lat="42.9045812" lon="-5.6871512">
        <ele>1314.92</ele>
        <time>2020-07-21T07:04:31.000Z</time>
      </trkpt>
      <trkpt lat="42.9045933" lon="-5.6871505">
        <ele>1315.38</ele>
        <time>2020-07-21T07:04:32.000Z</time>
      </trkpt>
      <trkpt lat="42.9046048" lon="-5.6871508">
        <ele>1315.38</ele>
        <time>2020-07-21T07:04:33.000Z</time>
      </trkpt>
      <trkpt lat="42.904616" lon="-5.6871522">
        <ele>1315.69</ele>
        <time>2020-07-21T07:04:34.000Z</time>
      </trkpt>
      <trkpt lat="42.9046275" lon="-5.6871567">
        <ele>1315.69</ele>
        <time>2020-07-21T07:04:35.000Z</time>
      </trkpt>
      <trkpt lat="42.90464" lon="-5.687162">
        <ele>1315.99</ele>
        <time>2020-07-21T07:04:36.000Z</time>
      </trkpt>
      <trkpt lat="42.9046533" lon="-5.6871683">
        <ele>1315.99</ele>
        <time>2020-07-21T07:04:37.000Z</time>
      </trkpt>
      <trkpt lat="42.9046655" lon="-5.6871738">
        <ele>1316.3</ele>
        <time>2020-07-21T07:04:38.000Z</time>
      </trkpt>
      <trkpt lat="42.9046767" lon="-5.6871777">
        <ele>1316.3</ele>
        <time>2020-07-21T07:04:39.000Z</time>
      </trkpt>
      <trkpt lat="42.904688" lon="-5.6871823">
        <ele>1316.6</ele>
        <time>2020-07-21T07:04:40.000Z</time>
      </trkpt>
      <trkpt lat="42.9046982" lon="-5.6871877">
        <ele>1316.6</ele>
        <time>2020-07-21T07:04:41.000Z</time>
      </trkpt>
      <trkpt lat="42.9047088" lon="-5.687195">
        <ele>1316.9</ele>
        <time>2020-07-21T07:04:42.000Z</time>
      </trkpt>
      <trkpt lat="42.904718" lon="-5.687201">
        <ele>1316.9</ele>
        <time>2020-07-21T07:04:43.000Z</time>
      </trkpt>
      <trkpt lat="42.9047272" lon="-5.687208">
        <ele>1317.21</ele>
        <time>2020-07-21T07:04:44.000Z</time>
      </trkpt>
      <trkpt lat="42.9047368" lon="-5.6872157">
        <ele>1317.21</ele>
        <time>2020-07-21T07:04:45.000Z</time>
      </trkpt>
      <trkpt lat="42.904747" lon="-5.6872248">
        <ele>1317.51</ele>
        <time>2020-07-21T07:04:46.000Z</time>
      </trkpt>
      <trkpt lat="42.9047567" lon="-5.6872317">
        <ele>1317.51</ele>
        <time>2020-07-21T07:04:47.000Z</time>
      </trkpt>
      <trkpt lat="42.9047653" lon="-5.6872378">
        <ele>1317.82</ele>
        <time>2020-07-21T07:04:48.000Z</time>
      </trkpt>
      <trkpt lat="42.9047728" lon="-5.6872445">
        <ele>1317.82</ele>
        <time>2020-07-21T07:04:49.000Z</time>
      </trkpt>
      <trkpt lat="42.9047817" lon="-5.687252">
        <ele>1318.12</ele>
        <time>2020-07-21T07:04:50.000Z</time>
      </trkpt>
      <trkpt lat="42.9047902" lon="-5.6872603">
        <ele>1318.12</ele>
        <time>2020-07-21T07:04:51.000Z</time>
      </trkpt>
      <trkpt lat="42.9047992" lon="-5.6872678">
        <ele>1318.43</ele>
        <time>2020-07-21T07:04:52.000Z</time>
      </trkpt>
      <trkpt lat="42.9048082" lon="-5.6872755">
        <ele>1318.43</ele>
        <time>2020-07-21T07:04:53.000Z</time>
      </trkpt>
      <trkpt lat="42.9048178" lon="-5.6872812">
        <ele>1318.73</ele>
        <time>2020-07-21T07:04:54.000Z</time>
      </trkpt>
      <trkpt lat="42.904827" lon="-5.6872863">
        <ele>1318.73</ele>
        <time>2020-07-21T07:04:55.000Z</time>
      </trkpt>
      <trkpt lat="42.9048358" lon="-5.6872912">
        <ele>1319.04</ele>
        <time>2020-07-21T07:04:56.000Z</time>
      </trkpt>
      <trkpt lat="42.9048453" lon="-5.6872963">
        <ele>1319.04</ele>
        <time>2020-07-21T07:04:57.000Z</time>
      </trkpt>
      <trkpt lat="42.9048558" lon="-5.6873012">
        <ele>1319.34</ele>
        <time>2020-07-21T07:04:58.000Z</time>
      </trkpt>
      <trkpt lat="42.9048663" lon="-5.687306">
        <ele>1319.34</ele>
        <time>2020-07-21T07:04:59.000Z</time>
      </trkpt>
      <trkpt lat="42.9048772" lon="-5.6873083">
        <ele>1319.8</ele>
        <time>2020-07-21T07:05:00.000Z</time>
      </trkpt>
      <trkpt lat="42.9048893" lon="-5.6873053">
        <ele>1319.8</ele>
        <time>2020-07-21T07:05:01.000Z</time>
      </trkpt>
      <trkpt lat="42.9049008" lon="-5.6873005">
        <ele>1320.1</ele>
        <time>2020-07-21T07:05:02.000Z</time>
      </trkpt>
      <trkpt lat="42.9049103" lon="-5.6872965">
        <ele>1320.1</ele>
        <time>2020-07-21T07:05:03.000Z</time>
      </trkpt>
      <trkpt lat="42.9049183" lon="-5.687295">
        <ele>1320.41</ele>
        <time>2020-07-21T07:05:04.000Z</time>
      </trkpt>
      <trkpt lat="42.9049265" lon="-5.6872935">
        <ele>1320.41</ele>
        <time>2020-07-21T07:05:05.000Z</time>
      </trkpt>
      <trkpt lat="42.9049348" lon="-5.6872922">
        <ele>1320.87</ele>
        <time>2020-07-21T07:05:06.000Z</time>
      </trkpt>
      <trkpt lat="42.9049443" lon="-5.6872907">
        <ele>1320.87</ele>
        <time>2020-07-21T07:05:07.000Z</time>
      </trkpt>
      <trkpt lat="42.904956" lon="-5.6872892">
        <ele>1321.17</ele>
        <time>2020-07-21T07:05:08.000Z</time>
      </trkpt>
      <trkpt lat="42.9049677" lon="-5.6872873">
        <ele>1321.17</ele>
        <time>2020-07-21T07:05:09.000Z</time>
      </trkpt>
      <trkpt lat="42.9049788" lon="-5.6872872">
        <ele>1321.63</ele>
        <time>2020-07-21T07:05:10.000Z</time>
      </trkpt>
      <trkpt lat="42.9049888" lon="-5.6872863">
        <ele>1321.63</ele>
        <time>2020-07-21T07:05:11.000Z</time>
      </trkpt>
      <trkpt lat="42.9049992" lon="-5.6872867">
        <ele>1321.93</ele>
        <time>2020-07-21T07:05:12.000Z</time>
      </trkpt>
      <trkpt lat="42.90501" lon="-5.6872852">
        <ele>1321.93</ele>
        <time>2020-07-21T07:05:13.000Z</time>
      </trkpt>
      <trkpt lat="42.9050203" lon="-5.687285">
        <ele>1322.39</ele>
        <time>2020-07-21T07:05:14.000Z</time>
      </trkpt>
      <trkpt lat="42.9050308" lon="-5.6872833">
        <ele>1322.39</ele>
        <time>2020-07-21T07:05:15.000Z</time>
      </trkpt>
      <trkpt lat="42.9050398" lon="-5.6872825">
        <ele>1322.7</ele>
        <time>2020-07-21T07:05:16.000Z</time>
      </trkpt>
      <trkpt lat="42.905049" lon="-5.6872808">
        <ele>1322.7</ele>
        <time>2020-07-21T07:05:17.000Z</time>
      </trkpt>
      <trkpt lat="42.9050598" lon="-5.6872785">
        <ele>1323.15</ele>
        <time>2020-07-21T07:05:18.000Z</time>
      </trkpt>
      <trkpt lat="42.9050715" lon="-5.6872777">
        <ele>1323.15</ele>
        <time>2020-07-21T07:05:19.000Z</time>
      </trkpt>
      <trkpt lat="42.9050818" lon="-5.6872767">
        <ele>1323.61</ele>
        <time>2020-07-21T07:05:20.000Z</time>
      </trkpt>
      <trkpt lat="42.905091" lon="-5.6872757">
        <ele>1323.61</ele>
        <time>2020-07-21T07:05:21.000Z</time>
      </trkpt>
      <trkpt lat="42.9051003" lon="-5.6872725">
        <ele>1323.92</ele>
        <time>2020-07-21T07:05:22.000Z</time>
      </trkpt>
      <trkpt lat="42.9051102" lon="-5.687269">
        <ele>1323.92</ele>
        <time>2020-07-21T07:05:23.000Z</time>
      </trkpt>
      <trkpt lat="42.905119" lon="-5.687266">
        <ele>1324.37</ele>
        <time>2020-07-21T07:05:24.000Z</time>
      </trkpt>
      <trkpt lat="42.905128" lon="-5.6872627">
        <ele>1324.37</ele>
        <time>2020-07-21T07:05:25.000Z</time>
      </trkpt>
      <trkpt lat="42.9051375" lon="-5.6872587">
        <ele>1324.83</ele>
        <time>2020-07-21T07:05:26.000Z</time>
      </trkpt>
      <trkpt lat="42.9051473" lon="-5.6872537">
        <ele>1324.83</ele>
        <time>2020-07-21T07:05:27.000Z</time>
      </trkpt>
      <trkpt lat="42.9051557" lon="-5.6872492">
        <ele>1325.13</ele>
        <time>2020-07-21T07:05:28.000Z</time>
      </trkpt>
      <trkpt lat="42.9051665" lon="-5.6872428">
        <ele>1325.13</ele>
        <time>2020-07-21T07:05:29.000Z</time>
      </trkpt>
      <trkpt lat="42.9051777" lon="-5.687237">
        <ele>1325.59</ele>
        <time>2020-07-21T07:05:30.000Z</time>
      </trkpt>
      <trkpt lat="42.9051907" lon="-5.6872307">
        <ele>1325.59</ele>
        <time>2020-07-21T07:05:31.000Z</time>
      </trkpt>
      <trkpt lat="42.9052013" lon="-5.687227">
        <ele>1326.05</ele>
        <time>2020-07-21T07:05:32.000Z</time>
      </trkpt>
      <trkpt lat="42.9052113" lon="-5.6872238">
        <ele>1326.05</ele>
        <time>2020-07-21T07:05:33.000Z</time>
      </trkpt>
      <trkpt lat="42.9052212" lon="-5.6872205">
        <ele>1326.35</ele>
        <time>2020-07-21T07:05:34.000Z</time>
      </trkpt>
      <trkpt lat="42.9052313" lon="-5.687217">
        <ele>1326.35</ele>
        <time>2020-07-21T07:05:35.000Z</time>
      </trkpt>
      <trkpt lat="42.9052428" lon="-5.6872132">
        <ele>1326.81</ele>
        <time>2020-07-21T07:05:36.000Z</time>
      </trkpt>
      <trkpt lat="42.9052532" lon="-5.6872108">
        <ele>1326.81</ele>
        <time>2020-07-21T07:05:37.000Z</time>
      </trkpt>
      <trkpt lat="42.905263" lon="-5.6872073">
        <ele>1327.11</ele>
        <time>2020-07-21T07:05:38.000Z</time>
      </trkpt>
      <trkpt lat="42.905272" lon="-5.6872045">
        <ele>1327.11</ele>
        <time>2020-07-21T07:05:39.000Z</time>
      </trkpt>
      <trkpt lat="42.905282" lon="-5.6872017">
        <ele>1327.42</ele>
        <time>2020-07-21T07:05:40.000Z</time>
      </trkpt>
      <trkpt lat="42.9052922" lon="-5.6872002">
        <ele>1327.42</ele>
        <time>2020-07-21T07:05:41.000Z</time>
      </trkpt>
      <trkpt lat="42.9053025" lon="-5.6871968">
        <ele>1327.88</ele>
        <time>2020-07-21T07:05:42.000Z</time>
      </trkpt>
      <trkpt lat="42.9053132" lon="-5.6871927">
        <ele>1327.88</ele>
        <time>2020-07-21T07:05:43.000Z</time>
      </trkpt>
      <trkpt lat="42.9053245" lon="-5.6871882">
        <ele>1328.18</ele>
        <time>2020-07-21T07:05:44.000Z</time>
      </trkpt>
      <trkpt lat="42.9053355" lon="-5.6871858">
        <ele>1328.18</ele>
        <time>2020-07-21T07:05:45.000Z</time>
      </trkpt>
      <trkpt lat="42.9053458" lon="-5.6871847">
        <ele>1328.49</ele>
        <time>2020-07-21T07:05:46.000Z</time>
      </trkpt>
      <trkpt lat="42.9053557" lon="-5.687184">
        <ele>1328.49</ele>
        <time>2020-07-21T07:05:47.000Z</time>
      </trkpt>
      <trkpt lat="42.9053648" lon="-5.6871827">
        <ele>1328.79</ele>
        <time>2020-07-21T07:05:48.000Z</time>
      </trkpt>
      <trkpt lat="42.9053742" lon="-5.6871817">
        <ele>1328.79</ele>
        <time>2020-07-21T07:05:49.000Z</time>
      </trkpt>
      <trkpt lat="42.9053827" lon="-5.6871818">
        <ele>1329.1</ele>
        <time>2020-07-21T07:05:50.000Z</time>
      </trkpt>
      <trkpt lat="42.9053915" lon="-5.6871832">
        <ele>1329.1</ele>
        <time>2020-07-21T07:05:51.000Z</time>
      </trkpt>
      <trkpt lat="42.9054013" lon="-5.6871848">
        <ele>1329.4</ele>
        <time>2020-07-21T07:05:52.000Z</time>
      </trkpt>
      <trkpt lat="42.9054133" lon="-5.6871855">
        <ele>1329.4</ele>
        <time>2020-07-21T07:05:53.000Z</time>
      </trkpt>
      <trkpt lat="42.9054255" lon="-5.687186">
        <ele>1329.71</ele>
        <time>2020-07-21T07:05:54.000Z</time>
      </trkpt>
      <trkpt lat="42.9054372" lon="-5.6871862">
        <ele>1329.71</ele>
        <time>2020-07-21T07:05:55.000Z</time>
      </trkpt>
      <trkpt lat="42.9054473" lon="-5.687187">
        <ele>1330.01</ele>
        <time>2020-07-21T07:05:56.000Z</time>
      </trkpt>
      <trkpt lat="42.9054585" lon="-5.6871873">
        <ele>1330.01</ele>
        <time>2020-07-21T07:05:57.000Z</time>
      </trkpt>
      <trkpt lat="42.9054697" lon="-5.6871875">
        <ele>1330.32</ele>
        <time>2020-07-21T07:05:58.000Z</time>
      </trkpt>
      <trkpt lat="42.905481" lon="-5.687186">
        <ele>1330.32</ele>
        <time>2020-07-21T07:05:59.000Z</time>
      </trkpt>
      <trkpt lat="42.9054897" lon="-5.68718">
        <ele>1330.62</ele>
        <time>2020-07-21T07:06:00.000Z</time>
      </trkpt>
      <trkpt lat="42.9054973" lon="-5.6871747">
        <ele>1330.62</ele>
        <time>2020-07-21T07:06:01.000Z</time>
      </trkpt>
      <trkpt lat="42.9055052" lon="-5.6871698">
        <ele>1330.93</ele>
        <time>2020-07-21T07:06:02.000Z</time>
      </trkpt>
      <trkpt lat="42.9055162" lon="-5.687167">
        <ele>1330.93</ele>
        <time>2020-07-21T07:06:03.000Z</time>
      </trkpt>
      <trkpt lat="42.9055277" lon="-5.6871607">
        <ele>1331.23</ele>
        <time>2020-07-21T07:06:04.000Z</time>
      </trkpt>
      <trkpt lat="42.9055385" lon="-5.6871523">
        <ele>1331.23</ele>
        <time>2020-07-21T07:06:05.000Z</time>
      </trkpt>
      <trkpt lat="42.9055477" lon="-5.6871427">
        <ele>1331.54</ele>
        <time>2020-07-21T07:06:06.000Z</time>
      </trkpt>
      <trkpt lat="42.9055557" lon="-5.6871307">
        <ele>1331.54</ele>
        <time>2020-07-21T07:06:07.000Z</time>
      </trkpt>
      <trkpt lat="42.9055628" lon="-5.6871182">
        <ele>1331.84</ele>
        <time>2020-07-21T07:06:08.000Z</time>
      </trkpt>
      <trkpt lat="42.90557" lon="-5.6871067">
        <ele>1331.84</ele>
        <time>2020-07-21T07:06:09.000Z</time>
      </trkpt>
      <trkpt lat="42.9055775" lon="-5.6870967">
        <ele>1332.15</ele>
        <time>2020-07-21T07:06:10.000Z</time>
      </trkpt>
      <trkpt lat="42.9055857" lon="-5.6870872">
        <ele>1332.15</ele>
        <time>2020-07-21T07:06:11.000Z</time>
      </trkpt>
      <trkpt lat="42.905594" lon="-5.6870772">
        <ele>1332.45</ele>
        <time>2020-07-21T07:06:12.000Z</time>
      </trkpt>
      <trkpt lat="42.9056042" lon="-5.6870703">
        <ele>1332.45</ele>
        <time>2020-07-21T07:06:13.000Z</time>
      </trkpt>
      <trkpt lat="42.9056147" lon="-5.687065">
        <ele>1332.6</ele>
        <time>2020-07-21T07:06:14.000Z</time>
      </trkpt>
      <trkpt lat="42.9056253" lon="-5.6870605">
        <ele>1332.6</ele>
        <time>2020-07-21T07:06:15.000Z</time>
      </trkpt>
      <trkpt lat="42.9056355" lon="-5.6870553">
        <ele>1332.91</ele>
        <time>2020-07-21T07:06:16.000Z</time>
      </trkpt>
      <trkpt lat="42.9056462" lon="-5.6870512">
        <ele>1332.91</ele>
        <time>2020-07-21T07:06:17.000Z</time>
      </trkpt>
      <trkpt lat="42.905657" lon="-5.6870482">
        <ele>1333.21</ele>
        <time>2020-07-21T07:06:18.000Z</time>
      </trkpt>
      <trkpt lat="42.9056678" lon="-5.6870453">
        <ele>1333.21</ele>
        <time>2020-07-21T07:06:19.000Z</time>
      </trkpt>
      <trkpt lat="42.9056782" lon="-5.6870415">
        <ele>1333.36</ele>
        <time>2020-07-21T07:06:20.000Z</time>
      </trkpt>
      <trkpt lat="42.905687" lon="-5.6870383">
        <ele>1333.36</ele>
        <time>2020-07-21T07:06:21.000Z</time>
      </trkpt>
      <trkpt lat="42.9056942" lon="-5.6870362">
        <ele>1333.67</ele>
        <time>2020-07-21T07:06:22.000Z</time>
      </trkpt>
      <trkpt lat="42.9057018" lon="-5.6870353">
        <ele>1333.67</ele>
        <time>2020-07-21T07:06:23.000Z</time>
      </trkpt>
      <trkpt lat="42.9057107" lon="-5.6870348">
        <ele>1333.97</ele>
        <time>2020-07-21T07:06:24.000Z</time>
      </trkpt>
      <trkpt lat="42.9057198" lon="-5.6870355">
        <ele>1333.97</ele>
        <time>2020-07-21T07:06:25.000Z</time>
      </trkpt>
      <trkpt lat="42.9057282" lon="-5.6870365">
        <ele>1334.28</ele>
        <time>2020-07-21T07:06:26.000Z</time>
      </trkpt>
      <trkpt lat="42.9057363" lon="-5.6870385">
        <ele>1334.28</ele>
        <time>2020-07-21T07:06:27.000Z</time>
      </trkpt>
      <trkpt lat="42.905744" lon="-5.6870408">
        <ele>1334.58</ele>
        <time>2020-07-21T07:06:28.000Z</time>
      </trkpt>
      <trkpt lat="42.9057503" lon="-5.6870442">
        <ele>1334.58</ele>
        <time>2020-07-21T07:06:29.000Z</time>
      </trkpt>
      <trkpt lat="42.9057567" lon="-5.6870478">
        <ele>1334.89</ele>
        <time>2020-07-21T07:06:30.000Z</time>
      </trkpt>
      <trkpt lat="42.9057622" lon="-5.687052">
        <ele>1334.89</ele>
        <time>2020-07-21T07:06:31.000Z</time>
      </trkpt>
      <trkpt lat="42.9057685" lon="-5.687058">
        <ele>1335.19</ele>
        <time>2020-07-21T07:06:32.000Z</time>
      </trkpt>
      <trkpt lat="42.905775" lon="-5.6870638">
        <ele>1335.19</ele>
        <time>2020-07-21T07:06:33.000Z</time>
      </trkpt>
      <trkpt lat="42.9057825" lon="-5.6870695">
        <ele>1335.5</ele>
        <time>2020-07-21T07:06:34.000Z</time>
      </trkpt>
      <trkpt lat="42.905789" lon="-5.6870735">
        <ele>1335.5</ele>
        <time>2020-07-21T07:06:35.000Z</time>
      </trkpt>
      <trkpt lat="42.9057958" lon="-5.6870797">
        <ele>1335.8</ele>
        <time>2020-07-21T07:06:36.000Z</time>
      </trkpt>
      <trkpt lat="42.9058033" lon="-5.6870867">
        <ele>1335.8</ele>
        <time>2020-07-21T07:06:37.000Z</time>
      </trkpt>
      <trkpt lat="42.9058123" lon="-5.6870943">
        <ele>1336.26</ele>
        <time>2020-07-21T07:06:38.000Z</time>
      </trkpt>
      <trkpt lat="42.9058225" lon="-5.6870993">
        <ele>1336.26</ele>
        <time>2020-07-21T07:06:39.000Z</time>
      </trkpt>
      <trkpt lat="42.9058325" lon="-5.6871045">
        <ele>1336.56</ele>
        <time>2020-07-21T07:06:40.000Z</time>
      </trkpt>
      <trkpt lat="42.905841" lon="-5.687109">
        <ele>1336.56</ele>
        <time>2020-07-21T07:06:41.000Z</time>
      </trkpt>
      <trkpt lat="42.9058477" lon="-5.687114">
        <ele>1337.02</ele>
        <time>2020-07-21T07:06:42.000Z</time>
      </trkpt>
      <trkpt lat="42.9058527" lon="-5.6871195">
        <ele>1337.02</ele>
        <time>2020-07-21T07:06:43.000Z</time>
      </trkpt>
      <trkpt lat="42.9058582" lon="-5.6871252">
        <ele>1337.33</ele>
        <time>2020-07-21T07:06:44.000Z</time>
      </trkpt>
      <trkpt lat="42.9058633" lon="-5.6871303">
        <ele>1337.33</ele>
        <time>2020-07-21T07:06:45.000Z</time>
      </trkpt>
      <trkpt lat="42.905871" lon="-5.687134">
        <ele>1337.78</ele>
        <time>2020-07-21T07:06:46.000Z</time>
      </trkpt>
      <trkpt lat="42.9058793" lon="-5.6871378">
        <ele>1337.78</ele>
        <time>2020-07-21T07:06:47.000Z</time>
      </trkpt>
      <trkpt lat="42.905889" lon="-5.6871392">
        <ele>1338.24</ele>
        <time>2020-07-21T07:06:48.000Z</time>
      </trkpt>
      <trkpt lat="42.9058975" lon="-5.6871403">
        <ele>1338.24</ele>
        <time>2020-07-21T07:06:49.000Z</time>
      </trkpt>
      <trkpt lat="42.9059065" lon="-5.6871403">
        <ele>1338.55</ele>
        <time>2020-07-21T07:06:50.000Z</time>
      </trkpt>
      <trkpt lat="42.9059138" lon="-5.6871413">
        <ele>1338.55</ele>
        <time>2020-07-21T07:06:51.000Z</time>
      </trkpt>
      <trkpt lat="42.905922" lon="-5.6871423">
        <ele>1339</ele>
        <time>2020-07-21T07:06:52.000Z</time>
      </trkpt>
      <trkpt lat="42.9059302" lon="-5.6871435">
        <ele>1339</ele>
        <time>2020-07-21T07:06:53.000Z</time>
      </trkpt>
      <trkpt lat="42.9059392" lon="-5.6871458">
        <ele>1339.46</ele>
        <time>2020-07-21T07:06:54.000Z</time>
      </trkpt>
      <trkpt lat="42.9059477" lon="-5.687148">
        <ele>1339.46</ele>
        <time>2020-07-21T07:06:55.000Z</time>
      </trkpt>
      <trkpt lat="42.905956" lon="-5.6871497">
        <ele>1339.77</ele>
        <time>2020-07-21T07:06:56.000Z</time>
      </trkpt>
      <trkpt lat="42.9059633" lon="-5.6871513">
        <ele>1339.77</ele>
        <time>2020-07-21T07:06:57.000Z</time>
      </trkpt>
      <trkpt lat="42.9059695" lon="-5.6871538">
        <ele>1340.22</ele>
        <time>2020-07-21T07:06:58.000Z</time>
      </trkpt>
      <trkpt lat="42.905976" lon="-5.6871582">
        <ele>1340.22</ele>
        <time>2020-07-21T07:06:59.000Z</time>
      </trkpt>
      <trkpt lat="42.9059817" lon="-5.6871617">
        <ele>1340.53</ele>
        <time>2020-07-21T07:07:00.000Z</time>
      </trkpt>
      <trkpt lat="42.905988" lon="-5.6871638">
        <ele>1340.53</ele>
        <time>2020-07-21T07:07:01.000Z</time>
      </trkpt>
      <trkpt lat="42.9059928" lon="-5.6871655">
        <ele>1340.98</ele>
        <time>2020-07-21T07:07:02.000Z</time>
      </trkpt>
      <trkpt lat="42.9059975" lon="-5.6871692">
        <ele>1340.98</ele>
        <time>2020-07-21T07:07:03.000Z</time>
      </trkpt>
      <trkpt lat="42.9060022" lon="-5.687174">
        <ele>1341.44</ele>
        <time>2020-07-21T07:07:04.000Z</time>
      </trkpt>
      <trkpt lat="42.9060062" lon="-5.6871788">
        <ele>1341.44</ele>
        <time>2020-07-21T07:07:05.000Z</time>
      </trkpt>
      <trkpt lat="42.9060115" lon="-5.687183">
        <ele>1341.75</ele>
        <time>2020-07-21T07:07:06.000Z</time>
      </trkpt>
      <trkpt lat="42.9060165" lon="-5.6871867">
        <ele>1341.75</ele>
        <time>2020-07-21T07:07:07.000Z</time>
      </trkpt>
      <trkpt lat="42.9060232" lon="-5.6871893">
        <ele>1342.2</ele>
        <time>2020-07-21T07:07:08.000Z</time>
      </trkpt>
      <trkpt lat="42.90603" lon="-5.6871915">
        <ele>1342.2</ele>
        <time>2020-07-21T07:07:09.000Z</time>
      </trkpt>
      <trkpt lat="42.906036" lon="-5.6871937">
        <ele>1342.51</ele>
        <time>2020-07-21T07:07:10.000Z</time>
      </trkpt>
      <trkpt lat="42.9060408" lon="-5.6871968">
        <ele>1342.51</ele>
        <time>2020-07-21T07:07:11.000Z</time>
      </trkpt>
      <trkpt lat="42.906045" lon="-5.6872003">
        <ele>1342.81</ele>
        <time>2020-07-21T07:07:12.000Z</time>
      </trkpt>
      <trkpt lat="42.9060482" lon="-5.6872022">
        <ele>1342.81</ele>
        <time>2020-07-21T07:07:13.000Z</time>
      </trkpt>
      <trkpt lat="42.9060525" lon="-5.6872045">
        <ele>1343.12</ele>
        <time>2020-07-21T07:07:14.000Z</time>
      </trkpt>
      <trkpt lat="42.9060565" lon="-5.6872072">
        <ele>1343.12</ele>
        <time>2020-07-21T07:07:15.000Z</time>
      </trkpt>
      <trkpt lat="42.9060625" lon="-5.6872108">
        <ele>1343.27</ele>
        <time>2020-07-21T07:07:16.000Z</time>
      </trkpt>
      <trkpt lat="42.9060697" lon="-5.6872133">
        <ele>1343.27</ele>
        <time>2020-07-21T07:07:17.000Z</time>
      </trkpt>
      <trkpt lat="42.9060777" lon="-5.6872172">
        <ele>1343.57</ele>
        <time>2020-07-21T07:07:18.000Z</time>
      </trkpt>
      <trkpt lat="42.9060863" lon="-5.6872213">
        <ele>1343.57</ele>
        <time>2020-07-21T07:07:19.000Z</time>
      </trkpt>
      <trkpt lat="42.906095" lon="-5.6872245">
        <ele>1343.88</ele>
        <time>2020-07-21T07:07:20.000Z</time>
      </trkpt>
      <trkpt lat="42.9061058" lon="-5.6872272">
        <ele>1343.88</ele>
        <time>2020-07-21T07:07:21.000Z</time>
      </trkpt>
      <trkpt lat="42.9061172" lon="-5.6872297">
        <ele>1344.18</ele>
        <time>2020-07-21T07:07:22.000Z</time>
      </trkpt>
      <trkpt lat="42.9061275" lon="-5.687234">
        <ele>1344.18</ele>
        <time>2020-07-21T07:07:23.000Z</time>
      </trkpt>
      <trkpt lat="42.9061367" lon="-5.6872383">
        <ele>1344.49</ele>
        <time>2020-07-21T07:07:24.000Z</time>
      </trkpt>
      <trkpt lat="42.906146" lon="-5.6872448">
        <ele>1344.49</ele>
        <time>2020-07-21T07:07:25.000Z</time>
      </trkpt>
      <trkpt lat="42.9061548" lon="-5.6872503">
        <ele>1344.79</ele>
        <time>2020-07-21T07:07:26.000Z</time>
      </trkpt>
      <trkpt lat="42.9061637" lon="-5.6872562">
        <ele>1344.79</ele>
        <time>2020-07-21T07:07:27.000Z</time>
      </trkpt>
      <trkpt lat="42.9061722" lon="-5.6872605">
        <ele>1345.1</ele>
        <time>2020-07-21T07:07:28.000Z</time>
      </trkpt>
      <trkpt lat="42.9061818" lon="-5.6872652">
        <ele>1345.1</ele>
        <time>2020-07-21T07:07:29.000Z</time>
      </trkpt>
      <trkpt lat="42.906192" lon="-5.6872695">
        <ele>1345.4</ele>
        <time>2020-07-21T07:07:30.000Z</time>
      </trkpt>
      <trkpt lat="42.9062015" lon="-5.687273">
        <ele>1345.4</ele>
        <time>2020-07-21T07:07:31.000Z</time>
      </trkpt>
      <trkpt lat="42.906211" lon="-5.687277">
        <ele>1345.71</ele>
        <time>2020-07-21T07:07:32.000Z</time>
      </trkpt>
      <trkpt lat="42.9062198" lon="-5.6872818">
        <ele>1345.71</ele>
        <time>2020-07-21T07:07:33.000Z</time>
      </trkpt>
      <trkpt lat="42.9062287" lon="-5.6872877">
        <ele>1346.01</ele>
        <time>2020-07-21T07:07:34.000Z</time>
      </trkpt>
      <trkpt lat="42.9062368" lon="-5.6872928">
        <ele>1346.01</ele>
        <time>2020-07-21T07:07:35.000Z</time>
      </trkpt>
      <trkpt lat="42.9062463" lon="-5.6872977">
        <ele>1346.32</ele>
        <time>2020-07-21T07:07:36.000Z</time>
      </trkpt>
      <trkpt lat="42.906256" lon="-5.6873015">
        <ele>1346.32</ele>
        <time>2020-07-21T07:07:37.000Z</time>
      </trkpt>
      <trkpt lat="42.906266" lon="-5.6873062">
        <ele>1346.62</ele>
        <time>2020-07-21T07:07:38.000Z</time>
      </trkpt>
      <trkpt lat="42.9062747" lon="-5.6873107">
        <ele>1346.62</ele>
        <time>2020-07-21T07:07:39.000Z</time>
      </trkpt>
      <trkpt lat="42.9062842" lon="-5.687316">
        <ele>1346.93</ele>
        <time>2020-07-21T07:07:40.000Z</time>
      </trkpt>
      <trkpt lat="42.9062937" lon="-5.6873205">
        <ele>1346.93</ele>
        <time>2020-07-21T07:07:41.000Z</time>
      </trkpt>
      <trkpt lat="42.9063037" lon="-5.6873247">
        <ele>1347.23</ele>
        <time>2020-07-21T07:07:42.000Z</time>
      </trkpt>
      <trkpt lat="42.9063128" lon="-5.6873285">
        <ele>1347.23</ele>
        <time>2020-07-21T07:07:43.000Z</time>
      </trkpt>
      <trkpt lat="42.9063212" lon="-5.6873333">
        <ele>1347.39</ele>
        <time>2020-07-21T07:07:44.000Z</time>
      </trkpt>
      <trkpt lat="42.9063293" lon="-5.6873388">
        <ele>1347.39</ele>
        <time>2020-07-21T07:07:45.000Z</time>
      </trkpt>
      <trkpt lat="42.9063377" lon="-5.687344">
        <ele>1347.69</ele>
        <time>2020-07-21T07:07:46.000Z</time>
      </trkpt>
      <trkpt lat="42.9063452" lon="-5.68735">
        <ele>1347.69</ele>
        <time>2020-07-21T07:07:47.000Z</time>
      </trkpt>
      <trkpt lat="42.9063528" lon="-5.687357">
        <ele>1347.84</ele>
        <time>2020-07-21T07:07:48.000Z</time>
      </trkpt>
      <trkpt lat="42.9063598" lon="-5.687365">
        <ele>1347.84</ele>
        <time>2020-07-21T07:07:49.000Z</time>
      </trkpt>
      <trkpt lat="42.9063687" lon="-5.6873708">
        <ele>1347.99</ele>
        <time>2020-07-21T07:07:50.000Z</time>
      </trkpt>
      <trkpt lat="42.906379" lon="-5.6873745">
        <ele>1347.99</ele>
        <time>2020-07-21T07:07:51.000Z</time>
      </trkpt>
      <trkpt lat="42.9063913" lon="-5.6873773">
        <ele>1348.15</ele>
        <time>2020-07-21T07:07:52.000Z</time>
      </trkpt>
      <trkpt lat="42.9064037" lon="-5.6873808">
        <ele>1348.15</ele>
        <time>2020-07-21T07:07:53.000Z</time>
      </trkpt>
      <trkpt lat="42.9064158" lon="-5.687386">
        <ele>1348.15</ele>
        <time>2020-07-21T07:07:54.000Z</time>
      </trkpt>
      <trkpt lat="42.9064265" lon="-5.687393">
        <ele>1348.15</ele>
        <time>2020-07-21T07:07:55.000Z</time>
      </trkpt>
      <trkpt lat="42.9064373" lon="-5.6874005">
        <ele>1348.3</ele>
        <time>2020-07-21T07:07:56.000Z</time>
      </trkpt>
      <trkpt lat="42.9064478" lon="-5.6874078">
        <ele>1348.3</ele>
        <time>2020-07-21T07:07:57.000Z</time>
      </trkpt>
      <trkpt lat="42.9064582" lon="-5.687415">
        <ele>1348.6</ele>
        <time>2020-07-21T07:07:58.000Z</time>
      </trkpt>
      <trkpt lat="42.906468" lon="-5.6874218">
        <ele>1348.6</ele>
        <time>2020-07-21T07:07:59.000Z</time>
      </trkpt>
      <trkpt lat="42.9064767" lon="-5.687428">
        <ele>1348.76</ele>
        <time>2020-07-21T07:08:00.000Z</time>
      </trkpt>
      <trkpt lat="42.9064862" lon="-5.6874335">
        <ele>1348.76</ele>
        <time>2020-07-21T07:08:01.000Z</time>
      </trkpt>
      <trkpt lat="42.9064968" lon="-5.6874387">
        <ele>1349.06</ele>
        <time>2020-07-21T07:08:02.000Z</time>
      </trkpt>
      <trkpt lat="42.9065083" lon="-5.6874442">
        <ele>1349.06</ele>
        <time>2020-07-21T07:08:03.000Z</time>
      </trkpt>
      <trkpt lat="42.906519" lon="-5.6874493">
        <ele>1349.37</ele>
        <time>2020-07-21T07:08:04.000Z</time>
      </trkpt>
      <trkpt lat="42.9065277" lon="-5.6874547">
        <ele>1349.37</ele>
        <time>2020-07-21T07:08:05.000Z</time>
      </trkpt>
      <trkpt lat="42.9065358" lon="-5.6874595">
        <ele>1349.67</ele>
        <time>2020-07-21T07:08:06.000Z</time>
      </trkpt>
      <trkpt lat="42.9065442" lon="-5.6874647">
        <ele>1349.67</ele>
        <time>2020-07-21T07:08:07.000Z</time>
      </trkpt>
      <trkpt lat="42.9065525" lon="-5.6874708">
        <ele>1349.98</ele>
        <time>2020-07-21T07:08:08.000Z</time>
      </trkpt>
      <trkpt lat="42.9065623" lon="-5.687477">
        <ele>1349.98</ele>
        <time>2020-07-21T07:08:09.000Z</time>
      </trkpt>
      <trkpt lat="42.906573" lon="-5.6874832">
        <ele>1350.43</ele>
        <time>2020-07-21T07:08:10.000Z</time>
      </trkpt>
      <trkpt lat="42.9065845" lon="-5.6874887">
        <ele>1350.43</ele>
        <time>2020-07-21T07:08:11.000Z</time>
      </trkpt>
      <trkpt lat="42.9065943" lon="-5.6874942">
        <ele>1350.74</ele>
        <time>2020-07-21T07:08:12.000Z</time>
      </trkpt>
      <trkpt lat="42.9066023" lon="-5.6874965">
        <ele>1350.74</ele>
        <time>2020-07-21T07:08:13.000Z</time>
      </trkpt>
      <trkpt lat="42.906611" lon="-5.687497">
        <ele>1351.04</ele>
        <time>2020-07-21T07:08:14.000Z</time>
      </trkpt>
      <trkpt lat="42.9066208" lon="-5.6874983">
        <ele>1351.04</ele>
        <time>2020-07-21T07:08:15.000Z</time>
      </trkpt>
      <trkpt lat="42.9066337" lon="-5.6875027">
        <ele>1351.5</ele>
        <time>2020-07-21T07:08:16.000Z</time>
      </trkpt>
      <trkpt lat="42.906648" lon="-5.6875093">
        <ele>1351.5</ele>
        <time>2020-07-21T07:08:17.000Z</time>
      </trkpt>
      <trkpt lat="42.9066632" lon="-5.687515">
        <ele>1351.8</ele>
        <time>2020-07-21T07:08:18.000Z</time>
      </trkpt>
      <trkpt lat="42.9066788" lon="-5.6875203">
        <ele>1351.8</ele>
        <time>2020-07-21T07:08:19.000Z</time>
      </trkpt>
      <trkpt lat="42.9066968" lon="-5.6875253">
        <ele>1352.11</ele>
        <time>2020-07-21T07:08:20.000Z</time>
      </trkpt>
      <trkpt lat="42.9067152" lon="-5.6875293">
        <ele>1352.11</ele>
        <time>2020-07-21T07:08:21.000Z</time>
      </trkpt>
      <trkpt lat="42.9067333" lon="-5.687534">
        <ele>1352.41</ele>
        <time>2020-07-21T07:08:22.000Z</time>
      </trkpt>
      <trkpt lat="42.9067472" lon="-5.6875387">
        <ele>1352.41</ele>
        <time>2020-07-21T07:08:23.000Z</time>
      </trkpt>
      <trkpt lat="42.906759" lon="-5.6875457">
        <ele>1352.57</ele>
        <time>2020-07-21T07:08:24.000Z</time>
      </trkpt>
      <trkpt lat="42.9067697" lon="-5.6875515">
        <ele>1352.57</ele>
        <time>2020-07-21T07:08:25.000Z</time>
      </trkpt>
      <trkpt lat="42.90678" lon="-5.6875582">
        <ele>1352.87</ele>
        <time>2020-07-21T07:08:26.000Z</time>
      </trkpt>
      <trkpt lat="42.9067923" lon="-5.6875642">
        <ele>1352.87</ele>
        <time>2020-07-21T07:08:27.000Z</time>
      </trkpt>
      <trkpt lat="42.9068033" lon="-5.687571">
        <ele>1353.18</ele>
        <time>2020-07-21T07:08:28.000Z</time>
      </trkpt>
      <trkpt lat="42.9068142" lon="-5.6875775">
        <ele>1353.18</ele>
        <time>2020-07-21T07:08:29.000Z</time>
      </trkpt>
      <trkpt lat="42.9068242" lon="-5.6875828">
        <ele>1353.33</ele>
        <time>2020-07-21T07:08:30.000Z</time>
      </trkpt>
      <trkpt lat="42.9068348" lon="-5.6875877">
        <ele>1353.33</ele>
        <time>2020-07-21T07:08:31.000Z</time>
      </trkpt>
      <trkpt lat="42.906846" lon="-5.6875928">
        <ele>1353.63</ele>
        <time>2020-07-21T07:08:32.000Z</time>
      </trkpt>
      <trkpt lat="42.9068562" lon="-5.6875992">
        <ele>1353.63</ele>
        <time>2020-07-21T07:08:33.000Z</time>
      </trkpt>
      <trkpt lat="42.9068655" lon="-5.687605">
        <ele>1353.79</ele>
        <time>2020-07-21T07:08:34.000Z</time>
      </trkpt>
      <trkpt lat="42.9068752" lon="-5.6876092">
        <ele>1353.79</ele>
        <time>2020-07-21T07:08:35.000Z</time>
      </trkpt>
      <trkpt lat="42.9068843" lon="-5.6876133">
        <ele>1353.94</ele>
        <time>2020-07-21T07:08:36.000Z</time>
      </trkpt>
      <trkpt lat="42.9068935" lon="-5.6876178">
        <ele>1353.94</ele>
        <time>2020-07-21T07:08:37.000Z</time>
      </trkpt>
      <trkpt lat="42.9069007" lon="-5.6876252">
        <ele>1354.09</ele>
        <time>2020-07-21T07:08:38.000Z</time>
      </trkpt>
      <trkpt lat="42.9069088" lon="-5.6876317">
        <ele>1354.09</ele>
        <time>2020-07-21T07:08:39.000Z</time>
      </trkpt>
      <trkpt lat="42.9069178" lon="-5.6876378">
        <ele>1354.24</ele>
        <time>2020-07-21T07:08:40.000Z</time>
      </trkpt>
      <trkpt lat="42.9069293" lon="-5.687642">
        <ele>1354.24</ele>
        <time>2020-07-21T07:08:41.000Z</time>
      </trkpt>
      <trkpt lat="42.9069417" lon="-5.6876473">
        <ele>1354.24</ele>
        <time>2020-07-21T07:08:42.000Z</time>
      </trkpt>
      <trkpt lat="42.9069525" lon="-5.6876522">
        <ele>1354.24</ele>
        <time>2020-07-21T07:08:43.000Z</time>
      </trkpt>
      <trkpt lat="42.9069625" lon="-5.687658">
        <ele>1354.4</ele>
        <time>2020-07-21T07:08:44.000Z</time>
      </trkpt>
      <trkpt lat="42.9069708" lon="-5.6876648">
        <ele>1354.4</ele>
        <time>2020-07-21T07:08:45.000Z</time>
      </trkpt>
      <trkpt lat="42.9069792" lon="-5.687674">
        <ele>1354.4</ele>
        <time>2020-07-21T07:08:46.000Z</time>
      </trkpt>
      <trkpt lat="42.9069873" lon="-5.6876828">
        <ele>1354.4</ele>
        <time>2020-07-21T07:08:47.000Z</time>
      </trkpt>
      <trkpt lat="42.9069957" lon="-5.6876912">
        <ele>1354.4</ele>
        <time>2020-07-21T07:08:48.000Z</time>
      </trkpt>
      <trkpt lat="42.907005" lon="-5.6876992">
        <ele>1354.4</ele>
        <time>2020-07-21T07:08:49.000Z</time>
      </trkpt>
      <trkpt lat="42.9070148" lon="-5.6877082">
        <ele>1354.4</ele>
        <time>2020-07-21T07:08:50.000Z</time>
      </trkpt>
      <trkpt lat="42.9070238" lon="-5.687717">
        <ele>1354.4</ele>
        <time>2020-07-21T07:08:51.000Z</time>
      </trkpt>
      <trkpt lat="42.9070313" lon="-5.6877263">
        <ele>1354.4</ele>
        <time>2020-07-21T07:08:52.000Z</time>
      </trkpt>
      <trkpt lat="42.9070385" lon="-5.6877348">
        <ele>1354.4</ele>
        <time>2020-07-21T07:08:53.000Z</time>
      </trkpt>
      <trkpt lat="42.9070462" lon="-5.6877435">
        <ele>1354.4</ele>
        <time>2020-07-21T07:08:54.000Z</time>
      </trkpt>
      <trkpt lat="42.907055" lon="-5.687753">
        <ele>1354.4</ele>
        <time>2020-07-21T07:08:55.000Z</time>
      </trkpt>
      <trkpt lat="42.907065" lon="-5.687761">
        <ele>1354.4</ele>
        <time>2020-07-21T07:08:56.000Z</time>
      </trkpt>
      <trkpt lat="42.9070753" lon="-5.6877687">
        <ele>1354.4</ele>
        <time>2020-07-21T07:08:57.000Z</time>
      </trkpt>
      <trkpt lat="42.9070852" lon="-5.6877753">
        <ele>1354.4</ele>
        <time>2020-07-21T07:08:58.000Z</time>
      </trkpt>
      <trkpt lat="42.9070938" lon="-5.6877828">
        <ele>1354.4</ele>
        <time>2020-07-21T07:08:59.000Z</time>
      </trkpt>
      <trkpt lat="42.9071033" lon="-5.6877893">
        <ele>1354.4</ele>
        <time>2020-07-21T07:09:00.000Z</time>
      </trkpt>
      <trkpt lat="42.9071103" lon="-5.6877978">
        <ele>1354.4</ele>
        <time>2020-07-21T07:09:01.000Z</time>
      </trkpt>
      <trkpt lat="42.9071188" lon="-5.6878065">
        <ele>1354.4</ele>
        <time>2020-07-21T07:09:02.000Z</time>
      </trkpt>
      <trkpt lat="42.9071267" lon="-5.6878147">
        <ele>1354.4</ele>
        <time>2020-07-21T07:09:03.000Z</time>
      </trkpt>
      <trkpt lat="42.907137" lon="-5.6878202">
        <ele>1354.24</ele>
        <time>2020-07-21T07:09:04.000Z</time>
      </trkpt>
      <trkpt lat="42.9071445" lon="-5.6878263">
        <ele>1354.24</ele>
        <time>2020-07-21T07:09:05.000Z</time>
      </trkpt>
      <trkpt lat="42.9071508" lon="-5.6878347">
        <ele>1354.24</ele>
        <time>2020-07-21T07:09:06.000Z</time>
      </trkpt>
      <trkpt lat="42.9071567" lon="-5.6878442">
        <ele>1354.24</ele>
        <time>2020-07-21T07:09:07.000Z</time>
      </trkpt>
      <trkpt lat="42.9071633" lon="-5.6878532">
        <ele>1354.24</ele>
        <time>2020-07-21T07:09:08.000Z</time>
      </trkpt>
      <trkpt lat="42.9071698" lon="-5.6878612">
        <ele>1354.24</ele>
        <time>2020-07-21T07:09:09.000Z</time>
      </trkpt>
      <trkpt lat="42.9071755" lon="-5.6878692">
        <ele>1354.4</ele>
        <time>2020-07-21T07:09:10.000Z</time>
      </trkpt>
      <trkpt lat="42.907181" lon="-5.6878773">
        <ele>1354.4</ele>
        <time>2020-07-21T07:09:11.000Z</time>
      </trkpt>
      <trkpt lat="42.9071887" lon="-5.687884">
        <ele>1354.4</ele>
        <time>2020-07-21T07:09:12.000Z</time>
      </trkpt>
      <trkpt lat="42.9071967" lon="-5.6878897">
        <ele>1354.4</ele>
        <time>2020-07-21T07:09:13.000Z</time>
      </trkpt>
      <trkpt lat="42.9072067" lon="-5.6878955">
        <ele>1354.55</ele>
        <time>2020-07-21T07:09:14.000Z</time>
      </trkpt>
      <trkpt lat="42.9072155" lon="-5.6879035">
        <ele>1354.55</ele>
        <time>2020-07-21T07:09:15.000Z</time>
      </trkpt>
      <trkpt lat="42.9072257" lon="-5.6879122">
        <ele>1354.7</ele>
        <time>2020-07-21T07:09:16.000Z</time>
      </trkpt>
      <trkpt lat="42.907234" lon="-5.6879208">
        <ele>1354.7</ele>
        <time>2020-07-21T07:09:17.000Z</time>
      </trkpt>
      <trkpt lat="42.9072405" lon="-5.6879307">
        <ele>1354.85</ele>
        <time>2020-07-21T07:09:18.000Z</time>
      </trkpt>
      <trkpt lat="42.907246" lon="-5.6879417">
        <ele>1354.85</ele>
        <time>2020-07-21T07:09:19.000Z</time>
      </trkpt>
      <trkpt lat="42.9072522" lon="-5.6879532">
        <ele>1355.01</ele>
        <time>2020-07-21T07:09:20.000Z</time>
      </trkpt>
      <trkpt lat="42.9072603" lon="-5.6879632">
        <ele>1355.01</ele>
        <time>2020-07-21T07:09:21.000Z</time>
      </trkpt>
      <trkpt lat="42.9072683" lon="-5.6879728">
        <ele>1355.16</ele>
        <time>2020-07-21T07:09:22.000Z</time>
      </trkpt>
      <trkpt lat="42.9072757" lon="-5.687982">
        <ele>1355.16</ele>
        <time>2020-07-21T07:09:23.000Z</time>
      </trkpt>
      <trkpt lat="42.907283" lon="-5.6879905">
        <ele>1355.31</ele>
        <time>2020-07-21T07:09:24.000Z</time>
      </trkpt>
      <trkpt lat="42.9072907" lon="-5.6879983">
        <ele>1355.31</ele>
        <time>2020-07-21T07:09:25.000Z</time>
      </trkpt>
      <trkpt lat="42.9073018" lon="-5.6880092">
        <ele>1355.61</ele>
        <time>2020-07-21T07:09:26.000Z</time>
      </trkpt>
      <trkpt lat="42.9073135" lon="-5.6880217">
        <ele>1355.61</ele>
        <time>2020-07-21T07:09:27.000Z</time>
      </trkpt>
      <trkpt lat="42.9073247" lon="-5.6880375">
        <ele>1355.77</ele>
        <time>2020-07-21T07:09:28.000Z</time>
      </trkpt>
      <trkpt lat="42.9073397" lon="-5.6880502">
        <ele>1355.77</ele>
        <time>2020-07-21T07:09:29.000Z</time>
      </trkpt>
      <trkpt lat="42.9073538" lon="-5.6880628">
        <ele>1356.07</ele>
        <time>2020-07-21T07:09:30.000Z</time>
      </trkpt>
      <trkpt lat="42.907368" lon="-5.6880743">
        <ele>1356.07</ele>
        <time>2020-07-21T07:09:31.000Z</time>
      </trkpt>
      <trkpt lat="42.9073735" lon="-5.688087">
        <ele>1356.22</ele>
        <time>2020-07-21T07:09:32.000Z</time>
      </trkpt>
      <trkpt lat="42.907377" lon="-5.6881007">
        <ele>1356.22</ele>
        <time>2020-07-21T07:09:33.000Z</time>
      </trkpt>
      <trkpt lat="42.9073775" lon="-5.6881148">
        <ele>1356.38</ele>
        <time>2020-07-21T07:09:34.000Z</time>
      </trkpt>
      <trkpt lat="42.9073772" lon="-5.6881295">
        <ele>1356.38</ele>
        <time>2020-07-21T07:09:35.000Z</time>
      </trkpt>
      <trkpt lat="42.907377" lon="-5.6881432">
        <ele>1356.68</ele>
        <time>2020-07-21T07:09:36.000Z</time>
      </trkpt>
      <trkpt lat="42.907377" lon="-5.6881567">
        <ele>1356.68</ele>
        <time>2020-07-21T07:09:37.000Z</time>
      </trkpt>
      <trkpt lat="42.907377" lon="-5.6881685">
        <ele>1356.83</ele>
        <time>2020-07-21T07:09:38.000Z</time>
      </trkpt>
      <trkpt lat="42.9073782" lon="-5.6881817">
        <ele>1356.83</ele>
        <time>2020-07-21T07:09:39.000Z</time>
      </trkpt>
      <trkpt lat="42.9073802" lon="-5.6881935">
        <ele>1357.14</ele>
        <time>2020-07-21T07:09:40.000Z</time>
      </trkpt>
      <trkpt lat="42.9073837" lon="-5.688206">
        <ele>1357.14</ele>
        <time>2020-07-21T07:09:41.000Z</time>
      </trkpt>
      <trkpt lat="42.9073872" lon="-5.6882168">
        <ele>1357.29</ele>
        <time>2020-07-21T07:09:42.000Z</time>
      </trkpt>
      <trkpt lat="42.9073915" lon="-5.6882287">
        <ele>1357.29</ele>
        <time>2020-07-21T07:09:43.000Z</time>
      </trkpt>
      <trkpt lat="42.9073942" lon="-5.688241">
        <ele>1357.6</ele>
        <time>2020-07-21T07:09:44.000Z</time>
      </trkpt>
      <trkpt lat="42.9073975" lon="-5.6882528">
        <ele>1357.6</ele>
        <time>2020-07-21T07:09:45.000Z</time>
      </trkpt>
      <trkpt lat="42.9074008" lon="-5.6882662">
        <ele>1357.9</ele>
        <time>2020-07-21T07:09:46.000Z</time>
      </trkpt>
      <trkpt lat="42.9074047" lon="-5.6882817">
        <ele>1357.9</ele>
        <time>2020-07-21T07:09:47.000Z</time>
      </trkpt>
      <trkpt lat="42.9074063" lon="-5.6883003">
        <ele>1358.05</ele>
        <time>2020-07-21T07:09:48.000Z</time>
      </trkpt>
      <trkpt lat="42.907408" lon="-5.688318">
        <ele>1358.05</ele>
        <time>2020-07-21T07:09:49.000Z</time>
      </trkpt>
      <trkpt lat="42.9074107" lon="-5.688334">
        <ele>1358.36</ele>
        <time>2020-07-21T07:09:50.000Z</time>
      </trkpt>
      <trkpt lat="42.907415" lon="-5.6883492">
        <ele>1358.36</ele>
        <time>2020-07-21T07:09:51.000Z</time>
      </trkpt>
      <trkpt lat="42.9074195" lon="-5.688364">
        <ele>1358.66</ele>
        <time>2020-07-21T07:09:52.000Z</time>
      </trkpt>
      <trkpt lat="42.9074247" lon="-5.6883787">
        <ele>1358.66</ele>
        <time>2020-07-21T07:09:53.000Z</time>
      </trkpt>
      <trkpt lat="42.9074292" lon="-5.688392">
        <ele>1358.81</ele>
        <time>2020-07-21T07:09:54.000Z</time>
      </trkpt>
      <trkpt lat="42.9074337" lon="-5.6884057">
        <ele>1358.81</ele>
        <time>2020-07-21T07:09:55.000Z</time>
      </trkpt>
      <trkpt lat="42.9074382" lon="-5.6884192">
        <ele>1359.12</ele>
        <time>2020-07-21T07:09:56.000Z</time>
      </trkpt>
      <trkpt lat="42.9074445" lon="-5.6884332">
        <ele>1359.12</ele>
        <time>2020-07-21T07:09:57.000Z</time>
      </trkpt>
      <trkpt lat="42.9074503" lon="-5.6884475">
        <ele>1359.42</ele>
        <time>2020-07-21T07:09:58.000Z</time>
      </trkpt>
      <trkpt lat="42.9074567" lon="-5.6884618">
        <ele>1359.42</ele>
        <time>2020-07-21T07:09:59.000Z</time>
      </trkpt>
      <trkpt lat="42.9074625" lon="-5.6884745">
        <ele>1359.58</ele>
        <time>2020-07-21T07:10:00.000Z</time>
      </trkpt>
      <trkpt lat="42.907469" lon="-5.688486">
        <ele>1359.58</ele>
        <time>2020-07-21T07:10:01.000Z</time>
      </trkpt>
      <trkpt lat="42.907475" lon="-5.6884967">
        <ele>1359.88</ele>
        <time>2020-07-21T07:10:02.000Z</time>
      </trkpt>
      <trkpt lat="42.9074815" lon="-5.6885073">
        <ele>1359.88</ele>
        <time>2020-07-21T07:10:03.000Z</time>
      </trkpt>
      <trkpt lat="42.9074908" lon="-5.6885168">
        <ele>1360.03</ele>
        <time>2020-07-21T07:10:04.000Z</time>
      </trkpt>
      <trkpt lat="42.9075012" lon="-5.6885258">
        <ele>1360.03</ele>
        <time>2020-07-21T07:10:05.000Z</time>
      </trkpt>
      <trkpt lat="42.9075118" lon="-5.6885358">
        <ele>1360.34</ele>
        <time>2020-07-21T07:10:06.000Z</time>
      </trkpt>
      <trkpt lat="42.9075188" lon="-5.6885467">
        <ele>1360.34</ele>
        <time>2020-07-21T07:10:07.000Z</time>
      </trkpt>
      <trkpt lat="42.9075252" lon="-5.6885593">
        <ele>1360.64</ele>
        <time>2020-07-21T07:10:08.000Z</time>
      </trkpt>
      <trkpt lat="42.90753" lon="-5.688572">
        <ele>1360.64</ele>
        <time>2020-07-21T07:10:09.000Z</time>
      </trkpt>
      <trkpt lat="42.9075363" lon="-5.6885843">
        <ele>1360.95</ele>
        <time>2020-07-21T07:10:10.000Z</time>
      </trkpt>
      <trkpt lat="42.9075417" lon="-5.688596">
        <ele>1360.95</ele>
        <time>2020-07-21T07:10:11.000Z</time>
      </trkpt>
      <trkpt lat="42.9075487" lon="-5.6886063">
        <ele>1361.25</ele>
        <time>2020-07-21T07:10:12.000Z</time>
      </trkpt>
      <trkpt lat="42.907556" lon="-5.688615">
        <ele>1361.25</ele>
        <time>2020-07-21T07:10:13.000Z</time>
      </trkpt>
      <trkpt lat="42.9075645" lon="-5.6886228">
        <ele>1361.56</ele>
        <time>2020-07-21T07:10:14.000Z</time>
      </trkpt>
      <trkpt lat="42.9075717" lon="-5.6886318">
        <ele>1361.56</ele>
        <time>2020-07-21T07:10:15.000Z</time>
      </trkpt>
      <trkpt lat="42.9075793" lon="-5.6886437">
        <ele>1361.86</ele>
        <time>2020-07-21T07:10:16.000Z</time>
      </trkpt>
      <trkpt lat="42.9075875" lon="-5.688657">
        <ele>1361.86</ele>
        <time>2020-07-21T07:10:17.000Z</time>
      </trkpt>
      <trkpt lat="42.9075953" lon="-5.6886697">
        <ele>1362.17</ele>
        <time>2020-07-21T07:10:18.000Z</time>
      </trkpt>
      <trkpt lat="42.9076013" lon="-5.6886812">
        <ele>1362.17</ele>
        <time>2020-07-21T07:10:19.000Z</time>
      </trkpt>
      <trkpt lat="42.9076065" lon="-5.6886923">
        <ele>1362.47</ele>
        <time>2020-07-21T07:10:20.000Z</time>
      </trkpt>
      <trkpt lat="42.9076117" lon="-5.6887052">
        <ele>1362.47</ele>
        <time>2020-07-21T07:10:21.000Z</time>
      </trkpt>
      <trkpt lat="42.9076165" lon="-5.6887185">
        <ele>1362.78</ele>
        <time>2020-07-21T07:10:22.000Z</time>
      </trkpt>
      <trkpt lat="42.907622" lon="-5.6887315">
        <ele>1362.78</ele>
        <time>2020-07-21T07:10:23.000Z</time>
      </trkpt>
      <trkpt lat="42.9076275" lon="-5.6887433">
        <ele>1363.08</ele>
        <time>2020-07-21T07:10:24.000Z</time>
      </trkpt>
      <trkpt lat="42.907634" lon="-5.688756">
        <ele>1363.08</ele>
        <time>2020-07-21T07:10:25.000Z</time>
      </trkpt>
      <trkpt lat="42.9076417" lon="-5.6887698">
        <ele>1363.39</ele>
        <time>2020-07-21T07:10:26.000Z</time>
      </trkpt>
      <trkpt lat="42.9076502" lon="-5.6887838">
        <ele>1363.39</ele>
        <time>2020-07-21T07:10:27.000Z</time>
      </trkpt>
      <trkpt lat="42.90766" lon="-5.688796">
        <ele>1363.69</ele>
        <time>2020-07-21T07:10:28.000Z</time>
      </trkpt>
      <trkpt lat="42.9076682" lon="-5.6888065">
        <ele>1363.69</ele>
        <time>2020-07-21T07:10:29.000Z</time>
      </trkpt>
      <trkpt lat="42.9076758" lon="-5.688816">
        <ele>1364</ele>
        <time>2020-07-21T07:10:30.000Z</time>
      </trkpt>
      <trkpt lat="42.9076818" lon="-5.688825">
        <ele>1364</ele>
        <time>2020-07-21T07:10:31.000Z</time>
      </trkpt>
      <trkpt lat="42.9076873" lon="-5.6888337">
        <ele>1364.3</ele>
        <time>2020-07-21T07:10:32.000Z</time>
      </trkpt>
      <trkpt lat="42.907692" lon="-5.6888412">
        <ele>1364.3</ele>
        <time>2020-07-21T07:10:33.000Z</time>
      </trkpt>
      <trkpt lat="42.9076972" lon="-5.6888498">
        <ele>1364.61</ele>
        <time>2020-07-21T07:10:34.000Z</time>
      </trkpt>
      <trkpt lat="42.9077033" lon="-5.6888573">
        <ele>1364.61</ele>
        <time>2020-07-21T07:10:35.000Z</time>
      </trkpt>
      <trkpt lat="42.9077107" lon="-5.688864">
        <ele>1364.76</ele>
        <time>2020-07-21T07:10:36.000Z</time>
      </trkpt>
      <trkpt lat="42.9077207" lon="-5.6888683">
        <ele>1364.76</ele>
        <time>2020-07-21T07:10:37.000Z</time>
      </trkpt>
      <trkpt lat="42.9077317" lon="-5.6888717">
        <ele>1365.06</ele>
        <time>2020-07-21T07:10:38.000Z</time>
      </trkpt>
      <trkpt lat="42.9077447" lon="-5.6888737">
        <ele>1365.06</ele>
        <time>2020-07-21T07:10:39.000Z</time>
      </trkpt>
      <trkpt lat="42.9077565" lon="-5.6888752">
        <ele>1365.37</ele>
        <time>2020-07-21T07:10:40.000Z</time>
      </trkpt>
      <trkpt lat="42.9077678" lon="-5.6888788">
        <ele>1365.37</ele>
        <time>2020-07-21T07:10:41.000Z</time>
      </trkpt>
      <trkpt lat="42.9077778" lon="-5.6888825">
        <ele>1365.52</ele>
        <time>2020-07-21T07:10:42.000Z</time>
      </trkpt>
      <trkpt lat="42.907788" lon="-5.6888848">
        <ele>1365.52</ele>
        <time>2020-07-21T07:10:43.000Z</time>
      </trkpt>
      <trkpt lat="42.9077988" lon="-5.6888853">
        <ele>1365.82</ele>
        <time>2020-07-21T07:10:44.000Z</time>
      </trkpt>
      <trkpt lat="42.907812" lon="-5.6888827">
        <ele>1365.82</ele>
        <time>2020-07-21T07:10:45.000Z</time>
      </trkpt>
      <trkpt lat="42.9078245" lon="-5.6888797">
        <ele>1365.98</ele>
        <time>2020-07-21T07:10:46.000Z</time>
      </trkpt>
      <trkpt lat="42.9078368" lon="-5.6888743">
        <ele>1365.98</ele>
        <time>2020-07-21T07:10:47.000Z</time>
      </trkpt>
      <trkpt lat="42.9078478" lon="-5.6888705">
        <ele>1366.13</ele>
        <time>2020-07-21T07:10:48.000Z</time>
      </trkpt>
      <trkpt lat="42.9078593" lon="-5.6888652">
        <ele>1366.13</ele>
        <time>2020-07-21T07:10:49.000Z</time>
      </trkpt>
      <trkpt lat="42.9078702" lon="-5.6888598">
        <ele>1366.28</ele>
        <time>2020-07-21T07:10:50.000Z</time>
      </trkpt>
      <trkpt lat="42.907882" lon="-5.6888527">
        <ele>1366.28</ele>
        <time>2020-07-21T07:10:51.000Z</time>
      </trkpt>
      <trkpt lat="42.9078938" lon="-5.6888457">
        <ele>1366.44</ele>
        <time>2020-07-21T07:10:52.000Z</time>
      </trkpt>
      <trkpt lat="42.9079053" lon="-5.6888387">
        <ele>1366.44</ele>
        <time>2020-07-21T07:10:53.000Z</time>
      </trkpt>
      <trkpt lat="42.9079178" lon="-5.6888312">
        <ele>1366.59</ele>
        <time>2020-07-21T07:10:54.000Z</time>
      </trkpt>
      <trkpt lat="42.9079308" lon="-5.6888247">
        <ele>1366.59</ele>
        <time>2020-07-21T07:10:55.000Z</time>
      </trkpt>
      <trkpt lat="42.9079442" lon="-5.6888183">
        <ele>1366.74</ele>
        <time>2020-07-21T07:10:56.000Z</time>
      </trkpt>
      <trkpt lat="42.907956" lon="-5.6888143">
        <ele>1366.74</ele>
        <time>2020-07-21T07:10:57.000Z</time>
      </trkpt>
      <trkpt lat="42.9079658" lon="-5.6888118">
        <ele>1367.05</ele>
        <time>2020-07-21T07:10:58.000Z</time>
      </trkpt>
      <trkpt lat="42.9079755" lon="-5.6888102">
        <ele>1367.05</ele>
        <time>2020-07-21T07:10:59.000Z</time>
      </trkpt>
      <trkpt lat="42.9079843" lon="-5.6888097">
        <ele>1367.2</ele>
        <time>2020-07-21T07:11:00.000Z</time>
      </trkpt>
      <trkpt lat="42.907994" lon="-5.6888088">
        <ele>1367.2</ele>
        <time>2020-07-21T07:11:01.000Z</time>
      </trkpt>
      <trkpt lat="42.9080032" lon="-5.688808">
        <ele>1367.5</ele>
        <time>2020-07-21T07:11:02.000Z</time>
      </trkpt>
      <trkpt lat="42.9080127" lon="-5.688807">
        <ele>1367.5</ele>
        <time>2020-07-21T07:11:03.000Z</time>
      </trkpt>
      <trkpt lat="42.9080217" lon="-5.6888068">
        <ele>1367.81</ele>
        <time>2020-07-21T07:11:04.000Z</time>
      </trkpt>
      <trkpt lat="42.9080312" lon="-5.688807">
        <ele>1367.81</ele>
        <time>2020-07-21T07:11:05.000Z</time>
      </trkpt>
      <trkpt lat="42.9080392" lon="-5.6888085">
        <ele>1368.11</ele>
        <time>2020-07-21T07:11:06.000Z</time>
      </trkpt>
      <trkpt lat="42.9080477" lon="-5.6888088">
        <ele>1368.11</ele>
        <time>2020-07-21T07:11:07.000Z</time>
      </trkpt>
      <trkpt lat="42.9080578" lon="-5.6888073">
        <ele>1368.26</ele>
        <time>2020-07-21T07:11:08.000Z</time>
      </trkpt>
      <trkpt lat="42.9080705" lon="-5.6888025">
        <ele>1368.26</ele>
        <time>2020-07-21T07:11:09.000Z</time>
      </trkpt>
      <trkpt lat="42.9080828" lon="-5.6887972">
        <ele>1368.57</ele>
        <time>2020-07-21T07:11:10.000Z</time>
      </trkpt>
      <trkpt lat="42.9080943" lon="-5.6887933">
        <ele>1368.57</ele>
        <time>2020-07-21T07:11:11.000Z</time>
      </trkpt>
      <trkpt lat="42.9081045" lon="-5.6887895">
        <ele>1368.87</ele>
        <time>2020-07-21T07:11:12.000Z</time>
      </trkpt>
      <trkpt lat="42.9081158" lon="-5.6887852">
        <ele>1368.87</ele>
        <time>2020-07-21T07:11:13.000Z</time>
      </trkpt>
      <trkpt lat="42.9081268" lon="-5.6887793">
        <ele>1369.18</ele>
        <time>2020-07-21T07:11:14.000Z</time>
      </trkpt>
      <trkpt lat="42.9081373" lon="-5.6887745">
        <ele>1369.18</ele>
        <time>2020-07-21T07:11:15.000Z</time>
      </trkpt>
      <trkpt lat="42.9081455" lon="-5.6887707">
        <ele>1369.48</ele>
        <time>2020-07-21T07:11:16.000Z</time>
      </trkpt>
      <trkpt lat="42.9081525" lon="-5.688768">
        <ele>1369.48</ele>
        <time>2020-07-21T07:11:17.000Z</time>
      </trkpt>
      <trkpt lat="42.9081605" lon="-5.6887645">
        <ele>1369.64</ele>
        <time>2020-07-21T07:11:18.000Z</time>
      </trkpt>
      <trkpt lat="42.9081695" lon="-5.6887612">
        <ele>1369.64</ele>
        <time>2020-07-21T07:11:19.000Z</time>
      </trkpt>
      <trkpt lat="42.9081793" lon="-5.688757">
        <ele>1369.94</ele>
        <time>2020-07-21T07:11:20.000Z</time>
      </trkpt>
      <trkpt lat="42.9081883" lon="-5.6887533">
        <ele>1369.94</ele>
        <time>2020-07-21T07:11:21.000Z</time>
      </trkpt>
      <trkpt lat="42.9081973" lon="-5.6887507">
        <ele>1370.24</ele>
        <time>2020-07-21T07:11:22.000Z</time>
      </trkpt>
      <trkpt lat="42.908206" lon="-5.6887497">
        <ele>1370.24</ele>
        <time>2020-07-21T07:11:23.000Z</time>
      </trkpt>
      <trkpt lat="42.9082153" lon="-5.6887488">
        <ele>1370.55</ele>
        <time>2020-07-21T07:11:24.000Z</time>
      </trkpt>
      <trkpt lat="42.9082253" lon="-5.6887462">
        <ele>1370.55</ele>
        <time>2020-07-21T07:11:25.000Z</time>
      </trkpt>
      <trkpt lat="42.908236" lon="-5.6887425">
        <ele>1370.85</ele>
        <time>2020-07-21T07:11:26.000Z</time>
      </trkpt>
      <trkpt lat="42.9082465" lon="-5.6887382">
        <ele>1370.85</ele>
        <time>2020-07-21T07:11:27.000Z</time>
      </trkpt>
      <trkpt lat="42.9082565" lon="-5.6887322">
        <ele>1371.01</ele>
        <time>2020-07-21T07:11:28.000Z</time>
      </trkpt>
      <trkpt lat="42.9082662" lon="-5.688725">
        <ele>1371.01</ele>
        <time>2020-07-21T07:11:29.000Z</time>
      </trkpt>
      <trkpt lat="42.9082745" lon="-5.6887173">
        <ele>1371.31</ele>
        <time>2020-07-21T07:11:30.000Z</time>
      </trkpt>
      <trkpt lat="42.9082817" lon="-5.688712">
        <ele>1371.31</ele>
        <time>2020-07-21T07:11:31.000Z</time>
      </trkpt>
      <trkpt lat="42.9082897" lon="-5.6887072">
        <ele>1371.62</ele>
        <time>2020-07-21T07:11:32.000Z</time>
      </trkpt>
      <trkpt lat="42.9082987" lon="-5.6887005">
        <ele>1371.62</ele>
        <time>2020-07-21T07:11:33.000Z</time>
      </trkpt>
      <trkpt lat="42.908309" lon="-5.688691">
        <ele>1371.92</ele>
        <time>2020-07-21T07:11:34.000Z</time>
      </trkpt>
      <trkpt lat="42.9083192" lon="-5.6886792">
        <ele>1371.92</ele>
        <time>2020-07-21T07:11:35.000Z</time>
      </trkpt>
      <trkpt lat="42.90833" lon="-5.688666">
        <ele>1372.07</ele>
        <time>2020-07-21T07:11:36.000Z</time>
      </trkpt>
      <trkpt lat="42.9083402" lon="-5.6886525">
        <ele>1372.07</ele>
        <time>2020-07-21T07:11:37.000Z</time>
      </trkpt>
      <trkpt lat="42.9083495" lon="-5.6886402">
        <ele>1372.38</ele>
        <time>2020-07-21T07:11:38.000Z</time>
      </trkpt>
      <trkpt lat="42.9083578" lon="-5.6886298">
        <ele>1372.38</ele>
        <time>2020-07-21T07:11:39.000Z</time>
      </trkpt>
      <trkpt lat="42.908366" lon="-5.6886198">
        <ele>1372.68</ele>
        <time>2020-07-21T07:11:40.000Z</time>
      </trkpt>
      <trkpt lat="42.9083735" lon="-5.6886088">
        <ele>1372.68</ele>
        <time>2020-07-21T07:11:41.000Z</time>
      </trkpt>
      <trkpt lat="42.9083815" lon="-5.6885967">
        <ele>1372.99</ele>
        <time>2020-07-21T07:11:42.000Z</time>
      </trkpt>
      <trkpt lat="42.9083892" lon="-5.6885843">
        <ele>1372.99</ele>
        <time>2020-07-21T07:11:43.000Z</time>
      </trkpt>
      <trkpt lat="42.9083972" lon="-5.6885722">
        <ele>1373.29</ele>
        <time>2020-07-21T07:11:44.000Z</time>
      </trkpt>
      <trkpt lat="42.9084052" lon="-5.6885613">
        <ele>1373.29</ele>
        <time>2020-07-21T07:11:45.000Z</time>
      </trkpt>
      <trkpt lat="42.9084135" lon="-5.6885517">
        <ele>1373.6</ele>
        <time>2020-07-21T07:11:46.000Z</time>
      </trkpt>
      <trkpt lat="42.9084223" lon="-5.6885433">
        <ele>1373.6</ele>
        <time>2020-07-21T07:11:47.000Z</time>
      </trkpt>
      <trkpt lat="42.9084312" lon="-5.6885348">
        <ele>1373.9</ele>
        <time>2020-07-21T07:11:48.000Z</time>
      </trkpt>
      <trkpt lat="42.90844" lon="-5.6885255">
        <ele>1373.9</ele>
        <time>2020-07-21T07:11:49.000Z</time>
      </trkpt>
      <trkpt lat="42.9084477" lon="-5.6885158">
        <ele>1374.21</ele>
        <time>2020-07-21T07:11:50.000Z</time>
      </trkpt>
      <trkpt lat="42.9084547" lon="-5.688507">
        <ele>1374.21</ele>
        <time>2020-07-21T07:11:51.000Z</time>
      </trkpt>
      <trkpt lat="42.9084622" lon="-5.6884988">
        <ele>1374.36</ele>
        <time>2020-07-21T07:11:52.000Z</time>
      </trkpt>
      <trkpt lat="42.9084717" lon="-5.6884905">
        <ele>1374.36</ele>
        <time>2020-07-21T07:11:53.000Z</time>
      </trkpt>
      <trkpt lat="42.908482" lon="-5.688483">
        <ele>1374.67</ele>
        <time>2020-07-21T07:11:54.000Z</time>
      </trkpt>
      <trkpt lat="42.9084925" lon="-5.6884758">
        <ele>1374.67</ele>
        <time>2020-07-21T07:11:55.000Z</time>
      </trkpt>
      <trkpt lat="42.908502" lon="-5.6884692">
        <ele>1374.97</ele>
        <time>2020-07-21T07:11:56.000Z</time>
      </trkpt>
      <trkpt lat="42.908511" lon="-5.6884632">
        <ele>1374.97</ele>
        <time>2020-07-21T07:11:57.000Z</time>
      </trkpt>
      <trkpt lat="42.908519" lon="-5.688458">
        <ele>1375.27</ele>
        <time>2020-07-21T07:11:58.000Z</time>
      </trkpt>
      <trkpt lat="42.9085272" lon="-5.6884537">
        <ele>1375.27</ele>
        <time>2020-07-21T07:11:59.000Z</time>
      </trkpt>
      <trkpt lat="42.9085368" lon="-5.6884485">
        <ele>1375.58</ele>
        <time>2020-07-21T07:12:00.000Z</time>
      </trkpt>
      <trkpt lat="42.9085477" lon="-5.6884428">
        <ele>1375.58</ele>
        <time>2020-07-21T07:12:01.000Z</time>
      </trkpt>
      <trkpt lat="42.9085587" lon="-5.6884375">
        <ele>1375.88</ele>
        <time>2020-07-21T07:12:02.000Z</time>
      </trkpt>
      <trkpt lat="42.908569" lon="-5.6884337">
        <ele>1375.88</ele>
        <time>2020-07-21T07:12:03.000Z</time>
      </trkpt>
      <trkpt lat="42.908579" lon="-5.6884293">
        <ele>1376.19</ele>
        <time>2020-07-21T07:12:04.000Z</time>
      </trkpt>
      <trkpt lat="42.908588" lon="-5.688426">
        <ele>1376.19</ele>
        <time>2020-07-21T07:12:05.000Z</time>
      </trkpt>
      <trkpt lat="42.9085965" lon="-5.6884228">
        <ele>1376.49</ele>
        <time>2020-07-21T07:12:06.000Z</time>
      </trkpt>
      <trkpt lat="42.9086047" lon="-5.6884205">
        <ele>1376.49</ele>
        <time>2020-07-21T07:12:07.000Z</time>
      </trkpt>
      <trkpt lat="42.908614" lon="-5.6884172">
        <ele>1376.8</ele>
        <time>2020-07-21T07:12:08.000Z</time>
      </trkpt>
      <trkpt lat="42.9086235" lon="-5.6884127">
        <ele>1376.8</ele>
        <time>2020-07-21T07:12:09.000Z</time>
      </trkpt>
      <trkpt lat="42.9086325" lon="-5.6884065">
        <ele>1377.1</ele>
        <time>2020-07-21T07:12:10.000Z</time>
      </trkpt>
      <trkpt lat="42.90864" lon="-5.6883997">
        <ele>1377.1</ele>
        <time>2020-07-21T07:12:11.000Z</time>
      </trkpt>
      <trkpt lat="42.9086465" lon="-5.6883937">
        <ele>1377.41</ele>
        <time>2020-07-21T07:12:12.000Z</time>
      </trkpt>
      <trkpt lat="42.9086542" lon="-5.6883905">
        <ele>1377.41</ele>
        <time>2020-07-21T07:12:13.000Z</time>
      </trkpt>
      <trkpt lat="42.9086627" lon="-5.6883888">
        <ele>1377.71</ele>
        <time>2020-07-21T07:12:14.000Z</time>
      </trkpt>
      <trkpt lat="42.908673" lon="-5.6883877">
        <ele>1377.71</ele>
        <time>2020-07-21T07:12:15.000Z</time>
      </trkpt>
      <trkpt lat="42.9086833" lon="-5.6883863">
        <ele>1377.86</ele>
        <time>2020-07-21T07:12:16.000Z</time>
      </trkpt>
      <trkpt lat="42.9086928" lon="-5.6883848">
        <ele>1377.86</ele>
        <time>2020-07-21T07:12:17.000Z</time>
      </trkpt>
      <trkpt lat="42.908701" lon="-5.6883828">
        <ele>1378.17</ele>
        <time>2020-07-21T07:12:18.000Z</time>
      </trkpt>
      <trkpt lat="42.9087087" lon="-5.688379">
        <ele>1378.17</ele>
        <time>2020-07-21T07:12:19.000Z</time>
      </trkpt>
      <trkpt lat="42.9087175" lon="-5.688374">
        <ele>1378.47</ele>
        <time>2020-07-21T07:12:20.000Z</time>
      </trkpt>
      <trkpt lat="42.9087263" lon="-5.688367">
        <ele>1378.47</ele>
        <time>2020-07-21T07:12:21.000Z</time>
      </trkpt>
      <trkpt lat="42.908735" lon="-5.6883588">
        <ele>1378.63</ele>
        <time>2020-07-21T07:12:22.000Z</time>
      </trkpt>
      <trkpt lat="42.9087437" lon="-5.6883503">
        <ele>1378.63</ele>
        <time>2020-07-21T07:12:23.000Z</time>
      </trkpt>
      <trkpt lat="42.9087525" lon="-5.688343">
        <ele>1378.93</ele>
        <time>2020-07-21T07:12:24.000Z</time>
      </trkpt>
      <trkpt lat="42.9087617" lon="-5.688336">
        <ele>1378.93</ele>
        <time>2020-07-21T07:12:25.000Z</time>
      </trkpt>
      <trkpt lat="42.9087722" lon="-5.6883283">
        <ele>1379.24</ele>
        <time>2020-07-21T07:12:26.000Z</time>
      </trkpt>
      <trkpt lat="42.908784" lon="-5.6883202">
        <ele>1379.24</ele>
        <time>2020-07-21T07:12:27.000Z</time>
      </trkpt>
      <trkpt lat="42.9087975" lon="-5.6883118">
        <ele>1379.39</ele>
        <time>2020-07-21T07:12:28.000Z</time>
      </trkpt>
      <trkpt lat="42.90881" lon="-5.6883043">
        <ele>1379.39</ele>
        <time>2020-07-21T07:12:29.000Z</time>
      </trkpt>
      <trkpt lat="42.9088213" lon="-5.6882958">
        <ele>1379.69</ele>
        <time>2020-07-21T07:12:30.000Z</time>
      </trkpt>
      <trkpt lat="42.9088327" lon="-5.6882858">
        <ele>1379.69</ele>
        <time>2020-07-21T07:12:31.000Z</time>
      </trkpt>
      <trkpt lat="42.908844" lon="-5.6882742">
        <ele>1380</ele>
        <time>2020-07-21T07:12:32.000Z</time>
      </trkpt>
      <trkpt lat="42.908855" lon="-5.6882628">
        <ele>1380</ele>
        <time>2020-07-21T07:12:33.000Z</time>
      </trkpt>
      <trkpt lat="42.9088655" lon="-5.6882525">
        <ele>1380.15</ele>
        <time>2020-07-21T07:12:34.000Z</time>
      </trkpt>
      <trkpt lat="42.9088767" lon="-5.6882423">
        <ele>1380.15</ele>
        <time>2020-07-21T07:12:35.000Z</time>
      </trkpt>
      <trkpt lat="42.9088885" lon="-5.6882317">
        <ele>1380.46</ele>
        <time>2020-07-21T07:12:36.000Z</time>
      </trkpt>
      <trkpt lat="42.9088998" lon="-5.6882215">
        <ele>1380.46</ele>
        <time>2020-07-21T07:12:37.000Z</time>
      </trkpt>
      <trkpt lat="42.9089112" lon="-5.6882125">
        <ele>1380.76</ele>
        <time>2020-07-21T07:12:38.000Z</time>
      </trkpt>
      <trkpt lat="42.9089227" lon="-5.6882052">
        <ele>1380.76</ele>
        <time>2020-07-21T07:12:39.000Z</time>
      </trkpt>
      <trkpt lat="42.9089345" lon="-5.6881977">
        <ele>1380.91</ele>
        <time>2020-07-21T07:12:40.000Z</time>
      </trkpt>
      <trkpt lat="42.9089455" lon="-5.68819">
        <ele>1380.91</ele>
        <time>2020-07-21T07:12:41.000Z</time>
      </trkpt>
      <trkpt lat="42.9089568" lon="-5.6881778">
        <ele>1381.22</ele>
        <time>2020-07-21T07:12:42.000Z</time>
      </trkpt>
      <trkpt lat="42.9089672" lon="-5.688166">
        <ele>1381.22</ele>
        <time>2020-07-21T07:12:43.000Z</time>
      </trkpt>
      <trkpt lat="42.9089777" lon="-5.6881547">
        <ele>1381.37</ele>
        <time>2020-07-21T07:12:44.000Z</time>
      </trkpt>
      <trkpt lat="42.908988" lon="-5.688146">
        <ele>1381.37</ele>
        <time>2020-07-21T07:12:45.000Z</time>
      </trkpt>
      <trkpt lat="42.9089978" lon="-5.688137">
        <ele>1381.52</ele>
        <time>2020-07-21T07:12:46.000Z</time>
      </trkpt>
      <trkpt lat="42.9090083" lon="-5.6881283">
        <ele>1381.52</ele>
        <time>2020-07-21T07:12:47.000Z</time>
      </trkpt>
      <trkpt lat="42.9090178" lon="-5.6881205">
        <ele>1381.83</ele>
        <time>2020-07-21T07:12:48.000Z</time>
      </trkpt>
      <trkpt lat="42.9090297" lon="-5.6881123">
        <ele>1381.83</ele>
        <time>2020-07-21T07:12:49.000Z</time>
      </trkpt>
      <trkpt lat="42.9090413" lon="-5.6881032">
        <ele>1382.13</ele>
        <time>2020-07-21T07:12:50.000Z</time>
      </trkpt>
      <trkpt lat="42.9090522" lon="-5.6880927">
        <ele>1382.13</ele>
        <time>2020-07-21T07:12:51.000Z</time>
      </trkpt>
      <trkpt lat="42.9090605" lon="-5.6880808">
        <ele>1382.29</ele>
        <time>2020-07-21T07:12:52.000Z</time>
      </trkpt>
      <trkpt lat="42.9090682" lon="-5.6880695">
        <ele>1382.29</ele>
        <time>2020-07-21T07:12:53.000Z</time>
      </trkpt>
      <trkpt lat="42.9090773" lon="-5.6880578">
        <ele>1382.59</ele>
        <time>2020-07-21T07:12:54.000Z</time>
      </trkpt>
      <trkpt lat="42.909087" lon="-5.6880473">
        <ele>1382.59</ele>
        <time>2020-07-21T07:12:55.000Z</time>
      </trkpt>
      <trkpt lat="42.9090972" lon="-5.6880365">
        <ele>1382.74</ele>
        <time>2020-07-21T07:12:56.000Z</time>
      </trkpt>
      <trkpt lat="42.9091067" lon="-5.6880275">
        <ele>1382.74</ele>
        <time>2020-07-21T07:12:57.000Z</time>
      </trkpt>
      <trkpt lat="42.9091165" lon="-5.6880202">
        <ele>1383.05</ele>
        <time>2020-07-21T07:12:58.000Z</time>
      </trkpt>
      <trkpt lat="42.9091252" lon="-5.6880143">
        <ele>1383.05</ele>
        <time>2020-07-21T07:12:59.000Z</time>
      </trkpt>
      <trkpt lat="42.9091327" lon="-5.688009">
        <ele>1383.2</ele>
        <time>2020-07-21T07:13:00.000Z</time>
      </trkpt>
      <trkpt lat="42.9091397" lon="-5.6880035">
        <ele>1383.2</ele>
        <time>2020-07-21T07:13:01.000Z</time>
      </trkpt>
      <trkpt lat="42.9091473" lon="-5.6879982">
        <ele>1383.35</ele>
        <time>2020-07-21T07:13:02.000Z</time>
      </trkpt>
      <trkpt lat="42.909155" lon="-5.6879932">
        <ele>1383.35</ele>
        <time>2020-07-21T07:13:03.000Z</time>
      </trkpt>
      <trkpt lat="42.9091618" lon="-5.6879887">
        <ele>1383.66</ele>
        <time>2020-07-21T07:13:04.000Z</time>
      </trkpt>
      <trkpt lat="42.9091677" lon="-5.6879842">
        <ele>1383.66</ele>
        <time>2020-07-21T07:13:05.000Z</time>
      </trkpt>
      <trkpt lat="42.9091748" lon="-5.687979">
        <ele>1383.81</ele>
        <time>2020-07-21T07:13:06.000Z</time>
      </trkpt>
      <trkpt lat="42.9091827" lon="-5.687974">
        <ele>1383.81</ele>
        <time>2020-07-21T07:13:07.000Z</time>
      </trkpt>
      <trkpt lat="42.9091917" lon="-5.6879682">
        <ele>1383.96</ele>
        <time>2020-07-21T07:13:08.000Z</time>
      </trkpt>
      <trkpt lat="42.9092012" lon="-5.6879597">
        <ele>1383.96</ele>
        <time>2020-07-21T07:13:09.000Z</time>
      </trkpt>
      <trkpt lat="42.909211" lon="-5.6879497">
        <ele>1384.11</ele>
        <time>2020-07-21T07:13:10.000Z</time>
      </trkpt>
      <trkpt lat="42.9092205" lon="-5.6879388">
        <ele>1384.11</ele>
        <time>2020-07-21T07:13:11.000Z</time>
      </trkpt>
      <trkpt lat="42.9092318" lon="-5.6879275">
        <ele>1384.27</ele>
        <time>2020-07-21T07:13:12.000Z</time>
      </trkpt>
      <trkpt lat="42.9092422" lon="-5.6879157">
        <ele>1384.27</ele>
        <time>2020-07-21T07:13:13.000Z</time>
      </trkpt>
      <trkpt lat="42.9092563" lon="-5.6879023">
        <ele>1384.42</ele>
        <time>2020-07-21T07:13:14.000Z</time>
      </trkpt>
      <trkpt lat="42.9092682" lon="-5.6878892">
        <ele>1384.42</ele>
        <time>2020-07-21T07:13:15.000Z</time>
      </trkpt>
      <trkpt lat="42.9092808" lon="-5.6878753">
        <ele>1384.57</ele>
        <time>2020-07-21T07:13:16.000Z</time>
      </trkpt>
      <trkpt lat="42.9092902" lon="-5.6878635">
        <ele>1384.57</ele>
        <time>2020-07-21T07:13:17.000Z</time>
      </trkpt>
      <trkpt lat="42.9093" lon="-5.6878535">
        <ele>1384.88</ele>
        <time>2020-07-21T07:13:18.000Z</time>
      </trkpt>
      <trkpt lat="42.90931" lon="-5.6878443">
        <ele>1384.88</ele>
        <time>2020-07-21T07:13:19.000Z</time>
      </trkpt>
      <trkpt lat="42.9093188" lon="-5.6878363">
        <ele>1385.03</ele>
        <time>2020-07-21T07:13:20.000Z</time>
      </trkpt>
      <trkpt lat="42.9093273" lon="-5.687828">
        <ele>1385.03</ele>
        <time>2020-07-21T07:13:21.000Z</time>
      </trkpt>
      <trkpt lat="42.9093355" lon="-5.6878203">
        <ele>1385.18</ele>
        <time>2020-07-21T07:13:22.000Z</time>
      </trkpt>
      <trkpt lat="42.909345" lon="-5.687811">
        <ele>1385.18</ele>
        <time>2020-07-21T07:13:23.000Z</time>
      </trkpt>
      <trkpt lat="42.9093533" lon="-5.6878015">
        <ele>1385.33</ele>
        <time>2020-07-21T07:13:24.000Z</time>
      </trkpt>
      <trkpt lat="42.9093608" lon="-5.687793">
        <ele>1385.33</ele>
        <time>2020-07-21T07:13:25.000Z</time>
      </trkpt>
      <trkpt lat="42.909368" lon="-5.687785">
        <ele>1385.48</ele>
        <time>2020-07-21T07:13:26.000Z</time>
      </trkpt>
      <trkpt lat="42.9093757" lon="-5.6877765">
        <ele>1385.48</ele>
        <time>2020-07-21T07:13:27.000Z</time>
      </trkpt>
      <trkpt lat="42.9093828" lon="-5.6877643">
        <ele>1385.64</ele>
        <time>2020-07-21T07:13:28.000Z</time>
      </trkpt>
      <trkpt lat="42.9093882" lon="-5.6877513">
        <ele>1385.64</ele>
        <time>2020-07-21T07:13:29.000Z</time>
      </trkpt>
      <trkpt lat="42.9093933" lon="-5.687738">
        <ele>1385.79</ele>
        <time>2020-07-21T07:13:30.000Z</time>
      </trkpt>
      <trkpt lat="42.9094003" lon="-5.6877257">
        <ele>1385.79</ele>
        <time>2020-07-21T07:13:31.000Z</time>
      </trkpt>
      <trkpt lat="42.9094097" lon="-5.687714">
        <ele>1385.94</ele>
        <time>2020-07-21T07:13:32.000Z</time>
      </trkpt>
      <trkpt lat="42.909419" lon="-5.6877033">
        <ele>1385.94</ele>
        <time>2020-07-21T07:13:33.000Z</time>
      </trkpt>
      <trkpt lat="42.9094273" lon="-5.6876937">
        <ele>1386.09</ele>
        <time>2020-07-21T07:13:34.000Z</time>
      </trkpt>
      <trkpt lat="42.9094357" lon="-5.6876827">
        <ele>1386.09</ele>
        <time>2020-07-21T07:13:35.000Z</time>
      </trkpt>
      <trkpt lat="42.9094447" lon="-5.6876703">
        <ele>1386.25</ele>
        <time>2020-07-21T07:13:36.000Z</time>
      </trkpt>
      <trkpt lat="42.9094548" lon="-5.6876587">
        <ele>1386.25</ele>
        <time>2020-07-21T07:13:37.000Z</time>
      </trkpt>
      <trkpt lat="42.9094642" lon="-5.6876488">
        <ele>1386.4</ele>
        <time>2020-07-21T07:13:38.000Z</time>
      </trkpt>
      <trkpt lat="42.9094733" lon="-5.6876405">
        <ele>1386.4</ele>
        <time>2020-07-21T07:13:39.000Z</time>
      </trkpt>
      <trkpt lat="42.9094822" lon="-5.6876315">
        <ele>1386.4</ele>
        <time>2020-07-21T07:13:40.000Z</time>
      </trkpt>
      <trkpt lat="42.9094918" lon="-5.6876225">
        <ele>1386.4</ele>
        <time>2020-07-21T07:13:41.000Z</time>
      </trkpt>
      <trkpt lat="42.909502" lon="-5.687615">
        <ele>1386.55</ele>
        <time>2020-07-21T07:13:42.000Z</time>
      </trkpt>
      <trkpt lat="42.9095117" lon="-5.6876072">
        <ele>1386.55</ele>
        <time>2020-07-21T07:13:43.000Z</time>
      </trkpt>
      <trkpt lat="42.9095208" lon="-5.6876002">
        <ele>1386.7</ele>
        <time>2020-07-21T07:13:44.000Z</time>
      </trkpt>
      <trkpt lat="42.9095292" lon="-5.6875918">
        <ele>1386.7</ele>
        <time>2020-07-21T07:13:45.000Z</time>
      </trkpt>
      <trkpt lat="42.9095375" lon="-5.6875842">
        <ele>1386.7</ele>
        <time>2020-07-21T07:13:46.000Z</time>
      </trkpt>
      <trkpt lat="42.9095462" lon="-5.687576">
        <ele>1386.7</ele>
        <time>2020-07-21T07:13:47.000Z</time>
      </trkpt>
      <trkpt lat="42.9095552" lon="-5.6875673">
        <ele>1386.86</ele>
        <time>2020-07-21T07:13:48.000Z</time>
      </trkpt>
      <trkpt lat="42.9095635" lon="-5.6875592">
        <ele>1386.86</ele>
        <time>2020-07-21T07:13:49.000Z</time>
      </trkpt>
      <trkpt lat="42.90957" lon="-5.6875502">
        <ele>1387.01</ele>
        <time>2020-07-21T07:13:50.000Z</time>
      </trkpt>
      <trkpt lat="42.9095762" lon="-5.6875422">
        <ele>1387.01</ele>
        <time>2020-07-21T07:13:51.000Z</time>
      </trkpt>
      <trkpt lat="42.9095828" lon="-5.687536">
        <ele>1387.01</ele>
        <time>2020-07-21T07:13:52.000Z</time>
      </trkpt>
      <trkpt lat="42.9095917" lon="-5.6875325">
        <ele>1387.01</ele>
        <time>2020-07-21T07:13:53.000Z</time>
      </trkpt>
      <trkpt lat="42.9095928" lon="-5.6875293">
        <ele>1387.16</ele>
        <time>2020-07-21T07:13:54.000Z</time>
      </trkpt>
      <trkpt lat="42.9095942" lon="-5.687526">
        <ele>1387.16</ele>
        <time>2020-07-21T07:13:55.000Z</time>
      </trkpt>
      <trkpt lat="42.9095967" lon="-5.6875233">
        <ele>1387.31</ele>
        <time>2020-07-21T07:13:56.000Z</time>
      </trkpt>
      <trkpt lat="42.9096053" lon="-5.687522">
        <ele>1387.31</ele>
        <time>2020-07-21T07:13:57.000Z</time>
      </trkpt>
      <trkpt lat="42.9096103" lon="-5.6875198">
        <ele>1387.47</ele>
        <time>2020-07-21T07:13:58.000Z</time>
      </trkpt>
      <trkpt lat="42.9096107" lon="-5.6875185">
        <ele>1387.47</ele>
        <time>2020-07-21T07:13:59.000Z</time>
      </trkpt>
      <trkpt lat="42.9096098" lon="-5.6875185">
        <ele>1387.77</ele>
        <time>2020-07-21T07:14:00.000Z</time>
      </trkpt>
      <trkpt lat="42.9096097" lon="-5.68752">
        <ele>1387.77</ele>
        <time>2020-07-21T07:14:01.000Z</time>
      </trkpt>
      <trkpt lat="42.9096095" lon="-5.687521">
        <ele>1387.92</ele>
        <time>2020-07-21T07:14:02.000Z</time>
      </trkpt>
      <trkpt lat="42.9096092" lon="-5.6875218">
        <ele>1387.92</ele>
        <time>2020-07-21T07:14:03.000Z</time>
      </trkpt>
      <trkpt lat="42.909609" lon="-5.6875232">
        <ele>1388.23</ele>
        <time>2020-07-21T07:14:04.000Z</time>
      </trkpt>
      <trkpt lat="42.9096088" lon="-5.6875253">
        <ele>1388.23</ele>
        <time>2020-07-21T07:14:05.000Z</time>
      </trkpt>
      <trkpt lat="42.9096087" lon="-5.6875277">
        <ele>1388.38</ele>
        <time>2020-07-21T07:14:06.000Z</time>
      </trkpt>
      <trkpt lat="42.9096083" lon="-5.6875298">
        <ele>1388.38</ele>
        <time>2020-07-21T07:14:07.000Z</time>
      </trkpt>
      <trkpt lat="42.9096082" lon="-5.6875318">
        <ele>1388.69</ele>
        <time>2020-07-21T07:14:08.000Z</time>
      </trkpt>
      <trkpt lat="42.9096078" lon="-5.6875333">
        <ele>1388.69</ele>
        <time>2020-07-21T07:14:09.000Z</time>
      </trkpt>
      <trkpt lat="42.9096077" lon="-5.6875345">
        <ele>1388.99</ele>
        <time>2020-07-21T07:14:10.000Z</time>
      </trkpt>
      <trkpt lat="42.9096075" lon="-5.6875353">
        <ele>1388.99</ele>
        <time>2020-07-21T07:14:11.000Z</time>
      </trkpt>
      <trkpt lat="42.909607" lon="-5.6875355">
        <ele>1389.14</ele>
        <time>2020-07-21T07:14:12.000Z</time>
      </trkpt>
      <trkpt lat="42.9096073" lon="-5.6875358">
        <ele>1389.14</ele>
        <time>2020-07-21T07:14:13.000Z</time>
      </trkpt>
      <trkpt lat="42.9096092" lon="-5.687536">
        <ele>1389.45</ele>
        <time>2020-07-21T07:14:14.000Z</time>
      </trkpt>
      <trkpt lat="42.9096137" lon="-5.6875385">
        <ele>1389.45</ele>
        <time>2020-07-21T07:14:15.000Z</time>
      </trkpt>
      <trkpt lat="42.9096195" lon="-5.6875367">
        <ele>1389.75</ele>
        <time>2020-07-21T07:14:16.000Z</time>
      </trkpt>
      <trkpt lat="42.9096265" lon="-5.6875333">
        <ele>1389.75</ele>
        <time>2020-07-21T07:14:17.000Z</time>
      </trkpt>
      <trkpt lat="42.9096335" lon="-5.6875265">
        <ele>1390.06</ele>
        <time>2020-07-21T07:14:18.000Z</time>
      </trkpt>
      <trkpt lat="42.9096395" lon="-5.6875215">
        <ele>1390.06</ele>
        <time>2020-07-21T07:14:19.000Z</time>
      </trkpt>
      <trkpt lat="42.9096455" lon="-5.6875168">
        <ele>1390.21</ele>
        <time>2020-07-21T07:14:20.000Z</time>
      </trkpt>
      <trkpt lat="42.9096522" lon="-5.6875117">
        <ele>1390.21</ele>
        <time>2020-07-21T07:14:21.000Z</time>
      </trkpt>
      <trkpt lat="42.9096602" lon="-5.687509">
        <ele>1390.51</ele>
        <time>2020-07-21T07:14:22.000Z</time>
      </trkpt>
      <trkpt lat="42.9096692" lon="-5.687508">
        <ele>1390.51</ele>
        <time>2020-07-21T07:14:23.000Z</time>
      </trkpt>
      <trkpt lat="42.9096788" lon="-5.6875083">
        <ele>1390.82</ele>
        <time>2020-07-21T07:14:24.000Z</time>
      </trkpt>
      <trkpt lat="42.909692" lon="-5.6875038">
        <ele>1390.82</ele>
        <time>2020-07-21T07:14:25.000Z</time>
      </trkpt>
      <trkpt lat="42.9097043" lon="-5.6874972">
        <ele>1391.12</ele>
        <time>2020-07-21T07:14:26.000Z</time>
      </trkpt>
      <trkpt lat="42.9097148" lon="-5.68749">
        <ele>1391.12</ele>
        <time>2020-07-21T07:14:27.000Z</time>
      </trkpt>
      <trkpt lat="42.9097208" lon="-5.6874867">
        <ele>1391.28</ele>
        <time>2020-07-21T07:14:28.000Z</time>
      </trkpt>
      <trkpt lat="42.909725" lon="-5.6874847">
        <ele>1391.28</ele>
        <time>2020-07-21T07:14:29.000Z</time>
      </trkpt>
      <trkpt lat="42.9097275" lon="-5.687483">
        <ele>1391.58</ele>
        <time>2020-07-21T07:14:30.000Z</time>
      </trkpt>
      <trkpt lat="42.9097292" lon="-5.6874817">
        <ele>1391.58</ele>
        <time>2020-07-21T07:14:31.000Z</time>
      </trkpt>
      <trkpt lat="42.9097312" lon="-5.6874812">
        <ele>1391.89</ele>
        <time>2020-07-21T07:14:32.000Z</time>
      </trkpt>
      <trkpt lat="42.9097337" lon="-5.687482">
        <ele>1391.89</ele>
        <time>2020-07-21T07:14:33.000Z</time>
      </trkpt>
      <trkpt lat="42.9097357" lon="-5.6874838">
        <ele>1392.04</ele>
        <time>2020-07-21T07:14:34.000Z</time>
      </trkpt>
      <trkpt lat="42.9097363" lon="-5.6874855">
        <ele>1392.04</ele>
        <time>2020-07-21T07:14:35.000Z</time>
      </trkpt>
      <trkpt lat="42.9097368" lon="-5.6874863">
        <ele>1392.34</ele>
        <time>2020-07-21T07:14:36.000Z</time>
      </trkpt>
      <trkpt lat="42.9097373" lon="-5.6874863">
        <ele>1392.34</ele>
        <time>2020-07-21T07:14:37.000Z</time>
      </trkpt>
      <trkpt lat="42.909738" lon="-5.6874858">
        <ele>1392.5</ele>
        <time>2020-07-21T07:14:38.000Z</time>
      </trkpt>
      <trkpt lat="42.9097388" lon="-5.6874852">
        <ele>1392.5</ele>
        <time>2020-07-21T07:14:39.000Z</time>
      </trkpt>
      <trkpt lat="42.9097397" lon="-5.6874847">
        <ele>1392.65</ele>
        <time>2020-07-21T07:14:40.000Z</time>
      </trkpt>
      <trkpt lat="42.9097403" lon="-5.6874842">
        <ele>1392.65</ele>
        <time>2020-07-21T07:14:41.000Z</time>
      </trkpt>
      <trkpt lat="42.909741" lon="-5.6874837">
        <ele>1392.95</ele>
        <time>2020-07-21T07:14:42.000Z</time>
      </trkpt>
      <trkpt lat="42.9097415" lon="-5.6874832">
        <ele>1392.95</ele>
        <time>2020-07-21T07:14:43.000Z</time>
      </trkpt>
      <trkpt lat="42.9097422" lon="-5.6874825">
        <ele>1393.1</ele>
        <time>2020-07-21T07:14:44.000Z</time>
      </trkpt>
      <trkpt lat="42.909743" lon="-5.687482">
        <ele>1393.1</ele>
        <time>2020-07-21T07:14:45.000Z</time>
      </trkpt>
      <trkpt lat="42.9097437" lon="-5.6874817">
        <ele>1393.26</ele>
        <time>2020-07-21T07:14:46.000Z</time>
      </trkpt>
      <trkpt lat="42.909744" lon="-5.6874822">
        <ele>1393.26</ele>
        <time>2020-07-21T07:14:47.000Z</time>
      </trkpt>
      <trkpt lat="42.9097445" lon="-5.6874828">
        <ele>1393.56</ele>
        <time>2020-07-21T07:14:48.000Z</time>
      </trkpt>
      <trkpt lat="42.9097447" lon="-5.6874847">
        <ele>1393.56</ele>
        <time>2020-07-21T07:14:49.000Z</time>
      </trkpt>
      <trkpt lat="42.9097458" lon="-5.6874868">
        <ele>1393.71</ele>
        <time>2020-07-21T07:14:50.000Z</time>
      </trkpt>
      <trkpt lat="42.9097483" lon="-5.6874902">
        <ele>1393.71</ele>
        <time>2020-07-21T07:14:51.000Z</time>
      </trkpt>
      <trkpt lat="42.9097527" lon="-5.6874927">
        <ele>1393.87</ele>
        <time>2020-07-21T07:14:52.000Z</time>
      </trkpt>
      <trkpt lat="42.9097568" lon="-5.6874957">
        <ele>1393.87</ele>
        <time>2020-07-21T07:14:53.000Z</time>
      </trkpt>
      <trkpt lat="42.9097612" lon="-5.6874987">
        <ele>1394.17</ele>
        <time>2020-07-21T07:14:54.000Z</time>
      </trkpt>
      <trkpt lat="42.9097643" lon="-5.6875033">
        <ele>1394.17</ele>
        <time>2020-07-21T07:14:55.000Z</time>
      </trkpt>
      <trkpt lat="42.9097675" lon="-5.6875062">
        <ele>1394.32</ele>
        <time>2020-07-21T07:14:56.000Z</time>
      </trkpt>
      <trkpt lat="42.9097697" lon="-5.687508">
        <ele>1394.32</ele>
        <time>2020-07-21T07:14:57.000Z</time>
      </trkpt>
      <trkpt lat="42.9097733" lon="-5.6875075">
        <ele>1394.63</ele>
        <time>2020-07-21T07:14:58.000Z</time>
      </trkpt>
      <trkpt lat="42.9097767" lon="-5.6875075">
        <ele>1394.63</ele>
        <time>2020-07-21T07:14:59.000Z</time>
      </trkpt>
      <trkpt lat="42.909781" lon="-5.6875073">
        <ele>1394.93</ele>
        <time>2020-07-21T07:15:00.000Z</time>
      </trkpt>
      <trkpt lat="42.9097857" lon="-5.6875082">
        <ele>1394.93</ele>
        <time>2020-07-21T07:15:01.000Z</time>
      </trkpt>
      <trkpt lat="42.9097908" lon="-5.68751">
        <ele>1395.24</ele>
        <time>2020-07-21T07:15:02.000Z</time>
      </trkpt>
      <trkpt lat="42.9097973" lon="-5.6875137">
        <ele>1395.24</ele>
        <time>2020-07-21T07:15:03.000Z</time>
      </trkpt>
      <trkpt lat="42.9098027" lon="-5.6875178">
        <ele>1395.39</ele>
        <time>2020-07-21T07:15:04.000Z</time>
      </trkpt>
      <trkpt lat="42.9098085" lon="-5.6875223">
        <ele>1395.39</ele>
        <time>2020-07-21T07:15:05.000Z</time>
      </trkpt>
      <trkpt lat="42.909813" lon="-5.687527">
        <ele>1395.7</ele>
        <time>2020-07-21T07:15:06.000Z</time>
      </trkpt>
      <trkpt lat="42.9098178" lon="-5.6875322">
        <ele>1395.7</ele>
        <time>2020-07-21T07:15:07.000Z</time>
      </trkpt>
      <trkpt lat="42.9098222" lon="-5.687538">
        <ele>1396</ele>
        <time>2020-07-21T07:15:08.000Z</time>
      </trkpt>
      <trkpt lat="42.9098297" lon="-5.6875427">
        <ele>1396</ele>
        <time>2020-07-21T07:15:09.000Z</time>
      </trkpt>
      <trkpt lat="42.909834" lon="-5.6875477">
        <ele>1396.31</ele>
        <time>2020-07-21T07:15:10.000Z</time>
      </trkpt>
      <trkpt lat="42.9098395" lon="-5.6875523">
        <ele>1396.31</ele>
        <time>2020-07-21T07:15:11.000Z</time>
      </trkpt>
      <trkpt lat="42.9098438" lon="-5.6875585">
        <ele>1396.61</ele>
        <time>2020-07-21T07:15:12.000Z</time>
      </trkpt>
      <trkpt lat="42.9098523" lon="-5.6875637">
        <ele>1396.61</ele>
        <time>2020-07-21T07:15:13.000Z</time>
      </trkpt>
      <trkpt lat="42.9098602" lon="-5.6875658">
        <ele>1396.92</ele>
        <time>2020-07-21T07:15:14.000Z</time>
      </trkpt>
      <trkpt lat="42.9098673" lon="-5.6875665">
        <ele>1396.92</ele>
        <time>2020-07-21T07:15:15.000Z</time>
      </trkpt>
      <trkpt lat="42.9098753" lon="-5.6875677">
        <ele>1397.22</ele>
        <time>2020-07-21T07:15:16.000Z</time>
      </trkpt>
      <trkpt lat="42.9098822" lon="-5.6875723">
        <ele>1397.22</ele>
        <time>2020-07-21T07:15:17.000Z</time>
      </trkpt>
      <trkpt lat="42.9098913" lon="-5.6875795">
        <ele>1397.53</ele>
        <time>2020-07-21T07:15:18.000Z</time>
      </trkpt>
      <trkpt lat="42.9099017" lon="-5.6875857">
        <ele>1397.53</ele>
        <time>2020-07-21T07:15:19.000Z</time>
      </trkpt>
      <trkpt lat="42.9099158" lon="-5.6875847">
        <ele>1397.98</ele>
        <time>2020-07-21T07:15:20.000Z</time>
      </trkpt>
      <trkpt lat="42.9099273" lon="-5.6875797">
        <ele>1397.98</ele>
        <time>2020-07-21T07:15:21.000Z</time>
      </trkpt>
      <trkpt lat="42.9099363" lon="-5.6875748">
        <ele>1398.29</ele>
        <time>2020-07-21T07:15:22.000Z</time>
      </trkpt>
      <trkpt lat="42.9099422" lon="-5.6875768">
        <ele>1398.29</ele>
        <time>2020-07-21T07:15:23.000Z</time>
      </trkpt>
      <trkpt lat="42.9099507" lon="-5.687579">
        <ele>1398.59</ele>
        <time>2020-07-21T07:15:24.000Z</time>
      </trkpt>
      <trkpt lat="42.909959" lon="-5.6875808">
        <ele>1398.59</ele>
        <time>2020-07-21T07:15:25.000Z</time>
      </trkpt>
      <trkpt lat="42.9099697" lon="-5.68758">
        <ele>1398.9</ele>
        <time>2020-07-21T07:15:26.000Z</time>
      </trkpt>
      <trkpt lat="42.9099785" lon="-5.6875817">
        <ele>1398.9</ele>
        <time>2020-07-21T07:15:27.000Z</time>
      </trkpt>
      <trkpt lat="42.9099885" lon="-5.6875832">
        <ele>1399.2</ele>
        <time>2020-07-21T07:15:28.000Z</time>
      </trkpt>
      <trkpt lat="42.909997" lon="-5.6875845">
        <ele>1399.2</ele>
        <time>2020-07-21T07:15:29.000Z</time>
      </trkpt>
      <trkpt lat="42.9100067" lon="-5.687585">
        <ele>1399.51</ele>
        <time>2020-07-21T07:15:30.000Z</time>
      </trkpt>
      <trkpt lat="42.9100157" lon="-5.6875858">
        <ele>1399.51</ele>
        <time>2020-07-21T07:15:31.000Z</time>
      </trkpt>
      <trkpt lat="42.9100252" lon="-5.6875868">
        <ele>1399.81</ele>
        <time>2020-07-21T07:15:32.000Z</time>
      </trkpt>
      <trkpt lat="42.9100337" lon="-5.6875877">
        <ele>1399.81</ele>
        <time>2020-07-21T07:15:33.000Z</time>
      </trkpt>
      <trkpt lat="42.9100423" lon="-5.687589">
        <ele>1400.12</ele>
        <time>2020-07-21T07:15:34.000Z</time>
      </trkpt>
      <trkpt lat="42.9100498" lon="-5.6875912">
        <ele>1400.12</ele>
        <time>2020-07-21T07:15:35.000Z</time>
      </trkpt>
      <trkpt lat="42.9100557" lon="-5.6875945">
        <ele>1400.42</ele>
        <time>2020-07-21T07:15:36.000Z</time>
      </trkpt>
      <trkpt lat="42.9100603" lon="-5.6875988">
        <ele>1400.42</ele>
        <time>2020-07-21T07:15:37.000Z</time>
      </trkpt>
      <trkpt lat="42.9100638" lon="-5.6876042">
        <ele>1400.72</ele>
        <time>2020-07-21T07:15:38.000Z</time>
      </trkpt>
      <trkpt lat="42.9100675" lon="-5.6876097">
        <ele>1400.72</ele>
        <time>2020-07-21T07:15:39.000Z</time>
      </trkpt>
      <trkpt lat="42.9100712" lon="-5.6876113">
        <ele>1401.03</ele>
        <time>2020-07-21T07:15:40.000Z</time>
      </trkpt>
      <trkpt lat="42.9100755" lon="-5.6876127">
        <ele>1401.03</ele>
        <time>2020-07-21T07:15:41.000Z</time>
      </trkpt>
      <trkpt lat="42.9100795" lon="-5.6876143">
        <ele>1401.33</ele>
        <time>2020-07-21T07:15:42.000Z</time>
      </trkpt>
      <trkpt lat="42.9100847" lon="-5.6876175">
        <ele>1401.33</ele>
        <time>2020-07-21T07:15:43.000Z</time>
      </trkpt>
      <trkpt lat="42.9100903" lon="-5.6876212">
        <ele>1401.49</ele>
        <time>2020-07-21T07:15:44.000Z</time>
      </trkpt>
      <trkpt lat="42.9100967" lon="-5.6876242">
        <ele>1401.49</ele>
        <time>2020-07-21T07:15:45.000Z</time>
      </trkpt>
      <trkpt lat="42.9101032" lon="-5.687628">
        <ele>1401.79</ele>
        <time>2020-07-21T07:15:46.000Z</time>
      </trkpt>
      <trkpt lat="42.9101097" lon="-5.6876313">
        <ele>1401.79</ele>
        <time>2020-07-21T07:15:47.000Z</time>
      </trkpt>
      <trkpt lat="42.9101168" lon="-5.6876348">
        <ele>1402.1</ele>
        <time>2020-07-21T07:15:48.000Z</time>
      </trkpt>
      <trkpt lat="42.9101243" lon="-5.6876392">
        <ele>1402.1</ele>
        <time>2020-07-21T07:15:49.000Z</time>
      </trkpt>
      <trkpt lat="42.9101323" lon="-5.6876442">
        <ele>1402.4</ele>
        <time>2020-07-21T07:15:50.000Z</time>
      </trkpt>
      <trkpt lat="42.9101407" lon="-5.6876487">
        <ele>1402.4</ele>
        <time>2020-07-21T07:15:51.000Z</time>
      </trkpt>
      <trkpt lat="42.9101497" lon="-5.6876517">
        <ele>1402.71</ele>
        <time>2020-07-21T07:15:52.000Z</time>
      </trkpt>
      <trkpt lat="42.9101593" lon="-5.6876545">
        <ele>1402.71</ele>
        <time>2020-07-21T07:15:53.000Z</time>
      </trkpt>
      <trkpt lat="42.9101693" lon="-5.6876577">
        <ele>1402.86</ele>
        <time>2020-07-21T07:15:54.000Z</time>
      </trkpt>
      <trkpt lat="42.9101792" lon="-5.687661">
        <ele>1402.86</ele>
        <time>2020-07-21T07:15:55.000Z</time>
      </trkpt>
      <trkpt lat="42.9101892" lon="-5.6876622">
        <ele>1403.16</ele>
        <time>2020-07-21T07:15:56.000Z</time>
      </trkpt>
      <trkpt lat="42.9101988" lon="-5.6876615">
        <ele>1403.16</ele>
        <time>2020-07-21T07:15:57.000Z</time>
      </trkpt>
      <trkpt lat="42.9102098" lon="-5.687658">
        <ele>1403.47</ele>
        <time>2020-07-21T07:15:58.000Z</time>
      </trkpt>
      <trkpt lat="42.9102207" lon="-5.687654">
        <ele>1403.47</ele>
        <time>2020-07-21T07:15:59.000Z</time>
      </trkpt>
      <trkpt lat="42.9102322" lon="-5.6876487">
        <ele>1403.62</ele>
        <time>2020-07-21T07:16:00.000Z</time>
      </trkpt>
      <trkpt lat="42.9102425" lon="-5.6876435">
        <ele>1403.62</ele>
        <time>2020-07-21T07:16:01.000Z</time>
      </trkpt>
      <trkpt lat="42.9102532" lon="-5.687639">
        <ele>1403.93</ele>
        <time>2020-07-21T07:16:02.000Z</time>
      </trkpt>
      <trkpt lat="42.9102632" lon="-5.6876363">
        <ele>1403.93</ele>
        <time>2020-07-21T07:16:03.000Z</time>
      </trkpt>
      <trkpt lat="42.9102735" lon="-5.6876345">
        <ele>1404.08</ele>
        <time>2020-07-21T07:16:04.000Z</time>
      </trkpt>
      <trkpt lat="42.9102828" lon="-5.6876322">
        <ele>1404.08</ele>
        <time>2020-07-21T07:16:05.000Z</time>
      </trkpt>
      <trkpt lat="42.9102912" lon="-5.6876272">
        <ele>1404.38</ele>
        <time>2020-07-21T07:16:06.000Z</time>
      </trkpt>
      <trkpt lat="42.9102987" lon="-5.6876228">
        <ele>1404.38</ele>
        <time>2020-07-21T07:16:07.000Z</time>
      </trkpt>
      <trkpt lat="42.910306" lon="-5.6876197">
        <ele>1404.54</ele>
        <time>2020-07-21T07:16:08.000Z</time>
      </trkpt>
      <trkpt lat="42.9103153" lon="-5.6876173">
        <ele>1404.54</ele>
        <time>2020-07-21T07:16:09.000Z</time>
      </trkpt>
      <trkpt lat="42.9103247" lon="-5.6876135">
        <ele>1404.84</ele>
        <time>2020-07-21T07:16:10.000Z</time>
      </trkpt>
      <trkpt lat="42.9103352" lon="-5.6876077">
        <ele>1404.84</ele>
        <time>2020-07-21T07:16:11.000Z</time>
      </trkpt>
      <trkpt lat="42.9103435" lon="-5.6876027">
        <ele>1404.99</ele>
        <time>2020-07-21T07:16:12.000Z</time>
      </trkpt>
      <trkpt lat="42.9103522" lon="-5.6875977">
        <ele>1404.99</ele>
        <time>2020-07-21T07:16:13.000Z</time>
      </trkpt>
      <trkpt lat="42.9103585" lon="-5.6875958">
        <ele>1405.3</ele>
        <time>2020-07-21T07:16:14.000Z</time>
      </trkpt>
      <trkpt lat="42.9103672" lon="-5.6875938">
        <ele>1405.3</ele>
        <time>2020-07-21T07:16:15.000Z</time>
      </trkpt>
      <trkpt lat="42.910376" lon="-5.6875907">
        <ele>1405.6</ele>
        <time>2020-07-21T07:16:16.000Z</time>
      </trkpt>
      <trkpt lat="42.9103877" lon="-5.6875858">
        <ele>1405.6</ele>
        <time>2020-07-21T07:16:17.000Z</time>
      </trkpt>
      <trkpt lat="42.9103978" lon="-5.6875802">
        <ele>1405.76</ele>
        <time>2020-07-21T07:16:18.000Z</time>
      </trkpt>
      <trkpt lat="42.9104088" lon="-5.6875745">
        <ele>1405.76</ele>
        <time>2020-07-21T07:16:19.000Z</time>
      </trkpt>
      <trkpt lat="42.9104185" lon="-5.687568">
        <ele>1406.06</ele>
        <time>2020-07-21T07:16:20.000Z</time>
      </trkpt>
      <trkpt lat="42.9104283" lon="-5.6875622">
        <ele>1406.06</ele>
        <time>2020-07-21T07:16:21.000Z</time>
      </trkpt>
      <trkpt lat="42.9104377" lon="-5.6875592">
        <ele>1406.21</ele>
        <time>2020-07-21T07:16:22.000Z</time>
      </trkpt>
      <trkpt lat="42.910447" lon="-5.6875588">
        <ele>1406.21</ele>
        <time>2020-07-21T07:16:23.000Z</time>
      </trkpt>
      <trkpt lat="42.910458" lon="-5.6875607">
        <ele>1406.52</ele>
        <time>2020-07-21T07:16:24.000Z</time>
      </trkpt>
      <trkpt lat="42.9104693" lon="-5.687561">
        <ele>1406.52</ele>
        <time>2020-07-21T07:16:25.000Z</time>
      </trkpt>
      <trkpt lat="42.9104795" lon="-5.687561">
        <ele>1406.82</ele>
        <time>2020-07-21T07:16:26.000Z</time>
      </trkpt>
      <trkpt lat="42.9104895" lon="-5.687558">
        <ele>1406.82</ele>
        <time>2020-07-21T07:16:27.000Z</time>
      </trkpt>
      <trkpt lat="42.9104988" lon="-5.6875568">
        <ele>1406.97</ele>
        <time>2020-07-21T07:16:28.000Z</time>
      </trkpt>
      <trkpt lat="42.9105102" lon="-5.6875565">
        <ele>1406.97</ele>
        <time>2020-07-21T07:16:29.000Z</time>
      </trkpt>
      <trkpt lat="42.9105205" lon="-5.6875603">
        <ele>1407.28</ele>
        <time>2020-07-21T07:16:30.000Z</time>
      </trkpt>
      <trkpt lat="42.9105308" lon="-5.6875648">
        <ele>1407.28</ele>
        <time>2020-07-21T07:16:31.000Z</time>
      </trkpt>
      <trkpt lat="42.9105403" lon="-5.6875695">
        <ele>1407.58</ele>
        <time>2020-07-21T07:16:32.000Z</time>
      </trkpt>
      <trkpt lat="42.9105497" lon="-5.6875743">
        <ele>1407.58</ele>
        <time>2020-07-21T07:16:33.000Z</time>
      </trkpt>
      <trkpt lat="42.9105582" lon="-5.6875803">
        <ele>1407.74</ele>
        <time>2020-07-21T07:16:34.000Z</time>
      </trkpt>
      <trkpt lat="42.910564" lon="-5.6875857">
        <ele>1407.74</ele>
        <time>2020-07-21T07:16:35.000Z</time>
      </trkpt>
      <trkpt lat="42.9105672" lon="-5.687591">
        <ele>1408.04</ele>
        <time>2020-07-21T07:16:36.000Z</time>
      </trkpt>
      <trkpt lat="42.9105697" lon="-5.6875955">
        <ele>1408.04</ele>
        <time>2020-07-21T07:16:37.000Z</time>
      </trkpt>
      <trkpt lat="42.9105735" lon="-5.6876015">
        <ele>1408.34</ele>
        <time>2020-07-21T07:16:38.000Z</time>
      </trkpt>
      <trkpt lat="42.9105793" lon="-5.6876097">
        <ele>1408.34</ele>
        <time>2020-07-21T07:16:39.000Z</time>
      </trkpt>
      <trkpt lat="42.910584" lon="-5.6876203">
        <ele>1408.5</ele>
        <time>2020-07-21T07:16:40.000Z</time>
      </trkpt>
      <trkpt lat="42.9105865" lon="-5.6876335">
        <ele>1408.5</ele>
        <time>2020-07-21T07:16:41.000Z</time>
      </trkpt>
      <trkpt lat="42.9105847" lon="-5.6876487">
        <ele>1408.8</ele>
        <time>2020-07-21T07:16:42.000Z</time>
      </trkpt>
      <trkpt lat="42.9105827" lon="-5.6876645">
        <ele>1408.8</ele>
        <time>2020-07-21T07:16:43.000Z</time>
      </trkpt>
      <trkpt lat="42.910582" lon="-5.6876793">
        <ele>1408.95</ele>
        <time>2020-07-21T07:16:44.000Z</time>
      </trkpt>
      <trkpt lat="42.9105843" lon="-5.6876918">
        <ele>1408.95</ele>
        <time>2020-07-21T07:16:45.000Z</time>
      </trkpt>
      <trkpt lat="42.9105855" lon="-5.6877025">
        <ele>1409.26</ele>
        <time>2020-07-21T07:16:46.000Z</time>
      </trkpt>
      <trkpt lat="42.9105835" lon="-5.6877167">
        <ele>1409.26</ele>
        <time>2020-07-21T07:16:47.000Z</time>
      </trkpt>
      <trkpt lat="42.9105817" lon="-5.68773">
        <ele>1409.41</ele>
        <time>2020-07-21T07:16:48.000Z</time>
      </trkpt>
      <trkpt lat="42.9105815" lon="-5.6877445">
        <ele>1409.41</ele>
        <time>2020-07-21T07:16:49.000Z</time>
      </trkpt>
      <trkpt lat="42.910584" lon="-5.6877582">
        <ele>1409.72</ele>
        <time>2020-07-21T07:16:50.000Z</time>
      </trkpt>
      <trkpt lat="42.9105877" lon="-5.6877728">
        <ele>1409.72</ele>
        <time>2020-07-21T07:16:51.000Z</time>
      </trkpt>
      <trkpt lat="42.9105938" lon="-5.6877873">
        <ele>1409.87</ele>
        <time>2020-07-21T07:16:52.000Z</time>
      </trkpt>
      <trkpt lat="42.9106047" lon="-5.6878005">
        <ele>1409.87</ele>
        <time>2020-07-21T07:16:53.000Z</time>
      </trkpt>
      <trkpt lat="42.910613" lon="-5.6878152">
        <ele>1410.02</ele>
        <time>2020-07-21T07:16:54.000Z</time>
      </trkpt>
      <trkpt lat="42.9106202" lon="-5.6878315">
        <ele>1410.02</ele>
        <time>2020-07-21T07:16:55.000Z</time>
      </trkpt>
      <trkpt lat="42.9106233" lon="-5.6878483">
        <ele>1410.33</ele>
        <time>2020-07-21T07:16:56.000Z</time>
      </trkpt>
      <trkpt lat="42.9106287" lon="-5.6878635">
        <ele>1410.33</ele>
        <time>2020-07-21T07:16:57.000Z</time>
      </trkpt>
      <trkpt lat="42.910633" lon="-5.687879">
        <ele>1410.48</ele>
        <time>2020-07-21T07:16:58.000Z</time>
      </trkpt>
      <trkpt lat="42.9106378" lon="-5.6878935">
        <ele>1410.48</ele>
        <time>2020-07-21T07:16:59.000Z</time>
      </trkpt>
      <trkpt lat="42.9106425" lon="-5.6879092">
        <ele>1410.78</ele>
        <time>2020-07-21T07:17:00.000Z</time>
      </trkpt>
      <trkpt lat="42.9106473" lon="-5.6879235">
        <ele>1410.78</ele>
        <time>2020-07-21T07:17:01.000Z</time>
      </trkpt>
      <trkpt lat="42.9106517" lon="-5.6879372">
        <ele>1410.94</ele>
        <time>2020-07-21T07:17:02.000Z</time>
      </trkpt>
      <trkpt lat="42.9106557" lon="-5.687951">
        <ele>1410.94</ele>
        <time>2020-07-21T07:17:03.000Z</time>
      </trkpt>
      <trkpt lat="42.9106593" lon="-5.6879648">
        <ele>1411.24</ele>
        <time>2020-07-21T07:17:04.000Z</time>
      </trkpt>
      <trkpt lat="42.9106632" lon="-5.6879792">
        <ele>1411.24</ele>
        <time>2020-07-21T07:17:05.000Z</time>
      </trkpt>
      <trkpt lat="42.9106668" lon="-5.6879932">
        <ele>1411.39</ele>
        <time>2020-07-21T07:17:06.000Z</time>
      </trkpt>
      <trkpt lat="42.9106712" lon="-5.688008">
        <ele>1411.39</ele>
        <time>2020-07-21T07:17:07.000Z</time>
      </trkpt>
      <trkpt lat="42.9106747" lon="-5.6880228">
        <ele>1411.55</ele>
        <time>2020-07-21T07:17:08.000Z</time>
      </trkpt>
      <trkpt lat="42.9106772" lon="-5.6880373">
        <ele>1411.55</ele>
        <time>2020-07-21T07:17:09.000Z</time>
      </trkpt>
      <trkpt lat="42.9106795" lon="-5.6880507">
        <ele>1411.85</ele>
        <time>2020-07-21T07:17:10.000Z</time>
      </trkpt>
      <trkpt lat="42.9106827" lon="-5.6880632">
        <ele>1411.85</ele>
        <time>2020-07-21T07:17:11.000Z</time>
      </trkpt>
      <trkpt lat="42.9106858" lon="-5.6880755">
        <ele>1412</ele>
        <time>2020-07-21T07:17:12.000Z</time>
      </trkpt>
      <trkpt lat="42.9106875" lon="-5.6880892">
        <ele>1412</ele>
        <time>2020-07-21T07:17:13.000Z</time>
      </trkpt>
      <trkpt lat="42.9106873" lon="-5.6881043">
        <ele>1412.31</ele>
        <time>2020-07-21T07:17:14.000Z</time>
      </trkpt>
      <trkpt lat="42.9106867" lon="-5.6881207">
        <ele>1412.31</ele>
        <time>2020-07-21T07:17:15.000Z</time>
      </trkpt>
      <trkpt lat="42.9106877" lon="-5.6881348">
        <ele>1412.46</ele>
        <time>2020-07-21T07:17:16.000Z</time>
      </trkpt>
      <trkpt lat="42.9106895" lon="-5.6881478">
        <ele>1412.46</ele>
        <time>2020-07-21T07:17:17.000Z</time>
      </trkpt>
      <trkpt lat="42.9106925" lon="-5.6881593">
        <ele>1412.77</ele>
        <time>2020-07-21T07:17:18.000Z</time>
      </trkpt>
      <trkpt lat="42.9106953" lon="-5.6881728">
        <ele>1412.77</ele>
        <time>2020-07-21T07:17:19.000Z</time>
      </trkpt>
      <trkpt lat="42.9106987" lon="-5.6881865">
        <ele>1412.92</ele>
        <time>2020-07-21T07:17:20.000Z</time>
      </trkpt>
      <trkpt lat="42.9107023" lon="-5.6881993">
        <ele>1412.92</ele>
        <time>2020-07-21T07:17:21.000Z</time>
      </trkpt>
      <trkpt lat="42.9107058" lon="-5.688212">
        <ele>1413.22</ele>
        <time>2020-07-21T07:17:22.000Z</time>
      </trkpt>
      <trkpt lat="42.9107092" lon="-5.6882252">
        <ele>1413.22</ele>
        <time>2020-07-21T07:17:23.000Z</time>
      </trkpt>
      <trkpt lat="42.9107123" lon="-5.688239">
        <ele>1413.38</ele>
        <time>2020-07-21T07:17:24.000Z</time>
      </trkpt>
      <trkpt lat="42.910716" lon="-5.6882532">
        <ele>1413.38</ele>
        <time>2020-07-21T07:17:25.000Z</time>
      </trkpt>
      <trkpt lat="42.9107208" lon="-5.6882668">
        <ele>1413.68</ele>
        <time>2020-07-21T07:17:26.000Z</time>
      </trkpt>
      <trkpt lat="42.9107255" lon="-5.6882823">
        <ele>1413.68</ele>
        <time>2020-07-21T07:17:27.000Z</time>
      </trkpt>
      <trkpt lat="42.91073" lon="-5.688298">
        <ele>1413.98</ele>
        <time>2020-07-21T07:17:28.000Z</time>
      </trkpt>
      <trkpt lat="42.9107332" lon="-5.6883142">
        <ele>1413.98</ele>
        <time>2020-07-21T07:17:29.000Z</time>
      </trkpt>
      <trkpt lat="42.9107362" lon="-5.6883303">
        <ele>1414.14</ele>
        <time>2020-07-21T07:17:30.000Z</time>
      </trkpt>
      <trkpt lat="42.9107375" lon="-5.6883477">
        <ele>1414.14</ele>
        <time>2020-07-21T07:17:31.000Z</time>
      </trkpt>
      <trkpt lat="42.9107385" lon="-5.6883657">
        <ele>1414.44</ele>
        <time>2020-07-21T07:17:32.000Z</time>
      </trkpt>
      <trkpt lat="42.9107407" lon="-5.6883828">
        <ele>1414.44</ele>
        <time>2020-07-21T07:17:33.000Z</time>
      </trkpt>
      <trkpt lat="42.9107443" lon="-5.6883983">
        <ele>1414.75</ele>
        <time>2020-07-21T07:17:34.000Z</time>
      </trkpt>
      <trkpt lat="42.9107488" lon="-5.688413">
        <ele>1414.75</ele>
        <time>2020-07-21T07:17:35.000Z</time>
      </trkpt>
      <trkpt lat="42.910753" lon="-5.6884272">
        <ele>1414.9</ele>
        <time>2020-07-21T07:17:36.000Z</time>
      </trkpt>
      <trkpt lat="42.910757" lon="-5.6884415">
        <ele>1414.9</ele>
        <time>2020-07-21T07:17:37.000Z</time>
      </trkpt>
      <trkpt lat="42.910761" lon="-5.6884558">
        <ele>1415.2</ele>
        <time>2020-07-21T07:17:38.000Z</time>
      </trkpt>
      <trkpt lat="42.9107643" lon="-5.6884723">
        <ele>1415.2</ele>
        <time>2020-07-21T07:17:39.000Z</time>
      </trkpt>
      <trkpt lat="42.9107687" lon="-5.6884867">
        <ele>1415.36</ele>
        <time>2020-07-21T07:17:40.000Z</time>
      </trkpt>
      <trkpt lat="42.9107745" lon="-5.6884998">
        <ele>1415.36</ele>
        <time>2020-07-21T07:17:41.000Z</time>
      </trkpt>
      <trkpt lat="42.9107805" lon="-5.6885123">
        <ele>1415.66</ele>
        <time>2020-07-21T07:17:42.000Z</time>
      </trkpt>
      <trkpt lat="42.9107857" lon="-5.6885277">
        <ele>1415.66</ele>
        <time>2020-07-21T07:17:43.000Z</time>
      </trkpt>
      <trkpt lat="42.9107882" lon="-5.688544">
        <ele>1415.81</ele>
        <time>2020-07-21T07:17:44.000Z</time>
      </trkpt>
      <trkpt lat="42.910791" lon="-5.6885595">
        <ele>1415.81</ele>
        <time>2020-07-21T07:17:45.000Z</time>
      </trkpt>
      <trkpt lat="42.9107938" lon="-5.6885737">
        <ele>1416.12</ele>
        <time>2020-07-21T07:17:46.000Z</time>
      </trkpt>
      <trkpt lat="42.9107987" lon="-5.6885877">
        <ele>1416.12</ele>
        <time>2020-07-21T07:17:47.000Z</time>
      </trkpt>
      <trkpt lat="42.9108047" lon="-5.6886013">
        <ele>1416.27</ele>
        <time>2020-07-21T07:17:48.000Z</time>
      </trkpt>
      <trkpt lat="42.9108113" lon="-5.6886132">
        <ele>1416.27</ele>
        <time>2020-07-21T07:17:49.000Z</time>
      </trkpt>
      <trkpt lat="42.9108187" lon="-5.6886235">
        <ele>1416.42</ele>
        <time>2020-07-21T07:17:50.000Z</time>
      </trkpt>
      <trkpt lat="42.910827" lon="-5.6886355">
        <ele>1416.42</ele>
        <time>2020-07-21T07:17:51.000Z</time>
      </trkpt>
      <trkpt lat="42.910836" lon="-5.688648">
        <ele>1416.73</ele>
        <time>2020-07-21T07:17:52.000Z</time>
      </trkpt>
      <trkpt lat="42.9108438" lon="-5.6886607">
        <ele>1416.73</ele>
        <time>2020-07-21T07:17:53.000Z</time>
      </trkpt>
      <trkpt lat="42.9108482" lon="-5.6886725">
        <ele>1416.88</ele>
        <time>2020-07-21T07:17:54.000Z</time>
      </trkpt>
      <trkpt lat="42.9108522" lon="-5.688685">
        <ele>1416.88</ele>
        <time>2020-07-21T07:17:55.000Z</time>
      </trkpt>
      <trkpt lat="42.9108572" lon="-5.6886957">
        <ele>1417.03</ele>
        <time>2020-07-21T07:17:56.000Z</time>
      </trkpt>
      <trkpt lat="42.9108635" lon="-5.6887048">
        <ele>1417.03</ele>
        <time>2020-07-21T07:17:57.000Z</time>
      </trkpt>
      <trkpt lat="42.9108692" lon="-5.6887143">
        <ele>1417.34</ele>
        <time>2020-07-21T07:17:58.000Z</time>
      </trkpt>
      <trkpt lat="42.9108742" lon="-5.688727">
        <ele>1417.34</ele>
        <time>2020-07-21T07:17:59.000Z</time>
      </trkpt>
      <trkpt lat="42.9108795" lon="-5.6887405">
        <ele>1417.49</ele>
        <time>2020-07-21T07:18:00.000Z</time>
      </trkpt>
      <trkpt lat="42.9108838" lon="-5.6887542">
        <ele>1417.49</ele>
        <time>2020-07-21T07:18:01.000Z</time>
      </trkpt>
      <trkpt lat="42.9108877" lon="-5.6887663">
        <ele>1417.64</ele>
        <time>2020-07-21T07:18:02.000Z</time>
      </trkpt>
      <trkpt lat="42.9108913" lon="-5.6887775">
        <ele>1417.64</ele>
        <time>2020-07-21T07:18:03.000Z</time>
      </trkpt>
      <trkpt lat="42.9108945" lon="-5.6887903">
        <ele>1417.95</ele>
        <time>2020-07-21T07:18:04.000Z</time>
      </trkpt>
      <trkpt lat="42.9108963" lon="-5.6888035">
        <ele>1417.95</ele>
        <time>2020-07-21T07:18:05.000Z</time>
      </trkpt>
      <trkpt lat="42.9108965" lon="-5.6888173">
        <ele>1418.1</ele>
        <time>2020-07-21T07:18:06.000Z</time>
      </trkpt>
      <trkpt lat="42.9108958" lon="-5.688829">
        <ele>1418.1</ele>
        <time>2020-07-21T07:18:07.000Z</time>
      </trkpt>
      <trkpt lat="42.9108968" lon="-5.68884">
        <ele>1418.4</ele>
        <time>2020-07-21T07:18:08.000Z</time>
      </trkpt>
      <trkpt lat="42.9109002" lon="-5.6888507">
        <ele>1418.4</ele>
        <time>2020-07-21T07:18:09.000Z</time>
      </trkpt>
      <trkpt lat="42.9109045" lon="-5.6888617">
        <ele>1418.56</ele>
        <time>2020-07-21T07:18:10.000Z</time>
      </trkpt>
      <trkpt lat="42.9109087" lon="-5.6888715">
        <ele>1418.56</ele>
        <time>2020-07-21T07:18:11.000Z</time>
      </trkpt>
      <trkpt lat="42.9109122" lon="-5.6888795">
        <ele>1418.86</ele>
        <time>2020-07-21T07:18:12.000Z</time>
      </trkpt>
      <trkpt lat="42.910917" lon="-5.6888853">
        <ele>1418.86</ele>
        <time>2020-07-21T07:18:13.000Z</time>
      </trkpt>
      <trkpt lat="42.9109222" lon="-5.6888897">
        <ele>1419.01</ele>
        <time>2020-07-21T07:18:14.000Z</time>
      </trkpt>
      <trkpt lat="42.9109275" lon="-5.6888938">
        <ele>1419.01</ele>
        <time>2020-07-21T07:18:15.000Z</time>
      </trkpt>
      <trkpt lat="42.9109322" lon="-5.6888962">
        <ele>1419.32</ele>
        <time>2020-07-21T07:18:16.000Z</time>
      </trkpt>
      <trkpt lat="42.9109352" lon="-5.6888982">
        <ele>1419.32</ele>
        <time>2020-07-21T07:18:17.000Z</time>
      </trkpt>
      <trkpt lat="42.9109372" lon="-5.6889005">
        <ele>1419.62</ele>
        <time>2020-07-21T07:18:18.000Z</time>
      </trkpt>
      <trkpt lat="42.9109383" lon="-5.6889045">
        <ele>1419.62</ele>
        <time>2020-07-21T07:18:19.000Z</time>
      </trkpt>
      <trkpt lat="42.9109398" lon="-5.6889097">
        <ele>1419.93</ele>
        <time>2020-07-21T07:18:20.000Z</time>
      </trkpt>
      <trkpt lat="42.9109397" lon="-5.6889142">
        <ele>1419.93</ele>
        <time>2020-07-21T07:18:21.000Z</time>
      </trkpt>
      <trkpt lat="42.910939" lon="-5.688918">
        <ele>1420.08</ele>
        <time>2020-07-21T07:18:22.000Z</time>
      </trkpt>
      <trkpt lat="42.910938" lon="-5.6889212">
        <ele>1420.08</ele>
        <time>2020-07-21T07:18:23.000Z</time>
      </trkpt>
      <trkpt lat="42.9109388" lon="-5.688922">
        <ele>1420.39</ele>
        <time>2020-07-21T07:18:24.000Z</time>
      </trkpt>
      <trkpt lat="42.9109423" lon="-5.6889232">
        <ele>1420.39</ele>
        <time>2020-07-21T07:18:25.000Z</time>
      </trkpt>
      <trkpt lat="42.9109497" lon="-5.6889213">
        <ele>1420.69</ele>
        <time>2020-07-21T07:18:26.000Z</time>
      </trkpt>
      <trkpt lat="42.9109578" lon="-5.688921">
        <ele>1420.69</ele>
        <time>2020-07-21T07:18:27.000Z</time>
      </trkpt>
      <trkpt lat="42.910966" lon="-5.6889173">
        <ele>1420.84</ele>
        <time>2020-07-21T07:18:28.000Z</time>
      </trkpt>
      <trkpt lat="42.9109735" lon="-5.688913">
        <ele>1420.84</ele>
        <time>2020-07-21T07:18:29.000Z</time>
      </trkpt>
      <trkpt lat="42.9109822" lon="-5.6889088">
        <ele>1421.15</ele>
        <time>2020-07-21T07:18:30.000Z</time>
      </trkpt>
      <trkpt lat="42.9109928" lon="-5.6889075">
        <ele>1421.15</ele>
        <time>2020-07-21T07:18:31.000Z</time>
      </trkpt>
      <trkpt lat="42.9110055" lon="-5.6889082">
        <ele>1421.45</ele>
        <time>2020-07-21T07:18:32.000Z</time>
      </trkpt>
      <trkpt lat="42.9110183" lon="-5.6889098">
        <ele>1421.45</ele>
        <time>2020-07-21T07:18:33.000Z</time>
      </trkpt>
      <trkpt lat="42.9110302" lon="-5.6889118">
        <ele>1421.76</ele>
        <time>2020-07-21T07:18:34.000Z</time>
      </trkpt>
      <trkpt lat="42.9110418" lon="-5.6889152">
        <ele>1421.76</ele>
        <time>2020-07-21T07:18:35.000Z</time>
      </trkpt>
      <trkpt lat="42.9110537" lon="-5.688919">
        <ele>1422.06</ele>
        <time>2020-07-21T07:18:36.000Z</time>
      </trkpt>
      <trkpt lat="42.9110653" lon="-5.6889238">
        <ele>1422.06</ele>
        <time>2020-07-21T07:18:37.000Z</time>
      </trkpt>
      <trkpt lat="42.9110765" lon="-5.6889277">
        <ele>1422.21</ele>
        <time>2020-07-21T07:18:38.000Z</time>
      </trkpt>
      <trkpt lat="42.9110877" lon="-5.68893">
        <ele>1422.21</ele>
        <time>2020-07-21T07:18:39.000Z</time>
      </trkpt>
      <trkpt lat="42.9110982" lon="-5.688932">
        <ele>1422.52</ele>
        <time>2020-07-21T07:18:40.000Z</time>
      </trkpt>
      <trkpt lat="42.911108" lon="-5.6889348">
        <ele>1422.52</ele>
        <time>2020-07-21T07:18:41.000Z</time>
      </trkpt>
      <trkpt lat="42.9111165" lon="-5.688939">
        <ele>1422.82</ele>
        <time>2020-07-21T07:18:42.000Z</time>
      </trkpt>
      <trkpt lat="42.9111242" lon="-5.6889437">
        <ele>1422.82</ele>
        <time>2020-07-21T07:18:43.000Z</time>
      </trkpt>
      <trkpt lat="42.9111312" lon="-5.6889478">
        <ele>1423.13</ele>
        <time>2020-07-21T07:18:44.000Z</time>
      </trkpt>
      <trkpt lat="42.9111362" lon="-5.6889523">
        <ele>1423.13</ele>
        <time>2020-07-21T07:18:45.000Z</time>
      </trkpt>
      <trkpt lat="42.9111412" lon="-5.6889572">
        <ele>1423.28</ele>
        <time>2020-07-21T07:18:46.000Z</time>
      </trkpt>
      <trkpt lat="42.911144" lon="-5.6889642">
        <ele>1423.28</ele>
        <time>2020-07-21T07:18:47.000Z</time>
      </trkpt>
      <trkpt lat="42.9111468" lon="-5.6889725">
        <ele>1423.59</ele>
        <time>2020-07-21T07:18:48.000Z</time>
      </trkpt>
      <trkpt lat="42.9111482" lon="-5.6889815">
        <ele>1423.59</ele>
        <time>2020-07-21T07:18:49.000Z</time>
      </trkpt>
      <trkpt lat="42.9111497" lon="-5.688993">
        <ele>1423.89</ele>
        <time>2020-07-21T07:18:50.000Z</time>
      </trkpt>
      <trkpt lat="42.911152" lon="-5.689006">
        <ele>1423.89</ele>
        <time>2020-07-21T07:18:51.000Z</time>
      </trkpt>
      <trkpt lat="42.9111558" lon="-5.6890192">
        <ele>1424.04</ele>
        <time>2020-07-21T07:18:52.000Z</time>
      </trkpt>
      <trkpt lat="42.9111607" lon="-5.6890292">
        <ele>1424.04</ele>
        <time>2020-07-21T07:18:53.000Z</time>
      </trkpt>
      <trkpt lat="42.911164" lon="-5.6890392">
        <ele>1424.35</ele>
        <time>2020-07-21T07:18:54.000Z</time>
      </trkpt>
      <trkpt lat="42.9111645" lon="-5.6890498">
        <ele>1424.35</ele>
        <time>2020-07-21T07:18:55.000Z</time>
      </trkpt>
      <trkpt lat="42.9111627" lon="-5.6890635">
        <ele>1424.65</ele>
        <time>2020-07-21T07:18:56.000Z</time>
      </trkpt>
      <trkpt lat="42.9111625" lon="-5.6890777">
        <ele>1424.65</ele>
        <time>2020-07-21T07:18:57.000Z</time>
      </trkpt>
      <trkpt lat="42.9111637" lon="-5.6890923">
        <ele>1424.81</ele>
        <time>2020-07-21T07:18:58.000Z</time>
      </trkpt>
      <trkpt lat="42.9111667" lon="-5.6891068">
        <ele>1424.81</ele>
        <time>2020-07-21T07:18:59.000Z</time>
      </trkpt>
      <trkpt lat="42.9111707" lon="-5.6891213">
        <ele>1425.11</ele>
        <time>2020-07-21T07:19:00.000Z</time>
      </trkpt>
      <trkpt lat="42.911174" lon="-5.6891365">
        <ele>1425.11</ele>
        <time>2020-07-21T07:19:01.000Z</time>
      </trkpt>
      <trkpt lat="42.9111773" lon="-5.6891515">
        <ele>1425.26</ele>
        <time>2020-07-21T07:19:02.000Z</time>
      </trkpt>
      <trkpt lat="42.9111798" lon="-5.6891675">
        <ele>1425.26</ele>
        <time>2020-07-21T07:19:03.000Z</time>
      </trkpt>
      <trkpt lat="42.9111823" lon="-5.6891815">
        <ele>1425.57</ele>
        <time>2020-07-21T07:19:04.000Z</time>
      </trkpt>
      <trkpt lat="42.9111852" lon="-5.6891952">
        <ele>1425.57</ele>
        <time>2020-07-21T07:19:05.000Z</time>
      </trkpt>
      <trkpt lat="42.9111867" lon="-5.6892107">
        <ele>1425.72</ele>
        <time>2020-07-21T07:19:06.000Z</time>
      </trkpt>
      <trkpt lat="42.9111893" lon="-5.6892275">
        <ele>1425.72</ele>
        <time>2020-07-21T07:19:07.000Z</time>
      </trkpt>
      <trkpt lat="42.911191" lon="-5.6892442">
        <ele>1425.87</ele>
        <time>2020-07-21T07:19:08.000Z</time>
      </trkpt>
      <trkpt lat="42.9111923" lon="-5.6892572">
        <ele>1425.87</ele>
        <time>2020-07-21T07:19:09.000Z</time>
      </trkpt>
      <trkpt lat="42.9111923" lon="-5.6892683">
        <ele>1426.18</ele>
        <time>2020-07-21T07:19:10.000Z</time>
      </trkpt>
      <trkpt lat="42.911193" lon="-5.6892798">
        <ele>1426.18</ele>
        <time>2020-07-21T07:19:11.000Z</time>
      </trkpt>
      <trkpt lat="42.9111955" lon="-5.689291">
        <ele>1426.33</ele>
        <time>2020-07-21T07:19:12.000Z</time>
      </trkpt>
      <trkpt lat="42.9111992" lon="-5.6893035">
        <ele>1426.33</ele>
        <time>2020-07-21T07:19:13.000Z</time>
      </trkpt>
      <trkpt lat="42.911202" lon="-5.6893157">
        <ele>1426.63</ele>
        <time>2020-07-21T07:19:14.000Z</time>
      </trkpt>
      <trkpt lat="42.9112048" lon="-5.6893295">
        <ele>1426.63</ele>
        <time>2020-07-21T07:19:15.000Z</time>
      </trkpt>
      <trkpt lat="42.9112097" lon="-5.6893433">
        <ele>1426.79</ele>
        <time>2020-07-21T07:19:16.000Z</time>
      </trkpt>
      <trkpt lat="42.9112165" lon="-5.6893575">
        <ele>1426.79</ele>
        <time>2020-07-21T07:19:17.000Z</time>
      </trkpt>
      <trkpt lat="42.9112233" lon="-5.689372">
        <ele>1427.09</ele>
        <time>2020-07-21T07:19:18.000Z</time>
      </trkpt>
      <trkpt lat="42.9112277" lon="-5.689387">
        <ele>1427.09</ele>
        <time>2020-07-21T07:19:19.000Z</time>
      </trkpt>
      <trkpt lat="42.9112315" lon="-5.6894005">
        <ele>1427.4</ele>
        <time>2020-07-21T07:19:20.000Z</time>
      </trkpt>
      <trkpt lat="42.9112357" lon="-5.689414">
        <ele>1427.4</ele>
        <time>2020-07-21T07:19:21.000Z</time>
      </trkpt>
      <trkpt lat="42.9112415" lon="-5.6894278">
        <ele>1427.7</ele>
        <time>2020-07-21T07:19:22.000Z</time>
      </trkpt>
      <trkpt lat="42.9112468" lon="-5.6894427">
        <ele>1427.7</ele>
        <time>2020-07-21T07:19:23.000Z</time>
      </trkpt>
      <trkpt lat="42.9112542" lon="-5.6894555">
        <ele>1428.01</ele>
        <time>2020-07-21T07:19:24.000Z</time>
      </trkpt>
      <trkpt lat="42.9112608" lon="-5.6894672">
        <ele>1428.01</ele>
        <time>2020-07-21T07:19:25.000Z</time>
      </trkpt>
      <trkpt lat="42.9112672" lon="-5.6894773">
        <ele>1428.31</ele>
        <time>2020-07-21T07:19:26.000Z</time>
      </trkpt>
      <trkpt lat="42.9112683" lon="-5.6894893">
        <ele>1428.31</ele>
        <time>2020-07-21T07:19:27.000Z</time>
      </trkpt>
      <trkpt lat="42.911269" lon="-5.6895">
        <ele>1428.61</ele>
        <time>2020-07-21T07:19:28.000Z</time>
      </trkpt>
      <trkpt lat="42.91127" lon="-5.6895098">
        <ele>1428.61</ele>
        <time>2020-07-21T07:19:29.000Z</time>
      </trkpt>
      <trkpt lat="42.9112733" lon="-5.6895195">
        <ele>1428.92</ele>
        <time>2020-07-21T07:19:30.000Z</time>
      </trkpt>
      <trkpt lat="42.9112755" lon="-5.6895303">
        <ele>1428.92</ele>
        <time>2020-07-21T07:19:31.000Z</time>
      </trkpt>
      <trkpt lat="42.911277" lon="-5.6895427">
        <ele>1429.22</ele>
        <time>2020-07-21T07:19:32.000Z</time>
      </trkpt>
      <trkpt lat="42.9112785" lon="-5.689554">
        <ele>1429.22</ele>
        <time>2020-07-21T07:19:33.000Z</time>
      </trkpt>
      <trkpt lat="42.91128" lon="-5.6895663">
        <ele>1429.53</ele>
        <time>2020-07-21T07:19:34.000Z</time>
      </trkpt>
      <trkpt lat="42.9112828" lon="-5.6895785">
        <ele>1429.53</ele>
        <time>2020-07-21T07:19:35.000Z</time>
      </trkpt>
      <trkpt lat="42.9112867" lon="-5.6895912">
        <ele>1429.83</ele>
        <time>2020-07-21T07:19:36.000Z</time>
      </trkpt>
      <trkpt lat="42.911293" lon="-5.6896028">
        <ele>1429.83</ele>
        <time>2020-07-21T07:19:37.000Z</time>
      </trkpt>
      <trkpt lat="42.9112985" lon="-5.6896157">
        <ele>1430.14</ele>
        <time>2020-07-21T07:19:38.000Z</time>
      </trkpt>
      <trkpt lat="42.9113023" lon="-5.6896272">
        <ele>1430.14</ele>
        <time>2020-07-21T07:19:39.000Z</time>
      </trkpt>
      <trkpt lat="42.9113062" lon="-5.6896378">
        <ele>1430.44</ele>
        <time>2020-07-21T07:19:40.000Z</time>
      </trkpt>
      <trkpt lat="42.9113098" lon="-5.6896482">
        <ele>1430.44</ele>
        <time>2020-07-21T07:19:41.000Z</time>
      </trkpt>
      <trkpt lat="42.9113153" lon="-5.6896597">
        <ele>1430.75</ele>
        <time>2020-07-21T07:19:42.000Z</time>
      </trkpt>
      <trkpt lat="42.9113178" lon="-5.6896727">
        <ele>1430.75</ele>
        <time>2020-07-21T07:19:43.000Z</time>
      </trkpt>
      <trkpt lat="42.9113205" lon="-5.689687">
        <ele>1431.05</ele>
        <time>2020-07-21T07:19:44.000Z</time>
      </trkpt>
      <trkpt lat="42.911323" lon="-5.6897035">
        <ele>1431.05</ele>
        <time>2020-07-21T07:19:45.000Z</time>
      </trkpt>
      <trkpt lat="42.9113278" lon="-5.6897202">
        <ele>1431.21</ele>
        <time>2020-07-21T07:19:46.000Z</time>
      </trkpt>
      <trkpt lat="42.9113345" lon="-5.6897348">
        <ele>1431.21</ele>
        <time>2020-07-21T07:19:47.000Z</time>
      </trkpt>
      <trkpt lat="42.9113417" lon="-5.6897465">
        <ele>1431.51</ele>
        <time>2020-07-21T07:19:48.000Z</time>
      </trkpt>
      <trkpt lat="42.9113495" lon="-5.6897565">
        <ele>1431.51</ele>
        <time>2020-07-21T07:19:49.000Z</time>
      </trkpt>
      <trkpt lat="42.9113573" lon="-5.689767">
        <ele>1431.81</ele>
        <time>2020-07-21T07:19:50.000Z</time>
      </trkpt>
      <trkpt lat="42.9113668" lon="-5.6897782">
        <ele>1431.81</ele>
        <time>2020-07-21T07:19:51.000Z</time>
      </trkpt>
      <trkpt lat="42.9113737" lon="-5.6897907">
        <ele>1431.97</ele>
        <time>2020-07-21T07:19:52.000Z</time>
      </trkpt>
      <trkpt lat="42.9113802" lon="-5.6898022">
        <ele>1431.97</ele>
        <time>2020-07-21T07:19:53.000Z</time>
      </trkpt>
      <trkpt lat="42.9113848" lon="-5.689814">
        <ele>1432.27</ele>
        <time>2020-07-21T07:19:54.000Z</time>
      </trkpt>
      <trkpt lat="42.9113913" lon="-5.6898263">
        <ele>1432.27</ele>
        <time>2020-07-21T07:19:55.000Z</time>
      </trkpt>
      <trkpt lat="42.9113983" lon="-5.6898398">
        <ele>1432.58</ele>
        <time>2020-07-21T07:19:56.000Z</time>
      </trkpt>
      <trkpt lat="42.9114043" lon="-5.6898533">
        <ele>1432.58</ele>
        <time>2020-07-21T07:19:57.000Z</time>
      </trkpt>
      <trkpt lat="42.9114117" lon="-5.6898662">
        <ele>1432.88</ele>
        <time>2020-07-21T07:19:58.000Z</time>
      </trkpt>
      <trkpt lat="42.911419" lon="-5.689879">
        <ele>1432.88</ele>
        <time>2020-07-21T07:19:59.000Z</time>
      </trkpt>
      <trkpt lat="42.9114288" lon="-5.68989">
        <ele>1433.04</ele>
        <time>2020-07-21T07:20:00.000Z</time>
      </trkpt>
      <trkpt lat="42.9114382" lon="-5.6899003">
        <ele>1433.04</ele>
        <time>2020-07-21T07:20:01.000Z</time>
      </trkpt>
      <trkpt lat="42.9114475" lon="-5.6899098">
        <ele>1433.34</ele>
        <time>2020-07-21T07:20:02.000Z</time>
      </trkpt>
      <trkpt lat="42.9114558" lon="-5.6899212">
        <ele>1433.34</ele>
        <time>2020-07-21T07:20:03.000Z</time>
      </trkpt>
      <trkpt lat="42.9114653" lon="-5.6899332">
        <ele>1433.64</ele>
        <time>2020-07-21T07:20:04.000Z</time>
      </trkpt>
      <trkpt lat="42.9114747" lon="-5.6899458">
        <ele>1433.64</ele>
        <time>2020-07-21T07:20:05.000Z</time>
      </trkpt>
      <trkpt lat="42.9114818" lon="-5.6899593">
        <ele>1433.8</ele>
        <time>2020-07-21T07:20:06.000Z</time>
      </trkpt>
      <trkpt lat="42.9114877" lon="-5.6899733">
        <ele>1433.8</ele>
        <time>2020-07-21T07:20:07.000Z</time>
      </trkpt>
      <trkpt lat="42.9114928" lon="-5.6899862">
        <ele>1434.1</ele>
        <time>2020-07-21T07:20:08.000Z</time>
      </trkpt>
      <trkpt lat="42.9114982" lon="-5.6899998">
        <ele>1434.1</ele>
        <time>2020-07-21T07:20:09.000Z</time>
      </trkpt>
      <trkpt lat="42.9115038" lon="-5.6900133">
        <ele>1434.41</ele>
        <time>2020-07-21T07:20:10.000Z</time>
      </trkpt>
      <trkpt lat="42.9115087" lon="-5.6900282">
        <ele>1434.41</ele>
        <time>2020-07-21T07:20:11.000Z</time>
      </trkpt>
      <trkpt lat="42.9115147" lon="-5.6900415">
        <ele>1434.56</ele>
        <time>2020-07-21T07:20:12.000Z</time>
      </trkpt>
      <trkpt lat="42.9115207" lon="-5.6900542">
        <ele>1434.56</ele>
        <time>2020-07-21T07:20:13.000Z</time>
      </trkpt>
      <trkpt lat="42.9115278" lon="-5.6900673">
        <ele>1434.86</ele>
        <time>2020-07-21T07:20:14.000Z</time>
      </trkpt>
      <trkpt lat="42.9115343" lon="-5.6900802">
        <ele>1434.86</ele>
        <time>2020-07-21T07:20:15.000Z</time>
      </trkpt>
      <trkpt lat="42.9115408" lon="-5.6900935">
        <ele>1435.17</ele>
        <time>2020-07-21T07:20:16.000Z</time>
      </trkpt>
      <trkpt lat="42.9115465" lon="-5.6901053">
        <ele>1435.17</ele>
        <time>2020-07-21T07:20:17.000Z</time>
      </trkpt>
      <trkpt lat="42.9115528" lon="-5.6901167">
        <ele>1435.47</ele>
        <time>2020-07-21T07:20:18.000Z</time>
      </trkpt>
      <trkpt lat="42.9115577" lon="-5.6901287">
        <ele>1435.47</ele>
        <time>2020-07-21T07:20:19.000Z</time>
      </trkpt>
      <trkpt lat="42.9115617" lon="-5.690143">
        <ele>1435.62</ele>
        <time>2020-07-21T07:20:20.000Z</time>
      </trkpt>
      <trkpt lat="42.911565" lon="-5.6901577">
        <ele>1435.62</ele>
        <time>2020-07-21T07:20:21.000Z</time>
      </trkpt>
      <trkpt lat="42.9115703" lon="-5.6901713">
        <ele>1435.93</ele>
        <time>2020-07-21T07:20:22.000Z</time>
      </trkpt>
      <trkpt lat="42.9115783" lon="-5.6901833">
        <ele>1435.93</ele>
        <time>2020-07-21T07:20:23.000Z</time>
      </trkpt>
      <trkpt lat="42.911586" lon="-5.6901948">
        <ele>1436.23</ele>
        <time>2020-07-21T07:20:24.000Z</time>
      </trkpt>
      <trkpt lat="42.911592" lon="-5.6902073">
        <ele>1436.23</ele>
        <time>2020-07-21T07:20:25.000Z</time>
      </trkpt>
      <trkpt lat="42.9115967" lon="-5.6902205">
        <ele>1436.54</ele>
        <time>2020-07-21T07:20:26.000Z</time>
      </trkpt>
      <trkpt lat="42.9116013" lon="-5.6902352">
        <ele>1436.54</ele>
        <time>2020-07-21T07:20:27.000Z</time>
      </trkpt>
      <trkpt lat="42.9116078" lon="-5.6902507">
        <ele>1436.69</ele>
        <time>2020-07-21T07:20:28.000Z</time>
      </trkpt>
      <trkpt lat="42.9116152" lon="-5.6902652">
        <ele>1436.69</ele>
        <time>2020-07-21T07:20:29.000Z</time>
      </trkpt>
      <trkpt lat="42.9116222" lon="-5.690278">
        <ele>1437</ele>
        <time>2020-07-21T07:20:30.000Z</time>
      </trkpt>
      <trkpt lat="42.911627" lon="-5.690288">
        <ele>1437</ele>
        <time>2020-07-21T07:20:31.000Z</time>
      </trkpt>
      <trkpt lat="42.911631" lon="-5.6902983">
        <ele>1437.3</ele>
        <time>2020-07-21T07:20:32.000Z</time>
      </trkpt>
      <trkpt lat="42.9116363" lon="-5.690308">
        <ele>1437.3</ele>
        <time>2020-07-21T07:20:33.000Z</time>
      </trkpt>
      <trkpt lat="42.9116412" lon="-5.6903167">
        <ele>1437.45</ele>
        <time>2020-07-21T07:20:34.000Z</time>
      </trkpt>
      <trkpt lat="42.9116445" lon="-5.6903235">
        <ele>1437.45</ele>
        <time>2020-07-21T07:20:35.000Z</time>
      </trkpt>
      <trkpt lat="42.9116467" lon="-5.6903327">
        <ele>1437.76</ele>
        <time>2020-07-21T07:20:36.000Z</time>
      </trkpt>
      <trkpt lat="42.91165" lon="-5.6903433">
        <ele>1437.76</ele>
        <time>2020-07-21T07:20:37.000Z</time>
      </trkpt>
      <trkpt lat="42.9116552" lon="-5.6903557">
        <ele>1438.06</ele>
        <time>2020-07-21T07:20:38.000Z</time>
      </trkpt>
      <trkpt lat="42.9116608" lon="-5.6903658">
        <ele>1438.06</ele>
        <time>2020-07-21T07:20:39.000Z</time>
      </trkpt>
      <trkpt lat="42.9116672" lon="-5.6903763">
        <ele>1438.22</ele>
        <time>2020-07-21T07:20:40.000Z</time>
      </trkpt>
      <trkpt lat="42.9116743" lon="-5.6903873">
        <ele>1438.22</ele>
        <time>2020-07-21T07:20:41.000Z</time>
      </trkpt>
      <trkpt lat="42.9116812" lon="-5.690399">
        <ele>1438.52</ele>
        <time>2020-07-21T07:20:42.000Z</time>
      </trkpt>
      <trkpt lat="42.9116878" lon="-5.6904105">
        <ele>1438.52</ele>
        <time>2020-07-21T07:20:43.000Z</time>
      </trkpt>
      <trkpt lat="42.911693" lon="-5.6904225">
        <ele>1438.67</ele>
        <time>2020-07-21T07:20:44.000Z</time>
      </trkpt>
      <trkpt lat="42.911702" lon="-5.6904347">
        <ele>1438.67</ele>
        <time>2020-07-21T07:20:45.000Z</time>
      </trkpt>
      <trkpt lat="42.9117115" lon="-5.6904457">
        <ele>1438.98</ele>
        <time>2020-07-21T07:20:46.000Z</time>
      </trkpt>
      <trkpt lat="42.9117237" lon="-5.6904552">
        <ele>1438.98</ele>
        <time>2020-07-21T07:20:47.000Z</time>
      </trkpt>
      <trkpt lat="42.9117358" lon="-5.6904638">
        <ele>1439.28</ele>
        <time>2020-07-21T07:20:48.000Z</time>
      </trkpt>
      <trkpt lat="42.9117478" lon="-5.6904733">
        <ele>1439.28</ele>
        <time>2020-07-21T07:20:49.000Z</time>
      </trkpt>
      <trkpt lat="42.911761" lon="-5.6904835">
        <ele>1439.44</ele>
        <time>2020-07-21T07:20:50.000Z</time>
      </trkpt>
      <trkpt lat="42.9117742" lon="-5.6904942">
        <ele>1439.44</ele>
        <time>2020-07-21T07:20:51.000Z</time>
      </trkpt>
      <trkpt lat="42.9117888" lon="-5.6905033">
        <ele>1439.74</ele>
        <time>2020-07-21T07:20:52.000Z</time>
      </trkpt>
      <trkpt lat="42.9118013" lon="-5.6905117">
        <ele>1439.74</ele>
        <time>2020-07-21T07:20:53.000Z</time>
      </trkpt>
      <trkpt lat="42.9118117" lon="-5.6905195">
        <ele>1440.05</ele>
        <time>2020-07-21T07:20:54.000Z</time>
      </trkpt>
      <trkpt lat="42.9118218" lon="-5.690527">
        <ele>1440.05</ele>
        <time>2020-07-21T07:20:55.000Z</time>
      </trkpt>
      <trkpt lat="42.9118318" lon="-5.6905335">
        <ele>1440.35</ele>
        <time>2020-07-21T07:20:56.000Z</time>
      </trkpt>
      <trkpt lat="42.9118415" lon="-5.690539">
        <ele>1440.35</ele>
        <time>2020-07-21T07:20:57.000Z</time>
      </trkpt>
      <trkpt lat="42.9118512" lon="-5.690544">
        <ele>1440.66</ele>
        <time>2020-07-21T07:20:58.000Z</time>
      </trkpt>
      <trkpt lat="42.9118615" lon="-5.6905485">
        <ele>1440.66</ele>
        <time>2020-07-21T07:20:59.000Z</time>
      </trkpt>
      <trkpt lat="42.9118723" lon="-5.6905528">
        <ele>1440.96</ele>
        <time>2020-07-21T07:21:00.000Z</time>
      </trkpt>
      <trkpt lat="42.9118827" lon="-5.6905577">
        <ele>1440.96</ele>
        <time>2020-07-21T07:21:01.000Z</time>
      </trkpt>
      <trkpt lat="42.911892" lon="-5.6905635">
        <ele>1441.26</ele>
        <time>2020-07-21T07:21:02.000Z</time>
      </trkpt>
      <trkpt lat="42.9119018" lon="-5.6905702">
        <ele>1441.26</ele>
        <time>2020-07-21T07:21:03.000Z</time>
      </trkpt>
      <trkpt lat="42.9119128" lon="-5.6905775">
        <ele>1441.57</ele>
        <time>2020-07-21T07:21:04.000Z</time>
      </trkpt>
      <trkpt lat="42.9119235" lon="-5.6905853">
        <ele>1441.57</ele>
        <time>2020-07-21T07:21:05.000Z</time>
      </trkpt>
      <trkpt lat="42.9119338" lon="-5.6905933">
        <ele>1441.87</ele>
        <time>2020-07-21T07:21:06.000Z</time>
      </trkpt>
      <trkpt lat="42.9119432" lon="-5.6906012">
        <ele>1441.87</ele>
        <time>2020-07-21T07:21:07.000Z</time>
      </trkpt>
      <trkpt lat="42.9119528" lon="-5.6906078">
        <ele>1442.18</ele>
        <time>2020-07-21T07:21:08.000Z</time>
      </trkpt>
      <trkpt lat="42.9119622" lon="-5.6906142">
        <ele>1442.18</ele>
        <time>2020-07-21T07:21:09.000Z</time>
      </trkpt>
      <trkpt lat="42.9119712" lon="-5.6906202">
        <ele>1442.33</ele>
        <time>2020-07-21T07:21:10.000Z</time>
      </trkpt>
      <trkpt lat="42.9119797" lon="-5.690626">
        <ele>1442.33</ele>
        <time>2020-07-21T07:21:11.000Z</time>
      </trkpt>
      <trkpt lat="42.911989" lon="-5.6906325">
        <ele>1442.64</ele>
        <time>2020-07-21T07:21:12.000Z</time>
      </trkpt>
      <trkpt lat="42.9119987" lon="-5.6906387">
        <ele>1442.64</ele>
        <time>2020-07-21T07:21:13.000Z</time>
      </trkpt>
      <trkpt lat="42.9120092" lon="-5.6906455">
        <ele>1442.94</ele>
        <time>2020-07-21T07:21:14.000Z</time>
      </trkpt>
      <trkpt lat="42.9120192" lon="-5.6906517">
        <ele>1442.94</ele>
        <time>2020-07-21T07:21:15.000Z</time>
      </trkpt>
      <trkpt lat="42.912029" lon="-5.6906598">
        <ele>1443.24</ele>
        <time>2020-07-21T07:21:16.000Z</time>
      </trkpt>
      <trkpt lat="42.9120388" lon="-5.6906688">
        <ele>1443.24</ele>
        <time>2020-07-21T07:21:17.000Z</time>
      </trkpt>
      <trkpt lat="42.9120488" lon="-5.6906795">
        <ele>1443.4</ele>
        <time>2020-07-21T07:21:18.000Z</time>
      </trkpt>
      <trkpt lat="42.9120583" lon="-5.69069">
        <ele>1443.4</ele>
        <time>2020-07-21T07:21:19.000Z</time>
      </trkpt>
      <trkpt lat="42.9120675" lon="-5.6907013">
        <ele>1443.7</ele>
        <time>2020-07-21T07:21:20.000Z</time>
      </trkpt>
      <trkpt lat="42.912077" lon="-5.6907125">
        <ele>1443.7</ele>
        <time>2020-07-21T07:21:21.000Z</time>
      </trkpt>
      <trkpt lat="42.9120878" lon="-5.6907227">
        <ele>1443.85</ele>
        <time>2020-07-21T07:21:22.000Z</time>
      </trkpt>
      <trkpt lat="42.9120985" lon="-5.6907313">
        <ele>1443.85</ele>
        <time>2020-07-21T07:21:23.000Z</time>
      </trkpt>
      <trkpt lat="42.9121092" lon="-5.690741">
        <ele>1444.16</ele>
        <time>2020-07-21T07:21:24.000Z</time>
      </trkpt>
      <trkpt lat="42.9121187" lon="-5.6907518">
        <ele>1444.16</ele>
        <time>2020-07-21T07:21:25.000Z</time>
      </trkpt>
      <trkpt lat="42.9121287" lon="-5.6907642">
        <ele>1444.31</ele>
        <time>2020-07-21T07:21:26.000Z</time>
      </trkpt>
      <trkpt lat="42.9121383" lon="-5.6907753">
        <ele>1444.31</ele>
        <time>2020-07-21T07:21:27.000Z</time>
      </trkpt>
      <trkpt lat="42.9121482" lon="-5.6907867">
        <ele>1444.46</ele>
        <time>2020-07-21T07:21:28.000Z</time>
      </trkpt>
      <trkpt lat="42.9121577" lon="-5.690798">
        <ele>1444.46</ele>
        <time>2020-07-21T07:21:29.000Z</time>
      </trkpt>
      <trkpt lat="42.9121667" lon="-5.6908098">
        <ele>1444.77</ele>
        <time>2020-07-21T07:21:30.000Z</time>
      </trkpt>
      <trkpt lat="42.9121753" lon="-5.6908215">
        <ele>1444.77</ele>
        <time>2020-07-21T07:21:31.000Z</time>
      </trkpt>
      <trkpt lat="42.9121842" lon="-5.6908332">
        <ele>1444.92</ele>
        <time>2020-07-21T07:21:32.000Z</time>
      </trkpt>
      <trkpt lat="42.912192" lon="-5.6908452">
        <ele>1444.92</ele>
        <time>2020-07-21T07:21:33.000Z</time>
      </trkpt>
      <trkpt lat="42.912199" lon="-5.6908592">
        <ele>1445.07</ele>
        <time>2020-07-21T07:21:34.000Z</time>
      </trkpt>
      <trkpt lat="42.9122052" lon="-5.6908735">
        <ele>1445.07</ele>
        <time>2020-07-21T07:21:35.000Z</time>
      </trkpt>
      <trkpt lat="42.9122105" lon="-5.6908887">
        <ele>1445.23</ele>
        <time>2020-07-21T07:21:36.000Z</time>
      </trkpt>
      <trkpt lat="42.9122163" lon="-5.690902">
        <ele>1445.23</ele>
        <time>2020-07-21T07:21:37.000Z</time>
      </trkpt>
      <trkpt lat="42.9122218" lon="-5.6909153">
        <ele>1445.53</ele>
        <time>2020-07-21T07:21:38.000Z</time>
      </trkpt>
      <trkpt lat="42.9122275" lon="-5.690928">
        <ele>1445.53</ele>
        <time>2020-07-21T07:21:39.000Z</time>
      </trkpt>
      <trkpt lat="42.9122335" lon="-5.6909393">
        <ele>1445.68</ele>
        <time>2020-07-21T07:21:40.000Z</time>
      </trkpt>
      <trkpt lat="42.9122392" lon="-5.6909505">
        <ele>1445.68</ele>
        <time>2020-07-21T07:21:41.000Z</time>
      </trkpt>
      <trkpt lat="42.912245" lon="-5.6909622">
        <ele>1445.84</ele>
        <time>2020-07-21T07:21:42.000Z</time>
      </trkpt>
      <trkpt lat="42.9122502" lon="-5.6909755">
        <ele>1445.84</ele>
        <time>2020-07-21T07:21:43.000Z</time>
      </trkpt>
      <trkpt lat="42.912256" lon="-5.6909885">
        <ele>1445.99</ele>
        <time>2020-07-21T07:21:44.000Z</time>
      </trkpt>
      <trkpt lat="42.9122622" lon="-5.691001">
        <ele>1445.99</ele>
        <time>2020-07-21T07:21:45.000Z</time>
      </trkpt>
      <trkpt lat="42.9122687" lon="-5.691013">
        <ele>1446.29</ele>
        <time>2020-07-21T07:21:46.000Z</time>
      </trkpt>
      <trkpt lat="42.9122752" lon="-5.6910253">
        <ele>1446.29</ele>
        <time>2020-07-21T07:21:47.000Z</time>
      </trkpt>
      <trkpt lat="42.912281" lon="-5.6910372">
        <ele>1446.45</ele>
        <time>2020-07-21T07:21:48.000Z</time>
      </trkpt>
      <trkpt lat="42.9122868" lon="-5.6910498">
        <ele>1446.45</ele>
        <time>2020-07-21T07:21:49.000Z</time>
      </trkpt>
      <trkpt lat="42.9122922" lon="-5.6910628">
        <ele>1446.6</ele>
        <time>2020-07-21T07:21:50.000Z</time>
      </trkpt>
      <trkpt lat="42.9122977" lon="-5.6910768">
        <ele>1446.6</ele>
        <time>2020-07-21T07:21:51.000Z</time>
      </trkpt>
      <trkpt lat="42.9123025" lon="-5.6910903">
        <ele>1446.75</ele>
        <time>2020-07-21T07:21:52.000Z</time>
      </trkpt>
      <trkpt lat="42.9123075" lon="-5.6911043">
        <ele>1446.75</ele>
        <time>2020-07-21T07:21:53.000Z</time>
      </trkpt>
      <trkpt lat="42.9123127" lon="-5.6911172">
        <ele>1446.9</ele>
        <time>2020-07-21T07:21:54.000Z</time>
      </trkpt>
      <trkpt lat="42.9123177" lon="-5.6911302">
        <ele>1446.9</ele>
        <time>2020-07-21T07:21:55.000Z</time>
      </trkpt>
      <trkpt lat="42.9123222" lon="-5.6911422">
        <ele>1447.06</ele>
        <time>2020-07-21T07:21:56.000Z</time>
      </trkpt>
      <trkpt lat="42.9123252" lon="-5.6911542">
        <ele>1447.06</ele>
        <time>2020-07-21T07:21:57.000Z</time>
      </trkpt>
      <trkpt lat="42.9123283" lon="-5.6911658">
        <ele>1447.36</ele>
        <time>2020-07-21T07:21:58.000Z</time>
      </trkpt>
      <trkpt lat="42.9123313" lon="-5.6911772">
        <ele>1447.36</ele>
        <time>2020-07-21T07:21:59.000Z</time>
      </trkpt>
      <trkpt lat="42.9123352" lon="-5.6911887">
        <ele>1447.51</ele>
        <time>2020-07-21T07:22:00.000Z</time>
      </trkpt>
      <trkpt lat="42.9123388" lon="-5.6911998">
        <ele>1447.51</ele>
        <time>2020-07-21T07:22:01.000Z</time>
      </trkpt>
      <trkpt lat="42.9123432" lon="-5.6912112">
        <ele>1447.67</ele>
        <time>2020-07-21T07:22:02.000Z</time>
      </trkpt>
      <trkpt lat="42.9123467" lon="-5.691222">
        <ele>1447.67</ele>
        <time>2020-07-21T07:22:03.000Z</time>
      </trkpt>
      <trkpt lat="42.912348" lon="-5.6912348">
        <ele>1447.82</ele>
        <time>2020-07-21T07:22:04.000Z</time>
      </trkpt>
      <trkpt lat="42.912349" lon="-5.6912488">
        <ele>1447.82</ele>
        <time>2020-07-21T07:22:05.000Z</time>
      </trkpt>
      <trkpt lat="42.9123493" lon="-5.6912647">
        <ele>1447.97</ele>
        <time>2020-07-21T07:22:06.000Z</time>
      </trkpt>
      <trkpt lat="42.9123515" lon="-5.6912782">
        <ele>1447.97</ele>
        <time>2020-07-21T07:22:07.000Z</time>
      </trkpt>
      <trkpt lat="42.9123538" lon="-5.6912917">
        <ele>1448.12</ele>
        <time>2020-07-21T07:22:08.000Z</time>
      </trkpt>
      <trkpt lat="42.912357" lon="-5.691305">
        <ele>1448.12</ele>
        <time>2020-07-21T07:22:09.000Z</time>
      </trkpt>
      <trkpt lat="42.9123603" lon="-5.6913197">
        <ele>1448.43</ele>
        <time>2020-07-21T07:22:10.000Z</time>
      </trkpt>
      <trkpt lat="42.9123642" lon="-5.6913335">
        <ele>1448.43</ele>
        <time>2020-07-21T07:22:11.000Z</time>
      </trkpt>
      <trkpt lat="42.912369" lon="-5.6913458">
        <ele>1448.58</ele>
        <time>2020-07-21T07:22:12.000Z</time>
      </trkpt>
      <trkpt lat="42.9123748" lon="-5.6913573">
        <ele>1448.58</ele>
        <time>2020-07-21T07:22:13.000Z</time>
      </trkpt>
      <trkpt lat="42.912381" lon="-5.6913687">
        <ele>1448.73</ele>
        <time>2020-07-21T07:22:14.000Z</time>
      </trkpt>
      <trkpt lat="42.912387" lon="-5.6913802">
        <ele>1448.73</ele>
        <time>2020-07-21T07:22:15.000Z</time>
      </trkpt>
      <trkpt lat="42.9123923" lon="-5.6913923">
        <ele>1449.04</ele>
        <time>2020-07-21T07:22:16.000Z</time>
      </trkpt>
      <trkpt lat="42.9123973" lon="-5.6914048">
        <ele>1449.04</ele>
        <time>2020-07-21T07:22:17.000Z</time>
      </trkpt>
      <trkpt lat="42.9124027" lon="-5.6914182">
        <ele>1449.19</ele>
        <time>2020-07-21T07:22:18.000Z</time>
      </trkpt>
      <trkpt lat="42.9124082" lon="-5.6914317">
        <ele>1449.19</ele>
        <time>2020-07-21T07:22:19.000Z</time>
      </trkpt>
      <trkpt lat="42.9124135" lon="-5.6914453">
        <ele>1449.34</ele>
        <time>2020-07-21T07:22:20.000Z</time>
      </trkpt>
      <trkpt lat="42.9124195" lon="-5.6914577">
        <ele>1449.34</ele>
        <time>2020-07-21T07:22:21.000Z</time>
      </trkpt>
      <trkpt lat="42.9124242" lon="-5.6914688">
        <ele>1449.65</ele>
        <time>2020-07-21T07:22:22.000Z</time>
      </trkpt>
      <trkpt lat="42.9124278" lon="-5.6914805">
        <ele>1449.65</ele>
        <time>2020-07-21T07:22:23.000Z</time>
      </trkpt>
      <trkpt lat="42.9124297" lon="-5.6914938">
        <ele>1449.8</ele>
        <time>2020-07-21T07:22:24.000Z</time>
      </trkpt>
      <trkpt lat="42.9124327" lon="-5.6915082">
        <ele>1449.8</ele>
        <time>2020-07-21T07:22:25.000Z</time>
      </trkpt>
      <trkpt lat="42.9124368" lon="-5.6915223">
        <ele>1449.95</ele>
        <time>2020-07-21T07:22:26.000Z</time>
      </trkpt>
      <trkpt lat="42.9124422" lon="-5.6915367">
        <ele>1449.95</ele>
        <time>2020-07-21T07:22:27.000Z</time>
      </trkpt>
      <trkpt lat="42.912448" lon="-5.6915492">
        <ele>1450.26</ele>
        <time>2020-07-21T07:22:28.000Z</time>
      </trkpt>
      <trkpt lat="42.9124538" lon="-5.6915625">
        <ele>1450.26</ele>
        <time>2020-07-21T07:22:29.000Z</time>
      </trkpt>
      <trkpt lat="42.9124598" lon="-5.6915747">
        <ele>1450.41</ele>
        <time>2020-07-21T07:22:30.000Z</time>
      </trkpt>
      <trkpt lat="42.9124653" lon="-5.6915883">
        <ele>1450.41</ele>
        <time>2020-07-21T07:22:31.000Z</time>
      </trkpt>
      <trkpt lat="42.9124713" lon="-5.6916015">
        <ele>1450.71</ele>
        <time>2020-07-21T07:22:32.000Z</time>
      </trkpt>
      <trkpt lat="42.912477" lon="-5.6916147">
        <ele>1450.71</ele>
        <time>2020-07-21T07:22:33.000Z</time>
      </trkpt>
      <trkpt lat="42.912483" lon="-5.691627">
        <ele>1450.87</ele>
        <time>2020-07-21T07:22:34.000Z</time>
      </trkpt>
      <trkpt lat="42.9124885" lon="-5.691639">
        <ele>1450.87</ele>
        <time>2020-07-21T07:22:35.000Z</time>
      </trkpt>
      <trkpt lat="42.9124947" lon="-5.6916508">
        <ele>1451.17</ele>
        <time>2020-07-21T07:22:36.000Z</time>
      </trkpt>
      <trkpt lat="42.9124997" lon="-5.6916625">
        <ele>1451.17</ele>
        <time>2020-07-21T07:22:37.000Z</time>
      </trkpt>
      <trkpt lat="42.9125045" lon="-5.6916695">
        <ele>1451.32</ele>
        <time>2020-07-21T07:22:38.000Z</time>
      </trkpt>
      <trkpt lat="42.9125085" lon="-5.6916712">
        <ele>1451.32</ele>
        <time>2020-07-21T07:22:39.000Z</time>
      </trkpt>
      <trkpt lat="42.9125117" lon="-5.6916695">
        <ele>1451.63</ele>
        <time>2020-07-21T07:22:40.000Z</time>
      </trkpt>
      <trkpt lat="42.9125132" lon="-5.6916675">
        <ele>1451.63</ele>
        <time>2020-07-21T07:22:41.000Z</time>
      </trkpt>
      <trkpt lat="42.9125128" lon="-5.691667">
        <ele>1451.78</ele>
        <time>2020-07-21T07:22:42.000Z</time>
      </trkpt>
      <trkpt lat="42.9125122" lon="-5.6916663">
        <ele>1451.78</ele>
        <time>2020-07-21T07:22:43.000Z</time>
      </trkpt>
      <trkpt lat="42.9125123" lon="-5.691666">
        <ele>1452.08</ele>
        <time>2020-07-21T07:22:44.000Z</time>
      </trkpt>
      <trkpt lat="42.912513" lon="-5.6916663">
        <ele>1452.08</ele>
        <time>2020-07-21T07:22:45.000Z</time>
      </trkpt>
      <trkpt lat="42.9125132" lon="-5.6916668">
        <ele>1452.24</ele>
        <time>2020-07-21T07:22:46.000Z</time>
      </trkpt>
      <trkpt lat="42.9125132" lon="-5.6916683">
        <ele>1452.24</ele>
        <time>2020-07-21T07:22:47.000Z</time>
      </trkpt>
      <trkpt lat="42.912513" lon="-5.6916692">
        <ele>1452.54</ele>
        <time>2020-07-21T07:22:48.000Z</time>
      </trkpt>
      <trkpt lat="42.9125132" lon="-5.69167">
        <ele>1452.54</ele>
        <time>2020-07-21T07:22:49.000Z</time>
      </trkpt>
      <trkpt lat="42.9125137" lon="-5.6916707">
        <ele>1452.85</ele>
        <time>2020-07-21T07:22:50.000Z</time>
      </trkpt>
      <trkpt lat="42.9125145" lon="-5.6916727">
        <ele>1452.85</ele>
        <time>2020-07-21T07:22:51.000Z</time>
      </trkpt>
      <trkpt lat="42.9125153" lon="-5.6916782">
        <ele>1453</ele>
        <time>2020-07-21T07:22:52.000Z</time>
      </trkpt>
      <trkpt lat="42.9125193" lon="-5.6916877">
        <ele>1453</ele>
        <time>2020-07-21T07:22:53.000Z</time>
      </trkpt>
      <trkpt lat="42.9125258" lon="-5.6916993">
        <ele>1453.3</ele>
        <time>2020-07-21T07:22:54.000Z</time>
      </trkpt>
      <trkpt lat="42.9125347" lon="-5.6917108">
        <ele>1453.3</ele>
        <time>2020-07-21T07:22:55.000Z</time>
      </trkpt>
      <trkpt lat="42.9125427" lon="-5.6917213">
        <ele>1453.46</ele>
        <time>2020-07-21T07:22:56.000Z</time>
      </trkpt>
      <trkpt lat="42.9125502" lon="-5.6917318">
        <ele>1453.46</ele>
        <time>2020-07-21T07:22:57.000Z</time>
      </trkpt>
      <trkpt lat="42.9125572" lon="-5.6917427">
        <ele>1453.76</ele>
        <time>2020-07-21T07:22:58.000Z</time>
      </trkpt>
      <trkpt lat="42.912564" lon="-5.6917535">
        <ele>1453.76</ele>
        <time>2020-07-21T07:22:59.000Z</time>
      </trkpt>
      <trkpt lat="42.912571" lon="-5.691764">
        <ele>1454.07</ele>
        <time>2020-07-21T07:23:00.000Z</time>
      </trkpt>
      <trkpt lat="42.9125783" lon="-5.6917742">
        <ele>1454.07</ele>
        <time>2020-07-21T07:23:01.000Z</time>
      </trkpt>
      <trkpt lat="42.9125853" lon="-5.6917847">
        <ele>1454.22</ele>
        <time>2020-07-21T07:23:02.000Z</time>
      </trkpt>
      <trkpt lat="42.9125913" lon="-5.6917963">
        <ele>1454.22</ele>
        <time>2020-07-21T07:23:03.000Z</time>
      </trkpt>
      <trkpt lat="42.9125973" lon="-5.6918085">
        <ele>1454.52</ele>
        <time>2020-07-21T07:23:04.000Z</time>
      </trkpt>
      <trkpt lat="42.9126038" lon="-5.6918213">
        <ele>1454.52</ele>
        <time>2020-07-21T07:23:05.000Z</time>
      </trkpt>
      <trkpt lat="42.9126112" lon="-5.6918333">
        <ele>1454.68</ele>
        <time>2020-07-21T07:23:06.000Z</time>
      </trkpt>
      <trkpt lat="42.9126193" lon="-5.6918455">
        <ele>1454.68</ele>
        <time>2020-07-21T07:23:07.000Z</time>
      </trkpt>
      <trkpt lat="42.9126272" lon="-5.6918565">
        <ele>1454.98</ele>
        <time>2020-07-21T07:23:08.000Z</time>
      </trkpt>
      <trkpt lat="42.9126353" lon="-5.6918672">
        <ele>1454.98</ele>
        <time>2020-07-21T07:23:09.000Z</time>
      </trkpt>
      <trkpt lat="42.9126427" lon="-5.6918777">
        <ele>1455.29</ele>
        <time>2020-07-21T07:23:10.000Z</time>
      </trkpt>
      <trkpt lat="42.9126513" lon="-5.6918888">
        <ele>1455.29</ele>
        <time>2020-07-21T07:23:11.000Z</time>
      </trkpt>
      <trkpt lat="42.9126583" lon="-5.6919013">
        <ele>1455.44</ele>
        <time>2020-07-21T07:23:12.000Z</time>
      </trkpt>
      <trkpt lat="42.9126652" lon="-5.6919148">
        <ele>1455.44</ele>
        <time>2020-07-21T07:23:13.000Z</time>
      </trkpt>
      <trkpt lat="42.9126707" lon="-5.6919297">
        <ele>1455.74</ele>
        <time>2020-07-21T07:23:14.000Z</time>
      </trkpt>
      <trkpt lat="42.9126772" lon="-5.6919453">
        <ele>1455.74</ele>
        <time>2020-07-21T07:23:15.000Z</time>
      </trkpt>
      <trkpt lat="42.9126838" lon="-5.6919612">
        <ele>1455.9</ele>
        <time>2020-07-21T07:23:16.000Z</time>
      </trkpt>
      <trkpt lat="42.9126907" lon="-5.6919755">
        <ele>1455.9</ele>
        <time>2020-07-21T07:23:17.000Z</time>
      </trkpt>
      <trkpt lat="42.912697" lon="-5.6919893">
        <ele>1456.2</ele>
        <time>2020-07-21T07:23:18.000Z</time>
      </trkpt>
      <trkpt lat="42.912703" lon="-5.692003">
        <ele>1456.2</ele>
        <time>2020-07-21T07:23:19.000Z</time>
      </trkpt>
      <trkpt lat="42.912709" lon="-5.6920177">
        <ele>1456.35</ele>
        <time>2020-07-21T07:23:20.000Z</time>
      </trkpt>
      <trkpt lat="42.9127155" lon="-5.6920317">
        <ele>1456.35</ele>
        <time>2020-07-21T07:23:21.000Z</time>
      </trkpt>
      <trkpt lat="42.9127217" lon="-5.6920458">
        <ele>1456.66</ele>
        <time>2020-07-21T07:23:22.000Z</time>
      </trkpt>
      <trkpt lat="42.9127273" lon="-5.6920595">
        <ele>1456.66</ele>
        <time>2020-07-21T07:23:23.000Z</time>
      </trkpt>
      <trkpt lat="42.912732" lon="-5.6920742">
        <ele>1456.96</ele>
        <time>2020-07-21T07:23:24.000Z</time>
      </trkpt>
      <trkpt lat="42.9127363" lon="-5.692089">
        <ele>1456.96</ele>
        <time>2020-07-21T07:23:25.000Z</time>
      </trkpt>
      <trkpt lat="42.91274" lon="-5.6921038">
        <ele>1457.27</ele>
        <time>2020-07-21T07:23:26.000Z</time>
      </trkpt>
      <trkpt lat="42.9127428" lon="-5.6921183">
        <ele>1457.27</ele>
        <time>2020-07-21T07:23:27.000Z</time>
      </trkpt>
      <trkpt lat="42.9127453" lon="-5.6921327">
        <ele>1457.42</ele>
        <time>2020-07-21T07:23:28.000Z</time>
      </trkpt>
      <trkpt lat="42.9127483" lon="-5.6921473">
        <ele>1457.42</ele>
        <time>2020-07-21T07:23:29.000Z</time>
      </trkpt>
      <trkpt lat="42.9127512" lon="-5.692162">
        <ele>1457.72</ele>
        <time>2020-07-21T07:23:30.000Z</time>
      </trkpt>
      <trkpt lat="42.9127538" lon="-5.6921777">
        <ele>1457.72</ele>
        <time>2020-07-21T07:23:31.000Z</time>
      </trkpt>
      <trkpt lat="42.9127568" lon="-5.6921928">
        <ele>1458.03</ele>
        <time>2020-07-21T07:23:32.000Z</time>
      </trkpt>
      <trkpt lat="42.9127603" lon="-5.6922082">
        <ele>1458.03</ele>
        <time>2020-07-21T07:23:33.000Z</time>
      </trkpt>
      <trkpt lat="42.9127635" lon="-5.6922223">
        <ele>1458.18</ele>
        <time>2020-07-21T07:23:34.000Z</time>
      </trkpt>
      <trkpt lat="42.9127653" lon="-5.6922373">
        <ele>1458.18</ele>
        <time>2020-07-21T07:23:35.000Z</time>
      </trkpt>
      <trkpt lat="42.9127675" lon="-5.6922522">
        <ele>1458.49</ele>
        <time>2020-07-21T07:23:36.000Z</time>
      </trkpt>
      <trkpt lat="42.912771" lon="-5.6922655">
        <ele>1458.49</ele>
        <time>2020-07-21T07:23:37.000Z</time>
      </trkpt>
      <trkpt lat="42.9127758" lon="-5.6922772">
        <ele>1458.64</ele>
        <time>2020-07-21T07:23:38.000Z</time>
      </trkpt>
      <trkpt lat="42.912781" lon="-5.6922878">
        <ele>1458.64</ele>
        <time>2020-07-21T07:23:39.000Z</time>
      </trkpt>
      <trkpt lat="42.9127862" lon="-5.6922998">
        <ele>1458.94</ele>
        <time>2020-07-21T07:23:40.000Z</time>
      </trkpt>
      <trkpt lat="42.9127912" lon="-5.6923125">
        <ele>1458.94</ele>
        <time>2020-07-21T07:23:41.000Z</time>
      </trkpt>
      <trkpt lat="42.9127947" lon="-5.6923275">
        <ele>1459.09</ele>
        <time>2020-07-21T07:23:42.000Z</time>
      </trkpt>
      <trkpt lat="42.9127963" lon="-5.6923425">
        <ele>1459.09</ele>
        <time>2020-07-21T07:23:43.000Z</time>
      </trkpt>
      <trkpt lat="42.9127987" lon="-5.6923572">
        <ele>1459.4</ele>
        <time>2020-07-21T07:23:44.000Z</time>
      </trkpt>
      <trkpt lat="42.9128012" lon="-5.6923703">
        <ele>1459.4</ele>
        <time>2020-07-21T07:23:45.000Z</time>
      </trkpt>
      <trkpt lat="42.9128038" lon="-5.6923838">
        <ele>1459.55</ele>
        <time>2020-07-21T07:23:46.000Z</time>
      </trkpt>
      <trkpt lat="42.9128043" lon="-5.6923995">
        <ele>1459.55</ele>
        <time>2020-07-21T07:23:47.000Z</time>
      </trkpt>
      <trkpt lat="42.9128045" lon="-5.6924162">
        <ele>1459.7</ele>
        <time>2020-07-21T07:23:48.000Z</time>
      </trkpt>
      <trkpt lat="42.912805" lon="-5.6924333">
        <ele>1459.7</ele>
        <time>2020-07-21T07:23:49.000Z</time>
      </trkpt>
      <trkpt lat="42.912807" lon="-5.6924493">
        <ele>1459.86</ele>
        <time>2020-07-21T07:23:50.000Z</time>
      </trkpt>
      <trkpt lat="42.9128087" lon="-5.6924645">
        <ele>1459.86</ele>
        <time>2020-07-21T07:23:51.000Z</time>
      </trkpt>
      <trkpt lat="42.9128105" lon="-5.6924803">
        <ele>1460.01</ele>
        <time>2020-07-21T07:23:52.000Z</time>
      </trkpt>
      <trkpt lat="42.9128127" lon="-5.6924965">
        <ele>1460.01</ele>
        <time>2020-07-21T07:23:53.000Z</time>
      </trkpt>
      <trkpt lat="42.9128163" lon="-5.692513">
        <ele>1460.16</ele>
        <time>2020-07-21T07:23:54.000Z</time>
      </trkpt>
      <trkpt lat="42.9128208" lon="-5.6925287">
        <ele>1460.16</ele>
        <time>2020-07-21T07:23:55.000Z</time>
      </trkpt>
      <trkpt lat="42.9128253" lon="-5.6925435">
        <ele>1460.31</ele>
        <time>2020-07-21T07:23:56.000Z</time>
      </trkpt>
      <trkpt lat="42.9128297" lon="-5.6925575">
        <ele>1460.31</ele>
        <time>2020-07-21T07:23:57.000Z</time>
      </trkpt>
      <trkpt lat="42.9128343" lon="-5.6925713">
        <ele>1460.31</ele>
        <time>2020-07-21T07:23:58.000Z</time>
      </trkpt>
      <trkpt lat="42.9128383" lon="-5.692586">
        <ele>1460.31</ele>
        <time>2020-07-21T07:23:59.000Z</time>
      </trkpt>
      <trkpt lat="42.912842" lon="-5.6926015">
        <ele>1460.47</ele>
        <time>2020-07-21T07:24:00.000Z</time>
      </trkpt>
      <trkpt lat="42.9128452" lon="-5.6926172">
        <ele>1460.47</ele>
        <time>2020-07-21T07:24:01.000Z</time>
      </trkpt>
      <trkpt lat="42.912849" lon="-5.692633">
        <ele>1460.47</ele>
        <time>2020-07-21T07:24:02.000Z</time>
      </trkpt>
      <trkpt lat="42.9128533" lon="-5.6926475">
        <ele>1460.47</ele>
        <time>2020-07-21T07:24:03.000Z</time>
      </trkpt>
      <trkpt lat="42.9128575" lon="-5.6926625">
        <ele>1460.62</ele>
        <time>2020-07-21T07:24:04.000Z</time>
      </trkpt>
      <trkpt lat="42.9128615" lon="-5.6926768">
        <ele>1460.62</ele>
        <time>2020-07-21T07:24:05.000Z</time>
      </trkpt>
      <trkpt lat="42.9128652" lon="-5.6926917">
        <ele>1460.62</ele>
        <time>2020-07-21T07:24:06.000Z</time>
      </trkpt>
      <trkpt lat="42.9128693" lon="-5.6927053">
        <ele>1460.62</ele>
        <time>2020-07-21T07:24:07.000Z</time>
      </trkpt>
      <trkpt lat="42.912874" lon="-5.692718">
        <ele>1460.77</ele>
        <time>2020-07-21T07:24:08.000Z</time>
      </trkpt>
      <trkpt lat="42.9128788" lon="-5.692731">
        <ele>1460.77</ele>
        <time>2020-07-21T07:24:09.000Z</time>
      </trkpt>
      <trkpt lat="42.9128838" lon="-5.6927447">
        <ele>1460.77</ele>
        <time>2020-07-21T07:24:10.000Z</time>
      </trkpt>
      <trkpt lat="42.912888" lon="-5.692759">
        <ele>1460.77</ele>
        <time>2020-07-21T07:24:11.000Z</time>
      </trkpt>
      <trkpt lat="42.9128933" lon="-5.6927722">
        <ele>1460.92</ele>
        <time>2020-07-21T07:24:12.000Z</time>
      </trkpt>
      <trkpt lat="42.9128987" lon="-5.6927852">
        <ele>1460.92</ele>
        <time>2020-07-21T07:24:13.000Z</time>
      </trkpt>
      <trkpt lat="42.9129047" lon="-5.6927985">
        <ele>1460.92</ele>
        <time>2020-07-21T07:24:14.000Z</time>
      </trkpt>
      <trkpt lat="42.91291" lon="-5.6928133">
        <ele>1460.92</ele>
        <time>2020-07-21T07:24:15.000Z</time>
      </trkpt>
      <trkpt lat="42.9129155" lon="-5.6928295">
        <ele>1460.92</ele>
        <time>2020-07-21T07:24:16.000Z</time>
      </trkpt>
      <trkpt lat="42.9129212" lon="-5.6928457">
        <ele>1460.92</ele>
        <time>2020-07-21T07:24:17.000Z</time>
      </trkpt>
      <trkpt lat="42.9129272" lon="-5.6928605">
        <ele>1461.08</ele>
        <time>2020-07-21T07:24:18.000Z</time>
      </trkpt>
      <trkpt lat="42.9129333" lon="-5.6928738">
        <ele>1461.08</ele>
        <time>2020-07-21T07:24:19.000Z</time>
      </trkpt>
      <trkpt lat="42.9129388" lon="-5.6928868">
        <ele>1461.08</ele>
        <time>2020-07-21T07:24:20.000Z</time>
      </trkpt>
      <trkpt lat="42.9129445" lon="-5.6929002">
        <ele>1461.08</ele>
        <time>2020-07-21T07:24:21.000Z</time>
      </trkpt>
      <trkpt lat="42.9129503" lon="-5.6929133">
        <ele>1461.23</ele>
        <time>2020-07-21T07:24:22.000Z</time>
      </trkpt>
      <trkpt lat="42.912957" lon="-5.6929263">
        <ele>1461.23</ele>
        <time>2020-07-21T07:24:23.000Z</time>
      </trkpt>
      <trkpt lat="42.9129635" lon="-5.6929402">
        <ele>1461.23</ele>
        <time>2020-07-21T07:24:24.000Z</time>
      </trkpt>
      <trkpt lat="42.9129693" lon="-5.6929537">
        <ele>1461.23</ele>
        <time>2020-07-21T07:24:25.000Z</time>
      </trkpt>
      <trkpt lat="42.9129747" lon="-5.6929685">
        <ele>1461.38</ele>
        <time>2020-07-21T07:24:26.000Z</time>
      </trkpt>
      <trkpt lat="42.91298" lon="-5.6929832">
        <ele>1461.38</ele>
        <time>2020-07-21T07:24:27.000Z</time>
      </trkpt>
      <trkpt lat="42.912987" lon="-5.6929973">
        <ele>1461.38</ele>
        <time>2020-07-21T07:24:28.000Z</time>
      </trkpt>
      <trkpt lat="42.9129948" lon="-5.6930098">
        <ele>1461.38</ele>
        <time>2020-07-21T07:24:29.000Z</time>
      </trkpt>
      <trkpt lat="42.9130025" lon="-5.6930218">
        <ele>1461.53</ele>
        <time>2020-07-21T07:24:30.000Z</time>
      </trkpt>
      <trkpt lat="42.9130102" lon="-5.693035">
        <ele>1461.53</ele>
        <time>2020-07-21T07:24:31.000Z</time>
      </trkpt>
      <trkpt lat="42.913019" lon="-5.6930483">
        <ele>1461.53</ele>
        <time>2020-07-21T07:24:32.000Z</time>
      </trkpt>
      <trkpt lat="42.9130283" lon="-5.6930618">
        <ele>1461.53</ele>
        <time>2020-07-21T07:24:33.000Z</time>
      </trkpt>
      <trkpt lat="42.9130368" lon="-5.6930745">
        <ele>1461.53</ele>
        <time>2020-07-21T07:24:34.000Z</time>
      </trkpt>
      <trkpt lat="42.9130443" lon="-5.6930877">
        <ele>1461.53</ele>
        <time>2020-07-21T07:24:35.000Z</time>
      </trkpt>
      <trkpt lat="42.9130522" lon="-5.6931008">
        <ele>1461.69</ele>
        <time>2020-07-21T07:24:36.000Z</time>
      </trkpt>
      <trkpt lat="42.9130602" lon="-5.6931135">
        <ele>1461.69</ele>
        <time>2020-07-21T07:24:37.000Z</time>
      </trkpt>
      <trkpt lat="42.9130682" lon="-5.6931253">
        <ele>1461.69</ele>
        <time>2020-07-21T07:24:38.000Z</time>
      </trkpt>
      <trkpt lat="42.9130753" lon="-5.6931367">
        <ele>1461.69</ele>
        <time>2020-07-21T07:24:39.000Z</time>
      </trkpt>
      <trkpt lat="42.9130823" lon="-5.6931485">
        <ele>1461.69</ele>
        <time>2020-07-21T07:24:40.000Z</time>
      </trkpt>
      <trkpt lat="42.9130893" lon="-5.6931608">
        <ele>1461.69</ele>
        <time>2020-07-21T07:24:41.000Z</time>
      </trkpt>
      <trkpt lat="42.9130962" lon="-5.6931728">
        <ele>1461.69</ele>
        <time>2020-07-21T07:24:42.000Z</time>
      </trkpt>
      <trkpt lat="42.913104" lon="-5.6931848">
        <ele>1461.69</ele>
        <time>2020-07-21T07:24:43.000Z</time>
      </trkpt>
      <trkpt lat="42.9131118" lon="-5.6931972">
        <ele>1461.69</ele>
        <time>2020-07-21T07:24:44.000Z</time>
      </trkpt>
      <trkpt lat="42.9131203" lon="-5.6932102">
        <ele>1461.69</ele>
        <time>2020-07-21T07:24:45.000Z</time>
      </trkpt>
      <trkpt lat="42.9131288" lon="-5.6932227">
        <ele>1461.69</ele>
        <time>2020-07-21T07:24:46.000Z</time>
      </trkpt>
      <trkpt lat="42.913137" lon="-5.693235">
        <ele>1461.69</ele>
        <time>2020-07-21T07:24:47.000Z</time>
      </trkpt>
      <trkpt lat="42.913145" lon="-5.6932478">
        <ele>1461.69</ele>
        <time>2020-07-21T07:24:48.000Z</time>
      </trkpt>
      <trkpt lat="42.9131525" lon="-5.6932615">
        <ele>1461.69</ele>
        <time>2020-07-21T07:24:49.000Z</time>
      </trkpt>
      <trkpt lat="42.9131608" lon="-5.6932753">
        <ele>1461.69</ele>
        <time>2020-07-21T07:24:50.000Z</time>
      </trkpt>
      <trkpt lat="42.9131695" lon="-5.6932885">
        <ele>1461.69</ele>
        <time>2020-07-21T07:24:51.000Z</time>
      </trkpt>
      <trkpt lat="42.9131787" lon="-5.6933003">
        <ele>1461.69</ele>
        <time>2020-07-21T07:24:52.000Z</time>
      </trkpt>
      <trkpt lat="42.9131878" lon="-5.693312">
        <ele>1461.69</ele>
        <time>2020-07-21T07:24:53.000Z</time>
      </trkpt>
      <trkpt lat="42.913197" lon="-5.6933233">
        <ele>1461.69</ele>
        <time>2020-07-21T07:24:54.000Z</time>
      </trkpt>
      <trkpt lat="42.9132055" lon="-5.6933353">
        <ele>1461.69</ele>
        <time>2020-07-21T07:24:55.000Z</time>
      </trkpt>
      <trkpt lat="42.9132142" lon="-5.6933482">
        <ele>1461.69</ele>
        <time>2020-07-21T07:24:56.000Z</time>
      </trkpt>
      <trkpt lat="42.913223" lon="-5.6933605">
        <ele>1461.69</ele>
        <time>2020-07-21T07:24:57.000Z</time>
      </trkpt>
      <trkpt lat="42.913232" lon="-5.6933715">
        <ele>1461.69</ele>
        <time>2020-07-21T07:24:58.000Z</time>
      </trkpt>
      <trkpt lat="42.9132405" lon="-5.6933813">
        <ele>1461.69</ele>
        <time>2020-07-21T07:24:59.000Z</time>
      </trkpt>
      <trkpt lat="42.9132485" lon="-5.6933918">
        <ele>1461.69</ele>
        <time>2020-07-21T07:25:00.000Z</time>
      </trkpt>
      <trkpt lat="42.9132567" lon="-5.6934048">
        <ele>1461.69</ele>
        <time>2020-07-21T07:25:01.000Z</time>
      </trkpt>
      <trkpt lat="42.9132672" lon="-5.6934152">
        <ele>1461.69</ele>
        <time>2020-07-21T07:25:02.000Z</time>
      </trkpt>
      <trkpt lat="42.9132755" lon="-5.6934282">
        <ele>1461.69</ele>
        <time>2020-07-21T07:25:03.000Z</time>
      </trkpt>
      <trkpt lat="42.9132845" lon="-5.6934377">
        <ele>1461.69</ele>
        <time>2020-07-21T07:25:04.000Z</time>
      </trkpt>
      <trkpt lat="42.9132903" lon="-5.6934495">
        <ele>1461.69</ele>
        <time>2020-07-21T07:25:05.000Z</time>
      </trkpt>
      <trkpt lat="42.9132992" lon="-5.6934583">
        <ele>1461.53</ele>
        <time>2020-07-21T07:25:06.000Z</time>
      </trkpt>
      <trkpt lat="42.9133077" lon="-5.6934697">
        <ele>1461.53</ele>
        <time>2020-07-21T07:25:07.000Z</time>
      </trkpt>
      <trkpt lat="42.9133168" lon="-5.693483">
        <ele>1461.53</ele>
        <time>2020-07-21T07:25:08.000Z</time>
      </trkpt>
      <trkpt lat="42.913325" lon="-5.6934965">
        <ele>1461.53</ele>
        <time>2020-07-21T07:25:09.000Z</time>
      </trkpt>
      <trkpt lat="42.9133332" lon="-5.6935087">
        <ele>1461.53</ele>
        <time>2020-07-21T07:25:10.000Z</time>
      </trkpt>
      <trkpt lat="42.9133417" lon="-5.6935198">
        <ele>1461.53</ele>
        <time>2020-07-21T07:25:11.000Z</time>
      </trkpt>
      <trkpt lat="42.9133508" lon="-5.6935302">
        <ele>1461.53</ele>
        <time>2020-07-21T07:25:12.000Z</time>
      </trkpt>
      <trkpt lat="42.9133603" lon="-5.6935428">
        <ele>1461.53</ele>
        <time>2020-07-21T07:25:13.000Z</time>
      </trkpt>
      <trkpt lat="42.9133692" lon="-5.6935557">
        <ele>1461.38</ele>
        <time>2020-07-21T07:25:14.000Z</time>
      </trkpt>
      <trkpt lat="42.9133773" lon="-5.69357">
        <ele>1461.38</ele>
        <time>2020-07-21T07:25:15.000Z</time>
      </trkpt>
      <trkpt lat="42.9133848" lon="-5.693582">
        <ele>1461.38</ele>
        <time>2020-07-21T07:25:16.000Z</time>
      </trkpt>
      <trkpt lat="42.9133935" lon="-5.693593">
        <ele>1461.38</ele>
        <time>2020-07-21T07:25:17.000Z</time>
      </trkpt>
      <trkpt lat="42.9134038" lon="-5.6936012">
        <ele>1461.38</ele>
        <time>2020-07-21T07:25:18.000Z</time>
      </trkpt>
      <trkpt lat="42.9134158" lon="-5.6936088">
        <ele>1461.38</ele>
        <time>2020-07-21T07:25:19.000Z</time>
      </trkpt>
      <trkpt lat="42.9134295" lon="-5.6936163">
        <ele>1461.38</ele>
        <time>2020-07-21T07:25:20.000Z</time>
      </trkpt>
      <trkpt lat="42.9134427" lon="-5.6936237">
        <ele>1461.38</ele>
        <time>2020-07-21T07:25:21.000Z</time>
      </trkpt>
      <trkpt lat="42.9134552" lon="-5.6936305">
        <ele>1461.53</ele>
        <time>2020-07-21T07:25:22.000Z</time>
      </trkpt>
      <trkpt lat="42.9134668" lon="-5.6936362">
        <ele>1461.53</ele>
        <time>2020-07-21T07:25:23.000Z</time>
      </trkpt>
      <trkpt lat="42.9134792" lon="-5.693644">
        <ele>1461.53</ele>
        <time>2020-07-21T07:25:24.000Z</time>
      </trkpt>
      <trkpt lat="42.913491" lon="-5.6936523">
        <ele>1461.53</ele>
        <time>2020-07-21T07:25:25.000Z</time>
      </trkpt>
      <trkpt lat="42.9135027" lon="-5.6936617">
        <ele>1461.53</ele>
        <time>2020-07-21T07:25:26.000Z</time>
      </trkpt>
      <trkpt lat="42.9135133" lon="-5.6936718">
        <ele>1461.53</ele>
        <time>2020-07-21T07:25:27.000Z</time>
      </trkpt>
      <trkpt lat="42.9135227" lon="-5.6936828">
        <ele>1461.69</ele>
        <time>2020-07-21T07:25:28.000Z</time>
      </trkpt>
      <trkpt lat="42.9135325" lon="-5.6936953">
        <ele>1461.69</ele>
        <time>2020-07-21T07:25:29.000Z</time>
      </trkpt>
      <trkpt lat="42.9135427" lon="-5.693708">
        <ele>1461.69</ele>
        <time>2020-07-21T07:25:30.000Z</time>
      </trkpt>
      <trkpt lat="42.9135525" lon="-5.6937213">
        <ele>1461.69</ele>
        <time>2020-07-21T07:25:31.000Z</time>
      </trkpt>
      <trkpt lat="42.9135603" lon="-5.6937355">
        <ele>1461.69</ele>
        <time>2020-07-21T07:25:32.000Z</time>
      </trkpt>
      <trkpt lat="42.9135672" lon="-5.6937498">
        <ele>1461.69</ele>
        <time>2020-07-21T07:25:33.000Z</time>
      </trkpt>
      <trkpt lat="42.9135755" lon="-5.6937638">
        <ele>1461.69</ele>
        <time>2020-07-21T07:25:34.000Z</time>
      </trkpt>
      <trkpt lat="42.9135845" lon="-5.6937757">
        <ele>1461.69</ele>
        <time>2020-07-21T07:25:35.000Z</time>
      </trkpt>
      <trkpt lat="42.9135935" lon="-5.6937855">
        <ele>1461.84</ele>
        <time>2020-07-21T07:25:36.000Z</time>
      </trkpt>
      <trkpt lat="42.9136012" lon="-5.6937937">
        <ele>1461.84</ele>
        <time>2020-07-21T07:25:37.000Z</time>
      </trkpt>
      <trkpt lat="42.9136047" lon="-5.6937982">
        <ele>1461.84</ele>
        <time>2020-07-21T07:25:38.000Z</time>
      </trkpt>
      <trkpt lat="42.9136062" lon="-5.693801">
        <ele>1461.84</ele>
        <time>2020-07-21T07:25:39.000Z</time>
      </trkpt>
      <trkpt lat="42.913607" lon="-5.6938013">
        <ele>1461.84</ele>
        <time>2020-07-21T07:25:40.000Z</time>
      </trkpt>
      <trkpt lat="42.9136095" lon="-5.693802">
        <ele>1461.84</ele>
        <time>2020-07-21T07:25:41.000Z</time>
      </trkpt>
      <trkpt lat="42.913611" lon="-5.693802">
        <ele>1461.84</ele>
        <time>2020-07-21T07:25:42.000Z</time>
      </trkpt>
      <trkpt lat="42.913612" lon="-5.6938018">
        <ele>1461.84</ele>
        <time>2020-07-21T07:25:43.000Z</time>
      </trkpt>
      <trkpt lat="42.913613" lon="-5.6938018">
        <ele>1461.84</ele>
        <time>2020-07-21T07:25:44.000Z</time>
      </trkpt>
      <trkpt lat="42.9136142" lon="-5.693804">
        <ele>1461.84</ele>
        <time>2020-07-21T07:25:45.000Z</time>
      </trkpt>
      <trkpt lat="42.9136162" lon="-5.6938073">
        <ele>1461.99</ele>
        <time>2020-07-21T07:25:46.000Z</time>
      </trkpt>
      <trkpt lat="42.9136198" lon="-5.6938127">
        <ele>1461.99</ele>
        <time>2020-07-21T07:25:47.000Z</time>
      </trkpt>
      <trkpt lat="42.9136258" lon="-5.6938198">
        <ele>1461.99</ele>
        <time>2020-07-21T07:25:48.000Z</time>
      </trkpt>
      <trkpt lat="42.9136333" lon="-5.6938292">
        <ele>1461.99</ele>
        <time>2020-07-21T07:25:49.000Z</time>
      </trkpt>
      <trkpt lat="42.9136407" lon="-5.6938387">
        <ele>1461.99</ele>
        <time>2020-07-21T07:25:50.000Z</time>
      </trkpt>
      <trkpt lat="42.9136465" lon="-5.6938473">
        <ele>1461.99</ele>
        <time>2020-07-21T07:25:51.000Z</time>
      </trkpt>
      <trkpt lat="42.9136508" lon="-5.6938525">
        <ele>1462.14</ele>
        <time>2020-07-21T07:25:52.000Z</time>
      </trkpt>
      <trkpt lat="42.9136545" lon="-5.6938575">
        <ele>1462.14</ele>
        <time>2020-07-21T07:25:53.000Z</time>
      </trkpt>
      <trkpt lat="42.9136575" lon="-5.6938603">
        <ele>1462.14</ele>
        <time>2020-07-21T07:25:54.000Z</time>
      </trkpt>
      <trkpt lat="42.9136595" lon="-5.6938628">
        <ele>1462.14</ele>
        <time>2020-07-21T07:25:55.000Z</time>
      </trkpt>
      <trkpt lat="42.9136603" lon="-5.6938637">
        <ele>1462.3</ele>
        <time>2020-07-21T07:25:56.000Z</time>
      </trkpt>
      <trkpt lat="42.9136605" lon="-5.6938647">
        <ele>1462.3</ele>
        <time>2020-07-21T07:25:57.000Z</time>
      </trkpt>
      <trkpt lat="42.9136595" lon="-5.6938663">
        <ele>1462.3</ele>
        <time>2020-07-21T07:25:58.000Z</time>
      </trkpt>
      <trkpt lat="42.9136585" lon="-5.6938678">
        <ele>1462.3</ele>
        <time>2020-07-21T07:25:59.000Z</time>
      </trkpt>
      <trkpt lat="42.9136577" lon="-5.6938678">
        <ele>1462.3</ele>
        <time>2020-07-21T07:26:00.000Z</time>
      </trkpt>
      <trkpt lat="42.9136578" lon="-5.6938675">
        <ele>1462.3</ele>
        <time>2020-07-21T07:26:01.000Z</time>
      </trkpt>
      <trkpt lat="42.9136582" lon="-5.6938667">
        <ele>1462.45</ele>
        <time>2020-07-21T07:26:02.000Z</time>
      </trkpt>
      <trkpt lat="42.9136583" lon="-5.6938673">
        <ele>1462.45</ele>
        <time>2020-07-21T07:26:03.000Z</time>
      </trkpt>
      <trkpt lat="42.9136622" lon="-5.6938703">
        <ele>1462.45</ele>
        <time>2020-07-21T07:26:04.000Z</time>
      </trkpt>
      <trkpt lat="42.9136682" lon="-5.6938753">
        <ele>1462.45</ele>
        <time>2020-07-21T07:26:05.000Z</time>
      </trkpt>
      <trkpt lat="42.9136763" lon="-5.693881">
        <ele>1462.45</ele>
        <time>2020-07-21T07:26:06.000Z</time>
      </trkpt>
      <trkpt lat="42.9136828" lon="-5.693888">
        <ele>1462.45</ele>
        <time>2020-07-21T07:26:07.000Z</time>
      </trkpt>
      <trkpt lat="42.9136892" lon="-5.6938968">
        <ele>1462.6</ele>
        <time>2020-07-21T07:26:08.000Z</time>
      </trkpt>
      <trkpt lat="42.9136952" lon="-5.693908">
        <ele>1462.6</ele>
        <time>2020-07-21T07:26:09.000Z</time>
      </trkpt>
      <trkpt lat="42.913701" lon="-5.6939185">
        <ele>1462.6</ele>
        <time>2020-07-21T07:26:10.000Z</time>
      </trkpt>
      <trkpt lat="42.9137067" lon="-5.6939272">
        <ele>1462.6</ele>
        <time>2020-07-21T07:26:11.000Z</time>
      </trkpt>
      <trkpt lat="42.913714" lon="-5.6939352">
        <ele>1462.6</ele>
        <time>2020-07-21T07:26:12.000Z</time>
      </trkpt>
      <trkpt lat="42.9137243" lon="-5.6939407">
        <ele>1462.6</ele>
        <time>2020-07-21T07:26:13.000Z</time>
      </trkpt>
      <trkpt lat="42.913735" lon="-5.6939458">
        <ele>1462.6</ele>
        <time>2020-07-21T07:26:14.000Z</time>
      </trkpt>
      <trkpt lat="42.9137427" lon="-5.6939478">
        <ele>1462.6</ele>
        <time>2020-07-21T07:26:15.000Z</time>
      </trkpt>
      <trkpt lat="42.9137478" lon="-5.6939505">
        <ele>1462.6</ele>
        <time>2020-07-21T07:26:16.000Z</time>
      </trkpt>
      <trkpt lat="42.9137538" lon="-5.6939523">
        <ele>1462.6</ele>
        <time>2020-07-21T07:26:17.000Z</time>
      </trkpt>
      <trkpt lat="42.9137635" lon="-5.6939542">
        <ele>1462.6</ele>
        <time>2020-07-21T07:26:18.000Z</time>
      </trkpt>
      <trkpt lat="42.9137732" lon="-5.6939572">
        <ele>1462.6</ele>
        <time>2020-07-21T07:26:19.000Z</time>
      </trkpt>
      <trkpt lat="42.9137843" lon="-5.6939558">
        <ele>1462.45</ele>
        <time>2020-07-21T07:26:20.000Z</time>
      </trkpt>
      <trkpt lat="42.913791" lon="-5.6939537">
        <ele>1462.45</ele>
        <time>2020-07-21T07:26:21.000Z</time>
      </trkpt>
      <trkpt lat="42.9137942" lon="-5.6939515">
        <ele>1462.45</ele>
        <time>2020-07-21T07:26:22.000Z</time>
      </trkpt>
      <trkpt lat="42.9137935" lon="-5.6939528">
        <ele>1462.45</ele>
        <time>2020-07-21T07:26:23.000Z</time>
      </trkpt>
      <trkpt lat="42.9137933" lon="-5.6939542">
        <ele>1462.45</ele>
        <time>2020-07-21T07:26:24.000Z</time>
      </trkpt>
      <trkpt lat="42.9137937" lon="-5.6939537">
        <ele>1462.45</ele>
        <time>2020-07-21T07:26:25.000Z</time>
      </trkpt>
      <trkpt lat="42.9137935" lon="-5.6939533">
        <ele>1462.45</ele>
        <time>2020-07-21T07:26:26.000Z</time>
      </trkpt>
      <trkpt lat="42.9137928" lon="-5.6939535">
        <ele>1462.45</ele>
        <time>2020-07-21T07:26:27.000Z</time>
      </trkpt>
      <trkpt lat="42.9137925" lon="-5.6939537">
        <ele>1462.3</ele>
        <time>2020-07-21T07:26:28.000Z</time>
      </trkpt>
      <trkpt lat="42.9137927" lon="-5.6939537">
        <ele>1462.3</ele>
        <time>2020-07-21T07:26:29.000Z</time>
      </trkpt>
      <trkpt lat="42.913792" lon="-5.6939537">
        <ele>1462.3</ele>
        <time>2020-07-21T07:26:30.000Z</time>
      </trkpt>
      <trkpt lat="42.913787" lon="-5.6939562">
        <ele>1462.3</ele>
        <time>2020-07-21T07:26:31.000Z</time>
      </trkpt>
      <trkpt lat="42.9137788" lon="-5.6939572">
        <ele>1462.14</ele>
        <time>2020-07-21T07:26:32.000Z</time>
      </trkpt>
      <trkpt lat="42.9137697" lon="-5.6939583">
        <ele>1462.14</ele>
        <time>2020-07-21T07:26:33.000Z</time>
      </trkpt>
      <trkpt lat="42.9137618" lon="-5.693956">
        <ele>1461.99</ele>
        <time>2020-07-21T07:26:34.000Z</time>
      </trkpt>
      <trkpt lat="42.9137562" lon="-5.6939552">
        <ele>1461.99</ele>
        <time>2020-07-21T07:26:35.000Z</time>
      </trkpt>
      <trkpt lat="42.9137522" lon="-5.6939563">
        <ele>1461.99</ele>
        <time>2020-07-21T07:26:36.000Z</time>
      </trkpt>
      <trkpt lat="42.9137557" lon="-5.693961">
        <ele>1461.99</ele>
        <time>2020-07-21T07:26:37.000Z</time>
      </trkpt>
      <trkpt lat="42.9137608" lon="-5.693965">
        <ele>1461.84</ele>
        <time>2020-07-21T07:26:38.000Z</time>
      </trkpt>
      <trkpt lat="42.9137663" lon="-5.6939658">
        <ele>1461.84</ele>
        <time>2020-07-21T07:26:39.000Z</time>
      </trkpt>
      <trkpt lat="42.9137663" lon="-5.6939627">
        <ele>1461.69</ele>
        <time>2020-07-21T07:26:40.000Z</time>
      </trkpt>
      <trkpt lat="42.913764" lon="-5.6939618">
        <ele>1461.69</ele>
        <time>2020-07-21T07:26:41.000Z</time>
      </trkpt>
      <trkpt lat="42.9137582" lon="-5.6939637">
        <ele>1461.53</ele>
        <time>2020-07-21T07:26:42.000Z</time>
      </trkpt>
      <trkpt lat="42.913752" lon="-5.693969">
        <ele>1461.53</ele>
        <time>2020-07-21T07:26:43.000Z</time>
      </trkpt>
      <trkpt lat="42.9137473" lon="-5.693976">
        <ele>1461.38</ele>
        <time>2020-07-21T07:26:44.000Z</time>
      </trkpt>
      <trkpt lat="42.9137458" lon="-5.6939805">
        <ele>1461.38</ele>
        <time>2020-07-21T07:26:45.000Z</time>
      </trkpt>
      <trkpt lat="42.9137478" lon="-5.6939812">
        <ele>1461.23</ele>
        <time>2020-07-21T07:26:46.000Z</time>
      </trkpt>
      <trkpt lat="42.9137502" lon="-5.6939773">
        <ele>1461.23</ele>
        <time>2020-07-21T07:26:47.000Z</time>
      </trkpt>
      <trkpt lat="42.9137535" lon="-5.6939735">
        <ele>1461.08</ele>
        <time>2020-07-21T07:26:48.000Z</time>
      </trkpt>
      <trkpt lat="42.913755" lon="-5.6939723">
        <ele>1461.08</ele>
        <time>2020-07-21T07:26:49.000Z</time>
      </trkpt>
      <trkpt lat="42.9137558" lon="-5.6939732">
        <ele>1460.92</ele>
        <time>2020-07-21T07:26:50.000Z</time>
      </trkpt>
      <trkpt lat="42.9137547" lon="-5.6939753">
        <ele>1460.92</ele>
        <time>2020-07-21T07:26:51.000Z</time>
      </trkpt>
      <trkpt lat="42.9137528" lon="-5.6939765">
        <ele>1460.77</ele>
        <time>2020-07-21T07:26:52.000Z</time>
      </trkpt>
      <trkpt lat="42.91375" lon="-5.6939755">
        <ele>1460.77</ele>
        <time>2020-07-21T07:26:53.000Z</time>
      </trkpt>
      <trkpt lat="42.9137492" lon="-5.6939708">
        <ele>1460.62</ele>
        <time>2020-07-21T07:26:54.000Z</time>
      </trkpt>
      <trkpt lat="42.9137488" lon="-5.6939655">
        <ele>1460.62</ele>
        <time>2020-07-21T07:26:55.000Z</time>
      </trkpt>
      <trkpt lat="42.9137503" lon="-5.6939617">
        <ele>1460.31</ele>
        <time>2020-07-21T07:26:56.000Z</time>
      </trkpt>
      <trkpt lat="42.9137515" lon="-5.6939605">
        <ele>1460.31</ele>
        <time>2020-07-21T07:26:57.000Z</time>
      </trkpt>
      <trkpt lat="42.9137528" lon="-5.6939598">
        <ele>1460.16</ele>
        <time>2020-07-21T07:26:58.000Z</time>
      </trkpt>
      <trkpt lat="42.9137538" lon="-5.6939597">
        <ele>1460.16</ele>
        <time>2020-07-21T07:26:59.000Z</time>
      </trkpt>
      <trkpt lat="42.9137548" lon="-5.6939595">
        <ele>1459.86</ele>
        <time>2020-07-21T07:27:00.000Z</time>
      </trkpt>
      <trkpt lat="42.9137558" lon="-5.693959">
        <ele>1459.86</ele>
        <time>2020-07-21T07:27:01.000Z</time>
      </trkpt>
      <trkpt lat="42.9137567" lon="-5.6939582">
        <ele>1459.7</ele>
        <time>2020-07-21T07:27:02.000Z</time>
      </trkpt>
      <trkpt lat="42.9137568" lon="-5.6939573">
        <ele>1459.7</ele>
        <time>2020-07-21T07:27:03.000Z</time>
      </trkpt>
      <trkpt lat="42.9137563" lon="-5.6939567">
        <ele>1459.4</ele>
        <time>2020-07-21T07:27:04.000Z</time>
      </trkpt>
      <trkpt lat="42.9137557" lon="-5.6939565">
        <ele>1459.4</ele>
        <time>2020-07-21T07:27:05.000Z</time>
      </trkpt>
      <trkpt lat="42.9137572" lon="-5.6939562">
        <ele>1459.25</ele>
        <time>2020-07-21T07:27:06.000Z</time>
      </trkpt>
      <trkpt lat="42.9137578" lon="-5.6939578">
        <ele>1459.25</ele>
        <time>2020-07-21T07:27:07.000Z</time>
      </trkpt>
      <trkpt lat="42.9137595" lon="-5.6939595">
        <ele>1458.94</ele>
        <time>2020-07-21T07:27:08.000Z</time>
      </trkpt>
      <trkpt lat="42.9137605" lon="-5.693964">
        <ele>1458.94</ele>
        <time>2020-07-21T07:27:09.000Z</time>
      </trkpt>
      <trkpt lat="42.913765" lon="-5.6939675">
        <ele>1458.64</ele>
        <time>2020-07-21T07:27:10.000Z</time>
      </trkpt>
      <trkpt lat="42.9137692" lon="-5.6939707">
        <ele>1458.64</ele>
        <time>2020-07-21T07:27:11.000Z</time>
      </trkpt>
      <trkpt lat="42.9137717" lon="-5.693971">
        <ele>1458.49</ele>
        <time>2020-07-21T07:27:12.000Z</time>
      </trkpt>
      <trkpt lat="42.9137722" lon="-5.6939705">
        <ele>1458.49</ele>
        <time>2020-07-21T07:27:13.000Z</time>
      </trkpt>
      <trkpt lat="42.9137717" lon="-5.6939703">
        <ele>1458.18</ele>
        <time>2020-07-21T07:27:14.000Z</time>
      </trkpt>
      <trkpt lat="42.913772" lon="-5.6939703">
        <ele>1458.18</ele>
        <time>2020-07-21T07:27:15.000Z</time>
      </trkpt>
      <trkpt lat="42.9137725" lon="-5.6939698">
        <ele>1457.88</ele>
        <time>2020-07-21T07:27:16.000Z</time>
      </trkpt>
      <trkpt lat="42.913773" lon="-5.6939672">
        <ele>1457.88</ele>
        <time>2020-07-21T07:27:17.000Z</time>
      </trkpt>
      <trkpt lat="42.9137743" lon="-5.6939635">
        <ele>1457.57</ele>
        <time>2020-07-21T07:27:18.000Z</time>
      </trkpt>
      <trkpt lat="42.9137747" lon="-5.6939588">
        <ele>1457.57</ele>
        <time>2020-07-21T07:27:19.000Z</time>
      </trkpt>
      <trkpt lat="42.9137752" lon="-5.693956">
        <ele>1457.27</ele>
        <time>2020-07-21T07:27:20.000Z</time>
      </trkpt>
      <trkpt lat="42.913775" lon="-5.6939535">
        <ele>1457.27</ele>
        <time>2020-07-21T07:27:21.000Z</time>
      </trkpt>
      <trkpt lat="42.9137747" lon="-5.693952">
        <ele>1456.96</ele>
        <time>2020-07-21T07:27:22.000Z</time>
      </trkpt>
      <trkpt lat="42.913774" lon="-5.6939505">
        <ele>1456.96</ele>
        <time>2020-07-21T07:27:23.000Z</time>
      </trkpt>
      <trkpt lat="42.9137723" lon="-5.6939473">
        <ele>1456.51</ele>
        <time>2020-07-21T07:27:24.000Z</time>
      </trkpt>
      <trkpt lat="42.9137715" lon="-5.6939435">
        <ele>1456.51</ele>
        <time>2020-07-21T07:27:25.000Z</time>
      </trkpt>
      <trkpt lat="42.9137712" lon="-5.69394">
        <ele>1456.2</ele>
        <time>2020-07-21T07:27:26.000Z</time>
      </trkpt>
      <trkpt lat="42.9137715" lon="-5.6939388">
        <ele>1456.2</ele>
        <time>2020-07-21T07:27:27.000Z</time>
      </trkpt>
      <trkpt lat="42.9137715" lon="-5.6939393">
        <ele>1455.9</ele>
        <time>2020-07-21T07:27:28.000Z</time>
      </trkpt>
      <trkpt lat="42.9137712" lon="-5.6939405">
        <ele>1455.9</ele>
        <time>2020-07-21T07:27:29.000Z</time>
      </trkpt>
      <trkpt lat="42.9137703" lon="-5.6939422">
        <ele>1455.44</ele>
        <time>2020-07-21T07:27:30.000Z</time>
      </trkpt>
      <trkpt lat="42.9137698" lon="-5.693943">
        <ele>1455.44</ele>
        <time>2020-07-21T07:27:31.000Z</time>
      </trkpt>
      <trkpt lat="42.9137695" lon="-5.6939437">
        <ele>1455.13</ele>
        <time>2020-07-21T07:27:32.000Z</time>
      </trkpt>
      <trkpt lat="42.9137703" lon="-5.693945">
        <ele>1455.13</ele>
        <time>2020-07-21T07:27:33.000Z</time>
      </trkpt>
      <trkpt lat="42.9137718" lon="-5.6939473">
        <ele>1454.68</ele>
        <time>2020-07-21T07:27:34.000Z</time>
      </trkpt>
      <trkpt lat="42.9137732" lon="-5.6939502">
        <ele>1454.68</ele>
        <time>2020-07-21T07:27:35.000Z</time>
      </trkpt>
      <trkpt lat="42.9137738" lon="-5.6939518">
        <ele>1454.37</ele>
        <time>2020-07-21T07:27:36.000Z</time>
      </trkpt>
      <trkpt lat="42.9137723" lon="-5.693954">
        <ele>1454.37</ele>
        <time>2020-07-21T07:27:37.000Z</time>
      </trkpt>
      <trkpt lat="42.9137692" lon="-5.6939577">
        <ele>1453.91</ele>
        <time>2020-07-21T07:27:38.000Z</time>
      </trkpt>
      <trkpt lat="42.9137647" lon="-5.6939677">
        <ele>1453.91</ele>
        <time>2020-07-21T07:27:39.000Z</time>
      </trkpt>
      <trkpt lat="42.9137623" lon="-5.6939793">
        <ele>1453.61</ele>
        <time>2020-07-21T07:27:40.000Z</time>
      </trkpt>
      <trkpt lat="42.9137623" lon="-5.6939923">
        <ele>1453.61</ele>
        <time>2020-07-21T07:27:41.000Z</time>
      </trkpt>
      <trkpt lat="42.9137642" lon="-5.6940028">
        <ele>1453.15</ele>
        <time>2020-07-21T07:27:42.000Z</time>
      </trkpt>
      <trkpt lat="42.9137648" lon="-5.6940133">
        <ele>1453.15</ele>
        <time>2020-07-21T07:27:43.000Z</time>
      </trkpt>
      <trkpt lat="42.9137673" lon="-5.694025">
        <ele>1452.85</ele>
        <time>2020-07-21T07:27:44.000Z</time>
      </trkpt>
      <trkpt lat="42.9137712" lon="-5.6940382">
        <ele>1452.85</ele>
        <time>2020-07-21T07:27:45.000Z</time>
      </trkpt>
      <trkpt lat="42.9137768" lon="-5.6940525">
        <ele>1452.54</ele>
        <time>2020-07-21T07:27:46.000Z</time>
      </trkpt>
      <trkpt lat="42.9137815" lon="-5.6940652">
        <ele>1452.54</ele>
        <time>2020-07-21T07:27:47.000Z</time>
      </trkpt>
      <trkpt lat="42.9137852" lon="-5.6940752">
        <ele>1452.24</ele>
        <time>2020-07-21T07:27:48.000Z</time>
      </trkpt>
      <trkpt lat="42.9137885" lon="-5.694085">
        <ele>1452.24</ele>
        <time>2020-07-21T07:27:49.000Z</time>
      </trkpt>
      <trkpt lat="42.9137912" lon="-5.6940958">
        <ele>1451.93</ele>
        <time>2020-07-21T07:27:50.000Z</time>
      </trkpt>
      <trkpt lat="42.9137925" lon="-5.6941075">
        <ele>1451.93</ele>
        <time>2020-07-21T07:27:51.000Z</time>
      </trkpt>
      <trkpt lat="42.9137918" lon="-5.6941185">
        <ele>1451.63</ele>
        <time>2020-07-21T07:27:52.000Z</time>
      </trkpt>
      <trkpt lat="42.9137908" lon="-5.694128">
        <ele>1451.63</ele>
        <time>2020-07-21T07:27:53.000Z</time>
      </trkpt>
      <trkpt lat="42.9137902" lon="-5.6941375">
        <ele>1451.32</ele>
        <time>2020-07-21T07:27:54.000Z</time>
      </trkpt>
      <trkpt lat="42.913791" lon="-5.6941472">
        <ele>1451.32</ele>
        <time>2020-07-21T07:27:55.000Z</time>
      </trkpt>
      <trkpt lat="42.9137923" lon="-5.6941582">
        <ele>1451.02</ele>
        <time>2020-07-21T07:27:56.000Z</time>
      </trkpt>
      <trkpt lat="42.9137933" lon="-5.6941687">
        <ele>1451.02</ele>
        <time>2020-07-21T07:27:57.000Z</time>
      </trkpt>
      <trkpt lat="42.9137928" lon="-5.6941797">
        <ele>1450.71</ele>
        <time>2020-07-21T07:27:58.000Z</time>
      </trkpt>
      <trkpt lat="42.9137913" lon="-5.6941908">
        <ele>1450.71</ele>
        <time>2020-07-21T07:27:59.000Z</time>
      </trkpt>
      <trkpt lat="42.9137902" lon="-5.6942032">
        <ele>1450.41</ele>
        <time>2020-07-21T07:28:00.000Z</time>
      </trkpt>
      <trkpt lat="42.9137895" lon="-5.6942163">
        <ele>1450.41</ele>
        <time>2020-07-21T07:28:01.000Z</time>
      </trkpt>
      <trkpt lat="42.9137888" lon="-5.69423">
        <ele>1450.26</ele>
        <time>2020-07-21T07:28:02.000Z</time>
      </trkpt>
      <trkpt lat="42.9137878" lon="-5.6942437">
        <ele>1450.26</ele>
        <time>2020-07-21T07:28:03.000Z</time>
      </trkpt>
      <trkpt lat="42.9137867" lon="-5.6942578">
        <ele>1449.95</ele>
        <time>2020-07-21T07:28:04.000Z</time>
      </trkpt>
      <trkpt lat="42.913786" lon="-5.6942742">
        <ele>1449.95</ele>
        <time>2020-07-21T07:28:05.000Z</time>
      </trkpt>
      <trkpt lat="42.9137852" lon="-5.6942927">
        <ele>1449.65</ele>
        <time>2020-07-21T07:28:06.000Z</time>
      </trkpt>
      <trkpt lat="42.913785" lon="-5.694312">
        <ele>1449.65</ele>
        <time>2020-07-21T07:28:07.000Z</time>
      </trkpt>
      <trkpt lat="42.9137842" lon="-5.6943312">
        <ele>1449.34</ele>
        <time>2020-07-21T07:28:08.000Z</time>
      </trkpt>
      <trkpt lat="42.9137838" lon="-5.694349">
        <ele>1449.34</ele>
        <time>2020-07-21T07:28:09.000Z</time>
      </trkpt>
      <trkpt lat="42.9137838" lon="-5.6943673">
        <ele>1449.19</ele>
        <time>2020-07-21T07:28:10.000Z</time>
      </trkpt>
      <trkpt lat="42.9137845" lon="-5.6943867">
        <ele>1449.19</ele>
        <time>2020-07-21T07:28:11.000Z</time>
      </trkpt>
      <trkpt lat="42.9137872" lon="-5.694407">
        <ele>1448.88</ele>
        <time>2020-07-21T07:28:12.000Z</time>
      </trkpt>
      <trkpt lat="42.9137908" lon="-5.6944267">
        <ele>1448.88</ele>
        <time>2020-07-21T07:28:13.000Z</time>
      </trkpt>
      <trkpt lat="42.9137958" lon="-5.6944448">
        <ele>1448.58</ele>
        <time>2020-07-21T07:28:14.000Z</time>
      </trkpt>
      <trkpt lat="42.9137995" lon="-5.694461">
        <ele>1448.58</ele>
        <time>2020-07-21T07:28:15.000Z</time>
      </trkpt>
      <trkpt lat="42.9138032" lon="-5.6944762">
        <ele>1448.43</ele>
        <time>2020-07-21T07:28:16.000Z</time>
      </trkpt>
      <trkpt lat="42.9138055" lon="-5.6944907">
        <ele>1448.43</ele>
        <time>2020-07-21T07:28:17.000Z</time>
      </trkpt>
      <trkpt lat="42.9138077" lon="-5.6945077">
        <ele>1448.12</ele>
        <time>2020-07-21T07:28:18.000Z</time>
      </trkpt>
      <trkpt lat="42.91381" lon="-5.6945227">
        <ele>1448.12</ele>
        <time>2020-07-21T07:28:19.000Z</time>
      </trkpt>
      <trkpt lat="42.913812" lon="-5.6945362">
        <ele>1447.82</ele>
        <time>2020-07-21T07:28:20.000Z</time>
      </trkpt>
      <trkpt lat="42.913814" lon="-5.6945472">
        <ele>1447.82</ele>
        <time>2020-07-21T07:28:21.000Z</time>
      </trkpt>
      <trkpt lat="42.9138163" lon="-5.6945598">
        <ele>1447.67</ele>
        <time>2020-07-21T07:28:22.000Z</time>
      </trkpt>
      <trkpt lat="42.9138195" lon="-5.6945722">
        <ele>1447.67</ele>
        <time>2020-07-21T07:28:23.000Z</time>
      </trkpt>
      <trkpt lat="42.913824" lon="-5.6945845">
        <ele>1447.36</ele>
        <time>2020-07-21T07:28:24.000Z</time>
      </trkpt>
      <trkpt lat="42.9138278" lon="-5.694597">
        <ele>1447.36</ele>
        <time>2020-07-21T07:28:25.000Z</time>
      </trkpt>
      <trkpt lat="42.9138305" lon="-5.6946098">
        <ele>1447.06</ele>
        <time>2020-07-21T07:28:26.000Z</time>
      </trkpt>
      <trkpt lat="42.9138323" lon="-5.6946228">
        <ele>1447.06</ele>
        <time>2020-07-21T07:28:27.000Z</time>
      </trkpt>
      <trkpt lat="42.9138358" lon="-5.694635">
        <ele>1446.9</ele>
        <time>2020-07-21T07:28:28.000Z</time>
      </trkpt>
      <trkpt lat="42.9138398" lon="-5.6946487">
        <ele>1446.9</ele>
        <time>2020-07-21T07:28:29.000Z</time>
      </trkpt>
      <trkpt lat="42.9138447" lon="-5.6946642">
        <ele>1446.6</ele>
        <time>2020-07-21T07:28:30.000Z</time>
      </trkpt>
      <trkpt lat="42.9138473" lon="-5.6946825">
        <ele>1446.6</ele>
        <time>2020-07-21T07:28:31.000Z</time>
      </trkpt>
      <trkpt lat="42.9138502" lon="-5.6946993">
        <ele>1446.29</ele>
        <time>2020-07-21T07:28:32.000Z</time>
      </trkpt>
      <trkpt lat="42.9138517" lon="-5.6947153">
        <ele>1446.29</ele>
        <time>2020-07-21T07:28:33.000Z</time>
      </trkpt>
      <trkpt lat="42.9138573" lon="-5.6947287">
        <ele>1445.99</ele>
        <time>2020-07-21T07:28:34.000Z</time>
      </trkpt>
      <trkpt lat="42.9138612" lon="-5.6947462">
        <ele>1445.99</ele>
        <time>2020-07-21T07:28:35.000Z</time>
      </trkpt>
      <trkpt lat="42.9138665" lon="-5.6947637">
        <ele>1445.84</ele>
        <time>2020-07-21T07:28:36.000Z</time>
      </trkpt>
      <trkpt lat="42.9138693" lon="-5.694783">
        <ele>1445.84</ele>
        <time>2020-07-21T07:28:37.000Z</time>
      </trkpt>
      <trkpt lat="42.9138728" lon="-5.694799">
        <ele>1445.53</ele>
        <time>2020-07-21T07:28:38.000Z</time>
      </trkpt>
      <trkpt lat="42.9138765" lon="-5.6948143">
        <ele>1445.53</ele>
        <time>2020-07-21T07:28:39.000Z</time>
      </trkpt>
      <trkpt lat="42.9138807" lon="-5.694827">
        <ele>1445.23</ele>
        <time>2020-07-21T07:28:40.000Z</time>
      </trkpt>
      <trkpt lat="42.913885" lon="-5.6948387">
        <ele>1445.23</ele>
        <time>2020-07-21T07:28:41.000Z</time>
      </trkpt>
      <trkpt lat="42.9138893" lon="-5.6948507">
        <ele>1445.07</ele>
        <time>2020-07-21T07:28:42.000Z</time>
      </trkpt>
      <trkpt lat="42.9138938" lon="-5.6948645">
        <ele>1445.07</ele>
        <time>2020-07-21T07:28:43.000Z</time>
      </trkpt>
      <trkpt lat="42.9138993" lon="-5.6948795">
        <ele>1444.77</ele>
        <time>2020-07-21T07:28:44.000Z</time>
      </trkpt>
      <trkpt lat="42.9139038" lon="-5.6948933">
        <ele>1444.77</ele>
        <time>2020-07-21T07:28:45.000Z</time>
      </trkpt>
      <trkpt lat="42.9139077" lon="-5.6949052">
        <ele>1444.46</ele>
        <time>2020-07-21T07:28:46.000Z</time>
      </trkpt>
      <trkpt lat="42.9139113" lon="-5.6949153">
        <ele>1444.46</ele>
        <time>2020-07-21T07:28:47.000Z</time>
      </trkpt>
      <trkpt lat="42.9139145" lon="-5.6949262">
        <ele>1444.16</ele>
        <time>2020-07-21T07:28:48.000Z</time>
      </trkpt>
      <trkpt lat="42.9139158" lon="-5.694938">
        <ele>1444.16</ele>
        <time>2020-07-21T07:28:49.000Z</time>
      </trkpt>
      <trkpt lat="42.9139145" lon="-5.694951">
        <ele>1444.01</ele>
        <time>2020-07-21T07:28:50.000Z</time>
      </trkpt>
      <trkpt lat="42.9139125" lon="-5.6949633">
        <ele>1444.01</ele>
        <time>2020-07-21T07:28:51.000Z</time>
      </trkpt>
      <trkpt lat="42.9139112" lon="-5.6949755">
        <ele>1443.7</ele>
        <time>2020-07-21T07:28:52.000Z</time>
      </trkpt>
      <trkpt lat="42.9139143" lon="-5.6949885">
        <ele>1443.7</ele>
        <time>2020-07-21T07:28:53.000Z</time>
      </trkpt>
      <trkpt lat="42.9139198" lon="-5.695003">
        <ele>1443.55</ele>
        <time>2020-07-21T07:28:54.000Z</time>
      </trkpt>
      <trkpt lat="42.9139263" lon="-5.6950182">
        <ele>1443.55</ele>
        <time>2020-07-21T07:28:55.000Z</time>
      </trkpt>
      <trkpt lat="42.9139305" lon="-5.6950335">
        <ele>1443.24</ele>
        <time>2020-07-21T07:28:56.000Z</time>
      </trkpt>
      <trkpt lat="42.9139337" lon="-5.6950487">
        <ele>1443.24</ele>
        <time>2020-07-21T07:28:57.000Z</time>
      </trkpt>
      <trkpt lat="42.9139373" lon="-5.6950632">
        <ele>1442.94</ele>
        <time>2020-07-21T07:28:58.000Z</time>
      </trkpt>
      <trkpt lat="42.9139412" lon="-5.695077">
        <ele>1442.94</ele>
        <time>2020-07-21T07:28:59.000Z</time>
      </trkpt>
      <trkpt lat="42.9139445" lon="-5.6950912">
        <ele>1442.64</ele>
        <time>2020-07-21T07:29:00.000Z</time>
      </trkpt>
      <trkpt lat="42.9139475" lon="-5.6951043">
        <ele>1442.64</ele>
        <time>2020-07-21T07:29:01.000Z</time>
      </trkpt>
      <trkpt lat="42.9139503" lon="-5.6951178">
        <ele>1442.33</ele>
        <time>2020-07-21T07:29:02.000Z</time>
      </trkpt>
      <trkpt lat="42.9139535" lon="-5.6951308">
        <ele>1442.33</ele>
        <time>2020-07-21T07:29:03.000Z</time>
      </trkpt>
      <trkpt lat="42.9139555" lon="-5.6951468">
        <ele>1442.03</ele>
        <time>2020-07-21T07:29:04.000Z</time>
      </trkpt>
      <trkpt lat="42.913957" lon="-5.6951635">
        <ele>1442.03</ele>
        <time>2020-07-21T07:29:05.000Z</time>
      </trkpt>
      <trkpt lat="42.9139573" lon="-5.6951798">
        <ele>1441.72</ele>
        <time>2020-07-21T07:29:06.000Z</time>
      </trkpt>
      <trkpt lat="42.9139567" lon="-5.6951942">
        <ele>1441.72</ele>
        <time>2020-07-21T07:29:07.000Z</time>
      </trkpt>
      <trkpt lat="42.9139555" lon="-5.6952068">
        <ele>1441.26</ele>
        <time>2020-07-21T07:29:08.000Z</time>
      </trkpt>
      <trkpt lat="42.9139535" lon="-5.6952192">
        <ele>1441.26</ele>
        <time>2020-07-21T07:29:09.000Z</time>
      </trkpt>
      <trkpt lat="42.9139518" lon="-5.6952317">
        <ele>1440.81</ele>
        <time>2020-07-21T07:29:10.000Z</time>
      </trkpt>
      <trkpt lat="42.91395" lon="-5.6952458">
        <ele>1440.81</ele>
        <time>2020-07-21T07:29:11.000Z</time>
      </trkpt>
      <trkpt lat="42.9139495" lon="-5.695261">
        <ele>1440.5</ele>
        <time>2020-07-21T07:29:12.000Z</time>
      </trkpt>
      <trkpt lat="42.9139503" lon="-5.695278">
        <ele>1440.5</ele>
        <time>2020-07-21T07:29:13.000Z</time>
      </trkpt>
      <trkpt lat="42.9139522" lon="-5.695296">
        <ele>1440.05</ele>
        <time>2020-07-21T07:29:14.000Z</time>
      </trkpt>
      <trkpt lat="42.9139535" lon="-5.695316">
        <ele>1440.05</ele>
        <time>2020-07-21T07:29:15.000Z</time>
      </trkpt>
      <trkpt lat="42.9139535" lon="-5.6953363">
        <ele>1439.44</ele>
        <time>2020-07-21T07:29:16.000Z</time>
      </trkpt>
      <trkpt lat="42.9139525" lon="-5.6953577">
        <ele>1439.44</ele>
        <time>2020-07-21T07:29:17.000Z</time>
      </trkpt>
      <trkpt lat="42.9139515" lon="-5.6953782">
        <ele>1438.98</ele>
        <time>2020-07-21T07:29:18.000Z</time>
      </trkpt>
      <trkpt lat="42.9139512" lon="-5.6953978">
        <ele>1438.98</ele>
        <time>2020-07-21T07:29:19.000Z</time>
      </trkpt>
      <trkpt lat="42.9139512" lon="-5.6954157">
        <ele>1438.52</ele>
        <time>2020-07-21T07:29:20.000Z</time>
      </trkpt>
      <trkpt lat="42.9139513" lon="-5.695433">
        <ele>1438.52</ele>
        <time>2020-07-21T07:29:21.000Z</time>
      </trkpt>
      <trkpt lat="42.9139515" lon="-5.6954512">
        <ele>1438.06</ele>
        <time>2020-07-21T07:29:22.000Z</time>
      </trkpt>
      <trkpt lat="42.9139512" lon="-5.6954693">
        <ele>1438.06</ele>
        <time>2020-07-21T07:29:23.000Z</time>
      </trkpt>
      <trkpt lat="42.91395" lon="-5.6954872">
        <ele>1437.45</ele>
        <time>2020-07-21T07:29:24.000Z</time>
      </trkpt>
      <trkpt lat="42.9139482" lon="-5.6955045">
        <ele>1437.45</ele>
        <time>2020-07-21T07:29:25.000Z</time>
      </trkpt>
      <trkpt lat="42.9139463" lon="-5.695522">
        <ele>1437</ele>
        <time>2020-07-21T07:29:26.000Z</time>
      </trkpt>
      <trkpt lat="42.913944" lon="-5.6955398">
        <ele>1437</ele>
        <time>2020-07-21T07:29:27.000Z</time>
      </trkpt>
      <trkpt lat="42.9139412" lon="-5.6955575">
        <ele>1436.54</ele>
        <time>2020-07-21T07:29:28.000Z</time>
      </trkpt>
      <trkpt lat="42.913938" lon="-5.6955748">
        <ele>1436.54</ele>
        <time>2020-07-21T07:29:29.000Z</time>
      </trkpt>
      <trkpt lat="42.9139352" lon="-5.6955907">
        <ele>1436.23</ele>
        <time>2020-07-21T07:29:30.000Z</time>
      </trkpt>
      <trkpt lat="42.913932" lon="-5.6956055">
        <ele>1436.23</ele>
        <time>2020-07-21T07:29:31.000Z</time>
      </trkpt>
      <trkpt lat="42.9139293" lon="-5.6956207">
        <ele>1435.78</ele>
        <time>2020-07-21T07:29:32.000Z</time>
      </trkpt>
      <trkpt lat="42.9139273" lon="-5.6956373">
        <ele>1435.78</ele>
        <time>2020-07-21T07:29:33.000Z</time>
      </trkpt>
      <trkpt lat="42.9139255" lon="-5.6956547">
        <ele>1435.32</ele>
        <time>2020-07-21T07:29:34.000Z</time>
      </trkpt>
      <trkpt lat="42.9139233" lon="-5.695672">
        <ele>1435.32</ele>
        <time>2020-07-21T07:29:35.000Z</time>
      </trkpt>
      <trkpt lat="42.913919" lon="-5.6956882">
        <ele>1435.02</ele>
        <time>2020-07-21T07:29:36.000Z</time>
      </trkpt>
      <trkpt lat="42.9139143" lon="-5.6957033">
        <ele>1435.02</ele>
        <time>2020-07-21T07:29:37.000Z</time>
      </trkpt>
      <trkpt lat="42.9139092" lon="-5.695717">
        <ele>1434.71</ele>
        <time>2020-07-21T07:29:38.000Z</time>
      </trkpt>
      <trkpt lat="42.9139045" lon="-5.6957313">
        <ele>1434.71</ele>
        <time>2020-07-21T07:29:39.000Z</time>
      </trkpt>
      <trkpt lat="42.9139005" lon="-5.6957463">
        <ele>1434.56</ele>
        <time>2020-07-21T07:29:40.000Z</time>
      </trkpt>
      <trkpt lat="42.9138967" lon="-5.6957625">
        <ele>1434.56</ele>
        <time>2020-07-21T07:29:41.000Z</time>
      </trkpt>
      <trkpt lat="42.9138925" lon="-5.6957802">
        <ele>1434.41</ele>
        <time>2020-07-21T07:29:42.000Z</time>
      </trkpt>
      <trkpt lat="42.9138875" lon="-5.6957983">
        <ele>1434.41</ele>
        <time>2020-07-21T07:29:43.000Z</time>
      </trkpt>
      <trkpt lat="42.9138823" lon="-5.695818">
        <ele>1434.41</ele>
        <time>2020-07-21T07:29:44.000Z</time>
      </trkpt>
      <trkpt lat="42.9138777" lon="-5.695837">
        <ele>1434.41</ele>
        <time>2020-07-21T07:29:45.000Z</time>
      </trkpt>
      <trkpt lat="42.9138732" lon="-5.6958548">
        <ele>1434.41</ele>
        <time>2020-07-21T07:29:46.000Z</time>
      </trkpt>
      <trkpt lat="42.9138692" lon="-5.6958702">
        <ele>1434.41</ele>
        <time>2020-07-21T07:29:47.000Z</time>
      </trkpt>
      <trkpt lat="42.9138643" lon="-5.6958863">
        <ele>1434.25</ele>
        <time>2020-07-21T07:29:48.000Z</time>
      </trkpt>
      <trkpt lat="42.913859" lon="-5.6959032">
        <ele>1434.25</ele>
        <time>2020-07-21T07:29:49.000Z</time>
      </trkpt>
      <trkpt lat="42.9138533" lon="-5.6959202">
        <ele>1434.25</ele>
        <time>2020-07-21T07:29:50.000Z</time>
      </trkpt>
      <trkpt lat="42.9138482" lon="-5.6959345">
        <ele>1434.25</ele>
        <time>2020-07-21T07:29:51.000Z</time>
      </trkpt>
      <trkpt lat="42.9138442" lon="-5.6959482">
        <ele>1434.1</ele>
        <time>2020-07-21T07:29:52.000Z</time>
      </trkpt>
      <trkpt lat="42.9138402" lon="-5.6959613">
        <ele>1434.1</ele>
        <time>2020-07-21T07:29:53.000Z</time>
      </trkpt>
      <trkpt lat="42.9138365" lon="-5.6959755">
        <ele>1434.1</ele>
        <time>2020-07-21T07:29:54.000Z</time>
      </trkpt>
      <trkpt lat="42.9138322" lon="-5.6959892">
        <ele>1434.1</ele>
        <time>2020-07-21T07:29:55.000Z</time>
      </trkpt>
      <trkpt lat="42.913827" lon="-5.6960037">
        <ele>1433.95</ele>
        <time>2020-07-21T07:29:56.000Z</time>
      </trkpt>
      <trkpt lat="42.9138215" lon="-5.6960178">
        <ele>1433.95</ele>
        <time>2020-07-21T07:29:57.000Z</time>
      </trkpt>
      <trkpt lat="42.9138177" lon="-5.6960332">
        <ele>1433.95</ele>
        <time>2020-07-21T07:29:58.000Z</time>
      </trkpt>
      <trkpt lat="42.9138162" lon="-5.6960503">
        <ele>1433.95</ele>
        <time>2020-07-21T07:29:59.000Z</time>
      </trkpt>
      <trkpt lat="42.9138147" lon="-5.696068">
        <ele>1433.8</ele>
        <time>2020-07-21T07:30:00.000Z</time>
      </trkpt>
      <trkpt lat="42.9138123" lon="-5.6960848">
        <ele>1433.8</ele>
        <time>2020-07-21T07:30:01.000Z</time>
      </trkpt>
      <trkpt lat="42.9138118" lon="-5.696098">
        <ele>1433.8</ele>
        <time>2020-07-21T07:30:02.000Z</time>
      </trkpt>
      <trkpt lat="42.9138122" lon="-5.6961103">
        <ele>1433.8</ele>
        <time>2020-07-21T07:30:03.000Z</time>
      </trkpt>
      <trkpt lat="42.913813" lon="-5.6961228">
        <ele>1433.64</ele>
        <time>2020-07-21T07:30:04.000Z</time>
      </trkpt>
      <trkpt lat="42.9138112" lon="-5.6961377">
        <ele>1433.64</ele>
        <time>2020-07-21T07:30:05.000Z</time>
      </trkpt>
      <trkpt lat="42.9138093" lon="-5.6961545">
        <ele>1433.49</ele>
        <time>2020-07-21T07:30:06.000Z</time>
      </trkpt>
      <trkpt lat="42.9138075" lon="-5.6961723">
        <ele>1433.49</ele>
        <time>2020-07-21T07:30:07.000Z</time>
      </trkpt>
      <trkpt lat="42.9138062" lon="-5.6961912">
        <ele>1433.49</ele>
        <time>2020-07-21T07:30:08.000Z</time>
      </trkpt>
      <trkpt lat="42.913805" lon="-5.6962105">
        <ele>1433.49</ele>
        <time>2020-07-21T07:30:09.000Z</time>
      </trkpt>
      <trkpt lat="42.9138052" lon="-5.6962295">
        <ele>1433.34</ele>
        <time>2020-07-21T07:30:10.000Z</time>
      </trkpt>
      <trkpt lat="42.9138073" lon="-5.6962473">
        <ele>1433.34</ele>
        <time>2020-07-21T07:30:11.000Z</time>
      </trkpt>
      <trkpt lat="42.9138112" lon="-5.696264">
        <ele>1433.19</ele>
        <time>2020-07-21T07:30:12.000Z</time>
      </trkpt>
      <trkpt lat="42.9138165" lon="-5.696279">
        <ele>1433.19</ele>
        <time>2020-07-21T07:30:13.000Z</time>
      </trkpt>
      <trkpt lat="42.9138247" lon="-5.6962935">
        <ele>1433.04</ele>
        <time>2020-07-21T07:30:14.000Z</time>
      </trkpt>
      <trkpt lat="42.9138337" lon="-5.6963075">
        <ele>1433.04</ele>
        <time>2020-07-21T07:30:15.000Z</time>
      </trkpt>
      <trkpt lat="42.9138445" lon="-5.6963217">
        <ele>1432.88</ele>
        <time>2020-07-21T07:30:16.000Z</time>
      </trkpt>
      <trkpt lat="42.913852" lon="-5.69634">
        <ele>1432.88</ele>
        <time>2020-07-21T07:30:17.000Z</time>
      </trkpt>
      <trkpt lat="42.9138615" lon="-5.6963588">
        <ele>1432.58</ele>
        <time>2020-07-21T07:30:18.000Z</time>
      </trkpt>
      <trkpt lat="42.9138698" lon="-5.6963785">
        <ele>1432.58</ele>
        <time>2020-07-21T07:30:19.000Z</time>
      </trkpt>
      <trkpt lat="42.9138795" lon="-5.696393">
        <ele>1432.43</ele>
        <time>2020-07-21T07:30:20.000Z</time>
      </trkpt>
      <trkpt lat="42.9138893" lon="-5.6964048">
        <ele>1432.43</ele>
        <time>2020-07-21T07:30:21.000Z</time>
      </trkpt>
      <trkpt lat="42.9139" lon="-5.6964152">
        <ele>1432.27</ele>
        <time>2020-07-21T07:30:22.000Z</time>
      </trkpt>
      <trkpt lat="42.913911" lon="-5.6964257">
        <ele>1432.27</ele>
        <time>2020-07-21T07:30:23.000Z</time>
      </trkpt>
      <trkpt lat="42.9139202" lon="-5.6964358">
        <ele>1432.12</ele>
        <time>2020-07-21T07:30:24.000Z</time>
      </trkpt>
      <trkpt lat="42.9139298" lon="-5.6964458">
        <ele>1432.12</ele>
        <time>2020-07-21T07:30:25.000Z</time>
      </trkpt>
      <trkpt lat="42.913938" lon="-5.6964555">
        <ele>1431.97</ele>
        <time>2020-07-21T07:30:26.000Z</time>
      </trkpt>
      <trkpt lat="42.913945" lon="-5.6964673">
        <ele>1431.97</ele>
        <time>2020-07-21T07:30:27.000Z</time>
      </trkpt>
      <trkpt lat="42.9139505" lon="-5.6964803">
        <ele>1431.81</ele>
        <time>2020-07-21T07:30:28.000Z</time>
      </trkpt>
      <trkpt lat="42.9139565" lon="-5.6964947">
        <ele>1431.81</ele>
        <time>2020-07-21T07:30:29.000Z</time>
      </trkpt>
      <trkpt lat="42.9139613" lon="-5.6965122">
        <ele>1431.66</ele>
        <time>2020-07-21T07:30:30.000Z</time>
      </trkpt>
      <trkpt lat="42.9139653" lon="-5.6965302">
        <ele>1431.66</ele>
        <time>2020-07-21T07:30:31.000Z</time>
      </trkpt>
      <trkpt lat="42.9139695" lon="-5.6965472">
        <ele>1431.51</ele>
        <time>2020-07-21T07:30:32.000Z</time>
      </trkpt>
      <trkpt lat="42.9139765" lon="-5.6965593">
        <ele>1431.51</ele>
        <time>2020-07-21T07:30:33.000Z</time>
      </trkpt>
      <trkpt lat="42.9139838" lon="-5.6965703">
        <ele>1431.51</ele>
        <time>2020-07-21T07:30:34.000Z</time>
      </trkpt>
      <trkpt lat="42.9139913" lon="-5.6965817">
        <ele>1431.51</ele>
        <time>2020-07-21T07:30:35.000Z</time>
      </trkpt>
      <trkpt lat="42.9139982" lon="-5.6965937">
        <ele>1431.36</ele>
        <time>2020-07-21T07:30:36.000Z</time>
      </trkpt>
      <trkpt lat="42.9140053" lon="-5.6966067">
        <ele>1431.36</ele>
        <time>2020-07-21T07:30:37.000Z</time>
      </trkpt>
      <trkpt lat="42.914013" lon="-5.6966202">
        <ele>1431.36</ele>
        <time>2020-07-21T07:30:38.000Z</time>
      </trkpt>
      <trkpt lat="42.9140208" lon="-5.6966337">
        <ele>1431.36</ele>
        <time>2020-07-21T07:30:39.000Z</time>
      </trkpt>
      <trkpt lat="42.9140273" lon="-5.6966488">
        <ele>1431.36</ele>
        <time>2020-07-21T07:30:40.000Z</time>
      </trkpt>
      <trkpt lat="42.9140345" lon="-5.6966643">
        <ele>1431.36</ele>
        <time>2020-07-21T07:30:41.000Z</time>
      </trkpt>
      <trkpt lat="42.9140412" lon="-5.696681">
        <ele>1431.36</ele>
        <time>2020-07-21T07:30:42.000Z</time>
      </trkpt>
      <trkpt lat="42.9140477" lon="-5.6966975">
        <ele>1431.36</ele>
        <time>2020-07-21T07:30:43.000Z</time>
      </trkpt>
      <trkpt lat="42.9140527" lon="-5.6967143">
        <ele>1431.21</ele>
        <time>2020-07-21T07:30:44.000Z</time>
      </trkpt>
      <trkpt lat="42.9140578" lon="-5.696731">
        <ele>1431.21</ele>
        <time>2020-07-21T07:30:45.000Z</time>
      </trkpt>
      <trkpt lat="42.9140622" lon="-5.6967477">
        <ele>1431.05</ele>
        <time>2020-07-21T07:30:46.000Z</time>
      </trkpt>
      <trkpt lat="42.9140667" lon="-5.6967648">
        <ele>1431.05</ele>
        <time>2020-07-21T07:30:47.000Z</time>
      </trkpt>
      <trkpt lat="42.9140708" lon="-5.6967823">
        <ele>1431.05</ele>
        <time>2020-07-21T07:30:48.000Z</time>
      </trkpt>
      <trkpt lat="42.9140762" lon="-5.6967988">
        <ele>1431.05</ele>
        <time>2020-07-21T07:30:49.000Z</time>
      </trkpt>
      <trkpt lat="42.9140818" lon="-5.6968133">
        <ele>1430.9</ele>
        <time>2020-07-21T07:30:50.000Z</time>
      </trkpt>
      <trkpt lat="42.914087" lon="-5.6968277">
        <ele>1430.9</ele>
        <time>2020-07-21T07:30:51.000Z</time>
      </trkpt>
      <trkpt lat="42.9140922" lon="-5.6968425">
        <ele>1430.75</ele>
        <time>2020-07-21T07:30:52.000Z</time>
      </trkpt>
      <trkpt lat="42.9141002" lon="-5.6968562">
        <ele>1430.75</ele>
        <time>2020-07-21T07:30:53.000Z</time>
      </trkpt>
      <trkpt lat="42.9141118" lon="-5.6968698">
        <ele>1430.6</ele>
        <time>2020-07-21T07:30:54.000Z</time>
      </trkpt>
      <trkpt lat="42.914124" lon="-5.6968818">
        <ele>1430.6</ele>
        <time>2020-07-21T07:30:55.000Z</time>
      </trkpt>
      <trkpt lat="42.9141343" lon="-5.6968952">
        <ele>1430.44</ele>
        <time>2020-07-21T07:30:56.000Z</time>
      </trkpt>
      <trkpt lat="42.9141427" lon="-5.6969075">
        <ele>1430.44</ele>
        <time>2020-07-21T07:30:57.000Z</time>
      </trkpt>
      <trkpt lat="42.9141507" lon="-5.6969218">
        <ele>1430.29</ele>
        <time>2020-07-21T07:30:58.000Z</time>
      </trkpt>
      <trkpt lat="42.914158" lon="-5.6969367">
        <ele>1430.29</ele>
        <time>2020-07-21T07:30:59.000Z</time>
      </trkpt>
      <trkpt lat="42.9141645" lon="-5.6969525">
        <ele>1430.14</ele>
        <time>2020-07-21T07:31:00.000Z</time>
      </trkpt>
      <trkpt lat="42.9141718" lon="-5.6969675">
        <ele>1430.14</ele>
        <time>2020-07-21T07:31:01.000Z</time>
      </trkpt>
      <trkpt lat="42.9141798" lon="-5.6969823">
        <ele>1429.83</ele>
        <time>2020-07-21T07:31:02.000Z</time>
      </trkpt>
      <trkpt lat="42.91419" lon="-5.696995">
        <ele>1429.83</ele>
        <time>2020-07-21T07:31:03.000Z</time>
      </trkpt>
      <trkpt lat="42.9142003" lon="-5.6970058">
        <ele>1429.68</ele>
        <time>2020-07-21T07:31:04.000Z</time>
      </trkpt>
      <trkpt lat="42.9142105" lon="-5.6970165">
        <ele>1429.68</ele>
        <time>2020-07-21T07:31:05.000Z</time>
      </trkpt>
      <trkpt lat="42.9142207" lon="-5.6970263">
        <ele>1429.53</ele>
        <time>2020-07-21T07:31:06.000Z</time>
      </trkpt>
      <trkpt lat="42.9142307" lon="-5.6970378">
        <ele>1429.53</ele>
        <time>2020-07-21T07:31:07.000Z</time>
      </trkpt>
      <trkpt lat="42.9142417" lon="-5.6970468">
        <ele>1429.38</ele>
        <time>2020-07-21T07:31:08.000Z</time>
      </trkpt>
      <trkpt lat="42.9142547" lon="-5.6970533">
        <ele>1429.38</ele>
        <time>2020-07-21T07:31:09.000Z</time>
      </trkpt>
      <trkpt lat="42.9142683" lon="-5.6970557">
        <ele>1429.07</ele>
        <time>2020-07-21T07:31:10.000Z</time>
      </trkpt>
      <trkpt lat="42.9142812" lon="-5.6970565">
        <ele>1429.07</ele>
        <time>2020-07-21T07:31:11.000Z</time>
      </trkpt>
      <trkpt lat="42.9142917" lon="-5.6970545">
        <ele>1428.92</ele>
        <time>2020-07-21T07:31:12.000Z</time>
      </trkpt>
      <trkpt lat="42.9143028" lon="-5.6970482">
        <ele>1428.92</ele>
        <time>2020-07-21T07:31:13.000Z</time>
      </trkpt>
      <trkpt lat="42.914314" lon="-5.6970378">
        <ele>1428.61</ele>
        <time>2020-07-21T07:31:14.000Z</time>
      </trkpt>
      <trkpt lat="42.9143242" lon="-5.6970273">
        <ele>1428.61</ele>
        <time>2020-07-21T07:31:15.000Z</time>
      </trkpt>
      <trkpt lat="42.9143325" lon="-5.6970182">
        <ele>1428.46</ele>
        <time>2020-07-21T07:31:16.000Z</time>
      </trkpt>
      <trkpt lat="42.9143395" lon="-5.69701">
        <ele>1428.46</ele>
        <time>2020-07-21T07:31:17.000Z</time>
      </trkpt>
      <trkpt lat="42.9143468" lon="-5.6970015">
        <ele>1428.16</ele>
        <time>2020-07-21T07:31:18.000Z</time>
      </trkpt>
      <trkpt lat="42.9143547" lon="-5.6969923">
        <ele>1428.16</ele>
        <time>2020-07-21T07:31:19.000Z</time>
      </trkpt>
      <trkpt lat="42.9143615" lon="-5.6969827">
        <ele>1428.01</ele>
        <time>2020-07-21T07:31:20.000Z</time>
      </trkpt>
      <trkpt lat="42.9143677" lon="-5.6969732">
        <ele>1428.01</ele>
        <time>2020-07-21T07:31:21.000Z</time>
      </trkpt>
      <trkpt lat="42.9143733" lon="-5.6969645">
        <ele>1427.7</ele>
        <time>2020-07-21T07:31:22.000Z</time>
      </trkpt>
      <trkpt lat="42.91438" lon="-5.6969565">
        <ele>1427.7</ele>
        <time>2020-07-21T07:31:23.000Z</time>
      </trkpt>
      <trkpt lat="42.9143872" lon="-5.6969495">
        <ele>1427.4</ele>
        <time>2020-07-21T07:31:24.000Z</time>
      </trkpt>
      <trkpt lat="42.9143938" lon="-5.6969402">
        <ele>1427.4</ele>
        <time>2020-07-21T07:31:25.000Z</time>
      </trkpt>
      <trkpt lat="42.9144017" lon="-5.6969308">
        <ele>1427.09</ele>
        <time>2020-07-21T07:31:26.000Z</time>
      </trkpt>
      <trkpt lat="42.9144098" lon="-5.6969212">
        <ele>1427.09</ele>
        <time>2020-07-21T07:31:27.000Z</time>
      </trkpt>
      <trkpt lat="42.9144187" lon="-5.6969132">
        <ele>1426.79</ele>
        <time>2020-07-21T07:31:28.000Z</time>
      </trkpt>
      <trkpt lat="42.9144268" lon="-5.696905">
        <ele>1426.79</ele>
        <time>2020-07-21T07:31:29.000Z</time>
      </trkpt>
      <trkpt lat="42.9144353" lon="-5.6968963">
        <ele>1426.48</ele>
        <time>2020-07-21T07:31:30.000Z</time>
      </trkpt>
      <trkpt lat="42.914444" lon="-5.696887">
        <ele>1426.48</ele>
        <time>2020-07-21T07:31:31.000Z</time>
      </trkpt>
      <trkpt lat="42.914452" lon="-5.6968778">
        <ele>1426.18</ele>
        <time>2020-07-21T07:31:32.000Z</time>
      </trkpt>
      <trkpt lat="42.9144605" lon="-5.6968677">
        <ele>1426.18</ele>
        <time>2020-07-21T07:31:33.000Z</time>
      </trkpt>
      <trkpt lat="42.9144693" lon="-5.6968613">
        <ele>1425.87</ele>
        <time>2020-07-21T07:31:34.000Z</time>
      </trkpt>
      <trkpt lat="42.9144783" lon="-5.6968553">
        <ele>1425.87</ele>
        <time>2020-07-21T07:31:35.000Z</time>
      </trkpt>
      <trkpt lat="42.9144867" lon="-5.6968525">
        <ele>1425.41</ele>
        <time>2020-07-21T07:31:36.000Z</time>
      </trkpt>
      <trkpt lat="42.9144945" lon="-5.6968467">
        <ele>1425.41</ele>
        <time>2020-07-21T07:31:37.000Z</time>
      </trkpt>
      <trkpt lat="42.9145032" lon="-5.6968398">
        <ele>1425.11</ele>
        <time>2020-07-21T07:31:38.000Z</time>
      </trkpt>
      <trkpt lat="42.9145133" lon="-5.6968277">
        <ele>1425.11</ele>
        <time>2020-07-21T07:31:39.000Z</time>
      </trkpt>
      <trkpt lat="42.9145268" lon="-5.6968108">
        <ele>1424.81</ele>
        <time>2020-07-21T07:31:40.000Z</time>
      </trkpt>
      <trkpt lat="42.9145418" lon="-5.6967947">
        <ele>1424.81</ele>
        <time>2020-07-21T07:31:41.000Z</time>
      </trkpt>
      <trkpt lat="42.9145555" lon="-5.6967803">
        <ele>1424.35</ele>
        <time>2020-07-21T07:31:42.000Z</time>
      </trkpt>
      <trkpt lat="42.914567" lon="-5.6967688">
        <ele>1424.35</ele>
        <time>2020-07-21T07:31:43.000Z</time>
      </trkpt>
      <trkpt lat="42.9145772" lon="-5.6967558">
        <ele>1423.89</ele>
        <time>2020-07-21T07:31:44.000Z</time>
      </trkpt>
      <trkpt lat="42.9145863" lon="-5.6967427">
        <ele>1423.89</ele>
        <time>2020-07-21T07:31:45.000Z</time>
      </trkpt>
      <trkpt lat="42.914594" lon="-5.6967303">
        <ele>1423.59</ele>
        <time>2020-07-21T07:31:46.000Z</time>
      </trkpt>
      <trkpt lat="42.914599" lon="-5.6967205">
        <ele>1423.59</ele>
        <time>2020-07-21T07:31:47.000Z</time>
      </trkpt>
      <trkpt lat="42.9146033" lon="-5.6967108">
        <ele>1423.13</ele>
        <time>2020-07-21T07:31:48.000Z</time>
      </trkpt>
      <trkpt lat="42.914609" lon="-5.6967005">
        <ele>1423.13</ele>
        <time>2020-07-21T07:31:49.000Z</time>
      </trkpt>
      <trkpt lat="42.9146165" lon="-5.6966878">
        <ele>1422.67</ele>
        <time>2020-07-21T07:31:50.000Z</time>
      </trkpt>
      <trkpt lat="42.914625" lon="-5.6966763">
        <ele>1422.67</ele>
        <time>2020-07-21T07:31:51.000Z</time>
      </trkpt>
      <trkpt lat="42.914631" lon="-5.6966632">
        <ele>1422.37</ele>
        <time>2020-07-21T07:31:52.000Z</time>
      </trkpt>
      <trkpt lat="42.9146372" lon="-5.6966495">
        <ele>1422.37</ele>
        <time>2020-07-21T07:31:53.000Z</time>
      </trkpt>
      <trkpt lat="42.9146435" lon="-5.6966358">
        <ele>1421.91</ele>
        <time>2020-07-21T07:31:54.000Z</time>
      </trkpt>
      <trkpt lat="42.9146508" lon="-5.6966243">
        <ele>1421.91</ele>
        <time>2020-07-21T07:31:55.000Z</time>
      </trkpt>
      <trkpt lat="42.9146583" lon="-5.6966142">
        <ele>1421.6</ele>
        <time>2020-07-21T07:31:56.000Z</time>
      </trkpt>
      <trkpt lat="42.9146652" lon="-5.696603">
        <ele>1421.6</ele>
        <time>2020-07-21T07:31:57.000Z</time>
      </trkpt>
      <trkpt lat="42.9146733" lon="-5.6965892">
        <ele>1421.15</ele>
        <time>2020-07-21T07:31:58.000Z</time>
      </trkpt>
      <trkpt lat="42.9146817" lon="-5.696575">
        <ele>1421.15</ele>
        <time>2020-07-21T07:31:59.000Z</time>
      </trkpt>
      <trkpt lat="42.9146903" lon="-5.6965618">
        <ele>1420.69</ele>
        <time>2020-07-21T07:32:00.000Z</time>
      </trkpt>
      <trkpt lat="42.9146982" lon="-5.696551">
        <ele>1420.69</ele>
        <time>2020-07-21T07:32:01.000Z</time>
      </trkpt>
      <trkpt lat="42.9147063" lon="-5.696542">
        <ele>1420.39</ele>
        <time>2020-07-21T07:32:02.000Z</time>
      </trkpt>
      <trkpt lat="42.914714" lon="-5.6965343">
        <ele>1420.39</ele>
        <time>2020-07-21T07:32:03.000Z</time>
      </trkpt>
      <trkpt lat="42.9147215" lon="-5.6965268">
        <ele>1420.08</ele>
        <time>2020-07-21T07:32:04.000Z</time>
      </trkpt>
      <trkpt lat="42.9147288" lon="-5.6965167">
        <ele>1420.08</ele>
        <time>2020-07-21T07:32:05.000Z</time>
      </trkpt>
      <trkpt lat="42.9147358" lon="-5.6965068">
        <ele>1419.78</ele>
        <time>2020-07-21T07:32:06.000Z</time>
      </trkpt>
      <trkpt lat="42.9147442" lon="-5.6964957">
        <ele>1419.78</ele>
        <time>2020-07-21T07:32:07.000Z</time>
      </trkpt>
      <trkpt lat="42.9147515" lon="-5.6964833">
        <ele>1419.47</ele>
        <time>2020-07-21T07:32:08.000Z</time>
      </trkpt>
      <trkpt lat="42.9147578" lon="-5.6964677">
        <ele>1419.47</ele>
        <time>2020-07-21T07:32:09.000Z</time>
      </trkpt>
      <trkpt lat="42.9147642" lon="-5.6964518">
        <ele>1419.17</ele>
        <time>2020-07-21T07:32:10.000Z</time>
      </trkpt>
      <trkpt lat="42.9147732" lon="-5.6964405">
        <ele>1419.17</ele>
        <time>2020-07-21T07:32:11.000Z</time>
      </trkpt>
      <trkpt lat="42.914785" lon="-5.6964312">
        <ele>1419.01</ele>
        <time>2020-07-21T07:32:12.000Z</time>
      </trkpt>
      <trkpt lat="42.9147967" lon="-5.696425">
        <ele>1419.01</ele>
        <time>2020-07-21T07:32:13.000Z</time>
      </trkpt>
      <trkpt lat="42.9148073" lon="-5.6964177">
        <ele>1418.71</ele>
        <time>2020-07-21T07:32:14.000Z</time>
      </trkpt>
      <trkpt lat="42.9148205" lon="-5.6964112">
        <ele>1418.71</ele>
        <time>2020-07-21T07:32:15.000Z</time>
      </trkpt>
      <trkpt lat="42.9148352" lon="-5.6964047">
        <ele>1418.56</ele>
        <time>2020-07-21T07:32:16.000Z</time>
      </trkpt>
      <trkpt lat="42.914849" lon="-5.6963988">
        <ele>1418.56</ele>
        <time>2020-07-21T07:32:17.000Z</time>
      </trkpt>
      <trkpt lat="42.9148602" lon="-5.696392">
        <ele>1418.25</ele>
        <time>2020-07-21T07:32:18.000Z</time>
      </trkpt>
      <trkpt lat="42.9148707" lon="-5.6963865">
        <ele>1418.25</ele>
        <time>2020-07-21T07:32:19.000Z</time>
      </trkpt>
      <trkpt lat="42.9148822" lon="-5.6963817">
        <ele>1418.1</ele>
        <time>2020-07-21T07:32:20.000Z</time>
      </trkpt>
      <trkpt lat="42.9148943" lon="-5.6963777">
        <ele>1418.1</ele>
        <time>2020-07-21T07:32:21.000Z</time>
      </trkpt>
      <trkpt lat="42.914907" lon="-5.6963735">
        <ele>1417.79</ele>
        <time>2020-07-21T07:32:22.000Z</time>
      </trkpt>
      <trkpt lat="42.9149202" lon="-5.6963695">
        <ele>1417.79</ele>
        <time>2020-07-21T07:32:23.000Z</time>
      </trkpt>
      <trkpt lat="42.9149327" lon="-5.6963658">
        <ele>1417.64</ele>
        <time>2020-07-21T07:32:24.000Z</time>
      </trkpt>
      <trkpt lat="42.914945" lon="-5.6963622">
        <ele>1417.64</ele>
        <time>2020-07-21T07:32:25.000Z</time>
      </trkpt>
      <trkpt lat="42.9149582" lon="-5.696359">
        <ele>1417.34</ele>
        <time>2020-07-21T07:32:26.000Z</time>
      </trkpt>
      <trkpt lat="42.9149707" lon="-5.6963578">
        <ele>1417.34</ele>
        <time>2020-07-21T07:32:27.000Z</time>
      </trkpt>
      <trkpt lat="42.9149823" lon="-5.6963562">
        <ele>1417.19</ele>
        <time>2020-07-21T07:32:28.000Z</time>
      </trkpt>
      <trkpt lat="42.914993" lon="-5.6963545">
        <ele>1417.19</ele>
        <time>2020-07-21T07:32:29.000Z</time>
      </trkpt>
      <trkpt lat="42.9150052" lon="-5.6963518">
        <ele>1417.03</ele>
        <time>2020-07-21T07:32:30.000Z</time>
      </trkpt>
      <trkpt lat="42.9150182" lon="-5.6963497">
        <ele>1417.03</ele>
        <time>2020-07-21T07:32:31.000Z</time>
      </trkpt>
      <trkpt lat="42.9150318" lon="-5.696345">
        <ele>1416.73</ele>
        <time>2020-07-21T07:32:32.000Z</time>
      </trkpt>
      <trkpt lat="42.915044" lon="-5.6963392">
        <ele>1416.73</ele>
        <time>2020-07-21T07:32:33.000Z</time>
      </trkpt>
      <trkpt lat="42.9150545" lon="-5.6963323">
        <ele>1416.57</ele>
        <time>2020-07-21T07:32:34.000Z</time>
      </trkpt>
      <trkpt lat="42.9150638" lon="-5.6963247">
        <ele>1416.57</ele>
        <time>2020-07-21T07:32:35.000Z</time>
      </trkpt>
      <trkpt lat="42.9150737" lon="-5.696318">
        <ele>1416.42</ele>
        <time>2020-07-21T07:32:36.000Z</time>
      </trkpt>
      <trkpt lat="42.915084" lon="-5.6963107">
        <ele>1416.42</ele>
        <time>2020-07-21T07:32:37.000Z</time>
      </trkpt>
      <trkpt lat="42.9150943" lon="-5.696304">
        <ele>1416.27</ele>
        <time>2020-07-21T07:32:38.000Z</time>
      </trkpt>
      <trkpt lat="42.9151053" lon="-5.6962967">
        <ele>1416.27</ele>
        <time>2020-07-21T07:32:39.000Z</time>
      </trkpt>
      <trkpt lat="42.9151178" lon="-5.6962898">
        <ele>1416.12</ele>
        <time>2020-07-21T07:32:40.000Z</time>
      </trkpt>
      <trkpt lat="42.9151315" lon="-5.696284">
        <ele>1416.12</ele>
        <time>2020-07-21T07:32:41.000Z</time>
      </trkpt>
      <trkpt lat="42.9151445" lon="-5.6962782">
        <ele>1415.97</ele>
        <time>2020-07-21T07:32:42.000Z</time>
      </trkpt>
      <trkpt lat="42.915157" lon="-5.6962733">
        <ele>1415.97</ele>
        <time>2020-07-21T07:32:43.000Z</time>
      </trkpt>
      <trkpt lat="42.915169" lon="-5.696269">
        <ele>1415.97</ele>
        <time>2020-07-21T07:32:44.000Z</time>
      </trkpt>
      <trkpt lat="42.91518" lon="-5.6962653">
        <ele>1415.97</ele>
        <time>2020-07-21T07:32:45.000Z</time>
      </trkpt>
      <trkpt lat="42.9151912" lon="-5.696262">
        <ele>1415.81</ele>
        <time>2020-07-21T07:32:46.000Z</time>
      </trkpt>
      <trkpt lat="42.9152017" lon="-5.6962593">
        <ele>1415.81</ele>
        <time>2020-07-21T07:32:47.000Z</time>
      </trkpt>
      <trkpt lat="42.9152132" lon="-5.6962578">
        <ele>1415.81</ele>
        <time>2020-07-21T07:32:48.000Z</time>
      </trkpt>
      <trkpt lat="42.9152252" lon="-5.6962578">
        <ele>1415.81</ele>
        <time>2020-07-21T07:32:49.000Z</time>
      </trkpt>
      <trkpt lat="42.9152388" lon="-5.6962605">
        <ele>1415.81</ele>
        <time>2020-07-21T07:32:50.000Z</time>
      </trkpt>
      <trkpt lat="42.915253" lon="-5.696264">
        <ele>1415.81</ele>
        <time>2020-07-21T07:32:51.000Z</time>
      </trkpt>
      <trkpt lat="42.9152682" lon="-5.696268">
        <ele>1415.66</ele>
        <time>2020-07-21T07:32:52.000Z</time>
      </trkpt>
      <trkpt lat="42.915283" lon="-5.6962705">
        <ele>1415.66</ele>
        <time>2020-07-21T07:32:53.000Z</time>
      </trkpt>
      <trkpt lat="42.9152967" lon="-5.6962733">
        <ele>1415.51</ele>
        <time>2020-07-21T07:32:54.000Z</time>
      </trkpt>
      <trkpt lat="42.9153102" lon="-5.6962768">
        <ele>1415.51</ele>
        <time>2020-07-21T07:32:55.000Z</time>
      </trkpt>
      <trkpt lat="42.9153227" lon="-5.696281">
        <ele>1415.36</ele>
        <time>2020-07-21T07:32:56.000Z</time>
      </trkpt>
      <trkpt lat="42.9153358" lon="-5.6962847">
        <ele>1415.36</ele>
        <time>2020-07-21T07:32:57.000Z</time>
      </trkpt>
      <trkpt lat="42.9153485" lon="-5.6962888">
        <ele>1415.05</ele>
        <time>2020-07-21T07:32:58.000Z</time>
      </trkpt>
      <trkpt lat="42.9153607" lon="-5.6962933">
        <ele>1415.05</ele>
        <time>2020-07-21T07:32:59.000Z</time>
      </trkpt>
      <trkpt lat="42.9153727" lon="-5.696298">
        <ele>1414.75</ele>
        <time>2020-07-21T07:33:00.000Z</time>
      </trkpt>
      <trkpt lat="42.9153853" lon="-5.6963027">
        <ele>1414.75</ele>
        <time>2020-07-21T07:33:01.000Z</time>
      </trkpt>
      <trkpt lat="42.9153993" lon="-5.6963083">
        <ele>1414.59</ele>
        <time>2020-07-21T07:33:02.000Z</time>
      </trkpt>
      <trkpt lat="42.9154128" lon="-5.6963157">
        <ele>1414.59</ele>
        <time>2020-07-21T07:33:03.000Z</time>
      </trkpt>
      <trkpt lat="42.9154255" lon="-5.6963223">
        <ele>1414.29</ele>
        <time>2020-07-21T07:33:04.000Z</time>
      </trkpt>
      <trkpt lat="42.9154363" lon="-5.6963283">
        <ele>1414.29</ele>
        <time>2020-07-21T07:33:05.000Z</time>
      </trkpt>
      <trkpt lat="42.9154478" lon="-5.6963325">
        <ele>1413.98</ele>
        <time>2020-07-21T07:33:06.000Z</time>
      </trkpt>
      <trkpt lat="42.9154585" lon="-5.6963365">
        <ele>1413.98</ele>
        <time>2020-07-21T07:33:07.000Z</time>
      </trkpt>
      <trkpt lat="42.915471" lon="-5.69634">
        <ele>1413.68</ele>
        <time>2020-07-21T07:33:08.000Z</time>
      </trkpt>
      <trkpt lat="42.9154827" lon="-5.6963438">
        <ele>1413.68</ele>
        <time>2020-07-21T07:33:09.000Z</time>
      </trkpt>
      <trkpt lat="42.915495" lon="-5.6963488">
        <ele>1413.53</ele>
        <time>2020-07-21T07:33:10.000Z</time>
      </trkpt>
      <trkpt lat="42.9155055" lon="-5.6963548">
        <ele>1413.53</ele>
        <time>2020-07-21T07:33:11.000Z</time>
      </trkpt>
      <trkpt lat="42.9155178" lon="-5.6963603">
        <ele>1413.22</ele>
        <time>2020-07-21T07:33:12.000Z</time>
      </trkpt>
      <trkpt lat="42.91553" lon="-5.6963652">
        <ele>1413.22</ele>
        <time>2020-07-21T07:33:13.000Z</time>
      </trkpt>
      <trkpt lat="42.9155428" lon="-5.6963687">
        <ele>1413.07</ele>
        <time>2020-07-21T07:33:14.000Z</time>
      </trkpt>
      <trkpt lat="42.9155555" lon="-5.6963732">
        <ele>1413.07</ele>
        <time>2020-07-21T07:33:15.000Z</time>
      </trkpt>
      <trkpt lat="42.9155687" lon="-5.6963782">
        <ele>1412.77</ele>
        <time>2020-07-21T07:33:16.000Z</time>
      </trkpt>
      <trkpt lat="42.9155807" lon="-5.6963857">
        <ele>1412.77</ele>
        <time>2020-07-21T07:33:17.000Z</time>
      </trkpt>
      <trkpt lat="42.9155937" lon="-5.6963918">
        <ele>1412.61</ele>
        <time>2020-07-21T07:33:18.000Z</time>
      </trkpt>
      <trkpt lat="42.915607" lon="-5.6963987">
        <ele>1412.61</ele>
        <time>2020-07-21T07:33:19.000Z</time>
      </trkpt>
      <trkpt lat="42.9156223" lon="-5.6964038">
        <ele>1412.31</ele>
        <time>2020-07-21T07:33:20.000Z</time>
      </trkpt>
      <trkpt lat="42.9156358" lon="-5.6964112">
        <ele>1412.31</ele>
        <time>2020-07-21T07:33:21.000Z</time>
      </trkpt>
      <trkpt lat="42.9156488" lon="-5.6964175">
        <ele>1412</ele>
        <time>2020-07-21T07:33:22.000Z</time>
      </trkpt>
      <trkpt lat="42.91566" lon="-5.6964243">
        <ele>1412</ele>
        <time>2020-07-21T07:33:23.000Z</time>
      </trkpt>
      <trkpt lat="42.9156708" lon="-5.6964292">
        <ele>1411.7</ele>
        <time>2020-07-21T07:33:24.000Z</time>
      </trkpt>
      <trkpt lat="42.9156822" lon="-5.6964342">
        <ele>1411.7</ele>
        <time>2020-07-21T07:33:25.000Z</time>
      </trkpt>
      <trkpt lat="42.915695" lon="-5.6964347">
        <ele>1411.39</ele>
        <time>2020-07-21T07:33:26.000Z</time>
      </trkpt>
      <trkpt lat="42.9157053" lon="-5.6964375">
        <ele>1411.39</ele>
        <time>2020-07-21T07:33:27.000Z</time>
      </trkpt>
      <trkpt lat="42.9157117" lon="-5.6964408">
        <ele>1411.09</ele>
        <time>2020-07-21T07:33:28.000Z</time>
      </trkpt>
      <trkpt lat="42.9157138" lon="-5.6964473">
        <ele>1411.09</ele>
        <time>2020-07-21T07:33:29.000Z</time>
      </trkpt>
      <trkpt lat="42.9157153" lon="-5.696451">
        <ele>1410.78</ele>
        <time>2020-07-21T07:33:30.000Z</time>
      </trkpt>
      <trkpt lat="42.9157167" lon="-5.6964525">
        <ele>1410.78</ele>
        <time>2020-07-21T07:33:31.000Z</time>
      </trkpt>
      <trkpt lat="42.915718" lon="-5.6964528">
        <ele>1410.48</ele>
        <time>2020-07-21T07:33:32.000Z</time>
      </trkpt>
      <trkpt lat="42.9157198" lon="-5.6964525">
        <ele>1410.48</ele>
        <time>2020-07-21T07:33:33.000Z</time>
      </trkpt>
      <trkpt lat="42.9157217" lon="-5.6964533">
        <ele>1410.02</ele>
        <time>2020-07-21T07:33:34.000Z</time>
      </trkpt>
      <trkpt lat="42.9157252" lon="-5.6964522">
        <ele>1410.02</ele>
        <time>2020-07-21T07:33:35.000Z</time>
      </trkpt>
      <trkpt lat="42.9157297" lon="-5.6964497">
        <ele>1409.72</ele>
        <time>2020-07-21T07:33:36.000Z</time>
      </trkpt>
      <trkpt lat="42.9157373" lon="-5.696445">
        <ele>1409.72</ele>
        <time>2020-07-21T07:33:37.000Z</time>
      </trkpt>
      <trkpt lat="42.9157467" lon="-5.6964427">
        <ele>1409.41</ele>
        <time>2020-07-21T07:33:38.000Z</time>
      </trkpt>
      <trkpt lat="42.9157583" lon="-5.6964408">
        <ele>1409.41</ele>
        <time>2020-07-21T07:33:39.000Z</time>
      </trkpt>
      <trkpt lat="42.91577" lon="-5.6964387">
        <ele>1409.11</ele>
        <time>2020-07-21T07:33:40.000Z</time>
      </trkpt>
      <trkpt lat="42.9157795" lon="-5.6964352">
        <ele>1409.11</ele>
        <time>2020-07-21T07:33:41.000Z</time>
      </trkpt>
      <trkpt lat="42.915788" lon="-5.69643">
        <ele>1408.8</ele>
        <time>2020-07-21T07:33:42.000Z</time>
      </trkpt>
      <trkpt lat="42.9157967" lon="-5.6964247">
        <ele>1408.8</ele>
        <time>2020-07-21T07:33:43.000Z</time>
      </trkpt>
      <trkpt lat="42.915806" lon="-5.6964205">
        <ele>1408.34</ele>
        <time>2020-07-21T07:33:44.000Z</time>
      </trkpt>
      <trkpt lat="42.9158162" lon="-5.6964165">
        <ele>1408.34</ele>
        <time>2020-07-21T07:33:45.000Z</time>
      </trkpt>
      <trkpt lat="42.9158265" lon="-5.6964135">
        <ele>1408.04</ele>
        <time>2020-07-21T07:33:46.000Z</time>
      </trkpt>
      <trkpt lat="42.9158382" lon="-5.6964085">
        <ele>1408.04</ele>
        <time>2020-07-21T07:33:47.000Z</time>
      </trkpt>
      <trkpt lat="42.9158497" lon="-5.696406">
        <ele>1407.74</ele>
        <time>2020-07-21T07:33:48.000Z</time>
      </trkpt>
      <trkpt lat="42.9158615" lon="-5.696404">
        <ele>1407.74</ele>
        <time>2020-07-21T07:33:49.000Z</time>
      </trkpt>
      <trkpt lat="42.9158733" lon="-5.6964028">
        <ele>1407.43</ele>
        <time>2020-07-21T07:33:50.000Z</time>
      </trkpt>
      <trkpt lat="42.9158857" lon="-5.6964005">
        <ele>1407.43</ele>
        <time>2020-07-21T07:33:51.000Z</time>
      </trkpt>
      <trkpt lat="42.9158973" lon="-5.6963983">
        <ele>1407.13</ele>
        <time>2020-07-21T07:33:52.000Z</time>
      </trkpt>
      <trkpt lat="42.9159082" lon="-5.696397">
        <ele>1407.13</ele>
        <time>2020-07-21T07:33:53.000Z</time>
      </trkpt>
      <trkpt lat="42.915918" lon="-5.6963953">
        <ele>1406.82</ele>
        <time>2020-07-21T07:33:54.000Z</time>
      </trkpt>
      <trkpt lat="42.9159275" lon="-5.6963912">
        <ele>1406.82</ele>
        <time>2020-07-21T07:33:55.000Z</time>
      </trkpt>
      <trkpt lat="42.9159377" lon="-5.6963878">
        <ele>1406.52</ele>
        <time>2020-07-21T07:33:56.000Z</time>
      </trkpt>
      <trkpt lat="42.915948" lon="-5.6963857">
        <ele>1406.52</ele>
        <time>2020-07-21T07:33:57.000Z</time>
      </trkpt>
      <trkpt lat="42.9159592" lon="-5.696387">
        <ele>1406.06</ele>
        <time>2020-07-21T07:33:58.000Z</time>
      </trkpt>
      <trkpt lat="42.9159712" lon="-5.6963888">
        <ele>1406.06</ele>
        <time>2020-07-21T07:33:59.000Z</time>
      </trkpt>
      <trkpt lat="42.9159845" lon="-5.6963908">
        <ele>1405.76</ele>
        <time>2020-07-21T07:34:00.000Z</time>
      </trkpt>
      <trkpt lat="42.9159982" lon="-5.6963925">
        <ele>1405.76</ele>
        <time>2020-07-21T07:34:01.000Z</time>
      </trkpt>
      <trkpt lat="42.9160113" lon="-5.6963938">
        <ele>1405.45</ele>
        <time>2020-07-21T07:34:02.000Z</time>
      </trkpt>
      <trkpt lat="42.9160242" lon="-5.6963945">
        <ele>1405.45</ele>
        <time>2020-07-21T07:34:03.000Z</time>
      </trkpt>
      <trkpt lat="42.916037" lon="-5.6963942">
        <ele>1404.99</ele>
        <time>2020-07-21T07:34:04.000Z</time>
      </trkpt>
      <trkpt lat="42.9160505" lon="-5.6963935">
        <ele>1404.99</ele>
        <time>2020-07-21T07:34:05.000Z</time>
      </trkpt>
      <trkpt lat="42.9160623" lon="-5.6963948">
        <ele>1404.69</ele>
        <time>2020-07-21T07:34:06.000Z</time>
      </trkpt>
      <trkpt lat="42.9160737" lon="-5.6963977">
        <ele>1404.69</ele>
        <time>2020-07-21T07:34:07.000Z</time>
      </trkpt>
      <trkpt lat="42.9160842" lon="-5.6964007">
        <ele>1404.23</ele>
        <time>2020-07-21T07:34:08.000Z</time>
      </trkpt>
      <trkpt lat="42.9160955" lon="-5.6964028">
        <ele>1404.23</ele>
        <time>2020-07-21T07:34:09.000Z</time>
      </trkpt>
      <trkpt lat="42.9161072" lon="-5.696405">
        <ele>1403.93</ele>
        <time>2020-07-21T07:34:10.000Z</time>
      </trkpt>
      <trkpt lat="42.9161197" lon="-5.6964073">
        <ele>1403.93</ele>
        <time>2020-07-21T07:34:11.000Z</time>
      </trkpt>
      <trkpt lat="42.9161317" lon="-5.6964103">
        <ele>1403.62</ele>
        <time>2020-07-21T07:34:12.000Z</time>
      </trkpt>
      <trkpt lat="42.9161428" lon="-5.6964132">
        <ele>1403.62</ele>
        <time>2020-07-21T07:34:13.000Z</time>
      </trkpt>
      <trkpt lat="42.9161532" lon="-5.6964162">
        <ele>1403.16</ele>
        <time>2020-07-21T07:34:14.000Z</time>
      </trkpt>
      <trkpt lat="42.9161637" lon="-5.696417">
        <ele>1403.16</ele>
        <time>2020-07-21T07:34:15.000Z</time>
      </trkpt>
      <trkpt lat="42.9161728" lon="-5.6964182">
        <ele>1402.86</ele>
        <time>2020-07-21T07:34:16.000Z</time>
      </trkpt>
      <trkpt lat="42.9161838" lon="-5.6964202">
        <ele>1402.86</ele>
        <time>2020-07-21T07:34:17.000Z</time>
      </trkpt>
      <trkpt lat="42.9161958" lon="-5.6964238">
        <ele>1402.55</ele>
        <time>2020-07-21T07:34:18.000Z</time>
      </trkpt>
      <trkpt lat="42.9162102" lon="-5.6964273">
        <ele>1402.55</ele>
        <time>2020-07-21T07:34:19.000Z</time>
      </trkpt>
      <trkpt lat="42.9162227" lon="-5.6964295">
        <ele>1402.1</ele>
        <time>2020-07-21T07:34:20.000Z</time>
      </trkpt>
      <trkpt lat="42.9162342" lon="-5.6964318">
        <ele>1402.1</ele>
        <time>2020-07-21T07:34:21.000Z</time>
      </trkpt>
      <trkpt lat="42.9162457" lon="-5.696434">
        <ele>1401.79</ele>
        <time>2020-07-21T07:34:22.000Z</time>
      </trkpt>
      <trkpt lat="42.916257" lon="-5.6964367">
        <ele>1401.79</ele>
        <time>2020-07-21T07:34:23.000Z</time>
      </trkpt>
      <trkpt lat="42.916266" lon="-5.696442">
        <ele>1401.33</ele>
        <time>2020-07-21T07:34:24.000Z</time>
      </trkpt>
      <trkpt lat="42.916273" lon="-5.696448">
        <ele>1401.33</ele>
        <time>2020-07-21T07:34:25.000Z</time>
      </trkpt>
      <trkpt lat="42.9162792" lon="-5.6964553">
        <ele>1401.03</ele>
        <time>2020-07-21T07:34:26.000Z</time>
      </trkpt>
      <trkpt lat="42.9162855" lon="-5.6964605">
        <ele>1401.03</ele>
        <time>2020-07-21T07:34:27.000Z</time>
      </trkpt>
      <trkpt lat="42.9162918" lon="-5.6964662">
        <ele>1400.57</ele>
        <time>2020-07-21T07:34:28.000Z</time>
      </trkpt>
      <trkpt lat="42.9162997" lon="-5.6964697">
        <ele>1400.57</ele>
        <time>2020-07-21T07:34:29.000Z</time>
      </trkpt>
      <trkpt lat="42.9163097" lon="-5.696472">
        <ele>1400.27</ele>
        <time>2020-07-21T07:34:30.000Z</time>
      </trkpt>
      <trkpt lat="42.9163232" lon="-5.6964727">
        <ele>1400.27</ele>
        <time>2020-07-21T07:34:31.000Z</time>
      </trkpt>
      <trkpt lat="42.9163355" lon="-5.6964742">
        <ele>1399.81</ele>
        <time>2020-07-21T07:34:32.000Z</time>
      </trkpt>
      <trkpt lat="42.9163475" lon="-5.696477">
        <ele>1399.81</ele>
        <time>2020-07-21T07:34:33.000Z</time>
      </trkpt>
      <trkpt lat="42.9163557" lon="-5.6964812">
        <ele>1399.51</ele>
        <time>2020-07-21T07:34:34.000Z</time>
      </trkpt>
      <trkpt lat="42.9163627" lon="-5.6964845">
        <ele>1399.51</ele>
        <time>2020-07-21T07:34:35.000Z</time>
      </trkpt>
      <trkpt lat="42.9163685" lon="-5.6964875">
        <ele>1399.05</ele>
        <time>2020-07-21T07:34:36.000Z</time>
      </trkpt>
      <trkpt lat="42.9163733" lon="-5.696492">
        <ele>1399.05</ele>
        <time>2020-07-21T07:34:37.000Z</time>
      </trkpt>
      <trkpt lat="42.9163792" lon="-5.696498">
        <ele>1398.74</ele>
        <time>2020-07-21T07:34:38.000Z</time>
      </trkpt>
      <trkpt lat="42.9163885" lon="-5.6965077">
        <ele>1398.74</ele>
        <time>2020-07-21T07:34:39.000Z</time>
      </trkpt>
      <trkpt lat="42.9163992" lon="-5.6965168">
        <ele>1398.29</ele>
        <time>2020-07-21T07:34:40.000Z</time>
      </trkpt>
      <trkpt lat="42.9164107" lon="-5.6965277">
        <ele>1398.29</ele>
        <time>2020-07-21T07:34:41.000Z</time>
      </trkpt>
      <trkpt lat="42.91642" lon="-5.6965365">
        <ele>1397.98</ele>
        <time>2020-07-21T07:34:42.000Z</time>
      </trkpt>
      <trkpt lat="42.9164305" lon="-5.6965452">
        <ele>1397.98</ele>
        <time>2020-07-21T07:34:43.000Z</time>
      </trkpt>
      <trkpt lat="42.9164403" lon="-5.6965542">
        <ele>1397.53</ele>
        <time>2020-07-21T07:34:44.000Z</time>
      </trkpt>
      <trkpt lat="42.916449" lon="-5.696563">
        <ele>1397.53</ele>
        <time>2020-07-21T07:34:45.000Z</time>
      </trkpt>
      <trkpt lat="42.916456" lon="-5.6965738">
        <ele>1397.07</ele>
        <time>2020-07-21T07:34:46.000Z</time>
      </trkpt>
      <trkpt lat="42.916461" lon="-5.6965867">
        <ele>1397.07</ele>
        <time>2020-07-21T07:34:47.000Z</time>
      </trkpt>
      <trkpt lat="42.9164643" lon="-5.6966012">
        <ele>1396.76</ele>
        <time>2020-07-21T07:34:48.000Z</time>
      </trkpt>
      <trkpt lat="42.9164682" lon="-5.6966178">
        <ele>1396.76</ele>
        <time>2020-07-21T07:34:49.000Z</time>
      </trkpt>
      <trkpt lat="42.9164727" lon="-5.6966338">
        <ele>1396.31</ele>
        <time>2020-07-21T07:34:50.000Z</time>
      </trkpt>
      <trkpt lat="42.9164782" lon="-5.6966498">
        <ele>1396.31</ele>
        <time>2020-07-21T07:34:51.000Z</time>
      </trkpt>
      <trkpt lat="42.916483" lon="-5.6966632">
        <ele>1395.85</ele>
        <time>2020-07-21T07:34:52.000Z</time>
      </trkpt>
      <trkpt lat="42.9164877" lon="-5.6966757">
        <ele>1395.85</ele>
        <time>2020-07-21T07:34:53.000Z</time>
      </trkpt>
      <trkpt lat="42.9164952" lon="-5.6966875">
        <ele>1395.54</ele>
        <time>2020-07-21T07:34:54.000Z</time>
      </trkpt>
      <trkpt lat="42.916503" lon="-5.6966993">
        <ele>1395.54</ele>
        <time>2020-07-21T07:34:55.000Z</time>
      </trkpt>
      <trkpt lat="42.9165113" lon="-5.6967113">
        <ele>1395.09</ele>
        <time>2020-07-21T07:34:56.000Z</time>
      </trkpt>
      <trkpt lat="42.9165167" lon="-5.6967243">
        <ele>1395.09</ele>
        <time>2020-07-21T07:34:57.000Z</time>
      </trkpt>
      <trkpt lat="42.9165217" lon="-5.6967373">
        <ele>1394.63</ele>
        <time>2020-07-21T07:34:58.000Z</time>
      </trkpt>
      <trkpt lat="42.9165268" lon="-5.696751">
        <ele>1394.63</ele>
        <time>2020-07-21T07:34:59.000Z</time>
      </trkpt>
      <trkpt lat="42.9165325" lon="-5.6967648">
        <ele>1394.02</ele>
        <time>2020-07-21T07:35:00.000Z</time>
      </trkpt>
      <trkpt lat="42.9165387" lon="-5.6967782">
        <ele>1394.02</ele>
        <time>2020-07-21T07:35:01.000Z</time>
      </trkpt>
      <trkpt lat="42.9165448" lon="-5.696792">
        <ele>1393.56</ele>
        <time>2020-07-21T07:35:02.000Z</time>
      </trkpt>
      <trkpt lat="42.9165505" lon="-5.696807">
        <ele>1393.56</ele>
        <time>2020-07-21T07:35:03.000Z</time>
      </trkpt>
      <trkpt lat="42.916555" lon="-5.6968242">
        <ele>1392.95</ele>
        <time>2020-07-21T07:35:04.000Z</time>
      </trkpt>
      <trkpt lat="42.91656" lon="-5.6968438">
        <ele>1392.95</ele>
        <time>2020-07-21T07:35:05.000Z</time>
      </trkpt>
      <trkpt lat="42.9165643" lon="-5.696864">
        <ele>1392.5</ele>
        <time>2020-07-21T07:35:06.000Z</time>
      </trkpt>
      <trkpt lat="42.9165698" lon="-5.6968832">
        <ele>1392.5</ele>
        <time>2020-07-21T07:35:07.000Z</time>
      </trkpt>
      <trkpt lat="42.916575" lon="-5.6968997">
        <ele>1392.04</ele>
        <time>2020-07-21T07:35:08.000Z</time>
      </trkpt>
      <trkpt lat="42.9165825" lon="-5.6969148">
        <ele>1392.04</ele>
        <time>2020-07-21T07:35:09.000Z</time>
      </trkpt>
      <trkpt lat="42.91659" lon="-5.6969297">
        <ele>1391.43</ele>
        <time>2020-07-21T07:35:10.000Z</time>
      </trkpt>
      <trkpt lat="42.9165978" lon="-5.6969438">
        <ele>1391.43</ele>
        <time>2020-07-21T07:35:11.000Z</time>
      </trkpt>
      <trkpt lat="42.916605" lon="-5.6969575">
        <ele>1390.97</ele>
        <time>2020-07-21T07:35:12.000Z</time>
      </trkpt>
      <trkpt lat="42.9166135" lon="-5.6969703">
        <ele>1390.97</ele>
        <time>2020-07-21T07:35:13.000Z</time>
      </trkpt>
      <trkpt lat="42.9166222" lon="-5.696982">
        <ele>1390.51</ele>
        <time>2020-07-21T07:35:14.000Z</time>
      </trkpt>
      <trkpt lat="42.9166313" lon="-5.696994">
        <ele>1390.51</ele>
        <time>2020-07-21T07:35:15.000Z</time>
      </trkpt>
      <trkpt lat="42.916639" lon="-5.6970068">
        <ele>1389.91</ele>
        <time>2020-07-21T07:35:16.000Z</time>
      </trkpt>
      <trkpt lat="42.9166462" lon="-5.6970212">
        <ele>1389.91</ele>
        <time>2020-07-21T07:35:17.000Z</time>
      </trkpt>
      <trkpt lat="42.916652" lon="-5.6970358">
        <ele>1389.45</ele>
        <time>2020-07-21T07:35:18.000Z</time>
      </trkpt>
      <trkpt lat="42.9166585" lon="-5.6970492">
        <ele>1389.45</ele>
        <time>2020-07-21T07:35:19.000Z</time>
      </trkpt>
      <trkpt lat="42.9166652" lon="-5.6970612">
        <ele>1388.84</ele>
        <time>2020-07-21T07:35:20.000Z</time>
      </trkpt>
      <trkpt lat="42.9166723" lon="-5.6970732">
        <ele>1388.84</ele>
        <time>2020-07-21T07:35:21.000Z</time>
      </trkpt>
      <trkpt lat="42.916679" lon="-5.6970878">
        <ele>1388.38</ele>
        <time>2020-07-21T07:35:22.000Z</time>
      </trkpt>
      <trkpt lat="42.916686" lon="-5.6971042">
        <ele>1388.38</ele>
        <time>2020-07-21T07:35:23.000Z</time>
      </trkpt>
      <trkpt lat="42.9166925" lon="-5.6971213">
        <ele>1387.92</ele>
        <time>2020-07-21T07:35:24.000Z</time>
      </trkpt>
      <trkpt lat="42.9166992" lon="-5.6971385">
        <ele>1387.92</ele>
        <time>2020-07-21T07:35:25.000Z</time>
      </trkpt>
      <trkpt lat="42.9167057" lon="-5.6971558">
        <ele>1387.47</ele>
        <time>2020-07-21T07:35:26.000Z</time>
      </trkpt>
      <trkpt lat="42.916712" lon="-5.697173">
        <ele>1387.47</ele>
        <time>2020-07-21T07:35:27.000Z</time>
      </trkpt>
      <trkpt lat="42.9167178" lon="-5.6971895">
        <ele>1387.01</ele>
        <time>2020-07-21T07:35:28.000Z</time>
      </trkpt>
      <trkpt lat="42.916723" lon="-5.6972052">
        <ele>1387.01</ele>
        <time>2020-07-21T07:35:29.000Z</time>
      </trkpt>
      <trkpt lat="42.9167278" lon="-5.6972198">
        <ele>1386.55</ele>
        <time>2020-07-21T07:35:30.000Z</time>
      </trkpt>
      <trkpt lat="42.9167343" lon="-5.6972335">
        <ele>1386.55</ele>
        <time>2020-07-21T07:35:31.000Z</time>
      </trkpt>
      <trkpt lat="42.9167408" lon="-5.6972487">
        <ele>1386.09</ele>
        <time>2020-07-21T07:35:32.000Z</time>
      </trkpt>
      <trkpt lat="42.9167473" lon="-5.6972633">
        <ele>1386.09</ele>
        <time>2020-07-21T07:35:33.000Z</time>
      </trkpt>
      <trkpt lat="42.9167523" lon="-5.6972792">
        <ele>1385.79</ele>
        <time>2020-07-21T07:35:34.000Z</time>
      </trkpt>
      <trkpt lat="42.916758" lon="-5.697294">
        <ele>1385.79</ele>
        <time>2020-07-21T07:35:35.000Z</time>
      </trkpt>
      <trkpt lat="42.9167667" lon="-5.6973077">
        <ele>1385.33</ele>
        <time>2020-07-21T07:35:36.000Z</time>
      </trkpt>
      <trkpt lat="42.9167773" lon="-5.6973202">
        <ele>1385.33</ele>
        <time>2020-07-21T07:35:37.000Z</time>
      </trkpt>
      <trkpt lat="42.916789" lon="-5.6973332">
        <ele>1385.03</ele>
        <time>2020-07-21T07:35:38.000Z</time>
      </trkpt>
      <trkpt lat="42.9167998" lon="-5.697347">
        <ele>1385.03</ele>
        <time>2020-07-21T07:35:39.000Z</time>
      </trkpt>
      <trkpt lat="42.9168097" lon="-5.6973605">
        <ele>1384.57</ele>
        <time>2020-07-21T07:35:40.000Z</time>
      </trkpt>
      <trkpt lat="42.9168195" lon="-5.6973733">
        <ele>1384.57</ele>
        <time>2020-07-21T07:35:41.000Z</time>
      </trkpt>
      <trkpt lat="42.9168295" lon="-5.6973865">
        <ele>1384.27</ele>
        <time>2020-07-21T07:35:42.000Z</time>
      </trkpt>
      <trkpt lat="42.916839" lon="-5.6974007">
        <ele>1384.27</ele>
        <time>2020-07-21T07:35:43.000Z</time>
      </trkpt>
      <trkpt lat="42.916848" lon="-5.6974147">
        <ele>1383.96</ele>
        <time>2020-07-21T07:35:44.000Z</time>
      </trkpt>
      <trkpt lat="42.9168563" lon="-5.6974285">
        <ele>1383.96</ele>
        <time>2020-07-21T07:35:45.000Z</time>
      </trkpt>
      <trkpt lat="42.9168657" lon="-5.6974403">
        <ele>1383.5</ele>
        <time>2020-07-21T07:35:46.000Z</time>
      </trkpt>
      <trkpt lat="42.9168753" lon="-5.6974513">
        <ele>1383.5</ele>
        <time>2020-07-21T07:35:47.000Z</time>
      </trkpt>
      <trkpt lat="42.9168857" lon="-5.6974618">
        <ele>1383.2</ele>
        <time>2020-07-21T07:35:48.000Z</time>
      </trkpt>
      <trkpt lat="42.9168968" lon="-5.697472">
        <ele>1383.2</ele>
        <time>2020-07-21T07:35:49.000Z</time>
      </trkpt>
      <trkpt lat="42.9169078" lon="-5.697483">
        <ele>1382.89</ele>
        <time>2020-07-21T07:35:50.000Z</time>
      </trkpt>
      <trkpt lat="42.9169175" lon="-5.697495">
        <ele>1382.89</ele>
        <time>2020-07-21T07:35:51.000Z</time>
      </trkpt>
      <trkpt lat="42.9169263" lon="-5.6975075">
        <ele>1382.44</ele>
        <time>2020-07-21T07:35:52.000Z</time>
      </trkpt>
      <trkpt lat="42.9169357" lon="-5.6975197">
        <ele>1382.44</ele>
        <time>2020-07-21T07:35:53.000Z</time>
      </trkpt>
      <trkpt lat="42.9169465" lon="-5.6975317">
        <ele>1382.13</ele>
        <time>2020-07-21T07:35:54.000Z</time>
      </trkpt>
      <trkpt lat="42.9169575" lon="-5.6975447">
        <ele>1382.13</ele>
        <time>2020-07-21T07:35:55.000Z</time>
      </trkpt>
      <trkpt lat="42.9169683" lon="-5.6975573">
        <ele>1381.68</ele>
        <time>2020-07-21T07:35:56.000Z</time>
      </trkpt>
      <trkpt lat="42.9169782" lon="-5.6975687">
        <ele>1381.68</ele>
        <time>2020-07-21T07:35:57.000Z</time>
      </trkpt>
      <trkpt lat="42.916989" lon="-5.6975778">
        <ele>1381.22</ele>
        <time>2020-07-21T07:35:58.000Z</time>
      </trkpt>
      <trkpt lat="42.9170003" lon="-5.6975853">
        <ele>1381.22</ele>
        <time>2020-07-21T07:35:59.000Z</time>
      </trkpt>
      <trkpt lat="42.917012" lon="-5.6975928">
        <ele>1380.91</ele>
        <time>2020-07-21T07:36:00.000Z</time>
      </trkpt>
      <trkpt lat="42.917021" lon="-5.6976022">
        <ele>1380.91</ele>
        <time>2020-07-21T07:36:01.000Z</time>
      </trkpt>
      <trkpt lat="42.9170287" lon="-5.6976142">
        <ele>1380.46</ele>
        <time>2020-07-21T07:36:02.000Z</time>
      </trkpt>
      <trkpt lat="42.9170367" lon="-5.6976255">
        <ele>1380.46</ele>
        <time>2020-07-21T07:36:03.000Z</time>
      </trkpt>
      <trkpt lat="42.9170458" lon="-5.6976353">
        <ele>1380.15</ele>
        <time>2020-07-21T07:36:04.000Z</time>
      </trkpt>
      <trkpt lat="42.9170562" lon="-5.697642">
        <ele>1380.15</ele>
        <time>2020-07-21T07:36:05.000Z</time>
      </trkpt>
      <trkpt lat="42.9170673" lon="-5.6976497">
        <ele>1379.85</ele>
        <time>2020-07-21T07:36:06.000Z</time>
      </trkpt>
      <trkpt lat="42.9170788" lon="-5.697658">
        <ele>1379.85</ele>
        <time>2020-07-21T07:36:07.000Z</time>
      </trkpt>
      <trkpt lat="42.91709" lon="-5.6976683">
        <ele>1379.54</ele>
        <time>2020-07-21T07:36:08.000Z</time>
      </trkpt>
      <trkpt lat="42.9170998" lon="-5.6976785">
        <ele>1379.54</ele>
        <time>2020-07-21T07:36:09.000Z</time>
      </trkpt>
      <trkpt lat="42.9171093" lon="-5.6976888">
        <ele>1379.24</ele>
        <time>2020-07-21T07:36:10.000Z</time>
      </trkpt>
      <trkpt lat="42.917118" lon="-5.6976993">
        <ele>1379.24</ele>
        <time>2020-07-21T07:36:11.000Z</time>
      </trkpt>
      <trkpt lat="42.9171267" lon="-5.69771">
        <ele>1378.93</ele>
        <time>2020-07-21T07:36:12.000Z</time>
      </trkpt>
      <trkpt lat="42.9171348" lon="-5.6977207">
        <ele>1378.93</ele>
        <time>2020-07-21T07:36:13.000Z</time>
      </trkpt>
      <trkpt lat="42.9171425" lon="-5.6977302">
        <ele>1378.63</ele>
        <time>2020-07-21T07:36:14.000Z</time>
      </trkpt>
      <trkpt lat="42.9171505" lon="-5.6977402">
        <ele>1378.63</ele>
        <time>2020-07-21T07:36:15.000Z</time>
      </trkpt>
      <trkpt lat="42.9171602" lon="-5.6977492">
        <ele>1378.32</ele>
        <time>2020-07-21T07:36:16.000Z</time>
      </trkpt>
      <trkpt lat="42.9171708" lon="-5.697758">
        <ele>1378.32</ele>
        <time>2020-07-21T07:36:17.000Z</time>
      </trkpt>
      <trkpt lat="42.917181" lon="-5.6977635">
        <ele>1378.17</ele>
        <time>2020-07-21T07:36:18.000Z</time>
      </trkpt>
      <trkpt lat="42.9171872" lon="-5.6977678">
        <ele>1378.17</ele>
        <time>2020-07-21T07:36:19.000Z</time>
      </trkpt>
      <trkpt lat="42.9171923" lon="-5.6977717">
        <ele>1378.02</ele>
        <time>2020-07-21T07:36:20.000Z</time>
      </trkpt>
      <trkpt lat="42.9171973" lon="-5.6977783">
        <ele>1378.02</ele>
        <time>2020-07-21T07:36:21.000Z</time>
      </trkpt>
      <trkpt lat="42.9172062" lon="-5.6977855">
        <ele>1377.71</ele>
        <time>2020-07-21T07:36:22.000Z</time>
      </trkpt>
      <trkpt lat="42.9172157" lon="-5.6977933">
        <ele>1377.71</ele>
        <time>2020-07-21T07:36:23.000Z</time>
      </trkpt>
      <trkpt lat="42.9172257" lon="-5.6978007">
        <ele>1377.56</ele>
        <time>2020-07-21T07:36:24.000Z</time>
      </trkpt>
      <trkpt lat="42.917234" lon="-5.6978095">
        <ele>1377.56</ele>
        <time>2020-07-21T07:36:25.000Z</time>
      </trkpt>
      <trkpt lat="42.917243" lon="-5.697818">
        <ele>1377.41</ele>
        <time>2020-07-21T07:36:26.000Z</time>
      </trkpt>
      <trkpt lat="42.9172525" lon="-5.697828">
        <ele>1377.41</ele>
        <time>2020-07-21T07:36:27.000Z</time>
      </trkpt>
      <trkpt lat="42.9172627" lon="-5.6978375">
        <ele>1377.26</ele>
        <time>2020-07-21T07:36:28.000Z</time>
      </trkpt>
      <trkpt lat="42.917274" lon="-5.6978452">
        <ele>1377.26</ele>
        <time>2020-07-21T07:36:29.000Z</time>
      </trkpt>
      <trkpt lat="42.9172863" lon="-5.69785">
        <ele>1377.1</ele>
        <time>2020-07-21T07:36:30.000Z</time>
      </trkpt>
      <trkpt lat="42.9172987" lon="-5.6978532">
        <ele>1377.1</ele>
        <time>2020-07-21T07:36:31.000Z</time>
      </trkpt>
      <trkpt lat="42.917311" lon="-5.6978572">
        <ele>1377.1</ele>
        <time>2020-07-21T07:36:32.000Z</time>
      </trkpt>
      <trkpt lat="42.917322" lon="-5.6978608">
        <ele>1377.1</ele>
        <time>2020-07-21T07:36:33.000Z</time>
      </trkpt>
      <trkpt lat="42.9173335" lon="-5.6978648">
        <ele>1376.95</ele>
        <time>2020-07-21T07:36:34.000Z</time>
      </trkpt>
      <trkpt lat="42.9173445" lon="-5.6978685">
        <ele>1376.95</ele>
        <time>2020-07-21T07:36:35.000Z</time>
      </trkpt>
      <trkpt lat="42.9173553" lon="-5.6978715">
        <ele>1376.95</ele>
        <time>2020-07-21T07:36:36.000Z</time>
      </trkpt>
      <trkpt lat="42.9173658" lon="-5.6978733">
        <ele>1376.95</ele>
        <time>2020-07-21T07:36:37.000Z</time>
      </trkpt>
      <trkpt lat="42.917377" lon="-5.6978723">
        <ele>1376.95</ele>
        <time>2020-07-21T07:36:38.000Z</time>
      </trkpt>
      <trkpt lat="42.9173893" lon="-5.6978702">
        <ele>1376.95</ele>
        <time>2020-07-21T07:36:39.000Z</time>
      </trkpt>
      <trkpt lat="42.9174027" lon="-5.6978672">
        <ele>1376.95</ele>
        <time>2020-07-21T07:36:40.000Z</time>
      </trkpt>
      <trkpt lat="42.917415" lon="-5.6978655">
        <ele>1376.95</ele>
        <time>2020-07-21T07:36:41.000Z</time>
      </trkpt>
      <trkpt lat="42.9174263" lon="-5.6978655">
        <ele>1377.1</ele>
        <time>2020-07-21T07:36:42.000Z</time>
      </trkpt>
      <trkpt lat="42.917436" lon="-5.6978667">
        <ele>1377.1</ele>
        <time>2020-07-21T07:36:43.000Z</time>
      </trkpt>
      <trkpt lat="42.9174458" lon="-5.6978693">
        <ele>1377.1</ele>
        <time>2020-07-21T07:36:44.000Z</time>
      </trkpt>
      <trkpt lat="42.917456" lon="-5.697872">
        <ele>1377.1</ele>
        <time>2020-07-21T07:36:45.000Z</time>
      </trkpt>
      <trkpt lat="42.9174663" lon="-5.6978745">
        <ele>1377.26</ele>
        <time>2020-07-21T07:36:46.000Z</time>
      </trkpt>
      <trkpt lat="42.9174767" lon="-5.6978775">
        <ele>1377.26</ele>
        <time>2020-07-21T07:36:47.000Z</time>
      </trkpt>
      <trkpt lat="42.9174862" lon="-5.697882">
        <ele>1377.41</ele>
        <time>2020-07-21T07:36:48.000Z</time>
      </trkpt>
      <trkpt lat="42.9174963" lon="-5.6978868">
        <ele>1377.41</ele>
        <time>2020-07-21T07:36:49.000Z</time>
      </trkpt>
      <trkpt lat="42.9175072" lon="-5.6978903">
        <ele>1377.71</ele>
        <time>2020-07-21T07:36:50.000Z</time>
      </trkpt>
      <trkpt lat="42.9175178" lon="-5.697893">
        <ele>1377.71</ele>
        <time>2020-07-21T07:36:51.000Z</time>
      </trkpt>
      <trkpt lat="42.9175285" lon="-5.697897">
        <ele>1378.02</ele>
        <time>2020-07-21T07:36:52.000Z</time>
      </trkpt>
      <trkpt lat="42.9175382" lon="-5.697903">
        <ele>1378.02</ele>
        <time>2020-07-21T07:36:53.000Z</time>
      </trkpt>
      <trkpt lat="42.9175482" lon="-5.6979105">
        <ele>1378.32</ele>
        <time>2020-07-21T07:36:54.000Z</time>
      </trkpt>
      <trkpt lat="42.9175593" lon="-5.6979185">
        <ele>1378.32</ele>
        <time>2020-07-21T07:36:55.000Z</time>
      </trkpt>
      <trkpt lat="42.9175708" lon="-5.6979272">
        <ele>1378.63</ele>
        <time>2020-07-21T07:36:56.000Z</time>
      </trkpt>
      <trkpt lat="42.9175832" lon="-5.6979362">
        <ele>1378.63</ele>
        <time>2020-07-21T07:36:57.000Z</time>
      </trkpt>
      <trkpt lat="42.9175947" lon="-5.6979465">
        <ele>1378.93</ele>
        <time>2020-07-21T07:36:58.000Z</time>
      </trkpt>
      <trkpt lat="42.917608" lon="-5.697957">
        <ele>1378.93</ele>
        <time>2020-07-21T07:36:59.000Z</time>
      </trkpt>
      <trkpt lat="42.9176212" lon="-5.697968">
        <ele>1379.24</ele>
        <time>2020-07-21T07:37:00.000Z</time>
      </trkpt>
      <trkpt lat="42.917634" lon="-5.6979785">
        <ele>1379.24</ele>
        <time>2020-07-21T07:37:01.000Z</time>
      </trkpt>
      <trkpt lat="42.9176455" lon="-5.697989">
        <ele>1379.69</ele>
        <time>2020-07-21T07:37:02.000Z</time>
      </trkpt>
      <trkpt lat="42.9176568" lon="-5.6980003">
        <ele>1379.69</ele>
        <time>2020-07-21T07:37:03.000Z</time>
      </trkpt>
      <trkpt lat="42.917669" lon="-5.6980117">
        <ele>1380.15</ele>
        <time>2020-07-21T07:37:04.000Z</time>
      </trkpt>
      <trkpt lat="42.9176793" lon="-5.6980242">
        <ele>1380.15</ele>
        <time>2020-07-21T07:37:05.000Z</time>
      </trkpt>
      <trkpt lat="42.9176902" lon="-5.6980342">
        <ele>1380.61</ele>
        <time>2020-07-21T07:37:06.000Z</time>
      </trkpt>
      <trkpt lat="42.9177003" lon="-5.6980452">
        <ele>1380.61</ele>
        <time>2020-07-21T07:37:07.000Z</time>
      </trkpt>
      <trkpt lat="42.917712" lon="-5.698056">
        <ele>1381.07</ele>
        <time>2020-07-21T07:37:08.000Z</time>
      </trkpt>
      <trkpt lat="42.9177223" lon="-5.6980683">
        <ele>1381.07</ele>
        <time>2020-07-21T07:37:09.000Z</time>
      </trkpt>
      <trkpt lat="42.9177325" lon="-5.6980802">
        <ele>1381.37</ele>
        <time>2020-07-21T07:37:10.000Z</time>
      </trkpt>
      <trkpt lat="42.9177423" lon="-5.6980903">
        <ele>1381.37</ele>
        <time>2020-07-21T07:37:11.000Z</time>
      </trkpt>
      <trkpt lat="42.9177523" lon="-5.6980995">
        <ele>1381.83</ele>
        <time>2020-07-21T07:37:12.000Z</time>
      </trkpt>
      <trkpt lat="42.917763" lon="-5.6981087">
        <ele>1381.83</ele>
        <time>2020-07-21T07:37:13.000Z</time>
      </trkpt>
      <trkpt lat="42.9177737" lon="-5.6981197">
        <ele>1382.13</ele>
        <time>2020-07-21T07:37:14.000Z</time>
      </trkpt>
      <trkpt lat="42.9177837" lon="-5.6981312">
        <ele>1382.13</ele>
        <time>2020-07-21T07:37:15.000Z</time>
      </trkpt>
      <trkpt lat="42.9177937" lon="-5.6981407">
        <ele>1382.59</ele>
        <time>2020-07-21T07:37:16.000Z</time>
      </trkpt>
      <trkpt lat="42.917804" lon="-5.6981478">
        <ele>1382.59</ele>
        <time>2020-07-21T07:37:17.000Z</time>
      </trkpt>
      <trkpt lat="42.9178143" lon="-5.6981538">
        <ele>1382.89</ele>
        <time>2020-07-21T07:37:18.000Z</time>
      </trkpt>
      <trkpt lat="42.9178233" lon="-5.6981603">
        <ele>1382.89</ele>
        <time>2020-07-21T07:37:19.000Z</time>
      </trkpt>
      <trkpt lat="42.9178318" lon="-5.6981672">
        <ele>1383.35</ele>
        <time>2020-07-21T07:37:20.000Z</time>
      </trkpt>
      <trkpt lat="42.9178395" lon="-5.6981753">
        <ele>1383.35</ele>
        <time>2020-07-21T07:37:21.000Z</time>
      </trkpt>
      <trkpt lat="42.9178492" lon="-5.6981878">
        <ele>1383.66</ele>
        <time>2020-07-21T07:37:22.000Z</time>
      </trkpt>
      <trkpt lat="42.917858" lon="-5.6982007">
        <ele>1383.66</ele>
        <time>2020-07-21T07:37:23.000Z</time>
      </trkpt>
      <trkpt lat="42.917866" lon="-5.698212">
        <ele>1383.96</ele>
        <time>2020-07-21T07:37:24.000Z</time>
      </trkpt>
      <trkpt lat="42.917873" lon="-5.6982195">
        <ele>1383.96</ele>
        <time>2020-07-21T07:37:25.000Z</time>
      </trkpt>
      <trkpt lat="42.9178808" lon="-5.698227">
        <ele>1384.27</ele>
        <time>2020-07-21T07:37:26.000Z</time>
      </trkpt>
      <trkpt lat="42.9178887" lon="-5.6982373">
        <ele>1384.27</ele>
        <time>2020-07-21T07:37:27.000Z</time>
      </trkpt>
      <trkpt lat="42.917895" lon="-5.6982477">
        <ele>1384.57</ele>
        <time>2020-07-21T07:37:28.000Z</time>
      </trkpt>
      <trkpt lat="42.9178998" lon="-5.6982563">
        <ele>1384.57</ele>
        <time>2020-07-21T07:37:29.000Z</time>
      </trkpt>
      <trkpt lat="42.917902" lon="-5.6982623">
        <ele>1384.88</ele>
        <time>2020-07-21T07:37:30.000Z</time>
      </trkpt>
      <trkpt lat="42.917905" lon="-5.698268">
        <ele>1384.88</ele>
        <time>2020-07-21T07:37:31.000Z</time>
      </trkpt>
      <trkpt lat="42.9179118" lon="-5.698277">
        <ele>1385.03</ele>
        <time>2020-07-21T07:37:32.000Z</time>
      </trkpt>
      <trkpt lat="42.9179228" lon="-5.6982867">
        <ele>1385.03</ele>
        <time>2020-07-21T07:37:33.000Z</time>
      </trkpt>
      <trkpt lat="42.9179348" lon="-5.6982965">
        <ele>1385.18</ele>
        <time>2020-07-21T07:37:34.000Z</time>
      </trkpt>
      <trkpt lat="42.917945" lon="-5.6983047">
        <ele>1385.18</ele>
        <time>2020-07-21T07:37:35.000Z</time>
      </trkpt>
      <trkpt lat="42.9179538" lon="-5.6983123">
        <ele>1385.33</ele>
        <time>2020-07-21T07:37:36.000Z</time>
      </trkpt>
      <trkpt lat="42.917962" lon="-5.6983188">
        <ele>1385.33</ele>
        <time>2020-07-21T07:37:37.000Z</time>
      </trkpt>
      <trkpt lat="42.91797" lon="-5.6983248">
        <ele>1385.48</ele>
        <time>2020-07-21T07:37:38.000Z</time>
      </trkpt>
      <trkpt lat="42.9179782" lon="-5.6983312">
        <ele>1385.48</ele>
        <time>2020-07-21T07:37:39.000Z</time>
      </trkpt>
      <trkpt lat="42.9179868" lon="-5.6983408">
        <ele>1385.64</ele>
        <time>2020-07-21T07:37:40.000Z</time>
      </trkpt>
      <trkpt lat="42.9179952" lon="-5.6983518">
        <ele>1385.64</ele>
        <time>2020-07-21T07:37:41.000Z</time>
      </trkpt>
      <trkpt lat="42.9180032" lon="-5.6983623">
        <ele>1385.79</ele>
        <time>2020-07-21T07:37:42.000Z</time>
      </trkpt>
      <trkpt lat="42.9180068" lon="-5.698374">
        <ele>1385.79</ele>
        <time>2020-07-21T07:37:43.000Z</time>
      </trkpt>
      <trkpt lat="42.9180052" lon="-5.6983837">
        <ele>1385.94</ele>
        <time>2020-07-21T07:37:44.000Z</time>
      </trkpt>
      <trkpt lat="42.9180013" lon="-5.6983913">
        <ele>1385.94</ele>
        <time>2020-07-21T07:37:45.000Z</time>
      </trkpt>
      <trkpt lat="42.9179985" lon="-5.6983945">
        <ele>1385.94</ele>
        <time>2020-07-21T07:37:46.000Z</time>
      </trkpt>
      <trkpt lat="42.9179987" lon="-5.698397">
        <ele>1385.94</ele>
        <time>2020-07-21T07:37:47.000Z</time>
      </trkpt>
      <trkpt lat="42.9179992" lon="-5.6984005">
        <ele>1385.94</ele>
        <time>2020-07-21T07:37:48.000Z</time>
      </trkpt>
      <trkpt lat="42.9180005" lon="-5.6984038">
        <ele>1385.94</ele>
        <time>2020-07-21T07:37:49.000Z</time>
      </trkpt>
      <trkpt lat="42.918002" lon="-5.698407">
        <ele>1385.94</ele>
        <time>2020-07-21T07:37:50.000Z</time>
      </trkpt>
      <trkpt lat="42.9180028" lon="-5.6984102">
        <ele>1385.94</ele>
        <time>2020-07-21T07:37:51.000Z</time>
      </trkpt>
      <trkpt lat="42.9180025" lon="-5.6984128">
        <ele>1385.94</ele>
        <time>2020-07-21T07:37:52.000Z</time>
      </trkpt>
      <trkpt lat="42.9180012" lon="-5.6984155">
        <ele>1385.94</ele>
        <time>2020-07-21T07:37:53.000Z</time>
      </trkpt>
      <trkpt lat="42.9179992" lon="-5.6984187">
        <ele>1385.79</ele>
        <time>2020-07-21T07:37:54.000Z</time>
      </trkpt>
      <trkpt lat="42.917997" lon="-5.698423">
        <ele>1385.79</ele>
        <time>2020-07-21T07:37:55.000Z</time>
      </trkpt>
      <trkpt lat="42.9179932" lon="-5.6984257">
        <ele>1385.79</ele>
        <time>2020-07-21T07:37:56.000Z</time>
      </trkpt>
      <trkpt lat="42.9179915" lon="-5.6984267">
        <ele>1385.79</ele>
        <time>2020-07-21T07:37:57.000Z</time>
      </trkpt>
      <trkpt lat="42.9179918" lon="-5.6984253">
        <ele>1385.64</ele>
        <time>2020-07-21T07:37:58.000Z</time>
      </trkpt>
      <trkpt lat="42.9179938" lon="-5.6984247">
        <ele>1385.64</ele>
        <time>2020-07-21T07:37:59.000Z</time>
      </trkpt>
      <trkpt lat="42.9179942" lon="-5.6984233">
        <ele>1385.48</ele>
        <time>2020-07-21T07:38:00.000Z</time>
      </trkpt>
      <trkpt lat="42.9179927" lon="-5.6984232">
        <ele>1385.48</ele>
        <time>2020-07-21T07:38:01.000Z</time>
      </trkpt>
      <trkpt lat="42.9179908" lon="-5.6984233">
        <ele>1385.33</ele>
        <time>2020-07-21T07:38:02.000Z</time>
      </trkpt>
      <trkpt lat="42.9179913" lon="-5.6984247">
        <ele>1385.33</ele>
        <time>2020-07-21T07:38:03.000Z</time>
      </trkpt>
      <trkpt lat="42.9179925" lon="-5.6984258">
        <ele>1385.03</ele>
        <time>2020-07-21T07:38:04.000Z</time>
      </trkpt>
      <trkpt lat="42.917994" lon="-5.6984273">
        <ele>1385.03</ele>
        <time>2020-07-21T07:38:05.000Z</time>
      </trkpt>
      <trkpt lat="42.9179935" lon="-5.6984283">
        <ele>1384.88</ele>
        <time>2020-07-21T07:38:06.000Z</time>
      </trkpt>
      <trkpt lat="42.9179933" lon="-5.6984288">
        <ele>1384.88</ele>
        <time>2020-07-21T07:38:07.000Z</time>
      </trkpt>
      <trkpt lat="42.9179938" lon="-5.6984297">
        <ele>1384.57</ele>
        <time>2020-07-21T07:38:08.000Z</time>
      </trkpt>
      <trkpt lat="42.9179945" lon="-5.6984303">
        <ele>1384.57</ele>
        <time>2020-07-21T07:38:09.000Z</time>
      </trkpt>
      <trkpt lat="42.9179948" lon="-5.6984318">
        <ele>1384.42</ele>
        <time>2020-07-21T07:38:10.000Z</time>
      </trkpt>
      <trkpt lat="42.9179948" lon="-5.698433">
        <ele>1384.42</ele>
        <time>2020-07-21T07:38:11.000Z</time>
      </trkpt>
      <trkpt lat="42.9179947" lon="-5.6984342">
        <ele>1384.11</ele>
        <time>2020-07-21T07:38:12.000Z</time>
      </trkpt>
      <trkpt lat="42.9179948" lon="-5.698436">
        <ele>1384.11</ele>
        <time>2020-07-21T07:38:13.000Z</time>
      </trkpt>
      <trkpt lat="42.917995" lon="-5.6984378">
        <ele>1383.96</ele>
        <time>2020-07-21T07:38:14.000Z</time>
      </trkpt>
      <trkpt lat="42.9179948" lon="-5.6984403">
        <ele>1383.96</ele>
        <time>2020-07-21T07:38:15.000Z</time>
      </trkpt>
      <trkpt lat="42.9179948" lon="-5.698442">
        <ele>1383.96</ele>
        <time>2020-07-21T07:38:16.000Z</time>
      </trkpt>
      <trkpt lat="42.9179948" lon="-5.698443">
        <ele>1383.96</ele>
        <time>2020-07-21T07:38:17.000Z</time>
      </trkpt>
      <trkpt lat="42.917995" lon="-5.6984437">
        <ele>1383.81</ele>
        <time>2020-07-21T07:38:18.000Z</time>
      </trkpt>
      <trkpt lat="42.9179953" lon="-5.6984437">
        <ele>1383.81</ele>
        <time>2020-07-21T07:38:19.000Z</time>
      </trkpt>
      <trkpt lat="42.917996" lon="-5.6984437">
        <ele>1383.81</ele>
        <time>2020-07-21T07:38:20.000Z</time>
      </trkpt>
      <trkpt lat="42.9179968" lon="-5.6984428">
        <ele>1383.81</ele>
        <time>2020-07-21T07:38:21.000Z</time>
      </trkpt>
      <trkpt lat="42.9179983" lon="-5.6984422">
        <ele>1383.66</ele>
        <time>2020-07-21T07:38:22.000Z</time>
      </trkpt>
      <trkpt lat="42.918" lon="-5.698441">
        <ele>1383.66</ele>
        <time>2020-07-21T07:38:23.000Z</time>
      </trkpt>
      <trkpt lat="42.9180018" lon="-5.69844">
        <ele>1383.66</ele>
        <time>2020-07-21T07:38:24.000Z</time>
      </trkpt>
      <trkpt lat="42.9180038" lon="-5.698439">
        <ele>1383.66</ele>
        <time>2020-07-21T07:38:25.000Z</time>
      </trkpt>
      <trkpt lat="42.9180058" lon="-5.6984392">
        <ele>1383.66</ele>
        <time>2020-07-21T07:38:26.000Z</time>
      </trkpt>
      <trkpt lat="42.9180073" lon="-5.6984395">
        <ele>1383.66</ele>
        <time>2020-07-21T07:38:27.000Z</time>
      </trkpt>
      <trkpt lat="42.9180087" lon="-5.6984397">
        <ele>1383.5</ele>
        <time>2020-07-21T07:38:28.000Z</time>
      </trkpt>
      <trkpt lat="42.9180102" lon="-5.6984392">
        <ele>1383.5</ele>
        <time>2020-07-21T07:38:29.000Z</time>
      </trkpt>
      <trkpt lat="42.9180117" lon="-5.6984387">
        <ele>1383.5</ele>
        <time>2020-07-21T07:38:30.000Z</time>
      </trkpt>
      <trkpt lat="42.9180132" lon="-5.6984388">
        <ele>1383.5</ele>
        <time>2020-07-21T07:38:31.000Z</time>
      </trkpt>
      <trkpt lat="42.9180145" lon="-5.6984393">
        <ele>1383.5</ele>
        <time>2020-07-21T07:38:32.000Z</time>
      </trkpt>
      <trkpt lat="42.918016" lon="-5.6984415">
        <ele>1383.5</ele>
        <time>2020-07-21T07:38:33.000Z</time>
      </trkpt>
      <trkpt lat="42.9180178" lon="-5.698443">
        <ele>1383.35</ele>
        <time>2020-07-21T07:38:34.000Z</time>
      </trkpt>
      <trkpt lat="42.9180197" lon="-5.6984447">
        <ele>1383.35</ele>
        <time>2020-07-21T07:38:35.000Z</time>
      </trkpt>
      <trkpt lat="42.9180208" lon="-5.6984462">
        <ele>1383.35</ele>
        <time>2020-07-21T07:38:36.000Z</time>
      </trkpt>
      <trkpt lat="42.9180218" lon="-5.6984487">
        <ele>1383.35</ele>
        <time>2020-07-21T07:38:37.000Z</time>
      </trkpt>
      <trkpt lat="42.918026" lon="-5.6984507">
        <ele>1383.35</ele>
        <time>2020-07-21T07:38:38.000Z</time>
      </trkpt>
      <trkpt lat="42.9180308" lon="-5.6984532">
        <ele>1383.35</ele>
        <time>2020-07-21T07:38:39.000Z</time>
      </trkpt>
      <trkpt lat="42.918036" lon="-5.6984582">
        <ele>1383.2</ele>
        <time>2020-07-21T07:38:40.000Z</time>
      </trkpt>
      <trkpt lat="42.9180378" lon="-5.6984663">
        <ele>1383.2</ele>
        <time>2020-07-21T07:38:41.000Z</time>
      </trkpt>
      <trkpt lat="42.9180392" lon="-5.698473">
        <ele>1383.2</ele>
        <time>2020-07-21T07:38:42.000Z</time>
      </trkpt>
      <trkpt lat="42.9180418" lon="-5.6984748">
        <ele>1383.2</ele>
        <time>2020-07-21T07:38:43.000Z</time>
      </trkpt>
      <trkpt lat="42.918045" lon="-5.698473">
        <ele>1383.05</ele>
        <time>2020-07-21T07:38:44.000Z</time>
      </trkpt>
      <trkpt lat="42.9180478" lon="-5.6984717">
        <ele>1383.05</ele>
        <time>2020-07-21T07:38:45.000Z</time>
      </trkpt>
      <trkpt lat="42.9180483" lon="-5.6984725">
        <ele>1383.05</ele>
        <time>2020-07-21T07:38:46.000Z</time>
      </trkpt>
      <trkpt lat="42.918048" lon="-5.6984752">
        <ele>1383.05</ele>
        <time>2020-07-21T07:38:47.000Z</time>
      </trkpt>
      <trkpt lat="42.9180472" lon="-5.6984783">
        <ele>1382.89</ele>
        <time>2020-07-21T07:38:48.000Z</time>
      </trkpt>
      <trkpt lat="42.9180465" lon="-5.6984823">
        <ele>1382.89</ele>
        <time>2020-07-21T07:38:49.000Z</time>
      </trkpt>
      <trkpt lat="42.9180453" lon="-5.6984868">
        <ele>1382.89</ele>
        <time>2020-07-21T07:38:50.000Z</time>
      </trkpt>
      <trkpt lat="42.918044" lon="-5.6984918">
        <ele>1382.89</ele>
        <time>2020-07-21T07:38:51.000Z</time>
      </trkpt>
      <trkpt lat="42.9180442" lon="-5.6984953">
        <ele>1382.74</ele>
        <time>2020-07-21T07:38:52.000Z</time>
      </trkpt>
      <trkpt lat="42.9180445" lon="-5.6984975">
        <ele>1382.74</ele>
        <time>2020-07-21T07:38:53.000Z</time>
      </trkpt>
      <trkpt lat="42.9180432" lon="-5.6984988">
        <ele>1382.59</ele>
        <time>2020-07-21T07:38:54.000Z</time>
      </trkpt>
      <trkpt lat="42.9180413" lon="-5.6985015">
        <ele>1382.59</ele>
        <time>2020-07-21T07:38:55.000Z</time>
      </trkpt>
      <trkpt lat="42.9180402" lon="-5.6985058">
        <ele>1382.59</ele>
        <time>2020-07-21T07:38:56.000Z</time>
      </trkpt>
      <trkpt lat="42.9180413" lon="-5.6985095">
        <ele>1382.59</ele>
        <time>2020-07-21T07:38:57.000Z</time>
      </trkpt>
      <trkpt lat="42.9180422" lon="-5.698513">
        <ele>1382.44</ele>
        <time>2020-07-21T07:38:58.000Z</time>
      </trkpt>
      <trkpt lat="42.9180425" lon="-5.698515">
        <ele>1382.44</ele>
        <time>2020-07-21T07:38:59.000Z</time>
      </trkpt>
      <trkpt lat="42.9180428" lon="-5.6985195">
        <ele>1382.44</ele>
        <time>2020-07-21T07:39:00.000Z</time>
      </trkpt>
      <trkpt lat="42.9180435" lon="-5.6985263">
        <ele>1382.44</ele>
        <time>2020-07-21T07:39:01.000Z</time>
      </trkpt>
      <trkpt lat="42.9180443" lon="-5.6985343">
        <ele>1382.29</ele>
        <time>2020-07-21T07:39:02.000Z</time>
      </trkpt>
      <trkpt lat="42.9180445" lon="-5.6985433">
        <ele>1382.29</ele>
        <time>2020-07-21T07:39:03.000Z</time>
      </trkpt>
      <trkpt lat="42.9180448" lon="-5.698551">
        <ele>1382.29</ele>
        <time>2020-07-21T07:39:04.000Z</time>
      </trkpt>
      <trkpt lat="42.918045" lon="-5.698558">
        <ele>1382.29</ele>
        <time>2020-07-21T07:39:05.000Z</time>
      </trkpt>
      <trkpt lat="42.9180452" lon="-5.698562">
        <ele>1382.29</ele>
        <time>2020-07-21T07:39:06.000Z</time>
      </trkpt>
      <trkpt lat="42.9180447" lon="-5.6985652">
        <ele>1382.29</ele>
        <time>2020-07-21T07:39:07.000Z</time>
      </trkpt>
      <trkpt lat="42.9180443" lon="-5.6985683">
        <ele>1382.29</ele>
        <time>2020-07-21T07:39:08.000Z</time>
      </trkpt>
      <trkpt lat="42.9180438" lon="-5.6985725">
        <ele>1382.29</ele>
        <time>2020-07-21T07:39:09.000Z</time>
      </trkpt>
      <trkpt lat="42.9180472" lon="-5.6985765">
        <ele>1382.13</ele>
        <time>2020-07-21T07:39:10.000Z</time>
      </trkpt>
      <trkpt lat="42.9180493" lon="-5.6985822">
        <ele>1382.13</ele>
        <time>2020-07-21T07:39:11.000Z</time>
      </trkpt>
      <trkpt lat="42.9180527" lon="-5.6985868">
        <ele>1382.13</ele>
        <time>2020-07-21T07:39:12.000Z</time>
      </trkpt>
      <trkpt lat="42.9180522" lon="-5.6985903">
        <ele>1382.13</ele>
        <time>2020-07-21T07:39:13.000Z</time>
      </trkpt>
      <trkpt lat="42.918051" lon="-5.6985915">
        <ele>1382.13</ele>
        <time>2020-07-21T07:39:14.000Z</time>
      </trkpt>
      <trkpt lat="42.9180492" lon="-5.6985917">
        <ele>1382.13</ele>
        <time>2020-07-21T07:39:15.000Z</time>
      </trkpt>
      <trkpt lat="42.9180468" lon="-5.698592">
        <ele>1382.13</ele>
        <time>2020-07-21T07:39:16.000Z</time>
      </trkpt>
      <trkpt lat="42.918047" lon="-5.6985917">
        <ele>1382.13</ele>
        <time>2020-07-21T07:39:17.000Z</time>
      </trkpt>
      <trkpt lat="42.9180442" lon="-5.6985915">
        <ele>1382.13</ele>
        <time>2020-07-21T07:39:18.000Z</time>
      </trkpt>
      <trkpt lat="42.9180417" lon="-5.6985918">
        <ele>1382.13</ele>
        <time>2020-07-21T07:39:19.000Z</time>
      </trkpt>
      <trkpt lat="42.9180383" lon="-5.6985932">
        <ele>1382.13</ele>
        <time>2020-07-21T07:39:20.000Z</time>
      </trkpt>
      <trkpt lat="42.9180377" lon="-5.6985965">
        <ele>1382.13</ele>
        <time>2020-07-21T07:39:21.000Z</time>
      </trkpt>
      <trkpt lat="42.9180368" lon="-5.6986">
        <ele>1382.13</ele>
        <time>2020-07-21T07:39:22.000Z</time>
      </trkpt>
      <trkpt lat="42.9180367" lon="-5.6986028">
        <ele>1382.13</ele>
        <time>2020-07-21T07:39:23.000Z</time>
      </trkpt>
      <trkpt lat="42.918038" lon="-5.6986035">
        <ele>1382.13</ele>
        <time>2020-07-21T07:39:24.000Z</time>
      </trkpt>
      <trkpt lat="42.91804" lon="-5.6986035">
        <ele>1382.13</ele>
        <time>2020-07-21T07:39:25.000Z</time>
      </trkpt>
      <trkpt lat="42.9180422" lon="-5.6986042">
        <ele>1382.13</ele>
        <time>2020-07-21T07:39:26.000Z</time>
      </trkpt>
      <trkpt lat="42.918043" lon="-5.6986055">
        <ele>1382.13</ele>
        <time>2020-07-21T07:39:27.000Z</time>
      </trkpt>
      <trkpt lat="42.9180438" lon="-5.6986078">
        <ele>1382.13</ele>
        <time>2020-07-21T07:39:28.000Z</time>
      </trkpt>
      <trkpt lat="42.9180438" lon="-5.6986113">
        <ele>1382.13</ele>
        <time>2020-07-21T07:39:29.000Z</time>
      </trkpt>
      <trkpt lat="42.9180433" lon="-5.698615">
        <ele>1382.13</ele>
        <time>2020-07-21T07:39:30.000Z</time>
      </trkpt>
      <trkpt lat="42.9180422" lon="-5.6986188">
        <ele>1382.13</ele>
        <time>2020-07-21T07:39:31.000Z</time>
      </trkpt>
      <trkpt lat="42.9180408" lon="-5.6986223">
        <ele>1382.13</ele>
        <time>2020-07-21T07:39:32.000Z</time>
      </trkpt>
      <trkpt lat="42.9180405" lon="-5.6986257">
        <ele>1382.13</ele>
        <time>2020-07-21T07:39:33.000Z</time>
      </trkpt>
      <trkpt lat="42.91804" lon="-5.698629">
        <ele>1382.13</ele>
        <time>2020-07-21T07:39:34.000Z</time>
      </trkpt>
      <trkpt lat="42.9180398" lon="-5.6986323">
        <ele>1382.13</ele>
        <time>2020-07-21T07:39:35.000Z</time>
      </trkpt>
      <trkpt lat="42.9180382" lon="-5.6986365">
        <ele>1382.13</ele>
        <time>2020-07-21T07:39:36.000Z</time>
      </trkpt>
      <trkpt lat="42.9180365" lon="-5.698639">
        <ele>1382.13</ele>
        <time>2020-07-21T07:39:37.000Z</time>
      </trkpt>
      <trkpt lat="42.9180348" lon="-5.6986407">
        <ele>1382.13</ele>
        <time>2020-07-21T07:39:38.000Z</time>
      </trkpt>
      <trkpt lat="42.9180335" lon="-5.6986402">
        <ele>1382.13</ele>
        <time>2020-07-21T07:39:39.000Z</time>
      </trkpt>
      <trkpt lat="42.918033" lon="-5.698641">
        <ele>1382.13</ele>
        <time>2020-07-21T07:39:40.000Z</time>
      </trkpt>
      <trkpt lat="42.9180323" lon="-5.6986415">
        <ele>1382.13</ele>
        <time>2020-07-21T07:39:41.000Z</time>
      </trkpt>
      <trkpt lat="42.9180348" lon="-5.6986418">
        <ele>1382.13</ele>
        <time>2020-07-21T07:39:42.000Z</time>
      </trkpt>
      <trkpt lat="42.9180378" lon="-5.6986398">
        <ele>1382.13</ele>
        <time>2020-07-21T07:39:43.000Z</time>
      </trkpt>
      <trkpt lat="42.9180445" lon="-5.6986337">
        <ele>1382.13</ele>
        <time>2020-07-21T07:39:44.000Z</time>
      </trkpt>
      <trkpt lat="42.9180482" lon="-5.6986285">
        <ele>1382.13</ele>
        <time>2020-07-21T07:39:45.000Z</time>
      </trkpt>
      <trkpt lat="42.9180512" lon="-5.6986237">
        <ele>1382.13</ele>
        <time>2020-07-21T07:39:46.000Z</time>
      </trkpt>
      <trkpt lat="42.9180513" lon="-5.6986212">
        <ele>1382.13</ele>
        <time>2020-07-21T07:39:47.000Z</time>
      </trkpt>
      <trkpt lat="42.9180532" lon="-5.698616">
        <ele>1382.13</ele>
        <time>2020-07-21T07:39:48.000Z</time>
      </trkpt>
      <trkpt lat="42.9180557" lon="-5.6986128">
        <ele>1382.29</ele>
        <time>2020-07-21T07:39:49.000Z</time>
      </trkpt>
      <trkpt lat="42.9180577" lon="-5.698614">
        <ele>1382.29</ele>
        <time>2020-07-21T07:39:50.000Z</time>
      </trkpt>
      <trkpt lat="42.918059" lon="-5.6986163">
        <ele>1382.29</ele>
        <time>2020-07-21T07:39:51.000Z</time>
      </trkpt>
      <trkpt lat="42.918059" lon="-5.698618">
        <ele>1382.29</ele>
        <time>2020-07-21T07:39:52.000Z</time>
      </trkpt>
      <trkpt lat="42.9180593" lon="-5.6986172">
        <ele>1382.29</ele>
        <time>2020-07-21T07:39:53.000Z</time>
      </trkpt>
      <trkpt lat="42.9180597" lon="-5.698615">
        <ele>1382.29</ele>
        <time>2020-07-21T07:39:54.000Z</time>
      </trkpt>
      <trkpt lat="42.9180612" lon="-5.6986123">
        <ele>1382.44</ele>
        <time>2020-07-21T07:39:55.000Z</time>
      </trkpt>
      <trkpt lat="42.9180623" lon="-5.6986093">
        <ele>1382.44</ele>
        <time>2020-07-21T07:39:56.000Z</time>
      </trkpt>
      <trkpt lat="42.9180635" lon="-5.6986073">
        <ele>1382.44</ele>
        <time>2020-07-21T07:39:57.000Z</time>
      </trkpt>
      <trkpt lat="42.9180645" lon="-5.6986053">
        <ele>1382.44</ele>
        <time>2020-07-21T07:39:58.000Z</time>
      </trkpt>
      <trkpt lat="42.9180623" lon="-5.6986022">
        <ele>1382.44</ele>
        <time>2020-07-21T07:39:59.000Z</time>
      </trkpt>
      <trkpt lat="42.9180615" lon="-5.6985983">
        <ele>1382.44</ele>
        <time>2020-07-21T07:40:00.000Z</time>
      </trkpt>
      <trkpt lat="42.9180602" lon="-5.6985935">
        <ele>1382.59</ele>
        <time>2020-07-21T07:40:01.000Z</time>
      </trkpt>
      <trkpt lat="42.9180627" lon="-5.698588">
        <ele>1382.59</ele>
        <time>2020-07-21T07:40:02.000Z</time>
      </trkpt>
      <trkpt lat="42.9180635" lon="-5.6985838">
        <ele>1382.59</ele>
        <time>2020-07-21T07:40:03.000Z</time>
      </trkpt>
      <trkpt lat="42.9180637" lon="-5.698581">
        <ele>1382.59</ele>
        <time>2020-07-21T07:40:04.000Z</time>
      </trkpt>
      <trkpt lat="42.918064" lon="-5.6985803">
        <ele>1382.59</ele>
        <time>2020-07-21T07:40:05.000Z</time>
      </trkpt>
      <trkpt lat="42.9180612" lon="-5.698581">
        <ele>1382.59</ele>
        <time>2020-07-21T07:40:06.000Z</time>
      </trkpt>
      <trkpt lat="42.9180583" lon="-5.6985817">
        <ele>1382.74</ele>
        <time>2020-07-21T07:40:07.000Z</time>
      </trkpt>
      <trkpt lat="42.9180538" lon="-5.6985842">
        <ele>1382.74</ele>
        <time>2020-07-21T07:40:08.000Z</time>
      </trkpt>
      <trkpt lat="42.9180525" lon="-5.6985873">
        <ele>1382.74</ele>
        <time>2020-07-21T07:40:09.000Z</time>
      </trkpt>
      <trkpt lat="42.9180508" lon="-5.6985915">
        <ele>1382.74</ele>
        <time>2020-07-21T07:40:10.000Z</time>
      </trkpt>
      <trkpt lat="42.9180497" lon="-5.6985968">
        <ele>1382.74</ele>
        <time>2020-07-21T07:40:11.000Z</time>
      </trkpt>
      <trkpt lat="42.9180482" lon="-5.6986038">
        <ele>1382.74</ele>
        <time>2020-07-21T07:40:12.000Z</time>
      </trkpt>
      <trkpt lat="42.918047" lon="-5.6986113">
        <ele>1382.89</ele>
        <time>2020-07-21T07:40:13.000Z</time>
      </trkpt>
      <trkpt lat="42.9180468" lon="-5.698616">
        <ele>1382.89</ele>
        <time>2020-07-21T07:40:14.000Z</time>
      </trkpt>
      <trkpt lat="42.9180453" lon="-5.698617">
        <ele>1382.89</ele>
        <time>2020-07-21T07:40:15.000Z</time>
      </trkpt>
      <trkpt lat="42.9180418" lon="-5.6986172">
        <ele>1382.89</ele>
        <time>2020-07-21T07:40:16.000Z</time>
      </trkpt>
      <trkpt lat="42.9180362" lon="-5.6986172">
        <ele>1382.89</ele>
        <time>2020-07-21T07:40:17.000Z</time>
      </trkpt>
      <trkpt lat="42.918033" lon="-5.6986165">
        <ele>1382.89</ele>
        <time>2020-07-21T07:40:18.000Z</time>
      </trkpt>
      <trkpt lat="42.918033" lon="-5.6986153">
        <ele>1382.74</ele>
        <time>2020-07-21T07:40:19.000Z</time>
      </trkpt>
      <trkpt lat="42.9180343" lon="-5.698615">
        <ele>1382.74</ele>
        <time>2020-07-21T07:40:20.000Z</time>
      </trkpt>
      <trkpt lat="42.9180362" lon="-5.698615">
        <ele>1382.59</ele>
        <time>2020-07-21T07:40:21.000Z</time>
      </trkpt>
      <trkpt lat="42.9180372" lon="-5.6986138">
        <ele>1382.59</ele>
        <time>2020-07-21T07:40:22.000Z</time>
      </trkpt>
      <trkpt lat="42.9180385" lon="-5.6986103">
        <ele>1382.59</ele>
        <time>2020-07-21T07:40:23.000Z</time>
      </trkpt>
      <trkpt lat="42.9180397" lon="-5.6986055">
        <ele>1382.59</ele>
        <time>2020-07-21T07:40:24.000Z</time>
      </trkpt>
      <trkpt lat="42.9180405" lon="-5.6986005">
        <ele>1382.44</ele>
        <time>2020-07-21T07:40:25.000Z</time>
      </trkpt>
      <trkpt lat="42.9180422" lon="-5.6985952">
        <ele>1382.44</ele>
        <time>2020-07-21T07:40:26.000Z</time>
      </trkpt>
      <trkpt lat="42.918043" lon="-5.6985913">
        <ele>1382.29</ele>
        <time>2020-07-21T07:40:27.000Z</time>
      </trkpt>
      <trkpt lat="42.9180438" lon="-5.6985898">
        <ele>1382.29</ele>
        <time>2020-07-21T07:40:28.000Z</time>
      </trkpt>
      <trkpt lat="42.9180447" lon="-5.6985895">
        <ele>1382.29</ele>
        <time>2020-07-21T07:40:29.000Z</time>
      </trkpt>
      <trkpt lat="42.9180463" lon="-5.6985888">
        <ele>1382.29</ele>
        <time>2020-07-21T07:40:30.000Z</time>
      </trkpt>
      <trkpt lat="42.9180478" lon="-5.6985872">
        <ele>1382.13</ele>
        <time>2020-07-21T07:40:31.000Z</time>
      </trkpt>
      <trkpt lat="42.918049" lon="-5.6985853">
        <ele>1382.13</ele>
        <time>2020-07-21T07:40:32.000Z</time>
      </trkpt>
      <trkpt lat="42.9180503" lon="-5.6985843">
        <ele>1382.13</ele>
        <time>2020-07-21T07:40:33.000Z</time>
      </trkpt>
      <trkpt lat="42.9180518" lon="-5.6985828">
        <ele>1382.13</ele>
        <time>2020-07-21T07:40:34.000Z</time>
      </trkpt>
      <trkpt lat="42.9180533" lon="-5.6985812">
        <ele>1381.98</ele>
        <time>2020-07-21T07:40:35.000Z</time>
      </trkpt>
      <trkpt lat="42.918055" lon="-5.6985787">
        <ele>1381.98</ele>
        <time>2020-07-21T07:40:36.000Z</time>
      </trkpt>
      <trkpt lat="42.9180563" lon="-5.6985758">
        <ele>1381.98</ele>
        <time>2020-07-21T07:40:37.000Z</time>
      </trkpt>
      <trkpt lat="42.9180572" lon="-5.6985733">
        <ele>1381.98</ele>
        <time>2020-07-21T07:40:38.000Z</time>
      </trkpt>
      <trkpt lat="42.918058" lon="-5.6985717">
        <ele>1381.83</ele>
        <time>2020-07-21T07:40:39.000Z</time>
      </trkpt>
      <trkpt lat="42.9180592" lon="-5.6985715">
        <ele>1381.83</ele>
        <time>2020-07-21T07:40:40.000Z</time>
      </trkpt>
      <trkpt lat="42.9180608" lon="-5.6985718">
        <ele>1381.83</ele>
        <time>2020-07-21T07:40:41.000Z</time>
      </trkpt>
      <trkpt lat="42.918062" lon="-5.6985717">
        <ele>1381.83</ele>
        <time>2020-07-21T07:40:42.000Z</time>
      </trkpt>
      <trkpt lat="42.9180628" lon="-5.698571">
        <ele>1381.68</ele>
        <time>2020-07-21T07:40:43.000Z</time>
      </trkpt>
      <trkpt lat="42.9180628" lon="-5.698571">
        <ele>1381.68</ele>
        <time>2020-07-21T07:40:44.000Z</time>
      </trkpt>
      <trkpt lat="42.9180628" lon="-5.698571">
        <ele>1381.68</ele>
        <time>2020-07-21T07:40:45.000Z</time>
      </trkpt>
      <trkpt lat="42.9180628" lon="-5.698571">
        <ele>1381.68</ele>
        <time>2020-07-21T07:40:46.000Z</time>
      </trkpt>
      <trkpt lat="42.9180628" lon="-5.698571">
        <ele>1381.52</ele>
        <time>2020-07-21T07:40:47.000Z</time>
      </trkpt>
      <trkpt lat="42.9180635" lon="-5.69857">
        <ele>1381.52</ele>
        <time>2020-07-21T07:40:48.000Z</time>
      </trkpt>
      <trkpt lat="42.918065" lon="-5.6985687">
        <ele>1381.37</ele>
        <time>2020-07-21T07:40:49.000Z</time>
      </trkpt>
      <trkpt lat="42.9180673" lon="-5.698567">
        <ele>1381.37</ele>
        <time>2020-07-21T07:40:50.000Z</time>
      </trkpt>
      <trkpt lat="42.9180695" lon="-5.6985658">
        <ele>1381.22</ele>
        <time>2020-07-21T07:40:51.000Z</time>
      </trkpt>
      <trkpt lat="42.9180715" lon="-5.6985658">
        <ele>1381.22</ele>
        <time>2020-07-21T07:40:52.000Z</time>
      </trkpt>
      <trkpt lat="42.918072" lon="-5.6985675">
        <ele>1381.07</ele>
        <time>2020-07-21T07:40:53.000Z</time>
      </trkpt>
      <trkpt lat="42.9180728" lon="-5.698569">
        <ele>1381.07</ele>
        <time>2020-07-21T07:40:54.000Z</time>
      </trkpt>
      <trkpt lat="42.918073" lon="-5.6985693">
        <ele>1380.76</ele>
        <time>2020-07-21T07:40:55.000Z</time>
      </trkpt>
      <trkpt lat="42.9180738" lon="-5.6985675">
        <ele>1380.76</ele>
        <time>2020-07-21T07:40:56.000Z</time>
      </trkpt>
      <trkpt lat="42.9180738" lon="-5.6985675">
        <ele>1380.46</ele>
        <time>2020-07-21T07:40:57.000Z</time>
      </trkpt>
      <trkpt lat="42.9180738" lon="-5.6985675">
        <ele>1380.46</ele>
        <time>2020-07-21T07:40:58.000Z</time>
      </trkpt>
      <trkpt lat="42.9180738" lon="-5.6985568">
        <ele>1380.15</ele>
        <time>2020-07-21T07:40:59.000Z</time>
      </trkpt>
      <trkpt lat="42.9180733" lon="-5.6985458">
        <ele>1380.15</ele>
        <time>2020-07-21T07:41:00.000Z</time>
      </trkpt>
      <trkpt lat="42.9180708" lon="-5.6985382">
        <ele>1379.85</ele>
        <time>2020-07-21T07:41:01.000Z</time>
      </trkpt>
      <trkpt lat="42.9180668" lon="-5.6985412">
        <ele>1379.85</ele>
        <time>2020-07-21T07:41:02.000Z</time>
      </trkpt>
      <trkpt lat="42.9180617" lon="-5.6985478">
        <ele>1379.39</ele>
        <time>2020-07-21T07:41:03.000Z</time>
      </trkpt>
      <trkpt lat="42.9180578" lon="-5.6985542">
        <ele>1379.39</ele>
        <time>2020-07-21T07:41:04.000Z</time>
      </trkpt>
      <trkpt lat="42.918055" lon="-5.6985603">
        <ele>1379.08</ele>
        <time>2020-07-21T07:41:05.000Z</time>
      </trkpt>
      <trkpt lat="42.9180528" lon="-5.698565">
        <ele>1379.08</ele>
        <time>2020-07-21T07:41:06.000Z</time>
      </trkpt>
      <trkpt lat="42.9180518" lon="-5.6985688">
        <ele>1378.63</ele>
        <time>2020-07-21T07:41:07.000Z</time>
      </trkpt>
      <trkpt lat="42.9180522" lon="-5.6985712">
        <ele>1378.63</ele>
        <time>2020-07-21T07:41:08.000Z</time>
      </trkpt>
      <trkpt lat="42.9180547" lon="-5.6985688">
        <ele>1378.17</ele>
        <time>2020-07-21T07:41:09.000Z</time>
      </trkpt>
      <trkpt lat="42.9180568" lon="-5.698563">
        <ele>1378.17</ele>
        <time>2020-07-21T07:41:10.000Z</time>
      </trkpt>
      <trkpt lat="42.9180612" lon="-5.6985532">
        <ele>1377.86</ele>
        <time>2020-07-21T07:41:11.000Z</time>
      </trkpt>
      <trkpt lat="42.9180663" lon="-5.698541">
        <ele>1377.86</ele>
        <time>2020-07-21T07:41:12.000Z</time>
      </trkpt>
      <trkpt lat="42.918074" lon="-5.6985272">
        <ele>1377.56</ele>
        <time>2020-07-21T07:41:13.000Z</time>
      </trkpt>
      <trkpt lat="42.9180815" lon="-5.6985162">
        <ele>1377.56</ele>
        <time>2020-07-21T07:41:14.000Z</time>
      </trkpt>
      <trkpt lat="42.9180877" lon="-5.698509">
        <ele>1377.26</ele>
        <time>2020-07-21T07:41:15.000Z</time>
      </trkpt>
      <trkpt lat="42.9180917" lon="-5.6985048">
        <ele>1377.26</ele>
        <time>2020-07-21T07:41:16.000Z</time>
      </trkpt>
      <trkpt lat="42.9180937" lon="-5.6985015">
        <ele>1376.95</ele>
        <time>2020-07-21T07:41:17.000Z</time>
      </trkpt>
      <trkpt lat="42.918096" lon="-5.6984968">
        <ele>1376.95</ele>
        <time>2020-07-21T07:41:18.000Z</time>
      </trkpt>
      <trkpt lat="42.918099" lon="-5.698493">
        <ele>1376.95</ele>
        <time>2020-07-21T07:41:19.000Z</time>
      </trkpt>
      <trkpt lat="42.9181027" lon="-5.6984893">
        <ele>1376.95</ele>
        <time>2020-07-21T07:41:20.000Z</time>
      </trkpt>
      <trkpt lat="42.9181045" lon="-5.698488">
        <ele>1376.95</ele>
        <time>2020-07-21T07:41:21.000Z</time>
      </trkpt>
      <trkpt lat="42.9181058" lon="-5.6984862">
        <ele>1376.95</ele>
        <time>2020-07-21T07:41:22.000Z</time>
      </trkpt>
      <trkpt lat="42.9181072" lon="-5.6984837">
        <ele>1376.95</ele>
        <time>2020-07-21T07:41:23.000Z</time>
      </trkpt>
      <trkpt lat="42.9181093" lon="-5.698481">
        <ele>1376.95</ele>
        <time>2020-07-21T07:41:24.000Z</time>
      </trkpt>
      <trkpt lat="42.918111" lon="-5.698479">
        <ele>1376.95</ele>
        <time>2020-07-21T07:41:25.000Z</time>
      </trkpt>
      <trkpt lat="42.9181122" lon="-5.6984783">
        <ele>1376.95</ele>
        <time>2020-07-21T07:41:26.000Z</time>
      </trkpt>
      <trkpt lat="42.9181128" lon="-5.6984787">
        <ele>1376.95</ele>
        <time>2020-07-21T07:41:27.000Z</time>
      </trkpt>
      <trkpt lat="42.9181135" lon="-5.6984793">
        <ele>1376.95</ele>
        <time>2020-07-21T07:41:28.000Z</time>
      </trkpt>
      <trkpt lat="42.918114" lon="-5.6984798">
        <ele>1376.95</ele>
        <time>2020-07-21T07:41:29.000Z</time>
      </trkpt>
      <trkpt lat="42.9181148" lon="-5.6984805">
        <ele>1376.95</ele>
        <time>2020-07-21T07:41:30.000Z</time>
      </trkpt>
      <trkpt lat="42.9181147" lon="-5.6984813">
        <ele>1376.95</ele>
        <time>2020-07-21T07:41:31.000Z</time>
      </trkpt>
      <trkpt lat="42.9181128" lon="-5.6984803">
        <ele>1376.95</ele>
        <time>2020-07-21T07:41:32.000Z</time>
      </trkpt>
      <trkpt lat="42.9181093" lon="-5.6984788">
        <ele>1376.95</ele>
        <time>2020-07-21T07:41:33.000Z</time>
      </trkpt>
      <trkpt lat="42.9181053" lon="-5.6984775">
        <ele>1376.95</ele>
        <time>2020-07-21T07:41:34.000Z</time>
      </trkpt>
      <trkpt lat="42.9181022" lon="-5.698478">
        <ele>1376.95</ele>
        <time>2020-07-21T07:41:35.000Z</time>
      </trkpt>
      <trkpt lat="42.9181003" lon="-5.6984795">
        <ele>1376.95</ele>
        <time>2020-07-21T07:41:36.000Z</time>
      </trkpt>
      <trkpt lat="42.9180978" lon="-5.69848">
        <ele>1376.95</ele>
        <time>2020-07-21T07:41:37.000Z</time>
      </trkpt>
      <trkpt lat="42.9180945" lon="-5.6984803">
        <ele>1376.8</ele>
        <time>2020-07-21T07:41:38.000Z</time>
      </trkpt>
      <trkpt lat="42.9180907" lon="-5.6984805">
        <ele>1376.8</ele>
        <time>2020-07-21T07:41:39.000Z</time>
      </trkpt>
      <trkpt lat="42.9180888" lon="-5.6984815">
        <ele>1376.65</ele>
        <time>2020-07-21T07:41:40.000Z</time>
      </trkpt>
      <trkpt lat="42.9180873" lon="-5.6984835">
        <ele>1376.65</ele>
        <time>2020-07-21T07:41:41.000Z</time>
      </trkpt>
      <trkpt lat="42.9180863" lon="-5.6984857">
        <ele>1376.49</ele>
        <time>2020-07-21T07:41:42.000Z</time>
      </trkpt>
      <trkpt lat="42.9180832" lon="-5.6984875">
        <ele>1376.49</ele>
        <time>2020-07-21T07:41:43.000Z</time>
      </trkpt>
      <trkpt lat="42.9180803" lon="-5.6984883">
        <ele>1376.34</ele>
        <time>2020-07-21T07:41:44.000Z</time>
      </trkpt>
      <trkpt lat="42.9180772" lon="-5.6984887">
        <ele>1376.34</ele>
        <time>2020-07-21T07:41:45.000Z</time>
      </trkpt>
      <trkpt lat="42.9180762" lon="-5.6984878">
        <ele>1376.34</ele>
        <time>2020-07-21T07:41:46.000Z</time>
      </trkpt>
      <trkpt lat="42.9180762" lon="-5.6984867">
        <ele>1376.34</ele>
        <time>2020-07-21T07:41:47.000Z</time>
      </trkpt>
      <trkpt lat="42.9180765" lon="-5.6984855">
        <ele>1376.34</ele>
        <time>2020-07-21T07:41:48.000Z</time>
      </trkpt>
      <trkpt lat="42.9180758" lon="-5.6984845">
        <ele>1376.34</ele>
        <time>2020-07-21T07:41:49.000Z</time>
      </trkpt>
      <trkpt lat="42.9180743" lon="-5.6984815">
        <ele>1376.34</ele>
        <time>2020-07-21T07:41:50.000Z</time>
      </trkpt>
      <trkpt lat="42.9180725" lon="-5.6984788">
        <ele>1376.34</ele>
        <time>2020-07-21T07:41:51.000Z</time>
      </trkpt>
      <trkpt lat="42.9180705" lon="-5.6984762">
        <ele>1376.34</ele>
        <time>2020-07-21T07:41:52.000Z</time>
      </trkpt>
      <trkpt lat="42.9180675" lon="-5.6984775">
        <ele>1376.34</ele>
        <time>2020-07-21T07:41:53.000Z</time>
      </trkpt>
      <trkpt lat="42.9180647" lon="-5.6984792">
        <ele>1376.34</ele>
        <time>2020-07-21T07:41:54.000Z</time>
      </trkpt>
      <trkpt lat="42.9180598" lon="-5.6984813">
        <ele>1376.34</ele>
        <time>2020-07-21T07:41:55.000Z</time>
      </trkpt>
      <trkpt lat="42.9180552" lon="-5.6984832">
        <ele>1376.34</ele>
        <time>2020-07-21T07:41:56.000Z</time>
      </trkpt>
      <trkpt lat="42.9180495" lon="-5.6984848">
        <ele>1376.34</ele>
        <time>2020-07-21T07:41:57.000Z</time>
      </trkpt>
      <trkpt lat="42.918047" lon="-5.6984863">
        <ele>1376.49</ele>
        <time>2020-07-21T07:41:58.000Z</time>
      </trkpt>
      <trkpt lat="42.9180458" lon="-5.6984868">
        <ele>1376.49</ele>
        <time>2020-07-21T07:41:59.000Z</time>
      </trkpt>
      <trkpt lat="42.9180458" lon="-5.6984868">
        <ele>1376.49</ele>
        <time>2020-07-21T07:42:00.000Z</time>
      </trkpt>
      <trkpt lat="42.9180438" lon="-5.698488">
        <ele>1376.49</ele>
        <time>2020-07-21T07:42:01.000Z</time>
      </trkpt>
      <trkpt lat="42.9180418" lon="-5.6984887">
        <ele>1376.65</ele>
        <time>2020-07-21T07:42:02.000Z</time>
      </trkpt>
      <trkpt lat="42.9180408" lon="-5.6984883">
        <ele>1376.65</ele>
        <time>2020-07-21T07:42:03.000Z</time>
      </trkpt>
      <trkpt lat="42.9180415" lon="-5.6984863">
        <ele>1376.65</ele>
        <time>2020-07-21T07:42:04.000Z</time>
      </trkpt>
      <trkpt lat="42.9180425" lon="-5.6984843">
        <ele>1376.65</ele>
        <time>2020-07-21T07:42:05.000Z</time>
      </trkpt>
      <trkpt lat="42.9180437" lon="-5.6984847">
        <ele>1376.8</ele>
        <time>2020-07-21T07:42:06.000Z</time>
      </trkpt>
      <trkpt lat="42.9180467" lon="-5.6984872">
        <ele>1376.8</ele>
        <time>2020-07-21T07:42:07.000Z</time>
      </trkpt>
      <trkpt lat="42.9180492" lon="-5.6984905">
        <ele>1376.95</ele>
        <time>2020-07-21T07:42:08.000Z</time>
      </trkpt>
      <trkpt lat="42.918054" lon="-5.6984943">
        <ele>1376.95</ele>
        <time>2020-07-21T07:42:09.000Z</time>
      </trkpt>
      <trkpt lat="42.9180577" lon="-5.6984983">
        <ele>1376.95</ele>
        <time>2020-07-21T07:42:10.000Z</time>
      </trkpt>
      <trkpt lat="42.9180613" lon="-5.6985035">
        <ele>1376.95</ele>
        <time>2020-07-21T07:42:11.000Z</time>
      </trkpt>
      <trkpt lat="42.9180622" lon="-5.6985065">
        <ele>1377.1</ele>
        <time>2020-07-21T07:42:12.000Z</time>
      </trkpt>
      <trkpt lat="42.9180623" lon="-5.6985062">
        <ele>1377.1</ele>
        <time>2020-07-21T07:42:13.000Z</time>
      </trkpt>
      <trkpt lat="42.9180635" lon="-5.6985062">
        <ele>1377.26</ele>
        <time>2020-07-21T07:42:14.000Z</time>
      </trkpt>
      <trkpt lat="42.9180655" lon="-5.6985077">
        <ele>1377.26</ele>
        <time>2020-07-21T07:42:15.000Z</time>
      </trkpt>
      <trkpt lat="42.918068" lon="-5.6985123">
        <ele>1377.26</ele>
        <time>2020-07-21T07:42:16.000Z</time>
      </trkpt>
      <trkpt lat="42.9180685" lon="-5.6985165">
        <ele>1377.26</ele>
        <time>2020-07-21T07:42:17.000Z</time>
      </trkpt>
      <trkpt lat="42.9180688" lon="-5.6985178">
        <ele>1377.41</ele>
        <time>2020-07-21T07:42:18.000Z</time>
      </trkpt>
      <trkpt lat="42.9180675" lon="-5.6985178">
        <ele>1377.41</ele>
        <time>2020-07-21T07:42:19.000Z</time>
      </trkpt>
      <trkpt lat="42.9180672" lon="-5.6985175">
        <ele>1377.41</ele>
        <time>2020-07-21T07:42:20.000Z</time>
      </trkpt>
      <trkpt lat="42.9180655" lon="-5.6985203">
        <ele>1377.41</ele>
        <time>2020-07-21T07:42:21.000Z</time>
      </trkpt>
      <trkpt lat="42.9180655" lon="-5.6985273">
        <ele>1377.41</ele>
        <time>2020-07-21T07:42:22.000Z</time>
      </trkpt>
      <trkpt lat="42.9180657" lon="-5.698538">
        <ele>1377.41</ele>
        <time>2020-07-21T07:42:23.000Z</time>
      </trkpt>
      <trkpt lat="42.918068" lon="-5.6985512">
        <ele>1377.41</ele>
        <time>2020-07-21T07:42:24.000Z</time>
      </trkpt>
      <trkpt lat="42.9180702" lon="-5.6985632">
        <ele>1377.41</ele>
        <time>2020-07-21T07:42:25.000Z</time>
      </trkpt>
      <trkpt lat="42.9180722" lon="-5.6985748">
        <ele>1377.41</ele>
        <time>2020-07-21T07:42:26.000Z</time>
      </trkpt>
      <trkpt lat="42.918075" lon="-5.6985848">
        <ele>1377.41</ele>
        <time>2020-07-21T07:42:27.000Z</time>
      </trkpt>
      <trkpt lat="42.918075" lon="-5.6985962">
        <ele>1377.41</ele>
        <time>2020-07-21T07:42:28.000Z</time>
      </trkpt>
      <trkpt lat="42.9180792" lon="-5.6986077">
        <ele>1377.41</ele>
        <time>2020-07-21T07:42:29.000Z</time>
      </trkpt>
      <trkpt lat="42.918084" lon="-5.6986193">
        <ele>1377.41</ele>
        <time>2020-07-21T07:42:30.000Z</time>
      </trkpt>
      <trkpt lat="42.918092" lon="-5.6986312">
        <ele>1377.41</ele>
        <time>2020-07-21T07:42:31.000Z</time>
      </trkpt>
      <trkpt lat="42.9180975" lon="-5.6986447">
        <ele>1377.41</ele>
        <time>2020-07-21T07:42:32.000Z</time>
      </trkpt>
      <trkpt lat="42.9181018" lon="-5.6986607">
        <ele>1377.41</ele>
        <time>2020-07-21T07:42:33.000Z</time>
      </trkpt>
      <trkpt lat="42.9181047" lon="-5.6986768">
        <ele>1377.26</ele>
        <time>2020-07-21T07:42:34.000Z</time>
      </trkpt>
      <trkpt lat="42.9181063" lon="-5.6986923">
        <ele>1377.26</ele>
        <time>2020-07-21T07:42:35.000Z</time>
      </trkpt>
      <trkpt lat="42.9181072" lon="-5.698706">
        <ele>1377.1</ele>
        <time>2020-07-21T07:42:36.000Z</time>
      </trkpt>
      <trkpt lat="42.9181108" lon="-5.6987192">
        <ele>1377.1</ele>
        <time>2020-07-21T07:42:37.000Z</time>
      </trkpt>
      <trkpt lat="42.9181167" lon="-5.6987303">
        <ele>1377.1</ele>
        <time>2020-07-21T07:42:38.000Z</time>
      </trkpt>
      <trkpt lat="42.9181232" lon="-5.6987412">
        <ele>1377.1</ele>
        <time>2020-07-21T07:42:39.000Z</time>
      </trkpt>
      <trkpt lat="42.9181285" lon="-5.6987522">
        <ele>1376.95</ele>
        <time>2020-07-21T07:42:40.000Z</time>
      </trkpt>
      <trkpt lat="42.9181337" lon="-5.6987627">
        <ele>1376.95</ele>
        <time>2020-07-21T07:42:41.000Z</time>
      </trkpt>
      <trkpt lat="42.9181397" lon="-5.6987732">
        <ele>1376.8</ele>
        <time>2020-07-21T07:42:42.000Z</time>
      </trkpt>
      <trkpt lat="42.9181465" lon="-5.6987832">
        <ele>1376.8</ele>
        <time>2020-07-21T07:42:43.000Z</time>
      </trkpt>
      <trkpt lat="42.9181465" lon="-5.6987832">
        <ele>1376.8</ele>
        <time>2020-07-21T07:42:44.000Z</time>
      </trkpt>
      <trkpt lat="42.9181465" lon="-5.6987832">
        <ele>1376.8</ele>
        <time>2020-07-21T07:42:45.000Z</time>
      </trkpt>
      <trkpt lat="42.9181465" lon="-5.6987832">
        <ele>1376.8</ele>
        <time>2020-07-21T07:42:46.000Z</time>
      </trkpt>
      <trkpt lat="42.9181465" lon="-5.6987832">
        <ele>1376.8</ele>
        <time>2020-07-21T07:42:47.000Z</time>
      </trkpt>
      <trkpt lat="42.9181465" lon="-5.6987832">
        <ele>1376.8</ele>
        <time>2020-07-21T07:42:48.000Z</time>
      </trkpt>
      <trkpt lat="42.9181465" lon="-5.6987832">
        <ele>1376.8</ele>
        <time>2020-07-21T07:42:49.000Z</time>
      </trkpt>
      <trkpt lat="42.9181465" lon="-5.6987832">
        <ele>1376.8</ele>
        <time>2020-07-21T07:42:50.000Z</time>
      </trkpt>
      <trkpt lat="42.9181542" lon="-5.6987917">
        <ele>1376.8</ele>
        <time>2020-07-21T07:42:51.000Z</time>
      </trkpt>
      <trkpt lat="42.9181613" lon="-5.6988007">
        <ele>1376.8</ele>
        <time>2020-07-21T07:42:52.000Z</time>
      </trkpt>
      <trkpt lat="42.918168" lon="-5.6988088">
        <ele>1376.8</ele>
        <time>2020-07-21T07:42:53.000Z</time>
      </trkpt>
      <trkpt lat="42.9181713" lon="-5.6988197">
        <ele>1376.8</ele>
        <time>2020-07-21T07:42:54.000Z</time>
      </trkpt>
      <trkpt lat="42.9181737" lon="-5.6988302">
        <ele>1376.8</ele>
        <time>2020-07-21T07:42:55.000Z</time>
      </trkpt>
      <trkpt lat="42.9181757" lon="-5.6988405">
        <ele>1376.8</ele>
        <time>2020-07-21T07:42:56.000Z</time>
      </trkpt>
      <trkpt lat="42.9181773" lon="-5.6988495">
        <ele>1376.8</ele>
        <time>2020-07-21T07:42:57.000Z</time>
      </trkpt>
      <trkpt lat="42.9181798" lon="-5.6988583">
        <ele>1376.8</ele>
        <time>2020-07-21T07:42:58.000Z</time>
      </trkpt>
      <trkpt lat="42.9181848" lon="-5.698864">
        <ele>1376.8</ele>
        <time>2020-07-21T07:42:59.000Z</time>
      </trkpt>
      <trkpt lat="42.9181915" lon="-5.6988648">
        <ele>1376.8</ele>
        <time>2020-07-21T07:43:00.000Z</time>
      </trkpt>
      <trkpt lat="42.9181955" lon="-5.698865">
        <ele>1376.8</ele>
        <time>2020-07-21T07:43:01.000Z</time>
      </trkpt>
      <trkpt lat="42.918196" lon="-5.6988655">
        <ele>1376.8</ele>
        <time>2020-07-21T07:43:02.000Z</time>
      </trkpt>
      <trkpt lat="42.9181947" lon="-5.6988688">
        <ele>1376.8</ele>
        <time>2020-07-21T07:43:03.000Z</time>
      </trkpt>
      <trkpt lat="42.9181947" lon="-5.6988688">
        <ele>1376.8</ele>
        <time>2020-07-21T07:43:04.000Z</time>
      </trkpt>
      <trkpt lat="42.9181947" lon="-5.6988688">
        <ele>1376.49</ele>
        <time>2020-07-21T07:43:05.000Z</time>
      </trkpt>
      <trkpt lat="42.918199" lon="-5.698879">
        <ele>1376.49</ele>
        <time>2020-07-21T07:43:06.000Z</time>
      </trkpt>
      <trkpt lat="42.9182055" lon="-5.6988928">
        <ele>1376.34</ele>
        <time>2020-07-21T07:43:07.000Z</time>
      </trkpt>
      <trkpt lat="42.9182128" lon="-5.6989105">
        <ele>1376.34</ele>
        <time>2020-07-21T07:43:08.000Z</time>
      </trkpt>
      <trkpt lat="42.9182165" lon="-5.6989235">
        <ele>1376.04</ele>
        <time>2020-07-21T07:43:09.000Z</time>
      </trkpt>
      <trkpt lat="42.9182198" lon="-5.6989372">
        <ele>1376.04</ele>
        <time>2020-07-21T07:43:10.000Z</time>
      </trkpt>
      <trkpt lat="42.9182237" lon="-5.6989508">
        <ele>1375.73</ele>
        <time>2020-07-21T07:43:11.000Z</time>
      </trkpt>
      <trkpt lat="42.9182267" lon="-5.6989655">
        <ele>1375.73</ele>
        <time>2020-07-21T07:43:12.000Z</time>
      </trkpt>
      <trkpt lat="42.9182302" lon="-5.698977">
        <ele>1375.43</ele>
        <time>2020-07-21T07:43:13.000Z</time>
      </trkpt>
      <trkpt lat="42.9182323" lon="-5.6989845">
        <ele>1375.43</ele>
        <time>2020-07-21T07:43:14.000Z</time>
      </trkpt>
      <trkpt lat="42.9182333" lon="-5.6989898">
        <ele>1375.12</ele>
        <time>2020-07-21T07:43:15.000Z</time>
      </trkpt>
      <trkpt lat="42.9182323" lon="-5.6989972">
        <ele>1375.12</ele>
        <time>2020-07-21T07:43:16.000Z</time>
      </trkpt>
      <trkpt lat="42.9182308" lon="-5.6990077">
        <ele>1374.67</ele>
        <time>2020-07-21T07:43:17.000Z</time>
      </trkpt>
      <trkpt lat="42.9182298" lon="-5.6990167">
        <ele>1374.67</ele>
        <time>2020-07-21T07:43:18.000Z</time>
      </trkpt>
      <trkpt lat="42.9182283" lon="-5.6990232">
        <ele>1374.36</ele>
        <time>2020-07-21T07:43:19.000Z</time>
      </trkpt>
      <trkpt lat="42.9182278" lon="-5.6990283">
        <ele>1374.36</ele>
        <time>2020-07-21T07:43:20.000Z</time>
      </trkpt>
      <trkpt lat="42.9182272" lon="-5.6990332">
        <ele>1373.9</ele>
        <time>2020-07-21T07:43:21.000Z</time>
      </trkpt>
      <trkpt lat="42.918229" lon="-5.6990392">
        <ele>1373.9</ele>
        <time>2020-07-21T07:43:22.000Z</time>
      </trkpt>
      <trkpt lat="42.9182308" lon="-5.6990457">
        <ele>1373.6</ele>
        <time>2020-07-21T07:43:23.000Z</time>
      </trkpt>
      <trkpt lat="42.9182333" lon="-5.6990532">
        <ele>1373.6</ele>
        <time>2020-07-21T07:43:24.000Z</time>
      </trkpt>
      <trkpt lat="42.9182365" lon="-5.6990583">
        <ele>1373.14</ele>
        <time>2020-07-21T07:43:25.000Z</time>
      </trkpt>
      <trkpt lat="42.9182408" lon="-5.6990627">
        <ele>1373.14</ele>
        <time>2020-07-21T07:43:26.000Z</time>
      </trkpt>
      <trkpt lat="42.918246" lon="-5.6990643">
        <ele>1372.68</ele>
        <time>2020-07-21T07:43:27.000Z</time>
      </trkpt>
      <trkpt lat="42.9182488" lon="-5.6990657">
        <ele>1372.68</ele>
        <time>2020-07-21T07:43:28.000Z</time>
      </trkpt>
      <trkpt lat="42.9182507" lon="-5.6990655">
        <ele>1372.23</ele>
        <time>2020-07-21T07:43:29.000Z</time>
      </trkpt>
      <trkpt lat="42.9182525" lon="-5.6990653">
        <ele>1372.23</ele>
        <time>2020-07-21T07:43:30.000Z</time>
      </trkpt>
      <trkpt lat="42.9182542" lon="-5.6990653">
        <ele>1371.92</ele>
        <time>2020-07-21T07:43:31.000Z</time>
      </trkpt>
      <trkpt lat="42.9182557" lon="-5.6990657">
        <ele>1371.92</ele>
        <time>2020-07-21T07:43:32.000Z</time>
      </trkpt>
      <trkpt lat="42.9182565" lon="-5.6990653">
        <ele>1371.62</ele>
        <time>2020-07-21T07:43:33.000Z</time>
      </trkpt>
      <trkpt lat="42.918257" lon="-5.6990653">
        <ele>1371.62</ele>
        <time>2020-07-21T07:43:34.000Z</time>
      </trkpt>
      <trkpt lat="42.9182567" lon="-5.6990658">
        <ele>1371.31</ele>
        <time>2020-07-21T07:43:35.000Z</time>
      </trkpt>
      <trkpt lat="42.9182558" lon="-5.6990672">
        <ele>1371.31</ele>
        <time>2020-07-21T07:43:36.000Z</time>
      </trkpt>
      <trkpt lat="42.9182538" lon="-5.6990698">
        <ele>1371.01</ele>
        <time>2020-07-21T07:43:37.000Z</time>
      </trkpt>
      <trkpt lat="42.9182517" lon="-5.6990732">
        <ele>1371.01</ele>
        <time>2020-07-21T07:43:38.000Z</time>
      </trkpt>
      <trkpt lat="42.9182488" lon="-5.6990772">
        <ele>1370.7</ele>
        <time>2020-07-21T07:43:39.000Z</time>
      </trkpt>
      <trkpt lat="42.9182467" lon="-5.6990807">
        <ele>1370.7</ele>
        <time>2020-07-21T07:43:40.000Z</time>
      </trkpt>
      <trkpt lat="42.9182447" lon="-5.6990838">
        <ele>1370.4</ele>
        <time>2020-07-21T07:43:41.000Z</time>
      </trkpt>
      <trkpt lat="42.918243" lon="-5.6990872">
        <ele>1370.4</ele>
        <time>2020-07-21T07:43:42.000Z</time>
      </trkpt>
      <trkpt lat="42.9182415" lon="-5.6990895">
        <ele>1370.09</ele>
        <time>2020-07-21T07:43:43.000Z</time>
      </trkpt>
      <trkpt lat="42.9182403" lon="-5.6990917">
        <ele>1370.09</ele>
        <time>2020-07-21T07:43:44.000Z</time>
      </trkpt>
      <trkpt lat="42.9182397" lon="-5.699093">
        <ele>1369.79</ele>
        <time>2020-07-21T07:43:45.000Z</time>
      </trkpt>
      <trkpt lat="42.9182393" lon="-5.6990945">
        <ele>1369.79</ele>
        <time>2020-07-21T07:43:46.000Z</time>
      </trkpt>
      <trkpt lat="42.9182392" lon="-5.699096">
        <ele>1369.48</ele>
        <time>2020-07-21T07:43:47.000Z</time>
      </trkpt>
      <trkpt lat="42.918239" lon="-5.6990977">
        <ele>1369.48</ele>
        <time>2020-07-21T07:43:48.000Z</time>
      </trkpt>
      <trkpt lat="42.9182388" lon="-5.6990995">
        <ele>1369.18</ele>
        <time>2020-07-21T07:43:49.000Z</time>
      </trkpt>
      <trkpt lat="42.9182388" lon="-5.6991008">
        <ele>1369.18</ele>
        <time>2020-07-21T07:43:50.000Z</time>
      </trkpt>
      <trkpt lat="42.918239" lon="-5.6991023">
        <ele>1369.03</ele>
        <time>2020-07-21T07:43:51.000Z</time>
      </trkpt>
      <trkpt lat="42.9182395" lon="-5.6991032">
        <ele>1369.03</ele>
        <time>2020-07-21T07:43:52.000Z</time>
      </trkpt>
      <trkpt lat="42.9182402" lon="-5.6991027">
        <ele>1368.72</ele>
        <time>2020-07-21T07:43:53.000Z</time>
      </trkpt>
      <trkpt lat="42.918241" lon="-5.6991018">
        <ele>1368.72</ele>
        <time>2020-07-21T07:43:54.000Z</time>
      </trkpt>
      <trkpt lat="42.9182422" lon="-5.6991005">
        <ele>1368.42</ele>
        <time>2020-07-21T07:43:55.000Z</time>
      </trkpt>
      <trkpt lat="42.9182432" lon="-5.6991018">
        <ele>1368.42</ele>
        <time>2020-07-21T07:43:56.000Z</time>
      </trkpt>
      <trkpt lat="42.9182445" lon="-5.6991037">
        <ele>1368.26</ele>
        <time>2020-07-21T07:43:57.000Z</time>
      </trkpt>
      <trkpt lat="42.9182452" lon="-5.6991073">
        <ele>1368.26</ele>
        <time>2020-07-21T07:43:58.000Z</time>
      </trkpt>
      <trkpt lat="42.9182443" lon="-5.6991113">
        <ele>1367.96</ele>
        <time>2020-07-21T07:43:59.000Z</time>
      </trkpt>
      <trkpt lat="42.9182417" lon="-5.6991152">
        <ele>1367.96</ele>
        <time>2020-07-21T07:44:00.000Z</time>
      </trkpt>
      <trkpt lat="42.9182368" lon="-5.6991197">
        <ele>1367.81</ele>
        <time>2020-07-21T07:44:01.000Z</time>
      </trkpt>
      <trkpt lat="42.9182328" lon="-5.6991232">
        <ele>1367.81</ele>
        <time>2020-07-21T07:44:02.000Z</time>
      </trkpt>
      <trkpt lat="42.9182313" lon="-5.6991263">
        <ele>1367.5</ele>
        <time>2020-07-21T07:44:03.000Z</time>
      </trkpt>
      <trkpt lat="42.9182325" lon="-5.699128">
        <ele>1367.5</ele>
        <time>2020-07-21T07:44:04.000Z</time>
      </trkpt>
      <trkpt lat="42.918234" lon="-5.6991297">
        <ele>1367.35</ele>
        <time>2020-07-21T07:44:05.000Z</time>
      </trkpt>
      <trkpt lat="42.9182347" lon="-5.6991333">
        <ele>1367.35</ele>
        <time>2020-07-21T07:44:06.000Z</time>
      </trkpt>
      <trkpt lat="42.9182347" lon="-5.6991378">
        <ele>1367.2</ele>
        <time>2020-07-21T07:44:07.000Z</time>
      </trkpt>
      <trkpt lat="42.9182337" lon="-5.6991437">
        <ele>1367.2</ele>
        <time>2020-07-21T07:44:08.000Z</time>
      </trkpt>
      <trkpt lat="42.9182322" lon="-5.6991492">
        <ele>1367.2</ele>
        <time>2020-07-21T07:44:09.000Z</time>
      </trkpt>
      <trkpt lat="42.9182307" lon="-5.6991547">
        <ele>1367.2</ele>
        <time>2020-07-21T07:44:10.000Z</time>
      </trkpt>
      <trkpt lat="42.9182307" lon="-5.6991547">
        <ele>1367.05</ele>
        <time>2020-07-21T07:44:11.000Z</time>
      </trkpt>
      <trkpt lat="42.9182307" lon="-5.6991547">
        <ele>1367.05</ele>
        <time>2020-07-21T07:44:12.000Z</time>
      </trkpt>
      <trkpt lat="42.9182307" lon="-5.6991547">
        <ele>1367.05</ele>
        <time>2020-07-21T07:44:13.000Z</time>
      </trkpt>
      <trkpt lat="42.9182307" lon="-5.6991547">
        <ele>1367.05</ele>
        <time>2020-07-21T07:44:14.000Z</time>
      </trkpt>
      <trkpt lat="42.9182307" lon="-5.6991547">
        <ele>1366.89</ele>
        <time>2020-07-21T07:44:15.000Z</time>
      </trkpt>
      <trkpt lat="42.9182307" lon="-5.6991547">
        <ele>1366.89</ele>
        <time>2020-07-21T07:44:16.000Z</time>
      </trkpt>
      <trkpt lat="42.9182293" lon="-5.6991608">
        <ele>1366.89</ele>
        <time>2020-07-21T07:44:17.000Z</time>
      </trkpt>
      <trkpt lat="42.918229" lon="-5.6991663">
        <ele>1366.89</ele>
        <time>2020-07-21T07:44:18.000Z</time>
      </trkpt>
      <trkpt lat="42.9182292" lon="-5.6991722">
        <ele>1366.89</ele>
        <time>2020-07-21T07:44:19.000Z</time>
      </trkpt>
      <trkpt lat="42.918231" lon="-5.6991767">
        <ele>1366.89</ele>
        <time>2020-07-21T07:44:20.000Z</time>
      </trkpt>
      <trkpt lat="42.9182323" lon="-5.6991812">
        <ele>1366.89</ele>
        <time>2020-07-21T07:44:21.000Z</time>
      </trkpt>
      <trkpt lat="42.9182323" lon="-5.6991852">
        <ele>1366.89</ele>
        <time>2020-07-21T07:44:22.000Z</time>
      </trkpt>
      <trkpt lat="42.9182313" lon="-5.6991878">
        <ele>1366.89</ele>
        <time>2020-07-21T07:44:23.000Z</time>
      </trkpt>
      <trkpt lat="42.91823" lon="-5.6991907">
        <ele>1366.89</ele>
        <time>2020-07-21T07:44:24.000Z</time>
      </trkpt>
      <trkpt lat="42.91823" lon="-5.6991942">
        <ele>1366.89</ele>
        <time>2020-07-21T07:44:25.000Z</time>
      </trkpt>
      <trkpt lat="42.9182293" lon="-5.6991983">
        <ele>1366.89</ele>
        <time>2020-07-21T07:44:26.000Z</time>
      </trkpt>
      <trkpt lat="42.9182273" lon="-5.6992017">
        <ele>1367.05</ele>
        <time>2020-07-21T07:44:27.000Z</time>
      </trkpt>
      <trkpt lat="42.9182262" lon="-5.6992057">
        <ele>1367.05</ele>
        <time>2020-07-21T07:44:28.000Z</time>
      </trkpt>
      <trkpt lat="42.9182267" lon="-5.699209">
        <ele>1367.05</ele>
        <time>2020-07-21T07:44:29.000Z</time>
      </trkpt>
      <trkpt lat="42.9182277" lon="-5.6992138">
        <ele>1367.05</ele>
        <time>2020-07-21T07:44:30.000Z</time>
      </trkpt>
      <trkpt lat="42.9182275" lon="-5.6992168">
        <ele>1367.05</ele>
        <time>2020-07-21T07:44:31.000Z</time>
      </trkpt>
      <trkpt lat="42.9182267" lon="-5.6992197">
        <ele>1367.05</ele>
        <time>2020-07-21T07:44:32.000Z</time>
      </trkpt>
      <trkpt lat="42.918226" lon="-5.699223">
        <ele>1367.05</ele>
        <time>2020-07-21T07:44:33.000Z</time>
      </trkpt>
      <trkpt lat="42.9182247" lon="-5.6992273">
        <ele>1367.05</ele>
        <time>2020-07-21T07:44:34.000Z</time>
      </trkpt>
      <trkpt lat="42.9182222" lon="-5.6992337">
        <ele>1367.05</ele>
        <time>2020-07-21T07:44:35.000Z</time>
      </trkpt>
      <trkpt lat="42.9182193" lon="-5.699239">
        <ele>1367.05</ele>
        <time>2020-07-21T07:44:36.000Z</time>
      </trkpt>
      <trkpt lat="42.9182193" lon="-5.699239">
        <ele>1367.05</ele>
        <time>2020-07-21T07:44:37.000Z</time>
      </trkpt>
      <trkpt lat="42.9182193" lon="-5.699239">
        <ele>1367.05</ele>
        <time>2020-07-21T07:44:38.000Z</time>
      </trkpt>
      <trkpt lat="42.9182342" lon="-5.6992012">
        <ele>1367.05</ele>
        <time>2020-07-21T07:44:39.000Z</time>
      </trkpt>
      <trkpt lat="42.9182515" lon="-5.6991577">
        <ele>1367.05</ele>
        <time>2020-07-21T07:44:40.000Z</time>
      </trkpt>
      <trkpt lat="42.9182718" lon="-5.6991077">
        <ele>1367.05</ele>
        <time>2020-07-21T07:44:41.000Z</time>
      </trkpt>
      <trkpt lat="42.9182767" lon="-5.6990958">
        <ele>1367.05</ele>
        <time>2020-07-21T07:44:42.000Z</time>
      </trkpt>
      <trkpt lat="42.9182842" lon="-5.6990845">
        <ele>1367.05</ele>
        <time>2020-07-21T07:44:43.000Z</time>
      </trkpt>
      <trkpt lat="42.9182915" lon="-5.6990747">
        <ele>1367.05</ele>
        <time>2020-07-21T07:44:44.000Z</time>
      </trkpt>
      <trkpt lat="42.9182992" lon="-5.6990668">
        <ele>1367.05</ele>
        <time>2020-07-21T07:44:45.000Z</time>
      </trkpt>
      <trkpt lat="42.918304" lon="-5.69906">
        <ele>1367.05</ele>
        <time>2020-07-21T07:44:46.000Z</time>
      </trkpt>
      <trkpt lat="42.9183085" lon="-5.699056">
        <ele>1367.05</ele>
        <time>2020-07-21T07:44:47.000Z</time>
      </trkpt>
      <trkpt lat="42.9183132" lon="-5.6990515">
        <ele>1367.05</ele>
        <time>2020-07-21T07:44:48.000Z</time>
      </trkpt>
      <trkpt lat="42.918318" lon="-5.699049">
        <ele>1367.05</ele>
        <time>2020-07-21T07:44:49.000Z</time>
      </trkpt>
      <trkpt lat="42.9183215" lon="-5.6990468">
        <ele>1367.05</ele>
        <time>2020-07-21T07:44:50.000Z</time>
      </trkpt>
      <trkpt lat="42.9183222" lon="-5.6990485">
        <ele>1367.05</ele>
        <time>2020-07-21T07:44:51.000Z</time>
      </trkpt>
      <trkpt lat="42.9183223" lon="-5.6990497">
        <ele>1367.05</ele>
        <time>2020-07-21T07:44:52.000Z</time>
      </trkpt>
      <trkpt lat="42.9183213" lon="-5.6990507">
        <ele>1366.89</ele>
        <time>2020-07-21T07:44:53.000Z</time>
      </trkpt>
      <trkpt lat="42.9183243" lon="-5.6990497">
        <ele>1366.89</ele>
        <time>2020-07-21T07:44:54.000Z</time>
      </trkpt>
      <trkpt lat="42.9183298" lon="-5.6990465">
        <ele>1366.89</ele>
        <time>2020-07-21T07:44:55.000Z</time>
      </trkpt>
      <trkpt lat="42.9183375" lon="-5.6990433">
        <ele>1366.89</ele>
        <time>2020-07-21T07:44:56.000Z</time>
      </trkpt>
      <trkpt lat="42.918344" lon="-5.6990405">
        <ele>1366.74</ele>
        <time>2020-07-21T07:44:57.000Z</time>
      </trkpt>
      <trkpt lat="42.9183485" lon="-5.699042">
        <ele>1366.74</ele>
        <time>2020-07-21T07:44:58.000Z</time>
      </trkpt>
      <trkpt lat="42.9183532" lon="-5.699047">
        <ele>1366.74</ele>
        <time>2020-07-21T07:44:59.000Z</time>
      </trkpt>
      <trkpt lat="42.918358" lon="-5.6990552">
        <ele>1366.74</ele>
        <time>2020-07-21T07:45:00.000Z</time>
      </trkpt>
      <trkpt lat="42.9183642" lon="-5.6990667">
        <ele>1366.59</ele>
        <time>2020-07-21T07:45:01.000Z</time>
      </trkpt>
      <trkpt lat="42.9183702" lon="-5.699078">
        <ele>1366.59</ele>
        <time>2020-07-21T07:45:02.000Z</time>
      </trkpt>
      <trkpt lat="42.9183745" lon="-5.6990892">
        <ele>1366.44</ele>
        <time>2020-07-21T07:45:03.000Z</time>
      </trkpt>
      <trkpt lat="42.9183768" lon="-5.6990995">
        <ele>1366.44</ele>
        <time>2020-07-21T07:45:04.000Z</time>
      </trkpt>
      <trkpt lat="42.9183782" lon="-5.6991107">
        <ele>1366.28</ele>
        <time>2020-07-21T07:45:05.000Z</time>
      </trkpt>
      <trkpt lat="42.9183802" lon="-5.6991203">
        <ele>1366.28</ele>
        <time>2020-07-21T07:45:06.000Z</time>
      </trkpt>
      <trkpt lat="42.9183817" lon="-5.6991307">
        <ele>1365.98</ele>
        <time>2020-07-21T07:45:07.000Z</time>
      </trkpt>
      <trkpt lat="42.9183843" lon="-5.6991412">
        <ele>1365.98</ele>
        <time>2020-07-21T07:45:08.000Z</time>
      </trkpt>
      <trkpt lat="42.9183885" lon="-5.6991527">
        <ele>1365.82</ele>
        <time>2020-07-21T07:45:09.000Z</time>
      </trkpt>
      <trkpt lat="42.9183953" lon="-5.6991608">
        <ele>1365.82</ele>
        <time>2020-07-21T07:45:10.000Z</time>
      </trkpt>
      <trkpt lat="42.918402" lon="-5.699169">
        <ele>1365.67</ele>
        <time>2020-07-21T07:45:11.000Z</time>
      </trkpt>
      <trkpt lat="42.9184073" lon="-5.6991738">
        <ele>1365.67</ele>
        <time>2020-07-21T07:45:12.000Z</time>
      </trkpt>
      <trkpt lat="42.9184093" lon="-5.6991795">
        <ele>1365.37</ele>
        <time>2020-07-21T07:45:13.000Z</time>
      </trkpt>
      <trkpt lat="42.9184097" lon="-5.699184">
        <ele>1365.37</ele>
        <time>2020-07-21T07:45:14.000Z</time>
      </trkpt>
      <trkpt lat="42.9184097" lon="-5.699191">
        <ele>1365.22</ele>
        <time>2020-07-21T07:45:15.000Z</time>
      </trkpt>
      <trkpt lat="42.9184108" lon="-5.6991985">
        <ele>1365.22</ele>
        <time>2020-07-21T07:45:16.000Z</time>
      </trkpt>
      <trkpt lat="42.9184125" lon="-5.6992052">
        <ele>1364.91</ele>
        <time>2020-07-21T07:45:17.000Z</time>
      </trkpt>
      <trkpt lat="42.9184108" lon="-5.6992118">
        <ele>1364.91</ele>
        <time>2020-07-21T07:45:18.000Z</time>
      </trkpt>
      <trkpt lat="42.9184092" lon="-5.6992175">
        <ele>1364.76</ele>
        <time>2020-07-21T07:45:19.000Z</time>
      </trkpt>
      <trkpt lat="42.918408" lon="-5.6992233">
        <ele>1364.76</ele>
        <time>2020-07-21T07:45:20.000Z</time>
      </trkpt>
      <trkpt lat="42.9184097" lon="-5.6992303">
        <ele>1364.45</ele>
        <time>2020-07-21T07:45:21.000Z</time>
      </trkpt>
      <trkpt lat="42.9184122" lon="-5.699238">
        <ele>1364.45</ele>
        <time>2020-07-21T07:45:22.000Z</time>
      </trkpt>
      <trkpt lat="42.9184133" lon="-5.6992452">
        <ele>1364.3</ele>
        <time>2020-07-21T07:45:23.000Z</time>
      </trkpt>
      <trkpt lat="42.9184138" lon="-5.6992513">
        <ele>1364.3</ele>
        <time>2020-07-21T07:45:24.000Z</time>
      </trkpt>
      <trkpt lat="42.9184128" lon="-5.6992588">
        <ele>1364</ele>
        <time>2020-07-21T07:45:25.000Z</time>
      </trkpt>
      <trkpt lat="42.918415" lon="-5.699268">
        <ele>1364</ele>
        <time>2020-07-21T07:45:26.000Z</time>
      </trkpt>
      <trkpt lat="42.918417" lon="-5.6992772">
        <ele>1363.84</ele>
        <time>2020-07-21T07:45:27.000Z</time>
      </trkpt>
      <trkpt lat="42.9184193" lon="-5.6992877">
        <ele>1363.84</ele>
        <time>2020-07-21T07:45:28.000Z</time>
      </trkpt>
      <trkpt lat="42.9184232" lon="-5.6992977">
        <ele>1363.54</ele>
        <time>2020-07-21T07:45:29.000Z</time>
      </trkpt>
      <trkpt lat="42.9184277" lon="-5.6993102">
        <ele>1363.54</ele>
        <time>2020-07-21T07:45:30.000Z</time>
      </trkpt>
      <trkpt lat="42.9184338" lon="-5.6993228">
        <ele>1363.39</ele>
        <time>2020-07-21T07:45:31.000Z</time>
      </trkpt>
      <trkpt lat="42.918436" lon="-5.6993375">
        <ele>1363.39</ele>
        <time>2020-07-21T07:45:32.000Z</time>
      </trkpt>
      <trkpt lat="42.9184382" lon="-5.6993513">
        <ele>1363.23</ele>
        <time>2020-07-21T07:45:33.000Z</time>
      </trkpt>
      <trkpt lat="42.9184408" lon="-5.6993645">
        <ele>1363.23</ele>
        <time>2020-07-21T07:45:34.000Z</time>
      </trkpt>
      <trkpt lat="42.918445" lon="-5.6993805">
        <ele>1363.08</ele>
        <time>2020-07-21T07:45:35.000Z</time>
      </trkpt>
      <trkpt lat="42.918447" lon="-5.699396">
        <ele>1363.08</ele>
        <time>2020-07-21T07:45:36.000Z</time>
      </trkpt>
      <trkpt lat="42.9184477" lon="-5.6994112">
        <ele>1362.78</ele>
        <time>2020-07-21T07:45:37.000Z</time>
      </trkpt>
      <trkpt lat="42.9184467" lon="-5.6994205">
        <ele>1362.78</ele>
        <time>2020-07-21T07:45:38.000Z</time>
      </trkpt>
      <trkpt lat="42.9184473" lon="-5.6994302">
        <ele>1362.62</ele>
        <time>2020-07-21T07:45:39.000Z</time>
      </trkpt>
      <trkpt lat="42.918447" lon="-5.6994385">
        <ele>1362.62</ele>
        <time>2020-07-21T07:45:40.000Z</time>
      </trkpt>
      <trkpt lat="42.9184467" lon="-5.6994472">
        <ele>1362.47</ele>
        <time>2020-07-21T07:45:41.000Z</time>
      </trkpt>
      <trkpt lat="42.918446" lon="-5.6994552">
        <ele>1362.47</ele>
        <time>2020-07-21T07:45:42.000Z</time>
      </trkpt>
      <trkpt lat="42.9184457" lon="-5.6994638">
        <ele>1362.17</ele>
        <time>2020-07-21T07:45:43.000Z</time>
      </trkpt>
      <trkpt lat="42.9184457" lon="-5.6994742">
        <ele>1362.17</ele>
        <time>2020-07-21T07:45:44.000Z</time>
      </trkpt>
      <trkpt lat="42.9184455" lon="-5.6994842">
        <ele>1362.02</ele>
        <time>2020-07-21T07:45:45.000Z</time>
      </trkpt>
      <trkpt lat="42.918445" lon="-5.6994927">
        <ele>1362.02</ele>
        <time>2020-07-21T07:45:46.000Z</time>
      </trkpt>
      <trkpt lat="42.9184437" lon="-5.6994992">
        <ele>1361.71</ele>
        <time>2020-07-21T07:45:47.000Z</time>
      </trkpt>
      <trkpt lat="42.9184422" lon="-5.6995035">
        <ele>1361.71</ele>
        <time>2020-07-21T07:45:48.000Z</time>
      </trkpt>
      <trkpt lat="42.9184388" lon="-5.6995073">
        <ele>1361.56</ele>
        <time>2020-07-21T07:45:49.000Z</time>
      </trkpt>
      <trkpt lat="42.9184368" lon="-5.6995145">
        <ele>1361.56</ele>
        <time>2020-07-21T07:45:50.000Z</time>
      </trkpt>
      <trkpt lat="42.9184333" lon="-5.699523">
        <ele>1361.41</ele>
        <time>2020-07-21T07:45:51.000Z</time>
      </trkpt>
      <trkpt lat="42.9184295" lon="-5.6995318">
        <ele>1361.41</ele>
        <time>2020-07-21T07:45:52.000Z</time>
      </trkpt>
      <trkpt lat="42.9184228" lon="-5.6995373">
        <ele>1361.25</ele>
        <time>2020-07-21T07:45:53.000Z</time>
      </trkpt>
      <trkpt lat="42.9184177" lon="-5.6995418">
        <ele>1361.25</ele>
        <time>2020-07-21T07:45:54.000Z</time>
      </trkpt>
      <trkpt lat="42.9184135" lon="-5.6995475">
        <ele>1360.95</ele>
        <time>2020-07-21T07:45:55.000Z</time>
      </trkpt>
      <trkpt lat="42.9184112" lon="-5.699556">
        <ele>1360.95</ele>
        <time>2020-07-21T07:45:56.000Z</time>
      </trkpt>
      <trkpt lat="42.9184087" lon="-5.6995667">
        <ele>1360.8</ele>
        <time>2020-07-21T07:45:57.000Z</time>
      </trkpt>
      <trkpt lat="42.9184065" lon="-5.6995745">
        <ele>1360.8</ele>
        <time>2020-07-21T07:45:58.000Z</time>
      </trkpt>
      <trkpt lat="42.918401" lon="-5.6995797">
        <ele>1360.64</ele>
        <time>2020-07-21T07:45:59.000Z</time>
      </trkpt>
      <trkpt lat="42.9183973" lon="-5.6995812">
        <ele>1360.64</ele>
        <time>2020-07-21T07:46:00.000Z</time>
      </trkpt>
      <trkpt lat="42.918393" lon="-5.699584">
        <ele>1360.49</ele>
        <time>2020-07-21T07:46:01.000Z</time>
      </trkpt>
      <trkpt lat="42.9183927" lon="-5.699589">
        <ele>1360.49</ele>
        <time>2020-07-21T07:46:02.000Z</time>
      </trkpt>
      <trkpt lat="42.918393" lon="-5.6995982">
        <ele>1360.19</ele>
        <time>2020-07-21T07:46:03.000Z</time>
      </trkpt>
      <trkpt lat="42.9183953" lon="-5.6996068">
        <ele>1360.19</ele>
        <time>2020-07-21T07:46:04.000Z</time>
      </trkpt>
      <trkpt lat="42.918397" lon="-5.6996115">
        <ele>1360.03</ele>
        <time>2020-07-21T07:46:05.000Z</time>
      </trkpt>
      <trkpt lat="42.9184015" lon="-5.6996142">
        <ele>1360.03</ele>
        <time>2020-07-21T07:46:06.000Z</time>
      </trkpt>
      <trkpt lat="42.9184068" lon="-5.6996177">
        <ele>1359.88</ele>
        <time>2020-07-21T07:46:07.000Z</time>
      </trkpt>
      <trkpt lat="42.918414" lon="-5.6996233">
        <ele>1359.88</ele>
        <time>2020-07-21T07:46:08.000Z</time>
      </trkpt>
      <trkpt lat="42.918419" lon="-5.6996305">
        <ele>1359.58</ele>
        <time>2020-07-21T07:46:09.000Z</time>
      </trkpt>
      <trkpt lat="42.9184267" lon="-5.6996402">
        <ele>1359.58</ele>
        <time>2020-07-21T07:46:10.000Z</time>
      </trkpt>
      <trkpt lat="42.9184355" lon="-5.6996518">
        <ele>1359.42</ele>
        <time>2020-07-21T07:46:11.000Z</time>
      </trkpt>
      <trkpt lat="42.9184463" lon="-5.6996627">
        <ele>1359.42</ele>
        <time>2020-07-21T07:46:12.000Z</time>
      </trkpt>
      <trkpt lat="42.9184555" lon="-5.6996717">
        <ele>1359.12</ele>
        <time>2020-07-21T07:46:13.000Z</time>
      </trkpt>
      <trkpt lat="42.9184645" lon="-5.6996795">
        <ele>1359.12</ele>
        <time>2020-07-21T07:46:14.000Z</time>
      </trkpt>
      <trkpt lat="42.9184742" lon="-5.699687">
        <ele>1358.81</ele>
        <time>2020-07-21T07:46:15.000Z</time>
      </trkpt>
      <trkpt lat="42.918485" lon="-5.6996927">
        <ele>1358.81</ele>
        <time>2020-07-21T07:46:16.000Z</time>
      </trkpt>
      <trkpt lat="42.9184963" lon="-5.6996968">
        <ele>1358.66</ele>
        <time>2020-07-21T07:46:17.000Z</time>
      </trkpt>
      <trkpt lat="42.9185085" lon="-5.699701">
        <ele>1358.66</ele>
        <time>2020-07-21T07:46:18.000Z</time>
      </trkpt>
      <trkpt lat="42.918522" lon="-5.6997055">
        <ele>1358.36</ele>
        <time>2020-07-21T07:46:19.000Z</time>
      </trkpt>
      <trkpt lat="42.9185362" lon="-5.6997093">
        <ele>1358.36</ele>
        <time>2020-07-21T07:46:20.000Z</time>
      </trkpt>
      <trkpt lat="42.9185493" lon="-5.6997133">
        <ele>1358.2</ele>
        <time>2020-07-21T07:46:21.000Z</time>
      </trkpt>
      <trkpt lat="42.9185625" lon="-5.6997148">
        <ele>1358.2</ele>
        <time>2020-07-21T07:46:22.000Z</time>
      </trkpt>
      <trkpt lat="42.9185752" lon="-5.6997155">
        <ele>1357.9</ele>
        <time>2020-07-21T07:46:23.000Z</time>
      </trkpt>
      <trkpt lat="42.9185873" lon="-5.6997155">
        <ele>1357.9</ele>
        <time>2020-07-21T07:46:24.000Z</time>
      </trkpt>
      <trkpt lat="42.918598" lon="-5.6997185">
        <ele>1357.75</ele>
        <time>2020-07-21T07:46:25.000Z</time>
      </trkpt>
      <trkpt lat="42.9186095" lon="-5.6997238">
        <ele>1357.75</ele>
        <time>2020-07-21T07:46:26.000Z</time>
      </trkpt>
      <trkpt lat="42.9186215" lon="-5.6997302">
        <ele>1357.44</ele>
        <time>2020-07-21T07:46:27.000Z</time>
      </trkpt>
      <trkpt lat="42.9186332" lon="-5.6997368">
        <ele>1357.44</ele>
        <time>2020-07-21T07:46:28.000Z</time>
      </trkpt>
      <trkpt lat="42.9186442" lon="-5.6997423">
        <ele>1357.29</ele>
        <time>2020-07-21T07:46:29.000Z</time>
      </trkpt>
      <trkpt lat="42.9186542" lon="-5.6997467">
        <ele>1357.29</ele>
        <time>2020-07-21T07:46:30.000Z</time>
      </trkpt>
      <trkpt lat="42.9186652" lon="-5.69975">
        <ele>1356.99</ele>
        <time>2020-07-21T07:46:31.000Z</time>
      </trkpt>
      <trkpt lat="42.9186772" lon="-5.6997537">
        <ele>1356.99</ele>
        <time>2020-07-21T07:46:32.000Z</time>
      </trkpt>
      <trkpt lat="42.9186895" lon="-5.6997567">
        <ele>1356.68</ele>
        <time>2020-07-21T07:46:33.000Z</time>
      </trkpt>
      <trkpt lat="42.9187007" lon="-5.6997593">
        <ele>1356.68</ele>
        <time>2020-07-21T07:46:34.000Z</time>
      </trkpt>
      <trkpt lat="42.9187107" lon="-5.6997622">
        <ele>1356.38</ele>
        <time>2020-07-21T07:46:35.000Z</time>
      </trkpt>
      <trkpt lat="42.9187202" lon="-5.6997663">
        <ele>1356.38</ele>
        <time>2020-07-21T07:46:36.000Z</time>
      </trkpt>
      <trkpt lat="42.9187302" lon="-5.6997702">
        <ele>1356.07</ele>
        <time>2020-07-21T07:46:37.000Z</time>
      </trkpt>
      <trkpt lat="42.9187405" lon="-5.699775">
        <ele>1356.07</ele>
        <time>2020-07-21T07:46:38.000Z</time>
      </trkpt>
      <trkpt lat="42.9187513" lon="-5.6997793">
        <ele>1355.92</ele>
        <time>2020-07-21T07:46:39.000Z</time>
      </trkpt>
      <trkpt lat="42.9187602" lon="-5.699784">
        <ele>1355.92</ele>
        <time>2020-07-21T07:46:40.000Z</time>
      </trkpt>
      <trkpt lat="42.9187695" lon="-5.6997885">
        <ele>1355.61</ele>
        <time>2020-07-21T07:46:41.000Z</time>
      </trkpt>
      <trkpt lat="42.9187808" lon="-5.6997913">
        <ele>1355.61</ele>
        <time>2020-07-21T07:46:42.000Z</time>
      </trkpt>
      <trkpt lat="42.918795" lon="-5.6997943">
        <ele>1355.31</ele>
        <time>2020-07-21T07:46:43.000Z</time>
      </trkpt>
      <trkpt lat="42.918809" lon="-5.6997973">
        <ele>1355.31</ele>
        <time>2020-07-21T07:46:44.000Z</time>
      </trkpt>
      <trkpt lat="42.9188203" lon="-5.6998025">
        <ele>1355.01</ele>
        <time>2020-07-21T07:46:45.000Z</time>
      </trkpt>
      <trkpt lat="42.9188313" lon="-5.6998073">
        <ele>1355.01</ele>
        <time>2020-07-21T07:46:46.000Z</time>
      </trkpt>
      <trkpt lat="42.918842" lon="-5.6998123">
        <ele>1354.7</ele>
        <time>2020-07-21T07:46:47.000Z</time>
      </trkpt>
      <trkpt lat="42.9188528" lon="-5.6998173">
        <ele>1354.7</ele>
        <time>2020-07-21T07:46:48.000Z</time>
      </trkpt>
      <trkpt lat="42.9188628" lon="-5.6998238">
        <ele>1354.24</ele>
        <time>2020-07-21T07:46:49.000Z</time>
      </trkpt>
      <trkpt lat="42.9188723" lon="-5.699831">
        <ele>1354.24</ele>
        <time>2020-07-21T07:46:50.000Z</time>
      </trkpt>
      <trkpt lat="42.9188815" lon="-5.6998385">
        <ele>1353.94</ele>
        <time>2020-07-21T07:46:51.000Z</time>
      </trkpt>
      <trkpt lat="42.9188927" lon="-5.6998472">
        <ele>1353.94</ele>
        <time>2020-07-21T07:46:52.000Z</time>
      </trkpt>
      <trkpt lat="42.918904" lon="-5.6998565">
        <ele>1353.63</ele>
        <time>2020-07-21T07:46:53.000Z</time>
      </trkpt>
      <trkpt lat="42.9189157" lon="-5.6998662">
        <ele>1353.63</ele>
        <time>2020-07-21T07:46:54.000Z</time>
      </trkpt>
      <trkpt lat="42.9189243" lon="-5.6998752">
        <ele>1353.33</ele>
        <time>2020-07-21T07:46:55.000Z</time>
      </trkpt>
      <trkpt lat="42.9189317" lon="-5.6998855">
        <ele>1353.33</ele>
        <time>2020-07-21T07:46:56.000Z</time>
      </trkpt>
      <trkpt lat="42.918939" lon="-5.6998962">
        <ele>1353.02</ele>
        <time>2020-07-21T07:46:57.000Z</time>
      </trkpt>
      <trkpt lat="42.918947" lon="-5.6999073">
        <ele>1353.02</ele>
        <time>2020-07-21T07:46:58.000Z</time>
      </trkpt>
      <trkpt lat="42.9189557" lon="-5.6999173">
        <ele>1352.72</ele>
        <time>2020-07-21T07:46:59.000Z</time>
      </trkpt>
      <trkpt lat="42.9189638" lon="-5.699927">
        <ele>1352.72</ele>
        <time>2020-07-21T07:47:00.000Z</time>
      </trkpt>
      <trkpt lat="42.9189722" lon="-5.6999372">
        <ele>1352.41</ele>
        <time>2020-07-21T07:47:01.000Z</time>
      </trkpt>
      <trkpt lat="42.9189823" lon="-5.6999475">
        <ele>1352.41</ele>
        <time>2020-07-21T07:47:02.000Z</time>
      </trkpt>
      <trkpt lat="42.9189922" lon="-5.69996">
        <ele>1352.11</ele>
        <time>2020-07-21T07:47:03.000Z</time>
      </trkpt>
      <trkpt lat="42.9190015" lon="-5.699973">
        <ele>1352.11</ele>
        <time>2020-07-21T07:47:04.000Z</time>
      </trkpt>
      <trkpt lat="42.9190098" lon="-5.6999867">
        <ele>1351.8</ele>
        <time>2020-07-21T07:47:05.000Z</time>
      </trkpt>
      <trkpt lat="42.9190185" lon="-5.6999988">
        <ele>1351.8</ele>
        <time>2020-07-21T07:47:06.000Z</time>
      </trkpt>
      <trkpt lat="42.9190283" lon="-5.7000102">
        <ele>1351.5</ele>
        <time>2020-07-21T07:47:07.000Z</time>
      </trkpt>
      <trkpt lat="42.9190387" lon="-5.7000208">
        <ele>1351.5</ele>
        <time>2020-07-21T07:47:08.000Z</time>
      </trkpt>
      <trkpt lat="42.9190478" lon="-5.7000318">
        <ele>1351.19</ele>
        <time>2020-07-21T07:47:09.000Z</time>
      </trkpt>
      <trkpt lat="42.9190563" lon="-5.7000437">
        <ele>1351.19</ele>
        <time>2020-07-21T07:47:10.000Z</time>
      </trkpt>
      <trkpt lat="42.9190647" lon="-5.7000557">
        <ele>1350.89</ele>
        <time>2020-07-21T07:47:11.000Z</time>
      </trkpt>
      <trkpt lat="42.9190747" lon="-5.7000677">
        <ele>1350.89</ele>
        <time>2020-07-21T07:47:12.000Z</time>
      </trkpt>
      <trkpt lat="42.919084" lon="-5.7000788">
        <ele>1350.58</ele>
        <time>2020-07-21T07:47:13.000Z</time>
      </trkpt>
      <trkpt lat="42.9190925" lon="-5.700089">
        <ele>1350.58</ele>
        <time>2020-07-21T07:47:14.000Z</time>
      </trkpt>
      <trkpt lat="42.9191017" lon="-5.7000985">
        <ele>1350.28</ele>
        <time>2020-07-21T07:47:15.000Z</time>
      </trkpt>
      <trkpt lat="42.9191113" lon="-5.7001078">
        <ele>1350.28</ele>
        <time>2020-07-21T07:47:16.000Z</time>
      </trkpt>
      <trkpt lat="42.9191195" lon="-5.7001187">
        <ele>1349.98</ele>
        <time>2020-07-21T07:47:17.000Z</time>
      </trkpt>
      <trkpt lat="42.9191267" lon="-5.7001303">
        <ele>1349.98</ele>
        <time>2020-07-21T07:47:18.000Z</time>
      </trkpt>
      <trkpt lat="42.9191343" lon="-5.7001425">
        <ele>1349.67</ele>
        <time>2020-07-21T07:47:19.000Z</time>
      </trkpt>
      <trkpt lat="42.9191437" lon="-5.7001545">
        <ele>1349.67</ele>
        <time>2020-07-21T07:47:20.000Z</time>
      </trkpt>
      <trkpt lat="42.9191523" lon="-5.7001653">
        <ele>1349.21</ele>
        <time>2020-07-21T07:47:21.000Z</time>
      </trkpt>
      <trkpt lat="42.9191613" lon="-5.7001753">
        <ele>1349.21</ele>
        <time>2020-07-21T07:47:22.000Z</time>
      </trkpt>
      <trkpt lat="42.9191703" lon="-5.700185">
        <ele>1348.91</ele>
        <time>2020-07-21T07:47:23.000Z</time>
      </trkpt>
      <trkpt lat="42.9191807" lon="-5.7001958">
        <ele>1348.91</ele>
        <time>2020-07-21T07:47:24.000Z</time>
      </trkpt>
      <trkpt lat="42.9191898" lon="-5.7002077">
        <ele>1348.76</ele>
        <time>2020-07-21T07:47:25.000Z</time>
      </trkpt>
      <trkpt lat="42.9191987" lon="-5.700219">
        <ele>1348.76</ele>
        <time>2020-07-21T07:47:26.000Z</time>
      </trkpt>
      <trkpt lat="42.9192073" lon="-5.7002302">
        <ele>1348.45</ele>
        <time>2020-07-21T07:47:27.000Z</time>
      </trkpt>
      <trkpt lat="42.9192158" lon="-5.700242">
        <ele>1348.45</ele>
        <time>2020-07-21T07:47:28.000Z</time>
      </trkpt>
      <trkpt lat="42.9192237" lon="-5.7002542">
        <ele>1348.15</ele>
        <time>2020-07-21T07:47:29.000Z</time>
      </trkpt>
      <trkpt lat="42.91923" lon="-5.7002668">
        <ele>1348.15</ele>
        <time>2020-07-21T07:47:30.000Z</time>
      </trkpt>
      <trkpt lat="42.919236" lon="-5.7002788">
        <ele>1347.84</ele>
        <time>2020-07-21T07:47:31.000Z</time>
      </trkpt>
      <trkpt lat="42.9192432" lon="-5.7002905">
        <ele>1347.84</ele>
        <time>2020-07-21T07:47:32.000Z</time>
      </trkpt>
      <trkpt lat="42.9192503" lon="-5.700302">
        <ele>1347.54</ele>
        <time>2020-07-21T07:47:33.000Z</time>
      </trkpt>
      <trkpt lat="42.9192572" lon="-5.7003145">
        <ele>1347.54</ele>
        <time>2020-07-21T07:47:34.000Z</time>
      </trkpt>
      <trkpt lat="42.9192622" lon="-5.7003288">
        <ele>1347.23</ele>
        <time>2020-07-21T07:47:35.000Z</time>
      </trkpt>
      <trkpt lat="42.9192693" lon="-5.700345">
        <ele>1347.23</ele>
        <time>2020-07-21T07:47:36.000Z</time>
      </trkpt>
      <trkpt lat="42.9192797" lon="-5.7003625">
        <ele>1346.93</ele>
        <time>2020-07-21T07:47:37.000Z</time>
      </trkpt>
      <trkpt lat="42.9192895" lon="-5.7003808">
        <ele>1346.93</ele>
        <time>2020-07-21T07:47:38.000Z</time>
      </trkpt>
      <trkpt lat="42.9193007" lon="-5.7004007">
        <ele>1346.62</ele>
        <time>2020-07-21T07:47:39.000Z</time>
      </trkpt>
      <trkpt lat="42.9193113" lon="-5.7004203">
        <ele>1346.62</ele>
        <time>2020-07-21T07:47:40.000Z</time>
      </trkpt>
      <trkpt lat="42.919327" lon="-5.7004377">
        <ele>1346.47</ele>
        <time>2020-07-21T07:47:41.000Z</time>
      </trkpt>
      <trkpt lat="42.9193392" lon="-5.700453">
        <ele>1346.47</ele>
        <time>2020-07-21T07:47:42.000Z</time>
      </trkpt>
      <trkpt lat="42.9193498" lon="-5.7004665">
        <ele>1346.17</ele>
        <time>2020-07-21T07:47:43.000Z</time>
      </trkpt>
      <trkpt lat="42.919358" lon="-5.7004812">
        <ele>1346.17</ele>
        <time>2020-07-21T07:47:44.000Z</time>
      </trkpt>
      <trkpt lat="42.9193667" lon="-5.7004957">
        <ele>1345.86</ele>
        <time>2020-07-21T07:47:45.000Z</time>
      </trkpt>
      <trkpt lat="42.9193748" lon="-5.7005105">
        <ele>1345.86</ele>
        <time>2020-07-21T07:47:46.000Z</time>
      </trkpt>
      <trkpt lat="42.919381" lon="-5.7005258">
        <ele>1345.56</ele>
        <time>2020-07-21T07:47:47.000Z</time>
      </trkpt>
      <trkpt lat="42.9193872" lon="-5.7005412">
        <ele>1345.56</ele>
        <time>2020-07-21T07:47:48.000Z</time>
      </trkpt>
      <trkpt lat="42.9193938" lon="-5.7005577">
        <ele>1345.25</ele>
        <time>2020-07-21T07:47:49.000Z</time>
      </trkpt>
      <trkpt lat="42.919401" lon="-5.7005745">
        <ele>1345.25</ele>
        <time>2020-07-21T07:47:50.000Z</time>
      </trkpt>
      <trkpt lat="42.9194085" lon="-5.7005913">
        <ele>1345.1</ele>
        <time>2020-07-21T07:47:51.000Z</time>
      </trkpt>
      <trkpt lat="42.919416" lon="-5.7006072">
        <ele>1345.1</ele>
        <time>2020-07-21T07:47:52.000Z</time>
      </trkpt>
      <trkpt lat="42.9194247" lon="-5.700623">
        <ele>1344.79</ele>
        <time>2020-07-21T07:47:53.000Z</time>
      </trkpt>
      <trkpt lat="42.9194337" lon="-5.7006378">
        <ele>1344.79</ele>
        <time>2020-07-21T07:47:54.000Z</time>
      </trkpt>
      <trkpt lat="42.9194423" lon="-5.700653">
        <ele>1344.64</ele>
        <time>2020-07-21T07:47:55.000Z</time>
      </trkpt>
      <trkpt lat="42.9194492" lon="-5.7006673">
        <ele>1344.64</ele>
        <time>2020-07-21T07:47:56.000Z</time>
      </trkpt>
      <trkpt lat="42.9194548" lon="-5.7006817">
        <ele>1344.34</ele>
        <time>2020-07-21T07:47:57.000Z</time>
      </trkpt>
      <trkpt lat="42.9194595" lon="-5.7006955">
        <ele>1344.34</ele>
        <time>2020-07-21T07:47:58.000Z</time>
      </trkpt>
      <trkpt lat="42.9194647" lon="-5.7007095">
        <ele>1344.18</ele>
        <time>2020-07-21T07:47:59.000Z</time>
      </trkpt>
      <trkpt lat="42.9194705" lon="-5.7007243">
        <ele>1344.18</ele>
        <time>2020-07-21T07:48:00.000Z</time>
      </trkpt>
      <trkpt lat="42.919478" lon="-5.7007398">
        <ele>1344.18</ele>
        <time>2020-07-21T07:48:01.000Z</time>
      </trkpt>
      <trkpt lat="42.9194863" lon="-5.700755">
        <ele>1344.18</ele>
        <time>2020-07-21T07:48:02.000Z</time>
      </trkpt>
      <trkpt lat="42.9194953" lon="-5.700769">
        <ele>1344.03</ele>
        <time>2020-07-21T07:48:03.000Z</time>
      </trkpt>
      <trkpt lat="42.9195065" lon="-5.7007813">
        <ele>1344.03</ele>
        <time>2020-07-21T07:48:04.000Z</time>
      </trkpt>
      <trkpt lat="42.9195192" lon="-5.700792">
        <ele>1344.03</ele>
        <time>2020-07-21T07:48:05.000Z</time>
      </trkpt>
      <trkpt lat="42.9195327" lon="-5.700803">
        <ele>1344.03</ele>
        <time>2020-07-21T07:48:06.000Z</time>
      </trkpt>
      <trkpt lat="42.919544" lon="-5.7008152">
        <ele>1343.88</ele>
        <time>2020-07-21T07:48:07.000Z</time>
      </trkpt>
      <trkpt lat="42.9195525" lon="-5.7008313">
        <ele>1343.88</ele>
        <time>2020-07-21T07:48:08.000Z</time>
      </trkpt>
      <trkpt lat="42.91956" lon="-5.7008478">
        <ele>1343.88</ele>
        <time>2020-07-21T07:48:09.000Z</time>
      </trkpt>
      <trkpt lat="42.9195667" lon="-5.7008647">
        <ele>1343.88</ele>
        <time>2020-07-21T07:48:10.000Z</time>
      </trkpt>
      <trkpt lat="42.9195725" lon="-5.7008795">
        <ele>1343.88</ele>
        <time>2020-07-21T07:48:11.000Z</time>
      </trkpt>
      <trkpt lat="42.9195792" lon="-5.7008935">
        <ele>1343.88</ele>
        <time>2020-07-21T07:48:12.000Z</time>
      </trkpt>
      <trkpt lat="42.919585" lon="-5.7009073">
        <ele>1343.88</ele>
        <time>2020-07-21T07:48:13.000Z</time>
      </trkpt>
      <trkpt lat="42.9195915" lon="-5.70092">
        <ele>1343.88</ele>
        <time>2020-07-21T07:48:14.000Z</time>
      </trkpt>
      <trkpt lat="42.919596" lon="-5.7009325">
        <ele>1343.73</ele>
        <time>2020-07-21T07:48:15.000Z</time>
      </trkpt>
      <trkpt lat="42.9196005" lon="-5.7009457">
        <ele>1343.73</ele>
        <time>2020-07-21T07:48:16.000Z</time>
      </trkpt>
      <trkpt lat="42.9196047" lon="-5.7009595">
        <ele>1343.73</ele>
        <time>2020-07-21T07:48:17.000Z</time>
      </trkpt>
      <trkpt lat="42.9196093" lon="-5.7009738">
        <ele>1343.73</ele>
        <time>2020-07-21T07:48:18.000Z</time>
      </trkpt>
      <trkpt lat="42.919614" lon="-5.7009882">
        <ele>1343.73</ele>
        <time>2020-07-21T07:48:19.000Z</time>
      </trkpt>
      <trkpt lat="42.9196192" lon="-5.7010022">
        <ele>1343.73</ele>
        <time>2020-07-21T07:48:20.000Z</time>
      </trkpt>
      <trkpt lat="42.9196253" lon="-5.701017">
        <ele>1343.57</ele>
        <time>2020-07-21T07:48:21.000Z</time>
      </trkpt>
      <trkpt lat="42.9196322" lon="-5.7010305">
        <ele>1343.57</ele>
        <time>2020-07-21T07:48:22.000Z</time>
      </trkpt>
      <trkpt lat="42.919639" lon="-5.7010445">
        <ele>1343.57</ele>
        <time>2020-07-21T07:48:23.000Z</time>
      </trkpt>
      <trkpt lat="42.9196462" lon="-5.7010577">
        <ele>1343.57</ele>
        <time>2020-07-21T07:48:24.000Z</time>
      </trkpt>
      <trkpt lat="42.9196537" lon="-5.7010705">
        <ele>1343.57</ele>
        <time>2020-07-21T07:48:25.000Z</time>
      </trkpt>
      <trkpt lat="42.9196615" lon="-5.7010838">
        <ele>1343.57</ele>
        <time>2020-07-21T07:48:26.000Z</time>
      </trkpt>
      <trkpt lat="42.9196687" lon="-5.7010972">
        <ele>1343.42</ele>
        <time>2020-07-21T07:48:27.000Z</time>
      </trkpt>
      <trkpt lat="42.9196758" lon="-5.7011118">
        <ele>1343.42</ele>
        <time>2020-07-21T07:48:28.000Z</time>
      </trkpt>
      <trkpt lat="42.9196818" lon="-5.7011273">
        <ele>1343.27</ele>
        <time>2020-07-21T07:48:29.000Z</time>
      </trkpt>
      <trkpt lat="42.9196878" lon="-5.7011432">
        <ele>1343.27</ele>
        <time>2020-07-21T07:48:30.000Z</time>
      </trkpt>
      <trkpt lat="42.9196938" lon="-5.7011597">
        <ele>1343.27</ele>
        <time>2020-07-21T07:48:31.000Z</time>
      </trkpt>
      <trkpt lat="42.9197005" lon="-5.7011757">
        <ele>1343.27</ele>
        <time>2020-07-21T07:48:32.000Z</time>
      </trkpt>
      <trkpt lat="42.9197075" lon="-5.7011918">
        <ele>1343.12</ele>
        <time>2020-07-21T07:48:33.000Z</time>
      </trkpt>
      <trkpt lat="42.9197153" lon="-5.7012072">
        <ele>1343.12</ele>
        <time>2020-07-21T07:48:34.000Z</time>
      </trkpt>
      <trkpt lat="42.9197233" lon="-5.7012208">
        <ele>1342.96</ele>
        <time>2020-07-21T07:48:35.000Z</time>
      </trkpt>
      <trkpt lat="42.9197313" lon="-5.7012343">
        <ele>1342.96</ele>
        <time>2020-07-21T07:48:36.000Z</time>
      </trkpt>
      <trkpt lat="42.9197375" lon="-5.7012478">
        <ele>1342.81</ele>
        <time>2020-07-21T07:48:37.000Z</time>
      </trkpt>
      <trkpt lat="42.9197435" lon="-5.7012635">
        <ele>1342.81</ele>
        <time>2020-07-21T07:48:38.000Z</time>
      </trkpt>
      <trkpt lat="42.919749" lon="-5.7012793">
        <ele>1342.81</ele>
        <time>2020-07-21T07:48:39.000Z</time>
      </trkpt>
      <trkpt lat="42.919755" lon="-5.7012955">
        <ele>1342.81</ele>
        <time>2020-07-21T07:48:40.000Z</time>
      </trkpt>
      <trkpt lat="42.9197607" lon="-5.7013098">
        <ele>1342.66</ele>
        <time>2020-07-21T07:48:41.000Z</time>
      </trkpt>
      <trkpt lat="42.9197662" lon="-5.7013233">
        <ele>1342.66</ele>
        <time>2020-07-21T07:48:42.000Z</time>
      </trkpt>
      <trkpt lat="42.919772" lon="-5.7013357">
        <ele>1342.51</ele>
        <time>2020-07-21T07:48:43.000Z</time>
      </trkpt>
      <trkpt lat="42.9197782" lon="-5.7013488">
        <ele>1342.51</ele>
        <time>2020-07-21T07:48:44.000Z</time>
      </trkpt>
      <trkpt lat="42.9197852" lon="-5.7013623">
        <ele>1342.35</ele>
        <time>2020-07-21T07:48:45.000Z</time>
      </trkpt>
      <trkpt lat="42.9197928" lon="-5.7013758">
        <ele>1342.35</ele>
        <time>2020-07-21T07:48:46.000Z</time>
      </trkpt>
      <trkpt lat="42.9198015" lon="-5.7013887">
        <ele>1342.35</ele>
        <time>2020-07-21T07:48:47.000Z</time>
      </trkpt>
      <trkpt lat="42.9198107" lon="-5.7014018">
        <ele>1342.35</ele>
        <time>2020-07-21T07:48:48.000Z</time>
      </trkpt>
      <trkpt lat="42.9198198" lon="-5.7014158">
        <ele>1342.2</ele>
        <time>2020-07-21T07:48:49.000Z</time>
      </trkpt>
      <trkpt lat="42.9198277" lon="-5.7014295">
        <ele>1342.2</ele>
        <time>2020-07-21T07:48:50.000Z</time>
      </trkpt>
      <trkpt lat="42.9198343" lon="-5.701443">
        <ele>1342.05</ele>
        <time>2020-07-21T07:48:51.000Z</time>
      </trkpt>
      <trkpt lat="42.91984" lon="-5.7014575">
        <ele>1342.05</ele>
        <time>2020-07-21T07:48:52.000Z</time>
      </trkpt>
      <trkpt lat="42.9198462" lon="-5.7014728">
        <ele>1342.05</ele>
        <time>2020-07-21T07:48:53.000Z</time>
      </trkpt>
      <trkpt lat="42.919852" lon="-5.7014878">
        <ele>1342.05</ele>
        <time>2020-07-21T07:48:54.000Z</time>
      </trkpt>
      <trkpt lat="42.9198585" lon="-5.7015023">
        <ele>1341.9</ele>
        <time>2020-07-21T07:48:55.000Z</time>
      </trkpt>
      <trkpt lat="42.919865" lon="-5.7015168">
        <ele>1341.9</ele>
        <time>2020-07-21T07:48:56.000Z</time>
      </trkpt>
      <trkpt lat="42.9198722" lon="-5.7015322">
        <ele>1341.75</ele>
        <time>2020-07-21T07:48:57.000Z</time>
      </trkpt>
      <trkpt lat="42.9198792" lon="-5.701547">
        <ele>1341.75</ele>
        <time>2020-07-21T07:48:58.000Z</time>
      </trkpt>
      <trkpt lat="42.919886" lon="-5.7015623">
        <ele>1341.59</ele>
        <time>2020-07-21T07:48:59.000Z</time>
      </trkpt>
      <trkpt lat="42.9198928" lon="-5.7015773">
        <ele>1341.59</ele>
        <time>2020-07-21T07:49:00.000Z</time>
      </trkpt>
      <trkpt lat="42.9198983" lon="-5.7015917">
        <ele>1341.44</ele>
        <time>2020-07-21T07:49:01.000Z</time>
      </trkpt>
      <trkpt lat="42.9199025" lon="-5.701606">
        <ele>1341.44</ele>
        <time>2020-07-21T07:49:02.000Z</time>
      </trkpt>
      <trkpt lat="42.9199062" lon="-5.7016203">
        <ele>1341.29</ele>
        <time>2020-07-21T07:49:03.000Z</time>
      </trkpt>
      <trkpt lat="42.9199105" lon="-5.7016352">
        <ele>1341.29</ele>
        <time>2020-07-21T07:49:04.000Z</time>
      </trkpt>
      <trkpt lat="42.9199153" lon="-5.7016497">
        <ele>1341.14</ele>
        <time>2020-07-21T07:49:05.000Z</time>
      </trkpt>
      <trkpt lat="42.9199202" lon="-5.7016662">
        <ele>1341.14</ele>
        <time>2020-07-21T07:49:06.000Z</time>
      </trkpt>
      <trkpt lat="42.9199247" lon="-5.701684">
        <ele>1340.98</ele>
        <time>2020-07-21T07:49:07.000Z</time>
      </trkpt>
      <trkpt lat="42.9199272" lon="-5.701701">
        <ele>1340.98</ele>
        <time>2020-07-21T07:49:08.000Z</time>
      </trkpt>
      <trkpt lat="42.9199287" lon="-5.7017157">
        <ele>1340.83</ele>
        <time>2020-07-21T07:49:09.000Z</time>
      </trkpt>
      <trkpt lat="42.9199305" lon="-5.7017293">
        <ele>1340.83</ele>
        <time>2020-07-21T07:49:10.000Z</time>
      </trkpt>
      <trkpt lat="42.919934" lon="-5.7017435">
        <ele>1340.68</ele>
        <time>2020-07-21T07:49:11.000Z</time>
      </trkpt>
      <trkpt lat="42.9199383" lon="-5.7017572">
        <ele>1340.68</ele>
        <time>2020-07-21T07:49:12.000Z</time>
      </trkpt>
      <trkpt lat="42.9199433" lon="-5.7017715">
        <ele>1340.53</ele>
        <time>2020-07-21T07:49:13.000Z</time>
      </trkpt>
      <trkpt lat="42.9199482" lon="-5.7017857">
        <ele>1340.53</ele>
        <time>2020-07-21T07:49:14.000Z</time>
      </trkpt>
      <trkpt lat="42.9199522" lon="-5.701801">
        <ele>1340.37</ele>
        <time>2020-07-21T07:49:15.000Z</time>
      </trkpt>
      <trkpt lat="42.9199557" lon="-5.7018178">
        <ele>1340.37</ele>
        <time>2020-07-21T07:49:16.000Z</time>
      </trkpt>
      <trkpt lat="42.919959" lon="-5.7018367">
        <ele>1340.22</ele>
        <time>2020-07-21T07:49:17.000Z</time>
      </trkpt>
      <trkpt lat="42.9199625" lon="-5.7018558">
        <ele>1340.22</ele>
        <time>2020-07-21T07:49:18.000Z</time>
      </trkpt>
      <trkpt lat="42.9199645" lon="-5.7018755">
        <ele>1340.07</ele>
        <time>2020-07-21T07:49:19.000Z</time>
      </trkpt>
      <trkpt lat="42.9199663" lon="-5.701896">
        <ele>1340.07</ele>
        <time>2020-07-21T07:49:20.000Z</time>
      </trkpt>
      <trkpt lat="42.9199685" lon="-5.7019168">
        <ele>1340.07</ele>
        <time>2020-07-21T07:49:21.000Z</time>
      </trkpt>
      <trkpt lat="42.9199718" lon="-5.7019358">
        <ele>1340.07</ele>
        <time>2020-07-21T07:49:22.000Z</time>
      </trkpt>
      <trkpt lat="42.9199757" lon="-5.7019533">
        <ele>1339.92</ele>
        <time>2020-07-21T07:49:23.000Z</time>
      </trkpt>
      <trkpt lat="42.9199805" lon="-5.701969">
        <ele>1339.92</ele>
        <time>2020-07-21T07:49:24.000Z</time>
      </trkpt>
      <trkpt lat="42.9199875" lon="-5.7019835">
        <ele>1339.92</ele>
        <time>2020-07-21T07:49:25.000Z</time>
      </trkpt>
      <trkpt lat="42.9199972" lon="-5.7019975">
        <ele>1339.92</ele>
        <time>2020-07-21T07:49:26.000Z</time>
      </trkpt>
      <trkpt lat="42.9200078" lon="-5.7020105">
        <ele>1339.77</ele>
        <time>2020-07-21T07:49:27.000Z</time>
      </trkpt>
      <trkpt lat="42.9200172" lon="-5.7020248">
        <ele>1339.77</ele>
        <time>2020-07-21T07:49:28.000Z</time>
      </trkpt>
      <trkpt lat="42.9200247" lon="-5.7020407">
        <ele>1339.77</ele>
        <time>2020-07-21T07:49:29.000Z</time>
      </trkpt>
      <trkpt lat="42.9200302" lon="-5.7020595">
        <ele>1339.77</ele>
        <time>2020-07-21T07:49:30.000Z</time>
      </trkpt>
      <trkpt lat="42.9200363" lon="-5.7020768">
        <ele>1339.61</ele>
        <time>2020-07-21T07:49:31.000Z</time>
      </trkpt>
      <trkpt lat="42.920043" lon="-5.702093">
        <ele>1339.61</ele>
        <time>2020-07-21T07:49:32.000Z</time>
      </trkpt>
      <trkpt lat="42.9200498" lon="-5.7021082">
        <ele>1339.61</ele>
        <time>2020-07-21T07:49:33.000Z</time>
      </trkpt>
      <trkpt lat="42.9200562" lon="-5.7021248">
        <ele>1339.61</ele>
        <time>2020-07-21T07:49:34.000Z</time>
      </trkpt>
      <trkpt lat="42.9200615" lon="-5.7021412">
        <ele>1339.61</ele>
        <time>2020-07-21T07:49:35.000Z</time>
      </trkpt>
      <trkpt lat="42.9200662" lon="-5.7021573">
        <ele>1339.61</ele>
        <time>2020-07-21T07:49:36.000Z</time>
      </trkpt>
      <trkpt lat="42.9200703" lon="-5.7021742">
        <ele>1339.46</ele>
        <time>2020-07-21T07:49:37.000Z</time>
      </trkpt>
      <trkpt lat="42.9200747" lon="-5.7021915">
        <ele>1339.46</ele>
        <time>2020-07-21T07:49:38.000Z</time>
      </trkpt>
      <trkpt lat="42.9200792" lon="-5.7022078">
        <ele>1339.46</ele>
        <time>2020-07-21T07:49:39.000Z</time>
      </trkpt>
      <trkpt lat="42.920084" lon="-5.7022247">
        <ele>1339.46</ele>
        <time>2020-07-21T07:49:40.000Z</time>
      </trkpt>
      <trkpt lat="42.9200885" lon="-5.702241">
        <ele>1339.31</ele>
        <time>2020-07-21T07:49:41.000Z</time>
      </trkpt>
      <trkpt lat="42.9200933" lon="-5.702258">
        <ele>1339.31</ele>
        <time>2020-07-21T07:49:42.000Z</time>
      </trkpt>
      <trkpt lat="42.9200985" lon="-5.7022718">
        <ele>1339.31</ele>
        <time>2020-07-21T07:49:43.000Z</time>
      </trkpt>
      <trkpt lat="42.9201032" lon="-5.7022865">
        <ele>1339.31</ele>
        <time>2020-07-21T07:49:44.000Z</time>
      </trkpt>
      <trkpt lat="42.9201075" lon="-5.7023017">
        <ele>1339.16</ele>
        <time>2020-07-21T07:49:45.000Z</time>
      </trkpt>
      <trkpt lat="42.9201113" lon="-5.7023187">
        <ele>1339.16</ele>
        <time>2020-07-21T07:49:46.000Z</time>
      </trkpt>
      <trkpt lat="42.920115" lon="-5.7023367">
        <ele>1339.16</ele>
        <time>2020-07-21T07:49:47.000Z</time>
      </trkpt>
      <trkpt lat="42.9201203" lon="-5.7023522">
        <ele>1339.16</ele>
        <time>2020-07-21T07:49:48.000Z</time>
      </trkpt>
      <trkpt lat="42.9201262" lon="-5.7023672">
        <ele>1339.16</ele>
        <time>2020-07-21T07:49:49.000Z</time>
      </trkpt>
      <trkpt lat="42.920133" lon="-5.7023807">
        <ele>1339.16</ele>
        <time>2020-07-21T07:49:50.000Z</time>
      </trkpt>
      <trkpt lat="42.9201383" lon="-5.7023958">
        <ele>1339.16</ele>
        <time>2020-07-21T07:49:51.000Z</time>
      </trkpt>
      <trkpt lat="42.9201443" lon="-5.702409">
        <ele>1339.16</ele>
        <time>2020-07-21T07:49:52.000Z</time>
      </trkpt>
      <trkpt lat="42.9201527" lon="-5.7024173">
        <ele>1339</ele>
        <time>2020-07-21T07:49:53.000Z</time>
      </trkpt>
      <trkpt lat="42.9201655" lon="-5.7024208">
        <ele>1339</ele>
        <time>2020-07-21T07:49:54.000Z</time>
      </trkpt>
      <trkpt lat="42.9201795" lon="-5.7024202">
        <ele>1339</ele>
        <time>2020-07-21T07:49:55.000Z</time>
      </trkpt>
      <trkpt lat="42.9201963" lon="-5.7024168">
        <ele>1339</ele>
        <time>2020-07-21T07:49:56.000Z</time>
      </trkpt>
      <trkpt lat="42.9202108" lon="-5.7024108">
        <ele>1339</ele>
        <time>2020-07-21T07:49:57.000Z</time>
      </trkpt>
      <trkpt lat="42.9202265" lon="-5.7024027">
        <ele>1339</ele>
        <time>2020-07-21T07:49:58.000Z</time>
      </trkpt>
      <trkpt lat="42.9202393" lon="-5.702392">
        <ele>1339</ele>
        <time>2020-07-21T07:49:59.000Z</time>
      </trkpt>
      <trkpt lat="42.9202503" lon="-5.7023788">
        <ele>1339</ele>
        <time>2020-07-21T07:50:00.000Z</time>
      </trkpt>
      <trkpt lat="42.9202582" lon="-5.7023638">
        <ele>1339</ele>
        <time>2020-07-21T07:50:01.000Z</time>
      </trkpt>
      <trkpt lat="42.9202648" lon="-5.702348">
        <ele>1339</ele>
        <time>2020-07-21T07:50:02.000Z</time>
      </trkpt>
      <trkpt lat="42.9202742" lon="-5.7023327">
        <ele>1338.85</ele>
        <time>2020-07-21T07:50:03.000Z</time>
      </trkpt>
      <trkpt lat="42.9202832" lon="-5.7023173">
        <ele>1338.85</ele>
        <time>2020-07-21T07:50:04.000Z</time>
      </trkpt>
      <trkpt lat="42.9202905" lon="-5.7023022">
        <ele>1338.85</ele>
        <time>2020-07-21T07:50:05.000Z</time>
      </trkpt>
      <trkpt lat="42.920295" lon="-5.702286">
        <ele>1338.85</ele>
        <time>2020-07-21T07:50:06.000Z</time>
      </trkpt>
      <trkpt lat="42.9202983" lon="-5.7022683">
        <ele>1338.85</ele>
        <time>2020-07-21T07:50:07.000Z</time>
      </trkpt>
      <trkpt lat="42.9203005" lon="-5.70225">
        <ele>1338.85</ele>
        <time>2020-07-21T07:50:08.000Z</time>
      </trkpt>
      <trkpt lat="42.9203015" lon="-5.7022318">
        <ele>1338.7</ele>
        <time>2020-07-21T07:50:09.000Z</time>
      </trkpt>
      <trkpt lat="42.9203022" lon="-5.702214">
        <ele>1338.7</ele>
        <time>2020-07-21T07:50:10.000Z</time>
      </trkpt>
      <trkpt lat="42.9203028" lon="-5.7021957">
        <ele>1338.7</ele>
        <time>2020-07-21T07:50:11.000Z</time>
      </trkpt>
      <trkpt lat="42.920304" lon="-5.702177">
        <ele>1338.7</ele>
        <time>2020-07-21T07:50:12.000Z</time>
      </trkpt>
      <trkpt lat="42.9203058" lon="-5.7021588">
        <ele>1338.55</ele>
        <time>2020-07-21T07:50:13.000Z</time>
      </trkpt>
      <trkpt lat="42.9203078" lon="-5.7021412">
        <ele>1338.55</ele>
        <time>2020-07-21T07:50:14.000Z</time>
      </trkpt>
      <trkpt lat="42.92031" lon="-5.7021252">
        <ele>1338.55</ele>
        <time>2020-07-21T07:50:15.000Z</time>
      </trkpt>
      <trkpt lat="42.9203123" lon="-5.7021108">
        <ele>1338.55</ele>
        <time>2020-07-21T07:50:16.000Z</time>
      </trkpt>
      <trkpt lat="42.9203137" lon="-5.7021">
        <ele>1338.39</ele>
        <time>2020-07-21T07:50:17.000Z</time>
      </trkpt>
      <trkpt lat="42.9203148" lon="-5.7020942">
        <ele>1338.39</ele>
        <time>2020-07-21T07:50:18.000Z</time>
      </trkpt>
      <trkpt lat="42.9203147" lon="-5.7020882">
        <ele>1338.39</ele>
        <time>2020-07-21T07:50:19.000Z</time>
      </trkpt>
      <trkpt lat="42.9203147" lon="-5.70208">
        <ele>1338.39</ele>
        <time>2020-07-21T07:50:20.000Z</time>
      </trkpt>
      <trkpt lat="42.9203143" lon="-5.702067">
        <ele>1338.24</ele>
        <time>2020-07-21T07:50:21.000Z</time>
      </trkpt>
      <trkpt lat="42.9203142" lon="-5.7020522">
        <ele>1338.24</ele>
        <time>2020-07-21T07:50:22.000Z</time>
      </trkpt>
      <trkpt lat="42.9203142" lon="-5.7020357">
        <ele>1338.24</ele>
        <time>2020-07-21T07:50:23.000Z</time>
      </trkpt>
      <trkpt lat="42.920314" lon="-5.7020187">
        <ele>1338.24</ele>
        <time>2020-07-21T07:50:24.000Z</time>
      </trkpt>
      <trkpt lat="42.9203135" lon="-5.7020018">
        <ele>1338.24</ele>
        <time>2020-07-21T07:50:25.000Z</time>
      </trkpt>
      <trkpt lat="42.9203135" lon="-5.7019867">
        <ele>1338.24</ele>
        <time>2020-07-21T07:50:26.000Z</time>
      </trkpt>
      <trkpt lat="42.9203142" lon="-5.7019722">
        <ele>1338.24</ele>
        <time>2020-07-21T07:50:27.000Z</time>
      </trkpt>
      <trkpt lat="42.9203162" lon="-5.701959">
        <ele>1338.24</ele>
        <time>2020-07-21T07:50:28.000Z</time>
      </trkpt>
      <trkpt lat="42.920319" lon="-5.701946">
        <ele>1338.39</ele>
        <time>2020-07-21T07:50:29.000Z</time>
      </trkpt>
      <trkpt lat="42.9203242" lon="-5.7019325">
        <ele>1338.39</ele>
        <time>2020-07-21T07:50:30.000Z</time>
      </trkpt>
      <trkpt lat="42.9203325" lon="-5.7019177">
        <ele>1338.39</ele>
        <time>2020-07-21T07:50:31.000Z</time>
      </trkpt>
      <trkpt lat="42.9203437" lon="-5.7019045">
        <ele>1338.39</ele>
        <time>2020-07-21T07:50:32.000Z</time>
      </trkpt>
      <trkpt lat="42.9203552" lon="-5.7018933">
        <ele>1338.39</ele>
        <time>2020-07-21T07:50:33.000Z</time>
      </trkpt>
      <trkpt lat="42.9203662" lon="-5.701884">
        <ele>1338.39</ele>
        <time>2020-07-21T07:50:34.000Z</time>
      </trkpt>
      <trkpt lat="42.9203733" lon="-5.7018727">
        <ele>1338.55</ele>
        <time>2020-07-21T07:50:35.000Z</time>
      </trkpt>
      <trkpt lat="42.920378" lon="-5.701859">
        <ele>1338.55</ele>
        <time>2020-07-21T07:50:36.000Z</time>
      </trkpt>
      <trkpt lat="42.9203813" lon="-5.701844">
        <ele>1338.55</ele>
        <time>2020-07-21T07:50:37.000Z</time>
      </trkpt>
      <trkpt lat="42.9203855" lon="-5.7018282">
        <ele>1338.55</ele>
        <time>2020-07-21T07:50:38.000Z</time>
      </trkpt>
      <trkpt lat="42.9203912" lon="-5.7018122">
        <ele>1338.7</ele>
        <time>2020-07-21T07:50:39.000Z</time>
      </trkpt>
      <trkpt lat="42.9203972" lon="-5.7017973">
        <ele>1338.7</ele>
        <time>2020-07-21T07:50:40.000Z</time>
      </trkpt>
      <trkpt lat="42.9204032" lon="-5.7017845">
        <ele>1338.85</ele>
        <time>2020-07-21T07:50:41.000Z</time>
      </trkpt>
      <trkpt lat="42.9204073" lon="-5.70177">
        <ele>1338.85</ele>
        <time>2020-07-21T07:50:42.000Z</time>
      </trkpt>
      <trkpt lat="42.92041" lon="-5.701753">
        <ele>1338.85</ele>
        <time>2020-07-21T07:50:43.000Z</time>
      </trkpt>
      <trkpt lat="42.9204108" lon="-5.7017327">
        <ele>1338.85</ele>
        <time>2020-07-21T07:50:44.000Z</time>
      </trkpt>
      <trkpt lat="42.9204117" lon="-5.7017133">
        <ele>1339</ele>
        <time>2020-07-21T07:50:45.000Z</time>
      </trkpt>
      <trkpt lat="42.9204125" lon="-5.7016957">
        <ele>1339</ele>
        <time>2020-07-21T07:50:46.000Z</time>
      </trkpt>
      <trkpt lat="42.9204123" lon="-5.7016792">
        <ele>1339</ele>
        <time>2020-07-21T07:50:47.000Z</time>
      </trkpt>
      <trkpt lat="42.9204127" lon="-5.701661">
        <ele>1339</ele>
        <time>2020-07-21T07:50:48.000Z</time>
      </trkpt>
      <trkpt lat="42.9204125" lon="-5.7016405">
        <ele>1339</ele>
        <time>2020-07-21T07:50:49.000Z</time>
      </trkpt>
      <trkpt lat="42.9204142" lon="-5.7016173">
        <ele>1339</ele>
        <time>2020-07-21T07:50:50.000Z</time>
      </trkpt>
      <trkpt lat="42.9204143" lon="-5.7015968">
        <ele>1339.16</ele>
        <time>2020-07-21T07:50:51.000Z</time>
      </trkpt>
      <trkpt lat="42.9204142" lon="-5.7015773">
        <ele>1339.16</ele>
        <time>2020-07-21T07:50:52.000Z</time>
      </trkpt>
      <trkpt lat="42.9204137" lon="-5.7015603">
        <ele>1339.16</ele>
        <time>2020-07-21T07:50:53.000Z</time>
      </trkpt>
      <trkpt lat="42.9204147" lon="-5.7015437">
        <ele>1339.16</ele>
        <time>2020-07-21T07:50:54.000Z</time>
      </trkpt>
      <trkpt lat="42.920416" lon="-5.7015265">
        <ele>1339.31</ele>
        <time>2020-07-21T07:50:55.000Z</time>
      </trkpt>
      <trkpt lat="42.9204168" lon="-5.7015082">
        <ele>1339.31</ele>
        <time>2020-07-21T07:50:56.000Z</time>
      </trkpt>
      <trkpt lat="42.9204158" lon="-5.7014882">
        <ele>1339.31</ele>
        <time>2020-07-21T07:50:57.000Z</time>
      </trkpt>
      <trkpt lat="42.9204145" lon="-5.7014693">
        <ele>1339.31</ele>
        <time>2020-07-21T07:50:58.000Z</time>
      </trkpt>
      <trkpt lat="42.920413" lon="-5.7014515">
        <ele>1339.46</ele>
        <time>2020-07-21T07:50:59.000Z</time>
      </trkpt>
      <trkpt lat="42.92041" lon="-5.7014335">
        <ele>1339.46</ele>
        <time>2020-07-21T07:51:00.000Z</time>
      </trkpt>
      <trkpt lat="42.9204083" lon="-5.7014152">
        <ele>1339.46</ele>
        <time>2020-07-21T07:51:01.000Z</time>
      </trkpt>
      <trkpt lat="42.9204068" lon="-5.7013968">
        <ele>1339.46</ele>
        <time>2020-07-21T07:51:02.000Z</time>
      </trkpt>
      <trkpt lat="42.9204068" lon="-5.7013773">
        <ele>1339.61</ele>
        <time>2020-07-21T07:51:03.000Z</time>
      </trkpt>
      <trkpt lat="42.9204057" lon="-5.7013557">
        <ele>1339.61</ele>
        <time>2020-07-21T07:51:04.000Z</time>
      </trkpt>
      <trkpt lat="42.9204063" lon="-5.7013335">
        <ele>1339.61</ele>
        <time>2020-07-21T07:51:05.000Z</time>
      </trkpt>
      <trkpt lat="42.9204095" lon="-5.7013152">
        <ele>1339.61</ele>
        <time>2020-07-21T07:51:06.000Z</time>
      </trkpt>
      <trkpt lat="42.9204152" lon="-5.7012987">
        <ele>1339.61</ele>
        <time>2020-07-21T07:51:07.000Z</time>
      </trkpt>
      <trkpt lat="42.9204202" lon="-5.7012817">
        <ele>1339.61</ele>
        <time>2020-07-21T07:51:08.000Z</time>
      </trkpt>
      <trkpt lat="42.920424" lon="-5.7012613">
        <ele>1339.77</ele>
        <time>2020-07-21T07:51:09.000Z</time>
      </trkpt>
      <trkpt lat="42.9204258" lon="-5.7012432">
        <ele>1339.77</ele>
        <time>2020-07-21T07:51:10.000Z</time>
      </trkpt>
      <trkpt lat="42.920428" lon="-5.7012262">
        <ele>1339.77</ele>
        <time>2020-07-21T07:51:11.000Z</time>
      </trkpt>
      <trkpt lat="42.9204317" lon="-5.7012098">
        <ele>1339.77</ele>
        <time>2020-07-21T07:51:12.000Z</time>
      </trkpt>
      <trkpt lat="42.9204348" lon="-5.7011918">
        <ele>1339.77</ele>
        <time>2020-07-21T07:51:13.000Z</time>
      </trkpt>
      <trkpt lat="42.9204372" lon="-5.7011735">
        <ele>1339.77</ele>
        <time>2020-07-21T07:51:14.000Z</time>
      </trkpt>
      <trkpt lat="42.9204385" lon="-5.701155">
        <ele>1339.77</ele>
        <time>2020-07-21T07:51:15.000Z</time>
      </trkpt>
      <trkpt lat="42.92044" lon="-5.7011355">
        <ele>1339.77</ele>
        <time>2020-07-21T07:51:16.000Z</time>
      </trkpt>
      <trkpt lat="42.9204413" lon="-5.7011153">
        <ele>1339.92</ele>
        <time>2020-07-21T07:51:17.000Z</time>
      </trkpt>
      <trkpt lat="42.9204422" lon="-5.7010957">
        <ele>1339.92</ele>
        <time>2020-07-21T07:51:18.000Z</time>
      </trkpt>
      <trkpt lat="42.9204423" lon="-5.7010758">
        <ele>1339.92</ele>
        <time>2020-07-21T07:51:19.000Z</time>
      </trkpt>
      <trkpt lat="42.9204418" lon="-5.7010558">
        <ele>1339.92</ele>
        <time>2020-07-21T07:51:20.000Z</time>
      </trkpt>
      <trkpt lat="42.9204418" lon="-5.7010365">
        <ele>1339.92</ele>
        <time>2020-07-21T07:51:21.000Z</time>
      </trkpt>
      <trkpt lat="42.9204432" lon="-5.7010178">
        <ele>1339.92</ele>
        <time>2020-07-21T07:51:22.000Z</time>
      </trkpt>
      <trkpt lat="42.920446" lon="-5.7010002">
        <ele>1339.77</ele>
        <time>2020-07-21T07:51:23.000Z</time>
      </trkpt>
      <trkpt lat="42.9204487" lon="-5.7009828">
        <ele>1339.77</ele>
        <time>2020-07-21T07:51:24.000Z</time>
      </trkpt>
      <trkpt lat="42.9204517" lon="-5.7009662">
        <ele>1339.77</ele>
        <time>2020-07-21T07:51:25.000Z</time>
      </trkpt>
      <trkpt lat="42.9204558" lon="-5.7009503">
        <ele>1339.77</ele>
        <time>2020-07-21T07:51:26.000Z</time>
      </trkpt>
      <trkpt lat="42.9204617" lon="-5.7009347">
        <ele>1339.77</ele>
        <time>2020-07-21T07:51:27.000Z</time>
      </trkpt>
      <trkpt lat="42.9204675" lon="-5.700919">
        <ele>1339.77</ele>
        <time>2020-07-21T07:51:28.000Z</time>
      </trkpt>
      <trkpt lat="42.9204725" lon="-5.7009025">
        <ele>1339.61</ele>
        <time>2020-07-21T07:51:29.000Z</time>
      </trkpt>
      <trkpt lat="42.9204762" lon="-5.7008858">
        <ele>1339.61</ele>
        <time>2020-07-21T07:51:30.000Z</time>
      </trkpt>
      <trkpt lat="42.9204795" lon="-5.7008688">
        <ele>1339.46</ele>
        <time>2020-07-21T07:51:31.000Z</time>
      </trkpt>
      <trkpt lat="42.920483" lon="-5.7008513">
        <ele>1339.46</ele>
        <time>2020-07-21T07:51:32.000Z</time>
      </trkpt>
      <trkpt lat="42.9204862" lon="-5.7008337">
        <ele>1339.46</ele>
        <time>2020-07-21T07:51:33.000Z</time>
      </trkpt>
      <trkpt lat="42.920489" lon="-5.7008153">
        <ele>1339.46</ele>
        <time>2020-07-21T07:51:34.000Z</time>
      </trkpt>
      <trkpt lat="42.9204912" lon="-5.7007968">
        <ele>1339.31</ele>
        <time>2020-07-21T07:51:35.000Z</time>
      </trkpt>
      <trkpt lat="42.920493" lon="-5.7007787">
        <ele>1339.31</ele>
        <time>2020-07-21T07:51:36.000Z</time>
      </trkpt>
      <trkpt lat="42.9204943" lon="-5.700762">
        <ele>1339.16</ele>
        <time>2020-07-21T07:51:37.000Z</time>
      </trkpt>
      <trkpt lat="42.9204963" lon="-5.7007448">
        <ele>1339.16</ele>
        <time>2020-07-21T07:51:38.000Z</time>
      </trkpt>
      <trkpt lat="42.9204992" lon="-5.7007268">
        <ele>1339.16</ele>
        <time>2020-07-21T07:51:39.000Z</time>
      </trkpt>
      <trkpt lat="42.9205023" lon="-5.7007082">
        <ele>1339.16</ele>
        <time>2020-07-21T07:51:40.000Z</time>
      </trkpt>
      <trkpt lat="42.9205053" lon="-5.7006903">
        <ele>1339</ele>
        <time>2020-07-21T07:51:41.000Z</time>
      </trkpt>
      <trkpt lat="42.920508" lon="-5.7006727">
        <ele>1339</ele>
        <time>2020-07-21T07:51:42.000Z</time>
      </trkpt>
      <trkpt lat="42.9205112" lon="-5.7006553">
        <ele>1338.85</ele>
        <time>2020-07-21T07:51:43.000Z</time>
      </trkpt>
      <trkpt lat="42.9205153" lon="-5.7006388">
        <ele>1338.85</ele>
        <time>2020-07-21T07:51:44.000Z</time>
      </trkpt>
      <trkpt lat="42.9205198" lon="-5.7006222">
        <ele>1338.7</ele>
        <time>2020-07-21T07:51:45.000Z</time>
      </trkpt>
      <trkpt lat="42.9205233" lon="-5.7006048">
        <ele>1338.7</ele>
        <time>2020-07-21T07:51:46.000Z</time>
      </trkpt>
      <trkpt lat="42.9205258" lon="-5.7005865">
        <ele>1338.7</ele>
        <time>2020-07-21T07:51:47.000Z</time>
      </trkpt>
      <trkpt lat="42.9205285" lon="-5.700569">
        <ele>1338.7</ele>
        <time>2020-07-21T07:51:48.000Z</time>
      </trkpt>
      <trkpt lat="42.9205325" lon="-5.7005533">
        <ele>1338.55</ele>
        <time>2020-07-21T07:51:49.000Z</time>
      </trkpt>
      <trkpt lat="42.9205385" lon="-5.7005412">
        <ele>1338.55</ele>
        <time>2020-07-21T07:51:50.000Z</time>
      </trkpt>
      <trkpt lat="42.9205462" lon="-5.7005307">
        <ele>1338.39</ele>
        <time>2020-07-21T07:51:51.000Z</time>
      </trkpt>
      <trkpt lat="42.9205528" lon="-5.7005208">
        <ele>1338.39</ele>
        <time>2020-07-21T07:51:52.000Z</time>
      </trkpt>
      <trkpt lat="42.9205563" lon="-5.7005095">
        <ele>1338.24</ele>
        <time>2020-07-21T07:51:53.000Z</time>
      </trkpt>
      <trkpt lat="42.9205573" lon="-5.7004973">
        <ele>1338.24</ele>
        <time>2020-07-21T07:51:54.000Z</time>
      </trkpt>
      <trkpt lat="42.920556" lon="-5.7004832">
        <ele>1338.09</ele>
        <time>2020-07-21T07:51:55.000Z</time>
      </trkpt>
      <trkpt lat="42.9205545" lon="-5.700467">
        <ele>1338.09</ele>
        <time>2020-07-21T07:51:56.000Z</time>
      </trkpt>
      <trkpt lat="42.920553" lon="-5.7004495">
        <ele>1337.94</ele>
        <time>2020-07-21T07:51:57.000Z</time>
      </trkpt>
      <trkpt lat="42.9205542" lon="-5.7004325">
        <ele>1337.94</ele>
        <time>2020-07-21T07:51:58.000Z</time>
      </trkpt>
      <trkpt lat="42.9205563" lon="-5.7004155">
        <ele>1337.78</ele>
        <time>2020-07-21T07:51:59.000Z</time>
      </trkpt>
      <trkpt lat="42.9205585" lon="-5.700398">
        <ele>1337.78</ele>
        <time>2020-07-21T07:52:00.000Z</time>
      </trkpt>
      <trkpt lat="42.9205598" lon="-5.7003793">
        <ele>1337.63</ele>
        <time>2020-07-21T07:52:01.000Z</time>
      </trkpt>
      <trkpt lat="42.9205608" lon="-5.7003608">
        <ele>1337.63</ele>
        <time>2020-07-21T07:52:02.000Z</time>
      </trkpt>
      <trkpt lat="42.9205617" lon="-5.7003432">
        <ele>1337.63</ele>
        <time>2020-07-21T07:52:03.000Z</time>
      </trkpt>
      <trkpt lat="42.920562" lon="-5.7003253">
        <ele>1337.63</ele>
        <time>2020-07-21T07:52:04.000Z</time>
      </trkpt>
      <trkpt lat="42.9205615" lon="-5.7003062">
        <ele>1337.48</ele>
        <time>2020-07-21T07:52:05.000Z</time>
      </trkpt>
      <trkpt lat="42.9205612" lon="-5.7002865">
        <ele>1337.48</ele>
        <time>2020-07-21T07:52:06.000Z</time>
      </trkpt>
      <trkpt lat="42.9205617" lon="-5.7002668">
        <ele>1337.33</ele>
        <time>2020-07-21T07:52:07.000Z</time>
      </trkpt>
      <trkpt lat="42.9205633" lon="-5.7002485">
        <ele>1337.33</ele>
        <time>2020-07-21T07:52:08.000Z</time>
      </trkpt>
      <trkpt lat="42.9205658" lon="-5.700231">
        <ele>1337.17</ele>
        <time>2020-07-21T07:52:09.000Z</time>
      </trkpt>
      <trkpt lat="42.9205685" lon="-5.7002145">
        <ele>1337.17</ele>
        <time>2020-07-21T07:52:10.000Z</time>
      </trkpt>
      <trkpt lat="42.9205698" lon="-5.700198">
        <ele>1337.02</ele>
        <time>2020-07-21T07:52:11.000Z</time>
      </trkpt>
      <trkpt lat="42.9205702" lon="-5.7001802">
        <ele>1337.02</ele>
        <time>2020-07-21T07:52:12.000Z</time>
      </trkpt>
      <trkpt lat="42.9205693" lon="-5.7001583">
        <ele>1336.87</ele>
        <time>2020-07-21T07:52:13.000Z</time>
      </trkpt>
      <trkpt lat="42.9205693" lon="-5.7001362">
        <ele>1336.87</ele>
        <time>2020-07-21T07:52:14.000Z</time>
      </trkpt>
      <trkpt lat="42.92057" lon="-5.7001148">
        <ele>1336.87</ele>
        <time>2020-07-21T07:52:15.000Z</time>
      </trkpt>
      <trkpt lat="42.9205717" lon="-5.7000967">
        <ele>1336.87</ele>
        <time>2020-07-21T07:52:16.000Z</time>
      </trkpt>
      <trkpt lat="42.9205727" lon="-5.7000745">
        <ele>1336.72</ele>
        <time>2020-07-21T07:52:17.000Z</time>
      </trkpt>
      <trkpt lat="42.920573" lon="-5.7000508">
        <ele>1336.72</ele>
        <time>2020-07-21T07:52:18.000Z</time>
      </trkpt>
      <trkpt lat="42.9205737" lon="-5.7000252">
        <ele>1336.56</ele>
        <time>2020-07-21T07:52:19.000Z</time>
      </trkpt>
      <trkpt lat="42.9205748" lon="-5.7000017">
        <ele>1336.56</ele>
        <time>2020-07-21T07:52:20.000Z</time>
      </trkpt>
      <trkpt lat="42.9205762" lon="-5.699977">
        <ele>1336.56</ele>
        <time>2020-07-21T07:52:21.000Z</time>
      </trkpt>
      <trkpt lat="42.920578" lon="-5.6999532">
        <ele>1336.56</ele>
        <time>2020-07-21T07:52:22.000Z</time>
      </trkpt>
      <trkpt lat="42.9205798" lon="-5.6999302">
        <ele>1336.41</ele>
        <time>2020-07-21T07:52:23.000Z</time>
      </trkpt>
      <trkpt lat="42.9205823" lon="-5.6999087">
        <ele>1336.41</ele>
        <time>2020-07-21T07:52:24.000Z</time>
      </trkpt>
      <trkpt lat="42.9205843" lon="-5.6998868">
        <ele>1336.41</ele>
        <time>2020-07-21T07:52:25.000Z</time>
      </trkpt>
      <trkpt lat="42.9205855" lon="-5.6998657">
        <ele>1336.41</ele>
        <time>2020-07-21T07:52:26.000Z</time>
      </trkpt>
      <trkpt lat="42.9205858" lon="-5.6998443">
        <ele>1336.26</ele>
        <time>2020-07-21T07:52:27.000Z</time>
      </trkpt>
      <trkpt lat="42.920586" lon="-5.6998237">
        <ele>1336.26</ele>
        <time>2020-07-21T07:52:28.000Z</time>
      </trkpt>
      <trkpt lat="42.920586" lon="-5.6998028">
        <ele>1336.26</ele>
        <time>2020-07-21T07:52:29.000Z</time>
      </trkpt>
      <trkpt lat="42.9205867" lon="-5.6997837">
        <ele>1336.26</ele>
        <time>2020-07-21T07:52:30.000Z</time>
      </trkpt>
      <trkpt lat="42.9205868" lon="-5.6997643">
        <ele>1336.26</ele>
        <time>2020-07-21T07:52:31.000Z</time>
      </trkpt>
      <trkpt lat="42.9205868" lon="-5.6997445">
        <ele>1336.26</ele>
        <time>2020-07-21T07:52:32.000Z</time>
      </trkpt>
      <trkpt lat="42.920586" lon="-5.6997237">
        <ele>1336.11</ele>
        <time>2020-07-21T07:52:33.000Z</time>
      </trkpt>
      <trkpt lat="42.9205847" lon="-5.6997012">
        <ele>1336.11</ele>
        <time>2020-07-21T07:52:34.000Z</time>
      </trkpt>
      <trkpt lat="42.9205832" lon="-5.699679">
        <ele>1336.11</ele>
        <time>2020-07-21T07:52:35.000Z</time>
      </trkpt>
      <trkpt lat="42.9205832" lon="-5.6996578">
        <ele>1336.11</ele>
        <time>2020-07-21T07:52:36.000Z</time>
      </trkpt>
      <trkpt lat="42.9205843" lon="-5.699639">
        <ele>1336.11</ele>
        <time>2020-07-21T07:52:37.000Z</time>
      </trkpt>
      <trkpt lat="42.9205863" lon="-5.6996212">
        <ele>1336.11</ele>
        <time>2020-07-21T07:52:38.000Z</time>
      </trkpt>
      <trkpt lat="42.9205883" lon="-5.6996052">
        <ele>1335.95</ele>
        <time>2020-07-21T07:52:39.000Z</time>
      </trkpt>
      <trkpt lat="42.9205907" lon="-5.6995898">
        <ele>1335.95</ele>
        <time>2020-07-21T07:52:40.000Z</time>
      </trkpt>
      <trkpt lat="42.9205922" lon="-5.6995733">
        <ele>1335.95</ele>
        <time>2020-07-21T07:52:41.000Z</time>
      </trkpt>
      <trkpt lat="42.9205935" lon="-5.6995557">
        <ele>1335.95</ele>
        <time>2020-07-21T07:52:42.000Z</time>
      </trkpt>
      <trkpt lat="42.9205938" lon="-5.6995362">
        <ele>1335.8</ele>
        <time>2020-07-21T07:52:43.000Z</time>
      </trkpt>
      <trkpt lat="42.9205945" lon="-5.6995163">
        <ele>1335.8</ele>
        <time>2020-07-21T07:52:44.000Z</time>
      </trkpt>
      <trkpt lat="42.9205952" lon="-5.6994952">
        <ele>1335.8</ele>
        <time>2020-07-21T07:52:45.000Z</time>
      </trkpt>
      <trkpt lat="42.9205957" lon="-5.699475">
        <ele>1335.8</ele>
        <time>2020-07-21T07:52:46.000Z</time>
      </trkpt>
      <trkpt lat="42.9205965" lon="-5.6994562">
        <ele>1335.65</ele>
        <time>2020-07-21T07:52:47.000Z</time>
      </trkpt>
      <trkpt lat="42.9205973" lon="-5.6994382">
        <ele>1335.65</ele>
        <time>2020-07-21T07:52:48.000Z</time>
      </trkpt>
      <trkpt lat="42.920599" lon="-5.6994202">
        <ele>1335.65</ele>
        <time>2020-07-21T07:52:49.000Z</time>
      </trkpt>
      <trkpt lat="42.9206012" lon="-5.6994022">
        <ele>1335.65</ele>
        <time>2020-07-21T07:52:50.000Z</time>
      </trkpt>
      <trkpt lat="42.9206037" lon="-5.6993838">
        <ele>1335.5</ele>
        <time>2020-07-21T07:52:51.000Z</time>
      </trkpt>
      <trkpt lat="42.920606" lon="-5.6993652">
        <ele>1335.5</ele>
        <time>2020-07-21T07:52:52.000Z</time>
      </trkpt>
      <trkpt lat="42.920608" lon="-5.6993458">
        <ele>1335.34</ele>
        <time>2020-07-21T07:52:53.000Z</time>
      </trkpt>
      <trkpt lat="42.92061" lon="-5.699327">
        <ele>1335.34</ele>
        <time>2020-07-21T07:52:54.000Z</time>
      </trkpt>
      <trkpt lat="42.9206113" lon="-5.6993077">
        <ele>1335.34</ele>
        <time>2020-07-21T07:52:55.000Z</time>
      </trkpt>
      <trkpt lat="42.9206128" lon="-5.699288">
        <ele>1335.34</ele>
        <time>2020-07-21T07:52:56.000Z</time>
      </trkpt>
      <trkpt lat="42.9206142" lon="-5.6992687">
        <ele>1335.19</ele>
        <time>2020-07-21T07:52:57.000Z</time>
      </trkpt>
      <trkpt lat="42.9206167" lon="-5.69925">
        <ele>1335.19</ele>
        <time>2020-07-21T07:52:58.000Z</time>
      </trkpt>
      <trkpt lat="42.9206192" lon="-5.6992328">
        <ele>1335.04</ele>
        <time>2020-07-21T07:52:59.000Z</time>
      </trkpt>
      <trkpt lat="42.9206223" lon="-5.6992147">
        <ele>1335.04</ele>
        <time>2020-07-21T07:53:00.000Z</time>
      </trkpt>
      <trkpt lat="42.9206252" lon="-5.6991965">
        <ele>1334.89</ele>
        <time>2020-07-21T07:53:01.000Z</time>
      </trkpt>
      <trkpt lat="42.9206282" lon="-5.6991778">
        <ele>1334.89</ele>
        <time>2020-07-21T07:53:02.000Z</time>
      </trkpt>
      <trkpt lat="42.9206308" lon="-5.6991592">
        <ele>1334.89</ele>
        <time>2020-07-21T07:53:03.000Z</time>
      </trkpt>
      <trkpt lat="42.9206335" lon="-5.6991413">
        <ele>1334.89</ele>
        <time>2020-07-21T07:53:04.000Z</time>
      </trkpt>
      <trkpt lat="42.9206372" lon="-5.6991237">
        <ele>1334.73</ele>
        <time>2020-07-21T07:53:05.000Z</time>
      </trkpt>
      <trkpt lat="42.9206412" lon="-5.6991075">
        <ele>1334.73</ele>
        <time>2020-07-21T07:53:06.000Z</time>
      </trkpt>
      <trkpt lat="42.9206455" lon="-5.6990913">
        <ele>1334.58</ele>
        <time>2020-07-21T07:53:07.000Z</time>
      </trkpt>
      <trkpt lat="42.9206495" lon="-5.6990748">
        <ele>1334.58</ele>
        <time>2020-07-21T07:53:08.000Z</time>
      </trkpt>
      <trkpt lat="42.9206535" lon="-5.6990568">
        <ele>1334.43</ele>
        <time>2020-07-21T07:53:09.000Z</time>
      </trkpt>
      <trkpt lat="42.9206572" lon="-5.6990385">
        <ele>1334.43</ele>
        <time>2020-07-21T07:53:10.000Z</time>
      </trkpt>
      <trkpt lat="42.9206608" lon="-5.6990205">
        <ele>1334.43</ele>
        <time>2020-07-21T07:53:11.000Z</time>
      </trkpt>
      <trkpt lat="42.9206653" lon="-5.6990048">
        <ele>1334.43</ele>
        <time>2020-07-21T07:53:12.000Z</time>
      </trkpt>
      <trkpt lat="42.9206705" lon="-5.698989">
        <ele>1334.28</ele>
        <time>2020-07-21T07:53:13.000Z</time>
      </trkpt>
      <trkpt lat="42.9206758" lon="-5.6989748">
        <ele>1334.28</ele>
        <time>2020-07-21T07:53:14.000Z</time>
      </trkpt>
      <trkpt lat="42.9206812" lon="-5.6989608">
        <ele>1334.13</ele>
        <time>2020-07-21T07:53:15.000Z</time>
      </trkpt>
      <trkpt lat="42.9206875" lon="-5.6989477">
        <ele>1334.13</ele>
        <time>2020-07-21T07:53:16.000Z</time>
      </trkpt>
      <trkpt lat="42.9206947" lon="-5.6989337">
        <ele>1333.97</ele>
        <time>2020-07-21T07:53:17.000Z</time>
      </trkpt>
      <trkpt lat="42.920702" lon="-5.6989183">
        <ele>1333.97</ele>
        <time>2020-07-21T07:53:18.000Z</time>
      </trkpt>
      <trkpt lat="42.9207095" lon="-5.698903">
        <ele>1333.97</ele>
        <time>2020-07-21T07:53:19.000Z</time>
      </trkpt>
      <trkpt lat="42.920716" lon="-5.6988878">
        <ele>1333.97</ele>
        <time>2020-07-21T07:53:20.000Z</time>
      </trkpt>
      <trkpt lat="42.9207215" lon="-5.6988727">
        <ele>1333.82</ele>
        <time>2020-07-21T07:53:21.000Z</time>
      </trkpt>
      <trkpt lat="42.9207262" lon="-5.6988568">
        <ele>1333.82</ele>
        <time>2020-07-21T07:53:22.000Z</time>
      </trkpt>
      <trkpt lat="42.9207308" lon="-5.6988397">
        <ele>1333.82</ele>
        <time>2020-07-21T07:53:23.000Z</time>
      </trkpt>
      <trkpt lat="42.9207365" lon="-5.6988227">
        <ele>1333.82</ele>
        <time>2020-07-21T07:53:24.000Z</time>
      </trkpt>
      <trkpt lat="42.9207433" lon="-5.6988058">
        <ele>1333.67</ele>
        <time>2020-07-21T07:53:25.000Z</time>
      </trkpt>
      <trkpt lat="42.9207512" lon="-5.69879">
        <ele>1333.67</ele>
        <time>2020-07-21T07:53:26.000Z</time>
      </trkpt>
      <trkpt lat="42.9207595" lon="-5.6987743">
        <ele>1333.67</ele>
        <time>2020-07-21T07:53:27.000Z</time>
      </trkpt>
      <trkpt lat="42.9207682" lon="-5.6987598">
        <ele>1333.67</ele>
        <time>2020-07-21T07:53:28.000Z</time>
      </trkpt>
      <trkpt lat="42.9207773" lon="-5.6987467">
        <ele>1333.52</ele>
        <time>2020-07-21T07:53:29.000Z</time>
      </trkpt>
      <trkpt lat="42.9207877" lon="-5.6987348">
        <ele>1333.52</ele>
        <time>2020-07-21T07:53:30.000Z</time>
      </trkpt>
      <trkpt lat="42.9207985" lon="-5.6987247">
        <ele>1333.52</ele>
        <time>2020-07-21T07:53:31.000Z</time>
      </trkpt>
      <trkpt lat="42.9208092" lon="-5.6987145">
        <ele>1333.52</ele>
        <time>2020-07-21T07:53:32.000Z</time>
      </trkpt>
      <trkpt lat="42.9208185" lon="-5.6987042">
        <ele>1333.36</ele>
        <time>2020-07-21T07:53:33.000Z</time>
      </trkpt>
      <trkpt lat="42.9208265" lon="-5.6986917">
        <ele>1333.36</ele>
        <time>2020-07-21T07:53:34.000Z</time>
      </trkpt>
      <trkpt lat="42.9208338" lon="-5.6986782">
        <ele>1333.36</ele>
        <time>2020-07-21T07:53:35.000Z</time>
      </trkpt>
      <trkpt lat="42.9208418" lon="-5.6986645">
        <ele>1333.36</ele>
        <time>2020-07-21T07:53:36.000Z</time>
      </trkpt>
      <trkpt lat="42.9208502" lon="-5.6986525">
        <ele>1333.21</ele>
        <time>2020-07-21T07:53:37.000Z</time>
      </trkpt>
      <trkpt lat="42.920858" lon="-5.6986425">
        <ele>1333.21</ele>
        <time>2020-07-21T07:53:38.000Z</time>
      </trkpt>
      <trkpt lat="42.9208628" lon="-5.6986363">
        <ele>1333.06</ele>
        <time>2020-07-21T07:53:39.000Z</time>
      </trkpt>
      <trkpt lat="42.9208648" lon="-5.698634">
        <ele>1333.06</ele>
        <time>2020-07-21T07:53:40.000Z</time>
      </trkpt>
      <trkpt lat="42.9208648" lon="-5.698635">
        <ele>1333.06</ele>
        <time>2020-07-21T07:53:41.000Z</time>
      </trkpt>
      <trkpt lat="42.9208657" lon="-5.6986352">
        <ele>1333.06</ele>
        <time>2020-07-21T07:53:42.000Z</time>
      </trkpt>
      <trkpt lat="42.9208678" lon="-5.6986303">
        <ele>1332.91</ele>
        <time>2020-07-21T07:53:43.000Z</time>
      </trkpt>
      <trkpt lat="42.9208717" lon="-5.6986205">
        <ele>1332.91</ele>
        <time>2020-07-21T07:53:44.000Z</time>
      </trkpt>
      <trkpt lat="42.9208773" lon="-5.6986068">
        <ele>1332.91</ele>
        <time>2020-07-21T07:53:45.000Z</time>
      </trkpt>
      <trkpt lat="42.9208843" lon="-5.6985915">
        <ele>1332.91</ele>
        <time>2020-07-21T07:53:46.000Z</time>
      </trkpt>
      <trkpt lat="42.9208893" lon="-5.6985725">
        <ele>1332.75</ele>
        <time>2020-07-21T07:53:47.000Z</time>
      </trkpt>
      <trkpt lat="42.9208938" lon="-5.6985525">
        <ele>1332.75</ele>
        <time>2020-07-21T07:53:48.000Z</time>
      </trkpt>
      <trkpt lat="42.9208975" lon="-5.6985325">
        <ele>1332.6</ele>
        <time>2020-07-21T07:53:49.000Z</time>
      </trkpt>
      <trkpt lat="42.9209035" lon="-5.698515">
        <ele>1332.6</ele>
        <time>2020-07-21T07:53:50.000Z</time>
      </trkpt>
      <trkpt lat="42.9209105" lon="-5.6985002">
        <ele>1332.6</ele>
        <time>2020-07-21T07:53:51.000Z</time>
      </trkpt>
      <trkpt lat="42.920919" lon="-5.6984883">
        <ele>1332.6</ele>
        <time>2020-07-21T07:53:52.000Z</time>
      </trkpt>
      <trkpt lat="42.920928" lon="-5.6984788">
        <ele>1332.45</ele>
        <time>2020-07-21T07:53:53.000Z</time>
      </trkpt>
      <trkpt lat="42.920937" lon="-5.6984705">
        <ele>1332.45</ele>
        <time>2020-07-21T07:53:54.000Z</time>
      </trkpt>
      <trkpt lat="42.920945" lon="-5.698462">
        <ele>1332.3</ele>
        <time>2020-07-21T07:53:55.000Z</time>
      </trkpt>
      <trkpt lat="42.9209528" lon="-5.698452">
        <ele>1332.3</ele>
        <time>2020-07-21T07:53:56.000Z</time>
      </trkpt>
      <trkpt lat="42.9209603" lon="-5.6984408">
        <ele>1332.15</ele>
        <time>2020-07-21T07:53:57.000Z</time>
      </trkpt>
      <trkpt lat="42.9209663" lon="-5.6984312">
        <ele>1332.15</ele>
        <time>2020-07-21T07:53:58.000Z</time>
      </trkpt>
      <trkpt lat="42.920972" lon="-5.6984227">
        <ele>1331.99</ele>
        <time>2020-07-21T07:53:59.000Z</time>
      </trkpt>
      <trkpt lat="42.920978" lon="-5.6984132">
        <ele>1331.99</ele>
        <time>2020-07-21T07:54:00.000Z</time>
      </trkpt>
      <trkpt lat="42.920986" lon="-5.698401">
        <ele>1331.99</ele>
        <time>2020-07-21T07:54:01.000Z</time>
      </trkpt>
      <trkpt lat="42.9209943" lon="-5.6983895">
        <ele>1331.99</ele>
        <time>2020-07-21T07:54:02.000Z</time>
      </trkpt>
      <trkpt lat="42.9210025" lon="-5.6983798">
        <ele>1331.84</ele>
        <time>2020-07-21T07:54:03.000Z</time>
      </trkpt>
      <trkpt lat="42.9210107" lon="-5.6983718">
        <ele>1331.84</ele>
        <time>2020-07-21T07:54:04.000Z</time>
      </trkpt>
      <trkpt lat="42.9210195" lon="-5.6983638">
        <ele>1331.69</ele>
        <time>2020-07-21T07:54:05.000Z</time>
      </trkpt>
      <trkpt lat="42.9210287" lon="-5.6983568">
        <ele>1331.69</ele>
        <time>2020-07-21T07:54:06.000Z</time>
      </trkpt>
      <trkpt lat="42.9210378" lon="-5.6983505">
        <ele>1331.54</ele>
        <time>2020-07-21T07:54:07.000Z</time>
      </trkpt>
      <trkpt lat="42.9210465" lon="-5.6983462">
        <ele>1331.54</ele>
        <time>2020-07-21T07:54:08.000Z</time>
      </trkpt>
      <trkpt lat="42.9210555" lon="-5.6983415">
        <ele>1331.54</ele>
        <time>2020-07-21T07:54:09.000Z</time>
      </trkpt>
      <trkpt lat="42.9210647" lon="-5.698336">
        <ele>1331.54</ele>
        <time>2020-07-21T07:54:10.000Z</time>
      </trkpt>
      <trkpt lat="42.9210747" lon="-5.6983283">
        <ele>1331.38</ele>
        <time>2020-07-21T07:54:11.000Z</time>
      </trkpt>
      <trkpt lat="42.9210852" lon="-5.6983195">
        <ele>1331.38</ele>
        <time>2020-07-21T07:54:12.000Z</time>
      </trkpt>
      <trkpt lat="42.9210955" lon="-5.6983107">
        <ele>1331.23</ele>
        <time>2020-07-21T07:54:13.000Z</time>
      </trkpt>
      <trkpt lat="42.9211057" lon="-5.6983007">
        <ele>1331.23</ele>
        <time>2020-07-21T07:54:14.000Z</time>
      </trkpt>
      <trkpt lat="42.9211155" lon="-5.6982903">
        <ele>1331.23</ele>
        <time>2020-07-21T07:54:15.000Z</time>
      </trkpt>
      <trkpt lat="42.9211263" lon="-5.6982782">
        <ele>1331.23</ele>
        <time>2020-07-21T07:54:16.000Z</time>
      </trkpt>
      <trkpt lat="42.9211373" lon="-5.6982657">
        <ele>1331.08</ele>
        <time>2020-07-21T07:54:17.000Z</time>
      </trkpt>
      <trkpt lat="42.9211487" lon="-5.6982538">
        <ele>1331.08</ele>
        <time>2020-07-21T07:54:18.000Z</time>
      </trkpt>
      <trkpt lat="42.9211592" lon="-5.6982433">
        <ele>1330.93</ele>
        <time>2020-07-21T07:54:19.000Z</time>
      </trkpt>
      <trkpt lat="42.9211692" lon="-5.6982345">
        <ele>1330.93</ele>
        <time>2020-07-21T07:54:20.000Z</time>
      </trkpt>
      <trkpt lat="42.9211792" lon="-5.6982253">
        <ele>1330.93</ele>
        <time>2020-07-21T07:54:21.000Z</time>
      </trkpt>
      <trkpt lat="42.9211897" lon="-5.698216">
        <ele>1330.93</ele>
        <time>2020-07-21T07:54:22.000Z</time>
      </trkpt>
      <trkpt lat="42.921201" lon="-5.6982077">
        <ele>1330.77</ele>
        <time>2020-07-21T07:54:23.000Z</time>
      </trkpt>
      <trkpt lat="42.9212125" lon="-5.698199">
        <ele>1330.77</ele>
        <time>2020-07-21T07:54:24.000Z</time>
      </trkpt>
      <trkpt lat="42.9212238" lon="-5.6981902">
        <ele>1330.62</ele>
        <time>2020-07-21T07:54:25.000Z</time>
      </trkpt>
      <trkpt lat="42.9212337" lon="-5.6981827">
        <ele>1330.62</ele>
        <time>2020-07-21T07:54:26.000Z</time>
      </trkpt>
      <trkpt lat="42.9212432" lon="-5.6981767">
        <ele>1330.47</ele>
        <time>2020-07-21T07:54:27.000Z</time>
      </trkpt>
      <trkpt lat="42.9212528" lon="-5.69817">
        <ele>1330.47</ele>
        <time>2020-07-21T07:54:28.000Z</time>
      </trkpt>
      <trkpt lat="42.9212637" lon="-5.6981597">
        <ele>1330.47</ele>
        <time>2020-07-21T07:54:29.000Z</time>
      </trkpt>
      <trkpt lat="42.9212732" lon="-5.6981463">
        <ele>1330.47</ele>
        <time>2020-07-21T07:54:30.000Z</time>
      </trkpt>
      <trkpt lat="42.9212818" lon="-5.698133">
        <ele>1330.32</ele>
        <time>2020-07-21T07:54:31.000Z</time>
      </trkpt>
      <trkpt lat="42.9212907" lon="-5.698122">
        <ele>1330.32</ele>
        <time>2020-07-21T07:54:32.000Z</time>
      </trkpt>
      <trkpt lat="42.921301" lon="-5.6981135">
        <ele>1330.16</ele>
        <time>2020-07-21T07:54:33.000Z</time>
      </trkpt>
      <trkpt lat="42.9213117" lon="-5.6981042">
        <ele>1330.16</ele>
        <time>2020-07-21T07:54:34.000Z</time>
      </trkpt>
      <trkpt lat="42.9213222" lon="-5.6980933">
        <ele>1330.16</ele>
        <time>2020-07-21T07:54:35.000Z</time>
      </trkpt>
      <trkpt lat="42.9213328" lon="-5.6980817">
        <ele>1330.16</ele>
        <time>2020-07-21T07:54:36.000Z</time>
      </trkpt>
      <trkpt lat="42.9213438" lon="-5.6980715">
        <ele>1330.01</ele>
        <time>2020-07-21T07:54:37.000Z</time>
      </trkpt>
      <trkpt lat="42.9213545" lon="-5.6980612">
        <ele>1330.01</ele>
        <time>2020-07-21T07:54:38.000Z</time>
      </trkpt>
      <trkpt lat="42.921365" lon="-5.698051">
        <ele>1330.01</ele>
        <time>2020-07-21T07:54:39.000Z</time>
      </trkpt>
      <trkpt lat="42.9213755" lon="-5.6980415">
        <ele>1330.01</ele>
        <time>2020-07-21T07:54:40.000Z</time>
      </trkpt>
      <trkpt lat="42.9213867" lon="-5.6980337">
        <ele>1329.86</ele>
        <time>2020-07-21T07:54:41.000Z</time>
      </trkpt>
      <trkpt lat="42.9213978" lon="-5.6980272">
        <ele>1329.86</ele>
        <time>2020-07-21T07:54:42.000Z</time>
      </trkpt>
      <trkpt lat="42.921409" lon="-5.6980215">
        <ele>1329.86</ele>
        <time>2020-07-21T07:54:43.000Z</time>
      </trkpt>
      <trkpt lat="42.921419" lon="-5.6980182">
        <ele>1329.86</ele>
        <time>2020-07-21T07:54:44.000Z</time>
      </trkpt>
      <trkpt lat="42.9214297" lon="-5.6980152">
        <ele>1329.86</ele>
        <time>2020-07-21T07:54:45.000Z</time>
      </trkpt>
      <trkpt lat="42.9214393" lon="-5.6980107">
        <ele>1329.86</ele>
        <time>2020-07-21T07:54:46.000Z</time>
      </trkpt>
      <trkpt lat="42.9214488" lon="-5.6980025">
        <ele>1329.71</ele>
        <time>2020-07-21T07:54:47.000Z</time>
      </trkpt>
      <trkpt lat="42.9214583" lon="-5.6979915">
        <ele>1329.71</ele>
        <time>2020-07-21T07:54:48.000Z</time>
      </trkpt>
      <trkpt lat="42.9214697" lon="-5.6979768">
        <ele>1329.71</ele>
        <time>2020-07-21T07:54:49.000Z</time>
      </trkpt>
      <trkpt lat="42.9214807" lon="-5.6979617">
        <ele>1329.71</ele>
        <time>2020-07-21T07:54:50.000Z</time>
      </trkpt>
      <trkpt lat="42.9214908" lon="-5.6979453">
        <ele>1329.71</ele>
        <time>2020-07-21T07:54:51.000Z</time>
      </trkpt>
      <trkpt lat="42.9214995" lon="-5.6979307">
        <ele>1329.71</ele>
        <time>2020-07-21T07:54:52.000Z</time>
      </trkpt>
      <trkpt lat="42.9215082" lon="-5.6979138">
        <ele>1329.71</ele>
        <time>2020-07-21T07:54:53.000Z</time>
      </trkpt>
      <trkpt lat="42.9215167" lon="-5.697897">
        <ele>1329.71</ele>
        <time>2020-07-21T07:54:54.000Z</time>
      </trkpt>
      <trkpt lat="42.9215258" lon="-5.6978793">
        <ele>1329.71</ele>
        <time>2020-07-21T07:54:55.000Z</time>
      </trkpt>
      <trkpt lat="42.9215353" lon="-5.6978625">
        <ele>1329.71</ele>
        <time>2020-07-21T07:54:56.000Z</time>
      </trkpt>
      <trkpt lat="42.9215448" lon="-5.6978455">
        <ele>1329.86</ele>
        <time>2020-07-21T07:54:57.000Z</time>
      </trkpt>
      <trkpt lat="42.9215548" lon="-5.6978287">
        <ele>1329.86</ele>
        <time>2020-07-21T07:54:58.000Z</time>
      </trkpt>
      <trkpt lat="42.9215653" lon="-5.6978112">
        <ele>1329.86</ele>
        <time>2020-07-21T07:54:59.000Z</time>
      </trkpt>
      <trkpt lat="42.921576" lon="-5.6977947">
        <ele>1329.86</ele>
        <time>2020-07-21T07:55:00.000Z</time>
      </trkpt>
      <trkpt lat="42.9215863" lon="-5.6977802">
        <ele>1329.86</ele>
        <time>2020-07-21T07:55:01.000Z</time>
      </trkpt>
      <trkpt lat="42.921596" lon="-5.697767">
        <ele>1329.86</ele>
        <time>2020-07-21T07:55:02.000Z</time>
      </trkpt>
      <trkpt lat="42.9216062" lon="-5.6977542">
        <ele>1330.01</ele>
        <time>2020-07-21T07:55:03.000Z</time>
      </trkpt>
      <trkpt lat="42.9216162" lon="-5.6977412">
        <ele>1330.01</ele>
        <time>2020-07-21T07:55:04.000Z</time>
      </trkpt>
      <trkpt lat="42.9216265" lon="-5.6977293">
        <ele>1330.01</ele>
        <time>2020-07-21T07:55:05.000Z</time>
      </trkpt>
      <trkpt lat="42.921637" lon="-5.6977163">
        <ele>1330.01</ele>
        <time>2020-07-21T07:55:06.000Z</time>
      </trkpt>
      <trkpt lat="42.921648" lon="-5.6977012">
        <ele>1330.16</ele>
        <time>2020-07-21T07:55:07.000Z</time>
      </trkpt>
      <trkpt lat="42.9216598" lon="-5.6976855">
        <ele>1330.16</ele>
        <time>2020-07-21T07:55:08.000Z</time>
      </trkpt>
      <trkpt lat="42.9216715" lon="-5.6976718">
        <ele>1330.32</ele>
        <time>2020-07-21T07:55:09.000Z</time>
      </trkpt>
      <trkpt lat="42.9216823" lon="-5.6976617">
        <ele>1330.32</ele>
        <time>2020-07-21T07:55:10.000Z</time>
      </trkpt>
      <trkpt lat="42.921692" lon="-5.6976512">
        <ele>1330.32</ele>
        <time>2020-07-21T07:55:11.000Z</time>
      </trkpt>
      <trkpt lat="42.9217017" lon="-5.697641">
        <ele>1330.32</ele>
        <time>2020-07-21T07:55:12.000Z</time>
      </trkpt>
      <trkpt lat="42.9217123" lon="-5.697631">
        <ele>1330.47</ele>
        <time>2020-07-21T07:55:13.000Z</time>
      </trkpt>
      <trkpt lat="42.9217232" lon="-5.6976215">
        <ele>1330.47</ele>
        <time>2020-07-21T07:55:14.000Z</time>
      </trkpt>
      <trkpt lat="42.9217345" lon="-5.6976125">
        <ele>1330.62</ele>
        <time>2020-07-21T07:55:15.000Z</time>
      </trkpt>
      <trkpt lat="42.9217445" lon="-5.6976013">
        <ele>1330.62</ele>
        <time>2020-07-21T07:55:16.000Z</time>
      </trkpt>
      <trkpt lat="42.9217542" lon="-5.697589">
        <ele>1330.62</ele>
        <time>2020-07-21T07:55:17.000Z</time>
      </trkpt>
      <trkpt lat="42.9217632" lon="-5.697574">
        <ele>1330.62</ele>
        <time>2020-07-21T07:55:18.000Z</time>
      </trkpt>
      <trkpt lat="42.9217728" lon="-5.6975588">
        <ele>1330.77</ele>
        <time>2020-07-21T07:55:19.000Z</time>
      </trkpt>
      <trkpt lat="42.9217827" lon="-5.6975427">
        <ele>1330.77</ele>
        <time>2020-07-21T07:55:20.000Z</time>
      </trkpt>
      <trkpt lat="42.9217932" lon="-5.6975283">
        <ele>1330.93</ele>
        <time>2020-07-21T07:55:21.000Z</time>
      </trkpt>
      <trkpt lat="42.9218035" lon="-5.6975145">
        <ele>1330.93</ele>
        <time>2020-07-21T07:55:22.000Z</time>
      </trkpt>
      <trkpt lat="42.9218125" lon="-5.6975037">
        <ele>1330.93</ele>
        <time>2020-07-21T07:55:23.000Z</time>
      </trkpt>
      <trkpt lat="42.9218198" lon="-5.6974957">
        <ele>1330.93</ele>
        <time>2020-07-21T07:55:24.000Z</time>
      </trkpt>
      <trkpt lat="42.9218292" lon="-5.6974913">
        <ele>1331.08</ele>
        <time>2020-07-21T07:55:25.000Z</time>
      </trkpt>
      <trkpt lat="42.9218388" lon="-5.6974887">
        <ele>1331.08</ele>
        <time>2020-07-21T07:55:26.000Z</time>
      </trkpt>
      <trkpt lat="42.92185" lon="-5.6974853">
        <ele>1331.23</ele>
        <time>2020-07-21T07:55:27.000Z</time>
      </trkpt>
      <trkpt lat="42.9218597" lon="-5.697482">
        <ele>1331.23</ele>
        <time>2020-07-21T07:55:28.000Z</time>
      </trkpt>
      <trkpt lat="42.92187" lon="-5.6974785">
        <ele>1331.38</ele>
        <time>2020-07-21T07:55:29.000Z</time>
      </trkpt>
      <trkpt lat="42.9218807" lon="-5.6974733">
        <ele>1331.38</ele>
        <time>2020-07-21T07:55:30.000Z</time>
      </trkpt>
      <trkpt lat="42.9218913" lon="-5.6974645">
        <ele>1331.38</ele>
        <time>2020-07-21T07:55:31.000Z</time>
      </trkpt>
      <trkpt lat="42.9219018" lon="-5.6974528">
        <ele>1331.38</ele>
        <time>2020-07-21T07:55:32.000Z</time>
      </trkpt>
      <trkpt lat="42.9219118" lon="-5.6974398">
        <ele>1331.54</ele>
        <time>2020-07-21T07:55:33.000Z</time>
      </trkpt>
      <trkpt lat="42.9219213" lon="-5.6974288">
        <ele>1331.54</ele>
        <time>2020-07-21T07:55:34.000Z</time>
      </trkpt>
      <trkpt lat="42.9219308" lon="-5.6974218">
        <ele>1331.54</ele>
        <time>2020-07-21T07:55:35.000Z</time>
      </trkpt>
      <trkpt lat="42.9219403" lon="-5.6974163">
        <ele>1331.54</ele>
        <time>2020-07-21T07:55:36.000Z</time>
      </trkpt>
      <trkpt lat="42.9219502" lon="-5.69741">
        <ele>1331.69</ele>
        <time>2020-07-21T07:55:37.000Z</time>
      </trkpt>
      <trkpt lat="42.9219592" lon="-5.6973968">
        <ele>1331.69</ele>
        <time>2020-07-21T07:55:38.000Z</time>
      </trkpt>
      <trkpt lat="42.9219685" lon="-5.697383">
        <ele>1331.69</ele>
        <time>2020-07-21T07:55:39.000Z</time>
      </trkpt>
      <trkpt lat="42.9219773" lon="-5.6973682">
        <ele>1331.69</ele>
        <time>2020-07-21T07:55:40.000Z</time>
      </trkpt>
      <trkpt lat="42.921987" lon="-5.6973562">
        <ele>1331.84</ele>
        <time>2020-07-21T07:55:41.000Z</time>
      </trkpt>
      <trkpt lat="42.921996" lon="-5.6973445">
        <ele>1331.84</ele>
        <time>2020-07-21T07:55:42.000Z</time>
      </trkpt>
      <trkpt lat="42.9220052" lon="-5.6973338">
        <ele>1331.84</ele>
        <time>2020-07-21T07:55:43.000Z</time>
      </trkpt>
      <trkpt lat="42.9220147" lon="-5.6973243">
        <ele>1331.84</ele>
        <time>2020-07-21T07:55:44.000Z</time>
      </trkpt>
      <trkpt lat="42.922024" lon="-5.6973138">
        <ele>1331.99</ele>
        <time>2020-07-21T07:55:45.000Z</time>
      </trkpt>
      <trkpt lat="42.9220337" lon="-5.697303">
        <ele>1331.99</ele>
        <time>2020-07-21T07:55:46.000Z</time>
      </trkpt>
      <trkpt lat="42.9220428" lon="-5.697292">
        <ele>1331.99</ele>
        <time>2020-07-21T07:55:47.000Z</time>
      </trkpt>
      <trkpt lat="42.9220518" lon="-5.697282">
        <ele>1331.99</ele>
        <time>2020-07-21T07:55:48.000Z</time>
      </trkpt>
      <trkpt lat="42.922061" lon="-5.6972715">
        <ele>1331.99</ele>
        <time>2020-07-21T07:55:49.000Z</time>
      </trkpt>
      <trkpt lat="42.9220698" lon="-5.6972603">
        <ele>1331.99</ele>
        <time>2020-07-21T07:55:50.000Z</time>
      </trkpt>
      <trkpt lat="42.9220788" lon="-5.6972485">
        <ele>1331.99</ele>
        <time>2020-07-21T07:55:51.000Z</time>
      </trkpt>
      <trkpt lat="42.9220872" lon="-5.6972363">
        <ele>1331.99</ele>
        <time>2020-07-21T07:55:52.000Z</time>
      </trkpt>
      <trkpt lat="42.9220957" lon="-5.6972243">
        <ele>1332.15</ele>
        <time>2020-07-21T07:55:53.000Z</time>
      </trkpt>
      <trkpt lat="42.9221045" lon="-5.6972125">
        <ele>1332.15</ele>
        <time>2020-07-21T07:55:54.000Z</time>
      </trkpt>
      <trkpt lat="42.9221133" lon="-5.6972017">
        <ele>1332.15</ele>
        <time>2020-07-21T07:55:55.000Z</time>
      </trkpt>
      <trkpt lat="42.9221218" lon="-5.6971922">
        <ele>1332.15</ele>
        <time>2020-07-21T07:55:56.000Z</time>
      </trkpt>
      <trkpt lat="42.92213" lon="-5.697182">
        <ele>1332.15</ele>
        <time>2020-07-21T07:55:57.000Z</time>
      </trkpt>
      <trkpt lat="42.9221383" lon="-5.6971713">
        <ele>1332.15</ele>
        <time>2020-07-21T07:55:58.000Z</time>
      </trkpt>
      <trkpt lat="42.9221468" lon="-5.6971608">
        <ele>1332.15</ele>
        <time>2020-07-21T07:55:59.000Z</time>
      </trkpt>
      <trkpt lat="42.9221555" lon="-5.6971522">
        <ele>1332.15</ele>
        <time>2020-07-21T07:56:00.000Z</time>
      </trkpt>
      <trkpt lat="42.9221645" lon="-5.6971427">
        <ele>1332.15</ele>
        <time>2020-07-21T07:56:01.000Z</time>
      </trkpt>
      <trkpt lat="42.9221737" lon="-5.6971317">
        <ele>1332.15</ele>
        <time>2020-07-21T07:56:02.000Z</time>
      </trkpt>
      <trkpt lat="42.9221828" lon="-5.6971192">
        <ele>1332.3</ele>
        <time>2020-07-21T07:56:03.000Z</time>
      </trkpt>
      <trkpt lat="42.922191" lon="-5.6971075">
        <ele>1332.3</ele>
        <time>2020-07-21T07:56:04.000Z</time>
      </trkpt>
      <trkpt lat="42.9221988" lon="-5.6970955">
        <ele>1332.3</ele>
        <time>2020-07-21T07:56:05.000Z</time>
      </trkpt>
      <trkpt lat="42.9222058" lon="-5.6970817">
        <ele>1332.3</ele>
        <time>2020-07-21T07:56:06.000Z</time>
      </trkpt>
      <trkpt lat="42.9222133" lon="-5.6970672">
        <ele>1332.3</ele>
        <time>2020-07-21T07:56:07.000Z</time>
      </trkpt>
      <trkpt lat="42.9222202" lon="-5.6970525">
        <ele>1332.3</ele>
        <time>2020-07-21T07:56:08.000Z</time>
      </trkpt>
      <trkpt lat="42.9222278" lon="-5.6970408">
        <ele>1332.3</ele>
        <time>2020-07-21T07:56:09.000Z</time>
      </trkpt>
      <trkpt lat="42.9222355" lon="-5.6970302">
        <ele>1332.3</ele>
        <time>2020-07-21T07:56:10.000Z</time>
      </trkpt>
      <trkpt lat="42.9222442" lon="-5.69702">
        <ele>1332.3</ele>
        <time>2020-07-21T07:56:11.000Z</time>
      </trkpt>
      <trkpt lat="42.9222525" lon="-5.6970107">
        <ele>1332.3</ele>
        <time>2020-07-21T07:56:12.000Z</time>
      </trkpt>
      <trkpt lat="42.9222608" lon="-5.6970018">
        <ele>1332.45</ele>
        <time>2020-07-21T07:56:13.000Z</time>
      </trkpt>
      <trkpt lat="42.9222693" lon="-5.6969925">
        <ele>1332.45</ele>
        <time>2020-07-21T07:56:14.000Z</time>
      </trkpt>
      <trkpt lat="42.9222778" lon="-5.6969812">
        <ele>1332.45</ele>
        <time>2020-07-21T07:56:15.000Z</time>
      </trkpt>
      <trkpt lat="42.9222855" lon="-5.6969687">
        <ele>1332.45</ele>
        <time>2020-07-21T07:56:16.000Z</time>
      </trkpt>
      <trkpt lat="42.922292" lon="-5.6969573">
        <ele>1332.45</ele>
        <time>2020-07-21T07:56:17.000Z</time>
      </trkpt>
      <trkpt lat="42.9222988" lon="-5.6969467">
        <ele>1332.45</ele>
        <time>2020-07-21T07:56:18.000Z</time>
      </trkpt>
      <trkpt lat="42.9223065" lon="-5.6969357">
        <ele>1332.6</ele>
        <time>2020-07-21T07:56:19.000Z</time>
      </trkpt>
      <trkpt lat="42.9223148" lon="-5.696924">
        <ele>1332.6</ele>
        <time>2020-07-21T07:56:20.000Z</time>
      </trkpt>
      <trkpt lat="42.9223223" lon="-5.696911">
        <ele>1332.6</ele>
        <time>2020-07-21T07:56:21.000Z</time>
      </trkpt>
      <trkpt lat="42.9223297" lon="-5.6968975">
        <ele>1332.6</ele>
        <time>2020-07-21T07:56:22.000Z</time>
      </trkpt>
      <trkpt lat="42.922337" lon="-5.6968828">
        <ele>1332.6</ele>
        <time>2020-07-21T07:56:23.000Z</time>
      </trkpt>
      <trkpt lat="42.9223448" lon="-5.6968678">
        <ele>1332.6</ele>
        <time>2020-07-21T07:56:24.000Z</time>
      </trkpt>
      <trkpt lat="42.9223527" lon="-5.6968523">
        <ele>1332.75</ele>
        <time>2020-07-21T07:56:25.000Z</time>
      </trkpt>
      <trkpt lat="42.9223607" lon="-5.6968368">
        <ele>1332.75</ele>
        <time>2020-07-21T07:56:26.000Z</time>
      </trkpt>
      <trkpt lat="42.9223687" lon="-5.6968228">
        <ele>1332.75</ele>
        <time>2020-07-21T07:56:27.000Z</time>
      </trkpt>
      <trkpt lat="42.9223763" lon="-5.6968103">
        <ele>1332.75</ele>
        <time>2020-07-21T07:56:28.000Z</time>
      </trkpt>
      <trkpt lat="42.9223838" lon="-5.696798">
        <ele>1332.75</ele>
        <time>2020-07-21T07:56:29.000Z</time>
      </trkpt>
      <trkpt lat="42.9223915" lon="-5.6967865">
        <ele>1332.75</ele>
        <time>2020-07-21T07:56:30.000Z</time>
      </trkpt>
      <trkpt lat="42.9223997" lon="-5.6967748">
        <ele>1332.75</ele>
        <time>2020-07-21T07:56:31.000Z</time>
      </trkpt>
      <trkpt lat="42.9224083" lon="-5.6967647">
        <ele>1332.75</ele>
        <time>2020-07-21T07:56:32.000Z</time>
      </trkpt>
      <trkpt lat="42.9224177" lon="-5.6967537">
        <ele>1332.91</ele>
        <time>2020-07-21T07:56:33.000Z</time>
      </trkpt>
      <trkpt lat="42.9224268" lon="-5.6967427">
        <ele>1332.91</ele>
        <time>2020-07-21T07:56:34.000Z</time>
      </trkpt>
      <trkpt lat="42.9224357" lon="-5.6967303">
        <ele>1332.91</ele>
        <time>2020-07-21T07:56:35.000Z</time>
      </trkpt>
      <trkpt lat="42.9224442" lon="-5.6967188">
        <ele>1332.91</ele>
        <time>2020-07-21T07:56:36.000Z</time>
      </trkpt>
      <trkpt lat="42.9224535" lon="-5.6967073">
        <ele>1332.91</ele>
        <time>2020-07-21T07:56:37.000Z</time>
      </trkpt>
      <trkpt lat="42.9224635" lon="-5.6966967">
        <ele>1332.91</ele>
        <time>2020-07-21T07:56:38.000Z</time>
      </trkpt>
      <trkpt lat="42.9224737" lon="-5.6966863">
        <ele>1333.06</ele>
        <time>2020-07-21T07:56:39.000Z</time>
      </trkpt>
      <trkpt lat="42.9224832" lon="-5.6966773">
        <ele>1333.06</ele>
        <time>2020-07-21T07:56:40.000Z</time>
      </trkpt>
      <trkpt lat="42.9224925" lon="-5.6966693">
        <ele>1333.06</ele>
        <time>2020-07-21T07:56:41.000Z</time>
      </trkpt>
      <trkpt lat="42.922502" lon="-5.696662">
        <ele>1333.06</ele>
        <time>2020-07-21T07:56:42.000Z</time>
      </trkpt>
      <trkpt lat="42.9225117" lon="-5.6966545">
        <ele>1333.06</ele>
        <time>2020-07-21T07:56:43.000Z</time>
      </trkpt>
      <trkpt lat="42.922522" lon="-5.6966472">
        <ele>1333.06</ele>
        <time>2020-07-21T07:56:44.000Z</time>
      </trkpt>
      <trkpt lat="42.9225318" lon="-5.6966395">
        <ele>1333.21</ele>
        <time>2020-07-21T07:56:45.000Z</time>
      </trkpt>
      <trkpt lat="42.9225417" lon="-5.6966325">
        <ele>1333.21</ele>
        <time>2020-07-21T07:56:46.000Z</time>
      </trkpt>
      <trkpt lat="42.922549" lon="-5.6966233">
        <ele>1333.21</ele>
        <time>2020-07-21T07:56:47.000Z</time>
      </trkpt>
      <trkpt lat="42.9225545" lon="-5.6966128">
        <ele>1333.21</ele>
        <time>2020-07-21T07:56:48.000Z</time>
      </trkpt>
      <trkpt lat="42.9225603" lon="-5.6966018">
        <ele>1333.21</ele>
        <time>2020-07-21T07:56:49.000Z</time>
      </trkpt>
      <trkpt lat="42.9225677" lon="-5.6965913">
        <ele>1333.21</ele>
        <time>2020-07-21T07:56:50.000Z</time>
      </trkpt>
      <trkpt lat="42.9225758" lon="-5.696582">
        <ele>1333.21</ele>
        <time>2020-07-21T07:56:51.000Z</time>
      </trkpt>
      <trkpt lat="42.9225832" lon="-5.6965723">
        <ele>1333.21</ele>
        <time>2020-07-21T07:56:52.000Z</time>
      </trkpt>
      <trkpt lat="42.9225895" lon="-5.6965613">
        <ele>1333.21</ele>
        <time>2020-07-21T07:56:53.000Z</time>
      </trkpt>
      <trkpt lat="42.9225953" lon="-5.6965495">
        <ele>1333.21</ele>
        <time>2020-07-21T07:56:54.000Z</time>
      </trkpt>
      <trkpt lat="42.9226002" lon="-5.696539">
        <ele>1333.21</ele>
        <time>2020-07-21T07:56:55.000Z</time>
      </trkpt>
      <trkpt lat="42.9226055" lon="-5.6965308">
        <ele>1333.21</ele>
        <time>2020-07-21T07:56:56.000Z</time>
      </trkpt>
      <trkpt lat="42.922612" lon="-5.6965233">
        <ele>1333.36</ele>
        <time>2020-07-21T07:56:57.000Z</time>
      </trkpt>
      <trkpt lat="42.922619" lon="-5.6965167">
        <ele>1333.36</ele>
        <time>2020-07-21T07:56:58.000Z</time>
      </trkpt>
      <trkpt lat="42.9226237" lon="-5.6965128">
        <ele>1333.36</ele>
        <time>2020-07-21T07:56:59.000Z</time>
      </trkpt>
      <trkpt lat="42.9226257" lon="-5.6965123">
        <ele>1333.36</ele>
        <time>2020-07-21T07:57:00.000Z</time>
      </trkpt>
      <trkpt lat="42.9226262" lon="-5.696509">
        <ele>1333.36</ele>
        <time>2020-07-21T07:57:01.000Z</time>
      </trkpt>
      <trkpt lat="42.922627" lon="-5.696506">
        <ele>1333.36</ele>
        <time>2020-07-21T07:57:02.000Z</time>
      </trkpt>
      <trkpt lat="42.922628" lon="-5.6965022">
        <ele>1333.21</ele>
        <time>2020-07-21T07:57:03.000Z</time>
      </trkpt>
      <trkpt lat="42.9226285" lon="-5.6965033">
        <ele>1333.21</ele>
        <time>2020-07-21T07:57:04.000Z</time>
      </trkpt>
      <trkpt lat="42.9226297" lon="-5.6965045">
        <ele>1333.21</ele>
        <time>2020-07-21T07:57:05.000Z</time>
      </trkpt>
      <trkpt lat="42.9226308" lon="-5.6965038">
        <ele>1333.21</ele>
        <time>2020-07-21T07:57:06.000Z</time>
      </trkpt>
      <trkpt lat="42.9226315" lon="-5.696502">
        <ele>1333.06</ele>
        <time>2020-07-21T07:57:07.000Z</time>
      </trkpt>
      <trkpt lat="42.9226315" lon="-5.6964993">
        <ele>1333.06</ele>
        <time>2020-07-21T07:57:08.000Z</time>
      </trkpt>
      <trkpt lat="42.9226317" lon="-5.6964972">
        <ele>1333.06</ele>
        <time>2020-07-21T07:57:09.000Z</time>
      </trkpt>
      <trkpt lat="42.9226325" lon="-5.6964953">
        <ele>1333.06</ele>
        <time>2020-07-21T07:57:10.000Z</time>
      </trkpt>
      <trkpt lat="42.922633" lon="-5.6964943">
        <ele>1332.91</ele>
        <time>2020-07-21T07:57:11.000Z</time>
      </trkpt>
      <trkpt lat="42.9226332" lon="-5.6964945">
        <ele>1332.91</ele>
        <time>2020-07-21T07:57:12.000Z</time>
      </trkpt>
      <trkpt lat="42.9226335" lon="-5.6964952">
        <ele>1332.75</ele>
        <time>2020-07-21T07:57:13.000Z</time>
      </trkpt>
      <trkpt lat="42.9226343" lon="-5.6964957">
        <ele>1332.75</ele>
        <time>2020-07-21T07:57:14.000Z</time>
      </trkpt>
      <trkpt lat="42.9226357" lon="-5.6964963">
        <ele>1332.6</ele>
        <time>2020-07-21T07:57:15.000Z</time>
      </trkpt>
      <trkpt lat="42.9226373" lon="-5.6964975">
        <ele>1332.6</ele>
        <time>2020-07-21T07:57:16.000Z</time>
      </trkpt>
      <trkpt lat="42.9226385" lon="-5.6964993">
        <ele>1332.6</ele>
        <time>2020-07-21T07:57:17.000Z</time>
      </trkpt>
      <trkpt lat="42.9226397" lon="-5.6965015">
        <ele>1332.6</ele>
        <time>2020-07-21T07:57:18.000Z</time>
      </trkpt>
      <trkpt lat="42.9226405" lon="-5.6965032">
        <ele>1332.45</ele>
        <time>2020-07-21T07:57:19.000Z</time>
      </trkpt>
      <trkpt lat="42.9226415" lon="-5.6965045">
        <ele>1332.45</ele>
        <time>2020-07-21T07:57:20.000Z</time>
      </trkpt>
      <trkpt lat="42.9226413" lon="-5.6965047">
        <ele>1332.3</ele>
        <time>2020-07-21T07:57:21.000Z</time>
      </trkpt>
      <trkpt lat="42.9226395" lon="-5.6965048">
        <ele>1332.3</ele>
        <time>2020-07-21T07:57:22.000Z</time>
      </trkpt>
      <trkpt lat="42.9226365" lon="-5.6965057">
        <ele>1332.15</ele>
        <time>2020-07-21T07:57:23.000Z</time>
      </trkpt>
      <trkpt lat="42.9226332" lon="-5.6965075">
        <ele>1332.15</ele>
        <time>2020-07-21T07:57:24.000Z</time>
      </trkpt>
      <trkpt lat="42.9226308" lon="-5.6965093">
        <ele>1332.15</ele>
        <time>2020-07-21T07:57:25.000Z</time>
      </trkpt>
      <trkpt lat="42.9226292" lon="-5.69651">
        <ele>1332.15</ele>
        <time>2020-07-21T07:57:26.000Z</time>
      </trkpt>
      <trkpt lat="42.9226283" lon="-5.69651">
        <ele>1331.99</ele>
        <time>2020-07-21T07:57:27.000Z</time>
      </trkpt>
      <trkpt lat="42.9226282" lon="-5.6965098">
        <ele>1331.99</ele>
        <time>2020-07-21T07:57:28.000Z</time>
      </trkpt>
      <trkpt lat="42.9226282" lon="-5.6965093">
        <ele>1331.84</ele>
        <time>2020-07-21T07:57:29.000Z</time>
      </trkpt>
      <trkpt lat="42.9226283" lon="-5.6965085">
        <ele>1331.84</ele>
        <time>2020-07-21T07:57:30.000Z</time>
      </trkpt>
      <trkpt lat="42.9226283" lon="-5.6965078">
        <ele>1331.84</ele>
        <time>2020-07-21T07:57:31.000Z</time>
      </trkpt>
      <trkpt lat="42.922628" lon="-5.6965075">
        <ele>1331.84</ele>
        <time>2020-07-21T07:57:32.000Z</time>
      </trkpt>
      <trkpt lat="42.9226275" lon="-5.6965078">
        <ele>1331.69</ele>
        <time>2020-07-21T07:57:33.000Z</time>
      </trkpt>
      <trkpt lat="42.9226272" lon="-5.6965087">
        <ele>1331.69</ele>
        <time>2020-07-21T07:57:34.000Z</time>
      </trkpt>
      <trkpt lat="42.9226272" lon="-5.6965098">
        <ele>1331.69</ele>
        <time>2020-07-21T07:57:35.000Z</time>
      </trkpt>
      <trkpt lat="42.9226275" lon="-5.6965112">
        <ele>1331.69</ele>
        <time>2020-07-21T07:57:36.000Z</time>
      </trkpt>
      <trkpt lat="42.9226277" lon="-5.6965123">
        <ele>1331.69</ele>
        <time>2020-07-21T07:57:37.000Z</time>
      </trkpt>
      <trkpt lat="42.9226278" lon="-5.6965133">
        <ele>1331.69</ele>
        <time>2020-07-21T07:57:38.000Z</time>
      </trkpt>
      <trkpt lat="42.9226282" lon="-5.6965138">
        <ele>1331.69</ele>
        <time>2020-07-21T07:57:39.000Z</time>
      </trkpt>
      <trkpt lat="42.9226285" lon="-5.6965142">
        <ele>1331.69</ele>
        <time>2020-07-21T07:57:40.000Z</time>
      </trkpt>
      <trkpt lat="42.9226288" lon="-5.6965142">
        <ele>1331.69</ele>
        <time>2020-07-21T07:57:41.000Z</time>
      </trkpt>
      <trkpt lat="42.922629" lon="-5.6965143">
        <ele>1331.69</ele>
        <time>2020-07-21T07:57:42.000Z</time>
      </trkpt>
      <trkpt lat="42.922629" lon="-5.6965127">
        <ele>1331.69</ele>
        <time>2020-07-21T07:57:43.000Z</time>
      </trkpt>
      <trkpt lat="42.9226297" lon="-5.696511">
        <ele>1331.69</ele>
        <time>2020-07-21T07:57:44.000Z</time>
      </trkpt>
      <trkpt lat="42.9226305" lon="-5.6965087">
        <ele>1331.54</ele>
        <time>2020-07-21T07:57:45.000Z</time>
      </trkpt>
      <trkpt lat="42.922631" lon="-5.696508">
        <ele>1331.54</ele>
        <time>2020-07-21T07:57:46.000Z</time>
      </trkpt>
      <trkpt lat="42.9226307" lon="-5.696508">
        <ele>1331.54</ele>
        <time>2020-07-21T07:57:47.000Z</time>
      </trkpt>
      <trkpt lat="42.9226307" lon="-5.6965088">
        <ele>1331.54</ele>
        <time>2020-07-21T07:57:48.000Z</time>
      </trkpt>
      <trkpt lat="42.9226317" lon="-5.6965102">
        <ele>1331.54</ele>
        <time>2020-07-21T07:57:49.000Z</time>
      </trkpt>
      <trkpt lat="42.922633" lon="-5.6965112">
        <ele>1331.54</ele>
        <time>2020-07-21T07:57:50.000Z</time>
      </trkpt>
      <trkpt lat="42.9226337" lon="-5.6965127">
        <ele>1331.54</ele>
        <time>2020-07-21T07:57:51.000Z</time>
      </trkpt>
      <trkpt lat="42.9226335" lon="-5.696514">
        <ele>1331.54</ele>
        <time>2020-07-21T07:57:52.000Z</time>
      </trkpt>
      <trkpt lat="42.9226347" lon="-5.6965177">
        <ele>1331.38</ele>
        <time>2020-07-21T07:57:53.000Z</time>
      </trkpt>
      <trkpt lat="42.9226367" lon="-5.6965225">
        <ele>1331.38</ele>
        <time>2020-07-21T07:57:54.000Z</time>
      </trkpt>
      <trkpt lat="42.9226387" lon="-5.6965273">
        <ele>1331.38</ele>
        <time>2020-07-21T07:57:55.000Z</time>
      </trkpt>
      <trkpt lat="42.92264" lon="-5.6965302">
        <ele>1331.38</ele>
        <time>2020-07-21T07:57:56.000Z</time>
      </trkpt>
      <trkpt lat="42.9226425" lon="-5.6965313">
        <ele>1331.23</ele>
        <time>2020-07-21T07:57:57.000Z</time>
      </trkpt>
      <trkpt lat="42.9226468" lon="-5.6965333">
        <ele>1331.23</ele>
        <time>2020-07-21T07:57:58.000Z</time>
      </trkpt>
      <trkpt lat="42.922653" lon="-5.6965352">
        <ele>1331.23</ele>
        <time>2020-07-21T07:57:59.000Z</time>
      </trkpt>
      <trkpt lat="42.9226602" lon="-5.696534">
        <ele>1331.23</ele>
        <time>2020-07-21T07:58:00.000Z</time>
      </trkpt>
      <trkpt lat="42.9226688" lon="-5.6965305">
        <ele>1331.08</ele>
        <time>2020-07-21T07:58:01.000Z</time>
      </trkpt>
      <trkpt lat="42.9226768" lon="-5.6965255">
        <ele>1331.08</ele>
        <time>2020-07-21T07:58:02.000Z</time>
      </trkpt>
      <trkpt lat="42.9226838" lon="-5.6965228">
        <ele>1331.08</ele>
        <time>2020-07-21T07:58:03.000Z</time>
      </trkpt>
      <trkpt lat="42.9226898" lon="-5.696521">
        <ele>1331.08</ele>
        <time>2020-07-21T07:58:04.000Z</time>
      </trkpt>
      <trkpt lat="42.9226967" lon="-5.6965197">
        <ele>1331.08</ele>
        <time>2020-07-21T07:58:05.000Z</time>
      </trkpt>
      <trkpt lat="42.922704" lon="-5.6965178">
        <ele>1331.08</ele>
        <time>2020-07-21T07:58:06.000Z</time>
      </trkpt>
      <trkpt lat="42.9227117" lon="-5.6965152">
        <ele>1330.93</ele>
        <time>2020-07-21T07:58:07.000Z</time>
      </trkpt>
      <trkpt lat="42.9227187" lon="-5.6965127">
        <ele>1330.93</ele>
        <time>2020-07-21T07:58:08.000Z</time>
      </trkpt>
      <trkpt lat="42.9227248" lon="-5.6965095">
        <ele>1330.93</ele>
        <time>2020-07-21T07:58:09.000Z</time>
      </trkpt>
      <trkpt lat="42.9227277" lon="-5.6965032">
        <ele>1330.93</ele>
        <time>2020-07-21T07:58:10.000Z</time>
      </trkpt>
      <trkpt lat="42.9227297" lon="-5.6964947">
        <ele>1330.77</ele>
        <time>2020-07-21T07:58:11.000Z</time>
      </trkpt>
      <trkpt lat="42.9227307" lon="-5.6964882">
        <ele>1330.77</ele>
        <time>2020-07-21T07:58:12.000Z</time>
      </trkpt>
      <trkpt lat="42.9227335" lon="-5.6964857">
        <ele>1330.77</ele>
        <time>2020-07-21T07:58:13.000Z</time>
      </trkpt>
      <trkpt lat="42.9227353" lon="-5.6964858">
        <ele>1330.77</ele>
        <time>2020-07-21T07:58:14.000Z</time>
      </trkpt>
      <trkpt lat="42.9227363" lon="-5.6964862">
        <ele>1330.62</ele>
        <time>2020-07-21T07:58:15.000Z</time>
      </trkpt>
      <trkpt lat="42.9227362" lon="-5.6964868">
        <ele>1330.62</ele>
        <time>2020-07-21T07:58:16.000Z</time>
      </trkpt>
      <trkpt lat="42.9227355" lon="-5.6964872">
        <ele>1330.62</ele>
        <time>2020-07-21T07:58:17.000Z</time>
      </trkpt>
      <trkpt lat="42.922735" lon="-5.6964872">
        <ele>1330.62</ele>
        <time>2020-07-21T07:58:18.000Z</time>
      </trkpt>
      <trkpt lat="42.9227343" lon="-5.6964868">
        <ele>1330.47</ele>
        <time>2020-07-21T07:58:19.000Z</time>
      </trkpt>
      <trkpt lat="42.9227335" lon="-5.6964863">
        <ele>1330.47</ele>
        <time>2020-07-21T07:58:20.000Z</time>
      </trkpt>
      <trkpt lat="42.9227322" lon="-5.696486">
        <ele>1330.47</ele>
        <time>2020-07-21T07:58:21.000Z</time>
      </trkpt>
      <trkpt lat="42.9227302" lon="-5.6964858">
        <ele>1330.47</ele>
        <time>2020-07-21T07:58:22.000Z</time>
      </trkpt>
      <trkpt lat="42.9227273" lon="-5.6964853">
        <ele>1330.32</ele>
        <time>2020-07-21T07:58:23.000Z</time>
      </trkpt>
      <trkpt lat="42.9227252" lon="-5.6964847">
        <ele>1330.32</ele>
        <time>2020-07-21T07:58:24.000Z</time>
      </trkpt>
      <trkpt lat="42.9227238" lon="-5.6964838">
        <ele>1330.32</ele>
        <time>2020-07-21T07:58:25.000Z</time>
      </trkpt>
      <trkpt lat="42.9227235" lon="-5.6964833">
        <ele>1330.32</ele>
        <time>2020-07-21T07:58:26.000Z</time>
      </trkpt>
      <trkpt lat="42.9227232" lon="-5.6964828">
        <ele>1330.16</ele>
        <time>2020-07-21T07:58:27.000Z</time>
      </trkpt>
      <trkpt lat="42.922722" lon="-5.6964823">
        <ele>1330.16</ele>
        <time>2020-07-21T07:58:28.000Z</time>
      </trkpt>
      <trkpt lat="42.922721" lon="-5.6964813">
        <ele>1330.16</ele>
        <time>2020-07-21T07:58:29.000Z</time>
      </trkpt>
      <trkpt lat="42.9227198" lon="-5.6964798">
        <ele>1330.16</ele>
        <time>2020-07-21T07:58:30.000Z</time>
      </trkpt>
      <trkpt lat="42.9227192" lon="-5.6964792">
        <ele>1330.01</ele>
        <time>2020-07-21T07:58:31.000Z</time>
      </trkpt>
      <trkpt lat="42.9227188" lon="-5.6964797">
        <ele>1330.01</ele>
        <time>2020-07-21T07:58:32.000Z</time>
      </trkpt>
      <trkpt lat="42.922719" lon="-5.696481">
        <ele>1329.86</ele>
        <time>2020-07-21T07:58:33.000Z</time>
      </trkpt>
      <trkpt lat="42.9227193" lon="-5.6964827">
        <ele>1329.86</ele>
        <time>2020-07-21T07:58:34.000Z</time>
      </trkpt>
      <trkpt lat="42.9227197" lon="-5.6964848">
        <ele>1329.86</ele>
        <time>2020-07-21T07:58:35.000Z</time>
      </trkpt>
      <trkpt lat="42.9227193" lon="-5.6964873">
        <ele>1329.86</ele>
        <time>2020-07-21T07:58:36.000Z</time>
      </trkpt>
      <trkpt lat="42.9227188" lon="-5.6964897">
        <ele>1329.71</ele>
        <time>2020-07-21T07:58:37.000Z</time>
      </trkpt>
      <trkpt lat="42.9227187" lon="-5.6964905">
        <ele>1329.71</ele>
        <time>2020-07-21T07:58:38.000Z</time>
      </trkpt>
      <trkpt lat="42.9227185" lon="-5.6964903">
        <ele>1329.71</ele>
        <time>2020-07-21T07:58:39.000Z</time>
      </trkpt>
      <trkpt lat="42.9227183" lon="-5.69649">
        <ele>1329.71</ele>
        <time>2020-07-21T07:58:40.000Z</time>
      </trkpt>
      <trkpt lat="42.922718" lon="-5.6964898">
        <ele>1329.55</ele>
        <time>2020-07-21T07:58:41.000Z</time>
      </trkpt>
      <trkpt lat="42.9227175" lon="-5.69649">
        <ele>1329.55</ele>
        <time>2020-07-21T07:58:42.000Z</time>
      </trkpt>
      <trkpt lat="42.9227168" lon="-5.6964915">
        <ele>1329.4</ele>
        <time>2020-07-21T07:58:43.000Z</time>
      </trkpt>
      <trkpt lat="42.9227183" lon="-5.6964958">
        <ele>1329.4</ele>
        <time>2020-07-21T07:58:44.000Z</time>
      </trkpt>
      <trkpt lat="42.9227223" lon="-5.6965012">
        <ele>1329.4</ele>
        <time>2020-07-21T07:58:45.000Z</time>
      </trkpt>
      <trkpt lat="42.9227295" lon="-5.6965043">
        <ele>1329.4</ele>
        <time>2020-07-21T07:58:46.000Z</time>
      </trkpt>
      <trkpt lat="42.9227368" lon="-5.6965055">
        <ele>1329.25</ele>
        <time>2020-07-21T07:58:47.000Z</time>
      </trkpt>
      <trkpt lat="42.9227457" lon="-5.6965065">
        <ele>1329.25</ele>
        <time>2020-07-21T07:58:48.000Z</time>
      </trkpt>
      <trkpt lat="42.9227552" lon="-5.6965075">
        <ele>1329.1</ele>
        <time>2020-07-21T07:58:49.000Z</time>
      </trkpt>
      <trkpt lat="42.9227652" lon="-5.696509">
        <ele>1329.1</ele>
        <time>2020-07-21T07:58:50.000Z</time>
      </trkpt>
      <trkpt lat="42.9227735" lon="-5.6965103">
        <ele>1329.1</ele>
        <time>2020-07-21T07:58:51.000Z</time>
      </trkpt>
      <trkpt lat="42.9227808" lon="-5.6965135">
        <ele>1329.1</ele>
        <time>2020-07-21T07:58:52.000Z</time>
      </trkpt>
      <trkpt lat="42.9227897" lon="-5.6965188">
        <ele>1328.94</ele>
        <time>2020-07-21T07:58:53.000Z</time>
      </trkpt>
      <trkpt lat="42.9227995" lon="-5.6965248">
        <ele>1328.94</ele>
        <time>2020-07-21T07:58:54.000Z</time>
      </trkpt>
      <trkpt lat="42.9228088" lon="-5.696532">
        <ele>1328.79</ele>
        <time>2020-07-21T07:58:55.000Z</time>
      </trkpt>
      <trkpt lat="42.9228163" lon="-5.6965368">
        <ele>1328.79</ele>
        <time>2020-07-21T07:58:56.000Z</time>
      </trkpt>
      <trkpt lat="42.9228235" lon="-5.6965445">
        <ele>1328.64</ele>
        <time>2020-07-21T07:58:57.000Z</time>
      </trkpt>
      <trkpt lat="42.9228318" lon="-5.6965513">
        <ele>1328.64</ele>
        <time>2020-07-21T07:58:58.000Z</time>
      </trkpt>
      <trkpt lat="42.92284" lon="-5.6965623">
        <ele>1328.49</ele>
        <time>2020-07-21T07:58:59.000Z</time>
      </trkpt>
      <trkpt lat="42.9228488" lon="-5.6965702">
        <ele>1328.49</ele>
        <time>2020-07-21T07:59:00.000Z</time>
      </trkpt>
      <trkpt lat="42.9228578" lon="-5.6965793">
        <ele>1328.33</ele>
        <time>2020-07-21T07:59:01.000Z</time>
      </trkpt>
      <trkpt lat="42.9228683" lon="-5.6965855">
        <ele>1328.33</ele>
        <time>2020-07-21T07:59:02.000Z</time>
      </trkpt>
      <trkpt lat="42.9228785" lon="-5.6965933">
        <ele>1328.18</ele>
        <time>2020-07-21T07:59:03.000Z</time>
      </trkpt>
      <trkpt lat="42.9228885" lon="-5.6966018">
        <ele>1328.18</ele>
        <time>2020-07-21T07:59:04.000Z</time>
      </trkpt>
      <trkpt lat="42.9228987" lon="-5.6966118">
        <ele>1328.03</ele>
        <time>2020-07-21T07:59:05.000Z</time>
      </trkpt>
      <trkpt lat="42.92291" lon="-5.696623">
        <ele>1328.03</ele>
        <time>2020-07-21T07:59:06.000Z</time>
      </trkpt>
      <trkpt lat="42.9229212" lon="-5.6966348">
        <ele>1327.88</ele>
        <time>2020-07-21T07:59:07.000Z</time>
      </trkpt>
      <trkpt lat="42.922932" lon="-5.6966467">
        <ele>1327.88</ele>
        <time>2020-07-21T07:59:08.000Z</time>
      </trkpt>
      <trkpt lat="42.9229418" lon="-5.6966587">
        <ele>1327.72</ele>
        <time>2020-07-21T07:59:09.000Z</time>
      </trkpt>
      <trkpt lat="42.9229508" lon="-5.6966708">
        <ele>1327.72</ele>
        <time>2020-07-21T07:59:10.000Z</time>
      </trkpt>
      <trkpt lat="42.9229602" lon="-5.6966837">
        <ele>1327.72</ele>
        <time>2020-07-21T07:59:11.000Z</time>
      </trkpt>
      <trkpt lat="42.922969" lon="-5.6966967">
        <ele>1327.72</ele>
        <time>2020-07-21T07:59:12.000Z</time>
      </trkpt>
      <trkpt lat="42.9229785" lon="-5.6967093">
        <ele>1327.57</ele>
        <time>2020-07-21T07:59:13.000Z</time>
      </trkpt>
      <trkpt lat="42.9229875" lon="-5.696721">
        <ele>1327.57</ele>
        <time>2020-07-21T07:59:14.000Z</time>
      </trkpt>
      <trkpt lat="42.9229955" lon="-5.6967325">
        <ele>1327.42</ele>
        <time>2020-07-21T07:59:15.000Z</time>
      </trkpt>
      <trkpt lat="42.9230027" lon="-5.6967448">
        <ele>1327.42</ele>
        <time>2020-07-21T07:59:16.000Z</time>
      </trkpt>
      <trkpt lat="42.9230093" lon="-5.6967578">
        <ele>1327.42</ele>
        <time>2020-07-21T07:59:17.000Z</time>
      </trkpt>
      <trkpt lat="42.9230163" lon="-5.6967712">
        <ele>1327.42</ele>
        <time>2020-07-21T07:59:18.000Z</time>
      </trkpt>
      <trkpt lat="42.923024" lon="-5.6967843">
        <ele>1327.27</ele>
        <time>2020-07-21T07:59:19.000Z</time>
      </trkpt>
      <trkpt lat="42.9230323" lon="-5.6967975">
        <ele>1327.27</ele>
        <time>2020-07-21T07:59:20.000Z</time>
      </trkpt>
      <trkpt lat="42.9230402" lon="-5.6968105">
        <ele>1327.11</ele>
        <time>2020-07-21T07:59:21.000Z</time>
      </trkpt>
      <trkpt lat="42.923047" lon="-5.696824">
        <ele>1327.11</ele>
        <time>2020-07-21T07:59:22.000Z</time>
      </trkpt>
      <trkpt lat="42.9230527" lon="-5.6968392">
        <ele>1326.96</ele>
        <time>2020-07-21T07:59:23.000Z</time>
      </trkpt>
      <trkpt lat="42.9230582" lon="-5.696855">
        <ele>1326.96</ele>
        <time>2020-07-21T07:59:24.000Z</time>
      </trkpt>
      <trkpt lat="42.9230628" lon="-5.6968695">
        <ele>1326.81</ele>
        <time>2020-07-21T07:59:25.000Z</time>
      </trkpt>
      <trkpt lat="42.9230665" lon="-5.696882">
        <ele>1326.81</ele>
        <time>2020-07-21T07:59:26.000Z</time>
      </trkpt>
      <trkpt lat="42.9230693" lon="-5.6968935">
        <ele>1326.81</ele>
        <time>2020-07-21T07:59:27.000Z</time>
      </trkpt>
      <trkpt lat="42.9230732" lon="-5.696906">
        <ele>1326.81</ele>
        <time>2020-07-21T07:59:28.000Z</time>
      </trkpt>
      <trkpt lat="42.9230777" lon="-5.6969183">
        <ele>1326.66</ele>
        <time>2020-07-21T07:59:29.000Z</time>
      </trkpt>
      <trkpt lat="42.9230835" lon="-5.6969302">
        <ele>1326.66</ele>
        <time>2020-07-21T07:59:30.000Z</time>
      </trkpt>
      <trkpt lat="42.9230907" lon="-5.6969415">
        <ele>1326.51</ele>
        <time>2020-07-21T07:59:31.000Z</time>
      </trkpt>
      <trkpt lat="42.9230992" lon="-5.6969528">
        <ele>1326.51</ele>
        <time>2020-07-21T07:59:32.000Z</time>
      </trkpt>
      <trkpt lat="42.9231072" lon="-5.6969647">
        <ele>1326.35</ele>
        <time>2020-07-21T07:59:33.000Z</time>
      </trkpt>
      <trkpt lat="42.9231147" lon="-5.6969773">
        <ele>1326.35</ele>
        <time>2020-07-21T07:59:34.000Z</time>
      </trkpt>
      <trkpt lat="42.9231227" lon="-5.6969905">
        <ele>1326.2</ele>
        <time>2020-07-21T07:59:35.000Z</time>
      </trkpt>
      <trkpt lat="42.9231325" lon="-5.6970007">
        <ele>1326.2</ele>
        <time>2020-07-21T07:59:36.000Z</time>
      </trkpt>
      <trkpt lat="42.9231425" lon="-5.6970105">
        <ele>1326.2</ele>
        <time>2020-07-21T07:59:37.000Z</time>
      </trkpt>
      <trkpt lat="42.923152" lon="-5.6970197">
        <ele>1326.2</ele>
        <time>2020-07-21T07:59:38.000Z</time>
      </trkpt>
      <trkpt lat="42.923161" lon="-5.6970313">
        <ele>1326.05</ele>
        <time>2020-07-21T07:59:39.000Z</time>
      </trkpt>
      <trkpt lat="42.9231705" lon="-5.6970423">
        <ele>1326.05</ele>
        <time>2020-07-21T07:59:40.000Z</time>
      </trkpt>
      <trkpt lat="42.9231798" lon="-5.6970533">
        <ele>1325.9</ele>
        <time>2020-07-21T07:59:41.000Z</time>
      </trkpt>
      <trkpt lat="42.9231883" lon="-5.6970645">
        <ele>1325.9</ele>
        <time>2020-07-21T07:59:42.000Z</time>
      </trkpt>
      <trkpt lat="42.9231963" lon="-5.6970765">
        <ele>1325.74</ele>
        <time>2020-07-21T07:59:43.000Z</time>
      </trkpt>
      <trkpt lat="42.9232045" lon="-5.6970902">
        <ele>1325.74</ele>
        <time>2020-07-21T07:59:44.000Z</time>
      </trkpt>
      <trkpt lat="42.9232125" lon="-5.6971047">
        <ele>1325.74</ele>
        <time>2020-07-21T07:59:45.000Z</time>
      </trkpt>
      <trkpt lat="42.92322" lon="-5.6971182">
        <ele>1325.74</ele>
        <time>2020-07-21T07:59:46.000Z</time>
      </trkpt>
      <trkpt lat="42.9232278" lon="-5.6971308">
        <ele>1325.59</ele>
        <time>2020-07-21T07:59:47.000Z</time>
      </trkpt>
      <trkpt lat="42.9232373" lon="-5.6971437">
        <ele>1325.59</ele>
        <time>2020-07-21T07:59:48.000Z</time>
      </trkpt>
      <trkpt lat="42.9232475" lon="-5.6971585">
        <ele>1325.44</ele>
        <time>2020-07-21T07:59:49.000Z</time>
      </trkpt>
      <trkpt lat="42.9232568" lon="-5.6971737">
        <ele>1325.44</ele>
        <time>2020-07-21T07:59:50.000Z</time>
      </trkpt>
      <trkpt lat="42.923264" lon="-5.6971883">
        <ele>1325.44</ele>
        <time>2020-07-21T07:59:51.000Z</time>
      </trkpt>
      <trkpt lat="42.9232702" lon="-5.6972015">
        <ele>1325.44</ele>
        <time>2020-07-21T07:59:52.000Z</time>
      </trkpt>
      <trkpt lat="42.9232763" lon="-5.6972143">
        <ele>1325.29</ele>
        <time>2020-07-21T07:59:53.000Z</time>
      </trkpt>
      <trkpt lat="42.9232827" lon="-5.6972282">
        <ele>1325.29</ele>
        <time>2020-07-21T07:59:54.000Z</time>
      </trkpt>
      <trkpt lat="42.9232872" lon="-5.6972447">
        <ele>1325.13</ele>
        <time>2020-07-21T07:59:55.000Z</time>
      </trkpt>
      <trkpt lat="42.9232905" lon="-5.6972617">
        <ele>1325.13</ele>
        <time>2020-07-21T07:59:56.000Z</time>
      </trkpt>
      <trkpt lat="42.9232918" lon="-5.6972777">
        <ele>1325.13</ele>
        <time>2020-07-21T07:59:57.000Z</time>
      </trkpt>
      <trkpt lat="42.9232933" lon="-5.6972938">
        <ele>1325.13</ele>
        <time>2020-07-21T07:59:58.000Z</time>
      </trkpt>
      <trkpt lat="42.9232963" lon="-5.6973108">
        <ele>1325.13</ele>
        <time>2020-07-21T07:59:59.000Z</time>
      </trkpt>
      <trkpt lat="42.923304" lon="-5.6973283">
        <ele>1325.13</ele>
        <time>2020-07-21T08:00:00.000Z</time>
      </trkpt>
      <trkpt lat="42.9233137" lon="-5.6973452">
        <ele>1324.98</ele>
        <time>2020-07-21T08:00:01.000Z</time>
      </trkpt>
      <trkpt lat="42.9233223" lon="-5.6973615">
        <ele>1324.98</ele>
        <time>2020-07-21T08:00:02.000Z</time>
      </trkpt>
      <trkpt lat="42.9233282" lon="-5.697378">
        <ele>1324.98</ele>
        <time>2020-07-21T08:00:03.000Z</time>
      </trkpt>
      <trkpt lat="42.9233332" lon="-5.6973928">
        <ele>1324.98</ele>
        <time>2020-07-21T08:00:04.000Z</time>
      </trkpt>
      <trkpt lat="42.9233383" lon="-5.6974075">
        <ele>1324.98</ele>
        <time>2020-07-21T08:00:05.000Z</time>
      </trkpt>
      <trkpt lat="42.9233435" lon="-5.6974238">
        <ele>1324.98</ele>
        <time>2020-07-21T08:00:06.000Z</time>
      </trkpt>
      <trkpt lat="42.9233488" lon="-5.697441">
        <ele>1324.98</ele>
        <time>2020-07-21T08:00:07.000Z</time>
      </trkpt>
      <trkpt lat="42.9233527" lon="-5.6974573">
        <ele>1324.98</ele>
        <time>2020-07-21T08:00:08.000Z</time>
      </trkpt>
      <trkpt lat="42.923355" lon="-5.6974717">
        <ele>1325.13</ele>
        <time>2020-07-21T08:00:09.000Z</time>
      </trkpt>
      <trkpt lat="42.9233572" lon="-5.6974855">
        <ele>1325.13</ele>
        <time>2020-07-21T08:00:10.000Z</time>
      </trkpt>
      <trkpt lat="42.92336" lon="-5.6974998">
        <ele>1325.13</ele>
        <time>2020-07-21T08:00:11.000Z</time>
      </trkpt>
      <trkpt lat="42.9233625" lon="-5.6975148">
        <ele>1325.13</ele>
        <time>2020-07-21T08:00:12.000Z</time>
      </trkpt>
      <trkpt lat="42.9233652" lon="-5.697529">
        <ele>1325.29</ele>
        <time>2020-07-21T08:00:13.000Z</time>
      </trkpt>
      <trkpt lat="42.9233685" lon="-5.6975422">
        <ele>1325.29</ele>
        <time>2020-07-21T08:00:14.000Z</time>
      </trkpt>
      <trkpt lat="42.9233737" lon="-5.6975555">
        <ele>1325.29</ele>
        <time>2020-07-21T08:00:15.000Z</time>
      </trkpt>
      <trkpt lat="42.9233798" lon="-5.6975693">
        <ele>1325.29</ele>
        <time>2020-07-21T08:00:16.000Z</time>
      </trkpt>
      <trkpt lat="42.9233867" lon="-5.6975832">
        <ele>1325.44</ele>
        <time>2020-07-21T08:00:17.000Z</time>
      </trkpt>
      <trkpt lat="42.9233938" lon="-5.6975975">
        <ele>1325.44</ele>
        <time>2020-07-21T08:00:18.000Z</time>
      </trkpt>
      <trkpt lat="42.9234005" lon="-5.697612">
        <ele>1325.59</ele>
        <time>2020-07-21T08:00:19.000Z</time>
      </trkpt>
      <trkpt lat="42.9234067" lon="-5.6976268">
        <ele>1325.59</ele>
        <time>2020-07-21T08:00:20.000Z</time>
      </trkpt>
      <trkpt lat="42.9234127" lon="-5.6976393">
        <ele>1325.59</ele>
        <time>2020-07-21T08:00:21.000Z</time>
      </trkpt>
      <trkpt lat="42.9234188" lon="-5.6976478">
        <ele>1325.59</ele>
        <time>2020-07-21T08:00:22.000Z</time>
      </trkpt>
      <trkpt lat="42.9234245" lon="-5.697652">
        <ele>1325.74</ele>
        <time>2020-07-21T08:00:23.000Z</time>
      </trkpt>
      <trkpt lat="42.9234282" lon="-5.6976543">
        <ele>1325.74</ele>
        <time>2020-07-21T08:00:24.000Z</time>
      </trkpt>
      <trkpt lat="42.9234298" lon="-5.6976557">
        <ele>1325.9</ele>
        <time>2020-07-21T08:00:25.000Z</time>
      </trkpt>
      <trkpt lat="42.9234298" lon="-5.6976563">
        <ele>1325.9</ele>
        <time>2020-07-21T08:00:26.000Z</time>
      </trkpt>
      <trkpt lat="42.9234302" lon="-5.6976562">
        <ele>1325.9</ele>
        <time>2020-07-21T08:00:27.000Z</time>
      </trkpt>
      <trkpt lat="42.9234308" lon="-5.697656">
        <ele>1325.9</ele>
        <time>2020-07-21T08:00:28.000Z</time>
      </trkpt>
      <trkpt lat="42.9234317" lon="-5.697656">
        <ele>1326.05</ele>
        <time>2020-07-21T08:00:29.000Z</time>
      </trkpt>
      <trkpt lat="42.9234325" lon="-5.6976577">
        <ele>1326.05</ele>
        <time>2020-07-21T08:00:30.000Z</time>
      </trkpt>
      <trkpt lat="42.9234342" lon="-5.6976623">
        <ele>1326.2</ele>
        <time>2020-07-21T08:00:31.000Z</time>
      </trkpt>
      <trkpt lat="42.923437" lon="-5.6976703">
        <ele>1326.2</ele>
        <time>2020-07-21T08:00:32.000Z</time>
      </trkpt>
      <trkpt lat="42.923441" lon="-5.6976802">
        <ele>1326.35</ele>
        <time>2020-07-21T08:00:33.000Z</time>
      </trkpt>
      <trkpt lat="42.9234453" lon="-5.697691">
        <ele>1326.35</ele>
        <time>2020-07-21T08:00:34.000Z</time>
      </trkpt>
      <trkpt lat="42.9234503" lon="-5.6977033">
        <ele>1326.51</ele>
        <time>2020-07-21T08:00:35.000Z</time>
      </trkpt>
      <trkpt lat="42.9234563" lon="-5.6977165">
        <ele>1326.51</ele>
        <time>2020-07-21T08:00:36.000Z</time>
      </trkpt>
      <trkpt lat="42.9234627" lon="-5.6977293">
        <ele>1326.66</ele>
        <time>2020-07-21T08:00:37.000Z</time>
      </trkpt>
      <trkpt lat="42.92347" lon="-5.6977412">
        <ele>1326.66</ele>
        <time>2020-07-21T08:00:38.000Z</time>
      </trkpt>
      <trkpt lat="42.9234777" lon="-5.6977522">
        <ele>1326.66</ele>
        <time>2020-07-21T08:00:39.000Z</time>
      </trkpt>
      <trkpt lat="42.9234865" lon="-5.6977638">
        <ele>1326.66</ele>
        <time>2020-07-21T08:00:40.000Z</time>
      </trkpt>
      <trkpt lat="42.9234972" lon="-5.6977712">
        <ele>1326.81</ele>
        <time>2020-07-21T08:00:41.000Z</time>
      </trkpt>
      <trkpt lat="42.9235087" lon="-5.697777">
        <ele>1326.81</ele>
        <time>2020-07-21T08:00:42.000Z</time>
      </trkpt>
      <trkpt lat="42.9235197" lon="-5.6977818">
        <ele>1326.96</ele>
        <time>2020-07-21T08:00:43.000Z</time>
      </trkpt>
      <trkpt lat="42.9235297" lon="-5.6977898">
        <ele>1326.96</ele>
        <time>2020-07-21T08:00:44.000Z</time>
      </trkpt>
      <trkpt lat="42.9235393" lon="-5.6977988">
        <ele>1327.11</ele>
        <time>2020-07-21T08:00:45.000Z</time>
      </trkpt>
      <trkpt lat="42.9235482" lon="-5.697808">
        <ele>1327.11</ele>
        <time>2020-07-21T08:00:46.000Z</time>
      </trkpt>
      <trkpt lat="42.9235542" lon="-5.6978175">
        <ele>1327.27</ele>
        <time>2020-07-21T08:00:47.000Z</time>
      </trkpt>
      <trkpt lat="42.92356" lon="-5.6978275">
        <ele>1327.27</ele>
        <time>2020-07-21T08:00:48.000Z</time>
      </trkpt>
      <trkpt lat="42.9235662" lon="-5.6978378">
        <ele>1327.42</ele>
        <time>2020-07-21T08:00:49.000Z</time>
      </trkpt>
      <trkpt lat="42.9235742" lon="-5.697849">
        <ele>1327.42</ele>
        <time>2020-07-21T08:00:50.000Z</time>
      </trkpt>
      <trkpt lat="42.9235813" lon="-5.6978605">
        <ele>1327.57</ele>
        <time>2020-07-21T08:00:51.000Z</time>
      </trkpt>
      <trkpt lat="42.9235883" lon="-5.6978725">
        <ele>1327.57</ele>
        <time>2020-07-21T08:00:52.000Z</time>
      </trkpt>
      <trkpt lat="42.9235947" lon="-5.6978845">
        <ele>1327.72</ele>
        <time>2020-07-21T08:00:53.000Z</time>
      </trkpt>
      <trkpt lat="42.923601" lon="-5.6978983">
        <ele>1327.72</ele>
        <time>2020-07-21T08:00:54.000Z</time>
      </trkpt>
      <trkpt lat="42.9236072" lon="-5.6979125">
        <ele>1327.72</ele>
        <time>2020-07-21T08:00:55.000Z</time>
      </trkpt>
      <trkpt lat="42.9236137" lon="-5.6979262">
        <ele>1327.72</ele>
        <time>2020-07-21T08:00:56.000Z</time>
      </trkpt>
      <trkpt lat="42.92362" lon="-5.697939">
        <ele>1327.88</ele>
        <time>2020-07-21T08:00:57.000Z</time>
      </trkpt>
      <trkpt lat="42.9236263" lon="-5.6979528">
        <ele>1327.88</ele>
        <time>2020-07-21T08:00:58.000Z</time>
      </trkpt>
      <trkpt lat="42.9236328" lon="-5.697968">
        <ele>1328.03</ele>
        <time>2020-07-21T08:00:59.000Z</time>
      </trkpt>
      <trkpt lat="42.9236433" lon="-5.6979805">
        <ele>1328.03</ele>
        <time>2020-07-21T08:01:00.000Z</time>
      </trkpt>
      <trkpt lat="42.9236545" lon="-5.6979912">
        <ele>1328.18</ele>
        <time>2020-07-21T08:01:01.000Z</time>
      </trkpt>
      <trkpt lat="42.9236665" lon="-5.6979998">
        <ele>1328.18</ele>
        <time>2020-07-21T08:01:02.000Z</time>
      </trkpt>
      <trkpt lat="42.9236765" lon="-5.6980097">
        <ele>1328.33</ele>
        <time>2020-07-21T08:01:03.000Z</time>
      </trkpt>
      <trkpt lat="42.9236865" lon="-5.6980198">
        <ele>1328.33</ele>
        <time>2020-07-21T08:01:04.000Z</time>
      </trkpt>
      <trkpt lat="42.923697" lon="-5.6980295">
        <ele>1328.49</ele>
        <time>2020-07-21T08:01:05.000Z</time>
      </trkpt>
      <trkpt lat="42.9237073" lon="-5.6980385">
        <ele>1328.49</ele>
        <time>2020-07-21T08:01:06.000Z</time>
      </trkpt>
      <trkpt lat="42.9237173" lon="-5.6980475">
        <ele>1328.64</ele>
        <time>2020-07-21T08:01:07.000Z</time>
      </trkpt>
      <trkpt lat="42.923726" lon="-5.698057">
        <ele>1328.64</ele>
        <time>2020-07-21T08:01:08.000Z</time>
      </trkpt>
      <trkpt lat="42.9237338" lon="-5.698068">
        <ele>1328.94</ele>
        <time>2020-07-21T08:01:09.000Z</time>
      </trkpt>
      <trkpt lat="42.9237425" lon="-5.698081">
        <ele>1328.94</ele>
        <time>2020-07-21T08:01:10.000Z</time>
      </trkpt>
      <trkpt lat="42.9237517" lon="-5.6980943">
        <ele>1329.1</ele>
        <time>2020-07-21T08:01:11.000Z</time>
      </trkpt>
      <trkpt lat="42.9237615" lon="-5.6981068">
        <ele>1329.1</ele>
        <time>2020-07-21T08:01:12.000Z</time>
      </trkpt>
      <trkpt lat="42.923771" lon="-5.6981182">
        <ele>1329.25</ele>
        <time>2020-07-21T08:01:13.000Z</time>
      </trkpt>
      <trkpt lat="42.9237815" lon="-5.698129">
        <ele>1329.25</ele>
        <time>2020-07-21T08:01:14.000Z</time>
      </trkpt>
      <trkpt lat="42.9237927" lon="-5.6981383">
        <ele>1329.4</ele>
        <time>2020-07-21T08:01:15.000Z</time>
      </trkpt>
      <trkpt lat="42.9238045" lon="-5.6981455">
        <ele>1329.4</ele>
        <time>2020-07-21T08:01:16.000Z</time>
      </trkpt>
      <trkpt lat="42.9238158" lon="-5.698152">
        <ele>1329.71</ele>
        <time>2020-07-21T08:01:17.000Z</time>
      </trkpt>
      <trkpt lat="42.9238267" lon="-5.6981593">
        <ele>1329.71</ele>
        <time>2020-07-21T08:01:18.000Z</time>
      </trkpt>
      <trkpt lat="42.9238373" lon="-5.6981675">
        <ele>1329.86</ele>
        <time>2020-07-21T08:01:19.000Z</time>
      </trkpt>
      <trkpt lat="42.9238482" lon="-5.6981767">
        <ele>1329.86</ele>
        <time>2020-07-21T08:01:20.000Z</time>
      </trkpt>
      <trkpt lat="42.923859" lon="-5.6981857">
        <ele>1330.01</ele>
        <time>2020-07-21T08:01:21.000Z</time>
      </trkpt>
      <trkpt lat="42.9238692" lon="-5.6981945">
        <ele>1330.01</ele>
        <time>2020-07-21T08:01:22.000Z</time>
      </trkpt>
      <trkpt lat="42.9238792" lon="-5.6982022">
        <ele>1330.16</ele>
        <time>2020-07-21T08:01:23.000Z</time>
      </trkpt>
      <trkpt lat="42.9238898" lon="-5.6982083">
        <ele>1330.16</ele>
        <time>2020-07-21T08:01:24.000Z</time>
      </trkpt>
      <trkpt lat="42.9239015" lon="-5.6982137">
        <ele>1330.47</ele>
        <time>2020-07-21T08:01:25.000Z</time>
      </trkpt>
      <trkpt lat="42.9239142" lon="-5.6982187">
        <ele>1330.47</ele>
        <time>2020-07-21T08:01:26.000Z</time>
      </trkpt>
      <trkpt lat="42.9239272" lon="-5.6982245">
        <ele>1330.62</ele>
        <time>2020-07-21T08:01:27.000Z</time>
      </trkpt>
      <trkpt lat="42.9239402" lon="-5.6982313">
        <ele>1330.62</ele>
        <time>2020-07-21T08:01:28.000Z</time>
      </trkpt>
      <trkpt lat="42.923953" lon="-5.698239">
        <ele>1330.77</ele>
        <time>2020-07-21T08:01:29.000Z</time>
      </trkpt>
      <trkpt lat="42.9239655" lon="-5.6982475">
        <ele>1330.77</ele>
        <time>2020-07-21T08:01:30.000Z</time>
      </trkpt>
      <trkpt lat="42.9239775" lon="-5.6982562">
        <ele>1331.08</ele>
        <time>2020-07-21T08:01:31.000Z</time>
      </trkpt>
      <trkpt lat="42.9239895" lon="-5.6982637">
        <ele>1331.08</ele>
        <time>2020-07-21T08:01:32.000Z</time>
      </trkpt>
      <trkpt lat="42.9240018" lon="-5.6982695">
        <ele>1331.23</ele>
        <time>2020-07-21T08:01:33.000Z</time>
      </trkpt>
      <trkpt lat="42.9240147" lon="-5.698273">
        <ele>1331.23</ele>
        <time>2020-07-21T08:01:34.000Z</time>
      </trkpt>
      <trkpt lat="42.9240275" lon="-5.6982763">
        <ele>1331.38</ele>
        <time>2020-07-21T08:01:35.000Z</time>
      </trkpt>
      <trkpt lat="42.9240398" lon="-5.6982788">
        <ele>1331.38</ele>
        <time>2020-07-21T08:01:36.000Z</time>
      </trkpt>
      <trkpt lat="42.9240512" lon="-5.6982815">
        <ele>1331.54</ele>
        <time>2020-07-21T08:01:37.000Z</time>
      </trkpt>
      <trkpt lat="42.9240625" lon="-5.6982835">
        <ele>1331.54</ele>
        <time>2020-07-21T08:01:38.000Z</time>
      </trkpt>
      <trkpt lat="42.9240737" lon="-5.6982855">
        <ele>1331.69</ele>
        <time>2020-07-21T08:01:39.000Z</time>
      </trkpt>
      <trkpt lat="42.9240855" lon="-5.6982878">
        <ele>1331.69</ele>
        <time>2020-07-21T08:01:40.000Z</time>
      </trkpt>
      <trkpt lat="42.924097" lon="-5.69829">
        <ele>1331.84</ele>
        <time>2020-07-21T08:01:41.000Z</time>
      </trkpt>
      <trkpt lat="42.9241083" lon="-5.6982923">
        <ele>1331.84</ele>
        <time>2020-07-21T08:01:42.000Z</time>
      </trkpt>
      <trkpt lat="42.9241193" lon="-5.6982955">
        <ele>1331.99</ele>
        <time>2020-07-21T08:01:43.000Z</time>
      </trkpt>
      <trkpt lat="42.9241305" lon="-5.698299">
        <ele>1331.99</ele>
        <time>2020-07-21T08:01:44.000Z</time>
      </trkpt>
      <trkpt lat="42.9241427" lon="-5.6983018">
        <ele>1332.15</ele>
        <time>2020-07-21T08:01:45.000Z</time>
      </trkpt>
      <trkpt lat="42.9241548" lon="-5.6983035">
        <ele>1332.15</ele>
        <time>2020-07-21T08:01:46.000Z</time>
      </trkpt>
      <trkpt lat="42.924167" lon="-5.6983047">
        <ele>1332.3</ele>
        <time>2020-07-21T08:01:47.000Z</time>
      </trkpt>
      <trkpt lat="42.9241792" lon="-5.6983058">
        <ele>1332.3</ele>
        <time>2020-07-21T08:01:48.000Z</time>
      </trkpt>
      <trkpt lat="42.9241915" lon="-5.698306">
        <ele>1332.45</ele>
        <time>2020-07-21T08:01:49.000Z</time>
      </trkpt>
      <trkpt lat="42.9242035" lon="-5.6983058">
        <ele>1332.45</ele>
        <time>2020-07-21T08:01:50.000Z</time>
      </trkpt>
      <trkpt lat="42.924215" lon="-5.6983052">
        <ele>1332.6</ele>
        <time>2020-07-21T08:01:51.000Z</time>
      </trkpt>
      <trkpt lat="42.9242257" lon="-5.698305">
        <ele>1332.6</ele>
        <time>2020-07-21T08:01:52.000Z</time>
      </trkpt>
      <trkpt lat="42.9242358" lon="-5.6983052">
        <ele>1332.75</ele>
        <time>2020-07-21T08:01:53.000Z</time>
      </trkpt>
      <trkpt lat="42.9242457" lon="-5.6983053">
        <ele>1332.75</ele>
        <time>2020-07-21T08:01:54.000Z</time>
      </trkpt>
      <trkpt lat="42.924255" lon="-5.6983062">
        <ele>1332.91</ele>
        <time>2020-07-21T08:01:55.000Z</time>
      </trkpt>
      <trkpt lat="42.9242648" lon="-5.6983062">
        <ele>1332.91</ele>
        <time>2020-07-21T08:01:56.000Z</time>
      </trkpt>
      <trkpt lat="42.9242753" lon="-5.6983067">
        <ele>1333.06</ele>
        <time>2020-07-21T08:01:57.000Z</time>
      </trkpt>
      <trkpt lat="42.9242863" lon="-5.6983065">
        <ele>1333.06</ele>
        <time>2020-07-21T08:01:58.000Z</time>
      </trkpt>
      <trkpt lat="42.9242975" lon="-5.6983068">
        <ele>1333.21</ele>
        <time>2020-07-21T08:01:59.000Z</time>
      </trkpt>
      <trkpt lat="42.924308" lon="-5.6983083">
        <ele>1333.21</ele>
        <time>2020-07-21T08:02:00.000Z</time>
      </trkpt>
      <trkpt lat="42.9243193" lon="-5.6983103">
        <ele>1333.36</ele>
        <time>2020-07-21T08:02:01.000Z</time>
      </trkpt>
      <trkpt lat="42.9243313" lon="-5.6983128">
        <ele>1333.36</ele>
        <time>2020-07-21T08:02:02.000Z</time>
      </trkpt>
      <trkpt lat="42.9243435" lon="-5.698315">
        <ele>1333.52</ele>
        <time>2020-07-21T08:02:03.000Z</time>
      </trkpt>
      <trkpt lat="42.9243535" lon="-5.6983182">
        <ele>1333.52</ele>
        <time>2020-07-21T08:02:04.000Z</time>
      </trkpt>
      <trkpt lat="42.9243637" lon="-5.6983225">
        <ele>1333.67</ele>
        <time>2020-07-21T08:02:05.000Z</time>
      </trkpt>
      <trkpt lat="42.924374" lon="-5.6983273">
        <ele>1333.67</ele>
        <time>2020-07-21T08:02:06.000Z</time>
      </trkpt>
      <trkpt lat="42.9243857" lon="-5.6983323">
        <ele>1333.82</ele>
        <time>2020-07-21T08:02:07.000Z</time>
      </trkpt>
      <trkpt lat="42.9243965" lon="-5.698338">
        <ele>1333.82</ele>
        <time>2020-07-21T08:02:08.000Z</time>
      </trkpt>
      <trkpt lat="42.9244068" lon="-5.6983442">
        <ele>1333.97</ele>
        <time>2020-07-21T08:02:09.000Z</time>
      </trkpt>
      <trkpt lat="42.9244177" lon="-5.698349">
        <ele>1333.97</ele>
        <time>2020-07-21T08:02:10.000Z</time>
      </trkpt>
      <trkpt lat="42.9244288" lon="-5.698352">
        <ele>1334.13</ele>
        <time>2020-07-21T08:02:11.000Z</time>
      </trkpt>
      <trkpt lat="42.9244408" lon="-5.698354">
        <ele>1334.13</ele>
        <time>2020-07-21T08:02:12.000Z</time>
      </trkpt>
      <trkpt lat="42.9244522" lon="-5.6983568">
        <ele>1334.28</ele>
        <time>2020-07-21T08:02:13.000Z</time>
      </trkpt>
      <trkpt lat="42.924463" lon="-5.69836">
        <ele>1334.28</ele>
        <time>2020-07-21T08:02:14.000Z</time>
      </trkpt>
      <trkpt lat="42.9244737" lon="-5.6983615">
        <ele>1334.43</ele>
        <time>2020-07-21T08:02:15.000Z</time>
      </trkpt>
      <trkpt lat="42.924484" lon="-5.6983627">
        <ele>1334.43</ele>
        <time>2020-07-21T08:02:16.000Z</time>
      </trkpt>
      <trkpt lat="42.9244942" lon="-5.6983635">
        <ele>1334.58</ele>
        <time>2020-07-21T08:02:17.000Z</time>
      </trkpt>
      <trkpt lat="42.9245028" lon="-5.6983648">
        <ele>1334.58</ele>
        <time>2020-07-21T08:02:18.000Z</time>
      </trkpt>
      <trkpt lat="42.9245082" lon="-5.6983663">
        <ele>1334.73</ele>
        <time>2020-07-21T08:02:19.000Z</time>
      </trkpt>
      <trkpt lat="42.9245118" lon="-5.6983668">
        <ele>1334.73</ele>
        <time>2020-07-21T08:02:20.000Z</time>
      </trkpt>
      <trkpt lat="42.9245158" lon="-5.6983667">
        <ele>1334.89</ele>
        <time>2020-07-21T08:02:21.000Z</time>
      </trkpt>
      <trkpt lat="42.924522" lon="-5.6983628">
        <ele>1334.89</ele>
        <time>2020-07-21T08:02:22.000Z</time>
      </trkpt>
      <trkpt lat="42.9245292" lon="-5.6983567">
        <ele>1335.04</ele>
        <time>2020-07-21T08:02:23.000Z</time>
      </trkpt>
      <trkpt lat="42.9245362" lon="-5.6983477">
        <ele>1335.04</ele>
        <time>2020-07-21T08:02:24.000Z</time>
      </trkpt>
      <trkpt lat="42.924544" lon="-5.6983382">
        <ele>1335.19</ele>
        <time>2020-07-21T08:02:25.000Z</time>
      </trkpt>
      <trkpt lat="42.9245542" lon="-5.6983277">
        <ele>1335.19</ele>
        <time>2020-07-21T08:02:26.000Z</time>
      </trkpt>
      <trkpt lat="42.924565" lon="-5.6983175">
        <ele>1335.19</ele>
        <time>2020-07-21T08:02:27.000Z</time>
      </trkpt>
      <trkpt lat="42.9245757" lon="-5.6983078">
        <ele>1335.19</ele>
        <time>2020-07-21T08:02:28.000Z</time>
      </trkpt>
      <trkpt lat="42.9245852" lon="-5.6982985">
        <ele>1335.34</ele>
        <time>2020-07-21T08:02:29.000Z</time>
      </trkpt>
      <trkpt lat="42.9245947" lon="-5.6982888">
        <ele>1335.34</ele>
        <time>2020-07-21T08:02:30.000Z</time>
      </trkpt>
      <trkpt lat="42.9246043" lon="-5.6982782">
        <ele>1335.5</ele>
        <time>2020-07-21T08:02:31.000Z</time>
      </trkpt>
      <trkpt lat="42.9246132" lon="-5.6982647">
        <ele>1335.5</ele>
        <time>2020-07-21T08:02:32.000Z</time>
      </trkpt>
      <trkpt lat="42.924622" lon="-5.6982517">
        <ele>1335.65</ele>
        <time>2020-07-21T08:02:33.000Z</time>
      </trkpt>
      <trkpt lat="42.924631" lon="-5.6982397">
        <ele>1335.65</ele>
        <time>2020-07-21T08:02:34.000Z</time>
      </trkpt>
      <trkpt lat="42.9246402" lon="-5.698231">
        <ele>1335.65</ele>
        <time>2020-07-21T08:02:35.000Z</time>
      </trkpt>
      <trkpt lat="42.9246478" lon="-5.6982217">
        <ele>1335.65</ele>
        <time>2020-07-21T08:02:36.000Z</time>
      </trkpt>
      <trkpt lat="42.9246557" lon="-5.698209">
        <ele>1335.8</ele>
        <time>2020-07-21T08:02:37.000Z</time>
      </trkpt>
      <trkpt lat="42.9246642" lon="-5.6981923">
        <ele>1335.8</ele>
        <time>2020-07-21T08:02:38.000Z</time>
      </trkpt>
      <trkpt lat="42.9246735" lon="-5.6981748">
        <ele>1335.95</ele>
        <time>2020-07-21T08:02:39.000Z</time>
      </trkpt>
      <trkpt lat="42.9246813" lon="-5.6981602">
        <ele>1335.95</ele>
        <time>2020-07-21T08:02:40.000Z</time>
      </trkpt>
      <trkpt lat="42.924688" lon="-5.6981475">
        <ele>1335.95</ele>
        <time>2020-07-21T08:02:41.000Z</time>
      </trkpt>
      <trkpt lat="42.9246942" lon="-5.6981347">
        <ele>1335.95</ele>
        <time>2020-07-21T08:02:42.000Z</time>
      </trkpt>
      <trkpt lat="42.9247007" lon="-5.69812">
        <ele>1336.11</ele>
        <time>2020-07-21T08:02:43.000Z</time>
      </trkpt>
      <trkpt lat="42.9247077" lon="-5.6981067">
        <ele>1336.11</ele>
        <time>2020-07-21T08:02:44.000Z</time>
      </trkpt>
      <trkpt lat="42.9247152" lon="-5.6980945">
        <ele>1336.11</ele>
        <time>2020-07-21T08:02:45.000Z</time>
      </trkpt>
      <trkpt lat="42.9247223" lon="-5.698082">
        <ele>1336.11</ele>
        <time>2020-07-21T08:02:46.000Z</time>
      </trkpt>
      <trkpt lat="42.9247287" lon="-5.698069">
        <ele>1336.11</ele>
        <time>2020-07-21T08:02:47.000Z</time>
      </trkpt>
      <trkpt lat="42.9247347" lon="-5.6980553">
        <ele>1336.11</ele>
        <time>2020-07-21T08:02:48.000Z</time>
      </trkpt>
      <trkpt lat="42.9247408" lon="-5.698043">
        <ele>1336.26</ele>
        <time>2020-07-21T08:02:49.000Z</time>
      </trkpt>
      <trkpt lat="42.9247465" lon="-5.6980312">
        <ele>1336.26</ele>
        <time>2020-07-21T08:02:50.000Z</time>
      </trkpt>
      <trkpt lat="42.9247518" lon="-5.6980188">
        <ele>1336.26</ele>
        <time>2020-07-21T08:02:51.000Z</time>
      </trkpt>
      <trkpt lat="42.924757" lon="-5.698006">
        <ele>1336.26</ele>
        <time>2020-07-21T08:02:52.000Z</time>
      </trkpt>
      <trkpt lat="42.9247625" lon="-5.6979908">
        <ele>1336.26</ele>
        <time>2020-07-21T08:02:53.000Z</time>
      </trkpt>
      <trkpt lat="42.9247693" lon="-5.6979755">
        <ele>1336.26</ele>
        <time>2020-07-21T08:02:54.000Z</time>
      </trkpt>
      <trkpt lat="42.9247767" lon="-5.6979598">
        <ele>1336.26</ele>
        <time>2020-07-21T08:02:55.000Z</time>
      </trkpt>
      <trkpt lat="42.9247842" lon="-5.697947">
        <ele>1336.26</ele>
        <time>2020-07-21T08:02:56.000Z</time>
      </trkpt>
      <trkpt lat="42.9247907" lon="-5.6979347">
        <ele>1336.26</ele>
        <time>2020-07-21T08:02:57.000Z</time>
      </trkpt>
      <trkpt lat="42.9247967" lon="-5.6979225">
        <ele>1336.26</ele>
        <time>2020-07-21T08:02:58.000Z</time>
      </trkpt>
      <trkpt lat="42.9248035" lon="-5.697908">
        <ele>1336.26</ele>
        <time>2020-07-21T08:02:59.000Z</time>
      </trkpt>
      <trkpt lat="42.9248107" lon="-5.6978937">
        <ele>1336.26</ele>
        <time>2020-07-21T08:03:00.000Z</time>
      </trkpt>
      <trkpt lat="42.9248177" lon="-5.697881">
        <ele>1336.26</ele>
        <time>2020-07-21T08:03:01.000Z</time>
      </trkpt>
      <trkpt lat="42.9248238" lon="-5.6978693">
        <ele>1336.26</ele>
        <time>2020-07-21T08:03:02.000Z</time>
      </trkpt>
      <trkpt lat="42.9248302" lon="-5.6978577">
        <ele>1336.11</ele>
        <time>2020-07-21T08:03:03.000Z</time>
      </trkpt>
      <trkpt lat="42.924836" lon="-5.6978442">
        <ele>1336.11</ele>
        <time>2020-07-21T08:03:04.000Z</time>
      </trkpt>
      <trkpt lat="42.9248425" lon="-5.6978313">
        <ele>1336.11</ele>
        <time>2020-07-21T08:03:05.000Z</time>
      </trkpt>
      <trkpt lat="42.924849" lon="-5.6978193">
        <ele>1336.11</ele>
        <time>2020-07-21T08:03:06.000Z</time>
      </trkpt>
      <trkpt lat="42.9248567" lon="-5.6978078">
        <ele>1335.95</ele>
        <time>2020-07-21T08:03:07.000Z</time>
      </trkpt>
      <trkpt lat="42.9248645" lon="-5.697795">
        <ele>1335.95</ele>
        <time>2020-07-21T08:03:08.000Z</time>
      </trkpt>
      <trkpt lat="42.924872" lon="-5.6977817">
        <ele>1335.95</ele>
        <time>2020-07-21T08:03:09.000Z</time>
      </trkpt>
      <trkpt lat="42.9248785" lon="-5.6977687">
        <ele>1335.95</ele>
        <time>2020-07-21T08:03:10.000Z</time>
      </trkpt>
      <trkpt lat="42.924884" lon="-5.6977575">
        <ele>1335.95</ele>
        <time>2020-07-21T08:03:11.000Z</time>
      </trkpt>
      <trkpt lat="42.9248898" lon="-5.6977497">
        <ele>1335.95</ele>
        <time>2020-07-21T08:03:12.000Z</time>
      </trkpt>
      <trkpt lat="42.9248947" lon="-5.6977453">
        <ele>1335.8</ele>
        <time>2020-07-21T08:03:13.000Z</time>
      </trkpt>
      <trkpt lat="42.924899" lon="-5.6977447">
        <ele>1335.8</ele>
        <time>2020-07-21T08:03:14.000Z</time>
      </trkpt>
      <trkpt lat="42.9249033" lon="-5.6977428">
        <ele>1335.8</ele>
        <time>2020-07-21T08:03:15.000Z</time>
      </trkpt>
      <trkpt lat="42.9249075" lon="-5.6977403">
        <ele>1335.8</ele>
        <time>2020-07-21T08:03:16.000Z</time>
      </trkpt>
      <trkpt lat="42.9249107" lon="-5.6977375">
        <ele>1335.65</ele>
        <time>2020-07-21T08:03:17.000Z</time>
      </trkpt>
      <trkpt lat="42.9249118" lon="-5.697736">
        <ele>1335.65</ele>
        <time>2020-07-21T08:03:18.000Z</time>
      </trkpt>
      <trkpt lat="42.9249118" lon="-5.6977357">
        <ele>1335.65</ele>
        <time>2020-07-21T08:03:19.000Z</time>
      </trkpt>
      <trkpt lat="42.9249118" lon="-5.6977355">
        <ele>1335.65</ele>
        <time>2020-07-21T08:03:20.000Z</time>
      </trkpt>
      <trkpt lat="42.924912" lon="-5.6977357">
        <ele>1335.5</ele>
        <time>2020-07-21T08:03:21.000Z</time>
      </trkpt>
      <trkpt lat="42.9249125" lon="-5.6977357">
        <ele>1335.5</ele>
        <time>2020-07-21T08:03:22.000Z</time>
      </trkpt>
      <trkpt lat="42.9249127" lon="-5.697736">
        <ele>1335.34</ele>
        <time>2020-07-21T08:03:23.000Z</time>
      </trkpt>
      <trkpt lat="42.9249127" lon="-5.6977362">
        <ele>1335.34</ele>
        <time>2020-07-21T08:03:24.000Z</time>
      </trkpt>
      <trkpt lat="42.9249128" lon="-5.6977367">
        <ele>1335.19</ele>
        <time>2020-07-21T08:03:25.000Z</time>
      </trkpt>
      <trkpt lat="42.9249125" lon="-5.6977372">
        <ele>1335.19</ele>
        <time>2020-07-21T08:03:26.000Z</time>
      </trkpt>
      <trkpt lat="42.9249123" lon="-5.6977377">
        <ele>1335.19</ele>
        <time>2020-07-21T08:03:27.000Z</time>
      </trkpt>
      <trkpt lat="42.9249122" lon="-5.697738">
        <ele>1335.19</ele>
        <time>2020-07-21T08:03:28.000Z</time>
      </trkpt>
      <trkpt lat="42.9249122" lon="-5.6977382">
        <ele>1335.04</ele>
        <time>2020-07-21T08:03:29.000Z</time>
      </trkpt>
      <trkpt lat="42.9249122" lon="-5.6977382">
        <ele>1335.04</ele>
        <time>2020-07-21T08:03:30.000Z</time>
      </trkpt>
      <trkpt lat="42.9249123" lon="-5.6977382">
        <ele>1334.89</ele>
        <time>2020-07-21T08:03:31.000Z</time>
      </trkpt>
      <trkpt lat="42.9249123" lon="-5.697738">
        <ele>1334.89</ele>
        <time>2020-07-21T08:03:32.000Z</time>
      </trkpt>
      <trkpt lat="42.9249123" lon="-5.697738">
        <ele>1334.73</ele>
        <time>2020-07-21T08:03:33.000Z</time>
      </trkpt>
      <trkpt lat="42.9249123" lon="-5.697738">
        <ele>1334.73</ele>
        <time>2020-07-21T08:03:34.000Z</time>
      </trkpt>
      <trkpt lat="42.9249123" lon="-5.697738">
        <ele>1334.58</ele>
        <time>2020-07-21T08:03:35.000Z</time>
      </trkpt>
      <trkpt lat="42.9249122" lon="-5.6977363">
        <ele>1334.58</ele>
        <time>2020-07-21T08:03:36.000Z</time>
      </trkpt>
      <trkpt lat="42.9249125" lon="-5.6977327">
        <ele>1334.43</ele>
        <time>2020-07-21T08:03:37.000Z</time>
      </trkpt>
      <trkpt lat="42.9249127" lon="-5.6977275">
        <ele>1334.43</ele>
        <time>2020-07-21T08:03:38.000Z</time>
      </trkpt>
      <trkpt lat="42.9249135" lon="-5.6977238">
        <ele>1334.28</ele>
        <time>2020-07-21T08:03:39.000Z</time>
      </trkpt>
      <trkpt lat="42.9249137" lon="-5.6977242">
        <ele>1334.28</ele>
        <time>2020-07-21T08:03:40.000Z</time>
      </trkpt>
      <trkpt lat="42.924915" lon="-5.6977252">
        <ele>1333.97</ele>
        <time>2020-07-21T08:03:41.000Z</time>
      </trkpt>
      <trkpt lat="42.924917" lon="-5.697727">
        <ele>1333.97</ele>
        <time>2020-07-21T08:03:42.000Z</time>
      </trkpt>
      <trkpt lat="42.9249205" lon="-5.6977253">
        <ele>1333.82</ele>
        <time>2020-07-21T08:03:43.000Z</time>
      </trkpt>
      <trkpt lat="42.9249233" lon="-5.6977237">
        <ele>1333.82</ele>
        <time>2020-07-21T08:03:44.000Z</time>
      </trkpt>
      <trkpt lat="42.9249252" lon="-5.6977207">
        <ele>1333.67</ele>
        <time>2020-07-21T08:03:45.000Z</time>
      </trkpt>
      <trkpt lat="42.9249257" lon="-5.697719">
        <ele>1333.67</ele>
        <time>2020-07-21T08:03:46.000Z</time>
      </trkpt>
      <trkpt lat="42.924926" lon="-5.6977178">
        <ele>1333.52</ele>
        <time>2020-07-21T08:03:47.000Z</time>
      </trkpt>
      <trkpt lat="42.9249277" lon="-5.697716">
        <ele>1333.52</ele>
        <time>2020-07-21T08:03:48.000Z</time>
      </trkpt>
      <trkpt lat="42.9249297" lon="-5.6977147">
        <ele>1333.36</ele>
        <time>2020-07-21T08:03:49.000Z</time>
      </trkpt>
      <trkpt lat="42.9249315" lon="-5.6977142">
        <ele>1333.36</ele>
        <time>2020-07-21T08:03:50.000Z</time>
      </trkpt>
      <trkpt lat="42.9249322" lon="-5.6977155">
        <ele>1333.21</ele>
        <time>2020-07-21T08:03:51.000Z</time>
      </trkpt>
      <trkpt lat="42.9249327" lon="-5.6977163">
        <ele>1333.21</ele>
        <time>2020-07-21T08:03:52.000Z</time>
      </trkpt>
      <trkpt lat="42.9249325" lon="-5.6977173">
        <ele>1332.91</ele>
        <time>2020-07-21T08:03:53.000Z</time>
      </trkpt>
      <trkpt lat="42.9249318" lon="-5.6977172">
        <ele>1332.91</ele>
        <time>2020-07-21T08:03:54.000Z</time>
      </trkpt>
      <trkpt lat="42.9249317" lon="-5.6977167">
        <ele>1332.75</ele>
        <time>2020-07-21T08:03:55.000Z</time>
      </trkpt>
      <trkpt lat="42.9249317" lon="-5.6977157">
        <ele>1332.75</ele>
        <time>2020-07-21T08:03:56.000Z</time>
      </trkpt>
      <trkpt lat="42.9249327" lon="-5.697715">
        <ele>1332.6</ele>
        <time>2020-07-21T08:03:57.000Z</time>
      </trkpt>
      <trkpt lat="42.9249335" lon="-5.6977148">
        <ele>1332.6</ele>
        <time>2020-07-21T08:03:58.000Z</time>
      </trkpt>
      <trkpt lat="42.9249342" lon="-5.6977145">
        <ele>1332.3</ele>
        <time>2020-07-21T08:03:59.000Z</time>
      </trkpt>
      <trkpt lat="42.9249337" lon="-5.6977135">
        <ele>1332.3</ele>
        <time>2020-07-21T08:04:00.000Z</time>
      </trkpt>
      <trkpt lat="42.9249333" lon="-5.6977125">
        <ele>1332.15</ele>
        <time>2020-07-21T08:04:01.000Z</time>
      </trkpt>
      <trkpt lat="42.9249332" lon="-5.6977118">
        <ele>1332.15</ele>
        <time>2020-07-21T08:04:02.000Z</time>
      </trkpt>
      <trkpt lat="42.9249332" lon="-5.697712">
        <ele>1331.99</ele>
        <time>2020-07-21T08:04:03.000Z</time>
      </trkpt>
      <trkpt lat="42.9249333" lon="-5.6977122">
        <ele>1331.99</ele>
        <time>2020-07-21T08:04:04.000Z</time>
      </trkpt>
      <trkpt lat="42.9249335" lon="-5.6977122">
        <ele>1331.69</ele>
        <time>2020-07-21T08:04:05.000Z</time>
      </trkpt>
      <trkpt lat="42.9249335" lon="-5.6977125">
        <ele>1331.69</ele>
        <time>2020-07-21T08:04:06.000Z</time>
      </trkpt>
      <trkpt lat="42.9249332" lon="-5.6977127">
        <ele>1331.54</ele>
        <time>2020-07-21T08:04:07.000Z</time>
      </trkpt>
      <trkpt lat="42.924933" lon="-5.697713">
        <ele>1331.54</ele>
        <time>2020-07-21T08:04:08.000Z</time>
      </trkpt>
      <trkpt lat="42.9249328" lon="-5.6977132">
        <ele>1331.23</ele>
        <time>2020-07-21T08:04:09.000Z</time>
      </trkpt>
      <trkpt lat="42.9249328" lon="-5.6977133">
        <ele>1331.23</ele>
        <time>2020-07-21T08:04:10.000Z</time>
      </trkpt>
      <trkpt lat="42.9249342" lon="-5.6977117">
        <ele>1331.08</ele>
        <time>2020-07-21T08:04:11.000Z</time>
      </trkpt>
      <trkpt lat="42.9249368" lon="-5.6977087">
        <ele>1331.08</ele>
        <time>2020-07-21T08:04:12.000Z</time>
      </trkpt>
      <trkpt lat="42.9249415" lon="-5.6977057">
        <ele>1330.77</ele>
        <time>2020-07-21T08:04:13.000Z</time>
      </trkpt>
      <trkpt lat="42.9249447" lon="-5.697702">
        <ele>1330.77</ele>
        <time>2020-07-21T08:04:14.000Z</time>
      </trkpt>
      <trkpt lat="42.9249467" lon="-5.6976978">
        <ele>1330.47</ele>
        <time>2020-07-21T08:04:15.000Z</time>
      </trkpt>
      <trkpt lat="42.9249463" lon="-5.697693">
        <ele>1330.47</ele>
        <time>2020-07-21T08:04:16.000Z</time>
      </trkpt>
      <trkpt lat="42.924946" lon="-5.69769">
        <ele>1330.32</ele>
        <time>2020-07-21T08:04:17.000Z</time>
      </trkpt>
      <trkpt lat="42.924945" lon="-5.6976885">
        <ele>1330.32</ele>
        <time>2020-07-21T08:04:18.000Z</time>
      </trkpt>
      <trkpt lat="42.9249438" lon="-5.6976877">
        <ele>1330.01</ele>
        <time>2020-07-21T08:04:19.000Z</time>
      </trkpt>
      <trkpt lat="42.9249427" lon="-5.6976875">
        <ele>1330.01</ele>
        <time>2020-07-21T08:04:20.000Z</time>
      </trkpt>
      <trkpt lat="42.9249418" lon="-5.6976875">
        <ele>1329.71</ele>
        <time>2020-07-21T08:04:21.000Z</time>
      </trkpt>
      <trkpt lat="42.9249413" lon="-5.6976877">
        <ele>1329.71</ele>
        <time>2020-07-21T08:04:22.000Z</time>
      </trkpt>
      <trkpt lat="42.9249413" lon="-5.697688">
        <ele>1329.4</ele>
        <time>2020-07-21T08:04:23.000Z</time>
      </trkpt>
      <trkpt lat="42.9249415" lon="-5.6976883">
        <ele>1329.4</ele>
        <time>2020-07-21T08:04:24.000Z</time>
      </trkpt>
      <trkpt lat="42.9249417" lon="-5.697688">
        <ele>1329.1</ele>
        <time>2020-07-21T08:04:25.000Z</time>
      </trkpt>
      <trkpt lat="42.9249413" lon="-5.6976875">
        <ele>1329.1</ele>
        <time>2020-07-21T08:04:26.000Z</time>
      </trkpt>
      <trkpt lat="42.9249405" lon="-5.6976863">
        <ele>1328.79</ele>
        <time>2020-07-21T08:04:27.000Z</time>
      </trkpt>
      <trkpt lat="42.924939" lon="-5.6976857">
        <ele>1328.79</ele>
        <time>2020-07-21T08:04:28.000Z</time>
      </trkpt>
      <trkpt lat="42.9249373" lon="-5.6976833">
        <ele>1328.49</ele>
        <time>2020-07-21T08:04:29.000Z</time>
      </trkpt>
      <trkpt lat="42.9249363" lon="-5.6976828">
        <ele>1328.49</ele>
        <time>2020-07-21T08:04:30.000Z</time>
      </trkpt>
      <trkpt lat="42.924937" lon="-5.6976833">
        <ele>1328.18</ele>
        <time>2020-07-21T08:04:31.000Z</time>
      </trkpt>
      <trkpt lat="42.9249375" lon="-5.697685">
        <ele>1328.18</ele>
        <time>2020-07-21T08:04:32.000Z</time>
      </trkpt>
      <trkpt lat="42.924939" lon="-5.6976852">
        <ele>1327.88</ele>
        <time>2020-07-21T08:04:33.000Z</time>
      </trkpt>
      <trkpt lat="42.9249398" lon="-5.697681">
        <ele>1327.88</ele>
        <time>2020-07-21T08:04:34.000Z</time>
      </trkpt>
      <trkpt lat="42.9249412" lon="-5.6976712">
        <ele>1327.57</ele>
        <time>2020-07-21T08:04:35.000Z</time>
      </trkpt>
      <trkpt lat="42.9249412" lon="-5.697658">
        <ele>1327.57</ele>
        <time>2020-07-21T08:04:36.000Z</time>
      </trkpt>
      <trkpt lat="42.9249408" lon="-5.6976447">
        <ele>1327.27</ele>
        <time>2020-07-21T08:04:37.000Z</time>
      </trkpt>
      <trkpt lat="42.9249395" lon="-5.6976318">
        <ele>1327.27</ele>
        <time>2020-07-21T08:04:38.000Z</time>
      </trkpt>
      <trkpt lat="42.9249377" lon="-5.6976182">
        <ele>1326.96</ele>
        <time>2020-07-21T08:04:39.000Z</time>
      </trkpt>
      <trkpt lat="42.9249353" lon="-5.6975998">
        <ele>1326.96</ele>
        <time>2020-07-21T08:04:40.000Z</time>
      </trkpt>
      <trkpt lat="42.924936" lon="-5.6975827">
        <ele>1326.66</ele>
        <time>2020-07-21T08:04:41.000Z</time>
      </trkpt>
      <trkpt lat="42.9249385" lon="-5.6975653">
        <ele>1326.66</ele>
        <time>2020-07-21T08:04:42.000Z</time>
      </trkpt>
      <trkpt lat="42.9249432" lon="-5.6975517">
        <ele>1326.51</ele>
        <time>2020-07-21T08:04:43.000Z</time>
      </trkpt>
      <trkpt lat="42.9249477" lon="-5.6975383">
        <ele>1326.51</ele>
        <time>2020-07-21T08:04:44.000Z</time>
      </trkpt>
      <trkpt lat="42.9249532" lon="-5.6975263">
        <ele>1326.2</ele>
        <time>2020-07-21T08:04:45.000Z</time>
      </trkpt>
      <trkpt lat="42.92496" lon="-5.6975162">
        <ele>1326.2</ele>
        <time>2020-07-21T08:04:46.000Z</time>
      </trkpt>
      <trkpt lat="42.924968" lon="-5.6975065">
        <ele>1325.9</ele>
        <time>2020-07-21T08:04:47.000Z</time>
      </trkpt>
      <trkpt lat="42.9249772" lon="-5.6974968">
        <ele>1325.9</ele>
        <time>2020-07-21T08:04:48.000Z</time>
      </trkpt>
      <trkpt lat="42.9249862" lon="-5.6974855">
        <ele>1325.59</ele>
        <time>2020-07-21T08:04:49.000Z</time>
      </trkpt>
      <trkpt lat="42.9249952" lon="-5.6974733">
        <ele>1325.59</ele>
        <time>2020-07-21T08:04:50.000Z</time>
      </trkpt>
      <trkpt lat="42.925004" lon="-5.6974613">
        <ele>1325.29</ele>
        <time>2020-07-21T08:04:51.000Z</time>
      </trkpt>
      <trkpt lat="42.925014" lon="-5.6974517">
        <ele>1325.29</ele>
        <time>2020-07-21T08:04:52.000Z</time>
      </trkpt>
      <trkpt lat="42.9250245" lon="-5.6974462">
        <ele>1324.98</ele>
        <time>2020-07-21T08:04:53.000Z</time>
      </trkpt>
      <trkpt lat="42.9250362" lon="-5.6974442">
        <ele>1324.98</ele>
        <time>2020-07-21T08:04:54.000Z</time>
      </trkpt>
      <trkpt lat="42.9250482" lon="-5.6974427">
        <ele>1324.83</ele>
        <time>2020-07-21T08:04:55.000Z</time>
      </trkpt>
      <trkpt lat="42.92506" lon="-5.6974393">
        <ele>1324.83</ele>
        <time>2020-07-21T08:04:56.000Z</time>
      </trkpt>
      <trkpt lat="42.9250715" lon="-5.6974327">
        <ele>1324.52</ele>
        <time>2020-07-21T08:04:57.000Z</time>
      </trkpt>
      <trkpt lat="42.9250828" lon="-5.6974242">
        <ele>1324.52</ele>
        <time>2020-07-21T08:04:58.000Z</time>
      </trkpt>
      <trkpt lat="42.925094" lon="-5.6974145">
        <ele>1324.22</ele>
        <time>2020-07-21T08:04:59.000Z</time>
      </trkpt>
      <trkpt lat="42.9251052" lon="-5.6974058">
        <ele>1324.22</ele>
        <time>2020-07-21T08:05:00.000Z</time>
      </trkpt>
      <trkpt lat="42.9251162" lon="-5.6973988">
        <ele>1324.07</ele>
        <time>2020-07-21T08:05:01.000Z</time>
      </trkpt>
      <trkpt lat="42.9251268" lon="-5.697392">
        <ele>1324.07</ele>
        <time>2020-07-21T08:05:02.000Z</time>
      </trkpt>
      <trkpt lat="42.9251373" lon="-5.6973845">
        <ele>1323.76</ele>
        <time>2020-07-21T08:05:03.000Z</time>
      </trkpt>
      <trkpt lat="42.9251478" lon="-5.6973768">
        <ele>1323.76</ele>
        <time>2020-07-21T08:05:04.000Z</time>
      </trkpt>
      <trkpt lat="42.9251587" lon="-5.697371">
        <ele>1323.61</ele>
        <time>2020-07-21T08:05:05.000Z</time>
      </trkpt>
      <trkpt lat="42.9251698" lon="-5.6973675">
        <ele>1323.61</ele>
        <time>2020-07-21T08:05:06.000Z</time>
      </trkpt>
      <trkpt lat="42.925182" lon="-5.6973645">
        <ele>1323.46</ele>
        <time>2020-07-21T08:05:07.000Z</time>
      </trkpt>
      <trkpt lat="42.9251945" lon="-5.6973598">
        <ele>1323.46</ele>
        <time>2020-07-21T08:05:08.000Z</time>
      </trkpt>
      <trkpt lat="42.9252072" lon="-5.6973533">
        <ele>1323.15</ele>
        <time>2020-07-21T08:05:09.000Z</time>
      </trkpt>
      <trkpt lat="42.9252192" lon="-5.6973478">
        <ele>1323.15</ele>
        <time>2020-07-21T08:05:10.000Z</time>
      </trkpt>
      <trkpt lat="42.9252308" lon="-5.6973463">
        <ele>1323</ele>
        <time>2020-07-21T08:05:11.000Z</time>
      </trkpt>
      <trkpt lat="42.9252418" lon="-5.6973485">
        <ele>1323</ele>
        <time>2020-07-21T08:05:12.000Z</time>
      </trkpt>
      <trkpt lat="42.9252523" lon="-5.6973533">
        <ele>1322.85</ele>
        <time>2020-07-21T08:05:13.000Z</time>
      </trkpt>
      <trkpt lat="42.925262" lon="-5.69736">
        <ele>1322.85</ele>
        <time>2020-07-21T08:05:14.000Z</time>
      </trkpt>
      <trkpt lat="42.9252713" lon="-5.6973675">
        <ele>1322.54</ele>
        <time>2020-07-21T08:05:15.000Z</time>
      </trkpt>
      <trkpt lat="42.925281" lon="-5.6973738">
        <ele>1322.54</ele>
        <time>2020-07-21T08:05:16.000Z</time>
      </trkpt>
      <trkpt lat="42.9252915" lon="-5.697379">
        <ele>1322.39</ele>
        <time>2020-07-21T08:05:17.000Z</time>
      </trkpt>
      <trkpt lat="42.9253025" lon="-5.6973852">
        <ele>1322.39</ele>
        <time>2020-07-21T08:05:18.000Z</time>
      </trkpt>
      <trkpt lat="42.9253128" lon="-5.6973937">
        <ele>1322.24</ele>
        <time>2020-07-21T08:05:19.000Z</time>
      </trkpt>
      <trkpt lat="42.9253222" lon="-5.6974038">
        <ele>1322.24</ele>
        <time>2020-07-21T08:05:20.000Z</time>
      </trkpt>
      <trkpt lat="42.9253308" lon="-5.6974152">
        <ele>1321.93</ele>
        <time>2020-07-21T08:05:21.000Z</time>
      </trkpt>
      <trkpt lat="42.9253393" lon="-5.6974272">
        <ele>1321.93</ele>
        <time>2020-07-21T08:05:22.000Z</time>
      </trkpt>
      <trkpt lat="42.9253485" lon="-5.6974388">
        <ele>1321.78</ele>
        <time>2020-07-21T08:05:23.000Z</time>
      </trkpt>
      <trkpt lat="42.9253582" lon="-5.69745">
        <ele>1321.78</ele>
        <time>2020-07-21T08:05:24.000Z</time>
      </trkpt>
      <trkpt lat="42.9253675" lon="-5.6974613">
        <ele>1321.63</ele>
        <time>2020-07-21T08:05:25.000Z</time>
      </trkpt>
      <trkpt lat="42.9253767" lon="-5.6974737">
        <ele>1321.63</ele>
        <time>2020-07-21T08:05:26.000Z</time>
      </trkpt>
      <trkpt lat="42.9253848" lon="-5.6974868">
        <ele>1321.48</ele>
        <time>2020-07-21T08:05:27.000Z</time>
      </trkpt>
      <trkpt lat="42.9253927" lon="-5.6975003">
        <ele>1321.48</ele>
        <time>2020-07-21T08:05:28.000Z</time>
      </trkpt>
      <trkpt lat="42.9254002" lon="-5.6975137">
        <ele>1321.17</ele>
        <time>2020-07-21T08:05:29.000Z</time>
      </trkpt>
      <trkpt lat="42.9254073" lon="-5.6975263">
        <ele>1321.17</ele>
        <time>2020-07-21T08:05:30.000Z</time>
      </trkpt>
      <trkpt lat="42.925414" lon="-5.697539">
        <ele>1321.02</ele>
        <time>2020-07-21T08:05:31.000Z</time>
      </trkpt>
      <trkpt lat="42.9254192" lon="-5.6975512">
        <ele>1321.02</ele>
        <time>2020-07-21T08:05:32.000Z</time>
      </trkpt>
      <trkpt lat="42.9254228" lon="-5.6975637">
        <ele>1320.87</ele>
        <time>2020-07-21T08:05:33.000Z</time>
      </trkpt>
      <trkpt lat="42.925427" lon="-5.697575">
        <ele>1320.87</ele>
        <time>2020-07-21T08:05:34.000Z</time>
      </trkpt>
      <trkpt lat="42.9254322" lon="-5.697586">
        <ele>1320.71</ele>
        <time>2020-07-21T08:05:35.000Z</time>
      </trkpt>
      <trkpt lat="42.925439" lon="-5.6975975">
        <ele>1320.71</ele>
        <time>2020-07-21T08:05:36.000Z</time>
      </trkpt>
      <trkpt lat="42.9254453" lon="-5.6976107">
        <ele>1320.56</ele>
        <time>2020-07-21T08:05:37.000Z</time>
      </trkpt>
      <trkpt lat="42.9254503" lon="-5.6976245">
        <ele>1320.56</ele>
        <time>2020-07-21T08:05:38.000Z</time>
      </trkpt>
      <trkpt lat="42.9254547" lon="-5.6976397">
        <ele>1320.26</ele>
        <time>2020-07-21T08:05:39.000Z</time>
      </trkpt>
      <trkpt lat="42.9254592" lon="-5.6976553">
        <ele>1320.26</ele>
        <time>2020-07-21T08:05:40.000Z</time>
      </trkpt>
      <trkpt lat="42.9254643" lon="-5.6976717">
        <ele>1320.1</ele>
        <time>2020-07-21T08:05:41.000Z</time>
      </trkpt>
      <trkpt lat="42.925469" lon="-5.697688">
        <ele>1320.1</ele>
        <time>2020-07-21T08:05:42.000Z</time>
      </trkpt>
      <trkpt lat="42.925473" lon="-5.6977045">
        <ele>1319.95</ele>
        <time>2020-07-21T08:05:43.000Z</time>
      </trkpt>
      <trkpt lat="42.9254763" lon="-5.6977207">
        <ele>1319.95</ele>
        <time>2020-07-21T08:05:44.000Z</time>
      </trkpt>
      <trkpt lat="42.9254793" lon="-5.6977368">
        <ele>1319.8</ele>
        <time>2020-07-21T08:05:45.000Z</time>
      </trkpt>
      <trkpt lat="42.9254815" lon="-5.6977528">
        <ele>1319.8</ele>
        <time>2020-07-21T08:05:46.000Z</time>
      </trkpt>
      <trkpt lat="42.9254838" lon="-5.6977697">
        <ele>1319.49</ele>
        <time>2020-07-21T08:05:47.000Z</time>
      </trkpt>
      <trkpt lat="42.9254857" lon="-5.6977865">
        <ele>1319.49</ele>
        <time>2020-07-21T08:05:48.000Z</time>
      </trkpt>
      <trkpt lat="42.9254868" lon="-5.6978037">
        <ele>1319.34</ele>
        <time>2020-07-21T08:05:49.000Z</time>
      </trkpt>
      <trkpt lat="42.9254863" lon="-5.6978212">
        <ele>1319.34</ele>
        <time>2020-07-21T08:05:50.000Z</time>
      </trkpt>
      <trkpt lat="42.9254853" lon="-5.6978387">
        <ele>1319.19</ele>
        <time>2020-07-21T08:05:51.000Z</time>
      </trkpt>
      <trkpt lat="42.9254847" lon="-5.697856">
        <ele>1319.19</ele>
        <time>2020-07-21T08:05:52.000Z</time>
      </trkpt>
      <trkpt lat="42.9254852" lon="-5.6978727">
        <ele>1319.04</ele>
        <time>2020-07-21T08:05:53.000Z</time>
      </trkpt>
      <trkpt lat="42.9254872" lon="-5.6978888">
        <ele>1319.04</ele>
        <time>2020-07-21T08:05:54.000Z</time>
      </trkpt>
      <trkpt lat="42.9254893" lon="-5.6979053">
        <ele>1318.89</ele>
        <time>2020-07-21T08:05:55.000Z</time>
      </trkpt>
      <trkpt lat="42.9254917" lon="-5.6979217">
        <ele>1318.89</ele>
        <time>2020-07-21T08:05:56.000Z</time>
      </trkpt>
      <trkpt lat="42.9254933" lon="-5.697939">
        <ele>1318.73</ele>
        <time>2020-07-21T08:05:57.000Z</time>
      </trkpt>
      <trkpt lat="42.9254945" lon="-5.6979555">
        <ele>1318.73</ele>
        <time>2020-07-21T08:05:58.000Z</time>
      </trkpt>
      <trkpt lat="42.9254952" lon="-5.6979713">
        <ele>1318.58</ele>
        <time>2020-07-21T08:05:59.000Z</time>
      </trkpt>
      <trkpt lat="42.9254958" lon="-5.6979863">
        <ele>1318.58</ele>
        <time>2020-07-21T08:06:00.000Z</time>
      </trkpt>
      <trkpt lat="42.9254963" lon="-5.6980017">
        <ele>1318.43</ele>
        <time>2020-07-21T08:06:01.000Z</time>
      </trkpt>
      <trkpt lat="42.9254967" lon="-5.698018">
        <ele>1318.43</ele>
        <time>2020-07-21T08:06:02.000Z</time>
      </trkpt>
      <trkpt lat="42.9254963" lon="-5.6980358">
        <ele>1318.28</ele>
        <time>2020-07-21T08:06:03.000Z</time>
      </trkpt>
      <trkpt lat="42.9254957" lon="-5.6980537">
        <ele>1318.28</ele>
        <time>2020-07-21T08:06:04.000Z</time>
      </trkpt>
      <trkpt lat="42.9254952" lon="-5.6980707">
        <ele>1318.12</ele>
        <time>2020-07-21T08:06:05.000Z</time>
      </trkpt>
      <trkpt lat="42.9254962" lon="-5.6980862">
        <ele>1318.12</ele>
        <time>2020-07-21T08:06:06.000Z</time>
      </trkpt>
      <trkpt lat="42.9254998" lon="-5.6980998">
        <ele>1317.97</ele>
        <time>2020-07-21T08:06:07.000Z</time>
      </trkpt>
      <trkpt lat="42.9255068" lon="-5.698112">
        <ele>1317.97</ele>
        <time>2020-07-21T08:06:08.000Z</time>
      </trkpt>
      <trkpt lat="42.9255142" lon="-5.6981245">
        <ele>1317.82</ele>
        <time>2020-07-21T08:06:09.000Z</time>
      </trkpt>
      <trkpt lat="42.9255205" lon="-5.698139">
        <ele>1317.82</ele>
        <time>2020-07-21T08:06:10.000Z</time>
      </trkpt>
      <trkpt lat="42.9255255" lon="-5.6981555">
        <ele>1317.67</ele>
        <time>2020-07-21T08:06:11.000Z</time>
      </trkpt>
      <trkpt lat="42.9255305" lon="-5.6981722">
        <ele>1317.67</ele>
        <time>2020-07-21T08:06:12.000Z</time>
      </trkpt>
      <trkpt lat="42.925535" lon="-5.6981893">
        <ele>1317.51</ele>
        <time>2020-07-21T08:06:13.000Z</time>
      </trkpt>
      <trkpt lat="42.925539" lon="-5.698206">
        <ele>1317.51</ele>
        <time>2020-07-21T08:06:14.000Z</time>
      </trkpt>
      <trkpt lat="42.9255408" lon="-5.6982227">
        <ele>1317.36</ele>
        <time>2020-07-21T08:06:15.000Z</time>
      </trkpt>
      <trkpt lat="42.9255412" lon="-5.6982393">
        <ele>1317.36</ele>
        <time>2020-07-21T08:06:16.000Z</time>
      </trkpt>
      <trkpt lat="42.9255412" lon="-5.6982563">
        <ele>1317.06</ele>
        <time>2020-07-21T08:06:17.000Z</time>
      </trkpt>
      <trkpt lat="42.9255432" lon="-5.6982737">
        <ele>1317.06</ele>
        <time>2020-07-21T08:06:18.000Z</time>
      </trkpt>
      <trkpt lat="42.925546" lon="-5.6982907">
        <ele>1316.9</ele>
        <time>2020-07-21T08:06:19.000Z</time>
      </trkpt>
      <trkpt lat="42.9255492" lon="-5.6983072">
        <ele>1316.9</ele>
        <time>2020-07-21T08:06:20.000Z</time>
      </trkpt>
      <trkpt lat="42.9255538" lon="-5.6983197">
        <ele>1316.75</ele>
        <time>2020-07-21T08:06:21.000Z</time>
      </trkpt>
      <trkpt lat="42.9255602" lon="-5.6983303">
        <ele>1316.75</ele>
        <time>2020-07-21T08:06:22.000Z</time>
      </trkpt>
      <trkpt lat="42.9255658" lon="-5.6983417">
        <ele>1316.6</ele>
        <time>2020-07-21T08:06:23.000Z</time>
      </trkpt>
      <trkpt lat="42.92557" lon="-5.6983557">
        <ele>1316.6</ele>
        <time>2020-07-21T08:06:24.000Z</time>
      </trkpt>
      <trkpt lat="42.9255732" lon="-5.6983708">
        <ele>1316.3</ele>
        <time>2020-07-21T08:06:25.000Z</time>
      </trkpt>
      <trkpt lat="42.925576" lon="-5.6983855">
        <ele>1316.3</ele>
        <time>2020-07-21T08:06:26.000Z</time>
      </trkpt>
      <trkpt lat="42.9255783" lon="-5.698402">
        <ele>1316.14</ele>
        <time>2020-07-21T08:06:27.000Z</time>
      </trkpt>
      <trkpt lat="42.9255813" lon="-5.6984187">
        <ele>1316.14</ele>
        <time>2020-07-21T08:06:28.000Z</time>
      </trkpt>
      <trkpt lat="42.9255847" lon="-5.6984355">
        <ele>1315.99</ele>
        <time>2020-07-21T08:06:29.000Z</time>
      </trkpt>
      <trkpt lat="42.9255892" lon="-5.6984518">
        <ele>1315.99</ele>
        <time>2020-07-21T08:06:30.000Z</time>
      </trkpt>
      <trkpt lat="42.9255933" lon="-5.6984675">
        <ele>1315.84</ele>
        <time>2020-07-21T08:06:31.000Z</time>
      </trkpt>
      <trkpt lat="42.9255975" lon="-5.6984827">
        <ele>1315.84</ele>
        <time>2020-07-21T08:06:32.000Z</time>
      </trkpt>
      <trkpt lat="42.9256007" lon="-5.698496">
        <ele>1315.69</ele>
        <time>2020-07-21T08:06:33.000Z</time>
      </trkpt>
      <trkpt lat="42.9256035" lon="-5.6985107">
        <ele>1315.69</ele>
        <time>2020-07-21T08:06:34.000Z</time>
      </trkpt>
      <trkpt lat="42.9256065" lon="-5.6985247">
        <ele>1315.53</ele>
        <time>2020-07-21T08:06:35.000Z</time>
      </trkpt>
      <trkpt lat="42.9256102" lon="-5.6985382">
        <ele>1315.53</ele>
        <time>2020-07-21T08:06:36.000Z</time>
      </trkpt>
      <trkpt lat="42.9256143" lon="-5.6985522">
        <ele>1315.23</ele>
        <time>2020-07-21T08:06:37.000Z</time>
      </trkpt>
      <trkpt lat="42.9256183" lon="-5.6985668">
        <ele>1315.23</ele>
        <time>2020-07-21T08:06:38.000Z</time>
      </trkpt>
      <trkpt lat="42.9256228" lon="-5.6985828">
        <ele>1315.08</ele>
        <time>2020-07-21T08:06:39.000Z</time>
      </trkpt>
      <trkpt lat="42.9256277" lon="-5.6985978">
        <ele>1315.08</ele>
        <time>2020-07-21T08:06:40.000Z</time>
      </trkpt>
      <trkpt lat="42.9256333" lon="-5.6986112">
        <ele>1314.92</ele>
        <time>2020-07-21T08:06:41.000Z</time>
      </trkpt>
      <trkpt lat="42.9256383" lon="-5.698624">
        <ele>1314.92</ele>
        <time>2020-07-21T08:06:42.000Z</time>
      </trkpt>
      <trkpt lat="42.9256435" lon="-5.6986372">
        <ele>1314.77</ele>
        <time>2020-07-21T08:06:43.000Z</time>
      </trkpt>
      <trkpt lat="42.9256482" lon="-5.6986513">
        <ele>1314.77</ele>
        <time>2020-07-21T08:06:44.000Z</time>
      </trkpt>
      <trkpt lat="42.925652" lon="-5.6986657">
        <ele>1314.62</ele>
        <time>2020-07-21T08:06:45.000Z</time>
      </trkpt>
      <trkpt lat="42.9256542" lon="-5.6986803">
        <ele>1314.62</ele>
        <time>2020-07-21T08:06:46.000Z</time>
      </trkpt>
      <trkpt lat="42.9256552" lon="-5.6986948">
        <ele>1314.31</ele>
        <time>2020-07-21T08:06:47.000Z</time>
      </trkpt>
      <trkpt lat="42.925656" lon="-5.6987085">
        <ele>1314.31</ele>
        <time>2020-07-21T08:06:48.000Z</time>
      </trkpt>
      <trkpt lat="42.925657" lon="-5.6987205">
        <ele>1314.16</ele>
        <time>2020-07-21T08:06:49.000Z</time>
      </trkpt>
      <trkpt lat="42.9256587" lon="-5.6987325">
        <ele>1314.16</ele>
        <time>2020-07-21T08:06:50.000Z</time>
      </trkpt>
      <trkpt lat="42.9256613" lon="-5.6987462">
        <ele>1314.01</ele>
        <time>2020-07-21T08:06:51.000Z</time>
      </trkpt>
      <trkpt lat="42.9256635" lon="-5.6987612">
        <ele>1314.01</ele>
        <time>2020-07-21T08:06:52.000Z</time>
      </trkpt>
      <trkpt lat="42.925665" lon="-5.6987765">
        <ele>1313.7</ele>
        <time>2020-07-21T08:06:53.000Z</time>
      </trkpt>
      <trkpt lat="42.9256668" lon="-5.6987898">
        <ele>1313.7</ele>
        <time>2020-07-21T08:06:54.000Z</time>
      </trkpt>
      <trkpt lat="42.9256693" lon="-5.6988017">
        <ele>1313.55</ele>
        <time>2020-07-21T08:06:55.000Z</time>
      </trkpt>
      <trkpt lat="42.9256723" lon="-5.6988115">
        <ele>1313.55</ele>
        <time>2020-07-21T08:06:56.000Z</time>
      </trkpt>
      <trkpt lat="42.9256755" lon="-5.6988215">
        <ele>1313.25</ele>
        <time>2020-07-21T08:06:57.000Z</time>
      </trkpt>
      <trkpt lat="42.92568" lon="-5.6988327">
        <ele>1313.25</ele>
        <time>2020-07-21T08:06:58.000Z</time>
      </trkpt>
      <trkpt lat="42.9256858" lon="-5.6988445">
        <ele>1312.94</ele>
        <time>2020-07-21T08:06:59.000Z</time>
      </trkpt>
      <trkpt lat="42.925692" lon="-5.6988558">
        <ele>1312.94</ele>
        <time>2020-07-21T08:07:00.000Z</time>
      </trkpt>
      <trkpt lat="42.9256983" lon="-5.6988668">
        <ele>1312.64</ele>
        <time>2020-07-21T08:07:01.000Z</time>
      </trkpt>
      <trkpt lat="42.9257032" lon="-5.6988775">
        <ele>1312.64</ele>
        <time>2020-07-21T08:07:02.000Z</time>
      </trkpt>
      <trkpt lat="42.925706" lon="-5.6988898">
        <ele>1312.33</ele>
        <time>2020-07-21T08:07:03.000Z</time>
      </trkpt>
      <trkpt lat="42.9257083" lon="-5.6989032">
        <ele>1312.33</ele>
        <time>2020-07-21T08:07:04.000Z</time>
      </trkpt>
      <trkpt lat="42.9257103" lon="-5.6989138">
        <ele>1312.03</ele>
        <time>2020-07-21T08:07:05.000Z</time>
      </trkpt>
      <trkpt lat="42.9257157" lon="-5.6989228">
        <ele>1312.03</ele>
        <time>2020-07-21T08:07:06.000Z</time>
      </trkpt>
      <trkpt lat="42.9257222" lon="-5.6989308">
        <ele>1311.57</ele>
        <time>2020-07-21T08:07:07.000Z</time>
      </trkpt>
      <trkpt lat="42.9257303" lon="-5.698943">
        <ele>1311.57</ele>
        <time>2020-07-21T08:07:08.000Z</time>
      </trkpt>
      <trkpt lat="42.9257368" lon="-5.6989588">
        <ele>1311.27</ele>
        <time>2020-07-21T08:07:09.000Z</time>
      </trkpt>
      <trkpt lat="42.9257407" lon="-5.6989752">
        <ele>1311.27</ele>
        <time>2020-07-21T08:07:10.000Z</time>
      </trkpt>
      <trkpt lat="42.925743" lon="-5.6989915">
        <ele>1310.96</ele>
        <time>2020-07-21T08:07:11.000Z</time>
      </trkpt>
      <trkpt lat="42.925745" lon="-5.6990067">
        <ele>1310.96</ele>
        <time>2020-07-21T08:07:12.000Z</time>
      </trkpt>
      <trkpt lat="42.9257465" lon="-5.6990217">
        <ele>1310.5</ele>
        <time>2020-07-21T08:07:13.000Z</time>
      </trkpt>
      <trkpt lat="42.9257488" lon="-5.6990318">
        <ele>1310.5</ele>
        <time>2020-07-21T08:07:14.000Z</time>
      </trkpt>
      <trkpt lat="42.9257512" lon="-5.6990352">
        <ele>1310.2</ele>
        <time>2020-07-21T08:07:15.000Z</time>
      </trkpt>
      <trkpt lat="42.925753" lon="-5.6990357">
        <ele>1310.2</ele>
        <time>2020-07-21T08:07:16.000Z</time>
      </trkpt>
      <trkpt lat="42.925753" lon="-5.6990357">
        <ele>1309.74</ele>
        <time>2020-07-21T08:07:17.000Z</time>
      </trkpt>
      <trkpt lat="42.9257522" lon="-5.6990373">
        <ele>1309.74</ele>
        <time>2020-07-21T08:07:18.000Z</time>
      </trkpt>
      <trkpt lat="42.9257518" lon="-5.6990383">
        <ele>1309.28</ele>
        <time>2020-07-21T08:07:19.000Z</time>
      </trkpt>
      <trkpt lat="42.9257513" lon="-5.6990395">
        <ele>1309.28</ele>
        <time>2020-07-21T08:07:20.000Z</time>
      </trkpt>
      <trkpt lat="42.9257508" lon="-5.6990402">
        <ele>1308.98</ele>
        <time>2020-07-21T08:07:21.000Z</time>
      </trkpt>
      <trkpt lat="42.9257503" lon="-5.6990398">
        <ele>1308.98</ele>
        <time>2020-07-21T08:07:22.000Z</time>
      </trkpt>
      <trkpt lat="42.9257498" lon="-5.6990392">
        <ele>1308.52</ele>
        <time>2020-07-21T08:07:23.000Z</time>
      </trkpt>
      <trkpt lat="42.9257495" lon="-5.6990382">
        <ele>1308.52</ele>
        <time>2020-07-21T08:07:24.000Z</time>
      </trkpt>
      <trkpt lat="42.925749" lon="-5.6990375">
        <ele>1308.06</ele>
        <time>2020-07-21T08:07:25.000Z</time>
      </trkpt>
      <trkpt lat="42.9257485" lon="-5.6990368">
        <ele>1308.06</ele>
        <time>2020-07-21T08:07:26.000Z</time>
      </trkpt>
      <trkpt lat="42.925748" lon="-5.6990363">
        <ele>1307.76</ele>
        <time>2020-07-21T08:07:27.000Z</time>
      </trkpt>
      <trkpt lat="42.9257477" lon="-5.6990355">
        <ele>1307.76</ele>
        <time>2020-07-21T08:07:28.000Z</time>
      </trkpt>
      <trkpt lat="42.9257472" lon="-5.6990353">
        <ele>1307.3</ele>
        <time>2020-07-21T08:07:29.000Z</time>
      </trkpt>
      <trkpt lat="42.9257482" lon="-5.6990377">
        <ele>1307.3</ele>
        <time>2020-07-21T08:07:30.000Z</time>
      </trkpt>
      <trkpt lat="42.9257508" lon="-5.6990447">
        <ele>1306.85</ele>
        <time>2020-07-21T08:07:31.000Z</time>
      </trkpt>
      <trkpt lat="42.9257563" lon="-5.699055">
        <ele>1306.85</ele>
        <time>2020-07-21T08:07:32.000Z</time>
      </trkpt>
      <trkpt lat="42.9257608" lon="-5.699067">
        <ele>1306.54</ele>
        <time>2020-07-21T08:07:33.000Z</time>
      </trkpt>
      <trkpt lat="42.925764" lon="-5.6990785">
        <ele>1306.54</ele>
        <time>2020-07-21T08:07:34.000Z</time>
      </trkpt>
      <trkpt lat="42.9257652" lon="-5.699089">
        <ele>1306.08</ele>
        <time>2020-07-21T08:07:35.000Z</time>
      </trkpt>
      <trkpt lat="42.925767" lon="-5.6990947">
        <ele>1306.08</ele>
        <time>2020-07-21T08:07:36.000Z</time>
      </trkpt>
      <trkpt lat="42.9257687" lon="-5.699097">
        <ele>1305.78</ele>
        <time>2020-07-21T08:07:37.000Z</time>
      </trkpt>
      <trkpt lat="42.9257698" lon="-5.6990967">
        <ele>1305.78</ele>
        <time>2020-07-21T08:07:38.000Z</time>
      </trkpt>
      <trkpt lat="42.9257698" lon="-5.699098">
        <ele>1305.32</ele>
        <time>2020-07-21T08:07:39.000Z</time>
      </trkpt>
      <trkpt lat="42.9257692" lon="-5.6991003">
        <ele>1305.32</ele>
        <time>2020-07-21T08:07:40.000Z</time>
      </trkpt>
      <trkpt lat="42.9257683" lon="-5.6991027">
        <ele>1305.02</ele>
        <time>2020-07-21T08:07:41.000Z</time>
      </trkpt>
      <trkpt lat="42.9257678" lon="-5.6991045">
        <ele>1305.02</ele>
        <time>2020-07-21T08:07:42.000Z</time>
      </trkpt>
      <trkpt lat="42.9257677" lon="-5.699105">
        <ele>1304.56</ele>
        <time>2020-07-21T08:07:43.000Z</time>
      </trkpt>
      <trkpt lat="42.9257675" lon="-5.6991053">
        <ele>1304.56</ele>
        <time>2020-07-21T08:07:44.000Z</time>
      </trkpt>
      <trkpt lat="42.9257672" lon="-5.6991057">
        <ele>1304.26</ele>
        <time>2020-07-21T08:07:45.000Z</time>
      </trkpt>
      <trkpt lat="42.925767" lon="-5.6991058">
        <ele>1304.26</ele>
        <time>2020-07-21T08:07:46.000Z</time>
      </trkpt>
      <trkpt lat="42.925767" lon="-5.6991062">
        <ele>1303.8</ele>
        <time>2020-07-21T08:07:47.000Z</time>
      </trkpt>
      <trkpt lat="42.9257668" lon="-5.6991063">
        <ele>1303.8</ele>
        <time>2020-07-21T08:07:48.000Z</time>
      </trkpt>
      <trkpt lat="42.9257665" lon="-5.6991067">
        <ele>1303.49</ele>
        <time>2020-07-21T08:07:49.000Z</time>
      </trkpt>
      <trkpt lat="42.925766" lon="-5.6991068">
        <ele>1303.49</ele>
        <time>2020-07-21T08:07:50.000Z</time>
      </trkpt>
      <trkpt lat="42.9257653" lon="-5.6991068">
        <ele>1303.04</ele>
        <time>2020-07-21T08:07:51.000Z</time>
      </trkpt>
      <trkpt lat="42.9257643" lon="-5.6991083">
        <ele>1303.04</ele>
        <time>2020-07-21T08:07:52.000Z</time>
      </trkpt>
      <trkpt lat="42.9257627" lon="-5.6991108">
        <ele>1302.73</ele>
        <time>2020-07-21T08:07:53.000Z</time>
      </trkpt>
      <trkpt lat="42.9257613" lon="-5.6991162">
        <ele>1302.73</ele>
        <time>2020-07-21T08:07:54.000Z</time>
      </trkpt>
      <trkpt lat="42.9257608" lon="-5.6991238">
        <ele>1302.43</ele>
        <time>2020-07-21T08:07:55.000Z</time>
      </trkpt>
      <trkpt lat="42.9257617" lon="-5.6991355">
        <ele>1302.43</ele>
        <time>2020-07-21T08:07:56.000Z</time>
      </trkpt>
      <trkpt lat="42.9257625" lon="-5.6991492">
        <ele>1301.97</ele>
        <time>2020-07-21T08:07:57.000Z</time>
      </trkpt>
      <trkpt lat="42.9257638" lon="-5.6991653">
        <ele>1301.97</ele>
        <time>2020-07-21T08:07:58.000Z</time>
      </trkpt>
      <trkpt lat="42.9257658" lon="-5.6991818">
        <ele>1301.66</ele>
        <time>2020-07-21T08:07:59.000Z</time>
      </trkpt>
      <trkpt lat="42.9257695" lon="-5.6991985">
        <ele>1301.66</ele>
        <time>2020-07-21T08:08:00.000Z</time>
      </trkpt>
      <trkpt lat="42.9257738" lon="-5.699215">
        <ele>1301.21</ele>
        <time>2020-07-21T08:08:01.000Z</time>
      </trkpt>
      <trkpt lat="42.9257775" lon="-5.6992312">
        <ele>1301.21</ele>
        <time>2020-07-21T08:08:02.000Z</time>
      </trkpt>
      <trkpt lat="42.9257798" lon="-5.6992483">
        <ele>1300.9</ele>
        <time>2020-07-21T08:08:03.000Z</time>
      </trkpt>
      <trkpt lat="42.9257817" lon="-5.699265">
        <ele>1300.9</ele>
        <time>2020-07-21T08:08:04.000Z</time>
      </trkpt>
      <trkpt lat="42.9257847" lon="-5.6992825">
        <ele>1300.6</ele>
        <time>2020-07-21T08:08:05.000Z</time>
      </trkpt>
      <trkpt lat="42.9257887" lon="-5.699299">
        <ele>1300.6</ele>
        <time>2020-07-21T08:08:06.000Z</time>
      </trkpt>
      <trkpt lat="42.9257937" lon="-5.6993163">
        <ele>1300.14</ele>
        <time>2020-07-21T08:08:07.000Z</time>
      </trkpt>
      <trkpt lat="42.9257993" lon="-5.6993335">
        <ele>1300.14</ele>
        <time>2020-07-21T08:08:08.000Z</time>
      </trkpt>
      <trkpt lat="42.925804" lon="-5.6993518">
        <ele>1299.83</ele>
        <time>2020-07-21T08:08:09.000Z</time>
      </trkpt>
      <trkpt lat="42.9258075" lon="-5.6993708">
        <ele>1299.83</ele>
        <time>2020-07-21T08:08:10.000Z</time>
      </trkpt>
      <trkpt lat="42.9258093" lon="-5.6993902">
        <ele>1299.53</ele>
        <time>2020-07-21T08:08:11.000Z</time>
      </trkpt>
      <trkpt lat="42.9258103" lon="-5.6994098">
        <ele>1299.53</ele>
        <time>2020-07-21T08:08:12.000Z</time>
      </trkpt>
      <trkpt lat="42.9258108" lon="-5.6994292">
        <ele>1299.07</ele>
        <time>2020-07-21T08:08:13.000Z</time>
      </trkpt>
      <trkpt lat="42.9258107" lon="-5.6994492">
        <ele>1299.07</ele>
        <time>2020-07-21T08:08:14.000Z</time>
      </trkpt>
      <trkpt lat="42.925811" lon="-5.6994685">
        <ele>1298.77</ele>
        <time>2020-07-21T08:08:15.000Z</time>
      </trkpt>
      <trkpt lat="42.9258117" lon="-5.6994872">
        <ele>1298.77</ele>
        <time>2020-07-21T08:08:16.000Z</time>
      </trkpt>
      <trkpt lat="42.9258123" lon="-5.6995055">
        <ele>1298.46</ele>
        <time>2020-07-21T08:08:17.000Z</time>
      </trkpt>
      <trkpt lat="42.925813" lon="-5.699524">
        <ele>1298.46</ele>
        <time>2020-07-21T08:08:18.000Z</time>
      </trkpt>
      <trkpt lat="42.9258128" lon="-5.6995425">
        <ele>1298.16</ele>
        <time>2020-07-21T08:08:19.000Z</time>
      </trkpt>
      <trkpt lat="42.9258123" lon="-5.6995598">
        <ele>1298.16</ele>
        <time>2020-07-21T08:08:20.000Z</time>
      </trkpt>
      <trkpt lat="42.9258117" lon="-5.6995772">
        <ele>1297.85</ele>
        <time>2020-07-21T08:08:21.000Z</time>
      </trkpt>
      <trkpt lat="42.9258113" lon="-5.6995943">
        <ele>1297.85</ele>
        <time>2020-07-21T08:08:22.000Z</time>
      </trkpt>
      <trkpt lat="42.925811" lon="-5.6996123">
        <ele>1297.55</ele>
        <time>2020-07-21T08:08:23.000Z</time>
      </trkpt>
      <trkpt lat="42.9258107" lon="-5.6996302">
        <ele>1297.55</ele>
        <time>2020-07-21T08:08:24.000Z</time>
      </trkpt>
      <trkpt lat="42.92581" lon="-5.6996482">
        <ele>1297.24</ele>
        <time>2020-07-21T08:08:25.000Z</time>
      </trkpt>
      <trkpt lat="42.9258095" lon="-5.6996662">
        <ele>1297.24</ele>
        <time>2020-07-21T08:08:26.000Z</time>
      </trkpt>
      <trkpt lat="42.9258088" lon="-5.6996845">
        <ele>1296.94</ele>
        <time>2020-07-21T08:08:27.000Z</time>
      </trkpt>
      <trkpt lat="42.925808" lon="-5.699703">
        <ele>1296.94</ele>
        <time>2020-07-21T08:08:28.000Z</time>
      </trkpt>
      <trkpt lat="42.9258075" lon="-5.6997213">
        <ele>1296.64</ele>
        <time>2020-07-21T08:08:29.000Z</time>
      </trkpt>
      <trkpt lat="42.925807" lon="-5.6997392">
        <ele>1296.64</ele>
        <time>2020-07-21T08:08:30.000Z</time>
      </trkpt>
      <trkpt lat="42.925807" lon="-5.6997563">
        <ele>1296.33</ele>
        <time>2020-07-21T08:08:31.000Z</time>
      </trkpt>
      <trkpt lat="42.9258072" lon="-5.6997735">
        <ele>1296.33</ele>
        <time>2020-07-21T08:08:32.000Z</time>
      </trkpt>
      <trkpt lat="42.9258075" lon="-5.6997905">
        <ele>1296.18</ele>
        <time>2020-07-21T08:08:33.000Z</time>
      </trkpt>
      <trkpt lat="42.9258078" lon="-5.6998078">
        <ele>1296.18</ele>
        <time>2020-07-21T08:08:34.000Z</time>
      </trkpt>
      <trkpt lat="42.9258078" lon="-5.6998257">
        <ele>1295.87</ele>
        <time>2020-07-21T08:08:35.000Z</time>
      </trkpt>
      <trkpt lat="42.9258083" lon="-5.6998445">
        <ele>1295.87</ele>
        <time>2020-07-21T08:08:36.000Z</time>
      </trkpt>
      <trkpt lat="42.9258088" lon="-5.6998638">
        <ele>1295.57</ele>
        <time>2020-07-21T08:08:37.000Z</time>
      </trkpt>
      <trkpt lat="42.9258093" lon="-5.6998805">
        <ele>1295.57</ele>
        <time>2020-07-21T08:08:38.000Z</time>
      </trkpt>
      <trkpt lat="42.9258078" lon="-5.6998973">
        <ele>1295.42</ele>
        <time>2020-07-21T08:08:39.000Z</time>
      </trkpt>
      <trkpt lat="42.9258053" lon="-5.6999133">
        <ele>1295.42</ele>
        <time>2020-07-21T08:08:40.000Z</time>
      </trkpt>
      <trkpt lat="42.9258013" lon="-5.699931">
        <ele>1295.11</ele>
        <time>2020-07-21T08:08:41.000Z</time>
      </trkpt>
      <trkpt lat="42.9257975" lon="-5.699947">
        <ele>1295.11</ele>
        <time>2020-07-21T08:08:42.000Z</time>
      </trkpt>
      <trkpt lat="42.9257943" lon="-5.699963">
        <ele>1294.96</ele>
        <time>2020-07-21T08:08:43.000Z</time>
      </trkpt>
      <trkpt lat="42.9257932" lon="-5.6999795">
        <ele>1294.96</ele>
        <time>2020-07-21T08:08:44.000Z</time>
      </trkpt>
      <trkpt lat="42.9257955" lon="-5.6999947">
        <ele>1294.65</ele>
        <time>2020-07-21T08:08:45.000Z</time>
      </trkpt>
      <trkpt lat="42.9258023" lon="-5.7000025">
        <ele>1294.65</ele>
        <time>2020-07-21T08:08:46.000Z</time>
      </trkpt>
      <trkpt lat="42.9258115" lon="-5.7000038">
        <ele>1294.5</ele>
        <time>2020-07-21T08:08:47.000Z</time>
      </trkpt>
      <trkpt lat="42.9258207" lon="-5.7000002">
        <ele>1294.5</ele>
        <time>2020-07-21T08:08:48.000Z</time>
      </trkpt>
      <trkpt lat="42.9258283" lon="-5.6999988">
        <ele>1294.2</ele>
        <time>2020-07-21T08:08:49.000Z</time>
      </trkpt>
      <trkpt lat="42.925836" lon="-5.7000003">
        <ele>1294.2</ele>
        <time>2020-07-21T08:08:50.000Z</time>
      </trkpt>
      <trkpt lat="42.9258445" lon="-5.7000045">
        <ele>1294.04</ele>
        <time>2020-07-21T08:08:51.000Z</time>
      </trkpt>
      <trkpt lat="42.9258532" lon="-5.7000098">
        <ele>1294.04</ele>
        <time>2020-07-21T08:08:52.000Z</time>
      </trkpt>
      <trkpt lat="42.9258617" lon="-5.7000122">
        <ele>1293.74</ele>
        <time>2020-07-21T08:08:53.000Z</time>
      </trkpt>
      <trkpt lat="42.9258703" lon="-5.7000148">
        <ele>1293.74</ele>
        <time>2020-07-21T08:08:54.000Z</time>
      </trkpt>
      <trkpt lat="42.9258805" lon="-5.700018">
        <ele>1293.59</ele>
        <time>2020-07-21T08:08:55.000Z</time>
      </trkpt>
      <trkpt lat="42.9258918" lon="-5.7000232">
        <ele>1293.59</ele>
        <time>2020-07-21T08:08:56.000Z</time>
      </trkpt>
      <trkpt lat="42.9259037" lon="-5.7000277">
        <ele>1293.43</ele>
        <time>2020-07-21T08:08:57.000Z</time>
      </trkpt>
      <trkpt lat="42.9259137" lon="-5.7000318">
        <ele>1293.43</ele>
        <time>2020-07-21T08:08:58.000Z</time>
      </trkpt>
      <trkpt lat="42.9259228" lon="-5.7000373">
        <ele>1293.13</ele>
        <time>2020-07-21T08:08:59.000Z</time>
      </trkpt>
      <trkpt lat="42.9259313" lon="-5.700043">
        <ele>1293.13</ele>
        <time>2020-07-21T08:09:00.000Z</time>
      </trkpt>
      <trkpt lat="42.9259417" lon="-5.7000472">
        <ele>1292.98</ele>
        <time>2020-07-21T08:09:01.000Z</time>
      </trkpt>
      <trkpt lat="42.925954" lon="-5.7000472">
        <ele>1292.98</ele>
        <time>2020-07-21T08:09:02.000Z</time>
      </trkpt>
      <trkpt lat="42.9259678" lon="-5.7000413">
        <ele>1292.82</ele>
        <time>2020-07-21T08:09:03.000Z</time>
      </trkpt>
      <trkpt lat="42.92598" lon="-5.7000312">
        <ele>1292.82</ele>
        <time>2020-07-21T08:09:04.000Z</time>
      </trkpt>
      <trkpt lat="42.9259908" lon="-5.7000198">
        <ele>1292.67</ele>
        <time>2020-07-21T08:09:05.000Z</time>
      </trkpt>
      <trkpt lat="42.9259998" lon="-5.7000117">
        <ele>1292.67</ele>
        <time>2020-07-21T08:09:06.000Z</time>
      </trkpt>
      <trkpt lat="42.9260088" lon="-5.7000043">
        <ele>1292.52</ele>
        <time>2020-07-21T08:09:07.000Z</time>
      </trkpt>
      <trkpt lat="42.926017" lon="-5.6999978">
        <ele>1292.52</ele>
        <time>2020-07-21T08:09:08.000Z</time>
      </trkpt>
      <trkpt lat="42.926026" lon="-5.6999917">
        <ele>1292.37</ele>
        <time>2020-07-21T08:09:09.000Z</time>
      </trkpt>
      <trkpt lat="42.9260355" lon="-5.6999887">
        <ele>1292.37</ele>
        <time>2020-07-21T08:09:10.000Z</time>
      </trkpt>
      <trkpt lat="42.9260455" lon="-5.6999893">
        <ele>1292.21</ele>
        <time>2020-07-21T08:09:11.000Z</time>
      </trkpt>
      <trkpt lat="42.9260538" lon="-5.6999975">
        <ele>1292.21</ele>
        <time>2020-07-21T08:09:12.000Z</time>
      </trkpt>
      <trkpt lat="42.9260627" lon="-5.7000095">
        <ele>1292.06</ele>
        <time>2020-07-21T08:09:13.000Z</time>
      </trkpt>
      <trkpt lat="42.9260715" lon="-5.7000235">
        <ele>1292.06</ele>
        <time>2020-07-21T08:09:14.000Z</time>
      </trkpt>
      <trkpt lat="42.926081" lon="-5.7000335">
        <ele>1291.91</ele>
        <time>2020-07-21T08:09:15.000Z</time>
      </trkpt>
      <trkpt lat="42.9260895" lon="-5.7000427">
        <ele>1291.91</ele>
        <time>2020-07-21T08:09:16.000Z</time>
      </trkpt>
      <trkpt lat="42.9260975" lon="-5.7000518">
        <ele>1291.76</ele>
        <time>2020-07-21T08:09:17.000Z</time>
      </trkpt>
      <trkpt lat="42.9261048" lon="-5.7000627">
        <ele>1291.76</ele>
        <time>2020-07-21T08:09:18.000Z</time>
      </trkpt>
      <trkpt lat="42.9261118" lon="-5.7000745">
        <ele>1291.61</ele>
        <time>2020-07-21T08:09:19.000Z</time>
      </trkpt>
      <trkpt lat="42.9261175" lon="-5.7000872">
        <ele>1291.61</ele>
        <time>2020-07-21T08:09:20.000Z</time>
      </trkpt>
      <trkpt lat="42.9261212" lon="-5.7001003">
        <ele>1291.45</ele>
        <time>2020-07-21T08:09:21.000Z</time>
      </trkpt>
      <trkpt lat="42.9261225" lon="-5.7001145">
        <ele>1291.45</ele>
        <time>2020-07-21T08:09:22.000Z</time>
      </trkpt>
      <trkpt lat="42.9261223" lon="-5.7001283">
        <ele>1291.3</ele>
        <time>2020-07-21T08:09:23.000Z</time>
      </trkpt>
      <trkpt lat="42.9261213" lon="-5.700142">
        <ele>1291.3</ele>
        <time>2020-07-21T08:09:24.000Z</time>
      </trkpt>
      <trkpt lat="42.9261197" lon="-5.7001558">
        <ele>1291.15</ele>
        <time>2020-07-21T08:09:25.000Z</time>
      </trkpt>
      <trkpt lat="42.9261175" lon="-5.70017">
        <ele>1291.15</ele>
        <time>2020-07-21T08:09:26.000Z</time>
      </trkpt>
      <trkpt lat="42.9261153" lon="-5.700185">
        <ele>1291</ele>
        <time>2020-07-21T08:09:27.000Z</time>
      </trkpt>
      <trkpt lat="42.9261125" lon="-5.7002005">
        <ele>1291</ele>
        <time>2020-07-21T08:09:28.000Z</time>
      </trkpt>
      <trkpt lat="42.926109" lon="-5.7002163">
        <ele>1290.84</ele>
        <time>2020-07-21T08:09:29.000Z</time>
      </trkpt>
      <trkpt lat="42.9261053" lon="-5.7002322">
        <ele>1290.84</ele>
        <time>2020-07-21T08:09:30.000Z</time>
      </trkpt>
      <trkpt lat="42.9261027" lon="-5.7002473">
        <ele>1290.84</ele>
        <time>2020-07-21T08:09:31.000Z</time>
      </trkpt>
      <trkpt lat="42.9260998" lon="-5.7002612">
        <ele>1290.84</ele>
        <time>2020-07-21T08:09:32.000Z</time>
      </trkpt>
      <trkpt lat="42.926096" lon="-5.7002753">
        <ele>1290.69</ele>
        <time>2020-07-21T08:09:33.000Z</time>
      </trkpt>
      <trkpt lat="42.9260917" lon="-5.7002905">
        <ele>1290.69</ele>
        <time>2020-07-21T08:09:34.000Z</time>
      </trkpt>
      <trkpt lat="42.9260883" lon="-5.7003075">
        <ele>1290.54</ele>
        <time>2020-07-21T08:09:35.000Z</time>
      </trkpt>
      <trkpt lat="42.9260867" lon="-5.700325">
        <ele>1290.54</ele>
        <time>2020-07-21T08:09:36.000Z</time>
      </trkpt>
      <trkpt lat="42.9260858" lon="-5.7003425">
        <ele>1290.54</ele>
        <time>2020-07-21T08:09:37.000Z</time>
      </trkpt>
      <trkpt lat="42.926086" lon="-5.7003598">
        <ele>1290.54</ele>
        <time>2020-07-21T08:09:38.000Z</time>
      </trkpt>
      <trkpt lat="42.9260872" lon="-5.7003768">
        <ele>1290.39</ele>
        <time>2020-07-21T08:09:39.000Z</time>
      </trkpt>
      <trkpt lat="42.9260902" lon="-5.7003935">
        <ele>1290.39</ele>
        <time>2020-07-21T08:09:40.000Z</time>
      </trkpt>
      <trkpt lat="42.9260937" lon="-5.700409">
        <ele>1290.39</ele>
        <time>2020-07-21T08:09:41.000Z</time>
      </trkpt>
      <trkpt lat="42.9260975" lon="-5.700424">
        <ele>1290.39</ele>
        <time>2020-07-21T08:09:42.000Z</time>
      </trkpt>
      <trkpt lat="42.9261005" lon="-5.7004387">
        <ele>1290.23</ele>
        <time>2020-07-21T08:09:43.000Z</time>
      </trkpt>
      <trkpt lat="42.9261027" lon="-5.7004538">
        <ele>1290.23</ele>
        <time>2020-07-21T08:09:44.000Z</time>
      </trkpt>
      <trkpt lat="42.9261035" lon="-5.7004705">
        <ele>1290.08</ele>
        <time>2020-07-21T08:09:45.000Z</time>
      </trkpt>
      <trkpt lat="42.9261033" lon="-5.7004883">
        <ele>1290.08</ele>
        <time>2020-07-21T08:09:46.000Z</time>
      </trkpt>
      <trkpt lat="42.9261027" lon="-5.7005053">
        <ele>1290.08</ele>
        <time>2020-07-21T08:09:47.000Z</time>
      </trkpt>
      <trkpt lat="42.9261025" lon="-5.7005183">
        <ele>1290.08</ele>
        <time>2020-07-21T08:09:48.000Z</time>
      </trkpt>
      <trkpt lat="42.9261025" lon="-5.7005302">
        <ele>1289.93</ele>
        <time>2020-07-21T08:09:49.000Z</time>
      </trkpt>
      <trkpt lat="42.926103" lon="-5.7005427">
        <ele>1289.93</ele>
        <time>2020-07-21T08:09:50.000Z</time>
      </trkpt>
      <trkpt lat="42.9261038" lon="-5.7005583">
        <ele>1289.78</ele>
        <time>2020-07-21T08:09:51.000Z</time>
      </trkpt>
      <trkpt lat="42.926105" lon="-5.7005768">
        <ele>1289.78</ele>
        <time>2020-07-21T08:09:52.000Z</time>
      </trkpt>
      <trkpt lat="42.9261062" lon="-5.7005962">
        <ele>1289.78</ele>
        <time>2020-07-21T08:09:53.000Z</time>
      </trkpt>
      <trkpt lat="42.9261075" lon="-5.7006158">
        <ele>1289.78</ele>
        <time>2020-07-21T08:09:54.000Z</time>
      </trkpt>
      <trkpt lat="42.9261088" lon="-5.7006347">
        <ele>1289.62</ele>
        <time>2020-07-21T08:09:55.000Z</time>
      </trkpt>
      <trkpt lat="42.92611" lon="-5.7006538">
        <ele>1289.62</ele>
        <time>2020-07-21T08:09:56.000Z</time>
      </trkpt>
      <trkpt lat="42.9261115" lon="-5.7006737">
        <ele>1289.62</ele>
        <time>2020-07-21T08:09:57.000Z</time>
      </trkpt>
      <trkpt lat="42.9261137" lon="-5.7006925">
        <ele>1289.62</ele>
        <time>2020-07-21T08:09:58.000Z</time>
      </trkpt>
      <trkpt lat="42.926117" lon="-5.70071">
        <ele>1289.47</ele>
        <time>2020-07-21T08:09:59.000Z</time>
      </trkpt>
      <trkpt lat="42.9261215" lon="-5.700726">
        <ele>1289.47</ele>
        <time>2020-07-21T08:10:00.000Z</time>
      </trkpt>
      <trkpt lat="42.9261257" lon="-5.7007417">
        <ele>1289.47</ele>
        <time>2020-07-21T08:10:01.000Z</time>
      </trkpt>
      <trkpt lat="42.9261302" lon="-5.7007588">
        <ele>1289.47</ele>
        <time>2020-07-21T08:10:02.000Z</time>
      </trkpt>
      <trkpt lat="42.9261335" lon="-5.7007775">
        <ele>1289.32</ele>
        <time>2020-07-21T08:10:03.000Z</time>
      </trkpt>
      <trkpt lat="42.9261367" lon="-5.700796">
        <ele>1289.32</ele>
        <time>2020-07-21T08:10:04.000Z</time>
      </trkpt>
      <trkpt lat="42.9261388" lon="-5.7008148">
        <ele>1289.32</ele>
        <time>2020-07-21T08:10:05.000Z</time>
      </trkpt>
      <trkpt lat="42.9261412" lon="-5.7008332">
        <ele>1289.32</ele>
        <time>2020-07-21T08:10:06.000Z</time>
      </trkpt>
      <trkpt lat="42.926144" lon="-5.7008527">
        <ele>1289.17</ele>
        <time>2020-07-21T08:10:07.000Z</time>
      </trkpt>
      <trkpt lat="42.9261478" lon="-5.7008717">
        <ele>1289.17</ele>
        <time>2020-07-21T08:10:08.000Z</time>
      </trkpt>
      <trkpt lat="42.9261518" lon="-5.7008918">
        <ele>1289.17</ele>
        <time>2020-07-21T08:10:09.000Z</time>
      </trkpt>
      <trkpt lat="42.9261558" lon="-5.7009113">
        <ele>1289.17</ele>
        <time>2020-07-21T08:10:10.000Z</time>
      </trkpt>
      <trkpt lat="42.92616" lon="-5.7009292">
        <ele>1289.02</ele>
        <time>2020-07-21T08:10:11.000Z</time>
      </trkpt>
      <trkpt lat="42.9261657" lon="-5.7009448">
        <ele>1289.02</ele>
        <time>2020-07-21T08:10:12.000Z</time>
      </trkpt>
      <trkpt lat="42.9261738" lon="-5.7009597">
        <ele>1289.02</ele>
        <time>2020-07-21T08:10:13.000Z</time>
      </trkpt>
      <trkpt lat="42.926183" lon="-5.7009752">
        <ele>1289.02</ele>
        <time>2020-07-21T08:10:14.000Z</time>
      </trkpt>
      <trkpt lat="42.926192" lon="-5.700991">
        <ele>1288.86</ele>
        <time>2020-07-21T08:10:15.000Z</time>
      </trkpt>
      <trkpt lat="42.9262007" lon="-5.7010078">
        <ele>1288.86</ele>
        <time>2020-07-21T08:10:16.000Z</time>
      </trkpt>
      <trkpt lat="42.9262088" lon="-5.701023">
        <ele>1288.86</ele>
        <time>2020-07-21T08:10:17.000Z</time>
      </trkpt>
      <trkpt lat="42.9262168" lon="-5.7010368">
        <ele>1288.86</ele>
        <time>2020-07-21T08:10:18.000Z</time>
      </trkpt>
      <trkpt lat="42.926224" lon="-5.701051">
        <ele>1288.86</ele>
        <time>2020-07-21T08:10:19.000Z</time>
      </trkpt>
      <trkpt lat="42.9262307" lon="-5.7010675">
        <ele>1288.86</ele>
        <time>2020-07-21T08:10:20.000Z</time>
      </trkpt>
      <trkpt lat="42.9262383" lon="-5.7010853">
        <ele>1288.71</ele>
        <time>2020-07-21T08:10:21.000Z</time>
      </trkpt>
      <trkpt lat="42.926246" lon="-5.701103">
        <ele>1288.71</ele>
        <time>2020-07-21T08:10:22.000Z</time>
      </trkpt>
      <trkpt lat="42.9262538" lon="-5.7011188">
        <ele>1288.71</ele>
        <time>2020-07-21T08:10:23.000Z</time>
      </trkpt>
      <trkpt lat="42.926261" lon="-5.7011342">
        <ele>1288.71</ele>
        <time>2020-07-21T08:10:24.000Z</time>
      </trkpt>
      <trkpt lat="42.9262685" lon="-5.7011488">
        <ele>1288.71</ele>
        <time>2020-07-21T08:10:25.000Z</time>
      </trkpt>
      <trkpt lat="42.9262775" lon="-5.7011643">
        <ele>1288.71</ele>
        <time>2020-07-21T08:10:26.000Z</time>
      </trkpt>
      <trkpt lat="42.9262838" lon="-5.7011808">
        <ele>1288.71</ele>
        <time>2020-07-21T08:10:27.000Z</time>
      </trkpt>
      <trkpt lat="42.926288" lon="-5.7011967">
        <ele>1288.71</ele>
        <time>2020-07-21T08:10:28.000Z</time>
      </trkpt>
      <trkpt lat="42.9262898" lon="-5.7012132">
        <ele>1288.71</ele>
        <time>2020-07-21T08:10:29.000Z</time>
      </trkpt>
      <trkpt lat="42.9262922" lon="-5.7012287">
        <ele>1288.71</ele>
        <time>2020-07-21T08:10:30.000Z</time>
      </trkpt>
      <trkpt lat="42.9262962" lon="-5.7012462">
        <ele>1288.71</ele>
        <time>2020-07-21T08:10:31.000Z</time>
      </trkpt>
      <trkpt lat="42.9263008" lon="-5.701261">
        <ele>1288.71</ele>
        <time>2020-07-21T08:10:32.000Z</time>
      </trkpt>
      <trkpt lat="42.926308" lon="-5.701275">
        <ele>1288.71</ele>
        <time>2020-07-21T08:10:33.000Z</time>
      </trkpt>
      <trkpt lat="42.9263157" lon="-5.7012862">
        <ele>1288.71</ele>
        <time>2020-07-21T08:10:34.000Z</time>
      </trkpt>
      <trkpt lat="42.926325" lon="-5.7012967">
        <ele>1288.71</ele>
        <time>2020-07-21T08:10:35.000Z</time>
      </trkpt>
      <trkpt lat="42.9263345" lon="-5.701306">
        <ele>1288.71</ele>
        <time>2020-07-21T08:10:36.000Z</time>
      </trkpt>
      <trkpt lat="42.9263457" lon="-5.7013127">
        <ele>1288.71</ele>
        <time>2020-07-21T08:10:37.000Z</time>
      </trkpt>
      <trkpt lat="42.9263568" lon="-5.7013177">
        <ele>1288.71</ele>
        <time>2020-07-21T08:10:38.000Z</time>
      </trkpt>
      <trkpt lat="42.9263687" lon="-5.7013217">
        <ele>1288.71</ele>
        <time>2020-07-21T08:10:39.000Z</time>
      </trkpt>
      <trkpt lat="42.9263798" lon="-5.7013267">
        <ele>1288.71</ele>
        <time>2020-07-21T08:10:40.000Z</time>
      </trkpt>
      <trkpt lat="42.9263907" lon="-5.7013342">
        <ele>1288.71</ele>
        <time>2020-07-21T08:10:41.000Z</time>
      </trkpt>
      <trkpt lat="42.926401" lon="-5.7013422">
        <ele>1288.71</ele>
        <time>2020-07-21T08:10:42.000Z</time>
      </trkpt>
      <trkpt lat="42.9264112" lon="-5.7013508">
        <ele>1288.86</ele>
        <time>2020-07-21T08:10:43.000Z</time>
      </trkpt>
      <trkpt lat="42.9264212" lon="-5.7013592">
        <ele>1288.86</ele>
        <time>2020-07-21T08:10:44.000Z</time>
      </trkpt>
      <trkpt lat="42.9264313" lon="-5.7013682">
        <ele>1288.86</ele>
        <time>2020-07-21T08:10:45.000Z</time>
      </trkpt>
      <trkpt lat="42.926441" lon="-5.7013778">
        <ele>1288.86</ele>
        <time>2020-07-21T08:10:46.000Z</time>
      </trkpt>
      <trkpt lat="42.9264507" lon="-5.7013877">
        <ele>1288.86</ele>
        <time>2020-07-21T08:10:47.000Z</time>
      </trkpt>
      <trkpt lat="42.9264612" lon="-5.7013977">
        <ele>1288.86</ele>
        <time>2020-07-21T08:10:48.000Z</time>
      </trkpt>
      <trkpt lat="42.926472" lon="-5.7014073">
        <ele>1289.02</ele>
        <time>2020-07-21T08:10:49.000Z</time>
      </trkpt>
      <trkpt lat="42.9264833" lon="-5.7014168">
        <ele>1289.02</ele>
        <time>2020-07-21T08:10:50.000Z</time>
      </trkpt>
      <trkpt lat="42.9264942" lon="-5.7014262">
        <ele>1289.02</ele>
        <time>2020-07-21T08:10:51.000Z</time>
      </trkpt>
      <trkpt lat="42.9265057" lon="-5.7014348">
        <ele>1289.02</ele>
        <time>2020-07-21T08:10:52.000Z</time>
      </trkpt>
      <trkpt lat="42.9265178" lon="-5.7014428">
        <ele>1289.17</ele>
        <time>2020-07-21T08:10:53.000Z</time>
      </trkpt>
      <trkpt lat="42.9265303" lon="-5.7014498">
        <ele>1289.17</ele>
        <time>2020-07-21T08:10:54.000Z</time>
      </trkpt>
      <trkpt lat="42.9265428" lon="-5.7014572">
        <ele>1289.32</ele>
        <time>2020-07-21T08:10:55.000Z</time>
      </trkpt>
      <trkpt lat="42.9265557" lon="-5.701464">
        <ele>1289.32</ele>
        <time>2020-07-21T08:10:56.000Z</time>
      </trkpt>
      <trkpt lat="42.9265683" lon="-5.7014707">
        <ele>1289.32</ele>
        <time>2020-07-21T08:10:57.000Z</time>
      </trkpt>
      <trkpt lat="42.926581" lon="-5.7014767">
        <ele>1289.32</ele>
        <time>2020-07-21T08:10:58.000Z</time>
      </trkpt>
      <trkpt lat="42.9265925" lon="-5.7014817">
        <ele>1289.47</ele>
        <time>2020-07-21T08:10:59.000Z</time>
      </trkpt>
      <trkpt lat="42.9266042" lon="-5.701486">
        <ele>1289.47</ele>
        <time>2020-07-21T08:11:00.000Z</time>
      </trkpt>
      <trkpt lat="42.926616" lon="-5.7014895">
        <ele>1289.47</ele>
        <time>2020-07-21T08:11:01.000Z</time>
      </trkpt>
      <trkpt lat="42.926628" lon="-5.701494">
        <ele>1289.47</ele>
        <time>2020-07-21T08:11:02.000Z</time>
      </trkpt>
      <trkpt lat="42.9266392" lon="-5.7014995">
        <ele>1289.62</ele>
        <time>2020-07-21T08:11:03.000Z</time>
      </trkpt>
      <trkpt lat="42.926649" lon="-5.701507">
        <ele>1289.62</ele>
        <time>2020-07-21T08:11:04.000Z</time>
      </trkpt>
      <trkpt lat="42.9266567" lon="-5.7015155">
        <ele>1289.78</ele>
        <time>2020-07-21T08:11:05.000Z</time>
      </trkpt>
      <trkpt lat="42.9266627" lon="-5.7015262">
        <ele>1289.78</ele>
        <time>2020-07-21T08:11:06.000Z</time>
      </trkpt>
      <trkpt lat="42.9266682" lon="-5.7015378">
        <ele>1289.78</ele>
        <time>2020-07-21T08:11:07.000Z</time>
      </trkpt>
      <trkpt lat="42.926675" lon="-5.7015502">
        <ele>1289.78</ele>
        <time>2020-07-21T08:11:08.000Z</time>
      </trkpt>
      <trkpt lat="42.9266842" lon="-5.7015572">
        <ele>1289.93</ele>
        <time>2020-07-21T08:11:09.000Z</time>
      </trkpt>
      <trkpt lat="42.9266957" lon="-5.7015597">
        <ele>1289.93</ele>
        <time>2020-07-21T08:11:10.000Z</time>
      </trkpt>
      <trkpt lat="42.9267083" lon="-5.7015582">
        <ele>1290.08</ele>
        <time>2020-07-21T08:11:11.000Z</time>
      </trkpt>
      <trkpt lat="42.9267197" lon="-5.7015575">
        <ele>1290.08</ele>
        <time>2020-07-21T08:11:12.000Z</time>
      </trkpt>
      <trkpt lat="42.9267293" lon="-5.7015563">
        <ele>1290.23</ele>
        <time>2020-07-21T08:11:13.000Z</time>
      </trkpt>
      <trkpt lat="42.9267368" lon="-5.7015547">
        <ele>1290.23</ele>
        <time>2020-07-21T08:11:14.000Z</time>
      </trkpt>
      <trkpt lat="42.9267425" lon="-5.701553">
        <ele>1290.39</ele>
        <time>2020-07-21T08:11:15.000Z</time>
      </trkpt>
      <trkpt lat="42.9267465" lon="-5.7015527">
        <ele>1290.39</ele>
        <time>2020-07-21T08:11:16.000Z</time>
      </trkpt>
      <trkpt lat="42.9267468" lon="-5.7015537">
        <ele>1290.39</ele>
        <time>2020-07-21T08:11:17.000Z</time>
      </trkpt>
      <trkpt lat="42.9267453" lon="-5.7015545">
        <ele>1290.39</ele>
        <time>2020-07-21T08:11:18.000Z</time>
      </trkpt>
      <trkpt lat="42.9267437" lon="-5.7015557">
        <ele>1290.54</ele>
        <time>2020-07-21T08:11:19.000Z</time>
      </trkpt>
      <trkpt lat="42.9267463" lon="-5.701557">
        <ele>1290.54</ele>
        <time>2020-07-21T08:11:20.000Z</time>
      </trkpt>
      <trkpt lat="42.9267543" lon="-5.701561">
        <ele>1290.69</ele>
        <time>2020-07-21T08:11:21.000Z</time>
      </trkpt>
      <trkpt lat="42.9267633" lon="-5.7015657">
        <ele>1290.69</ele>
        <time>2020-07-21T08:11:22.000Z</time>
      </trkpt>
      <trkpt lat="42.9267703" lon="-5.7015678">
        <ele>1290.69</ele>
        <time>2020-07-21T08:11:23.000Z</time>
      </trkpt>
      <trkpt lat="42.9267727" lon="-5.7015682">
        <ele>1290.69</ele>
        <time>2020-07-21T08:11:24.000Z</time>
      </trkpt>
      <trkpt lat="42.9267733" lon="-5.7015667">
        <ele>1290.84</ele>
        <time>2020-07-21T08:11:25.000Z</time>
      </trkpt>
      <trkpt lat="42.9267735" lon="-5.701567">
        <ele>1290.84</ele>
        <time>2020-07-21T08:11:26.000Z</time>
      </trkpt>
      <trkpt lat="42.9267733" lon="-5.7015672">
        <ele>1291</ele>
        <time>2020-07-21T08:11:27.000Z</time>
      </trkpt>
      <trkpt lat="42.9267727" lon="-5.7015682">
        <ele>1291</ele>
        <time>2020-07-21T08:11:28.000Z</time>
      </trkpt>
      <trkpt lat="42.926772" lon="-5.7015693">
        <ele>1291.15</ele>
        <time>2020-07-21T08:11:29.000Z</time>
      </trkpt>
      <trkpt lat="42.9267712" lon="-5.7015707">
        <ele>1291.15</ele>
        <time>2020-07-21T08:11:30.000Z</time>
      </trkpt>
      <trkpt lat="42.9267707" lon="-5.7015715">
        <ele>1291.15</ele>
        <time>2020-07-21T08:11:31.000Z</time>
      </trkpt>
      <trkpt lat="42.9267703" lon="-5.7015732">
        <ele>1291.15</ele>
        <time>2020-07-21T08:11:32.000Z</time>
      </trkpt>
      <trkpt lat="42.926773" lon="-5.7015772">
        <ele>1291.3</ele>
        <time>2020-07-21T08:11:33.000Z</time>
      </trkpt>
      <trkpt lat="42.9267788" lon="-5.7015842">
        <ele>1291.3</ele>
        <time>2020-07-21T08:11:34.000Z</time>
      </trkpt>
      <trkpt lat="42.926788" lon="-5.7015937">
        <ele>1291.45</ele>
        <time>2020-07-21T08:11:35.000Z</time>
      </trkpt>
      <trkpt lat="42.9267977" lon="-5.7016032">
        <ele>1291.45</ele>
        <time>2020-07-21T08:11:36.000Z</time>
      </trkpt>
      <trkpt lat="42.926806" lon="-5.701613">
        <ele>1291.61</ele>
        <time>2020-07-21T08:11:37.000Z</time>
      </trkpt>
      <trkpt lat="42.9268153" lon="-5.7016223">
        <ele>1291.61</ele>
        <time>2020-07-21T08:11:38.000Z</time>
      </trkpt>
      <trkpt lat="42.9268247" lon="-5.7016305">
        <ele>1291.76</ele>
        <time>2020-07-21T08:11:39.000Z</time>
      </trkpt>
      <trkpt lat="42.9268358" lon="-5.701637">
        <ele>1291.76</ele>
        <time>2020-07-21T08:11:40.000Z</time>
      </trkpt>
      <trkpt lat="42.9268467" lon="-5.701642">
        <ele>1291.91</ele>
        <time>2020-07-21T08:11:41.000Z</time>
      </trkpt>
      <trkpt lat="42.926858" lon="-5.7016477">
        <ele>1291.91</ele>
        <time>2020-07-21T08:11:42.000Z</time>
      </trkpt>
      <trkpt lat="42.9268697" lon="-5.7016545">
        <ele>1292.06</ele>
        <time>2020-07-21T08:11:43.000Z</time>
      </trkpt>
      <trkpt lat="42.9268812" lon="-5.7016618">
        <ele>1292.06</ele>
        <time>2020-07-21T08:11:44.000Z</time>
      </trkpt>
      <trkpt lat="42.9268927" lon="-5.7016695">
        <ele>1292.21</ele>
        <time>2020-07-21T08:11:45.000Z</time>
      </trkpt>
      <trkpt lat="42.9269037" lon="-5.7016768">
        <ele>1292.21</ele>
        <time>2020-07-21T08:11:46.000Z</time>
      </trkpt>
      <trkpt lat="42.9269145" lon="-5.7016847">
        <ele>1292.37</ele>
        <time>2020-07-21T08:11:47.000Z</time>
      </trkpt>
      <trkpt lat="42.9269253" lon="-5.7016928">
        <ele>1292.37</ele>
        <time>2020-07-21T08:11:48.000Z</time>
      </trkpt>
      <trkpt lat="42.9269363" lon="-5.7017012">
        <ele>1292.52</ele>
        <time>2020-07-21T08:11:49.000Z</time>
      </trkpt>
      <trkpt lat="42.9269472" lon="-5.7017092">
        <ele>1292.52</ele>
        <time>2020-07-21T08:11:50.000Z</time>
      </trkpt>
      <trkpt lat="42.9269583" lon="-5.7017173">
        <ele>1292.52</ele>
        <time>2020-07-21T08:11:51.000Z</time>
      </trkpt>
      <trkpt lat="42.9269702" lon="-5.7017255">
        <ele>1292.52</ele>
        <time>2020-07-21T08:11:52.000Z</time>
      </trkpt>
      <trkpt lat="42.926982" lon="-5.7017343">
        <ele>1292.67</ele>
        <time>2020-07-21T08:11:53.000Z</time>
      </trkpt>
      <trkpt lat="42.9269943" lon="-5.7017433">
        <ele>1292.67</ele>
        <time>2020-07-21T08:11:54.000Z</time>
      </trkpt>
      <trkpt lat="42.9270057" lon="-5.701752">
        <ele>1292.82</ele>
        <time>2020-07-21T08:11:55.000Z</time>
      </trkpt>
      <trkpt lat="42.927017" lon="-5.7017603">
        <ele>1292.82</ele>
        <time>2020-07-21T08:11:56.000Z</time>
      </trkpt>
      <trkpt lat="42.9270278" lon="-5.701769">
        <ele>1292.98</ele>
        <time>2020-07-21T08:11:57.000Z</time>
      </trkpt>
      <trkpt lat="42.9270382" lon="-5.7017777">
        <ele>1292.98</ele>
        <time>2020-07-21T08:11:58.000Z</time>
      </trkpt>
      <trkpt lat="42.9270483" lon="-5.7017862">
        <ele>1292.98</ele>
        <time>2020-07-21T08:11:59.000Z</time>
      </trkpt>
      <trkpt lat="42.9270578" lon="-5.7017942">
        <ele>1292.98</ele>
        <time>2020-07-21T08:12:00.000Z</time>
      </trkpt>
      <trkpt lat="42.927068" lon="-5.701802">
        <ele>1293.13</ele>
        <time>2020-07-21T08:12:01.000Z</time>
      </trkpt>
      <trkpt lat="42.9270777" lon="-5.7018103">
        <ele>1293.13</ele>
        <time>2020-07-21T08:12:02.000Z</time>
      </trkpt>
      <trkpt lat="42.9270875" lon="-5.7018185">
        <ele>1293.13</ele>
        <time>2020-07-21T08:12:03.000Z</time>
      </trkpt>
      <trkpt lat="42.9270973" lon="-5.7018267">
        <ele>1293.13</ele>
        <time>2020-07-21T08:12:04.000Z</time>
      </trkpt>
      <trkpt lat="42.9271075" lon="-5.7018342">
        <ele>1293.28</ele>
        <time>2020-07-21T08:12:05.000Z</time>
      </trkpt>
      <trkpt lat="42.9271177" lon="-5.7018417">
        <ele>1293.28</ele>
        <time>2020-07-21T08:12:06.000Z</time>
      </trkpt>
      <trkpt lat="42.9271283" lon="-5.701849">
        <ele>1293.28</ele>
        <time>2020-07-21T08:12:07.000Z</time>
      </trkpt>
      <trkpt lat="42.9271392" lon="-5.7018567">
        <ele>1293.28</ele>
        <time>2020-07-21T08:12:08.000Z</time>
      </trkpt>
      <trkpt lat="42.9271503" lon="-5.7018638">
        <ele>1293.28</ele>
        <time>2020-07-21T08:12:09.000Z</time>
      </trkpt>
      <trkpt lat="42.92716" lon="-5.7018712">
        <ele>1293.28</ele>
        <time>2020-07-21T08:12:10.000Z</time>
      </trkpt>
      <trkpt lat="42.9271695" lon="-5.7018782">
        <ele>1293.28</ele>
        <time>2020-07-21T08:12:11.000Z</time>
      </trkpt>
      <trkpt lat="42.9271792" lon="-5.7018853">
        <ele>1293.28</ele>
        <time>2020-07-21T08:12:12.000Z</time>
      </trkpt>
      <trkpt lat="42.9271902" lon="-5.7018923">
        <ele>1293.43</ele>
        <time>2020-07-21T08:12:13.000Z</time>
      </trkpt>
      <trkpt lat="42.9272013" lon="-5.7018993">
        <ele>1293.43</ele>
        <time>2020-07-21T08:12:14.000Z</time>
      </trkpt>
      <trkpt lat="42.9272142" lon="-5.7019067">
        <ele>1293.43</ele>
        <time>2020-07-21T08:12:15.000Z</time>
      </trkpt>
      <trkpt lat="42.9272267" lon="-5.7019143">
        <ele>1293.43</ele>
        <time>2020-07-21T08:12:16.000Z</time>
      </trkpt>
      <trkpt lat="42.9272395" lon="-5.7019217">
        <ele>1293.43</ele>
        <time>2020-07-21T08:12:17.000Z</time>
      </trkpt>
      <trkpt lat="42.9272512" lon="-5.7019287">
        <ele>1293.43</ele>
        <time>2020-07-21T08:12:18.000Z</time>
      </trkpt>
      <trkpt lat="42.9272628" lon="-5.7019355">
        <ele>1293.43</ele>
        <time>2020-07-21T08:12:19.000Z</time>
      </trkpt>
      <trkpt lat="42.9272743" lon="-5.7019432">
        <ele>1293.43</ele>
        <time>2020-07-21T08:12:20.000Z</time>
      </trkpt>
      <trkpt lat="42.9272853" lon="-5.7019505">
        <ele>1293.43</ele>
        <time>2020-07-21T08:12:21.000Z</time>
      </trkpt>
      <trkpt lat="42.9272963" lon="-5.701958">
        <ele>1293.43</ele>
        <time>2020-07-21T08:12:22.000Z</time>
      </trkpt>
      <trkpt lat="42.927308" lon="-5.701965">
        <ele>1293.59</ele>
        <time>2020-07-21T08:12:23.000Z</time>
      </trkpt>
      <trkpt lat="42.9273195" lon="-5.7019723">
        <ele>1293.59</ele>
        <time>2020-07-21T08:12:24.000Z</time>
      </trkpt>
      <trkpt lat="42.9273317" lon="-5.7019795">
        <ele>1293.59</ele>
        <time>2020-07-21T08:12:25.000Z</time>
      </trkpt>
      <trkpt lat="42.927344" lon="-5.7019867">
        <ele>1293.59</ele>
        <time>2020-07-21T08:12:26.000Z</time>
      </trkpt>
      <trkpt lat="42.9273567" lon="-5.7019935">
        <ele>1293.59</ele>
        <time>2020-07-21T08:12:27.000Z</time>
      </trkpt>
      <trkpt lat="42.9273687" lon="-5.702001">
        <ele>1293.59</ele>
        <time>2020-07-21T08:12:28.000Z</time>
      </trkpt>
      <trkpt lat="42.9273802" lon="-5.7020085">
        <ele>1293.74</ele>
        <time>2020-07-21T08:12:29.000Z</time>
      </trkpt>
      <trkpt lat="42.9273917" lon="-5.7020163">
        <ele>1293.74</ele>
        <time>2020-07-21T08:12:30.000Z</time>
      </trkpt>
      <trkpt lat="42.9274037" lon="-5.702023">
        <ele>1293.74</ele>
        <time>2020-07-21T08:12:31.000Z</time>
      </trkpt>
      <trkpt lat="42.927417" lon="-5.702029">
        <ele>1293.74</ele>
        <time>2020-07-21T08:12:32.000Z</time>
      </trkpt>
      <trkpt lat="42.9274303" lon="-5.7020345">
        <ele>1293.74</ele>
        <time>2020-07-21T08:12:33.000Z</time>
      </trkpt>
      <trkpt lat="42.9274422" lon="-5.7020405">
        <ele>1293.74</ele>
        <time>2020-07-21T08:12:34.000Z</time>
      </trkpt>
      <trkpt lat="42.9274535" lon="-5.7020473">
        <ele>1293.74</ele>
        <time>2020-07-21T08:12:35.000Z</time>
      </trkpt>
      <trkpt lat="42.927465" lon="-5.7020538">
        <ele>1293.74</ele>
        <time>2020-07-21T08:12:36.000Z</time>
      </trkpt>
      <trkpt lat="42.9274795" lon="-5.7020612">
        <ele>1293.89</ele>
        <time>2020-07-21T08:12:37.000Z</time>
      </trkpt>
      <trkpt lat="42.9274945" lon="-5.7020688">
        <ele>1293.89</ele>
        <time>2020-07-21T08:12:38.000Z</time>
      </trkpt>
      <trkpt lat="42.9275088" lon="-5.7020773">
        <ele>1293.89</ele>
        <time>2020-07-21T08:12:39.000Z</time>
      </trkpt>
      <trkpt lat="42.9275208" lon="-5.7020852">
        <ele>1293.89</ele>
        <time>2020-07-21T08:12:40.000Z</time>
      </trkpt>
      <trkpt lat="42.9275313" lon="-5.7020918">
        <ele>1293.89</ele>
        <time>2020-07-21T08:12:41.000Z</time>
      </trkpt>
      <trkpt lat="42.927542" lon="-5.7020977">
        <ele>1293.89</ele>
        <time>2020-07-21T08:12:42.000Z</time>
      </trkpt>
      <trkpt lat="42.9275528" lon="-5.7021023">
        <ele>1293.89</ele>
        <time>2020-07-21T08:12:43.000Z</time>
      </trkpt>
      <trkpt lat="42.9275633" lon="-5.7021082">
        <ele>1293.89</ele>
        <time>2020-07-21T08:12:44.000Z</time>
      </trkpt>
      <trkpt lat="42.9275738" lon="-5.7021143">
        <ele>1293.89</ele>
        <time>2020-07-21T08:12:45.000Z</time>
      </trkpt>
      <trkpt lat="42.9275843" lon="-5.7021213">
        <ele>1293.89</ele>
        <time>2020-07-21T08:12:46.000Z</time>
      </trkpt>
      <trkpt lat="42.9275952" lon="-5.7021287">
        <ele>1294.04</ele>
        <time>2020-07-21T08:12:47.000Z</time>
      </trkpt>
      <trkpt lat="42.9276055" lon="-5.702136">
        <ele>1294.04</ele>
        <time>2020-07-21T08:12:48.000Z</time>
      </trkpt>
      <trkpt lat="42.9276158" lon="-5.7021422">
        <ele>1294.04</ele>
        <time>2020-07-21T08:12:49.000Z</time>
      </trkpt>
      <trkpt lat="42.9276263" lon="-5.7021482">
        <ele>1294.04</ele>
        <time>2020-07-21T08:12:50.000Z</time>
      </trkpt>
      <trkpt lat="42.9276375" lon="-5.7021538">
        <ele>1294.04</ele>
        <time>2020-07-21T08:12:51.000Z</time>
      </trkpt>
      <trkpt lat="42.9276483" lon="-5.70216">
        <ele>1294.04</ele>
        <time>2020-07-21T08:12:52.000Z</time>
      </trkpt>
      <trkpt lat="42.9276585" lon="-5.702166">
        <ele>1294.04</ele>
        <time>2020-07-21T08:12:53.000Z</time>
      </trkpt>
      <trkpt lat="42.9276685" lon="-5.7021713">
        <ele>1294.04</ele>
        <time>2020-07-21T08:12:54.000Z</time>
      </trkpt>
      <trkpt lat="42.9276793" lon="-5.702177">
        <ele>1294.2</ele>
        <time>2020-07-21T08:12:55.000Z</time>
      </trkpt>
      <trkpt lat="42.9276907" lon="-5.7021822">
        <ele>1294.2</ele>
        <time>2020-07-21T08:12:56.000Z</time>
      </trkpt>
      <trkpt lat="42.9277013" lon="-5.7021878">
        <ele>1294.2</ele>
        <time>2020-07-21T08:12:57.000Z</time>
      </trkpt>
      <trkpt lat="42.9277113" lon="-5.7021937">
        <ele>1294.2</ele>
        <time>2020-07-21T08:12:58.000Z</time>
      </trkpt>
      <trkpt lat="42.927722" lon="-5.7021995">
        <ele>1294.35</ele>
        <time>2020-07-21T08:12:59.000Z</time>
      </trkpt>
      <trkpt lat="42.9277328" lon="-5.7022053">
        <ele>1294.35</ele>
        <time>2020-07-21T08:13:00.000Z</time>
      </trkpt>
      <trkpt lat="42.9277452" lon="-5.702211">
        <ele>1294.35</ele>
        <time>2020-07-21T08:13:01.000Z</time>
      </trkpt>
      <trkpt lat="42.9277568" lon="-5.702216">
        <ele>1294.35</ele>
        <time>2020-07-21T08:13:02.000Z</time>
      </trkpt>
      <trkpt lat="42.9277683" lon="-5.7022217">
        <ele>1294.35</ele>
        <time>2020-07-21T08:13:03.000Z</time>
      </trkpt>
      <trkpt lat="42.9277782" lon="-5.7022272">
        <ele>1294.35</ele>
        <time>2020-07-21T08:13:04.000Z</time>
      </trkpt>
      <trkpt lat="42.9277877" lon="-5.7022342">
        <ele>1294.5</ele>
        <time>2020-07-21T08:13:05.000Z</time>
      </trkpt>
      <trkpt lat="42.9277973" lon="-5.7022417">
        <ele>1294.5</ele>
        <time>2020-07-21T08:13:06.000Z</time>
      </trkpt>
      <trkpt lat="42.9278082" lon="-5.702249">
        <ele>1294.5</ele>
        <time>2020-07-21T08:13:07.000Z</time>
      </trkpt>
      <trkpt lat="42.92782" lon="-5.7022557">
        <ele>1294.5</ele>
        <time>2020-07-21T08:13:08.000Z</time>
      </trkpt>
      <trkpt lat="42.9278317" lon="-5.7022603">
        <ele>1294.5</ele>
        <time>2020-07-21T08:13:09.000Z</time>
      </trkpt>
      <trkpt lat="42.9278422" lon="-5.7022652">
        <ele>1294.5</ele>
        <time>2020-07-21T08:13:10.000Z</time>
      </trkpt>
      <trkpt lat="42.927852" lon="-5.7022703">
        <ele>1294.65</ele>
        <time>2020-07-21T08:13:11.000Z</time>
      </trkpt>
      <trkpt lat="42.9278632" lon="-5.7022755">
        <ele>1294.65</ele>
        <time>2020-07-21T08:13:12.000Z</time>
      </trkpt>
      <trkpt lat="42.9278755" lon="-5.7022805">
        <ele>1294.65</ele>
        <time>2020-07-21T08:13:13.000Z</time>
      </trkpt>
      <trkpt lat="42.9278877" lon="-5.7022857">
        <ele>1294.65</ele>
        <time>2020-07-21T08:13:14.000Z</time>
      </trkpt>
      <trkpt lat="42.9278983" lon="-5.7022923">
        <ele>1294.65</ele>
        <time>2020-07-21T08:13:15.000Z</time>
      </trkpt>
      <trkpt lat="42.9279095" lon="-5.7022993">
        <ele>1294.65</ele>
        <time>2020-07-21T08:13:16.000Z</time>
      </trkpt>
      <trkpt lat="42.9279213" lon="-5.7023065">
        <ele>1294.65</ele>
        <time>2020-07-21T08:13:17.000Z</time>
      </trkpt>
      <trkpt lat="42.927934" lon="-5.7023128">
        <ele>1294.65</ele>
        <time>2020-07-21T08:13:18.000Z</time>
      </trkpt>
      <trkpt lat="42.9279448" lon="-5.7023208">
        <ele>1294.65</ele>
        <time>2020-07-21T08:13:19.000Z</time>
      </trkpt>
      <trkpt lat="42.9279558" lon="-5.7023285">
        <ele>1294.65</ele>
        <time>2020-07-21T08:13:20.000Z</time>
      </trkpt>
      <trkpt lat="42.9279665" lon="-5.7023368">
        <ele>1294.65</ele>
        <time>2020-07-21T08:13:21.000Z</time>
      </trkpt>
      <trkpt lat="42.9279783" lon="-5.7023457">
        <ele>1294.65</ele>
        <time>2020-07-21T08:13:22.000Z</time>
      </trkpt>
      <trkpt lat="42.9279893" lon="-5.7023548">
        <ele>1294.65</ele>
        <time>2020-07-21T08:13:23.000Z</time>
      </trkpt>
      <trkpt lat="42.9279997" lon="-5.702364">
        <ele>1294.65</ele>
        <time>2020-07-21T08:13:24.000Z</time>
      </trkpt>
      <trkpt lat="42.928011" lon="-5.7023705">
        <ele>1294.65</ele>
        <time>2020-07-21T08:13:25.000Z</time>
      </trkpt>
      <trkpt lat="42.9280225" lon="-5.7023777">
        <ele>1294.65</ele>
        <time>2020-07-21T08:13:26.000Z</time>
      </trkpt>
      <trkpt lat="42.928035" lon="-5.7023852">
        <ele>1294.65</ele>
        <time>2020-07-21T08:13:27.000Z</time>
      </trkpt>
      <trkpt lat="42.928046" lon="-5.7023937">
        <ele>1294.65</ele>
        <time>2020-07-21T08:13:28.000Z</time>
      </trkpt>
      <trkpt lat="42.9280573" lon="-5.7024013">
        <ele>1294.65</ele>
        <time>2020-07-21T08:13:29.000Z</time>
      </trkpt>
      <trkpt lat="42.9280687" lon="-5.7024087">
        <ele>1294.65</ele>
        <time>2020-07-21T08:13:30.000Z</time>
      </trkpt>
      <trkpt lat="42.9280808" lon="-5.7024162">
        <ele>1294.65</ele>
        <time>2020-07-21T08:13:31.000Z</time>
      </trkpt>
      <trkpt lat="42.9280932" lon="-5.7024238">
        <ele>1294.65</ele>
        <time>2020-07-21T08:13:32.000Z</time>
      </trkpt>
      <trkpt lat="42.9281053" lon="-5.7024317">
        <ele>1294.65</ele>
        <time>2020-07-21T08:13:33.000Z</time>
      </trkpt>
      <trkpt lat="42.9281173" lon="-5.702439">
        <ele>1294.65</ele>
        <time>2020-07-21T08:13:34.000Z</time>
      </trkpt>
      <trkpt lat="42.928129" lon="-5.7024465">
        <ele>1294.65</ele>
        <time>2020-07-21T08:13:35.000Z</time>
      </trkpt>
      <trkpt lat="42.928141" lon="-5.7024538">
        <ele>1294.65</ele>
        <time>2020-07-21T08:13:36.000Z</time>
      </trkpt>
      <trkpt lat="42.9281532" lon="-5.7024622">
        <ele>1294.5</ele>
        <time>2020-07-21T08:13:37.000Z</time>
      </trkpt>
      <trkpt lat="42.9281647" lon="-5.7024705">
        <ele>1294.5</ele>
        <time>2020-07-21T08:13:38.000Z</time>
      </trkpt>
      <trkpt lat="42.9281755" lon="-5.7024783">
        <ele>1294.5</ele>
        <time>2020-07-21T08:13:39.000Z</time>
      </trkpt>
      <trkpt lat="42.928186" lon="-5.7024853">
        <ele>1294.5</ele>
        <time>2020-07-21T08:13:40.000Z</time>
      </trkpt>
      <trkpt lat="42.928198" lon="-5.7024907">
        <ele>1294.5</ele>
        <time>2020-07-21T08:13:41.000Z</time>
      </trkpt>
      <trkpt lat="42.9282097" lon="-5.7024967">
        <ele>1294.5</ele>
        <time>2020-07-21T08:13:42.000Z</time>
      </trkpt>
      <trkpt lat="42.9282205" lon="-5.7025038">
        <ele>1294.35</ele>
        <time>2020-07-21T08:13:43.000Z</time>
      </trkpt>
      <trkpt lat="42.9282307" lon="-5.7025117">
        <ele>1294.35</ele>
        <time>2020-07-21T08:13:44.000Z</time>
      </trkpt>
      <trkpt lat="42.9282418" lon="-5.7025173">
        <ele>1294.35</ele>
        <time>2020-07-21T08:13:45.000Z</time>
      </trkpt>
      <trkpt lat="42.928254" lon="-5.7025215">
        <ele>1294.35</ele>
        <time>2020-07-21T08:13:46.000Z</time>
      </trkpt>
      <trkpt lat="42.9282658" lon="-5.702526">
        <ele>1294.35</ele>
        <time>2020-07-21T08:13:47.000Z</time>
      </trkpt>
      <trkpt lat="42.9282768" lon="-5.7025318">
        <ele>1294.35</ele>
        <time>2020-07-21T08:13:48.000Z</time>
      </trkpt>
      <trkpt lat="42.9282878" lon="-5.7025382">
        <ele>1294.2</ele>
        <time>2020-07-21T08:13:49.000Z</time>
      </trkpt>
      <trkpt lat="42.9282982" lon="-5.7025443">
        <ele>1294.2</ele>
        <time>2020-07-21T08:13:50.000Z</time>
      </trkpt>
      <trkpt lat="42.9283088" lon="-5.7025503">
        <ele>1294.2</ele>
        <time>2020-07-21T08:13:51.000Z</time>
      </trkpt>
      <trkpt lat="42.928319" lon="-5.7025565">
        <ele>1294.2</ele>
        <time>2020-07-21T08:13:52.000Z</time>
      </trkpt>
      <trkpt lat="42.9283295" lon="-5.7025625">
        <ele>1294.2</ele>
        <time>2020-07-21T08:13:53.000Z</time>
      </trkpt>
      <trkpt lat="42.9283403" lon="-5.7025685">
        <ele>1294.2</ele>
        <time>2020-07-21T08:13:54.000Z</time>
      </trkpt>
      <trkpt lat="42.9283512" lon="-5.7025743">
        <ele>1294.04</ele>
        <time>2020-07-21T08:13:55.000Z</time>
      </trkpt>
      <trkpt lat="42.9283625" lon="-5.7025798">
        <ele>1294.04</ele>
        <time>2020-07-21T08:13:56.000Z</time>
      </trkpt>
      <trkpt lat="42.9283735" lon="-5.7025853">
        <ele>1294.04</ele>
        <time>2020-07-21T08:13:57.000Z</time>
      </trkpt>
      <trkpt lat="42.9283843" lon="-5.7025912">
        <ele>1294.04</ele>
        <time>2020-07-21T08:13:58.000Z</time>
      </trkpt>
      <trkpt lat="42.9283945" lon="-5.7025975">
        <ele>1294.04</ele>
        <time>2020-07-21T08:13:59.000Z</time>
      </trkpt>
      <trkpt lat="42.928405" lon="-5.702603">
        <ele>1294.04</ele>
        <time>2020-07-21T08:14:00.000Z</time>
      </trkpt>
      <trkpt lat="42.9284162" lon="-5.7026083">
        <ele>1293.89</ele>
        <time>2020-07-21T08:14:01.000Z</time>
      </trkpt>
      <trkpt lat="42.9284277" lon="-5.702613">
        <ele>1293.89</ele>
        <time>2020-07-21T08:14:02.000Z</time>
      </trkpt>
      <trkpt lat="42.928439" lon="-5.7026185">
        <ele>1293.89</ele>
        <time>2020-07-21T08:14:03.000Z</time>
      </trkpt>
      <trkpt lat="42.9284503" lon="-5.7026237">
        <ele>1293.89</ele>
        <time>2020-07-21T08:14:04.000Z</time>
      </trkpt>
      <trkpt lat="42.9284618" lon="-5.7026285">
        <ele>1293.89</ele>
        <time>2020-07-21T08:14:05.000Z</time>
      </trkpt>
      <trkpt lat="42.9284732" lon="-5.7026327">
        <ele>1293.89</ele>
        <time>2020-07-21T08:14:06.000Z</time>
      </trkpt>
      <trkpt lat="42.9284845" lon="-5.7026373">
        <ele>1293.89</ele>
        <time>2020-07-21T08:14:07.000Z</time>
      </trkpt>
      <trkpt lat="42.9284955" lon="-5.702643">
        <ele>1293.89</ele>
        <time>2020-07-21T08:14:08.000Z</time>
      </trkpt>
      <trkpt lat="42.9285062" lon="-5.7026495">
        <ele>1293.89</ele>
        <time>2020-07-21T08:14:09.000Z</time>
      </trkpt>
      <trkpt lat="42.9285187" lon="-5.7026545">
        <ele>1293.89</ele>
        <time>2020-07-21T08:14:10.000Z</time>
      </trkpt>
      <trkpt lat="42.928533" lon="-5.7026593">
        <ele>1293.89</ele>
        <time>2020-07-21T08:14:11.000Z</time>
      </trkpt>
      <trkpt lat="42.9285495" lon="-5.7026638">
        <ele>1293.89</ele>
        <time>2020-07-21T08:14:12.000Z</time>
      </trkpt>
      <trkpt lat="42.928564" lon="-5.70267">
        <ele>1293.89</ele>
        <time>2020-07-21T08:14:13.000Z</time>
      </trkpt>
      <trkpt lat="42.9285765" lon="-5.7026765">
        <ele>1293.89</ele>
        <time>2020-07-21T08:14:14.000Z</time>
      </trkpt>
      <trkpt lat="42.928588" lon="-5.702682">
        <ele>1293.89</ele>
        <time>2020-07-21T08:14:15.000Z</time>
      </trkpt>
      <trkpt lat="42.9286003" lon="-5.7026873">
        <ele>1293.89</ele>
        <time>2020-07-21T08:14:16.000Z</time>
      </trkpt>
      <trkpt lat="42.9286138" lon="-5.7026922">
        <ele>1293.74</ele>
        <time>2020-07-21T08:14:17.000Z</time>
      </trkpt>
      <trkpt lat="42.9286277" lon="-5.7026975">
        <ele>1293.74</ele>
        <time>2020-07-21T08:14:18.000Z</time>
      </trkpt>
      <trkpt lat="42.9286408" lon="-5.7027032">
        <ele>1293.74</ele>
        <time>2020-07-21T08:14:19.000Z</time>
      </trkpt>
      <trkpt lat="42.9286537" lon="-5.702709">
        <ele>1293.74</ele>
        <time>2020-07-21T08:14:20.000Z</time>
      </trkpt>
      <trkpt lat="42.9286662" lon="-5.7027152">
        <ele>1293.59</ele>
        <time>2020-07-21T08:14:21.000Z</time>
      </trkpt>
      <trkpt lat="42.9286792" lon="-5.7027203">
        <ele>1293.59</ele>
        <time>2020-07-21T08:14:22.000Z</time>
      </trkpt>
      <trkpt lat="42.9286922" lon="-5.7027252">
        <ele>1293.59</ele>
        <time>2020-07-21T08:14:23.000Z</time>
      </trkpt>
      <trkpt lat="42.9287053" lon="-5.7027297">
        <ele>1293.59</ele>
        <time>2020-07-21T08:14:24.000Z</time>
      </trkpt>
      <trkpt lat="42.9287182" lon="-5.7027343">
        <ele>1293.43</ele>
        <time>2020-07-21T08:14:25.000Z</time>
      </trkpt>
      <trkpt lat="42.928731" lon="-5.7027388">
        <ele>1293.43</ele>
        <time>2020-07-21T08:14:26.000Z</time>
      </trkpt>
      <trkpt lat="42.9287437" lon="-5.7027432">
        <ele>1293.43</ele>
        <time>2020-07-21T08:14:27.000Z</time>
      </trkpt>
      <trkpt lat="42.9287563" lon="-5.702748">
        <ele>1293.43</ele>
        <time>2020-07-21T08:14:28.000Z</time>
      </trkpt>
      <trkpt lat="42.928769" lon="-5.7027532">
        <ele>1293.43</ele>
        <time>2020-07-21T08:14:29.000Z</time>
      </trkpt>
      <trkpt lat="42.9287813" lon="-5.7027587">
        <ele>1293.43</ele>
        <time>2020-07-21T08:14:30.000Z</time>
      </trkpt>
      <trkpt lat="42.9287935" lon="-5.702764">
        <ele>1293.28</ele>
        <time>2020-07-21T08:14:31.000Z</time>
      </trkpt>
      <trkpt lat="42.9288055" lon="-5.7027695">
        <ele>1293.28</ele>
        <time>2020-07-21T08:14:32.000Z</time>
      </trkpt>
      <trkpt lat="42.928818" lon="-5.7027745">
        <ele>1293.28</ele>
        <time>2020-07-21T08:14:33.000Z</time>
      </trkpt>
      <trkpt lat="42.9288307" lon="-5.7027797">
        <ele>1293.28</ele>
        <time>2020-07-21T08:14:34.000Z</time>
      </trkpt>
      <trkpt lat="42.9288437" lon="-5.7027847">
        <ele>1293.13</ele>
        <time>2020-07-21T08:14:35.000Z</time>
      </trkpt>
      <trkpt lat="42.9288563" lon="-5.7027903">
        <ele>1293.13</ele>
        <time>2020-07-21T08:14:36.000Z</time>
      </trkpt>
      <trkpt lat="42.9288692" lon="-5.702796">
        <ele>1293.13</ele>
        <time>2020-07-21T08:14:37.000Z</time>
      </trkpt>
      <trkpt lat="42.9288818" lon="-5.7028013">
        <ele>1293.13</ele>
        <time>2020-07-21T08:14:38.000Z</time>
      </trkpt>
      <trkpt lat="42.9288948" lon="-5.7028062">
        <ele>1293.13</ele>
        <time>2020-07-21T08:14:39.000Z</time>
      </trkpt>
      <trkpt lat="42.9289078" lon="-5.702811">
        <ele>1293.13</ele>
        <time>2020-07-21T08:14:40.000Z</time>
      </trkpt>
      <trkpt lat="42.9289212" lon="-5.7028163">
        <ele>1293.13</ele>
        <time>2020-07-21T08:14:41.000Z</time>
      </trkpt>
      <trkpt lat="42.9289342" lon="-5.7028217">
        <ele>1293.13</ele>
        <time>2020-07-21T08:14:42.000Z</time>
      </trkpt>
      <trkpt lat="42.9289472" lon="-5.7028272">
        <ele>1293.13</ele>
        <time>2020-07-21T08:14:43.000Z</time>
      </trkpt>
      <trkpt lat="42.9289607" lon="-5.7028317">
        <ele>1293.13</ele>
        <time>2020-07-21T08:14:44.000Z</time>
      </trkpt>
      <trkpt lat="42.9289743" lon="-5.7028357">
        <ele>1292.98</ele>
        <time>2020-07-21T08:14:45.000Z</time>
      </trkpt>
      <trkpt lat="42.9289875" lon="-5.7028392">
        <ele>1292.98</ele>
        <time>2020-07-21T08:14:46.000Z</time>
      </trkpt>
      <trkpt lat="42.9290002" lon="-5.7028432">
        <ele>1292.98</ele>
        <time>2020-07-21T08:14:47.000Z</time>
      </trkpt>
      <trkpt lat="42.9290123" lon="-5.7028478">
        <ele>1292.98</ele>
        <time>2020-07-21T08:14:48.000Z</time>
      </trkpt>
      <trkpt lat="42.9290247" lon="-5.7028527">
        <ele>1292.98</ele>
        <time>2020-07-21T08:14:49.000Z</time>
      </trkpt>
      <trkpt lat="42.9290368" lon="-5.7028572">
        <ele>1292.98</ele>
        <time>2020-07-21T08:14:50.000Z</time>
      </trkpt>
      <trkpt lat="42.9290497" lon="-5.7028608">
        <ele>1292.98</ele>
        <time>2020-07-21T08:14:51.000Z</time>
      </trkpt>
      <trkpt lat="42.9290623" lon="-5.7028645">
        <ele>1292.98</ele>
        <time>2020-07-21T08:14:52.000Z</time>
      </trkpt>
      <trkpt lat="42.9290752" lon="-5.702869">
        <ele>1292.82</ele>
        <time>2020-07-21T08:14:53.000Z</time>
      </trkpt>
      <trkpt lat="42.9290877" lon="-5.7028747">
        <ele>1292.82</ele>
        <time>2020-07-21T08:14:54.000Z</time>
      </trkpt>
      <trkpt lat="42.9291003" lon="-5.7028802">
        <ele>1292.82</ele>
        <time>2020-07-21T08:14:55.000Z</time>
      </trkpt>
      <trkpt lat="42.929113" lon="-5.7028853">
        <ele>1292.82</ele>
        <time>2020-07-21T08:14:56.000Z</time>
      </trkpt>
      <trkpt lat="42.9291258" lon="-5.70289">
        <ele>1292.82</ele>
        <time>2020-07-21T08:14:57.000Z</time>
      </trkpt>
      <trkpt lat="42.9291385" lon="-5.7028945">
        <ele>1292.82</ele>
        <time>2020-07-21T08:14:58.000Z</time>
      </trkpt>
      <trkpt lat="42.9291513" lon="-5.7028992">
        <ele>1292.67</ele>
        <time>2020-07-21T08:14:59.000Z</time>
      </trkpt>
      <trkpt lat="42.9291637" lon="-5.7029035">
        <ele>1292.67</ele>
        <time>2020-07-21T08:15:00.000Z</time>
      </trkpt>
      <trkpt lat="42.9291762" lon="-5.702908">
        <ele>1292.67</ele>
        <time>2020-07-21T08:15:01.000Z</time>
      </trkpt>
      <trkpt lat="42.9291885" lon="-5.7029123">
        <ele>1292.67</ele>
        <time>2020-07-21T08:15:02.000Z</time>
      </trkpt>
      <trkpt lat="42.929201" lon="-5.7029165">
        <ele>1292.52</ele>
        <time>2020-07-21T08:15:03.000Z</time>
      </trkpt>
      <trkpt lat="42.9292128" lon="-5.702921">
        <ele>1292.52</ele>
        <time>2020-07-21T08:15:04.000Z</time>
      </trkpt>
      <trkpt lat="42.9292243" lon="-5.7029262">
        <ele>1292.52</ele>
        <time>2020-07-21T08:15:05.000Z</time>
      </trkpt>
      <trkpt lat="42.9292353" lon="-5.7029315">
        <ele>1292.52</ele>
        <time>2020-07-21T08:15:06.000Z</time>
      </trkpt>
      <trkpt lat="42.9292472" lon="-5.7029367">
        <ele>1292.52</ele>
        <time>2020-07-21T08:15:07.000Z</time>
      </trkpt>
      <trkpt lat="42.929259" lon="-5.7029422">
        <ele>1292.52</ele>
        <time>2020-07-21T08:15:08.000Z</time>
      </trkpt>
      <trkpt lat="42.9292707" lon="-5.702948">
        <ele>1292.37</ele>
        <time>2020-07-21T08:15:09.000Z</time>
      </trkpt>
      <trkpt lat="42.9292818" lon="-5.7029545">
        <ele>1292.37</ele>
        <time>2020-07-21T08:15:10.000Z</time>
      </trkpt>
      <trkpt lat="42.9292928" lon="-5.7029603">
        <ele>1292.21</ele>
        <time>2020-07-21T08:15:11.000Z</time>
      </trkpt>
      <trkpt lat="42.9293043" lon="-5.7029655">
        <ele>1292.21</ele>
        <time>2020-07-21T08:15:12.000Z</time>
      </trkpt>
      <trkpt lat="42.9293162" lon="-5.7029702">
        <ele>1292.21</ele>
        <time>2020-07-21T08:15:13.000Z</time>
      </trkpt>
      <trkpt lat="42.9293282" lon="-5.7029753">
        <ele>1292.21</ele>
        <time>2020-07-21T08:15:14.000Z</time>
      </trkpt>
      <trkpt lat="42.9293402" lon="-5.7029812">
        <ele>1292.06</ele>
        <time>2020-07-21T08:15:15.000Z</time>
      </trkpt>
      <trkpt lat="42.9293518" lon="-5.7029875">
        <ele>1292.06</ele>
        <time>2020-07-21T08:15:16.000Z</time>
      </trkpt>
      <trkpt lat="42.929363" lon="-5.7029942">
        <ele>1292.06</ele>
        <time>2020-07-21T08:15:17.000Z</time>
      </trkpt>
      <trkpt lat="42.929375" lon="-5.7030003">
        <ele>1292.06</ele>
        <time>2020-07-21T08:15:18.000Z</time>
      </trkpt>
      <trkpt lat="42.9293873" lon="-5.703006">
        <ele>1291.91</ele>
        <time>2020-07-21T08:15:19.000Z</time>
      </trkpt>
      <trkpt lat="42.9294003" lon="-5.703011">
        <ele>1291.91</ele>
        <time>2020-07-21T08:15:20.000Z</time>
      </trkpt>
      <trkpt lat="42.9294128" lon="-5.7030162">
        <ele>1291.76</ele>
        <time>2020-07-21T08:15:21.000Z</time>
      </trkpt>
      <trkpt lat="42.929425" lon="-5.7030218">
        <ele>1291.76</ele>
        <time>2020-07-21T08:15:22.000Z</time>
      </trkpt>
      <trkpt lat="42.9294368" lon="-5.7030275">
        <ele>1291.76</ele>
        <time>2020-07-21T08:15:23.000Z</time>
      </trkpt>
      <trkpt lat="42.9294483" lon="-5.7030332">
        <ele>1291.76</ele>
        <time>2020-07-21T08:15:24.000Z</time>
      </trkpt>
      <trkpt lat="42.9294602" lon="-5.7030387">
        <ele>1291.61</ele>
        <time>2020-07-21T08:15:25.000Z</time>
      </trkpt>
      <trkpt lat="42.9294718" lon="-5.7030443">
        <ele>1291.61</ele>
        <time>2020-07-21T08:15:26.000Z</time>
      </trkpt>
      <trkpt lat="42.9294835" lon="-5.7030505">
        <ele>1291.45</ele>
        <time>2020-07-21T08:15:27.000Z</time>
      </trkpt>
      <trkpt lat="42.9294947" lon="-5.703057">
        <ele>1291.45</ele>
        <time>2020-07-21T08:15:28.000Z</time>
      </trkpt>
      <trkpt lat="42.9295062" lon="-5.7030632">
        <ele>1291.45</ele>
        <time>2020-07-21T08:15:29.000Z</time>
      </trkpt>
      <trkpt lat="42.9295182" lon="-5.7030685">
        <ele>1291.45</ele>
        <time>2020-07-21T08:15:30.000Z</time>
      </trkpt>
      <trkpt lat="42.9295307" lon="-5.7030735">
        <ele>1291.3</ele>
        <time>2020-07-21T08:15:31.000Z</time>
      </trkpt>
      <trkpt lat="42.929543" lon="-5.703079">
        <ele>1291.3</ele>
        <time>2020-07-21T08:15:32.000Z</time>
      </trkpt>
      <trkpt lat="42.9295553" lon="-5.7030853">
        <ele>1291.15</ele>
        <time>2020-07-21T08:15:33.000Z</time>
      </trkpt>
      <trkpt lat="42.929568" lon="-5.7030913">
        <ele>1291.15</ele>
        <time>2020-07-21T08:15:34.000Z</time>
      </trkpt>
      <trkpt lat="42.9295808" lon="-5.7030975">
        <ele>1291.15</ele>
        <time>2020-07-21T08:15:35.000Z</time>
      </trkpt>
      <trkpt lat="42.9295948" lon="-5.7031038">
        <ele>1291.15</ele>
        <time>2020-07-21T08:15:36.000Z</time>
      </trkpt>
      <trkpt lat="42.9296082" lon="-5.7031095">
        <ele>1291</ele>
        <time>2020-07-21T08:15:37.000Z</time>
      </trkpt>
      <trkpt lat="42.9296218" lon="-5.7031138">
        <ele>1291</ele>
        <time>2020-07-21T08:15:38.000Z</time>
      </trkpt>
      <trkpt lat="42.9296345" lon="-5.7031175">
        <ele>1291</ele>
        <time>2020-07-21T08:15:39.000Z</time>
      </trkpt>
      <trkpt lat="42.9296472" lon="-5.7031217">
        <ele>1291</ele>
        <time>2020-07-21T08:15:40.000Z</time>
      </trkpt>
      <trkpt lat="42.929659" lon="-5.7031273">
        <ele>1290.84</ele>
        <time>2020-07-21T08:15:41.000Z</time>
      </trkpt>
      <trkpt lat="42.9296712" lon="-5.703133">
        <ele>1290.84</ele>
        <time>2020-07-21T08:15:42.000Z</time>
      </trkpt>
      <trkpt lat="42.9296837" lon="-5.7031387">
        <ele>1290.84</ele>
        <time>2020-07-21T08:15:43.000Z</time>
      </trkpt>
      <trkpt lat="42.929696" lon="-5.7031448">
        <ele>1290.84</ele>
        <time>2020-07-21T08:15:44.000Z</time>
      </trkpt>
      <trkpt lat="42.9297067" lon="-5.7031515">
        <ele>1290.69</ele>
        <time>2020-07-21T08:15:45.000Z</time>
      </trkpt>
      <trkpt lat="42.9297173" lon="-5.7031585">
        <ele>1290.69</ele>
        <time>2020-07-21T08:15:46.000Z</time>
      </trkpt>
      <trkpt lat="42.9297288" lon="-5.7031647">
        <ele>1290.69</ele>
        <time>2020-07-21T08:15:47.000Z</time>
      </trkpt>
      <trkpt lat="42.9297418" lon="-5.7031703">
        <ele>1290.69</ele>
        <time>2020-07-21T08:15:48.000Z</time>
      </trkpt>
      <trkpt lat="42.9297553" lon="-5.7031732">
        <ele>1290.69</ele>
        <time>2020-07-21T08:15:49.000Z</time>
      </trkpt>
      <trkpt lat="42.9297685" lon="-5.7031783">
        <ele>1290.69</ele>
        <time>2020-07-21T08:15:50.000Z</time>
      </trkpt>
      <trkpt lat="42.9297815" lon="-5.703183">
        <ele>1290.54</ele>
        <time>2020-07-21T08:15:51.000Z</time>
      </trkpt>
      <trkpt lat="42.929794" lon="-5.70319">
        <ele>1290.54</ele>
        <time>2020-07-21T08:15:52.000Z</time>
      </trkpt>
      <trkpt lat="42.9298068" lon="-5.7031942">
        <ele>1290.54</ele>
        <time>2020-07-21T08:15:53.000Z</time>
      </trkpt>
      <trkpt lat="42.9298197" lon="-5.7031983">
        <ele>1290.54</ele>
        <time>2020-07-21T08:15:54.000Z</time>
      </trkpt>
      <trkpt lat="42.9298318" lon="-5.703202">
        <ele>1290.39</ele>
        <time>2020-07-21T08:15:55.000Z</time>
      </trkpt>
      <trkpt lat="42.9298438" lon="-5.7032058">
        <ele>1290.39</ele>
        <time>2020-07-21T08:15:56.000Z</time>
      </trkpt>
      <trkpt lat="42.9298565" lon="-5.7032092">
        <ele>1290.39</ele>
        <time>2020-07-21T08:15:57.000Z</time>
      </trkpt>
      <trkpt lat="42.9298697" lon="-5.7032133">
        <ele>1290.39</ele>
        <time>2020-07-21T08:15:58.000Z</time>
      </trkpt>
      <trkpt lat="42.929883" lon="-5.7032183">
        <ele>1290.23</ele>
        <time>2020-07-21T08:15:59.000Z</time>
      </trkpt>
      <trkpt lat="42.9298958" lon="-5.7032235">
        <ele>1290.23</ele>
        <time>2020-07-21T08:16:00.000Z</time>
      </trkpt>
      <trkpt lat="42.9299083" lon="-5.703228">
        <ele>1290.23</ele>
        <time>2020-07-21T08:16:01.000Z</time>
      </trkpt>
      <trkpt lat="42.9299207" lon="-5.7032325">
        <ele>1290.23</ele>
        <time>2020-07-21T08:16:02.000Z</time>
      </trkpt>
      <trkpt lat="42.9299327" lon="-5.7032367">
        <ele>1290.08</ele>
        <time>2020-07-21T08:16:03.000Z</time>
      </trkpt>
      <trkpt lat="42.9299447" lon="-5.7032402">
        <ele>1290.08</ele>
        <time>2020-07-21T08:16:04.000Z</time>
      </trkpt>
      <trkpt lat="42.9299562" lon="-5.7032437">
        <ele>1290.08</ele>
        <time>2020-07-21T08:16:05.000Z</time>
      </trkpt>
      <trkpt lat="42.9299678" lon="-5.7032475">
        <ele>1290.08</ele>
        <time>2020-07-21T08:16:06.000Z</time>
      </trkpt>
      <trkpt lat="42.9299797" lon="-5.7032523">
        <ele>1289.93</ele>
        <time>2020-07-21T08:16:07.000Z</time>
      </trkpt>
      <trkpt lat="42.929992" lon="-5.7032582">
        <ele>1289.93</ele>
        <time>2020-07-21T08:16:08.000Z</time>
      </trkpt>
      <trkpt lat="42.9300038" lon="-5.7032653">
        <ele>1289.78</ele>
        <time>2020-07-21T08:16:09.000Z</time>
      </trkpt>
      <trkpt lat="42.9300157" lon="-5.7032718">
        <ele>1289.78</ele>
        <time>2020-07-21T08:16:10.000Z</time>
      </trkpt>
      <trkpt lat="42.9300282" lon="-5.703277">
        <ele>1289.78</ele>
        <time>2020-07-21T08:16:11.000Z</time>
      </trkpt>
      <trkpt lat="42.9300412" lon="-5.7032807">
        <ele>1289.78</ele>
        <time>2020-07-21T08:16:12.000Z</time>
      </trkpt>
      <trkpt lat="42.9300542" lon="-5.703284">
        <ele>1289.62</ele>
        <time>2020-07-21T08:16:13.000Z</time>
      </trkpt>
      <trkpt lat="42.9300697" lon="-5.7032863">
        <ele>1289.62</ele>
        <time>2020-07-21T08:16:14.000Z</time>
      </trkpt>
      <trkpt lat="42.9300853" lon="-5.7032892">
        <ele>1289.62</ele>
        <time>2020-07-21T08:16:15.000Z</time>
      </trkpt>
      <trkpt lat="42.9301007" lon="-5.7032918">
        <ele>1289.62</ele>
        <time>2020-07-21T08:16:16.000Z</time>
      </trkpt>
      <trkpt lat="42.9301135" lon="-5.703295">
        <ele>1289.47</ele>
        <time>2020-07-21T08:16:17.000Z</time>
      </trkpt>
      <trkpt lat="42.9301275" lon="-5.7032977">
        <ele>1289.47</ele>
        <time>2020-07-21T08:16:18.000Z</time>
      </trkpt>
      <trkpt lat="42.9301425" lon="-5.7033008">
        <ele>1289.32</ele>
        <time>2020-07-21T08:16:19.000Z</time>
      </trkpt>
      <trkpt lat="42.9301587" lon="-5.703305">
        <ele>1289.32</ele>
        <time>2020-07-21T08:16:20.000Z</time>
      </trkpt>
      <trkpt lat="42.9301745" lon="-5.7033097">
        <ele>1289.32</ele>
        <time>2020-07-21T08:16:21.000Z</time>
      </trkpt>
      <trkpt lat="42.9301892" lon="-5.7033152">
        <ele>1289.32</ele>
        <time>2020-07-21T08:16:22.000Z</time>
      </trkpt>
      <trkpt lat="42.930202" lon="-5.7033198">
        <ele>1289.17</ele>
        <time>2020-07-21T08:16:23.000Z</time>
      </trkpt>
      <trkpt lat="42.9302145" lon="-5.7033247">
        <ele>1289.17</ele>
        <time>2020-07-21T08:16:24.000Z</time>
      </trkpt>
      <trkpt lat="42.9302277" lon="-5.7033303">
        <ele>1289.02</ele>
        <time>2020-07-21T08:16:25.000Z</time>
      </trkpt>
      <trkpt lat="42.9302423" lon="-5.7033367">
        <ele>1289.02</ele>
        <time>2020-07-21T08:16:26.000Z</time>
      </trkpt>
      <trkpt lat="42.9302565" lon="-5.7033422">
        <ele>1289.02</ele>
        <time>2020-07-21T08:16:27.000Z</time>
      </trkpt>
      <trkpt lat="42.93027" lon="-5.7033483">
        <ele>1289.02</ele>
        <time>2020-07-21T08:16:28.000Z</time>
      </trkpt>
      <trkpt lat="42.9302817" lon="-5.703355">
        <ele>1288.86</ele>
        <time>2020-07-21T08:16:29.000Z</time>
      </trkpt>
      <trkpt lat="42.9302935" lon="-5.7033623">
        <ele>1288.86</ele>
        <time>2020-07-21T08:16:30.000Z</time>
      </trkpt>
      <trkpt lat="42.9303058" lon="-5.7033685">
        <ele>1288.86</ele>
        <time>2020-07-21T08:16:31.000Z</time>
      </trkpt>
      <trkpt lat="42.9303188" lon="-5.7033748">
        <ele>1288.86</ele>
        <time>2020-07-21T08:16:32.000Z</time>
      </trkpt>
      <trkpt lat="42.9303312" lon="-5.703381">
        <ele>1288.86</ele>
        <time>2020-07-21T08:16:33.000Z</time>
      </trkpt>
      <trkpt lat="42.9303428" lon="-5.7033872">
        <ele>1288.86</ele>
        <time>2020-07-21T08:16:34.000Z</time>
      </trkpt>
      <trkpt lat="42.9303542" lon="-5.7033932">
        <ele>1288.71</ele>
        <time>2020-07-21T08:16:35.000Z</time>
      </trkpt>
      <trkpt lat="42.9303655" lon="-5.7033988">
        <ele>1288.71</ele>
        <time>2020-07-21T08:16:36.000Z</time>
      </trkpt>
      <trkpt lat="42.9303773" lon="-5.7034048">
        <ele>1288.71</ele>
        <time>2020-07-21T08:16:37.000Z</time>
      </trkpt>
      <trkpt lat="42.9303897" lon="-5.7034113">
        <ele>1288.71</ele>
        <time>2020-07-21T08:16:38.000Z</time>
      </trkpt>
      <trkpt lat="42.930402" lon="-5.7034185">
        <ele>1288.71</ele>
        <time>2020-07-21T08:16:39.000Z</time>
      </trkpt>
      <trkpt lat="42.9304135" lon="-5.7034253">
        <ele>1288.71</ele>
        <time>2020-07-21T08:16:40.000Z</time>
      </trkpt>
      <trkpt lat="42.930425" lon="-5.7034328">
        <ele>1288.56</ele>
        <time>2020-07-21T08:16:41.000Z</time>
      </trkpt>
      <trkpt lat="42.9304355" lon="-5.7034392">
        <ele>1288.56</ele>
        <time>2020-07-21T08:16:42.000Z</time>
      </trkpt>
      <trkpt lat="42.9304452" lon="-5.7034467">
        <ele>1288.56</ele>
        <time>2020-07-21T08:16:43.000Z</time>
      </trkpt>
      <trkpt lat="42.930453" lon="-5.7034535">
        <ele>1288.56</ele>
        <time>2020-07-21T08:16:44.000Z</time>
      </trkpt>
      <trkpt lat="42.9304618" lon="-5.7034618">
        <ele>1288.56</ele>
        <time>2020-07-21T08:16:45.000Z</time>
      </trkpt>
      <trkpt lat="42.9304718" lon="-5.7034675">
        <ele>1288.56</ele>
        <time>2020-07-21T08:16:46.000Z</time>
      </trkpt>
      <trkpt lat="42.9304827" lon="-5.7034723">
        <ele>1288.56</ele>
        <time>2020-07-21T08:16:47.000Z</time>
      </trkpt>
      <trkpt lat="42.9304938" lon="-5.7034772">
        <ele>1288.56</ele>
        <time>2020-07-21T08:16:48.000Z</time>
      </trkpt>
      <trkpt lat="42.9305055" lon="-5.7034833">
        <ele>1288.56</ele>
        <time>2020-07-21T08:16:49.000Z</time>
      </trkpt>
      <trkpt lat="42.9305178" lon="-5.70349">
        <ele>1288.56</ele>
        <time>2020-07-21T08:16:50.000Z</time>
      </trkpt>
      <trkpt lat="42.9305305" lon="-5.7034958">
        <ele>1288.56</ele>
        <time>2020-07-21T08:16:51.000Z</time>
      </trkpt>
      <trkpt lat="42.9305432" lon="-5.7035013">
        <ele>1288.56</ele>
        <time>2020-07-21T08:16:52.000Z</time>
      </trkpt>
      <trkpt lat="42.9305562" lon="-5.7035063">
        <ele>1288.56</ele>
        <time>2020-07-21T08:16:53.000Z</time>
      </trkpt>
      <trkpt lat="42.930569" lon="-5.7035113">
        <ele>1288.56</ele>
        <time>2020-07-21T08:16:54.000Z</time>
      </trkpt>
      <trkpt lat="42.9305815" lon="-5.7035157">
        <ele>1288.56</ele>
        <time>2020-07-21T08:16:55.000Z</time>
      </trkpt>
      <trkpt lat="42.9305942" lon="-5.7035202">
        <ele>1288.56</ele>
        <time>2020-07-21T08:16:56.000Z</time>
      </trkpt>
      <trkpt lat="42.9306063" lon="-5.703524">
        <ele>1288.56</ele>
        <time>2020-07-21T08:16:57.000Z</time>
      </trkpt>
      <trkpt lat="42.9306188" lon="-5.7035282">
        <ele>1288.56</ele>
        <time>2020-07-21T08:16:58.000Z</time>
      </trkpt>
      <trkpt lat="42.9306313" lon="-5.703532">
        <ele>1288.56</ele>
        <time>2020-07-21T08:16:59.000Z</time>
      </trkpt>
      <trkpt lat="42.9306442" lon="-5.7035368">
        <ele>1288.56</ele>
        <time>2020-07-21T08:17:00.000Z</time>
      </trkpt>
      <trkpt lat="42.9306563" lon="-5.7035425">
        <ele>1288.56</ele>
        <time>2020-07-21T08:17:01.000Z</time>
      </trkpt>
      <trkpt lat="42.9306683" lon="-5.7035485">
        <ele>1288.56</ele>
        <time>2020-07-21T08:17:02.000Z</time>
      </trkpt>
      <trkpt lat="42.93068" lon="-5.7035545">
        <ele>1288.56</ele>
        <time>2020-07-21T08:17:03.000Z</time>
      </trkpt>
      <trkpt lat="42.930692" lon="-5.7035605">
        <ele>1288.56</ele>
        <time>2020-07-21T08:17:04.000Z</time>
      </trkpt>
      <trkpt lat="42.9307033" lon="-5.7035673">
        <ele>1288.56</ele>
        <time>2020-07-21T08:17:05.000Z</time>
      </trkpt>
      <trkpt lat="42.9307152" lon="-5.703575">
        <ele>1288.56</ele>
        <time>2020-07-21T08:17:06.000Z</time>
      </trkpt>
      <trkpt lat="42.9307265" lon="-5.703582">
        <ele>1288.56</ele>
        <time>2020-07-21T08:17:07.000Z</time>
      </trkpt>
      <trkpt lat="42.9307385" lon="-5.703588">
        <ele>1288.56</ele>
        <time>2020-07-21T08:17:08.000Z</time>
      </trkpt>
      <trkpt lat="42.9307503" lon="-5.7035932">
        <ele>1288.41</ele>
        <time>2020-07-21T08:17:09.000Z</time>
      </trkpt>
      <trkpt lat="42.9307618" lon="-5.7035985">
        <ele>1288.41</ele>
        <time>2020-07-21T08:17:10.000Z</time>
      </trkpt>
      <trkpt lat="42.9307732" lon="-5.703604">
        <ele>1288.41</ele>
        <time>2020-07-21T08:17:11.000Z</time>
      </trkpt>
      <trkpt lat="42.9307848" lon="-5.7036088">
        <ele>1288.41</ele>
        <time>2020-07-21T08:17:12.000Z</time>
      </trkpt>
      <trkpt lat="42.9307968" lon="-5.7036142">
        <ele>1288.41</ele>
        <time>2020-07-21T08:17:13.000Z</time>
      </trkpt>
      <trkpt lat="42.9308087" lon="-5.7036193">
        <ele>1288.41</ele>
        <time>2020-07-21T08:17:14.000Z</time>
      </trkpt>
      <trkpt lat="42.9308203" lon="-5.7036248">
        <ele>1288.41</ele>
        <time>2020-07-21T08:17:15.000Z</time>
      </trkpt>
      <trkpt lat="42.930832" lon="-5.70363">
        <ele>1288.41</ele>
        <time>2020-07-21T08:17:16.000Z</time>
      </trkpt>
      <trkpt lat="42.930844" lon="-5.7036357">
        <ele>1288.41</ele>
        <time>2020-07-21T08:17:17.000Z</time>
      </trkpt>
      <trkpt lat="42.9308563" lon="-5.703641">
        <ele>1288.41</ele>
        <time>2020-07-21T08:17:18.000Z</time>
      </trkpt>
      <trkpt lat="42.9308692" lon="-5.7036457">
        <ele>1288.56</ele>
        <time>2020-07-21T08:17:19.000Z</time>
      </trkpt>
      <trkpt lat="42.9308813" lon="-5.7036505">
        <ele>1288.56</ele>
        <time>2020-07-21T08:17:20.000Z</time>
      </trkpt>
      <trkpt lat="42.930893" lon="-5.7036562">
        <ele>1288.56</ele>
        <time>2020-07-21T08:17:21.000Z</time>
      </trkpt>
      <trkpt lat="42.9309048" lon="-5.7036625">
        <ele>1288.56</ele>
        <time>2020-07-21T08:17:22.000Z</time>
      </trkpt>
      <trkpt lat="42.9309177" lon="-5.7036683">
        <ele>1288.56</ele>
        <time>2020-07-21T08:17:23.000Z</time>
      </trkpt>
      <trkpt lat="42.9309307" lon="-5.7036735">
        <ele>1288.56</ele>
        <time>2020-07-21T08:17:24.000Z</time>
      </trkpt>
      <trkpt lat="42.9309435" lon="-5.7036787">
        <ele>1288.56</ele>
        <time>2020-07-21T08:17:25.000Z</time>
      </trkpt>
      <trkpt lat="42.930957" lon="-5.7036842">
        <ele>1288.56</ele>
        <time>2020-07-21T08:17:26.000Z</time>
      </trkpt>
      <trkpt lat="42.9309707" lon="-5.7036898">
        <ele>1288.56</ele>
        <time>2020-07-21T08:17:27.000Z</time>
      </trkpt>
      <trkpt lat="42.930984" lon="-5.7036957">
        <ele>1288.56</ele>
        <time>2020-07-21T08:17:28.000Z</time>
      </trkpt>
      <trkpt lat="42.9309965" lon="-5.7037018">
        <ele>1288.71</ele>
        <time>2020-07-21T08:17:29.000Z</time>
      </trkpt>
      <trkpt lat="42.9310097" lon="-5.703708">
        <ele>1288.71</ele>
        <time>2020-07-21T08:17:30.000Z</time>
      </trkpt>
      <trkpt lat="42.9310232" lon="-5.7037135">
        <ele>1288.71</ele>
        <time>2020-07-21T08:17:31.000Z</time>
      </trkpt>
      <trkpt lat="42.9310367" lon="-5.7037175">
        <ele>1288.71</ele>
        <time>2020-07-21T08:17:32.000Z</time>
      </trkpt>
      <trkpt lat="42.9310498" lon="-5.7037205">
        <ele>1288.86</ele>
        <time>2020-07-21T08:17:33.000Z</time>
      </trkpt>
      <trkpt lat="42.9310628" lon="-5.703724">
        <ele>1288.86</ele>
        <time>2020-07-21T08:17:34.000Z</time>
      </trkpt>
      <trkpt lat="42.9310757" lon="-5.7037287">
        <ele>1288.86</ele>
        <time>2020-07-21T08:17:35.000Z</time>
      </trkpt>
      <trkpt lat="42.931088" lon="-5.7037343">
        <ele>1288.86</ele>
        <time>2020-07-21T08:17:36.000Z</time>
      </trkpt>
      <trkpt lat="42.9310995" lon="-5.7037393">
        <ele>1289.02</ele>
        <time>2020-07-21T08:17:37.000Z</time>
      </trkpt>
      <trkpt lat="42.9311102" lon="-5.7037438">
        <ele>1289.02</ele>
        <time>2020-07-21T08:17:38.000Z</time>
      </trkpt>
      <trkpt lat="42.9311213" lon="-5.703748">
        <ele>1289.02</ele>
        <time>2020-07-21T08:17:39.000Z</time>
      </trkpt>
      <trkpt lat="42.9311338" lon="-5.7037525">
        <ele>1289.02</ele>
        <time>2020-07-21T08:17:40.000Z</time>
      </trkpt>
      <trkpt lat="42.9311473" lon="-5.703757">
        <ele>1289.02</ele>
        <time>2020-07-21T08:17:41.000Z</time>
      </trkpt>
      <trkpt lat="42.9311605" lon="-5.7037603">
        <ele>1289.02</ele>
        <time>2020-07-21T08:17:42.000Z</time>
      </trkpt>
      <trkpt lat="42.9311735" lon="-5.7037637">
        <ele>1289.17</ele>
        <time>2020-07-21T08:17:43.000Z</time>
      </trkpt>
      <trkpt lat="42.9311858" lon="-5.7037677">
        <ele>1289.17</ele>
        <time>2020-07-21T08:17:44.000Z</time>
      </trkpt>
      <trkpt lat="42.9311992" lon="-5.703773">
        <ele>1289.17</ele>
        <time>2020-07-21T08:17:45.000Z</time>
      </trkpt>
      <trkpt lat="42.931213" lon="-5.7037775">
        <ele>1289.17</ele>
        <time>2020-07-21T08:17:46.000Z</time>
      </trkpt>
      <trkpt lat="42.931227" lon="-5.703782">
        <ele>1289.32</ele>
        <time>2020-07-21T08:17:47.000Z</time>
      </trkpt>
      <trkpt lat="42.931241" lon="-5.7037862">
        <ele>1289.32</ele>
        <time>2020-07-21T08:17:48.000Z</time>
      </trkpt>
      <trkpt lat="42.9312567" lon="-5.7037902">
        <ele>1289.32</ele>
        <time>2020-07-21T08:17:49.000Z</time>
      </trkpt>
      <trkpt lat="42.931272" lon="-5.7037933">
        <ele>1289.32</ele>
        <time>2020-07-21T08:17:50.000Z</time>
      </trkpt>
      <trkpt lat="42.9312872" lon="-5.703795">
        <ele>1289.32</ele>
        <time>2020-07-21T08:17:51.000Z</time>
      </trkpt>
      <trkpt lat="42.9313003" lon="-5.7037973">
        <ele>1289.32</ele>
        <time>2020-07-21T08:17:52.000Z</time>
      </trkpt>
      <trkpt lat="42.9313145" lon="-5.7037998">
        <ele>1289.47</ele>
        <time>2020-07-21T08:17:53.000Z</time>
      </trkpt>
      <trkpt lat="42.9313282" lon="-5.7038038">
        <ele>1289.47</ele>
        <time>2020-07-21T08:17:54.000Z</time>
      </trkpt>
      <trkpt lat="42.9313417" lon="-5.7038082">
        <ele>1289.47</ele>
        <time>2020-07-21T08:17:55.000Z</time>
      </trkpt>
      <trkpt lat="42.9313542" lon="-5.7038112">
        <ele>1289.47</ele>
        <time>2020-07-21T08:17:56.000Z</time>
      </trkpt>
      <trkpt lat="42.9313663" lon="-5.7038137">
        <ele>1289.47</ele>
        <time>2020-07-21T08:17:57.000Z</time>
      </trkpt>
      <trkpt lat="42.9313795" lon="-5.7038158">
        <ele>1289.47</ele>
        <time>2020-07-21T08:17:58.000Z</time>
      </trkpt>
      <trkpt lat="42.9313928" lon="-5.7038183">
        <ele>1289.62</ele>
        <time>2020-07-21T08:17:59.000Z</time>
      </trkpt>
      <trkpt lat="42.9314065" lon="-5.7038197">
        <ele>1289.62</ele>
        <time>2020-07-21T08:18:00.000Z</time>
      </trkpt>
      <trkpt lat="42.9314198" lon="-5.7038212">
        <ele>1289.62</ele>
        <time>2020-07-21T08:18:01.000Z</time>
      </trkpt>
      <trkpt lat="42.9314335" lon="-5.7038233">
        <ele>1289.62</ele>
        <time>2020-07-21T08:18:02.000Z</time>
      </trkpt>
      <trkpt lat="42.9314473" lon="-5.7038263">
        <ele>1289.62</ele>
        <time>2020-07-21T08:18:03.000Z</time>
      </trkpt>
      <trkpt lat="42.9314605" lon="-5.7038288">
        <ele>1289.62</ele>
        <time>2020-07-21T08:18:04.000Z</time>
      </trkpt>
      <trkpt lat="42.9314733" lon="-5.7038312">
        <ele>1289.78</ele>
        <time>2020-07-21T08:18:05.000Z</time>
      </trkpt>
      <trkpt lat="42.9314862" lon="-5.7038335">
        <ele>1289.78</ele>
        <time>2020-07-21T08:18:06.000Z</time>
      </trkpt>
      <trkpt lat="42.9314998" lon="-5.703836">
        <ele>1289.78</ele>
        <time>2020-07-21T08:18:07.000Z</time>
      </trkpt>
      <trkpt lat="42.9315133" lon="-5.703839">
        <ele>1289.78</ele>
        <time>2020-07-21T08:18:08.000Z</time>
      </trkpt>
      <trkpt lat="42.931527" lon="-5.7038413">
        <ele>1289.78</ele>
        <time>2020-07-21T08:18:09.000Z</time>
      </trkpt>
      <trkpt lat="42.9315402" lon="-5.7038438">
        <ele>1289.78</ele>
        <time>2020-07-21T08:18:10.000Z</time>
      </trkpt>
      <trkpt lat="42.9315537" lon="-5.7038465">
        <ele>1289.93</ele>
        <time>2020-07-21T08:18:11.000Z</time>
      </trkpt>
      <trkpt lat="42.9315668" lon="-5.7038503">
        <ele>1289.93</ele>
        <time>2020-07-21T08:18:12.000Z</time>
      </trkpt>
      <trkpt lat="42.9315807" lon="-5.7038533">
        <ele>1289.93</ele>
        <time>2020-07-21T08:18:13.000Z</time>
      </trkpt>
      <trkpt lat="42.931594" lon="-5.703856">
        <ele>1289.93</ele>
        <time>2020-07-21T08:18:14.000Z</time>
      </trkpt>
      <trkpt lat="42.9316065" lon="-5.7038588">
        <ele>1290.08</ele>
        <time>2020-07-21T08:18:15.000Z</time>
      </trkpt>
      <trkpt lat="42.9316198" lon="-5.7038618">
        <ele>1290.08</ele>
        <time>2020-07-21T08:18:16.000Z</time>
      </trkpt>
      <trkpt lat="42.931633" lon="-5.703865">
        <ele>1290.08</ele>
        <time>2020-07-21T08:18:17.000Z</time>
      </trkpt>
      <trkpt lat="42.9316467" lon="-5.7038677">
        <ele>1290.08</ele>
        <time>2020-07-21T08:18:18.000Z</time>
      </trkpt>
      <trkpt lat="42.9316593" lon="-5.703872">
        <ele>1290.23</ele>
        <time>2020-07-21T08:18:19.000Z</time>
      </trkpt>
      <trkpt lat="42.9316728" lon="-5.7038762">
        <ele>1290.23</ele>
        <time>2020-07-21T08:18:20.000Z</time>
      </trkpt>
      <trkpt lat="42.9316865" lon="-5.7038803">
        <ele>1290.23</ele>
        <time>2020-07-21T08:18:21.000Z</time>
      </trkpt>
      <trkpt lat="42.9316998" lon="-5.7038835">
        <ele>1290.23</ele>
        <time>2020-07-21T08:18:22.000Z</time>
      </trkpt>
      <trkpt lat="42.9317128" lon="-5.703887">
        <ele>1290.23</ele>
        <time>2020-07-21T08:18:23.000Z</time>
      </trkpt>
      <trkpt lat="42.9317263" lon="-5.7038903">
        <ele>1290.23</ele>
        <time>2020-07-21T08:18:24.000Z</time>
      </trkpt>
      <trkpt lat="42.931741" lon="-5.703893">
        <ele>1290.23</ele>
        <time>2020-07-21T08:18:25.000Z</time>
      </trkpt>
      <trkpt lat="42.9317553" lon="-5.7038958">
        <ele>1290.23</ele>
        <time>2020-07-21T08:18:26.000Z</time>
      </trkpt>
      <trkpt lat="42.9317688" lon="-5.7038993">
        <ele>1290.39</ele>
        <time>2020-07-21T08:18:27.000Z</time>
      </trkpt>
      <trkpt lat="42.931782" lon="-5.703903">
        <ele>1290.39</ele>
        <time>2020-07-21T08:18:28.000Z</time>
      </trkpt>
      <trkpt lat="42.9317955" lon="-5.7039065">
        <ele>1290.39</ele>
        <time>2020-07-21T08:18:29.000Z</time>
      </trkpt>
      <trkpt lat="42.9318098" lon="-5.70391">
        <ele>1290.39</ele>
        <time>2020-07-21T08:18:30.000Z</time>
      </trkpt>
      <trkpt lat="42.9318242" lon="-5.7039132">
        <ele>1290.39</ele>
        <time>2020-07-21T08:18:31.000Z</time>
      </trkpt>
      <trkpt lat="42.9318385" lon="-5.7039167">
        <ele>1290.39</ele>
        <time>2020-07-21T08:18:32.000Z</time>
      </trkpt>
      <trkpt lat="42.9318525" lon="-5.70392">
        <ele>1290.39</ele>
        <time>2020-07-21T08:18:33.000Z</time>
      </trkpt>
      <trkpt lat="42.9318663" lon="-5.7039245">
        <ele>1290.39</ele>
        <time>2020-07-21T08:18:34.000Z</time>
      </trkpt>
      <trkpt lat="42.9318797" lon="-5.7039287">
        <ele>1290.39</ele>
        <time>2020-07-21T08:18:35.000Z</time>
      </trkpt>
      <trkpt lat="42.9318927" lon="-5.7039327">
        <ele>1290.39</ele>
        <time>2020-07-21T08:18:36.000Z</time>
      </trkpt>
      <trkpt lat="42.9319062" lon="-5.7039357">
        <ele>1290.39</ele>
        <time>2020-07-21T08:18:37.000Z</time>
      </trkpt>
      <trkpt lat="42.9319203" lon="-5.7039382">
        <ele>1290.39</ele>
        <time>2020-07-21T08:18:38.000Z</time>
      </trkpt>
      <trkpt lat="42.9319347" lon="-5.7039408">
        <ele>1290.39</ele>
        <time>2020-07-21T08:18:39.000Z</time>
      </trkpt>
      <trkpt lat="42.9319487" lon="-5.703943">
        <ele>1290.39</ele>
        <time>2020-07-21T08:18:40.000Z</time>
      </trkpt>
      <trkpt lat="42.9319622" lon="-5.7039452">
        <ele>1290.39</ele>
        <time>2020-07-21T08:18:41.000Z</time>
      </trkpt>
      <trkpt lat="42.9319757" lon="-5.7039475">
        <ele>1290.39</ele>
        <time>2020-07-21T08:18:42.000Z</time>
      </trkpt>
      <trkpt lat="42.9319892" lon="-5.7039497">
        <ele>1290.39</ele>
        <time>2020-07-21T08:18:43.000Z</time>
      </trkpt>
      <trkpt lat="42.9320027" lon="-5.7039507">
        <ele>1290.39</ele>
        <time>2020-07-21T08:18:44.000Z</time>
      </trkpt>
      <trkpt lat="42.9320155" lon="-5.7039517">
        <ele>1290.39</ele>
        <time>2020-07-21T08:18:45.000Z</time>
      </trkpt>
      <trkpt lat="42.9320297" lon="-5.7039537">
        <ele>1290.39</ele>
        <time>2020-07-21T08:18:46.000Z</time>
      </trkpt>
      <trkpt lat="42.9320455" lon="-5.7039528">
        <ele>1290.39</ele>
        <time>2020-07-21T08:18:47.000Z</time>
      </trkpt>
      <trkpt lat="42.9320617" lon="-5.703951">
        <ele>1290.39</ele>
        <time>2020-07-21T08:18:48.000Z</time>
      </trkpt>
      <trkpt lat="42.9320763" lon="-5.703949">
        <ele>1290.39</ele>
        <time>2020-07-21T08:18:49.000Z</time>
      </trkpt>
      <trkpt lat="42.9320888" lon="-5.7039498">
        <ele>1290.39</ele>
        <time>2020-07-21T08:18:50.000Z</time>
      </trkpt>
      <trkpt lat="42.932102" lon="-5.7039502">
        <ele>1290.39</ele>
        <time>2020-07-21T08:18:51.000Z</time>
      </trkpt>
      <trkpt lat="42.9321162" lon="-5.7039498">
        <ele>1290.39</ele>
        <time>2020-07-21T08:18:52.000Z</time>
      </trkpt>
      <trkpt lat="42.932131" lon="-5.7039488">
        <ele>1290.54</ele>
        <time>2020-07-21T08:18:53.000Z</time>
      </trkpt>
      <trkpt lat="42.9321455" lon="-5.7039475">
        <ele>1290.54</ele>
        <time>2020-07-21T08:18:54.000Z</time>
      </trkpt>
      <trkpt lat="42.9321595" lon="-5.7039458">
        <ele>1290.54</ele>
        <time>2020-07-21T08:18:55.000Z</time>
      </trkpt>
      <trkpt lat="42.9321728" lon="-5.7039443">
        <ele>1290.54</ele>
        <time>2020-07-21T08:18:56.000Z</time>
      </trkpt>
      <trkpt lat="42.9321853" lon="-5.7039433">
        <ele>1290.54</ele>
        <time>2020-07-21T08:18:57.000Z</time>
      </trkpt>
      <trkpt lat="42.932198" lon="-5.7039438">
        <ele>1290.54</ele>
        <time>2020-07-21T08:18:58.000Z</time>
      </trkpt>
      <trkpt lat="42.9322107" lon="-5.7039442">
        <ele>1290.54</ele>
        <time>2020-07-21T08:18:59.000Z</time>
      </trkpt>
      <trkpt lat="42.9322235" lon="-5.7039455">
        <ele>1290.54</ele>
        <time>2020-07-21T08:19:00.000Z</time>
      </trkpt>
      <trkpt lat="42.9322363" lon="-5.703945">
        <ele>1290.69</ele>
        <time>2020-07-21T08:19:01.000Z</time>
      </trkpt>
      <trkpt lat="42.9322483" lon="-5.703945">
        <ele>1290.69</ele>
        <time>2020-07-21T08:19:02.000Z</time>
      </trkpt>
      <trkpt lat="42.9322607" lon="-5.7039443">
        <ele>1290.69</ele>
        <time>2020-07-21T08:19:03.000Z</time>
      </trkpt>
      <trkpt lat="42.9322732" lon="-5.7039443">
        <ele>1290.69</ele>
        <time>2020-07-21T08:19:04.000Z</time>
      </trkpt>
      <trkpt lat="42.9322862" lon="-5.7039447">
        <ele>1290.69</ele>
        <time>2020-07-21T08:19:05.000Z</time>
      </trkpt>
      <trkpt lat="42.9322992" lon="-5.7039442">
        <ele>1290.69</ele>
        <time>2020-07-21T08:19:06.000Z</time>
      </trkpt>
      <trkpt lat="42.932312" lon="-5.7039435">
        <ele>1290.69</ele>
        <time>2020-07-21T08:19:07.000Z</time>
      </trkpt>
      <trkpt lat="42.9323248" lon="-5.7039432">
        <ele>1290.69</ele>
        <time>2020-07-21T08:19:08.000Z</time>
      </trkpt>
      <trkpt lat="42.9323375" lon="-5.703943">
        <ele>1290.69</ele>
        <time>2020-07-21T08:19:09.000Z</time>
      </trkpt>
      <trkpt lat="42.9323502" lon="-5.7039428">
        <ele>1290.69</ele>
        <time>2020-07-21T08:19:10.000Z</time>
      </trkpt>
      <trkpt lat="42.9323627" lon="-5.7039422">
        <ele>1290.69</ele>
        <time>2020-07-21T08:19:11.000Z</time>
      </trkpt>
      <trkpt lat="42.9323737" lon="-5.7039443">
        <ele>1290.69</ele>
        <time>2020-07-21T08:19:12.000Z</time>
      </trkpt>
      <trkpt lat="42.9323855" lon="-5.7039475">
        <ele>1290.69</ele>
        <time>2020-07-21T08:19:13.000Z</time>
      </trkpt>
      <trkpt lat="42.9323977" lon="-5.7039513">
        <ele>1290.69</ele>
        <time>2020-07-21T08:19:14.000Z</time>
      </trkpt>
      <trkpt lat="42.932411" lon="-5.7039533">
        <ele>1290.69</ele>
        <time>2020-07-21T08:19:15.000Z</time>
      </trkpt>
      <trkpt lat="42.9324232" lon="-5.7039552">
        <ele>1290.69</ele>
        <time>2020-07-21T08:19:16.000Z</time>
      </trkpt>
      <trkpt lat="42.932435" lon="-5.7039573">
        <ele>1290.69</ele>
        <time>2020-07-21T08:19:17.000Z</time>
      </trkpt>
      <trkpt lat="42.9324475" lon="-5.70396">
        <ele>1290.69</ele>
        <time>2020-07-21T08:19:18.000Z</time>
      </trkpt>
      <trkpt lat="42.932462" lon="-5.703962">
        <ele>1290.54</ele>
        <time>2020-07-21T08:19:19.000Z</time>
      </trkpt>
      <trkpt lat="42.932476" lon="-5.7039643">
        <ele>1290.54</ele>
        <time>2020-07-21T08:19:20.000Z</time>
      </trkpt>
      <trkpt lat="42.9324898" lon="-5.7039668">
        <ele>1290.54</ele>
        <time>2020-07-21T08:19:21.000Z</time>
      </trkpt>
      <trkpt lat="42.9325018" lon="-5.7039697">
        <ele>1290.54</ele>
        <time>2020-07-21T08:19:22.000Z</time>
      </trkpt>
      <trkpt lat="42.9325138" lon="-5.703972">
        <ele>1290.39</ele>
        <time>2020-07-21T08:19:23.000Z</time>
      </trkpt>
      <trkpt lat="42.9325263" lon="-5.7039735">
        <ele>1290.39</ele>
        <time>2020-07-21T08:19:24.000Z</time>
      </trkpt>
      <trkpt lat="42.9325392" lon="-5.7039752">
        <ele>1290.39</ele>
        <time>2020-07-21T08:19:25.000Z</time>
      </trkpt>
      <trkpt lat="42.9325522" lon="-5.7039768">
        <ele>1290.39</ele>
        <time>2020-07-21T08:19:26.000Z</time>
      </trkpt>
      <trkpt lat="42.9325648" lon="-5.7039795">
        <ele>1290.23</ele>
        <time>2020-07-21T08:19:27.000Z</time>
      </trkpt>
      <trkpt lat="42.932577" lon="-5.7039823">
        <ele>1290.23</ele>
        <time>2020-07-21T08:19:28.000Z</time>
      </trkpt>
      <trkpt lat="42.9325895" lon="-5.7039838">
        <ele>1290.23</ele>
        <time>2020-07-21T08:19:29.000Z</time>
      </trkpt>
      <trkpt lat="42.9326017" lon="-5.7039845">
        <ele>1290.23</ele>
        <time>2020-07-21T08:19:30.000Z</time>
      </trkpt>
      <trkpt lat="42.9326142" lon="-5.7039852">
        <ele>1290.08</ele>
        <time>2020-07-21T08:19:31.000Z</time>
      </trkpt>
      <trkpt lat="42.932626" lon="-5.7039868">
        <ele>1290.08</ele>
        <time>2020-07-21T08:19:32.000Z</time>
      </trkpt>
      <trkpt lat="42.9326382" lon="-5.7039882">
        <ele>1289.93</ele>
        <time>2020-07-21T08:19:33.000Z</time>
      </trkpt>
      <trkpt lat="42.9326503" lon="-5.7039893">
        <ele>1289.93</ele>
        <time>2020-07-21T08:19:34.000Z</time>
      </trkpt>
      <trkpt lat="42.932663" lon="-5.703991">
        <ele>1289.78</ele>
        <time>2020-07-21T08:19:35.000Z</time>
      </trkpt>
      <trkpt lat="42.9326763" lon="-5.703992">
        <ele>1289.78</ele>
        <time>2020-07-21T08:19:36.000Z</time>
      </trkpt>
      <trkpt lat="42.93269" lon="-5.703994">
        <ele>1289.62</ele>
        <time>2020-07-21T08:19:37.000Z</time>
      </trkpt>
      <trkpt lat="42.9327038" lon="-5.7039953">
        <ele>1289.62</ele>
        <time>2020-07-21T08:19:38.000Z</time>
      </trkpt>
      <trkpt lat="42.9327172" lon="-5.7039978">
        <ele>1289.47</ele>
        <time>2020-07-21T08:19:39.000Z</time>
      </trkpt>
      <trkpt lat="42.9327297" lon="-5.7039997">
        <ele>1289.47</ele>
        <time>2020-07-21T08:19:40.000Z</time>
      </trkpt>
      <trkpt lat="42.932741" lon="-5.7040015">
        <ele>1289.32</ele>
        <time>2020-07-21T08:19:41.000Z</time>
      </trkpt>
      <trkpt lat="42.932753" lon="-5.7040042">
        <ele>1289.32</ele>
        <time>2020-07-21T08:19:42.000Z</time>
      </trkpt>
      <trkpt lat="42.9327658" lon="-5.7040068">
        <ele>1289.17</ele>
        <time>2020-07-21T08:19:43.000Z</time>
      </trkpt>
      <trkpt lat="42.9327805" lon="-5.7040092">
        <ele>1289.17</ele>
        <time>2020-07-21T08:19:44.000Z</time>
      </trkpt>
      <trkpt lat="42.9327945" lon="-5.7040107">
        <ele>1288.86</ele>
        <time>2020-07-21T08:19:45.000Z</time>
      </trkpt>
      <trkpt lat="42.9328082" lon="-5.704012">
        <ele>1288.86</ele>
        <time>2020-07-21T08:19:46.000Z</time>
      </trkpt>
      <trkpt lat="42.9328205" lon="-5.7040145">
        <ele>1288.71</ele>
        <time>2020-07-21T08:19:47.000Z</time>
      </trkpt>
      <trkpt lat="42.9328327" lon="-5.7040172">
        <ele>1288.71</ele>
        <time>2020-07-21T08:19:48.000Z</time>
      </trkpt>
      <trkpt lat="42.9328447" lon="-5.7040202">
        <ele>1288.56</ele>
        <time>2020-07-21T08:19:49.000Z</time>
      </trkpt>
      <trkpt lat="42.9328575" lon="-5.7040227">
        <ele>1288.56</ele>
        <time>2020-07-21T08:19:50.000Z</time>
      </trkpt>
      <trkpt lat="42.9328707" lon="-5.7040255">
        <ele>1288.41</ele>
        <time>2020-07-21T08:19:51.000Z</time>
      </trkpt>
      <trkpt lat="42.932884" lon="-5.7040287">
        <ele>1288.41</ele>
        <time>2020-07-21T08:19:52.000Z</time>
      </trkpt>
      <trkpt lat="42.9328967" lon="-5.7040328">
        <ele>1288.25</ele>
        <time>2020-07-21T08:19:53.000Z</time>
      </trkpt>
      <trkpt lat="42.9329092" lon="-5.7040388">
        <ele>1288.25</ele>
        <time>2020-07-21T08:19:54.000Z</time>
      </trkpt>
      <trkpt lat="42.9329212" lon="-5.7040458">
        <ele>1287.95</ele>
        <time>2020-07-21T08:19:55.000Z</time>
      </trkpt>
      <trkpt lat="42.9329337" lon="-5.7040533">
        <ele>1287.95</ele>
        <time>2020-07-21T08:19:56.000Z</time>
      </trkpt>
      <trkpt lat="42.9329468" lon="-5.7040598">
        <ele>1287.8</ele>
        <time>2020-07-21T08:19:57.000Z</time>
      </trkpt>
      <trkpt lat="42.9329597" lon="-5.7040663">
        <ele>1287.8</ele>
        <time>2020-07-21T08:19:58.000Z</time>
      </trkpt>
      <trkpt lat="42.9329713" lon="-5.7040733">
        <ele>1287.64</ele>
        <time>2020-07-21T08:19:59.000Z</time>
      </trkpt>
      <trkpt lat="42.9329813" lon="-5.7040828">
        <ele>1287.64</ele>
        <time>2020-07-21T08:20:00.000Z</time>
      </trkpt>
      <trkpt lat="42.9329917" lon="-5.7040932">
        <ele>1287.34</ele>
        <time>2020-07-21T08:20:01.000Z</time>
      </trkpt>
      <trkpt lat="42.9330025" lon="-5.7041032">
        <ele>1287.34</ele>
        <time>2020-07-21T08:20:02.000Z</time>
      </trkpt>
      <trkpt lat="42.9330145" lon="-5.7041115">
        <ele>1287.19</ele>
        <time>2020-07-21T08:20:03.000Z</time>
      </trkpt>
      <trkpt lat="42.9330267" lon="-5.7041193">
        <ele>1287.19</ele>
        <time>2020-07-21T08:20:04.000Z</time>
      </trkpt>
      <trkpt lat="42.9330382" lon="-5.704127">
        <ele>1286.88</ele>
        <time>2020-07-21T08:20:05.000Z</time>
      </trkpt>
      <trkpt lat="42.933049" lon="-5.7041357">
        <ele>1286.88</ele>
        <time>2020-07-21T08:20:06.000Z</time>
      </trkpt>
      <trkpt lat="42.9330602" lon="-5.7041442">
        <ele>1286.73</ele>
        <time>2020-07-21T08:20:07.000Z</time>
      </trkpt>
      <trkpt lat="42.9330715" lon="-5.7041523">
        <ele>1286.73</ele>
        <time>2020-07-21T08:20:08.000Z</time>
      </trkpt>
      <trkpt lat="42.9330828" lon="-5.7041608">
        <ele>1286.42</ele>
        <time>2020-07-21T08:20:09.000Z</time>
      </trkpt>
      <trkpt lat="42.9330935" lon="-5.7041697">
        <ele>1286.42</ele>
        <time>2020-07-21T08:20:10.000Z</time>
      </trkpt>
      <trkpt lat="42.9331043" lon="-5.704179">
        <ele>1286.12</ele>
        <time>2020-07-21T08:20:11.000Z</time>
      </trkpt>
      <trkpt lat="42.9331145" lon="-5.7041888">
        <ele>1286.12</ele>
        <time>2020-07-21T08:20:12.000Z</time>
      </trkpt>
      <trkpt lat="42.9331247" lon="-5.7042">
        <ele>1285.97</ele>
        <time>2020-07-21T08:20:13.000Z</time>
      </trkpt>
      <trkpt lat="42.9331348" lon="-5.7042112">
        <ele>1285.97</ele>
        <time>2020-07-21T08:20:14.000Z</time>
      </trkpt>
      <trkpt lat="42.9331457" lon="-5.7042218">
        <ele>1285.66</ele>
        <time>2020-07-21T08:20:15.000Z</time>
      </trkpt>
      <trkpt lat="42.933157" lon="-5.7042317">
        <ele>1285.66</ele>
        <time>2020-07-21T08:20:16.000Z</time>
      </trkpt>
      <trkpt lat="42.9331683" lon="-5.7042412">
        <ele>1285.51</ele>
        <time>2020-07-21T08:20:17.000Z</time>
      </trkpt>
      <trkpt lat="42.9331803" lon="-5.7042505">
        <ele>1285.51</ele>
        <time>2020-07-21T08:20:18.000Z</time>
      </trkpt>
      <trkpt lat="42.933192" lon="-5.7042608">
        <ele>1285.2</ele>
        <time>2020-07-21T08:20:19.000Z</time>
      </trkpt>
      <trkpt lat="42.9332035" lon="-5.7042718">
        <ele>1285.2</ele>
        <time>2020-07-21T08:20:20.000Z</time>
      </trkpt>
      <trkpt lat="42.9332133" lon="-5.7042833">
        <ele>1285.05</ele>
        <time>2020-07-21T08:20:21.000Z</time>
      </trkpt>
      <trkpt lat="42.9332242" lon="-5.7042952">
        <ele>1285.05</ele>
        <time>2020-07-21T08:20:22.000Z</time>
      </trkpt>
      <trkpt lat="42.933235" lon="-5.7043073">
        <ele>1284.9</ele>
        <time>2020-07-21T08:20:23.000Z</time>
      </trkpt>
      <trkpt lat="42.9332457" lon="-5.7043193">
        <ele>1284.9</ele>
        <time>2020-07-21T08:20:24.000Z</time>
      </trkpt>
      <trkpt lat="42.9332547" lon="-5.7043305">
        <ele>1284.75</ele>
        <time>2020-07-21T08:20:25.000Z</time>
      </trkpt>
      <trkpt lat="42.933264" lon="-5.704341">
        <ele>1284.75</ele>
        <time>2020-07-21T08:20:26.000Z</time>
      </trkpt>
      <trkpt lat="42.9332743" lon="-5.7043517">
        <ele>1284.44</ele>
        <time>2020-07-21T08:20:27.000Z</time>
      </trkpt>
      <trkpt lat="42.9332857" lon="-5.7043632">
        <ele>1284.44</ele>
        <time>2020-07-21T08:20:28.000Z</time>
      </trkpt>
      <trkpt lat="42.9332967" lon="-5.7043757">
        <ele>1284.29</ele>
        <time>2020-07-21T08:20:29.000Z</time>
      </trkpt>
      <trkpt lat="42.933307" lon="-5.7043878">
        <ele>1284.29</ele>
        <time>2020-07-21T08:20:30.000Z</time>
      </trkpt>
      <trkpt lat="42.9333162" lon="-5.7043997">
        <ele>1284.14</ele>
        <time>2020-07-21T08:20:31.000Z</time>
      </trkpt>
      <trkpt lat="42.9333242" lon="-5.7044102">
        <ele>1284.14</ele>
        <time>2020-07-21T08:20:32.000Z</time>
      </trkpt>
      <trkpt lat="42.9333317" lon="-5.704421">
        <ele>1283.99</ele>
        <time>2020-07-21T08:20:33.000Z</time>
      </trkpt>
      <trkpt lat="42.9333403" lon="-5.7044322">
        <ele>1283.99</ele>
        <time>2020-07-21T08:20:34.000Z</time>
      </trkpt>
      <trkpt lat="42.9333508" lon="-5.7044447">
        <ele>1283.68</ele>
        <time>2020-07-21T08:20:35.000Z</time>
      </trkpt>
      <trkpt lat="42.9333622" lon="-5.7044578">
        <ele>1283.68</ele>
        <time>2020-07-21T08:20:36.000Z</time>
      </trkpt>
      <trkpt lat="42.9333713" lon="-5.704472">
        <ele>1283.53</ele>
        <time>2020-07-21T08:20:37.000Z</time>
      </trkpt>
      <trkpt lat="42.9333793" lon="-5.7044858">
        <ele>1283.53</ele>
        <time>2020-07-21T08:20:38.000Z</time>
      </trkpt>
      <trkpt lat="42.933386" lon="-5.7044982">
        <ele>1283.22</ele>
        <time>2020-07-21T08:20:39.000Z</time>
      </trkpt>
      <trkpt lat="42.9333942" lon="-5.7045115">
        <ele>1283.22</ele>
        <time>2020-07-21T08:20:40.000Z</time>
      </trkpt>
      <trkpt lat="42.9334028" lon="-5.7045257">
        <ele>1283.07</ele>
        <time>2020-07-21T08:20:41.000Z</time>
      </trkpt>
      <trkpt lat="42.9334128" lon="-5.704542">
        <ele>1283.07</ele>
        <time>2020-07-21T08:20:42.000Z</time>
      </trkpt>
      <trkpt lat="42.9334218" lon="-5.704558">
        <ele>1282.92</ele>
        <time>2020-07-21T08:20:43.000Z</time>
      </trkpt>
      <trkpt lat="42.933431" lon="-5.7045732">
        <ele>1282.92</ele>
        <time>2020-07-21T08:20:44.000Z</time>
      </trkpt>
      <trkpt lat="42.9334385" lon="-5.7045872">
        <ele>1282.61</ele>
        <time>2020-07-21T08:20:45.000Z</time>
      </trkpt>
      <trkpt lat="42.9334463" lon="-5.704601">
        <ele>1282.61</ele>
        <time>2020-07-21T08:20:46.000Z</time>
      </trkpt>
      <trkpt lat="42.9334543" lon="-5.7046162">
        <ele>1282.46</ele>
        <time>2020-07-21T08:20:47.000Z</time>
      </trkpt>
      <trkpt lat="42.933464" lon="-5.7046318">
        <ele>1282.46</ele>
        <time>2020-07-21T08:20:48.000Z</time>
      </trkpt>
      <trkpt lat="42.9334745" lon="-5.7046467">
        <ele>1282.31</ele>
        <time>2020-07-21T08:20:49.000Z</time>
      </trkpt>
      <trkpt lat="42.9334843" lon="-5.7046607">
        <ele>1282.31</ele>
        <time>2020-07-21T08:20:50.000Z</time>
      </trkpt>
      <trkpt lat="42.9334933" lon="-5.7046738">
        <ele>1282.16</ele>
        <time>2020-07-21T08:20:51.000Z</time>
      </trkpt>
      <trkpt lat="42.9335012" lon="-5.7046868">
        <ele>1282.16</ele>
        <time>2020-07-21T08:20:52.000Z</time>
      </trkpt>
      <trkpt lat="42.9335073" lon="-5.7046982">
        <ele>1281.85</ele>
        <time>2020-07-21T08:20:53.000Z</time>
      </trkpt>
      <trkpt lat="42.933514" lon="-5.7047115">
        <ele>1281.85</ele>
        <time>2020-07-21T08:20:54.000Z</time>
      </trkpt>
      <trkpt lat="42.9335213" lon="-5.704726">
        <ele>1281.7</ele>
        <time>2020-07-21T08:20:55.000Z</time>
      </trkpt>
      <trkpt lat="42.933531" lon="-5.7047435">
        <ele>1281.7</ele>
        <time>2020-07-21T08:20:56.000Z</time>
      </trkpt>
      <trkpt lat="42.9335393" lon="-5.7047597">
        <ele>1281.55</ele>
        <time>2020-07-21T08:20:57.000Z</time>
      </trkpt>
      <trkpt lat="42.9335457" lon="-5.7047747">
        <ele>1281.55</ele>
        <time>2020-07-21T08:20:58.000Z</time>
      </trkpt>
      <trkpt lat="42.9335512" lon="-5.7047883">
        <ele>1281.4</ele>
        <time>2020-07-21T08:20:59.000Z</time>
      </trkpt>
      <trkpt lat="42.9335572" lon="-5.704802">
        <ele>1281.4</ele>
        <time>2020-07-21T08:21:00.000Z</time>
      </trkpt>
      <trkpt lat="42.9335635" lon="-5.7048165">
        <ele>1281.24</ele>
        <time>2020-07-21T08:21:01.000Z</time>
      </trkpt>
      <trkpt lat="42.933569" lon="-5.7048317">
        <ele>1281.24</ele>
        <time>2020-07-21T08:21:02.000Z</time>
      </trkpt>
      <trkpt lat="42.9335747" lon="-5.7048468">
        <ele>1281.09</ele>
        <time>2020-07-21T08:21:03.000Z</time>
      </trkpt>
      <trkpt lat="42.9335795" lon="-5.7048622">
        <ele>1281.09</ele>
        <time>2020-07-21T08:21:04.000Z</time>
      </trkpt>
      <trkpt lat="42.9335847" lon="-5.7048777">
        <ele>1280.94</ele>
        <time>2020-07-21T08:21:05.000Z</time>
      </trkpt>
      <trkpt lat="42.9335877" lon="-5.7048932">
        <ele>1280.94</ele>
        <time>2020-07-21T08:21:06.000Z</time>
      </trkpt>
      <trkpt lat="42.9335912" lon="-5.7049085">
        <ele>1280.63</ele>
        <time>2020-07-21T08:21:07.000Z</time>
      </trkpt>
      <trkpt lat="42.9335948" lon="-5.7049242">
        <ele>1280.63</ele>
        <time>2020-07-21T08:21:08.000Z</time>
      </trkpt>
      <trkpt lat="42.933601" lon="-5.7049428">
        <ele>1280.48</ele>
        <time>2020-07-21T08:21:09.000Z</time>
      </trkpt>
      <trkpt lat="42.9336075" lon="-5.704962">
        <ele>1280.48</ele>
        <time>2020-07-21T08:21:10.000Z</time>
      </trkpt>
      <trkpt lat="42.9336132" lon="-5.704981">
        <ele>1280.33</ele>
        <time>2020-07-21T08:21:11.000Z</time>
      </trkpt>
      <trkpt lat="42.9336165" lon="-5.7049978">
        <ele>1280.33</ele>
        <time>2020-07-21T08:21:12.000Z</time>
      </trkpt>
      <trkpt lat="42.9336187" lon="-5.7050138">
        <ele>1280.18</ele>
        <time>2020-07-21T08:21:13.000Z</time>
      </trkpt>
      <trkpt lat="42.9336197" lon="-5.7050318">
        <ele>1280.18</ele>
        <time>2020-07-21T08:21:14.000Z</time>
      </trkpt>
      <trkpt lat="42.933621" lon="-5.7050498">
        <ele>1279.87</ele>
        <time>2020-07-21T08:21:15.000Z</time>
      </trkpt>
      <trkpt lat="42.9336218" lon="-5.7050702">
        <ele>1279.87</ele>
        <time>2020-07-21T08:21:16.000Z</time>
      </trkpt>
      <trkpt lat="42.9336228" lon="-5.7050897">
        <ele>1279.72</ele>
        <time>2020-07-21T08:21:17.000Z</time>
      </trkpt>
      <trkpt lat="42.9336233" lon="-5.7051103">
        <ele>1279.72</ele>
        <time>2020-07-21T08:21:18.000Z</time>
      </trkpt>
      <trkpt lat="42.9336228" lon="-5.7051285">
        <ele>1279.57</ele>
        <time>2020-07-21T08:21:19.000Z</time>
      </trkpt>
      <trkpt lat="42.933622" lon="-5.705145">
        <ele>1279.57</ele>
        <time>2020-07-21T08:21:20.000Z</time>
      </trkpt>
      <trkpt lat="42.933621" lon="-5.7051607">
        <ele>1279.41</ele>
        <time>2020-07-21T08:21:21.000Z</time>
      </trkpt>
      <trkpt lat="42.9336193" lon="-5.7051778">
        <ele>1279.41</ele>
        <time>2020-07-21T08:21:22.000Z</time>
      </trkpt>
      <trkpt lat="42.9336185" lon="-5.7051972">
        <ele>1279.26</ele>
        <time>2020-07-21T08:21:23.000Z</time>
      </trkpt>
      <trkpt lat="42.9336178" lon="-5.705215">
        <ele>1279.26</ele>
        <time>2020-07-21T08:21:24.000Z</time>
      </trkpt>
      <trkpt lat="42.9336172" lon="-5.7052317">
        <ele>1279.11</ele>
        <time>2020-07-21T08:21:25.000Z</time>
      </trkpt>
      <trkpt lat="42.9336152" lon="-5.7052462">
        <ele>1279.11</ele>
        <time>2020-07-21T08:21:26.000Z</time>
      </trkpt>
      <trkpt lat="42.933613" lon="-5.7052625">
        <ele>1279.11</ele>
        <time>2020-07-21T08:21:27.000Z</time>
      </trkpt>
      <trkpt lat="42.9336115" lon="-5.7052808">
        <ele>1279.11</ele>
        <time>2020-07-21T08:21:28.000Z</time>
      </trkpt>
      <trkpt lat="42.9336108" lon="-5.7053008">
        <ele>1278.96</ele>
        <time>2020-07-21T08:21:29.000Z</time>
      </trkpt>
      <trkpt lat="42.9336108" lon="-5.7053218">
        <ele>1278.96</ele>
        <time>2020-07-21T08:21:30.000Z</time>
      </trkpt>
      <trkpt lat="42.933612" lon="-5.7053408">
        <ele>1278.96</ele>
        <time>2020-07-21T08:21:31.000Z</time>
      </trkpt>
      <trkpt lat="42.9336128" lon="-5.7053597">
        <ele>1278.96</ele>
        <time>2020-07-21T08:21:32.000Z</time>
      </trkpt>
      <trkpt lat="42.9336123" lon="-5.7053765">
        <ele>1278.96</ele>
        <time>2020-07-21T08:21:33.000Z</time>
      </trkpt>
      <trkpt lat="42.9336097" lon="-5.705393">
        <ele>1278.96</ele>
        <time>2020-07-21T08:21:34.000Z</time>
      </trkpt>
      <trkpt lat="42.9336068" lon="-5.7054095">
        <ele>1278.96</ele>
        <time>2020-07-21T08:21:35.000Z</time>
      </trkpt>
      <trkpt lat="42.9336053" lon="-5.7054267">
        <ele>1278.96</ele>
        <time>2020-07-21T08:21:36.000Z</time>
      </trkpt>
      <trkpt lat="42.9336055" lon="-5.7054445">
        <ele>1278.96</ele>
        <time>2020-07-21T08:21:37.000Z</time>
      </trkpt>
      <trkpt lat="42.9336058" lon="-5.7054617">
        <ele>1278.96</ele>
        <time>2020-07-21T08:21:38.000Z</time>
      </trkpt>
      <trkpt lat="42.9336047" lon="-5.70548">
        <ele>1278.96</ele>
        <time>2020-07-21T08:21:39.000Z</time>
      </trkpt>
      <trkpt lat="42.9336027" lon="-5.7054977">
        <ele>1278.96</ele>
        <time>2020-07-21T08:21:40.000Z</time>
      </trkpt>
      <trkpt lat="42.9336017" lon="-5.7055148">
        <ele>1278.96</ele>
        <time>2020-07-21T08:21:41.000Z</time>
      </trkpt>
      <trkpt lat="42.9336022" lon="-5.7055323">
        <ele>1278.96</ele>
        <time>2020-07-21T08:21:42.000Z</time>
      </trkpt>
      <trkpt lat="42.9336032" lon="-5.705552">
        <ele>1278.96</ele>
        <time>2020-07-21T08:21:43.000Z</time>
      </trkpt>
      <trkpt lat="42.9336037" lon="-5.7055725">
        <ele>1278.96</ele>
        <time>2020-07-21T08:21:44.000Z</time>
      </trkpt>
      <trkpt lat="42.9336045" lon="-5.7055922">
        <ele>1278.96</ele>
        <time>2020-07-21T08:21:45.000Z</time>
      </trkpt>
      <trkpt lat="42.9336038" lon="-5.7056113">
        <ele>1278.96</ele>
        <time>2020-07-21T08:21:46.000Z</time>
      </trkpt>
      <trkpt lat="42.9336017" lon="-5.7056295">
        <ele>1278.96</ele>
        <time>2020-07-21T08:21:47.000Z</time>
      </trkpt>
      <trkpt lat="42.9335988" lon="-5.7056462">
        <ele>1278.96</ele>
        <time>2020-07-21T08:21:48.000Z</time>
      </trkpt>
      <trkpt lat="42.9335975" lon="-5.7056622">
        <ele>1278.96</ele>
        <time>2020-07-21T08:21:49.000Z</time>
      </trkpt>
      <trkpt lat="42.9335965" lon="-5.7056787">
        <ele>1278.96</ele>
        <time>2020-07-21T08:21:50.000Z</time>
      </trkpt>
      <trkpt lat="42.9335953" lon="-5.7056975">
        <ele>1278.96</ele>
        <time>2020-07-21T08:21:51.000Z</time>
      </trkpt>
      <trkpt lat="42.9335945" lon="-5.7057158">
        <ele>1278.96</ele>
        <time>2020-07-21T08:21:52.000Z</time>
      </trkpt>
      <trkpt lat="42.9335937" lon="-5.7057333">
        <ele>1278.96</ele>
        <time>2020-07-21T08:21:53.000Z</time>
      </trkpt>
      <trkpt lat="42.9335938" lon="-5.70575">
        <ele>1278.96</ele>
        <time>2020-07-21T08:21:54.000Z</time>
      </trkpt>
      <trkpt lat="42.9335933" lon="-5.7057655">
        <ele>1278.96</ele>
        <time>2020-07-21T08:21:55.000Z</time>
      </trkpt>
      <trkpt lat="42.9335925" lon="-5.7057823">
        <ele>1278.96</ele>
        <time>2020-07-21T08:21:56.000Z</time>
      </trkpt>
      <trkpt lat="42.9335905" lon="-5.7057992">
        <ele>1278.96</ele>
        <time>2020-07-21T08:21:57.000Z</time>
      </trkpt>
      <trkpt lat="42.9335888" lon="-5.7058185">
        <ele>1278.96</ele>
        <time>2020-07-21T08:21:58.000Z</time>
      </trkpt>
      <trkpt lat="42.9335875" lon="-5.7058367">
        <ele>1279.11</ele>
        <time>2020-07-21T08:21:59.000Z</time>
      </trkpt>
      <trkpt lat="42.9335865" lon="-5.7058542">
        <ele>1279.11</ele>
        <time>2020-07-21T08:22:00.000Z</time>
      </trkpt>
      <trkpt lat="42.9335853" lon="-5.7058692">
        <ele>1279.11</ele>
        <time>2020-07-21T08:22:01.000Z</time>
      </trkpt>
      <trkpt lat="42.9335843" lon="-5.7058865">
        <ele>1279.11</ele>
        <time>2020-07-21T08:22:02.000Z</time>
      </trkpt>
      <trkpt lat="42.9335823" lon="-5.7059047">
        <ele>1279.11</ele>
        <time>2020-07-21T08:22:03.000Z</time>
      </trkpt>
      <trkpt lat="42.9335808" lon="-5.705926">
        <ele>1279.11</ele>
        <time>2020-07-21T08:22:04.000Z</time>
      </trkpt>
      <trkpt lat="42.933579" lon="-5.7059465">
        <ele>1279.11</ele>
        <time>2020-07-21T08:22:05.000Z</time>
      </trkpt>
      <trkpt lat="42.9335777" lon="-5.7059677">
        <ele>1279.11</ele>
        <time>2020-07-21T08:22:06.000Z</time>
      </trkpt>
      <trkpt lat="42.9335762" lon="-5.705985">
        <ele>1279.11</ele>
        <time>2020-07-21T08:22:07.000Z</time>
      </trkpt>
      <trkpt lat="42.933575" lon="-5.7060012">
        <ele>1279.11</ele>
        <time>2020-07-21T08:22:08.000Z</time>
      </trkpt>
      <trkpt lat="42.9335755" lon="-5.7060168">
        <ele>1279.11</ele>
        <time>2020-07-21T08:22:09.000Z</time>
      </trkpt>
      <trkpt lat="42.9335763" lon="-5.7060362">
        <ele>1279.11</ele>
        <time>2020-07-21T08:22:10.000Z</time>
      </trkpt>
      <trkpt lat="42.9335778" lon="-5.7060578">
        <ele>1279.26</ele>
        <time>2020-07-21T08:22:11.000Z</time>
      </trkpt>
      <trkpt lat="42.93358" lon="-5.70608">
        <ele>1279.26</ele>
        <time>2020-07-21T08:22:12.000Z</time>
      </trkpt>
      <trkpt lat="42.9335822" lon="-5.7061005">
        <ele>1279.26</ele>
        <time>2020-07-21T08:22:13.000Z</time>
      </trkpt>
      <trkpt lat="42.9335835" lon="-5.7061197">
        <ele>1279.26</ele>
        <time>2020-07-21T08:22:14.000Z</time>
      </trkpt>
      <trkpt lat="42.9335835" lon="-5.7061367">
        <ele>1279.26</ele>
        <time>2020-07-21T08:22:15.000Z</time>
      </trkpt>
      <trkpt lat="42.9335837" lon="-5.706153">
        <ele>1279.26</ele>
        <time>2020-07-21T08:22:16.000Z</time>
      </trkpt>
      <trkpt lat="42.9335857" lon="-5.7061697">
        <ele>1279.26</ele>
        <time>2020-07-21T08:22:17.000Z</time>
      </trkpt>
      <trkpt lat="42.9335893" lon="-5.7061892">
        <ele>1279.26</ele>
        <time>2020-07-21T08:22:18.000Z</time>
      </trkpt>
      <trkpt lat="42.9335928" lon="-5.7062093">
        <ele>1279.26</ele>
        <time>2020-07-21T08:22:19.000Z</time>
      </trkpt>
      <trkpt lat="42.9335963" lon="-5.7062282">
        <ele>1279.26</ele>
        <time>2020-07-21T08:22:20.000Z</time>
      </trkpt>
      <trkpt lat="42.9335992" lon="-5.7062448">
        <ele>1279.26</ele>
        <time>2020-07-21T08:22:21.000Z</time>
      </trkpt>
      <trkpt lat="42.9336027" lon="-5.7062615">
        <ele>1279.26</ele>
        <time>2020-07-21T08:22:22.000Z</time>
      </trkpt>
      <trkpt lat="42.9336068" lon="-5.7062788">
        <ele>1279.26</ele>
        <time>2020-07-21T08:22:23.000Z</time>
      </trkpt>
      <trkpt lat="42.9336112" lon="-5.7062967">
        <ele>1279.26</ele>
        <time>2020-07-21T08:22:24.000Z</time>
      </trkpt>
      <trkpt lat="42.9336158" lon="-5.7063135">
        <ele>1279.26</ele>
        <time>2020-07-21T08:22:25.000Z</time>
      </trkpt>
      <trkpt lat="42.9336203" lon="-5.7063302">
        <ele>1279.26</ele>
        <time>2020-07-21T08:22:26.000Z</time>
      </trkpt>
      <trkpt lat="42.9336247" lon="-5.706346">
        <ele>1279.26</ele>
        <time>2020-07-21T08:22:27.000Z</time>
      </trkpt>
      <trkpt lat="42.9336292" lon="-5.7063622">
        <ele>1279.26</ele>
        <time>2020-07-21T08:22:28.000Z</time>
      </trkpt>
      <trkpt lat="42.9336342" lon="-5.706377">
        <ele>1279.26</ele>
        <time>2020-07-21T08:22:29.000Z</time>
      </trkpt>
      <trkpt lat="42.93364" lon="-5.7063913">
        <ele>1279.26</ele>
        <time>2020-07-21T08:22:30.000Z</time>
      </trkpt>
      <trkpt lat="42.9336465" lon="-5.7064058">
        <ele>1279.26</ele>
        <time>2020-07-21T08:22:31.000Z</time>
      </trkpt>
      <trkpt lat="42.9336533" lon="-5.706421">
        <ele>1279.26</ele>
        <time>2020-07-21T08:22:32.000Z</time>
      </trkpt>
      <trkpt lat="42.93366" lon="-5.7064363">
        <ele>1279.26</ele>
        <time>2020-07-21T08:22:33.000Z</time>
      </trkpt>
      <trkpt lat="42.933667" lon="-5.7064517">
        <ele>1279.26</ele>
        <time>2020-07-21T08:22:34.000Z</time>
      </trkpt>
      <trkpt lat="42.933674" lon="-5.7064668">
        <ele>1279.26</ele>
        <time>2020-07-21T08:22:35.000Z</time>
      </trkpt>
      <trkpt lat="42.9336802" lon="-5.7064818">
        <ele>1279.26</ele>
        <time>2020-07-21T08:22:36.000Z</time>
      </trkpt>
      <trkpt lat="42.9336873" lon="-5.7064977">
        <ele>1279.26</ele>
        <time>2020-07-21T08:22:37.000Z</time>
      </trkpt>
      <trkpt lat="42.9336958" lon="-5.7065128">
        <ele>1279.26</ele>
        <time>2020-07-21T08:22:38.000Z</time>
      </trkpt>
      <trkpt lat="42.933707" lon="-5.7065285">
        <ele>1279.41</ele>
        <time>2020-07-21T08:22:39.000Z</time>
      </trkpt>
      <trkpt lat="42.9337187" lon="-5.706544">
        <ele>1279.41</ele>
        <time>2020-07-21T08:22:40.000Z</time>
      </trkpt>
      <trkpt lat="42.9337305" lon="-5.7065583">
        <ele>1279.41</ele>
        <time>2020-07-21T08:22:41.000Z</time>
      </trkpt>
      <trkpt lat="42.933741" lon="-5.7065708">
        <ele>1279.41</ele>
        <time>2020-07-21T08:22:42.000Z</time>
      </trkpt>
      <trkpt lat="42.9337513" lon="-5.7065823">
        <ele>1279.41</ele>
        <time>2020-07-21T08:22:43.000Z</time>
      </trkpt>
      <trkpt lat="42.9337608" lon="-5.7065922">
        <ele>1279.41</ele>
        <time>2020-07-21T08:22:44.000Z</time>
      </trkpt>
      <trkpt lat="42.9337715" lon="-5.706602">
        <ele>1279.41</ele>
        <time>2020-07-21T08:22:45.000Z</time>
      </trkpt>
      <trkpt lat="42.9337828" lon="-5.7066113">
        <ele>1279.41</ele>
        <time>2020-07-21T08:22:46.000Z</time>
      </trkpt>
      <trkpt lat="42.9337957" lon="-5.7066215">
        <ele>1279.41</ele>
        <time>2020-07-21T08:22:47.000Z</time>
      </trkpt>
      <trkpt lat="42.9338087" lon="-5.7066308">
        <ele>1279.41</ele>
        <time>2020-07-21T08:22:48.000Z</time>
      </trkpt>
      <trkpt lat="42.9338203" lon="-5.7066388">
        <ele>1279.41</ele>
        <time>2020-07-21T08:22:49.000Z</time>
      </trkpt>
      <trkpt lat="42.9338308" lon="-5.7066458">
        <ele>1279.41</ele>
        <time>2020-07-21T08:22:50.000Z</time>
      </trkpt>
      <trkpt lat="42.933842" lon="-5.7066498">
        <ele>1279.41</ele>
        <time>2020-07-21T08:22:51.000Z</time>
      </trkpt>
      <trkpt lat="42.9338552" lon="-5.7066535">
        <ele>1279.41</ele>
        <time>2020-07-21T08:22:52.000Z</time>
      </trkpt>
      <trkpt lat="42.9338697" lon="-5.706657">
        <ele>1279.41</ele>
        <time>2020-07-21T08:22:53.000Z</time>
      </trkpt>
      <trkpt lat="42.9338843" lon="-5.7066618">
        <ele>1279.41</ele>
        <time>2020-07-21T08:22:54.000Z</time>
      </trkpt>
      <trkpt lat="42.9338982" lon="-5.7066662">
        <ele>1279.41</ele>
        <time>2020-07-21T08:22:55.000Z</time>
      </trkpt>
      <trkpt lat="42.9339118" lon="-5.7066663">
        <ele>1279.41</ele>
        <time>2020-07-21T08:22:56.000Z</time>
      </trkpt>
      <trkpt lat="42.9339252" lon="-5.7066647">
        <ele>1279.41</ele>
        <time>2020-07-21T08:22:57.000Z</time>
      </trkpt>
      <trkpt lat="42.9339388" lon="-5.7066605">
        <ele>1279.41</ele>
        <time>2020-07-21T08:22:58.000Z</time>
      </trkpt>
      <trkpt lat="42.9339522" lon="-5.7066558">
        <ele>1279.26</ele>
        <time>2020-07-21T08:22:59.000Z</time>
      </trkpt>
      <trkpt lat="42.9339658" lon="-5.7066508">
        <ele>1279.26</ele>
        <time>2020-07-21T08:23:00.000Z</time>
      </trkpt>
      <trkpt lat="42.9339795" lon="-5.7066462">
        <ele>1279.26</ele>
        <time>2020-07-21T08:23:01.000Z</time>
      </trkpt>
      <trkpt lat="42.9339935" lon="-5.706642">
        <ele>1279.26</ele>
        <time>2020-07-21T08:23:02.000Z</time>
      </trkpt>
      <trkpt lat="42.9340073" lon="-5.7066377">
        <ele>1279.26</ele>
        <time>2020-07-21T08:23:03.000Z</time>
      </trkpt>
      <trkpt lat="42.9340213" lon="-5.7066323">
        <ele>1279.26</ele>
        <time>2020-07-21T08:23:04.000Z</time>
      </trkpt>
      <trkpt lat="42.9340345" lon="-5.7066268">
        <ele>1279.26</ele>
        <time>2020-07-21T08:23:05.000Z</time>
      </trkpt>
      <trkpt lat="42.9340475" lon="-5.7066202">
        <ele>1279.26</ele>
        <time>2020-07-21T08:23:06.000Z</time>
      </trkpt>
      <trkpt lat="42.934061" lon="-5.7066113">
        <ele>1279.11</ele>
        <time>2020-07-21T08:23:07.000Z</time>
      </trkpt>
      <trkpt lat="42.9340742" lon="-5.7066018">
        <ele>1279.11</ele>
        <time>2020-07-21T08:23:08.000Z</time>
      </trkpt>
      <trkpt lat="42.9340875" lon="-5.7065917">
        <ele>1279.11</ele>
        <time>2020-07-21T08:23:09.000Z</time>
      </trkpt>
      <trkpt lat="42.9340997" lon="-5.7065833">
        <ele>1279.11</ele>
        <time>2020-07-21T08:23:10.000Z</time>
      </trkpt>
      <trkpt lat="42.934112" lon="-5.7065758">
        <ele>1278.96</ele>
        <time>2020-07-21T08:23:11.000Z</time>
      </trkpt>
      <trkpt lat="42.934124" lon="-5.7065695">
        <ele>1278.96</ele>
        <time>2020-07-21T08:23:12.000Z</time>
      </trkpt>
      <trkpt lat="42.9341363" lon="-5.7065632">
        <ele>1278.96</ele>
        <time>2020-07-21T08:23:13.000Z</time>
      </trkpt>
      <trkpt lat="42.9341488" lon="-5.7065557">
        <ele>1278.96</ele>
        <time>2020-07-21T08:23:14.000Z</time>
      </trkpt>
      <trkpt lat="42.9341622" lon="-5.7065472">
        <ele>1278.8</ele>
        <time>2020-07-21T08:23:15.000Z</time>
      </trkpt>
      <trkpt lat="42.9341752" lon="-5.7065367">
        <ele>1278.8</ele>
        <time>2020-07-21T08:23:16.000Z</time>
      </trkpt>
      <trkpt lat="42.9341878" lon="-5.7065275">
        <ele>1278.65</ele>
        <time>2020-07-21T08:23:17.000Z</time>
      </trkpt>
      <trkpt lat="42.9341997" lon="-5.7065198">
        <ele>1278.65</ele>
        <time>2020-07-21T08:23:18.000Z</time>
      </trkpt>
      <trkpt lat="42.934211" lon="-5.7065145">
        <ele>1278.5</ele>
        <time>2020-07-21T08:23:19.000Z</time>
      </trkpt>
      <trkpt lat="42.934223" lon="-5.7065085">
        <ele>1278.5</ele>
        <time>2020-07-21T08:23:20.000Z</time>
      </trkpt>
      <trkpt lat="42.934235" lon="-5.7065018">
        <ele>1278.5</ele>
        <time>2020-07-21T08:23:21.000Z</time>
      </trkpt>
      <trkpt lat="42.9342472" lon="-5.7064937">
        <ele>1278.5</ele>
        <time>2020-07-21T08:23:22.000Z</time>
      </trkpt>
      <trkpt lat="42.934258" lon="-5.7064857">
        <ele>1278.35</ele>
        <time>2020-07-21T08:23:23.000Z</time>
      </trkpt>
      <trkpt lat="42.9342693" lon="-5.7064782">
        <ele>1278.35</ele>
        <time>2020-07-21T08:23:24.000Z</time>
      </trkpt>
      <trkpt lat="42.9342807" lon="-5.7064718">
        <ele>1278.19</ele>
        <time>2020-07-21T08:23:25.000Z</time>
      </trkpt>
      <trkpt lat="42.9342925" lon="-5.706466">
        <ele>1278.19</ele>
        <time>2020-07-21T08:23:26.000Z</time>
      </trkpt>
      <trkpt lat="42.9343032" lon="-5.70646">
        <ele>1278.04</ele>
        <time>2020-07-21T08:23:27.000Z</time>
      </trkpt>
      <trkpt lat="42.9343137" lon="-5.7064553">
        <ele>1278.04</ele>
        <time>2020-07-21T08:23:28.000Z</time>
      </trkpt>
      <trkpt lat="42.934325" lon="-5.7064527">
        <ele>1277.89</ele>
        <time>2020-07-21T08:23:29.000Z</time>
      </trkpt>
      <trkpt lat="42.9343368" lon="-5.7064513">
        <ele>1277.89</ele>
        <time>2020-07-21T08:23:30.000Z</time>
      </trkpt>
      <trkpt lat="42.9343498" lon="-5.7064498">
        <ele>1277.89</ele>
        <time>2020-07-21T08:23:31.000Z</time>
      </trkpt>
      <trkpt lat="42.934363" lon="-5.7064478">
        <ele>1277.89</ele>
        <time>2020-07-21T08:23:32.000Z</time>
      </trkpt>
      <trkpt lat="42.9343767" lon="-5.7064463">
        <ele>1277.74</ele>
        <time>2020-07-21T08:23:33.000Z</time>
      </trkpt>
      <trkpt lat="42.9343897" lon="-5.7064453">
        <ele>1277.74</ele>
        <time>2020-07-21T08:23:34.000Z</time>
      </trkpt>
      <trkpt lat="42.9344027" lon="-5.7064453">
        <ele>1277.58</ele>
        <time>2020-07-21T08:23:35.000Z</time>
      </trkpt>
      <trkpt lat="42.9344158" lon="-5.7064458">
        <ele>1277.58</ele>
        <time>2020-07-21T08:23:36.000Z</time>
      </trkpt>
      <trkpt lat="42.9344293" lon="-5.706447">
        <ele>1277.58</ele>
        <time>2020-07-21T08:23:37.000Z</time>
      </trkpt>
      <trkpt lat="42.9344428" lon="-5.706448">
        <ele>1277.58</ele>
        <time>2020-07-21T08:23:38.000Z</time>
      </trkpt>
      <trkpt lat="42.9344563" lon="-5.7064492">
        <ele>1277.43</ele>
        <time>2020-07-21T08:23:39.000Z</time>
      </trkpt>
      <trkpt lat="42.9344703" lon="-5.7064502">
        <ele>1277.43</ele>
        <time>2020-07-21T08:23:40.000Z</time>
      </trkpt>
      <trkpt lat="42.934484" lon="-5.7064517">
        <ele>1277.43</ele>
        <time>2020-07-21T08:23:41.000Z</time>
      </trkpt>
      <trkpt lat="42.9344973" lon="-5.7064537">
        <ele>1277.43</ele>
        <time>2020-07-21T08:23:42.000Z</time>
      </trkpt>
      <trkpt lat="42.9345113" lon="-5.7064553">
        <ele>1277.28</ele>
        <time>2020-07-21T08:23:43.000Z</time>
      </trkpt>
      <trkpt lat="42.9345262" lon="-5.7064555">
        <ele>1277.28</ele>
        <time>2020-07-21T08:23:44.000Z</time>
      </trkpt>
      <trkpt lat="42.9345413" lon="-5.7064555">
        <ele>1277.28</ele>
        <time>2020-07-21T08:23:45.000Z</time>
      </trkpt>
      <trkpt lat="42.9345562" lon="-5.706456">
        <ele>1277.28</ele>
        <time>2020-07-21T08:23:46.000Z</time>
      </trkpt>
      <trkpt lat="42.93457" lon="-5.7064585">
        <ele>1277.28</ele>
        <time>2020-07-21T08:23:47.000Z</time>
      </trkpt>
      <trkpt lat="42.9345832" lon="-5.7064617">
        <ele>1277.28</ele>
        <time>2020-07-21T08:23:48.000Z</time>
      </trkpt>
      <trkpt lat="42.9345965" lon="-5.7064652">
        <ele>1277.28</ele>
        <time>2020-07-21T08:23:49.000Z</time>
      </trkpt>
      <trkpt lat="42.9346098" lon="-5.7064687">
        <ele>1277.28</ele>
        <time>2020-07-21T08:23:50.000Z</time>
      </trkpt>
      <trkpt lat="42.9346237" lon="-5.7064722">
        <ele>1277.13</ele>
        <time>2020-07-21T08:23:51.000Z</time>
      </trkpt>
      <trkpt lat="42.934637" lon="-5.7064753">
        <ele>1277.13</ele>
        <time>2020-07-21T08:23:52.000Z</time>
      </trkpt>
      <trkpt lat="42.9346502" lon="-5.7064783">
        <ele>1277.13</ele>
        <time>2020-07-21T08:23:53.000Z</time>
      </trkpt>
      <trkpt lat="42.9346627" lon="-5.7064827">
        <ele>1277.13</ele>
        <time>2020-07-21T08:23:54.000Z</time>
      </trkpt>
      <trkpt lat="42.9346742" lon="-5.7064882">
        <ele>1277.13</ele>
        <time>2020-07-21T08:23:55.000Z</time>
      </trkpt>
      <trkpt lat="42.9346855" lon="-5.706495">
        <ele>1277.13</ele>
        <time>2020-07-21T08:23:56.000Z</time>
      </trkpt>
      <trkpt lat="42.9346978" lon="-5.7065005">
        <ele>1277.13</ele>
        <time>2020-07-21T08:23:57.000Z</time>
      </trkpt>
      <trkpt lat="42.9347112" lon="-5.706507">
        <ele>1277.13</ele>
        <time>2020-07-21T08:23:58.000Z</time>
      </trkpt>
      <trkpt lat="42.934725" lon="-5.706514">
        <ele>1276.97</ele>
        <time>2020-07-21T08:23:59.000Z</time>
      </trkpt>
      <trkpt lat="42.9347387" lon="-5.7065203">
        <ele>1276.97</ele>
        <time>2020-07-21T08:24:00.000Z</time>
      </trkpt>
      <trkpt lat="42.934752" lon="-5.706527">
        <ele>1276.97</ele>
        <time>2020-07-21T08:24:01.000Z</time>
      </trkpt>
      <trkpt lat="42.9347648" lon="-5.7065333">
        <ele>1276.97</ele>
        <time>2020-07-21T08:24:02.000Z</time>
      </trkpt>
      <trkpt lat="42.934777" lon="-5.7065423">
        <ele>1276.97</ele>
        <time>2020-07-21T08:24:03.000Z</time>
      </trkpt>
      <trkpt lat="42.9347895" lon="-5.7065502">
        <ele>1276.97</ele>
        <time>2020-07-21T08:24:04.000Z</time>
      </trkpt>
      <trkpt lat="42.9348017" lon="-5.7065565">
        <ele>1276.82</ele>
        <time>2020-07-21T08:24:05.000Z</time>
      </trkpt>
      <trkpt lat="42.9348143" lon="-5.706561">
        <ele>1276.82</ele>
        <time>2020-07-21T08:24:06.000Z</time>
      </trkpt>
      <trkpt lat="42.9348267" lon="-5.7065663">
        <ele>1276.82</ele>
        <time>2020-07-21T08:24:07.000Z</time>
      </trkpt>
      <trkpt lat="42.9348385" lon="-5.7065737">
        <ele>1276.82</ele>
        <time>2020-07-21T08:24:08.000Z</time>
      </trkpt>
      <trkpt lat="42.9348497" lon="-5.7065825">
        <ele>1276.67</ele>
        <time>2020-07-21T08:24:09.000Z</time>
      </trkpt>
      <trkpt lat="42.9348617" lon="-5.7065915">
        <ele>1276.67</ele>
        <time>2020-07-21T08:24:10.000Z</time>
      </trkpt>
      <trkpt lat="42.9348735" lon="-5.7065998">
        <ele>1276.67</ele>
        <time>2020-07-21T08:24:11.000Z</time>
      </trkpt>
      <trkpt lat="42.934885" lon="-5.7066087">
        <ele>1276.67</ele>
        <time>2020-07-21T08:24:12.000Z</time>
      </trkpt>
      <trkpt lat="42.9348957" lon="-5.706619">
        <ele>1276.67</ele>
        <time>2020-07-21T08:24:13.000Z</time>
      </trkpt>
      <trkpt lat="42.9349068" lon="-5.7066307">
        <ele>1276.67</ele>
        <time>2020-07-21T08:24:14.000Z</time>
      </trkpt>
      <trkpt lat="42.9349178" lon="-5.7066422">
        <ele>1276.52</ele>
        <time>2020-07-21T08:24:15.000Z</time>
      </trkpt>
      <trkpt lat="42.9349295" lon="-5.7066538">
        <ele>1276.52</ele>
        <time>2020-07-21T08:24:16.000Z</time>
      </trkpt>
      <trkpt lat="42.9349408" lon="-5.7066657">
        <ele>1276.52</ele>
        <time>2020-07-21T08:24:17.000Z</time>
      </trkpt>
      <trkpt lat="42.9349523" lon="-5.7066775">
        <ele>1276.52</ele>
        <time>2020-07-21T08:24:18.000Z</time>
      </trkpt>
      <trkpt lat="42.9349635" lon="-5.7066887">
        <ele>1276.36</ele>
        <time>2020-07-21T08:24:19.000Z</time>
      </trkpt>
      <trkpt lat="42.9349742" lon="-5.7067002">
        <ele>1276.36</ele>
        <time>2020-07-21T08:24:20.000Z</time>
      </trkpt>
      <trkpt lat="42.9349843" lon="-5.7067127">
        <ele>1276.36</ele>
        <time>2020-07-21T08:24:21.000Z</time>
      </trkpt>
      <trkpt lat="42.9349938" lon="-5.7067252">
        <ele>1276.36</ele>
        <time>2020-07-21T08:24:22.000Z</time>
      </trkpt>
      <trkpt lat="42.9350037" lon="-5.7067372">
        <ele>1276.21</ele>
        <time>2020-07-21T08:24:23.000Z</time>
      </trkpt>
      <trkpt lat="42.9350132" lon="-5.7067492">
        <ele>1276.21</ele>
        <time>2020-07-21T08:24:24.000Z</time>
      </trkpt>
      <trkpt lat="42.9350228" lon="-5.7067613">
        <ele>1276.21</ele>
        <time>2020-07-21T08:24:25.000Z</time>
      </trkpt>
      <trkpt lat="42.9350323" lon="-5.7067745">
        <ele>1276.21</ele>
        <time>2020-07-21T08:24:26.000Z</time>
      </trkpt>
      <trkpt lat="42.9350423" lon="-5.7067882">
        <ele>1276.21</ele>
        <time>2020-07-21T08:24:27.000Z</time>
      </trkpt>
      <trkpt lat="42.9350527" lon="-5.7068025">
        <ele>1276.21</ele>
        <time>2020-07-21T08:24:28.000Z</time>
      </trkpt>
      <trkpt lat="42.9350627" lon="-5.7068167">
        <ele>1276.06</ele>
        <time>2020-07-21T08:24:29.000Z</time>
      </trkpt>
      <trkpt lat="42.9350722" lon="-5.7068302">
        <ele>1276.06</ele>
        <time>2020-07-21T08:24:30.000Z</time>
      </trkpt>
      <trkpt lat="42.9350815" lon="-5.7068428">
        <ele>1276.06</ele>
        <time>2020-07-21T08:24:31.000Z</time>
      </trkpt>
      <trkpt lat="42.9350913" lon="-5.7068552">
        <ele>1276.06</ele>
        <time>2020-07-21T08:24:32.000Z</time>
      </trkpt>
      <trkpt lat="42.9351015" lon="-5.7068672">
        <ele>1276.06</ele>
        <time>2020-07-21T08:24:33.000Z</time>
      </trkpt>
      <trkpt lat="42.9351113" lon="-5.7068795">
        <ele>1276.06</ele>
        <time>2020-07-21T08:24:34.000Z</time>
      </trkpt>
      <trkpt lat="42.9351208" lon="-5.706892">
        <ele>1275.91</ele>
        <time>2020-07-21T08:24:35.000Z</time>
      </trkpt>
      <trkpt lat="42.93513" lon="-5.7069053">
        <ele>1275.91</ele>
        <time>2020-07-21T08:24:36.000Z</time>
      </trkpt>
      <trkpt lat="42.935139" lon="-5.7069185">
        <ele>1275.91</ele>
        <time>2020-07-21T08:24:37.000Z</time>
      </trkpt>
      <trkpt lat="42.9351475" lon="-5.7069313">
        <ele>1275.91</ele>
        <time>2020-07-21T08:24:38.000Z</time>
      </trkpt>
      <trkpt lat="42.9351562" lon="-5.7069438">
        <ele>1275.91</ele>
        <time>2020-07-21T08:24:39.000Z</time>
      </trkpt>
      <trkpt lat="42.9351647" lon="-5.7069568">
        <ele>1275.91</ele>
        <time>2020-07-21T08:24:40.000Z</time>
      </trkpt>
      <trkpt lat="42.9351728" lon="-5.7069703">
        <ele>1275.76</ele>
        <time>2020-07-21T08:24:41.000Z</time>
      </trkpt>
      <trkpt lat="42.9351807" lon="-5.7069842">
        <ele>1275.76</ele>
        <time>2020-07-21T08:24:42.000Z</time>
      </trkpt>
      <trkpt lat="42.935189" lon="-5.7069983">
        <ele>1275.76</ele>
        <time>2020-07-21T08:24:43.000Z</time>
      </trkpt>
      <trkpt lat="42.9351967" lon="-5.7070123">
        <ele>1275.76</ele>
        <time>2020-07-21T08:24:44.000Z</time>
      </trkpt>
      <trkpt lat="42.935204" lon="-5.707027">
        <ele>1275.76</ele>
        <time>2020-07-21T08:24:45.000Z</time>
      </trkpt>
      <trkpt lat="42.9352103" lon="-5.7070425">
        <ele>1275.76</ele>
        <time>2020-07-21T08:24:46.000Z</time>
      </trkpt>
      <trkpt lat="42.9352167" lon="-5.7070585">
        <ele>1275.6</ele>
        <time>2020-07-21T08:24:47.000Z</time>
      </trkpt>
      <trkpt lat="42.9352233" lon="-5.7070738">
        <ele>1275.6</ele>
        <time>2020-07-21T08:24:48.000Z</time>
      </trkpt>
      <trkpt lat="42.9352293" lon="-5.7070887">
        <ele>1275.6</ele>
        <time>2020-07-21T08:24:49.000Z</time>
      </trkpt>
      <trkpt lat="42.935234" lon="-5.7071043">
        <ele>1275.6</ele>
        <time>2020-07-21T08:24:50.000Z</time>
      </trkpt>
      <trkpt lat="42.935238" lon="-5.7071212">
        <ele>1275.6</ele>
        <time>2020-07-21T08:24:51.000Z</time>
      </trkpt>
      <trkpt lat="42.9352423" lon="-5.7071387">
        <ele>1275.6</ele>
        <time>2020-07-21T08:24:52.000Z</time>
      </trkpt>
      <trkpt lat="42.9352473" lon="-5.7071563">
        <ele>1275.45</ele>
        <time>2020-07-21T08:24:53.000Z</time>
      </trkpt>
      <trkpt lat="42.9352515" lon="-5.7071737">
        <ele>1275.45</ele>
        <time>2020-07-21T08:24:54.000Z</time>
      </trkpt>
      <trkpt lat="42.9352547" lon="-5.7071917">
        <ele>1275.45</ele>
        <time>2020-07-21T08:24:55.000Z</time>
      </trkpt>
      <trkpt lat="42.9352563" lon="-5.7072093">
        <ele>1275.45</ele>
        <time>2020-07-21T08:24:56.000Z</time>
      </trkpt>
      <trkpt lat="42.935257" lon="-5.7072275">
        <ele>1275.45</ele>
        <time>2020-07-21T08:24:57.000Z</time>
      </trkpt>
      <trkpt lat="42.935257" lon="-5.7072453">
        <ele>1275.45</ele>
        <time>2020-07-21T08:24:58.000Z</time>
      </trkpt>
      <trkpt lat="42.9352567" lon="-5.7072633">
        <ele>1275.45</ele>
        <time>2020-07-21T08:24:59.000Z</time>
      </trkpt>
      <trkpt lat="42.9352555" lon="-5.7072812">
        <ele>1275.45</ele>
        <time>2020-07-21T08:25:00.000Z</time>
      </trkpt>
      <trkpt lat="42.9352533" lon="-5.7072988">
        <ele>1275.3</ele>
        <time>2020-07-21T08:25:01.000Z</time>
      </trkpt>
      <trkpt lat="42.935251" lon="-5.7073165">
        <ele>1275.3</ele>
        <time>2020-07-21T08:25:02.000Z</time>
      </trkpt>
      <trkpt lat="42.9352473" lon="-5.7073335">
        <ele>1275.3</ele>
        <time>2020-07-21T08:25:03.000Z</time>
      </trkpt>
      <trkpt lat="42.9352432" lon="-5.707351">
        <ele>1275.3</ele>
        <time>2020-07-21T08:25:04.000Z</time>
      </trkpt>
      <trkpt lat="42.9352387" lon="-5.7073687">
        <ele>1275.3</ele>
        <time>2020-07-21T08:25:05.000Z</time>
      </trkpt>
      <trkpt lat="42.9352338" lon="-5.707386">
        <ele>1275.3</ele>
        <time>2020-07-21T08:25:06.000Z</time>
      </trkpt>
      <trkpt lat="42.9352283" lon="-5.7074027">
        <ele>1275.3</ele>
        <time>2020-07-21T08:25:07.000Z</time>
      </trkpt>
      <trkpt lat="42.9352223" lon="-5.707419">
        <ele>1275.3</ele>
        <time>2020-07-21T08:25:08.000Z</time>
      </trkpt>
      <trkpt lat="42.9352168" lon="-5.7074355">
        <ele>1275.3</ele>
        <time>2020-07-21T08:25:09.000Z</time>
      </trkpt>
      <trkpt lat="42.9352112" lon="-5.707452">
        <ele>1275.3</ele>
        <time>2020-07-21T08:25:10.000Z</time>
      </trkpt>
      <trkpt lat="42.9352043" lon="-5.7074678">
        <ele>1275.3</ele>
        <time>2020-07-21T08:25:11.000Z</time>
      </trkpt>
      <trkpt lat="42.9351965" lon="-5.7074833">
        <ele>1275.3</ele>
        <time>2020-07-21T08:25:12.000Z</time>
      </trkpt>
      <trkpt lat="42.9351882" lon="-5.7074988">
        <ele>1275.3</ele>
        <time>2020-07-21T08:25:13.000Z</time>
      </trkpt>
      <trkpt lat="42.9351793" lon="-5.7075133">
        <ele>1275.3</ele>
        <time>2020-07-21T08:25:14.000Z</time>
      </trkpt>
      <trkpt lat="42.9351705" lon="-5.7075277">
        <ele>1275.3</ele>
        <time>2020-07-21T08:25:15.000Z</time>
      </trkpt>
      <trkpt lat="42.9351618" lon="-5.707543">
        <ele>1275.3</ele>
        <time>2020-07-21T08:25:16.000Z</time>
      </trkpt>
      <trkpt lat="42.9351535" lon="-5.70756">
        <ele>1275.3</ele>
        <time>2020-07-21T08:25:17.000Z</time>
      </trkpt>
      <trkpt lat="42.9351463" lon="-5.7075757">
        <ele>1275.3</ele>
        <time>2020-07-21T08:25:18.000Z</time>
      </trkpt>
      <trkpt lat="42.9351382" lon="-5.7075915">
        <ele>1275.3</ele>
        <time>2020-07-21T08:25:19.000Z</time>
      </trkpt>
      <trkpt lat="42.9351293" lon="-5.7076067">
        <ele>1275.3</ele>
        <time>2020-07-21T08:25:20.000Z</time>
      </trkpt>
      <trkpt lat="42.935119" lon="-5.707623">
        <ele>1275.3</ele>
        <time>2020-07-21T08:25:21.000Z</time>
      </trkpt>
      <trkpt lat="42.9351097" lon="-5.7076385">
        <ele>1275.3</ele>
        <time>2020-07-21T08:25:22.000Z</time>
      </trkpt>
      <trkpt lat="42.9351008" lon="-5.7076548">
        <ele>1275.3</ele>
        <time>2020-07-21T08:25:23.000Z</time>
      </trkpt>
      <trkpt lat="42.9350917" lon="-5.7076713">
        <ele>1275.3</ele>
        <time>2020-07-21T08:25:24.000Z</time>
      </trkpt>
      <trkpt lat="42.9350822" lon="-5.7076867">
        <ele>1275.45</ele>
        <time>2020-07-21T08:25:25.000Z</time>
      </trkpt>
      <trkpt lat="42.9350727" lon="-5.707701">
        <ele>1275.45</ele>
        <time>2020-07-21T08:25:26.000Z</time>
      </trkpt>
      <trkpt lat="42.9350632" lon="-5.7077152">
        <ele>1275.45</ele>
        <time>2020-07-21T08:25:27.000Z</time>
      </trkpt>
      <trkpt lat="42.9350537" lon="-5.70773">
        <ele>1275.45</ele>
        <time>2020-07-21T08:25:28.000Z</time>
      </trkpt>
      <trkpt lat="42.9350448" lon="-5.7077462">
        <ele>1275.45</ele>
        <time>2020-07-21T08:25:29.000Z</time>
      </trkpt>
      <trkpt lat="42.9350362" lon="-5.7077622">
        <ele>1275.45</ele>
        <time>2020-07-21T08:25:30.000Z</time>
      </trkpt>
      <trkpt lat="42.9350272" lon="-5.7077777">
        <ele>1275.45</ele>
        <time>2020-07-21T08:25:31.000Z</time>
      </trkpt>
      <trkpt lat="42.9350177" lon="-5.7077912">
        <ele>1275.45</ele>
        <time>2020-07-21T08:25:32.000Z</time>
      </trkpt>
      <trkpt lat="42.9350082" lon="-5.7078052">
        <ele>1275.45</ele>
        <time>2020-07-21T08:25:33.000Z</time>
      </trkpt>
      <trkpt lat="42.9349988" lon="-5.7078188">
        <ele>1275.45</ele>
        <time>2020-07-21T08:25:34.000Z</time>
      </trkpt>
      <trkpt lat="42.934989" lon="-5.7078327">
        <ele>1275.45</ele>
        <time>2020-07-21T08:25:35.000Z</time>
      </trkpt>
      <trkpt lat="42.934979" lon="-5.7078463">
        <ele>1275.45</ele>
        <time>2020-07-21T08:25:36.000Z</time>
      </trkpt>
      <trkpt lat="42.93497" lon="-5.7078608">
        <ele>1275.45</ele>
        <time>2020-07-21T08:25:37.000Z</time>
      </trkpt>
      <trkpt lat="42.934962" lon="-5.7078763">
        <ele>1275.45</ele>
        <time>2020-07-21T08:25:38.000Z</time>
      </trkpt>
      <trkpt lat="42.934955" lon="-5.707893">
        <ele>1275.45</ele>
        <time>2020-07-21T08:25:39.000Z</time>
      </trkpt>
      <trkpt lat="42.9349487" lon="-5.7079105">
        <ele>1275.45</ele>
        <time>2020-07-21T08:25:40.000Z</time>
      </trkpt>
      <trkpt lat="42.934943" lon="-5.7079285">
        <ele>1275.6</ele>
        <time>2020-07-21T08:25:41.000Z</time>
      </trkpt>
      <trkpt lat="42.934938" lon="-5.7079467">
        <ele>1275.6</ele>
        <time>2020-07-21T08:25:42.000Z</time>
      </trkpt>
      <trkpt lat="42.9349347" lon="-5.7079647">
        <ele>1275.6</ele>
        <time>2020-07-21T08:25:43.000Z</time>
      </trkpt>
      <trkpt lat="42.9349327" lon="-5.707983">
        <ele>1275.6</ele>
        <time>2020-07-21T08:25:44.000Z</time>
      </trkpt>
      <trkpt lat="42.9349325" lon="-5.708001">
        <ele>1275.6</ele>
        <time>2020-07-21T08:25:45.000Z</time>
      </trkpt>
      <trkpt lat="42.9349345" lon="-5.7080193">
        <ele>1275.6</ele>
        <time>2020-07-21T08:25:46.000Z</time>
      </trkpt>
      <trkpt lat="42.9349392" lon="-5.7080373">
        <ele>1275.6</ele>
        <time>2020-07-21T08:25:47.000Z</time>
      </trkpt>
      <trkpt lat="42.9349465" lon="-5.7080547">
        <ele>1275.6</ele>
        <time>2020-07-21T08:25:48.000Z</time>
      </trkpt>
      <trkpt lat="42.9349558" lon="-5.7080697">
        <ele>1275.6</ele>
        <time>2020-07-21T08:25:49.000Z</time>
      </trkpt>
      <trkpt lat="42.9349672" lon="-5.7080817">
        <ele>1275.6</ele>
        <time>2020-07-21T08:25:50.000Z</time>
      </trkpt>
      <trkpt lat="42.9349798" lon="-5.7080915">
        <ele>1275.6</ele>
        <time>2020-07-21T08:25:51.000Z</time>
      </trkpt>
      <trkpt lat="42.9349932" lon="-5.7081">
        <ele>1275.6</ele>
        <time>2020-07-21T08:25:52.000Z</time>
      </trkpt>
      <trkpt lat="42.935007" lon="-5.7081087">
        <ele>1275.6</ele>
        <time>2020-07-21T08:25:53.000Z</time>
      </trkpt>
      <trkpt lat="42.9350202" lon="-5.7081157">
        <ele>1275.6</ele>
        <time>2020-07-21T08:25:54.000Z</time>
      </trkpt>
      <trkpt lat="42.9350338" lon="-5.7081217">
        <ele>1275.6</ele>
        <time>2020-07-21T08:25:55.000Z</time>
      </trkpt>
      <trkpt lat="42.9350473" lon="-5.7081267">
        <ele>1275.6</ele>
        <time>2020-07-21T08:25:56.000Z</time>
      </trkpt>
      <trkpt lat="42.935061" lon="-5.7081317">
        <ele>1275.6</ele>
        <time>2020-07-21T08:25:57.000Z</time>
      </trkpt>
      <trkpt lat="42.935074" lon="-5.708138">
        <ele>1275.6</ele>
        <time>2020-07-21T08:25:58.000Z</time>
      </trkpt>
      <trkpt lat="42.935088" lon="-5.7081452">
        <ele>1275.45</ele>
        <time>2020-07-21T08:25:59.000Z</time>
      </trkpt>
      <trkpt lat="42.935103" lon="-5.708152">
        <ele>1275.45</ele>
        <time>2020-07-21T08:26:00.000Z</time>
      </trkpt>
      <trkpt lat="42.9351187" lon="-5.7081568">
        <ele>1275.45</ele>
        <time>2020-07-21T08:26:01.000Z</time>
      </trkpt>
      <trkpt lat="42.9351342" lon="-5.7081598">
        <ele>1275.45</ele>
        <time>2020-07-21T08:26:02.000Z</time>
      </trkpt>
      <trkpt lat="42.9351497" lon="-5.7081628">
        <ele>1275.45</ele>
        <time>2020-07-21T08:26:03.000Z</time>
      </trkpt>
      <trkpt lat="42.9351642" lon="-5.708167">
        <ele>1275.45</ele>
        <time>2020-07-21T08:26:04.000Z</time>
      </trkpt>
      <trkpt lat="42.9351777" lon="-5.708173">
        <ele>1275.45</ele>
        <time>2020-07-21T08:26:05.000Z</time>
      </trkpt>
      <trkpt lat="42.9351902" lon="-5.7081788">
        <ele>1275.45</ele>
        <time>2020-07-21T08:26:06.000Z</time>
      </trkpt>
      <trkpt lat="42.9352035" lon="-5.7081842">
        <ele>1275.45</ele>
        <time>2020-07-21T08:26:07.000Z</time>
      </trkpt>
      <trkpt lat="42.9352172" lon="-5.7081887">
        <ele>1275.45</ele>
        <time>2020-07-21T08:26:08.000Z</time>
      </trkpt>
      <trkpt lat="42.9352315" lon="-5.7081932">
        <ele>1275.45</ele>
        <time>2020-07-21T08:26:09.000Z</time>
      </trkpt>
      <trkpt lat="42.9352457" lon="-5.708197">
        <ele>1275.45</ele>
        <time>2020-07-21T08:26:10.000Z</time>
      </trkpt>
      <trkpt lat="42.9352598" lon="-5.7082008">
        <ele>1275.45</ele>
        <time>2020-07-21T08:26:11.000Z</time>
      </trkpt>
      <trkpt lat="42.9352725" lon="-5.7082052">
        <ele>1275.45</ele>
        <time>2020-07-21T08:26:12.000Z</time>
      </trkpt>
      <trkpt lat="42.9352852" lon="-5.7082093">
        <ele>1275.45</ele>
        <time>2020-07-21T08:26:13.000Z</time>
      </trkpt>
      <trkpt lat="42.9352977" lon="-5.708214">
        <ele>1275.45</ele>
        <time>2020-07-21T08:26:14.000Z</time>
      </trkpt>
      <trkpt lat="42.9353105" lon="-5.7082183">
        <ele>1275.45</ele>
        <time>2020-07-21T08:26:15.000Z</time>
      </trkpt>
      <trkpt lat="42.9353235" lon="-5.7082237">
        <ele>1275.45</ele>
        <time>2020-07-21T08:26:16.000Z</time>
      </trkpt>
      <trkpt lat="42.9353367" lon="-5.708229">
        <ele>1275.45</ele>
        <time>2020-07-21T08:26:17.000Z</time>
      </trkpt>
      <trkpt lat="42.9353503" lon="-5.7082348">
        <ele>1275.45</ele>
        <time>2020-07-21T08:26:18.000Z</time>
      </trkpt>
      <trkpt lat="42.9353638" lon="-5.7082407">
        <ele>1275.45</ele>
        <time>2020-07-21T08:26:19.000Z</time>
      </trkpt>
      <trkpt lat="42.9353775" lon="-5.708247">
        <ele>1275.45</ele>
        <time>2020-07-21T08:26:20.000Z</time>
      </trkpt>
      <trkpt lat="42.9353907" lon="-5.7082537">
        <ele>1275.45</ele>
        <time>2020-07-21T08:26:21.000Z</time>
      </trkpt>
      <trkpt lat="42.9354042" lon="-5.7082607">
        <ele>1275.45</ele>
        <time>2020-07-21T08:26:22.000Z</time>
      </trkpt>
      <trkpt lat="42.9354177" lon="-5.708267">
        <ele>1275.45</ele>
        <time>2020-07-21T08:26:23.000Z</time>
      </trkpt>
      <trkpt lat="42.9354313" lon="-5.7082727">
        <ele>1275.45</ele>
        <time>2020-07-21T08:26:24.000Z</time>
      </trkpt>
      <trkpt lat="42.9354445" lon="-5.7082782">
        <ele>1275.45</ele>
        <time>2020-07-21T08:26:25.000Z</time>
      </trkpt>
      <trkpt lat="42.9354572" lon="-5.7082847">
        <ele>1275.45</ele>
        <time>2020-07-21T08:26:26.000Z</time>
      </trkpt>
      <trkpt lat="42.93547" lon="-5.7082912">
        <ele>1275.45</ele>
        <time>2020-07-21T08:26:27.000Z</time>
      </trkpt>
      <trkpt lat="42.9354833" lon="-5.7082983">
        <ele>1275.45</ele>
        <time>2020-07-21T08:26:28.000Z</time>
      </trkpt>
      <trkpt lat="42.9354967" lon="-5.7083047">
        <ele>1275.45</ele>
        <time>2020-07-21T08:26:29.000Z</time>
      </trkpt>
      <trkpt lat="42.9355093" lon="-5.708312">
        <ele>1275.45</ele>
        <time>2020-07-21T08:26:30.000Z</time>
      </trkpt>
      <trkpt lat="42.9355217" lon="-5.7083187">
        <ele>1275.45</ele>
        <time>2020-07-21T08:26:31.000Z</time>
      </trkpt>
      <trkpt lat="42.935535" lon="-5.7083248">
        <ele>1275.45</ele>
        <time>2020-07-21T08:26:32.000Z</time>
      </trkpt>
      <trkpt lat="42.9355485" lon="-5.7083302">
        <ele>1275.45</ele>
        <time>2020-07-21T08:26:33.000Z</time>
      </trkpt>
      <trkpt lat="42.9355623" lon="-5.708335">
        <ele>1275.45</ele>
        <time>2020-07-21T08:26:34.000Z</time>
      </trkpt>
      <trkpt lat="42.9355767" lon="-5.7083397">
        <ele>1275.6</ele>
        <time>2020-07-21T08:26:35.000Z</time>
      </trkpt>
      <trkpt lat="42.9355913" lon="-5.7083442">
        <ele>1275.6</ele>
        <time>2020-07-21T08:26:36.000Z</time>
      </trkpt>
      <trkpt lat="42.935606" lon="-5.708349">
        <ele>1275.6</ele>
        <time>2020-07-21T08:26:37.000Z</time>
      </trkpt>
      <trkpt lat="42.93562" lon="-5.7083538">
        <ele>1275.6</ele>
        <time>2020-07-21T08:26:38.000Z</time>
      </trkpt>
      <trkpt lat="42.9356342" lon="-5.7083573">
        <ele>1275.6</ele>
        <time>2020-07-21T08:26:39.000Z</time>
      </trkpt>
      <trkpt lat="42.9356475" lon="-5.7083597">
        <ele>1275.6</ele>
        <time>2020-07-21T08:26:40.000Z</time>
      </trkpt>
      <trkpt lat="42.9356607" lon="-5.7083615">
        <ele>1275.76</ele>
        <time>2020-07-21T08:26:41.000Z</time>
      </trkpt>
      <trkpt lat="42.9356747" lon="-5.7083637">
        <ele>1275.76</ele>
        <time>2020-07-21T08:26:42.000Z</time>
      </trkpt>
      <trkpt lat="42.9356903" lon="-5.7083665">
        <ele>1275.76</ele>
        <time>2020-07-21T08:26:43.000Z</time>
      </trkpt>
      <trkpt lat="42.9357063" lon="-5.7083697">
        <ele>1275.76</ele>
        <time>2020-07-21T08:26:44.000Z</time>
      </trkpt>
      <trkpt lat="42.9357207" lon="-5.7083738">
        <ele>1275.91</ele>
        <time>2020-07-21T08:26:45.000Z</time>
      </trkpt>
      <trkpt lat="42.935733" lon="-5.7083785">
        <ele>1275.91</ele>
        <time>2020-07-21T08:26:46.000Z</time>
      </trkpt>
      <trkpt lat="42.9357453" lon="-5.708385">
        <ele>1275.91</ele>
        <time>2020-07-21T08:26:47.000Z</time>
      </trkpt>
      <trkpt lat="42.9357585" lon="-5.7083927">
        <ele>1275.91</ele>
        <time>2020-07-21T08:26:48.000Z</time>
      </trkpt>
      <trkpt lat="42.9357712" lon="-5.7084035">
        <ele>1276.06</ele>
        <time>2020-07-21T08:26:49.000Z</time>
      </trkpt>
      <trkpt lat="42.9357847" lon="-5.7084153">
        <ele>1276.06</ele>
        <time>2020-07-21T08:26:50.000Z</time>
      </trkpt>
      <trkpt lat="42.9357975" lon="-5.7084283">
        <ele>1276.21</ele>
        <time>2020-07-21T08:26:51.000Z</time>
      </trkpt>
      <trkpt lat="42.9358103" lon="-5.7084412">
        <ele>1276.21</ele>
        <time>2020-07-21T08:26:52.000Z</time>
      </trkpt>
      <trkpt lat="42.9358203" lon="-5.7084535">
        <ele>1276.21</ele>
        <time>2020-07-21T08:26:53.000Z</time>
      </trkpt>
      <trkpt lat="42.9358287" lon="-5.7084653">
        <ele>1276.21</ele>
        <time>2020-07-21T08:26:54.000Z</time>
      </trkpt>
      <trkpt lat="42.9358368" lon="-5.7084792">
        <ele>1276.36</ele>
        <time>2020-07-21T08:26:55.000Z</time>
      </trkpt>
      <trkpt lat="42.9358458" lon="-5.708495">
        <ele>1276.36</ele>
        <time>2020-07-21T08:26:56.000Z</time>
      </trkpt>
      <trkpt lat="42.9358552" lon="-5.7085125">
        <ele>1276.36</ele>
        <time>2020-07-21T08:26:57.000Z</time>
      </trkpt>
      <trkpt lat="42.9358652" lon="-5.7085283">
        <ele>1276.36</ele>
        <time>2020-07-21T08:26:58.000Z</time>
      </trkpt>
      <trkpt lat="42.9358745" lon="-5.7085438">
        <ele>1276.36</ele>
        <time>2020-07-21T08:26:59.000Z</time>
      </trkpt>
      <trkpt lat="42.9358838" lon="-5.7085592">
        <ele>1276.36</ele>
        <time>2020-07-21T08:27:00.000Z</time>
      </trkpt>
      <trkpt lat="42.935892" lon="-5.7085745">
        <ele>1276.52</ele>
        <time>2020-07-21T08:27:01.000Z</time>
      </trkpt>
      <trkpt lat="42.9358998" lon="-5.7085895">
        <ele>1276.52</ele>
        <time>2020-07-21T08:27:02.000Z</time>
      </trkpt>
      <trkpt lat="42.9359075" lon="-5.7086045">
        <ele>1276.52</ele>
        <time>2020-07-21T08:27:03.000Z</time>
      </trkpt>
      <trkpt lat="42.9359153" lon="-5.7086198">
        <ele>1276.52</ele>
        <time>2020-07-21T08:27:04.000Z</time>
      </trkpt>
      <trkpt lat="42.9359238" lon="-5.7086357">
        <ele>1276.52</ele>
        <time>2020-07-21T08:27:05.000Z</time>
      </trkpt>
      <trkpt lat="42.9359325" lon="-5.7086513">
        <ele>1276.52</ele>
        <time>2020-07-21T08:27:06.000Z</time>
      </trkpt>
      <trkpt lat="42.935941" lon="-5.708667">
        <ele>1276.67</ele>
        <time>2020-07-21T08:27:07.000Z</time>
      </trkpt>
      <trkpt lat="42.9359493" lon="-5.708682">
        <ele>1276.67</ele>
        <time>2020-07-21T08:27:08.000Z</time>
      </trkpt>
      <trkpt lat="42.935958" lon="-5.7086968">
        <ele>1276.67</ele>
        <time>2020-07-21T08:27:09.000Z</time>
      </trkpt>
      <trkpt lat="42.9359667" lon="-5.708711">
        <ele>1276.67</ele>
        <time>2020-07-21T08:27:10.000Z</time>
      </trkpt>
      <trkpt lat="42.935975" lon="-5.7087248">
        <ele>1276.67</ele>
        <time>2020-07-21T08:27:11.000Z</time>
      </trkpt>
      <trkpt lat="42.9359838" lon="-5.7087382">
        <ele>1276.67</ele>
        <time>2020-07-21T08:27:12.000Z</time>
      </trkpt>
      <trkpt lat="42.9359927" lon="-5.7087522">
        <ele>1276.82</ele>
        <time>2020-07-21T08:27:13.000Z</time>
      </trkpt>
      <trkpt lat="42.9360017" lon="-5.7087665">
        <ele>1276.82</ele>
        <time>2020-07-21T08:27:14.000Z</time>
      </trkpt>
      <trkpt lat="42.9360102" lon="-5.7087808">
        <ele>1276.82</ele>
        <time>2020-07-21T08:27:15.000Z</time>
      </trkpt>
      <trkpt lat="42.9360188" lon="-5.7087952">
        <ele>1276.82</ele>
        <time>2020-07-21T08:27:16.000Z</time>
      </trkpt>
      <trkpt lat="42.9360273" lon="-5.7088097">
        <ele>1276.82</ele>
        <time>2020-07-21T08:27:17.000Z</time>
      </trkpt>
      <trkpt lat="42.9360358" lon="-5.708824">
        <ele>1276.82</ele>
        <time>2020-07-21T08:27:18.000Z</time>
      </trkpt>
      <trkpt lat="42.9360447" lon="-5.708838">
        <ele>1276.82</ele>
        <time>2020-07-21T08:27:19.000Z</time>
      </trkpt>
      <trkpt lat="42.9360532" lon="-5.7088518">
        <ele>1276.82</ele>
        <time>2020-07-21T08:27:20.000Z</time>
      </trkpt>
      <trkpt lat="42.9360617" lon="-5.7088657">
        <ele>1276.82</ele>
        <time>2020-07-21T08:27:21.000Z</time>
      </trkpt>
      <trkpt lat="42.9360708" lon="-5.70888">
        <ele>1276.82</ele>
        <time>2020-07-21T08:27:22.000Z</time>
      </trkpt>
      <trkpt lat="42.9360805" lon="-5.7088952">
        <ele>1276.82</ele>
        <time>2020-07-21T08:27:23.000Z</time>
      </trkpt>
      <trkpt lat="42.9360902" lon="-5.7089102">
        <ele>1276.82</ele>
        <time>2020-07-21T08:27:24.000Z</time>
      </trkpt>
      <trkpt lat="42.9360985" lon="-5.7089255">
        <ele>1276.82</ele>
        <time>2020-07-21T08:27:25.000Z</time>
      </trkpt>
      <trkpt lat="42.9361065" lon="-5.7089412">
        <ele>1276.82</ele>
        <time>2020-07-21T08:27:26.000Z</time>
      </trkpt>
      <trkpt lat="42.936115" lon="-5.7089578">
        <ele>1276.82</ele>
        <time>2020-07-21T08:27:27.000Z</time>
      </trkpt>
      <trkpt lat="42.9361242" lon="-5.7089742">
        <ele>1276.82</ele>
        <time>2020-07-21T08:27:28.000Z</time>
      </trkpt>
      <trkpt lat="42.9361335" lon="-5.7089897">
        <ele>1276.82</ele>
        <time>2020-07-21T08:27:29.000Z</time>
      </trkpt>
      <trkpt lat="42.9361417" lon="-5.7090042">
        <ele>1276.82</ele>
        <time>2020-07-21T08:27:30.000Z</time>
      </trkpt>
      <trkpt lat="42.9361497" lon="-5.7090178">
        <ele>1276.82</ele>
        <time>2020-07-21T08:27:31.000Z</time>
      </trkpt>
      <trkpt lat="42.9361577" lon="-5.7090317">
        <ele>1276.82</ele>
        <time>2020-07-21T08:27:32.000Z</time>
      </trkpt>
      <trkpt lat="42.9361675" lon="-5.7090465">
        <ele>1276.97</ele>
        <time>2020-07-21T08:27:33.000Z</time>
      </trkpt>
      <trkpt lat="42.9361783" lon="-5.7090617">
        <ele>1276.97</ele>
        <time>2020-07-21T08:27:34.000Z</time>
      </trkpt>
      <trkpt lat="42.93619" lon="-5.7090767">
        <ele>1276.97</ele>
        <time>2020-07-21T08:27:35.000Z</time>
      </trkpt>
      <trkpt lat="42.9362007" lon="-5.7090902">
        <ele>1276.97</ele>
        <time>2020-07-21T08:27:36.000Z</time>
      </trkpt>
      <trkpt lat="42.93621" lon="-5.7091033">
        <ele>1277.13</ele>
        <time>2020-07-21T08:27:37.000Z</time>
      </trkpt>
      <trkpt lat="42.9362193" lon="-5.7091152">
        <ele>1277.13</ele>
        <time>2020-07-21T08:27:38.000Z</time>
      </trkpt>
      <trkpt lat="42.9362285" lon="-5.709126">
        <ele>1277.13</ele>
        <time>2020-07-21T08:27:39.000Z</time>
      </trkpt>
      <trkpt lat="42.936238" lon="-5.7091358">
        <ele>1277.13</ele>
        <time>2020-07-21T08:27:40.000Z</time>
      </trkpt>
      <trkpt lat="42.9362472" lon="-5.7091465">
        <ele>1277.28</ele>
        <time>2020-07-21T08:27:41.000Z</time>
      </trkpt>
      <trkpt lat="42.9362572" lon="-5.7091582">
        <ele>1277.28</ele>
        <time>2020-07-21T08:27:42.000Z</time>
      </trkpt>
      <trkpt lat="42.9362665" lon="-5.709171">
        <ele>1277.43</ele>
        <time>2020-07-21T08:27:43.000Z</time>
      </trkpt>
      <trkpt lat="42.936275" lon="-5.7091847">
        <ele>1277.43</ele>
        <time>2020-07-21T08:27:44.000Z</time>
      </trkpt>
      <trkpt lat="42.9362828" lon="-5.7091988">
        <ele>1277.43</ele>
        <time>2020-07-21T08:27:45.000Z</time>
      </trkpt>
      <trkpt lat="42.9362912" lon="-5.7092138">
        <ele>1277.43</ele>
        <time>2020-07-21T08:27:46.000Z</time>
      </trkpt>
      <trkpt lat="42.9363012" lon="-5.7092278">
        <ele>1277.58</ele>
        <time>2020-07-21T08:27:47.000Z</time>
      </trkpt>
      <trkpt lat="42.9363123" lon="-5.7092413">
        <ele>1277.58</ele>
        <time>2020-07-21T08:27:48.000Z</time>
      </trkpt>
      <trkpt lat="42.9363235" lon="-5.7092522">
        <ele>1277.74</ele>
        <time>2020-07-21T08:27:49.000Z</time>
      </trkpt>
      <trkpt lat="42.9363335" lon="-5.7092628">
        <ele>1277.74</ele>
        <time>2020-07-21T08:27:50.000Z</time>
      </trkpt>
      <trkpt lat="42.9363437" lon="-5.7092732">
        <ele>1277.74</ele>
        <time>2020-07-21T08:27:51.000Z</time>
      </trkpt>
      <trkpt lat="42.9363532" lon="-5.7092842">
        <ele>1277.74</ele>
        <time>2020-07-21T08:27:52.000Z</time>
      </trkpt>
      <trkpt lat="42.9363642" lon="-5.7092945">
        <ele>1277.89</ele>
        <time>2020-07-21T08:27:53.000Z</time>
      </trkpt>
      <trkpt lat="42.936374" lon="-5.7093078">
        <ele>1277.89</ele>
        <time>2020-07-21T08:27:54.000Z</time>
      </trkpt>
      <trkpt lat="42.936383" lon="-5.7093228">
        <ele>1278.04</ele>
        <time>2020-07-21T08:27:55.000Z</time>
      </trkpt>
      <trkpt lat="42.9363908" lon="-5.7093382">
        <ele>1278.04</ele>
        <time>2020-07-21T08:27:56.000Z</time>
      </trkpt>
      <trkpt lat="42.9363988" lon="-5.7093513">
        <ele>1278.19</ele>
        <time>2020-07-21T08:27:57.000Z</time>
      </trkpt>
      <trkpt lat="42.936408" lon="-5.7093625">
        <ele>1278.19</ele>
        <time>2020-07-21T08:27:58.000Z</time>
      </trkpt>
      <trkpt lat="42.9364175" lon="-5.7093745">
        <ele>1278.35</ele>
        <time>2020-07-21T08:27:59.000Z</time>
      </trkpt>
      <trkpt lat="42.9364272" lon="-5.7093872">
        <ele>1278.35</ele>
        <time>2020-07-21T08:28:00.000Z</time>
      </trkpt>
      <trkpt lat="42.9364367" lon="-5.7094">
        <ele>1278.35</ele>
        <time>2020-07-21T08:28:01.000Z</time>
      </trkpt>
      <trkpt lat="42.9364458" lon="-5.709412">
        <ele>1278.35</ele>
        <time>2020-07-21T08:28:02.000Z</time>
      </trkpt>
      <trkpt lat="42.9364543" lon="-5.7094238">
        <ele>1278.5</ele>
        <time>2020-07-21T08:28:03.000Z</time>
      </trkpt>
      <trkpt lat="42.9364632" lon="-5.7094358">
        <ele>1278.5</ele>
        <time>2020-07-21T08:28:04.000Z</time>
      </trkpt>
      <trkpt lat="42.9364722" lon="-5.7094485">
        <ele>1278.65</ele>
        <time>2020-07-21T08:28:05.000Z</time>
      </trkpt>
      <trkpt lat="42.936482" lon="-5.7094608">
        <ele>1278.65</ele>
        <time>2020-07-21T08:28:06.000Z</time>
      </trkpt>
      <trkpt lat="42.9364917" lon="-5.7094732">
        <ele>1278.8</ele>
        <time>2020-07-21T08:28:07.000Z</time>
      </trkpt>
      <trkpt lat="42.9365017" lon="-5.7094852">
        <ele>1278.8</ele>
        <time>2020-07-21T08:28:08.000Z</time>
      </trkpt>
      <trkpt lat="42.9365115" lon="-5.7094973">
        <ele>1278.8</ele>
        <time>2020-07-21T08:28:09.000Z</time>
      </trkpt>
      <trkpt lat="42.9365213" lon="-5.7095097">
        <ele>1278.8</ele>
        <time>2020-07-21T08:28:10.000Z</time>
      </trkpt>
      <trkpt lat="42.9365307" lon="-5.7095223">
        <ele>1278.96</ele>
        <time>2020-07-21T08:28:11.000Z</time>
      </trkpt>
      <trkpt lat="42.9365402" lon="-5.7095345">
        <ele>1278.96</ele>
        <time>2020-07-21T08:28:12.000Z</time>
      </trkpt>
      <trkpt lat="42.93655" lon="-5.7095465">
        <ele>1279.11</ele>
        <time>2020-07-21T08:28:13.000Z</time>
      </trkpt>
      <trkpt lat="42.9365608" lon="-5.7095582">
        <ele>1279.11</ele>
        <time>2020-07-21T08:28:14.000Z</time>
      </trkpt>
      <trkpt lat="42.9365717" lon="-5.7095702">
        <ele>1279.11</ele>
        <time>2020-07-21T08:28:15.000Z</time>
      </trkpt>
      <trkpt lat="42.9365822" lon="-5.7095822">
        <ele>1279.11</ele>
        <time>2020-07-21T08:28:16.000Z</time>
      </trkpt>
      <trkpt lat="42.9365915" lon="-5.709594">
        <ele>1279.11</ele>
        <time>2020-07-21T08:28:17.000Z</time>
      </trkpt>
      <trkpt lat="42.9366025" lon="-5.709605">
        <ele>1279.11</ele>
        <time>2020-07-21T08:28:18.000Z</time>
      </trkpt>
      <trkpt lat="42.9366133" lon="-5.7096168">
        <ele>1279.26</ele>
        <time>2020-07-21T08:28:19.000Z</time>
      </trkpt>
      <trkpt lat="42.9366243" lon="-5.7096283">
        <ele>1279.26</ele>
        <time>2020-07-21T08:28:20.000Z</time>
      </trkpt>
      <trkpt lat="42.936634" lon="-5.7096407">
        <ele>1279.26</ele>
        <time>2020-07-21T08:28:21.000Z</time>
      </trkpt>
      <trkpt lat="42.936643" lon="-5.7096517">
        <ele>1279.26</ele>
        <time>2020-07-21T08:28:22.000Z</time>
      </trkpt>
      <trkpt lat="42.9366513" lon="-5.7096632">
        <ele>1279.26</ele>
        <time>2020-07-21T08:28:23.000Z</time>
      </trkpt>
      <trkpt lat="42.9366598" lon="-5.709674">
        <ele>1279.26</ele>
        <time>2020-07-21T08:28:24.000Z</time>
      </trkpt>
      <trkpt lat="42.9366697" lon="-5.709686">
        <ele>1279.26</ele>
        <time>2020-07-21T08:28:25.000Z</time>
      </trkpt>
      <trkpt lat="42.9366803" lon="-5.7096985">
        <ele>1279.26</ele>
        <time>2020-07-21T08:28:26.000Z</time>
      </trkpt>
      <trkpt lat="42.9366915" lon="-5.7097108">
        <ele>1279.26</ele>
        <time>2020-07-21T08:28:27.000Z</time>
      </trkpt>
      <trkpt lat="42.9367022" lon="-5.7097238">
        <ele>1279.26</ele>
        <time>2020-07-21T08:28:28.000Z</time>
      </trkpt>
      <trkpt lat="42.9367125" lon="-5.7097368">
        <ele>1279.26</ele>
        <time>2020-07-21T08:28:29.000Z</time>
      </trkpt>
      <trkpt lat="42.9367232" lon="-5.7097502">
        <ele>1279.26</ele>
        <time>2020-07-21T08:28:30.000Z</time>
      </trkpt>
      <trkpt lat="42.9367335" lon="-5.7097623">
        <ele>1279.11</ele>
        <time>2020-07-21T08:28:31.000Z</time>
      </trkpt>
      <trkpt lat="42.9367438" lon="-5.7097747">
        <ele>1279.11</ele>
        <time>2020-07-21T08:28:32.000Z</time>
      </trkpt>
      <trkpt lat="42.9367532" lon="-5.709787">
        <ele>1279.11</ele>
        <time>2020-07-21T08:28:33.000Z</time>
      </trkpt>
      <trkpt lat="42.9367628" lon="-5.7097992">
        <ele>1279.11</ele>
        <time>2020-07-21T08:28:34.000Z</time>
      </trkpt>
      <trkpt lat="42.9367728" lon="-5.7098107">
        <ele>1278.96</ele>
        <time>2020-07-21T08:28:35.000Z</time>
      </trkpt>
      <trkpt lat="42.9367832" lon="-5.7098217">
        <ele>1278.96</ele>
        <time>2020-07-21T08:28:36.000Z</time>
      </trkpt>
      <trkpt lat="42.9367928" lon="-5.7098335">
        <ele>1278.96</ele>
        <time>2020-07-21T08:28:37.000Z</time>
      </trkpt>
      <trkpt lat="42.936802" lon="-5.7098462">
        <ele>1278.96</ele>
        <time>2020-07-21T08:28:38.000Z</time>
      </trkpt>
      <trkpt lat="42.9368113" lon="-5.7098593">
        <ele>1278.8</ele>
        <time>2020-07-21T08:28:39.000Z</time>
      </trkpt>
      <trkpt lat="42.9368215" lon="-5.7098722">
        <ele>1278.8</ele>
        <time>2020-07-21T08:28:40.000Z</time>
      </trkpt>
      <trkpt lat="42.936832" lon="-5.7098847">
        <ele>1278.8</ele>
        <time>2020-07-21T08:28:41.000Z</time>
      </trkpt>
      <trkpt lat="42.9368418" lon="-5.7098982">
        <ele>1278.8</ele>
        <time>2020-07-21T08:28:42.000Z</time>
      </trkpt>
      <trkpt lat="42.936851" lon="-5.7099122">
        <ele>1278.65</ele>
        <time>2020-07-21T08:28:43.000Z</time>
      </trkpt>
      <trkpt lat="42.9368605" lon="-5.7099255">
        <ele>1278.65</ele>
        <time>2020-07-21T08:28:44.000Z</time>
      </trkpt>
      <trkpt lat="42.9368708" lon="-5.7099377">
        <ele>1278.5</ele>
        <time>2020-07-21T08:28:45.000Z</time>
      </trkpt>
      <trkpt lat="42.9368812" lon="-5.7099493">
        <ele>1278.5</ele>
        <time>2020-07-21T08:28:46.000Z</time>
      </trkpt>
      <trkpt lat="42.9368917" lon="-5.7099613">
        <ele>1278.5</ele>
        <time>2020-07-21T08:28:47.000Z</time>
      </trkpt>
      <trkpt lat="42.9369017" lon="-5.7099735">
        <ele>1278.5</ele>
        <time>2020-07-21T08:28:48.000Z</time>
      </trkpt>
      <trkpt lat="42.9369117" lon="-5.7099848">
        <ele>1278.35</ele>
        <time>2020-07-21T08:28:49.000Z</time>
      </trkpt>
      <trkpt lat="42.9369208" lon="-5.7099967">
        <ele>1278.35</ele>
        <time>2020-07-21T08:28:50.000Z</time>
      </trkpt>
      <trkpt lat="42.9369312" lon="-5.7100078">
        <ele>1278.19</ele>
        <time>2020-07-21T08:28:51.000Z</time>
      </trkpt>
      <trkpt lat="42.9369425" lon="-5.7100193">
        <ele>1278.19</ele>
        <time>2020-07-21T08:28:52.000Z</time>
      </trkpt>
      <trkpt lat="42.9369542" lon="-5.7100308">
        <ele>1278.04</ele>
        <time>2020-07-21T08:28:53.000Z</time>
      </trkpt>
      <trkpt lat="42.9369655" lon="-5.7100428">
        <ele>1278.04</ele>
        <time>2020-07-21T08:28:54.000Z</time>
      </trkpt>
      <trkpt lat="42.9369765" lon="-5.7100547">
        <ele>1277.89</ele>
        <time>2020-07-21T08:28:55.000Z</time>
      </trkpt>
      <trkpt lat="42.936987" lon="-5.7100665">
        <ele>1277.89</ele>
        <time>2020-07-21T08:28:56.000Z</time>
      </trkpt>
      <trkpt lat="42.9369968" lon="-5.7100787">
        <ele>1277.74</ele>
        <time>2020-07-21T08:28:57.000Z</time>
      </trkpt>
      <trkpt lat="42.9370072" lon="-5.7100903">
        <ele>1277.74</ele>
        <time>2020-07-21T08:28:58.000Z</time>
      </trkpt>
      <trkpt lat="42.9370182" lon="-5.7101012">
        <ele>1277.58</ele>
        <time>2020-07-21T08:28:59.000Z</time>
      </trkpt>
      <trkpt lat="42.9370292" lon="-5.7101115">
        <ele>1277.58</ele>
        <time>2020-07-21T08:29:00.000Z</time>
      </trkpt>
      <trkpt lat="42.9370405" lon="-5.7101218">
        <ele>1277.43</ele>
        <time>2020-07-21T08:29:01.000Z</time>
      </trkpt>
      <trkpt lat="42.937052" lon="-5.710131">
        <ele>1277.43</ele>
        <time>2020-07-21T08:29:02.000Z</time>
      </trkpt>
      <trkpt lat="42.9370638" lon="-5.7101395">
        <ele>1277.28</ele>
        <time>2020-07-21T08:29:03.000Z</time>
      </trkpt>
      <trkpt lat="42.9370752" lon="-5.7101482">
        <ele>1277.28</ele>
        <time>2020-07-21T08:29:04.000Z</time>
      </trkpt>
      <trkpt lat="42.9370862" lon="-5.7101578">
        <ele>1277.13</ele>
        <time>2020-07-21T08:29:05.000Z</time>
      </trkpt>
      <trkpt lat="42.9370972" lon="-5.7101675">
        <ele>1277.13</ele>
        <time>2020-07-21T08:29:06.000Z</time>
      </trkpt>
      <trkpt lat="42.9371087" lon="-5.710177">
        <ele>1276.97</ele>
        <time>2020-07-21T08:29:07.000Z</time>
      </trkpt>
      <trkpt lat="42.9371207" lon="-5.7101867">
        <ele>1276.97</ele>
        <time>2020-07-21T08:29:08.000Z</time>
      </trkpt>
      <trkpt lat="42.937133" lon="-5.7101963">
        <ele>1276.82</ele>
        <time>2020-07-21T08:29:09.000Z</time>
      </trkpt>
      <trkpt lat="42.9371455" lon="-5.7102058">
        <ele>1276.82</ele>
        <time>2020-07-21T08:29:10.000Z</time>
      </trkpt>
      <trkpt lat="42.9371577" lon="-5.7102147">
        <ele>1276.52</ele>
        <time>2020-07-21T08:29:11.000Z</time>
      </trkpt>
      <trkpt lat="42.9371697" lon="-5.7102242">
        <ele>1276.52</ele>
        <time>2020-07-21T08:29:12.000Z</time>
      </trkpt>
      <trkpt lat="42.937181" lon="-5.7102338">
        <ele>1276.36</ele>
        <time>2020-07-21T08:29:13.000Z</time>
      </trkpt>
      <trkpt lat="42.9371923" lon="-5.7102438">
        <ele>1276.36</ele>
        <time>2020-07-21T08:29:14.000Z</time>
      </trkpt>
      <trkpt lat="42.9372033" lon="-5.7102532">
        <ele>1276.21</ele>
        <time>2020-07-21T08:29:15.000Z</time>
      </trkpt>
      <trkpt lat="42.9372142" lon="-5.710263">
        <ele>1276.21</ele>
        <time>2020-07-21T08:29:16.000Z</time>
      </trkpt>
      <trkpt lat="42.9372252" lon="-5.710273">
        <ele>1275.91</ele>
        <time>2020-07-21T08:29:17.000Z</time>
      </trkpt>
      <trkpt lat="42.9372368" lon="-5.7102837">
        <ele>1275.91</ele>
        <time>2020-07-21T08:29:18.000Z</time>
      </trkpt>
      <trkpt lat="42.9372475" lon="-5.7102952">
        <ele>1275.76</ele>
        <time>2020-07-21T08:29:19.000Z</time>
      </trkpt>
      <trkpt lat="42.9372575" lon="-5.7103075">
        <ele>1275.76</ele>
        <time>2020-07-21T08:29:20.000Z</time>
      </trkpt>
      <trkpt lat="42.9372672" lon="-5.7103197">
        <ele>1275.6</ele>
        <time>2020-07-21T08:29:21.000Z</time>
      </trkpt>
      <trkpt lat="42.9372787" lon="-5.7103305">
        <ele>1275.6</ele>
        <time>2020-07-21T08:29:22.000Z</time>
      </trkpt>
      <trkpt lat="42.9372918" lon="-5.7103395">
        <ele>1275.45</ele>
        <time>2020-07-21T08:29:23.000Z</time>
      </trkpt>
      <trkpt lat="42.9373043" lon="-5.7103487">
        <ele>1275.45</ele>
        <time>2020-07-21T08:29:24.000Z</time>
      </trkpt>
      <trkpt lat="42.937316" lon="-5.7103583">
        <ele>1275.3</ele>
        <time>2020-07-21T08:29:25.000Z</time>
      </trkpt>
      <trkpt lat="42.9373257" lon="-5.7103688">
        <ele>1275.3</ele>
        <time>2020-07-21T08:29:26.000Z</time>
      </trkpt>
      <trkpt lat="42.9373355" lon="-5.7103787">
        <ele>1275.15</ele>
        <time>2020-07-21T08:29:27.000Z</time>
      </trkpt>
      <trkpt lat="42.9373457" lon="-5.710389">
        <ele>1275.15</ele>
        <time>2020-07-21T08:29:28.000Z</time>
      </trkpt>
      <trkpt lat="42.9373573" lon="-5.7103997">
        <ele>1274.84</ele>
        <time>2020-07-21T08:29:29.000Z</time>
      </trkpt>
      <trkpt lat="42.9373703" lon="-5.7104097">
        <ele>1274.84</ele>
        <time>2020-07-21T08:29:30.000Z</time>
      </trkpt>
      <trkpt lat="42.9373827" lon="-5.7104192">
        <ele>1274.69</ele>
        <time>2020-07-21T08:29:31.000Z</time>
      </trkpt>
      <trkpt lat="42.9373952" lon="-5.7104278">
        <ele>1274.69</ele>
        <time>2020-07-21T08:29:32.000Z</time>
      </trkpt>
      <trkpt lat="42.9374068" lon="-5.7104365">
        <ele>1274.54</ele>
        <time>2020-07-21T08:29:33.000Z</time>
      </trkpt>
      <trkpt lat="42.9374207" lon="-5.7104435">
        <ele>1274.54</ele>
        <time>2020-07-21T08:29:34.000Z</time>
      </trkpt>
      <trkpt lat="42.9374345" lon="-5.7104493">
        <ele>1274.38</ele>
        <time>2020-07-21T08:29:35.000Z</time>
      </trkpt>
      <trkpt lat="42.937449" lon="-5.710455">
        <ele>1274.38</ele>
        <time>2020-07-21T08:29:36.000Z</time>
      </trkpt>
      <trkpt lat="42.937462" lon="-5.7104622">
        <ele>1274.08</ele>
        <time>2020-07-21T08:29:37.000Z</time>
      </trkpt>
      <trkpt lat="42.9374743" lon="-5.7104703">
        <ele>1274.08</ele>
        <time>2020-07-21T08:29:38.000Z</time>
      </trkpt>
      <trkpt lat="42.937485" lon="-5.7104793">
        <ele>1273.93</ele>
        <time>2020-07-21T08:29:39.000Z</time>
      </trkpt>
      <trkpt lat="42.9374952" lon="-5.7104878">
        <ele>1273.93</ele>
        <time>2020-07-21T08:29:40.000Z</time>
      </trkpt>
      <trkpt lat="42.9375058" lon="-5.710496">
        <ele>1273.62</ele>
        <time>2020-07-21T08:29:41.000Z</time>
      </trkpt>
      <trkpt lat="42.9375183" lon="-5.7105013">
        <ele>1273.62</ele>
        <time>2020-07-21T08:29:42.000Z</time>
      </trkpt>
      <trkpt lat="42.9375305" lon="-5.7105063">
        <ele>1273.47</ele>
        <time>2020-07-21T08:29:43.000Z</time>
      </trkpt>
      <trkpt lat="42.9375418" lon="-5.7105117">
        <ele>1273.47</ele>
        <time>2020-07-21T08:29:44.000Z</time>
      </trkpt>
      <trkpt lat="42.937553" lon="-5.7105182">
        <ele>1273.17</ele>
        <time>2020-07-21T08:29:45.000Z</time>
      </trkpt>
      <trkpt lat="42.9375647" lon="-5.710524">
        <ele>1273.17</ele>
        <time>2020-07-21T08:29:46.000Z</time>
      </trkpt>
      <trkpt lat="42.9375768" lon="-5.710529">
        <ele>1273.01</ele>
        <time>2020-07-21T08:29:47.000Z</time>
      </trkpt>
      <trkpt lat="42.9375888" lon="-5.7105342">
        <ele>1273.01</ele>
        <time>2020-07-21T08:29:48.000Z</time>
      </trkpt>
      <trkpt lat="42.9376007" lon="-5.7105405">
        <ele>1272.71</ele>
        <time>2020-07-21T08:29:49.000Z</time>
      </trkpt>
      <trkpt lat="42.9376123" lon="-5.7105477">
        <ele>1272.71</ele>
        <time>2020-07-21T08:29:50.000Z</time>
      </trkpt>
      <trkpt lat="42.9376248" lon="-5.7105553">
        <ele>1272.56</ele>
        <time>2020-07-21T08:29:51.000Z</time>
      </trkpt>
      <trkpt lat="42.9376373" lon="-5.7105618">
        <ele>1272.56</ele>
        <time>2020-07-21T08:29:52.000Z</time>
      </trkpt>
      <trkpt lat="42.9376502" lon="-5.7105677">
        <ele>1272.25</ele>
        <time>2020-07-21T08:29:53.000Z</time>
      </trkpt>
      <trkpt lat="42.9376622" lon="-5.7105728">
        <ele>1272.25</ele>
        <time>2020-07-21T08:29:54.000Z</time>
      </trkpt>
      <trkpt lat="42.9376743" lon="-5.7105782">
        <ele>1271.95</ele>
        <time>2020-07-21T08:29:55.000Z</time>
      </trkpt>
      <trkpt lat="42.9376865" lon="-5.7105837">
        <ele>1271.95</ele>
        <time>2020-07-21T08:29:56.000Z</time>
      </trkpt>
      <trkpt lat="42.937699" lon="-5.7105898">
        <ele>1271.64</ele>
        <time>2020-07-21T08:29:57.000Z</time>
      </trkpt>
      <trkpt lat="42.9377118" lon="-5.7105968">
        <ele>1271.64</ele>
        <time>2020-07-21T08:29:58.000Z</time>
      </trkpt>
      <trkpt lat="42.9377245" lon="-5.7106045">
        <ele>1271.34</ele>
        <time>2020-07-21T08:29:59.000Z</time>
      </trkpt>
      <trkpt lat="42.937737" lon="-5.7106127">
        <ele>1271.34</ele>
        <time>2020-07-21T08:30:00.000Z</time>
      </trkpt>
      <trkpt lat="42.9377497" lon="-5.7106195">
        <ele>1271.18</ele>
        <time>2020-07-21T08:30:01.000Z</time>
      </trkpt>
      <trkpt lat="42.9377622" lon="-5.7106248">
        <ele>1271.18</ele>
        <time>2020-07-21T08:30:02.000Z</time>
      </trkpt>
      <trkpt lat="42.937775" lon="-5.7106292">
        <ele>1270.88</ele>
        <time>2020-07-21T08:30:03.000Z</time>
      </trkpt>
      <trkpt lat="42.9377875" lon="-5.7106337">
        <ele>1270.88</ele>
        <time>2020-07-21T08:30:04.000Z</time>
      </trkpt>
      <trkpt lat="42.9377997" lon="-5.7106382">
        <ele>1270.57</ele>
        <time>2020-07-21T08:30:05.000Z</time>
      </trkpt>
      <trkpt lat="42.9378118" lon="-5.7106428">
        <ele>1270.57</ele>
        <time>2020-07-21T08:30:06.000Z</time>
      </trkpt>
      <trkpt lat="42.9378247" lon="-5.7106463">
        <ele>1270.27</ele>
        <time>2020-07-21T08:30:07.000Z</time>
      </trkpt>
      <trkpt lat="42.9378375" lon="-5.7106492">
        <ele>1270.27</ele>
        <time>2020-07-21T08:30:08.000Z</time>
      </trkpt>
      <trkpt lat="42.9378495" lon="-5.7106517">
        <ele>1269.96</ele>
        <time>2020-07-21T08:30:09.000Z</time>
      </trkpt>
      <trkpt lat="42.9378608" lon="-5.710654">
        <ele>1269.96</ele>
        <time>2020-07-21T08:30:10.000Z</time>
      </trkpt>
      <trkpt lat="42.9378728" lon="-5.7106567">
        <ele>1269.66</ele>
        <time>2020-07-21T08:30:11.000Z</time>
      </trkpt>
      <trkpt lat="42.9378858" lon="-5.7106595">
        <ele>1269.66</ele>
        <time>2020-07-21T08:30:12.000Z</time>
      </trkpt>
      <trkpt lat="42.937899" lon="-5.7106633">
        <ele>1269.51</ele>
        <time>2020-07-21T08:30:13.000Z</time>
      </trkpt>
      <trkpt lat="42.9379122" lon="-5.710667">
        <ele>1269.51</ele>
        <time>2020-07-21T08:30:14.000Z</time>
      </trkpt>
      <trkpt lat="42.9379257" lon="-5.710668">
        <ele>1269.2</ele>
        <time>2020-07-21T08:30:15.000Z</time>
      </trkpt>
      <trkpt lat="42.9379393" lon="-5.7106683">
        <ele>1269.2</ele>
        <time>2020-07-21T08:30:16.000Z</time>
      </trkpt>
      <trkpt lat="42.9379528" lon="-5.710669">
        <ele>1268.9</ele>
        <time>2020-07-21T08:30:17.000Z</time>
      </trkpt>
      <trkpt lat="42.9379657" lon="-5.7106718">
        <ele>1268.9</ele>
        <time>2020-07-21T08:30:18.000Z</time>
      </trkpt>
      <trkpt lat="42.9379787" lon="-5.7106745">
        <ele>1268.59</ele>
        <time>2020-07-21T08:30:19.000Z</time>
      </trkpt>
      <trkpt lat="42.9379922" lon="-5.7106763">
        <ele>1268.59</ele>
        <time>2020-07-21T08:30:20.000Z</time>
      </trkpt>
      <trkpt lat="42.9380062" lon="-5.7106778">
        <ele>1268.44</ele>
        <time>2020-07-21T08:30:21.000Z</time>
      </trkpt>
      <trkpt lat="42.9380192" lon="-5.710679">
        <ele>1268.44</ele>
        <time>2020-07-21T08:30:22.000Z</time>
      </trkpt>
      <trkpt lat="42.9380323" lon="-5.7106797">
        <ele>1268.14</ele>
        <time>2020-07-21T08:30:23.000Z</time>
      </trkpt>
      <trkpt lat="42.938046" lon="-5.7106798">
        <ele>1268.14</ele>
        <time>2020-07-21T08:30:24.000Z</time>
      </trkpt>
      <trkpt lat="42.938061" lon="-5.7106817">
        <ele>1267.83</ele>
        <time>2020-07-21T08:30:25.000Z</time>
      </trkpt>
      <trkpt lat="42.9380748" lon="-5.710685">
        <ele>1267.83</ele>
        <time>2020-07-21T08:30:26.000Z</time>
      </trkpt>
      <trkpt lat="42.9380877" lon="-5.710689">
        <ele>1267.53</ele>
        <time>2020-07-21T08:30:27.000Z</time>
      </trkpt>
      <trkpt lat="42.9381002" lon="-5.7106915">
        <ele>1267.53</ele>
        <time>2020-07-21T08:30:28.000Z</time>
      </trkpt>
      <trkpt lat="42.9381132" lon="-5.7106913">
        <ele>1267.37</ele>
        <time>2020-07-21T08:30:29.000Z</time>
      </trkpt>
      <trkpt lat="42.9381265" lon="-5.7106898">
        <ele>1267.37</ele>
        <time>2020-07-21T08:30:30.000Z</time>
      </trkpt>
      <trkpt lat="42.9381405" lon="-5.7106892">
        <ele>1267.07</ele>
        <time>2020-07-21T08:30:31.000Z</time>
      </trkpt>
      <trkpt lat="42.9381555" lon="-5.7106907">
        <ele>1267.07</ele>
        <time>2020-07-21T08:30:32.000Z</time>
      </trkpt>
      <trkpt lat="42.93817" lon="-5.7106917">
        <ele>1266.76</ele>
        <time>2020-07-21T08:30:33.000Z</time>
      </trkpt>
      <trkpt lat="42.9381837" lon="-5.7106928">
        <ele>1266.76</ele>
        <time>2020-07-21T08:30:34.000Z</time>
      </trkpt>
      <trkpt lat="42.9381952" lon="-5.7106928">
        <ele>1266.46</ele>
        <time>2020-07-21T08:30:35.000Z</time>
      </trkpt>
      <trkpt lat="42.9382065" lon="-5.7106927">
        <ele>1266.46</ele>
        <time>2020-07-21T08:30:36.000Z</time>
      </trkpt>
      <trkpt lat="42.9382182" lon="-5.7106913">
        <ele>1266.31</ele>
        <time>2020-07-21T08:30:37.000Z</time>
      </trkpt>
      <trkpt lat="42.9382313" lon="-5.710688">
        <ele>1266.31</ele>
        <time>2020-07-21T08:30:38.000Z</time>
      </trkpt>
      <trkpt lat="42.9382452" lon="-5.7106842">
        <ele>1266</ele>
        <time>2020-07-21T08:30:39.000Z</time>
      </trkpt>
      <trkpt lat="42.938259" lon="-5.7106797">
        <ele>1266</ele>
        <time>2020-07-21T08:30:40.000Z</time>
      </trkpt>
      <trkpt lat="42.9382718" lon="-5.710678">
        <ele>1265.7</ele>
        <time>2020-07-21T08:30:41.000Z</time>
      </trkpt>
      <trkpt lat="42.9382835" lon="-5.71068">
        <ele>1265.7</ele>
        <time>2020-07-21T08:30:42.000Z</time>
      </trkpt>
      <trkpt lat="42.9382953" lon="-5.710682">
        <ele>1265.39</ele>
        <time>2020-07-21T08:30:43.000Z</time>
      </trkpt>
      <trkpt lat="42.9383077" lon="-5.7106818">
        <ele>1265.39</ele>
        <time>2020-07-21T08:30:44.000Z</time>
      </trkpt>
      <trkpt lat="42.9383217" lon="-5.7106787">
        <ele>1265.24</ele>
        <time>2020-07-21T08:30:45.000Z</time>
      </trkpt>
      <trkpt lat="42.9383357" lon="-5.7106748">
        <ele>1265.24</ele>
        <time>2020-07-21T08:30:46.000Z</time>
      </trkpt>
      <trkpt lat="42.9383498" lon="-5.710671">
        <ele>1264.94</ele>
        <time>2020-07-21T08:30:47.000Z</time>
      </trkpt>
      <trkpt lat="42.9383618" lon="-5.7106685">
        <ele>1264.94</ele>
        <time>2020-07-21T08:30:48.000Z</time>
      </trkpt>
      <trkpt lat="42.9383738" lon="-5.7106663">
        <ele>1264.63</ele>
        <time>2020-07-21T08:30:49.000Z</time>
      </trkpt>
      <trkpt lat="42.9383845" lon="-5.7106665">
        <ele>1264.63</ele>
        <time>2020-07-21T08:30:50.000Z</time>
      </trkpt>
      <trkpt lat="42.9383958" lon="-5.710666">
        <ele>1264.33</ele>
        <time>2020-07-21T08:30:51.000Z</time>
      </trkpt>
      <trkpt lat="42.9384085" lon="-5.7106635">
        <ele>1264.33</ele>
        <time>2020-07-21T08:30:52.000Z</time>
      </trkpt>
      <trkpt lat="42.9384233" lon="-5.7106573">
        <ele>1264.02</ele>
        <time>2020-07-21T08:30:53.000Z</time>
      </trkpt>
      <trkpt lat="42.938439" lon="-5.7106498">
        <ele>1264.02</ele>
        <time>2020-07-21T08:30:54.000Z</time>
      </trkpt>
      <trkpt lat="42.938453" lon="-5.7106445">
        <ele>1263.72</ele>
        <time>2020-07-21T08:30:55.000Z</time>
      </trkpt>
      <trkpt lat="42.938465" lon="-5.710644">
        <ele>1263.72</ele>
        <time>2020-07-21T08:30:56.000Z</time>
      </trkpt>
      <trkpt lat="42.938476" lon="-5.7106442">
        <ele>1263.41</ele>
        <time>2020-07-21T08:30:57.000Z</time>
      </trkpt>
      <trkpt lat="42.9384875" lon="-5.7106428">
        <ele>1263.41</ele>
        <time>2020-07-21T08:30:58.000Z</time>
      </trkpt>
      <trkpt lat="42.9385013" lon="-5.7106388">
        <ele>1263.11</ele>
        <time>2020-07-21T08:30:59.000Z</time>
      </trkpt>
      <trkpt lat="42.9385168" lon="-5.7106338">
        <ele>1263.11</ele>
        <time>2020-07-21T08:31:00.000Z</time>
      </trkpt>
      <trkpt lat="42.938533" lon="-5.7106263">
        <ele>1262.8</ele>
        <time>2020-07-21T08:31:01.000Z</time>
      </trkpt>
      <trkpt lat="42.938548" lon="-5.7106187">
        <ele>1262.8</ele>
        <time>2020-07-21T08:31:02.000Z</time>
      </trkpt>
      <trkpt lat="42.9385617" lon="-5.710613">
        <ele>1262.5</ele>
        <time>2020-07-21T08:31:03.000Z</time>
      </trkpt>
      <trkpt lat="42.9385735" lon="-5.7106113">
        <ele>1262.5</ele>
        <time>2020-07-21T08:31:04.000Z</time>
      </trkpt>
      <trkpt lat="42.938585" lon="-5.7106105">
        <ele>1262.19</ele>
        <time>2020-07-21T08:31:05.000Z</time>
      </trkpt>
      <trkpt lat="42.938598" lon="-5.710608">
        <ele>1262.19</ele>
        <time>2020-07-21T08:31:06.000Z</time>
      </trkpt>
      <trkpt lat="42.9386122" lon="-5.7106055">
        <ele>1261.89</ele>
        <time>2020-07-21T08:31:07.000Z</time>
      </trkpt>
      <trkpt lat="42.9386268" lon="-5.7106008">
        <ele>1261.89</ele>
        <time>2020-07-21T08:31:08.000Z</time>
      </trkpt>
      <trkpt lat="42.93864" lon="-5.7106003">
        <ele>1261.58</ele>
        <time>2020-07-21T08:31:09.000Z</time>
      </trkpt>
      <trkpt lat="42.938652" lon="-5.7106022">
        <ele>1261.58</ele>
        <time>2020-07-21T08:31:10.000Z</time>
      </trkpt>
      <trkpt lat="42.9386635" lon="-5.7106062">
        <ele>1261.28</ele>
        <time>2020-07-21T08:31:11.000Z</time>
      </trkpt>
      <trkpt lat="42.9386752" lon="-5.7106082">
        <ele>1261.28</ele>
        <time>2020-07-21T08:31:12.000Z</time>
      </trkpt>
      <trkpt lat="42.9386867" lon="-5.7106082">
        <ele>1260.97</ele>
        <time>2020-07-21T08:31:13.000Z</time>
      </trkpt>
      <trkpt lat="42.9386988" lon="-5.7106085">
        <ele>1260.97</ele>
        <time>2020-07-21T08:31:14.000Z</time>
      </trkpt>
      <trkpt lat="42.938711" lon="-5.7106092">
        <ele>1260.67</ele>
        <time>2020-07-21T08:31:15.000Z</time>
      </trkpt>
      <trkpt lat="42.9387233" lon="-5.7106095">
        <ele>1260.67</ele>
        <time>2020-07-21T08:31:16.000Z</time>
      </trkpt>
      <trkpt lat="42.9387353" lon="-5.7106092">
        <ele>1260.36</ele>
        <time>2020-07-21T08:31:17.000Z</time>
      </trkpt>
      <trkpt lat="42.9387473" lon="-5.7106092">
        <ele>1260.36</ele>
        <time>2020-07-21T08:31:18.000Z</time>
      </trkpt>
      <trkpt lat="42.9387588" lon="-5.7106098">
        <ele>1260.06</ele>
        <time>2020-07-21T08:31:19.000Z</time>
      </trkpt>
      <trkpt lat="42.9387707" lon="-5.7106108">
        <ele>1260.06</ele>
        <time>2020-07-21T08:31:20.000Z</time>
      </trkpt>
      <trkpt lat="42.9387827" lon="-5.7106112">
        <ele>1259.75</ele>
        <time>2020-07-21T08:31:21.000Z</time>
      </trkpt>
      <trkpt lat="42.9387953" lon="-5.7106108">
        <ele>1259.75</ele>
        <time>2020-07-21T08:31:22.000Z</time>
      </trkpt>
      <trkpt lat="42.9388078" lon="-5.71061">
        <ele>1259.45</ele>
        <time>2020-07-21T08:31:23.000Z</time>
      </trkpt>
      <trkpt lat="42.9388202" lon="-5.7106087">
        <ele>1259.45</ele>
        <time>2020-07-21T08:31:24.000Z</time>
      </trkpt>
      <trkpt lat="42.9388325" lon="-5.710608">
        <ele>1259.14</ele>
        <time>2020-07-21T08:31:25.000Z</time>
      </trkpt>
      <trkpt lat="42.938845" lon="-5.7106085">
        <ele>1259.14</ele>
        <time>2020-07-21T08:31:26.000Z</time>
      </trkpt>
      <trkpt lat="42.9388577" lon="-5.7106093">
        <ele>1258.84</ele>
        <time>2020-07-21T08:31:27.000Z</time>
      </trkpt>
      <trkpt lat="42.9388703" lon="-5.7106098">
        <ele>1258.84</ele>
        <time>2020-07-21T08:31:28.000Z</time>
      </trkpt>
      <trkpt lat="42.9388825" lon="-5.7106095">
        <ele>1258.53</ele>
        <time>2020-07-21T08:31:29.000Z</time>
      </trkpt>
      <trkpt lat="42.9388953" lon="-5.710609">
        <ele>1258.53</ele>
        <time>2020-07-21T08:31:30.000Z</time>
      </trkpt>
      <trkpt lat="42.9389077" lon="-5.7106085">
        <ele>1258.23</ele>
        <time>2020-07-21T08:31:31.000Z</time>
      </trkpt>
      <trkpt lat="42.9389207" lon="-5.7106093">
        <ele>1258.23</ele>
        <time>2020-07-21T08:31:32.000Z</time>
      </trkpt>
      <trkpt lat="42.938933" lon="-5.7106105">
        <ele>1257.93</ele>
        <time>2020-07-21T08:31:33.000Z</time>
      </trkpt>
      <trkpt lat="42.9389458" lon="-5.710612">
        <ele>1257.93</ele>
        <time>2020-07-21T08:31:34.000Z</time>
      </trkpt>
      <trkpt lat="42.9389585" lon="-5.7106127">
        <ele>1257.62</ele>
        <time>2020-07-21T08:31:35.000Z</time>
      </trkpt>
      <trkpt lat="42.9389708" lon="-5.7106132">
        <ele>1257.62</ele>
        <time>2020-07-21T08:31:36.000Z</time>
      </trkpt>
      <trkpt lat="42.9389827" lon="-5.7106143">
        <ele>1257.31</ele>
        <time>2020-07-21T08:31:37.000Z</time>
      </trkpt>
      <trkpt lat="42.9389955" lon="-5.7106155">
        <ele>1257.31</ele>
        <time>2020-07-21T08:31:38.000Z</time>
      </trkpt>
      <trkpt lat="42.9390088" lon="-5.7106167">
        <ele>1257.01</ele>
        <time>2020-07-21T08:31:39.000Z</time>
      </trkpt>
      <trkpt lat="42.939023" lon="-5.7106175">
        <ele>1257.01</ele>
        <time>2020-07-21T08:31:40.000Z</time>
      </trkpt>
      <trkpt lat="42.9390353" lon="-5.7106195">
        <ele>1256.71</ele>
        <time>2020-07-21T08:31:41.000Z</time>
      </trkpt>
      <trkpt lat="42.9390472" lon="-5.7106225">
        <ele>1256.71</ele>
        <time>2020-07-21T08:31:42.000Z</time>
      </trkpt>
      <trkpt lat="42.9390578" lon="-5.7106273">
        <ele>1256.4</ele>
        <time>2020-07-21T08:31:43.000Z</time>
      </trkpt>
      <trkpt lat="42.9390685" lon="-5.7106325">
        <ele>1256.4</ele>
        <time>2020-07-21T08:31:44.000Z</time>
      </trkpt>
      <trkpt lat="42.9390803" lon="-5.7106375">
        <ele>1256.1</ele>
        <time>2020-07-21T08:31:45.000Z</time>
      </trkpt>
      <trkpt lat="42.9390928" lon="-5.710642">
        <ele>1256.1</ele>
        <time>2020-07-21T08:31:46.000Z</time>
      </trkpt>
      <trkpt lat="42.939106" lon="-5.7106465">
        <ele>1255.64</ele>
        <time>2020-07-21T08:31:47.000Z</time>
      </trkpt>
      <trkpt lat="42.9391192" lon="-5.7106512">
        <ele>1255.64</ele>
        <time>2020-07-21T08:31:48.000Z</time>
      </trkpt>
      <trkpt lat="42.9391325" lon="-5.7106557">
        <ele>1255.33</ele>
        <time>2020-07-21T08:31:49.000Z</time>
      </trkpt>
      <trkpt lat="42.9391452" lon="-5.7106598">
        <ele>1255.33</ele>
        <time>2020-07-21T08:31:50.000Z</time>
      </trkpt>
      <trkpt lat="42.9391573" lon="-5.7106637">
        <ele>1255.03</ele>
        <time>2020-07-21T08:31:51.000Z</time>
      </trkpt>
      <trkpt lat="42.9391692" lon="-5.7106665">
        <ele>1255.03</ele>
        <time>2020-07-21T08:31:52.000Z</time>
      </trkpt>
      <trkpt lat="42.9391813" lon="-5.7106682">
        <ele>1254.72</ele>
        <time>2020-07-21T08:31:53.000Z</time>
      </trkpt>
      <trkpt lat="42.9391937" lon="-5.7106687">
        <ele>1254.72</ele>
        <time>2020-07-21T08:31:54.000Z</time>
      </trkpt>
      <trkpt lat="42.9392065" lon="-5.7106678">
        <ele>1254.42</ele>
        <time>2020-07-21T08:31:55.000Z</time>
      </trkpt>
      <trkpt lat="42.93922" lon="-5.7106668">
        <ele>1254.42</ele>
        <time>2020-07-21T08:31:56.000Z</time>
      </trkpt>
      <trkpt lat="42.939234" lon="-5.7106667">
        <ele>1254.11</ele>
        <time>2020-07-21T08:31:57.000Z</time>
      </trkpt>
      <trkpt lat="42.9392487" lon="-5.7106668">
        <ele>1254.11</ele>
        <time>2020-07-21T08:31:58.000Z</time>
      </trkpt>
      <trkpt lat="42.9392633" lon="-5.7106668">
        <ele>1253.81</ele>
        <time>2020-07-21T08:31:59.000Z</time>
      </trkpt>
      <trkpt lat="42.9392777" lon="-5.7106662">
        <ele>1253.81</ele>
        <time>2020-07-21T08:32:00.000Z</time>
      </trkpt>
      <trkpt lat="42.9392915" lon="-5.7106655">
        <ele>1253.51</ele>
        <time>2020-07-21T08:32:01.000Z</time>
      </trkpt>
      <trkpt lat="42.9393053" lon="-5.7106648">
        <ele>1253.51</ele>
        <time>2020-07-21T08:32:02.000Z</time>
      </trkpt>
      <trkpt lat="42.939319" lon="-5.7106647">
        <ele>1253.05</ele>
        <time>2020-07-21T08:32:03.000Z</time>
      </trkpt>
      <trkpt lat="42.9393332" lon="-5.710665">
        <ele>1253.05</ele>
        <time>2020-07-21T08:32:04.000Z</time>
      </trkpt>
      <trkpt lat="42.9393463" lon="-5.7106657">
        <ele>1252.74</ele>
        <time>2020-07-21T08:32:05.000Z</time>
      </trkpt>
      <trkpt lat="42.93936" lon="-5.7106652">
        <ele>1252.74</ele>
        <time>2020-07-21T08:32:06.000Z</time>
      </trkpt>
      <trkpt lat="42.9393725" lon="-5.7106635">
        <ele>1252.44</ele>
        <time>2020-07-21T08:32:07.000Z</time>
      </trkpt>
      <trkpt lat="42.9393853" lon="-5.7106617">
        <ele>1252.44</ele>
        <time>2020-07-21T08:32:08.000Z</time>
      </trkpt>
      <trkpt lat="42.9393983" lon="-5.7106607">
        <ele>1252.13</ele>
        <time>2020-07-21T08:32:09.000Z</time>
      </trkpt>
      <trkpt lat="42.9394117" lon="-5.7106608">
        <ele>1252.13</ele>
        <time>2020-07-21T08:32:10.000Z</time>
      </trkpt>
      <trkpt lat="42.9394252" lon="-5.7106617">
        <ele>1251.83</ele>
        <time>2020-07-21T08:32:11.000Z</time>
      </trkpt>
      <trkpt lat="42.9394382" lon="-5.7106622">
        <ele>1251.83</ele>
        <time>2020-07-21T08:32:12.000Z</time>
      </trkpt>
      <trkpt lat="42.9394513" lon="-5.7106618">
        <ele>1251.52</ele>
        <time>2020-07-21T08:32:13.000Z</time>
      </trkpt>
      <trkpt lat="42.9394648" lon="-5.710661">
        <ele>1251.52</ele>
        <time>2020-07-21T08:32:14.000Z</time>
      </trkpt>
      <trkpt lat="42.9394788" lon="-5.7106603">
        <ele>1251.07</ele>
        <time>2020-07-21T08:32:15.000Z</time>
      </trkpt>
      <trkpt lat="42.9394927" lon="-5.71066">
        <ele>1251.07</ele>
        <time>2020-07-21T08:32:16.000Z</time>
      </trkpt>
      <trkpt lat="42.9395065" lon="-5.7106603">
        <ele>1250.76</ele>
        <time>2020-07-21T08:32:17.000Z</time>
      </trkpt>
      <trkpt lat="42.93952" lon="-5.7106602">
        <ele>1250.76</ele>
        <time>2020-07-21T08:32:18.000Z</time>
      </trkpt>
      <trkpt lat="42.9395342" lon="-5.7106602">
        <ele>1250.46</ele>
        <time>2020-07-21T08:32:19.000Z</time>
      </trkpt>
      <trkpt lat="42.9395487" lon="-5.7106598">
        <ele>1250.46</ele>
        <time>2020-07-21T08:32:20.000Z</time>
      </trkpt>
      <trkpt lat="42.939563" lon="-5.7106595">
        <ele>1250.15</ele>
        <time>2020-07-21T08:32:21.000Z</time>
      </trkpt>
      <trkpt lat="42.9395767" lon="-5.7106588">
        <ele>1250.15</ele>
        <time>2020-07-21T08:32:22.000Z</time>
      </trkpt>
      <trkpt lat="42.9395897" lon="-5.7106582">
        <ele>1249.69</ele>
        <time>2020-07-21T08:32:23.000Z</time>
      </trkpt>
      <trkpt lat="42.9396025" lon="-5.710658">
        <ele>1249.69</ele>
        <time>2020-07-21T08:32:24.000Z</time>
      </trkpt>
      <trkpt lat="42.9396157" lon="-5.7106583">
        <ele>1249.39</ele>
        <time>2020-07-21T08:32:25.000Z</time>
      </trkpt>
      <trkpt lat="42.9396302" lon="-5.710659">
        <ele>1249.39</ele>
        <time>2020-07-21T08:32:26.000Z</time>
      </trkpt>
      <trkpt lat="42.9396445" lon="-5.7106595">
        <ele>1249.09</ele>
        <time>2020-07-21T08:32:27.000Z</time>
      </trkpt>
      <trkpt lat="42.9396585" lon="-5.7106593">
        <ele>1249.09</ele>
        <time>2020-07-21T08:32:28.000Z</time>
      </trkpt>
      <trkpt lat="42.9396717" lon="-5.7106587">
        <ele>1248.63</ele>
        <time>2020-07-21T08:32:29.000Z</time>
      </trkpt>
      <trkpt lat="42.9396853" lon="-5.7106575">
        <ele>1248.63</ele>
        <time>2020-07-21T08:32:30.000Z</time>
      </trkpt>
      <trkpt lat="42.9396992" lon="-5.7106568">
        <ele>1248.32</ele>
        <time>2020-07-21T08:32:31.000Z</time>
      </trkpt>
      <trkpt lat="42.9397127" lon="-5.7106563">
        <ele>1248.32</ele>
        <time>2020-07-21T08:32:32.000Z</time>
      </trkpt>
      <trkpt lat="42.9397267" lon="-5.710656">
        <ele>1248.02</ele>
        <time>2020-07-21T08:32:33.000Z</time>
      </trkpt>
      <trkpt lat="42.9397402" lon="-5.7106557">
        <ele>1248.02</ele>
        <time>2020-07-21T08:32:34.000Z</time>
      </trkpt>
      <trkpt lat="42.9397533" lon="-5.7106573">
        <ele>1247.71</ele>
        <time>2020-07-21T08:32:35.000Z</time>
      </trkpt>
      <trkpt lat="42.9397663" lon="-5.7106597">
        <ele>1247.71</ele>
        <time>2020-07-21T08:32:36.000Z</time>
      </trkpt>
      <trkpt lat="42.939781" lon="-5.7106612">
        <ele>1247.41</ele>
        <time>2020-07-21T08:32:37.000Z</time>
      </trkpt>
      <trkpt lat="42.9397968" lon="-5.710659">
        <ele>1247.41</ele>
        <time>2020-07-21T08:32:38.000Z</time>
      </trkpt>
      <trkpt lat="42.939812" lon="-5.7106565">
        <ele>1247.1</ele>
        <time>2020-07-21T08:32:39.000Z</time>
      </trkpt>
      <trkpt lat="42.9398253" lon="-5.7106552">
        <ele>1247.1</ele>
        <time>2020-07-21T08:32:40.000Z</time>
      </trkpt>
      <trkpt lat="42.939838" lon="-5.7106542">
        <ele>1246.95</ele>
        <time>2020-07-21T08:32:41.000Z</time>
      </trkpt>
      <trkpt lat="42.939851" lon="-5.7106527">
        <ele>1246.95</ele>
        <time>2020-07-21T08:32:42.000Z</time>
      </trkpt>
      <trkpt lat="42.9398647" lon="-5.7106497">
        <ele>1246.65</ele>
        <time>2020-07-21T08:32:43.000Z</time>
      </trkpt>
      <trkpt lat="42.9398788" lon="-5.7106457">
        <ele>1246.65</ele>
        <time>2020-07-21T08:32:44.000Z</time>
      </trkpt>
      <trkpt lat="42.9398935" lon="-5.7106395">
        <ele>1246.49</ele>
        <time>2020-07-21T08:32:45.000Z</time>
      </trkpt>
      <trkpt lat="42.939907" lon="-5.7106317">
        <ele>1246.49</ele>
        <time>2020-07-21T08:32:46.000Z</time>
      </trkpt>
      <trkpt lat="42.9399192" lon="-5.7106232">
        <ele>1246.34</ele>
        <time>2020-07-21T08:32:47.000Z</time>
      </trkpt>
      <trkpt lat="42.9399315" lon="-5.7106157">
        <ele>1246.34</ele>
        <time>2020-07-21T08:32:48.000Z</time>
      </trkpt>
      <trkpt lat="42.939944" lon="-5.7106092">
        <ele>1246.04</ele>
        <time>2020-07-21T08:32:49.000Z</time>
      </trkpt>
      <trkpt lat="42.9399568" lon="-5.7106032">
        <ele>1246.04</ele>
        <time>2020-07-21T08:32:50.000Z</time>
      </trkpt>
      <trkpt lat="42.9399688" lon="-5.7105962">
        <ele>1245.89</ele>
        <time>2020-07-21T08:32:51.000Z</time>
      </trkpt>
      <trkpt lat="42.939981" lon="-5.7105898">
        <ele>1245.89</ele>
        <time>2020-07-21T08:32:52.000Z</time>
      </trkpt>
      <trkpt lat="42.9399927" lon="-5.7105847">
        <ele>1245.73</ele>
        <time>2020-07-21T08:32:53.000Z</time>
      </trkpt>
      <trkpt lat="42.9400038" lon="-5.7105795">
        <ele>1245.73</ele>
        <time>2020-07-21T08:32:54.000Z</time>
      </trkpt>
      <trkpt lat="42.9400148" lon="-5.7105737">
        <ele>1245.58</ele>
        <time>2020-07-21T08:32:55.000Z</time>
      </trkpt>
      <trkpt lat="42.940026" lon="-5.7105675">
        <ele>1245.58</ele>
        <time>2020-07-21T08:32:56.000Z</time>
      </trkpt>
      <trkpt lat="42.940037" lon="-5.7105612">
        <ele>1245.58</ele>
        <time>2020-07-21T08:32:57.000Z</time>
      </trkpt>
      <trkpt lat="42.9400478" lon="-5.710555">
        <ele>1245.58</ele>
        <time>2020-07-21T08:32:58.000Z</time>
      </trkpt>
      <trkpt lat="42.940059" lon="-5.7105493">
        <ele>1245.43</ele>
        <time>2020-07-21T08:32:59.000Z</time>
      </trkpt>
      <trkpt lat="42.9400702" lon="-5.7105455">
        <ele>1245.43</ele>
        <time>2020-07-21T08:33:00.000Z</time>
      </trkpt>
      <trkpt lat="42.9400822" lon="-5.7105422">
        <ele>1245.28</ele>
        <time>2020-07-21T08:33:01.000Z</time>
      </trkpt>
      <trkpt lat="42.940095" lon="-5.7105388">
        <ele>1245.28</ele>
        <time>2020-07-21T08:33:02.000Z</time>
      </trkpt>
      <trkpt lat="42.9401083" lon="-5.7105345">
        <ele>1245.28</ele>
        <time>2020-07-21T08:33:03.000Z</time>
      </trkpt>
      <trkpt lat="42.940121" lon="-5.7105302">
        <ele>1245.28</ele>
        <time>2020-07-21T08:33:04.000Z</time>
      </trkpt>
      <trkpt lat="42.9401333" lon="-5.7105263">
        <ele>1245.12</ele>
        <time>2020-07-21T08:33:05.000Z</time>
      </trkpt>
      <trkpt lat="42.9401455" lon="-5.710523">
        <ele>1245.12</ele>
        <time>2020-07-21T08:33:06.000Z</time>
      </trkpt>
      <trkpt lat="42.9401575" lon="-5.7105198">
        <ele>1245.12</ele>
        <time>2020-07-21T08:33:07.000Z</time>
      </trkpt>
      <trkpt lat="42.9401695" lon="-5.710516">
        <ele>1245.12</ele>
        <time>2020-07-21T08:33:08.000Z</time>
      </trkpt>
      <trkpt lat="42.9401818" lon="-5.7105118">
        <ele>1245.12</ele>
        <time>2020-07-21T08:33:09.000Z</time>
      </trkpt>
      <trkpt lat="42.9401947" lon="-5.7105077">
        <ele>1245.12</ele>
        <time>2020-07-21T08:33:10.000Z</time>
      </trkpt>
      <trkpt lat="42.9402075" lon="-5.7105035">
        <ele>1244.97</ele>
        <time>2020-07-21T08:33:11.000Z</time>
      </trkpt>
      <trkpt lat="42.94022" lon="-5.7105002">
        <ele>1244.97</ele>
        <time>2020-07-21T08:33:12.000Z</time>
      </trkpt>
      <trkpt lat="42.9402327" lon="-5.7104967">
        <ele>1244.97</ele>
        <time>2020-07-21T08:33:13.000Z</time>
      </trkpt>
      <trkpt lat="42.9402447" lon="-5.7104927">
        <ele>1244.97</ele>
        <time>2020-07-21T08:33:14.000Z</time>
      </trkpt>
      <trkpt lat="42.9402565" lon="-5.7104878">
        <ele>1244.97</ele>
        <time>2020-07-21T08:33:15.000Z</time>
      </trkpt>
      <trkpt lat="42.9402683" lon="-5.710483">
        <ele>1244.97</ele>
        <time>2020-07-21T08:33:16.000Z</time>
      </trkpt>
      <trkpt lat="42.9402807" lon="-5.7104788">
        <ele>1244.97</ele>
        <time>2020-07-21T08:33:17.000Z</time>
      </trkpt>
      <trkpt lat="42.9402937" lon="-5.7104758">
        <ele>1244.97</ele>
        <time>2020-07-21T08:33:18.000Z</time>
      </trkpt>
      <trkpt lat="42.9403073" lon="-5.7104728">
        <ele>1244.97</ele>
        <time>2020-07-21T08:33:19.000Z</time>
      </trkpt>
      <trkpt lat="42.9403212" lon="-5.7104695">
        <ele>1244.97</ele>
        <time>2020-07-21T08:33:20.000Z</time>
      </trkpt>
      <trkpt lat="42.9403348" lon="-5.710466">
        <ele>1245.12</ele>
        <time>2020-07-21T08:33:21.000Z</time>
      </trkpt>
      <trkpt lat="42.9403482" lon="-5.710463">
        <ele>1245.12</ele>
        <time>2020-07-21T08:33:22.000Z</time>
      </trkpt>
      <trkpt lat="42.9403612" lon="-5.71046">
        <ele>1245.12</ele>
        <time>2020-07-21T08:33:23.000Z</time>
      </trkpt>
      <trkpt lat="42.9403738" lon="-5.7104557">
        <ele>1245.12</ele>
        <time>2020-07-21T08:33:24.000Z</time>
      </trkpt>
      <trkpt lat="42.9403862" lon="-5.710451">
        <ele>1245.12</ele>
        <time>2020-07-21T08:33:25.000Z</time>
      </trkpt>
      <trkpt lat="42.940399" lon="-5.7104458">
        <ele>1245.12</ele>
        <time>2020-07-21T08:33:26.000Z</time>
      </trkpt>
      <trkpt lat="42.9404122" lon="-5.710441">
        <ele>1245.12</ele>
        <time>2020-07-21T08:33:27.000Z</time>
      </trkpt>
      <trkpt lat="42.9404257" lon="-5.710436">
        <ele>1245.12</ele>
        <time>2020-07-21T08:33:28.000Z</time>
      </trkpt>
      <trkpt lat="42.9404385" lon="-5.710431">
        <ele>1245.28</ele>
        <time>2020-07-21T08:33:29.000Z</time>
      </trkpt>
      <trkpt lat="42.9404515" lon="-5.7104255">
        <ele>1245.28</ele>
        <time>2020-07-21T08:33:30.000Z</time>
      </trkpt>
      <trkpt lat="42.9404647" lon="-5.7104202">
        <ele>1245.28</ele>
        <time>2020-07-21T08:33:31.000Z</time>
      </trkpt>
      <trkpt lat="42.940478" lon="-5.7104148">
        <ele>1245.28</ele>
        <time>2020-07-21T08:33:32.000Z</time>
      </trkpt>
      <trkpt lat="42.9404915" lon="-5.7104097">
        <ele>1245.28</ele>
        <time>2020-07-21T08:33:33.000Z</time>
      </trkpt>
      <trkpt lat="42.9405045" lon="-5.7104042">
        <ele>1245.28</ele>
        <time>2020-07-21T08:33:34.000Z</time>
      </trkpt>
      <trkpt lat="42.9405177" lon="-5.7103977">
        <ele>1245.43</ele>
        <time>2020-07-21T08:33:35.000Z</time>
      </trkpt>
      <trkpt lat="42.9405298" lon="-5.7103912">
        <ele>1245.43</ele>
        <time>2020-07-21T08:33:36.000Z</time>
      </trkpt>
      <trkpt lat="42.940542" lon="-5.7103847">
        <ele>1245.43</ele>
        <time>2020-07-21T08:33:37.000Z</time>
      </trkpt>
      <trkpt lat="42.9405542" lon="-5.7103788">
        <ele>1245.43</ele>
        <time>2020-07-21T08:33:38.000Z</time>
      </trkpt>
      <trkpt lat="42.9405667" lon="-5.7103737">
        <ele>1245.43</ele>
        <time>2020-07-21T08:33:39.000Z</time>
      </trkpt>
      <trkpt lat="42.9405803" lon="-5.710369">
        <ele>1245.43</ele>
        <time>2020-07-21T08:33:40.000Z</time>
      </trkpt>
      <trkpt lat="42.9405937" lon="-5.7103652">
        <ele>1245.58</ele>
        <time>2020-07-21T08:33:41.000Z</time>
      </trkpt>
      <trkpt lat="42.9406072" lon="-5.7103607">
        <ele>1245.58</ele>
        <time>2020-07-21T08:33:42.000Z</time>
      </trkpt>
      <trkpt lat="42.9406195" lon="-5.7103562">
        <ele>1245.58</ele>
        <time>2020-07-21T08:33:43.000Z</time>
      </trkpt>
      <trkpt lat="42.940632" lon="-5.7103513">
        <ele>1245.58</ele>
        <time>2020-07-21T08:33:44.000Z</time>
      </trkpt>
      <trkpt lat="42.9406447" lon="-5.7103473">
        <ele>1245.58</ele>
        <time>2020-07-21T08:33:45.000Z</time>
      </trkpt>
      <trkpt lat="42.9406572" lon="-5.7103443">
        <ele>1245.58</ele>
        <time>2020-07-21T08:33:46.000Z</time>
      </trkpt>
      <trkpt lat="42.9406705" lon="-5.7103418">
        <ele>1245.73</ele>
        <time>2020-07-21T08:33:47.000Z</time>
      </trkpt>
      <trkpt lat="42.9406835" lon="-5.710339">
        <ele>1245.73</ele>
        <time>2020-07-21T08:33:48.000Z</time>
      </trkpt>
      <trkpt lat="42.9406963" lon="-5.710335">
        <ele>1245.73</ele>
        <time>2020-07-21T08:33:49.000Z</time>
      </trkpt>
      <trkpt lat="42.9407082" lon="-5.7103307">
        <ele>1245.73</ele>
        <time>2020-07-21T08:33:50.000Z</time>
      </trkpt>
      <trkpt lat="42.9407197" lon="-5.7103267">
        <ele>1245.89</ele>
        <time>2020-07-21T08:33:51.000Z</time>
      </trkpt>
      <trkpt lat="42.9407313" lon="-5.7103232">
        <ele>1245.89</ele>
        <time>2020-07-21T08:33:52.000Z</time>
      </trkpt>
      <trkpt lat="42.9407432" lon="-5.7103182">
        <ele>1246.04</ele>
        <time>2020-07-21T08:33:53.000Z</time>
      </trkpt>
      <trkpt lat="42.9407545" lon="-5.710312">
        <ele>1246.04</ele>
        <time>2020-07-21T08:33:54.000Z</time>
      </trkpt>
      <trkpt lat="42.9407658" lon="-5.7103068">
        <ele>1246.04</ele>
        <time>2020-07-21T08:33:55.000Z</time>
      </trkpt>
      <trkpt lat="42.940777" lon="-5.7103048">
        <ele>1246.04</ele>
        <time>2020-07-21T08:33:56.000Z</time>
      </trkpt>
      <trkpt lat="42.940789" lon="-5.7103045">
        <ele>1246.19</ele>
        <time>2020-07-21T08:33:57.000Z</time>
      </trkpt>
      <trkpt lat="42.9408013" lon="-5.7103045">
        <ele>1246.19</ele>
        <time>2020-07-21T08:33:58.000Z</time>
      </trkpt>
      <trkpt lat="42.9408145" lon="-5.710304">
        <ele>1246.34</ele>
        <time>2020-07-21T08:33:59.000Z</time>
      </trkpt>
      <trkpt lat="42.940828" lon="-5.7103043">
        <ele>1246.34</ele>
        <time>2020-07-21T08:34:00.000Z</time>
      </trkpt>
      <trkpt lat="42.9408413" lon="-5.7103048">
        <ele>1246.34</ele>
        <time>2020-07-21T08:34:01.000Z</time>
      </trkpt>
      <trkpt lat="42.9408553" lon="-5.7103062">
        <ele>1246.34</ele>
        <time>2020-07-21T08:34:02.000Z</time>
      </trkpt>
      <trkpt lat="42.9408693" lon="-5.7103087">
        <ele>1246.49</ele>
        <time>2020-07-21T08:34:03.000Z</time>
      </trkpt>
      <trkpt lat="42.940886" lon="-5.7103128">
        <ele>1246.49</ele>
        <time>2020-07-21T08:34:04.000Z</time>
      </trkpt>
      <trkpt lat="42.9409023" lon="-5.7103178">
        <ele>1246.65</ele>
        <time>2020-07-21T08:34:05.000Z</time>
      </trkpt>
      <trkpt lat="42.9409188" lon="-5.7103223">
        <ele>1246.65</ele>
        <time>2020-07-21T08:34:06.000Z</time>
      </trkpt>
      <trkpt lat="42.9409323" lon="-5.7103273">
        <ele>1246.8</ele>
        <time>2020-07-21T08:34:07.000Z</time>
      </trkpt>
      <trkpt lat="42.940945" lon="-5.7103322">
        <ele>1246.8</ele>
        <time>2020-07-21T08:34:08.000Z</time>
      </trkpt>
      <trkpt lat="42.9409568" lon="-5.7103377">
        <ele>1246.95</ele>
        <time>2020-07-21T08:34:09.000Z</time>
      </trkpt>
      <trkpt lat="42.9409688" lon="-5.710343">
        <ele>1246.95</ele>
        <time>2020-07-21T08:34:10.000Z</time>
      </trkpt>
      <trkpt lat="42.9409815" lon="-5.7103493">
        <ele>1247.1</ele>
        <time>2020-07-21T08:34:11.000Z</time>
      </trkpt>
      <trkpt lat="42.940994" lon="-5.710355">
        <ele>1247.1</ele>
        <time>2020-07-21T08:34:12.000Z</time>
      </trkpt>
      <trkpt lat="42.9410067" lon="-5.7103598">
        <ele>1247.26</ele>
        <time>2020-07-21T08:34:13.000Z</time>
      </trkpt>
      <trkpt lat="42.9410172" lon="-5.7103635">
        <ele>1247.26</ele>
        <time>2020-07-21T08:34:14.000Z</time>
      </trkpt>
      <trkpt lat="42.941024" lon="-5.7103657">
        <ele>1247.41</ele>
        <time>2020-07-21T08:34:15.000Z</time>
      </trkpt>
      <trkpt lat="42.941027" lon="-5.7103665">
        <ele>1247.41</ele>
        <time>2020-07-21T08:34:16.000Z</time>
      </trkpt>
      <trkpt lat="42.9410278" lon="-5.7103658">
        <ele>1247.56</ele>
        <time>2020-07-21T08:34:17.000Z</time>
      </trkpt>
      <trkpt lat="42.9410277" lon="-5.7103653">
        <ele>1247.56</ele>
        <time>2020-07-21T08:34:18.000Z</time>
      </trkpt>
      <trkpt lat="42.9410277" lon="-5.710365">
        <ele>1247.71</ele>
        <time>2020-07-21T08:34:19.000Z</time>
      </trkpt>
      <trkpt lat="42.9410277" lon="-5.7103652">
        <ele>1247.71</ele>
        <time>2020-07-21T08:34:20.000Z</time>
      </trkpt>
      <trkpt lat="42.9410278" lon="-5.7103657">
        <ele>1247.87</ele>
        <time>2020-07-21T08:34:21.000Z</time>
      </trkpt>
      <trkpt lat="42.9410278" lon="-5.710366">
        <ele>1247.87</ele>
        <time>2020-07-21T08:34:22.000Z</time>
      </trkpt>
      <trkpt lat="42.9410277" lon="-5.7103665">
        <ele>1248.02</ele>
        <time>2020-07-21T08:34:23.000Z</time>
      </trkpt>
      <trkpt lat="42.941028" lon="-5.710366">
        <ele>1248.02</ele>
        <time>2020-07-21T08:34:24.000Z</time>
      </trkpt>
      <trkpt lat="42.9410283" lon="-5.7103658">
        <ele>1248.17</ele>
        <time>2020-07-21T08:34:25.000Z</time>
      </trkpt>
      <trkpt lat="42.9410288" lon="-5.7103662">
        <ele>1248.17</ele>
        <time>2020-07-21T08:34:26.000Z</time>
      </trkpt>
      <trkpt lat="42.9410287" lon="-5.7103653">
        <ele>1248.32</ele>
        <time>2020-07-21T08:34:27.000Z</time>
      </trkpt>
      <trkpt lat="42.9410263" lon="-5.7103617">
        <ele>1248.32</ele>
        <time>2020-07-21T08:34:28.000Z</time>
      </trkpt>
      <trkpt lat="42.941022" lon="-5.7103555">
        <ele>1248.48</ele>
        <time>2020-07-21T08:34:29.000Z</time>
      </trkpt>
      <trkpt lat="42.9410155" lon="-5.7103492">
        <ele>1248.48</ele>
        <time>2020-07-21T08:34:30.000Z</time>
      </trkpt>
      <trkpt lat="42.9410078" lon="-5.7103423">
        <ele>1248.63</ele>
        <time>2020-07-21T08:34:31.000Z</time>
      </trkpt>
      <trkpt lat="42.9409992" lon="-5.7103358">
        <ele>1248.63</ele>
        <time>2020-07-21T08:34:32.000Z</time>
      </trkpt>
      <trkpt lat="42.9409898" lon="-5.7103297">
        <ele>1248.78</ele>
        <time>2020-07-21T08:34:33.000Z</time>
      </trkpt>
      <trkpt lat="42.9409803" lon="-5.7103255">
        <ele>1248.78</ele>
        <time>2020-07-21T08:34:34.000Z</time>
      </trkpt>
      <trkpt lat="42.9409705" lon="-5.7103227">
        <ele>1249.09</ele>
        <time>2020-07-21T08:34:35.000Z</time>
      </trkpt>
      <trkpt lat="42.9409603" lon="-5.7103198">
        <ele>1249.09</ele>
        <time>2020-07-21T08:34:36.000Z</time>
      </trkpt>
      <trkpt lat="42.9409505" lon="-5.7103163">
        <ele>1249.24</ele>
        <time>2020-07-21T08:34:37.000Z</time>
      </trkpt>
      <trkpt lat="42.940941" lon="-5.710312">
        <ele>1249.24</ele>
        <time>2020-07-21T08:34:38.000Z</time>
      </trkpt>
      <trkpt lat="42.9409317" lon="-5.7103085">
        <ele>1249.39</ele>
        <time>2020-07-21T08:34:39.000Z</time>
      </trkpt>
      <trkpt lat="42.940922" lon="-5.7103058">
        <ele>1249.39</ele>
        <time>2020-07-21T08:34:40.000Z</time>
      </trkpt>
      <trkpt lat="42.9409123" lon="-5.710304">
        <ele>1249.54</ele>
        <time>2020-07-21T08:34:41.000Z</time>
      </trkpt>
      <trkpt lat="42.9409023" lon="-5.710301">
        <ele>1249.54</ele>
        <time>2020-07-21T08:34:42.000Z</time>
      </trkpt>
      <trkpt lat="42.9408927" lon="-5.7102977">
        <ele>1249.85</ele>
        <time>2020-07-21T08:34:43.000Z</time>
      </trkpt>
      <trkpt lat="42.9408828" lon="-5.7102948">
        <ele>1249.85</ele>
        <time>2020-07-21T08:34:44.000Z</time>
      </trkpt>
      <trkpt lat="42.9408732" lon="-5.710293">
        <ele>1250</ele>
        <time>2020-07-21T08:34:45.000Z</time>
      </trkpt>
      <trkpt lat="42.9408635" lon="-5.7102915">
        <ele>1250</ele>
        <time>2020-07-21T08:34:46.000Z</time>
      </trkpt>
      <trkpt lat="42.940854" lon="-5.7102897">
        <ele>1250.15</ele>
        <time>2020-07-21T08:34:47.000Z</time>
      </trkpt>
      <trkpt lat="42.9408442" lon="-5.7102885">
        <ele>1250.15</ele>
        <time>2020-07-21T08:34:48.000Z</time>
      </trkpt>
      <trkpt lat="42.9408347" lon="-5.7102872">
        <ele>1250.46</ele>
        <time>2020-07-21T08:34:49.000Z</time>
      </trkpt>
      <trkpt lat="42.940825" lon="-5.7102863">
        <ele>1250.46</ele>
        <time>2020-07-21T08:34:50.000Z</time>
      </trkpt>
      <trkpt lat="42.9408158" lon="-5.7102858">
        <ele>1250.61</ele>
        <time>2020-07-21T08:34:51.000Z</time>
      </trkpt>
      <trkpt lat="42.940806" lon="-5.7102862">
        <ele>1250.61</ele>
        <time>2020-07-21T08:34:52.000Z</time>
      </trkpt>
      <trkpt lat="42.9407967" lon="-5.7102867">
        <ele>1250.76</ele>
        <time>2020-07-21T08:34:53.000Z</time>
      </trkpt>
      <trkpt lat="42.9407877" lon="-5.710288">
        <ele>1250.76</ele>
        <time>2020-07-21T08:34:54.000Z</time>
      </trkpt>
      <trkpt lat="42.9407792" lon="-5.7102892">
        <ele>1250.91</ele>
        <time>2020-07-21T08:34:55.000Z</time>
      </trkpt>
      <trkpt lat="42.9407705" lon="-5.7102903">
        <ele>1250.91</ele>
        <time>2020-07-21T08:34:56.000Z</time>
      </trkpt>
      <trkpt lat="42.9407618" lon="-5.7102917">
        <ele>1251.22</ele>
        <time>2020-07-21T08:34:57.000Z</time>
      </trkpt>
      <trkpt lat="42.9407535" lon="-5.7102927">
        <ele>1251.22</ele>
        <time>2020-07-21T08:34:58.000Z</time>
      </trkpt>
      <trkpt lat="42.9407458" lon="-5.7102937">
        <ele>1251.37</ele>
        <time>2020-07-21T08:34:59.000Z</time>
      </trkpt>
      <trkpt lat="42.9407383" lon="-5.7102942">
        <ele>1251.37</ele>
        <time>2020-07-21T08:35:00.000Z</time>
      </trkpt>
      <trkpt lat="42.9407307" lon="-5.7102953">
        <ele>1251.52</ele>
        <time>2020-07-21T08:35:01.000Z</time>
      </trkpt>
      <trkpt lat="42.9407232" lon="-5.7102967">
        <ele>1251.52</ele>
        <time>2020-07-21T08:35:02.000Z</time>
      </trkpt>
      <trkpt lat="42.9407155" lon="-5.7102982">
        <ele>1251.83</ele>
        <time>2020-07-21T08:35:03.000Z</time>
      </trkpt>
      <trkpt lat="42.940708" lon="-5.7103008">
        <ele>1251.83</ele>
        <time>2020-07-21T08:35:04.000Z</time>
      </trkpt>
      <trkpt lat="42.9407018" lon="-5.710304">
        <ele>1251.98</ele>
        <time>2020-07-21T08:35:05.000Z</time>
      </trkpt>
      <trkpt lat="42.9406977" lon="-5.7103058">
        <ele>1251.98</ele>
        <time>2020-07-21T08:35:06.000Z</time>
      </trkpt>
      <trkpt lat="42.9406955" lon="-5.7103063">
        <ele>1252.13</ele>
        <time>2020-07-21T08:35:07.000Z</time>
      </trkpt>
      <trkpt lat="42.9406958" lon="-5.7103053">
        <ele>1252.13</ele>
        <time>2020-07-21T08:35:08.000Z</time>
      </trkpt>
      <trkpt lat="42.9406965" lon="-5.7103048">
        <ele>1252.44</ele>
        <time>2020-07-21T08:35:09.000Z</time>
      </trkpt>
      <trkpt lat="42.9406968" lon="-5.7103045">
        <ele>1252.44</ele>
        <time>2020-07-21T08:35:10.000Z</time>
      </trkpt>
      <trkpt lat="42.9406963" lon="-5.7103045">
        <ele>1252.59</ele>
        <time>2020-07-21T08:35:11.000Z</time>
      </trkpt>
      <trkpt lat="42.9406958" lon="-5.710304">
        <ele>1252.59</ele>
        <time>2020-07-21T08:35:12.000Z</time>
      </trkpt>
      <trkpt lat="42.940696" lon="-5.7103032">
        <ele>1252.74</ele>
        <time>2020-07-21T08:35:13.000Z</time>
      </trkpt>
      <trkpt lat="42.9406962" lon="-5.7103023">
        <ele>1252.74</ele>
        <time>2020-07-21T08:35:14.000Z</time>
      </trkpt>
      <trkpt lat="42.9406958" lon="-5.7103015">
        <ele>1253.05</ele>
        <time>2020-07-21T08:35:15.000Z</time>
      </trkpt>
      <trkpt lat="42.9406955" lon="-5.7103007">
        <ele>1253.05</ele>
        <time>2020-07-21T08:35:16.000Z</time>
      </trkpt>
      <trkpt lat="42.9406952" lon="-5.7102997">
        <ele>1253.2</ele>
        <time>2020-07-21T08:35:17.000Z</time>
      </trkpt>
      <trkpt lat="42.9406948" lon="-5.7102988">
        <ele>1253.2</ele>
        <time>2020-07-21T08:35:18.000Z</time>
      </trkpt>
      <trkpt lat="42.9406945" lon="-5.710298">
        <ele>1253.35</ele>
        <time>2020-07-21T08:35:19.000Z</time>
      </trkpt>
      <trkpt lat="42.9406937" lon="-5.7102968">
        <ele>1253.35</ele>
        <time>2020-07-21T08:35:20.000Z</time>
      </trkpt>
      <trkpt lat="42.9406903" lon="-5.7102977">
        <ele>1253.66</ele>
        <time>2020-07-21T08:35:21.000Z</time>
      </trkpt>
      <trkpt lat="42.9406845" lon="-5.7102997">
        <ele>1253.66</ele>
        <time>2020-07-21T08:35:22.000Z</time>
      </trkpt>
      <trkpt lat="42.9406762" lon="-5.710303">
        <ele>1253.81</ele>
        <time>2020-07-21T08:35:23.000Z</time>
      </trkpt>
      <trkpt lat="42.9406678" lon="-5.7103068">
        <ele>1253.81</ele>
        <time>2020-07-21T08:35:24.000Z</time>
      </trkpt>
      <trkpt lat="42.9406593" lon="-5.7103125">
        <ele>1253.96</ele>
        <time>2020-07-21T08:35:25.000Z</time>
      </trkpt>
      <trkpt lat="42.9406508" lon="-5.7103185">
        <ele>1253.96</ele>
        <time>2020-07-21T08:35:26.000Z</time>
      </trkpt>
      <trkpt lat="42.9406422" lon="-5.7103232">
        <ele>1254.27</ele>
        <time>2020-07-21T08:35:27.000Z</time>
      </trkpt>
      <trkpt lat="42.9406332" lon="-5.7103257">
        <ele>1254.27</ele>
        <time>2020-07-21T08:35:28.000Z</time>
      </trkpt>
      <trkpt lat="42.9406235" lon="-5.7103273">
        <ele>1254.42</ele>
        <time>2020-07-21T08:35:29.000Z</time>
      </trkpt>
      <trkpt lat="42.9406135" lon="-5.710329">
        <ele>1254.42</ele>
        <time>2020-07-21T08:35:30.000Z</time>
      </trkpt>
      <trkpt lat="42.9406037" lon="-5.710332">
        <ele>1254.57</ele>
        <time>2020-07-21T08:35:31.000Z</time>
      </trkpt>
      <trkpt lat="42.9405942" lon="-5.710336">
        <ele>1254.57</ele>
        <time>2020-07-21T08:35:32.000Z</time>
      </trkpt>
      <trkpt lat="42.940585" lon="-5.71034">
        <ele>1254.88</ele>
        <time>2020-07-21T08:35:33.000Z</time>
      </trkpt>
      <trkpt lat="42.9405758" lon="-5.7103427">
        <ele>1254.88</ele>
        <time>2020-07-21T08:35:34.000Z</time>
      </trkpt>
      <trkpt lat="42.9405665" lon="-5.7103453">
        <ele>1255.03</ele>
        <time>2020-07-21T08:35:35.000Z</time>
      </trkpt>
      <trkpt lat="42.940557" lon="-5.71035">
        <ele>1255.03</ele>
        <time>2020-07-21T08:35:36.000Z</time>
      </trkpt>
      <trkpt lat="42.9405475" lon="-5.7103555">
        <ele>1255.33</ele>
        <time>2020-07-21T08:35:37.000Z</time>
      </trkpt>
      <trkpt lat="42.9405383" lon="-5.7103612">
        <ele>1255.33</ele>
        <time>2020-07-21T08:35:38.000Z</time>
      </trkpt>
      <trkpt lat="42.9405293" lon="-5.7103657">
        <ele>1255.49</ele>
        <time>2020-07-21T08:35:39.000Z</time>
      </trkpt>
      <trkpt lat="42.9405203" lon="-5.7103703">
        <ele>1255.49</ele>
        <time>2020-07-21T08:35:40.000Z</time>
      </trkpt>
      <trkpt lat="42.9405117" lon="-5.710375">
        <ele>1255.64</ele>
        <time>2020-07-21T08:35:41.000Z</time>
      </trkpt>
      <trkpt lat="42.9405027" lon="-5.7103802">
        <ele>1255.64</ele>
        <time>2020-07-21T08:35:42.000Z</time>
      </trkpt>
      <trkpt lat="42.9404935" lon="-5.7103843">
        <ele>1255.94</ele>
        <time>2020-07-21T08:35:43.000Z</time>
      </trkpt>
      <trkpt lat="42.9404842" lon="-5.7103877">
        <ele>1255.94</ele>
        <time>2020-07-21T08:35:44.000Z</time>
      </trkpt>
      <trkpt lat="42.9404752" lon="-5.7103912">
        <ele>1256.1</ele>
        <time>2020-07-21T08:35:45.000Z</time>
      </trkpt>
      <trkpt lat="42.9404665" lon="-5.7103957">
        <ele>1256.1</ele>
        <time>2020-07-21T08:35:46.000Z</time>
      </trkpt>
      <trkpt lat="42.9404578" lon="-5.7104017">
        <ele>1256.4</ele>
        <time>2020-07-21T08:35:47.000Z</time>
      </trkpt>
      <trkpt lat="42.940449" lon="-5.7104068">
        <ele>1256.4</ele>
        <time>2020-07-21T08:35:48.000Z</time>
      </trkpt>
      <trkpt lat="42.9404397" lon="-5.7104117">
        <ele>1256.55</ele>
        <time>2020-07-21T08:35:49.000Z</time>
      </trkpt>
      <trkpt lat="42.9404303" lon="-5.710416">
        <ele>1256.55</ele>
        <time>2020-07-21T08:35:50.000Z</time>
      </trkpt>
      <trkpt lat="42.9404205" lon="-5.7104208">
        <ele>1256.71</ele>
        <time>2020-07-21T08:35:51.000Z</time>
      </trkpt>
      <trkpt lat="42.940411" lon="-5.7104253">
        <ele>1256.71</ele>
        <time>2020-07-21T08:35:52.000Z</time>
      </trkpt>
      <trkpt lat="42.9404015" lon="-5.7104303">
        <ele>1257.01</ele>
        <time>2020-07-21T08:35:53.000Z</time>
      </trkpt>
      <trkpt lat="42.9403915" lon="-5.710435">
        <ele>1257.01</ele>
        <time>2020-07-21T08:35:54.000Z</time>
      </trkpt>
      <trkpt lat="42.9403815" lon="-5.7104387">
        <ele>1257.16</ele>
        <time>2020-07-21T08:35:55.000Z</time>
      </trkpt>
      <trkpt lat="42.9403712" lon="-5.7104405">
        <ele>1257.16</ele>
        <time>2020-07-21T08:35:56.000Z</time>
      </trkpt>
      <trkpt lat="42.940361" lon="-5.7104412">
        <ele>1257.47</ele>
        <time>2020-07-21T08:35:57.000Z</time>
      </trkpt>
      <trkpt lat="42.9403508" lon="-5.7104433">
        <ele>1257.47</ele>
        <time>2020-07-21T08:35:58.000Z</time>
      </trkpt>
      <trkpt lat="42.9403408" lon="-5.7104452">
        <ele>1257.62</ele>
        <time>2020-07-21T08:35:59.000Z</time>
      </trkpt>
      <trkpt lat="42.9403312" lon="-5.7104478">
        <ele>1257.62</ele>
        <time>2020-07-21T08:36:00.000Z</time>
      </trkpt>
      <trkpt lat="42.9403215" lon="-5.7104495">
        <ele>1257.93</ele>
        <time>2020-07-21T08:36:01.000Z</time>
      </trkpt>
      <trkpt lat="42.9403115" lon="-5.7104527">
        <ele>1257.93</ele>
        <time>2020-07-21T08:36:02.000Z</time>
      </trkpt>
      <trkpt lat="42.9403008" lon="-5.7104555">
        <ele>1258.23</ele>
        <time>2020-07-21T08:36:03.000Z</time>
      </trkpt>
      <trkpt lat="42.9402902" lon="-5.710459">
        <ele>1258.23</ele>
        <time>2020-07-21T08:36:04.000Z</time>
      </trkpt>
      <trkpt lat="42.9402797" lon="-5.7104628">
        <ele>1258.53</ele>
        <time>2020-07-21T08:36:05.000Z</time>
      </trkpt>
      <trkpt lat="42.9402692" lon="-5.7104665">
        <ele>1258.53</ele>
        <time>2020-07-21T08:36:06.000Z</time>
      </trkpt>
      <trkpt lat="42.940258" lon="-5.7104683">
        <ele>1258.84</ele>
        <time>2020-07-21T08:36:07.000Z</time>
      </trkpt>
      <trkpt lat="42.940246" lon="-5.7104713">
        <ele>1258.84</ele>
        <time>2020-07-21T08:36:08.000Z</time>
      </trkpt>
      <trkpt lat="42.9402347" lon="-5.7104748">
        <ele>1258.99</ele>
        <time>2020-07-21T08:36:09.000Z</time>
      </trkpt>
      <trkpt lat="42.940224" lon="-5.7104793">
        <ele>1258.99</ele>
        <time>2020-07-21T08:36:10.000Z</time>
      </trkpt>
      <trkpt lat="42.940213" lon="-5.7104827">
        <ele>1259.3</ele>
        <time>2020-07-21T08:36:11.000Z</time>
      </trkpt>
      <trkpt lat="42.9402007" lon="-5.7104853">
        <ele>1259.3</ele>
        <time>2020-07-21T08:36:12.000Z</time>
      </trkpt>
      <trkpt lat="42.940189" lon="-5.7104892">
        <ele>1259.6</ele>
        <time>2020-07-21T08:36:13.000Z</time>
      </trkpt>
      <trkpt lat="42.9401785" lon="-5.7104922">
        <ele>1259.6</ele>
        <time>2020-07-21T08:36:14.000Z</time>
      </trkpt>
      <trkpt lat="42.9401682" lon="-5.7104945">
        <ele>1259.91</ele>
        <time>2020-07-21T08:36:15.000Z</time>
      </trkpt>
      <trkpt lat="42.9401572" lon="-5.7104962">
        <ele>1259.91</ele>
        <time>2020-07-21T08:36:16.000Z</time>
      </trkpt>
      <trkpt lat="42.940146" lon="-5.710499">
        <ele>1260.21</ele>
        <time>2020-07-21T08:36:17.000Z</time>
      </trkpt>
      <trkpt lat="42.9401352" lon="-5.7105032">
        <ele>1260.21</ele>
        <time>2020-07-21T08:36:18.000Z</time>
      </trkpt>
      <trkpt lat="42.9401245" lon="-5.7105083">
        <ele>1260.52</ele>
        <time>2020-07-21T08:36:19.000Z</time>
      </trkpt>
      <trkpt lat="42.9401135" lon="-5.7105132">
        <ele>1260.52</ele>
        <time>2020-07-21T08:36:20.000Z</time>
      </trkpt>
      <trkpt lat="42.9401025" lon="-5.7105177">
        <ele>1260.82</ele>
        <time>2020-07-21T08:36:21.000Z</time>
      </trkpt>
      <trkpt lat="42.9400915" lon="-5.710522">
        <ele>1260.82</ele>
        <time>2020-07-21T08:36:22.000Z</time>
      </trkpt>
      <trkpt lat="42.9400803" lon="-5.7105258">
        <ele>1261.12</ele>
        <time>2020-07-21T08:36:23.000Z</time>
      </trkpt>
      <trkpt lat="42.9400693" lon="-5.7105297">
        <ele>1261.12</ele>
        <time>2020-07-21T08:36:24.000Z</time>
      </trkpt>
      <trkpt lat="42.9400592" lon="-5.7105318">
        <ele>1261.43</ele>
        <time>2020-07-21T08:36:25.000Z</time>
      </trkpt>
      <trkpt lat="42.94005" lon="-5.710535">
        <ele>1261.43</ele>
        <time>2020-07-21T08:36:26.000Z</time>
      </trkpt>
      <trkpt lat="42.9400402" lon="-5.7105385">
        <ele>1261.89</ele>
        <time>2020-07-21T08:36:27.000Z</time>
      </trkpt>
      <trkpt lat="42.9400297" lon="-5.7105442">
        <ele>1261.89</ele>
        <time>2020-07-21T08:36:28.000Z</time>
      </trkpt>
      <trkpt lat="42.9400187" lon="-5.7105498">
        <ele>1262.19</ele>
        <time>2020-07-21T08:36:29.000Z</time>
      </trkpt>
      <trkpt lat="42.940008" lon="-5.7105567">
        <ele>1262.19</ele>
        <time>2020-07-21T08:36:30.000Z</time>
      </trkpt>
      <trkpt lat="42.939998" lon="-5.7105628">
        <ele>1262.5</ele>
        <time>2020-07-21T08:36:31.000Z</time>
      </trkpt>
      <trkpt lat="42.9399877" lon="-5.7105687">
        <ele>1262.5</ele>
        <time>2020-07-21T08:36:32.000Z</time>
      </trkpt>
      <trkpt lat="42.9399772" lon="-5.7105738">
        <ele>1262.8</ele>
        <time>2020-07-21T08:36:33.000Z</time>
      </trkpt>
      <trkpt lat="42.9399665" lon="-5.7105785">
        <ele>1262.8</ele>
        <time>2020-07-21T08:36:34.000Z</time>
      </trkpt>
      <trkpt lat="42.9399562" lon="-5.7105837">
        <ele>1263.11</ele>
        <time>2020-07-21T08:36:35.000Z</time>
      </trkpt>
      <trkpt lat="42.9399457" lon="-5.7105888">
        <ele>1263.11</ele>
        <time>2020-07-21T08:36:36.000Z</time>
      </trkpt>
      <trkpt lat="42.9399352" lon="-5.710595">
        <ele>1263.41</ele>
        <time>2020-07-21T08:36:37.000Z</time>
      </trkpt>
      <trkpt lat="42.939925" lon="-5.710601">
        <ele>1263.41</ele>
        <time>2020-07-21T08:36:38.000Z</time>
      </trkpt>
      <trkpt lat="42.9399142" lon="-5.7106062">
        <ele>1263.72</ele>
        <time>2020-07-21T08:36:39.000Z</time>
      </trkpt>
      <trkpt lat="42.9399032" lon="-5.7106108">
        <ele>1263.72</ele>
        <time>2020-07-21T08:36:40.000Z</time>
      </trkpt>
      <trkpt lat="42.9398917" lon="-5.7106155">
        <ele>1264.02</ele>
        <time>2020-07-21T08:36:41.000Z</time>
      </trkpt>
      <trkpt lat="42.9398815" lon="-5.71062">
        <ele>1264.02</ele>
        <time>2020-07-21T08:36:42.000Z</time>
      </trkpt>
      <trkpt lat="42.9398718" lon="-5.7106243">
        <ele>1264.33</ele>
        <time>2020-07-21T08:36:43.000Z</time>
      </trkpt>
      <trkpt lat="42.9398628" lon="-5.7106273">
        <ele>1264.33</ele>
        <time>2020-07-21T08:36:44.000Z</time>
      </trkpt>
      <trkpt lat="42.9398535" lon="-5.7106293">
        <ele>1264.63</ele>
        <time>2020-07-21T08:36:45.000Z</time>
      </trkpt>
      <trkpt lat="42.9398437" lon="-5.7106315">
        <ele>1264.63</ele>
        <time>2020-07-21T08:36:46.000Z</time>
      </trkpt>
      <trkpt lat="42.939833" lon="-5.7106345">
        <ele>1264.94</ele>
        <time>2020-07-21T08:36:47.000Z</time>
      </trkpt>
      <trkpt lat="42.939822" lon="-5.7106375">
        <ele>1264.94</ele>
        <time>2020-07-21T08:36:48.000Z</time>
      </trkpt>
      <trkpt lat="42.9398108" lon="-5.7106397">
        <ele>1265.24</ele>
        <time>2020-07-21T08:36:49.000Z</time>
      </trkpt>
      <trkpt lat="42.9397997" lon="-5.7106408">
        <ele>1265.24</ele>
        <time>2020-07-21T08:36:50.000Z</time>
      </trkpt>
      <trkpt lat="42.9397883" lon="-5.7106415">
        <ele>1265.55</ele>
        <time>2020-07-21T08:36:51.000Z</time>
      </trkpt>
      <trkpt lat="42.9397763" lon="-5.7106415">
        <ele>1265.55</ele>
        <time>2020-07-21T08:36:52.000Z</time>
      </trkpt>
      <trkpt lat="42.9397642" lon="-5.710641">
        <ele>1265.85</ele>
        <time>2020-07-21T08:36:53.000Z</time>
      </trkpt>
      <trkpt lat="42.939752" lon="-5.7106405">
        <ele>1265.85</ele>
        <time>2020-07-21T08:36:54.000Z</time>
      </trkpt>
      <trkpt lat="42.9397398" lon="-5.7106402">
        <ele>1266.16</ele>
        <time>2020-07-21T08:36:55.000Z</time>
      </trkpt>
      <trkpt lat="42.9397278" lon="-5.7106393">
        <ele>1266.16</ele>
        <time>2020-07-21T08:36:56.000Z</time>
      </trkpt>
      <trkpt lat="42.9397155" lon="-5.710639">
        <ele>1266.46</ele>
        <time>2020-07-21T08:36:57.000Z</time>
      </trkpt>
      <trkpt lat="42.9397033" lon="-5.7106382">
        <ele>1266.46</ele>
        <time>2020-07-21T08:36:58.000Z</time>
      </trkpt>
      <trkpt lat="42.9396912" lon="-5.7106375">
        <ele>1266.92</ele>
        <time>2020-07-21T08:36:59.000Z</time>
      </trkpt>
      <trkpt lat="42.939679" lon="-5.710637">
        <ele>1266.92</ele>
        <time>2020-07-21T08:37:00.000Z</time>
      </trkpt>
      <trkpt lat="42.939666" lon="-5.7106372">
        <ele>1267.22</ele>
        <time>2020-07-21T08:37:01.000Z</time>
      </trkpt>
      <trkpt lat="42.9396537" lon="-5.7106377">
        <ele>1267.22</ele>
        <time>2020-07-21T08:37:02.000Z</time>
      </trkpt>
      <trkpt lat="42.9396413" lon="-5.710638">
        <ele>1267.53</ele>
        <time>2020-07-21T08:37:03.000Z</time>
      </trkpt>
      <trkpt lat="42.93963" lon="-5.7106388">
        <ele>1267.53</ele>
        <time>2020-07-21T08:37:04.000Z</time>
      </trkpt>
      <trkpt lat="42.939618" lon="-5.7106403">
        <ele>1267.83</ele>
        <time>2020-07-21T08:37:05.000Z</time>
      </trkpt>
      <trkpt lat="42.9396058" lon="-5.7106417">
        <ele>1267.83</ele>
        <time>2020-07-21T08:37:06.000Z</time>
      </trkpt>
      <trkpt lat="42.9395935" lon="-5.7106427">
        <ele>1268.14</ele>
        <time>2020-07-21T08:37:07.000Z</time>
      </trkpt>
      <trkpt lat="42.9395812" lon="-5.7106438">
        <ele>1268.14</ele>
        <time>2020-07-21T08:37:08.000Z</time>
      </trkpt>
      <trkpt lat="42.9395687" lon="-5.7106445">
        <ele>1268.44</ele>
        <time>2020-07-21T08:37:09.000Z</time>
      </trkpt>
      <trkpt lat="42.9395565" lon="-5.7106445">
        <ele>1268.44</ele>
        <time>2020-07-21T08:37:10.000Z</time>
      </trkpt>
      <trkpt lat="42.9395443" lon="-5.7106438">
        <ele>1268.74</ele>
        <time>2020-07-21T08:37:11.000Z</time>
      </trkpt>
      <trkpt lat="42.9395322" lon="-5.710644">
        <ele>1268.74</ele>
        <time>2020-07-21T08:37:12.000Z</time>
      </trkpt>
      <trkpt lat="42.9395198" lon="-5.7106435">
        <ele>1269.05</ele>
        <time>2020-07-21T08:37:13.000Z</time>
      </trkpt>
      <trkpt lat="42.9395073" lon="-5.7106428">
        <ele>1269.05</ele>
        <time>2020-07-21T08:37:14.000Z</time>
      </trkpt>
      <trkpt lat="42.939495" lon="-5.710642">
        <ele>1269.35</ele>
        <time>2020-07-21T08:37:15.000Z</time>
      </trkpt>
      <trkpt lat="42.9394827" lon="-5.7106415">
        <ele>1269.35</ele>
        <time>2020-07-21T08:37:16.000Z</time>
      </trkpt>
      <trkpt lat="42.9394703" lon="-5.710641">
        <ele>1269.66</ele>
        <time>2020-07-21T08:37:17.000Z</time>
      </trkpt>
      <trkpt lat="42.9394578" lon="-5.710641">
        <ele>1269.66</ele>
        <time>2020-07-21T08:37:18.000Z</time>
      </trkpt>
      <trkpt lat="42.9394452" lon="-5.7106415">
        <ele>1269.96</ele>
        <time>2020-07-21T08:37:19.000Z</time>
      </trkpt>
      <trkpt lat="42.9394325" lon="-5.7106428">
        <ele>1269.96</ele>
        <time>2020-07-21T08:37:20.000Z</time>
      </trkpt>
      <trkpt lat="42.93942" lon="-5.710643">
        <ele>1270.27</ele>
        <time>2020-07-21T08:37:21.000Z</time>
      </trkpt>
      <trkpt lat="42.9394078" lon="-5.7106438">
        <ele>1270.27</ele>
        <time>2020-07-21T08:37:22.000Z</time>
      </trkpt>
      <trkpt lat="42.9393955" lon="-5.7106442">
        <ele>1270.57</ele>
        <time>2020-07-21T08:37:23.000Z</time>
      </trkpt>
      <trkpt lat="42.9393828" lon="-5.7106453">
        <ele>1270.57</ele>
        <time>2020-07-21T08:37:24.000Z</time>
      </trkpt>
      <trkpt lat="42.9393697" lon="-5.7106455">
        <ele>1270.88</ele>
        <time>2020-07-21T08:37:25.000Z</time>
      </trkpt>
      <trkpt lat="42.9393567" lon="-5.7106465">
        <ele>1270.88</ele>
        <time>2020-07-21T08:37:26.000Z</time>
      </trkpt>
      <trkpt lat="42.9393437" lon="-5.710647">
        <ele>1271.18</ele>
        <time>2020-07-21T08:37:27.000Z</time>
      </trkpt>
      <trkpt lat="42.9393308" lon="-5.710648">
        <ele>1271.18</ele>
        <time>2020-07-21T08:37:28.000Z</time>
      </trkpt>
      <trkpt lat="42.9393182" lon="-5.7106483">
        <ele>1271.49</ele>
        <time>2020-07-21T08:37:29.000Z</time>
      </trkpt>
      <trkpt lat="42.9393058" lon="-5.7106485">
        <ele>1271.49</ele>
        <time>2020-07-21T08:37:30.000Z</time>
      </trkpt>
      <trkpt lat="42.9392938" lon="-5.7106485">
        <ele>1271.79</ele>
        <time>2020-07-21T08:37:31.000Z</time>
      </trkpt>
      <trkpt lat="42.9392817" lon="-5.7106483">
        <ele>1271.79</ele>
        <time>2020-07-21T08:37:32.000Z</time>
      </trkpt>
      <trkpt lat="42.9392695" lon="-5.7106482">
        <ele>1272.1</ele>
        <time>2020-07-21T08:37:33.000Z</time>
      </trkpt>
      <trkpt lat="42.9392573" lon="-5.7106477">
        <ele>1272.1</ele>
        <time>2020-07-21T08:37:34.000Z</time>
      </trkpt>
      <trkpt lat="42.9392452" lon="-5.7106475">
        <ele>1272.4</ele>
        <time>2020-07-21T08:37:35.000Z</time>
      </trkpt>
      <trkpt lat="42.9392327" lon="-5.710648">
        <ele>1272.4</ele>
        <time>2020-07-21T08:37:36.000Z</time>
      </trkpt>
      <trkpt lat="42.93922" lon="-5.7106483">
        <ele>1272.71</ele>
        <time>2020-07-21T08:37:37.000Z</time>
      </trkpt>
      <trkpt lat="42.9392073" lon="-5.7106478">
        <ele>1272.71</ele>
        <time>2020-07-21T08:37:38.000Z</time>
      </trkpt>
      <trkpt lat="42.9391952" lon="-5.710646">
        <ele>1273.01</ele>
        <time>2020-07-21T08:37:39.000Z</time>
      </trkpt>
      <trkpt lat="42.939183" lon="-5.7106425">
        <ele>1273.01</ele>
        <time>2020-07-21T08:37:40.000Z</time>
      </trkpt>
      <trkpt lat="42.9391707" lon="-5.7106388">
        <ele>1273.32</ele>
        <time>2020-07-21T08:37:41.000Z</time>
      </trkpt>
      <trkpt lat="42.9391582" lon="-5.710636">
        <ele>1273.32</ele>
        <time>2020-07-21T08:37:42.000Z</time>
      </trkpt>
      <trkpt lat="42.9391458" lon="-5.7106343">
        <ele>1273.62</ele>
        <time>2020-07-21T08:37:43.000Z</time>
      </trkpt>
      <trkpt lat="42.939134" lon="-5.7106323">
        <ele>1273.62</ele>
        <time>2020-07-21T08:37:44.000Z</time>
      </trkpt>
      <trkpt lat="42.9391223" lon="-5.71063">
        <ele>1273.93</ele>
        <time>2020-07-21T08:37:45.000Z</time>
      </trkpt>
      <trkpt lat="42.9391105" lon="-5.710627">
        <ele>1273.93</ele>
        <time>2020-07-21T08:37:46.000Z</time>
      </trkpt>
      <trkpt lat="42.9390983" lon="-5.7106233">
        <ele>1274.23</ele>
        <time>2020-07-21T08:37:47.000Z</time>
      </trkpt>
      <trkpt lat="42.9390862" lon="-5.7106202">
        <ele>1274.23</ele>
        <time>2020-07-21T08:37:48.000Z</time>
      </trkpt>
      <trkpt lat="42.939074" lon="-5.7106163">
        <ele>1274.54</ele>
        <time>2020-07-21T08:37:49.000Z</time>
      </trkpt>
      <trkpt lat="42.9390617" lon="-5.710612">
        <ele>1274.54</ele>
        <time>2020-07-21T08:37:50.000Z</time>
      </trkpt>
      <trkpt lat="42.9390497" lon="-5.710607">
        <ele>1274.84</ele>
        <time>2020-07-21T08:37:51.000Z</time>
      </trkpt>
      <trkpt lat="42.9390377" lon="-5.710603">
        <ele>1274.84</ele>
        <time>2020-07-21T08:37:52.000Z</time>
      </trkpt>
      <trkpt lat="42.939026" lon="-5.7106022">
        <ele>1275.15</ele>
        <time>2020-07-21T08:37:53.000Z</time>
      </trkpt>
      <trkpt lat="42.9390145" lon="-5.7106033">
        <ele>1275.15</ele>
        <time>2020-07-21T08:37:54.000Z</time>
      </trkpt>
      <trkpt lat="42.9390035" lon="-5.7106057">
        <ele>1275.45</ele>
        <time>2020-07-21T08:37:55.000Z</time>
      </trkpt>
      <trkpt lat="42.9389927" lon="-5.710607">
        <ele>1275.45</ele>
        <time>2020-07-21T08:37:56.000Z</time>
      </trkpt>
      <trkpt lat="42.9389815" lon="-5.7106062">
        <ele>1275.76</ele>
        <time>2020-07-21T08:37:57.000Z</time>
      </trkpt>
      <trkpt lat="42.9389705" lon="-5.7106035">
        <ele>1275.76</ele>
        <time>2020-07-21T08:37:58.000Z</time>
      </trkpt>
      <trkpt lat="42.9389593" lon="-5.7105983">
        <ele>1276.06</ele>
        <time>2020-07-21T08:37:59.000Z</time>
      </trkpt>
      <trkpt lat="42.9389483" lon="-5.7105963">
        <ele>1276.06</ele>
        <time>2020-07-21T08:38:00.000Z</time>
      </trkpt>
      <trkpt lat="42.9389367" lon="-5.7105962">
        <ele>1276.36</ele>
        <time>2020-07-21T08:38:01.000Z</time>
      </trkpt>
      <trkpt lat="42.938925" lon="-5.7105988">
        <ele>1276.36</ele>
        <time>2020-07-21T08:38:02.000Z</time>
      </trkpt>
      <trkpt lat="42.938913" lon="-5.7105998">
        <ele>1276.67</ele>
        <time>2020-07-21T08:38:03.000Z</time>
      </trkpt>
      <trkpt lat="42.9389013" lon="-5.710601">
        <ele>1276.67</ele>
        <time>2020-07-21T08:38:04.000Z</time>
      </trkpt>
      <trkpt lat="42.9388897" lon="-5.710601">
        <ele>1276.82</ele>
        <time>2020-07-21T08:38:05.000Z</time>
      </trkpt>
      <trkpt lat="42.9388778" lon="-5.7106012">
        <ele>1276.82</ele>
        <time>2020-07-21T08:38:06.000Z</time>
      </trkpt>
      <trkpt lat="42.9388657" lon="-5.7106005">
        <ele>1277.13</ele>
        <time>2020-07-21T08:38:07.000Z</time>
      </trkpt>
      <trkpt lat="42.9388533" lon="-5.7105995">
        <ele>1277.13</ele>
        <time>2020-07-21T08:38:08.000Z</time>
      </trkpt>
      <trkpt lat="42.9388413" lon="-5.7105982">
        <ele>1277.28</ele>
        <time>2020-07-21T08:38:09.000Z</time>
      </trkpt>
      <trkpt lat="42.9388293" lon="-5.7105972">
        <ele>1277.28</ele>
        <time>2020-07-21T08:38:10.000Z</time>
      </trkpt>
      <trkpt lat="42.9388175" lon="-5.7105965">
        <ele>1277.58</ele>
        <time>2020-07-21T08:38:11.000Z</time>
      </trkpt>
      <trkpt lat="42.9388062" lon="-5.7105965">
        <ele>1277.58</ele>
        <time>2020-07-21T08:38:12.000Z</time>
      </trkpt>
      <trkpt lat="42.9387947" lon="-5.7105962">
        <ele>1277.74</ele>
        <time>2020-07-21T08:38:13.000Z</time>
      </trkpt>
      <trkpt lat="42.9387838" lon="-5.7105965">
        <ele>1277.74</ele>
        <time>2020-07-21T08:38:14.000Z</time>
      </trkpt>
      <trkpt lat="42.9387727" lon="-5.710597">
        <ele>1277.89</ele>
        <time>2020-07-21T08:38:15.000Z</time>
      </trkpt>
      <trkpt lat="42.9387617" lon="-5.7105982">
        <ele>1277.89</ele>
        <time>2020-07-21T08:38:16.000Z</time>
      </trkpt>
      <trkpt lat="42.9387502" lon="-5.7105987">
        <ele>1278.04</ele>
        <time>2020-07-21T08:38:17.000Z</time>
      </trkpt>
      <trkpt lat="42.9387385" lon="-5.7105987">
        <ele>1278.04</ele>
        <time>2020-07-21T08:38:18.000Z</time>
      </trkpt>
      <trkpt lat="42.9387272" lon="-5.7105977">
        <ele>1278.19</ele>
        <time>2020-07-21T08:38:19.000Z</time>
      </trkpt>
      <trkpt lat="42.9387158" lon="-5.7105972">
        <ele>1278.19</ele>
        <time>2020-07-21T08:38:20.000Z</time>
      </trkpt>
      <trkpt lat="42.9387043" lon="-5.710598">
        <ele>1278.35</ele>
        <time>2020-07-21T08:38:21.000Z</time>
      </trkpt>
      <trkpt lat="42.9386925" lon="-5.7106002">
        <ele>1278.35</ele>
        <time>2020-07-21T08:38:22.000Z</time>
      </trkpt>
      <trkpt lat="42.9386807" lon="-5.7106025">
        <ele>1278.5</ele>
        <time>2020-07-21T08:38:23.000Z</time>
      </trkpt>
      <trkpt lat="42.9386687" lon="-5.7106037">
        <ele>1278.5</ele>
        <time>2020-07-21T08:38:24.000Z</time>
      </trkpt>
      <trkpt lat="42.9386567" lon="-5.7106048">
        <ele>1278.65</ele>
        <time>2020-07-21T08:38:25.000Z</time>
      </trkpt>
      <trkpt lat="42.9386448" lon="-5.7106055">
        <ele>1278.65</ele>
        <time>2020-07-21T08:38:26.000Z</time>
      </trkpt>
      <trkpt lat="42.9386333" lon="-5.7106073">
        <ele>1278.8</ele>
        <time>2020-07-21T08:38:27.000Z</time>
      </trkpt>
      <trkpt lat="42.938622" lon="-5.7106092">
        <ele>1278.8</ele>
        <time>2020-07-21T08:38:28.000Z</time>
      </trkpt>
      <trkpt lat="42.9386105" lon="-5.7106113">
        <ele>1278.96</ele>
        <time>2020-07-21T08:38:29.000Z</time>
      </trkpt>
      <trkpt lat="42.9385992" lon="-5.7106132">
        <ele>1278.96</ele>
        <time>2020-07-21T08:38:30.000Z</time>
      </trkpt>
      <trkpt lat="42.9385877" lon="-5.7106143">
        <ele>1279.11</ele>
        <time>2020-07-21T08:38:31.000Z</time>
      </trkpt>
      <trkpt lat="42.9385758" lon="-5.7106153">
        <ele>1279.11</ele>
        <time>2020-07-21T08:38:32.000Z</time>
      </trkpt>
      <trkpt lat="42.9385643" lon="-5.7106163">
        <ele>1279.26</ele>
        <time>2020-07-21T08:38:33.000Z</time>
      </trkpt>
      <trkpt lat="42.9385527" lon="-5.7106173">
        <ele>1279.26</ele>
        <time>2020-07-21T08:38:34.000Z</time>
      </trkpt>
      <trkpt lat="42.9385408" lon="-5.7106187">
        <ele>1279.41</ele>
        <time>2020-07-21T08:38:35.000Z</time>
      </trkpt>
      <trkpt lat="42.938529" lon="-5.710619">
        <ele>1279.41</ele>
        <time>2020-07-21T08:38:36.000Z</time>
      </trkpt>
      <trkpt lat="42.9385175" lon="-5.7106215">
        <ele>1279.41</ele>
        <time>2020-07-21T08:38:37.000Z</time>
      </trkpt>
      <trkpt lat="42.9385058" lon="-5.7106243">
        <ele>1279.41</ele>
        <time>2020-07-21T08:38:38.000Z</time>
      </trkpt>
      <trkpt lat="42.9384933" lon="-5.7106282">
        <ele>1279.57</ele>
        <time>2020-07-21T08:38:39.000Z</time>
      </trkpt>
      <trkpt lat="42.9384803" lon="-5.7106303">
        <ele>1279.57</ele>
        <time>2020-07-21T08:38:40.000Z</time>
      </trkpt>
      <trkpt lat="42.9384675" lon="-5.7106328">
        <ele>1279.72</ele>
        <time>2020-07-21T08:38:41.000Z</time>
      </trkpt>
      <trkpt lat="42.9384555" lon="-5.7106357">
        <ele>1279.72</ele>
        <time>2020-07-21T08:38:42.000Z</time>
      </trkpt>
      <trkpt lat="42.9384437" lon="-5.710639">
        <ele>1279.87</ele>
        <time>2020-07-21T08:38:43.000Z</time>
      </trkpt>
      <trkpt lat="42.9384322" lon="-5.7106415">
        <ele>1279.87</ele>
        <time>2020-07-21T08:38:44.000Z</time>
      </trkpt>
      <trkpt lat="42.9384203" lon="-5.7106448">
        <ele>1279.87</ele>
        <time>2020-07-21T08:38:45.000Z</time>
      </trkpt>
      <trkpt lat="42.9384088" lon="-5.7106487">
        <ele>1279.87</ele>
        <time>2020-07-21T08:38:46.000Z</time>
      </trkpt>
      <trkpt lat="42.938397" lon="-5.7106535">
        <ele>1280.02</ele>
        <time>2020-07-21T08:38:47.000Z</time>
      </trkpt>
      <trkpt lat="42.9383853" lon="-5.7106573">
        <ele>1280.02</ele>
        <time>2020-07-21T08:38:48.000Z</time>
      </trkpt>
      <trkpt lat="42.9383738" lon="-5.710661">
        <ele>1280.18</ele>
        <time>2020-07-21T08:38:49.000Z</time>
      </trkpt>
      <trkpt lat="42.9383627" lon="-5.7106637">
        <ele>1280.18</ele>
        <time>2020-07-21T08:38:50.000Z</time>
      </trkpt>
      <trkpt lat="42.9383517" lon="-5.7106653">
        <ele>1280.18</ele>
        <time>2020-07-21T08:38:51.000Z</time>
      </trkpt>
      <trkpt lat="42.9383407" lon="-5.7106655">
        <ele>1280.18</ele>
        <time>2020-07-21T08:38:52.000Z</time>
      </trkpt>
      <trkpt lat="42.93833" lon="-5.710666">
        <ele>1280.33</ele>
        <time>2020-07-21T08:38:53.000Z</time>
      </trkpt>
      <trkpt lat="42.9383193" lon="-5.710668">
        <ele>1280.33</ele>
        <time>2020-07-21T08:38:54.000Z</time>
      </trkpt>
      <trkpt lat="42.9383093" lon="-5.7106713">
        <ele>1280.33</ele>
        <time>2020-07-21T08:38:55.000Z</time>
      </trkpt>
      <trkpt lat="42.9382992" lon="-5.7106752">
        <ele>1280.33</ele>
        <time>2020-07-21T08:38:56.000Z</time>
      </trkpt>
      <trkpt lat="42.9382888" lon="-5.710678">
        <ele>1280.48</ele>
        <time>2020-07-21T08:38:57.000Z</time>
      </trkpt>
      <trkpt lat="42.9382778" lon="-5.7106798">
        <ele>1280.48</ele>
        <time>2020-07-21T08:38:58.000Z</time>
      </trkpt>
      <trkpt lat="42.9382667" lon="-5.7106808">
        <ele>1280.48</ele>
        <time>2020-07-21T08:38:59.000Z</time>
      </trkpt>
      <trkpt lat="42.9382555" lon="-5.7106817">
        <ele>1280.48</ele>
        <time>2020-07-21T08:39:00.000Z</time>
      </trkpt>
      <trkpt lat="42.938244" lon="-5.7106813">
        <ele>1280.48</ele>
        <time>2020-07-21T08:39:01.000Z</time>
      </trkpt>
      <trkpt lat="42.938233" lon="-5.7106807">
        <ele>1280.48</ele>
        <time>2020-07-21T08:39:02.000Z</time>
      </trkpt>
      <trkpt lat="42.9382222" lon="-5.7106802">
        <ele>1280.63</ele>
        <time>2020-07-21T08:39:03.000Z</time>
      </trkpt>
      <trkpt lat="42.9382117" lon="-5.710681">
        <ele>1280.63</ele>
        <time>2020-07-21T08:39:04.000Z</time>
      </trkpt>
      <trkpt lat="42.9382" lon="-5.710682">
        <ele>1280.63</ele>
        <time>2020-07-21T08:39:05.000Z</time>
      </trkpt>
      <trkpt lat="42.9381882" lon="-5.7106825">
        <ele>1280.63</ele>
        <time>2020-07-21T08:39:06.000Z</time>
      </trkpt>
      <trkpt lat="42.9381763" lon="-5.7106818">
        <ele>1280.63</ele>
        <time>2020-07-21T08:39:07.000Z</time>
      </trkpt>
      <trkpt lat="42.938165" lon="-5.7106805">
        <ele>1280.63</ele>
        <time>2020-07-21T08:39:08.000Z</time>
      </trkpt>
      <trkpt lat="42.9381537" lon="-5.7106782">
        <ele>1280.63</ele>
        <time>2020-07-21T08:39:09.000Z</time>
      </trkpt>
      <trkpt lat="42.9381422" lon="-5.710675">
        <ele>1280.63</ele>
        <time>2020-07-21T08:39:10.000Z</time>
      </trkpt>
      <trkpt lat="42.9381308" lon="-5.7106722">
        <ele>1280.48</ele>
        <time>2020-07-21T08:39:11.000Z</time>
      </trkpt>
      <trkpt lat="42.9381197" lon="-5.7106707">
        <ele>1280.48</ele>
        <time>2020-07-21T08:39:12.000Z</time>
      </trkpt>
      <trkpt lat="42.9381085" lon="-5.7106712">
        <ele>1280.48</ele>
        <time>2020-07-21T08:39:13.000Z</time>
      </trkpt>
      <trkpt lat="42.9380965" lon="-5.7106713">
        <ele>1280.48</ele>
        <time>2020-07-21T08:39:14.000Z</time>
      </trkpt>
      <trkpt lat="42.9380847" lon="-5.710671">
        <ele>1280.48</ele>
        <time>2020-07-21T08:39:15.000Z</time>
      </trkpt>
      <trkpt lat="42.9380727" lon="-5.7106692">
        <ele>1280.48</ele>
        <time>2020-07-21T08:39:16.000Z</time>
      </trkpt>
      <trkpt lat="42.938061" lon="-5.710667">
        <ele>1280.33</ele>
        <time>2020-07-21T08:39:17.000Z</time>
      </trkpt>
      <trkpt lat="42.9380488" lon="-5.710665">
        <ele>1280.33</ele>
        <time>2020-07-21T08:39:18.000Z</time>
      </trkpt>
      <trkpt lat="42.9380365" lon="-5.7106633">
        <ele>1280.33</ele>
        <time>2020-07-21T08:39:19.000Z</time>
      </trkpt>
      <trkpt lat="42.9380243" lon="-5.7106622">
        <ele>1280.33</ele>
        <time>2020-07-21T08:39:20.000Z</time>
      </trkpt>
      <trkpt lat="42.9380125" lon="-5.7106615">
        <ele>1280.18</ele>
        <time>2020-07-21T08:39:21.000Z</time>
      </trkpt>
      <trkpt lat="42.938001" lon="-5.7106608">
        <ele>1280.18</ele>
        <time>2020-07-21T08:39:22.000Z</time>
      </trkpt>
      <trkpt lat="42.9379893" lon="-5.7106592">
        <ele>1280.02</ele>
        <time>2020-07-21T08:39:23.000Z</time>
      </trkpt>
      <trkpt lat="42.9379778" lon="-5.7106567">
        <ele>1280.02</ele>
        <time>2020-07-21T08:39:24.000Z</time>
      </trkpt>
      <trkpt lat="42.9379665" lon="-5.710654">
        <ele>1280.02</ele>
        <time>2020-07-21T08:39:25.000Z</time>
      </trkpt>
      <trkpt lat="42.9379552" lon="-5.7106525">
        <ele>1280.02</ele>
        <time>2020-07-21T08:39:26.000Z</time>
      </trkpt>
      <trkpt lat="42.9379438" lon="-5.7106513">
        <ele>1279.87</ele>
        <time>2020-07-21T08:39:27.000Z</time>
      </trkpt>
      <trkpt lat="42.9379325" lon="-5.7106492">
        <ele>1279.87</ele>
        <time>2020-07-21T08:39:28.000Z</time>
      </trkpt>
      <trkpt lat="42.9379217" lon="-5.7106458">
        <ele>1279.72</ele>
        <time>2020-07-21T08:39:29.000Z</time>
      </trkpt>
      <trkpt lat="42.9379105" lon="-5.7106423">
        <ele>1279.72</ele>
        <time>2020-07-21T08:39:30.000Z</time>
      </trkpt>
      <trkpt lat="42.9378995" lon="-5.71064">
        <ele>1279.57</ele>
        <time>2020-07-21T08:39:31.000Z</time>
      </trkpt>
      <trkpt lat="42.9378882" lon="-5.7106377">
        <ele>1279.57</ele>
        <time>2020-07-21T08:39:32.000Z</time>
      </trkpt>
      <trkpt lat="42.9378773" lon="-5.7106347">
        <ele>1279.57</ele>
        <time>2020-07-21T08:39:33.000Z</time>
      </trkpt>
      <trkpt lat="42.9378667" lon="-5.710631">
        <ele>1279.57</ele>
        <time>2020-07-21T08:39:34.000Z</time>
      </trkpt>
      <trkpt lat="42.9378563" lon="-5.7106287">
        <ele>1279.41</ele>
        <time>2020-07-21T08:39:35.000Z</time>
      </trkpt>
      <trkpt lat="42.9378457" lon="-5.7106267">
        <ele>1279.41</ele>
        <time>2020-07-21T08:39:36.000Z</time>
      </trkpt>
      <trkpt lat="42.937835" lon="-5.7106243">
        <ele>1279.26</ele>
        <time>2020-07-21T08:39:37.000Z</time>
      </trkpt>
      <trkpt lat="42.9378242" lon="-5.710621">
        <ele>1279.26</ele>
        <time>2020-07-21T08:39:38.000Z</time>
      </trkpt>
      <trkpt lat="42.9378135" lon="-5.7106167">
        <ele>1279.11</ele>
        <time>2020-07-21T08:39:39.000Z</time>
      </trkpt>
      <trkpt lat="42.9378025" lon="-5.7106125">
        <ele>1279.11</ele>
        <time>2020-07-21T08:39:40.000Z</time>
      </trkpt>
      <trkpt lat="42.9377917" lon="-5.7106078">
        <ele>1278.96</ele>
        <time>2020-07-21T08:39:41.000Z</time>
      </trkpt>
      <trkpt lat="42.9377803" lon="-5.7106033">
        <ele>1278.96</ele>
        <time>2020-07-21T08:39:42.000Z</time>
      </trkpt>
      <trkpt lat="42.9377692" lon="-5.7105983">
        <ele>1278.8</ele>
        <time>2020-07-21T08:39:43.000Z</time>
      </trkpt>
      <trkpt lat="42.937757" lon="-5.710594">
        <ele>1278.8</ele>
        <time>2020-07-21T08:39:44.000Z</time>
      </trkpt>
      <trkpt lat="42.9377457" lon="-5.7105892">
        <ele>1278.65</ele>
        <time>2020-07-21T08:39:45.000Z</time>
      </trkpt>
      <trkpt lat="42.937734" lon="-5.7105842">
        <ele>1278.65</ele>
        <time>2020-07-21T08:39:46.000Z</time>
      </trkpt>
      <trkpt lat="42.9377242" lon="-5.7105777">
        <ele>1278.5</ele>
        <time>2020-07-21T08:39:47.000Z</time>
      </trkpt>
      <trkpt lat="42.9377163" lon="-5.7105708">
        <ele>1278.5</ele>
        <time>2020-07-21T08:39:48.000Z</time>
      </trkpt>
      <trkpt lat="42.937711" lon="-5.7105673">
        <ele>1278.19</ele>
        <time>2020-07-21T08:39:49.000Z</time>
      </trkpt>
      <trkpt lat="42.9377082" lon="-5.710566">
        <ele>1278.19</ele>
        <time>2020-07-21T08:39:50.000Z</time>
      </trkpt>
      <trkpt lat="42.9377065" lon="-5.7105693">
        <ele>1278.04</ele>
        <time>2020-07-21T08:39:51.000Z</time>
      </trkpt>
      <trkpt lat="42.9377062" lon="-5.7105727">
        <ele>1278.04</ele>
        <time>2020-07-21T08:39:52.000Z</time>
      </trkpt>
      <trkpt lat="42.937706" lon="-5.7105768">
        <ele>1277.89</ele>
        <time>2020-07-21T08:39:53.000Z</time>
      </trkpt>
      <trkpt lat="42.9377057" lon="-5.710579">
        <ele>1277.89</ele>
        <time>2020-07-21T08:39:54.000Z</time>
      </trkpt>
      <trkpt lat="42.9377047" lon="-5.710579">
        <ele>1277.58</ele>
        <time>2020-07-21T08:39:55.000Z</time>
      </trkpt>
      <trkpt lat="42.937703" lon="-5.710578">
        <ele>1277.58</ele>
        <time>2020-07-21T08:39:56.000Z</time>
      </trkpt>
      <trkpt lat="42.9377015" lon="-5.7105763">
        <ele>1277.43</ele>
        <time>2020-07-21T08:39:57.000Z</time>
      </trkpt>
      <trkpt lat="42.9377012" lon="-5.7105758">
        <ele>1277.43</ele>
        <time>2020-07-21T08:39:58.000Z</time>
      </trkpt>
      <trkpt lat="42.9377013" lon="-5.7105757">
        <ele>1277.28</ele>
        <time>2020-07-21T08:39:59.000Z</time>
      </trkpt>
      <trkpt lat="42.9377015" lon="-5.710576">
        <ele>1277.28</ele>
        <time>2020-07-21T08:40:00.000Z</time>
      </trkpt>
      <trkpt lat="42.9377013" lon="-5.7105763">
        <ele>1277.13</ele>
        <time>2020-07-21T08:40:01.000Z</time>
      </trkpt>
      <trkpt lat="42.9377008" lon="-5.7105767">
        <ele>1277.13</ele>
        <time>2020-07-21T08:40:02.000Z</time>
      </trkpt>
      <trkpt lat="42.9377002" lon="-5.7105772">
        <ele>1276.82</ele>
        <time>2020-07-21T08:40:03.000Z</time>
      </trkpt>
      <trkpt lat="42.9376998" lon="-5.7105777">
        <ele>1276.82</ele>
        <time>2020-07-21T08:40:04.000Z</time>
      </trkpt>
      <trkpt lat="42.9376993" lon="-5.7105782">
        <ele>1276.67</ele>
        <time>2020-07-21T08:40:05.000Z</time>
      </trkpt>
      <trkpt lat="42.9376988" lon="-5.7105788">
        <ele>1276.67</ele>
        <time>2020-07-21T08:40:06.000Z</time>
      </trkpt>
      <trkpt lat="42.9376983" lon="-5.7105795">
        <ele>1276.36</ele>
        <time>2020-07-21T08:40:07.000Z</time>
      </trkpt>
      <trkpt lat="42.9376985" lon="-5.71058">
        <ele>1276.36</ele>
        <time>2020-07-21T08:40:08.000Z</time>
      </trkpt>
      <trkpt lat="42.9376982" lon="-5.7105802">
        <ele>1276.21</ele>
        <time>2020-07-21T08:40:09.000Z</time>
      </trkpt>
      <trkpt lat="42.9376978" lon="-5.7105802">
        <ele>1276.21</ele>
        <time>2020-07-21T08:40:10.000Z</time>
      </trkpt>
      <trkpt lat="42.9376967" lon="-5.7105797">
        <ele>1275.91</ele>
        <time>2020-07-21T08:40:11.000Z</time>
      </trkpt>
      <trkpt lat="42.937696" lon="-5.7105795">
        <ele>1275.91</ele>
        <time>2020-07-21T08:40:12.000Z</time>
      </trkpt>
      <trkpt lat="42.9376952" lon="-5.7105793">
        <ele>1275.76</ele>
        <time>2020-07-21T08:40:13.000Z</time>
      </trkpt>
      <trkpt lat="42.9376958" lon="-5.7105798">
        <ele>1275.76</ele>
        <time>2020-07-21T08:40:14.000Z</time>
      </trkpt>
      <trkpt lat="42.9376968" lon="-5.7105805">
        <ele>1275.45</ele>
        <time>2020-07-21T08:40:15.000Z</time>
      </trkpt>
      <trkpt lat="42.9376987" lon="-5.7105813">
        <ele>1275.45</ele>
        <time>2020-07-21T08:40:16.000Z</time>
      </trkpt>
      <trkpt lat="42.9376995" lon="-5.7105822">
        <ele>1275.3</ele>
        <time>2020-07-21T08:40:17.000Z</time>
      </trkpt>
      <trkpt lat="42.9377005" lon="-5.7105825">
        <ele>1275.3</ele>
        <time>2020-07-21T08:40:18.000Z</time>
      </trkpt>
      <trkpt lat="42.9377003" lon="-5.7105828">
        <ele>1274.99</ele>
        <time>2020-07-21T08:40:19.000Z</time>
      </trkpt>
      <trkpt lat="42.9376995" lon="-5.7105837">
        <ele>1274.99</ele>
        <time>2020-07-21T08:40:20.000Z</time>
      </trkpt>
      <trkpt lat="42.9376982" lon="-5.7105843">
        <ele>1274.69</ele>
        <time>2020-07-21T08:40:21.000Z</time>
      </trkpt>
      <trkpt lat="42.9376977" lon="-5.7105853">
        <ele>1274.69</ele>
        <time>2020-07-21T08:40:22.000Z</time>
      </trkpt>
      <trkpt lat="42.9376977" lon="-5.7105857">
        <ele>1274.54</ele>
        <time>2020-07-21T08:40:23.000Z</time>
      </trkpt>
      <trkpt lat="42.9376975" lon="-5.710586">
        <ele>1274.54</ele>
        <time>2020-07-21T08:40:24.000Z</time>
      </trkpt>
      <trkpt lat="42.9376977" lon="-5.7105862">
        <ele>1274.23</ele>
        <time>2020-07-21T08:40:25.000Z</time>
      </trkpt>
      <trkpt lat="42.9376977" lon="-5.7105865">
        <ele>1274.23</ele>
        <time>2020-07-21T08:40:26.000Z</time>
      </trkpt>
      <trkpt lat="42.9376983" lon="-5.710587">
        <ele>1273.93</ele>
        <time>2020-07-21T08:40:27.000Z</time>
      </trkpt>
      <trkpt lat="42.9377013" lon="-5.7105888">
        <ele>1273.93</ele>
        <time>2020-07-21T08:40:28.000Z</time>
      </trkpt>
      <trkpt lat="42.9377068" lon="-5.7105918">
        <ele>1273.62</ele>
        <time>2020-07-21T08:40:29.000Z</time>
      </trkpt>
      <trkpt lat="42.9377142" lon="-5.7105955">
        <ele>1273.62</ele>
        <time>2020-07-21T08:40:30.000Z</time>
      </trkpt>
      <trkpt lat="42.9377222" lon="-5.7105988">
        <ele>1273.32</ele>
        <time>2020-07-21T08:40:31.000Z</time>
      </trkpt>
      <trkpt lat="42.937731" lon="-5.7106023">
        <ele>1273.32</ele>
        <time>2020-07-21T08:40:32.000Z</time>
      </trkpt>
      <trkpt lat="42.9377405" lon="-5.7106067">
        <ele>1273.01</ele>
        <time>2020-07-21T08:40:33.000Z</time>
      </trkpt>
      <trkpt lat="42.93775" lon="-5.7106113">
        <ele>1273.01</ele>
        <time>2020-07-21T08:40:34.000Z</time>
      </trkpt>
      <trkpt lat="42.9377602" lon="-5.7106172">
        <ele>1272.71</ele>
        <time>2020-07-21T08:40:35.000Z</time>
      </trkpt>
      <trkpt lat="42.9377708" lon="-5.7106237">
        <ele>1272.71</ele>
        <time>2020-07-21T08:40:36.000Z</time>
      </trkpt>
      <trkpt lat="42.9377818" lon="-5.7106298">
        <ele>1272.4</ele>
        <time>2020-07-21T08:40:37.000Z</time>
      </trkpt>
      <trkpt lat="42.9377935" lon="-5.7106347">
        <ele>1272.4</ele>
        <time>2020-07-21T08:40:38.000Z</time>
      </trkpt>
      <trkpt lat="42.9378043" lon="-5.7106388">
        <ele>1272.1</ele>
        <time>2020-07-21T08:40:39.000Z</time>
      </trkpt>
      <trkpt lat="42.9378132" lon="-5.7106438">
        <ele>1272.1</ele>
        <time>2020-07-21T08:40:40.000Z</time>
      </trkpt>
      <trkpt lat="42.9378195" lon="-5.7106493">
        <ele>1271.79</ele>
        <time>2020-07-21T08:40:41.000Z</time>
      </trkpt>
      <trkpt lat="42.9378268" lon="-5.7106525">
        <ele>1271.79</ele>
        <time>2020-07-21T08:40:42.000Z</time>
      </trkpt>
      <trkpt lat="42.9378342" lon="-5.7106532">
        <ele>1271.49</ele>
        <time>2020-07-21T08:40:43.000Z</time>
      </trkpt>
      <trkpt lat="42.9378418" lon="-5.7106522">
        <ele>1271.49</ele>
        <time>2020-07-21T08:40:44.000Z</time>
      </trkpt>
      <trkpt lat="42.9378468" lon="-5.7106513">
        <ele>1271.18</ele>
        <time>2020-07-21T08:40:45.000Z</time>
      </trkpt>
      <trkpt lat="42.9378503" lon="-5.7106512">
        <ele>1271.18</ele>
        <time>2020-07-21T08:40:46.000Z</time>
      </trkpt>
      <trkpt lat="42.9378525" lon="-5.7106508">
        <ele>1270.88</ele>
        <time>2020-07-21T08:40:47.000Z</time>
      </trkpt>
      <trkpt lat="42.9378572" lon="-5.710651">
        <ele>1270.88</ele>
        <time>2020-07-21T08:40:48.000Z</time>
      </trkpt>
      <trkpt lat="42.9378652" lon="-5.7106512">
        <ele>1270.57</ele>
        <time>2020-07-21T08:40:49.000Z</time>
      </trkpt>
      <trkpt lat="42.937876" lon="-5.710651">
        <ele>1270.57</ele>
        <time>2020-07-21T08:40:50.000Z</time>
      </trkpt>
      <trkpt lat="42.937887" lon="-5.7106512">
        <ele>1270.42</ele>
        <time>2020-07-21T08:40:51.000Z</time>
      </trkpt>
      <trkpt lat="42.9378977" lon="-5.710652">
        <ele>1270.42</ele>
        <time>2020-07-21T08:40:52.000Z</time>
      </trkpt>
      <trkpt lat="42.937908" lon="-5.7106538">
        <ele>1270.12</ele>
        <time>2020-07-21T08:40:53.000Z</time>
      </trkpt>
      <trkpt lat="42.9379193" lon="-5.7106553">
        <ele>1270.12</ele>
        <time>2020-07-21T08:40:54.000Z</time>
      </trkpt>
      <trkpt lat="42.9379315" lon="-5.7106565">
        <ele>1269.81</ele>
        <time>2020-07-21T08:40:55.000Z</time>
      </trkpt>
      <trkpt lat="42.9379438" lon="-5.7106582">
        <ele>1269.81</ele>
        <time>2020-07-21T08:40:56.000Z</time>
      </trkpt>
      <trkpt lat="42.9379558" lon="-5.7106603">
        <ele>1269.51</ele>
        <time>2020-07-21T08:40:57.000Z</time>
      </trkpt>
      <trkpt lat="42.9379678" lon="-5.7106625">
        <ele>1269.51</ele>
        <time>2020-07-21T08:40:58.000Z</time>
      </trkpt>
      <trkpt lat="42.9379803" lon="-5.710664">
        <ele>1269.2</ele>
        <time>2020-07-21T08:40:59.000Z</time>
      </trkpt>
      <trkpt lat="42.9379928" lon="-5.7106652">
        <ele>1269.2</ele>
        <time>2020-07-21T08:41:00.000Z</time>
      </trkpt>
      <trkpt lat="42.9380055" lon="-5.7106673">
        <ele>1268.9</ele>
        <time>2020-07-21T08:41:01.000Z</time>
      </trkpt>
      <trkpt lat="42.9380187" lon="-5.7106693">
        <ele>1268.9</ele>
        <time>2020-07-21T08:41:02.000Z</time>
      </trkpt>
      <trkpt lat="42.9380315" lon="-5.7106712">
        <ele>1268.59</ele>
        <time>2020-07-21T08:41:03.000Z</time>
      </trkpt>
      <trkpt lat="42.9380443" lon="-5.710673">
        <ele>1268.59</ele>
        <time>2020-07-21T08:41:04.000Z</time>
      </trkpt>
      <trkpt lat="42.9380572" lon="-5.710676">
        <ele>1268.29</ele>
        <time>2020-07-21T08:41:05.000Z</time>
      </trkpt>
      <trkpt lat="42.9380708" lon="-5.7106787">
        <ele>1268.29</ele>
        <time>2020-07-21T08:41:06.000Z</time>
      </trkpt>
      <trkpt lat="42.9380848" lon="-5.7106792">
        <ele>1267.98</ele>
        <time>2020-07-21T08:41:07.000Z</time>
      </trkpt>
      <trkpt lat="42.9380988" lon="-5.7106793">
        <ele>1267.98</ele>
        <time>2020-07-21T08:41:08.000Z</time>
      </trkpt>
      <trkpt lat="42.9381127" lon="-5.71068">
        <ele>1267.68</ele>
        <time>2020-07-21T08:41:09.000Z</time>
      </trkpt>
      <trkpt lat="42.9381265" lon="-5.7106818">
        <ele>1267.68</ele>
        <time>2020-07-21T08:41:10.000Z</time>
      </trkpt>
      <trkpt lat="42.9381402" lon="-5.7106837">
        <ele>1267.37</ele>
        <time>2020-07-21T08:41:11.000Z</time>
      </trkpt>
      <trkpt lat="42.9381537" lon="-5.7106855">
        <ele>1267.37</ele>
        <time>2020-07-21T08:41:12.000Z</time>
      </trkpt>
      <trkpt lat="42.938167" lon="-5.7106867">
        <ele>1267.22</ele>
        <time>2020-07-21T08:41:13.000Z</time>
      </trkpt>
      <trkpt lat="42.9381803" lon="-5.710687">
        <ele>1267.22</ele>
        <time>2020-07-21T08:41:14.000Z</time>
      </trkpt>
      <trkpt lat="42.9381935" lon="-5.7106865">
        <ele>1266.92</ele>
        <time>2020-07-21T08:41:15.000Z</time>
      </trkpt>
      <trkpt lat="42.9382068" lon="-5.710686">
        <ele>1266.92</ele>
        <time>2020-07-21T08:41:16.000Z</time>
      </trkpt>
      <trkpt lat="42.9382202" lon="-5.7106858">
        <ele>1266.61</ele>
        <time>2020-07-21T08:41:17.000Z</time>
      </trkpt>
      <trkpt lat="42.9382335" lon="-5.7106857">
        <ele>1266.61</ele>
        <time>2020-07-21T08:41:18.000Z</time>
      </trkpt>
      <trkpt lat="42.9382467" lon="-5.7106853">
        <ele>1266.31</ele>
        <time>2020-07-21T08:41:19.000Z</time>
      </trkpt>
      <trkpt lat="42.9382593" lon="-5.710684">
        <ele>1266.31</ele>
        <time>2020-07-21T08:41:20.000Z</time>
      </trkpt>
      <trkpt lat="42.9382718" lon="-5.7106825">
        <ele>1266</ele>
        <time>2020-07-21T08:41:21.000Z</time>
      </trkpt>
      <trkpt lat="42.9382838" lon="-5.71068">
        <ele>1266</ele>
        <time>2020-07-21T08:41:22.000Z</time>
      </trkpt>
      <trkpt lat="42.9382962" lon="-5.7106757">
        <ele>1265.7</ele>
        <time>2020-07-21T08:41:23.000Z</time>
      </trkpt>
      <trkpt lat="42.9383092" lon="-5.7106708">
        <ele>1265.7</ele>
        <time>2020-07-21T08:41:24.000Z</time>
      </trkpt>
      <trkpt lat="42.9383225" lon="-5.7106667">
        <ele>1265.39</ele>
        <time>2020-07-21T08:41:25.000Z</time>
      </trkpt>
      <trkpt lat="42.938336" lon="-5.7106632">
        <ele>1265.39</ele>
        <time>2020-07-21T08:41:26.000Z</time>
      </trkpt>
      <trkpt lat="42.9383488" lon="-5.7106595">
        <ele>1265.09</ele>
        <time>2020-07-21T08:41:27.000Z</time>
      </trkpt>
      <trkpt lat="42.9383615" lon="-5.7106557">
        <ele>1265.09</ele>
        <time>2020-07-21T08:41:28.000Z</time>
      </trkpt>
      <trkpt lat="42.9383737" lon="-5.7106522">
        <ele>1264.78</ele>
        <time>2020-07-21T08:41:29.000Z</time>
      </trkpt>
      <trkpt lat="42.938386" lon="-5.7106487">
        <ele>1264.78</ele>
        <time>2020-07-21T08:41:30.000Z</time>
      </trkpt>
      <trkpt lat="42.938399" lon="-5.7106448">
        <ele>1264.48</ele>
        <time>2020-07-21T08:41:31.000Z</time>
      </trkpt>
      <trkpt lat="42.9384127" lon="-5.7106425">
        <ele>1264.48</ele>
        <time>2020-07-21T08:41:32.000Z</time>
      </trkpt>
      <trkpt lat="42.9384265" lon="-5.7106412">
        <ele>1264.17</ele>
        <time>2020-07-21T08:41:33.000Z</time>
      </trkpt>
      <trkpt lat="42.9384408" lon="-5.71064">
        <ele>1264.17</ele>
        <time>2020-07-21T08:41:34.000Z</time>
      </trkpt>
      <trkpt lat="42.938455" lon="-5.7106375">
        <ele>1263.87</ele>
        <time>2020-07-21T08:41:35.000Z</time>
      </trkpt>
      <trkpt lat="42.9384692" lon="-5.7106343">
        <ele>1263.87</ele>
        <time>2020-07-21T08:41:36.000Z</time>
      </trkpt>
      <trkpt lat="42.9384827" lon="-5.7106318">
        <ele>1263.56</ele>
        <time>2020-07-21T08:41:37.000Z</time>
      </trkpt>
      <trkpt lat="42.9384965" lon="-5.7106302">
        <ele>1263.56</ele>
        <time>2020-07-21T08:41:38.000Z</time>
      </trkpt>
      <trkpt lat="42.9385105" lon="-5.7106282">
        <ele>1263.11</ele>
        <time>2020-07-21T08:41:39.000Z</time>
      </trkpt>
      <trkpt lat="42.9385247" lon="-5.710625">
        <ele>1263.11</ele>
        <time>2020-07-21T08:41:40.000Z</time>
      </trkpt>
      <trkpt lat="42.9385383" lon="-5.7106207">
        <ele>1262.8</ele>
        <time>2020-07-21T08:41:41.000Z</time>
      </trkpt>
      <trkpt lat="42.938552" lon="-5.7106168">
        <ele>1262.8</ele>
        <time>2020-07-21T08:41:42.000Z</time>
      </trkpt>
      <trkpt lat="42.9385663" lon="-5.7106143">
        <ele>1262.5</ele>
        <time>2020-07-21T08:41:43.000Z</time>
      </trkpt>
      <trkpt lat="42.9385812" lon="-5.7106125">
        <ele>1262.5</ele>
        <time>2020-07-21T08:41:44.000Z</time>
      </trkpt>
      <trkpt lat="42.9385958" lon="-5.7106107">
        <ele>1262.19</ele>
        <time>2020-07-21T08:41:45.000Z</time>
      </trkpt>
      <trkpt lat="42.93861" lon="-5.7106092">
        <ele>1262.19</ele>
        <time>2020-07-21T08:41:46.000Z</time>
      </trkpt>
      <trkpt lat="42.9386242" lon="-5.7106078">
        <ele>1261.89</ele>
        <time>2020-07-21T08:41:47.000Z</time>
      </trkpt>
      <trkpt lat="42.9386385" lon="-5.7106063">
        <ele>1261.89</ele>
        <time>2020-07-21T08:41:48.000Z</time>
      </trkpt>
      <trkpt lat="42.938653" lon="-5.7106048">
        <ele>1261.43</ele>
        <time>2020-07-21T08:41:49.000Z</time>
      </trkpt>
      <trkpt lat="42.9386675" lon="-5.710604">
        <ele>1261.43</ele>
        <time>2020-07-21T08:41:50.000Z</time>
      </trkpt>
      <trkpt lat="42.938682" lon="-5.7106032">
        <ele>1261.12</ele>
        <time>2020-07-21T08:41:51.000Z</time>
      </trkpt>
      <trkpt lat="42.938696" lon="-5.710602">
        <ele>1261.12</ele>
        <time>2020-07-21T08:41:52.000Z</time>
      </trkpt>
      <trkpt lat="42.9387098" lon="-5.7106">
        <ele>1260.82</ele>
        <time>2020-07-21T08:41:53.000Z</time>
      </trkpt>
      <trkpt lat="42.9387237" lon="-5.7105982">
        <ele>1260.82</ele>
        <time>2020-07-21T08:41:54.000Z</time>
      </trkpt>
      <trkpt lat="42.9387375" lon="-5.7105967">
        <ele>1260.52</ele>
        <time>2020-07-21T08:41:55.000Z</time>
      </trkpt>
      <trkpt lat="42.9387528" lon="-5.7105958">
        <ele>1260.52</ele>
        <time>2020-07-21T08:41:56.000Z</time>
      </trkpt>
      <trkpt lat="42.9387687" lon="-5.7105945">
        <ele>1260.21</ele>
        <time>2020-07-21T08:41:57.000Z</time>
      </trkpt>
      <trkpt lat="42.9387857" lon="-5.7105912">
        <ele>1260.21</ele>
        <time>2020-07-21T08:41:58.000Z</time>
      </trkpt>
      <trkpt lat="42.9388007" lon="-5.7105893">
        <ele>1259.75</ele>
        <time>2020-07-21T08:41:59.000Z</time>
      </trkpt>
      <trkpt lat="42.9388148" lon="-5.7105897">
        <ele>1259.75</ele>
        <time>2020-07-21T08:42:00.000Z</time>
      </trkpt>
      <trkpt lat="42.9388282" lon="-5.7105923">
        <ele>1259.45</ele>
        <time>2020-07-21T08:42:01.000Z</time>
      </trkpt>
      <trkpt lat="42.9388418" lon="-5.7105935">
        <ele>1259.45</ele>
        <time>2020-07-21T08:42:02.000Z</time>
      </trkpt>
      <trkpt lat="42.9388555" lon="-5.7105927">
        <ele>1259.14</ele>
        <time>2020-07-21T08:42:03.000Z</time>
      </trkpt>
      <trkpt lat="42.9388688" lon="-5.7105908">
        <ele>1259.14</ele>
        <time>2020-07-21T08:42:04.000Z</time>
      </trkpt>
      <trkpt lat="42.938882" lon="-5.7105893">
        <ele>1258.69</ele>
        <time>2020-07-21T08:42:05.000Z</time>
      </trkpt>
      <trkpt lat="42.9388955" lon="-5.7105892">
        <ele>1258.69</ele>
        <time>2020-07-21T08:42:06.000Z</time>
      </trkpt>
      <trkpt lat="42.9389097" lon="-5.7105897">
        <ele>1258.38</ele>
        <time>2020-07-21T08:42:07.000Z</time>
      </trkpt>
      <trkpt lat="42.9389243" lon="-5.71059">
        <ele>1258.38</ele>
        <time>2020-07-21T08:42:08.000Z</time>
      </trkpt>
      <trkpt lat="42.938939" lon="-5.7105898">
        <ele>1258.08</ele>
        <time>2020-07-21T08:42:09.000Z</time>
      </trkpt>
      <trkpt lat="42.9389537" lon="-5.7105902">
        <ele>1258.08</ele>
        <time>2020-07-21T08:42:10.000Z</time>
      </trkpt>
      <trkpt lat="42.9389677" lon="-5.7105908">
        <ele>1257.62</ele>
        <time>2020-07-21T08:42:11.000Z</time>
      </trkpt>
      <trkpt lat="42.9389818" lon="-5.710592">
        <ele>1257.62</ele>
        <time>2020-07-21T08:42:12.000Z</time>
      </trkpt>
      <trkpt lat="42.938996" lon="-5.7105937">
        <ele>1257.31</ele>
        <time>2020-07-21T08:42:13.000Z</time>
      </trkpt>
      <trkpt lat="42.9390105" lon="-5.7105962">
        <ele>1257.31</ele>
        <time>2020-07-21T08:42:14.000Z</time>
      </trkpt>
      <trkpt lat="42.9390245" lon="-5.7106">
        <ele>1257.01</ele>
        <time>2020-07-21T08:42:15.000Z</time>
      </trkpt>
      <trkpt lat="42.9390387" lon="-5.7106042">
        <ele>1257.01</ele>
        <time>2020-07-21T08:42:16.000Z</time>
      </trkpt>
      <trkpt lat="42.9390527" lon="-5.7106073">
        <ele>1256.55</ele>
        <time>2020-07-21T08:42:17.000Z</time>
      </trkpt>
      <trkpt lat="42.9390672" lon="-5.7106103">
        <ele>1256.55</ele>
        <time>2020-07-21T08:42:18.000Z</time>
      </trkpt>
      <trkpt lat="42.9390817" lon="-5.710614">
        <ele>1256.25</ele>
        <time>2020-07-21T08:42:19.000Z</time>
      </trkpt>
      <trkpt lat="42.9390963" lon="-5.7106187">
        <ele>1256.25</ele>
        <time>2020-07-21T08:42:20.000Z</time>
      </trkpt>
      <trkpt lat="42.9391113" lon="-5.7106228">
        <ele>1255.79</ele>
        <time>2020-07-21T08:42:21.000Z</time>
      </trkpt>
      <trkpt lat="42.939126" lon="-5.7106252">
        <ele>1255.79</ele>
        <time>2020-07-21T08:42:22.000Z</time>
      </trkpt>
      <trkpt lat="42.9391402" lon="-5.7106268">
        <ele>1255.49</ele>
        <time>2020-07-21T08:42:23.000Z</time>
      </trkpt>
      <trkpt lat="42.9391537" lon="-5.7106297">
        <ele>1255.49</ele>
        <time>2020-07-21T08:42:24.000Z</time>
      </trkpt>
      <trkpt lat="42.939167" lon="-5.710633">
        <ele>1255.18</ele>
        <time>2020-07-21T08:42:25.000Z</time>
      </trkpt>
      <trkpt lat="42.9391805" lon="-5.7106365">
        <ele>1255.18</ele>
        <time>2020-07-21T08:42:26.000Z</time>
      </trkpt>
      <trkpt lat="42.9391948" lon="-5.7106387">
        <ele>1254.88</ele>
        <time>2020-07-21T08:42:27.000Z</time>
      </trkpt>
      <trkpt lat="42.9392097" lon="-5.71064">
        <ele>1254.88</ele>
        <time>2020-07-21T08:42:28.000Z</time>
      </trkpt>
      <trkpt lat="42.9392248" lon="-5.710641">
        <ele>1254.42</ele>
        <time>2020-07-21T08:42:29.000Z</time>
      </trkpt>
      <trkpt lat="42.9392392" lon="-5.7106417">
        <ele>1254.42</ele>
        <time>2020-07-21T08:42:30.000Z</time>
      </trkpt>
      <trkpt lat="42.9392535" lon="-5.7106428">
        <ele>1254.11</ele>
        <time>2020-07-21T08:42:31.000Z</time>
      </trkpt>
      <trkpt lat="42.9392672" lon="-5.710644">
        <ele>1254.11</ele>
        <time>2020-07-21T08:42:32.000Z</time>
      </trkpt>
      <trkpt lat="42.9392808" lon="-5.7106445">
        <ele>1253.81</ele>
        <time>2020-07-21T08:42:33.000Z</time>
      </trkpt>
      <trkpt lat="42.939294" lon="-5.7106442">
        <ele>1253.81</ele>
        <time>2020-07-21T08:42:34.000Z</time>
      </trkpt>
      <trkpt lat="42.9393073" lon="-5.7106432">
        <ele>1253.51</ele>
        <time>2020-07-21T08:42:35.000Z</time>
      </trkpt>
      <trkpt lat="42.939321" lon="-5.7106428">
        <ele>1253.51</ele>
        <time>2020-07-21T08:42:36.000Z</time>
      </trkpt>
      <trkpt lat="42.9393348" lon="-5.7106433">
        <ele>1253.05</ele>
        <time>2020-07-21T08:42:37.000Z</time>
      </trkpt>
      <trkpt lat="42.9393483" lon="-5.7106435">
        <ele>1253.05</ele>
        <time>2020-07-21T08:42:38.000Z</time>
      </trkpt>
      <trkpt lat="42.9393617" lon="-5.7106428">
        <ele>1252.74</ele>
        <time>2020-07-21T08:42:39.000Z</time>
      </trkpt>
      <trkpt lat="42.9393752" lon="-5.7106417">
        <ele>1252.74</ele>
        <time>2020-07-21T08:42:40.000Z</time>
      </trkpt>
      <trkpt lat="42.939389" lon="-5.7106413">
        <ele>1252.44</ele>
        <time>2020-07-21T08:42:41.000Z</time>
      </trkpt>
      <trkpt lat="42.9394025" lon="-5.710641">
        <ele>1252.44</ele>
        <time>2020-07-21T08:42:42.000Z</time>
      </trkpt>
      <trkpt lat="42.9394163" lon="-5.7106403">
        <ele>1251.98</ele>
        <time>2020-07-21T08:42:43.000Z</time>
      </trkpt>
      <trkpt lat="42.939431" lon="-5.7106392">
        <ele>1251.98</ele>
        <time>2020-07-21T08:42:44.000Z</time>
      </trkpt>
      <trkpt lat="42.939446" lon="-5.7106387">
        <ele>1251.68</ele>
        <time>2020-07-21T08:42:45.000Z</time>
      </trkpt>
      <trkpt lat="42.9394608" lon="-5.7106388">
        <ele>1251.68</ele>
        <time>2020-07-21T08:42:46.000Z</time>
      </trkpt>
      <trkpt lat="42.939475" lon="-5.710639">
        <ele>1251.37</ele>
        <time>2020-07-21T08:42:47.000Z</time>
      </trkpt>
      <trkpt lat="42.9394895" lon="-5.7106392">
        <ele>1251.37</ele>
        <time>2020-07-21T08:42:48.000Z</time>
      </trkpt>
      <trkpt lat="42.9395043" lon="-5.7106383">
        <ele>1250.91</ele>
        <time>2020-07-21T08:42:49.000Z</time>
      </trkpt>
      <trkpt lat="42.9395195" lon="-5.7106373">
        <ele>1250.91</ele>
        <time>2020-07-21T08:42:50.000Z</time>
      </trkpt>
      <trkpt lat="42.9395345" lon="-5.7106358">
        <ele>1250.61</ele>
        <time>2020-07-21T08:42:51.000Z</time>
      </trkpt>
      <trkpt lat="42.9395492" lon="-5.710635">
        <ele>1250.61</ele>
        <time>2020-07-21T08:42:52.000Z</time>
      </trkpt>
      <trkpt lat="42.9395632" lon="-5.7106348">
        <ele>1250.31</ele>
        <time>2020-07-21T08:42:53.000Z</time>
      </trkpt>
      <trkpt lat="42.939577" lon="-5.710635">
        <ele>1250.31</ele>
        <time>2020-07-21T08:42:54.000Z</time>
      </trkpt>
      <trkpt lat="42.9395907" lon="-5.7106348">
        <ele>1249.85</ele>
        <time>2020-07-21T08:42:55.000Z</time>
      </trkpt>
      <trkpt lat="42.939605" lon="-5.710633">
        <ele>1249.85</ele>
        <time>2020-07-21T08:42:56.000Z</time>
      </trkpt>
      <trkpt lat="42.9396193" lon="-5.7106303">
        <ele>1249.54</ele>
        <time>2020-07-21T08:42:57.000Z</time>
      </trkpt>
      <trkpt lat="42.9396345" lon="-5.7106285">
        <ele>1249.54</ele>
        <time>2020-07-21T08:42:58.000Z</time>
      </trkpt>
      <trkpt lat="42.9396487" lon="-5.7106297">
        <ele>1249.09</ele>
        <time>2020-07-21T08:42:59.000Z</time>
      </trkpt>
      <trkpt lat="42.9396635" lon="-5.7106322">
        <ele>1249.09</ele>
        <time>2020-07-21T08:43:00.000Z</time>
      </trkpt>
      <trkpt lat="42.9396765" lon="-5.7106342">
        <ele>1248.78</ele>
        <time>2020-07-21T08:43:01.000Z</time>
      </trkpt>
      <trkpt lat="42.9396893" lon="-5.7106333">
        <ele>1248.78</ele>
        <time>2020-07-21T08:43:02.000Z</time>
      </trkpt>
      <trkpt lat="42.9397015" lon="-5.7106318">
        <ele>1248.32</ele>
        <time>2020-07-21T08:43:03.000Z</time>
      </trkpt>
      <trkpt lat="42.939715" lon="-5.7106315">
        <ele>1248.32</ele>
        <time>2020-07-21T08:43:04.000Z</time>
      </trkpt>
      <trkpt lat="42.9397297" lon="-5.7106318">
        <ele>1248.02</ele>
        <time>2020-07-21T08:43:05.000Z</time>
      </trkpt>
      <trkpt lat="42.9397442" lon="-5.7106327">
        <ele>1248.02</ele>
        <time>2020-07-21T08:43:06.000Z</time>
      </trkpt>
      <trkpt lat="42.9397595" lon="-5.7106335">
        <ele>1247.56</ele>
        <time>2020-07-21T08:43:07.000Z</time>
      </trkpt>
      <trkpt lat="42.9397742" lon="-5.710634">
        <ele>1247.56</ele>
        <time>2020-07-21T08:43:08.000Z</time>
      </trkpt>
      <trkpt lat="42.9397897" lon="-5.710634">
        <ele>1247.26</ele>
        <time>2020-07-21T08:43:09.000Z</time>
      </trkpt>
      <trkpt lat="42.9398043" lon="-5.7106332">
        <ele>1247.26</ele>
        <time>2020-07-21T08:43:10.000Z</time>
      </trkpt>
      <trkpt lat="42.9398185" lon="-5.7106318">
        <ele>1246.8</ele>
        <time>2020-07-21T08:43:11.000Z</time>
      </trkpt>
      <trkpt lat="42.9398317" lon="-5.7106292">
        <ele>1246.8</ele>
        <time>2020-07-21T08:43:12.000Z</time>
      </trkpt>
      <trkpt lat="42.9398445" lon="-5.7106262">
        <ele>1246.49</ele>
        <time>2020-07-21T08:43:13.000Z</time>
      </trkpt>
      <trkpt lat="42.9398577" lon="-5.7106227">
        <ele>1246.49</ele>
        <time>2020-07-21T08:43:14.000Z</time>
      </trkpt>
      <trkpt lat="42.9398712" lon="-5.7106188">
        <ele>1246.19</ele>
        <time>2020-07-21T08:43:15.000Z</time>
      </trkpt>
      <trkpt lat="42.939885" lon="-5.7106135">
        <ele>1246.19</ele>
        <time>2020-07-21T08:43:16.000Z</time>
      </trkpt>
      <trkpt lat="42.9398987" lon="-5.7106075">
        <ele>1245.89</ele>
        <time>2020-07-21T08:43:17.000Z</time>
      </trkpt>
      <trkpt lat="42.9399125" lon="-5.7106015">
        <ele>1245.89</ele>
        <time>2020-07-21T08:43:18.000Z</time>
      </trkpt>
      <trkpt lat="42.9399262" lon="-5.7105955">
        <ele>1245.58</ele>
        <time>2020-07-21T08:43:19.000Z</time>
      </trkpt>
      <trkpt lat="42.9399398" lon="-5.710589">
        <ele>1245.58</ele>
        <time>2020-07-21T08:43:20.000Z</time>
      </trkpt>
      <trkpt lat="42.9399538" lon="-5.7105823">
        <ele>1245.12</ele>
        <time>2020-07-21T08:43:21.000Z</time>
      </trkpt>
      <trkpt lat="42.9399668" lon="-5.7105752">
        <ele>1245.12</ele>
        <time>2020-07-21T08:43:22.000Z</time>
      </trkpt>
      <trkpt lat="42.9399795" lon="-5.7105677">
        <ele>1244.82</ele>
        <time>2020-07-21T08:43:23.000Z</time>
      </trkpt>
      <trkpt lat="42.9399925" lon="-5.7105607">
        <ele>1244.82</ele>
        <time>2020-07-21T08:43:24.000Z</time>
      </trkpt>
      <trkpt lat="42.9400063" lon="-5.7105542">
        <ele>1244.51</ele>
        <time>2020-07-21T08:43:25.000Z</time>
      </trkpt>
      <trkpt lat="42.9400205" lon="-5.7105485">
        <ele>1244.51</ele>
        <time>2020-07-21T08:43:26.000Z</time>
      </trkpt>
      <trkpt lat="42.9400338" lon="-5.7105432">
        <ele>1244.21</ele>
        <time>2020-07-21T08:43:27.000Z</time>
      </trkpt>
      <trkpt lat="42.9400472" lon="-5.710537">
        <ele>1244.21</ele>
        <time>2020-07-21T08:43:28.000Z</time>
      </trkpt>
      <trkpt lat="42.9400602" lon="-5.7105302">
        <ele>1243.9</ele>
        <time>2020-07-21T08:43:29.000Z</time>
      </trkpt>
      <trkpt lat="42.9400728" lon="-5.7105237">
        <ele>1243.9</ele>
        <time>2020-07-21T08:43:30.000Z</time>
      </trkpt>
      <trkpt lat="42.9400853" lon="-5.710519">
        <ele>1243.6</ele>
        <time>2020-07-21T08:43:31.000Z</time>
      </trkpt>
      <trkpt lat="42.9400978" lon="-5.710515">
        <ele>1243.6</ele>
        <time>2020-07-21T08:43:32.000Z</time>
      </trkpt>
      <trkpt lat="42.9401105" lon="-5.710511">
        <ele>1243.14</ele>
        <time>2020-07-21T08:43:33.000Z</time>
      </trkpt>
      <trkpt lat="42.9401232" lon="-5.7105057">
        <ele>1243.14</ele>
        <time>2020-07-21T08:43:34.000Z</time>
      </trkpt>
      <trkpt lat="42.9401367" lon="-5.7105003">
        <ele>1242.84</ele>
        <time>2020-07-21T08:43:35.000Z</time>
      </trkpt>
      <trkpt lat="42.9401505" lon="-5.7104952">
        <ele>1242.84</ele>
        <time>2020-07-21T08:43:36.000Z</time>
      </trkpt>
      <trkpt lat="42.9401647" lon="-5.7104902">
        <ele>1242.53</ele>
        <time>2020-07-21T08:43:37.000Z</time>
      </trkpt>
      <trkpt lat="42.9401777" lon="-5.7104857">
        <ele>1242.53</ele>
        <time>2020-07-21T08:43:38.000Z</time>
      </trkpt>
      <trkpt lat="42.9401908" lon="-5.7104817">
        <ele>1242.23</ele>
        <time>2020-07-21T08:43:39.000Z</time>
      </trkpt>
      <trkpt lat="42.940204" lon="-5.710478">
        <ele>1242.23</ele>
        <time>2020-07-21T08:43:40.000Z</time>
      </trkpt>
      <trkpt lat="42.9402177" lon="-5.7104747">
        <ele>1241.92</ele>
        <time>2020-07-21T08:43:41.000Z</time>
      </trkpt>
      <trkpt lat="42.9402315" lon="-5.7104718">
        <ele>1241.92</ele>
        <time>2020-07-21T08:43:42.000Z</time>
      </trkpt>
      <trkpt lat="42.9402455" lon="-5.7104695">
        <ele>1241.46</ele>
        <time>2020-07-21T08:43:43.000Z</time>
      </trkpt>
      <trkpt lat="42.9402592" lon="-5.7104673">
        <ele>1241.46</ele>
        <time>2020-07-21T08:43:44.000Z</time>
      </trkpt>
      <trkpt lat="42.9402727" lon="-5.7104645">
        <ele>1241.16</ele>
        <time>2020-07-21T08:43:45.000Z</time>
      </trkpt>
      <trkpt lat="42.9402857" lon="-5.7104603">
        <ele>1241.16</ele>
        <time>2020-07-21T08:43:46.000Z</time>
      </trkpt>
      <trkpt lat="42.9402978" lon="-5.7104555">
        <ele>1240.86</ele>
        <time>2020-07-21T08:43:47.000Z</time>
      </trkpt>
      <trkpt lat="42.9403098" lon="-5.7104503">
        <ele>1240.86</ele>
        <time>2020-07-21T08:43:48.000Z</time>
      </trkpt>
      <trkpt lat="42.9403218" lon="-5.7104467">
        <ele>1240.55</ele>
        <time>2020-07-21T08:43:49.000Z</time>
      </trkpt>
      <trkpt lat="42.9403348" lon="-5.710444">
        <ele>1240.55</ele>
        <time>2020-07-21T08:43:50.000Z</time>
      </trkpt>
      <trkpt lat="42.9403485" lon="-5.7104417">
        <ele>1240.25</ele>
        <time>2020-07-21T08:43:51.000Z</time>
      </trkpt>
      <trkpt lat="42.9403622" lon="-5.7104387">
        <ele>1240.25</ele>
        <time>2020-07-21T08:43:52.000Z</time>
      </trkpt>
      <trkpt lat="42.9403753" lon="-5.710434">
        <ele>1239.79</ele>
        <time>2020-07-21T08:43:53.000Z</time>
      </trkpt>
      <trkpt lat="42.9403882" lon="-5.7104282">
        <ele>1239.79</ele>
        <time>2020-07-21T08:43:54.000Z</time>
      </trkpt>
      <trkpt lat="42.9404015" lon="-5.710422">
        <ele>1239.48</ele>
        <time>2020-07-21T08:43:55.000Z</time>
      </trkpt>
      <trkpt lat="42.9404148" lon="-5.7104163">
        <ele>1239.48</ele>
        <time>2020-07-21T08:43:56.000Z</time>
      </trkpt>
      <trkpt lat="42.9404278" lon="-5.7104113">
        <ele>1239.18</ele>
        <time>2020-07-21T08:43:57.000Z</time>
      </trkpt>
      <trkpt lat="42.940441" lon="-5.7104057">
        <ele>1239.18</ele>
        <time>2020-07-21T08:43:58.000Z</time>
      </trkpt>
      <trkpt lat="42.9404538" lon="-5.7103998">
        <ele>1238.88</ele>
        <time>2020-07-21T08:43:59.000Z</time>
      </trkpt>
      <trkpt lat="42.9404672" lon="-5.7103938">
        <ele>1238.88</ele>
        <time>2020-07-21T08:44:00.000Z</time>
      </trkpt>
      <trkpt lat="42.94048" lon="-5.7103885">
        <ele>1238.42</ele>
        <time>2020-07-21T08:44:01.000Z</time>
      </trkpt>
      <trkpt lat="42.9404933" lon="-5.710383">
        <ele>1238.42</ele>
        <time>2020-07-21T08:44:02.000Z</time>
      </trkpt>
      <trkpt lat="42.940506" lon="-5.7103775">
        <ele>1238.11</ele>
        <time>2020-07-21T08:44:03.000Z</time>
      </trkpt>
      <trkpt lat="42.940519" lon="-5.7103717">
        <ele>1238.11</ele>
        <time>2020-07-21T08:44:04.000Z</time>
      </trkpt>
      <trkpt lat="42.9405315" lon="-5.710366">
        <ele>1237.81</ele>
        <time>2020-07-21T08:44:05.000Z</time>
      </trkpt>
      <trkpt lat="42.9405442" lon="-5.7103602">
        <ele>1237.81</ele>
        <time>2020-07-21T08:44:06.000Z</time>
      </trkpt>
      <trkpt lat="42.9405563" lon="-5.7103545">
        <ele>1237.5</ele>
        <time>2020-07-21T08:44:07.000Z</time>
      </trkpt>
      <trkpt lat="42.9405687" lon="-5.7103485">
        <ele>1237.5</ele>
        <time>2020-07-21T08:44:08.000Z</time>
      </trkpt>
      <trkpt lat="42.9405813" lon="-5.7103432">
        <ele>1237.2</ele>
        <time>2020-07-21T08:44:09.000Z</time>
      </trkpt>
      <trkpt lat="42.9405948" lon="-5.710339">
        <ele>1237.2</ele>
        <time>2020-07-21T08:44:10.000Z</time>
      </trkpt>
      <trkpt lat="42.9406095" lon="-5.7103362">
        <ele>1236.89</ele>
        <time>2020-07-21T08:44:11.000Z</time>
      </trkpt>
      <trkpt lat="42.940624" lon="-5.7103335">
        <ele>1236.89</ele>
        <time>2020-07-21T08:44:12.000Z</time>
      </trkpt>
      <trkpt lat="42.9406382" lon="-5.710329">
        <ele>1236.44</ele>
        <time>2020-07-21T08:44:13.000Z</time>
      </trkpt>
      <trkpt lat="42.940651" lon="-5.7103242">
        <ele>1236.44</ele>
        <time>2020-07-21T08:44:14.000Z</time>
      </trkpt>
      <trkpt lat="42.9406638" lon="-5.7103192">
        <ele>1236.13</ele>
        <time>2020-07-21T08:44:15.000Z</time>
      </trkpt>
      <trkpt lat="42.9406773" lon="-5.7103143">
        <ele>1236.13</ele>
        <time>2020-07-21T08:44:16.000Z</time>
      </trkpt>
      <trkpt lat="42.9406917" lon="-5.7103097">
        <ele>1235.83</ele>
        <time>2020-07-21T08:44:17.000Z</time>
      </trkpt>
      <trkpt lat="42.9407067" lon="-5.7103035">
        <ele>1235.83</ele>
        <time>2020-07-21T08:44:18.000Z</time>
      </trkpt>
      <trkpt lat="42.9407203" lon="-5.7102995">
        <ele>1235.52</ele>
        <time>2020-07-21T08:44:19.000Z</time>
      </trkpt>
      <trkpt lat="42.9407337" lon="-5.710297">
        <ele>1235.52</ele>
        <time>2020-07-21T08:44:20.000Z</time>
      </trkpt>
      <trkpt lat="42.9407463" lon="-5.7102962">
        <ele>1235.22</ele>
        <time>2020-07-21T08:44:21.000Z</time>
      </trkpt>
      <trkpt lat="42.9407602" lon="-5.7102942">
        <ele>1235.22</ele>
        <time>2020-07-21T08:44:22.000Z</time>
      </trkpt>
      <trkpt lat="42.940774" lon="-5.7102917">
        <ele>1234.76</ele>
        <time>2020-07-21T08:44:23.000Z</time>
      </trkpt>
      <trkpt lat="42.9407885" lon="-5.7102898">
        <ele>1234.76</ele>
        <time>2020-07-21T08:44:24.000Z</time>
      </trkpt>
      <trkpt lat="42.9408032" lon="-5.710289">
        <ele>1234.45</ele>
        <time>2020-07-21T08:44:25.000Z</time>
      </trkpt>
      <trkpt lat="42.9408182" lon="-5.7102892">
        <ele>1234.45</ele>
        <time>2020-07-21T08:44:26.000Z</time>
      </trkpt>
      <trkpt lat="42.9408325" lon="-5.7102903">
        <ele>1234</ele>
        <time>2020-07-21T08:44:27.000Z</time>
      </trkpt>
      <trkpt lat="42.9408458" lon="-5.7102925">
        <ele>1234</ele>
        <time>2020-07-21T08:44:28.000Z</time>
      </trkpt>
      <trkpt lat="42.940859" lon="-5.7102948">
        <ele>1233.69</ele>
        <time>2020-07-21T08:44:29.000Z</time>
      </trkpt>
      <trkpt lat="42.9408728" lon="-5.7102975">
        <ele>1233.69</ele>
        <time>2020-07-21T08:44:30.000Z</time>
      </trkpt>
      <trkpt lat="42.940887" lon="-5.710301">
        <ele>1233.24</ele>
        <time>2020-07-21T08:44:31.000Z</time>
      </trkpt>
      <trkpt lat="42.9409012" lon="-5.7103048">
        <ele>1233.24</ele>
        <time>2020-07-21T08:44:32.000Z</time>
      </trkpt>
      <trkpt lat="42.9409152" lon="-5.7103092">
        <ele>1232.93</ele>
        <time>2020-07-21T08:44:33.000Z</time>
      </trkpt>
      <trkpt lat="42.9409295" lon="-5.7103132">
        <ele>1232.93</ele>
        <time>2020-07-21T08:44:34.000Z</time>
      </trkpt>
      <trkpt lat="42.9409445" lon="-5.7103172">
        <ele>1232.63</ele>
        <time>2020-07-21T08:44:35.000Z</time>
      </trkpt>
      <trkpt lat="42.9409595" lon="-5.7103218">
        <ele>1232.63</ele>
        <time>2020-07-21T08:44:36.000Z</time>
      </trkpt>
      <trkpt lat="42.940974" lon="-5.7103275">
        <ele>1232.32</ele>
        <time>2020-07-21T08:44:37.000Z</time>
      </trkpt>
      <trkpt lat="42.9409877" lon="-5.7103338">
        <ele>1232.32</ele>
        <time>2020-07-21T08:44:38.000Z</time>
      </trkpt>
      <trkpt lat="42.9410005" lon="-5.7103407">
        <ele>1231.86</ele>
        <time>2020-07-21T08:44:39.000Z</time>
      </trkpt>
      <trkpt lat="42.9410137" lon="-5.710348">
        <ele>1231.86</ele>
        <time>2020-07-21T08:44:40.000Z</time>
      </trkpt>
      <trkpt lat="42.9410267" lon="-5.7103557">
        <ele>1231.56</ele>
        <time>2020-07-21T08:44:41.000Z</time>
      </trkpt>
      <trkpt lat="42.9410395" lon="-5.7103642">
        <ele>1231.56</ele>
        <time>2020-07-21T08:44:42.000Z</time>
      </trkpt>
      <trkpt lat="42.9410518" lon="-5.7103727">
        <ele>1231.26</ele>
        <time>2020-07-21T08:44:43.000Z</time>
      </trkpt>
      <trkpt lat="42.9410643" lon="-5.7103808">
        <ele>1231.26</ele>
        <time>2020-07-21T08:44:44.000Z</time>
      </trkpt>
      <trkpt lat="42.9410765" lon="-5.7103892">
        <ele>1230.95</ele>
        <time>2020-07-21T08:44:45.000Z</time>
      </trkpt>
      <trkpt lat="42.9410882" lon="-5.7103987">
        <ele>1230.95</ele>
        <time>2020-07-21T08:44:46.000Z</time>
      </trkpt>
      <trkpt lat="42.9410997" lon="-5.7104097">
        <ele>1230.65</ele>
        <time>2020-07-21T08:44:47.000Z</time>
      </trkpt>
      <trkpt lat="42.9411105" lon="-5.7104207">
        <ele>1230.65</ele>
        <time>2020-07-21T08:44:48.000Z</time>
      </trkpt>
      <trkpt lat="42.9411203" lon="-5.710431">
        <ele>1230.19</ele>
        <time>2020-07-21T08:44:49.000Z</time>
      </trkpt>
      <trkpt lat="42.9411292" lon="-5.7104418">
        <ele>1230.19</ele>
        <time>2020-07-21T08:44:50.000Z</time>
      </trkpt>
      <trkpt lat="42.9411387" lon="-5.7104517">
        <ele>1229.88</ele>
        <time>2020-07-21T08:44:51.000Z</time>
      </trkpt>
      <trkpt lat="42.94115" lon="-5.7104618">
        <ele>1229.88</ele>
        <time>2020-07-21T08:44:52.000Z</time>
      </trkpt>
      <trkpt lat="42.9411633" lon="-5.7104722">
        <ele>1229.58</ele>
        <time>2020-07-21T08:44:53.000Z</time>
      </trkpt>
      <trkpt lat="42.9411753" lon="-5.7104835">
        <ele>1229.58</ele>
        <time>2020-07-21T08:44:54.000Z</time>
      </trkpt>
      <trkpt lat="42.9411868" lon="-5.710496">
        <ele>1229.27</ele>
        <time>2020-07-21T08:44:55.000Z</time>
      </trkpt>
      <trkpt lat="42.9411958" lon="-5.7105082">
        <ele>1229.27</ele>
        <time>2020-07-21T08:44:56.000Z</time>
      </trkpt>
      <trkpt lat="42.9412058" lon="-5.7105208">
        <ele>1228.82</ele>
        <time>2020-07-21T08:44:57.000Z</time>
      </trkpt>
      <trkpt lat="42.9412162" lon="-5.7105332">
        <ele>1228.82</ele>
        <time>2020-07-21T08:44:58.000Z</time>
      </trkpt>
      <trkpt lat="42.9412275" lon="-5.7105452">
        <ele>1228.51</ele>
        <time>2020-07-21T08:44:59.000Z</time>
      </trkpt>
      <trkpt lat="42.9412392" lon="-5.7105587">
        <ele>1228.51</ele>
        <time>2020-07-21T08:45:00.000Z</time>
      </trkpt>
      <trkpt lat="42.9412508" lon="-5.710572">
        <ele>1228.21</ele>
        <time>2020-07-21T08:45:01.000Z</time>
      </trkpt>
      <trkpt lat="42.9412628" lon="-5.7105862">
        <ele>1228.21</ele>
        <time>2020-07-21T08:45:02.000Z</time>
      </trkpt>
      <trkpt lat="42.9412738" lon="-5.7106015">
        <ele>1227.9</ele>
        <time>2020-07-21T08:45:03.000Z</time>
      </trkpt>
      <trkpt lat="42.9412828" lon="-5.7106163">
        <ele>1227.9</ele>
        <time>2020-07-21T08:45:04.000Z</time>
      </trkpt>
      <trkpt lat="42.9412905" lon="-5.7106308">
        <ele>1227.6</ele>
        <time>2020-07-21T08:45:05.000Z</time>
      </trkpt>
      <trkpt lat="42.9412982" lon="-5.7106435">
        <ele>1227.6</ele>
        <time>2020-07-21T08:45:06.000Z</time>
      </trkpt>
      <trkpt lat="42.9413065" lon="-5.710657">
        <ele>1227.29</ele>
        <time>2020-07-21T08:45:07.000Z</time>
      </trkpt>
      <trkpt lat="42.9413143" lon="-5.7106715">
        <ele>1227.29</ele>
        <time>2020-07-21T08:45:08.000Z</time>
      </trkpt>
      <trkpt lat="42.9413215" lon="-5.7106863">
        <ele>1226.99</ele>
        <time>2020-07-21T08:45:09.000Z</time>
      </trkpt>
      <trkpt lat="42.9413293" lon="-5.7106998">
        <ele>1226.99</ele>
        <time>2020-07-21T08:45:10.000Z</time>
      </trkpt>
      <trkpt lat="42.9413377" lon="-5.710712">
        <ele>1226.68</ele>
        <time>2020-07-21T08:45:11.000Z</time>
      </trkpt>
      <trkpt lat="42.9413467" lon="-5.7107233">
        <ele>1226.68</ele>
        <time>2020-07-21T08:45:12.000Z</time>
      </trkpt>
      <trkpt lat="42.9413555" lon="-5.710736">
        <ele>1226.38</ele>
        <time>2020-07-21T08:45:13.000Z</time>
      </trkpt>
      <trkpt lat="42.9413643" lon="-5.7107495">
        <ele>1226.38</ele>
        <time>2020-07-21T08:45:14.000Z</time>
      </trkpt>
      <trkpt lat="42.9413733" lon="-5.710763">
        <ele>1226.07</ele>
        <time>2020-07-21T08:45:15.000Z</time>
      </trkpt>
      <trkpt lat="42.9413828" lon="-5.710777">
        <ele>1226.07</ele>
        <time>2020-07-21T08:45:16.000Z</time>
      </trkpt>
      <trkpt lat="42.9413918" lon="-5.710791">
        <ele>1225.77</ele>
        <time>2020-07-21T08:45:17.000Z</time>
      </trkpt>
      <trkpt lat="42.9414005" lon="-5.7108062">
        <ele>1225.77</ele>
        <time>2020-07-21T08:45:18.000Z</time>
      </trkpt>
      <trkpt lat="42.9414083" lon="-5.7108213">
        <ele>1225.46</ele>
        <time>2020-07-21T08:45:19.000Z</time>
      </trkpt>
      <trkpt lat="42.9414167" lon="-5.7108365">
        <ele>1225.46</ele>
        <time>2020-07-21T08:45:20.000Z</time>
      </trkpt>
      <trkpt lat="42.941425" lon="-5.7108507">
        <ele>1225.16</ele>
        <time>2020-07-21T08:45:21.000Z</time>
      </trkpt>
      <trkpt lat="42.9414333" lon="-5.7108645">
        <ele>1225.16</ele>
        <time>2020-07-21T08:45:22.000Z</time>
      </trkpt>
      <trkpt lat="42.9414415" lon="-5.7108782">
        <ele>1224.85</ele>
        <time>2020-07-21T08:45:23.000Z</time>
      </trkpt>
      <trkpt lat="42.9414502" lon="-5.7108908">
        <ele>1224.85</ele>
        <time>2020-07-21T08:45:24.000Z</time>
      </trkpt>
      <trkpt lat="42.9414588" lon="-5.7109028">
        <ele>1224.55</ele>
        <time>2020-07-21T08:45:25.000Z</time>
      </trkpt>
      <trkpt lat="42.9414678" lon="-5.7109143">
        <ele>1224.55</ele>
        <time>2020-07-21T08:45:26.000Z</time>
      </trkpt>
      <trkpt lat="42.9414762" lon="-5.7109253">
        <ele>1224.24</ele>
        <time>2020-07-21T08:45:27.000Z</time>
      </trkpt>
      <trkpt lat="42.9414853" lon="-5.710934">
        <ele>1224.24</ele>
        <time>2020-07-21T08:45:28.000Z</time>
      </trkpt>
      <trkpt lat="42.9414948" lon="-5.7109385">
        <ele>1223.94</ele>
        <time>2020-07-21T08:45:29.000Z</time>
      </trkpt>
      <trkpt lat="42.9415053" lon="-5.710941">
        <ele>1223.94</ele>
        <time>2020-07-21T08:45:30.000Z</time>
      </trkpt>
      <trkpt lat="42.941517" lon="-5.7109417">
        <ele>1223.63</ele>
        <time>2020-07-21T08:45:31.000Z</time>
      </trkpt>
      <trkpt lat="42.9415297" lon="-5.7109405">
        <ele>1223.63</ele>
        <time>2020-07-21T08:45:32.000Z</time>
      </trkpt>
      <trkpt lat="42.9415428" lon="-5.7109368">
        <ele>1223.33</ele>
        <time>2020-07-21T08:45:33.000Z</time>
      </trkpt>
      <trkpt lat="42.941556" lon="-5.7109317">
        <ele>1223.33</ele>
        <time>2020-07-21T08:45:34.000Z</time>
      </trkpt>
      <trkpt lat="42.941569" lon="-5.7109265">
        <ele>1223.03</ele>
        <time>2020-07-21T08:45:35.000Z</time>
      </trkpt>
      <trkpt lat="42.9415822" lon="-5.7109213">
        <ele>1223.03</ele>
        <time>2020-07-21T08:45:36.000Z</time>
      </trkpt>
      <trkpt lat="42.9415948" lon="-5.7109165">
        <ele>1222.72</ele>
        <time>2020-07-21T08:45:37.000Z</time>
      </trkpt>
      <trkpt lat="42.9416077" lon="-5.7109127">
        <ele>1222.72</ele>
        <time>2020-07-21T08:45:38.000Z</time>
      </trkpt>
      <trkpt lat="42.941621" lon="-5.7109088">
        <ele>1222.42</ele>
        <time>2020-07-21T08:45:39.000Z</time>
      </trkpt>
      <trkpt lat="42.9416343" lon="-5.7109042">
        <ele>1222.42</ele>
        <time>2020-07-21T08:45:40.000Z</time>
      </trkpt>
      <trkpt lat="42.9416475" lon="-5.7108993">
        <ele>1222.11</ele>
        <time>2020-07-21T08:45:41.000Z</time>
      </trkpt>
      <trkpt lat="42.9416605" lon="-5.7108945">
        <ele>1222.11</ele>
        <time>2020-07-21T08:45:42.000Z</time>
      </trkpt>
      <trkpt lat="42.9416737" lon="-5.7108905">
        <ele>1221.81</ele>
        <time>2020-07-21T08:45:43.000Z</time>
      </trkpt>
      <trkpt lat="42.9416873" lon="-5.7108863">
        <ele>1221.81</ele>
        <time>2020-07-21T08:45:44.000Z</time>
      </trkpt>
      <trkpt lat="42.9417003" lon="-5.7108822">
        <ele>1221.5</ele>
        <time>2020-07-21T08:45:45.000Z</time>
      </trkpt>
      <trkpt lat="42.9417133" lon="-5.7108778">
        <ele>1221.5</ele>
        <time>2020-07-21T08:45:46.000Z</time>
      </trkpt>
      <trkpt lat="42.9417265" lon="-5.7108732">
        <ele>1221.35</ele>
        <time>2020-07-21T08:45:47.000Z</time>
      </trkpt>
      <trkpt lat="42.9417402" lon="-5.7108683">
        <ele>1221.35</ele>
        <time>2020-07-21T08:45:48.000Z</time>
      </trkpt>
      <trkpt lat="42.9417532" lon="-5.710863">
        <ele>1221.04</ele>
        <time>2020-07-21T08:45:49.000Z</time>
      </trkpt>
      <trkpt lat="42.9417653" lon="-5.710858">
        <ele>1221.04</ele>
        <time>2020-07-21T08:45:50.000Z</time>
      </trkpt>
      <trkpt lat="42.9417788" lon="-5.7108535">
        <ele>1220.74</ele>
        <time>2020-07-21T08:45:51.000Z</time>
      </trkpt>
      <trkpt lat="42.9417938" lon="-5.7108497">
        <ele>1220.74</ele>
        <time>2020-07-21T08:45:52.000Z</time>
      </trkpt>
      <trkpt lat="42.9418098" lon="-5.7108438">
        <ele>1220.43</ele>
        <time>2020-07-21T08:45:53.000Z</time>
      </trkpt>
      <trkpt lat="42.941824" lon="-5.7108377">
        <ele>1220.43</ele>
        <time>2020-07-21T08:45:54.000Z</time>
      </trkpt>
      <trkpt lat="42.9418373" lon="-5.7108317">
        <ele>1220.13</ele>
        <time>2020-07-21T08:45:55.000Z</time>
      </trkpt>
      <trkpt lat="42.941849" lon="-5.710828">
        <ele>1220.13</ele>
        <time>2020-07-21T08:45:56.000Z</time>
      </trkpt>
      <trkpt lat="42.9418607" lon="-5.7108258">
        <ele>1219.82</ele>
        <time>2020-07-21T08:45:57.000Z</time>
      </trkpt>
      <trkpt lat="42.9418715" lon="-5.7108238">
        <ele>1219.82</ele>
        <time>2020-07-21T08:45:58.000Z</time>
      </trkpt>
      <trkpt lat="42.941884" lon="-5.7108222">
        <ele>1219.52</ele>
        <time>2020-07-21T08:45:59.000Z</time>
      </trkpt>
      <trkpt lat="42.9418982" lon="-5.7108192">
        <ele>1219.52</ele>
        <time>2020-07-21T08:46:00.000Z</time>
      </trkpt>
      <trkpt lat="42.9419128" lon="-5.7108167">
        <ele>1219.21</ele>
        <time>2020-07-21T08:46:01.000Z</time>
      </trkpt>
      <trkpt lat="42.941926" lon="-5.7108112">
        <ele>1219.21</ele>
        <time>2020-07-21T08:46:02.000Z</time>
      </trkpt>
      <trkpt lat="42.941937" lon="-5.7108053">
        <ele>1219.06</ele>
        <time>2020-07-21T08:46:03.000Z</time>
      </trkpt>
      <trkpt lat="42.9419477" lon="-5.7107987">
        <ele>1219.06</ele>
        <time>2020-07-21T08:46:04.000Z</time>
      </trkpt>
      <trkpt lat="42.94196" lon="-5.7107937">
        <ele>1218.76</ele>
        <time>2020-07-21T08:46:05.000Z</time>
      </trkpt>
      <trkpt lat="42.9419735" lon="-5.710789">
        <ele>1218.76</ele>
        <time>2020-07-21T08:46:06.000Z</time>
      </trkpt>
      <trkpt lat="42.941988" lon="-5.710784">
        <ele>1218.45</ele>
        <time>2020-07-21T08:46:07.000Z</time>
      </trkpt>
      <trkpt lat="42.9420017" lon="-5.7107787">
        <ele>1218.45</ele>
        <time>2020-07-21T08:46:08.000Z</time>
      </trkpt>
      <trkpt lat="42.9420155" lon="-5.7107745">
        <ele>1218.15</ele>
        <time>2020-07-21T08:46:09.000Z</time>
      </trkpt>
      <trkpt lat="42.942029" lon="-5.7107737">
        <ele>1218.15</ele>
        <time>2020-07-21T08:46:10.000Z</time>
      </trkpt>
      <trkpt lat="42.9420422" lon="-5.7107717">
        <ele>1217.84</ele>
        <time>2020-07-21T08:46:11.000Z</time>
      </trkpt>
      <trkpt lat="42.9420553" lon="-5.7107702">
        <ele>1217.84</ele>
        <time>2020-07-21T08:46:12.000Z</time>
      </trkpt>
      <trkpt lat="42.942069" lon="-5.7107662">
        <ele>1217.54</ele>
        <time>2020-07-21T08:46:13.000Z</time>
      </trkpt>
      <trkpt lat="42.9420843" lon="-5.7107643">
        <ele>1217.54</ele>
        <time>2020-07-21T08:46:14.000Z</time>
      </trkpt>
      <trkpt lat="42.9421" lon="-5.7107605">
        <ele>1217.39</ele>
        <time>2020-07-21T08:46:15.000Z</time>
      </trkpt>
      <trkpt lat="42.942116" lon="-5.7107552">
        <ele>1217.39</ele>
        <time>2020-07-21T08:46:16.000Z</time>
      </trkpt>
      <trkpt lat="42.9421297" lon="-5.7107505">
        <ele>1217.08</ele>
        <time>2020-07-21T08:46:17.000Z</time>
      </trkpt>
      <trkpt lat="42.942143" lon="-5.7107475">
        <ele>1217.08</ele>
        <time>2020-07-21T08:46:18.000Z</time>
      </trkpt>
      <trkpt lat="42.9421543" lon="-5.7107455">
        <ele>1216.78</ele>
        <time>2020-07-21T08:46:19.000Z</time>
      </trkpt>
      <trkpt lat="42.9421695" lon="-5.7107442">
        <ele>1216.78</ele>
        <time>2020-07-21T08:46:20.000Z</time>
      </trkpt>
      <trkpt lat="42.9421842" lon="-5.7107423">
        <ele>1216.62</ele>
        <time>2020-07-21T08:46:21.000Z</time>
      </trkpt>
      <trkpt lat="42.9421997" lon="-5.7107403">
        <ele>1216.62</ele>
        <time>2020-07-21T08:46:22.000Z</time>
      </trkpt>
      <trkpt lat="42.9422125" lon="-5.7107367">
        <ele>1216.32</ele>
        <time>2020-07-21T08:46:23.000Z</time>
      </trkpt>
      <trkpt lat="42.942226" lon="-5.710733">
        <ele>1216.32</ele>
        <time>2020-07-21T08:46:24.000Z</time>
      </trkpt>
      <trkpt lat="42.9422393" lon="-5.7107298">
        <ele>1216.01</ele>
        <time>2020-07-21T08:46:25.000Z</time>
      </trkpt>
      <trkpt lat="42.9422527" lon="-5.7107262">
        <ele>1216.01</ele>
        <time>2020-07-21T08:46:26.000Z</time>
      </trkpt>
      <trkpt lat="42.9422648" lon="-5.7107227">
        <ele>1215.86</ele>
        <time>2020-07-21T08:46:27.000Z</time>
      </trkpt>
      <trkpt lat="42.9422777" lon="-5.7107195">
        <ele>1215.86</ele>
        <time>2020-07-21T08:46:28.000Z</time>
      </trkpt>
      <trkpt lat="42.9422907" lon="-5.7107168">
        <ele>1215.56</ele>
        <time>2020-07-21T08:46:29.000Z</time>
      </trkpt>
      <trkpt lat="42.942305" lon="-5.7107157">
        <ele>1215.56</ele>
        <time>2020-07-21T08:46:30.000Z</time>
      </trkpt>
      <trkpt lat="42.9423187" lon="-5.7107142">
        <ele>1215.41</ele>
        <time>2020-07-21T08:46:31.000Z</time>
      </trkpt>
      <trkpt lat="42.9423318" lon="-5.710711">
        <ele>1215.41</ele>
        <time>2020-07-21T08:46:32.000Z</time>
      </trkpt>
      <trkpt lat="42.942344" lon="-5.7107065">
        <ele>1215.1</ele>
        <time>2020-07-21T08:46:33.000Z</time>
      </trkpt>
      <trkpt lat="42.9423565" lon="-5.7107023">
        <ele>1215.1</ele>
        <time>2020-07-21T08:46:34.000Z</time>
      </trkpt>
      <trkpt lat="42.9423693" lon="-5.7106997">
        <ele>1214.95</ele>
        <time>2020-07-21T08:46:35.000Z</time>
      </trkpt>
      <trkpt lat="42.9423828" lon="-5.7106965">
        <ele>1214.95</ele>
        <time>2020-07-21T08:46:36.000Z</time>
      </trkpt>
      <trkpt lat="42.9423965" lon="-5.710694">
        <ele>1214.64</ele>
        <time>2020-07-21T08:46:37.000Z</time>
      </trkpt>
      <trkpt lat="42.94241" lon="-5.7106925">
        <ele>1214.64</ele>
        <time>2020-07-21T08:46:38.000Z</time>
      </trkpt>
      <trkpt lat="42.9424228" lon="-5.710693">
        <ele>1214.34</ele>
        <time>2020-07-21T08:46:39.000Z</time>
      </trkpt>
      <trkpt lat="42.9424358" lon="-5.7106938">
        <ele>1214.34</ele>
        <time>2020-07-21T08:46:40.000Z</time>
      </trkpt>
      <trkpt lat="42.9424493" lon="-5.7106943">
        <ele>1214.19</ele>
        <time>2020-07-21T08:46:41.000Z</time>
      </trkpt>
      <trkpt lat="42.942463" lon="-5.7106943">
        <ele>1214.19</ele>
        <time>2020-07-21T08:46:42.000Z</time>
      </trkpt>
      <trkpt lat="42.9424767" lon="-5.7106938">
        <ele>1213.88</ele>
        <time>2020-07-21T08:46:43.000Z</time>
      </trkpt>
      <trkpt lat="42.9424902" lon="-5.7106938">
        <ele>1213.88</ele>
        <time>2020-07-21T08:46:44.000Z</time>
      </trkpt>
      <trkpt lat="42.9425042" lon="-5.7106953">
        <ele>1213.73</ele>
        <time>2020-07-21T08:46:45.000Z</time>
      </trkpt>
      <trkpt lat="42.9425178" lon="-5.7106983">
        <ele>1213.73</ele>
        <time>2020-07-21T08:46:46.000Z</time>
      </trkpt>
      <trkpt lat="42.9425313" lon="-5.7107023">
        <ele>1213.58</ele>
        <time>2020-07-21T08:46:47.000Z</time>
      </trkpt>
      <trkpt lat="42.9425448" lon="-5.7107063">
        <ele>1213.58</ele>
        <time>2020-07-21T08:46:48.000Z</time>
      </trkpt>
      <trkpt lat="42.9425588" lon="-5.7107095">
        <ele>1213.42</ele>
        <time>2020-07-21T08:46:49.000Z</time>
      </trkpt>
      <trkpt lat="42.9425728" lon="-5.7107112">
        <ele>1213.42</ele>
        <time>2020-07-21T08:46:50.000Z</time>
      </trkpt>
      <trkpt lat="42.9425862" lon="-5.710713">
        <ele>1213.27</ele>
        <time>2020-07-21T08:46:51.000Z</time>
      </trkpt>
      <trkpt lat="42.9425993" lon="-5.7107163">
        <ele>1213.27</ele>
        <time>2020-07-21T08:46:52.000Z</time>
      </trkpt>
      <trkpt lat="42.9426133" lon="-5.7107213">
        <ele>1213.12</ele>
        <time>2020-07-21T08:46:53.000Z</time>
      </trkpt>
      <trkpt lat="42.942627" lon="-5.7107273">
        <ele>1213.12</ele>
        <time>2020-07-21T08:46:54.000Z</time>
      </trkpt>
      <trkpt lat="42.942641" lon="-5.7107337">
        <ele>1212.97</ele>
        <time>2020-07-21T08:46:55.000Z</time>
      </trkpt>
      <trkpt lat="42.9426532" lon="-5.7107387">
        <ele>1212.97</ele>
        <time>2020-07-21T08:46:56.000Z</time>
      </trkpt>
      <trkpt lat="42.942665" lon="-5.7107423">
        <ele>1212.81</ele>
        <time>2020-07-21T08:46:57.000Z</time>
      </trkpt>
      <trkpt lat="42.9426775" lon="-5.7107435">
        <ele>1212.81</ele>
        <time>2020-07-21T08:46:58.000Z</time>
      </trkpt>
      <trkpt lat="42.9426902" lon="-5.7107475">
        <ele>1212.81</ele>
        <time>2020-07-21T08:46:59.000Z</time>
      </trkpt>
      <trkpt lat="42.9427038" lon="-5.7107528">
        <ele>1212.81</ele>
        <time>2020-07-21T08:47:00.000Z</time>
      </trkpt>
      <trkpt lat="42.9427167" lon="-5.7107603">
        <ele>1212.66</ele>
        <time>2020-07-21T08:47:01.000Z</time>
      </trkpt>
      <trkpt lat="42.9427302" lon="-5.7107662">
        <ele>1212.66</ele>
        <time>2020-07-21T08:47:02.000Z</time>
      </trkpt>
      <trkpt lat="42.942744" lon="-5.7107713">
        <ele>1212.51</ele>
        <time>2020-07-21T08:47:03.000Z</time>
      </trkpt>
      <trkpt lat="42.9427578" lon="-5.7107758">
        <ele>1212.51</ele>
        <time>2020-07-21T08:47:04.000Z</time>
      </trkpt>
      <trkpt lat="42.9427717" lon="-5.7107807">
        <ele>1212.51</ele>
        <time>2020-07-21T08:47:05.000Z</time>
      </trkpt>
      <trkpt lat="42.9427838" lon="-5.7107863">
        <ele>1212.51</ele>
        <time>2020-07-21T08:47:06.000Z</time>
      </trkpt>
      <trkpt lat="42.942796" lon="-5.7107928">
        <ele>1212.36</ele>
        <time>2020-07-21T08:47:07.000Z</time>
      </trkpt>
      <trkpt lat="42.9428088" lon="-5.7107997">
        <ele>1212.36</ele>
        <time>2020-07-21T08:47:08.000Z</time>
      </trkpt>
      <trkpt lat="42.9428233" lon="-5.7108058">
        <ele>1212.2</ele>
        <time>2020-07-21T08:47:09.000Z</time>
      </trkpt>
      <trkpt lat="42.942839" lon="-5.7108107">
        <ele>1212.2</ele>
        <time>2020-07-21T08:47:10.000Z</time>
      </trkpt>
      <trkpt lat="42.9428548" lon="-5.710815">
        <ele>1212.2</ele>
        <time>2020-07-21T08:47:11.000Z</time>
      </trkpt>
      <trkpt lat="42.9428693" lon="-5.7108205">
        <ele>1212.2</ele>
        <time>2020-07-21T08:47:12.000Z</time>
      </trkpt>
      <trkpt lat="42.942881" lon="-5.7108273">
        <ele>1212.05</ele>
        <time>2020-07-21T08:47:13.000Z</time>
      </trkpt>
      <trkpt lat="42.942892" lon="-5.710835">
        <ele>1212.05</ele>
        <time>2020-07-21T08:47:14.000Z</time>
      </trkpt>
      <trkpt lat="42.9429047" lon="-5.7108413">
        <ele>1212.05</ele>
        <time>2020-07-21T08:47:15.000Z</time>
      </trkpt>
      <trkpt lat="42.9429197" lon="-5.7108442">
        <ele>1212.05</ele>
        <time>2020-07-21T08:47:16.000Z</time>
      </trkpt>
      <trkpt lat="42.9429343" lon="-5.7108455">
        <ele>1211.9</ele>
        <time>2020-07-21T08:47:17.000Z</time>
      </trkpt>
      <trkpt lat="42.9429483" lon="-5.710847">
        <ele>1211.9</ele>
        <time>2020-07-21T08:47:18.000Z</time>
      </trkpt>
      <trkpt lat="42.9429615" lon="-5.710851">
        <ele>1211.75</ele>
        <time>2020-07-21T08:47:19.000Z</time>
      </trkpt>
      <trkpt lat="42.9429747" lon="-5.7108562">
        <ele>1211.75</ele>
        <time>2020-07-21T08:47:20.000Z</time>
      </trkpt>
      <trkpt lat="42.942988" lon="-5.7108623">
        <ele>1211.75</ele>
        <time>2020-07-21T08:47:21.000Z</time>
      </trkpt>
      <trkpt lat="42.9430015" lon="-5.7108685">
        <ele>1211.75</ele>
        <time>2020-07-21T08:47:22.000Z</time>
      </trkpt>
      <trkpt lat="42.943015" lon="-5.7108738">
        <ele>1211.75</ele>
        <time>2020-07-21T08:47:23.000Z</time>
      </trkpt>
      <trkpt lat="42.9430288" lon="-5.7108792">
        <ele>1211.75</ele>
        <time>2020-07-21T08:47:24.000Z</time>
      </trkpt>
      <trkpt lat="42.9430428" lon="-5.7108852">
        <ele>1211.59</ele>
        <time>2020-07-21T08:47:25.000Z</time>
      </trkpt>
      <trkpt lat="42.9430572" lon="-5.7108913">
        <ele>1211.59</ele>
        <time>2020-07-21T08:47:26.000Z</time>
      </trkpt>
      <trkpt lat="42.9430713" lon="-5.7108965">
        <ele>1211.59</ele>
        <time>2020-07-21T08:47:27.000Z</time>
      </trkpt>
      <trkpt lat="42.9430853" lon="-5.710901">
        <ele>1211.59</ele>
        <time>2020-07-21T08:47:28.000Z</time>
      </trkpt>
      <trkpt lat="42.9430992" lon="-5.7109055">
        <ele>1211.44</ele>
        <time>2020-07-21T08:47:29.000Z</time>
      </trkpt>
      <trkpt lat="42.9431132" lon="-5.7109107">
        <ele>1211.44</ele>
        <time>2020-07-21T08:47:30.000Z</time>
      </trkpt>
      <trkpt lat="42.9431273" lon="-5.7109155">
        <ele>1211.44</ele>
        <time>2020-07-21T08:47:31.000Z</time>
      </trkpt>
      <trkpt lat="42.9431415" lon="-5.7109193">
        <ele>1211.44</ele>
        <time>2020-07-21T08:47:32.000Z</time>
      </trkpt>
      <trkpt lat="42.9431553" lon="-5.7109228">
        <ele>1211.29</ele>
        <time>2020-07-21T08:47:33.000Z</time>
      </trkpt>
      <trkpt lat="42.9431692" lon="-5.7109267">
        <ele>1211.29</ele>
        <time>2020-07-21T08:47:34.000Z</time>
      </trkpt>
      <trkpt lat="42.9431828" lon="-5.7109315">
        <ele>1211.14</ele>
        <time>2020-07-21T08:47:35.000Z</time>
      </trkpt>
      <trkpt lat="42.9431963" lon="-5.7109367">
        <ele>1211.14</ele>
        <time>2020-07-21T08:47:36.000Z</time>
      </trkpt>
      <trkpt lat="42.9432098" lon="-5.710942">
        <ele>1211.14</ele>
        <time>2020-07-21T08:47:37.000Z</time>
      </trkpt>
      <trkpt lat="42.9432235" lon="-5.7109472">
        <ele>1211.14</ele>
        <time>2020-07-21T08:47:38.000Z</time>
      </trkpt>
      <trkpt lat="42.9432373" lon="-5.7109523">
        <ele>1210.98</ele>
        <time>2020-07-21T08:47:39.000Z</time>
      </trkpt>
      <trkpt lat="42.9432512" lon="-5.7109575">
        <ele>1210.98</ele>
        <time>2020-07-21T08:47:40.000Z</time>
      </trkpt>
      <trkpt lat="42.9432647" lon="-5.710963">
        <ele>1210.83</ele>
        <time>2020-07-21T08:47:41.000Z</time>
      </trkpt>
      <trkpt lat="42.9432782" lon="-5.710969">
        <ele>1210.83</ele>
        <time>2020-07-21T08:47:42.000Z</time>
      </trkpt>
      <trkpt lat="42.9432917" lon="-5.7109753">
        <ele>1210.68</ele>
        <time>2020-07-21T08:47:43.000Z</time>
      </trkpt>
      <trkpt lat="42.9433053" lon="-5.710981">
        <ele>1210.68</ele>
        <time>2020-07-21T08:47:44.000Z</time>
      </trkpt>
      <trkpt lat="42.943319" lon="-5.7109863">
        <ele>1210.53</ele>
        <time>2020-07-21T08:47:45.000Z</time>
      </trkpt>
      <trkpt lat="42.943333" lon="-5.7109913">
        <ele>1210.53</ele>
        <time>2020-07-21T08:47:46.000Z</time>
      </trkpt>
      <trkpt lat="42.943347" lon="-5.7109962">
        <ele>1210.38</ele>
        <time>2020-07-21T08:47:47.000Z</time>
      </trkpt>
      <trkpt lat="42.943361" lon="-5.7110007">
        <ele>1210.38</ele>
        <time>2020-07-21T08:47:48.000Z</time>
      </trkpt>
      <trkpt lat="42.9433745" lon="-5.7110055">
        <ele>1210.38</ele>
        <time>2020-07-21T08:47:49.000Z</time>
      </trkpt>
      <trkpt lat="42.9433878" lon="-5.7110108">
        <ele>1210.38</ele>
        <time>2020-07-21T08:47:50.000Z</time>
      </trkpt>
      <trkpt lat="42.9434013" lon="-5.7110167">
        <ele>1210.22</ele>
        <time>2020-07-21T08:47:51.000Z</time>
      </trkpt>
      <trkpt lat="42.9434152" lon="-5.7110225">
        <ele>1210.22</ele>
        <time>2020-07-21T08:47:52.000Z</time>
      </trkpt>
      <trkpt lat="42.9434292" lon="-5.711028">
        <ele>1210.07</ele>
        <time>2020-07-21T08:47:53.000Z</time>
      </trkpt>
      <trkpt lat="42.9434432" lon="-5.7110332">
        <ele>1210.07</ele>
        <time>2020-07-21T08:47:54.000Z</time>
      </trkpt>
      <trkpt lat="42.9434573" lon="-5.7110387">
        <ele>1209.92</ele>
        <time>2020-07-21T08:47:55.000Z</time>
      </trkpt>
      <trkpt lat="42.9434712" lon="-5.711044">
        <ele>1209.92</ele>
        <time>2020-07-21T08:47:56.000Z</time>
      </trkpt>
      <trkpt lat="42.943485" lon="-5.7110495">
        <ele>1209.77</ele>
        <time>2020-07-21T08:47:57.000Z</time>
      </trkpt>
      <trkpt lat="42.9434982" lon="-5.7110552">
        <ele>1209.77</ele>
        <time>2020-07-21T08:47:58.000Z</time>
      </trkpt>
      <trkpt lat="42.9435122" lon="-5.7110632">
        <ele>1209.77</ele>
        <time>2020-07-21T08:47:59.000Z</time>
      </trkpt>
      <trkpt lat="42.9435262" lon="-5.7110727">
        <ele>1209.77</ele>
        <time>2020-07-21T08:48:00.000Z</time>
      </trkpt>
      <trkpt lat="42.9435408" lon="-5.7110828">
        <ele>1209.77</ele>
        <time>2020-07-21T08:48:01.000Z</time>
      </trkpt>
      <trkpt lat="42.9435535" lon="-5.711092">
        <ele>1209.77</ele>
        <time>2020-07-21T08:48:02.000Z</time>
      </trkpt>
      <trkpt lat="42.9435662" lon="-5.7111003">
        <ele>1209.77</ele>
        <time>2020-07-21T08:48:03.000Z</time>
      </trkpt>
      <trkpt lat="42.9435783" lon="-5.7111078">
        <ele>1209.77</ele>
        <time>2020-07-21T08:48:04.000Z</time>
      </trkpt>
      <trkpt lat="42.9435917" lon="-5.7111162">
        <ele>1209.61</ele>
        <time>2020-07-21T08:48:05.000Z</time>
      </trkpt>
      <trkpt lat="42.9436067" lon="-5.7111243">
        <ele>1209.61</ele>
        <time>2020-07-21T08:48:06.000Z</time>
      </trkpt>
      <trkpt lat="42.9436222" lon="-5.711133">
        <ele>1209.61</ele>
        <time>2020-07-21T08:48:07.000Z</time>
      </trkpt>
      <trkpt lat="42.9436377" lon="-5.7111417">
        <ele>1209.61</ele>
        <time>2020-07-21T08:48:08.000Z</time>
      </trkpt>
      <trkpt lat="42.9436517" lon="-5.711152">
        <ele>1209.46</ele>
        <time>2020-07-21T08:48:09.000Z</time>
      </trkpt>
      <trkpt lat="42.9436643" lon="-5.7111633">
        <ele>1209.46</ele>
        <time>2020-07-21T08:48:10.000Z</time>
      </trkpt>
      <trkpt lat="42.9436763" lon="-5.7111732">
        <ele>1209.46</ele>
        <time>2020-07-21T08:48:11.000Z</time>
      </trkpt>
      <trkpt lat="42.943687" lon="-5.7111827">
        <ele>1209.46</ele>
        <time>2020-07-21T08:48:12.000Z</time>
      </trkpt>
      <trkpt lat="42.9436985" lon="-5.7111932">
        <ele>1209.31</ele>
        <time>2020-07-21T08:48:13.000Z</time>
      </trkpt>
      <trkpt lat="42.9437108" lon="-5.7112052">
        <ele>1209.31</ele>
        <time>2020-07-21T08:48:14.000Z</time>
      </trkpt>
      <trkpt lat="42.943724" lon="-5.7112178">
        <ele>1209.16</ele>
        <time>2020-07-21T08:48:15.000Z</time>
      </trkpt>
      <trkpt lat="42.943737" lon="-5.7112297">
        <ele>1209.16</ele>
        <time>2020-07-21T08:48:16.000Z</time>
      </trkpt>
      <trkpt lat="42.9437497" lon="-5.7112425">
        <ele>1209</ele>
        <time>2020-07-21T08:48:17.000Z</time>
      </trkpt>
      <trkpt lat="42.9437625" lon="-5.7112547">
        <ele>1209</ele>
        <time>2020-07-21T08:48:18.000Z</time>
      </trkpt>
      <trkpt lat="42.9437742" lon="-5.7112667">
        <ele>1209</ele>
        <time>2020-07-21T08:48:19.000Z</time>
      </trkpt>
      <trkpt lat="42.943785" lon="-5.711278">
        <ele>1209</ele>
        <time>2020-07-21T08:48:20.000Z</time>
      </trkpt>
      <trkpt lat="42.9437958" lon="-5.7112898">
        <ele>1208.85</ele>
        <time>2020-07-21T08:48:21.000Z</time>
      </trkpt>
      <trkpt lat="42.9438063" lon="-5.7113025">
        <ele>1208.85</ele>
        <time>2020-07-21T08:48:22.000Z</time>
      </trkpt>
      <trkpt lat="42.9438163" lon="-5.711316">
        <ele>1208.7</ele>
        <time>2020-07-21T08:48:23.000Z</time>
      </trkpt>
      <trkpt lat="42.9438258" lon="-5.7113302">
        <ele>1208.7</ele>
        <time>2020-07-21T08:48:24.000Z</time>
      </trkpt>
      <trkpt lat="42.9438358" lon="-5.7113442">
        <ele>1208.7</ele>
        <time>2020-07-21T08:48:25.000Z</time>
      </trkpt>
      <trkpt lat="42.9438458" lon="-5.7113568">
        <ele>1208.7</ele>
        <time>2020-07-21T08:48:26.000Z</time>
      </trkpt>
      <trkpt lat="42.9438553" lon="-5.7113693">
        <ele>1208.7</ele>
        <time>2020-07-21T08:48:27.000Z</time>
      </trkpt>
      <trkpt lat="42.9438643" lon="-5.7113818">
        <ele>1208.7</ele>
        <time>2020-07-21T08:48:28.000Z</time>
      </trkpt>
      <trkpt lat="42.9438737" lon="-5.7113943">
        <ele>1208.55</ele>
        <time>2020-07-21T08:48:29.000Z</time>
      </trkpt>
      <trkpt lat="42.9438832" lon="-5.7114062">
        <ele>1208.55</ele>
        <time>2020-07-21T08:48:30.000Z</time>
      </trkpt>
      <trkpt lat="42.9438925" lon="-5.711418">
        <ele>1208.55</ele>
        <time>2020-07-21T08:48:31.000Z</time>
      </trkpt>
      <trkpt lat="42.9439012" lon="-5.7114313">
        <ele>1208.55</ele>
        <time>2020-07-21T08:48:32.000Z</time>
      </trkpt>
      <trkpt lat="42.9439097" lon="-5.7114462">
        <ele>1208.39</ele>
        <time>2020-07-21T08:48:33.000Z</time>
      </trkpt>
      <trkpt lat="42.9439185" lon="-5.7114608">
        <ele>1208.39</ele>
        <time>2020-07-21T08:48:34.000Z</time>
      </trkpt>
      <trkpt lat="42.9439277" lon="-5.7114747">
        <ele>1208.39</ele>
        <time>2020-07-21T08:48:35.000Z</time>
      </trkpt>
      <trkpt lat="42.9439365" lon="-5.711489">
        <ele>1208.39</ele>
        <time>2020-07-21T08:48:36.000Z</time>
      </trkpt>
      <trkpt lat="42.9439452" lon="-5.7115038">
        <ele>1208.24</ele>
        <time>2020-07-21T08:48:37.000Z</time>
      </trkpt>
      <trkpt lat="42.9439537" lon="-5.7115188">
        <ele>1208.24</ele>
        <time>2020-07-21T08:48:38.000Z</time>
      </trkpt>
      <trkpt lat="42.9439625" lon="-5.7115323">
        <ele>1208.24</ele>
        <time>2020-07-21T08:48:39.000Z</time>
      </trkpt>
      <trkpt lat="42.943971" lon="-5.7115463">
        <ele>1208.24</ele>
        <time>2020-07-21T08:48:40.000Z</time>
      </trkpt>
      <trkpt lat="42.94398" lon="-5.7115598">
        <ele>1208.09</ele>
        <time>2020-07-21T08:48:41.000Z</time>
      </trkpt>
      <trkpt lat="42.943989" lon="-5.7115735">
        <ele>1208.09</ele>
        <time>2020-07-21T08:48:42.000Z</time>
      </trkpt>
      <trkpt lat="42.9439985" lon="-5.7115862">
        <ele>1208.09</ele>
        <time>2020-07-21T08:48:43.000Z</time>
      </trkpt>
      <trkpt lat="42.9440073" lon="-5.7115995">
        <ele>1208.09</ele>
        <time>2020-07-21T08:48:44.000Z</time>
      </trkpt>
      <trkpt lat="42.9440165" lon="-5.7116133">
        <ele>1207.94</ele>
        <time>2020-07-21T08:48:45.000Z</time>
      </trkpt>
      <trkpt lat="42.9440252" lon="-5.7116262">
        <ele>1207.94</ele>
        <time>2020-07-21T08:48:46.000Z</time>
      </trkpt>
      <trkpt lat="42.9440343" lon="-5.7116378">
        <ele>1207.94</ele>
        <time>2020-07-21T08:48:47.000Z</time>
      </trkpt>
      <trkpt lat="42.9440435" lon="-5.711649">
        <ele>1207.94</ele>
        <time>2020-07-21T08:48:48.000Z</time>
      </trkpt>
      <trkpt lat="42.944055" lon="-5.7116607">
        <ele>1207.94</ele>
        <time>2020-07-21T08:48:49.000Z</time>
      </trkpt>
      <trkpt lat="42.9440662" lon="-5.7116737">
        <ele>1207.94</ele>
        <time>2020-07-21T08:48:50.000Z</time>
      </trkpt>
      <trkpt lat="42.9440767" lon="-5.7116863">
        <ele>1207.79</ele>
        <time>2020-07-21T08:48:51.000Z</time>
      </trkpt>
      <trkpt lat="42.9440855" lon="-5.7116985">
        <ele>1207.79</ele>
        <time>2020-07-21T08:48:52.000Z</time>
      </trkpt>
      <trkpt lat="42.944095" lon="-5.711709">
        <ele>1207.79</ele>
        <time>2020-07-21T08:48:53.000Z</time>
      </trkpt>
      <trkpt lat="42.9441047" lon="-5.7117187">
        <ele>1207.79</ele>
        <time>2020-07-21T08:48:54.000Z</time>
      </trkpt>
      <trkpt lat="42.944114" lon="-5.7117283">
        <ele>1207.79</ele>
        <time>2020-07-21T08:48:55.000Z</time>
      </trkpt>
      <trkpt lat="42.9441238" lon="-5.7117385">
        <ele>1207.79</ele>
        <time>2020-07-21T08:48:56.000Z</time>
      </trkpt>
      <trkpt lat="42.9441337" lon="-5.7117485">
        <ele>1207.79</ele>
        <time>2020-07-21T08:48:57.000Z</time>
      </trkpt>
      <trkpt lat="42.9441437" lon="-5.7117577">
        <ele>1207.79</ele>
        <time>2020-07-21T08:48:58.000Z</time>
      </trkpt>
      <trkpt lat="42.9441535" lon="-5.7117663">
        <ele>1207.79</ele>
        <time>2020-07-21T08:48:59.000Z</time>
      </trkpt>
      <trkpt lat="42.9441638" lon="-5.7117753">
        <ele>1207.79</ele>
        <time>2020-07-21T08:49:00.000Z</time>
      </trkpt>
      <trkpt lat="42.9441757" lon="-5.7117843">
        <ele>1207.94</ele>
        <time>2020-07-21T08:49:01.000Z</time>
      </trkpt>
      <trkpt lat="42.944188" lon="-5.7117927">
        <ele>1207.94</ele>
        <time>2020-07-21T08:49:02.000Z</time>
      </trkpt>
      <trkpt lat="42.9442008" lon="-5.711801">
        <ele>1207.94</ele>
        <time>2020-07-21T08:49:03.000Z</time>
      </trkpt>
      <trkpt lat="42.9442125" lon="-5.7118088">
        <ele>1207.94</ele>
        <time>2020-07-21T08:49:04.000Z</time>
      </trkpt>
      <trkpt lat="42.9442233" lon="-5.7118172">
        <ele>1207.94</ele>
        <time>2020-07-21T08:49:05.000Z</time>
      </trkpt>
      <trkpt lat="42.9442328" lon="-5.7118258">
        <ele>1207.94</ele>
        <time>2020-07-21T08:49:06.000Z</time>
      </trkpt>
      <trkpt lat="42.9442433" lon="-5.7118335">
        <ele>1207.94</ele>
        <time>2020-07-21T08:49:07.000Z</time>
      </trkpt>
      <trkpt lat="42.9442543" lon="-5.7118402">
        <ele>1207.94</ele>
        <time>2020-07-21T08:49:08.000Z</time>
      </trkpt>
      <trkpt lat="42.9442662" lon="-5.7118425">
        <ele>1208.09</ele>
        <time>2020-07-21T08:49:09.000Z</time>
      </trkpt>
      <trkpt lat="42.9442757" lon="-5.7118415">
        <ele>1208.09</ele>
        <time>2020-07-21T08:49:10.000Z</time>
      </trkpt>
      <trkpt lat="42.9442812" lon="-5.7118352">
        <ele>1208.09</ele>
        <time>2020-07-21T08:49:11.000Z</time>
      </trkpt>
      <trkpt lat="42.944283" lon="-5.7118267">
        <ele>1208.09</ele>
        <time>2020-07-21T08:49:12.000Z</time>
      </trkpt>
      <trkpt lat="42.9442835" lon="-5.711818">
        <ele>1208.09</ele>
        <time>2020-07-21T08:49:13.000Z</time>
      </trkpt>
      <trkpt lat="42.9442852" lon="-5.7118125">
        <ele>1208.09</ele>
        <time>2020-07-21T08:49:14.000Z</time>
      </trkpt>
      <trkpt lat="42.944286" lon="-5.7118083">
        <ele>1208.24</ele>
        <time>2020-07-21T08:49:15.000Z</time>
      </trkpt>
      <trkpt lat="42.9442855" lon="-5.7118057">
        <ele>1208.24</ele>
        <time>2020-07-21T08:49:16.000Z</time>
      </trkpt>
      <trkpt lat="42.944284" lon="-5.7118033">
        <ele>1208.24</ele>
        <time>2020-07-21T08:49:17.000Z</time>
      </trkpt>
      <trkpt lat="42.9442833" lon="-5.7118032">
        <ele>1208.24</ele>
        <time>2020-07-21T08:49:18.000Z</time>
      </trkpt>
      <trkpt lat="42.9442825" lon="-5.7118045">
        <ele>1208.24</ele>
        <time>2020-07-21T08:49:19.000Z</time>
      </trkpt>
      <trkpt lat="42.9442812" lon="-5.7118078">
        <ele>1208.24</ele>
        <time>2020-07-21T08:49:20.000Z</time>
      </trkpt>
      <trkpt lat="42.9442827" lon="-5.71182">
        <ele>1208.24</ele>
        <time>2020-07-21T08:49:21.000Z</time>
      </trkpt>
      <trkpt lat="42.9442852" lon="-5.7118355">
        <ele>1208.24</ele>
        <time>2020-07-21T08:49:22.000Z</time>
      </trkpt>
      <trkpt lat="42.9442883" lon="-5.7118547">
        <ele>1208.24</ele>
        <time>2020-07-21T08:49:23.000Z</time>
      </trkpt>
      <trkpt lat="42.9442907" lon="-5.7118693">
        <ele>1208.24</ele>
        <time>2020-07-21T08:49:24.000Z</time>
      </trkpt>
      <trkpt lat="42.9442955" lon="-5.7118832">
        <ele>1208.24</ele>
        <time>2020-07-21T08:49:25.000Z</time>
      </trkpt>
      <trkpt lat="42.9443065" lon="-5.7118943">
        <ele>1208.24</ele>
        <time>2020-07-21T08:49:26.000Z</time>
      </trkpt>
      <trkpt lat="42.9443188" lon="-5.7119042">
        <ele>1208.24</ele>
        <time>2020-07-21T08:49:27.000Z</time>
      </trkpt>
      <trkpt lat="42.944333" lon="-5.7119143">
        <ele>1208.24</ele>
        <time>2020-07-21T08:49:28.000Z</time>
      </trkpt>
      <trkpt lat="42.9443462" lon="-5.7119228">
        <ele>1208.09</ele>
        <time>2020-07-21T08:49:29.000Z</time>
      </trkpt>
      <trkpt lat="42.9443588" lon="-5.711932">
        <ele>1208.09</ele>
        <time>2020-07-21T08:49:30.000Z</time>
      </trkpt>
      <trkpt lat="42.9443693" lon="-5.7119422">
        <ele>1208.09</ele>
        <time>2020-07-21T08:49:31.000Z</time>
      </trkpt>
      <trkpt lat="42.944378" lon="-5.7119543">
        <ele>1208.09</ele>
        <time>2020-07-21T08:49:32.000Z</time>
      </trkpt>
      <trkpt lat="42.9443885" lon="-5.711966">
        <ele>1208.09</ele>
        <time>2020-07-21T08:49:33.000Z</time>
      </trkpt>
      <trkpt lat="42.9443992" lon="-5.7119763">
        <ele>1208.09</ele>
        <time>2020-07-21T08:49:34.000Z</time>
      </trkpt>
      <trkpt lat="42.9444098" lon="-5.7119858">
        <ele>1208.24</ele>
        <time>2020-07-21T08:49:35.000Z</time>
      </trkpt>
      <trkpt lat="42.9444188" lon="-5.7119953">
        <ele>1208.24</ele>
        <time>2020-07-21T08:49:36.000Z</time>
      </trkpt>
      <trkpt lat="42.9444278" lon="-5.712005">
        <ele>1208.24</ele>
        <time>2020-07-21T08:49:37.000Z</time>
      </trkpt>
      <trkpt lat="42.944437" lon="-5.7120157">
        <ele>1208.24</ele>
        <time>2020-07-21T08:49:38.000Z</time>
      </trkpt>
      <trkpt lat="42.9444467" lon="-5.7120263">
        <ele>1208.24</ele>
        <time>2020-07-21T08:49:39.000Z</time>
      </trkpt>
      <trkpt lat="42.9444567" lon="-5.7120365">
        <ele>1208.24</ele>
        <time>2020-07-21T08:49:40.000Z</time>
      </trkpt>
      <trkpt lat="42.9444667" lon="-5.7120463">
        <ele>1208.39</ele>
        <time>2020-07-21T08:49:41.000Z</time>
      </trkpt>
      <trkpt lat="42.9444767" lon="-5.7120567">
        <ele>1208.39</ele>
        <time>2020-07-21T08:49:42.000Z</time>
      </trkpt>
      <trkpt lat="42.9444867" lon="-5.7120688">
        <ele>1208.39</ele>
        <time>2020-07-21T08:49:43.000Z</time>
      </trkpt>
      <trkpt lat="42.9444973" lon="-5.7120813">
        <ele>1208.39</ele>
        <time>2020-07-21T08:49:44.000Z</time>
      </trkpt>
      <trkpt lat="42.9445078" lon="-5.712093">
        <ele>1208.39</ele>
        <time>2020-07-21T08:49:45.000Z</time>
      </trkpt>
      <trkpt lat="42.9445183" lon="-5.7121045">
        <ele>1208.39</ele>
        <time>2020-07-21T08:49:46.000Z</time>
      </trkpt>
      <trkpt lat="42.9445285" lon="-5.712116">
        <ele>1208.39</ele>
        <time>2020-07-21T08:49:47.000Z</time>
      </trkpt>
      <trkpt lat="42.9445385" lon="-5.7121282">
        <ele>1208.39</ele>
        <time>2020-07-21T08:49:48.000Z</time>
      </trkpt>
      <trkpt lat="42.9445482" lon="-5.7121407">
        <ele>1208.39</ele>
        <time>2020-07-21T08:49:49.000Z</time>
      </trkpt>
      <trkpt lat="42.9445578" lon="-5.7121538">
        <ele>1208.39</ele>
        <time>2020-07-21T08:49:50.000Z</time>
      </trkpt>
      <trkpt lat="42.9445673" lon="-5.7121695">
        <ele>1208.24</ele>
        <time>2020-07-21T08:49:51.000Z</time>
      </trkpt>
      <trkpt lat="42.9445765" lon="-5.7121852">
        <ele>1208.24</ele>
        <time>2020-07-21T08:49:52.000Z</time>
      </trkpt>
      <trkpt lat="42.9445863" lon="-5.7122007">
        <ele>1208.24</ele>
        <time>2020-07-21T08:49:53.000Z</time>
      </trkpt>
      <trkpt lat="42.9445968" lon="-5.7122135">
        <ele>1208.24</ele>
        <time>2020-07-21T08:49:54.000Z</time>
      </trkpt>
      <trkpt lat="42.9446087" lon="-5.7122255">
        <ele>1208.24</ele>
        <time>2020-07-21T08:49:55.000Z</time>
      </trkpt>
      <trkpt lat="42.944621" lon="-5.7122365">
        <ele>1208.24</ele>
        <time>2020-07-21T08:49:56.000Z</time>
      </trkpt>
      <trkpt lat="42.9446338" lon="-5.7122467">
        <ele>1208.09</ele>
        <time>2020-07-21T08:49:57.000Z</time>
      </trkpt>
      <trkpt lat="42.9446472" lon="-5.7122555">
        <ele>1208.09</ele>
        <time>2020-07-21T08:49:58.000Z</time>
      </trkpt>
      <trkpt lat="42.9446608" lon="-5.7122625">
        <ele>1208.09</ele>
        <time>2020-07-21T08:49:59.000Z</time>
      </trkpt>
      <trkpt lat="42.9446742" lon="-5.7122688">
        <ele>1208.09</ele>
        <time>2020-07-21T08:50:00.000Z</time>
      </trkpt>
      <trkpt lat="42.9446873" lon="-5.7122752">
        <ele>1208.09</ele>
        <time>2020-07-21T08:50:01.000Z</time>
      </trkpt>
      <trkpt lat="42.9447003" lon="-5.7122828">
        <ele>1208.09</ele>
        <time>2020-07-21T08:50:02.000Z</time>
      </trkpt>
      <trkpt lat="42.944713" lon="-5.7122898">
        <ele>1208.09</ele>
        <time>2020-07-21T08:50:03.000Z</time>
      </trkpt>
      <trkpt lat="42.9447255" lon="-5.712297">
        <ele>1208.09</ele>
        <time>2020-07-21T08:50:04.000Z</time>
      </trkpt>
      <trkpt lat="42.9447383" lon="-5.7123033">
        <ele>1208.09</ele>
        <time>2020-07-21T08:50:05.000Z</time>
      </trkpt>
      <trkpt lat="42.944751" lon="-5.7123103">
        <ele>1208.09</ele>
        <time>2020-07-21T08:50:06.000Z</time>
      </trkpt>
      <trkpt lat="42.9447637" lon="-5.7123168">
        <ele>1208.09</ele>
        <time>2020-07-21T08:50:07.000Z</time>
      </trkpt>
      <trkpt lat="42.9447758" lon="-5.7123242">
        <ele>1208.09</ele>
        <time>2020-07-21T08:50:08.000Z</time>
      </trkpt>
      <trkpt lat="42.944788" lon="-5.712332">
        <ele>1208.09</ele>
        <time>2020-07-21T08:50:09.000Z</time>
      </trkpt>
      <trkpt lat="42.9448002" lon="-5.71234">
        <ele>1208.09</ele>
        <time>2020-07-21T08:50:10.000Z</time>
      </trkpt>
      <trkpt lat="42.9448123" lon="-5.7123465">
        <ele>1208.09</ele>
        <time>2020-07-21T08:50:11.000Z</time>
      </trkpt>
      <trkpt lat="42.9448245" lon="-5.7123533">
        <ele>1208.09</ele>
        <time>2020-07-21T08:50:12.000Z</time>
      </trkpt>
      <trkpt lat="42.9448355" lon="-5.7123622">
        <ele>1208.24</ele>
        <time>2020-07-21T08:50:13.000Z</time>
      </trkpt>
      <trkpt lat="42.9448467" lon="-5.7123725">
        <ele>1208.24</ele>
        <time>2020-07-21T08:50:14.000Z</time>
      </trkpt>
      <trkpt lat="42.9448577" lon="-5.7123825">
        <ele>1208.24</ele>
        <time>2020-07-21T08:50:15.000Z</time>
      </trkpt>
      <trkpt lat="42.9448693" lon="-5.7123903">
        <ele>1208.24</ele>
        <time>2020-07-21T08:50:16.000Z</time>
      </trkpt>
      <trkpt lat="42.9448823" lon="-5.7123982">
        <ele>1208.24</ele>
        <time>2020-07-21T08:50:17.000Z</time>
      </trkpt>
      <trkpt lat="42.9448955" lon="-5.7124058">
        <ele>1208.24</ele>
        <time>2020-07-21T08:50:18.000Z</time>
      </trkpt>
      <trkpt lat="42.9449092" lon="-5.7124133">
        <ele>1208.24</ele>
        <time>2020-07-21T08:50:19.000Z</time>
      </trkpt>
      <trkpt lat="42.9449212" lon="-5.7124202">
        <ele>1208.24</ele>
        <time>2020-07-21T08:50:20.000Z</time>
      </trkpt>
      <trkpt lat="42.9449328" lon="-5.712427">
        <ele>1208.24</ele>
        <time>2020-07-21T08:50:21.000Z</time>
      </trkpt>
      <trkpt lat="42.9449435" lon="-5.7124342">
        <ele>1208.24</ele>
        <time>2020-07-21T08:50:22.000Z</time>
      </trkpt>
      <trkpt lat="42.9449543" lon="-5.712442">
        <ele>1208.24</ele>
        <time>2020-07-21T08:50:23.000Z</time>
      </trkpt>
      <trkpt lat="42.9449648" lon="-5.7124495">
        <ele>1208.24</ele>
        <time>2020-07-21T08:50:24.000Z</time>
      </trkpt>
      <trkpt lat="42.9449743" lon="-5.7124588">
        <ele>1208.24</ele>
        <time>2020-07-21T08:50:25.000Z</time>
      </trkpt>
      <trkpt lat="42.9449818" lon="-5.712473">
        <ele>1208.24</ele>
        <time>2020-07-21T08:50:26.000Z</time>
      </trkpt>
      <trkpt lat="42.9449875" lon="-5.7124915">
        <ele>1208.24</ele>
        <time>2020-07-21T08:50:27.000Z</time>
      </trkpt>
      <trkpt lat="42.9449912" lon="-5.7125127">
        <ele>1208.24</ele>
        <time>2020-07-21T08:50:28.000Z</time>
      </trkpt>
      <trkpt lat="42.9449952" lon="-5.712531">
        <ele>1208.24</ele>
        <time>2020-07-21T08:50:29.000Z</time>
      </trkpt>
      <trkpt lat="42.9450015" lon="-5.7125483">
        <ele>1208.24</ele>
        <time>2020-07-21T08:50:30.000Z</time>
      </trkpt>
      <trkpt lat="42.945009" lon="-5.7125642">
        <ele>1208.24</ele>
        <time>2020-07-21T08:50:31.000Z</time>
      </trkpt>
      <trkpt lat="42.9450177" lon="-5.7125803">
        <ele>1208.24</ele>
        <time>2020-07-21T08:50:32.000Z</time>
      </trkpt>
      <trkpt lat="42.9450243" lon="-5.712595">
        <ele>1208.24</ele>
        <time>2020-07-21T08:50:33.000Z</time>
      </trkpt>
      <trkpt lat="42.9450302" lon="-5.7126097">
        <ele>1208.24</ele>
        <time>2020-07-21T08:50:34.000Z</time>
      </trkpt>
      <trkpt lat="42.9450347" lon="-5.7126248">
        <ele>1208.24</ele>
        <time>2020-07-21T08:50:35.000Z</time>
      </trkpt>
      <trkpt lat="42.9450397" lon="-5.7126385">
        <ele>1208.24</ele>
        <time>2020-07-21T08:50:36.000Z</time>
      </trkpt>
      <trkpt lat="42.9450462" lon="-5.712651">
        <ele>1208.24</ele>
        <time>2020-07-21T08:50:37.000Z</time>
      </trkpt>
      <trkpt lat="42.9450532" lon="-5.7126613">
        <ele>1208.24</ele>
        <time>2020-07-21T08:50:38.000Z</time>
      </trkpt>
      <trkpt lat="42.9450613" lon="-5.7126698">
        <ele>1208.39</ele>
        <time>2020-07-21T08:50:39.000Z</time>
      </trkpt>
      <trkpt lat="42.9450702" lon="-5.712672">
        <ele>1208.39</ele>
        <time>2020-07-21T08:50:40.000Z</time>
      </trkpt>
      <trkpt lat="42.9450815" lon="-5.712667">
        <ele>1208.39</ele>
        <time>2020-07-21T08:50:41.000Z</time>
      </trkpt>
      <trkpt lat="42.9450912" lon="-5.7126562">
        <ele>1208.39</ele>
        <time>2020-07-21T08:50:42.000Z</time>
      </trkpt>
      <trkpt lat="42.9451" lon="-5.7126423">
        <ele>1208.39</ele>
        <time>2020-07-21T08:50:43.000Z</time>
      </trkpt>
      <trkpt lat="42.9451072" lon="-5.7126283">
        <ele>1208.39</ele>
        <time>2020-07-21T08:50:44.000Z</time>
      </trkpt>
      <trkpt lat="42.9451147" lon="-5.712614">
        <ele>1208.39</ele>
        <time>2020-07-21T08:50:45.000Z</time>
      </trkpt>
      <trkpt lat="42.945122" lon="-5.7126018">
        <ele>1208.39</ele>
        <time>2020-07-21T08:50:46.000Z</time>
      </trkpt>
      <trkpt lat="42.9451298" lon="-5.7125885">
        <ele>1208.39</ele>
        <time>2020-07-21T08:50:47.000Z</time>
      </trkpt>
      <trkpt lat="42.9451378" lon="-5.7125747">
        <ele>1208.39</ele>
        <time>2020-07-21T08:50:48.000Z</time>
      </trkpt>
      <trkpt lat="42.9451455" lon="-5.7125617">
        <ele>1208.39</ele>
        <time>2020-07-21T08:50:49.000Z</time>
      </trkpt>
      <trkpt lat="42.9451527" lon="-5.7125503">
        <ele>1208.39</ele>
        <time>2020-07-21T08:50:50.000Z</time>
      </trkpt>
      <trkpt lat="42.9451607" lon="-5.712542">
        <ele>1208.39</ele>
        <time>2020-07-21T08:50:51.000Z</time>
      </trkpt>
      <trkpt lat="42.9451703" lon="-5.7125343">
        <ele>1208.39</ele>
        <time>2020-07-21T08:50:52.000Z</time>
      </trkpt>
      <trkpt lat="42.9451802" lon="-5.712528">
        <ele>1208.39</ele>
        <time>2020-07-21T08:50:53.000Z</time>
      </trkpt>
      <trkpt lat="42.9451897" lon="-5.7125223">
        <ele>1208.39</ele>
        <time>2020-07-21T08:50:54.000Z</time>
      </trkpt>
      <trkpt lat="42.945199" lon="-5.7125177">
        <ele>1208.39</ele>
        <time>2020-07-21T08:50:55.000Z</time>
      </trkpt>
      <trkpt lat="42.9452097" lon="-5.7125147">
        <ele>1208.39</ele>
        <time>2020-07-21T08:50:56.000Z</time>
      </trkpt>
      <trkpt lat="42.9452223" lon="-5.712514">
        <ele>1208.39</ele>
        <time>2020-07-21T08:50:57.000Z</time>
      </trkpt>
      <trkpt lat="42.9452348" lon="-5.7125158">
        <ele>1208.39</ele>
        <time>2020-07-21T08:50:58.000Z</time>
      </trkpt>
      <trkpt lat="42.9452468" lon="-5.7125182">
        <ele>1208.39</ele>
        <time>2020-07-21T08:50:59.000Z</time>
      </trkpt>
      <trkpt lat="42.9452568" lon="-5.7125207">
        <ele>1208.39</ele>
        <time>2020-07-21T08:51:00.000Z</time>
      </trkpt>
      <trkpt lat="42.9452658" lon="-5.712523">
        <ele>1208.24</ele>
        <time>2020-07-21T08:51:01.000Z</time>
      </trkpt>
      <trkpt lat="42.9452738" lon="-5.7125255">
        <ele>1208.24</ele>
        <time>2020-07-21T08:51:02.000Z</time>
      </trkpt>
      <trkpt lat="42.9452807" lon="-5.712527">
        <ele>1208.24</ele>
        <time>2020-07-21T08:51:03.000Z</time>
      </trkpt>
      <trkpt lat="42.9452855" lon="-5.7125257">
        <ele>1208.24</ele>
        <time>2020-07-21T08:51:04.000Z</time>
      </trkpt>
      <trkpt lat="42.9452892" lon="-5.712524">
        <ele>1208.24</ele>
        <time>2020-07-21T08:51:05.000Z</time>
      </trkpt>
      <trkpt lat="42.9452918" lon="-5.7125225">
        <ele>1208.24</ele>
        <time>2020-07-21T08:51:06.000Z</time>
      </trkpt>
      <trkpt lat="42.9452952" lon="-5.712523">
        <ele>1208.24</ele>
        <time>2020-07-21T08:51:07.000Z</time>
      </trkpt>
      <trkpt lat="42.9452978" lon="-5.7125235">
        <ele>1208.24</ele>
        <time>2020-07-21T08:51:08.000Z</time>
      </trkpt>
      <trkpt lat="42.9452992" lon="-5.7125223">
        <ele>1208.09</ele>
        <time>2020-07-21T08:51:09.000Z</time>
      </trkpt>
      <trkpt lat="42.9452993" lon="-5.7125203">
        <ele>1208.09</ele>
        <time>2020-07-21T08:51:10.000Z</time>
      </trkpt>
      <trkpt lat="42.945301" lon="-5.7125172">
        <ele>1208.09</ele>
        <time>2020-07-21T08:51:11.000Z</time>
      </trkpt>
      <trkpt lat="42.9453035" lon="-5.7125148">
        <ele>1208.09</ele>
        <time>2020-07-21T08:51:12.000Z</time>
      </trkpt>
      <trkpt lat="42.9453067" lon="-5.7125132">
        <ele>1208.09</ele>
        <time>2020-07-21T08:51:13.000Z</time>
      </trkpt>
      <trkpt lat="42.9453072" lon="-5.7125128">
        <ele>1208.09</ele>
        <time>2020-07-21T08:51:14.000Z</time>
      </trkpt>
      <trkpt lat="42.9453078" lon="-5.7125132">
        <ele>1207.94</ele>
        <time>2020-07-21T08:51:15.000Z</time>
      </trkpt>
      <trkpt lat="42.945308" lon="-5.7125135">
        <ele>1207.94</ele>
        <time>2020-07-21T08:51:16.000Z</time>
      </trkpt>
      <trkpt lat="42.9453087" lon="-5.7125125">
        <ele>1207.94</ele>
        <time>2020-07-21T08:51:17.000Z</time>
      </trkpt>
      <trkpt lat="42.9453085" lon="-5.7125102">
        <ele>1207.94</ele>
        <time>2020-07-21T08:51:18.000Z</time>
      </trkpt>
      <trkpt lat="42.9453078" lon="-5.7125093">
        <ele>1207.79</ele>
        <time>2020-07-21T08:51:19.000Z</time>
      </trkpt>
      <trkpt lat="42.945307" lon="-5.7125112">
        <ele>1207.79</ele>
        <time>2020-07-21T08:51:20.000Z</time>
      </trkpt>
      <trkpt lat="42.945306" lon="-5.7125148">
        <ele>1207.79</ele>
        <time>2020-07-21T08:51:21.000Z</time>
      </trkpt>
      <trkpt lat="42.9453052" lon="-5.7125163">
        <ele>1207.79</ele>
        <time>2020-07-21T08:51:22.000Z</time>
      </trkpt>
      <trkpt lat="42.945301" lon="-5.7125195">
        <ele>1207.63</ele>
        <time>2020-07-21T08:51:23.000Z</time>
      </trkpt>
      <trkpt lat="42.9452925" lon="-5.7125273">
        <ele>1207.63</ele>
        <time>2020-07-21T08:51:24.000Z</time>
      </trkpt>
      <trkpt lat="42.9452793" lon="-5.7125363">
        <ele>1207.63</ele>
        <time>2020-07-21T08:51:25.000Z</time>
      </trkpt>
      <trkpt lat="42.945267" lon="-5.7125415">
        <ele>1207.63</ele>
        <time>2020-07-21T08:51:26.000Z</time>
      </trkpt>
      <trkpt lat="42.945261" lon="-5.712538">
        <ele>1207.63</ele>
        <time>2020-07-21T08:51:27.000Z</time>
      </trkpt>
      <trkpt lat="42.9452592" lon="-5.7125295">
        <ele>1207.63</ele>
        <time>2020-07-21T08:51:28.000Z</time>
      </trkpt>
      <trkpt lat="42.9452602" lon="-5.7125212">
        <ele>1207.63</ele>
        <time>2020-07-21T08:51:29.000Z</time>
      </trkpt>
      <trkpt lat="42.94526" lon="-5.7125163">
        <ele>1207.63</ele>
        <time>2020-07-21T08:51:30.000Z</time>
      </trkpt>
      <trkpt lat="42.9452598" lon="-5.7125152">
        <ele>1207.63</ele>
        <time>2020-07-21T08:51:31.000Z</time>
      </trkpt>
      <trkpt lat="42.9452577" lon="-5.7125133">
        <ele>1207.63</ele>
        <time>2020-07-21T08:51:32.000Z</time>
      </trkpt>
      <trkpt lat="42.9452532" lon="-5.7125103">
        <ele>1207.63</ele>
        <time>2020-07-21T08:51:33.000Z</time>
      </trkpt>
      <trkpt lat="42.9452487" lon="-5.7125055">
        <ele>1207.63</ele>
        <time>2020-07-21T08:51:34.000Z</time>
      </trkpt>
      <trkpt lat="42.9452452" lon="-5.7124987">
        <ele>1207.63</ele>
        <time>2020-07-21T08:51:35.000Z</time>
      </trkpt>
      <trkpt lat="42.9452422" lon="-5.712488">
        <ele>1207.63</ele>
        <time>2020-07-21T08:51:36.000Z</time>
      </trkpt>
      <trkpt lat="42.945239" lon="-5.7124745">
        <ele>1207.63</ele>
        <time>2020-07-21T08:51:37.000Z</time>
      </trkpt>
      <trkpt lat="42.9452363" lon="-5.7124602">
        <ele>1207.63</ele>
        <time>2020-07-21T08:51:38.000Z</time>
      </trkpt>
      <trkpt lat="42.9452343" lon="-5.712447">
        <ele>1207.63</ele>
        <time>2020-07-21T08:51:39.000Z</time>
      </trkpt>
      <trkpt lat="42.9452335" lon="-5.712437">
        <ele>1207.63</ele>
        <time>2020-07-21T08:51:40.000Z</time>
      </trkpt>
      <trkpt lat="42.945233" lon="-5.71243">
        <ele>1207.79</ele>
        <time>2020-07-21T08:51:41.000Z</time>
      </trkpt>
      <trkpt lat="42.9452333" lon="-5.7124258">
        <ele>1207.79</ele>
        <time>2020-07-21T08:51:42.000Z</time>
      </trkpt>
      <trkpt lat="42.9452328" lon="-5.7124227">
        <ele>1207.79</ele>
        <time>2020-07-21T08:51:43.000Z</time>
      </trkpt>
      <trkpt lat="42.9452308" lon="-5.7124215">
        <ele>1207.79</ele>
        <time>2020-07-21T08:51:44.000Z</time>
      </trkpt>
      <trkpt lat="42.9452285" lon="-5.7124202">
        <ele>1207.79</ele>
        <time>2020-07-21T08:51:45.000Z</time>
      </trkpt>
      <trkpt lat="42.9452275" lon="-5.7124197">
        <ele>1207.79</ele>
        <time>2020-07-21T08:51:46.000Z</time>
      </trkpt>
      <trkpt lat="42.9452277" lon="-5.7124175">
        <ele>1207.79</ele>
        <time>2020-07-21T08:51:47.000Z</time>
      </trkpt>
      <trkpt lat="42.9452285" lon="-5.7124163">
        <ele>1207.79</ele>
        <time>2020-07-21T08:51:48.000Z</time>
      </trkpt>
      <trkpt lat="42.9452287" lon="-5.7124157">
        <ele>1207.94</ele>
        <time>2020-07-21T08:51:49.000Z</time>
      </trkpt>
      <trkpt lat="42.9452285" lon="-5.7124158">
        <ele>1207.94</ele>
        <time>2020-07-21T08:51:50.000Z</time>
      </trkpt>
      <trkpt lat="42.9452285" lon="-5.7124163">
        <ele>1207.94</ele>
        <time>2020-07-21T08:51:51.000Z</time>
      </trkpt>
      <trkpt lat="42.9452288" lon="-5.7124173">
        <ele>1207.94</ele>
        <time>2020-07-21T08:51:52.000Z</time>
      </trkpt>
      <trkpt lat="42.9452298" lon="-5.7124173">
        <ele>1208.09</ele>
        <time>2020-07-21T08:51:53.000Z</time>
      </trkpt>
      <trkpt lat="42.94523" lon="-5.712417">
        <ele>1208.09</ele>
        <time>2020-07-21T08:51:54.000Z</time>
      </trkpt>
      <trkpt lat="42.9452298" lon="-5.7124167">
        <ele>1208.24</ele>
        <time>2020-07-21T08:51:55.000Z</time>
      </trkpt>
      <trkpt lat="42.9452295" lon="-5.7124175">
        <ele>1208.24</ele>
        <time>2020-07-21T08:51:56.000Z</time>
      </trkpt>
      <trkpt lat="42.9452297" lon="-5.7124185">
        <ele>1208.24</ele>
        <time>2020-07-21T08:51:57.000Z</time>
      </trkpt>
      <trkpt lat="42.9452302" lon="-5.7124195">
        <ele>1208.24</ele>
        <time>2020-07-21T08:51:58.000Z</time>
      </trkpt>
      <trkpt lat="42.9452292" lon="-5.7124203">
        <ele>1208.39</ele>
        <time>2020-07-21T08:51:59.000Z</time>
      </trkpt>
      <trkpt lat="42.9452277" lon="-5.7124215">
        <ele>1208.39</ele>
        <time>2020-07-21T08:52:00.000Z</time>
      </trkpt>
      <trkpt lat="42.9452265" lon="-5.7124218">
        <ele>1208.55</ele>
        <time>2020-07-21T08:52:01.000Z</time>
      </trkpt>
      <trkpt lat="42.945226" lon="-5.712422">
        <ele>1208.55</ele>
        <time>2020-07-21T08:52:02.000Z</time>
      </trkpt>
      <trkpt lat="42.945226" lon="-5.7124222">
        <ele>1208.7</ele>
        <time>2020-07-21T08:52:03.000Z</time>
      </trkpt>
      <trkpt lat="42.9452258" lon="-5.7124228">
        <ele>1208.7</ele>
        <time>2020-07-21T08:52:04.000Z</time>
      </trkpt>
      <trkpt lat="42.9452265" lon="-5.7124233">
        <ele>1208.85</ele>
        <time>2020-07-21T08:52:05.000Z</time>
      </trkpt>
      <trkpt lat="42.9452277" lon="-5.7124238">
        <ele>1208.85</ele>
        <time>2020-07-21T08:52:06.000Z</time>
      </trkpt>
      <trkpt lat="42.9452282" lon="-5.7124248">
        <ele>1209</ele>
        <time>2020-07-21T08:52:07.000Z</time>
      </trkpt>
      <trkpt lat="42.9452283" lon="-5.7124265">
        <ele>1209</ele>
        <time>2020-07-21T08:52:08.000Z</time>
      </trkpt>
      <trkpt lat="42.9452287" lon="-5.7124292">
        <ele>1209.16</ele>
        <time>2020-07-21T08:52:09.000Z</time>
      </trkpt>
      <trkpt lat="42.945228" lon="-5.7124328">
        <ele>1209.16</ele>
        <time>2020-07-21T08:52:10.000Z</time>
      </trkpt>
      <trkpt lat="42.9452275" lon="-5.7124372">
        <ele>1209.31</ele>
        <time>2020-07-21T08:52:11.000Z</time>
      </trkpt>
      <trkpt lat="42.9452272" lon="-5.7124437">
        <ele>1209.31</ele>
        <time>2020-07-21T08:52:12.000Z</time>
      </trkpt>
      <trkpt lat="42.9452303" lon="-5.7124512">
        <ele>1209.46</ele>
        <time>2020-07-21T08:52:13.000Z</time>
      </trkpt>
      <trkpt lat="42.945234" lon="-5.7124607">
        <ele>1209.46</ele>
        <time>2020-07-21T08:52:14.000Z</time>
      </trkpt>
      <trkpt lat="42.9452375" lon="-5.712472">
        <ele>1209.61</ele>
        <time>2020-07-21T08:52:15.000Z</time>
      </trkpt>
      <trkpt lat="42.9452403" lon="-5.7124843">
        <ele>1209.61</ele>
        <time>2020-07-21T08:52:16.000Z</time>
      </trkpt>
      <trkpt lat="42.9452442" lon="-5.7124967">
        <ele>1209.77</ele>
        <time>2020-07-21T08:52:17.000Z</time>
      </trkpt>
      <trkpt lat="42.9452488" lon="-5.7125065">
        <ele>1209.77</ele>
        <time>2020-07-21T08:52:18.000Z</time>
      </trkpt>
      <trkpt lat="42.945254" lon="-5.7125157">
        <ele>1209.77</ele>
        <time>2020-07-21T08:52:19.000Z</time>
      </trkpt>
      <trkpt lat="42.9452603" lon="-5.7125205">
        <ele>1209.77</ele>
        <time>2020-07-21T08:52:20.000Z</time>
      </trkpt>
      <trkpt lat="42.9452683" lon="-5.7125212">
        <ele>1209.92</ele>
        <time>2020-07-21T08:52:21.000Z</time>
      </trkpt>
      <trkpt lat="42.9452762" lon="-5.7125193">
        <ele>1209.92</ele>
        <time>2020-07-21T08:52:22.000Z</time>
      </trkpt>
      <trkpt lat="42.945284" lon="-5.7125187">
        <ele>1209.92</ele>
        <time>2020-07-21T08:52:23.000Z</time>
      </trkpt>
      <trkpt lat="42.9452898" lon="-5.7125193">
        <ele>1209.92</ele>
        <time>2020-07-21T08:52:24.000Z</time>
      </trkpt>
      <trkpt lat="42.9452947" lon="-5.7125198">
        <ele>1209.92</ele>
        <time>2020-07-21T08:52:25.000Z</time>
      </trkpt>
      <trkpt lat="42.9452978" lon="-5.71252">
        <ele>1209.92</ele>
        <time>2020-07-21T08:52:26.000Z</time>
      </trkpt>
      <trkpt lat="42.9453005" lon="-5.7125202">
        <ele>1209.92</ele>
        <time>2020-07-21T08:52:27.000Z</time>
      </trkpt>
      <trkpt lat="42.9453033" lon="-5.712521">
        <ele>1209.92</ele>
        <time>2020-07-21T08:52:28.000Z</time>
      </trkpt>
      <trkpt lat="42.9453062" lon="-5.7125215">
        <ele>1209.92</ele>
        <time>2020-07-21T08:52:29.000Z</time>
      </trkpt>
      <trkpt lat="42.9453083" lon="-5.7125212">
        <ele>1209.92</ele>
        <time>2020-07-21T08:52:30.000Z</time>
      </trkpt>
      <trkpt lat="42.9453097" lon="-5.7125195">
        <ele>1209.92</ele>
        <time>2020-07-21T08:52:31.000Z</time>
      </trkpt>
      <trkpt lat="42.9453105" lon="-5.7125168">
        <ele>1209.92</ele>
        <time>2020-07-21T08:52:32.000Z</time>
      </trkpt>
      <trkpt lat="42.9453115" lon="-5.7125138">
        <ele>1209.92</ele>
        <time>2020-07-21T08:52:33.000Z</time>
      </trkpt>
      <trkpt lat="42.9453122" lon="-5.712512">
        <ele>1209.92</ele>
        <time>2020-07-21T08:52:34.000Z</time>
      </trkpt>
      <trkpt lat="42.9453122" lon="-5.7125113">
        <ele>1209.92</ele>
        <time>2020-07-21T08:52:35.000Z</time>
      </trkpt>
      <trkpt lat="42.945312" lon="-5.7125107">
        <ele>1209.92</ele>
        <time>2020-07-21T08:52:36.000Z</time>
      </trkpt>
      <trkpt lat="42.945311" lon="-5.7125092">
        <ele>1209.77</ele>
        <time>2020-07-21T08:52:37.000Z</time>
      </trkpt>
      <trkpt lat="42.9453103" lon="-5.7125075">
        <ele>1209.77</ele>
        <time>2020-07-21T08:52:38.000Z</time>
      </trkpt>
      <trkpt lat="42.9453092" lon="-5.7125062">
        <ele>1209.77</ele>
        <time>2020-07-21T08:52:39.000Z</time>
      </trkpt>
      <trkpt lat="42.9453095" lon="-5.7125032">
        <ele>1209.77</ele>
        <time>2020-07-21T08:52:40.000Z</time>
      </trkpt>
      <trkpt lat="42.9453097" lon="-5.7124975">
        <ele>1209.77</ele>
        <time>2020-07-21T08:52:41.000Z</time>
      </trkpt>
      <trkpt lat="42.9453107" lon="-5.7124907">
        <ele>1209.77</ele>
        <time>2020-07-21T08:52:42.000Z</time>
      </trkpt>
      <trkpt lat="42.9453103" lon="-5.7124843">
        <ele>1209.61</ele>
        <time>2020-07-21T08:52:43.000Z</time>
      </trkpt>
      <trkpt lat="42.9453102" lon="-5.7124785">
        <ele>1209.61</ele>
        <time>2020-07-21T08:52:44.000Z</time>
      </trkpt>
      <trkpt lat="42.9453095" lon="-5.7124783">
        <ele>1209.61</ele>
        <time>2020-07-21T08:52:45.000Z</time>
      </trkpt>
      <trkpt lat="42.9453077" lon="-5.7124852">
        <ele>1209.61</ele>
        <time>2020-07-21T08:52:46.000Z</time>
      </trkpt>
      <trkpt lat="42.9453023" lon="-5.7124985">
        <ele>1209.61</ele>
        <time>2020-07-21T08:52:47.000Z</time>
      </trkpt>
      <trkpt lat="42.9452973" lon="-5.7124998">
        <ele>1209.61</ele>
        <time>2020-07-21T08:52:48.000Z</time>
      </trkpt>
      <trkpt lat="42.9452897" lon="-5.7125035">
        <ele>1209.46</ele>
        <time>2020-07-21T08:52:49.000Z</time>
      </trkpt>
      <trkpt lat="42.9452823" lon="-5.7125082">
        <ele>1209.46</ele>
        <time>2020-07-21T08:52:50.000Z</time>
      </trkpt>
      <trkpt lat="42.945272" lon="-5.7125237">
        <ele>1209.46</ele>
        <time>2020-07-21T08:52:51.000Z</time>
      </trkpt>
      <trkpt lat="42.9452648" lon="-5.7125293">
        <ele>1209.46</ele>
        <time>2020-07-21T08:52:52.000Z</time>
      </trkpt>
      <trkpt lat="42.9452612" lon="-5.7125348">
        <ele>1209.46</ele>
        <time>2020-07-21T08:52:53.000Z</time>
      </trkpt>
      <trkpt lat="42.9452597" lon="-5.712539">
        <ele>1209.46</ele>
        <time>2020-07-21T08:52:54.000Z</time>
      </trkpt>
      <trkpt lat="42.9452605" lon="-5.712546">
        <ele>1209.31</ele>
        <time>2020-07-21T08:52:55.000Z</time>
      </trkpt>
      <trkpt lat="42.945261" lon="-5.7125495">
        <ele>1209.31</ele>
        <time>2020-07-21T08:52:56.000Z</time>
      </trkpt>
      <trkpt lat="42.9452622" lon="-5.7125517">
        <ele>1209.16</ele>
        <time>2020-07-21T08:52:57.000Z</time>
      </trkpt>
      <trkpt lat="42.9452638" lon="-5.7125522">
        <ele>1209.16</ele>
        <time>2020-07-21T08:52:58.000Z</time>
      </trkpt>
      <trkpt lat="42.945266" lon="-5.7125513">
        <ele>1209.16</ele>
        <time>2020-07-21T08:52:59.000Z</time>
      </trkpt>
      <trkpt lat="42.9452683" lon="-5.7125512">
        <ele>1209.16</ele>
        <time>2020-07-21T08:53:00.000Z</time>
      </trkpt>
      <trkpt lat="42.9452698" lon="-5.7125523">
        <ele>1209</ele>
        <time>2020-07-21T08:53:01.000Z</time>
      </trkpt>
      <trkpt lat="42.9452703" lon="-5.7125532">
        <ele>1209</ele>
        <time>2020-07-21T08:53:02.000Z</time>
      </trkpt>
      <trkpt lat="42.9452717" lon="-5.7125525">
        <ele>1208.85</ele>
        <time>2020-07-21T08:53:03.000Z</time>
      </trkpt>
      <trkpt lat="42.9452732" lon="-5.7125497">
        <ele>1208.85</ele>
        <time>2020-07-21T08:53:04.000Z</time>
      </trkpt>
      <trkpt lat="42.945274" lon="-5.7125457">
        <ele>1208.7</ele>
        <time>2020-07-21T08:53:05.000Z</time>
      </trkpt>
      <trkpt lat="42.9452743" lon="-5.712543">
        <ele>1208.7</ele>
        <time>2020-07-21T08:53:06.000Z</time>
      </trkpt>
      <trkpt lat="42.9452738" lon="-5.7125413">
        <ele>1208.55</ele>
        <time>2020-07-21T08:53:07.000Z</time>
      </trkpt>
      <trkpt lat="42.9452747" lon="-5.7125427">
        <ele>1208.55</ele>
        <time>2020-07-21T08:53:08.000Z</time>
      </trkpt>
      <trkpt lat="42.9452752" lon="-5.7125442">
        <ele>1208.39</ele>
        <time>2020-07-21T08:53:09.000Z</time>
      </trkpt>
      <trkpt lat="42.9452757" lon="-5.7125478">
        <ele>1208.39</ele>
        <time>2020-07-21T08:53:10.000Z</time>
      </trkpt>
      <trkpt lat="42.945276" lon="-5.7125493">
        <ele>1208.24</ele>
        <time>2020-07-21T08:53:11.000Z</time>
      </trkpt>
      <trkpt lat="42.9452782" lon="-5.7125468">
        <ele>1208.24</ele>
        <time>2020-07-21T08:53:12.000Z</time>
      </trkpt>
      <trkpt lat="42.9452797" lon="-5.7125418">
        <ele>1207.94</ele>
        <time>2020-07-21T08:53:13.000Z</time>
      </trkpt>
      <trkpt lat="42.9452797" lon="-5.712539">
        <ele>1207.94</ele>
        <time>2020-07-21T08:53:14.000Z</time>
      </trkpt>
      <trkpt lat="42.9452778" lon="-5.7125387">
        <ele>1207.79</ele>
        <time>2020-07-21T08:53:15.000Z</time>
      </trkpt>
      <trkpt lat="42.945277" lon="-5.7125377">
        <ele>1207.79</ele>
        <time>2020-07-21T08:53:16.000Z</time>
      </trkpt>
      <trkpt lat="42.945278" lon="-5.7125338">
        <ele>1207.63</ele>
        <time>2020-07-21T08:53:17.000Z</time>
      </trkpt>
      <trkpt lat="42.9452785" lon="-5.7125275">
        <ele>1207.63</ele>
        <time>2020-07-21T08:53:18.000Z</time>
      </trkpt>
      <trkpt lat="42.9452788" lon="-5.7125208">
        <ele>1207.48</ele>
        <time>2020-07-21T08:53:19.000Z</time>
      </trkpt>
      <trkpt lat="42.945277" lon="-5.712514">
        <ele>1207.48</ele>
        <time>2020-07-21T08:53:20.000Z</time>
      </trkpt>
      <trkpt lat="42.9452727" lon="-5.7125107">
        <ele>1207.33</ele>
        <time>2020-07-21T08:53:21.000Z</time>
      </trkpt>
      <trkpt lat="42.9452695" lon="-5.7125083">
        <ele>1207.33</ele>
        <time>2020-07-21T08:53:22.000Z</time>
      </trkpt>
      <trkpt lat="42.9452678" lon="-5.7125077">
        <ele>1207.33</ele>
        <time>2020-07-21T08:53:23.000Z</time>
      </trkpt>
      <trkpt lat="42.9452693" lon="-5.7125065">
        <ele>1207.33</ele>
        <time>2020-07-21T08:53:24.000Z</time>
      </trkpt>
      <trkpt lat="42.9452702" lon="-5.712507">
        <ele>1207.18</ele>
        <time>2020-07-21T08:53:25.000Z</time>
      </trkpt>
      <trkpt lat="42.945271" lon="-5.7125075">
        <ele>1207.18</ele>
        <time>2020-07-21T08:53:26.000Z</time>
      </trkpt>
      <trkpt lat="42.9452718" lon="-5.712507">
        <ele>1207.02</ele>
        <time>2020-07-21T08:53:27.000Z</time>
      </trkpt>
      <trkpt lat="42.9452712" lon="-5.7125052">
        <ele>1207.02</ele>
        <time>2020-07-21T08:53:28.000Z</time>
      </trkpt>
      <trkpt lat="42.9452705" lon="-5.712503">
        <ele>1207.02</ele>
        <time>2020-07-21T08:53:29.000Z</time>
      </trkpt>
      <trkpt lat="42.9452697" lon="-5.7125013">
        <ele>1207.02</ele>
        <time>2020-07-21T08:53:30.000Z</time>
      </trkpt>
      <trkpt lat="42.9452698" lon="-5.7125008">
        <ele>1207.02</ele>
        <time>2020-07-21T08:53:31.000Z</time>
      </trkpt>
      <trkpt lat="42.9452703" lon="-5.7125002">
        <ele>1207.02</ele>
        <time>2020-07-21T08:53:32.000Z</time>
      </trkpt>
      <trkpt lat="42.9452713" lon="-5.7124998">
        <ele>1206.87</ele>
        <time>2020-07-21T08:53:33.000Z</time>
      </trkpt>
      <trkpt lat="42.9452727" lon="-5.7124987">
        <ele>1206.87</ele>
        <time>2020-07-21T08:53:34.000Z</time>
      </trkpt>
      <trkpt lat="42.9452733" lon="-5.7124982">
        <ele>1206.87</ele>
        <time>2020-07-21T08:53:35.000Z</time>
      </trkpt>
      <trkpt lat="42.945274" lon="-5.712498">
        <ele>1206.87</ele>
        <time>2020-07-21T08:53:36.000Z</time>
      </trkpt>
      <trkpt lat="42.9452747" lon="-5.7124982">
        <ele>1206.87</ele>
        <time>2020-07-21T08:53:37.000Z</time>
      </trkpt>
      <trkpt lat="42.9452757" lon="-5.7124983">
        <ele>1206.87</ele>
        <time>2020-07-21T08:53:38.000Z</time>
      </trkpt>
      <trkpt lat="42.945276" lon="-5.7125002">
        <ele>1206.87</ele>
        <time>2020-07-21T08:53:39.000Z</time>
      </trkpt>
      <trkpt lat="42.9452753" lon="-5.7125033">
        <ele>1206.87</ele>
        <time>2020-07-21T08:53:40.000Z</time>
      </trkpt>
      <trkpt lat="42.9452743" lon="-5.7125067">
        <ele>1206.87</ele>
        <time>2020-07-21T08:53:41.000Z</time>
      </trkpt>
      <trkpt lat="42.9452735" lon="-5.7125087">
        <ele>1206.87</ele>
        <time>2020-07-21T08:53:42.000Z</time>
      </trkpt>
      <trkpt lat="42.9452727" lon="-5.71251">
        <ele>1206.87</ele>
        <time>2020-07-21T08:53:43.000Z</time>
      </trkpt>
      <trkpt lat="42.9452722" lon="-5.7125112">
        <ele>1206.87</ele>
        <time>2020-07-21T08:53:44.000Z</time>
      </trkpt>
      <trkpt lat="42.9452718" lon="-5.7125117">
        <ele>1207.02</ele>
        <time>2020-07-21T08:53:45.000Z</time>
      </trkpt>
      <trkpt lat="42.9452722" lon="-5.7125112">
        <ele>1207.02</ele>
        <time>2020-07-21T08:53:46.000Z</time>
      </trkpt>
      <trkpt lat="42.9452737" lon="-5.7125097">
        <ele>1207.02</ele>
        <time>2020-07-21T08:53:47.000Z</time>
      </trkpt>
      <trkpt lat="42.9452753" lon="-5.7125105">
        <ele>1207.02</ele>
        <time>2020-07-21T08:53:48.000Z</time>
      </trkpt>
      <trkpt lat="42.945275" lon="-5.712513">
        <ele>1207.18</ele>
        <time>2020-07-21T08:53:49.000Z</time>
      </trkpt>
      <trkpt lat="42.9452725" lon="-5.712518">
        <ele>1207.18</ele>
        <time>2020-07-21T08:53:50.000Z</time>
      </trkpt>
      <trkpt lat="42.9452698" lon="-5.7125215">
        <ele>1207.33</ele>
        <time>2020-07-21T08:53:51.000Z</time>
      </trkpt>
      <trkpt lat="42.9452682" lon="-5.7125245">
        <ele>1207.33</ele>
        <time>2020-07-21T08:53:52.000Z</time>
      </trkpt>
      <trkpt lat="42.9452678" lon="-5.7125258">
        <ele>1207.33</ele>
        <time>2020-07-21T08:53:53.000Z</time>
      </trkpt>
      <trkpt lat="42.9452663" lon="-5.712527">
        <ele>1207.33</ele>
        <time>2020-07-21T08:53:54.000Z</time>
      </trkpt>
      <trkpt lat="42.945266" lon="-5.7125267">
        <ele>1207.48</ele>
        <time>2020-07-21T08:53:55.000Z</time>
      </trkpt>
      <trkpt lat="42.9452647" lon="-5.7125263">
        <ele>1207.48</ele>
        <time>2020-07-21T08:53:56.000Z</time>
      </trkpt>
      <trkpt lat="42.9452642" lon="-5.7125262">
        <ele>1207.63</ele>
        <time>2020-07-21T08:53:57.000Z</time>
      </trkpt>
      <trkpt lat="42.9452625" lon="-5.7125277">
        <ele>1207.63</ele>
        <time>2020-07-21T08:53:58.000Z</time>
      </trkpt>
      <trkpt lat="42.9452608" lon="-5.7125293">
        <ele>1207.63</ele>
        <time>2020-07-21T08:53:59.000Z</time>
      </trkpt>
      <trkpt lat="42.9452593" lon="-5.712528">
        <ele>1207.63</ele>
        <time>2020-07-21T08:54:00.000Z</time>
      </trkpt>
      <trkpt lat="42.9452575" lon="-5.7125248">
        <ele>1207.79</ele>
        <time>2020-07-21T08:54:01.000Z</time>
      </trkpt>
      <trkpt lat="42.9452555" lon="-5.7125203">
        <ele>1207.79</ele>
        <time>2020-07-21T08:54:02.000Z</time>
      </trkpt>
      <trkpt lat="42.9452537" lon="-5.7125175">
        <ele>1207.79</ele>
        <time>2020-07-21T08:54:03.000Z</time>
      </trkpt>
      <trkpt lat="42.9452522" lon="-5.7125152">
        <ele>1207.79</ele>
        <time>2020-07-21T08:54:04.000Z</time>
      </trkpt>
      <trkpt lat="42.94525" lon="-5.7125138">
        <ele>1207.79</ele>
        <time>2020-07-21T08:54:05.000Z</time>
      </trkpt>
      <trkpt lat="42.9452483" lon="-5.712513">
        <ele>1207.79</ele>
        <time>2020-07-21T08:54:06.000Z</time>
      </trkpt>
      <trkpt lat="42.9452463" lon="-5.7125132">
        <ele>1207.94</ele>
        <time>2020-07-21T08:54:07.000Z</time>
      </trkpt>
      <trkpt lat="42.9452422" lon="-5.7125123">
        <ele>1207.94</ele>
        <time>2020-07-21T08:54:08.000Z</time>
      </trkpt>
      <trkpt lat="42.945238" lon="-5.712511">
        <ele>1207.94</ele>
        <time>2020-07-21T08:54:09.000Z</time>
      </trkpt>
      <trkpt lat="42.9452348" lon="-5.7125085">
        <ele>1207.94</ele>
        <time>2020-07-21T08:54:10.000Z</time>
      </trkpt>
      <trkpt lat="42.945234" lon="-5.7125072">
        <ele>1208.09</ele>
        <time>2020-07-21T08:54:11.000Z</time>
      </trkpt>
      <trkpt lat="42.9452335" lon="-5.7125065">
        <ele>1208.09</ele>
        <time>2020-07-21T08:54:12.000Z</time>
      </trkpt>
      <trkpt lat="42.945235" lon="-5.7125057">
        <ele>1208.24</ele>
        <time>2020-07-21T08:54:13.000Z</time>
      </trkpt>
      <trkpt lat="42.9452358" lon="-5.7125057">
        <ele>1208.24</ele>
        <time>2020-07-21T08:54:14.000Z</time>
      </trkpt>
      <trkpt lat="42.9452363" lon="-5.7125075">
        <ele>1208.24</ele>
        <time>2020-07-21T08:54:15.000Z</time>
      </trkpt>
      <trkpt lat="42.9452312" lon="-5.7125082">
        <ele>1208.24</ele>
        <time>2020-07-21T08:54:16.000Z</time>
      </trkpt>
      <trkpt lat="42.945225" lon="-5.7125085">
        <ele>1208.39</ele>
        <time>2020-07-21T08:54:17.000Z</time>
      </trkpt>
      <trkpt lat="42.9452165" lon="-5.7125108">
        <ele>1208.39</ele>
        <time>2020-07-21T08:54:18.000Z</time>
      </trkpt>
      <trkpt lat="42.945209" lon="-5.7125168">
        <ele>1208.39</ele>
        <time>2020-07-21T08:54:19.000Z</time>
      </trkpt>
      <trkpt lat="42.9452018" lon="-5.7125247">
        <ele>1208.39</ele>
        <time>2020-07-21T08:54:20.000Z</time>
      </trkpt>
      <trkpt lat="42.9451932" lon="-5.7125323">
        <ele>1208.55</ele>
        <time>2020-07-21T08:54:21.000Z</time>
      </trkpt>
      <trkpt lat="42.9451828" lon="-5.7125402">
        <ele>1208.55</ele>
        <time>2020-07-21T08:54:22.000Z</time>
      </trkpt>
      <trkpt lat="42.9451713" lon="-5.7125477">
        <ele>1208.55</ele>
        <time>2020-07-21T08:54:23.000Z</time>
      </trkpt>
      <trkpt lat="42.9451608" lon="-5.712553">
        <ele>1208.55</ele>
        <time>2020-07-21T08:54:24.000Z</time>
      </trkpt>
      <trkpt lat="42.9451517" lon="-5.7125587">
        <ele>1208.55</ele>
        <time>2020-07-21T08:54:25.000Z</time>
      </trkpt>
      <trkpt lat="42.9451427" lon="-5.712566">
        <ele>1208.55</ele>
        <time>2020-07-21T08:54:26.000Z</time>
      </trkpt>
      <trkpt lat="42.945135" lon="-5.7125752">
        <ele>1208.55</ele>
        <time>2020-07-21T08:54:27.000Z</time>
      </trkpt>
      <trkpt lat="42.9451273" lon="-5.7125858">
        <ele>1208.55</ele>
        <time>2020-07-21T08:54:28.000Z</time>
      </trkpt>
      <trkpt lat="42.9451205" lon="-5.7125963">
        <ele>1208.55</ele>
        <time>2020-07-21T08:54:29.000Z</time>
      </trkpt>
      <trkpt lat="42.9451133" lon="-5.7126083">
        <ele>1208.55</ele>
        <time>2020-07-21T08:54:30.000Z</time>
      </trkpt>
      <trkpt lat="42.945106" lon="-5.7126202">
        <ele>1208.55</ele>
        <time>2020-07-21T08:54:31.000Z</time>
      </trkpt>
      <trkpt lat="42.9450982" lon="-5.7126332">
        <ele>1208.55</ele>
        <time>2020-07-21T08:54:32.000Z</time>
      </trkpt>
      <trkpt lat="42.9450897" lon="-5.712645">
        <ele>1208.7</ele>
        <time>2020-07-21T08:54:33.000Z</time>
      </trkpt>
      <trkpt lat="42.9450803" lon="-5.7126582">
        <ele>1208.7</ele>
        <time>2020-07-21T08:54:34.000Z</time>
      </trkpt>
      <trkpt lat="42.9450705" lon="-5.7126708">
        <ele>1208.7</ele>
        <time>2020-07-21T08:54:35.000Z</time>
      </trkpt>
      <trkpt lat="42.94506" lon="-5.7126833">
        <ele>1208.7</ele>
        <time>2020-07-21T08:54:36.000Z</time>
      </trkpt>
      <trkpt lat="42.9450502" lon="-5.712696">
        <ele>1208.7</ele>
        <time>2020-07-21T08:54:37.000Z</time>
      </trkpt>
      <trkpt lat="42.9450415" lon="-5.71271">
        <ele>1208.7</ele>
        <time>2020-07-21T08:54:38.000Z</time>
      </trkpt>
      <trkpt lat="42.9450347" lon="-5.7127252">
        <ele>1208.85</ele>
        <time>2020-07-21T08:54:39.000Z</time>
      </trkpt>
      <trkpt lat="42.9450288" lon="-5.7127398">
        <ele>1208.85</ele>
        <time>2020-07-21T08:54:40.000Z</time>
      </trkpt>
      <trkpt lat="42.9450232" lon="-5.712754">
        <ele>1209</ele>
        <time>2020-07-21T08:54:41.000Z</time>
      </trkpt>
      <trkpt lat="42.9450182" lon="-5.7127687">
        <ele>1209</ele>
        <time>2020-07-21T08:54:42.000Z</time>
      </trkpt>
      <trkpt lat="42.945014" lon="-5.712785">
        <ele>1209</ele>
        <time>2020-07-21T08:54:43.000Z</time>
      </trkpt>
      <trkpt lat="42.94501" lon="-5.7128023">
        <ele>1209</ele>
        <time>2020-07-21T08:54:44.000Z</time>
      </trkpt>
      <trkpt lat="42.9450062" lon="-5.7128203">
        <ele>1209.16</ele>
        <time>2020-07-21T08:54:45.000Z</time>
      </trkpt>
      <trkpt lat="42.9450028" lon="-5.7128377">
        <ele>1209.16</ele>
        <time>2020-07-21T08:54:46.000Z</time>
      </trkpt>
      <trkpt lat="42.9450003" lon="-5.7128545">
        <ele>1209.31</ele>
        <time>2020-07-21T08:54:47.000Z</time>
      </trkpt>
      <trkpt lat="42.9449983" lon="-5.7128705">
        <ele>1209.31</ele>
        <time>2020-07-21T08:54:48.000Z</time>
      </trkpt>
      <trkpt lat="42.9449963" lon="-5.712886">
        <ele>1209.61</ele>
        <time>2020-07-21T08:54:49.000Z</time>
      </trkpt>
      <trkpt lat="42.944994" lon="-5.7129007">
        <ele>1209.61</ele>
        <time>2020-07-21T08:54:50.000Z</time>
      </trkpt>
      <trkpt lat="42.9449927" lon="-5.7129152">
        <ele>1209.77</ele>
        <time>2020-07-21T08:54:51.000Z</time>
      </trkpt>
      <trkpt lat="42.9449923" lon="-5.71293">
        <ele>1209.77</ele>
        <time>2020-07-21T08:54:52.000Z</time>
      </trkpt>
      <trkpt lat="42.9449915" lon="-5.7129463">
        <ele>1209.92</ele>
        <time>2020-07-21T08:54:53.000Z</time>
      </trkpt>
      <trkpt lat="42.9449905" lon="-5.7129637">
        <ele>1209.92</ele>
        <time>2020-07-21T08:54:54.000Z</time>
      </trkpt>
      <trkpt lat="42.9449882" lon="-5.712982">
        <ele>1210.07</ele>
        <time>2020-07-21T08:54:55.000Z</time>
      </trkpt>
      <trkpt lat="42.9449863" lon="-5.7130007">
        <ele>1210.07</ele>
        <time>2020-07-21T08:54:56.000Z</time>
      </trkpt>
      <trkpt lat="42.9449838" lon="-5.7130193">
        <ele>1210.22</ele>
        <time>2020-07-21T08:54:57.000Z</time>
      </trkpt>
      <trkpt lat="42.9449835" lon="-5.7130363">
        <ele>1210.22</ele>
        <time>2020-07-21T08:54:58.000Z</time>
      </trkpt>
      <trkpt lat="42.9449847" lon="-5.7130538">
        <ele>1210.38</ele>
        <time>2020-07-21T08:54:59.000Z</time>
      </trkpt>
      <trkpt lat="42.9449857" lon="-5.7130707">
        <ele>1210.38</ele>
        <time>2020-07-21T08:55:00.000Z</time>
      </trkpt>
      <trkpt lat="42.9449865" lon="-5.7130878">
        <ele>1210.38</ele>
        <time>2020-07-21T08:55:01.000Z</time>
      </trkpt>
      <trkpt lat="42.9449863" lon="-5.7131037">
        <ele>1210.38</ele>
        <time>2020-07-21T08:55:02.000Z</time>
      </trkpt>
      <trkpt lat="42.944988" lon="-5.7131187">
        <ele>1210.53</ele>
        <time>2020-07-21T08:55:03.000Z</time>
      </trkpt>
      <trkpt lat="42.9449892" lon="-5.7131337">
        <ele>1210.53</ele>
        <time>2020-07-21T08:55:04.000Z</time>
      </trkpt>
      <trkpt lat="42.9449923" lon="-5.7131493">
        <ele>1210.53</ele>
        <time>2020-07-21T08:55:05.000Z</time>
      </trkpt>
      <trkpt lat="42.9449952" lon="-5.713164">
        <ele>1210.53</ele>
        <time>2020-07-21T08:55:06.000Z</time>
      </trkpt>
      <trkpt lat="42.9449987" lon="-5.713178">
        <ele>1210.53</ele>
        <time>2020-07-21T08:55:07.000Z</time>
      </trkpt>
      <trkpt lat="42.9450028" lon="-5.7131923">
        <ele>1210.53</ele>
        <time>2020-07-21T08:55:08.000Z</time>
      </trkpt>
      <trkpt lat="42.945007" lon="-5.713207">
        <ele>1210.68</ele>
        <time>2020-07-21T08:55:09.000Z</time>
      </trkpt>
      <trkpt lat="42.945011" lon="-5.7132228">
        <ele>1210.68</ele>
        <time>2020-07-21T08:55:10.000Z</time>
      </trkpt>
      <trkpt lat="42.945012" lon="-5.7132418">
        <ele>1210.68</ele>
        <time>2020-07-21T08:55:11.000Z</time>
      </trkpt>
      <trkpt lat="42.9450127" lon="-5.7132652">
        <ele>1210.68</ele>
        <time>2020-07-21T08:55:12.000Z</time>
      </trkpt>
      <trkpt lat="42.9450133" lon="-5.7132887">
        <ele>1210.68</ele>
        <time>2020-07-21T08:55:13.000Z</time>
      </trkpt>
      <trkpt lat="42.9450202" lon="-5.7133092">
        <ele>1210.68</ele>
        <time>2020-07-21T08:55:14.000Z</time>
      </trkpt>
      <trkpt lat="42.945028" lon="-5.7133268">
        <ele>1210.68</ele>
        <time>2020-07-21T08:55:15.000Z</time>
      </trkpt>
      <trkpt lat="42.9450355" lon="-5.713344">
        <ele>1210.68</ele>
        <time>2020-07-21T08:55:16.000Z</time>
      </trkpt>
      <trkpt lat="42.945039" lon="-5.7133607">
        <ele>1210.68</ele>
        <time>2020-07-21T08:55:17.000Z</time>
      </trkpt>
      <trkpt lat="42.9450428" lon="-5.7133768">
        <ele>1210.68</ele>
        <time>2020-07-21T08:55:18.000Z</time>
      </trkpt>
      <trkpt lat="42.9450492" lon="-5.713393">
        <ele>1210.68</ele>
        <time>2020-07-21T08:55:19.000Z</time>
      </trkpt>
      <trkpt lat="42.9450548" lon="-5.7134095">
        <ele>1210.68</ele>
        <time>2020-07-21T08:55:20.000Z</time>
      </trkpt>
      <trkpt lat="42.9450597" lon="-5.7134283">
        <ele>1210.68</ele>
        <time>2020-07-21T08:55:21.000Z</time>
      </trkpt>
      <trkpt lat="42.9450628" lon="-5.7134495">
        <ele>1210.68</ele>
        <time>2020-07-21T08:55:22.000Z</time>
      </trkpt>
      <trkpt lat="42.9450663" lon="-5.7134713">
        <ele>1210.83</ele>
        <time>2020-07-21T08:55:23.000Z</time>
      </trkpt>
      <trkpt lat="42.9450703" lon="-5.713492">
        <ele>1210.83</ele>
        <time>2020-07-21T08:55:24.000Z</time>
      </trkpt>
      <trkpt lat="42.9450763" lon="-5.7135098">
        <ele>1210.83</ele>
        <time>2020-07-21T08:55:25.000Z</time>
      </trkpt>
      <trkpt lat="42.9450818" lon="-5.7135275">
        <ele>1210.83</ele>
        <time>2020-07-21T08:55:26.000Z</time>
      </trkpt>
      <trkpt lat="42.9450873" lon="-5.7135435">
        <ele>1210.83</ele>
        <time>2020-07-21T08:55:27.000Z</time>
      </trkpt>
      <trkpt lat="42.9450912" lon="-5.7135598">
        <ele>1210.83</ele>
        <time>2020-07-21T08:55:28.000Z</time>
      </trkpt>
      <trkpt lat="42.9450968" lon="-5.7135758">
        <ele>1210.83</ele>
        <time>2020-07-21T08:55:29.000Z</time>
      </trkpt>
      <trkpt lat="42.9451028" lon="-5.7135923">
        <ele>1210.83</ele>
        <time>2020-07-21T08:55:30.000Z</time>
      </trkpt>
      <trkpt lat="42.9451098" lon="-5.7136093">
        <ele>1210.98</ele>
        <time>2020-07-21T08:55:31.000Z</time>
      </trkpt>
      <trkpt lat="42.9451162" lon="-5.7136262">
        <ele>1210.98</ele>
        <time>2020-07-21T08:55:32.000Z</time>
      </trkpt>
      <trkpt lat="42.945123" lon="-5.7136428">
        <ele>1210.98</ele>
        <time>2020-07-21T08:55:33.000Z</time>
      </trkpt>
      <trkpt lat="42.9451292" lon="-5.7136577">
        <ele>1210.98</ele>
        <time>2020-07-21T08:55:34.000Z</time>
      </trkpt>
      <trkpt lat="42.9451355" lon="-5.7136782">
        <ele>1211.14</ele>
        <time>2020-07-21T08:55:35.000Z</time>
      </trkpt>
      <trkpt lat="42.945141" lon="-5.7136975">
        <ele>1211.14</ele>
        <time>2020-07-21T08:55:36.000Z</time>
      </trkpt>
      <trkpt lat="42.9451472" lon="-5.713718">
        <ele>1211.14</ele>
        <time>2020-07-21T08:55:37.000Z</time>
      </trkpt>
      <trkpt lat="42.9451527" lon="-5.713732">
        <ele>1211.14</ele>
        <time>2020-07-21T08:55:38.000Z</time>
      </trkpt>
      <trkpt lat="42.9451588" lon="-5.7137472">
        <ele>1211.14</ele>
        <time>2020-07-21T08:55:39.000Z</time>
      </trkpt>
      <trkpt lat="42.945165" lon="-5.7137607">
        <ele>1211.14</ele>
        <time>2020-07-21T08:55:40.000Z</time>
      </trkpt>
      <trkpt lat="42.9451728" lon="-5.7137743">
        <ele>1211.29</ele>
        <time>2020-07-21T08:55:41.000Z</time>
      </trkpt>
      <trkpt lat="42.9451805" lon="-5.713788">
        <ele>1211.29</ele>
        <time>2020-07-21T08:55:42.000Z</time>
      </trkpt>
      <trkpt lat="42.9451888" lon="-5.7138027">
        <ele>1211.29</ele>
        <time>2020-07-21T08:55:43.000Z</time>
      </trkpt>
      <trkpt lat="42.945195" lon="-5.7138167">
        <ele>1211.29</ele>
        <time>2020-07-21T08:55:44.000Z</time>
      </trkpt>
      <trkpt lat="42.9452005" lon="-5.7138307">
        <ele>1211.29</ele>
        <time>2020-07-21T08:55:45.000Z</time>
      </trkpt>
      <trkpt lat="42.9452047" lon="-5.713845">
        <ele>1211.29</ele>
        <time>2020-07-21T08:55:46.000Z</time>
      </trkpt>
      <trkpt lat="42.9452072" lon="-5.7138597">
        <ele>1211.44</ele>
        <time>2020-07-21T08:55:47.000Z</time>
      </trkpt>
      <trkpt lat="42.9452082" lon="-5.7138733">
        <ele>1211.44</ele>
        <time>2020-07-21T08:55:48.000Z</time>
      </trkpt>
      <trkpt lat="42.9452073" lon="-5.7138862">
        <ele>1211.59</ele>
        <time>2020-07-21T08:55:49.000Z</time>
      </trkpt>
      <trkpt lat="42.9452067" lon="-5.7138987">
        <ele>1211.59</ele>
        <time>2020-07-21T08:55:50.000Z</time>
      </trkpt>
      <trkpt lat="42.9452075" lon="-5.7139122">
        <ele>1211.59</ele>
        <time>2020-07-21T08:55:51.000Z</time>
      </trkpt>
      <trkpt lat="42.9452087" lon="-5.7139262">
        <ele>1211.59</ele>
        <time>2020-07-21T08:55:52.000Z</time>
      </trkpt>
      <trkpt lat="42.9452097" lon="-5.7139397">
        <ele>1211.75</ele>
        <time>2020-07-21T08:55:53.000Z</time>
      </trkpt>
      <trkpt lat="42.945208" lon="-5.713953">
        <ele>1211.75</ele>
        <time>2020-07-21T08:55:54.000Z</time>
      </trkpt>
      <trkpt lat="42.945206" lon="-5.7139662">
        <ele>1211.9</ele>
        <time>2020-07-21T08:55:55.000Z</time>
      </trkpt>
      <trkpt lat="42.9452038" lon="-5.7139802">
        <ele>1211.9</ele>
        <time>2020-07-21T08:55:56.000Z</time>
      </trkpt>
      <trkpt lat="42.945201" lon="-5.7139943">
        <ele>1212.05</ele>
        <time>2020-07-21T08:55:57.000Z</time>
      </trkpt>
      <trkpt lat="42.9451968" lon="-5.71401">
        <ele>1212.05</ele>
        <time>2020-07-21T08:55:58.000Z</time>
      </trkpt>
      <trkpt lat="42.9451913" lon="-5.714029">
        <ele>1212.2</ele>
        <time>2020-07-21T08:55:59.000Z</time>
      </trkpt>
      <trkpt lat="42.945185" lon="-5.7140488">
        <ele>1212.2</ele>
        <time>2020-07-21T08:56:00.000Z</time>
      </trkpt>
      <trkpt lat="42.9451768" lon="-5.714068">
        <ele>1212.51</ele>
        <time>2020-07-21T08:56:01.000Z</time>
      </trkpt>
      <trkpt lat="42.9451672" lon="-5.714084">
        <ele>1212.51</ele>
        <time>2020-07-21T08:56:02.000Z</time>
      </trkpt>
      <trkpt lat="42.9451565" lon="-5.7140978">
        <ele>1212.66</ele>
        <time>2020-07-21T08:56:03.000Z</time>
      </trkpt>
      <trkpt lat="42.9451463" lon="-5.7141097">
        <ele>1212.66</ele>
        <time>2020-07-21T08:56:04.000Z</time>
      </trkpt>
      <trkpt lat="42.9451372" lon="-5.7141203">
        <ele>1212.97</ele>
        <time>2020-07-21T08:56:05.000Z</time>
      </trkpt>
      <trkpt lat="42.9451285" lon="-5.7141302">
        <ele>1212.97</ele>
        <time>2020-07-21T08:56:06.000Z</time>
      </trkpt>
      <trkpt lat="42.9451203" lon="-5.7141398">
        <ele>1213.12</ele>
        <time>2020-07-21T08:56:07.000Z</time>
      </trkpt>
      <trkpt lat="42.9451115" lon="-5.7141493">
        <ele>1213.12</ele>
        <time>2020-07-21T08:56:08.000Z</time>
      </trkpt>
      <trkpt lat="42.9451028" lon="-5.714159">
        <ele>1213.27</ele>
        <time>2020-07-21T08:56:09.000Z</time>
      </trkpt>
      <trkpt lat="42.945094" lon="-5.7141683">
        <ele>1213.27</ele>
        <time>2020-07-21T08:56:10.000Z</time>
      </trkpt>
      <trkpt lat="42.9450845" lon="-5.7141773">
        <ele>1213.58</ele>
        <time>2020-07-21T08:56:11.000Z</time>
      </trkpt>
      <trkpt lat="42.9450743" lon="-5.7141857">
        <ele>1213.58</ele>
        <time>2020-07-21T08:56:12.000Z</time>
      </trkpt>
      <trkpt lat="42.9450637" lon="-5.7141948">
        <ele>1213.73</ele>
        <time>2020-07-21T08:56:13.000Z</time>
      </trkpt>
      <trkpt lat="42.9450537" lon="-5.7142032">
        <ele>1213.73</ele>
        <time>2020-07-21T08:56:14.000Z</time>
      </trkpt>
      <trkpt lat="42.9450442" lon="-5.7142102">
        <ele>1214.03</ele>
        <time>2020-07-21T08:56:15.000Z</time>
      </trkpt>
      <trkpt lat="42.9450345" lon="-5.714217">
        <ele>1214.03</ele>
        <time>2020-07-21T08:56:16.000Z</time>
      </trkpt>
      <trkpt lat="42.9450247" lon="-5.7142248">
        <ele>1214.19</ele>
        <time>2020-07-21T08:56:17.000Z</time>
      </trkpt>
      <trkpt lat="42.9450125" lon="-5.7142353">
        <ele>1214.19</ele>
        <time>2020-07-21T08:56:18.000Z</time>
      </trkpt>
      <trkpt lat="42.9450007" lon="-5.7142457">
        <ele>1214.49</ele>
        <time>2020-07-21T08:56:19.000Z</time>
      </trkpt>
      <trkpt lat="42.9449878" lon="-5.7142545">
        <ele>1214.49</ele>
        <time>2020-07-21T08:56:20.000Z</time>
      </trkpt>
      <trkpt lat="42.9449767" lon="-5.7142618">
        <ele>1214.8</ele>
        <time>2020-07-21T08:56:21.000Z</time>
      </trkpt>
      <trkpt lat="42.9449652" lon="-5.7142683">
        <ele>1214.8</ele>
        <time>2020-07-21T08:56:22.000Z</time>
      </trkpt>
      <trkpt lat="42.9449538" lon="-5.714275">
        <ele>1215.1</ele>
        <time>2020-07-21T08:56:23.000Z</time>
      </trkpt>
      <trkpt lat="42.9449408" lon="-5.714281">
        <ele>1215.1</ele>
        <time>2020-07-21T08:56:24.000Z</time>
      </trkpt>
      <trkpt lat="42.9449257" lon="-5.7142863">
        <ele>1215.41</ele>
        <time>2020-07-21T08:56:25.000Z</time>
      </trkpt>
      <trkpt lat="42.9449097" lon="-5.7142912">
        <ele>1215.41</ele>
        <time>2020-07-21T08:56:26.000Z</time>
      </trkpt>
      <trkpt lat="42.9448952" lon="-5.7142963">
        <ele>1215.56</ele>
        <time>2020-07-21T08:56:27.000Z</time>
      </trkpt>
      <trkpt lat="42.9448823" lon="-5.7143005">
        <ele>1215.56</ele>
        <time>2020-07-21T08:56:28.000Z</time>
      </trkpt>
      <trkpt lat="42.944871" lon="-5.7143038">
        <ele>1215.86</ele>
        <time>2020-07-21T08:56:29.000Z</time>
      </trkpt>
      <trkpt lat="42.9448572" lon="-5.7143055">
        <ele>1215.86</ele>
        <time>2020-07-21T08:56:30.000Z</time>
      </trkpt>
      <trkpt lat="42.9448432" lon="-5.7143078">
        <ele>1216.17</ele>
        <time>2020-07-21T08:56:31.000Z</time>
      </trkpt>
      <trkpt lat="42.9448272" lon="-5.7143083">
        <ele>1216.17</ele>
        <time>2020-07-21T08:56:32.000Z</time>
      </trkpt>
      <trkpt lat="42.9448137" lon="-5.7143085">
        <ele>1216.47</ele>
        <time>2020-07-21T08:56:33.000Z</time>
      </trkpt>
      <trkpt lat="42.9448007" lon="-5.714307">
        <ele>1216.47</ele>
        <time>2020-07-21T08:56:34.000Z</time>
      </trkpt>
      <trkpt lat="42.9447892" lon="-5.7143067">
        <ele>1216.78</ele>
        <time>2020-07-21T08:56:35.000Z</time>
      </trkpt>
      <trkpt lat="42.9447783" lon="-5.714309">
        <ele>1216.78</ele>
        <time>2020-07-21T08:56:36.000Z</time>
      </trkpt>
      <trkpt lat="42.9447652" lon="-5.7143123">
        <ele>1217.08</ele>
        <time>2020-07-21T08:56:37.000Z</time>
      </trkpt>
      <trkpt lat="42.9447507" lon="-5.7143183">
        <ele>1217.08</ele>
        <time>2020-07-21T08:56:38.000Z</time>
      </trkpt>
      <trkpt lat="42.9447362" lon="-5.7143222">
        <ele>1217.39</ele>
        <time>2020-07-21T08:56:39.000Z</time>
      </trkpt>
      <trkpt lat="42.9447238" lon="-5.7143287">
        <ele>1217.39</ele>
        <time>2020-07-21T08:56:40.000Z</time>
      </trkpt>
      <trkpt lat="42.9447132" lon="-5.7143333">
        <ele>1217.84</ele>
        <time>2020-07-21T08:56:41.000Z</time>
      </trkpt>
      <trkpt lat="42.9447022" lon="-5.7143397">
        <ele>1217.84</ele>
        <time>2020-07-21T08:56:42.000Z</time>
      </trkpt>
      <trkpt lat="42.9446928" lon="-5.714347">
        <ele>1218.15</ele>
        <time>2020-07-21T08:56:43.000Z</time>
      </trkpt>
      <trkpt lat="42.9446847" lon="-5.7143578">
        <ele>1218.15</ele>
        <time>2020-07-21T08:56:44.000Z</time>
      </trkpt>
      <trkpt lat="42.9446777" lon="-5.7143705">
        <ele>1218.45</ele>
        <time>2020-07-21T08:56:45.000Z</time>
      </trkpt>
      <trkpt lat="42.9446692" lon="-5.7143833">
        <ele>1218.45</ele>
        <time>2020-07-21T08:56:46.000Z</time>
      </trkpt>
      <trkpt lat="42.9446608" lon="-5.7143953">
        <ele>1218.76</ele>
        <time>2020-07-21T08:56:47.000Z</time>
      </trkpt>
      <trkpt lat="42.9446518" lon="-5.7144068">
        <ele>1218.76</ele>
        <time>2020-07-21T08:56:48.000Z</time>
      </trkpt>
      <trkpt lat="42.9446435" lon="-5.714417">
        <ele>1219.21</ele>
        <time>2020-07-21T08:56:49.000Z</time>
      </trkpt>
      <trkpt lat="42.944635" lon="-5.7144283">
        <ele>1219.21</ele>
        <time>2020-07-21T08:56:50.000Z</time>
      </trkpt>
      <trkpt lat="42.9446277" lon="-5.7144397">
        <ele>1219.52</ele>
        <time>2020-07-21T08:56:51.000Z</time>
      </trkpt>
      <trkpt lat="42.9446203" lon="-5.714453">
        <ele>1219.52</ele>
        <time>2020-07-21T08:56:52.000Z</time>
      </trkpt>
      <trkpt lat="42.944612" lon="-5.7144665">
        <ele>1219.98</ele>
        <time>2020-07-21T08:56:53.000Z</time>
      </trkpt>
      <trkpt lat="42.9446023" lon="-5.7144818">
        <ele>1219.98</ele>
        <time>2020-07-21T08:56:54.000Z</time>
      </trkpt>
      <trkpt lat="42.9445923" lon="-5.7144977">
        <ele>1220.28</ele>
        <time>2020-07-21T08:56:55.000Z</time>
      </trkpt>
      <trkpt lat="42.944583" lon="-5.714514">
        <ele>1220.28</ele>
        <time>2020-07-21T08:56:56.000Z</time>
      </trkpt>
      <trkpt lat="42.9445728" lon="-5.7145297">
        <ele>1220.74</ele>
        <time>2020-07-21T08:56:57.000Z</time>
      </trkpt>
      <trkpt lat="42.9445627" lon="-5.7145445">
        <ele>1220.74</ele>
        <time>2020-07-21T08:56:58.000Z</time>
      </trkpt>
      <trkpt lat="42.9445525" lon="-5.7145577">
        <ele>1221.04</ele>
        <time>2020-07-21T08:56:59.000Z</time>
      </trkpt>
      <trkpt lat="42.9445433" lon="-5.7145695">
        <ele>1221.04</ele>
        <time>2020-07-21T08:57:00.000Z</time>
      </trkpt>
      <trkpt lat="42.9445348" lon="-5.7145807">
        <ele>1221.5</ele>
        <time>2020-07-21T08:57:01.000Z</time>
      </trkpt>
      <trkpt lat="42.944526" lon="-5.714592">
        <ele>1221.5</ele>
        <time>2020-07-21T08:57:02.000Z</time>
      </trkpt>
      <trkpt lat="42.9445167" lon="-5.7146045">
        <ele>1221.81</ele>
        <time>2020-07-21T08:57:03.000Z</time>
      </trkpt>
      <trkpt lat="42.9445053" lon="-5.7146205">
        <ele>1221.81</ele>
        <time>2020-07-21T08:57:04.000Z</time>
      </trkpt>
      <trkpt lat="42.9444925" lon="-5.7146382">
        <ele>1222.26</ele>
        <time>2020-07-21T08:57:05.000Z</time>
      </trkpt>
      <trkpt lat="42.9444793" lon="-5.7146562">
        <ele>1222.26</ele>
        <time>2020-07-21T08:57:06.000Z</time>
      </trkpt>
      <trkpt lat="42.9444675" lon="-5.7146703">
        <ele>1222.57</ele>
        <time>2020-07-21T08:57:07.000Z</time>
      </trkpt>
      <trkpt lat="42.9444555" lon="-5.7146827">
        <ele>1222.57</ele>
        <time>2020-07-21T08:57:08.000Z</time>
      </trkpt>
      <trkpt lat="42.9444438" lon="-5.714694">
        <ele>1223.03</ele>
        <time>2020-07-21T08:57:09.000Z</time>
      </trkpt>
      <trkpt lat="42.9444323" lon="-5.7147083">
        <ele>1223.03</ele>
        <time>2020-07-21T08:57:10.000Z</time>
      </trkpt>
      <trkpt lat="42.9444208" lon="-5.714723">
        <ele>1223.33</ele>
        <time>2020-07-21T08:57:11.000Z</time>
      </trkpt>
      <trkpt lat="42.9444093" lon="-5.7147383">
        <ele>1223.33</ele>
        <time>2020-07-21T08:57:12.000Z</time>
      </trkpt>
      <trkpt lat="42.9443972" lon="-5.7147528">
        <ele>1223.79</ele>
        <time>2020-07-21T08:57:13.000Z</time>
      </trkpt>
      <trkpt lat="42.9443855" lon="-5.7147678">
        <ele>1223.79</ele>
        <time>2020-07-21T08:57:14.000Z</time>
      </trkpt>
      <trkpt lat="42.9443747" lon="-5.7147832">
        <ele>1224.09</ele>
        <time>2020-07-21T08:57:15.000Z</time>
      </trkpt>
      <trkpt lat="42.9443645" lon="-5.7147968">
        <ele>1224.09</ele>
        <time>2020-07-21T08:57:16.000Z</time>
      </trkpt>
      <trkpt lat="42.944356" lon="-5.71481">
        <ele>1224.4</ele>
        <time>2020-07-21T08:57:17.000Z</time>
      </trkpt>
      <trkpt lat="42.9443478" lon="-5.7148242">
        <ele>1224.4</ele>
        <time>2020-07-21T08:57:18.000Z</time>
      </trkpt>
      <trkpt lat="42.9443402" lon="-5.71484">
        <ele>1224.85</ele>
        <time>2020-07-21T08:57:19.000Z</time>
      </trkpt>
      <trkpt lat="42.9443328" lon="-5.7148572">
        <ele>1224.85</ele>
        <time>2020-07-21T08:57:20.000Z</time>
      </trkpt>
      <trkpt lat="42.9443243" lon="-5.7148727">
        <ele>1225.16</ele>
        <time>2020-07-21T08:57:21.000Z</time>
      </trkpt>
      <trkpt lat="42.9443153" lon="-5.714888">
        <ele>1225.16</ele>
        <time>2020-07-21T08:57:22.000Z</time>
      </trkpt>
      <trkpt lat="42.9443067" lon="-5.7149023">
        <ele>1225.46</ele>
        <time>2020-07-21T08:57:23.000Z</time>
      </trkpt>
      <trkpt lat="42.9443" lon="-5.714917">
        <ele>1225.46</ele>
        <time>2020-07-21T08:57:24.000Z</time>
      </trkpt>
      <trkpt lat="42.944295" lon="-5.7149317">
        <ele>1225.92</ele>
        <time>2020-07-21T08:57:25.000Z</time>
      </trkpt>
      <trkpt lat="42.944291" lon="-5.714946">
        <ele>1225.92</ele>
        <time>2020-07-21T08:57:26.000Z</time>
      </trkpt>
      <trkpt lat="42.9442873" lon="-5.7149608">
        <ele>1226.22</ele>
        <time>2020-07-21T08:57:27.000Z</time>
      </trkpt>
      <trkpt lat="42.9442833" lon="-5.7149755">
        <ele>1226.22</ele>
        <time>2020-07-21T08:57:28.000Z</time>
      </trkpt>
      <trkpt lat="42.9442795" lon="-5.7149897">
        <ele>1226.53</ele>
        <time>2020-07-21T08:57:29.000Z</time>
      </trkpt>
      <trkpt lat="42.944276" lon="-5.7150035">
        <ele>1226.53</ele>
        <time>2020-07-21T08:57:30.000Z</time>
      </trkpt>
      <trkpt lat="42.9442723" lon="-5.7150177">
        <ele>1226.99</ele>
        <time>2020-07-21T08:57:31.000Z</time>
      </trkpt>
      <trkpt lat="42.9442682" lon="-5.7150327">
        <ele>1226.99</ele>
        <time>2020-07-21T08:57:32.000Z</time>
      </trkpt>
      <trkpt lat="42.9442637" lon="-5.7150472">
        <ele>1227.29</ele>
        <time>2020-07-21T08:57:33.000Z</time>
      </trkpt>
      <trkpt lat="42.9442583" lon="-5.7150615">
        <ele>1227.29</ele>
        <time>2020-07-21T08:57:34.000Z</time>
      </trkpt>
      <trkpt lat="42.9442532" lon="-5.7150767">
        <ele>1227.6</ele>
        <time>2020-07-21T08:57:35.000Z</time>
      </trkpt>
      <trkpt lat="42.9442472" lon="-5.7150927">
        <ele>1227.6</ele>
        <time>2020-07-21T08:57:36.000Z</time>
      </trkpt>
      <trkpt lat="42.9442417" lon="-5.7151087">
        <ele>1227.9</ele>
        <time>2020-07-21T08:57:37.000Z</time>
      </trkpt>
      <trkpt lat="42.9442353" lon="-5.7151237">
        <ele>1227.9</ele>
        <time>2020-07-21T08:57:38.000Z</time>
      </trkpt>
      <trkpt lat="42.94423" lon="-5.7151397">
        <ele>1228.36</ele>
        <time>2020-07-21T08:57:39.000Z</time>
      </trkpt>
      <trkpt lat="42.944225" lon="-5.7151562">
        <ele>1228.36</ele>
        <time>2020-07-21T08:57:40.000Z</time>
      </trkpt>
      <trkpt lat="42.9442213" lon="-5.7151735">
        <ele>1228.66</ele>
        <time>2020-07-21T08:57:41.000Z</time>
      </trkpt>
      <trkpt lat="42.9442182" lon="-5.7151888">
        <ele>1228.66</ele>
        <time>2020-07-21T08:57:42.000Z</time>
      </trkpt>
      <trkpt lat="42.9442152" lon="-5.7152045">
        <ele>1228.97</ele>
        <time>2020-07-21T08:57:43.000Z</time>
      </trkpt>
      <trkpt lat="42.9442105" lon="-5.7152203">
        <ele>1228.97</ele>
        <time>2020-07-21T08:57:44.000Z</time>
      </trkpt>
      <trkpt lat="42.9442053" lon="-5.7152377">
        <ele>1229.27</ele>
        <time>2020-07-21T08:57:45.000Z</time>
      </trkpt>
      <trkpt lat="42.9441998" lon="-5.715255">
        <ele>1229.27</ele>
        <time>2020-07-21T08:57:46.000Z</time>
      </trkpt>
      <trkpt lat="42.944195" lon="-5.7152727">
        <ele>1229.73</ele>
        <time>2020-07-21T08:57:47.000Z</time>
      </trkpt>
      <trkpt lat="42.9441893" lon="-5.71529">
        <ele>1229.73</ele>
        <time>2020-07-21T08:57:48.000Z</time>
      </trkpt>
      <trkpt lat="42.944183" lon="-5.7153067">
        <ele>1230.04</ele>
        <time>2020-07-21T08:57:49.000Z</time>
      </trkpt>
      <trkpt lat="42.944176" lon="-5.7153232">
        <ele>1230.04</ele>
        <time>2020-07-21T08:57:50.000Z</time>
      </trkpt>
      <trkpt lat="42.9441698" lon="-5.715339">
        <ele>1230.34</ele>
        <time>2020-07-21T08:57:51.000Z</time>
      </trkpt>
      <trkpt lat="42.9441643" lon="-5.7153548">
        <ele>1230.34</ele>
        <time>2020-07-21T08:57:52.000Z</time>
      </trkpt>
      <trkpt lat="42.9441585" lon="-5.7153703">
        <ele>1230.65</ele>
        <time>2020-07-21T08:57:53.000Z</time>
      </trkpt>
      <trkpt lat="42.9441525" lon="-5.7153862">
        <ele>1230.65</ele>
        <time>2020-07-21T08:57:54.000Z</time>
      </trkpt>
      <trkpt lat="42.9441465" lon="-5.715402">
        <ele>1230.95</ele>
        <time>2020-07-21T08:57:55.000Z</time>
      </trkpt>
      <trkpt lat="42.9441412" lon="-5.715418">
        <ele>1230.95</ele>
        <time>2020-07-21T08:57:56.000Z</time>
      </trkpt>
      <trkpt lat="42.9441357" lon="-5.7154325">
        <ele>1231.26</ele>
        <time>2020-07-21T08:57:57.000Z</time>
      </trkpt>
      <trkpt lat="42.9441303" lon="-5.7154468">
        <ele>1231.26</ele>
        <time>2020-07-21T08:57:58.000Z</time>
      </trkpt>
      <trkpt lat="42.9441253" lon="-5.7154612">
        <ele>1231.56</ele>
        <time>2020-07-21T08:57:59.000Z</time>
      </trkpt>
      <trkpt lat="42.9441212" lon="-5.7154757">
        <ele>1231.56</ele>
        <time>2020-07-21T08:58:00.000Z</time>
      </trkpt>
      <trkpt lat="42.9441167" lon="-5.7154895">
        <ele>1231.86</ele>
        <time>2020-07-21T08:58:01.000Z</time>
      </trkpt>
      <trkpt lat="42.9441122" lon="-5.7155028">
        <ele>1231.86</ele>
        <time>2020-07-21T08:58:02.000Z</time>
      </trkpt>
      <trkpt lat="42.9441068" lon="-5.7155168">
        <ele>1232.17</ele>
        <time>2020-07-21T08:58:03.000Z</time>
      </trkpt>
      <trkpt lat="42.944101" lon="-5.7155317">
        <ele>1232.17</ele>
        <time>2020-07-21T08:58:04.000Z</time>
      </trkpt>
      <trkpt lat="42.9440953" lon="-5.7155468">
        <ele>1232.47</ele>
        <time>2020-07-21T08:58:05.000Z</time>
      </trkpt>
      <trkpt lat="42.94409" lon="-5.715562">
        <ele>1232.47</ele>
        <time>2020-07-21T08:58:06.000Z</time>
      </trkpt>
      <trkpt lat="42.944085" lon="-5.715576">
        <ele>1232.78</ele>
        <time>2020-07-21T08:58:07.000Z</time>
      </trkpt>
      <trkpt lat="42.9440793" lon="-5.7155903">
        <ele>1232.78</ele>
        <time>2020-07-21T08:58:08.000Z</time>
      </trkpt>
      <trkpt lat="42.9440737" lon="-5.7156037">
        <ele>1233.08</ele>
        <time>2020-07-21T08:58:09.000Z</time>
      </trkpt>
      <trkpt lat="42.9440678" lon="-5.7156173">
        <ele>1233.08</ele>
        <time>2020-07-21T08:58:10.000Z</time>
      </trkpt>
      <trkpt lat="42.9440623" lon="-5.7156313">
        <ele>1233.24</ele>
        <time>2020-07-21T08:58:11.000Z</time>
      </trkpt>
      <trkpt lat="42.944057" lon="-5.7156458">
        <ele>1233.24</ele>
        <time>2020-07-21T08:58:12.000Z</time>
      </trkpt>
      <trkpt lat="42.9440513" lon="-5.7156608">
        <ele>1233.54</ele>
        <time>2020-07-21T08:58:13.000Z</time>
      </trkpt>
      <trkpt lat="42.9440457" lon="-5.715675">
        <ele>1233.54</ele>
        <time>2020-07-21T08:58:14.000Z</time>
      </trkpt>
      <trkpt lat="42.9440398" lon="-5.7156888">
        <ele>1233.84</ele>
        <time>2020-07-21T08:58:15.000Z</time>
      </trkpt>
      <trkpt lat="42.9440345" lon="-5.7157032">
        <ele>1233.84</ele>
        <time>2020-07-21T08:58:16.000Z</time>
      </trkpt>
      <trkpt lat="42.944029" lon="-5.7157177">
        <ele>1234.15</ele>
        <time>2020-07-21T08:58:17.000Z</time>
      </trkpt>
      <trkpt lat="42.9440233" lon="-5.7157325">
        <ele>1234.15</ele>
        <time>2020-07-21T08:58:18.000Z</time>
      </trkpt>
      <trkpt lat="42.9440175" lon="-5.7157465">
        <ele>1234.3</ele>
        <time>2020-07-21T08:58:19.000Z</time>
      </trkpt>
      <trkpt lat="42.9440118" lon="-5.7157605">
        <ele>1234.3</ele>
        <time>2020-07-21T08:58:20.000Z</time>
      </trkpt>
      <trkpt lat="42.9440062" lon="-5.7157748">
        <ele>1234.61</ele>
        <time>2020-07-21T08:58:21.000Z</time>
      </trkpt>
      <trkpt lat="42.9440007" lon="-5.715789">
        <ele>1234.61</ele>
        <time>2020-07-21T08:58:22.000Z</time>
      </trkpt>
      <trkpt lat="42.9439947" lon="-5.7158027">
        <ele>1234.76</ele>
        <time>2020-07-21T08:58:23.000Z</time>
      </trkpt>
      <trkpt lat="42.9439885" lon="-5.7158162">
        <ele>1234.76</ele>
        <time>2020-07-21T08:58:24.000Z</time>
      </trkpt>
      <trkpt lat="42.9439822" lon="-5.71583">
        <ele>1235.06</ele>
        <time>2020-07-21T08:58:25.000Z</time>
      </trkpt>
      <trkpt lat="42.9439755" lon="-5.7158438">
        <ele>1235.06</ele>
        <time>2020-07-21T08:58:26.000Z</time>
      </trkpt>
      <trkpt lat="42.9439688" lon="-5.7158565">
        <ele>1235.22</ele>
        <time>2020-07-21T08:58:27.000Z</time>
      </trkpt>
      <trkpt lat="42.9439622" lon="-5.7158683">
        <ele>1235.22</ele>
        <time>2020-07-21T08:58:28.000Z</time>
      </trkpt>
      <trkpt lat="42.943956" lon="-5.7158795">
        <ele>1235.52</ele>
        <time>2020-07-21T08:58:29.000Z</time>
      </trkpt>
      <trkpt lat="42.9439497" lon="-5.715891">
        <ele>1235.52</ele>
        <time>2020-07-21T08:58:30.000Z</time>
      </trkpt>
      <trkpt lat="42.9439428" lon="-5.7159025">
        <ele>1235.67</ele>
        <time>2020-07-21T08:58:31.000Z</time>
      </trkpt>
      <trkpt lat="42.9439348" lon="-5.7159132">
        <ele>1235.67</ele>
        <time>2020-07-21T08:58:32.000Z</time>
      </trkpt>
      <trkpt lat="42.943926" lon="-5.7159238">
        <ele>1235.98</ele>
        <time>2020-07-21T08:58:33.000Z</time>
      </trkpt>
      <trkpt lat="42.9439165" lon="-5.7159362">
        <ele>1235.98</ele>
        <time>2020-07-21T08:58:34.000Z</time>
      </trkpt>
      <trkpt lat="42.9439072" lon="-5.7159512">
        <ele>1236.28</ele>
        <time>2020-07-21T08:58:35.000Z</time>
      </trkpt>
      <trkpt lat="42.9438975" lon="-5.715967">
        <ele>1236.28</ele>
        <time>2020-07-21T08:58:36.000Z</time>
      </trkpt>
      <trkpt lat="42.9438878" lon="-5.7159797">
        <ele>1236.44</ele>
        <time>2020-07-21T08:58:37.000Z</time>
      </trkpt>
      <trkpt lat="42.943878" lon="-5.7159898">
        <ele>1236.44</ele>
        <time>2020-07-21T08:58:38.000Z</time>
      </trkpt>
      <trkpt lat="42.9438687" lon="-5.715998">
        <ele>1236.74</ele>
        <time>2020-07-21T08:58:39.000Z</time>
      </trkpt>
      <trkpt lat="42.9438588" lon="-5.7160068">
        <ele>1236.74</ele>
        <time>2020-07-21T08:58:40.000Z</time>
      </trkpt>
      <trkpt lat="42.9438492" lon="-5.7160153">
        <ele>1237.05</ele>
        <time>2020-07-21T08:58:41.000Z</time>
      </trkpt>
      <trkpt lat="42.9438392" lon="-5.7160237">
        <ele>1237.05</ele>
        <time>2020-07-21T08:58:42.000Z</time>
      </trkpt>
      <trkpt lat="42.9438293" lon="-5.7160322">
        <ele>1237.35</ele>
        <time>2020-07-21T08:58:43.000Z</time>
      </trkpt>
      <trkpt lat="42.9438197" lon="-5.7160412">
        <ele>1237.35</ele>
        <time>2020-07-21T08:58:44.000Z</time>
      </trkpt>
      <trkpt lat="42.9438098" lon="-5.7160507">
        <ele>1237.66</ele>
        <time>2020-07-21T08:58:45.000Z</time>
      </trkpt>
      <trkpt lat="42.9437997" lon="-5.7160598">
        <ele>1237.66</ele>
        <time>2020-07-21T08:58:46.000Z</time>
      </trkpt>
      <trkpt lat="42.9437888" lon="-5.7160677">
        <ele>1237.96</ele>
        <time>2020-07-21T08:58:47.000Z</time>
      </trkpt>
      <trkpt lat="42.943778" lon="-5.7160748">
        <ele>1237.96</ele>
        <time>2020-07-21T08:58:48.000Z</time>
      </trkpt>
      <trkpt lat="42.9437678" lon="-5.7160825">
        <ele>1238.11</ele>
        <time>2020-07-21T08:58:49.000Z</time>
      </trkpt>
      <trkpt lat="42.9437575" lon="-5.7160908">
        <ele>1238.11</ele>
        <time>2020-07-21T08:58:50.000Z</time>
      </trkpt>
      <trkpt lat="42.9437475" lon="-5.7160992">
        <ele>1238.42</ele>
        <time>2020-07-21T08:58:51.000Z</time>
      </trkpt>
      <trkpt lat="42.943737" lon="-5.7161067">
        <ele>1238.42</ele>
        <time>2020-07-21T08:58:52.000Z</time>
      </trkpt>
      <trkpt lat="42.9437265" lon="-5.716114">
        <ele>1238.72</ele>
        <time>2020-07-21T08:58:53.000Z</time>
      </trkpt>
      <trkpt lat="42.943716" lon="-5.7161218">
        <ele>1238.72</ele>
        <time>2020-07-21T08:58:54.000Z</time>
      </trkpt>
      <trkpt lat="42.9437048" lon="-5.7161298">
        <ele>1239.03</ele>
        <time>2020-07-21T08:58:55.000Z</time>
      </trkpt>
      <trkpt lat="42.9436942" lon="-5.7161373">
        <ele>1239.03</ele>
        <time>2020-07-21T08:58:56.000Z</time>
      </trkpt>
      <trkpt lat="42.9436833" lon="-5.7161432">
        <ele>1239.33</ele>
        <time>2020-07-21T08:58:57.000Z</time>
      </trkpt>
      <trkpt lat="42.9436728" lon="-5.7161483">
        <ele>1239.33</ele>
        <time>2020-07-21T08:58:58.000Z</time>
      </trkpt>
      <trkpt lat="42.9436623" lon="-5.7161528">
        <ele>1239.64</ele>
        <time>2020-07-21T08:58:59.000Z</time>
      </trkpt>
      <trkpt lat="42.943652" lon="-5.7161578">
        <ele>1239.64</ele>
        <time>2020-07-21T08:59:00.000Z</time>
      </trkpt>
      <trkpt lat="42.943642" lon="-5.716163">
        <ele>1239.79</ele>
        <time>2020-07-21T08:59:01.000Z</time>
      </trkpt>
      <trkpt lat="42.9436315" lon="-5.7161682">
        <ele>1239.79</ele>
        <time>2020-07-21T08:59:02.000Z</time>
      </trkpt>
      <trkpt lat="42.9436208" lon="-5.716174">
        <ele>1240.09</ele>
        <time>2020-07-21T08:59:03.000Z</time>
      </trkpt>
      <trkpt lat="42.94361" lon="-5.7161797">
        <ele>1240.09</ele>
        <time>2020-07-21T08:59:04.000Z</time>
      </trkpt>
      <trkpt lat="42.9435987" lon="-5.7161857">
        <ele>1240.4</ele>
        <time>2020-07-21T08:59:05.000Z</time>
      </trkpt>
      <trkpt lat="42.9435877" lon="-5.7161907">
        <ele>1240.4</ele>
        <time>2020-07-21T08:59:06.000Z</time>
      </trkpt>
      <trkpt lat="42.9435767" lon="-5.7161952">
        <ele>1240.7</ele>
        <time>2020-07-21T08:59:07.000Z</time>
      </trkpt>
      <trkpt lat="42.9435655" lon="-5.7161988">
        <ele>1240.7</ele>
        <time>2020-07-21T08:59:08.000Z</time>
      </trkpt>
      <trkpt lat="42.9435542" lon="-5.7162033">
        <ele>1241.01</ele>
        <time>2020-07-21T08:59:09.000Z</time>
      </trkpt>
      <trkpt lat="42.943542" lon="-5.7162075">
        <ele>1241.01</ele>
        <time>2020-07-21T08:59:10.000Z</time>
      </trkpt>
      <trkpt lat="42.9435295" lon="-5.7162118">
        <ele>1241.16</ele>
        <time>2020-07-21T08:59:11.000Z</time>
      </trkpt>
      <trkpt lat="42.9435173" lon="-5.7162153">
        <ele>1241.16</ele>
        <time>2020-07-21T08:59:12.000Z</time>
      </trkpt>
      <trkpt lat="42.9435053" lon="-5.7162187">
        <ele>1241.46</ele>
        <time>2020-07-21T08:59:13.000Z</time>
      </trkpt>
      <trkpt lat="42.943494" lon="-5.716223">
        <ele>1241.46</ele>
        <time>2020-07-21T08:59:14.000Z</time>
      </trkpt>
      <trkpt lat="42.9434825" lon="-5.7162278">
        <ele>1241.62</ele>
        <time>2020-07-21T08:59:15.000Z</time>
      </trkpt>
      <trkpt lat="42.9434708" lon="-5.7162328">
        <ele>1241.62</ele>
        <time>2020-07-21T08:59:16.000Z</time>
      </trkpt>
      <trkpt lat="42.9434582" lon="-5.7162372">
        <ele>1241.92</ele>
        <time>2020-07-21T08:59:17.000Z</time>
      </trkpt>
      <trkpt lat="42.9434455" lon="-5.7162407">
        <ele>1241.92</ele>
        <time>2020-07-21T08:59:18.000Z</time>
      </trkpt>
      <trkpt lat="42.9434325" lon="-5.7162438">
        <ele>1242.23</ele>
        <time>2020-07-21T08:59:19.000Z</time>
      </trkpt>
      <trkpt lat="42.9434197" lon="-5.7162463">
        <ele>1242.23</ele>
        <time>2020-07-21T08:59:20.000Z</time>
      </trkpt>
      <trkpt lat="42.9434067" lon="-5.7162488">
        <ele>1242.38</ele>
        <time>2020-07-21T08:59:21.000Z</time>
      </trkpt>
      <trkpt lat="42.943394" lon="-5.7162515">
        <ele>1242.38</ele>
        <time>2020-07-21T08:59:22.000Z</time>
      </trkpt>
      <trkpt lat="42.9433817" lon="-5.7162555">
        <ele>1242.69</ele>
        <time>2020-07-21T08:59:23.000Z</time>
      </trkpt>
      <trkpt lat="42.9433693" lon="-5.7162602">
        <ele>1242.69</ele>
        <time>2020-07-21T08:59:24.000Z</time>
      </trkpt>
      <trkpt lat="42.9433568" lon="-5.7162657">
        <ele>1242.84</ele>
        <time>2020-07-21T08:59:25.000Z</time>
      </trkpt>
      <trkpt lat="42.9433443" lon="-5.7162713">
        <ele>1242.84</ele>
        <time>2020-07-21T08:59:26.000Z</time>
      </trkpt>
      <trkpt lat="42.9433323" lon="-5.7162763">
        <ele>1243.14</ele>
        <time>2020-07-21T08:59:27.000Z</time>
      </trkpt>
      <trkpt lat="42.943321" lon="-5.716281">
        <ele>1243.14</ele>
        <time>2020-07-21T08:59:28.000Z</time>
      </trkpt>
      <trkpt lat="42.9433098" lon="-5.7162865">
        <ele>1243.29</ele>
        <time>2020-07-21T08:59:29.000Z</time>
      </trkpt>
      <trkpt lat="42.9432985" lon="-5.7162942">
        <ele>1243.29</ele>
        <time>2020-07-21T08:59:30.000Z</time>
      </trkpt>
      <trkpt lat="42.9432867" lon="-5.716302">
        <ele>1243.6</ele>
        <time>2020-07-21T08:59:31.000Z</time>
      </trkpt>
      <trkpt lat="42.9432748" lon="-5.7163107">
        <ele>1243.6</ele>
        <time>2020-07-21T08:59:32.000Z</time>
      </trkpt>
      <trkpt lat="42.9432635" lon="-5.7163192">
        <ele>1243.75</ele>
        <time>2020-07-21T08:59:33.000Z</time>
      </trkpt>
      <trkpt lat="42.943253" lon="-5.7163295">
        <ele>1243.75</ele>
        <time>2020-07-21T08:59:34.000Z</time>
      </trkpt>
      <trkpt lat="42.9432428" lon="-5.7163398">
        <ele>1244.06</ele>
        <time>2020-07-21T08:59:35.000Z</time>
      </trkpt>
      <trkpt lat="42.9432328" lon="-5.7163512">
        <ele>1244.06</ele>
        <time>2020-07-21T08:59:36.000Z</time>
      </trkpt>
      <trkpt lat="42.9432225" lon="-5.7163623">
        <ele>1244.21</ele>
        <time>2020-07-21T08:59:37.000Z</time>
      </trkpt>
      <trkpt lat="42.9432122" lon="-5.7163728">
        <ele>1244.21</ele>
        <time>2020-07-21T08:59:38.000Z</time>
      </trkpt>
      <trkpt lat="42.943202" lon="-5.716382">
        <ele>1244.51</ele>
        <time>2020-07-21T08:59:39.000Z</time>
      </trkpt>
      <trkpt lat="42.9431917" lon="-5.7163908">
        <ele>1244.51</ele>
        <time>2020-07-21T08:59:40.000Z</time>
      </trkpt>
      <trkpt lat="42.9431813" lon="-5.7164002">
        <ele>1244.67</ele>
        <time>2020-07-21T08:59:41.000Z</time>
      </trkpt>
      <trkpt lat="42.9431713" lon="-5.716411">
        <ele>1244.67</ele>
        <time>2020-07-21T08:59:42.000Z</time>
      </trkpt>
      <trkpt lat="42.9431623" lon="-5.7164223">
        <ele>1244.97</ele>
        <time>2020-07-21T08:59:43.000Z</time>
      </trkpt>
      <trkpt lat="42.9431532" lon="-5.7164333">
        <ele>1244.97</ele>
        <time>2020-07-21T08:59:44.000Z</time>
      </trkpt>
      <trkpt lat="42.943144" lon="-5.716443">
        <ele>1245.12</ele>
        <time>2020-07-21T08:59:45.000Z</time>
      </trkpt>
      <trkpt lat="42.943134" lon="-5.7164517">
        <ele>1245.12</ele>
        <time>2020-07-21T08:59:46.000Z</time>
      </trkpt>
      <trkpt lat="42.9431238" lon="-5.7164602">
        <ele>1245.28</ele>
        <time>2020-07-21T08:59:47.000Z</time>
      </trkpt>
      <trkpt lat="42.9431135" lon="-5.716469">
        <ele>1245.28</ele>
        <time>2020-07-21T08:59:48.000Z</time>
      </trkpt>
      <trkpt lat="42.943103" lon="-5.7164778">
        <ele>1245.58</ele>
        <time>2020-07-21T08:59:49.000Z</time>
      </trkpt>
      <trkpt lat="42.9430927" lon="-5.7164863">
        <ele>1245.58</ele>
        <time>2020-07-21T08:59:50.000Z</time>
      </trkpt>
      <trkpt lat="42.9430822" lon="-5.716495">
        <ele>1245.73</ele>
        <time>2020-07-21T08:59:51.000Z</time>
      </trkpt>
      <trkpt lat="42.9430718" lon="-5.7165038">
        <ele>1245.73</ele>
        <time>2020-07-21T08:59:52.000Z</time>
      </trkpt>
      <trkpt lat="42.9430612" lon="-5.7165123">
        <ele>1246.04</ele>
        <time>2020-07-21T08:59:53.000Z</time>
      </trkpt>
      <trkpt lat="42.94305" lon="-5.7165207">
        <ele>1246.04</ele>
        <time>2020-07-21T08:59:54.000Z</time>
      </trkpt>
      <trkpt lat="42.9430385" lon="-5.7165293">
        <ele>1246.19</ele>
        <time>2020-07-21T08:59:55.000Z</time>
      </trkpt>
      <trkpt lat="42.943027" lon="-5.7165382">
        <ele>1246.19</ele>
        <time>2020-07-21T08:59:56.000Z</time>
      </trkpt>
      <trkpt lat="42.9430152" lon="-5.7165467">
        <ele>1246.49</ele>
        <time>2020-07-21T08:59:57.000Z</time>
      </trkpt>
      <trkpt lat="42.9430032" lon="-5.7165543">
        <ele>1246.49</ele>
        <time>2020-07-21T08:59:58.000Z</time>
      </trkpt>
      <trkpt lat="42.9429912" lon="-5.7165622">
        <ele>1246.65</ele>
        <time>2020-07-21T08:59:59.000Z</time>
      </trkpt>
      <trkpt lat="42.9429793" lon="-5.7165708">
        <ele>1246.65</ele>
        <time>2020-07-21T09:00:00.000Z</time>
      </trkpt>
      <trkpt lat="42.9429683" lon="-5.7165803">
        <ele>1246.8</ele>
        <time>2020-07-21T09:00:01.000Z</time>
      </trkpt>
      <trkpt lat="42.9429578" lon="-5.7165907">
        <ele>1246.8</ele>
        <time>2020-07-21T09:00:02.000Z</time>
      </trkpt>
      <trkpt lat="42.9429475" lon="-5.7166013">
        <ele>1247.1</ele>
        <time>2020-07-21T09:00:03.000Z</time>
      </trkpt>
      <trkpt lat="42.9429368" lon="-5.7166117">
        <ele>1247.1</ele>
        <time>2020-07-21T09:00:04.000Z</time>
      </trkpt>
      <trkpt lat="42.9429258" lon="-5.7166198">
        <ele>1247.26</ele>
        <time>2020-07-21T09:00:05.000Z</time>
      </trkpt>
      <trkpt lat="42.942914" lon="-5.7166267">
        <ele>1247.26</ele>
        <time>2020-07-21T09:00:06.000Z</time>
      </trkpt>
      <trkpt lat="42.9429015" lon="-5.7166337">
        <ele>1247.56</ele>
        <time>2020-07-21T09:00:07.000Z</time>
      </trkpt>
      <trkpt lat="42.9428892" lon="-5.7166415">
        <ele>1247.56</ele>
        <time>2020-07-21T09:00:08.000Z</time>
      </trkpt>
      <trkpt lat="42.9428777" lon="-5.7166502">
        <ele>1247.71</ele>
        <time>2020-07-21T09:00:09.000Z</time>
      </trkpt>
      <trkpt lat="42.942866" lon="-5.7166588">
        <ele>1247.71</ele>
        <time>2020-07-21T09:00:10.000Z</time>
      </trkpt>
      <trkpt lat="42.9428547" lon="-5.7166678">
        <ele>1248.02</ele>
        <time>2020-07-21T09:00:11.000Z</time>
      </trkpt>
      <trkpt lat="42.9428435" lon="-5.7166773">
        <ele>1248.02</ele>
        <time>2020-07-21T09:00:12.000Z</time>
      </trkpt>
      <trkpt lat="42.9428325" lon="-5.7166877">
        <ele>1248.17</ele>
        <time>2020-07-21T09:00:13.000Z</time>
      </trkpt>
      <trkpt lat="42.9428212" lon="-5.7166975">
        <ele>1248.17</ele>
        <time>2020-07-21T09:00:14.000Z</time>
      </trkpt>
      <trkpt lat="42.94281" lon="-5.7167067">
        <ele>1248.32</ele>
        <time>2020-07-21T09:00:15.000Z</time>
      </trkpt>
      <trkpt lat="42.9427992" lon="-5.7167155">
        <ele>1248.32</ele>
        <time>2020-07-21T09:00:16.000Z</time>
      </trkpt>
      <trkpt lat="42.9427882" lon="-5.7167248">
        <ele>1248.63</ele>
        <time>2020-07-21T09:00:17.000Z</time>
      </trkpt>
      <trkpt lat="42.942777" lon="-5.7167335">
        <ele>1248.63</ele>
        <time>2020-07-21T09:00:18.000Z</time>
      </trkpt>
      <trkpt lat="42.9427655" lon="-5.7167415">
        <ele>1248.78</ele>
        <time>2020-07-21T09:00:19.000Z</time>
      </trkpt>
      <trkpt lat="42.9427538" lon="-5.71675">
        <ele>1248.78</ele>
        <time>2020-07-21T09:00:20.000Z</time>
      </trkpt>
      <trkpt lat="42.942742" lon="-5.716759">
        <ele>1249.09</ele>
        <time>2020-07-21T09:00:21.000Z</time>
      </trkpt>
      <trkpt lat="42.9427308" lon="-5.716767">
        <ele>1249.09</ele>
        <time>2020-07-21T09:00:22.000Z</time>
      </trkpt>
      <trkpt lat="42.9427187" lon="-5.7167758">
        <ele>1249.24</ele>
        <time>2020-07-21T09:00:23.000Z</time>
      </trkpt>
      <trkpt lat="42.9427073" lon="-5.7167855">
        <ele>1249.24</ele>
        <time>2020-07-21T09:00:24.000Z</time>
      </trkpt>
      <trkpt lat="42.9426958" lon="-5.7167958">
        <ele>1249.39</ele>
        <time>2020-07-21T09:00:25.000Z</time>
      </trkpt>
      <trkpt lat="42.942685" lon="-5.716804">
        <ele>1249.39</ele>
        <time>2020-07-21T09:00:26.000Z</time>
      </trkpt>
      <trkpt lat="42.9426737" lon="-5.7168128">
        <ele>1249.69</ele>
        <time>2020-07-21T09:00:27.000Z</time>
      </trkpt>
      <trkpt lat="42.942662" lon="-5.7168222">
        <ele>1249.69</ele>
        <time>2020-07-21T09:00:28.000Z</time>
      </trkpt>
      <trkpt lat="42.9426502" lon="-5.716831">
        <ele>1249.85</ele>
        <time>2020-07-21T09:00:29.000Z</time>
      </trkpt>
      <trkpt lat="42.942638" lon="-5.7168377">
        <ele>1249.85</ele>
        <time>2020-07-21T09:00:30.000Z</time>
      </trkpt>
      <trkpt lat="42.942626" lon="-5.7168447">
        <ele>1250</ele>
        <time>2020-07-21T09:00:31.000Z</time>
      </trkpt>
      <trkpt lat="42.9426142" lon="-5.7168522">
        <ele>1250</ele>
        <time>2020-07-21T09:00:32.000Z</time>
      </trkpt>
      <trkpt lat="42.942603" lon="-5.7168602">
        <ele>1250.15</ele>
        <time>2020-07-21T09:00:33.000Z</time>
      </trkpt>
      <trkpt lat="42.9425915" lon="-5.716868">
        <ele>1250.15</ele>
        <time>2020-07-21T09:00:34.000Z</time>
      </trkpt>
      <trkpt lat="42.94258" lon="-5.716876">
        <ele>1250.31</ele>
        <time>2020-07-21T09:00:35.000Z</time>
      </trkpt>
      <trkpt lat="42.9425677" lon="-5.7168848">
        <ele>1250.31</ele>
        <time>2020-07-21T09:00:36.000Z</time>
      </trkpt>
      <trkpt lat="42.942555" lon="-5.716893">
        <ele>1250.46</ele>
        <time>2020-07-21T09:00:37.000Z</time>
      </trkpt>
      <trkpt lat="42.9425425" lon="-5.7169003">
        <ele>1250.46</ele>
        <time>2020-07-21T09:00:38.000Z</time>
      </trkpt>
      <trkpt lat="42.9425308" lon="-5.7169083">
        <ele>1250.61</ele>
        <time>2020-07-21T09:00:39.000Z</time>
      </trkpt>
      <trkpt lat="42.94252" lon="-5.7169165">
        <ele>1250.61</ele>
        <time>2020-07-21T09:00:40.000Z</time>
      </trkpt>
      <trkpt lat="42.9425128" lon="-5.7169243">
        <ele>1250.76</ele>
        <time>2020-07-21T09:00:41.000Z</time>
      </trkpt>
      <trkpt lat="42.9425083" lon="-5.7169287">
        <ele>1250.76</ele>
        <time>2020-07-21T09:00:42.000Z</time>
      </trkpt>
      <trkpt lat="42.9425067" lon="-5.7169308">
        <ele>1250.91</ele>
        <time>2020-07-21T09:00:43.000Z</time>
      </trkpt>
      <trkpt lat="42.9425048" lon="-5.7169323">
        <ele>1250.91</ele>
        <time>2020-07-21T09:00:44.000Z</time>
      </trkpt>
      <trkpt lat="42.9425038" lon="-5.716934">
        <ele>1251.07</ele>
        <time>2020-07-21T09:00:45.000Z</time>
      </trkpt>
      <trkpt lat="42.9425033" lon="-5.7169342">
        <ele>1251.07</ele>
        <time>2020-07-21T09:00:46.000Z</time>
      </trkpt>
      <trkpt lat="42.9425028" lon="-5.7169332">
        <ele>1251.22</ele>
        <time>2020-07-21T09:00:47.000Z</time>
      </trkpt>
      <trkpt lat="42.9425022" lon="-5.7169317">
        <ele>1251.22</ele>
        <time>2020-07-21T09:00:48.000Z</time>
      </trkpt>
      <trkpt lat="42.9425017" lon="-5.7169312">
        <ele>1251.37</ele>
        <time>2020-07-21T09:00:49.000Z</time>
      </trkpt>
      <trkpt lat="42.9424997" lon="-5.71693">
        <ele>1251.37</ele>
        <time>2020-07-21T09:00:50.000Z</time>
      </trkpt>
      <trkpt lat="42.9424963" lon="-5.7169302">
        <ele>1251.52</ele>
        <time>2020-07-21T09:00:51.000Z</time>
      </trkpt>
      <trkpt lat="42.942489" lon="-5.7169327">
        <ele>1251.52</ele>
        <time>2020-07-21T09:00:52.000Z</time>
      </trkpt>
      <trkpt lat="42.9424795" lon="-5.7169395">
        <ele>1251.68</ele>
        <time>2020-07-21T09:00:53.000Z</time>
      </trkpt>
      <trkpt lat="42.9424678" lon="-5.7169502">
        <ele>1251.68</ele>
        <time>2020-07-21T09:00:54.000Z</time>
      </trkpt>
      <trkpt lat="42.9424558" lon="-5.7169613">
        <ele>1251.83</ele>
        <time>2020-07-21T09:00:55.000Z</time>
      </trkpt>
      <trkpt lat="42.9424433" lon="-5.7169702">
        <ele>1251.83</ele>
        <time>2020-07-21T09:00:56.000Z</time>
      </trkpt>
      <trkpt lat="42.9424312" lon="-5.7169765">
        <ele>1251.98</ele>
        <time>2020-07-21T09:00:57.000Z</time>
      </trkpt>
      <trkpt lat="42.9424193" lon="-5.7169837">
        <ele>1251.98</ele>
        <time>2020-07-21T09:00:58.000Z</time>
      </trkpt>
      <trkpt lat="42.9424055" lon="-5.716993">
        <ele>1252.13</ele>
        <time>2020-07-21T09:00:59.000Z</time>
      </trkpt>
      <trkpt lat="42.942391" lon="-5.7170032">
        <ele>1252.13</ele>
        <time>2020-07-21T09:01:00.000Z</time>
      </trkpt>
      <trkpt lat="42.9423763" lon="-5.7170133">
        <ele>1252.29</ele>
        <time>2020-07-21T09:01:01.000Z</time>
      </trkpt>
      <trkpt lat="42.942363" lon="-5.7170232">
        <ele>1252.29</ele>
        <time>2020-07-21T09:01:02.000Z</time>
      </trkpt>
      <trkpt lat="42.9423505" lon="-5.7170335">
        <ele>1252.44</ele>
        <time>2020-07-21T09:01:03.000Z</time>
      </trkpt>
      <trkpt lat="42.942338" lon="-5.7170417">
        <ele>1252.44</ele>
        <time>2020-07-21T09:01:04.000Z</time>
      </trkpt>
      <trkpt lat="42.9423268" lon="-5.7170492">
        <ele>1252.59</ele>
        <time>2020-07-21T09:01:05.000Z</time>
      </trkpt>
      <trkpt lat="42.9423158" lon="-5.7170573">
        <ele>1252.59</ele>
        <time>2020-07-21T09:01:06.000Z</time>
      </trkpt>
      <trkpt lat="42.9423045" lon="-5.7170672">
        <ele>1252.74</ele>
        <time>2020-07-21T09:01:07.000Z</time>
      </trkpt>
      <trkpt lat="42.9422927" lon="-5.7170773">
        <ele>1252.74</ele>
        <time>2020-07-21T09:01:08.000Z</time>
      </trkpt>
      <trkpt lat="42.9422797" lon="-5.717086">
        <ele>1252.9</ele>
        <time>2020-07-21T09:01:09.000Z</time>
      </trkpt>
      <trkpt lat="42.9422663" lon="-5.7170962">
        <ele>1252.9</ele>
        <time>2020-07-21T09:01:10.000Z</time>
      </trkpt>
      <trkpt lat="42.942253" lon="-5.7171077">
        <ele>1253.05</ele>
        <time>2020-07-21T09:01:11.000Z</time>
      </trkpt>
      <trkpt lat="42.9422398" lon="-5.7171202">
        <ele>1253.05</ele>
        <time>2020-07-21T09:01:12.000Z</time>
      </trkpt>
      <trkpt lat="42.942228" lon="-5.7171297">
        <ele>1253.2</ele>
        <time>2020-07-21T09:01:13.000Z</time>
      </trkpt>
      <trkpt lat="42.9422167" lon="-5.7171385">
        <ele>1253.2</ele>
        <time>2020-07-21T09:01:14.000Z</time>
      </trkpt>
      <trkpt lat="42.9422048" lon="-5.7171457">
        <ele>1253.35</ele>
        <time>2020-07-21T09:01:15.000Z</time>
      </trkpt>
      <trkpt lat="42.9421922" lon="-5.7171535">
        <ele>1253.35</ele>
        <time>2020-07-21T09:01:16.000Z</time>
      </trkpt>
      <trkpt lat="42.9421798" lon="-5.7171605">
        <ele>1253.51</ele>
        <time>2020-07-21T09:01:17.000Z</time>
      </trkpt>
      <trkpt lat="42.942168" lon="-5.7171672">
        <ele>1253.51</ele>
        <time>2020-07-21T09:01:18.000Z</time>
      </trkpt>
      <trkpt lat="42.9421565" lon="-5.7171742">
        <ele>1253.66</ele>
        <time>2020-07-21T09:01:19.000Z</time>
      </trkpt>
      <trkpt lat="42.9421447" lon="-5.7171808">
        <ele>1253.66</ele>
        <time>2020-07-21T09:01:20.000Z</time>
      </trkpt>
      <trkpt lat="42.9421328" lon="-5.717188">
        <ele>1253.81</ele>
        <time>2020-07-21T09:01:21.000Z</time>
      </trkpt>
      <trkpt lat="42.9421212" lon="-5.7171952">
        <ele>1253.81</ele>
        <time>2020-07-21T09:01:22.000Z</time>
      </trkpt>
      <trkpt lat="42.9421098" lon="-5.717203">
        <ele>1253.96</ele>
        <time>2020-07-21T09:01:23.000Z</time>
      </trkpt>
      <trkpt lat="42.9420987" lon="-5.7172112">
        <ele>1253.96</ele>
        <time>2020-07-21T09:01:24.000Z</time>
      </trkpt>
      <trkpt lat="42.942087" lon="-5.7172185">
        <ele>1254.11</ele>
        <time>2020-07-21T09:01:25.000Z</time>
      </trkpt>
      <trkpt lat="42.9420752" lon="-5.717226">
        <ele>1254.11</ele>
        <time>2020-07-21T09:01:26.000Z</time>
      </trkpt>
      <trkpt lat="42.9420642" lon="-5.7172335">
        <ele>1254.11</ele>
        <time>2020-07-21T09:01:27.000Z</time>
      </trkpt>
      <trkpt lat="42.942053" lon="-5.7172423">
        <ele>1254.11</ele>
        <time>2020-07-21T09:01:28.000Z</time>
      </trkpt>
      <trkpt lat="42.9420415" lon="-5.717251">
        <ele>1254.27</ele>
        <time>2020-07-21T09:01:29.000Z</time>
      </trkpt>
      <trkpt lat="42.9420298" lon="-5.7172592">
        <ele>1254.27</ele>
        <time>2020-07-21T09:01:30.000Z</time>
      </trkpt>
      <trkpt lat="42.9420178" lon="-5.7172667">
        <ele>1254.42</ele>
        <time>2020-07-21T09:01:31.000Z</time>
      </trkpt>
      <trkpt lat="42.9420058" lon="-5.7172753">
        <ele>1254.42</ele>
        <time>2020-07-21T09:01:32.000Z</time>
      </trkpt>
      <trkpt lat="42.9419942" lon="-5.7172853">
        <ele>1254.42</ele>
        <time>2020-07-21T09:01:33.000Z</time>
      </trkpt>
      <trkpt lat="42.941983" lon="-5.717295">
        <ele>1254.42</ele>
        <time>2020-07-21T09:01:34.000Z</time>
      </trkpt>
      <trkpt lat="42.9419723" lon="-5.7173028">
        <ele>1254.57</ele>
        <time>2020-07-21T09:01:35.000Z</time>
      </trkpt>
      <trkpt lat="42.9419612" lon="-5.7173097">
        <ele>1254.57</ele>
        <time>2020-07-21T09:01:36.000Z</time>
      </trkpt>
      <trkpt lat="42.9419497" lon="-5.7173163">
        <ele>1254.57</ele>
        <time>2020-07-21T09:01:37.000Z</time>
      </trkpt>
      <trkpt lat="42.941938" lon="-5.717324">
        <ele>1254.57</ele>
        <time>2020-07-21T09:01:38.000Z</time>
      </trkpt>
      <trkpt lat="42.9419262" lon="-5.7173317">
        <ele>1254.72</ele>
        <time>2020-07-21T09:01:39.000Z</time>
      </trkpt>
      <trkpt lat="42.9419148" lon="-5.71734">
        <ele>1254.72</ele>
        <time>2020-07-21T09:01:40.000Z</time>
      </trkpt>
      <trkpt lat="42.9419038" lon="-5.7173483">
        <ele>1254.88</ele>
        <time>2020-07-21T09:01:41.000Z</time>
      </trkpt>
      <trkpt lat="42.941893" lon="-5.7173575">
        <ele>1254.88</ele>
        <time>2020-07-21T09:01:42.000Z</time>
      </trkpt>
      <trkpt lat="42.941882" lon="-5.7173668">
        <ele>1254.88</ele>
        <time>2020-07-21T09:01:43.000Z</time>
      </trkpt>
      <trkpt lat="42.9418705" lon="-5.7173758">
        <ele>1254.88</ele>
        <time>2020-07-21T09:01:44.000Z</time>
      </trkpt>
      <trkpt lat="42.9418585" lon="-5.7173847">
        <ele>1255.03</ele>
        <time>2020-07-21T09:01:45.000Z</time>
      </trkpt>
      <trkpt lat="42.9418465" lon="-5.717393">
        <ele>1255.03</ele>
        <time>2020-07-21T09:01:46.000Z</time>
      </trkpt>
      <trkpt lat="42.9418343" lon="-5.7174007">
        <ele>1255.18</ele>
        <time>2020-07-21T09:01:47.000Z</time>
      </trkpt>
      <trkpt lat="42.9418223" lon="-5.7174077">
        <ele>1255.18</ele>
        <time>2020-07-21T09:01:48.000Z</time>
      </trkpt>
      <trkpt lat="42.94181" lon="-5.7174142">
        <ele>1255.33</ele>
        <time>2020-07-21T09:01:49.000Z</time>
      </trkpt>
      <trkpt lat="42.9417978" lon="-5.7174217">
        <ele>1255.33</ele>
        <time>2020-07-21T09:01:50.000Z</time>
      </trkpt>
      <trkpt lat="42.9417858" lon="-5.7174288">
        <ele>1255.33</ele>
        <time>2020-07-21T09:01:51.000Z</time>
      </trkpt>
      <trkpt lat="42.9417737" lon="-5.7174358">
        <ele>1255.33</ele>
        <time>2020-07-21T09:01:52.000Z</time>
      </trkpt>
      <trkpt lat="42.9417617" lon="-5.717442">
        <ele>1255.49</ele>
        <time>2020-07-21T09:01:53.000Z</time>
      </trkpt>
      <trkpt lat="42.94175" lon="-5.7174477">
        <ele>1255.49</ele>
        <time>2020-07-21T09:01:54.000Z</time>
      </trkpt>
      <trkpt lat="42.9417383" lon="-5.7174537">
        <ele>1255.64</ele>
        <time>2020-07-21T09:01:55.000Z</time>
      </trkpt>
      <trkpt lat="42.9417268" lon="-5.7174593">
        <ele>1255.64</ele>
        <time>2020-07-21T09:01:56.000Z</time>
      </trkpt>
      <trkpt lat="42.9417152" lon="-5.7174658">
        <ele>1255.79</ele>
        <time>2020-07-21T09:01:57.000Z</time>
      </trkpt>
      <trkpt lat="42.941704" lon="-5.7174737">
        <ele>1255.79</ele>
        <time>2020-07-21T09:01:58.000Z</time>
      </trkpt>
      <trkpt lat="42.9416932" lon="-5.7174823">
        <ele>1255.79</ele>
        <time>2020-07-21T09:01:59.000Z</time>
      </trkpt>
      <trkpt lat="42.941683" lon="-5.7174905">
        <ele>1255.79</ele>
        <time>2020-07-21T09:02:00.000Z</time>
      </trkpt>
      <trkpt lat="42.9416725" lon="-5.7174983">
        <ele>1255.94</ele>
        <time>2020-07-21T09:02:01.000Z</time>
      </trkpt>
      <trkpt lat="42.941662" lon="-5.7175063">
        <ele>1255.94</ele>
        <time>2020-07-21T09:02:02.000Z</time>
      </trkpt>
      <trkpt lat="42.9416512" lon="-5.717515">
        <ele>1255.94</ele>
        <time>2020-07-21T09:02:03.000Z</time>
      </trkpt>
      <trkpt lat="42.9416407" lon="-5.7175233">
        <ele>1255.94</ele>
        <time>2020-07-21T09:02:04.000Z</time>
      </trkpt>
      <trkpt lat="42.94163" lon="-5.7175307">
        <ele>1256.1</ele>
        <time>2020-07-21T09:02:05.000Z</time>
      </trkpt>
      <trkpt lat="42.9416192" lon="-5.7175375">
        <ele>1256.1</ele>
        <time>2020-07-21T09:02:06.000Z</time>
      </trkpt>
      <trkpt lat="42.9416085" lon="-5.7175442">
        <ele>1256.1</ele>
        <time>2020-07-21T09:02:07.000Z</time>
      </trkpt>
      <trkpt lat="42.9415977" lon="-5.7175512">
        <ele>1256.1</ele>
        <time>2020-07-21T09:02:08.000Z</time>
      </trkpt>
      <trkpt lat="42.9415872" lon="-5.7175585">
        <ele>1256.25</ele>
        <time>2020-07-21T09:02:09.000Z</time>
      </trkpt>
      <trkpt lat="42.9415763" lon="-5.7175658">
        <ele>1256.25</ele>
        <time>2020-07-21T09:02:10.000Z</time>
      </trkpt>
      <trkpt lat="42.941566" lon="-5.7175737">
        <ele>1256.25</ele>
        <time>2020-07-21T09:02:11.000Z</time>
      </trkpt>
      <trkpt lat="42.9415558" lon="-5.7175827">
        <ele>1256.25</ele>
        <time>2020-07-21T09:02:12.000Z</time>
      </trkpt>
      <trkpt lat="42.9415465" lon="-5.717592">
        <ele>1256.4</ele>
        <time>2020-07-21T09:02:13.000Z</time>
      </trkpt>
      <trkpt lat="42.9415375" lon="-5.7176023">
        <ele>1256.4</ele>
        <time>2020-07-21T09:02:14.000Z</time>
      </trkpt>
      <trkpt lat="42.941529" lon="-5.7176133">
        <ele>1256.4</ele>
        <time>2020-07-21T09:02:15.000Z</time>
      </trkpt>
      <trkpt lat="42.9415207" lon="-5.7176253">
        <ele>1256.4</ele>
        <time>2020-07-21T09:02:16.000Z</time>
      </trkpt>
      <trkpt lat="42.9415132" lon="-5.7176368">
        <ele>1256.4</ele>
        <time>2020-07-21T09:02:17.000Z</time>
      </trkpt>
      <trkpt lat="42.9415067" lon="-5.7176472">
        <ele>1256.4</ele>
        <time>2020-07-21T09:02:18.000Z</time>
      </trkpt>
      <trkpt lat="42.9415013" lon="-5.7176562">
        <ele>1256.55</ele>
        <time>2020-07-21T09:02:19.000Z</time>
      </trkpt>
      <trkpt lat="42.9414987" lon="-5.7176643">
        <ele>1256.55</ele>
        <time>2020-07-21T09:02:20.000Z</time>
      </trkpt>
      <trkpt lat="42.9414983" lon="-5.7176717">
        <ele>1256.55</ele>
        <time>2020-07-21T09:02:21.000Z</time>
      </trkpt>
      <trkpt lat="42.9414992" lon="-5.7176792">
        <ele>1256.55</ele>
        <time>2020-07-21T09:02:22.000Z</time>
      </trkpt>
      <trkpt lat="42.9414995" lon="-5.717688">
        <ele>1256.55</ele>
        <time>2020-07-21T09:02:23.000Z</time>
      </trkpt>
      <trkpt lat="42.9415012" lon="-5.717699">
        <ele>1256.55</ele>
        <time>2020-07-21T09:02:24.000Z</time>
      </trkpt>
      <trkpt lat="42.9415062" lon="-5.7177112">
        <ele>1256.71</ele>
        <time>2020-07-21T09:02:25.000Z</time>
      </trkpt>
      <trkpt lat="42.9415132" lon="-5.7177233">
        <ele>1256.71</ele>
        <time>2020-07-21T09:02:26.000Z</time>
      </trkpt>
      <trkpt lat="42.94152" lon="-5.7177353">
        <ele>1256.71</ele>
        <time>2020-07-21T09:02:27.000Z</time>
      </trkpt>
      <trkpt lat="42.9415245" lon="-5.7177475">
        <ele>1256.71</ele>
        <time>2020-07-21T09:02:28.000Z</time>
      </trkpt>
      <trkpt lat="42.941528" lon="-5.7177588">
        <ele>1256.71</ele>
        <time>2020-07-21T09:02:29.000Z</time>
      </trkpt>
      <trkpt lat="42.9415297" lon="-5.7177698">
        <ele>1256.71</ele>
        <time>2020-07-21T09:02:30.000Z</time>
      </trkpt>
      <trkpt lat="42.9415307" lon="-5.7177778">
        <ele>1256.71</ele>
        <time>2020-07-21T09:02:31.000Z</time>
      </trkpt>
      <trkpt lat="42.9415305" lon="-5.7177827">
        <ele>1256.71</ele>
        <time>2020-07-21T09:02:32.000Z</time>
      </trkpt>
      <trkpt lat="42.94153" lon="-5.7177833">
        <ele>1256.86</ele>
        <time>2020-07-21T09:02:33.000Z</time>
      </trkpt>
      <trkpt lat="42.9415293" lon="-5.717783">
        <ele>1256.86</ele>
        <time>2020-07-21T09:02:34.000Z</time>
      </trkpt>
      <trkpt lat="42.9415285" lon="-5.7177828">
        <ele>1256.86</ele>
        <time>2020-07-21T09:02:35.000Z</time>
      </trkpt>
      <trkpt lat="42.9415282" lon="-5.717783">
        <ele>1256.86</ele>
        <time>2020-07-21T09:02:36.000Z</time>
      </trkpt>
      <trkpt lat="42.9415277" lon="-5.7177835">
        <ele>1256.86</ele>
        <time>2020-07-21T09:02:37.000Z</time>
      </trkpt>
      <trkpt lat="42.941527" lon="-5.717784">
        <ele>1256.86</ele>
        <time>2020-07-21T09:02:38.000Z</time>
      </trkpt>
      <trkpt lat="42.9415267" lon="-5.7177848">
        <ele>1256.86</ele>
        <time>2020-07-21T09:02:39.000Z</time>
      </trkpt>
      <trkpt lat="42.9415267" lon="-5.7177848">
        <ele>1256.86</ele>
        <time>2020-07-21T09:02:40.000Z</time>
      </trkpt>
      <trkpt lat="42.941527" lon="-5.7177857">
        <ele>1256.86</ele>
        <time>2020-07-21T09:02:41.000Z</time>
      </trkpt>
      <trkpt lat="42.9415275" lon="-5.7177852">
        <ele>1256.86</ele>
        <time>2020-07-21T09:02:42.000Z</time>
      </trkpt>
      <trkpt lat="42.9415272" lon="-5.7177865">
        <ele>1256.86</ele>
        <time>2020-07-21T09:02:43.000Z</time>
      </trkpt>
      <trkpt lat="42.9415267" lon="-5.7177867">
        <ele>1256.86</ele>
        <time>2020-07-21T09:02:44.000Z</time>
      </trkpt>
      <trkpt lat="42.9415263" lon="-5.7177873">
        <ele>1256.86</ele>
        <time>2020-07-21T09:02:45.000Z</time>
      </trkpt>
      <trkpt lat="42.9415267" lon="-5.7177863">
        <ele>1256.86</ele>
        <time>2020-07-21T09:02:46.000Z</time>
      </trkpt>
      <trkpt lat="42.9415268" lon="-5.7177858">
        <ele>1256.86</ele>
        <time>2020-07-21T09:02:47.000Z</time>
      </trkpt>
      <trkpt lat="42.9415268" lon="-5.7177853">
        <ele>1256.86</ele>
        <time>2020-07-21T09:02:48.000Z</time>
      </trkpt>
      <trkpt lat="42.941527" lon="-5.7177845">
        <ele>1256.86</ele>
        <time>2020-07-21T09:02:49.000Z</time>
      </trkpt>
      <trkpt lat="42.9415273" lon="-5.7177835">
        <ele>1256.86</ele>
        <time>2020-07-21T09:02:50.000Z</time>
      </trkpt>
      <trkpt lat="42.9415273" lon="-5.7177827">
        <ele>1256.86</ele>
        <time>2020-07-21T09:02:51.000Z</time>
      </trkpt>
      <trkpt lat="42.9415272" lon="-5.7177827">
        <ele>1256.86</ele>
        <time>2020-07-21T09:02:52.000Z</time>
      </trkpt>
      <trkpt lat="42.9415265" lon="-5.7177827">
        <ele>1256.86</ele>
        <time>2020-07-21T09:02:53.000Z</time>
      </trkpt>
      <trkpt lat="42.941526" lon="-5.7177828">
        <ele>1256.86</ele>
        <time>2020-07-21T09:02:54.000Z</time>
      </trkpt>
      <trkpt lat="42.9415247" lon="-5.717783">
        <ele>1257.01</ele>
        <time>2020-07-21T09:02:55.000Z</time>
      </trkpt>
      <trkpt lat="42.9415243" lon="-5.7177852">
        <ele>1257.01</ele>
        <time>2020-07-21T09:02:56.000Z</time>
      </trkpt>
      <trkpt lat="42.9415237" lon="-5.7177867">
        <ele>1257.01</ele>
        <time>2020-07-21T09:02:57.000Z</time>
      </trkpt>
      <trkpt lat="42.9415242" lon="-5.7177878">
        <ele>1257.01</ele>
        <time>2020-07-21T09:02:58.000Z</time>
      </trkpt>
      <trkpt lat="42.9415247" lon="-5.7177868">
        <ele>1257.01</ele>
        <time>2020-07-21T09:02:59.000Z</time>
      </trkpt>
      <trkpt lat="42.9415257" lon="-5.7177868">
        <ele>1257.01</ele>
        <time>2020-07-21T09:03:00.000Z</time>
      </trkpt>
      <trkpt lat="42.9415262" lon="-5.717787">
        <ele>1257.01</ele>
        <time>2020-07-21T09:03:01.000Z</time>
      </trkpt>
      <trkpt lat="42.9415267" lon="-5.7177862">
        <ele>1257.01</ele>
        <time>2020-07-21T09:03:02.000Z</time>
      </trkpt>
      <trkpt lat="42.941527" lon="-5.7177852">
        <ele>1257.01</ele>
        <time>2020-07-21T09:03:03.000Z</time>
      </trkpt>
      <trkpt lat="42.9415278" lon="-5.7177837">
        <ele>1257.01</ele>
        <time>2020-07-21T09:03:04.000Z</time>
      </trkpt>
      <trkpt lat="42.9415285" lon="-5.7177833">
        <ele>1257.01</ele>
        <time>2020-07-21T09:03:05.000Z</time>
      </trkpt>
      <trkpt lat="42.9415293" lon="-5.7177827">
        <ele>1257.01</ele>
        <time>2020-07-21T09:03:06.000Z</time>
      </trkpt>
      <trkpt lat="42.94153" lon="-5.7177823">
        <ele>1256.86</ele>
        <time>2020-07-21T09:03:07.000Z</time>
      </trkpt>
      <trkpt lat="42.9415305" lon="-5.717782">
        <ele>1256.86</ele>
        <time>2020-07-21T09:03:08.000Z</time>
      </trkpt>
      <trkpt lat="42.9415307" lon="-5.717782">
        <ele>1256.86</ele>
        <time>2020-07-21T09:03:09.000Z</time>
      </trkpt>
      <trkpt lat="42.9415308" lon="-5.717782">
        <ele>1256.86</ele>
        <time>2020-07-21T09:03:10.000Z</time>
      </trkpt>
      <trkpt lat="42.9415305" lon="-5.7177827">
        <ele>1256.86</ele>
        <time>2020-07-21T09:03:11.000Z</time>
      </trkpt>
      <trkpt lat="42.941531" lon="-5.7177823">
        <ele>1256.86</ele>
        <time>2020-07-21T09:03:12.000Z</time>
      </trkpt>
      <trkpt lat="42.9415317" lon="-5.7177813">
        <ele>1256.86</ele>
        <time>2020-07-21T09:03:13.000Z</time>
      </trkpt>
      <trkpt lat="42.9415328" lon="-5.7177808">
        <ele>1256.86</ele>
        <time>2020-07-21T09:03:14.000Z</time>
      </trkpt>
      <trkpt lat="42.9415332" lon="-5.7177807">
        <ele>1256.86</ele>
        <time>2020-07-21T09:03:15.000Z</time>
      </trkpt>
      <trkpt lat="42.9415333" lon="-5.7177822">
        <ele>1256.86</ele>
        <time>2020-07-21T09:03:16.000Z</time>
      </trkpt>
      <trkpt lat="42.9415335" lon="-5.7177835">
        <ele>1256.86</ele>
        <time>2020-07-21T09:03:17.000Z</time>
      </trkpt>
      <trkpt lat="42.9415337" lon="-5.7177853">
        <ele>1256.86</ele>
        <time>2020-07-21T09:03:18.000Z</time>
      </trkpt>
      <trkpt lat="42.9415338" lon="-5.7177867">
        <ele>1256.71</ele>
        <time>2020-07-21T09:03:19.000Z</time>
      </trkpt>
      <trkpt lat="42.941533" lon="-5.7177873">
        <ele>1256.71</ele>
        <time>2020-07-21T09:03:20.000Z</time>
      </trkpt>
      <trkpt lat="42.9415333" lon="-5.7177877">
        <ele>1256.71</ele>
        <time>2020-07-21T09:03:21.000Z</time>
      </trkpt>
      <trkpt lat="42.9415337" lon="-5.7177878">
        <ele>1256.71</ele>
        <time>2020-07-21T09:03:22.000Z</time>
      </trkpt>
      <trkpt lat="42.9415348" lon="-5.717788">
        <ele>1256.71</ele>
        <time>2020-07-21T09:03:23.000Z</time>
      </trkpt>
      <trkpt lat="42.9415352" lon="-5.7177885">
        <ele>1256.71</ele>
        <time>2020-07-21T09:03:24.000Z</time>
      </trkpt>
      <trkpt lat="42.9415353" lon="-5.717789">
        <ele>1256.55</ele>
        <time>2020-07-21T09:03:25.000Z</time>
      </trkpt>
      <trkpt lat="42.9415357" lon="-5.7177893">
        <ele>1256.55</ele>
        <time>2020-07-21T09:03:26.000Z</time>
      </trkpt>
      <trkpt lat="42.9415358" lon="-5.7177898">
        <ele>1256.55</ele>
        <time>2020-07-21T09:03:27.000Z</time>
      </trkpt>
      <trkpt lat="42.9415358" lon="-5.7177902">
        <ele>1256.55</ele>
        <time>2020-07-21T09:03:28.000Z</time>
      </trkpt>
      <trkpt lat="42.9415352" lon="-5.7177902">
        <ele>1256.55</ele>
        <time>2020-07-21T09:03:29.000Z</time>
      </trkpt>
      <trkpt lat="42.9415342" lon="-5.7177898">
        <ele>1256.55</ele>
        <time>2020-07-21T09:03:30.000Z</time>
      </trkpt>
      <trkpt lat="42.9415338" lon="-5.7177897">
        <ele>1256.55</ele>
        <time>2020-07-21T09:03:31.000Z</time>
      </trkpt>
      <trkpt lat="42.9415343" lon="-5.7177897">
        <ele>1256.55</ele>
        <time>2020-07-21T09:03:32.000Z</time>
      </trkpt>
      <trkpt lat="42.9415348" lon="-5.7177898">
        <ele>1256.4</ele>
        <time>2020-07-21T09:03:33.000Z</time>
      </trkpt>
      <trkpt lat="42.941535" lon="-5.7177892">
        <ele>1256.4</ele>
        <time>2020-07-21T09:03:34.000Z</time>
      </trkpt>
      <trkpt lat="42.941534" lon="-5.7177888">
        <ele>1256.4</ele>
        <time>2020-07-21T09:03:35.000Z</time>
      </trkpt>
      <trkpt lat="42.9415332" lon="-5.7177877">
        <ele>1256.4</ele>
        <time>2020-07-21T09:03:36.000Z</time>
      </trkpt>
      <trkpt lat="42.9415317" lon="-5.7177877">
        <ele>1256.25</ele>
        <time>2020-07-21T09:03:37.000Z</time>
      </trkpt>
      <trkpt lat="42.9415312" lon="-5.7177885">
        <ele>1256.25</ele>
        <time>2020-07-21T09:03:38.000Z</time>
      </trkpt>
      <trkpt lat="42.9415302" lon="-5.7177895">
        <ele>1256.25</ele>
        <time>2020-07-21T09:03:39.000Z</time>
      </trkpt>
      <trkpt lat="42.9415288" lon="-5.7177903">
        <ele>1256.25</ele>
        <time>2020-07-21T09:03:40.000Z</time>
      </trkpt>
      <trkpt lat="42.9415282" lon="-5.7177907">
        <ele>1256.1</ele>
        <time>2020-07-21T09:03:41.000Z</time>
      </trkpt>
      <trkpt lat="42.941528" lon="-5.7177917">
        <ele>1256.1</ele>
        <time>2020-07-21T09:03:42.000Z</time>
      </trkpt>
      <trkpt lat="42.9415282" lon="-5.7177928">
        <ele>1256.1</ele>
        <time>2020-07-21T09:03:43.000Z</time>
      </trkpt>
      <trkpt lat="42.9415278" lon="-5.7177928">
        <ele>1256.1</ele>
        <time>2020-07-21T09:03:44.000Z</time>
      </trkpt>
      <trkpt lat="42.9415237" lon="-5.7177953">
        <ele>1255.94</ele>
        <time>2020-07-21T09:03:45.000Z</time>
      </trkpt>
      <trkpt lat="42.9415237" lon="-5.7177953">
        <ele>1255.94</ele>
        <time>2020-07-21T09:03:46.000Z</time>
      </trkpt>
      <trkpt lat="42.9415227" lon="-5.717797">
        <ele>1255.94</ele>
        <time>2020-07-21T09:03:47.000Z</time>
      </trkpt>
      <trkpt lat="42.9415232" lon="-5.7177973">
        <ele>1255.94</ele>
        <time>2020-07-21T09:03:48.000Z</time>
      </trkpt>
      <trkpt lat="42.941523" lon="-5.717797">
        <ele>1255.79</ele>
        <time>2020-07-21T09:03:49.000Z</time>
      </trkpt>
      <trkpt lat="42.941522" lon="-5.7177965">
        <ele>1255.79</ele>
        <time>2020-07-21T09:03:50.000Z</time>
      </trkpt>
      <trkpt lat="42.9415217" lon="-5.7177963">
        <ele>1255.79</ele>
        <time>2020-07-21T09:03:51.000Z</time>
      </trkpt>
      <trkpt lat="42.9415215" lon="-5.7177973">
        <ele>1255.79</ele>
        <time>2020-07-21T09:03:52.000Z</time>
      </trkpt>
      <trkpt lat="42.9415213" lon="-5.7177967">
        <ele>1255.64</ele>
        <time>2020-07-21T09:03:53.000Z</time>
      </trkpt>
      <trkpt lat="42.9415203" lon="-5.7177948">
        <ele>1255.64</ele>
        <time>2020-07-21T09:03:54.000Z</time>
      </trkpt>
      <trkpt lat="42.9415192" lon="-5.7177918">
        <ele>1255.64</ele>
        <time>2020-07-21T09:03:55.000Z</time>
      </trkpt>
      <trkpt lat="42.9415183" lon="-5.7177907">
        <ele>1255.64</ele>
        <time>2020-07-21T09:03:56.000Z</time>
      </trkpt>
      <trkpt lat="42.9415178" lon="-5.7177907">
        <ele>1255.49</ele>
        <time>2020-07-21T09:03:57.000Z</time>
      </trkpt>
      <trkpt lat="42.9415175" lon="-5.7177907">
        <ele>1255.49</ele>
        <time>2020-07-21T09:03:58.000Z</time>
      </trkpt>
      <trkpt lat="42.9415173" lon="-5.7177915">
        <ele>1255.49</ele>
        <time>2020-07-21T09:03:59.000Z</time>
      </trkpt>
      <trkpt lat="42.941518" lon="-5.7177908">
        <ele>1255.49</ele>
        <time>2020-07-21T09:04:00.000Z</time>
      </trkpt>
      <trkpt lat="42.9415187" lon="-5.7177913">
        <ele>1255.33</ele>
        <time>2020-07-21T09:04:01.000Z</time>
      </trkpt>
      <trkpt lat="42.9415193" lon="-5.717791">
        <ele>1255.33</ele>
        <time>2020-07-21T09:04:02.000Z</time>
      </trkpt>
      <trkpt lat="42.9415193" lon="-5.7177917">
        <ele>1255.33</ele>
        <time>2020-07-21T09:04:03.000Z</time>
      </trkpt>
      <trkpt lat="42.941519" lon="-5.7177922">
        <ele>1255.33</ele>
        <time>2020-07-21T09:04:04.000Z</time>
      </trkpt>
      <trkpt lat="42.9415183" lon="-5.7177923">
        <ele>1255.18</ele>
        <time>2020-07-21T09:04:05.000Z</time>
      </trkpt>
      <trkpt lat="42.9415188" lon="-5.7177937">
        <ele>1255.18</ele>
        <time>2020-07-21T09:04:06.000Z</time>
      </trkpt>
      <trkpt lat="42.9415188" lon="-5.7177922">
        <ele>1255.18</ele>
        <time>2020-07-21T09:04:07.000Z</time>
      </trkpt>
      <trkpt lat="42.9415192" lon="-5.7177915">
        <ele>1255.18</ele>
        <time>2020-07-21T09:04:08.000Z</time>
      </trkpt>
      <trkpt lat="42.9415192" lon="-5.7177905">
        <ele>1255.03</ele>
        <time>2020-07-21T09:04:09.000Z</time>
      </trkpt>
      <trkpt lat="42.9415205" lon="-5.7177915">
        <ele>1255.03</ele>
        <time>2020-07-21T09:04:10.000Z</time>
      </trkpt>
      <trkpt lat="42.9415225" lon="-5.7177932">
        <ele>1254.88</ele>
        <time>2020-07-21T09:04:11.000Z</time>
      </trkpt>
      <trkpt lat="42.9415228" lon="-5.7177932">
        <ele>1254.88</ele>
        <time>2020-07-21T09:04:12.000Z</time>
      </trkpt>
      <trkpt lat="42.9415227" lon="-5.7177937">
        <ele>1254.88</ele>
        <time>2020-07-21T09:04:13.000Z</time>
      </trkpt>
      <trkpt lat="42.9415227" lon="-5.7177933">
        <ele>1254.88</ele>
        <time>2020-07-21T09:04:14.000Z</time>
      </trkpt>
      <trkpt lat="42.9415227" lon="-5.7177935">
        <ele>1254.72</ele>
        <time>2020-07-21T09:04:15.000Z</time>
      </trkpt>
      <trkpt lat="42.9415228" lon="-5.7177942">
        <ele>1254.72</ele>
        <time>2020-07-21T09:04:16.000Z</time>
      </trkpt>
      <trkpt lat="42.9415222" lon="-5.7177945">
        <ele>1254.57</ele>
        <time>2020-07-21T09:04:17.000Z</time>
      </trkpt>
      <trkpt lat="42.9415223" lon="-5.7177948">
        <ele>1254.57</ele>
        <time>2020-07-21T09:04:18.000Z</time>
      </trkpt>
      <trkpt lat="42.9415227" lon="-5.7177948">
        <ele>1254.42</ele>
        <time>2020-07-21T09:04:19.000Z</time>
      </trkpt>
      <trkpt lat="42.9415217" lon="-5.7177947">
        <ele>1254.42</ele>
        <time>2020-07-21T09:04:20.000Z</time>
      </trkpt>
      <trkpt lat="42.9415217" lon="-5.7177935">
        <ele>1254.27</ele>
        <time>2020-07-21T09:04:21.000Z</time>
      </trkpt>
      <trkpt lat="42.941521" lon="-5.7177947">
        <ele>1254.27</ele>
        <time>2020-07-21T09:04:22.000Z</time>
      </trkpt>
      <trkpt lat="42.9415223" lon="-5.717796">
        <ele>1254.11</ele>
        <time>2020-07-21T09:04:23.000Z</time>
      </trkpt>
      <trkpt lat="42.9415222" lon="-5.7177977">
        <ele>1254.11</ele>
        <time>2020-07-21T09:04:24.000Z</time>
      </trkpt>
      <trkpt lat="42.9415232" lon="-5.7177972">
        <ele>1253.96</ele>
        <time>2020-07-21T09:04:25.000Z</time>
      </trkpt>
      <trkpt lat="42.9415232" lon="-5.7177972">
        <ele>1253.96</ele>
        <time>2020-07-21T09:04:26.000Z</time>
      </trkpt>
      <trkpt lat="42.9415222" lon="-5.7177975">
        <ele>1253.81</ele>
        <time>2020-07-21T09:04:27.000Z</time>
      </trkpt>
      <trkpt lat="42.9415207" lon="-5.7177977">
        <ele>1253.81</ele>
        <time>2020-07-21T09:04:28.000Z</time>
      </trkpt>
      <trkpt lat="42.9415198" lon="-5.7177968">
        <ele>1253.66</ele>
        <time>2020-07-21T09:04:29.000Z</time>
      </trkpt>
      <trkpt lat="42.9415213" lon="-5.7177963">
        <ele>1253.66</ele>
        <time>2020-07-21T09:04:30.000Z</time>
      </trkpt>
      <trkpt lat="42.941523" lon="-5.7177957">
        <ele>1253.35</ele>
        <time>2020-07-21T09:04:31.000Z</time>
      </trkpt>
      <trkpt lat="42.941524" lon="-5.7177955">
        <ele>1253.35</ele>
        <time>2020-07-21T09:04:32.000Z</time>
      </trkpt>
      <trkpt lat="42.9415243" lon="-5.7177953">
        <ele>1253.2</ele>
        <time>2020-07-21T09:04:33.000Z</time>
      </trkpt>
      <trkpt lat="42.9415247" lon="-5.7177958">
        <ele>1253.2</ele>
        <time>2020-07-21T09:04:34.000Z</time>
      </trkpt>
      <trkpt lat="42.941525" lon="-5.7177962">
        <ele>1253.05</ele>
        <time>2020-07-21T09:04:35.000Z</time>
      </trkpt>
      <trkpt lat="42.9415248" lon="-5.7177962">
        <ele>1253.05</ele>
        <time>2020-07-21T09:04:36.000Z</time>
      </trkpt>
      <trkpt lat="42.9415245" lon="-5.7177952">
        <ele>1252.74</ele>
        <time>2020-07-21T09:04:37.000Z</time>
      </trkpt>
      <trkpt lat="42.9415245" lon="-5.7177945">
        <ele>1252.74</ele>
        <time>2020-07-21T09:04:38.000Z</time>
      </trkpt>
      <trkpt lat="42.941525" lon="-5.7177942">
        <ele>1252.59</ele>
        <time>2020-07-21T09:04:39.000Z</time>
      </trkpt>
      <trkpt lat="42.941526" lon="-5.7177937">
        <ele>1252.59</ele>
        <time>2020-07-21T09:04:40.000Z</time>
      </trkpt>
      <trkpt lat="42.9415265" lon="-5.717793">
        <ele>1252.44</ele>
        <time>2020-07-21T09:04:41.000Z</time>
      </trkpt>
      <trkpt lat="42.9415265" lon="-5.7177922">
        <ele>1252.44</ele>
        <time>2020-07-21T09:04:42.000Z</time>
      </trkpt>
      <trkpt lat="42.941526" lon="-5.7177923">
        <ele>1252.13</ele>
        <time>2020-07-21T09:04:43.000Z</time>
      </trkpt>
      <trkpt lat="42.9415262" lon="-5.717792">
        <ele>1252.13</ele>
        <time>2020-07-21T09:04:44.000Z</time>
      </trkpt>
      <trkpt lat="42.9415257" lon="-5.717791">
        <ele>1251.98</ele>
        <time>2020-07-21T09:04:45.000Z</time>
      </trkpt>
      <trkpt lat="42.9415245" lon="-5.7177908">
        <ele>1251.98</ele>
        <time>2020-07-21T09:04:46.000Z</time>
      </trkpt>
      <trkpt lat="42.9415253" lon="-5.7177903">
        <ele>1251.68</ele>
        <time>2020-07-21T09:04:47.000Z</time>
      </trkpt>
      <trkpt lat="42.9415295" lon="-5.7177917">
        <ele>1251.68</ele>
        <time>2020-07-21T09:04:48.000Z</time>
      </trkpt>
      <trkpt lat="42.9415365" lon="-5.7177952">
        <ele>1251.52</ele>
        <time>2020-07-21T09:04:49.000Z</time>
      </trkpt>
      <trkpt lat="42.9415435" lon="-5.7178027">
        <ele>1251.52</ele>
        <time>2020-07-21T09:04:50.000Z</time>
      </trkpt>
      <trkpt lat="42.9415508" lon="-5.7178143">
        <ele>1251.22</ele>
        <time>2020-07-21T09:04:51.000Z</time>
      </trkpt>
      <trkpt lat="42.9415555" lon="-5.7178258">
        <ele>1251.22</ele>
        <time>2020-07-21T09:04:52.000Z</time>
      </trkpt>
      <trkpt lat="42.9415575" lon="-5.7178388">
        <ele>1251.07</ele>
        <time>2020-07-21T09:04:53.000Z</time>
      </trkpt>
      <trkpt lat="42.941558" lon="-5.7178503">
        <ele>1251.07</ele>
        <time>2020-07-21T09:04:54.000Z</time>
      </trkpt>
      <trkpt lat="42.9415603" lon="-5.7178618">
        <ele>1250.76</ele>
        <time>2020-07-21T09:04:55.000Z</time>
      </trkpt>
      <trkpt lat="42.9415647" lon="-5.7178707">
        <ele>1250.76</ele>
        <time>2020-07-21T09:04:56.000Z</time>
      </trkpt>
      <trkpt lat="42.9415703" lon="-5.717878">
        <ele>1250.61</ele>
        <time>2020-07-21T09:04:57.000Z</time>
      </trkpt>
      <trkpt lat="42.9415763" lon="-5.7178848">
        <ele>1250.61</ele>
        <time>2020-07-21T09:04:58.000Z</time>
      </trkpt>
      <trkpt lat="42.94158" lon="-5.7178917">
        <ele>1250.31</ele>
        <time>2020-07-21T09:04:59.000Z</time>
      </trkpt>
      <trkpt lat="42.9415817" lon="-5.7178962">
        <ele>1250.31</ele>
        <time>2020-07-21T09:05:00.000Z</time>
      </trkpt>
      <trkpt lat="42.9415822" lon="-5.7178997">
        <ele>1250.15</ele>
        <time>2020-07-21T09:05:01.000Z</time>
      </trkpt>
      <trkpt lat="42.9415842" lon="-5.7179037">
        <ele>1250.15</ele>
        <time>2020-07-21T09:05:02.000Z</time>
      </trkpt>
      <trkpt lat="42.9415865" lon="-5.7179103">
        <ele>1249.85</ele>
        <time>2020-07-21T09:05:03.000Z</time>
      </trkpt>
      <trkpt lat="42.941589" lon="-5.7179183">
        <ele>1249.85</ele>
        <time>2020-07-21T09:05:04.000Z</time>
      </trkpt>
      <trkpt lat="42.9415918" lon="-5.7179273">
        <ele>1249.54</ele>
        <time>2020-07-21T09:05:05.000Z</time>
      </trkpt>
      <trkpt lat="42.941595" lon="-5.7179367">
        <ele>1249.54</ele>
        <time>2020-07-21T09:05:06.000Z</time>
      </trkpt>
      <trkpt lat="42.9415993" lon="-5.7179467">
        <ele>1249.39</ele>
        <time>2020-07-21T09:05:07.000Z</time>
      </trkpt>
      <trkpt lat="42.941604" lon="-5.7179565">
        <ele>1249.39</ele>
        <time>2020-07-21T09:05:08.000Z</time>
      </trkpt>
      <trkpt lat="42.9416088" lon="-5.717965">
        <ele>1249.09</ele>
        <time>2020-07-21T09:05:09.000Z</time>
      </trkpt>
      <trkpt lat="42.941614" lon="-5.717973">
        <ele>1249.09</ele>
        <time>2020-07-21T09:05:10.000Z</time>
      </trkpt>
      <trkpt lat="42.9416202" lon="-5.717981">
        <ele>1248.78</ele>
        <time>2020-07-21T09:05:11.000Z</time>
      </trkpt>
      <trkpt lat="42.9416265" lon="-5.7179898">
        <ele>1248.78</ele>
        <time>2020-07-21T09:05:12.000Z</time>
      </trkpt>
      <trkpt lat="42.9416337" lon="-5.7180005">
        <ele>1248.48</ele>
        <time>2020-07-21T09:05:13.000Z</time>
      </trkpt>
      <trkpt lat="42.9416413" lon="-5.718011">
        <ele>1248.48</ele>
        <time>2020-07-21T09:05:14.000Z</time>
      </trkpt>
      <trkpt lat="42.9416507" lon="-5.7180205">
        <ele>1248.32</ele>
        <time>2020-07-21T09:05:15.000Z</time>
      </trkpt>
      <trkpt lat="42.9416595" lon="-5.7180282">
        <ele>1248.32</ele>
        <time>2020-07-21T09:05:16.000Z</time>
      </trkpt>
      <trkpt lat="42.941667" lon="-5.7180367">
        <ele>1248.02</ele>
        <time>2020-07-21T09:05:17.000Z</time>
      </trkpt>
      <trkpt lat="42.9416735" lon="-5.7180467">
        <ele>1248.02</ele>
        <time>2020-07-21T09:05:18.000Z</time>
      </trkpt>
      <trkpt lat="42.9416792" lon="-5.718058">
        <ele>1247.87</ele>
        <time>2020-07-21T09:05:19.000Z</time>
      </trkpt>
      <trkpt lat="42.9416833" lon="-5.7180695">
        <ele>1247.87</ele>
        <time>2020-07-21T09:05:20.000Z</time>
      </trkpt>
      <trkpt lat="42.9416847" lon="-5.7180807">
        <ele>1247.71</ele>
        <time>2020-07-21T09:05:21.000Z</time>
      </trkpt>
      <trkpt lat="42.9416842" lon="-5.7180915">
        <ele>1247.71</ele>
        <time>2020-07-21T09:05:22.000Z</time>
      </trkpt>
      <trkpt lat="42.9416832" lon="-5.718102">
        <ele>1247.41</ele>
        <time>2020-07-21T09:05:23.000Z</time>
      </trkpt>
      <trkpt lat="42.9416838" lon="-5.718113">
        <ele>1247.41</ele>
        <time>2020-07-21T09:05:24.000Z</time>
      </trkpt>
      <trkpt lat="42.9416855" lon="-5.718124">
        <ele>1247.26</ele>
        <time>2020-07-21T09:05:25.000Z</time>
      </trkpt>
      <trkpt lat="42.9416878" lon="-5.7181343">
        <ele>1247.26</ele>
        <time>2020-07-21T09:05:26.000Z</time>
      </trkpt>
      <trkpt lat="42.9416912" lon="-5.7181417">
        <ele>1247.1</ele>
        <time>2020-07-21T09:05:27.000Z</time>
      </trkpt>
      <trkpt lat="42.9416968" lon="-5.7181433">
        <ele>1247.1</ele>
        <time>2020-07-21T09:05:28.000Z</time>
      </trkpt>
      <trkpt lat="42.9417028" lon="-5.7181433">
        <ele>1246.95</ele>
        <time>2020-07-21T09:05:29.000Z</time>
      </trkpt>
      <trkpt lat="42.9417073" lon="-5.7181457">
        <ele>1246.95</ele>
        <time>2020-07-21T09:05:30.000Z</time>
      </trkpt>
      <trkpt lat="42.9417107" lon="-5.7181548">
        <ele>1246.8</ele>
        <time>2020-07-21T09:05:31.000Z</time>
      </trkpt>
      <trkpt lat="42.9417143" lon="-5.7181668">
        <ele>1246.8</ele>
        <time>2020-07-21T09:05:32.000Z</time>
      </trkpt>
      <trkpt lat="42.9417183" lon="-5.7181808">
        <ele>1246.65</ele>
        <time>2020-07-21T09:05:33.000Z</time>
      </trkpt>
      <trkpt lat="42.9417212" lon="-5.7181945">
        <ele>1246.65</ele>
        <time>2020-07-21T09:05:34.000Z</time>
      </trkpt>
      <trkpt lat="42.9417222" lon="-5.7182073">
        <ele>1246.49</ele>
        <time>2020-07-21T09:05:35.000Z</time>
      </trkpt>
      <trkpt lat="42.9417228" lon="-5.7182193">
        <ele>1246.49</ele>
        <time>2020-07-21T09:05:36.000Z</time>
      </trkpt>
      <trkpt lat="42.9417222" lon="-5.7182305">
        <ele>1246.49</ele>
        <time>2020-07-21T09:05:37.000Z</time>
      </trkpt>
      <trkpt lat="42.941722" lon="-5.7182415">
        <ele>1246.49</ele>
        <time>2020-07-21T09:05:38.000Z</time>
      </trkpt>
      <trkpt lat="42.9417222" lon="-5.718252">
        <ele>1246.34</ele>
        <time>2020-07-21T09:05:39.000Z</time>
      </trkpt>
      <trkpt lat="42.9417245" lon="-5.7182625">
        <ele>1246.34</ele>
        <time>2020-07-21T09:05:40.000Z</time>
      </trkpt>
      <trkpt lat="42.9417277" lon="-5.718273">
        <ele>1246.19</ele>
        <time>2020-07-21T09:05:41.000Z</time>
      </trkpt>
      <trkpt lat="42.9417305" lon="-5.7182835">
        <ele>1246.19</ele>
        <time>2020-07-21T09:05:42.000Z</time>
      </trkpt>
      <trkpt lat="42.9417338" lon="-5.7182953">
        <ele>1246.19</ele>
        <time>2020-07-21T09:05:43.000Z</time>
      </trkpt>
      <trkpt lat="42.9417372" lon="-5.718308">
        <ele>1246.19</ele>
        <time>2020-07-21T09:05:44.000Z</time>
      </trkpt>
      <trkpt lat="42.9417427" lon="-5.718318">
        <ele>1246.04</ele>
        <time>2020-07-21T09:05:45.000Z</time>
      </trkpt>
      <trkpt lat="42.9417487" lon="-5.7183248">
        <ele>1246.04</ele>
        <time>2020-07-21T09:05:46.000Z</time>
      </trkpt>
      <trkpt lat="42.9417555" lon="-5.7183273">
        <ele>1246.04</ele>
        <time>2020-07-21T09:05:47.000Z</time>
      </trkpt>
      <trkpt lat="42.9417625" lon="-5.7183283">
        <ele>1246.04</ele>
        <time>2020-07-21T09:05:48.000Z</time>
      </trkpt>
      <trkpt lat="42.9417697" lon="-5.7183282">
        <ele>1245.89</ele>
        <time>2020-07-21T09:05:49.000Z</time>
      </trkpt>
      <trkpt lat="42.9417768" lon="-5.7183278">
        <ele>1245.89</ele>
        <time>2020-07-21T09:05:50.000Z</time>
      </trkpt>
      <trkpt lat="42.9417833" lon="-5.7183283">
        <ele>1245.73</ele>
        <time>2020-07-21T09:05:51.000Z</time>
      </trkpt>
      <trkpt lat="42.9417897" lon="-5.7183292">
        <ele>1245.73</ele>
        <time>2020-07-21T09:05:52.000Z</time>
      </trkpt>
      <trkpt lat="42.9417963" lon="-5.7183302">
        <ele>1245.73</ele>
        <time>2020-07-21T09:05:53.000Z</time>
      </trkpt>
      <trkpt lat="42.9418025" lon="-5.7183312">
        <ele>1245.73</ele>
        <time>2020-07-21T09:05:54.000Z</time>
      </trkpt>
      <trkpt lat="42.9418077" lon="-5.7183317">
        <ele>1245.73</ele>
        <time>2020-07-21T09:05:55.000Z</time>
      </trkpt>
      <trkpt lat="42.9418102" lon="-5.718332">
        <ele>1245.73</ele>
        <time>2020-07-21T09:05:56.000Z</time>
      </trkpt>
      <trkpt lat="42.9418112" lon="-5.718332">
        <ele>1245.58</ele>
        <time>2020-07-21T09:05:57.000Z</time>
      </trkpt>
      <trkpt lat="42.9418108" lon="-5.7183317">
        <ele>1245.58</ele>
        <time>2020-07-21T09:05:58.000Z</time>
      </trkpt>
      <trkpt lat="42.9418115" lon="-5.718331">
        <ele>1245.58</ele>
        <time>2020-07-21T09:05:59.000Z</time>
      </trkpt>
      <trkpt lat="42.9418143" lon="-5.7183317">
        <ele>1245.58</ele>
        <time>2020-07-21T09:06:00.000Z</time>
      </trkpt>
      <trkpt lat="42.9418202" lon="-5.7183328">
        <ele>1245.58</ele>
        <time>2020-07-21T09:06:01.000Z</time>
      </trkpt>
      <trkpt lat="42.9418285" lon="-5.7183342">
        <ele>1245.58</ele>
        <time>2020-07-21T09:06:02.000Z</time>
      </trkpt>
      <trkpt lat="42.9418375" lon="-5.7183347">
        <ele>1245.58</ele>
        <time>2020-07-21T09:06:03.000Z</time>
      </trkpt>
      <trkpt lat="42.9418452" lon="-5.7183358">
        <ele>1245.58</ele>
        <time>2020-07-21T09:06:04.000Z</time>
      </trkpt>
      <trkpt lat="42.9418527" lon="-5.7183395">
        <ele>1245.58</ele>
        <time>2020-07-21T09:06:05.000Z</time>
      </trkpt>
      <trkpt lat="42.9418588" lon="-5.7183452">
        <ele>1245.58</ele>
        <time>2020-07-21T09:06:06.000Z</time>
      </trkpt>
      <trkpt lat="42.9418655" lon="-5.7183513">
        <ele>1245.58</ele>
        <time>2020-07-21T09:06:07.000Z</time>
      </trkpt>
      <trkpt lat="42.9418718" lon="-5.7183578">
        <ele>1245.58</ele>
        <time>2020-07-21T09:06:08.000Z</time>
      </trkpt>
      <trkpt lat="42.9418787" lon="-5.7183643">
        <ele>1245.58</ele>
        <time>2020-07-21T09:06:09.000Z</time>
      </trkpt>
      <trkpt lat="42.9418852" lon="-5.7183717">
        <ele>1245.58</ele>
        <time>2020-07-21T09:06:10.000Z</time>
      </trkpt>
      <trkpt lat="42.9418913" lon="-5.7183792">
        <ele>1245.58</ele>
        <time>2020-07-21T09:06:11.000Z</time>
      </trkpt>
      <trkpt lat="42.9418972" lon="-5.7183862">
        <ele>1245.58</ele>
        <time>2020-07-21T09:06:12.000Z</time>
      </trkpt>
      <trkpt lat="42.941903" lon="-5.7183917">
        <ele>1245.58</ele>
        <time>2020-07-21T09:06:13.000Z</time>
      </trkpt>
      <trkpt lat="42.9419093" lon="-5.7183957">
        <ele>1245.58</ele>
        <time>2020-07-21T09:06:14.000Z</time>
      </trkpt>
      <trkpt lat="42.9419152" lon="-5.7183977">
        <ele>1245.58</ele>
        <time>2020-07-21T09:06:15.000Z</time>
      </trkpt>
      <trkpt lat="42.941919" lon="-5.7183987">
        <ele>1245.58</ele>
        <time>2020-07-21T09:06:16.000Z</time>
      </trkpt>
      <trkpt lat="42.9419202" lon="-5.7183967">
        <ele>1245.43</ele>
        <time>2020-07-21T09:06:17.000Z</time>
      </trkpt>
      <trkpt lat="42.9419202" lon="-5.7183912">
        <ele>1245.43</ele>
        <time>2020-07-21T09:06:18.000Z</time>
      </trkpt>
      <trkpt lat="42.941921" lon="-5.7183818">
        <ele>1245.43</ele>
        <time>2020-07-21T09:06:19.000Z</time>
      </trkpt>
      <trkpt lat="42.9419235" lon="-5.7183745">
        <ele>1245.43</ele>
        <time>2020-07-21T09:06:20.000Z</time>
      </trkpt>
      <trkpt lat="42.9419277" lon="-5.7183698">
        <ele>1245.43</ele>
        <time>2020-07-21T09:06:21.000Z</time>
      </trkpt>
      <trkpt lat="42.9419322" lon="-5.7183677">
        <ele>1245.43</ele>
        <time>2020-07-21T09:06:22.000Z</time>
      </trkpt>
      <trkpt lat="42.9419372" lon="-5.7183642">
        <ele>1245.43</ele>
        <time>2020-07-21T09:06:23.000Z</time>
      </trkpt>
      <trkpt lat="42.9419423" lon="-5.71836">
        <ele>1245.43</ele>
        <time>2020-07-21T09:06:24.000Z</time>
      </trkpt>
      <trkpt lat="42.9419473" lon="-5.7183562">
        <ele>1245.28</ele>
        <time>2020-07-21T09:06:25.000Z</time>
      </trkpt>
      <trkpt lat="42.9419525" lon="-5.718354">
        <ele>1245.28</ele>
        <time>2020-07-21T09:06:26.000Z</time>
      </trkpt>
      <trkpt lat="42.9419575" lon="-5.718353">
        <ele>1245.28</ele>
        <time>2020-07-21T09:06:27.000Z</time>
      </trkpt>
      <trkpt lat="42.9419627" lon="-5.7183527">
        <ele>1245.28</ele>
        <time>2020-07-21T09:06:28.000Z</time>
      </trkpt>
      <trkpt lat="42.9419678" lon="-5.7183532">
        <ele>1245.28</ele>
        <time>2020-07-21T09:06:29.000Z</time>
      </trkpt>
      <trkpt lat="42.9419738" lon="-5.7183558">
        <ele>1245.28</ele>
        <time>2020-07-21T09:06:30.000Z</time>
      </trkpt>
      <trkpt lat="42.9419795" lon="-5.7183603">
        <ele>1245.28</ele>
        <time>2020-07-21T09:06:31.000Z</time>
      </trkpt>
      <trkpt lat="42.9419835" lon="-5.7183642">
        <ele>1245.28</ele>
        <time>2020-07-21T09:06:32.000Z</time>
      </trkpt>
      <trkpt lat="42.9419878" lon="-5.718367">
        <ele>1245.28</ele>
        <time>2020-07-21T09:06:33.000Z</time>
      </trkpt>
      <trkpt lat="42.9419943" lon="-5.7183693">
        <ele>1245.28</ele>
        <time>2020-07-21T09:06:34.000Z</time>
      </trkpt>
      <trkpt lat="42.942004" lon="-5.7183737">
        <ele>1245.28</ele>
        <time>2020-07-21T09:06:35.000Z</time>
      </trkpt>
      <trkpt lat="42.9420137" lon="-5.7183795">
        <ele>1245.28</ele>
        <time>2020-07-21T09:06:36.000Z</time>
      </trkpt>
      <trkpt lat="42.9420215" lon="-5.718388">
        <ele>1245.28</ele>
        <time>2020-07-21T09:06:37.000Z</time>
      </trkpt>
      <trkpt lat="42.9420267" lon="-5.7183962">
        <ele>1245.28</ele>
        <time>2020-07-21T09:06:38.000Z</time>
      </trkpt>
      <trkpt lat="42.9420298" lon="-5.7184027">
        <ele>1245.28</ele>
        <time>2020-07-21T09:06:39.000Z</time>
      </trkpt>
      <trkpt lat="42.9420317" lon="-5.718405">
        <ele>1245.28</ele>
        <time>2020-07-21T09:06:40.000Z</time>
      </trkpt>
      <trkpt lat="42.9420322" lon="-5.7184063">
        <ele>1245.43</ele>
        <time>2020-07-21T09:06:41.000Z</time>
      </trkpt>
      <trkpt lat="42.9420315" lon="-5.7184068">
        <ele>1245.43</ele>
        <time>2020-07-21T09:06:42.000Z</time>
      </trkpt>
      <trkpt lat="42.9420322" lon="-5.7184075">
        <ele>1245.43</ele>
        <time>2020-07-21T09:06:43.000Z</time>
      </trkpt>
      <trkpt lat="42.9420322" lon="-5.7184075">
        <ele>1245.43</ele>
        <time>2020-07-21T09:06:44.000Z</time>
      </trkpt>
      <trkpt lat="42.9420332" lon="-5.7184073">
        <ele>1245.43</ele>
        <time>2020-07-21T09:06:45.000Z</time>
      </trkpt>
      <trkpt lat="42.9420333" lon="-5.7184072">
        <ele>1245.43</ele>
        <time>2020-07-21T09:06:46.000Z</time>
      </trkpt>
      <trkpt lat="42.9420338" lon="-5.7184068">
        <ele>1245.43</ele>
        <time>2020-07-21T09:06:47.000Z</time>
      </trkpt>
      <trkpt lat="42.9420343" lon="-5.718407">
        <ele>1245.43</ele>
        <time>2020-07-21T09:06:48.000Z</time>
      </trkpt>
      <trkpt lat="42.942034" lon="-5.7184073">
        <ele>1245.58</ele>
        <time>2020-07-21T09:06:49.000Z</time>
      </trkpt>
      <trkpt lat="42.9420333" lon="-5.7184093">
        <ele>1245.58</ele>
        <time>2020-07-21T09:06:50.000Z</time>
      </trkpt>
      <trkpt lat="42.9420337" lon="-5.718414">
        <ele>1245.58</ele>
        <time>2020-07-21T09:06:51.000Z</time>
      </trkpt>
      <trkpt lat="42.942034" lon="-5.7184222">
        <ele>1245.58</ele>
        <time>2020-07-21T09:06:52.000Z</time>
      </trkpt>
      <trkpt lat="42.9420348" lon="-5.718432">
        <ele>1245.58</ele>
        <time>2020-07-21T09:06:53.000Z</time>
      </trkpt>
      <trkpt lat="42.9420363" lon="-5.7184427">
        <ele>1245.58</ele>
        <time>2020-07-21T09:06:54.000Z</time>
      </trkpt>
      <trkpt lat="42.942042" lon="-5.7184525">
        <ele>1245.43</ele>
        <time>2020-07-21T09:06:55.000Z</time>
      </trkpt>
      <trkpt lat="42.9420495" lon="-5.7184622">
        <ele>1245.43</ele>
        <time>2020-07-21T09:06:56.000Z</time>
      </trkpt>
      <trkpt lat="42.9420577" lon="-5.7184707">
        <ele>1245.43</ele>
        <time>2020-07-21T09:06:57.000Z</time>
      </trkpt>
      <trkpt lat="42.9420638" lon="-5.7184805">
        <ele>1245.43</ele>
        <time>2020-07-21T09:06:58.000Z</time>
      </trkpt>
      <trkpt lat="42.9420708" lon="-5.7184905">
        <ele>1245.43</ele>
        <time>2020-07-21T09:06:59.000Z</time>
      </trkpt>
      <trkpt lat="42.9420788" lon="-5.7185">
        <ele>1245.43</ele>
        <time>2020-07-21T09:07:00.000Z</time>
      </trkpt>
      <trkpt lat="42.9420872" lon="-5.718507">
        <ele>1245.43</ele>
        <time>2020-07-21T09:07:01.000Z</time>
      </trkpt>
      <trkpt lat="42.9420948" lon="-5.7185125">
        <ele>1245.43</ele>
        <time>2020-07-21T09:07:02.000Z</time>
      </trkpt>
      <trkpt lat="42.9421008" lon="-5.7185168">
        <ele>1245.43</ele>
        <time>2020-07-21T09:07:03.000Z</time>
      </trkpt>
      <trkpt lat="42.9421067" lon="-5.7185207">
        <ele>1245.43</ele>
        <time>2020-07-21T09:07:04.000Z</time>
      </trkpt>
      <trkpt lat="42.9421115" lon="-5.7185237">
        <ele>1245.28</ele>
        <time>2020-07-21T09:07:05.000Z</time>
      </trkpt>
      <trkpt lat="42.9421155" lon="-5.718527">
        <ele>1245.28</ele>
        <time>2020-07-21T09:07:06.000Z</time>
      </trkpt>
      <trkpt lat="42.9421175" lon="-5.7185282">
        <ele>1245.28</ele>
        <time>2020-07-21T09:07:07.000Z</time>
      </trkpt>
      <trkpt lat="42.9421183" lon="-5.7185287">
        <ele>1245.28</ele>
        <time>2020-07-21T09:07:08.000Z</time>
      </trkpt>
      <trkpt lat="42.9421185" lon="-5.7185287">
        <ele>1245.28</ele>
        <time>2020-07-21T09:07:09.000Z</time>
      </trkpt>
      <trkpt lat="42.9421182" lon="-5.7185302">
        <ele>1245.28</ele>
        <time>2020-07-21T09:07:10.000Z</time>
      </trkpt>
      <trkpt lat="42.9421178" lon="-5.7185323">
        <ele>1245.28</ele>
        <time>2020-07-21T09:07:11.000Z</time>
      </trkpt>
      <trkpt lat="42.942118" lon="-5.7185352">
        <ele>1245.28</ele>
        <time>2020-07-21T09:07:12.000Z</time>
      </trkpt>
      <trkpt lat="42.9421197" lon="-5.7185395">
        <ele>1245.28</ele>
        <time>2020-07-21T09:07:13.000Z</time>
      </trkpt>
      <trkpt lat="42.942123" lon="-5.7185448">
        <ele>1245.28</ele>
        <time>2020-07-21T09:07:14.000Z</time>
      </trkpt>
      <trkpt lat="42.942129" lon="-5.7185497">
        <ele>1245.28</ele>
        <time>2020-07-21T09:07:15.000Z</time>
      </trkpt>
      <trkpt lat="42.9421353" lon="-5.7185538">
        <ele>1245.28</ele>
        <time>2020-07-21T09:07:16.000Z</time>
      </trkpt>
      <trkpt lat="42.9421427" lon="-5.718556">
        <ele>1245.28</ele>
        <time>2020-07-21T09:07:17.000Z</time>
      </trkpt>
      <trkpt lat="42.9421493" lon="-5.7185573">
        <ele>1245.28</ele>
        <time>2020-07-21T09:07:18.000Z</time>
      </trkpt>
      <trkpt lat="42.9421567" lon="-5.7185558">
        <ele>1245.28</ele>
        <time>2020-07-21T09:07:19.000Z</time>
      </trkpt>
      <trkpt lat="42.9421637" lon="-5.7185537">
        <ele>1245.28</ele>
        <time>2020-07-21T09:07:20.000Z</time>
      </trkpt>
      <trkpt lat="42.9421713" lon="-5.7185493">
        <ele>1245.43</ele>
        <time>2020-07-21T09:07:21.000Z</time>
      </trkpt>
      <trkpt lat="42.942179" lon="-5.7185462">
        <ele>1245.43</ele>
        <time>2020-07-21T09:07:22.000Z</time>
      </trkpt>
      <trkpt lat="42.9421863" lon="-5.718544">
        <ele>1245.43</ele>
        <time>2020-07-21T09:07:23.000Z</time>
      </trkpt>
      <trkpt lat="42.9421927" lon="-5.7185437">
        <ele>1245.43</ele>
        <time>2020-07-21T09:07:24.000Z</time>
      </trkpt>
      <trkpt lat="42.9421988" lon="-5.7185435">
        <ele>1245.58</ele>
        <time>2020-07-21T09:07:25.000Z</time>
      </trkpt>
      <trkpt lat="42.9422047" lon="-5.7185438">
        <ele>1245.58</ele>
        <time>2020-07-21T09:07:26.000Z</time>
      </trkpt>
      <trkpt lat="42.942211" lon="-5.7185433">
        <ele>1245.58</ele>
        <time>2020-07-21T09:07:27.000Z</time>
      </trkpt>
      <trkpt lat="42.9422165" lon="-5.7185448">
        <ele>1245.58</ele>
        <time>2020-07-21T09:07:28.000Z</time>
      </trkpt>
      <trkpt lat="42.9422202" lon="-5.718544">
        <ele>1245.73</ele>
        <time>2020-07-21T09:07:29.000Z</time>
      </trkpt>
      <trkpt lat="42.9422213" lon="-5.7185428">
        <ele>1245.73</ele>
        <time>2020-07-21T09:07:30.000Z</time>
      </trkpt>
      <trkpt lat="42.9422198" lon="-5.71854">
        <ele>1245.73</ele>
        <time>2020-07-21T09:07:31.000Z</time>
      </trkpt>
      <trkpt lat="42.9422185" lon="-5.7185393">
        <ele>1245.73</ele>
        <time>2020-07-21T09:07:32.000Z</time>
      </trkpt>
      <trkpt lat="42.9422178" lon="-5.71854">
        <ele>1245.89</ele>
        <time>2020-07-21T09:07:33.000Z</time>
      </trkpt>
      <trkpt lat="42.9422195" lon="-5.7185412">
        <ele>1245.89</ele>
        <time>2020-07-21T09:07:34.000Z</time>
      </trkpt>
      <trkpt lat="42.9422217" lon="-5.7185423">
        <ele>1245.89</ele>
        <time>2020-07-21T09:07:35.000Z</time>
      </trkpt>
      <trkpt lat="42.9422233" lon="-5.7185435">
        <ele>1245.89</ele>
        <time>2020-07-21T09:07:36.000Z</time>
      </trkpt>
      <trkpt lat="42.9422248" lon="-5.7185453">
        <ele>1245.89</ele>
        <time>2020-07-21T09:07:37.000Z</time>
      </trkpt>
      <trkpt lat="42.9422282" lon="-5.7185482">
        <ele>1245.89</ele>
        <time>2020-07-21T09:07:38.000Z</time>
      </trkpt>
      <trkpt lat="42.9422327" lon="-5.718552">
        <ele>1245.89</ele>
        <time>2020-07-21T09:07:39.000Z</time>
      </trkpt>
      <trkpt lat="42.9422385" lon="-5.7185568">
        <ele>1245.89</ele>
        <time>2020-07-21T09:07:40.000Z</time>
      </trkpt>
      <trkpt lat="42.9422445" lon="-5.718563">
        <ele>1245.89</ele>
        <time>2020-07-21T09:07:41.000Z</time>
      </trkpt>
      <trkpt lat="42.9422528" lon="-5.7185693">
        <ele>1245.89</ele>
        <time>2020-07-21T09:07:42.000Z</time>
      </trkpt>
      <trkpt lat="42.942262" lon="-5.7185745">
        <ele>1245.89</ele>
        <time>2020-07-21T09:07:43.000Z</time>
      </trkpt>
      <trkpt lat="42.942271" lon="-5.718578">
        <ele>1245.89</ele>
        <time>2020-07-21T09:07:44.000Z</time>
      </trkpt>
      <trkpt lat="42.9422795" lon="-5.718581">
        <ele>1245.89</ele>
        <time>2020-07-21T09:07:45.000Z</time>
      </trkpt>
      <trkpt lat="42.942288" lon="-5.7185852">
        <ele>1245.89</ele>
        <time>2020-07-21T09:07:46.000Z</time>
      </trkpt>
      <trkpt lat="42.942297" lon="-5.718591">
        <ele>1245.73</ele>
        <time>2020-07-21T09:07:47.000Z</time>
      </trkpt>
      <trkpt lat="42.9423062" lon="-5.7185967">
        <ele>1245.73</ele>
        <time>2020-07-21T09:07:48.000Z</time>
      </trkpt>
      <trkpt lat="42.9423168" lon="-5.7186022">
        <ele>1245.73</ele>
        <time>2020-07-21T09:07:49.000Z</time>
      </trkpt>
      <trkpt lat="42.94233" lon="-5.7186062">
        <ele>1245.73</ele>
        <time>2020-07-21T09:07:50.000Z</time>
      </trkpt>
      <trkpt lat="42.9423435" lon="-5.7186097">
        <ele>1245.73</ele>
        <time>2020-07-21T09:07:51.000Z</time>
      </trkpt>
      <trkpt lat="42.9423555" lon="-5.7186128">
        <ele>1245.73</ele>
        <time>2020-07-21T09:07:52.000Z</time>
      </trkpt>
      <trkpt lat="42.9423647" lon="-5.7186163">
        <ele>1245.58</ele>
        <time>2020-07-21T09:07:53.000Z</time>
      </trkpt>
      <trkpt lat="42.9423718" lon="-5.718621">
        <ele>1245.58</ele>
        <time>2020-07-21T09:07:54.000Z</time>
      </trkpt>
      <trkpt lat="42.94238" lon="-5.7186265">
        <ele>1245.58</ele>
        <time>2020-07-21T09:07:55.000Z</time>
      </trkpt>
      <trkpt lat="42.9423888" lon="-5.7186325">
        <ele>1245.58</ele>
        <time>2020-07-21T09:07:56.000Z</time>
      </trkpt>
      <trkpt lat="42.9423985" lon="-5.7186392">
        <ele>1245.58</ele>
        <time>2020-07-21T09:07:57.000Z</time>
      </trkpt>
      <trkpt lat="42.9424077" lon="-5.7186462">
        <ele>1245.58</ele>
        <time>2020-07-21T09:07:58.000Z</time>
      </trkpt>
      <trkpt lat="42.942418" lon="-5.7186542">
        <ele>1245.43</ele>
        <time>2020-07-21T09:07:59.000Z</time>
      </trkpt>
      <trkpt lat="42.9424292" lon="-5.7186628">
        <ele>1245.43</ele>
        <time>2020-07-21T09:08:00.000Z</time>
      </trkpt>
      <trkpt lat="42.942441" lon="-5.718672">
        <ele>1245.43</ele>
        <time>2020-07-21T09:08:01.000Z</time>
      </trkpt>
      <trkpt lat="42.942452" lon="-5.7186812">
        <ele>1245.43</ele>
        <time>2020-07-21T09:08:02.000Z</time>
      </trkpt>
      <trkpt lat="42.9424625" lon="-5.7186913">
        <ele>1245.28</ele>
        <time>2020-07-21T09:08:03.000Z</time>
      </trkpt>
      <trkpt lat="42.9424717" lon="-5.7187025">
        <ele>1245.28</ele>
        <time>2020-07-21T09:08:04.000Z</time>
      </trkpt>
      <trkpt lat="42.9424808" lon="-5.7187152">
        <ele>1245.12</ele>
        <time>2020-07-21T09:08:05.000Z</time>
      </trkpt>
      <trkpt lat="42.9424897" lon="-5.7187277">
        <ele>1245.12</ele>
        <time>2020-07-21T09:08:06.000Z</time>
      </trkpt>
      <trkpt lat="42.9424988" lon="-5.7187398">
        <ele>1245.12</ele>
        <time>2020-07-21T09:08:07.000Z</time>
      </trkpt>
      <trkpt lat="42.9425082" lon="-5.7187515">
        <ele>1245.12</ele>
        <time>2020-07-21T09:08:08.000Z</time>
      </trkpt>
      <trkpt lat="42.9425183" lon="-5.7187622">
        <ele>1244.97</ele>
        <time>2020-07-21T09:08:09.000Z</time>
      </trkpt>
      <trkpt lat="42.9425283" lon="-5.7187732">
        <ele>1244.97</ele>
        <time>2020-07-21T09:08:10.000Z</time>
      </trkpt>
      <trkpt lat="42.942539" lon="-5.7187838">
        <ele>1244.82</ele>
        <time>2020-07-21T09:08:11.000Z</time>
      </trkpt>
      <trkpt lat="42.9425487" lon="-5.7187957">
        <ele>1244.82</ele>
        <time>2020-07-21T09:08:12.000Z</time>
      </trkpt>
      <trkpt lat="42.9425587" lon="-5.7188077">
        <ele>1244.67</ele>
        <time>2020-07-21T09:08:13.000Z</time>
      </trkpt>
      <trkpt lat="42.9425667" lon="-5.7188207">
        <ele>1244.67</ele>
        <time>2020-07-21T09:08:14.000Z</time>
      </trkpt>
      <trkpt lat="42.9425748" lon="-5.7188332">
        <ele>1244.51</ele>
        <time>2020-07-21T09:08:15.000Z</time>
      </trkpt>
      <trkpt lat="42.9425827" lon="-5.7188453">
        <ele>1244.51</ele>
        <time>2020-07-21T09:08:16.000Z</time>
      </trkpt>
      <trkpt lat="42.9425917" lon="-5.7188572">
        <ele>1244.36</ele>
        <time>2020-07-21T09:08:17.000Z</time>
      </trkpt>
      <trkpt lat="42.9426005" lon="-5.7188687">
        <ele>1244.36</ele>
        <time>2020-07-21T09:08:18.000Z</time>
      </trkpt>
      <trkpt lat="42.9426103" lon="-5.7188797">
        <ele>1244.21</ele>
        <time>2020-07-21T09:08:19.000Z</time>
      </trkpt>
      <trkpt lat="42.9426202" lon="-5.7188905">
        <ele>1244.21</ele>
        <time>2020-07-21T09:08:20.000Z</time>
      </trkpt>
      <trkpt lat="42.9426302" lon="-5.7189017">
        <ele>1244.06</ele>
        <time>2020-07-21T09:08:21.000Z</time>
      </trkpt>
      <trkpt lat="42.9426395" lon="-5.718913">
        <ele>1244.06</ele>
        <time>2020-07-21T09:08:22.000Z</time>
      </trkpt>
      <trkpt lat="42.9426487" lon="-5.7189238">
        <ele>1243.9</ele>
        <time>2020-07-21T09:08:23.000Z</time>
      </trkpt>
      <trkpt lat="42.9426583" lon="-5.7189347">
        <ele>1243.9</ele>
        <time>2020-07-21T09:08:24.000Z</time>
      </trkpt>
      <trkpt lat="42.942668" lon="-5.718945">
        <ele>1243.75</ele>
        <time>2020-07-21T09:08:25.000Z</time>
      </trkpt>
      <trkpt lat="42.9426765" lon="-5.718957">
        <ele>1243.75</ele>
        <time>2020-07-21T09:08:26.000Z</time>
      </trkpt>
      <trkpt lat="42.9426842" lon="-5.7189677">
        <ele>1243.6</ele>
        <time>2020-07-21T09:08:27.000Z</time>
      </trkpt>
      <trkpt lat="42.942691" lon="-5.7189787">
        <ele>1243.6</ele>
        <time>2020-07-21T09:08:28.000Z</time>
      </trkpt>
      <trkpt lat="42.9426982" lon="-5.718988">
        <ele>1243.45</ele>
        <time>2020-07-21T09:08:29.000Z</time>
      </trkpt>
      <trkpt lat="42.9427052" lon="-5.7189983">
        <ele>1243.45</ele>
        <time>2020-07-21T09:08:30.000Z</time>
      </trkpt>
      <trkpt lat="42.9427133" lon="-5.7190092">
        <ele>1243.29</ele>
        <time>2020-07-21T09:08:31.000Z</time>
      </trkpt>
      <trkpt lat="42.9427232" lon="-5.7190198">
        <ele>1243.29</ele>
        <time>2020-07-21T09:08:32.000Z</time>
      </trkpt>
      <trkpt lat="42.9427325" lon="-5.7190307">
        <ele>1243.14</ele>
        <time>2020-07-21T09:08:33.000Z</time>
      </trkpt>
      <trkpt lat="42.9427412" lon="-5.7190417">
        <ele>1243.14</ele>
        <time>2020-07-21T09:08:34.000Z</time>
      </trkpt>
      <trkpt lat="42.9427478" lon="-5.719053">
        <ele>1243.14</ele>
        <time>2020-07-21T09:08:35.000Z</time>
      </trkpt>
      <trkpt lat="42.9427537" lon="-5.7190635">
        <ele>1243.14</ele>
        <time>2020-07-21T09:08:36.000Z</time>
      </trkpt>
      <trkpt lat="42.9427588" lon="-5.7190732">
        <ele>1242.99</ele>
        <time>2020-07-21T09:08:37.000Z</time>
      </trkpt>
      <trkpt lat="42.9427668" lon="-5.7190817">
        <ele>1242.99</ele>
        <time>2020-07-21T09:08:38.000Z</time>
      </trkpt>
      <trkpt lat="42.9427768" lon="-5.71909">
        <ele>1242.99</ele>
        <time>2020-07-21T09:08:39.000Z</time>
      </trkpt>
      <trkpt lat="42.9427878" lon="-5.7190988">
        <ele>1242.99</ele>
        <time>2020-07-21T09:08:40.000Z</time>
      </trkpt>
      <trkpt lat="42.9427975" lon="-5.7191082">
        <ele>1242.99</ele>
        <time>2020-07-21T09:08:41.000Z</time>
      </trkpt>
      <trkpt lat="42.9428078" lon="-5.7191172">
        <ele>1242.99</ele>
        <time>2020-07-21T09:08:42.000Z</time>
      </trkpt>
      <trkpt lat="42.942819" lon="-5.7191263">
        <ele>1242.84</ele>
        <time>2020-07-21T09:08:43.000Z</time>
      </trkpt>
      <trkpt lat="42.942831" lon="-5.7191358">
        <ele>1242.84</ele>
        <time>2020-07-21T09:08:44.000Z</time>
      </trkpt>
      <trkpt lat="42.9428423" lon="-5.7191467">
        <ele>1242.84</ele>
        <time>2020-07-21T09:08:45.000Z</time>
      </trkpt>
      <trkpt lat="42.9428533" lon="-5.7191558">
        <ele>1242.84</ele>
        <time>2020-07-21T09:08:46.000Z</time>
      </trkpt>
      <trkpt lat="42.9428628" lon="-5.7191642">
        <ele>1242.84</ele>
        <time>2020-07-21T09:08:47.000Z</time>
      </trkpt>
      <trkpt lat="42.9428733" lon="-5.7191707">
        <ele>1242.84</ele>
        <time>2020-07-21T09:08:48.000Z</time>
      </trkpt>
      <trkpt lat="42.9428837" lon="-5.7191773">
        <ele>1242.84</ele>
        <time>2020-07-21T09:08:49.000Z</time>
      </trkpt>
      <trkpt lat="42.9428937" lon="-5.7191843">
        <ele>1242.84</ele>
        <time>2020-07-21T09:08:50.000Z</time>
      </trkpt>
      <trkpt lat="42.9429022" lon="-5.719193">
        <ele>1242.99</ele>
        <time>2020-07-21T09:08:51.000Z</time>
      </trkpt>
      <trkpt lat="42.9429125" lon="-5.7192018">
        <ele>1242.99</ele>
        <time>2020-07-21T09:08:52.000Z</time>
      </trkpt>
      <trkpt lat="42.9429263" lon="-5.7192117">
        <ele>1242.99</ele>
        <time>2020-07-21T09:08:53.000Z</time>
      </trkpt>
      <trkpt lat="42.9429418" lon="-5.7192205">
        <ele>1242.99</ele>
        <time>2020-07-21T09:08:54.000Z</time>
      </trkpt>
      <trkpt lat="42.9429563" lon="-5.7192308">
        <ele>1242.99</ele>
        <time>2020-07-21T09:08:55.000Z</time>
      </trkpt>
      <trkpt lat="42.9429685" lon="-5.719241">
        <ele>1242.99</ele>
        <time>2020-07-21T09:08:56.000Z</time>
      </trkpt>
      <trkpt lat="42.9429842" lon="-5.7192532">
        <ele>1243.14</ele>
        <time>2020-07-21T09:08:57.000Z</time>
      </trkpt>
      <trkpt lat="42.9430018" lon="-5.7192643">
        <ele>1243.14</ele>
        <time>2020-07-21T09:08:58.000Z</time>
      </trkpt>
      <trkpt lat="42.9430203" lon="-5.7192753">
        <ele>1243.14</ele>
        <time>2020-07-21T09:08:59.000Z</time>
      </trkpt>
      <trkpt lat="42.9430353" lon="-5.7192833">
        <ele>1243.14</ele>
        <time>2020-07-21T09:09:00.000Z</time>
      </trkpt>
      <trkpt lat="42.9430482" lon="-5.7192898">
        <ele>1243.14</ele>
        <time>2020-07-21T09:09:01.000Z</time>
      </trkpt>
      <trkpt lat="42.9430598" lon="-5.7192955">
        <ele>1243.14</ele>
        <time>2020-07-21T09:09:02.000Z</time>
      </trkpt>
      <trkpt lat="42.9430717" lon="-5.7193012">
        <ele>1243.14</ele>
        <time>2020-07-21T09:09:03.000Z</time>
      </trkpt>
      <trkpt lat="42.9430833" lon="-5.7193068">
        <ele>1243.14</ele>
        <time>2020-07-21T09:09:04.000Z</time>
      </trkpt>
      <trkpt lat="42.9430933" lon="-5.7193113">
        <ele>1243.29</ele>
        <time>2020-07-21T09:09:05.000Z</time>
      </trkpt>
      <trkpt lat="42.9431028" lon="-5.7193153">
        <ele>1243.29</ele>
        <time>2020-07-21T09:09:06.000Z</time>
      </trkpt>
      <trkpt lat="42.9431123" lon="-5.7193187">
        <ele>1243.29</ele>
        <time>2020-07-21T09:09:07.000Z</time>
      </trkpt>
      <trkpt lat="42.9431237" lon="-5.7193218">
        <ele>1243.29</ele>
        <time>2020-07-21T09:09:08.000Z</time>
      </trkpt>
      <trkpt lat="42.9431342" lon="-5.7193248">
        <ele>1243.29</ele>
        <time>2020-07-21T09:09:09.000Z</time>
      </trkpt>
      <trkpt lat="42.9431448" lon="-5.7193278">
        <ele>1243.29</ele>
        <time>2020-07-21T09:09:10.000Z</time>
      </trkpt>
      <trkpt lat="42.9431565" lon="-5.7193323">
        <ele>1243.29</ele>
        <time>2020-07-21T09:09:11.000Z</time>
      </trkpt>
      <trkpt lat="42.9431695" lon="-5.7193385">
        <ele>1243.29</ele>
        <time>2020-07-21T09:09:12.000Z</time>
      </trkpt>
      <trkpt lat="42.9431828" lon="-5.7193438">
        <ele>1243.29</ele>
        <time>2020-07-21T09:09:13.000Z</time>
      </trkpt>
      <trkpt lat="42.9431958" lon="-5.7193475">
        <ele>1243.29</ele>
        <time>2020-07-21T09:09:14.000Z</time>
      </trkpt>
      <trkpt lat="42.9432087" lon="-5.7193502">
        <ele>1243.29</ele>
        <time>2020-07-21T09:09:15.000Z</time>
      </trkpt>
      <trkpt lat="42.9432203" lon="-5.7193543">
        <ele>1243.29</ele>
        <time>2020-07-21T09:09:16.000Z</time>
      </trkpt>
      <trkpt lat="42.9432308" lon="-5.7193602">
        <ele>1243.29</ele>
        <time>2020-07-21T09:09:17.000Z</time>
      </trkpt>
      <trkpt lat="42.9432413" lon="-5.7193677">
        <ele>1243.29</ele>
        <time>2020-07-21T09:09:18.000Z</time>
      </trkpt>
      <trkpt lat="42.9432523" lon="-5.7193767">
        <ele>1243.29</ele>
        <time>2020-07-21T09:09:19.000Z</time>
      </trkpt>
      <trkpt lat="42.9432645" lon="-5.7193855">
        <ele>1243.29</ele>
        <time>2020-07-21T09:09:20.000Z</time>
      </trkpt>
      <trkpt lat="42.9432755" lon="-5.7193932">
        <ele>1243.29</ele>
        <time>2020-07-21T09:09:21.000Z</time>
      </trkpt>
      <trkpt lat="42.9432865" lon="-5.7194005">
        <ele>1243.29</ele>
        <time>2020-07-21T09:09:22.000Z</time>
      </trkpt>
      <trkpt lat="42.9432978" lon="-5.7194077">
        <ele>1243.29</ele>
        <time>2020-07-21T09:09:23.000Z</time>
      </trkpt>
      <trkpt lat="42.9433107" lon="-5.7194153">
        <ele>1243.29</ele>
        <time>2020-07-21T09:09:24.000Z</time>
      </trkpt>
      <trkpt lat="42.9433242" lon="-5.7194225">
        <ele>1243.14</ele>
        <time>2020-07-21T09:09:25.000Z</time>
      </trkpt>
      <trkpt lat="42.9433382" lon="-5.7194297">
        <ele>1243.14</ele>
        <time>2020-07-21T09:09:26.000Z</time>
      </trkpt>
      <trkpt lat="42.9433503" lon="-5.7194365">
        <ele>1243.14</ele>
        <time>2020-07-21T09:09:27.000Z</time>
      </trkpt>
      <trkpt lat="42.9433628" lon="-5.719443">
        <ele>1243.14</ele>
        <time>2020-07-21T09:09:28.000Z</time>
      </trkpt>
      <trkpt lat="42.9433743" lon="-5.7194502">
        <ele>1243.14</ele>
        <time>2020-07-21T09:09:29.000Z</time>
      </trkpt>
      <trkpt lat="42.9433855" lon="-5.7194575">
        <ele>1243.14</ele>
        <time>2020-07-21T09:09:30.000Z</time>
      </trkpt>
      <trkpt lat="42.9433945" lon="-5.7194653">
        <ele>1242.99</ele>
        <time>2020-07-21T09:09:31.000Z</time>
      </trkpt>
      <trkpt lat="42.9434027" lon="-5.7194722">
        <ele>1242.99</ele>
        <time>2020-07-21T09:09:32.000Z</time>
      </trkpt>
      <trkpt lat="42.9434122" lon="-5.7194785">
        <ele>1242.84</ele>
        <time>2020-07-21T09:09:33.000Z</time>
      </trkpt>
      <trkpt lat="42.9434217" lon="-5.719484">
        <ele>1242.84</ele>
        <time>2020-07-21T09:09:34.000Z</time>
      </trkpt>
      <trkpt lat="42.9434318" lon="-5.7194898">
        <ele>1242.69</ele>
        <time>2020-07-21T09:09:35.000Z</time>
      </trkpt>
      <trkpt lat="42.943442" lon="-5.719496">
        <ele>1242.69</ele>
        <time>2020-07-21T09:09:36.000Z</time>
      </trkpt>
      <trkpt lat="42.9434532" lon="-5.7195012">
        <ele>1242.53</ele>
        <time>2020-07-21T09:09:37.000Z</time>
      </trkpt>
      <trkpt lat="42.9434663" lon="-5.7195057">
        <ele>1242.53</ele>
        <time>2020-07-21T09:09:38.000Z</time>
      </trkpt>
      <trkpt lat="42.9434812" lon="-5.7195098">
        <ele>1242.38</ele>
        <time>2020-07-21T09:09:39.000Z</time>
      </trkpt>
      <trkpt lat="42.9434985" lon="-5.7195128">
        <ele>1242.38</ele>
        <time>2020-07-21T09:09:40.000Z</time>
      </trkpt>
      <trkpt lat="42.9435145" lon="-5.7195165">
        <ele>1242.23</ele>
        <time>2020-07-21T09:09:41.000Z</time>
      </trkpt>
      <trkpt lat="42.9435305" lon="-5.7195198">
        <ele>1242.23</ele>
        <time>2020-07-21T09:09:42.000Z</time>
      </trkpt>
      <trkpt lat="42.9435443" lon="-5.719526">
        <ele>1241.92</ele>
        <time>2020-07-21T09:09:43.000Z</time>
      </trkpt>
      <trkpt lat="42.9435582" lon="-5.7195328">
        <ele>1241.92</ele>
        <time>2020-07-21T09:09:44.000Z</time>
      </trkpt>
      <trkpt lat="42.9435732" lon="-5.7195402">
        <ele>1241.77</ele>
        <time>2020-07-21T09:09:45.000Z</time>
      </trkpt>
      <trkpt lat="42.9435883" lon="-5.7195473">
        <ele>1241.77</ele>
        <time>2020-07-21T09:09:46.000Z</time>
      </trkpt>
      <trkpt lat="42.9436033" lon="-5.719555">
        <ele>1241.46</ele>
        <time>2020-07-21T09:09:47.000Z</time>
      </trkpt>
      <trkpt lat="42.9436162" lon="-5.719564">
        <ele>1241.46</ele>
        <time>2020-07-21T09:09:48.000Z</time>
      </trkpt>
      <trkpt lat="42.9436288" lon="-5.719573">
        <ele>1241.16</ele>
        <time>2020-07-21T09:09:49.000Z</time>
      </trkpt>
      <trkpt lat="42.9436407" lon="-5.7195825">
        <ele>1241.16</ele>
        <time>2020-07-21T09:09:50.000Z</time>
      </trkpt>
      <trkpt lat="42.943652" lon="-5.7195918">
        <ele>1241.01</ele>
        <time>2020-07-21T09:09:51.000Z</time>
      </trkpt>
      <trkpt lat="42.9436618" lon="-5.7196025">
        <ele>1241.01</ele>
        <time>2020-07-21T09:09:52.000Z</time>
      </trkpt>
      <trkpt lat="42.9436713" lon="-5.7196123">
        <ele>1240.7</ele>
        <time>2020-07-21T09:09:53.000Z</time>
      </trkpt>
      <trkpt lat="42.943681" lon="-5.719621">
        <ele>1240.7</ele>
        <time>2020-07-21T09:09:54.000Z</time>
      </trkpt>
      <trkpt lat="42.9436912" lon="-5.7196285">
        <ele>1240.4</ele>
        <time>2020-07-21T09:09:55.000Z</time>
      </trkpt>
      <trkpt lat="42.9437008" lon="-5.7196358">
        <ele>1240.4</ele>
        <time>2020-07-21T09:09:56.000Z</time>
      </trkpt>
      <trkpt lat="42.9437097" lon="-5.7196442">
        <ele>1240.25</ele>
        <time>2020-07-21T09:09:57.000Z</time>
      </trkpt>
      <trkpt lat="42.9437188" lon="-5.7196523">
        <ele>1240.25</ele>
        <time>2020-07-21T09:09:58.000Z</time>
      </trkpt>
      <trkpt lat="42.9437288" lon="-5.719661">
        <ele>1239.94</ele>
        <time>2020-07-21T09:09:59.000Z</time>
      </trkpt>
      <trkpt lat="42.94374" lon="-5.7196685">
        <ele>1239.94</ele>
        <time>2020-07-21T09:10:00.000Z</time>
      </trkpt>
      <trkpt lat="42.9437508" lon="-5.7196753">
        <ele>1239.79</ele>
        <time>2020-07-21T09:10:01.000Z</time>
      </trkpt>
      <trkpt lat="42.9437605" lon="-5.7196807">
        <ele>1239.79</ele>
        <time>2020-07-21T09:10:02.000Z</time>
      </trkpt>
      <trkpt lat="42.943771" lon="-5.719687">
        <ele>1239.64</ele>
        <time>2020-07-21T09:10:03.000Z</time>
      </trkpt>
      <trkpt lat="42.943783" lon="-5.7196938">
        <ele>1239.64</ele>
        <time>2020-07-21T09:10:04.000Z</time>
      </trkpt>
      <trkpt lat="42.9437957" lon="-5.719702">
        <ele>1239.48</ele>
        <time>2020-07-21T09:10:05.000Z</time>
      </trkpt>
      <trkpt lat="42.94381" lon="-5.7197095">
        <ele>1239.48</ele>
        <time>2020-07-21T09:10:06.000Z</time>
      </trkpt>
      <trkpt lat="42.943822" lon="-5.7197188">
        <ele>1239.33</ele>
        <time>2020-07-21T09:10:07.000Z</time>
      </trkpt>
      <trkpt lat="42.9438345" lon="-5.7197277">
        <ele>1239.33</ele>
        <time>2020-07-21T09:10:08.000Z</time>
      </trkpt>
      <trkpt lat="42.9438438" lon="-5.7197363">
        <ele>1239.18</ele>
        <time>2020-07-21T09:10:09.000Z</time>
      </trkpt>
      <trkpt lat="42.943854" lon="-5.7197442">
        <ele>1239.18</ele>
        <time>2020-07-21T09:10:10.000Z</time>
      </trkpt>
      <trkpt lat="42.9438633" lon="-5.7197542">
        <ele>1239.03</ele>
        <time>2020-07-21T09:10:11.000Z</time>
      </trkpt>
      <trkpt lat="42.9438757" lon="-5.719764">
        <ele>1239.03</ele>
        <time>2020-07-21T09:10:12.000Z</time>
      </trkpt>
      <trkpt lat="42.9438905" lon="-5.7197725">
        <ele>1238.88</ele>
        <time>2020-07-21T09:10:13.000Z</time>
      </trkpt>
      <trkpt lat="42.9439068" lon="-5.7197798">
        <ele>1238.88</ele>
        <time>2020-07-21T09:10:14.000Z</time>
      </trkpt>
      <trkpt lat="42.9439208" lon="-5.7197872">
        <ele>1238.72</ele>
        <time>2020-07-21T09:10:15.000Z</time>
      </trkpt>
      <trkpt lat="42.9439305" lon="-5.7197928">
        <ele>1238.72</ele>
        <time>2020-07-21T09:10:16.000Z</time>
      </trkpt>
      <trkpt lat="42.9439367" lon="-5.719796">
        <ele>1238.72</ele>
        <time>2020-07-21T09:10:17.000Z</time>
      </trkpt>
      <trkpt lat="42.9439418" lon="-5.7197975">
        <ele>1238.72</ele>
        <time>2020-07-21T09:10:18.000Z</time>
      </trkpt>
      <trkpt lat="42.9439482" lon="-5.7197983">
        <ele>1238.57</ele>
        <time>2020-07-21T09:10:19.000Z</time>
      </trkpt>
      <trkpt lat="42.9439567" lon="-5.7197987">
        <ele>1238.57</ele>
        <time>2020-07-21T09:10:20.000Z</time>
      </trkpt>
      <trkpt lat="42.943965" lon="-5.7197983">
        <ele>1238.42</ele>
        <time>2020-07-21T09:10:21.000Z</time>
      </trkpt>
      <trkpt lat="42.9439718" lon="-5.7197988">
        <ele>1238.42</ele>
        <time>2020-07-21T09:10:22.000Z</time>
      </trkpt>
      <trkpt lat="42.9439765" lon="-5.7198007">
        <ele>1238.42</ele>
        <time>2020-07-21T09:10:23.000Z</time>
      </trkpt>
      <trkpt lat="42.9439782" lon="-5.7198042">
        <ele>1238.42</ele>
        <time>2020-07-21T09:10:24.000Z</time>
      </trkpt>
      <trkpt lat="42.9439782" lon="-5.7198072">
        <ele>1238.27</ele>
        <time>2020-07-21T09:10:25.000Z</time>
      </trkpt>
      <trkpt lat="42.943977" lon="-5.7198102">
        <ele>1238.27</ele>
        <time>2020-07-21T09:10:26.000Z</time>
      </trkpt>
      <trkpt lat="42.9439762" lon="-5.7198122">
        <ele>1238.11</ele>
        <time>2020-07-21T09:10:27.000Z</time>
      </trkpt>
      <trkpt lat="42.9439753" lon="-5.7198135">
        <ele>1238.11</ele>
        <time>2020-07-21T09:10:28.000Z</time>
      </trkpt>
      <trkpt lat="42.9439745" lon="-5.7198142">
        <ele>1237.96</ele>
        <time>2020-07-21T09:10:29.000Z</time>
      </trkpt>
      <trkpt lat="42.9439738" lon="-5.7198148">
        <ele>1237.96</ele>
        <time>2020-07-21T09:10:30.000Z</time>
      </trkpt>
      <trkpt lat="42.943974" lon="-5.7198162">
        <ele>1237.81</ele>
        <time>2020-07-21T09:10:31.000Z</time>
      </trkpt>
      <trkpt lat="42.943976" lon="-5.7198175">
        <ele>1237.81</ele>
        <time>2020-07-21T09:10:32.000Z</time>
      </trkpt>
      <trkpt lat="42.9439792" lon="-5.7198188">
        <ele>1237.66</ele>
        <time>2020-07-21T09:10:33.000Z</time>
      </trkpt>
      <trkpt lat="42.943982" lon="-5.719821">
        <ele>1237.66</ele>
        <time>2020-07-21T09:10:34.000Z</time>
      </trkpt>
      <trkpt lat="42.943983" lon="-5.7198247">
        <ele>1237.5</ele>
        <time>2020-07-21T09:10:35.000Z</time>
      </trkpt>
      <trkpt lat="42.9439823" lon="-5.7198287">
        <ele>1237.5</ele>
        <time>2020-07-21T09:10:36.000Z</time>
      </trkpt>
      <trkpt lat="42.9439803" lon="-5.719832">
        <ele>1237.5</ele>
        <time>2020-07-21T09:10:37.000Z</time>
      </trkpt>
      <trkpt lat="42.9439785" lon="-5.7198345">
        <ele>1237.5</ele>
        <time>2020-07-21T09:10:38.000Z</time>
      </trkpt>
      <trkpt lat="42.9439768" lon="-5.7198378">
        <ele>1237.35</ele>
        <time>2020-07-21T09:10:39.000Z</time>
      </trkpt>
      <trkpt lat="42.9439748" lon="-5.7198417">
        <ele>1237.35</ele>
        <time>2020-07-21T09:10:40.000Z</time>
      </trkpt>
      <trkpt lat="42.9439722" lon="-5.7198462">
        <ele>1237.2</ele>
        <time>2020-07-21T09:10:41.000Z</time>
      </trkpt>
      <trkpt lat="42.9439693" lon="-5.7198508">
        <ele>1237.2</ele>
        <time>2020-07-21T09:10:42.000Z</time>
      </trkpt>
      <trkpt lat="42.9439665" lon="-5.719856">
        <ele>1237.05</ele>
        <time>2020-07-21T09:10:43.000Z</time>
      </trkpt>
      <trkpt lat="42.9439643" lon="-5.719861">
        <ele>1237.05</ele>
        <time>2020-07-21T09:10:44.000Z</time>
      </trkpt>
      <trkpt lat="42.9439628" lon="-5.7198653">
        <ele>1236.89</ele>
        <time>2020-07-21T09:10:45.000Z</time>
      </trkpt>
      <trkpt lat="42.943962" lon="-5.7198687">
        <ele>1236.89</ele>
        <time>2020-07-21T09:10:46.000Z</time>
      </trkpt>
      <trkpt lat="42.9439622" lon="-5.719871">
        <ele>1236.59</ele>
        <time>2020-07-21T09:10:47.000Z</time>
      </trkpt>
      <trkpt lat="42.943964" lon="-5.719873">
        <ele>1236.59</ele>
        <time>2020-07-21T09:10:48.000Z</time>
      </trkpt>
      <trkpt lat="42.9439668" lon="-5.7198748">
        <ele>1236.44</ele>
        <time>2020-07-21T09:10:49.000Z</time>
      </trkpt>
      <trkpt lat="42.9439705" lon="-5.7198767">
        <ele>1236.44</ele>
        <time>2020-07-21T09:10:50.000Z</time>
      </trkpt>
      <trkpt lat="42.9439747" lon="-5.7198768">
        <ele>1236.13</ele>
        <time>2020-07-21T09:10:51.000Z</time>
      </trkpt>
      <trkpt lat="42.9439788" lon="-5.7198765">
        <ele>1236.13</ele>
        <time>2020-07-21T09:10:52.000Z</time>
      </trkpt>
      <trkpt lat="42.9439828" lon="-5.7198742">
        <ele>1235.98</ele>
        <time>2020-07-21T09:10:53.000Z</time>
      </trkpt>
      <trkpt lat="42.9439845" lon="-5.719873">
        <ele>1235.98</ele>
        <time>2020-07-21T09:10:54.000Z</time>
      </trkpt>
      <trkpt lat="42.9439853" lon="-5.7198717">
        <ele>1235.67</ele>
        <time>2020-07-21T09:10:55.000Z</time>
      </trkpt>
      <trkpt lat="42.9439858" lon="-5.7198713">
        <ele>1235.67</ele>
        <time>2020-07-21T09:10:56.000Z</time>
      </trkpt>
      <trkpt lat="42.943987" lon="-5.7198702">
        <ele>1235.37</ele>
        <time>2020-07-21T09:10:57.000Z</time>
      </trkpt>
      <trkpt lat="42.9439882" lon="-5.7198683">
        <ele>1235.37</ele>
        <time>2020-07-21T09:10:58.000Z</time>
      </trkpt>
      <trkpt lat="42.9439892" lon="-5.7198665">
        <ele>1234.91</ele>
        <time>2020-07-21T09:10:59.000Z</time>
      </trkpt>
      <trkpt lat="42.9439907" lon="-5.7198652">
        <ele>1234.91</ele>
        <time>2020-07-21T09:11:00.000Z</time>
      </trkpt>
      <trkpt lat="42.9439922" lon="-5.7198642">
        <ele>1234.61</ele>
        <time>2020-07-21T09:11:01.000Z</time>
      </trkpt>
      <trkpt lat="42.9439948" lon="-5.719863">
        <ele>1234.61</ele>
        <time>2020-07-21T09:11:02.000Z</time>
      </trkpt>
      <trkpt lat="42.9440008" lon="-5.719857">
        <ele>1234.3</ele>
        <time>2020-07-21T09:11:03.000Z</time>
      </trkpt>
      <trkpt lat="42.9440085" lon="-5.7198492">
        <ele>1234.3</ele>
        <time>2020-07-21T09:11:04.000Z</time>
      </trkpt>
      <trkpt lat="42.9440172" lon="-5.7198398">
        <ele>1234</ele>
        <time>2020-07-21T09:11:05.000Z</time>
      </trkpt>
      <trkpt lat="42.9440265" lon="-5.7198353">
        <ele>1234</ele>
        <time>2020-07-21T09:11:06.000Z</time>
      </trkpt>
      <trkpt lat="42.9440377" lon="-5.7198323">
        <ele>1233.84</ele>
        <time>2020-07-21T09:11:07.000Z</time>
      </trkpt>
      <trkpt lat="42.9440502" lon="-5.7198317">
        <ele>1233.84</ele>
        <time>2020-07-21T09:11:08.000Z</time>
      </trkpt>
      <trkpt lat="42.9440628" lon="-5.7198308">
        <ele>1233.69</ele>
        <time>2020-07-21T09:11:09.000Z</time>
      </trkpt>
      <trkpt lat="42.944076" lon="-5.7198303">
        <ele>1233.69</ele>
        <time>2020-07-21T09:11:10.000Z</time>
      </trkpt>
      <trkpt lat="42.9440887" lon="-5.7198308">
        <ele>1233.39</ele>
        <time>2020-07-21T09:11:11.000Z</time>
      </trkpt>
      <trkpt lat="42.9441017" lon="-5.7198312">
        <ele>1233.39</ele>
        <time>2020-07-21T09:11:12.000Z</time>
      </trkpt>
      <trkpt lat="42.9441128" lon="-5.7198307">
        <ele>1233.24</ele>
        <time>2020-07-21T09:11:13.000Z</time>
      </trkpt>
      <trkpt lat="42.9441238" lon="-5.7198302">
        <ele>1233.24</ele>
        <time>2020-07-21T09:11:14.000Z</time>
      </trkpt>
      <trkpt lat="42.9441317" lon="-5.7198327">
        <ele>1233.24</ele>
        <time>2020-07-21T09:11:15.000Z</time>
      </trkpt>
      <trkpt lat="42.9441397" lon="-5.719838">
        <ele>1233.24</ele>
        <time>2020-07-21T09:11:16.000Z</time>
      </trkpt>
      <trkpt lat="42.944149" lon="-5.719845">
        <ele>1233.08</ele>
        <time>2020-07-21T09:11:17.000Z</time>
      </trkpt>
      <trkpt lat="42.9441617" lon="-5.7198515">
        <ele>1233.08</ele>
        <time>2020-07-21T09:11:18.000Z</time>
      </trkpt>
      <trkpt lat="42.9441738" lon="-5.7198588">
        <ele>1232.93</ele>
        <time>2020-07-21T09:11:19.000Z</time>
      </trkpt>
      <trkpt lat="42.9441843" lon="-5.7198673">
        <ele>1232.93</ele>
        <time>2020-07-21T09:11:20.000Z</time>
      </trkpt>
      <trkpt lat="42.944194" lon="-5.7198813">
        <ele>1232.78</ele>
        <time>2020-07-21T09:11:21.000Z</time>
      </trkpt>
      <trkpt lat="42.9442065" lon="-5.7198975">
        <ele>1232.78</ele>
        <time>2020-07-21T09:11:22.000Z</time>
      </trkpt>
      <trkpt lat="42.9442197" lon="-5.719913">
        <ele>1232.78</ele>
        <time>2020-07-21T09:11:23.000Z</time>
      </trkpt>
      <trkpt lat="42.9442328" lon="-5.7199247">
        <ele>1232.78</ele>
        <time>2020-07-21T09:11:24.000Z</time>
      </trkpt>
      <trkpt lat="42.9442447" lon="-5.7199337">
        <ele>1232.63</ele>
        <time>2020-07-21T09:11:25.000Z</time>
      </trkpt>
      <trkpt lat="42.9442573" lon="-5.7199423">
        <ele>1232.63</ele>
        <time>2020-07-21T09:11:26.000Z</time>
      </trkpt>
      <trkpt lat="42.9442697" lon="-5.719951">
        <ele>1232.63</ele>
        <time>2020-07-21T09:11:27.000Z</time>
      </trkpt>
      <trkpt lat="42.944281" lon="-5.7199612">
        <ele>1232.63</ele>
        <time>2020-07-21T09:11:28.000Z</time>
      </trkpt>
      <trkpt lat="42.9442913" lon="-5.7199718">
        <ele>1232.47</ele>
        <time>2020-07-21T09:11:29.000Z</time>
      </trkpt>
      <trkpt lat="42.9443008" lon="-5.7199832">
        <ele>1232.47</ele>
        <time>2020-07-21T09:11:30.000Z</time>
      </trkpt>
      <trkpt lat="42.9443108" lon="-5.7199937">
        <ele>1232.32</ele>
        <time>2020-07-21T09:11:31.000Z</time>
      </trkpt>
      <trkpt lat="42.9443207" lon="-5.7200043">
        <ele>1232.32</ele>
        <time>2020-07-21T09:11:32.000Z</time>
      </trkpt>
      <trkpt lat="42.9443323" lon="-5.7200137">
        <ele>1232.32</ele>
        <time>2020-07-21T09:11:33.000Z</time>
      </trkpt>
      <trkpt lat="42.9443447" lon="-5.7200223">
        <ele>1232.32</ele>
        <time>2020-07-21T09:11:34.000Z</time>
      </trkpt>
      <trkpt lat="42.9443565" lon="-5.7200317">
        <ele>1232.17</ele>
        <time>2020-07-21T09:11:35.000Z</time>
      </trkpt>
      <trkpt lat="42.9443667" lon="-5.7200418">
        <ele>1232.17</ele>
        <time>2020-07-21T09:11:36.000Z</time>
      </trkpt>
      <trkpt lat="42.9443765" lon="-5.7200525">
        <ele>1232.17</ele>
        <time>2020-07-21T09:11:37.000Z</time>
      </trkpt>
      <trkpt lat="42.9443858" lon="-5.7200632">
        <ele>1232.17</ele>
        <time>2020-07-21T09:11:38.000Z</time>
      </trkpt>
      <trkpt lat="42.9443952" lon="-5.7200743">
        <ele>1232.02</ele>
        <time>2020-07-21T09:11:39.000Z</time>
      </trkpt>
      <trkpt lat="42.9444048" lon="-5.7200857">
        <ele>1232.02</ele>
        <time>2020-07-21T09:11:40.000Z</time>
      </trkpt>
      <trkpt lat="42.9444148" lon="-5.7200958">
        <ele>1232.02</ele>
        <time>2020-07-21T09:11:41.000Z</time>
      </trkpt>
      <trkpt lat="42.9444258" lon="-5.7201052">
        <ele>1232.02</ele>
        <time>2020-07-21T09:11:42.000Z</time>
      </trkpt>
      <trkpt lat="42.9444362" lon="-5.720115">
        <ele>1231.86</ele>
        <time>2020-07-21T09:11:43.000Z</time>
      </trkpt>
      <trkpt lat="42.9444452" lon="-5.7201262">
        <ele>1231.86</ele>
        <time>2020-07-21T09:11:44.000Z</time>
      </trkpt>
      <trkpt lat="42.9444532" lon="-5.7201378">
        <ele>1231.86</ele>
        <time>2020-07-21T09:11:45.000Z</time>
      </trkpt>
      <trkpt lat="42.9444603" lon="-5.7201513">
        <ele>1231.86</ele>
        <time>2020-07-21T09:11:46.000Z</time>
      </trkpt>
      <trkpt lat="42.9444688" lon="-5.7201648">
        <ele>1231.71</ele>
        <time>2020-07-21T09:11:47.000Z</time>
      </trkpt>
      <trkpt lat="42.9444773" lon="-5.720183">
        <ele>1231.71</ele>
        <time>2020-07-21T09:11:48.000Z</time>
      </trkpt>
      <trkpt lat="42.9444862" lon="-5.7202005">
        <ele>1231.56</ele>
        <time>2020-07-21T09:11:49.000Z</time>
      </trkpt>
      <trkpt lat="42.9444938" lon="-5.7202192">
        <ele>1231.56</ele>
        <time>2020-07-21T09:11:50.000Z</time>
      </trkpt>
      <trkpt lat="42.9444998" lon="-5.7202347">
        <ele>1231.56</ele>
        <time>2020-07-21T09:11:51.000Z</time>
      </trkpt>
      <trkpt lat="42.9445062" lon="-5.7202495">
        <ele>1231.56</ele>
        <time>2020-07-21T09:11:52.000Z</time>
      </trkpt>
      <trkpt lat="42.944513" lon="-5.720262">
        <ele>1231.41</ele>
        <time>2020-07-21T09:11:53.000Z</time>
      </trkpt>
      <trkpt lat="42.9445217" lon="-5.7202715">
        <ele>1231.41</ele>
        <time>2020-07-21T09:11:54.000Z</time>
      </trkpt>
      <trkpt lat="42.9445317" lon="-5.7202808">
        <ele>1231.26</ele>
        <time>2020-07-21T09:11:55.000Z</time>
      </trkpt>
      <trkpt lat="42.9445423" lon="-5.72029">
        <ele>1231.26</ele>
        <time>2020-07-21T09:11:56.000Z</time>
      </trkpt>
      <trkpt lat="42.9445532" lon="-5.7202998">
        <ele>1231.26</ele>
        <time>2020-07-21T09:11:57.000Z</time>
      </trkpt>
      <trkpt lat="42.944564" lon="-5.7203085">
        <ele>1231.26</ele>
        <time>2020-07-21T09:11:58.000Z</time>
      </trkpt>
      <trkpt lat="42.9445738" lon="-5.7203173">
        <ele>1231.1</ele>
        <time>2020-07-21T09:11:59.000Z</time>
      </trkpt>
      <trkpt lat="42.9445843" lon="-5.7203253">
        <ele>1231.1</ele>
        <time>2020-07-21T09:12:00.000Z</time>
      </trkpt>
      <trkpt lat="42.9445932" lon="-5.7203338">
        <ele>1230.95</ele>
        <time>2020-07-21T09:12:01.000Z</time>
      </trkpt>
      <trkpt lat="42.9446027" lon="-5.7203417">
        <ele>1230.95</ele>
        <time>2020-07-21T09:12:02.000Z</time>
      </trkpt>
      <trkpt lat="42.9446127" lon="-5.7203503">
        <ele>1230.95</ele>
        <time>2020-07-21T09:12:03.000Z</time>
      </trkpt>
      <trkpt lat="42.944623" lon="-5.7203583">
        <ele>1230.95</ele>
        <time>2020-07-21T09:12:04.000Z</time>
      </trkpt>
      <trkpt lat="42.9446338" lon="-5.7203672">
        <ele>1230.8</ele>
        <time>2020-07-21T09:12:05.000Z</time>
      </trkpt>
      <trkpt lat="42.9446438" lon="-5.7203755">
        <ele>1230.8</ele>
        <time>2020-07-21T09:12:06.000Z</time>
      </trkpt>
      <trkpt lat="42.9446538" lon="-5.7203847">
        <ele>1230.8</ele>
        <time>2020-07-21T09:12:07.000Z</time>
      </trkpt>
      <trkpt lat="42.9446633" lon="-5.7203943">
        <ele>1230.8</ele>
        <time>2020-07-21T09:12:08.000Z</time>
      </trkpt>
      <trkpt lat="42.9446723" lon="-5.7204042">
        <ele>1230.65</ele>
        <time>2020-07-21T09:12:09.000Z</time>
      </trkpt>
      <trkpt lat="42.9446805" lon="-5.7204133">
        <ele>1230.65</ele>
        <time>2020-07-21T09:12:10.000Z</time>
      </trkpt>
      <trkpt lat="42.9446875" lon="-5.720422">
        <ele>1230.49</ele>
        <time>2020-07-21T09:12:11.000Z</time>
      </trkpt>
      <trkpt lat="42.9446943" lon="-5.720431">
        <ele>1230.49</ele>
        <time>2020-07-21T09:12:12.000Z</time>
      </trkpt>
      <trkpt lat="42.9447018" lon="-5.7204412">
        <ele>1230.49</ele>
        <time>2020-07-21T09:12:13.000Z</time>
      </trkpt>
      <trkpt lat="42.9447102" lon="-5.7204515">
        <ele>1230.49</ele>
        <time>2020-07-21T09:12:14.000Z</time>
      </trkpt>
      <trkpt lat="42.9447198" lon="-5.7204612">
        <ele>1230.34</ele>
        <time>2020-07-21T09:12:15.000Z</time>
      </trkpt>
      <trkpt lat="42.9447298" lon="-5.720471">
        <ele>1230.34</ele>
        <time>2020-07-21T09:12:16.000Z</time>
      </trkpt>
      <trkpt lat="42.9447405" lon="-5.7204793">
        <ele>1230.34</ele>
        <time>2020-07-21T09:12:17.000Z</time>
      </trkpt>
      <trkpt lat="42.9447505" lon="-5.7204888">
        <ele>1230.34</ele>
        <time>2020-07-21T09:12:18.000Z</time>
      </trkpt>
      <trkpt lat="42.944761" lon="-5.7204982">
        <ele>1230.19</ele>
        <time>2020-07-21T09:12:19.000Z</time>
      </trkpt>
      <trkpt lat="42.9447702" lon="-5.7205082">
        <ele>1230.19</ele>
        <time>2020-07-21T09:12:20.000Z</time>
      </trkpt>
      <trkpt lat="42.9447792" lon="-5.7205172">
        <ele>1230.04</ele>
        <time>2020-07-21T09:12:21.000Z</time>
      </trkpt>
      <trkpt lat="42.9447882" lon="-5.7205258">
        <ele>1230.04</ele>
        <time>2020-07-21T09:12:22.000Z</time>
      </trkpt>
      <trkpt lat="42.9448002" lon="-5.7205335">
        <ele>1229.88</ele>
        <time>2020-07-21T09:12:23.000Z</time>
      </trkpt>
      <trkpt lat="42.9448132" lon="-5.720539">
        <ele>1229.88</ele>
        <time>2020-07-21T09:12:24.000Z</time>
      </trkpt>
      <trkpt lat="42.9448243" lon="-5.7205472">
        <ele>1229.88</ele>
        <time>2020-07-21T09:12:25.000Z</time>
      </trkpt>
      <trkpt lat="42.9448325" lon="-5.7205597">
        <ele>1229.88</ele>
        <time>2020-07-21T09:12:26.000Z</time>
      </trkpt>
      <trkpt lat="42.9448395" lon="-5.720576">
        <ele>1229.88</ele>
        <time>2020-07-21T09:12:27.000Z</time>
      </trkpt>
      <trkpt lat="42.9448465" lon="-5.7205918">
        <ele>1229.88</ele>
        <time>2020-07-21T09:12:28.000Z</time>
      </trkpt>
      <trkpt lat="42.9448528" lon="-5.7206055">
        <ele>1229.88</ele>
        <time>2020-07-21T09:12:29.000Z</time>
      </trkpt>
      <trkpt lat="42.9448587" lon="-5.7206185">
        <ele>1229.88</ele>
        <time>2020-07-21T09:12:30.000Z</time>
      </trkpt>
      <trkpt lat="42.9448648" lon="-5.7206305">
        <ele>1230.04</ele>
        <time>2020-07-21T09:12:31.000Z</time>
      </trkpt>
      <trkpt lat="42.944872" lon="-5.720642">
        <ele>1230.04</ele>
        <time>2020-07-21T09:12:32.000Z</time>
      </trkpt>
      <trkpt lat="42.9448792" lon="-5.7206542">
        <ele>1230.19</ele>
        <time>2020-07-21T09:12:33.000Z</time>
      </trkpt>
      <trkpt lat="42.9448855" lon="-5.7206667">
        <ele>1230.19</ele>
        <time>2020-07-21T09:12:34.000Z</time>
      </trkpt>
      <trkpt lat="42.9448887" lon="-5.7206808">
        <ele>1230.19</ele>
        <time>2020-07-21T09:12:35.000Z</time>
      </trkpt>
      <trkpt lat="42.9448923" lon="-5.7206947">
        <ele>1230.19</ele>
        <time>2020-07-21T09:12:36.000Z</time>
      </trkpt>
      <trkpt lat="42.9448963" lon="-5.7207082">
        <ele>1230.34</ele>
        <time>2020-07-21T09:12:37.000Z</time>
      </trkpt>
      <trkpt lat="42.9449042" lon="-5.7207215">
        <ele>1230.34</ele>
        <time>2020-07-21T09:12:38.000Z</time>
      </trkpt>
      <trkpt lat="42.9449123" lon="-5.7207355">
        <ele>1230.49</ele>
        <time>2020-07-21T09:12:39.000Z</time>
      </trkpt>
      <trkpt lat="42.9449217" lon="-5.72075">
        <ele>1230.49</ele>
        <time>2020-07-21T09:12:40.000Z</time>
      </trkpt>
      <trkpt lat="42.9449305" lon="-5.720763">
        <ele>1230.49</ele>
        <time>2020-07-21T09:12:41.000Z</time>
      </trkpt>
      <trkpt lat="42.9449398" lon="-5.7207755">
        <ele>1230.49</ele>
        <time>2020-07-21T09:12:42.000Z</time>
      </trkpt>
      <trkpt lat="42.9449493" lon="-5.7207873">
        <ele>1230.65</ele>
        <time>2020-07-21T09:12:43.000Z</time>
      </trkpt>
      <trkpt lat="42.9449588" lon="-5.7208003">
        <ele>1230.65</ele>
        <time>2020-07-21T09:12:44.000Z</time>
      </trkpt>
      <trkpt lat="42.9449688" lon="-5.7208127">
        <ele>1230.8</ele>
        <time>2020-07-21T09:12:45.000Z</time>
      </trkpt>
      <trkpt lat="42.9449785" lon="-5.7208255">
        <ele>1230.8</ele>
        <time>2020-07-21T09:12:46.000Z</time>
      </trkpt>
      <trkpt lat="42.9449888" lon="-5.7208382">
        <ele>1230.95</ele>
        <time>2020-07-21T09:12:47.000Z</time>
      </trkpt>
      <trkpt lat="42.9449987" lon="-5.720852">
        <ele>1230.95</ele>
        <time>2020-07-21T09:12:48.000Z</time>
      </trkpt>
      <trkpt lat="42.9450083" lon="-5.7208658">
        <ele>1231.1</ele>
        <time>2020-07-21T09:12:49.000Z</time>
      </trkpt>
      <trkpt lat="42.9450167" lon="-5.7208793">
        <ele>1231.1</ele>
        <time>2020-07-21T09:12:50.000Z</time>
      </trkpt>
      <trkpt lat="42.9450243" lon="-5.7208925">
        <ele>1231.1</ele>
        <time>2020-07-21T09:12:51.000Z</time>
      </trkpt>
      <trkpt lat="42.9450317" lon="-5.7209067">
        <ele>1231.1</ele>
        <time>2020-07-21T09:12:52.000Z</time>
      </trkpt>
      <trkpt lat="42.9450377" lon="-5.720924">
        <ele>1231.26</ele>
        <time>2020-07-21T09:12:53.000Z</time>
      </trkpt>
      <trkpt lat="42.9450493" lon="-5.7209597">
        <ele>1231.26</ele>
        <time>2020-07-21T09:12:54.000Z</time>
      </trkpt>
      <trkpt lat="42.9450572" lon="-5.7209745">
        <ele>1231.26</ele>
        <time>2020-07-21T09:12:55.000Z</time>
      </trkpt>
      <trkpt lat="42.9450647" lon="-5.7209897">
        <ele>1231.26</ele>
        <time>2020-07-21T09:12:56.000Z</time>
      </trkpt>
      <trkpt lat="42.945072" lon="-5.7210043">
        <ele>1231.26</ele>
        <time>2020-07-21T09:12:57.000Z</time>
      </trkpt>
      <trkpt lat="42.945072" lon="-5.7210043">
        <ele>1231.26</ele>
        <time>2020-07-21T09:12:58.000Z</time>
      </trkpt>
      <trkpt lat="42.9450782" lon="-5.7210202">
        <ele>1231.41</ele>
        <time>2020-07-21T09:12:59.000Z</time>
      </trkpt>
      <trkpt lat="42.9450868" lon="-5.7210332">
        <ele>1231.41</ele>
        <time>2020-07-21T09:13:00.000Z</time>
      </trkpt>
      <trkpt lat="42.9450968" lon="-5.7210447">
        <ele>1231.41</ele>
        <time>2020-07-21T09:13:01.000Z</time>
      </trkpt>
      <trkpt lat="42.9451078" lon="-5.7210555">
        <ele>1231.41</ele>
        <time>2020-07-21T09:13:02.000Z</time>
      </trkpt>
      <trkpt lat="42.9451172" lon="-5.7210692">
        <ele>1231.41</ele>
        <time>2020-07-21T09:13:03.000Z</time>
      </trkpt>
      <trkpt lat="42.9451265" lon="-5.7210832">
        <ele>1231.41</ele>
        <time>2020-07-21T09:13:04.000Z</time>
      </trkpt>
      <trkpt lat="42.9451368" lon="-5.7210963">
        <ele>1231.41</ele>
        <time>2020-07-21T09:13:05.000Z</time>
      </trkpt>
      <trkpt lat="42.9451487" lon="-5.7211082">
        <ele>1231.41</ele>
        <time>2020-07-21T09:13:06.000Z</time>
      </trkpt>
      <trkpt lat="42.9451603" lon="-5.7211202">
        <ele>1231.41</ele>
        <time>2020-07-21T09:13:07.000Z</time>
      </trkpt>
      <trkpt lat="42.9451713" lon="-5.7211327">
        <ele>1231.41</ele>
        <time>2020-07-21T09:13:08.000Z</time>
      </trkpt>
      <trkpt lat="42.9451815" lon="-5.7211448">
        <ele>1231.41</ele>
        <time>2020-07-21T09:13:09.000Z</time>
      </trkpt>
      <trkpt lat="42.9451932" lon="-5.7211572">
        <ele>1231.41</ele>
        <time>2020-07-21T09:13:10.000Z</time>
      </trkpt>
      <trkpt lat="42.9452048" lon="-5.7211683">
        <ele>1231.41</ele>
        <time>2020-07-21T09:13:11.000Z</time>
      </trkpt>
      <trkpt lat="42.9452163" lon="-5.7211795">
        <ele>1231.41</ele>
        <time>2020-07-21T09:13:12.000Z</time>
      </trkpt>
      <trkpt lat="42.9452262" lon="-5.7211902">
        <ele>1231.41</ele>
        <time>2020-07-21T09:13:13.000Z</time>
      </trkpt>
      <trkpt lat="42.9452367" lon="-5.7212005">
        <ele>1231.41</ele>
        <time>2020-07-21T09:13:14.000Z</time>
      </trkpt>
      <trkpt lat="42.9452465" lon="-5.7212097">
        <ele>1231.26</ele>
        <time>2020-07-21T09:13:15.000Z</time>
      </trkpt>
      <trkpt lat="42.9452568" lon="-5.7212188">
        <ele>1231.26</ele>
        <time>2020-07-21T09:13:16.000Z</time>
      </trkpt>
      <trkpt lat="42.9452675" lon="-5.7212287">
        <ele>1231.1</ele>
        <time>2020-07-21T09:13:17.000Z</time>
      </trkpt>
      <trkpt lat="42.9452793" lon="-5.7212397">
        <ele>1231.1</ele>
        <time>2020-07-21T09:13:18.000Z</time>
      </trkpt>
      <trkpt lat="42.9452913" lon="-5.7212512">
        <ele>1230.95</ele>
        <time>2020-07-21T09:13:19.000Z</time>
      </trkpt>
      <trkpt lat="42.945302" lon="-5.7212625">
        <ele>1230.95</ele>
        <time>2020-07-21T09:13:20.000Z</time>
      </trkpt>
      <trkpt lat="42.9453123" lon="-5.7212743">
        <ele>1230.95</ele>
        <time>2020-07-21T09:13:21.000Z</time>
      </trkpt>
      <trkpt lat="42.9453222" lon="-5.7212862">
        <ele>1230.95</ele>
        <time>2020-07-21T09:13:22.000Z</time>
      </trkpt>
      <trkpt lat="42.945332" lon="-5.7212983">
        <ele>1230.8</ele>
        <time>2020-07-21T09:13:23.000Z</time>
      </trkpt>
      <trkpt lat="42.9453417" lon="-5.7213102">
        <ele>1230.8</ele>
        <time>2020-07-21T09:13:24.000Z</time>
      </trkpt>
      <trkpt lat="42.9453515" lon="-5.7213212">
        <ele>1230.65</ele>
        <time>2020-07-21T09:13:25.000Z</time>
      </trkpt>
      <trkpt lat="42.9453612" lon="-5.7213322">
        <ele>1230.65</ele>
        <time>2020-07-21T09:13:26.000Z</time>
      </trkpt>
      <trkpt lat="42.9453707" lon="-5.7213433">
        <ele>1230.49</ele>
        <time>2020-07-21T09:13:27.000Z</time>
      </trkpt>
      <trkpt lat="42.9453795" lon="-5.7213543">
        <ele>1230.49</ele>
        <time>2020-07-21T09:13:28.000Z</time>
      </trkpt>
      <trkpt lat="42.9453883" lon="-5.7213647">
        <ele>1230.34</ele>
        <time>2020-07-21T09:13:29.000Z</time>
      </trkpt>
      <trkpt lat="42.9453967" lon="-5.721374">
        <ele>1230.34</ele>
        <time>2020-07-21T09:13:30.000Z</time>
      </trkpt>
      <trkpt lat="42.9454052" lon="-5.7213835">
        <ele>1230.19</ele>
        <time>2020-07-21T09:13:31.000Z</time>
      </trkpt>
      <trkpt lat="42.9454145" lon="-5.7213932">
        <ele>1230.19</ele>
        <time>2020-07-21T09:13:32.000Z</time>
      </trkpt>
      <trkpt lat="42.9454248" lon="-5.7214032">
        <ele>1230.04</ele>
        <time>2020-07-21T09:13:33.000Z</time>
      </trkpt>
      <trkpt lat="42.945436" lon="-5.7214133">
        <ele>1230.04</ele>
        <time>2020-07-21T09:13:34.000Z</time>
      </trkpt>
      <trkpt lat="42.945447" lon="-5.7214232">
        <ele>1229.88</ele>
        <time>2020-07-21T09:13:35.000Z</time>
      </trkpt>
      <trkpt lat="42.9454578" lon="-5.721433">
        <ele>1229.88</ele>
        <time>2020-07-21T09:13:36.000Z</time>
      </trkpt>
      <trkpt lat="42.9454667" lon="-5.7214447">
        <ele>1229.88</ele>
        <time>2020-07-21T09:13:37.000Z</time>
      </trkpt>
      <trkpt lat="42.9454748" lon="-5.7214577">
        <ele>1229.88</ele>
        <time>2020-07-21T09:13:38.000Z</time>
      </trkpt>
      <trkpt lat="42.9454822" lon="-5.7214718">
        <ele>1229.73</ele>
        <time>2020-07-21T09:13:39.000Z</time>
      </trkpt>
      <trkpt lat="42.94549" lon="-5.7214843">
        <ele>1229.73</ele>
        <time>2020-07-21T09:13:40.000Z</time>
      </trkpt>
      <trkpt lat="42.9454983" lon="-5.7214958">
        <ele>1229.58</ele>
        <time>2020-07-21T09:13:41.000Z</time>
      </trkpt>
      <trkpt lat="42.9455047" lon="-5.721506">
        <ele>1229.58</ele>
        <time>2020-07-21T09:13:42.000Z</time>
      </trkpt>
      <trkpt lat="42.9455107" lon="-5.7215152">
        <ele>1229.58</ele>
        <time>2020-07-21T09:13:43.000Z</time>
      </trkpt>
      <trkpt lat="42.9455153" lon="-5.7215225">
        <ele>1229.58</ele>
        <time>2020-07-21T09:13:44.000Z</time>
      </trkpt>
      <trkpt lat="42.945521" lon="-5.7215273">
        <ele>1229.43</ele>
        <time>2020-07-21T09:13:45.000Z</time>
      </trkpt>
      <trkpt lat="42.9455248" lon="-5.7215302">
        <ele>1229.43</ele>
        <time>2020-07-21T09:13:46.000Z</time>
      </trkpt>
      <trkpt lat="42.9455285" lon="-5.7215335">
        <ele>1229.43</ele>
        <time>2020-07-21T09:13:47.000Z</time>
      </trkpt>
      <trkpt lat="42.9455342" lon="-5.7215437">
        <ele>1229.43</ele>
        <time>2020-07-21T09:13:48.000Z</time>
      </trkpt>
      <trkpt lat="42.9455342" lon="-5.7215437">
        <ele>1229.43</ele>
        <time>2020-07-21T09:13:49.000Z</time>
      </trkpt>
      <trkpt lat="42.9455402" lon="-5.7215485">
        <ele>1229.43</ele>
        <time>2020-07-21T09:13:50.000Z</time>
      </trkpt>
      <trkpt lat="42.945546" lon="-5.7215517">
        <ele>1229.27</ele>
        <time>2020-07-21T09:13:51.000Z</time>
      </trkpt>
      <trkpt lat="42.9455523" lon="-5.721554">
        <ele>1229.27</ele>
        <time>2020-07-21T09:13:52.000Z</time>
      </trkpt>
      <trkpt lat="42.9455575" lon="-5.7215567">
        <ele>1229.27</ele>
        <time>2020-07-21T09:13:53.000Z</time>
      </trkpt>
      <trkpt lat="42.9455635" lon="-5.72156">
        <ele>1229.27</ele>
        <time>2020-07-21T09:13:54.000Z</time>
      </trkpt>
      <trkpt lat="42.9455683" lon="-5.721563">
        <ele>1229.27</ele>
        <time>2020-07-21T09:13:55.000Z</time>
      </trkpt>
      <trkpt lat="42.9455718" lon="-5.7215648">
        <ele>1229.27</ele>
        <time>2020-07-21T09:13:56.000Z</time>
      </trkpt>
      <trkpt lat="42.9455752" lon="-5.7215665">
        <ele>1229.27</ele>
        <time>2020-07-21T09:13:57.000Z</time>
      </trkpt>
      <trkpt lat="42.9455782" lon="-5.7215687">
        <ele>1229.27</ele>
        <time>2020-07-21T09:13:58.000Z</time>
      </trkpt>
      <trkpt lat="42.9455803" lon="-5.7215745">
        <ele>1229.27</ele>
        <time>2020-07-21T09:13:59.000Z</time>
      </trkpt>
      <trkpt lat="42.9455813" lon="-5.7215757">
        <ele>1229.27</ele>
        <time>2020-07-21T09:14:00.000Z</time>
      </trkpt>
      <trkpt lat="42.9455827" lon="-5.721576">
        <ele>1229.27</ele>
        <time>2020-07-21T09:14:01.000Z</time>
      </trkpt>
      <trkpt lat="42.945584" lon="-5.7215758">
        <ele>1229.27</ele>
        <time>2020-07-21T09:14:02.000Z</time>
      </trkpt>
      <trkpt lat="42.945586" lon="-5.7215753">
        <ele>1229.27</ele>
        <time>2020-07-21T09:14:03.000Z</time>
      </trkpt>
      <trkpt lat="42.9455877" lon="-5.721575">
        <ele>1229.27</ele>
        <time>2020-07-21T09:14:04.000Z</time>
      </trkpt>
      <trkpt lat="42.9455882" lon="-5.7215763">
        <ele>1229.27</ele>
        <time>2020-07-21T09:14:05.000Z</time>
      </trkpt>
      <trkpt lat="42.9455888" lon="-5.7215797">
        <ele>1229.27</ele>
        <time>2020-07-21T09:14:06.000Z</time>
      </trkpt>
      <trkpt lat="42.9455892" lon="-5.7215828">
        <ele>1229.27</ele>
        <time>2020-07-21T09:14:07.000Z</time>
      </trkpt>
      <trkpt lat="42.9455892" lon="-5.7215828">
        <ele>1229.27</ele>
        <time>2020-07-21T09:14:08.000Z</time>
      </trkpt>
      <trkpt lat="42.9455882" lon="-5.7215817">
        <ele>1229.27</ele>
        <time>2020-07-21T09:14:09.000Z</time>
      </trkpt>
      <trkpt lat="42.9455877" lon="-5.7215808">
        <ele>1229.27</ele>
        <time>2020-07-21T09:14:10.000Z</time>
      </trkpt>
      <trkpt lat="42.945587" lon="-5.721583">
        <ele>1229.27</ele>
        <time>2020-07-21T09:14:11.000Z</time>
      </trkpt>
      <trkpt lat="42.9455852" lon="-5.721583">
        <ele>1229.27</ele>
        <time>2020-07-21T09:14:12.000Z</time>
      </trkpt>
      <trkpt lat="42.9455845" lon="-5.721582">
        <ele>1229.27</ele>
        <time>2020-07-21T09:14:13.000Z</time>
      </trkpt>
      <trkpt lat="42.9455857" lon="-5.7215785">
        <ele>1229.27</ele>
        <time>2020-07-21T09:14:14.000Z</time>
      </trkpt>
      <trkpt lat="42.9455868" lon="-5.7215775">
        <ele>1229.27</ele>
        <time>2020-07-21T09:14:15.000Z</time>
      </trkpt>
      <trkpt lat="42.9455868" lon="-5.7215775">
        <ele>1229.27</ele>
        <time>2020-07-21T09:14:16.000Z</time>
      </trkpt>
      <trkpt lat="42.9455838" lon="-5.7215867">
        <ele>1229.43</ele>
        <time>2020-07-21T09:14:17.000Z</time>
      </trkpt>
      <trkpt lat="42.9455835" lon="-5.7215917">
        <ele>1229.43</ele>
        <time>2020-07-21T09:14:18.000Z</time>
      </trkpt>
      <trkpt lat="42.9455835" lon="-5.7215917">
        <ele>1229.58</ele>
        <time>2020-07-21T09:14:19.000Z</time>
      </trkpt>
      <trkpt lat="42.945585" lon="-5.721593">
        <ele>1229.58</ele>
        <time>2020-07-21T09:14:20.000Z</time>
      </trkpt>
      <trkpt lat="42.9455823" lon="-5.721592">
        <ele>1229.58</ele>
        <time>2020-07-21T09:14:21.000Z</time>
      </trkpt>
      <trkpt lat="42.9455792" lon="-5.7215917">
        <ele>1229.58</ele>
        <time>2020-07-21T09:14:22.000Z</time>
      </trkpt>
      <trkpt lat="42.9455758" lon="-5.7215913">
        <ele>1229.73</ele>
        <time>2020-07-21T09:14:23.000Z</time>
      </trkpt>
      <trkpt lat="42.9455742" lon="-5.7215902">
        <ele>1229.73</ele>
        <time>2020-07-21T09:14:24.000Z</time>
      </trkpt>
      <trkpt lat="42.945572" lon="-5.7215907">
        <ele>1229.88</ele>
        <time>2020-07-21T09:14:25.000Z</time>
      </trkpt>
      <trkpt lat="42.9455695" lon="-5.7215933">
        <ele>1229.88</ele>
        <time>2020-07-21T09:14:26.000Z</time>
      </trkpt>
      <trkpt lat="42.9455663" lon="-5.7215968">
        <ele>1230.04</ele>
        <time>2020-07-21T09:14:27.000Z</time>
      </trkpt>
      <trkpt lat="42.945565" lon="-5.721599">
        <ele>1230.04</ele>
        <time>2020-07-21T09:14:28.000Z</time>
      </trkpt>
      <trkpt lat="42.9455647" lon="-5.7215982">
        <ele>1230.04</ele>
        <time>2020-07-21T09:14:29.000Z</time>
      </trkpt>
      <trkpt lat="42.9455622" lon="-5.7215953">
        <ele>1230.04</ele>
        <time>2020-07-21T09:14:30.000Z</time>
      </trkpt>
      <trkpt lat="42.9455587" lon="-5.7215913">
        <ele>1230.19</ele>
        <time>2020-07-21T09:14:31.000Z</time>
      </trkpt>
      <trkpt lat="42.9455527" lon="-5.72159">
        <ele>1230.19</ele>
        <time>2020-07-21T09:14:32.000Z</time>
      </trkpt>
      <trkpt lat="42.9455502" lon="-5.7215912">
        <ele>1230.19</ele>
        <time>2020-07-21T09:14:33.000Z</time>
      </trkpt>
      <trkpt lat="42.9455488" lon="-5.7215928">
        <ele>1230.19</ele>
        <time>2020-07-21T09:14:34.000Z</time>
      </trkpt>
      <trkpt lat="42.9455493" lon="-5.7215978">
        <ele>1230.34</ele>
        <time>2020-07-21T09:14:35.000Z</time>
      </trkpt>
      <trkpt lat="42.9455493" lon="-5.7215978">
        <ele>1230.34</ele>
        <time>2020-07-21T09:14:36.000Z</time>
      </trkpt>
      <trkpt lat="42.9455492" lon="-5.7216038">
        <ele>1230.34</ele>
        <time>2020-07-21T09:14:37.000Z</time>
      </trkpt>
      <trkpt lat="42.9455505" lon="-5.721611">
        <ele>1230.34</ele>
        <time>2020-07-21T09:14:38.000Z</time>
      </trkpt>
      <trkpt lat="42.945553" lon="-5.7216182">
        <ele>1230.34</ele>
        <time>2020-07-21T09:14:39.000Z</time>
      </trkpt>
      <trkpt lat="42.9455608" lon="-5.7216257">
        <ele>1230.34</ele>
        <time>2020-07-21T09:14:40.000Z</time>
      </trkpt>
      <trkpt lat="42.9455718" lon="-5.7216308">
        <ele>1230.34</ele>
        <time>2020-07-21T09:14:41.000Z</time>
      </trkpt>
      <trkpt lat="42.9455848" lon="-5.7216343">
        <ele>1230.34</ele>
        <time>2020-07-21T09:14:42.000Z</time>
      </trkpt>
      <trkpt lat="42.9455963" lon="-5.7216345">
        <ele>1230.34</ele>
        <time>2020-07-21T09:14:43.000Z</time>
      </trkpt>
      <trkpt lat="42.9456067" lon="-5.7216335">
        <ele>1230.34</ele>
        <time>2020-07-21T09:14:44.000Z</time>
      </trkpt>
      <trkpt lat="42.945616" lon="-5.7216298">
        <ele>1230.34</ele>
        <time>2020-07-21T09:14:45.000Z</time>
      </trkpt>
      <trkpt lat="42.9456245" lon="-5.721624">
        <ele>1230.34</ele>
        <time>2020-07-21T09:14:46.000Z</time>
      </trkpt>
      <trkpt lat="42.945632" lon="-5.721619">
        <ele>1230.34</ele>
        <time>2020-07-21T09:14:47.000Z</time>
      </trkpt>
      <trkpt lat="42.94564" lon="-5.7216147">
        <ele>1230.34</ele>
        <time>2020-07-21T09:14:48.000Z</time>
      </trkpt>
      <trkpt lat="42.9456477" lon="-5.7216135">
        <ele>1230.34</ele>
        <time>2020-07-21T09:14:49.000Z</time>
      </trkpt>
      <trkpt lat="42.9456562" lon="-5.7216118">
        <ele>1230.34</ele>
        <time>2020-07-21T09:14:50.000Z</time>
      </trkpt>
      <trkpt lat="42.9456633" lon="-5.72161">
        <ele>1230.34</ele>
        <time>2020-07-21T09:14:51.000Z</time>
      </trkpt>
      <trkpt lat="42.9456698" lon="-5.7216075">
        <ele>1230.34</ele>
        <time>2020-07-21T09:14:52.000Z</time>
      </trkpt>
      <trkpt lat="42.9456738" lon="-5.721606">
        <ele>1230.34</ele>
        <time>2020-07-21T09:14:53.000Z</time>
      </trkpt>
      <trkpt lat="42.9456787" lon="-5.721606">
        <ele>1230.34</ele>
        <time>2020-07-21T09:14:54.000Z</time>
      </trkpt>
      <trkpt lat="42.9456845" lon="-5.7216058">
        <ele>1230.34</ele>
        <time>2020-07-21T09:14:55.000Z</time>
      </trkpt>
      <trkpt lat="42.945692" lon="-5.7216052">
        <ele>1230.34</ele>
        <time>2020-07-21T09:14:56.000Z</time>
      </trkpt>
      <trkpt lat="42.9456997" lon="-5.7216042">
        <ele>1230.49</ele>
        <time>2020-07-21T09:14:57.000Z</time>
      </trkpt>
      <trkpt lat="42.945706" lon="-5.7216035">
        <ele>1230.49</ele>
        <time>2020-07-21T09:14:58.000Z</time>
      </trkpt>
      <trkpt lat="42.9457108" lon="-5.7216032">
        <ele>1230.49</ele>
        <time>2020-07-21T09:14:59.000Z</time>
      </trkpt>
      <trkpt lat="42.945715" lon="-5.7216043">
        <ele>1230.49</ele>
        <time>2020-07-21T09:15:00.000Z</time>
      </trkpt>
      <trkpt lat="42.9457202" lon="-5.7216073">
        <ele>1230.34</ele>
        <time>2020-07-21T09:15:01.000Z</time>
      </trkpt>
      <trkpt lat="42.9457268" lon="-5.7216128">
        <ele>1230.34</ele>
        <time>2020-07-21T09:15:02.000Z</time>
      </trkpt>
      <trkpt lat="42.945735" lon="-5.7216208">
        <ele>1230.34</ele>
        <time>2020-07-21T09:15:03.000Z</time>
      </trkpt>
      <trkpt lat="42.945744" lon="-5.7216307">
        <ele>1230.34</ele>
        <time>2020-07-21T09:15:04.000Z</time>
      </trkpt>
      <trkpt lat="42.945752" lon="-5.7216415">
        <ele>1230.34</ele>
        <time>2020-07-21T09:15:05.000Z</time>
      </trkpt>
      <trkpt lat="42.9457575" lon="-5.7216527">
        <ele>1230.34</ele>
        <time>2020-07-21T09:15:06.000Z</time>
      </trkpt>
      <trkpt lat="42.9457618" lon="-5.7216627">
        <ele>1230.34</ele>
        <time>2020-07-21T09:15:07.000Z</time>
      </trkpt>
      <trkpt lat="42.9457665" lon="-5.7216727">
        <ele>1230.34</ele>
        <time>2020-07-21T09:15:08.000Z</time>
      </trkpt>
      <trkpt lat="42.9457722" lon="-5.7216842">
        <ele>1230.34</ele>
        <time>2020-07-21T09:15:09.000Z</time>
      </trkpt>
      <trkpt lat="42.9457767" lon="-5.7216977">
        <ele>1230.34</ele>
        <time>2020-07-21T09:15:10.000Z</time>
      </trkpt>
      <trkpt lat="42.9457807" lon="-5.7217123">
        <ele>1230.34</ele>
        <time>2020-07-21T09:15:11.000Z</time>
      </trkpt>
      <trkpt lat="42.9457835" lon="-5.7217247">
        <ele>1230.34</ele>
        <time>2020-07-21T09:15:12.000Z</time>
      </trkpt>
      <trkpt lat="42.9457862" lon="-5.7217365">
        <ele>1230.34</ele>
        <time>2020-07-21T09:15:13.000Z</time>
      </trkpt>
      <trkpt lat="42.9457872" lon="-5.721747">
        <ele>1230.34</ele>
        <time>2020-07-21T09:15:14.000Z</time>
      </trkpt>
      <trkpt lat="42.945788" lon="-5.7217567">
        <ele>1230.34</ele>
        <time>2020-07-21T09:15:15.000Z</time>
      </trkpt>
      <trkpt lat="42.9457882" lon="-5.7217637">
        <ele>1230.34</ele>
        <time>2020-07-21T09:15:16.000Z</time>
      </trkpt>
      <trkpt lat="42.945789" lon="-5.7217698">
        <ele>1230.19</ele>
        <time>2020-07-21T09:15:17.000Z</time>
      </trkpt>
      <trkpt lat="42.945789" lon="-5.7217763">
        <ele>1230.19</ele>
        <time>2020-07-21T09:15:18.000Z</time>
      </trkpt>
      <trkpt lat="42.9457897" lon="-5.7217902">
        <ele>1230.19</ele>
        <time>2020-07-21T09:15:19.000Z</time>
      </trkpt>
      <trkpt lat="42.9457903" lon="-5.721795">
        <ele>1230.19</ele>
        <time>2020-07-21T09:15:20.000Z</time>
      </trkpt>
      <trkpt lat="42.9457903" lon="-5.721795">
        <ele>1230.04</ele>
        <time>2020-07-21T09:15:21.000Z</time>
      </trkpt>
      <trkpt lat="42.9457915" lon="-5.721799">
        <ele>1230.04</ele>
        <time>2020-07-21T09:15:22.000Z</time>
      </trkpt>
      <trkpt lat="42.9457925" lon="-5.7218017">
        <ele>1230.04</ele>
        <time>2020-07-21T09:15:23.000Z</time>
      </trkpt>
      <trkpt lat="42.9457927" lon="-5.7218092">
        <ele>1230.04</ele>
        <time>2020-07-21T09:15:24.000Z</time>
      </trkpt>
      <trkpt lat="42.9457925" lon="-5.721813">
        <ele>1229.88</ele>
        <time>2020-07-21T09:15:25.000Z</time>
      </trkpt>
      <trkpt lat="42.9457925" lon="-5.721816">
        <ele>1229.88</ele>
        <time>2020-07-21T09:15:26.000Z</time>
      </trkpt>
      <trkpt lat="42.9457925" lon="-5.721816">
        <ele>1229.73</ele>
        <time>2020-07-21T09:15:27.000Z</time>
      </trkpt>
      <trkpt lat="42.945793" lon="-5.7218187">
        <ele>1229.73</ele>
        <time>2020-07-21T09:15:28.000Z</time>
      </trkpt>
      <trkpt lat="42.9457973" lon="-5.7218233">
        <ele>1229.58</ele>
        <time>2020-07-21T09:15:29.000Z</time>
      </trkpt>
      <trkpt lat="42.9457973" lon="-5.7218233">
        <ele>1229.58</ele>
        <time>2020-07-21T09:15:30.000Z</time>
      </trkpt>
      <trkpt lat="42.9457937" lon="-5.7218217">
        <ele>1229.43</ele>
        <time>2020-07-21T09:15:31.000Z</time>
      </trkpt>
      <trkpt lat="42.9457937" lon="-5.7218217">
        <ele>1229.43</ele>
        <time>2020-07-21T09:15:32.000Z</time>
      </trkpt>
      <trkpt lat="42.9457877" lon="-5.7218202">
        <ele>1229.27</ele>
        <time>2020-07-21T09:15:33.000Z</time>
      </trkpt>
      <trkpt lat="42.9457877" lon="-5.7218202">
        <ele>1229.27</ele>
        <time>2020-07-21T09:15:34.000Z</time>
      </trkpt>
      <trkpt lat="42.945786" lon="-5.7218135">
        <ele>1229.27</ele>
        <time>2020-07-21T09:15:35.000Z</time>
      </trkpt>
      <trkpt lat="42.9457885" lon="-5.7218105">
        <ele>1229.27</ele>
        <time>2020-07-21T09:15:36.000Z</time>
      </trkpt>
      <trkpt lat="42.9457915" lon="-5.7218102">
        <ele>1229.12</ele>
        <time>2020-07-21T09:15:37.000Z</time>
      </trkpt>
      <trkpt lat="42.9457935" lon="-5.7218093">
        <ele>1229.12</ele>
        <time>2020-07-21T09:15:38.000Z</time>
      </trkpt>
      <trkpt lat="42.9457932" lon="-5.7218087">
        <ele>1229.12</ele>
        <time>2020-07-21T09:15:39.000Z</time>
      </trkpt>
      <trkpt lat="42.9457962" lon="-5.7218093">
        <ele>1229.12</ele>
        <time>2020-07-21T09:15:40.000Z</time>
      </trkpt>
      <trkpt lat="42.9457987" lon="-5.7218113">
        <ele>1228.97</ele>
        <time>2020-07-21T09:15:41.000Z</time>
      </trkpt>
      <trkpt lat="42.9457988" lon="-5.7218112">
        <ele>1228.97</ele>
        <time>2020-07-21T09:15:42.000Z</time>
      </trkpt>
      <trkpt lat="42.9457958" lon="-5.721811">
        <ele>1228.97</ele>
        <time>2020-07-21T09:15:43.000Z</time>
      </trkpt>
      <trkpt lat="42.9457932" lon="-5.7218097">
        <ele>1228.97</ele>
        <time>2020-07-21T09:15:44.000Z</time>
      </trkpt>
      <trkpt lat="42.9457913" lon="-5.72181">
        <ele>1228.82</ele>
        <time>2020-07-21T09:15:45.000Z</time>
      </trkpt>
      <trkpt lat="42.94579" lon="-5.7218112">
        <ele>1228.82</ele>
        <time>2020-07-21T09:15:46.000Z</time>
      </trkpt>
      <trkpt lat="42.94579" lon="-5.7218112">
        <ele>1228.82</ele>
        <time>2020-07-21T09:15:47.000Z</time>
      </trkpt>
      <trkpt lat="42.9457858" lon="-5.721813">
        <ele>1228.82</ele>
        <time>2020-07-21T09:15:48.000Z</time>
      </trkpt>
      <trkpt lat="42.9457845" lon="-5.7218108">
        <ele>1228.66</ele>
        <time>2020-07-21T09:15:49.000Z</time>
      </trkpt>
      <trkpt lat="42.945785" lon="-5.7218083">
        <ele>1228.66</ele>
        <time>2020-07-21T09:15:50.000Z</time>
      </trkpt>
      <trkpt lat="42.9457847" lon="-5.7218065">
        <ele>1228.66</ele>
        <time>2020-07-21T09:15:51.000Z</time>
      </trkpt>
      <trkpt lat="42.9457825" lon="-5.7218062">
        <ele>1228.66</ele>
        <time>2020-07-21T09:15:52.000Z</time>
      </trkpt>
      <trkpt lat="42.9457798" lon="-5.7218085">
        <ele>1228.51</ele>
        <time>2020-07-21T09:15:53.000Z</time>
      </trkpt>
      <trkpt lat="42.9457785" lon="-5.7218107">
        <ele>1228.51</ele>
        <time>2020-07-21T09:15:54.000Z</time>
      </trkpt>
      <trkpt lat="42.945779" lon="-5.7218118">
        <ele>1228.36</ele>
        <time>2020-07-21T09:15:55.000Z</time>
      </trkpt>
      <trkpt lat="42.9457797" lon="-5.7218108">
        <ele>1228.36</ele>
        <time>2020-07-21T09:15:56.000Z</time>
      </trkpt>
      <trkpt lat="42.945779" lon="-5.7218133">
        <ele>1228.21</ele>
        <time>2020-07-21T09:15:57.000Z</time>
      </trkpt>
      <trkpt lat="42.9457785" lon="-5.7218167">
        <ele>1228.21</ele>
        <time>2020-07-21T09:15:58.000Z</time>
      </trkpt>
      <trkpt lat="42.945779" lon="-5.7218207">
        <ele>1228.05</ele>
        <time>2020-07-21T09:15:59.000Z</time>
      </trkpt>
      <trkpt lat="42.9457805" lon="-5.7218218">
        <ele>1228.05</ele>
        <time>2020-07-21T09:16:00.000Z</time>
      </trkpt>
      <trkpt lat="42.945782" lon="-5.7218193">
        <ele>1227.9</ele>
        <time>2020-07-21T09:16:01.000Z</time>
      </trkpt>
      <trkpt lat="42.9457822" lon="-5.7218167">
        <ele>1227.9</ele>
        <time>2020-07-21T09:16:02.000Z</time>
      </trkpt>
      <trkpt lat="42.9457798" lon="-5.7218127">
        <ele>1227.75</ele>
        <time>2020-07-21T09:16:03.000Z</time>
      </trkpt>
      <trkpt lat="42.945775" lon="-5.7218117">
        <ele>1227.75</ele>
        <time>2020-07-21T09:16:04.000Z</time>
      </trkpt>
      <trkpt lat="42.9457702" lon="-5.7218102">
        <ele>1227.6</ele>
        <time>2020-07-21T09:16:05.000Z</time>
      </trkpt>
      <trkpt lat="42.9457655" lon="-5.7218117">
        <ele>1227.6</ele>
        <time>2020-07-21T09:16:06.000Z</time>
      </trkpt>
      <trkpt lat="42.9457623" lon="-5.7218137">
        <ele>1227.44</ele>
        <time>2020-07-21T09:16:07.000Z</time>
      </trkpt>
      <trkpt lat="42.9457598" lon="-5.721818">
        <ele>1227.44</ele>
        <time>2020-07-21T09:16:08.000Z</time>
      </trkpt>
      <trkpt lat="42.9457575" lon="-5.7218212">
        <ele>1227.29</ele>
        <time>2020-07-21T09:16:09.000Z</time>
      </trkpt>
      <trkpt lat="42.9457562" lon="-5.7218237">
        <ele>1227.29</ele>
        <time>2020-07-21T09:16:10.000Z</time>
      </trkpt>
      <trkpt lat="42.9457533" lon="-5.7218235">
        <ele>1227.14</ele>
        <time>2020-07-21T09:16:11.000Z</time>
      </trkpt>
      <trkpt lat="42.945751" lon="-5.7218233">
        <ele>1227.14</ele>
        <time>2020-07-21T09:16:12.000Z</time>
      </trkpt>
      <trkpt lat="42.9457478" lon="-5.7218227">
        <ele>1227.14</ele>
        <time>2020-07-21T09:16:13.000Z</time>
      </trkpt>
      <trkpt lat="42.9457443" lon="-5.7218245">
        <ele>1227.14</ele>
        <time>2020-07-21T09:16:14.000Z</time>
      </trkpt>
      <trkpt lat="42.9457415" lon="-5.7218287">
        <ele>1226.99</ele>
        <time>2020-07-21T09:16:15.000Z</time>
      </trkpt>
      <trkpt lat="42.9457382" lon="-5.7218372">
        <ele>1226.99</ele>
        <time>2020-07-21T09:16:16.000Z</time>
      </trkpt>
      <trkpt lat="42.9457363" lon="-5.7218458">
        <ele>1226.83</ele>
        <time>2020-07-21T09:16:17.000Z</time>
      </trkpt>
      <trkpt lat="42.9457355" lon="-5.721846">
        <ele>1226.83</ele>
        <time>2020-07-21T09:16:18.000Z</time>
      </trkpt>
      <trkpt lat="42.9457383" lon="-5.7218382">
        <ele>1226.83</ele>
        <time>2020-07-21T09:16:19.000Z</time>
      </trkpt>
      <trkpt lat="42.9457418" lon="-5.7218263">
        <ele>1226.83</ele>
        <time>2020-07-21T09:16:20.000Z</time>
      </trkpt>
      <trkpt lat="42.9457487" lon="-5.7218165">
        <ele>1226.68</ele>
        <time>2020-07-21T09:16:21.000Z</time>
      </trkpt>
      <trkpt lat="42.9457487" lon="-5.7218165">
        <ele>1226.68</ele>
        <time>2020-07-21T09:16:22.000Z</time>
      </trkpt>
      <trkpt lat="42.9457543" lon="-5.7218075">
        <ele>1226.53</ele>
        <time>2020-07-21T09:16:23.000Z</time>
      </trkpt>
      <trkpt lat="42.9457595" lon="-5.7217893">
        <ele>1226.53</ele>
        <time>2020-07-21T09:16:24.000Z</time>
      </trkpt>
      <trkpt lat="42.9457595" lon="-5.7217893">
        <ele>1226.53</ele>
        <time>2020-07-21T09:16:25.000Z</time>
      </trkpt>
      <trkpt lat="42.9457582" lon="-5.7217818">
        <ele>1226.53</ele>
        <time>2020-07-21T09:16:26.000Z</time>
      </trkpt>
      <trkpt lat="42.9457638" lon="-5.721773">
        <ele>1226.38</ele>
        <time>2020-07-21T09:16:27.000Z</time>
      </trkpt>
      <trkpt lat="42.9457742" lon="-5.7217675">
        <ele>1226.38</ele>
        <time>2020-07-21T09:16:28.000Z</time>
      </trkpt>
      <trkpt lat="42.9457862" lon="-5.7217608">
        <ele>1226.38</ele>
        <time>2020-07-21T09:16:29.000Z</time>
      </trkpt>
      <trkpt lat="42.945793" lon="-5.7217555">
        <ele>1226.38</ele>
        <time>2020-07-21T09:16:30.000Z</time>
      </trkpt>
      <trkpt lat="42.9457953" lon="-5.7217548">
        <ele>1226.38</ele>
        <time>2020-07-21T09:16:31.000Z</time>
      </trkpt>
      <trkpt lat="42.9457958" lon="-5.7217577">
        <ele>1226.38</ele>
        <time>2020-07-21T09:16:32.000Z</time>
      </trkpt>
      <trkpt lat="42.945796" lon="-5.7217632">
        <ele>1226.38</ele>
        <time>2020-07-21T09:16:33.000Z</time>
      </trkpt>
      <trkpt lat="42.9457953" lon="-5.7217662">
        <ele>1226.38</ele>
        <time>2020-07-21T09:16:34.000Z</time>
      </trkpt>
      <trkpt lat="42.9457948" lon="-5.7217685">
        <ele>1226.38</ele>
        <time>2020-07-21T09:16:35.000Z</time>
      </trkpt>
      <trkpt lat="42.9457953" lon="-5.7217698">
        <ele>1226.38</ele>
        <time>2020-07-21T09:16:36.000Z</time>
      </trkpt>
      <trkpt lat="42.9457977" lon="-5.7217698">
        <ele>1226.38</ele>
        <time>2020-07-21T09:16:37.000Z</time>
      </trkpt>
      <trkpt lat="42.9458003" lon="-5.7217688">
        <ele>1226.38</ele>
        <time>2020-07-21T09:16:38.000Z</time>
      </trkpt>
      <trkpt lat="42.9458035" lon="-5.721769">
        <ele>1226.38</ele>
        <time>2020-07-21T09:16:39.000Z</time>
      </trkpt>
      <trkpt lat="42.9458035" lon="-5.721769">
        <ele>1226.38</ele>
        <time>2020-07-21T09:16:40.000Z</time>
      </trkpt>
      <trkpt lat="42.9458042" lon="-5.7217698">
        <ele>1226.38</ele>
        <time>2020-07-21T09:16:41.000Z</time>
      </trkpt>
      <trkpt lat="42.9458035" lon="-5.7217713">
        <ele>1226.38</ele>
        <time>2020-07-21T09:16:42.000Z</time>
      </trkpt>
      <trkpt lat="42.9458032" lon="-5.721772">
        <ele>1226.22</ele>
        <time>2020-07-21T09:16:43.000Z</time>
      </trkpt>
      <trkpt lat="42.945803" lon="-5.7217725">
        <ele>1226.22</ele>
        <time>2020-07-21T09:16:44.000Z</time>
      </trkpt>
      <trkpt lat="42.945803" lon="-5.7217725">
        <ele>1226.22</ele>
        <time>2020-07-21T09:16:45.000Z</time>
      </trkpt>
      <trkpt lat="42.9458025" lon="-5.7217727">
        <ele>1226.22</ele>
        <time>2020-07-21T09:16:46.000Z</time>
      </trkpt>
      <trkpt lat="42.9458003" lon="-5.7217698">
        <ele>1226.22</ele>
        <time>2020-07-21T09:16:47.000Z</time>
      </trkpt>
      <trkpt lat="42.9458003" lon="-5.7217698">
        <ele>1226.22</ele>
        <time>2020-07-21T09:16:48.000Z</time>
      </trkpt>
      <trkpt lat="42.9458012" lon="-5.7217665">
        <ele>1226.07</ele>
        <time>2020-07-21T09:16:49.000Z</time>
      </trkpt>
      <trkpt lat="42.9458042" lon="-5.7217605">
        <ele>1226.07</ele>
        <time>2020-07-21T09:16:50.000Z</time>
      </trkpt>
      <trkpt lat="42.9458077" lon="-5.7217512">
        <ele>1225.92</ele>
        <time>2020-07-21T09:16:51.000Z</time>
      </trkpt>
      <trkpt lat="42.945809" lon="-5.7217408">
        <ele>1225.92</ele>
        <time>2020-07-21T09:16:52.000Z</time>
      </trkpt>
      <trkpt lat="42.9458097" lon="-5.7217267">
        <ele>1225.92</ele>
        <time>2020-07-21T09:16:53.000Z</time>
      </trkpt>
      <trkpt lat="42.9458097" lon="-5.7217267">
        <ele>1225.92</ele>
        <time>2020-07-21T09:16:54.000Z</time>
      </trkpt>
      <trkpt lat="42.9458108" lon="-5.7217242">
        <ele>1225.77</ele>
        <time>2020-07-21T09:16:55.000Z</time>
      </trkpt>
      <trkpt lat="42.9458077" lon="-5.721715">
        <ele>1225.77</ele>
        <time>2020-07-21T09:16:56.000Z</time>
      </trkpt>
      <trkpt lat="42.9458033" lon="-5.7217078">
        <ele>1225.77</ele>
        <time>2020-07-21T09:16:57.000Z</time>
      </trkpt>
      <trkpt lat="42.9458033" lon="-5.7217078">
        <ele>1225.77</ele>
        <time>2020-07-21T09:16:58.000Z</time>
      </trkpt>
      <trkpt lat="42.9458002" lon="-5.721703">
        <ele>1225.62</ele>
        <time>2020-07-21T09:16:59.000Z</time>
      </trkpt>
      <trkpt lat="42.9458002" lon="-5.721703">
        <ele>1225.62</ele>
        <time>2020-07-21T09:17:00.000Z</time>
      </trkpt>
      <trkpt lat="42.9458047" lon="-5.7217048">
        <ele>1225.62</ele>
        <time>2020-07-21T09:17:01.000Z</time>
      </trkpt>
      <trkpt lat="42.945811" lon="-5.721707">
        <ele>1225.62</ele>
        <time>2020-07-21T09:17:02.000Z</time>
      </trkpt>
      <trkpt lat="42.9458193" lon="-5.7217097">
        <ele>1225.46</ele>
        <time>2020-07-21T09:17:03.000Z</time>
      </trkpt>
      <trkpt lat="42.9458277" lon="-5.7217122">
        <ele>1225.46</ele>
        <time>2020-07-21T09:17:04.000Z</time>
      </trkpt>
      <trkpt lat="42.9458355" lon="-5.7217138">
        <ele>1225.46</ele>
        <time>2020-07-21T09:17:05.000Z</time>
      </trkpt>
      <trkpt lat="42.9458355" lon="-5.7217138">
        <ele>1225.46</ele>
        <time>2020-07-21T09:17:06.000Z</time>
      </trkpt>
      <trkpt lat="42.9458433" lon="-5.7217165">
        <ele>1225.31</ele>
        <time>2020-07-21T09:17:07.000Z</time>
      </trkpt>
      <trkpt lat="42.9458522" lon="-5.721721">
        <ele>1225.31</ele>
        <time>2020-07-21T09:17:08.000Z</time>
      </trkpt>
      <trkpt lat="42.9458608" lon="-5.721729">
        <ele>1225.31</ele>
        <time>2020-07-21T09:17:09.000Z</time>
      </trkpt>
      <trkpt lat="42.9458692" lon="-5.721735">
        <ele>1225.31</ele>
        <time>2020-07-21T09:17:10.000Z</time>
      </trkpt>
      <trkpt lat="42.9458795" lon="-5.721742">
        <ele>1225.16</ele>
        <time>2020-07-21T09:17:11.000Z</time>
      </trkpt>
      <trkpt lat="42.9458913" lon="-5.7217483">
        <ele>1225.16</ele>
        <time>2020-07-21T09:17:12.000Z</time>
      </trkpt>
      <trkpt lat="42.945905" lon="-5.7217573">
        <ele>1225.01</ele>
        <time>2020-07-21T09:17:13.000Z</time>
      </trkpt>
      <trkpt lat="42.9459173" lon="-5.721764">
        <ele>1225.01</ele>
        <time>2020-07-21T09:17:14.000Z</time>
      </trkpt>
      <trkpt lat="42.945943" lon="-5.7217777">
        <ele>1225.01</ele>
        <time>2020-07-21T09:17:15.000Z</time>
      </trkpt>
      <trkpt lat="42.945943" lon="-5.7217777">
        <ele>1225.01</ele>
        <time>2020-07-21T09:17:16.000Z</time>
      </trkpt>
      <trkpt lat="42.945956" lon="-5.7217862">
        <ele>1224.85</ele>
        <time>2020-07-21T09:17:17.000Z</time>
      </trkpt>
      <trkpt lat="42.9459705" lon="-5.7217938">
        <ele>1224.85</ele>
        <time>2020-07-21T09:17:18.000Z</time>
      </trkpt>
      <trkpt lat="42.9459853" lon="-5.721799">
        <ele>1224.85</ele>
        <time>2020-07-21T09:17:19.000Z</time>
      </trkpt>
      <trkpt lat="42.9460018" lon="-5.7218018">
        <ele>1224.85</ele>
        <time>2020-07-21T09:17:20.000Z</time>
      </trkpt>
      <trkpt lat="42.9460172" lon="-5.7218038">
        <ele>1224.85</ele>
        <time>2020-07-21T09:17:21.000Z</time>
      </trkpt>
      <trkpt lat="42.9460307" lon="-5.7218058">
        <ele>1224.85</ele>
        <time>2020-07-21T09:17:22.000Z</time>
      </trkpt>
      <trkpt lat="42.9460448" lon="-5.7218082">
        <ele>1224.7</ele>
        <time>2020-07-21T09:17:23.000Z</time>
      </trkpt>
      <trkpt lat="42.9460617" lon="-5.7218107">
        <ele>1224.7</ele>
        <time>2020-07-21T09:17:24.000Z</time>
      </trkpt>
      <trkpt lat="42.9460795" lon="-5.7218137">
        <ele>1224.7</ele>
        <time>2020-07-21T09:17:25.000Z</time>
      </trkpt>
      <trkpt lat="42.946096" lon="-5.7218178">
        <ele>1224.7</ele>
        <time>2020-07-21T09:17:26.000Z</time>
      </trkpt>
      <trkpt lat="42.94611" lon="-5.7218225">
        <ele>1224.55</ele>
        <time>2020-07-21T09:17:27.000Z</time>
      </trkpt>
      <trkpt lat="42.9461228" lon="-5.7218263">
        <ele>1224.55</ele>
        <time>2020-07-21T09:17:28.000Z</time>
      </trkpt>
      <trkpt lat="42.9461353" lon="-5.7218302">
        <ele>1224.55</ele>
        <time>2020-07-21T09:17:29.000Z</time>
      </trkpt>
      <trkpt lat="42.9461477" lon="-5.721834">
        <ele>1224.55</ele>
        <time>2020-07-21T09:17:30.000Z</time>
      </trkpt>
      <trkpt lat="42.9461602" lon="-5.721838">
        <ele>1224.55</ele>
        <time>2020-07-21T09:17:31.000Z</time>
      </trkpt>
      <trkpt lat="42.946173" lon="-5.7218415">
        <ele>1224.55</ele>
        <time>2020-07-21T09:17:32.000Z</time>
      </trkpt>
      <trkpt lat="42.9461995" lon="-5.7218462">
        <ele>1224.55</ele>
        <time>2020-07-21T09:17:33.000Z</time>
      </trkpt>
      <trkpt lat="42.9461995" lon="-5.7218462">
        <ele>1224.55</ele>
        <time>2020-07-21T09:17:34.000Z</time>
      </trkpt>
      <trkpt lat="42.946213" lon="-5.7218482">
        <ele>1224.55</ele>
        <time>2020-07-21T09:17:35.000Z</time>
      </trkpt>
      <trkpt lat="42.9462265" lon="-5.7218505">
        <ele>1224.55</ele>
        <time>2020-07-21T09:17:36.000Z</time>
      </trkpt>
      <trkpt lat="42.9462408" lon="-5.721852">
        <ele>1224.55</ele>
        <time>2020-07-21T09:17:37.000Z</time>
      </trkpt>
      <trkpt lat="42.9462548" lon="-5.721853">
        <ele>1224.55</ele>
        <time>2020-07-21T09:17:38.000Z</time>
      </trkpt>
      <trkpt lat="42.9462685" lon="-5.7218528">
        <ele>1224.55</ele>
        <time>2020-07-21T09:17:39.000Z</time>
      </trkpt>
      <trkpt lat="42.946294" lon="-5.7218533">
        <ele>1224.55</ele>
        <time>2020-07-21T09:17:40.000Z</time>
      </trkpt>
      <trkpt lat="42.946294" lon="-5.7218533">
        <ele>1224.55</ele>
        <time>2020-07-21T09:17:41.000Z</time>
      </trkpt>
      <trkpt lat="42.9463205" lon="-5.7218528">
        <ele>1224.55</ele>
        <time>2020-07-21T09:17:42.000Z</time>
      </trkpt>
      <trkpt lat="42.9463343" lon="-5.7218522">
        <ele>1224.55</ele>
        <time>2020-07-21T09:17:43.000Z</time>
      </trkpt>
      <trkpt lat="42.9463512" lon="-5.7218535">
        <ele>1224.55</ele>
        <time>2020-07-21T09:17:44.000Z</time>
      </trkpt>
      <trkpt lat="42.9463512" lon="-5.7218535">
        <ele>1224.55</ele>
        <time>2020-07-21T09:17:45.000Z</time>
      </trkpt>
      <trkpt lat="42.9463683" lon="-5.7218552">
        <ele>1224.55</ele>
        <time>2020-07-21T09:17:46.000Z</time>
      </trkpt>
      <trkpt lat="42.9463852" lon="-5.7218555">
        <ele>1224.7</ele>
        <time>2020-07-21T09:17:47.000Z</time>
      </trkpt>
      <trkpt lat="42.9463988" lon="-5.7218533">
        <ele>1224.7</ele>
        <time>2020-07-21T09:17:48.000Z</time>
      </trkpt>
      <trkpt lat="42.9464263" lon="-5.7218475">
        <ele>1224.7</ele>
        <time>2020-07-21T09:17:49.000Z</time>
      </trkpt>
      <trkpt lat="42.9464408" lon="-5.7218447">
        <ele>1224.7</ele>
        <time>2020-07-21T09:17:50.000Z</time>
      </trkpt>
      <trkpt lat="42.9464408" lon="-5.7218447">
        <ele>1224.7</ele>
        <time>2020-07-21T09:17:51.000Z</time>
      </trkpt>
      <trkpt lat="42.9464553" lon="-5.7218422">
        <ele>1224.7</ele>
        <time>2020-07-21T09:17:52.000Z</time>
      </trkpt>
      <trkpt lat="42.9464685" lon="-5.72184">
        <ele>1224.7</ele>
        <time>2020-07-21T09:17:53.000Z</time>
      </trkpt>
      <trkpt lat="42.9464927" lon="-5.7218385">
        <ele>1224.7</ele>
        <time>2020-07-21T09:17:54.000Z</time>
      </trkpt>
      <trkpt lat="42.9465057" lon="-5.7218367">
        <ele>1224.85</ele>
        <time>2020-07-21T09:17:55.000Z</time>
      </trkpt>
      <trkpt lat="42.9465057" lon="-5.7218367">
        <ele>1224.85</ele>
        <time>2020-07-21T09:17:56.000Z</time>
      </trkpt>
      <trkpt lat="42.9465173" lon="-5.7218367">
        <ele>1224.85</ele>
        <time>2020-07-21T09:17:57.000Z</time>
      </trkpt>
      <trkpt lat="42.9465282" lon="-5.7218378">
        <ele>1224.85</ele>
        <time>2020-07-21T09:17:58.000Z</time>
      </trkpt>
      <trkpt lat="42.9465375" lon="-5.7218405">
        <ele>1224.85</ele>
        <time>2020-07-21T09:17:59.000Z</time>
      </trkpt>
      <trkpt lat="42.9465473" lon="-5.7218412">
        <ele>1224.85</ele>
        <time>2020-07-21T09:18:00.000Z</time>
      </trkpt>
      <trkpt lat="42.9465568" lon="-5.7218415">
        <ele>1225.01</ele>
        <time>2020-07-21T09:18:01.000Z</time>
      </trkpt>
      <trkpt lat="42.9465657" lon="-5.7218422">
        <ele>1225.01</ele>
        <time>2020-07-21T09:18:02.000Z</time>
      </trkpt>
      <trkpt lat="42.946589" lon="-5.7218427">
        <ele>1225.01</ele>
        <time>2020-07-21T09:18:03.000Z</time>
      </trkpt>
      <trkpt lat="42.946589" lon="-5.7218427">
        <ele>1225.01</ele>
        <time>2020-07-21T09:18:04.000Z</time>
      </trkpt>
      <trkpt lat="42.9466015" lon="-5.7218417">
        <ele>1225.16</ele>
        <time>2020-07-21T09:18:05.000Z</time>
      </trkpt>
      <trkpt lat="42.9466125" lon="-5.7218388">
        <ele>1225.16</ele>
        <time>2020-07-21T09:18:06.000Z</time>
      </trkpt>
      <trkpt lat="42.9466333" lon="-5.721832">
        <ele>1225.31</ele>
        <time>2020-07-21T09:18:07.000Z</time>
      </trkpt>
      <trkpt lat="42.9466333" lon="-5.721832">
        <ele>1225.31</ele>
        <time>2020-07-21T09:18:08.000Z</time>
      </trkpt>
      <trkpt lat="42.9466557" lon="-5.7218282">
        <ele>1225.31</ele>
        <time>2020-07-21T09:18:09.000Z</time>
      </trkpt>
      <trkpt lat="42.946668" lon="-5.7218268">
        <ele>1225.31</ele>
        <time>2020-07-21T09:18:10.000Z</time>
      </trkpt>
      <trkpt lat="42.9466832" lon="-5.7218263">
        <ele>1225.46</ele>
        <time>2020-07-21T09:18:11.000Z</time>
      </trkpt>
      <trkpt lat="42.9466987" lon="-5.7218258">
        <ele>1225.46</ele>
        <time>2020-07-21T09:18:12.000Z</time>
      </trkpt>
      <trkpt lat="42.9467137" lon="-5.7218263">
        <ele>1225.62</ele>
        <time>2020-07-21T09:18:13.000Z</time>
      </trkpt>
      <trkpt lat="42.9467137" lon="-5.7218263">
        <ele>1225.62</ele>
        <time>2020-07-21T09:18:14.000Z</time>
      </trkpt>
      <trkpt lat="42.9467268" lon="-5.721828">
        <ele>1225.77</ele>
        <time>2020-07-21T09:18:15.000Z</time>
      </trkpt>
      <trkpt lat="42.946739" lon="-5.7218293">
        <ele>1225.77</ele>
        <time>2020-07-21T09:18:16.000Z</time>
      </trkpt>
      <trkpt lat="42.9467503" lon="-5.7218322">
        <ele>1225.77</ele>
        <time>2020-07-21T09:18:17.000Z</time>
      </trkpt>
      <trkpt lat="42.9467618" lon="-5.7218357">
        <ele>1225.77</ele>
        <time>2020-07-21T09:18:18.000Z</time>
      </trkpt>
      <trkpt lat="42.9467732" lon="-5.7218408">
        <ele>1225.92</ele>
        <time>2020-07-21T09:18:19.000Z</time>
      </trkpt>
      <trkpt lat="42.9467853" lon="-5.721846">
        <ele>1225.92</ele>
        <time>2020-07-21T09:18:20.000Z</time>
      </trkpt>
      <trkpt lat="42.9467968" lon="-5.721851">
        <ele>1226.07</ele>
        <time>2020-07-21T09:18:21.000Z</time>
      </trkpt>
      <trkpt lat="42.9468077" lon="-5.721855">
        <ele>1226.07</ele>
        <time>2020-07-21T09:18:22.000Z</time>
      </trkpt>
      <trkpt lat="42.9468173" lon="-5.7218593">
        <ele>1226.22</ele>
        <time>2020-07-21T09:18:23.000Z</time>
      </trkpt>
      <trkpt lat="42.9468345" lon="-5.7218697">
        <ele>1226.22</ele>
        <time>2020-07-21T09:18:24.000Z</time>
      </trkpt>
      <trkpt lat="42.9468345" lon="-5.7218697">
        <ele>1226.38</ele>
        <time>2020-07-21T09:18:25.000Z</time>
      </trkpt>
      <trkpt lat="42.9468435" lon="-5.7218763">
        <ele>1226.38</ele>
        <time>2020-07-21T09:18:26.000Z</time>
      </trkpt>
      <trkpt lat="42.946853" lon="-5.7218838">
        <ele>1226.38</ele>
        <time>2020-07-21T09:18:27.000Z</time>
      </trkpt>
      <trkpt lat="42.9468633" lon="-5.721892">
        <ele>1226.38</ele>
        <time>2020-07-21T09:18:28.000Z</time>
      </trkpt>
      <trkpt lat="42.946875" lon="-5.7219023">
        <ele>1226.53</ele>
        <time>2020-07-21T09:18:29.000Z</time>
      </trkpt>
      <trkpt lat="42.9468898" lon="-5.7219155">
        <ele>1226.53</ele>
        <time>2020-07-21T09:18:30.000Z</time>
      </trkpt>
      <trkpt lat="42.9469215" lon="-5.7219408">
        <ele>1226.68</ele>
        <time>2020-07-21T09:18:31.000Z</time>
      </trkpt>
      <trkpt lat="42.9469215" lon="-5.7219408">
        <ele>1226.68</ele>
        <time>2020-07-21T09:18:32.000Z</time>
      </trkpt>
      <trkpt lat="42.946934" lon="-5.7219528">
        <ele>1226.68</ele>
        <time>2020-07-21T09:18:33.000Z</time>
      </trkpt>
      <trkpt lat="42.9469442" lon="-5.721965">
        <ele>1226.68</ele>
        <time>2020-07-21T09:18:34.000Z</time>
      </trkpt>
      <trkpt lat="42.946954" lon="-5.7219788">
        <ele>1226.83</ele>
        <time>2020-07-21T09:18:35.000Z</time>
      </trkpt>
      <trkpt lat="42.9469632" lon="-5.7219928">
        <ele>1226.83</ele>
        <time>2020-07-21T09:18:36.000Z</time>
      </trkpt>
      <trkpt lat="42.9469727" lon="-5.7220068">
        <ele>1226.99</ele>
        <time>2020-07-21T09:18:37.000Z</time>
      </trkpt>
      <trkpt lat="42.9469812" lon="-5.7220203">
        <ele>1226.99</ele>
        <time>2020-07-21T09:18:38.000Z</time>
      </trkpt>
      <trkpt lat="42.9469902" lon="-5.7220342">
        <ele>1227.14</ele>
        <time>2020-07-21T09:18:39.000Z</time>
      </trkpt>
      <trkpt lat="42.9469972" lon="-5.7220493">
        <ele>1227.14</ele>
        <time>2020-07-21T09:18:40.000Z</time>
      </trkpt>
      <trkpt lat="42.9470043" lon="-5.7220683">
        <ele>1227.14</ele>
        <time>2020-07-21T09:18:41.000Z</time>
      </trkpt>
      <trkpt lat="42.9470177" lon="-5.7221087">
        <ele>1227.14</ele>
        <time>2020-07-21T09:18:42.000Z</time>
      </trkpt>
      <trkpt lat="42.9470177" lon="-5.7221087">
        <ele>1227.29</ele>
        <time>2020-07-21T09:18:43.000Z</time>
      </trkpt>
      <trkpt lat="42.947024" lon="-5.7221287">
        <ele>1227.29</ele>
        <time>2020-07-21T09:18:44.000Z</time>
      </trkpt>
      <trkpt lat="42.9470305" lon="-5.7221503">
        <ele>1227.44</ele>
        <time>2020-07-21T09:18:45.000Z</time>
      </trkpt>
      <trkpt lat="42.947036" lon="-5.722171">
        <ele>1227.44</ele>
        <time>2020-07-21T09:18:46.000Z</time>
      </trkpt>
      <trkpt lat="42.947041" lon="-5.7221915">
        <ele>1227.6</ele>
        <time>2020-07-21T09:18:47.000Z</time>
      </trkpt>
      <trkpt lat="42.9470457" lon="-5.7222098">
        <ele>1227.6</ele>
        <time>2020-07-21T09:18:48.000Z</time>
      </trkpt>
      <trkpt lat="42.9470505" lon="-5.7222267">
        <ele>1227.75</ele>
        <time>2020-07-21T09:18:49.000Z</time>
      </trkpt>
      <trkpt lat="42.9470555" lon="-5.7222427">
        <ele>1227.75</ele>
        <time>2020-07-21T09:18:50.000Z</time>
      </trkpt>
      <trkpt lat="42.9470597" lon="-5.7222595">
        <ele>1227.9</ele>
        <time>2020-07-21T09:18:51.000Z</time>
      </trkpt>
      <trkpt lat="42.9470638" lon="-5.7222755">
        <ele>1227.9</ele>
        <time>2020-07-21T09:18:52.000Z</time>
      </trkpt>
      <trkpt lat="42.9470688" lon="-5.7222902">
        <ele>1228.05</ele>
        <time>2020-07-21T09:18:53.000Z</time>
      </trkpt>
      <trkpt lat="42.9470755" lon="-5.7223022">
        <ele>1228.05</ele>
        <time>2020-07-21T09:18:54.000Z</time>
      </trkpt>
      <trkpt lat="42.9470827" lon="-5.7223145">
        <ele>1228.21</ele>
        <time>2020-07-21T09:18:55.000Z</time>
      </trkpt>
      <trkpt lat="42.9470897" lon="-5.7223275">
        <ele>1228.21</ele>
        <time>2020-07-21T09:18:56.000Z</time>
      </trkpt>
      <trkpt lat="42.9470958" lon="-5.722341">
        <ele>1228.36</ele>
        <time>2020-07-21T09:18:57.000Z</time>
      </trkpt>
      <trkpt lat="42.9471013" lon="-5.722354">
        <ele>1228.36</ele>
        <time>2020-07-21T09:18:58.000Z</time>
      </trkpt>
      <trkpt lat="42.947115" lon="-5.7223797">
        <ele>1228.51</ele>
        <time>2020-07-21T09:18:59.000Z</time>
      </trkpt>
      <trkpt lat="42.9471235" lon="-5.7223932">
        <ele>1228.51</ele>
        <time>2020-07-21T09:19:00.000Z</time>
      </trkpt>
      <trkpt lat="42.947131" lon="-5.7224068">
        <ele>1228.66</ele>
        <time>2020-07-21T09:19:01.000Z</time>
      </trkpt>
      <trkpt lat="42.947131" lon="-5.7224068">
        <ele>1228.66</ele>
        <time>2020-07-21T09:19:02.000Z</time>
      </trkpt>
      <trkpt lat="42.9471393" lon="-5.7224215">
        <ele>1228.82</ele>
        <time>2020-07-21T09:19:03.000Z</time>
      </trkpt>
      <trkpt lat="42.9471548" lon="-5.7224538">
        <ele>1228.82</ele>
        <time>2020-07-21T09:19:04.000Z</time>
      </trkpt>
      <trkpt lat="42.9471548" lon="-5.7224538">
        <ele>1229.12</ele>
        <time>2020-07-21T09:19:05.000Z</time>
      </trkpt>
      <trkpt lat="42.9471627" lon="-5.7224697">
        <ele>1229.12</ele>
        <time>2020-07-21T09:19:06.000Z</time>
      </trkpt>
      <trkpt lat="42.947171" lon="-5.7224835">
        <ele>1229.27</ele>
        <time>2020-07-21T09:19:07.000Z</time>
      </trkpt>
      <trkpt lat="42.9471795" lon="-5.7224945">
        <ele>1229.27</ele>
        <time>2020-07-21T09:19:08.000Z</time>
      </trkpt>
      <trkpt lat="42.9471877" lon="-5.7225043">
        <ele>1229.43</ele>
        <time>2020-07-21T09:19:09.000Z</time>
      </trkpt>
      <trkpt lat="42.9471952" lon="-5.7225152">
        <ele>1229.43</ele>
        <time>2020-07-21T09:19:10.000Z</time>
      </trkpt>
      <trkpt lat="42.9472145" lon="-5.7225397">
        <ele>1229.58</ele>
        <time>2020-07-21T09:19:11.000Z</time>
      </trkpt>
      <trkpt lat="42.9472145" lon="-5.7225397">
        <ele>1229.58</ele>
        <time>2020-07-21T09:19:12.000Z</time>
      </trkpt>
      <trkpt lat="42.9472265" lon="-5.7225513">
        <ele>1229.73</ele>
        <time>2020-07-21T09:19:13.000Z</time>
      </trkpt>
      <trkpt lat="42.9472403" lon="-5.7225613">
        <ele>1229.73</ele>
        <time>2020-07-21T09:19:14.000Z</time>
      </trkpt>
      <trkpt lat="42.9472535" lon="-5.7225695">
        <ele>1229.88</ele>
        <time>2020-07-21T09:19:15.000Z</time>
      </trkpt>
      <trkpt lat="42.9472718" lon="-5.7225763">
        <ele>1229.88</ele>
        <time>2020-07-21T09:19:16.000Z</time>
      </trkpt>
      <trkpt lat="42.9472882" lon="-5.7225833">
        <ele>1230.04</ele>
        <time>2020-07-21T09:19:17.000Z</time>
      </trkpt>
      <trkpt lat="42.9473045" lon="-5.7225925">
        <ele>1230.04</ele>
        <time>2020-07-21T09:19:18.000Z</time>
      </trkpt>
      <trkpt lat="42.947315" lon="-5.722605">
        <ele>1230.19</ele>
        <time>2020-07-21T09:19:19.000Z</time>
      </trkpt>
      <trkpt lat="42.9473245" lon="-5.7226187">
        <ele>1230.19</ele>
        <time>2020-07-21T09:19:20.000Z</time>
      </trkpt>
      <trkpt lat="42.9473327" lon="-5.7226315">
        <ele>1230.34</ele>
        <time>2020-07-21T09:19:21.000Z</time>
      </trkpt>
      <trkpt lat="42.9473403" lon="-5.722644">
        <ele>1230.34</ele>
        <time>2020-07-21T09:19:22.000Z</time>
      </trkpt>
      <trkpt lat="42.9473492" lon="-5.7226567">
        <ele>1230.49</ele>
        <time>2020-07-21T09:19:23.000Z</time>
      </trkpt>
      <trkpt lat="42.9473587" lon="-5.7226692">
        <ele>1230.49</ele>
        <time>2020-07-21T09:19:24.000Z</time>
      </trkpt>
      <trkpt lat="42.9473692" lon="-5.7226805">
        <ele>1230.65</ele>
        <time>2020-07-21T09:19:25.000Z</time>
      </trkpt>
      <trkpt lat="42.9473798" lon="-5.7226908">
        <ele>1230.65</ele>
        <time>2020-07-21T09:19:26.000Z</time>
      </trkpt>
      <trkpt lat="42.947389" lon="-5.7227007">
        <ele>1230.8</ele>
        <time>2020-07-21T09:19:27.000Z</time>
      </trkpt>
      <trkpt lat="42.947399" lon="-5.722711">
        <ele>1230.8</ele>
        <time>2020-07-21T09:19:28.000Z</time>
      </trkpt>
      <trkpt lat="42.947409" lon="-5.7227217">
        <ele>1230.95</ele>
        <time>2020-07-21T09:19:29.000Z</time>
      </trkpt>
      <trkpt lat="42.9474202" lon="-5.7227323">
        <ele>1230.95</ele>
        <time>2020-07-21T09:19:30.000Z</time>
      </trkpt>
      <trkpt lat="42.9474297" lon="-5.7227435">
        <ele>1231.1</ele>
        <time>2020-07-21T09:19:31.000Z</time>
      </trkpt>
      <trkpt lat="42.9474387" lon="-5.7227552">
        <ele>1231.1</ele>
        <time>2020-07-21T09:19:32.000Z</time>
      </trkpt>
      <trkpt lat="42.9474562" lon="-5.7227787">
        <ele>1231.26</ele>
        <time>2020-07-21T09:19:33.000Z</time>
      </trkpt>
      <trkpt lat="42.9474562" lon="-5.7227787">
        <ele>1231.26</ele>
        <time>2020-07-21T09:19:34.000Z</time>
      </trkpt>
      <trkpt lat="42.947466" lon="-5.7227892">
        <ele>1231.41</ele>
        <time>2020-07-21T09:19:35.000Z</time>
      </trkpt>
      <trkpt lat="42.9474775" lon="-5.722799">
        <ele>1231.41</ele>
        <time>2020-07-21T09:19:36.000Z</time>
      </trkpt>
      <trkpt lat="42.9474883" lon="-5.7228088">
        <ele>1231.56</ele>
        <time>2020-07-21T09:19:37.000Z</time>
      </trkpt>
      <trkpt lat="42.9474988" lon="-5.7228188">
        <ele>1231.56</ele>
        <time>2020-07-21T09:19:38.000Z</time>
      </trkpt>
      <trkpt lat="42.9475088" lon="-5.7228295">
        <ele>1231.71</ele>
        <time>2020-07-21T09:19:39.000Z</time>
      </trkpt>
      <trkpt lat="42.9475297" lon="-5.7228523">
        <ele>1231.71</ele>
        <time>2020-07-21T09:19:40.000Z</time>
      </trkpt>
      <trkpt lat="42.9475297" lon="-5.7228523">
        <ele>1231.86</ele>
        <time>2020-07-21T09:19:41.000Z</time>
      </trkpt>
      <trkpt lat="42.9475402" lon="-5.722863">
        <ele>1231.86</ele>
        <time>2020-07-21T09:19:42.000Z</time>
      </trkpt>
      <trkpt lat="42.9475505" lon="-5.7228733">
        <ele>1232.02</ele>
        <time>2020-07-21T09:19:43.000Z</time>
      </trkpt>
      <trkpt lat="42.9475612" lon="-5.722884">
        <ele>1232.02</ele>
        <time>2020-07-21T09:19:44.000Z</time>
      </trkpt>
      <trkpt lat="42.9475717" lon="-5.7228952">
        <ele>1232.17</ele>
        <time>2020-07-21T09:19:45.000Z</time>
      </trkpt>
      <trkpt lat="42.947582" lon="-5.7229057">
        <ele>1232.17</ele>
        <time>2020-07-21T09:19:46.000Z</time>
      </trkpt>
      <trkpt lat="42.9475923" lon="-5.7229162">
        <ele>1232.32</ele>
        <time>2020-07-21T09:19:47.000Z</time>
      </trkpt>
      <trkpt lat="42.9476025" lon="-5.7229272">
        <ele>1232.32</ele>
        <time>2020-07-21T09:19:48.000Z</time>
      </trkpt>
      <trkpt lat="42.9476137" lon="-5.7229378">
        <ele>1232.47</ele>
        <time>2020-07-21T09:19:49.000Z</time>
      </trkpt>
      <trkpt lat="42.9476252" lon="-5.7229472">
        <ele>1232.47</ele>
        <time>2020-07-21T09:19:50.000Z</time>
      </trkpt>
      <trkpt lat="42.947637" lon="-5.7229558">
        <ele>1232.63</ele>
        <time>2020-07-21T09:19:51.000Z</time>
      </trkpt>
      <trkpt lat="42.9476477" lon="-5.7229658">
        <ele>1232.63</ele>
        <time>2020-07-21T09:19:52.000Z</time>
      </trkpt>
      <trkpt lat="42.9476577" lon="-5.722977">
        <ele>1232.78</ele>
        <time>2020-07-21T09:19:53.000Z</time>
      </trkpt>
      <trkpt lat="42.9476677" lon="-5.7229877">
        <ele>1232.78</ele>
        <time>2020-07-21T09:19:54.000Z</time>
      </trkpt>
      <trkpt lat="42.9476787" lon="-5.7229967">
        <ele>1233.08</ele>
        <time>2020-07-21T09:19:55.000Z</time>
      </trkpt>
      <trkpt lat="42.947689" lon="-5.7230053">
        <ele>1233.08</ele>
        <time>2020-07-21T09:19:56.000Z</time>
      </trkpt>
      <trkpt lat="42.947699" lon="-5.7230147">
        <ele>1233.24</ele>
        <time>2020-07-21T09:19:57.000Z</time>
      </trkpt>
      <trkpt lat="42.9477082" lon="-5.723025">
        <ele>1233.24</ele>
        <time>2020-07-21T09:19:58.000Z</time>
      </trkpt>
      <trkpt lat="42.9477183" lon="-5.7230348">
        <ele>1233.39</ele>
        <time>2020-07-21T09:19:59.000Z</time>
      </trkpt>
      <trkpt lat="42.9477288" lon="-5.723045">
        <ele>1233.39</ele>
        <time>2020-07-21T09:20:00.000Z</time>
      </trkpt>
      <trkpt lat="42.9477495" lon="-5.7230657">
        <ele>1233.54</ele>
        <time>2020-07-21T09:20:01.000Z</time>
      </trkpt>
      <trkpt lat="42.9477595" lon="-5.7230753">
        <ele>1233.54</ele>
        <time>2020-07-21T09:20:02.000Z</time>
      </trkpt>
      <trkpt lat="42.9477595" lon="-5.7230753">
        <ele>1233.69</ele>
        <time>2020-07-21T09:20:03.000Z</time>
      </trkpt>
      <trkpt lat="42.947769" lon="-5.7230843">
        <ele>1233.69</ele>
        <time>2020-07-21T09:20:04.000Z</time>
      </trkpt>
      <trkpt lat="42.9477795" lon="-5.7230933">
        <ele>1234</ele>
        <time>2020-07-21T09:20:05.000Z</time>
      </trkpt>
      <trkpt lat="42.947791" lon="-5.723102">
        <ele>1234</ele>
        <time>2020-07-21T09:20:06.000Z</time>
      </trkpt>
      <trkpt lat="42.9478033" lon="-5.7231108">
        <ele>1234.15</ele>
        <time>2020-07-21T09:20:07.000Z</time>
      </trkpt>
      <trkpt lat="42.9478152" lon="-5.7231195">
        <ele>1234.15</ele>
        <time>2020-07-21T09:20:08.000Z</time>
      </trkpt>
      <trkpt lat="42.9478267" lon="-5.7231283">
        <ele>1234.3</ele>
        <time>2020-07-21T09:20:09.000Z</time>
      </trkpt>
      <trkpt lat="42.9478388" lon="-5.7231372">
        <ele>1234.3</ele>
        <time>2020-07-21T09:20:10.000Z</time>
      </trkpt>
      <trkpt lat="42.9478498" lon="-5.7231472">
        <ele>1234.45</ele>
        <time>2020-07-21T09:20:11.000Z</time>
      </trkpt>
      <trkpt lat="42.9478598" lon="-5.723158">
        <ele>1234.45</ele>
        <time>2020-07-21T09:20:12.000Z</time>
      </trkpt>
      <trkpt lat="42.947879" lon="-5.7231787">
        <ele>1234.76</ele>
        <time>2020-07-21T09:20:13.000Z</time>
      </trkpt>
      <trkpt lat="42.947879" lon="-5.7231787">
        <ele>1234.76</ele>
        <time>2020-07-21T09:20:14.000Z</time>
      </trkpt>
      <trkpt lat="42.9478892" lon="-5.7231875">
        <ele>1234.91</ele>
        <time>2020-07-21T09:20:15.000Z</time>
      </trkpt>
      <trkpt lat="42.9478995" lon="-5.7231958">
        <ele>1234.91</ele>
        <time>2020-07-21T09:20:16.000Z</time>
      </trkpt>
      <trkpt lat="42.9479103" lon="-5.7232035">
        <ele>1235.22</ele>
        <time>2020-07-21T09:20:17.000Z</time>
      </trkpt>
      <trkpt lat="42.9479205" lon="-5.7232113">
        <ele>1235.22</ele>
        <time>2020-07-21T09:20:18.000Z</time>
      </trkpt>
      <trkpt lat="42.9479307" lon="-5.7232195">
        <ele>1235.37</ele>
        <time>2020-07-21T09:20:19.000Z</time>
      </trkpt>
      <trkpt lat="42.9479505" lon="-5.723237">
        <ele>1235.37</ele>
        <time>2020-07-21T09:20:20.000Z</time>
      </trkpt>
      <trkpt lat="42.9479505" lon="-5.723237">
        <ele>1235.52</ele>
        <time>2020-07-21T09:20:21.000Z</time>
      </trkpt>
      <trkpt lat="42.94796" lon="-5.7232472">
        <ele>1235.52</ele>
        <time>2020-07-21T09:20:22.000Z</time>
      </trkpt>
      <trkpt lat="42.9479693" lon="-5.7232573">
        <ele>1235.83</ele>
        <time>2020-07-21T09:20:23.000Z</time>
      </trkpt>
      <trkpt lat="42.9479888" lon="-5.7232755">
        <ele>1235.83</ele>
        <time>2020-07-21T09:20:24.000Z</time>
      </trkpt>
      <trkpt lat="42.9479888" lon="-5.7232755">
        <ele>1235.98</ele>
        <time>2020-07-21T09:20:25.000Z</time>
      </trkpt>
      <trkpt lat="42.9479992" lon="-5.7232838">
        <ele>1235.98</ele>
        <time>2020-07-21T09:20:26.000Z</time>
      </trkpt>
      <trkpt lat="42.9480105" lon="-5.7232912">
        <ele>1236.28</ele>
        <time>2020-07-21T09:20:27.000Z</time>
      </trkpt>
      <trkpt lat="42.9480218" lon="-5.7232985">
        <ele>1236.28</ele>
        <time>2020-07-21T09:20:28.000Z</time>
      </trkpt>
      <trkpt lat="42.9480328" lon="-5.7233058">
        <ele>1236.59</ele>
        <time>2020-07-21T09:20:29.000Z</time>
      </trkpt>
      <trkpt lat="42.9480435" lon="-5.723313">
        <ele>1236.59</ele>
        <time>2020-07-21T09:20:30.000Z</time>
      </trkpt>
      <trkpt lat="42.948064" lon="-5.7233292">
        <ele>1236.89</ele>
        <time>2020-07-21T09:20:31.000Z</time>
      </trkpt>
      <trkpt lat="42.948064" lon="-5.7233292">
        <ele>1236.89</ele>
        <time>2020-07-21T09:20:32.000Z</time>
      </trkpt>
      <trkpt lat="42.9480733" lon="-5.7233378">
        <ele>1237.05</ele>
        <time>2020-07-21T09:20:33.000Z</time>
      </trkpt>
      <trkpt lat="42.9480835" lon="-5.7233457">
        <ele>1237.05</ele>
        <time>2020-07-21T09:20:34.000Z</time>
      </trkpt>
      <trkpt lat="42.9480937" lon="-5.723353">
        <ele>1237.35</ele>
        <time>2020-07-21T09:20:35.000Z</time>
      </trkpt>
      <trkpt lat="42.9481037" lon="-5.7233603">
        <ele>1237.35</ele>
        <time>2020-07-21T09:20:36.000Z</time>
      </trkpt>
      <trkpt lat="42.9481132" lon="-5.723368">
        <ele>1237.66</ele>
        <time>2020-07-21T09:20:37.000Z</time>
      </trkpt>
      <trkpt lat="42.948122" lon="-5.7233752">
        <ele>1237.66</ele>
        <time>2020-07-21T09:20:38.000Z</time>
      </trkpt>
      <trkpt lat="42.9481307" lon="-5.7233818">
        <ele>1238.11</ele>
        <time>2020-07-21T09:20:39.000Z</time>
      </trkpt>
      <trkpt lat="42.948138" lon="-5.7233882">
        <ele>1238.11</ele>
        <time>2020-07-21T09:20:40.000Z</time>
      </trkpt>
      <trkpt lat="42.9481447" lon="-5.7233952">
        <ele>1238.42</ele>
        <time>2020-07-21T09:20:41.000Z</time>
      </trkpt>
      <trkpt lat="42.9481537" lon="-5.7234122">
        <ele>1238.42</ele>
        <time>2020-07-21T09:20:42.000Z</time>
      </trkpt>
      <trkpt lat="42.9481537" lon="-5.7234122">
        <ele>1238.72</ele>
        <time>2020-07-21T09:20:43.000Z</time>
      </trkpt>
      <trkpt lat="42.9481562" lon="-5.7234215">
        <ele>1238.72</ele>
        <time>2020-07-21T09:20:44.000Z</time>
      </trkpt>
      <trkpt lat="42.9481575" lon="-5.7234298">
        <ele>1239.18</ele>
        <time>2020-07-21T09:20:45.000Z</time>
      </trkpt>
      <trkpt lat="42.9481585" lon="-5.7234388">
        <ele>1239.18</ele>
        <time>2020-07-21T09:20:46.000Z</time>
      </trkpt>
      <trkpt lat="42.948158" lon="-5.7234498">
        <ele>1239.48</ele>
        <time>2020-07-21T09:20:47.000Z</time>
      </trkpt>
      <trkpt lat="42.9481572" lon="-5.7234637">
        <ele>1239.48</ele>
        <time>2020-07-21T09:20:48.000Z</time>
      </trkpt>
      <trkpt lat="42.948157" lon="-5.7234788">
        <ele>1239.94</ele>
        <time>2020-07-21T09:20:49.000Z</time>
      </trkpt>
      <trkpt lat="42.9481575" lon="-5.7234948">
        <ele>1239.94</ele>
        <time>2020-07-21T09:20:50.000Z</time>
      </trkpt>
      <trkpt lat="42.9481575" lon="-5.7235113">
        <ele>1240.25</ele>
        <time>2020-07-21T09:20:51.000Z</time>
      </trkpt>
      <trkpt lat="42.948157" lon="-5.7235278">
        <ele>1240.25</ele>
        <time>2020-07-21T09:20:52.000Z</time>
      </trkpt>
      <trkpt lat="42.9481567" lon="-5.7235438">
        <ele>1240.7</ele>
        <time>2020-07-21T09:20:53.000Z</time>
      </trkpt>
      <trkpt lat="42.9481568" lon="-5.7235598">
        <ele>1240.7</ele>
        <time>2020-07-21T09:20:54.000Z</time>
      </trkpt>
      <trkpt lat="42.9481567" lon="-5.7235757">
        <ele>1241.01</ele>
        <time>2020-07-21T09:20:55.000Z</time>
      </trkpt>
      <trkpt lat="42.948156" lon="-5.7235918">
        <ele>1241.01</ele>
        <time>2020-07-21T09:20:56.000Z</time>
      </trkpt>
      <trkpt lat="42.9481538" lon="-5.7236073">
        <ele>1241.46</ele>
        <time>2020-07-21T09:20:57.000Z</time>
      </trkpt>
      <trkpt lat="42.9481497" lon="-5.7236235">
        <ele>1241.46</ele>
        <time>2020-07-21T09:20:58.000Z</time>
      </trkpt>
      <trkpt lat="42.9481447" lon="-5.7236395">
        <ele>1241.77</ele>
        <time>2020-07-21T09:20:59.000Z</time>
      </trkpt>
      <trkpt lat="42.948137" lon="-5.7236723">
        <ele>1241.77</ele>
        <time>2020-07-21T09:21:00.000Z</time>
      </trkpt>
      <trkpt lat="42.948137" lon="-5.7236723">
        <ele>1242.23</ele>
        <time>2020-07-21T09:21:01.000Z</time>
      </trkpt>
      <trkpt lat="42.9481332" lon="-5.7236875">
        <ele>1242.23</ele>
        <time>2020-07-21T09:21:02.000Z</time>
      </trkpt>
      <trkpt lat="42.9481285" lon="-5.7237018">
        <ele>1242.53</ele>
        <time>2020-07-21T09:21:03.000Z</time>
      </trkpt>
      <trkpt lat="42.9481228" lon="-5.723716">
        <ele>1242.53</ele>
        <time>2020-07-21T09:21:04.000Z</time>
      </trkpt>
      <trkpt lat="42.9481172" lon="-5.7237307">
        <ele>1242.99</ele>
        <time>2020-07-21T09:21:05.000Z</time>
      </trkpt>
      <trkpt lat="42.9481108" lon="-5.7237455">
        <ele>1242.99</ele>
        <time>2020-07-21T09:21:06.000Z</time>
      </trkpt>
      <trkpt lat="42.9481042" lon="-5.7237597">
        <ele>1243.29</ele>
        <time>2020-07-21T09:21:07.000Z</time>
      </trkpt>
      <trkpt lat="42.948097" lon="-5.7237733">
        <ele>1243.29</ele>
        <time>2020-07-21T09:21:08.000Z</time>
      </trkpt>
      <trkpt lat="42.94809" lon="-5.7237872">
        <ele>1243.75</ele>
        <time>2020-07-21T09:21:09.000Z</time>
      </trkpt>
      <trkpt lat="42.9480835" lon="-5.7238018">
        <ele>1243.75</ele>
        <time>2020-07-21T09:21:10.000Z</time>
      </trkpt>
      <trkpt lat="42.9480715" lon="-5.7238315">
        <ele>1244.06</ele>
        <time>2020-07-21T09:21:11.000Z</time>
      </trkpt>
      <trkpt lat="42.9480715" lon="-5.7238315">
        <ele>1244.06</ele>
        <time>2020-07-21T09:21:12.000Z</time>
      </trkpt>
      <trkpt lat="42.9480652" lon="-5.7238472">
        <ele>1244.51</ele>
        <time>2020-07-21T09:21:13.000Z</time>
      </trkpt>
      <trkpt lat="42.9480588" lon="-5.723863">
        <ele>1244.51</ele>
        <time>2020-07-21T09:21:14.000Z</time>
      </trkpt>
      <trkpt lat="42.9480533" lon="-5.7238795">
        <ele>1244.82</ele>
        <time>2020-07-21T09:21:15.000Z</time>
      </trkpt>
      <trkpt lat="42.9480523" lon="-5.7238962">
        <ele>1244.82</ele>
        <time>2020-07-21T09:21:16.000Z</time>
      </trkpt>
      <trkpt lat="42.9480563" lon="-5.7239145">
        <ele>1245.28</ele>
        <time>2020-07-21T09:21:17.000Z</time>
      </trkpt>
      <trkpt lat="42.9480643" lon="-5.7239325">
        <ele>1245.28</ele>
        <time>2020-07-21T09:21:18.000Z</time>
      </trkpt>
      <trkpt lat="42.9480725" lon="-5.7239493">
        <ele>1245.58</ele>
        <time>2020-07-21T09:21:19.000Z</time>
      </trkpt>
      <trkpt lat="42.9480797" lon="-5.7239638">
        <ele>1245.58</ele>
        <time>2020-07-21T09:21:20.000Z</time>
      </trkpt>
      <trkpt lat="42.9480867" lon="-5.7239778">
        <ele>1246.04</ele>
        <time>2020-07-21T09:21:21.000Z</time>
      </trkpt>
      <trkpt lat="42.948094" lon="-5.7239908">
        <ele>1246.04</ele>
        <time>2020-07-21T09:21:22.000Z</time>
      </trkpt>
      <trkpt lat="42.9481023" lon="-5.7240032">
        <ele>1246.34</ele>
        <time>2020-07-21T09:21:23.000Z</time>
      </trkpt>
      <trkpt lat="42.9481112" lon="-5.7240148">
        <ele>1246.34</ele>
        <time>2020-07-21T09:21:24.000Z</time>
      </trkpt>
      <trkpt lat="42.9481208" lon="-5.7240258">
        <ele>1246.8</ele>
        <time>2020-07-21T09:21:25.000Z</time>
      </trkpt>
      <trkpt lat="42.9481307" lon="-5.7240362">
        <ele>1246.8</ele>
        <time>2020-07-21T09:21:26.000Z</time>
      </trkpt>
      <trkpt lat="42.9481402" lon="-5.7240457">
        <ele>1247.1</ele>
        <time>2020-07-21T09:21:27.000Z</time>
      </trkpt>
      <trkpt lat="42.9481487" lon="-5.7240552">
        <ele>1247.1</ele>
        <time>2020-07-21T09:21:28.000Z</time>
      </trkpt>
      <trkpt lat="42.9481643" lon="-5.7240752">
        <ele>1247.56</ele>
        <time>2020-07-21T09:21:29.000Z</time>
      </trkpt>
      <trkpt lat="42.9481643" lon="-5.7240752">
        <ele>1247.56</ele>
        <time>2020-07-21T09:21:30.000Z</time>
      </trkpt>
      <trkpt lat="42.9481717" lon="-5.7240853">
        <ele>1247.87</ele>
        <time>2020-07-21T09:21:31.000Z</time>
      </trkpt>
      <trkpt lat="42.948179" lon="-5.7240962">
        <ele>1247.87</ele>
        <time>2020-07-21T09:21:32.000Z</time>
      </trkpt>
      <trkpt lat="42.9481862" lon="-5.7241077">
        <ele>1248.32</ele>
        <time>2020-07-21T09:21:33.000Z</time>
      </trkpt>
      <trkpt lat="42.948194" lon="-5.7241185">
        <ele>1248.32</ele>
        <time>2020-07-21T09:21:34.000Z</time>
      </trkpt>
      <trkpt lat="42.9482022" lon="-5.7241283">
        <ele>1248.78</ele>
        <time>2020-07-21T09:21:35.000Z</time>
      </trkpt>
      <trkpt lat="42.9482108" lon="-5.7241382">
        <ele>1248.78</ele>
        <time>2020-07-21T09:21:36.000Z</time>
      </trkpt>
      <trkpt lat="42.9482202" lon="-5.7241482">
        <ele>1249.24</ele>
        <time>2020-07-21T09:21:37.000Z</time>
      </trkpt>
      <trkpt lat="42.9482295" lon="-5.7241587">
        <ele>1249.24</ele>
        <time>2020-07-21T09:21:38.000Z</time>
      </trkpt>
      <trkpt lat="42.9482385" lon="-5.7241688">
        <ele>1249.54</ele>
        <time>2020-07-21T09:21:39.000Z</time>
      </trkpt>
      <trkpt lat="42.948256" lon="-5.7241902">
        <ele>1249.54</ele>
        <time>2020-07-21T09:21:40.000Z</time>
      </trkpt>
      <trkpt lat="42.948256" lon="-5.7241902">
        <ele>1250</ele>
        <time>2020-07-21T09:21:41.000Z</time>
      </trkpt>
      <trkpt lat="42.9482655" lon="-5.7242007">
        <ele>1250</ele>
        <time>2020-07-21T09:21:42.000Z</time>
      </trkpt>
      <trkpt lat="42.948275" lon="-5.7242107">
        <ele>1250.46</ele>
        <time>2020-07-21T09:21:43.000Z</time>
      </trkpt>
      <trkpt lat="42.9482845" lon="-5.7242213">
        <ele>1250.46</ele>
        <time>2020-07-21T09:21:44.000Z</time>
      </trkpt>
      <trkpt lat="42.9482932" lon="-5.7242323">
        <ele>1250.91</ele>
        <time>2020-07-21T09:21:45.000Z</time>
      </trkpt>
      <trkpt lat="42.9483018" lon="-5.724243">
        <ele>1250.91</ele>
        <time>2020-07-21T09:21:46.000Z</time>
      </trkpt>
      <trkpt lat="42.94831" lon="-5.724253">
        <ele>1251.37</ele>
        <time>2020-07-21T09:21:47.000Z</time>
      </trkpt>
      <trkpt lat="42.9483188" lon="-5.7242627">
        <ele>1251.37</ele>
        <time>2020-07-21T09:21:48.000Z</time>
      </trkpt>
      <trkpt lat="42.948328" lon="-5.7242722">
        <ele>1251.83</ele>
        <time>2020-07-21T09:21:49.000Z</time>
      </trkpt>
      <trkpt lat="42.9483373" lon="-5.7242823">
        <ele>1251.83</ele>
        <time>2020-07-21T09:21:50.000Z</time>
      </trkpt>
      <trkpt lat="42.9483555" lon="-5.7243035">
        <ele>1252.29</ele>
        <time>2020-07-21T09:21:51.000Z</time>
      </trkpt>
      <trkpt lat="42.9483555" lon="-5.7243035">
        <ele>1252.29</ele>
        <time>2020-07-21T09:21:52.000Z</time>
      </trkpt>
      <trkpt lat="42.948365" lon="-5.7243142">
        <ele>1252.74</ele>
        <time>2020-07-21T09:21:53.000Z</time>
      </trkpt>
      <trkpt lat="42.9483747" lon="-5.7243242">
        <ele>1252.74</ele>
        <time>2020-07-21T09:21:54.000Z</time>
      </trkpt>
      <trkpt lat="42.9483932" lon="-5.7243442">
        <ele>1253.2</ele>
        <time>2020-07-21T09:21:55.000Z</time>
      </trkpt>
      <trkpt lat="42.9483932" lon="-5.7243442">
        <ele>1253.2</ele>
        <time>2020-07-21T09:21:56.000Z</time>
      </trkpt>
      <trkpt lat="42.9484018" lon="-5.7243547">
        <ele>1253.66</ele>
        <time>2020-07-21T09:21:57.000Z</time>
      </trkpt>
      <trkpt lat="42.9484107" lon="-5.7243648">
        <ele>1253.66</ele>
        <time>2020-07-21T09:21:58.000Z</time>
      </trkpt>
      <trkpt lat="42.9484198" lon="-5.7243757">
        <ele>1254.11</ele>
        <time>2020-07-21T09:21:59.000Z</time>
      </trkpt>
      <trkpt lat="42.9484287" lon="-5.7243863">
        <ele>1254.11</ele>
        <time>2020-07-21T09:22:00.000Z</time>
      </trkpt>
      <trkpt lat="42.9484372" lon="-5.7243978">
        <ele>1254.57</ele>
        <time>2020-07-21T09:22:01.000Z</time>
      </trkpt>
      <trkpt lat="42.9484463" lon="-5.7244083">
        <ele>1254.57</ele>
        <time>2020-07-21T09:22:02.000Z</time>
      </trkpt>
      <trkpt lat="42.9484557" lon="-5.7244188">
        <ele>1255.03</ele>
        <time>2020-07-21T09:22:03.000Z</time>
      </trkpt>
      <trkpt lat="42.9484647" lon="-5.7244285">
        <ele>1255.03</ele>
        <time>2020-07-21T09:22:04.000Z</time>
      </trkpt>
      <trkpt lat="42.9484735" lon="-5.7244392">
        <ele>1255.49</ele>
        <time>2020-07-21T09:22:05.000Z</time>
      </trkpt>
      <trkpt lat="42.9484827" lon="-5.7244497">
        <ele>1255.49</ele>
        <time>2020-07-21T09:22:06.000Z</time>
      </trkpt>
      <trkpt lat="42.9484922" lon="-5.7244612">
        <ele>1255.94</ele>
        <time>2020-07-21T09:22:07.000Z</time>
      </trkpt>
      <trkpt lat="42.9485012" lon="-5.7244722">
        <ele>1255.94</ele>
        <time>2020-07-21T09:22:08.000Z</time>
      </trkpt>
      <trkpt lat="42.9485178" lon="-5.7244935">
        <ele>1256.4</ele>
        <time>2020-07-21T09:22:09.000Z</time>
      </trkpt>
      <trkpt lat="42.9485178" lon="-5.7244935">
        <ele>1256.4</ele>
        <time>2020-07-21T09:22:10.000Z</time>
      </trkpt>
      <trkpt lat="42.9485262" lon="-5.7245035">
        <ele>1256.86</ele>
        <time>2020-07-21T09:22:11.000Z</time>
      </trkpt>
      <trkpt lat="42.9485345" lon="-5.7245133">
        <ele>1256.86</ele>
        <time>2020-07-21T09:22:12.000Z</time>
      </trkpt>
      <trkpt lat="42.9485423" lon="-5.7245238">
        <ele>1257.31</ele>
        <time>2020-07-21T09:22:13.000Z</time>
      </trkpt>
      <trkpt lat="42.94855" lon="-5.724534">
        <ele>1257.31</ele>
        <time>2020-07-21T09:22:14.000Z</time>
      </trkpt>
      <trkpt lat="42.948558" lon="-5.7245437">
        <ele>1257.77</ele>
        <time>2020-07-21T09:22:15.000Z</time>
      </trkpt>
      <trkpt lat="42.9485658" lon="-5.7245535">
        <ele>1257.77</ele>
        <time>2020-07-21T09:22:16.000Z</time>
      </trkpt>
      <trkpt lat="42.948574" lon="-5.7245635">
        <ele>1258.08</ele>
        <time>2020-07-21T09:22:17.000Z</time>
      </trkpt>
      <trkpt lat="42.9485817" lon="-5.7245732">
        <ele>1258.08</ele>
        <time>2020-07-21T09:22:18.000Z</time>
      </trkpt>
      <trkpt lat="42.9485903" lon="-5.7245823">
        <ele>1258.53</ele>
        <time>2020-07-21T09:22:19.000Z</time>
      </trkpt>
      <trkpt lat="42.9486063" lon="-5.724601">
        <ele>1258.53</ele>
        <time>2020-07-21T09:22:20.000Z</time>
      </trkpt>
      <trkpt lat="42.9486063" lon="-5.724601">
        <ele>1258.99</ele>
        <time>2020-07-21T09:22:21.000Z</time>
      </trkpt>
      <trkpt lat="42.948614" lon="-5.7246103">
        <ele>1258.99</ele>
        <time>2020-07-21T09:22:22.000Z</time>
      </trkpt>
      <trkpt lat="42.9486228" lon="-5.724619">
        <ele>1259.3</ele>
        <time>2020-07-21T09:22:23.000Z</time>
      </trkpt>
      <trkpt lat="42.9486307" lon="-5.7246277">
        <ele>1259.3</ele>
        <time>2020-07-21T09:22:24.000Z</time>
      </trkpt>
      <trkpt lat="42.9486383" lon="-5.724637">
        <ele>1259.6</ele>
        <time>2020-07-21T09:22:25.000Z</time>
      </trkpt>
      <trkpt lat="42.9486455" lon="-5.7246468">
        <ele>1259.6</ele>
        <time>2020-07-21T09:22:26.000Z</time>
      </trkpt>
      <trkpt lat="42.9486533" lon="-5.7246563">
        <ele>1260.06</ele>
        <time>2020-07-21T09:22:27.000Z</time>
      </trkpt>
      <trkpt lat="42.9486618" lon="-5.7246663">
        <ele>1260.06</ele>
        <time>2020-07-21T09:22:28.000Z</time>
      </trkpt>
      <trkpt lat="42.9486707" lon="-5.7246765">
        <ele>1260.36</ele>
        <time>2020-07-21T09:22:29.000Z</time>
      </trkpt>
      <trkpt lat="42.9486793" lon="-5.724687">
        <ele>1260.36</ele>
        <time>2020-07-21T09:22:30.000Z</time>
      </trkpt>
      <trkpt lat="42.9486953" lon="-5.7247067">
        <ele>1260.82</ele>
        <time>2020-07-21T09:22:31.000Z</time>
      </trkpt>
      <trkpt lat="42.9486953" lon="-5.7247067">
        <ele>1260.82</ele>
        <time>2020-07-21T09:22:32.000Z</time>
      </trkpt>
      <trkpt lat="42.9487028" lon="-5.7247157">
        <ele>1261.12</ele>
        <time>2020-07-21T09:22:33.000Z</time>
      </trkpt>
      <trkpt lat="42.9487107" lon="-5.724725">
        <ele>1261.12</ele>
        <time>2020-07-21T09:22:34.000Z</time>
      </trkpt>
      <trkpt lat="42.9487187" lon="-5.7247347">
        <ele>1261.43</ele>
        <time>2020-07-21T09:22:35.000Z</time>
      </trkpt>
      <trkpt lat="42.9487268" lon="-5.7247445">
        <ele>1261.43</ele>
        <time>2020-07-21T09:22:36.000Z</time>
      </trkpt>
      <trkpt lat="42.9487352" lon="-5.7247545">
        <ele>1261.73</ele>
        <time>2020-07-21T09:22:37.000Z</time>
      </trkpt>
      <trkpt lat="42.948752" lon="-5.7247733">
        <ele>1261.73</ele>
        <time>2020-07-21T09:22:38.000Z</time>
      </trkpt>
      <trkpt lat="42.9487598" lon="-5.7247822">
        <ele>1262.04</ele>
        <time>2020-07-21T09:22:39.000Z</time>
      </trkpt>
      <trkpt lat="42.9487598" lon="-5.7247822">
        <ele>1262.04</ele>
        <time>2020-07-21T09:22:40.000Z</time>
      </trkpt>
      <trkpt lat="42.948768" lon="-5.7247913">
        <ele>1262.34</ele>
        <time>2020-07-21T09:22:41.000Z</time>
      </trkpt>
      <trkpt lat="42.948776" lon="-5.724801">
        <ele>1262.34</ele>
        <time>2020-07-21T09:22:42.000Z</time>
      </trkpt>
      <trkpt lat="42.9487842" lon="-5.7248107">
        <ele>1262.65</ele>
        <time>2020-07-21T09:22:43.000Z</time>
      </trkpt>
      <trkpt lat="42.9487923" lon="-5.7248197">
        <ele>1262.65</ele>
        <time>2020-07-21T09:22:44.000Z</time>
      </trkpt>
      <trkpt lat="42.9488005" lon="-5.7248282">
        <ele>1263.11</ele>
        <time>2020-07-21T09:22:45.000Z</time>
      </trkpt>
      <trkpt lat="42.9488087" lon="-5.724837">
        <ele>1263.11</ele>
        <time>2020-07-21T09:22:46.000Z</time>
      </trkpt>
      <trkpt lat="42.9488175" lon="-5.7248455">
        <ele>1263.41</ele>
        <time>2020-07-21T09:22:47.000Z</time>
      </trkpt>
      <trkpt lat="42.9488262" lon="-5.7248542">
        <ele>1263.41</ele>
        <time>2020-07-21T09:22:48.000Z</time>
      </trkpt>
      <trkpt lat="42.9488423" lon="-5.7248723">
        <ele>1263.72</ele>
        <time>2020-07-21T09:22:49.000Z</time>
      </trkpt>
      <trkpt lat="42.9488423" lon="-5.7248723">
        <ele>1263.72</ele>
        <time>2020-07-21T09:22:50.000Z</time>
      </trkpt>
      <trkpt lat="42.9488498" lon="-5.7248815">
        <ele>1264.17</ele>
        <time>2020-07-21T09:22:51.000Z</time>
      </trkpt>
      <trkpt lat="42.9488573" lon="-5.7248907">
        <ele>1264.17</ele>
        <time>2020-07-21T09:22:52.000Z</time>
      </trkpt>
      <trkpt lat="42.9488653" lon="-5.724899">
        <ele>1264.48</ele>
        <time>2020-07-21T09:22:53.000Z</time>
      </trkpt>
      <trkpt lat="42.9488738" lon="-5.7249078">
        <ele>1264.48</ele>
        <time>2020-07-21T09:22:54.000Z</time>
      </trkpt>
      <trkpt lat="42.9488828" lon="-5.7249157">
        <ele>1264.94</ele>
        <time>2020-07-21T09:22:55.000Z</time>
      </trkpt>
      <trkpt lat="42.948892" lon="-5.7249238">
        <ele>1264.94</ele>
        <time>2020-07-21T09:22:56.000Z</time>
      </trkpt>
      <trkpt lat="42.9489013" lon="-5.7249323">
        <ele>1265.24</ele>
        <time>2020-07-21T09:22:57.000Z</time>
      </trkpt>
      <trkpt lat="42.9489105" lon="-5.7249423">
        <ele>1265.24</ele>
        <time>2020-07-21T09:22:58.000Z</time>
      </trkpt>
      <trkpt lat="42.9489195" lon="-5.7249527">
        <ele>1265.55</ele>
        <time>2020-07-21T09:22:59.000Z</time>
      </trkpt>
      <trkpt lat="42.9489378" lon="-5.7249715">
        <ele>1265.55</ele>
        <time>2020-07-21T09:23:00.000Z</time>
      </trkpt>
      <trkpt lat="42.9489378" lon="-5.7249715">
        <ele>1266</ele>
        <time>2020-07-21T09:23:01.000Z</time>
      </trkpt>
      <trkpt lat="42.948947" lon="-5.7249797">
        <ele>1266</ele>
        <time>2020-07-21T09:23:02.000Z</time>
      </trkpt>
      <trkpt lat="42.948957" lon="-5.7249883">
        <ele>1266.31</ele>
        <time>2020-07-21T09:23:03.000Z</time>
      </trkpt>
      <trkpt lat="42.9489667" lon="-5.7249977">
        <ele>1266.31</ele>
        <time>2020-07-21T09:23:04.000Z</time>
      </trkpt>
      <trkpt lat="42.9489763" lon="-5.7250073">
        <ele>1266.76</ele>
        <time>2020-07-21T09:23:05.000Z</time>
      </trkpt>
      <trkpt lat="42.9489952" lon="-5.7250267">
        <ele>1266.76</ele>
        <time>2020-07-21T09:23:06.000Z</time>
      </trkpt>
      <trkpt lat="42.9490045" lon="-5.7250358">
        <ele>1267.07</ele>
        <time>2020-07-21T09:23:07.000Z</time>
      </trkpt>
      <trkpt lat="42.949014" lon="-5.725044">
        <ele>1267.07</ele>
        <time>2020-07-21T09:23:08.000Z</time>
      </trkpt>
      <trkpt lat="42.949023" lon="-5.7250528">
        <ele>1267.37</ele>
        <time>2020-07-21T09:23:09.000Z</time>
      </trkpt>
      <trkpt lat="42.9490322" lon="-5.7250622">
        <ele>1267.37</ele>
        <time>2020-07-21T09:23:10.000Z</time>
      </trkpt>
      <trkpt lat="42.9490408" lon="-5.7250717">
        <ele>1267.83</ele>
        <time>2020-07-21T09:23:11.000Z</time>
      </trkpt>
      <trkpt lat="42.94905" lon="-5.7250812">
        <ele>1267.83</ele>
        <time>2020-07-21T09:23:12.000Z</time>
      </trkpt>
      <trkpt lat="42.949059" lon="-5.7250907">
        <ele>1268.14</ele>
        <time>2020-07-21T09:23:13.000Z</time>
      </trkpt>
      <trkpt lat="42.949059" lon="-5.7250907">
        <ele>1268.14</ele>
        <time>2020-07-21T09:23:14.000Z</time>
      </trkpt>
      <trkpt lat="42.9490765" lon="-5.7251085">
        <ele>1268.44</ele>
        <time>2020-07-21T09:23:15.000Z</time>
      </trkpt>
      <trkpt lat="42.9490765" lon="-5.7251085">
        <ele>1268.44</ele>
        <time>2020-07-21T09:23:16.000Z</time>
      </trkpt>
      <trkpt lat="42.9490932" lon="-5.725125">
        <ele>1268.74</ele>
        <time>2020-07-21T09:23:17.000Z</time>
      </trkpt>
      <trkpt lat="42.9491015" lon="-5.725134">
        <ele>1268.74</ele>
        <time>2020-07-21T09:23:18.000Z</time>
      </trkpt>
      <trkpt lat="42.94911" lon="-5.7251435">
        <ele>1268.9</ele>
        <time>2020-07-21T09:23:19.000Z</time>
      </trkpt>
      <trkpt lat="42.9491187" lon="-5.7251528">
        <ele>1268.9</ele>
        <time>2020-07-21T09:23:20.000Z</time>
      </trkpt>
      <trkpt lat="42.9491275" lon="-5.7251617">
        <ele>1269.2</ele>
        <time>2020-07-21T09:23:21.000Z</time>
      </trkpt>
      <trkpt lat="42.9491275" lon="-5.7251617">
        <ele>1269.2</ele>
        <time>2020-07-21T09:23:22.000Z</time>
      </trkpt>
      <trkpt lat="42.9491453" lon="-5.7251798">
        <ele>1269.51</ele>
        <time>2020-07-21T09:23:23.000Z</time>
      </trkpt>
      <trkpt lat="42.9491543" lon="-5.7251898">
        <ele>1269.51</ele>
        <time>2020-07-21T09:23:24.000Z</time>
      </trkpt>
      <trkpt lat="42.949163" lon="-5.7252002">
        <ele>1269.66</ele>
        <time>2020-07-21T09:23:25.000Z</time>
      </trkpt>
      <trkpt lat="42.949163" lon="-5.7252002">
        <ele>1269.66</ele>
        <time>2020-07-21T09:23:26.000Z</time>
      </trkpt>
      <trkpt lat="42.9491717" lon="-5.7252112">
        <ele>1269.96</ele>
        <time>2020-07-21T09:23:27.000Z</time>
      </trkpt>
      <trkpt lat="42.9491802" lon="-5.7252217">
        <ele>1269.96</ele>
        <time>2020-07-21T09:23:28.000Z</time>
      </trkpt>
      <trkpt lat="42.9491972" lon="-5.7252412">
        <ele>1270.12</ele>
        <time>2020-07-21T09:23:29.000Z</time>
      </trkpt>
      <trkpt lat="42.9491972" lon="-5.7252412">
        <ele>1270.12</ele>
        <time>2020-07-21T09:23:30.000Z</time>
      </trkpt>
      <trkpt lat="42.949205" lon="-5.7252508">
        <ele>1270.27</ele>
        <time>2020-07-21T09:23:31.000Z</time>
      </trkpt>
      <trkpt lat="42.9492125" lon="-5.7252608">
        <ele>1270.27</ele>
        <time>2020-07-21T09:23:32.000Z</time>
      </trkpt>
      <trkpt lat="42.94922" lon="-5.7252705">
        <ele>1270.42</ele>
        <time>2020-07-21T09:23:33.000Z</time>
      </trkpt>
      <trkpt lat="42.9492277" lon="-5.7252798">
        <ele>1270.42</ele>
        <time>2020-07-21T09:23:34.000Z</time>
      </trkpt>
      <trkpt lat="42.9492355" lon="-5.7252893">
        <ele>1270.73</ele>
        <time>2020-07-21T09:23:35.000Z</time>
      </trkpt>
      <trkpt lat="42.9492438" lon="-5.7252993">
        <ele>1270.73</ele>
        <time>2020-07-21T09:23:36.000Z</time>
      </trkpt>
      <trkpt lat="42.9492612" lon="-5.7253193">
        <ele>1270.88</ele>
        <time>2020-07-21T09:23:37.000Z</time>
      </trkpt>
      <trkpt lat="42.9492612" lon="-5.7253193">
        <ele>1270.88</ele>
        <time>2020-07-21T09:23:38.000Z</time>
      </trkpt>
      <trkpt lat="42.9492795" lon="-5.7253362">
        <ele>1271.03</ele>
        <time>2020-07-21T09:23:39.000Z</time>
      </trkpt>
      <trkpt lat="42.949289" lon="-5.7253445">
        <ele>1271.03</ele>
        <time>2020-07-21T09:23:40.000Z</time>
      </trkpt>
      <trkpt lat="42.949289" lon="-5.7253445">
        <ele>1271.18</ele>
        <time>2020-07-21T09:23:41.000Z</time>
      </trkpt>
      <trkpt lat="42.9492975" lon="-5.7253538">
        <ele>1271.18</ele>
        <time>2020-07-21T09:23:42.000Z</time>
      </trkpt>
      <trkpt lat="42.9493055" lon="-5.725363">
        <ele>1271.34</ele>
        <time>2020-07-21T09:23:43.000Z</time>
      </trkpt>
      <trkpt lat="42.9493135" lon="-5.7253725">
        <ele>1271.34</ele>
        <time>2020-07-21T09:23:44.000Z</time>
      </trkpt>
      <trkpt lat="42.9493215" lon="-5.7253812">
        <ele>1271.34</ele>
        <time>2020-07-21T09:23:45.000Z</time>
      </trkpt>
      <trkpt lat="42.9493377" lon="-5.7253988">
        <ele>1271.34</ele>
        <time>2020-07-21T09:23:46.000Z</time>
      </trkpt>
      <trkpt lat="42.9493462" lon="-5.7254077">
        <ele>1271.49</ele>
        <time>2020-07-21T09:23:47.000Z</time>
      </trkpt>
      <trkpt lat="42.9493462" lon="-5.7254077">
        <ele>1271.49</ele>
        <time>2020-07-21T09:23:48.000Z</time>
      </trkpt>
      <trkpt lat="42.9493543" lon="-5.7254163">
        <ele>1271.64</ele>
        <time>2020-07-21T09:23:49.000Z</time>
      </trkpt>
      <trkpt lat="42.9493703" lon="-5.7254343">
        <ele>1271.64</ele>
        <time>2020-07-21T09:23:50.000Z</time>
      </trkpt>
      <trkpt lat="42.9493703" lon="-5.7254343">
        <ele>1271.79</ele>
        <time>2020-07-21T09:23:51.000Z</time>
      </trkpt>
      <trkpt lat="42.9493782" lon="-5.7254428">
        <ele>1271.79</ele>
        <time>2020-07-21T09:23:52.000Z</time>
      </trkpt>
      <trkpt lat="42.9493868" lon="-5.7254513">
        <ele>1271.95</ele>
        <time>2020-07-21T09:23:53.000Z</time>
      </trkpt>
      <trkpt lat="42.9493948" lon="-5.7254603">
        <ele>1271.95</ele>
        <time>2020-07-21T09:23:54.000Z</time>
      </trkpt>
      <trkpt lat="42.9494033" lon="-5.7254702">
        <ele>1271.95</ele>
        <time>2020-07-21T09:23:55.000Z</time>
      </trkpt>
      <trkpt lat="42.9494113" lon="-5.72548">
        <ele>1271.95</ele>
        <time>2020-07-21T09:23:56.000Z</time>
      </trkpt>
      <trkpt lat="42.9494198" lon="-5.7254907">
        <ele>1272.1</ele>
        <time>2020-07-21T09:23:57.000Z</time>
      </trkpt>
      <trkpt lat="42.9494288" lon="-5.7255013">
        <ele>1272.1</ele>
        <time>2020-07-21T09:23:58.000Z</time>
      </trkpt>
      <trkpt lat="42.9494463" lon="-5.7255207">
        <ele>1272.25</ele>
        <time>2020-07-21T09:23:59.000Z</time>
      </trkpt>
      <trkpt lat="42.9494463" lon="-5.7255207">
        <ele>1272.25</ele>
        <time>2020-07-21T09:24:00.000Z</time>
      </trkpt>
      <trkpt lat="42.9494562" lon="-5.7255285">
        <ele>1272.4</ele>
        <time>2020-07-21T09:24:01.000Z</time>
      </trkpt>
      <trkpt lat="42.949467" lon="-5.7255373">
        <ele>1272.4</ele>
        <time>2020-07-21T09:24:02.000Z</time>
      </trkpt>
      <trkpt lat="42.9494788" lon="-5.7255467">
        <ele>1272.4</ele>
        <time>2020-07-21T09:24:03.000Z</time>
      </trkpt>
      <trkpt lat="42.9494878" lon="-5.7255583">
        <ele>1272.4</ele>
        <time>2020-07-21T09:24:04.000Z</time>
      </trkpt>
      <trkpt lat="42.9495047" lon="-5.725579">
        <ele>1272.56</ele>
        <time>2020-07-21T09:24:05.000Z</time>
      </trkpt>
      <trkpt lat="42.9495047" lon="-5.725579">
        <ele>1272.56</ele>
        <time>2020-07-21T09:24:06.000Z</time>
      </trkpt>
      <trkpt lat="42.9495147" lon="-5.725588">
        <ele>1272.56</ele>
        <time>2020-07-21T09:24:07.000Z</time>
      </trkpt>
      <trkpt lat="42.9495243" lon="-5.7255962">
        <ele>1272.56</ele>
        <time>2020-07-21T09:24:08.000Z</time>
      </trkpt>
      <trkpt lat="42.9495407" lon="-5.7256197">
        <ele>1272.71</ele>
        <time>2020-07-21T09:24:09.000Z</time>
      </trkpt>
      <trkpt lat="42.9495513" lon="-5.7256305">
        <ele>1272.71</ele>
        <time>2020-07-21T09:24:10.000Z</time>
      </trkpt>
      <trkpt lat="42.9495632" lon="-5.7256377">
        <ele>1272.71</ele>
        <time>2020-07-21T09:24:11.000Z</time>
      </trkpt>
      <trkpt lat="42.9495732" lon="-5.7256477">
        <ele>1272.71</ele>
        <time>2020-07-21T09:24:12.000Z</time>
      </trkpt>
      <trkpt lat="42.9495838" lon="-5.7256588">
        <ele>1272.86</ele>
        <time>2020-07-21T09:24:13.000Z</time>
      </trkpt>
      <trkpt lat="42.9495963" lon="-5.7256698">
        <ele>1272.86</ele>
        <time>2020-07-21T09:24:14.000Z</time>
      </trkpt>
      <trkpt lat="42.9496088" lon="-5.7256797">
        <ele>1272.86</ele>
        <time>2020-07-21T09:24:15.000Z</time>
      </trkpt>
      <trkpt lat="42.9496193" lon="-5.7256897">
        <ele>1272.86</ele>
        <time>2020-07-21T09:24:16.000Z</time>
      </trkpt>
      <trkpt lat="42.9496307" lon="-5.7256998">
        <ele>1272.86</ele>
        <time>2020-07-21T09:24:17.000Z</time>
      </trkpt>
      <trkpt lat="42.9496415" lon="-5.72571">
        <ele>1272.86</ele>
        <time>2020-07-21T09:24:18.000Z</time>
      </trkpt>
      <trkpt lat="42.9496533" lon="-5.7257217">
        <ele>1273.01</ele>
        <time>2020-07-21T09:24:19.000Z</time>
      </trkpt>
      <trkpt lat="42.949664" lon="-5.7257355">
        <ele>1273.01</ele>
        <time>2020-07-21T09:24:20.000Z</time>
      </trkpt>
      <trkpt lat="42.9496755" lon="-5.7257493">
        <ele>1273.01</ele>
        <time>2020-07-21T09:24:21.000Z</time>
      </trkpt>
      <trkpt lat="42.9496755" lon="-5.7257493">
        <ele>1273.01</ele>
        <time>2020-07-21T09:24:22.000Z</time>
      </trkpt>
      <trkpt lat="42.9496963" lon="-5.7257725">
        <ele>1273.01</ele>
        <time>2020-07-21T09:24:23.000Z</time>
      </trkpt>
      <trkpt lat="42.949706" lon="-5.725784">
        <ele>1273.01</ele>
        <time>2020-07-21T09:24:24.000Z</time>
      </trkpt>
      <trkpt lat="42.9497162" lon="-5.7257967">
        <ele>1273.17</ele>
        <time>2020-07-21T09:24:25.000Z</time>
      </trkpt>
      <trkpt lat="42.9497275" lon="-5.725808">
        <ele>1273.17</ele>
        <time>2020-07-21T09:24:26.000Z</time>
      </trkpt>
      <trkpt lat="42.9497392" lon="-5.725819">
        <ele>1273.17</ele>
        <time>2020-07-21T09:24:27.000Z</time>
      </trkpt>
      <trkpt lat="42.9497392" lon="-5.725819">
        <ele>1273.17</ele>
        <time>2020-07-21T09:24:28.000Z</time>
      </trkpt>
      <trkpt lat="42.9497592" lon="-5.7258395">
        <ele>1273.17</ele>
        <time>2020-07-21T09:24:29.000Z</time>
      </trkpt>
      <trkpt lat="42.9497687" lon="-5.7258507">
        <ele>1273.17</ele>
        <time>2020-07-21T09:24:30.000Z</time>
      </trkpt>
      <trkpt lat="42.949779" lon="-5.7258617">
        <ele>1273.32</ele>
        <time>2020-07-21T09:24:31.000Z</time>
      </trkpt>
      <trkpt lat="42.9497892" lon="-5.7258723">
        <ele>1273.32</ele>
        <time>2020-07-21T09:24:32.000Z</time>
      </trkpt>
      <trkpt lat="42.9497955" lon="-5.7258848">
        <ele>1273.32</ele>
        <time>2020-07-21T09:24:33.000Z</time>
      </trkpt>
      <trkpt lat="42.9497995" lon="-5.7258975">
        <ele>1273.32</ele>
        <time>2020-07-21T09:24:34.000Z</time>
      </trkpt>
      <trkpt lat="42.9498032" lon="-5.7259098">
        <ele>1273.32</ele>
        <time>2020-07-21T09:24:35.000Z</time>
      </trkpt>
      <trkpt lat="42.9498102" lon="-5.7259193">
        <ele>1273.32</ele>
        <time>2020-07-21T09:24:36.000Z</time>
      </trkpt>
      <trkpt lat="42.9498177" lon="-5.7259293">
        <ele>1273.32</ele>
        <time>2020-07-21T09:24:37.000Z</time>
      </trkpt>
      <trkpt lat="42.9498247" lon="-5.7259395">
        <ele>1273.32</ele>
        <time>2020-07-21T09:24:38.000Z</time>
      </trkpt>
      <trkpt lat="42.949831" lon="-5.7259502">
        <ele>1273.32</ele>
        <time>2020-07-21T09:24:39.000Z</time>
      </trkpt>
      <trkpt lat="42.9498377" lon="-5.7259607">
        <ele>1273.32</ele>
        <time>2020-07-21T09:24:40.000Z</time>
      </trkpt>
      <trkpt lat="42.9498445" lon="-5.7259717">
        <ele>1273.32</ele>
        <time>2020-07-21T09:24:41.000Z</time>
      </trkpt>
      <trkpt lat="42.949851" lon="-5.7259822">
        <ele>1273.32</ele>
        <time>2020-07-21T09:24:42.000Z</time>
      </trkpt>
      <trkpt lat="42.9498578" lon="-5.7259923">
        <ele>1273.32</ele>
        <time>2020-07-21T09:24:43.000Z</time>
      </trkpt>
      <trkpt lat="42.9498647" lon="-5.7260027">
        <ele>1273.32</ele>
        <time>2020-07-21T09:24:44.000Z</time>
      </trkpt>
      <trkpt lat="42.9498725" lon="-5.7260147">
        <ele>1273.47</ele>
        <time>2020-07-21T09:24:45.000Z</time>
      </trkpt>
      <trkpt lat="42.9498803" lon="-5.7260268">
        <ele>1273.47</ele>
        <time>2020-07-21T09:24:46.000Z</time>
      </trkpt>
      <trkpt lat="42.9498882" lon="-5.726038">
        <ele>1273.47</ele>
        <time>2020-07-21T09:24:47.000Z</time>
      </trkpt>
      <trkpt lat="42.9498952" lon="-5.7260482">
        <ele>1273.47</ele>
        <time>2020-07-21T09:24:48.000Z</time>
      </trkpt>
      <trkpt lat="42.9499035" lon="-5.7260572">
        <ele>1273.62</ele>
        <time>2020-07-21T09:24:49.000Z</time>
      </trkpt>
      <trkpt lat="42.949913" lon="-5.7260667">
        <ele>1273.62</ele>
        <time>2020-07-21T09:24:50.000Z</time>
      </trkpt>
      <trkpt lat="42.949922" lon="-5.7260762">
        <ele>1273.62</ele>
        <time>2020-07-21T09:24:51.000Z</time>
      </trkpt>
      <trkpt lat="42.9499303" lon="-5.7260857">
        <ele>1273.62</ele>
        <time>2020-07-21T09:24:52.000Z</time>
      </trkpt>
      <trkpt lat="42.9499378" lon="-5.7260957">
        <ele>1273.78</ele>
        <time>2020-07-21T09:24:53.000Z</time>
      </trkpt>
      <trkpt lat="42.9499458" lon="-5.7261058">
        <ele>1273.78</ele>
        <time>2020-07-21T09:24:54.000Z</time>
      </trkpt>
      <trkpt lat="42.9499525" lon="-5.7261178">
        <ele>1273.78</ele>
        <time>2020-07-21T09:24:55.000Z</time>
      </trkpt>
      <trkpt lat="42.9499593" lon="-5.7261303">
        <ele>1273.78</ele>
        <time>2020-07-21T09:24:56.000Z</time>
      </trkpt>
      <trkpt lat="42.9499662" lon="-5.7261425">
        <ele>1273.93</ele>
        <time>2020-07-21T09:24:57.000Z</time>
      </trkpt>
      <trkpt lat="42.9499737" lon="-5.7261545">
        <ele>1273.93</ele>
        <time>2020-07-21T09:24:58.000Z</time>
      </trkpt>
      <trkpt lat="42.9499837" lon="-5.7261682">
        <ele>1273.93</ele>
        <time>2020-07-21T09:24:59.000Z</time>
      </trkpt>
      <trkpt lat="42.949995" lon="-5.7261802">
        <ele>1273.93</ele>
        <time>2020-07-21T09:25:00.000Z</time>
      </trkpt>
      <trkpt lat="42.9500062" lon="-5.7261927">
        <ele>1274.08</ele>
        <time>2020-07-21T09:25:01.000Z</time>
      </trkpt>
      <trkpt lat="42.9500143" lon="-5.7262023">
        <ele>1274.08</ele>
        <time>2020-07-21T09:25:02.000Z</time>
      </trkpt>
      <trkpt lat="42.950021" lon="-5.726214">
        <ele>1274.23</ele>
        <time>2020-07-21T09:25:03.000Z</time>
      </trkpt>
      <trkpt lat="42.9500275" lon="-5.726226">
        <ele>1274.23</ele>
        <time>2020-07-21T09:25:04.000Z</time>
      </trkpt>
      <trkpt lat="42.9500357" lon="-5.7262393">
        <ele>1274.23</ele>
        <time>2020-07-21T09:25:05.000Z</time>
      </trkpt>
      <trkpt lat="42.9500443" lon="-5.726252">
        <ele>1274.23</ele>
        <time>2020-07-21T09:25:06.000Z</time>
      </trkpt>
      <trkpt lat="42.9500535" lon="-5.7262638">
        <ele>1274.38</ele>
        <time>2020-07-21T09:25:07.000Z</time>
      </trkpt>
      <trkpt lat="42.9500617" lon="-5.7262748">
        <ele>1274.38</ele>
        <time>2020-07-21T09:25:08.000Z</time>
      </trkpt>
      <trkpt lat="42.9500693" lon="-5.7262872">
        <ele>1274.54</ele>
        <time>2020-07-21T09:25:09.000Z</time>
      </trkpt>
      <trkpt lat="42.9500763" lon="-5.7263005">
        <ele>1274.54</ele>
        <time>2020-07-21T09:25:10.000Z</time>
      </trkpt>
      <trkpt lat="42.9500838" lon="-5.7263135">
        <ele>1274.69</ele>
        <time>2020-07-21T09:25:11.000Z</time>
      </trkpt>
      <trkpt lat="42.9500917" lon="-5.7263265">
        <ele>1274.69</ele>
        <time>2020-07-21T09:25:12.000Z</time>
      </trkpt>
      <trkpt lat="42.950099" lon="-5.726339">
        <ele>1274.84</ele>
        <time>2020-07-21T09:25:13.000Z</time>
      </trkpt>
      <trkpt lat="42.9501057" lon="-5.7263523">
        <ele>1274.84</ele>
        <time>2020-07-21T09:25:14.000Z</time>
      </trkpt>
      <trkpt lat="42.9501125" lon="-5.7263655">
        <ele>1274.84</ele>
        <time>2020-07-21T09:25:15.000Z</time>
      </trkpt>
      <trkpt lat="42.9501198" lon="-5.7263787">
        <ele>1274.84</ele>
        <time>2020-07-21T09:25:16.000Z</time>
      </trkpt>
      <trkpt lat="42.9501275" lon="-5.7263922">
        <ele>1274.99</ele>
        <time>2020-07-21T09:25:17.000Z</time>
      </trkpt>
      <trkpt lat="42.950135" lon="-5.7264057">
        <ele>1274.99</ele>
        <time>2020-07-21T09:25:18.000Z</time>
      </trkpt>
      <trkpt lat="42.950135" lon="-5.7264057">
        <ele>1275.15</ele>
        <time>2020-07-21T09:25:19.000Z</time>
      </trkpt>
      <trkpt lat="42.9501423" lon="-5.7264198">
        <ele>1275.15</ele>
        <time>2020-07-21T09:25:20.000Z</time>
      </trkpt>
      <trkpt lat="42.950154" lon="-5.7264503">
        <ele>1275.3</ele>
        <time>2020-07-21T09:25:21.000Z</time>
      </trkpt>
      <trkpt lat="42.950154" lon="-5.7264503">
        <ele>1275.3</ele>
        <time>2020-07-21T09:25:22.000Z</time>
      </trkpt>
      <trkpt lat="42.9501665" lon="-5.7264798">
        <ele>1275.3</ele>
        <time>2020-07-21T09:25:23.000Z</time>
      </trkpt>
      <trkpt lat="42.9501665" lon="-5.7264798">
        <ele>1275.3</ele>
        <time>2020-07-21T09:25:24.000Z</time>
      </trkpt>
      <trkpt lat="42.9501807" lon="-5.7265082">
        <ele>1275.45</ele>
        <time>2020-07-21T09:25:25.000Z</time>
      </trkpt>
      <trkpt lat="42.9501807" lon="-5.7265082">
        <ele>1275.45</ele>
        <time>2020-07-21T09:25:26.000Z</time>
      </trkpt>
      <trkpt lat="42.950193" lon="-5.7265368">
        <ele>1275.6</ele>
        <time>2020-07-21T09:25:27.000Z</time>
      </trkpt>
      <trkpt lat="42.950193" lon="-5.7265368">
        <ele>1275.6</ele>
        <time>2020-07-21T09:25:28.000Z</time>
      </trkpt>
      <trkpt lat="42.9502063" lon="-5.7265678">
        <ele>1275.76</ele>
        <time>2020-07-21T09:25:29.000Z</time>
      </trkpt>
      <trkpt lat="42.9502137" lon="-5.7265843">
        <ele>1275.76</ele>
        <time>2020-07-21T09:25:30.000Z</time>
      </trkpt>
      <trkpt lat="42.95022" lon="-5.7266013">
        <ele>1275.76</ele>
        <time>2020-07-21T09:25:31.000Z</time>
      </trkpt>
      <trkpt lat="42.9502257" lon="-5.7266172">
        <ele>1275.76</ele>
        <time>2020-07-21T09:25:32.000Z</time>
      </trkpt>
      <trkpt lat="42.9502318" lon="-5.7266327">
        <ele>1275.91</ele>
        <time>2020-07-21T09:25:33.000Z</time>
      </trkpt>
      <trkpt lat="42.950238" lon="-5.7266485">
        <ele>1275.91</ele>
        <time>2020-07-21T09:25:34.000Z</time>
      </trkpt>
      <trkpt lat="42.9502455" lon="-5.726664">
        <ele>1275.91</ele>
        <time>2020-07-21T09:25:35.000Z</time>
      </trkpt>
      <trkpt lat="42.9502527" lon="-5.7266793">
        <ele>1275.91</ele>
        <time>2020-07-21T09:25:36.000Z</time>
      </trkpt>
      <trkpt lat="42.9502605" lon="-5.7266952">
        <ele>1276.06</ele>
        <time>2020-07-21T09:25:37.000Z</time>
      </trkpt>
      <trkpt lat="42.9502685" lon="-5.7267123">
        <ele>1276.06</ele>
        <time>2020-07-21T09:25:38.000Z</time>
      </trkpt>
      <trkpt lat="42.9502765" lon="-5.72673">
        <ele>1276.06</ele>
        <time>2020-07-21T09:25:39.000Z</time>
      </trkpt>
      <trkpt lat="42.9502848" lon="-5.7267465">
        <ele>1276.06</ele>
        <time>2020-07-21T09:25:40.000Z</time>
      </trkpt>
      <trkpt lat="42.9502917" lon="-5.7267617">
        <ele>1276.21</ele>
        <time>2020-07-21T09:25:41.000Z</time>
      </trkpt>
      <trkpt lat="42.9502983" lon="-5.7267763">
        <ele>1276.21</ele>
        <time>2020-07-21T09:25:42.000Z</time>
      </trkpt>
      <trkpt lat="42.9503055" lon="-5.7267917">
        <ele>1276.21</ele>
        <time>2020-07-21T09:25:43.000Z</time>
      </trkpt>
      <trkpt lat="42.9503138" lon="-5.7268077">
        <ele>1276.21</ele>
        <time>2020-07-21T09:25:44.000Z</time>
      </trkpt>
      <trkpt lat="42.950324" lon="-5.7268242">
        <ele>1276.36</ele>
        <time>2020-07-21T09:25:45.000Z</time>
      </trkpt>
      <trkpt lat="42.9503343" lon="-5.7268412">
        <ele>1276.36</ele>
        <time>2020-07-21T09:25:46.000Z</time>
      </trkpt>
      <trkpt lat="42.9503452" lon="-5.7268583">
        <ele>1276.36</ele>
        <time>2020-07-21T09:25:47.000Z</time>
      </trkpt>
      <trkpt lat="42.9503542" lon="-5.7268738">
        <ele>1276.36</ele>
        <time>2020-07-21T09:25:48.000Z</time>
      </trkpt>
      <trkpt lat="42.9503613" lon="-5.7268875">
        <ele>1276.36</ele>
        <time>2020-07-21T09:25:49.000Z</time>
      </trkpt>
      <trkpt lat="42.9503703" lon="-5.7269018">
        <ele>1276.36</ele>
        <time>2020-07-21T09:25:50.000Z</time>
      </trkpt>
      <trkpt lat="42.9503703" lon="-5.7269018">
        <ele>1276.52</ele>
        <time>2020-07-21T09:25:51.000Z</time>
      </trkpt>
      <trkpt lat="42.9503808" lon="-5.7269162">
        <ele>1276.52</ele>
        <time>2020-07-21T09:25:52.000Z</time>
      </trkpt>
      <trkpt lat="42.950404" lon="-5.7269457">
        <ele>1276.52</ele>
        <time>2020-07-21T09:25:53.000Z</time>
      </trkpt>
      <trkpt lat="42.9504137" lon="-5.7269608">
        <ele>1276.52</ele>
        <time>2020-07-21T09:25:54.000Z</time>
      </trkpt>
      <trkpt lat="42.9504243" lon="-5.726975">
        <ele>1276.52</ele>
        <time>2020-07-21T09:25:55.000Z</time>
      </trkpt>
      <trkpt lat="42.9504325" lon="-5.7269868">
        <ele>1276.52</ele>
        <time>2020-07-21T09:25:56.000Z</time>
      </trkpt>
      <trkpt lat="42.950441" lon="-5.7269973">
        <ele>1276.67</ele>
        <time>2020-07-21T09:25:57.000Z</time>
      </trkpt>
      <trkpt lat="42.9504478" lon="-5.7270092">
        <ele>1276.67</ele>
        <time>2020-07-21T09:25:58.000Z</time>
      </trkpt>
      <trkpt lat="42.9504565" lon="-5.7270227">
        <ele>1276.67</ele>
        <time>2020-07-21T09:25:59.000Z</time>
      </trkpt>
      <trkpt lat="42.9504655" lon="-5.7270378">
        <ele>1276.67</ele>
        <time>2020-07-21T09:26:00.000Z</time>
      </trkpt>
      <trkpt lat="42.9504757" lon="-5.7270518">
        <ele>1276.67</ele>
        <time>2020-07-21T09:26:01.000Z</time>
      </trkpt>
      <trkpt lat="42.950485" lon="-5.7270647">
        <ele>1276.67</ele>
        <time>2020-07-21T09:26:02.000Z</time>
      </trkpt>
      <trkpt lat="42.9504927" lon="-5.7270777">
        <ele>1276.82</ele>
        <time>2020-07-21T09:26:03.000Z</time>
      </trkpt>
      <trkpt lat="42.9504997" lon="-5.727091">
        <ele>1276.82</ele>
        <time>2020-07-21T09:26:04.000Z</time>
      </trkpt>
      <trkpt lat="42.9505072" lon="-5.727104">
        <ele>1276.82</ele>
        <time>2020-07-21T09:26:05.000Z</time>
      </trkpt>
      <trkpt lat="42.9505152" lon="-5.7271163">
        <ele>1276.82</ele>
        <time>2020-07-21T09:26:06.000Z</time>
      </trkpt>
      <trkpt lat="42.9505228" lon="-5.7271292">
        <ele>1276.82</ele>
        <time>2020-07-21T09:26:07.000Z</time>
      </trkpt>
      <trkpt lat="42.9505298" lon="-5.7271422">
        <ele>1276.82</ele>
        <time>2020-07-21T09:26:08.000Z</time>
      </trkpt>
      <trkpt lat="42.9505372" lon="-5.7271548">
        <ele>1276.97</ele>
        <time>2020-07-21T09:26:09.000Z</time>
      </trkpt>
      <trkpt lat="42.9505448" lon="-5.7271677">
        <ele>1276.97</ele>
        <time>2020-07-21T09:26:10.000Z</time>
      </trkpt>
      <trkpt lat="42.9505532" lon="-5.7271803">
        <ele>1276.97</ele>
        <time>2020-07-21T09:26:11.000Z</time>
      </trkpt>
      <trkpt lat="42.9505612" lon="-5.7271933">
        <ele>1276.97</ele>
        <time>2020-07-21T09:26:12.000Z</time>
      </trkpt>
      <trkpt lat="42.9505693" lon="-5.727206">
        <ele>1277.13</ele>
        <time>2020-07-21T09:26:13.000Z</time>
      </trkpt>
      <trkpt lat="42.9505775" lon="-5.7272192">
        <ele>1277.13</ele>
        <time>2020-07-21T09:26:14.000Z</time>
      </trkpt>
      <trkpt lat="42.9505855" lon="-5.7272327">
        <ele>1277.28</ele>
        <time>2020-07-21T09:26:15.000Z</time>
      </trkpt>
      <trkpt lat="42.9505933" lon="-5.7272465">
        <ele>1277.28</ele>
        <time>2020-07-21T09:26:16.000Z</time>
      </trkpt>
      <trkpt lat="42.9506007" lon="-5.7272603">
        <ele>1277.28</ele>
        <time>2020-07-21T09:26:17.000Z</time>
      </trkpt>
      <trkpt lat="42.9506083" lon="-5.7272742">
        <ele>1277.28</ele>
        <time>2020-07-21T09:26:18.000Z</time>
      </trkpt>
      <trkpt lat="42.9506158" lon="-5.7272872">
        <ele>1277.43</ele>
        <time>2020-07-21T09:26:19.000Z</time>
      </trkpt>
      <trkpt lat="42.9506242" lon="-5.7273005">
        <ele>1277.43</ele>
        <time>2020-07-21T09:26:20.000Z</time>
      </trkpt>
      <trkpt lat="42.9506323" lon="-5.7273142">
        <ele>1277.43</ele>
        <time>2020-07-21T09:26:21.000Z</time>
      </trkpt>
      <trkpt lat="42.9506403" lon="-5.7273283">
        <ele>1277.43</ele>
        <time>2020-07-21T09:26:22.000Z</time>
      </trkpt>
      <trkpt lat="42.9506477" lon="-5.7273427">
        <ele>1277.58</ele>
        <time>2020-07-21T09:26:23.000Z</time>
      </trkpt>
      <trkpt lat="42.950655" lon="-5.727357">
        <ele>1277.58</ele>
        <time>2020-07-21T09:26:24.000Z</time>
      </trkpt>
      <trkpt lat="42.9506623" lon="-5.7273713">
        <ele>1277.58</ele>
        <time>2020-07-21T09:26:25.000Z</time>
      </trkpt>
      <trkpt lat="42.95067" lon="-5.7273847">
        <ele>1277.58</ele>
        <time>2020-07-21T09:26:26.000Z</time>
      </trkpt>
      <trkpt lat="42.9506772" lon="-5.7273978">
        <ele>1277.74</ele>
        <time>2020-07-21T09:26:27.000Z</time>
      </trkpt>
      <trkpt lat="42.9506772" lon="-5.7273978">
        <ele>1277.74</ele>
        <time>2020-07-21T09:26:28.000Z</time>
      </trkpt>
      <trkpt lat="42.9506928" lon="-5.7274305">
        <ele>1277.74</ele>
        <time>2020-07-21T09:26:29.000Z</time>
      </trkpt>
      <trkpt lat="42.9506997" lon="-5.7274485">
        <ele>1277.74</ele>
        <time>2020-07-21T09:26:30.000Z</time>
      </trkpt>
      <trkpt lat="42.950705" lon="-5.7274655">
        <ele>1277.89</ele>
        <time>2020-07-21T09:26:31.000Z</time>
      </trkpt>
      <trkpt lat="42.9507105" lon="-5.727482">
        <ele>1277.89</ele>
        <time>2020-07-21T09:26:32.000Z</time>
      </trkpt>
      <trkpt lat="42.9507163" lon="-5.7274992">
        <ele>1277.89</ele>
        <time>2020-07-21T09:26:33.000Z</time>
      </trkpt>
      <trkpt lat="42.9507233" lon="-5.7275163">
        <ele>1277.89</ele>
        <time>2020-07-21T09:26:34.000Z</time>
      </trkpt>
      <trkpt lat="42.9507322" lon="-5.727532">
        <ele>1277.89</ele>
        <time>2020-07-21T09:26:35.000Z</time>
      </trkpt>
      <trkpt lat="42.950741" lon="-5.7275465">
        <ele>1277.89</ele>
        <time>2020-07-21T09:26:36.000Z</time>
      </trkpt>
      <trkpt lat="42.9507483" lon="-5.7275615">
        <ele>1278.04</ele>
        <time>2020-07-21T09:26:37.000Z</time>
      </trkpt>
      <trkpt lat="42.950753" lon="-5.7275777">
        <ele>1278.04</ele>
        <time>2020-07-21T09:26:38.000Z</time>
      </trkpt>
      <trkpt lat="42.9507583" lon="-5.7275943">
        <ele>1278.04</ele>
        <time>2020-07-21T09:26:39.000Z</time>
      </trkpt>
      <trkpt lat="42.9507642" lon="-5.7276105">
        <ele>1278.04</ele>
        <time>2020-07-21T09:26:40.000Z</time>
      </trkpt>
      <trkpt lat="42.9507705" lon="-5.7276273">
        <ele>1278.04</ele>
        <time>2020-07-21T09:26:41.000Z</time>
      </trkpt>
      <trkpt lat="42.9507767" lon="-5.7276453">
        <ele>1278.04</ele>
        <time>2020-07-21T09:26:42.000Z</time>
      </trkpt>
      <trkpt lat="42.9507823" lon="-5.7276637">
        <ele>1278.04</ele>
        <time>2020-07-21T09:26:43.000Z</time>
      </trkpt>
      <trkpt lat="42.950789" lon="-5.7276808">
        <ele>1278.04</ele>
        <time>2020-07-21T09:26:44.000Z</time>
      </trkpt>
      <trkpt lat="42.9507952" lon="-5.7276965">
        <ele>1278.04</ele>
        <time>2020-07-21T09:26:45.000Z</time>
      </trkpt>
      <trkpt lat="42.9508017" lon="-5.7277113">
        <ele>1278.04</ele>
        <time>2020-07-21T09:26:46.000Z</time>
      </trkpt>
      <trkpt lat="42.950807" lon="-5.7277268">
        <ele>1278.04</ele>
        <time>2020-07-21T09:26:47.000Z</time>
      </trkpt>
      <trkpt lat="42.9508113" lon="-5.7277442">
        <ele>1278.04</ele>
        <time>2020-07-21T09:26:48.000Z</time>
      </trkpt>
      <trkpt lat="42.9508152" lon="-5.7277628">
        <ele>1278.19</ele>
        <time>2020-07-21T09:26:49.000Z</time>
      </trkpt>
      <trkpt lat="42.9508177" lon="-5.7277822">
        <ele>1278.19</ele>
        <time>2020-07-21T09:26:50.000Z</time>
      </trkpt>
      <trkpt lat="42.9508213" lon="-5.7278002">
        <ele>1278.19</ele>
        <time>2020-07-21T09:26:51.000Z</time>
      </trkpt>
      <trkpt lat="42.950826" lon="-5.7278168">
        <ele>1278.19</ele>
        <time>2020-07-21T09:26:52.000Z</time>
      </trkpt>
      <trkpt lat="42.9508322" lon="-5.7278323">
        <ele>1278.19</ele>
        <time>2020-07-21T09:26:53.000Z</time>
      </trkpt>
      <trkpt lat="42.9508375" lon="-5.7278483">
        <ele>1278.19</ele>
        <time>2020-07-21T09:26:54.000Z</time>
      </trkpt>
      <trkpt lat="42.9508422" lon="-5.7278647">
        <ele>1278.35</ele>
        <time>2020-07-21T09:26:55.000Z</time>
      </trkpt>
      <trkpt lat="42.9508465" lon="-5.7278817">
        <ele>1278.35</ele>
        <time>2020-07-21T09:26:56.000Z</time>
      </trkpt>
      <trkpt lat="42.950851" lon="-5.7278987">
        <ele>1278.35</ele>
        <time>2020-07-21T09:26:57.000Z</time>
      </trkpt>
      <trkpt lat="42.950855" lon="-5.7279158">
        <ele>1278.35</ele>
        <time>2020-07-21T09:26:58.000Z</time>
      </trkpt>
      <trkpt lat="42.9508587" lon="-5.7279328">
        <ele>1278.35</ele>
        <time>2020-07-21T09:26:59.000Z</time>
      </trkpt>
      <trkpt lat="42.9508628" lon="-5.7279495">
        <ele>1278.35</ele>
        <time>2020-07-21T09:27:00.000Z</time>
      </trkpt>
      <trkpt lat="42.950867" lon="-5.7279662">
        <ele>1278.5</ele>
        <time>2020-07-21T09:27:01.000Z</time>
      </trkpt>
      <trkpt lat="42.9508717" lon="-5.727983">
        <ele>1278.5</ele>
        <time>2020-07-21T09:27:02.000Z</time>
      </trkpt>
      <trkpt lat="42.9508755" lon="-5.7280013">
        <ele>1278.5</ele>
        <time>2020-07-21T09:27:03.000Z</time>
      </trkpt>
      <trkpt lat="42.9508795" lon="-5.7280195">
        <ele>1278.5</ele>
        <time>2020-07-21T09:27:04.000Z</time>
      </trkpt>
      <trkpt lat="42.9508837" lon="-5.7280373">
        <ele>1278.5</ele>
        <time>2020-07-21T09:27:05.000Z</time>
      </trkpt>
      <trkpt lat="42.9508883" lon="-5.7280535">
        <ele>1278.5</ele>
        <time>2020-07-21T09:27:06.000Z</time>
      </trkpt>
      <trkpt lat="42.9508937" lon="-5.7280698">
        <ele>1278.65</ele>
        <time>2020-07-21T09:27:07.000Z</time>
      </trkpt>
      <trkpt lat="42.9508982" lon="-5.728087">
        <ele>1278.65</ele>
        <time>2020-07-21T09:27:08.000Z</time>
      </trkpt>
      <trkpt lat="42.9509023" lon="-5.7281052">
        <ele>1278.65</ele>
        <time>2020-07-21T09:27:09.000Z</time>
      </trkpt>
      <trkpt lat="42.9509055" lon="-5.7281238">
        <ele>1278.65</ele>
        <time>2020-07-21T09:27:10.000Z</time>
      </trkpt>
      <trkpt lat="42.9509088" lon="-5.7281423">
        <ele>1278.8</ele>
        <time>2020-07-21T09:27:11.000Z</time>
      </trkpt>
      <trkpt lat="42.9509127" lon="-5.7281605">
        <ele>1278.8</ele>
        <time>2020-07-21T09:27:12.000Z</time>
      </trkpt>
      <trkpt lat="42.9509175" lon="-5.7281777">
        <ele>1278.8</ele>
        <time>2020-07-21T09:27:13.000Z</time>
      </trkpt>
      <trkpt lat="42.9509223" lon="-5.7281947">
        <ele>1278.8</ele>
        <time>2020-07-21T09:27:14.000Z</time>
      </trkpt>
      <trkpt lat="42.950927" lon="-5.7282108">
        <ele>1278.96</ele>
        <time>2020-07-21T09:27:15.000Z</time>
      </trkpt>
      <trkpt lat="42.950931" lon="-5.7282273">
        <ele>1278.96</ele>
        <time>2020-07-21T09:27:16.000Z</time>
      </trkpt>
      <trkpt lat="42.9509358" lon="-5.7282435">
        <ele>1278.96</ele>
        <time>2020-07-21T09:27:17.000Z</time>
      </trkpt>
      <trkpt lat="42.9509412" lon="-5.7282595">
        <ele>1278.96</ele>
        <time>2020-07-21T09:27:18.000Z</time>
      </trkpt>
      <trkpt lat="42.9509467" lon="-5.7282757">
        <ele>1279.11</ele>
        <time>2020-07-21T09:27:19.000Z</time>
      </trkpt>
      <trkpt lat="42.9509518" lon="-5.7282925">
        <ele>1279.11</ele>
        <time>2020-07-21T09:27:20.000Z</time>
      </trkpt>
      <trkpt lat="42.950957" lon="-5.7283105">
        <ele>1279.11</ele>
        <time>2020-07-21T09:27:21.000Z</time>
      </trkpt>
      <trkpt lat="42.9509625" lon="-5.7283278">
        <ele>1279.11</ele>
        <time>2020-07-21T09:27:22.000Z</time>
      </trkpt>
      <trkpt lat="42.9509682" lon="-5.7283458">
        <ele>1279.11</ele>
        <time>2020-07-21T09:27:23.000Z</time>
      </trkpt>
      <trkpt lat="42.9509733" lon="-5.728363">
        <ele>1279.11</ele>
        <time>2020-07-21T09:27:24.000Z</time>
      </trkpt>
      <trkpt lat="42.950977" lon="-5.7283788">
        <ele>1279.26</ele>
        <time>2020-07-21T09:27:25.000Z</time>
      </trkpt>
      <trkpt lat="42.950982" lon="-5.7283927">
        <ele>1279.26</ele>
        <time>2020-07-21T09:27:26.000Z</time>
      </trkpt>
      <trkpt lat="42.950987" lon="-5.728402">
        <ele>1279.26</ele>
        <time>2020-07-21T09:27:27.000Z</time>
      </trkpt>
      <trkpt lat="42.950987" lon="-5.728402">
        <ele>1279.26</ele>
        <time>2020-07-21T09:27:28.000Z</time>
      </trkpt>
      <trkpt lat="42.950989" lon="-5.7284117">
        <ele>1279.41</ele>
        <time>2020-07-21T09:27:29.000Z</time>
      </trkpt>
      <trkpt lat="42.9509872" lon="-5.7284145">
        <ele>1279.41</ele>
        <time>2020-07-21T09:27:30.000Z</time>
      </trkpt>
      <trkpt lat="42.950988" lon="-5.7284185">
        <ele>1279.41</ele>
        <time>2020-07-21T09:27:31.000Z</time>
      </trkpt>
      <trkpt lat="42.950989" lon="-5.7284243">
        <ele>1279.41</ele>
        <time>2020-07-21T09:27:32.000Z</time>
      </trkpt>
      <trkpt lat="42.9509905" lon="-5.7284338">
        <ele>1279.41</ele>
        <time>2020-07-21T09:27:33.000Z</time>
      </trkpt>
      <trkpt lat="42.9509918" lon="-5.7284402">
        <ele>1279.41</ele>
        <time>2020-07-21T09:27:34.000Z</time>
      </trkpt>
      <trkpt lat="42.9509937" lon="-5.7284442">
        <ele>1279.57</ele>
        <time>2020-07-21T09:27:35.000Z</time>
      </trkpt>
      <trkpt lat="42.950996" lon="-5.7284445">
        <ele>1279.57</ele>
        <time>2020-07-21T09:27:36.000Z</time>
      </trkpt>
      <trkpt lat="42.9509972" lon="-5.7284458">
        <ele>1279.57</ele>
        <time>2020-07-21T09:27:37.000Z</time>
      </trkpt>
      <trkpt lat="42.9509983" lon="-5.7284457">
        <ele>1279.57</ele>
        <time>2020-07-21T09:27:38.000Z</time>
      </trkpt>
      <trkpt lat="42.9509987" lon="-5.7284458">
        <ele>1279.57</ele>
        <time>2020-07-21T09:27:39.000Z</time>
      </trkpt>
      <trkpt lat="42.9509987" lon="-5.728448">
        <ele>1279.57</ele>
        <time>2020-07-21T09:27:40.000Z</time>
      </trkpt>
      <trkpt lat="42.9509973" lon="-5.7284508">
        <ele>1279.72</ele>
        <time>2020-07-21T09:27:41.000Z</time>
      </trkpt>
      <trkpt lat="42.950996" lon="-5.728452">
        <ele>1279.72</ele>
        <time>2020-07-21T09:27:42.000Z</time>
      </trkpt>
      <trkpt lat="42.9509943" lon="-5.7284527">
        <ele>1279.72</ele>
        <time>2020-07-21T09:27:43.000Z</time>
      </trkpt>
      <trkpt lat="42.9509938" lon="-5.7284533">
        <ele>1279.72</ele>
        <time>2020-07-21T09:27:44.000Z</time>
      </trkpt>
      <trkpt lat="42.9509932" lon="-5.728455">
        <ele>1279.72</ele>
        <time>2020-07-21T09:27:45.000Z</time>
      </trkpt>
      <trkpt lat="42.950994" lon="-5.7284552">
        <ele>1279.72</ele>
        <time>2020-07-21T09:27:46.000Z</time>
      </trkpt>
      <trkpt lat="42.9509943" lon="-5.7284548">
        <ele>1279.87</ele>
        <time>2020-07-21T09:27:47.000Z</time>
      </trkpt>
      <trkpt lat="42.9509947" lon="-5.7284547">
        <ele>1279.87</ele>
        <time>2020-07-21T09:27:48.000Z</time>
      </trkpt>
      <trkpt lat="42.9509945" lon="-5.7284552">
        <ele>1279.87</ele>
        <time>2020-07-21T09:27:49.000Z</time>
      </trkpt>
      <trkpt lat="42.9509942" lon="-5.728455">
        <ele>1279.87</ele>
        <time>2020-07-21T09:27:50.000Z</time>
      </trkpt>
      <trkpt lat="42.9509935" lon="-5.7284542">
        <ele>1280.02</ele>
        <time>2020-07-21T09:27:51.000Z</time>
      </trkpt>
      <trkpt lat="42.950993" lon="-5.728453">
        <ele>1280.02</ele>
        <time>2020-07-21T09:27:52.000Z</time>
      </trkpt>
      <trkpt lat="42.9509927" lon="-5.7284527">
        <ele>1280.02</ele>
        <time>2020-07-21T09:27:53.000Z</time>
      </trkpt>
      <trkpt lat="42.9509925" lon="-5.7284528">
        <ele>1280.02</ele>
        <time>2020-07-21T09:27:54.000Z</time>
      </trkpt>
      <trkpt lat="42.9509915" lon="-5.7284525">
        <ele>1280.18</ele>
        <time>2020-07-21T09:27:55.000Z</time>
      </trkpt>
      <trkpt lat="42.950991" lon="-5.7284527">
        <ele>1280.18</ele>
        <time>2020-07-21T09:27:56.000Z</time>
      </trkpt>
      <trkpt lat="42.9509912" lon="-5.7284535">
        <ele>1280.33</ele>
        <time>2020-07-21T09:27:57.000Z</time>
      </trkpt>
      <trkpt lat="42.9509915" lon="-5.728454">
        <ele>1280.33</ele>
        <time>2020-07-21T09:27:58.000Z</time>
      </trkpt>
      <trkpt lat="42.9509907" lon="-5.7284537">
        <ele>1280.33</ele>
        <time>2020-07-21T09:27:59.000Z</time>
      </trkpt>
      <trkpt lat="42.9509902" lon="-5.7284525">
        <ele>1280.33</ele>
        <time>2020-07-21T09:28:00.000Z</time>
      </trkpt>
      <trkpt lat="42.9509898" lon="-5.7284515">
        <ele>1280.48</ele>
        <time>2020-07-21T09:28:01.000Z</time>
      </trkpt>
      <trkpt lat="42.9509913" lon="-5.7284508">
        <ele>1280.48</ele>
        <time>2020-07-21T09:28:02.000Z</time>
      </trkpt>
      <trkpt lat="42.9509917" lon="-5.728451">
        <ele>1280.63</ele>
        <time>2020-07-21T09:28:03.000Z</time>
      </trkpt>
      <trkpt lat="42.9509927" lon="-5.7284513">
        <ele>1280.63</ele>
        <time>2020-07-21T09:28:04.000Z</time>
      </trkpt>
      <trkpt lat="42.950992" lon="-5.7284527">
        <ele>1280.63</ele>
        <time>2020-07-21T09:28:05.000Z</time>
      </trkpt>
      <trkpt lat="42.9509918" lon="-5.7284547">
        <ele>1280.63</ele>
        <time>2020-07-21T09:28:06.000Z</time>
      </trkpt>
      <trkpt lat="42.950991" lon="-5.7284567">
        <ele>1280.79</ele>
        <time>2020-07-21T09:28:07.000Z</time>
      </trkpt>
      <trkpt lat="42.9509917" lon="-5.728457">
        <ele>1280.79</ele>
        <time>2020-07-21T09:28:08.000Z</time>
      </trkpt>
      <trkpt lat="42.9509918" lon="-5.7284567">
        <ele>1280.79</ele>
        <time>2020-07-21T09:28:09.000Z</time>
      </trkpt>
      <trkpt lat="42.9509915" lon="-5.7284567">
        <ele>1280.79</ele>
        <time>2020-07-21T09:28:10.000Z</time>
      </trkpt>
      <trkpt lat="42.9509903" lon="-5.7284568">
        <ele>1280.94</ele>
        <time>2020-07-21T09:28:11.000Z</time>
      </trkpt>
      <trkpt lat="42.9509893" lon="-5.728457">
        <ele>1280.94</ele>
        <time>2020-07-21T09:28:12.000Z</time>
      </trkpt>
      <trkpt lat="42.9509888" lon="-5.728457">
        <ele>1280.94</ele>
        <time>2020-07-21T09:28:13.000Z</time>
      </trkpt>
      <trkpt lat="42.9509883" lon="-5.728457">
        <ele>1280.94</ele>
        <time>2020-07-21T09:28:14.000Z</time>
      </trkpt>
      <trkpt lat="42.9509883" lon="-5.728457">
        <ele>1281.09</ele>
        <time>2020-07-21T09:28:15.000Z</time>
      </trkpt>
      <trkpt lat="42.9509885" lon="-5.728457">
        <ele>1281.09</ele>
        <time>2020-07-21T09:28:16.000Z</time>
      </trkpt>
      <trkpt lat="42.9509893" lon="-5.7284562">
        <ele>1281.24</ele>
        <time>2020-07-21T09:28:17.000Z</time>
      </trkpt>
      <trkpt lat="42.9509902" lon="-5.7284553">
        <ele>1281.24</ele>
        <time>2020-07-21T09:28:18.000Z</time>
      </trkpt>
      <trkpt lat="42.950991" lon="-5.7284545">
        <ele>1281.24</ele>
        <time>2020-07-21T09:28:19.000Z</time>
      </trkpt>
      <trkpt lat="42.9509912" lon="-5.7284548">
        <ele>1281.24</ele>
        <time>2020-07-21T09:28:20.000Z</time>
      </trkpt>
      <trkpt lat="42.950991" lon="-5.7284552">
        <ele>1281.4</ele>
        <time>2020-07-21T09:28:21.000Z</time>
      </trkpt>
      <trkpt lat="42.9509917" lon="-5.7284555">
        <ele>1281.4</ele>
        <time>2020-07-21T09:28:22.000Z</time>
      </trkpt>
      <trkpt lat="42.9509928" lon="-5.7284552">
        <ele>1281.55</ele>
        <time>2020-07-21T09:28:23.000Z</time>
      </trkpt>
      <trkpt lat="42.9509937" lon="-5.7284547">
        <ele>1281.55</ele>
        <time>2020-07-21T09:28:24.000Z</time>
      </trkpt>
      <trkpt lat="42.9509932" lon="-5.7284538">
        <ele>1281.7</ele>
        <time>2020-07-21T09:28:25.000Z</time>
      </trkpt>
      <trkpt lat="42.950993" lon="-5.7284535">
        <ele>1281.7</ele>
        <time>2020-07-21T09:28:26.000Z</time>
      </trkpt>
      <trkpt lat="42.9509932" lon="-5.7284533">
        <ele>1281.7</ele>
        <time>2020-07-21T09:28:27.000Z</time>
      </trkpt>
      <trkpt lat="42.9509948" lon="-5.728455">
        <ele>1281.7</ele>
        <time>2020-07-21T09:28:28.000Z</time>
      </trkpt>
      <trkpt lat="42.9509963" lon="-5.7284572">
        <ele>1281.85</ele>
        <time>2020-07-21T09:28:29.000Z</time>
      </trkpt>
      <trkpt lat="42.950997" lon="-5.728459">
        <ele>1281.85</ele>
        <time>2020-07-21T09:28:30.000Z</time>
      </trkpt>
      <trkpt lat="42.9509987" lon="-5.7284615">
        <ele>1282</ele>
        <time>2020-07-21T09:28:31.000Z</time>
      </trkpt>
      <trkpt lat="42.9510007" lon="-5.7284667">
        <ele>1282</ele>
        <time>2020-07-21T09:28:32.000Z</time>
      </trkpt>
      <trkpt lat="42.9510042" lon="-5.7284775">
        <ele>1282.16</ele>
        <time>2020-07-21T09:28:33.000Z</time>
      </trkpt>
      <trkpt lat="42.951007" lon="-5.7284922">
        <ele>1282.16</ele>
        <time>2020-07-21T09:28:34.000Z</time>
      </trkpt>
      <trkpt lat="42.9510105" lon="-5.7285077">
        <ele>1282.16</ele>
        <time>2020-07-21T09:28:35.000Z</time>
      </trkpt>
      <trkpt lat="42.9510147" lon="-5.7285235">
        <ele>1282.16</ele>
        <time>2020-07-21T09:28:36.000Z</time>
      </trkpt>
      <trkpt lat="42.9510185" lon="-5.7285382">
        <ele>1282.31</ele>
        <time>2020-07-21T09:28:37.000Z</time>
      </trkpt>
      <trkpt lat="42.9510222" lon="-5.7285547">
        <ele>1282.31</ele>
        <time>2020-07-21T09:28:38.000Z</time>
      </trkpt>
      <trkpt lat="42.9510245" lon="-5.7285715">
        <ele>1282.46</ele>
        <time>2020-07-21T09:28:39.000Z</time>
      </trkpt>
      <trkpt lat="42.9510287" lon="-5.7285875">
        <ele>1282.46</ele>
        <time>2020-07-21T09:28:40.000Z</time>
      </trkpt>
      <trkpt lat="42.9510333" lon="-5.7286027">
        <ele>1282.61</ele>
        <time>2020-07-21T09:28:41.000Z</time>
      </trkpt>
      <trkpt lat="42.9510388" lon="-5.7286163">
        <ele>1282.61</ele>
        <time>2020-07-21T09:28:42.000Z</time>
      </trkpt>
      <trkpt lat="42.9510433" lon="-5.7286298">
        <ele>1282.77</ele>
        <time>2020-07-21T09:28:43.000Z</time>
      </trkpt>
      <trkpt lat="42.9510478" lon="-5.7286435">
        <ele>1282.77</ele>
        <time>2020-07-21T09:28:44.000Z</time>
      </trkpt>
      <trkpt lat="42.9510518" lon="-5.7286575">
        <ele>1282.92</ele>
        <time>2020-07-21T09:28:45.000Z</time>
      </trkpt>
      <trkpt lat="42.951056" lon="-5.7286718">
        <ele>1282.92</ele>
        <time>2020-07-21T09:28:46.000Z</time>
      </trkpt>
      <trkpt lat="42.9510603" lon="-5.728687">
        <ele>1282.92</ele>
        <time>2020-07-21T09:28:47.000Z</time>
      </trkpt>
      <trkpt lat="42.9510667" lon="-5.728703">
        <ele>1282.92</ele>
        <time>2020-07-21T09:28:48.000Z</time>
      </trkpt>
      <trkpt lat="42.9510715" lon="-5.7287193">
        <ele>1283.07</ele>
        <time>2020-07-21T09:28:49.000Z</time>
      </trkpt>
      <trkpt lat="42.9510762" lon="-5.7287343">
        <ele>1283.07</ele>
        <time>2020-07-21T09:28:50.000Z</time>
      </trkpt>
      <trkpt lat="42.951079" lon="-5.728748">
        <ele>1283.22</ele>
        <time>2020-07-21T09:28:51.000Z</time>
      </trkpt>
      <trkpt lat="42.9510828" lon="-5.7287617">
        <ele>1283.22</ele>
        <time>2020-07-21T09:28:52.000Z</time>
      </trkpt>
      <trkpt lat="42.9510858" lon="-5.7287757">
        <ele>1283.38</ele>
        <time>2020-07-21T09:28:53.000Z</time>
      </trkpt>
      <trkpt lat="42.9510887" lon="-5.7287893">
        <ele>1283.38</ele>
        <time>2020-07-21T09:28:54.000Z</time>
      </trkpt>
      <trkpt lat="42.9510915" lon="-5.7288003">
        <ele>1283.53</ele>
        <time>2020-07-21T09:28:55.000Z</time>
      </trkpt>
      <trkpt lat="42.9510942" lon="-5.7288068">
        <ele>1283.53</ele>
        <time>2020-07-21T09:28:56.000Z</time>
      </trkpt>
      <trkpt lat="42.9510953" lon="-5.7288097">
        <ele>1283.53</ele>
        <time>2020-07-21T09:28:57.000Z</time>
      </trkpt>
      <trkpt lat="42.9510948" lon="-5.7288098">
        <ele>1283.53</ele>
        <time>2020-07-21T09:28:58.000Z</time>
      </trkpt>
      <trkpt lat="42.9510938" lon="-5.7288097">
        <ele>1283.68</ele>
        <time>2020-07-21T09:28:59.000Z</time>
      </trkpt>
      <trkpt lat="42.9510932" lon="-5.728809">
        <ele>1283.68</ele>
        <time>2020-07-21T09:29:00.000Z</time>
      </trkpt>
      <trkpt lat="42.951093" lon="-5.7288088">
        <ele>1283.83</ele>
        <time>2020-07-21T09:29:01.000Z</time>
      </trkpt>
      <trkpt lat="42.9510933" lon="-5.7288087">
        <ele>1283.83</ele>
        <time>2020-07-21T09:29:02.000Z</time>
      </trkpt>
      <trkpt lat="42.951094" lon="-5.7288088">
        <ele>1283.83</ele>
        <time>2020-07-21T09:29:03.000Z</time>
      </trkpt>
      <trkpt lat="42.9510942" lon="-5.7288092">
        <ele>1283.83</ele>
        <time>2020-07-21T09:29:04.000Z</time>
      </trkpt>
      <trkpt lat="42.9510958" lon="-5.7288097">
        <ele>1283.99</ele>
        <time>2020-07-21T09:29:05.000Z</time>
      </trkpt>
      <trkpt lat="42.9510983" lon="-5.7288142">
        <ele>1283.99</ele>
        <time>2020-07-21T09:29:06.000Z</time>
      </trkpt>
      <trkpt lat="42.9511022" lon="-5.7288232">
        <ele>1284.14</ele>
        <time>2020-07-21T09:29:07.000Z</time>
      </trkpt>
      <trkpt lat="42.9511072" lon="-5.7288355">
        <ele>1284.14</ele>
        <time>2020-07-21T09:29:08.000Z</time>
      </trkpt>
      <trkpt lat="42.951115" lon="-5.7288488">
        <ele>1284.29</ele>
        <time>2020-07-21T09:29:09.000Z</time>
      </trkpt>
      <trkpt lat="42.9511227" lon="-5.7288627">
        <ele>1284.29</ele>
        <time>2020-07-21T09:29:10.000Z</time>
      </trkpt>
      <trkpt lat="42.9511285" lon="-5.7288785">
        <ele>1284.29</ele>
        <time>2020-07-21T09:29:11.000Z</time>
      </trkpt>
      <trkpt lat="42.9511292" lon="-5.728896">
        <ele>1284.29</ele>
        <time>2020-07-21T09:29:12.000Z</time>
      </trkpt>
      <trkpt lat="42.9511312" lon="-5.7289138">
        <ele>1284.44</ele>
        <time>2020-07-21T09:29:13.000Z</time>
      </trkpt>
      <trkpt lat="42.951134" lon="-5.7289303">
        <ele>1284.44</ele>
        <time>2020-07-21T09:29:14.000Z</time>
      </trkpt>
      <trkpt lat="42.9511388" lon="-5.7289457">
        <ele>1284.59</ele>
        <time>2020-07-21T09:29:15.000Z</time>
      </trkpt>
      <trkpt lat="42.9511427" lon="-5.7289608">
        <ele>1284.59</ele>
        <time>2020-07-21T09:29:16.000Z</time>
      </trkpt>
      <trkpt lat="42.9511458" lon="-5.7289772">
        <ele>1284.59</ele>
        <time>2020-07-21T09:29:17.000Z</time>
      </trkpt>
      <trkpt lat="42.9511497" lon="-5.728993">
        <ele>1284.59</ele>
        <time>2020-07-21T09:29:18.000Z</time>
      </trkpt>
      <trkpt lat="42.9511538" lon="-5.7290097">
        <ele>1284.75</ele>
        <time>2020-07-21T09:29:19.000Z</time>
      </trkpt>
      <trkpt lat="42.951158" lon="-5.7290265">
        <ele>1284.75</ele>
        <time>2020-07-21T09:29:20.000Z</time>
      </trkpt>
      <trkpt lat="42.9511625" lon="-5.7290425">
        <ele>1284.9</ele>
        <time>2020-07-21T09:29:21.000Z</time>
      </trkpt>
      <trkpt lat="42.9511625" lon="-5.7290425">
        <ele>1284.9</ele>
        <time>2020-07-21T09:29:22.000Z</time>
      </trkpt>
      <trkpt lat="42.9511713" lon="-5.7290733">
        <ele>1285.05</ele>
        <time>2020-07-21T09:29:23.000Z</time>
      </trkpt>
      <trkpt lat="42.9511755" lon="-5.7290912">
        <ele>1285.05</ele>
        <time>2020-07-21T09:29:24.000Z</time>
      </trkpt>
      <trkpt lat="42.9511795" lon="-5.7291087">
        <ele>1285.2</ele>
        <time>2020-07-21T09:29:25.000Z</time>
      </trkpt>
      <trkpt lat="42.9511835" lon="-5.7291248">
        <ele>1285.2</ele>
        <time>2020-07-21T09:29:26.000Z</time>
      </trkpt>
      <trkpt lat="42.9511892" lon="-5.72914">
        <ele>1285.36</ele>
        <time>2020-07-21T09:29:27.000Z</time>
      </trkpt>
      <trkpt lat="42.9511892" lon="-5.72914">
        <ele>1285.36</ele>
        <time>2020-07-21T09:29:28.000Z</time>
      </trkpt>
      <trkpt lat="42.9511985" lon="-5.7291733">
        <ele>1285.51</ele>
        <time>2020-07-21T09:29:29.000Z</time>
      </trkpt>
      <trkpt lat="42.9512008" lon="-5.729191">
        <ele>1285.51</ele>
        <time>2020-07-21T09:29:30.000Z</time>
      </trkpt>
      <trkpt lat="42.9512043" lon="-5.729208">
        <ele>1285.66</ele>
        <time>2020-07-21T09:29:31.000Z</time>
      </trkpt>
      <trkpt lat="42.951209" lon="-5.7292248">
        <ele>1285.66</ele>
        <time>2020-07-21T09:29:32.000Z</time>
      </trkpt>
      <trkpt lat="42.9512148" lon="-5.7292413">
        <ele>1285.81</ele>
        <time>2020-07-21T09:29:33.000Z</time>
      </trkpt>
      <trkpt lat="42.9512198" lon="-5.7292577">
        <ele>1285.81</ele>
        <time>2020-07-21T09:29:34.000Z</time>
      </trkpt>
      <trkpt lat="42.9512242" lon="-5.729273">
        <ele>1285.97</ele>
        <time>2020-07-21T09:29:35.000Z</time>
      </trkpt>
      <trkpt lat="42.9512278" lon="-5.7292885">
        <ele>1285.97</ele>
        <time>2020-07-21T09:29:36.000Z</time>
      </trkpt>
      <trkpt lat="42.9512327" lon="-5.7293045">
        <ele>1286.12</ele>
        <time>2020-07-21T09:29:37.000Z</time>
      </trkpt>
      <trkpt lat="42.9512382" lon="-5.729321">
        <ele>1286.12</ele>
        <time>2020-07-21T09:29:38.000Z</time>
      </trkpt>
      <trkpt lat="42.9512443" lon="-5.7293368">
        <ele>1286.27</ele>
        <time>2020-07-21T09:29:39.000Z</time>
      </trkpt>
      <trkpt lat="42.9512495" lon="-5.7293528">
        <ele>1286.27</ele>
        <time>2020-07-21T09:29:40.000Z</time>
      </trkpt>
      <trkpt lat="42.9512552" lon="-5.7293687">
        <ele>1286.42</ele>
        <time>2020-07-21T09:29:41.000Z</time>
      </trkpt>
      <trkpt lat="42.9512602" lon="-5.7293852">
        <ele>1286.42</ele>
        <time>2020-07-21T09:29:42.000Z</time>
      </trkpt>
      <trkpt lat="42.9512647" lon="-5.7294022">
        <ele>1286.58</ele>
        <time>2020-07-21T09:29:43.000Z</time>
      </trkpt>
      <trkpt lat="42.9512688" lon="-5.7294195">
        <ele>1286.58</ele>
        <time>2020-07-21T09:29:44.000Z</time>
      </trkpt>
      <trkpt lat="42.951273" lon="-5.7294367">
        <ele>1286.73</ele>
        <time>2020-07-21T09:29:45.000Z</time>
      </trkpt>
      <trkpt lat="42.9512762" lon="-5.7294542">
        <ele>1286.73</ele>
        <time>2020-07-21T09:29:46.000Z</time>
      </trkpt>
      <trkpt lat="42.9512795" lon="-5.729472">
        <ele>1286.88</ele>
        <time>2020-07-21T09:29:47.000Z</time>
      </trkpt>
      <trkpt lat="42.9512818" lon="-5.7294915">
        <ele>1286.88</ele>
        <time>2020-07-21T09:29:48.000Z</time>
      </trkpt>
      <trkpt lat="42.951285" lon="-5.7295103">
        <ele>1287.03</ele>
        <time>2020-07-21T09:29:49.000Z</time>
      </trkpt>
      <trkpt lat="42.9512885" lon="-5.7295277">
        <ele>1287.03</ele>
        <time>2020-07-21T09:29:50.000Z</time>
      </trkpt>
      <trkpt lat="42.9512945" lon="-5.7295428">
        <ele>1287.19</ele>
        <time>2020-07-21T09:29:51.000Z</time>
      </trkpt>
      <trkpt lat="42.9512945" lon="-5.7295428">
        <ele>1287.19</ele>
        <time>2020-07-21T09:29:52.000Z</time>
      </trkpt>
      <trkpt lat="42.9513087" lon="-5.7295713">
        <ele>1287.34</ele>
        <time>2020-07-21T09:29:53.000Z</time>
      </trkpt>
      <trkpt lat="42.9513148" lon="-5.7295857">
        <ele>1287.34</ele>
        <time>2020-07-21T09:29:54.000Z</time>
      </trkpt>
      <trkpt lat="42.9513207" lon="-5.7296013">
        <ele>1287.49</ele>
        <time>2020-07-21T09:29:55.000Z</time>
      </trkpt>
      <trkpt lat="42.9513268" lon="-5.7296165">
        <ele>1287.49</ele>
        <time>2020-07-21T09:29:56.000Z</time>
      </trkpt>
      <trkpt lat="42.9513333" lon="-5.7296322">
        <ele>1287.64</ele>
        <time>2020-07-21T09:29:57.000Z</time>
      </trkpt>
      <trkpt lat="42.9513402" lon="-5.729647">
        <ele>1287.64</ele>
        <time>2020-07-21T09:29:58.000Z</time>
      </trkpt>
      <trkpt lat="42.9513465" lon="-5.729662">
        <ele>1287.8</ele>
        <time>2020-07-21T09:29:59.000Z</time>
      </trkpt>
      <trkpt lat="42.9513515" lon="-5.7296787">
        <ele>1287.8</ele>
        <time>2020-07-21T09:30:00.000Z</time>
      </trkpt>
      <trkpt lat="42.951356" lon="-5.7296962">
        <ele>1287.95</ele>
        <time>2020-07-21T09:30:01.000Z</time>
      </trkpt>
      <trkpt lat="42.9513608" lon="-5.7297145">
        <ele>1287.95</ele>
        <time>2020-07-21T09:30:02.000Z</time>
      </trkpt>
      <trkpt lat="42.9513665" lon="-5.7297318">
        <ele>1288.1</ele>
        <time>2020-07-21T09:30:03.000Z</time>
      </trkpt>
      <trkpt lat="42.9513723" lon="-5.7297483">
        <ele>1288.1</ele>
        <time>2020-07-21T09:30:04.000Z</time>
      </trkpt>
      <trkpt lat="42.9513777" lon="-5.7297643">
        <ele>1288.25</ele>
        <time>2020-07-21T09:30:05.000Z</time>
      </trkpt>
      <trkpt lat="42.9513828" lon="-5.729781">
        <ele>1288.25</ele>
        <time>2020-07-21T09:30:06.000Z</time>
      </trkpt>
      <trkpt lat="42.9513883" lon="-5.7297972">
        <ele>1288.41</ele>
        <time>2020-07-21T09:30:07.000Z</time>
      </trkpt>
      <trkpt lat="42.951394" lon="-5.7298128">
        <ele>1288.41</ele>
        <time>2020-07-21T09:30:08.000Z</time>
      </trkpt>
      <trkpt lat="42.9513992" lon="-5.7298277">
        <ele>1288.56</ele>
        <time>2020-07-21T09:30:09.000Z</time>
      </trkpt>
      <trkpt lat="42.9514042" lon="-5.7298427">
        <ele>1288.56</ele>
        <time>2020-07-21T09:30:10.000Z</time>
      </trkpt>
      <trkpt lat="42.9514087" lon="-5.729858">
        <ele>1288.71</ele>
        <time>2020-07-21T09:30:11.000Z</time>
      </trkpt>
      <trkpt lat="42.9514145" lon="-5.7298733">
        <ele>1288.71</ele>
        <time>2020-07-21T09:30:12.000Z</time>
      </trkpt>
      <trkpt lat="42.9514215" lon="-5.7298885">
        <ele>1288.86</ele>
        <time>2020-07-21T09:30:13.000Z</time>
      </trkpt>
      <trkpt lat="42.951429" lon="-5.7299042">
        <ele>1288.86</ele>
        <time>2020-07-21T09:30:14.000Z</time>
      </trkpt>
      <trkpt lat="42.9514357" lon="-5.72992">
        <ele>1289.17</ele>
        <time>2020-07-21T09:30:15.000Z</time>
      </trkpt>
      <trkpt lat="42.9514413" lon="-5.7299365">
        <ele>1289.17</ele>
        <time>2020-07-21T09:30:16.000Z</time>
      </trkpt>
      <trkpt lat="42.9514465" lon="-5.729953">
        <ele>1289.32</ele>
        <time>2020-07-21T09:30:17.000Z</time>
      </trkpt>
      <trkpt lat="42.9514522" lon="-5.729969">
        <ele>1289.32</ele>
        <time>2020-07-21T09:30:18.000Z</time>
      </trkpt>
      <trkpt lat="42.951457" lon="-5.7299873">
        <ele>1289.47</ele>
        <time>2020-07-21T09:30:19.000Z</time>
      </trkpt>
      <trkpt lat="42.9514603" lon="-5.730006">
        <ele>1289.47</ele>
        <time>2020-07-21T09:30:20.000Z</time>
      </trkpt>
      <trkpt lat="42.9514618" lon="-5.7300225">
        <ele>1289.62</ele>
        <time>2020-07-21T09:30:21.000Z</time>
      </trkpt>
      <trkpt lat="42.9514628" lon="-5.7300323">
        <ele>1289.62</ele>
        <time>2020-07-21T09:30:22.000Z</time>
      </trkpt>
      <trkpt lat="42.9514637" lon="-5.7300378">
        <ele>1289.78</ele>
        <time>2020-07-21T09:30:23.000Z</time>
      </trkpt>
      <trkpt lat="42.9514652" lon="-5.7300445">
        <ele>1289.78</ele>
        <time>2020-07-21T09:30:24.000Z</time>
      </trkpt>
      <trkpt lat="42.9514677" lon="-5.7300547">
        <ele>1289.93</ele>
        <time>2020-07-21T09:30:25.000Z</time>
      </trkpt>
      <trkpt lat="42.951471" lon="-5.730068">
        <ele>1289.93</ele>
        <time>2020-07-21T09:30:26.000Z</time>
      </trkpt>
      <trkpt lat="42.9514757" lon="-5.7300823">
        <ele>1290.23</ele>
        <time>2020-07-21T09:30:27.000Z</time>
      </trkpt>
      <trkpt lat="42.9514757" lon="-5.7300823">
        <ele>1290.23</ele>
        <time>2020-07-21T09:30:28.000Z</time>
      </trkpt>
      <trkpt lat="42.9514868" lon="-5.7301147">
        <ele>1290.39</ele>
        <time>2020-07-21T09:30:29.000Z</time>
      </trkpt>
      <trkpt lat="42.9514923" lon="-5.7301332">
        <ele>1290.39</ele>
        <time>2020-07-21T09:30:30.000Z</time>
      </trkpt>
      <trkpt lat="42.951498" lon="-5.7301507">
        <ele>1290.54</ele>
        <time>2020-07-21T09:30:31.000Z</time>
      </trkpt>
      <trkpt lat="42.9515047" lon="-5.7301683">
        <ele>1290.54</ele>
        <time>2020-07-21T09:30:32.000Z</time>
      </trkpt>
      <trkpt lat="42.9515125" lon="-5.7301843">
        <ele>1290.84</ele>
        <time>2020-07-21T09:30:33.000Z</time>
      </trkpt>
      <trkpt lat="42.9515195" lon="-5.7302008">
        <ele>1290.84</ele>
        <time>2020-07-21T09:30:34.000Z</time>
      </trkpt>
      <trkpt lat="42.9515275" lon="-5.7302167">
        <ele>1291</ele>
        <time>2020-07-21T09:30:35.000Z</time>
      </trkpt>
      <trkpt lat="42.9515342" lon="-5.7302327">
        <ele>1291</ele>
        <time>2020-07-21T09:30:36.000Z</time>
      </trkpt>
      <trkpt lat="42.9515407" lon="-5.7302488">
        <ele>1291.15</ele>
        <time>2020-07-21T09:30:37.000Z</time>
      </trkpt>
      <trkpt lat="42.951546" lon="-5.7302665">
        <ele>1291.15</ele>
        <time>2020-07-21T09:30:38.000Z</time>
      </trkpt>
      <trkpt lat="42.9515508" lon="-5.7302845">
        <ele>1291.45</ele>
        <time>2020-07-21T09:30:39.000Z</time>
      </trkpt>
      <trkpt lat="42.9515565" lon="-5.730302">
        <ele>1291.45</ele>
        <time>2020-07-21T09:30:40.000Z</time>
      </trkpt>
      <trkpt lat="42.9515627" lon="-5.730319">
        <ele>1291.61</ele>
        <time>2020-07-21T09:30:41.000Z</time>
      </trkpt>
      <trkpt lat="42.9515697" lon="-5.730335">
        <ele>1291.61</ele>
        <time>2020-07-21T09:30:42.000Z</time>
      </trkpt>
      <trkpt lat="42.951577" lon="-5.7303505">
        <ele>1291.76</ele>
        <time>2020-07-21T09:30:43.000Z</time>
      </trkpt>
      <trkpt lat="42.9515823" lon="-5.7303662">
        <ele>1291.76</ele>
        <time>2020-07-21T09:30:44.000Z</time>
      </trkpt>
      <trkpt lat="42.9515877" lon="-5.7303815">
        <ele>1291.91</ele>
        <time>2020-07-21T09:30:45.000Z</time>
      </trkpt>
      <trkpt lat="42.9515925" lon="-5.7303963">
        <ele>1291.91</ele>
        <time>2020-07-21T09:30:46.000Z</time>
      </trkpt>
      <trkpt lat="42.9515985" lon="-5.7304107">
        <ele>1292.21</ele>
        <time>2020-07-21T09:30:47.000Z</time>
      </trkpt>
      <trkpt lat="42.9516037" lon="-5.7304257">
        <ele>1292.21</ele>
        <time>2020-07-21T09:30:48.000Z</time>
      </trkpt>
      <trkpt lat="42.9516087" lon="-5.7304413">
        <ele>1292.37</ele>
        <time>2020-07-21T09:30:49.000Z</time>
      </trkpt>
      <trkpt lat="42.9516145" lon="-5.730457">
        <ele>1292.37</ele>
        <time>2020-07-21T09:30:50.000Z</time>
      </trkpt>
      <trkpt lat="42.9516215" lon="-5.7304735">
        <ele>1292.52</ele>
        <time>2020-07-21T09:30:51.000Z</time>
      </trkpt>
      <trkpt lat="42.9516297" lon="-5.7304902">
        <ele>1292.52</ele>
        <time>2020-07-21T09:30:52.000Z</time>
      </trkpt>
      <trkpt lat="42.9516372" lon="-5.7305063">
        <ele>1292.82</ele>
        <time>2020-07-21T09:30:53.000Z</time>
      </trkpt>
      <trkpt lat="42.9516433" lon="-5.7305227">
        <ele>1292.82</ele>
        <time>2020-07-21T09:30:54.000Z</time>
      </trkpt>
      <trkpt lat="42.9516485" lon="-5.7305388">
        <ele>1292.98</ele>
        <time>2020-07-21T09:30:55.000Z</time>
      </trkpt>
      <trkpt lat="42.9516542" lon="-5.730555">
        <ele>1292.98</ele>
        <time>2020-07-21T09:30:56.000Z</time>
      </trkpt>
      <trkpt lat="42.9516607" lon="-5.7305708">
        <ele>1293.13</ele>
        <time>2020-07-21T09:30:57.000Z</time>
      </trkpt>
      <trkpt lat="42.9516678" lon="-5.7305867">
        <ele>1293.13</ele>
        <time>2020-07-21T09:30:58.000Z</time>
      </trkpt>
      <trkpt lat="42.9516757" lon="-5.730603">
        <ele>1293.28</ele>
        <time>2020-07-21T09:30:59.000Z</time>
      </trkpt>
      <trkpt lat="42.9516837" lon="-5.7306195">
        <ele>1293.28</ele>
        <time>2020-07-21T09:31:00.000Z</time>
      </trkpt>
      <trkpt lat="42.951692" lon="-5.730636">
        <ele>1293.43</ele>
        <time>2020-07-21T09:31:01.000Z</time>
      </trkpt>
      <trkpt lat="42.9516988" lon="-5.7306532">
        <ele>1293.43</ele>
        <time>2020-07-21T09:31:02.000Z</time>
      </trkpt>
      <trkpt lat="42.951705" lon="-5.7306702">
        <ele>1293.59</ele>
        <time>2020-07-21T09:31:03.000Z</time>
      </trkpt>
      <trkpt lat="42.95171" lon="-5.7306875">
        <ele>1293.59</ele>
        <time>2020-07-21T09:31:04.000Z</time>
      </trkpt>
      <trkpt lat="42.9517143" lon="-5.7307038">
        <ele>1293.74</ele>
        <time>2020-07-21T09:31:05.000Z</time>
      </trkpt>
      <trkpt lat="42.9517197" lon="-5.7307195">
        <ele>1293.74</ele>
        <time>2020-07-21T09:31:06.000Z</time>
      </trkpt>
      <trkpt lat="42.951726" lon="-5.7307343">
        <ele>1293.89</ele>
        <time>2020-07-21T09:31:07.000Z</time>
      </trkpt>
      <trkpt lat="42.9517333" lon="-5.7307497">
        <ele>1293.89</ele>
        <time>2020-07-21T09:31:08.000Z</time>
      </trkpt>
      <trkpt lat="42.9517395" lon="-5.7307643">
        <ele>1294.04</ele>
        <time>2020-07-21T09:31:09.000Z</time>
      </trkpt>
      <trkpt lat="42.9517437" lon="-5.73078">
        <ele>1294.04</ele>
        <time>2020-07-21T09:31:10.000Z</time>
      </trkpt>
      <trkpt lat="42.9517487" lon="-5.7307952">
        <ele>1294.2</ele>
        <time>2020-07-21T09:31:11.000Z</time>
      </trkpt>
      <trkpt lat="42.9517545" lon="-5.730812">
        <ele>1294.2</ele>
        <time>2020-07-21T09:31:12.000Z</time>
      </trkpt>
      <trkpt lat="42.9517633" lon="-5.7308285">
        <ele>1294.35</ele>
        <time>2020-07-21T09:31:13.000Z</time>
      </trkpt>
      <trkpt lat="42.951771" lon="-5.7308452">
        <ele>1294.35</ele>
        <time>2020-07-21T09:31:14.000Z</time>
      </trkpt>
      <trkpt lat="42.9517783" lon="-5.7308613">
        <ele>1294.35</ele>
        <time>2020-07-21T09:31:15.000Z</time>
      </trkpt>
      <trkpt lat="42.9517843" lon="-5.7308773">
        <ele>1294.35</ele>
        <time>2020-07-21T09:31:16.000Z</time>
      </trkpt>
      <trkpt lat="42.9517908" lon="-5.7308933">
        <ele>1294.5</ele>
        <time>2020-07-21T09:31:17.000Z</time>
      </trkpt>
      <trkpt lat="42.9517978" lon="-5.7309085">
        <ele>1294.5</ele>
        <time>2020-07-21T09:31:18.000Z</time>
      </trkpt>
      <trkpt lat="42.9518055" lon="-5.7309232">
        <ele>1294.65</ele>
        <time>2020-07-21T09:31:19.000Z</time>
      </trkpt>
      <trkpt lat="42.9518128" lon="-5.7309378">
        <ele>1294.65</ele>
        <time>2020-07-21T09:31:20.000Z</time>
      </trkpt>
      <trkpt lat="42.9518198" lon="-5.7309532">
        <ele>1294.81</ele>
        <time>2020-07-21T09:31:21.000Z</time>
      </trkpt>
      <trkpt lat="42.9518198" lon="-5.7309532">
        <ele>1294.81</ele>
        <time>2020-07-21T09:31:22.000Z</time>
      </trkpt>
      <trkpt lat="42.9518322" lon="-5.7309852">
        <ele>1294.81</ele>
        <time>2020-07-21T09:31:23.000Z</time>
      </trkpt>
      <trkpt lat="42.9518385" lon="-5.7310005">
        <ele>1294.81</ele>
        <time>2020-07-21T09:31:24.000Z</time>
      </trkpt>
      <trkpt lat="42.9518452" lon="-5.7310153">
        <ele>1294.96</ele>
        <time>2020-07-21T09:31:25.000Z</time>
      </trkpt>
      <trkpt lat="42.9518517" lon="-5.7310303">
        <ele>1294.96</ele>
        <time>2020-07-21T09:31:26.000Z</time>
      </trkpt>
      <trkpt lat="42.9518577" lon="-5.7310453">
        <ele>1295.11</ele>
        <time>2020-07-21T09:31:27.000Z</time>
      </trkpt>
      <trkpt lat="42.9518635" lon="-5.7310603">
        <ele>1295.11</ele>
        <time>2020-07-21T09:31:28.000Z</time>
      </trkpt>
      <trkpt lat="42.9518692" lon="-5.7310752">
        <ele>1295.26</ele>
        <time>2020-07-21T09:31:29.000Z</time>
      </trkpt>
      <trkpt lat="42.9518753" lon="-5.73109">
        <ele>1295.26</ele>
        <time>2020-07-21T09:31:30.000Z</time>
      </trkpt>
      <trkpt lat="42.9518812" lon="-5.7311047">
        <ele>1295.42</ele>
        <time>2020-07-21T09:31:31.000Z</time>
      </trkpt>
      <trkpt lat="42.9518875" lon="-5.7311197">
        <ele>1295.42</ele>
        <time>2020-07-21T09:31:32.000Z</time>
      </trkpt>
      <trkpt lat="42.9518932" lon="-5.731135">
        <ele>1295.57</ele>
        <time>2020-07-21T09:31:33.000Z</time>
      </trkpt>
      <trkpt lat="42.9518977" lon="-5.7311525">
        <ele>1295.57</ele>
        <time>2020-07-21T09:31:34.000Z</time>
      </trkpt>
      <trkpt lat="42.9519032" lon="-5.7311688">
        <ele>1295.87</ele>
        <time>2020-07-21T09:31:35.000Z</time>
      </trkpt>
      <trkpt lat="42.9519103" lon="-5.7311852">
        <ele>1295.87</ele>
        <time>2020-07-21T09:31:36.000Z</time>
      </trkpt>
      <trkpt lat="42.9519187" lon="-5.7311995">
        <ele>1296.03</ele>
        <time>2020-07-21T09:31:37.000Z</time>
      </trkpt>
      <trkpt lat="42.9519257" lon="-5.7312152">
        <ele>1296.03</ele>
        <time>2020-07-21T09:31:38.000Z</time>
      </trkpt>
      <trkpt lat="42.9519315" lon="-5.7312305">
        <ele>1296.18</ele>
        <time>2020-07-21T09:31:39.000Z</time>
      </trkpt>
      <trkpt lat="42.9519365" lon="-5.7312467">
        <ele>1296.18</ele>
        <time>2020-07-21T09:31:40.000Z</time>
      </trkpt>
      <trkpt lat="42.951941" lon="-5.7312635">
        <ele>1296.33</ele>
        <time>2020-07-21T09:31:41.000Z</time>
      </trkpt>
      <trkpt lat="42.9519455" lon="-5.7312805">
        <ele>1296.33</ele>
        <time>2020-07-21T09:31:42.000Z</time>
      </trkpt>
      <trkpt lat="42.9519507" lon="-5.731297">
        <ele>1296.64</ele>
        <time>2020-07-21T09:31:43.000Z</time>
      </trkpt>
      <trkpt lat="42.9519563" lon="-5.7313123">
        <ele>1296.64</ele>
        <time>2020-07-21T09:31:44.000Z</time>
      </trkpt>
      <trkpt lat="42.951962" lon="-5.7313278">
        <ele>1296.79</ele>
        <time>2020-07-21T09:31:45.000Z</time>
      </trkpt>
      <trkpt lat="42.9519678" lon="-5.7313432">
        <ele>1296.79</ele>
        <time>2020-07-21T09:31:46.000Z</time>
      </trkpt>
      <trkpt lat="42.9519732" lon="-5.7313587">
        <ele>1296.94</ele>
        <time>2020-07-21T09:31:47.000Z</time>
      </trkpt>
      <trkpt lat="42.9519792" lon="-5.7313733">
        <ele>1296.94</ele>
        <time>2020-07-21T09:31:48.000Z</time>
      </trkpt>
      <trkpt lat="42.9519845" lon="-5.7313878">
        <ele>1297.24</ele>
        <time>2020-07-21T09:31:49.000Z</time>
      </trkpt>
      <trkpt lat="42.9519907" lon="-5.7314022">
        <ele>1297.24</ele>
        <time>2020-07-21T09:31:50.000Z</time>
      </trkpt>
      <trkpt lat="42.9519957" lon="-5.7314177">
        <ele>1297.4</ele>
        <time>2020-07-21T09:31:51.000Z</time>
      </trkpt>
      <trkpt lat="42.9520005" lon="-5.7314338">
        <ele>1297.4</ele>
        <time>2020-07-21T09:31:52.000Z</time>
      </trkpt>
      <trkpt lat="42.9520043" lon="-5.7314502">
        <ele>1297.7</ele>
        <time>2020-07-21T09:31:53.000Z</time>
      </trkpt>
      <trkpt lat="42.9520097" lon="-5.731466">
        <ele>1297.7</ele>
        <time>2020-07-21T09:31:54.000Z</time>
      </trkpt>
      <trkpt lat="42.9520153" lon="-5.7314818">
        <ele>1297.85</ele>
        <time>2020-07-21T09:31:55.000Z</time>
      </trkpt>
      <trkpt lat="42.9520185" lon="-5.7314977">
        <ele>1297.85</ele>
        <time>2020-07-21T09:31:56.000Z</time>
      </trkpt>
      <trkpt lat="42.9520225" lon="-5.731516">
        <ele>1298.01</ele>
        <time>2020-07-21T09:31:57.000Z</time>
      </trkpt>
      <trkpt lat="42.9520245" lon="-5.7315362">
        <ele>1298.01</ele>
        <time>2020-07-21T09:31:58.000Z</time>
      </trkpt>
      <trkpt lat="42.9520295" lon="-5.7315567">
        <ele>1298.31</ele>
        <time>2020-07-21T09:31:59.000Z</time>
      </trkpt>
      <trkpt lat="42.952033" lon="-5.7315745">
        <ele>1298.31</ele>
        <time>2020-07-21T09:32:00.000Z</time>
      </trkpt>
      <trkpt lat="42.9520383" lon="-5.731591">
        <ele>1298.62</ele>
        <time>2020-07-21T09:32:01.000Z</time>
      </trkpt>
      <trkpt lat="42.9520443" lon="-5.7316058">
        <ele>1298.62</ele>
        <time>2020-07-21T09:32:02.000Z</time>
      </trkpt>
      <trkpt lat="42.9520507" lon="-5.7316217">
        <ele>1298.77</ele>
        <time>2020-07-21T09:32:03.000Z</time>
      </trkpt>
      <trkpt lat="42.9520573" lon="-5.7316373">
        <ele>1298.77</ele>
        <time>2020-07-21T09:32:04.000Z</time>
      </trkpt>
      <trkpt lat="42.9520632" lon="-5.731654">
        <ele>1299.07</ele>
        <time>2020-07-21T09:32:05.000Z</time>
      </trkpt>
      <trkpt lat="42.9520683" lon="-5.7316697">
        <ele>1299.07</ele>
        <time>2020-07-21T09:32:06.000Z</time>
      </trkpt>
      <trkpt lat="42.9520683" lon="-5.7316697">
        <ele>1299.38</ele>
        <time>2020-07-21T09:32:07.000Z</time>
      </trkpt>
      <trkpt lat="42.952074" lon="-5.7316845">
        <ele>1299.38</ele>
        <time>2020-07-21T09:32:08.000Z</time>
      </trkpt>
      <trkpt lat="42.9520798" lon="-5.7316997">
        <ele>1299.53</ele>
        <time>2020-07-21T09:32:09.000Z</time>
      </trkpt>
      <trkpt lat="42.9520848" lon="-5.7317145">
        <ele>1299.53</ele>
        <time>2020-07-21T09:32:10.000Z</time>
      </trkpt>
      <trkpt lat="42.9520887" lon="-5.7317312">
        <ele>1299.83</ele>
        <time>2020-07-21T09:32:11.000Z</time>
      </trkpt>
      <trkpt lat="42.952093" lon="-5.7317478">
        <ele>1299.83</ele>
        <time>2020-07-21T09:32:12.000Z</time>
      </trkpt>
      <trkpt lat="42.9520992" lon="-5.7317653">
        <ele>1300.14</ele>
        <time>2020-07-21T09:32:13.000Z</time>
      </trkpt>
      <trkpt lat="42.9521053" lon="-5.7317808">
        <ele>1300.14</ele>
        <time>2020-07-21T09:32:14.000Z</time>
      </trkpt>
      <trkpt lat="42.952111" lon="-5.7317958">
        <ele>1300.44</ele>
        <time>2020-07-21T09:32:15.000Z</time>
      </trkpt>
      <trkpt lat="42.9521153" lon="-5.7318113">
        <ele>1300.44</ele>
        <time>2020-07-21T09:32:16.000Z</time>
      </trkpt>
      <trkpt lat="42.95212" lon="-5.7318267">
        <ele>1300.6</ele>
        <time>2020-07-21T09:32:17.000Z</time>
      </trkpt>
      <trkpt lat="42.9521235" lon="-5.7318427">
        <ele>1300.6</ele>
        <time>2020-07-21T09:32:18.000Z</time>
      </trkpt>
      <trkpt lat="42.9521272" lon="-5.7318577">
        <ele>1300.9</ele>
        <time>2020-07-21T09:32:19.000Z</time>
      </trkpt>
      <trkpt lat="42.9521308" lon="-5.7318728">
        <ele>1300.9</ele>
        <time>2020-07-21T09:32:20.000Z</time>
      </trkpt>
      <trkpt lat="42.952136" lon="-5.7318887">
        <ele>1301.21</ele>
        <time>2020-07-21T09:32:21.000Z</time>
      </trkpt>
      <trkpt lat="42.952142" lon="-5.731905">
        <ele>1301.21</ele>
        <time>2020-07-21T09:32:22.000Z</time>
      </trkpt>
      <trkpt lat="42.9521487" lon="-5.7319218">
        <ele>1301.51</ele>
        <time>2020-07-21T09:32:23.000Z</time>
      </trkpt>
      <trkpt lat="42.9521535" lon="-5.7319392">
        <ele>1301.51</ele>
        <time>2020-07-21T09:32:24.000Z</time>
      </trkpt>
      <trkpt lat="42.9521573" lon="-5.7319567">
        <ele>1301.66</ele>
        <time>2020-07-21T09:32:25.000Z</time>
      </trkpt>
      <trkpt lat="42.952162" lon="-5.7319737">
        <ele>1301.66</ele>
        <time>2020-07-21T09:32:26.000Z</time>
      </trkpt>
      <trkpt lat="42.9521702" lon="-5.7319852">
        <ele>1301.97</ele>
        <time>2020-07-21T09:32:27.000Z</time>
      </trkpt>
      <trkpt lat="42.9521782" lon="-5.7319965">
        <ele>1301.97</ele>
        <time>2020-07-21T09:32:28.000Z</time>
      </trkpt>
      <trkpt lat="42.9521865" lon="-5.7320075">
        <ele>1302.27</ele>
        <time>2020-07-21T09:32:29.000Z</time>
      </trkpt>
      <trkpt lat="42.9521957" lon="-5.7320368">
        <ele>1302.27</ele>
        <time>2020-07-21T09:32:30.000Z</time>
      </trkpt>
      <trkpt lat="42.9521987" lon="-5.7320527">
        <ele>1302.58</ele>
        <time>2020-07-21T09:32:31.000Z</time>
      </trkpt>
      <trkpt lat="42.952202" lon="-5.7320688">
        <ele>1302.58</ele>
        <time>2020-07-21T09:32:32.000Z</time>
      </trkpt>
      <trkpt lat="42.952205" lon="-5.7320837">
        <ele>1302.88</ele>
        <time>2020-07-21T09:32:33.000Z</time>
      </trkpt>
      <trkpt lat="42.9522085" lon="-5.732101">
        <ele>1302.88</ele>
        <time>2020-07-21T09:32:34.000Z</time>
      </trkpt>
      <trkpt lat="42.9522113" lon="-5.7321192">
        <ele>1303.19</ele>
        <time>2020-07-21T09:32:35.000Z</time>
      </trkpt>
      <trkpt lat="42.9522147" lon="-5.7321375">
        <ele>1303.19</ele>
        <time>2020-07-21T09:32:36.000Z</time>
      </trkpt>
      <trkpt lat="42.9522173" lon="-5.7321533">
        <ele>1303.49</ele>
        <time>2020-07-21T09:32:37.000Z</time>
      </trkpt>
      <trkpt lat="42.9522195" lon="-5.7321685">
        <ele>1303.49</ele>
        <time>2020-07-21T09:32:38.000Z</time>
      </trkpt>
      <trkpt lat="42.9522228" lon="-5.7321842">
        <ele>1303.8</ele>
        <time>2020-07-21T09:32:39.000Z</time>
      </trkpt>
      <trkpt lat="42.9522282" lon="-5.732201">
        <ele>1303.8</ele>
        <time>2020-07-21T09:32:40.000Z</time>
      </trkpt>
      <trkpt lat="42.9522353" lon="-5.7322165">
        <ele>1304.1</ele>
        <time>2020-07-21T09:32:41.000Z</time>
      </trkpt>
      <trkpt lat="42.9522427" lon="-5.732231">
        <ele>1304.1</ele>
        <time>2020-07-21T09:32:42.000Z</time>
      </trkpt>
      <trkpt lat="42.9522495" lon="-5.732244">
        <ele>1304.41</ele>
        <time>2020-07-21T09:32:43.000Z</time>
      </trkpt>
      <trkpt lat="42.9522568" lon="-5.7322573">
        <ele>1304.41</ele>
        <time>2020-07-21T09:32:44.000Z</time>
      </trkpt>
      <trkpt lat="42.9522647" lon="-5.7322702">
        <ele>1304.71</ele>
        <time>2020-07-21T09:32:45.000Z</time>
      </trkpt>
      <trkpt lat="42.9522722" lon="-5.7322827">
        <ele>1304.71</ele>
        <time>2020-07-21T09:32:46.000Z</time>
      </trkpt>
      <trkpt lat="42.9522813" lon="-5.732295">
        <ele>1305.02</ele>
        <time>2020-07-21T09:32:47.000Z</time>
      </trkpt>
      <trkpt lat="42.9522918" lon="-5.7323063">
        <ele>1305.02</ele>
        <time>2020-07-21T09:32:48.000Z</time>
      </trkpt>
      <trkpt lat="42.9523038" lon="-5.7323187">
        <ele>1305.32</ele>
        <time>2020-07-21T09:32:49.000Z</time>
      </trkpt>
      <trkpt lat="42.9523158" lon="-5.7323303">
        <ele>1305.32</ele>
        <time>2020-07-21T09:32:50.000Z</time>
      </trkpt>
      <trkpt lat="42.9523272" lon="-5.7323428">
        <ele>1305.63</ele>
        <time>2020-07-21T09:32:51.000Z</time>
      </trkpt>
      <trkpt lat="42.9523387" lon="-5.732353">
        <ele>1305.63</ele>
        <time>2020-07-21T09:32:52.000Z</time>
      </trkpt>
      <trkpt lat="42.952351" lon="-5.7323618">
        <ele>1306.08</ele>
        <time>2020-07-21T09:32:53.000Z</time>
      </trkpt>
      <trkpt lat="42.9523648" lon="-5.7323707">
        <ele>1306.08</ele>
        <time>2020-07-21T09:32:54.000Z</time>
      </trkpt>
      <trkpt lat="42.9523788" lon="-5.7323797">
        <ele>1306.39</ele>
        <time>2020-07-21T09:32:55.000Z</time>
      </trkpt>
      <trkpt lat="42.9523918" lon="-5.7323898">
        <ele>1306.39</ele>
        <time>2020-07-21T09:32:56.000Z</time>
      </trkpt>
      <trkpt lat="42.9524042" lon="-5.732398">
        <ele>1306.69</ele>
        <time>2020-07-21T09:32:57.000Z</time>
      </trkpt>
      <trkpt lat="42.9524162" lon="-5.7324047">
        <ele>1306.69</ele>
        <time>2020-07-21T09:32:58.000Z</time>
      </trkpt>
      <trkpt lat="42.9524275" lon="-5.7324118">
        <ele>1307</ele>
        <time>2020-07-21T09:32:59.000Z</time>
      </trkpt>
      <trkpt lat="42.9524377" lon="-5.7324197">
        <ele>1307</ele>
        <time>2020-07-21T09:33:00.000Z</time>
      </trkpt>
      <trkpt lat="42.9524475" lon="-5.7324287">
        <ele>1307.3</ele>
        <time>2020-07-21T09:33:01.000Z</time>
      </trkpt>
      <trkpt lat="42.952458" lon="-5.732438">
        <ele>1307.3</ele>
        <time>2020-07-21T09:33:02.000Z</time>
      </trkpt>
      <trkpt lat="42.95247" lon="-5.7324478">
        <ele>1307.61</ele>
        <time>2020-07-21T09:33:03.000Z</time>
      </trkpt>
      <trkpt lat="42.9524813" lon="-5.732459">
        <ele>1307.61</ele>
        <time>2020-07-21T09:33:04.000Z</time>
      </trkpt>
      <trkpt lat="42.9524915" lon="-5.7324712">
        <ele>1307.91</ele>
        <time>2020-07-21T09:33:05.000Z</time>
      </trkpt>
      <trkpt lat="42.9524997" lon="-5.7324842">
        <ele>1307.91</ele>
        <time>2020-07-21T09:33:06.000Z</time>
      </trkpt>
      <trkpt lat="42.952508" lon="-5.7324967">
        <ele>1308.22</ele>
        <time>2020-07-21T09:33:07.000Z</time>
      </trkpt>
      <trkpt lat="42.9525165" lon="-5.7325083">
        <ele>1308.22</ele>
        <time>2020-07-21T09:33:08.000Z</time>
      </trkpt>
      <trkpt lat="42.9525263" lon="-5.7325205">
        <ele>1308.52</ele>
        <time>2020-07-21T09:33:09.000Z</time>
      </trkpt>
      <trkpt lat="42.952536" lon="-5.7325337">
        <ele>1308.52</ele>
        <time>2020-07-21T09:33:10.000Z</time>
      </trkpt>
      <trkpt lat="42.9525447" lon="-5.7325468">
        <ele>1308.68</ele>
        <time>2020-07-21T09:33:11.000Z</time>
      </trkpt>
      <trkpt lat="42.9525533" lon="-5.7325603">
        <ele>1308.68</ele>
        <time>2020-07-21T09:33:12.000Z</time>
      </trkpt>
      <trkpt lat="42.9525618" lon="-5.7325743">
        <ele>1308.98</ele>
        <time>2020-07-21T09:33:13.000Z</time>
      </trkpt>
      <trkpt lat="42.952571" lon="-5.7325878">
        <ele>1308.98</ele>
        <time>2020-07-21T09:33:14.000Z</time>
      </trkpt>
      <trkpt lat="42.9525793" lon="-5.7326002">
        <ele>1309.13</ele>
        <time>2020-07-21T09:33:15.000Z</time>
      </trkpt>
      <trkpt lat="42.9525878" lon="-5.7326087">
        <ele>1309.13</ele>
        <time>2020-07-21T09:33:16.000Z</time>
      </trkpt>
      <trkpt lat="42.9525967" lon="-5.7326165">
        <ele>1309.44</ele>
        <time>2020-07-21T09:33:17.000Z</time>
      </trkpt>
      <trkpt lat="42.952606" lon="-5.7326233">
        <ele>1309.44</ele>
        <time>2020-07-21T09:33:18.000Z</time>
      </trkpt>
      <trkpt lat="42.952616" lon="-5.7326323">
        <ele>1309.59</ele>
        <time>2020-07-21T09:33:19.000Z</time>
      </trkpt>
      <trkpt lat="42.9526255" lon="-5.7326413">
        <ele>1309.59</ele>
        <time>2020-07-21T09:33:20.000Z</time>
      </trkpt>
      <trkpt lat="42.9526348" lon="-5.7326512">
        <ele>1309.89</ele>
        <time>2020-07-21T09:33:21.000Z</time>
      </trkpt>
      <trkpt lat="42.9526417" lon="-5.7326612">
        <ele>1309.89</ele>
        <time>2020-07-21T09:33:22.000Z</time>
      </trkpt>
      <trkpt lat="42.9526487" lon="-5.7326718">
        <ele>1310.05</ele>
        <time>2020-07-21T09:33:23.000Z</time>
      </trkpt>
      <trkpt lat="42.9526555" lon="-5.7326818">
        <ele>1310.05</ele>
        <time>2020-07-21T09:33:24.000Z</time>
      </trkpt>
      <trkpt lat="42.9526645" lon="-5.7326912">
        <ele>1310.2</ele>
        <time>2020-07-21T09:33:25.000Z</time>
      </trkpt>
      <trkpt lat="42.952674" lon="-5.732701">
        <ele>1310.2</ele>
        <time>2020-07-21T09:33:26.000Z</time>
      </trkpt>
      <trkpt lat="42.952684" lon="-5.7327105">
        <ele>1310.35</ele>
        <time>2020-07-21T09:33:27.000Z</time>
      </trkpt>
      <trkpt lat="42.9526942" lon="-5.7327198">
        <ele>1310.35</ele>
        <time>2020-07-21T09:33:28.000Z</time>
      </trkpt>
      <trkpt lat="42.9527043" lon="-5.7327287">
        <ele>1310.5</ele>
        <time>2020-07-21T09:33:29.000Z</time>
      </trkpt>
      <trkpt lat="42.9527135" lon="-5.7327378">
        <ele>1310.5</ele>
        <time>2020-07-21T09:33:30.000Z</time>
      </trkpt>
      <trkpt lat="42.9527235" lon="-5.7327465">
        <ele>1310.66</ele>
        <time>2020-07-21T09:33:31.000Z</time>
      </trkpt>
      <trkpt lat="42.9527332" lon="-5.7327555">
        <ele>1310.66</ele>
        <time>2020-07-21T09:33:32.000Z</time>
      </trkpt>
      <trkpt lat="42.9527453" lon="-5.7327622">
        <ele>1310.81</ele>
        <time>2020-07-21T09:33:33.000Z</time>
      </trkpt>
      <trkpt lat="42.9527557" lon="-5.7327692">
        <ele>1310.81</ele>
        <time>2020-07-21T09:33:34.000Z</time>
      </trkpt>
      <trkpt lat="42.9527663" lon="-5.7327743">
        <ele>1310.96</ele>
        <time>2020-07-21T09:33:35.000Z</time>
      </trkpt>
      <trkpt lat="42.9527755" lon="-5.7327795">
        <ele>1310.96</ele>
        <time>2020-07-21T09:33:36.000Z</time>
      </trkpt>
      <trkpt lat="42.9527858" lon="-5.7327832">
        <ele>1311.11</ele>
        <time>2020-07-21T09:33:37.000Z</time>
      </trkpt>
      <trkpt lat="42.9527992" lon="-5.7327838">
        <ele>1311.11</ele>
        <time>2020-07-21T09:33:38.000Z</time>
      </trkpt>
      <trkpt lat="42.9528113" lon="-5.732785">
        <ele>1311.27</ele>
        <time>2020-07-21T09:33:39.000Z</time>
      </trkpt>
      <trkpt lat="42.9528233" lon="-5.732785">
        <ele>1311.27</ele>
        <time>2020-07-21T09:33:40.000Z</time>
      </trkpt>
      <trkpt lat="42.9528317" lon="-5.7327872">
        <ele>1311.27</ele>
        <time>2020-07-21T09:33:41.000Z</time>
      </trkpt>
      <trkpt lat="42.9528407" lon="-5.7327883">
        <ele>1311.27</ele>
        <time>2020-07-21T09:33:42.000Z</time>
      </trkpt>
      <trkpt lat="42.9528492" lon="-5.7327912">
        <ele>1311.42</ele>
        <time>2020-07-21T09:33:43.000Z</time>
      </trkpt>
      <trkpt lat="42.9528578" lon="-5.7327935">
        <ele>1311.42</ele>
        <time>2020-07-21T09:33:44.000Z</time>
      </trkpt>
      <trkpt lat="42.9528675" lon="-5.7327952">
        <ele>1311.57</ele>
        <time>2020-07-21T09:33:45.000Z</time>
      </trkpt>
      <trkpt lat="42.9528775" lon="-5.7327948">
        <ele>1311.57</ele>
        <time>2020-07-21T09:33:46.000Z</time>
      </trkpt>
      <trkpt lat="42.952887" lon="-5.7327943">
        <ele>1311.72</ele>
        <time>2020-07-21T09:33:47.000Z</time>
      </trkpt>
      <trkpt lat="42.9528953" lon="-5.7327955">
        <ele>1311.72</ele>
        <time>2020-07-21T09:33:48.000Z</time>
      </trkpt>
      <trkpt lat="42.9529037" lon="-5.7327963">
        <ele>1311.88</ele>
        <time>2020-07-21T09:33:49.000Z</time>
      </trkpt>
      <trkpt lat="42.9529105" lon="-5.7327983">
        <ele>1311.88</ele>
        <time>2020-07-21T09:33:50.000Z</time>
      </trkpt>
      <trkpt lat="42.9529172" lon="-5.732798">
        <ele>1312.03</ele>
        <time>2020-07-21T09:33:51.000Z</time>
      </trkpt>
      <trkpt lat="42.9529233" lon="-5.7327983">
        <ele>1312.03</ele>
        <time>2020-07-21T09:33:52.000Z</time>
      </trkpt>
      <trkpt lat="42.9529323" lon="-5.7327967">
        <ele>1312.18</ele>
        <time>2020-07-21T09:33:53.000Z</time>
      </trkpt>
      <trkpt lat="42.9529418" lon="-5.7327972">
        <ele>1312.18</ele>
        <time>2020-07-21T09:33:54.000Z</time>
      </trkpt>
      <trkpt lat="42.9529522" lon="-5.7327977">
        <ele>1312.33</ele>
        <time>2020-07-21T09:33:55.000Z</time>
      </trkpt>
      <trkpt lat="42.9529617" lon="-5.7327985">
        <ele>1312.33</ele>
        <time>2020-07-21T09:33:56.000Z</time>
      </trkpt>
      <trkpt lat="42.9529713" lon="-5.7327983">
        <ele>1312.64</ele>
        <time>2020-07-21T09:33:57.000Z</time>
      </trkpt>
      <trkpt lat="42.9529713" lon="-5.7327983">
        <ele>1312.64</ele>
        <time>2020-07-21T09:33:58.000Z</time>
      </trkpt>
      <trkpt lat="42.9529845" lon="-5.732798">
        <ele>1312.79</ele>
        <time>2020-07-21T09:33:59.000Z</time>
      </trkpt>
      <trkpt lat="42.9529975" lon="-5.7327972">
        <ele>1312.79</ele>
        <time>2020-07-21T09:34:00.000Z</time>
      </trkpt>
      <trkpt lat="42.9530098" lon="-5.7327965">
        <ele>1312.94</ele>
        <time>2020-07-21T09:34:01.000Z</time>
      </trkpt>
      <trkpt lat="42.9530192" lon="-5.7327967">
        <ele>1312.94</ele>
        <time>2020-07-21T09:34:02.000Z</time>
      </trkpt>
      <trkpt lat="42.9530288" lon="-5.732797">
        <ele>1313.09</ele>
        <time>2020-07-21T09:34:03.000Z</time>
      </trkpt>
      <trkpt lat="42.9530392" lon="-5.7327975">
        <ele>1313.09</ele>
        <time>2020-07-21T09:34:04.000Z</time>
      </trkpt>
      <trkpt lat="42.953049" lon="-5.732797">
        <ele>1313.25</ele>
        <time>2020-07-21T09:34:05.000Z</time>
      </trkpt>
      <trkpt lat="42.9530595" lon="-5.7327952">
        <ele>1313.25</ele>
        <time>2020-07-21T09:34:06.000Z</time>
      </trkpt>
      <trkpt lat="42.9530708" lon="-5.7327922">
        <ele>1313.4</ele>
        <time>2020-07-21T09:34:07.000Z</time>
      </trkpt>
      <trkpt lat="42.9530825" lon="-5.7327885">
        <ele>1313.4</ele>
        <time>2020-07-21T09:34:08.000Z</time>
      </trkpt>
      <trkpt lat="42.9530938" lon="-5.7327853">
        <ele>1313.55</ele>
        <time>2020-07-21T09:34:09.000Z</time>
      </trkpt>
      <trkpt lat="42.953103" lon="-5.7327832">
        <ele>1313.55</ele>
        <time>2020-07-21T09:34:10.000Z</time>
      </trkpt>
      <trkpt lat="42.9531122" lon="-5.7327803">
        <ele>1313.55</ele>
        <time>2020-07-21T09:34:11.000Z</time>
      </trkpt>
      <trkpt lat="42.9531212" lon="-5.7327782">
        <ele>1313.55</ele>
        <time>2020-07-21T09:34:12.000Z</time>
      </trkpt>
      <trkpt lat="42.953132" lon="-5.7327757">
        <ele>1313.7</ele>
        <time>2020-07-21T09:34:13.000Z</time>
      </trkpt>
      <trkpt lat="42.9531435" lon="-5.7327745">
        <ele>1313.7</ele>
        <time>2020-07-21T09:34:14.000Z</time>
      </trkpt>
      <trkpt lat="42.9531548" lon="-5.7327728">
        <ele>1313.7</ele>
        <time>2020-07-21T09:34:15.000Z</time>
      </trkpt>
      <trkpt lat="42.9531653" lon="-5.732771">
        <ele>1313.7</ele>
        <time>2020-07-21T09:34:16.000Z</time>
      </trkpt>
      <trkpt lat="42.9531753" lon="-5.7327688">
        <ele>1313.86</ele>
        <time>2020-07-21T09:34:17.000Z</time>
      </trkpt>
      <trkpt lat="42.9531852" lon="-5.7327677">
        <ele>1313.86</ele>
        <time>2020-07-21T09:34:18.000Z</time>
      </trkpt>
      <trkpt lat="42.9531945" lon="-5.7327667">
        <ele>1314.01</ele>
        <time>2020-07-21T09:34:19.000Z</time>
      </trkpt>
      <trkpt lat="42.9532045" lon="-5.7327658">
        <ele>1314.01</ele>
        <time>2020-07-21T09:34:20.000Z</time>
      </trkpt>
      <trkpt lat="42.9532157" lon="-5.732765">
        <ele>1314.01</ele>
        <time>2020-07-21T09:34:21.000Z</time>
      </trkpt>
      <trkpt lat="42.9532267" lon="-5.732764">
        <ele>1314.01</ele>
        <time>2020-07-21T09:34:22.000Z</time>
      </trkpt>
      <trkpt lat="42.9532378" lon="-5.7327617">
        <ele>1314.16</ele>
        <time>2020-07-21T09:34:23.000Z</time>
      </trkpt>
      <trkpt lat="42.953247" lon="-5.7327597">
        <ele>1314.16</ele>
        <time>2020-07-21T09:34:24.000Z</time>
      </trkpt>
      <trkpt lat="42.9532587" lon="-5.7327572">
        <ele>1314.31</ele>
        <time>2020-07-21T09:34:25.000Z</time>
      </trkpt>
      <trkpt lat="42.9532708" lon="-5.7327552">
        <ele>1314.31</ele>
        <time>2020-07-21T09:34:26.000Z</time>
      </trkpt>
      <trkpt lat="42.9532838" lon="-5.732753">
        <ele>1314.47</ele>
        <time>2020-07-21T09:34:27.000Z</time>
      </trkpt>
      <trkpt lat="42.9532938" lon="-5.732752">
        <ele>1314.47</ele>
        <time>2020-07-21T09:34:28.000Z</time>
      </trkpt>
      <trkpt lat="42.9533035" lon="-5.7327517">
        <ele>1314.77</ele>
        <time>2020-07-21T09:34:29.000Z</time>
      </trkpt>
      <trkpt lat="42.9533138" lon="-5.7327513">
        <ele>1314.77</ele>
        <time>2020-07-21T09:34:30.000Z</time>
      </trkpt>
      <trkpt lat="42.9533247" lon="-5.7327503">
        <ele>1314.92</ele>
        <time>2020-07-21T09:34:31.000Z</time>
      </trkpt>
      <trkpt lat="42.9533342" lon="-5.7327492">
        <ele>1314.92</ele>
        <time>2020-07-21T09:34:32.000Z</time>
      </trkpt>
      <trkpt lat="42.9533433" lon="-5.7327475">
        <ele>1315.08</ele>
        <time>2020-07-21T09:34:33.000Z</time>
      </trkpt>
      <trkpt lat="42.9533543" lon="-5.7327455">
        <ele>1315.08</ele>
        <time>2020-07-21T09:34:34.000Z</time>
      </trkpt>
      <trkpt lat="42.9533663" lon="-5.7327435">
        <ele>1315.23</ele>
        <time>2020-07-21T09:34:35.000Z</time>
      </trkpt>
      <trkpt lat="42.953379" lon="-5.7327415">
        <ele>1315.23</ele>
        <time>2020-07-21T09:34:36.000Z</time>
      </trkpt>
      <trkpt lat="42.953391" lon="-5.7327393">
        <ele>1315.38</ele>
        <time>2020-07-21T09:34:37.000Z</time>
      </trkpt>
      <trkpt lat="42.953403" lon="-5.7327367">
        <ele>1315.38</ele>
        <time>2020-07-21T09:34:38.000Z</time>
      </trkpt>
      <trkpt lat="42.9534153" lon="-5.7327343">
        <ele>1315.53</ele>
        <time>2020-07-21T09:34:39.000Z</time>
      </trkpt>
      <trkpt lat="42.9534273" lon="-5.7327333">
        <ele>1315.53</ele>
        <time>2020-07-21T09:34:40.000Z</time>
      </trkpt>
      <trkpt lat="42.953439" lon="-5.7327338">
        <ele>1315.69</ele>
        <time>2020-07-21T09:34:41.000Z</time>
      </trkpt>
      <trkpt lat="42.95345" lon="-5.7327355">
        <ele>1315.69</ele>
        <time>2020-07-21T09:34:42.000Z</time>
      </trkpt>
      <trkpt lat="42.9534613" lon="-5.7327353">
        <ele>1315.84</ele>
        <time>2020-07-21T09:34:43.000Z</time>
      </trkpt>
      <trkpt lat="42.953473" lon="-5.7327342">
        <ele>1315.84</ele>
        <time>2020-07-21T09:34:44.000Z</time>
      </trkpt>
      <trkpt lat="42.9534848" lon="-5.732732">
        <ele>1315.99</ele>
        <time>2020-07-21T09:34:45.000Z</time>
      </trkpt>
      <trkpt lat="42.9534965" lon="-5.7327308">
        <ele>1315.99</ele>
        <time>2020-07-21T09:34:46.000Z</time>
      </trkpt>
      <trkpt lat="42.9535087" lon="-5.7327297">
        <ele>1316.14</ele>
        <time>2020-07-21T09:34:47.000Z</time>
      </trkpt>
      <trkpt lat="42.9535207" lon="-5.7327292">
        <ele>1316.14</ele>
        <time>2020-07-21T09:34:48.000Z</time>
      </trkpt>
      <trkpt lat="42.953532" lon="-5.7327272">
        <ele>1316.3</ele>
        <time>2020-07-21T09:34:49.000Z</time>
      </trkpt>
      <trkpt lat="42.9535405" lon="-5.7327265">
        <ele>1316.3</ele>
        <time>2020-07-21T09:34:50.000Z</time>
      </trkpt>
      <trkpt lat="42.953545" lon="-5.732726">
        <ele>1316.45</ele>
        <time>2020-07-21T09:34:51.000Z</time>
      </trkpt>
      <trkpt lat="42.9535473" lon="-5.732727">
        <ele>1316.45</ele>
        <time>2020-07-21T09:34:52.000Z</time>
      </trkpt>
      <trkpt lat="42.9535487" lon="-5.7327268">
        <ele>1316.75</ele>
        <time>2020-07-21T09:34:53.000Z</time>
      </trkpt>
      <trkpt lat="42.9535505" lon="-5.7327263">
        <ele>1316.75</ele>
        <time>2020-07-21T09:34:54.000Z</time>
      </trkpt>
      <trkpt lat="42.953552" lon="-5.7327258">
        <ele>1316.9</ele>
        <time>2020-07-21T09:34:55.000Z</time>
      </trkpt>
      <trkpt lat="42.9535532" lon="-5.7327253">
        <ele>1316.9</ele>
        <time>2020-07-21T09:34:56.000Z</time>
      </trkpt>
      <trkpt lat="42.953555" lon="-5.7327252">
        <ele>1317.06</ele>
        <time>2020-07-21T09:34:57.000Z</time>
      </trkpt>
      <trkpt lat="42.9535573" lon="-5.7327248">
        <ele>1317.06</ele>
        <time>2020-07-21T09:34:58.000Z</time>
      </trkpt>
      <trkpt lat="42.953562" lon="-5.7327248">
        <ele>1317.21</ele>
        <time>2020-07-21T09:34:59.000Z</time>
      </trkpt>
      <trkpt lat="42.9535695" lon="-5.7327237">
        <ele>1317.21</ele>
        <time>2020-07-21T09:35:00.000Z</time>
      </trkpt>
      <trkpt lat="42.9535782" lon="-5.7327243">
        <ele>1317.36</ele>
        <time>2020-07-21T09:35:01.000Z</time>
      </trkpt>
      <trkpt lat="42.9535873" lon="-5.7327232">
        <ele>1317.36</ele>
        <time>2020-07-21T09:35:02.000Z</time>
      </trkpt>
      <trkpt lat="42.953596" lon="-5.7327225">
        <ele>1317.67</ele>
        <time>2020-07-21T09:35:03.000Z</time>
      </trkpt>
      <trkpt lat="42.9536055" lon="-5.7327207">
        <ele>1317.67</ele>
        <time>2020-07-21T09:35:04.000Z</time>
      </trkpt>
      <trkpt lat="42.9536155" lon="-5.7327197">
        <ele>1317.82</ele>
        <time>2020-07-21T09:35:05.000Z</time>
      </trkpt>
      <trkpt lat="42.9536258" lon="-5.7327195">
        <ele>1317.82</ele>
        <time>2020-07-21T09:35:06.000Z</time>
      </trkpt>
      <trkpt lat="42.953637" lon="-5.7327192">
        <ele>1317.97</ele>
        <time>2020-07-21T09:35:07.000Z</time>
      </trkpt>
      <trkpt lat="42.9536483" lon="-5.7327205">
        <ele>1317.97</ele>
        <time>2020-07-21T09:35:08.000Z</time>
      </trkpt>
      <trkpt lat="42.9536607" lon="-5.7327212">
        <ele>1318.12</ele>
        <time>2020-07-21T09:35:09.000Z</time>
      </trkpt>
      <trkpt lat="42.953673" lon="-5.7327225">
        <ele>1318.12</ele>
        <time>2020-07-21T09:35:10.000Z</time>
      </trkpt>
      <trkpt lat="42.9536852" lon="-5.732721">
        <ele>1318.43</ele>
        <time>2020-07-21T09:35:11.000Z</time>
      </trkpt>
      <trkpt lat="42.9536973" lon="-5.7327198">
        <ele>1318.43</ele>
        <time>2020-07-21T09:35:12.000Z</time>
      </trkpt>
      <trkpt lat="42.9537115" lon="-5.7327158">
        <ele>1318.58</ele>
        <time>2020-07-21T09:35:13.000Z</time>
      </trkpt>
      <trkpt lat="42.953726" lon="-5.7327128">
        <ele>1318.58</ele>
        <time>2020-07-21T09:35:14.000Z</time>
      </trkpt>
      <trkpt lat="42.9537402" lon="-5.7327088">
        <ele>1318.73</ele>
        <time>2020-07-21T09:35:15.000Z</time>
      </trkpt>
      <trkpt lat="42.9537528" lon="-5.7327067">
        <ele>1318.73</ele>
        <time>2020-07-21T09:35:16.000Z</time>
      </trkpt>
      <trkpt lat="42.9537652" lon="-5.7327047">
        <ele>1318.89</ele>
        <time>2020-07-21T09:35:17.000Z</time>
      </trkpt>
      <trkpt lat="42.9537775" lon="-5.7327027">
        <ele>1318.89</ele>
        <time>2020-07-21T09:35:18.000Z</time>
      </trkpt>
      <trkpt lat="42.9537903" lon="-5.7326995">
        <ele>1319.19</ele>
        <time>2020-07-21T09:35:19.000Z</time>
      </trkpt>
      <trkpt lat="42.9538027" lon="-5.7326952">
        <ele>1319.19</ele>
        <time>2020-07-21T09:35:20.000Z</time>
      </trkpt>
      <trkpt lat="42.9538157" lon="-5.7326903">
        <ele>1319.34</ele>
        <time>2020-07-21T09:35:21.000Z</time>
      </trkpt>
      <trkpt lat="42.9538283" lon="-5.7326852">
        <ele>1319.34</ele>
        <time>2020-07-21T09:35:22.000Z</time>
      </trkpt>
      <trkpt lat="42.9538413" lon="-5.7326798">
        <ele>1319.65</ele>
        <time>2020-07-21T09:35:23.000Z</time>
      </trkpt>
      <trkpt lat="42.9538535" lon="-5.732674">
        <ele>1319.65</ele>
        <time>2020-07-21T09:35:24.000Z</time>
      </trkpt>
      <trkpt lat="42.9538652" lon="-5.7326672">
        <ele>1319.8</ele>
        <time>2020-07-21T09:35:25.000Z</time>
      </trkpt>
      <trkpt lat="42.9538767" lon="-5.7326608">
        <ele>1319.8</ele>
        <time>2020-07-21T09:35:26.000Z</time>
      </trkpt>
      <trkpt lat="42.9538878" lon="-5.7326542">
        <ele>1319.95</ele>
        <time>2020-07-21T09:35:27.000Z</time>
      </trkpt>
      <trkpt lat="42.9538997" lon="-5.7326477">
        <ele>1319.95</ele>
        <time>2020-07-21T09:35:28.000Z</time>
      </trkpt>
      <trkpt lat="42.9539115" lon="-5.732641">
        <ele>1320.26</ele>
        <time>2020-07-21T09:35:29.000Z</time>
      </trkpt>
      <trkpt lat="42.9539243" lon="-5.7326348">
        <ele>1320.26</ele>
        <time>2020-07-21T09:35:30.000Z</time>
      </trkpt>
      <trkpt lat="42.9539365" lon="-5.7326288">
        <ele>1320.41</ele>
        <time>2020-07-21T09:35:31.000Z</time>
      </trkpt>
      <trkpt lat="42.9539483" lon="-5.7326228">
        <ele>1320.41</ele>
        <time>2020-07-21T09:35:32.000Z</time>
      </trkpt>
      <trkpt lat="42.953959" lon="-5.7326145">
        <ele>1320.71</ele>
        <time>2020-07-21T09:35:33.000Z</time>
      </trkpt>
      <trkpt lat="42.9539697" lon="-5.7326058">
        <ele>1320.71</ele>
        <time>2020-07-21T09:35:34.000Z</time>
      </trkpt>
      <trkpt lat="42.9539805" lon="-5.7325968">
        <ele>1320.87</ele>
        <time>2020-07-21T09:35:35.000Z</time>
      </trkpt>
      <trkpt lat="42.9539917" lon="-5.7325888">
        <ele>1320.87</ele>
        <time>2020-07-21T09:35:36.000Z</time>
      </trkpt>
      <trkpt lat="42.9540032" lon="-5.732582">
        <ele>1321.17</ele>
        <time>2020-07-21T09:35:37.000Z</time>
      </trkpt>
      <trkpt lat="42.9540148" lon="-5.7325753">
        <ele>1321.17</ele>
        <time>2020-07-21T09:35:38.000Z</time>
      </trkpt>
      <trkpt lat="42.9540268" lon="-5.7325703">
        <ele>1321.48</ele>
        <time>2020-07-21T09:35:39.000Z</time>
      </trkpt>
      <trkpt lat="42.9540388" lon="-5.7325652">
        <ele>1321.48</ele>
        <time>2020-07-21T09:35:40.000Z</time>
      </trkpt>
      <trkpt lat="42.9540515" lon="-5.7325602">
        <ele>1321.63</ele>
        <time>2020-07-21T09:35:41.000Z</time>
      </trkpt>
      <trkpt lat="42.9540645" lon="-5.7325547">
        <ele>1321.63</ele>
        <time>2020-07-21T09:35:42.000Z</time>
      </trkpt>
      <trkpt lat="42.954078" lon="-5.7325497">
        <ele>1321.93</ele>
        <time>2020-07-21T09:35:43.000Z</time>
      </trkpt>
      <trkpt lat="42.9540912" lon="-5.7325463">
        <ele>1321.93</ele>
        <time>2020-07-21T09:35:44.000Z</time>
      </trkpt>
      <trkpt lat="42.9541037" lon="-5.7325447">
        <ele>1322.24</ele>
        <time>2020-07-21T09:35:45.000Z</time>
      </trkpt>
      <trkpt lat="42.9541162" lon="-5.7325435">
        <ele>1322.24</ele>
        <time>2020-07-21T09:35:46.000Z</time>
      </trkpt>
      <trkpt lat="42.954129" lon="-5.732541">
        <ele>1322.39</ele>
        <time>2020-07-21T09:35:47.000Z</time>
      </trkpt>
      <trkpt lat="42.954142" lon="-5.7325377">
        <ele>1322.39</ele>
        <time>2020-07-21T09:35:48.000Z</time>
      </trkpt>
      <trkpt lat="42.954154" lon="-5.732535">
        <ele>1322.7</ele>
        <time>2020-07-21T09:35:49.000Z</time>
      </trkpt>
      <trkpt lat="42.9541662" lon="-5.7325337">
        <ele>1322.7</ele>
        <time>2020-07-21T09:35:50.000Z</time>
      </trkpt>
      <trkpt lat="42.9541772" lon="-5.7325333">
        <ele>1323</ele>
        <time>2020-07-21T09:35:51.000Z</time>
      </trkpt>
      <trkpt lat="42.9541872" lon="-5.7325322">
        <ele>1323</ele>
        <time>2020-07-21T09:35:52.000Z</time>
      </trkpt>
      <trkpt lat="42.9541955" lon="-5.7325303">
        <ele>1323.15</ele>
        <time>2020-07-21T09:35:53.000Z</time>
      </trkpt>
      <trkpt lat="42.9541998" lon="-5.7325293">
        <ele>1323.15</ele>
        <time>2020-07-21T09:35:54.000Z</time>
      </trkpt>
      <trkpt lat="42.954201" lon="-5.7325293">
        <ele>1323.46</ele>
        <time>2020-07-21T09:35:55.000Z</time>
      </trkpt>
      <trkpt lat="42.9541993" lon="-5.73253">
        <ele>1323.46</ele>
        <time>2020-07-21T09:35:56.000Z</time>
      </trkpt>
      <trkpt lat="42.9541988" lon="-5.7325297">
        <ele>1323.76</ele>
        <time>2020-07-21T09:35:57.000Z</time>
      </trkpt>
      <trkpt lat="42.954196" lon="-5.732527">
        <ele>1323.76</ele>
        <time>2020-07-21T09:35:58.000Z</time>
      </trkpt>
      <trkpt lat="42.9541923" lon="-5.7325243">
        <ele>1323.92</ele>
        <time>2020-07-21T09:35:59.000Z</time>
      </trkpt>
      <trkpt lat="42.9541877" lon="-5.7325207">
        <ele>1323.92</ele>
        <time>2020-07-21T09:36:00.000Z</time>
      </trkpt>
      <trkpt lat="42.954186" lon="-5.7325192">
        <ele>1324.22</ele>
        <time>2020-07-21T09:36:01.000Z</time>
      </trkpt>
      <trkpt lat="42.9541882" lon="-5.7325205">
        <ele>1324.22</ele>
        <time>2020-07-21T09:36:02.000Z</time>
      </trkpt>
      <trkpt lat="42.9541918" lon="-5.7325252">
        <ele>1324.52</ele>
        <time>2020-07-21T09:36:03.000Z</time>
      </trkpt>
      <trkpt lat="42.954197" lon="-5.732531">
        <ele>1324.52</ele>
        <time>2020-07-21T09:36:04.000Z</time>
      </trkpt>
      <trkpt lat="42.9542048" lon="-5.7325358">
        <ele>1324.68</ele>
        <time>2020-07-21T09:36:05.000Z</time>
      </trkpt>
      <trkpt lat="42.9542158" lon="-5.73254">
        <ele>1324.68</ele>
        <time>2020-07-21T09:36:06.000Z</time>
      </trkpt>
      <trkpt lat="42.9542282" lon="-5.7325432">
        <ele>1324.98</ele>
        <time>2020-07-21T09:36:07.000Z</time>
      </trkpt>
      <trkpt lat="42.954239" lon="-5.7325443">
        <ele>1324.98</ele>
        <time>2020-07-21T09:36:08.000Z</time>
      </trkpt>
      <trkpt lat="42.954249" lon="-5.7325442">
        <ele>1325.13</ele>
        <time>2020-07-21T09:36:09.000Z</time>
      </trkpt>
      <trkpt lat="42.954259" lon="-5.7325447">
        <ele>1325.13</ele>
        <time>2020-07-21T09:36:10.000Z</time>
      </trkpt>
      <trkpt lat="42.9542688" lon="-5.7325465">
        <ele>1325.44</ele>
        <time>2020-07-21T09:36:11.000Z</time>
      </trkpt>
      <trkpt lat="42.9542788" lon="-5.7325497">
        <ele>1325.44</ele>
        <time>2020-07-21T09:36:12.000Z</time>
      </trkpt>
      <trkpt lat="42.9542893" lon="-5.7325548">
        <ele>1325.74</ele>
        <time>2020-07-21T09:36:13.000Z</time>
      </trkpt>
      <trkpt lat="42.9542985" lon="-5.7325613">
        <ele>1325.74</ele>
        <time>2020-07-21T09:36:14.000Z</time>
      </trkpt>
      <trkpt lat="42.9543078" lon="-5.7325692">
        <ele>1325.9</ele>
        <time>2020-07-21T09:36:15.000Z</time>
      </trkpt>
      <trkpt lat="42.9543168" lon="-5.7325775">
        <ele>1325.9</ele>
        <time>2020-07-21T09:36:16.000Z</time>
      </trkpt>
      <trkpt lat="42.9543273" lon="-5.732587">
        <ele>1326.2</ele>
        <time>2020-07-21T09:36:17.000Z</time>
      </trkpt>
      <trkpt lat="42.954338" lon="-5.7325978">
        <ele>1326.2</ele>
        <time>2020-07-21T09:36:18.000Z</time>
      </trkpt>
      <trkpt lat="42.9543487" lon="-5.7326088">
        <ele>1326.35</ele>
        <time>2020-07-21T09:36:19.000Z</time>
      </trkpt>
      <trkpt lat="42.9543583" lon="-5.73262">
        <ele>1326.35</ele>
        <time>2020-07-21T09:36:20.000Z</time>
      </trkpt>
      <trkpt lat="42.9543685" lon="-5.7326298">
        <ele>1326.66</ele>
        <time>2020-07-21T09:36:21.000Z</time>
      </trkpt>
      <trkpt lat="42.9543792" lon="-5.7326405">
        <ele>1326.66</ele>
        <time>2020-07-21T09:36:22.000Z</time>
      </trkpt>
      <trkpt lat="42.9543912" lon="-5.7326513">
        <ele>1326.96</ele>
        <time>2020-07-21T09:36:23.000Z</time>
      </trkpt>
      <trkpt lat="42.9544038" lon="-5.7326625">
        <ele>1326.96</ele>
        <time>2020-07-21T09:36:24.000Z</time>
      </trkpt>
      <trkpt lat="42.954417" lon="-5.732672">
        <ele>1327.11</ele>
        <time>2020-07-21T09:36:25.000Z</time>
      </trkpt>
      <trkpt lat="42.9544288" lon="-5.7326812">
        <ele>1327.11</ele>
        <time>2020-07-21T09:36:26.000Z</time>
      </trkpt>
      <trkpt lat="42.9544395" lon="-5.732691">
        <ele>1327.42</ele>
        <time>2020-07-21T09:36:27.000Z</time>
      </trkpt>
      <trkpt lat="42.9544498" lon="-5.732702">
        <ele>1327.42</ele>
        <time>2020-07-21T09:36:28.000Z</time>
      </trkpt>
      <trkpt lat="42.9544607" lon="-5.7327135">
        <ele>1327.72</ele>
        <time>2020-07-21T09:36:29.000Z</time>
      </trkpt>
      <trkpt lat="42.9544723" lon="-5.7327248">
        <ele>1327.72</ele>
        <time>2020-07-21T09:36:30.000Z</time>
      </trkpt>
      <trkpt lat="42.9544835" lon="-5.7327363">
        <ele>1327.88</ele>
        <time>2020-07-21T09:36:31.000Z</time>
      </trkpt>
      <trkpt lat="42.954495" lon="-5.732747">
        <ele>1327.88</ele>
        <time>2020-07-21T09:36:32.000Z</time>
      </trkpt>
      <trkpt lat="42.9545048" lon="-5.732758">
        <ele>1328.18</ele>
        <time>2020-07-21T09:36:33.000Z</time>
      </trkpt>
      <trkpt lat="42.9545152" lon="-5.732768">
        <ele>1328.18</ele>
        <time>2020-07-21T09:36:34.000Z</time>
      </trkpt>
      <trkpt lat="42.9545262" lon="-5.7327783">
        <ele>1328.49</ele>
        <time>2020-07-21T09:36:35.000Z</time>
      </trkpt>
      <trkpt lat="42.9545382" lon="-5.7327885">
        <ele>1328.49</ele>
        <time>2020-07-21T09:36:36.000Z</time>
      </trkpt>
      <trkpt lat="42.9545497" lon="-5.7327992">
        <ele>1328.64</ele>
        <time>2020-07-21T09:36:37.000Z</time>
      </trkpt>
      <trkpt lat="42.9545602" lon="-5.73281">
        <ele>1328.64</ele>
        <time>2020-07-21T09:36:38.000Z</time>
      </trkpt>
      <trkpt lat="42.9545695" lon="-5.7328212">
        <ele>1328.94</ele>
        <time>2020-07-21T09:36:39.000Z</time>
      </trkpt>
      <trkpt lat="42.9545792" lon="-5.7328323">
        <ele>1328.94</ele>
        <time>2020-07-21T09:36:40.000Z</time>
      </trkpt>
      <trkpt lat="42.9545895" lon="-5.7328435">
        <ele>1329.1</ele>
        <time>2020-07-21T09:36:41.000Z</time>
      </trkpt>
      <trkpt lat="42.9545993" lon="-5.732854">
        <ele>1329.1</ele>
        <time>2020-07-21T09:36:42.000Z</time>
      </trkpt>
      <trkpt lat="42.9546108" lon="-5.7328642">
        <ele>1329.4</ele>
        <time>2020-07-21T09:36:43.000Z</time>
      </trkpt>
      <trkpt lat="42.9546223" lon="-5.7328735">
        <ele>1329.4</ele>
        <time>2020-07-21T09:36:44.000Z</time>
      </trkpt>
      <trkpt lat="42.9546347" lon="-5.732883">
        <ele>1329.55</ele>
        <time>2020-07-21T09:36:45.000Z</time>
      </trkpt>
      <trkpt lat="42.9546453" lon="-5.7328917">
        <ele>1329.55</ele>
        <time>2020-07-21T09:36:46.000Z</time>
      </trkpt>
      <trkpt lat="42.9546553" lon="-5.7329002">
        <ele>1329.86</ele>
        <time>2020-07-21T09:36:47.000Z</time>
      </trkpt>
      <trkpt lat="42.954666" lon="-5.7329087">
        <ele>1329.86</ele>
        <time>2020-07-21T09:36:48.000Z</time>
      </trkpt>
      <trkpt lat="42.9546777" lon="-5.7329168">
        <ele>1330.01</ele>
        <time>2020-07-21T09:36:49.000Z</time>
      </trkpt>
      <trkpt lat="42.9546912" lon="-5.7329242">
        <ele>1330.01</ele>
        <time>2020-07-21T09:36:50.000Z</time>
      </trkpt>
      <trkpt lat="42.9547045" lon="-5.7329315">
        <ele>1330.32</ele>
        <time>2020-07-21T09:36:51.000Z</time>
      </trkpt>
      <trkpt lat="42.9547183" lon="-5.7329378">
        <ele>1330.32</ele>
        <time>2020-07-21T09:36:52.000Z</time>
      </trkpt>
      <trkpt lat="42.9547307" lon="-5.7329447">
        <ele>1330.47</ele>
        <time>2020-07-21T09:36:53.000Z</time>
      </trkpt>
      <trkpt lat="42.9547425" lon="-5.7329505">
        <ele>1330.47</ele>
        <time>2020-07-21T09:36:54.000Z</time>
      </trkpt>
      <trkpt lat="42.9547533" lon="-5.7329565">
        <ele>1330.62</ele>
        <time>2020-07-21T09:36:55.000Z</time>
      </trkpt>
      <trkpt lat="42.9547638" lon="-5.7329627">
        <ele>1330.62</ele>
        <time>2020-07-21T09:36:56.000Z</time>
      </trkpt>
      <trkpt lat="42.9547745" lon="-5.7329693">
        <ele>1330.77</ele>
        <time>2020-07-21T09:36:57.000Z</time>
      </trkpt>
      <trkpt lat="42.9547855" lon="-5.7329752">
        <ele>1330.77</ele>
        <time>2020-07-21T09:36:58.000Z</time>
      </trkpt>
      <trkpt lat="42.9547982" lon="-5.7329798">
        <ele>1330.93</ele>
        <time>2020-07-21T09:36:59.000Z</time>
      </trkpt>
      <trkpt lat="42.954811" lon="-5.7329843">
        <ele>1330.93</ele>
        <time>2020-07-21T09:37:00.000Z</time>
      </trkpt>
      <trkpt lat="42.9548228" lon="-5.7329895">
        <ele>1331.08</ele>
        <time>2020-07-21T09:37:01.000Z</time>
      </trkpt>
      <trkpt lat="42.954833" lon="-5.7329955">
        <ele>1331.08</ele>
        <time>2020-07-21T09:37:02.000Z</time>
      </trkpt>
      <trkpt lat="42.9548422" lon="-5.7330015">
        <ele>1331.23</ele>
        <time>2020-07-21T09:37:03.000Z</time>
      </trkpt>
      <trkpt lat="42.9548508" lon="-5.7330075">
        <ele>1331.23</ele>
        <time>2020-07-21T09:37:04.000Z</time>
      </trkpt>
      <trkpt lat="42.95486" lon="-5.7330135">
        <ele>1331.38</ele>
        <time>2020-07-21T09:37:05.000Z</time>
      </trkpt>
      <trkpt lat="42.95487" lon="-5.7330192">
        <ele>1331.38</ele>
        <time>2020-07-21T09:37:06.000Z</time>
      </trkpt>
      <trkpt lat="42.9548807" lon="-5.7330253">
        <ele>1331.54</ele>
        <time>2020-07-21T09:37:07.000Z</time>
      </trkpt>
      <trkpt lat="42.9548908" lon="-5.7330315">
        <ele>1331.54</ele>
        <time>2020-07-21T09:37:08.000Z</time>
      </trkpt>
      <trkpt lat="42.9549013" lon="-5.7330378">
        <ele>1331.54</ele>
        <time>2020-07-21T09:37:09.000Z</time>
      </trkpt>
      <trkpt lat="42.9549112" lon="-5.7330442">
        <ele>1331.54</ele>
        <time>2020-07-21T09:37:10.000Z</time>
      </trkpt>
      <trkpt lat="42.9549202" lon="-5.7330503">
        <ele>1331.69</ele>
        <time>2020-07-21T09:37:11.000Z</time>
      </trkpt>
      <trkpt lat="42.9549283" lon="-5.7330563">
        <ele>1331.69</ele>
        <time>2020-07-21T09:37:12.000Z</time>
      </trkpt>
      <trkpt lat="42.9549363" lon="-5.7330622">
        <ele>1331.69</ele>
        <time>2020-07-21T09:37:13.000Z</time>
      </trkpt>
      <trkpt lat="42.9549447" lon="-5.7330685">
        <ele>1331.69</ele>
        <time>2020-07-21T09:37:14.000Z</time>
      </trkpt>
      <trkpt lat="42.9549537" lon="-5.733075">
        <ele>1331.84</ele>
        <time>2020-07-21T09:37:15.000Z</time>
      </trkpt>
      <trkpt lat="42.9549627" lon="-5.733081">
        <ele>1331.84</ele>
        <time>2020-07-21T09:37:16.000Z</time>
      </trkpt>
      <trkpt lat="42.954972" lon="-5.7330867">
        <ele>1331.84</ele>
        <time>2020-07-21T09:37:17.000Z</time>
      </trkpt>
      <trkpt lat="42.9549813" lon="-5.7330922">
        <ele>1331.84</ele>
        <time>2020-07-21T09:37:18.000Z</time>
      </trkpt>
      <trkpt lat="42.9549918" lon="-5.7330982">
        <ele>1331.99</ele>
        <time>2020-07-21T09:37:19.000Z</time>
      </trkpt>
      <trkpt lat="42.9550033" lon="-5.7331045">
        <ele>1331.99</ele>
        <time>2020-07-21T09:37:20.000Z</time>
      </trkpt>
      <trkpt lat="42.9550147" lon="-5.7331112">
        <ele>1331.99</ele>
        <time>2020-07-21T09:37:21.000Z</time>
      </trkpt>
      <trkpt lat="42.9550258" lon="-5.7331178">
        <ele>1331.99</ele>
        <time>2020-07-21T09:37:22.000Z</time>
      </trkpt>
      <trkpt lat="42.9550363" lon="-5.733124">
        <ele>1332.15</ele>
        <time>2020-07-21T09:37:23.000Z</time>
      </trkpt>
      <trkpt lat="42.9550475" lon="-5.7331303">
        <ele>1332.15</ele>
        <time>2020-07-21T09:37:24.000Z</time>
      </trkpt>
      <trkpt lat="42.9550578" lon="-5.7331362">
        <ele>1332.15</ele>
        <time>2020-07-21T09:37:25.000Z</time>
      </trkpt>
      <trkpt lat="42.9550672" lon="-5.733142">
        <ele>1332.15</ele>
        <time>2020-07-21T09:37:26.000Z</time>
      </trkpt>
      <trkpt lat="42.9550765" lon="-5.7331482">
        <ele>1332.15</ele>
        <time>2020-07-21T09:37:27.000Z</time>
      </trkpt>
      <trkpt lat="42.9550863" lon="-5.7331543">
        <ele>1332.15</ele>
        <time>2020-07-21T09:37:28.000Z</time>
      </trkpt>
      <trkpt lat="42.9550973" lon="-5.7331608">
        <ele>1332.3</ele>
        <time>2020-07-21T09:37:29.000Z</time>
      </trkpt>
      <trkpt lat="42.9551095" lon="-5.733167">
        <ele>1332.3</ele>
        <time>2020-07-21T09:37:30.000Z</time>
      </trkpt>
      <trkpt lat="42.9551228" lon="-5.7331737">
        <ele>1332.3</ele>
        <time>2020-07-21T09:37:31.000Z</time>
      </trkpt>
      <trkpt lat="42.9551367" lon="-5.7331805">
        <ele>1332.3</ele>
        <time>2020-07-21T09:37:32.000Z</time>
      </trkpt>
      <trkpt lat="42.9551502" lon="-5.7331872">
        <ele>1332.3</ele>
        <time>2020-07-21T09:37:33.000Z</time>
      </trkpt>
      <trkpt lat="42.955164" lon="-5.7331925">
        <ele>1332.3</ele>
        <time>2020-07-21T09:37:34.000Z</time>
      </trkpt>
      <trkpt lat="42.9551767" lon="-5.7331992">
        <ele>1332.3</ele>
        <time>2020-07-21T09:37:35.000Z</time>
      </trkpt>
      <trkpt lat="42.9551893" lon="-5.7332072">
        <ele>1332.3</ele>
        <time>2020-07-21T09:37:36.000Z</time>
      </trkpt>
      <trkpt lat="42.9552032" lon="-5.7332165">
        <ele>1332.3</ele>
        <time>2020-07-21T09:37:37.000Z</time>
      </trkpt>
      <trkpt lat="42.9552192" lon="-5.7332235">
        <ele>1332.3</ele>
        <time>2020-07-21T09:37:38.000Z</time>
      </trkpt>
      <trkpt lat="42.9552342" lon="-5.7332297">
        <ele>1332.45</ele>
        <time>2020-07-21T09:37:39.000Z</time>
      </trkpt>
      <trkpt lat="42.9552477" lon="-5.7332358">
        <ele>1332.45</ele>
        <time>2020-07-21T09:37:40.000Z</time>
      </trkpt>
      <trkpt lat="42.9552603" lon="-5.7332428">
        <ele>1332.45</ele>
        <time>2020-07-21T09:37:41.000Z</time>
      </trkpt>
      <trkpt lat="42.9552745" lon="-5.7332487">
        <ele>1332.45</ele>
        <time>2020-07-21T09:37:42.000Z</time>
      </trkpt>
      <trkpt lat="42.9552883" lon="-5.7332542">
        <ele>1332.6</ele>
        <time>2020-07-21T09:37:43.000Z</time>
      </trkpt>
      <trkpt lat="42.955302" lon="-5.7332595">
        <ele>1332.6</ele>
        <time>2020-07-21T09:37:44.000Z</time>
      </trkpt>
      <trkpt lat="42.9553142" lon="-5.733266">
        <ele>1332.6</ele>
        <time>2020-07-21T09:37:45.000Z</time>
      </trkpt>
      <trkpt lat="42.9553255" lon="-5.7332725">
        <ele>1332.6</ele>
        <time>2020-07-21T09:37:46.000Z</time>
      </trkpt>
      <trkpt lat="42.955335" lon="-5.7332795">
        <ele>1332.75</ele>
        <time>2020-07-21T09:37:47.000Z</time>
      </trkpt>
      <trkpt lat="42.9553483" lon="-5.733285">
        <ele>1332.75</ele>
        <time>2020-07-21T09:37:48.000Z</time>
      </trkpt>
      <trkpt lat="42.9553623" lon="-5.7332902">
        <ele>1332.75</ele>
        <time>2020-07-21T09:37:49.000Z</time>
      </trkpt>
      <trkpt lat="42.9553783" lon="-5.733295">
        <ele>1332.75</ele>
        <time>2020-07-21T09:37:50.000Z</time>
      </trkpt>
      <trkpt lat="42.9553932" lon="-5.7332998">
        <ele>1332.91</ele>
        <time>2020-07-21T09:37:51.000Z</time>
      </trkpt>
      <trkpt lat="42.9554067" lon="-5.7333058">
        <ele>1332.91</ele>
        <time>2020-07-21T09:37:52.000Z</time>
      </trkpt>
      <trkpt lat="42.9554188" lon="-5.7333118">
        <ele>1332.91</ele>
        <time>2020-07-21T09:37:53.000Z</time>
      </trkpt>
      <trkpt lat="42.9554288" lon="-5.7333188">
        <ele>1332.91</ele>
        <time>2020-07-21T09:37:54.000Z</time>
      </trkpt>
      <trkpt lat="42.9554408" lon="-5.733325">
        <ele>1333.06</ele>
        <time>2020-07-21T09:37:55.000Z</time>
      </trkpt>
      <trkpt lat="42.9554533" lon="-5.733332">
        <ele>1333.06</ele>
        <time>2020-07-21T09:37:56.000Z</time>
      </trkpt>
      <trkpt lat="42.9554678" lon="-5.733339">
        <ele>1333.06</ele>
        <time>2020-07-21T09:37:57.000Z</time>
      </trkpt>
      <trkpt lat="42.9554808" lon="-5.7333472">
        <ele>1333.06</ele>
        <time>2020-07-21T09:37:58.000Z</time>
      </trkpt>
      <trkpt lat="42.955493" lon="-5.7333555">
        <ele>1333.21</ele>
        <time>2020-07-21T09:37:59.000Z</time>
      </trkpt>
      <trkpt lat="42.9555032" lon="-5.7333635">
        <ele>1333.21</ele>
        <time>2020-07-21T09:38:00.000Z</time>
      </trkpt>
      <trkpt lat="42.9555142" lon="-5.7333698">
        <ele>1333.36</ele>
        <time>2020-07-21T09:38:01.000Z</time>
      </trkpt>
      <trkpt lat="42.955526" lon="-5.7333758">
        <ele>1333.36</ele>
        <time>2020-07-21T09:38:02.000Z</time>
      </trkpt>
      <trkpt lat="42.9555388" lon="-5.7333817">
        <ele>1333.36</ele>
        <time>2020-07-21T09:38:03.000Z</time>
      </trkpt>
      <trkpt lat="42.9555512" lon="-5.7333882">
        <ele>1333.36</ele>
        <time>2020-07-21T09:38:04.000Z</time>
      </trkpt>
      <trkpt lat="42.955563" lon="-5.7333942">
        <ele>1333.52</ele>
        <time>2020-07-21T09:38:05.000Z</time>
      </trkpt>
      <trkpt lat="42.9555737" lon="-5.7334013">
        <ele>1333.52</ele>
        <time>2020-07-21T09:38:06.000Z</time>
      </trkpt>
      <trkpt lat="42.9555847" lon="-5.7334083">
        <ele>1333.67</ele>
        <time>2020-07-21T09:38:07.000Z</time>
      </trkpt>
      <trkpt lat="42.9555962" lon="-5.7334153">
        <ele>1333.67</ele>
        <time>2020-07-21T09:38:08.000Z</time>
      </trkpt>
      <trkpt lat="42.9556077" lon="-5.7334225">
        <ele>1333.67</ele>
        <time>2020-07-21T09:38:09.000Z</time>
      </trkpt>
      <trkpt lat="42.9556183" lon="-5.73343">
        <ele>1333.67</ele>
        <time>2020-07-21T09:38:10.000Z</time>
      </trkpt>
      <trkpt lat="42.9556288" lon="-5.7334367">
        <ele>1333.82</ele>
        <time>2020-07-21T09:38:11.000Z</time>
      </trkpt>
      <trkpt lat="42.95564" lon="-5.7334423">
        <ele>1333.82</ele>
        <time>2020-07-21T09:38:12.000Z</time>
      </trkpt>
      <trkpt lat="42.9556513" lon="-5.7334477">
        <ele>1333.97</ele>
        <time>2020-07-21T09:38:13.000Z</time>
      </trkpt>
      <trkpt lat="42.9556622" lon="-5.7334532">
        <ele>1333.97</ele>
        <time>2020-07-21T09:38:14.000Z</time>
      </trkpt>
      <trkpt lat="42.9556727" lon="-5.733459">
        <ele>1334.13</ele>
        <time>2020-07-21T09:38:15.000Z</time>
      </trkpt>
      <trkpt lat="42.9556818" lon="-5.7334647">
        <ele>1334.13</ele>
        <time>2020-07-21T09:38:16.000Z</time>
      </trkpt>
      <trkpt lat="42.9556908" lon="-5.7334708">
        <ele>1334.28</ele>
        <time>2020-07-21T09:38:17.000Z</time>
      </trkpt>
      <trkpt lat="42.9556993" lon="-5.7334777">
        <ele>1334.28</ele>
        <time>2020-07-21T09:38:18.000Z</time>
      </trkpt>
      <trkpt lat="42.9557087" lon="-5.7334843">
        <ele>1334.28</ele>
        <time>2020-07-21T09:38:19.000Z</time>
      </trkpt>
      <trkpt lat="42.9557177" lon="-5.7334902">
        <ele>1334.28</ele>
        <time>2020-07-21T09:38:20.000Z</time>
      </trkpt>
      <trkpt lat="42.955728" lon="-5.7334942">
        <ele>1334.43</ele>
        <time>2020-07-21T09:38:21.000Z</time>
      </trkpt>
      <trkpt lat="42.9557377" lon="-5.7334983">
        <ele>1334.43</ele>
        <time>2020-07-21T09:38:22.000Z</time>
      </trkpt>
      <trkpt lat="42.955747" lon="-5.7335012">
        <ele>1334.58</ele>
        <time>2020-07-21T09:38:23.000Z</time>
      </trkpt>
      <trkpt lat="42.9557523" lon="-5.7335028">
        <ele>1334.58</ele>
        <time>2020-07-21T09:38:24.000Z</time>
      </trkpt>
      <trkpt lat="42.9557558" lon="-5.733503">
        <ele>1334.73</ele>
        <time>2020-07-21T09:38:25.000Z</time>
      </trkpt>
      <trkpt lat="42.9557573" lon="-5.733503">
        <ele>1334.73</ele>
        <time>2020-07-21T09:38:26.000Z</time>
      </trkpt>
      <trkpt lat="42.9557588" lon="-5.7335032">
        <ele>1334.89</ele>
        <time>2020-07-21T09:38:27.000Z</time>
      </trkpt>
      <trkpt lat="42.9557588" lon="-5.7335032">
        <ele>1334.89</ele>
        <time>2020-07-21T09:38:28.000Z</time>
      </trkpt>
      <trkpt lat="42.9557613" lon="-5.7335027">
        <ele>1335.19</ele>
        <time>2020-07-21T09:38:29.000Z</time>
      </trkpt>
      <trkpt lat="42.9557623" lon="-5.7335028">
        <ele>1335.19</ele>
        <time>2020-07-21T09:38:30.000Z</time>
      </trkpt>
      <trkpt lat="42.9557628" lon="-5.733504">
        <ele>1335.34</ele>
        <time>2020-07-21T09:38:31.000Z</time>
      </trkpt>
      <trkpt lat="42.9557652" lon="-5.7335067">
        <ele>1335.34</ele>
        <time>2020-07-21T09:38:32.000Z</time>
      </trkpt>
      <trkpt lat="42.9557695" lon="-5.7335118">
        <ele>1335.5</ele>
        <time>2020-07-21T09:38:33.000Z</time>
      </trkpt>
      <trkpt lat="42.9557768" lon="-5.7335173">
        <ele>1335.5</ele>
        <time>2020-07-21T09:38:34.000Z</time>
      </trkpt>
      <trkpt lat="42.9557852" lon="-5.733523">
        <ele>1335.8</ele>
        <time>2020-07-21T09:38:35.000Z</time>
      </trkpt>
      <trkpt lat="42.9557938" lon="-5.7335278">
        <ele>1335.8</ele>
        <time>2020-07-21T09:38:36.000Z</time>
      </trkpt>
      <trkpt lat="42.955802" lon="-5.733533">
        <ele>1335.95</ele>
        <time>2020-07-21T09:38:37.000Z</time>
      </trkpt>
      <trkpt lat="42.9558093" lon="-5.7335387">
        <ele>1335.95</ele>
        <time>2020-07-21T09:38:38.000Z</time>
      </trkpt>
      <trkpt lat="42.9558165" lon="-5.7335448">
        <ele>1336.11</ele>
        <time>2020-07-21T09:38:39.000Z</time>
      </trkpt>
      <trkpt lat="42.9558225" lon="-5.7335517">
        <ele>1336.11</ele>
        <time>2020-07-21T09:38:40.000Z</time>
      </trkpt>
      <trkpt lat="42.9558275" lon="-5.733557">
        <ele>1336.41</ele>
        <time>2020-07-21T09:38:41.000Z</time>
      </trkpt>
      <trkpt lat="42.955831" lon="-5.73356">
        <ele>1336.41</ele>
        <time>2020-07-21T09:38:42.000Z</time>
      </trkpt>
      <trkpt lat="42.9558337" lon="-5.7335613">
        <ele>1336.56</ele>
        <time>2020-07-21T09:38:43.000Z</time>
      </trkpt>
      <trkpt lat="42.9558365" lon="-5.7335632">
        <ele>1336.56</ele>
        <time>2020-07-21T09:38:44.000Z</time>
      </trkpt>
      <trkpt lat="42.9558415" lon="-5.7335655">
        <ele>1336.72</ele>
        <time>2020-07-21T09:38:45.000Z</time>
      </trkpt>
      <trkpt lat="42.9558493" lon="-5.7335688">
        <ele>1336.72</ele>
        <time>2020-07-21T09:38:46.000Z</time>
      </trkpt>
      <trkpt lat="42.9558592" lon="-5.7335725">
        <ele>1337.02</ele>
        <time>2020-07-21T09:38:47.000Z</time>
      </trkpt>
      <trkpt lat="42.9558692" lon="-5.7335777">
        <ele>1337.02</ele>
        <time>2020-07-21T09:38:48.000Z</time>
      </trkpt>
      <trkpt lat="42.9558792" lon="-5.733584">
        <ele>1337.17</ele>
        <time>2020-07-21T09:38:49.000Z</time>
      </trkpt>
      <trkpt lat="42.9558887" lon="-5.7335915">
        <ele>1337.17</ele>
        <time>2020-07-21T09:38:50.000Z</time>
      </trkpt>
      <trkpt lat="42.9558987" lon="-5.733599">
        <ele>1337.48</ele>
        <time>2020-07-21T09:38:51.000Z</time>
      </trkpt>
      <trkpt lat="42.9559088" lon="-5.733606">
        <ele>1337.48</ele>
        <time>2020-07-21T09:38:52.000Z</time>
      </trkpt>
      <trkpt lat="42.9559187" lon="-5.7336127">
        <ele>1337.78</ele>
        <time>2020-07-21T09:38:53.000Z</time>
      </trkpt>
      <trkpt lat="42.9559278" lon="-5.733619">
        <ele>1337.78</ele>
        <time>2020-07-21T09:38:54.000Z</time>
      </trkpt>
      <trkpt lat="42.9559367" lon="-5.7336258">
        <ele>1337.94</ele>
        <time>2020-07-21T09:38:55.000Z</time>
      </trkpt>
      <trkpt lat="42.9559465" lon="-5.7336335">
        <ele>1337.94</ele>
        <time>2020-07-21T09:38:56.000Z</time>
      </trkpt>
      <trkpt lat="42.9559572" lon="-5.7336412">
        <ele>1338.24</ele>
        <time>2020-07-21T09:38:57.000Z</time>
      </trkpt>
      <trkpt lat="42.955969" lon="-5.7336487">
        <ele>1338.24</ele>
        <time>2020-07-21T09:38:58.000Z</time>
      </trkpt>
      <trkpt lat="42.955981" lon="-5.7336555">
        <ele>1338.55</ele>
        <time>2020-07-21T09:38:59.000Z</time>
      </trkpt>
      <trkpt lat="42.9559933" lon="-5.7336635">
        <ele>1338.55</ele>
        <time>2020-07-21T09:39:00.000Z</time>
      </trkpt>
      <trkpt lat="42.9560047" lon="-5.7336703">
        <ele>1338.7</ele>
        <time>2020-07-21T09:39:01.000Z</time>
      </trkpt>
      <trkpt lat="42.9560155" lon="-5.7336765">
        <ele>1338.7</ele>
        <time>2020-07-21T09:39:02.000Z</time>
      </trkpt>
      <trkpt lat="42.9560258" lon="-5.733681">
        <ele>1339</ele>
        <time>2020-07-21T09:39:03.000Z</time>
      </trkpt>
      <trkpt lat="42.9560368" lon="-5.7336858">
        <ele>1339</ele>
        <time>2020-07-21T09:39:04.000Z</time>
      </trkpt>
      <trkpt lat="42.956047" lon="-5.7336907">
        <ele>1339.31</ele>
        <time>2020-07-21T09:39:05.000Z</time>
      </trkpt>
      <trkpt lat="42.9560568" lon="-5.7336958">
        <ele>1339.31</ele>
        <time>2020-07-21T09:39:06.000Z</time>
      </trkpt>
      <trkpt lat="42.9560657" lon="-5.733701">
        <ele>1339.46</ele>
        <time>2020-07-21T09:39:07.000Z</time>
      </trkpt>
      <trkpt lat="42.9560752" lon="-5.7337058">
        <ele>1339.46</ele>
        <time>2020-07-21T09:39:08.000Z</time>
      </trkpt>
      <trkpt lat="42.9560842" lon="-5.7337103">
        <ele>1339.77</ele>
        <time>2020-07-21T09:39:09.000Z</time>
      </trkpt>
      <trkpt lat="42.9560933" lon="-5.733714">
        <ele>1339.77</ele>
        <time>2020-07-21T09:39:10.000Z</time>
      </trkpt>
      <trkpt lat="42.9561023" lon="-5.7337177">
        <ele>1339.92</ele>
        <time>2020-07-21T09:39:11.000Z</time>
      </trkpt>
      <trkpt lat="42.9561108" lon="-5.7337215">
        <ele>1339.92</ele>
        <time>2020-07-21T09:39:12.000Z</time>
      </trkpt>
      <trkpt lat="42.9561182" lon="-5.7337243">
        <ele>1340.22</ele>
        <time>2020-07-21T09:39:13.000Z</time>
      </trkpt>
      <trkpt lat="42.9561218" lon="-5.733727">
        <ele>1340.22</ele>
        <time>2020-07-21T09:39:14.000Z</time>
      </trkpt>
      <trkpt lat="42.9561235" lon="-5.733728">
        <ele>1340.53</ele>
        <time>2020-07-21T09:39:15.000Z</time>
      </trkpt>
      <trkpt lat="42.956123" lon="-5.7337295">
        <ele>1340.53</ele>
        <time>2020-07-21T09:39:16.000Z</time>
      </trkpt>
      <trkpt lat="42.9561227" lon="-5.7337298">
        <ele>1340.68</ele>
        <time>2020-07-21T09:39:17.000Z</time>
      </trkpt>
      <trkpt lat="42.9561223" lon="-5.7337302">
        <ele>1340.68</ele>
        <time>2020-07-21T09:39:18.000Z</time>
      </trkpt>
      <trkpt lat="42.956122" lon="-5.7337303">
        <ele>1340.98</ele>
        <time>2020-07-21T09:39:19.000Z</time>
      </trkpt>
      <trkpt lat="42.9561222" lon="-5.7337302">
        <ele>1340.98</ele>
        <time>2020-07-21T09:39:20.000Z</time>
      </trkpt>
      <trkpt lat="42.956123" lon="-5.7337297">
        <ele>1341.14</ele>
        <time>2020-07-21T09:39:21.000Z</time>
      </trkpt>
      <trkpt lat="42.9561245" lon="-5.7337285">
        <ele>1341.14</ele>
        <time>2020-07-21T09:39:22.000Z</time>
      </trkpt>
      <trkpt lat="42.9561253" lon="-5.7337282">
        <ele>1341.29</ele>
        <time>2020-07-21T09:39:23.000Z</time>
      </trkpt>
      <trkpt lat="42.9561267" lon="-5.733728">
        <ele>1341.29</ele>
        <time>2020-07-21T09:39:24.000Z</time>
      </trkpt>
      <trkpt lat="42.9561283" lon="-5.7337295">
        <ele>1341.59</ele>
        <time>2020-07-21T09:39:25.000Z</time>
      </trkpt>
      <trkpt lat="42.956132" lon="-5.7337335">
        <ele>1341.59</ele>
        <time>2020-07-21T09:39:26.000Z</time>
      </trkpt>
      <trkpt lat="42.9561373" lon="-5.7337422">
        <ele>1341.75</ele>
        <time>2020-07-21T09:39:27.000Z</time>
      </trkpt>
      <trkpt lat="42.9561415" lon="-5.7337542">
        <ele>1341.75</ele>
        <time>2020-07-21T09:39:28.000Z</time>
      </trkpt>
      <trkpt lat="42.9561433" lon="-5.7337662">
        <ele>1341.9</ele>
        <time>2020-07-21T09:39:29.000Z</time>
      </trkpt>
      <trkpt lat="42.9561432" lon="-5.733777">
        <ele>1341.9</ele>
        <time>2020-07-21T09:39:30.000Z</time>
      </trkpt>
      <trkpt lat="42.9561437" lon="-5.7337885">
        <ele>1342.2</ele>
        <time>2020-07-21T09:39:31.000Z</time>
      </trkpt>
      <trkpt lat="42.9561448" lon="-5.7337998">
        <ele>1342.2</ele>
        <time>2020-07-21T09:39:32.000Z</time>
      </trkpt>
      <trkpt lat="42.9561472" lon="-5.7338107">
        <ele>1342.35</ele>
        <time>2020-07-21T09:39:33.000Z</time>
      </trkpt>
      <trkpt lat="42.9561505" lon="-5.7338187">
        <ele>1342.35</ele>
        <time>2020-07-21T09:39:34.000Z</time>
      </trkpt>
      <trkpt lat="42.9561558" lon="-5.7338252">
        <ele>1342.66</ele>
        <time>2020-07-21T09:39:35.000Z</time>
      </trkpt>
      <trkpt lat="42.9561622" lon="-5.7338295">
        <ele>1342.66</ele>
        <time>2020-07-21T09:39:36.000Z</time>
      </trkpt>
      <trkpt lat="42.9561677" lon="-5.7338335">
        <ele>1342.81</ele>
        <time>2020-07-21T09:39:37.000Z</time>
      </trkpt>
      <trkpt lat="42.956172" lon="-5.7338375">
        <ele>1342.81</ele>
        <time>2020-07-21T09:39:38.000Z</time>
      </trkpt>
      <trkpt lat="42.956175" lon="-5.7338413">
        <ele>1343.12</ele>
        <time>2020-07-21T09:39:39.000Z</time>
      </trkpt>
      <trkpt lat="42.9561782" lon="-5.7338447">
        <ele>1343.12</ele>
        <time>2020-07-21T09:39:40.000Z</time>
      </trkpt>
      <trkpt lat="42.9561798" lon="-5.733847">
        <ele>1343.27</ele>
        <time>2020-07-21T09:39:41.000Z</time>
      </trkpt>
      <trkpt lat="42.9561808" lon="-5.7338487">
        <ele>1343.27</ele>
        <time>2020-07-21T09:39:42.000Z</time>
      </trkpt>
      <trkpt lat="42.956181" lon="-5.7338492">
        <ele>1343.42</ele>
        <time>2020-07-21T09:39:43.000Z</time>
      </trkpt>
      <trkpt lat="42.9561808" lon="-5.7338488">
        <ele>1343.42</ele>
        <time>2020-07-21T09:39:44.000Z</time>
      </trkpt>
      <trkpt lat="42.9561795" lon="-5.733849">
        <ele>1343.73</ele>
        <time>2020-07-21T09:39:45.000Z</time>
      </trkpt>
      <trkpt lat="42.9561782" lon="-5.7338498">
        <ele>1343.73</ele>
        <time>2020-07-21T09:39:46.000Z</time>
      </trkpt>
      <trkpt lat="42.956178" lon="-5.7338503">
        <ele>1343.88</ele>
        <time>2020-07-21T09:39:47.000Z</time>
      </trkpt>
      <trkpt lat="42.9561785" lon="-5.73385">
        <ele>1343.88</ele>
        <time>2020-07-21T09:39:48.000Z</time>
      </trkpt>
      <trkpt lat="42.9561793" lon="-5.7338485">
        <ele>1344.18</ele>
        <time>2020-07-21T09:39:49.000Z</time>
      </trkpt>
      <trkpt lat="42.9561797" lon="-5.7338477">
        <ele>1344.18</ele>
        <time>2020-07-21T09:39:50.000Z</time>
      </trkpt>
      <trkpt lat="42.9561803" lon="-5.7338475">
        <ele>1344.49</ele>
        <time>2020-07-21T09:39:51.000Z</time>
      </trkpt>
      <trkpt lat="42.9561805" lon="-5.7338492">
        <ele>1344.49</ele>
        <time>2020-07-21T09:39:52.000Z</time>
      </trkpt>
      <trkpt lat="42.9561812" lon="-5.7338525">
        <ele>1344.64</ele>
        <time>2020-07-21T09:39:53.000Z</time>
      </trkpt>
      <trkpt lat="42.9561827" lon="-5.7338575">
        <ele>1344.64</ele>
        <time>2020-07-21T09:39:54.000Z</time>
      </trkpt>
      <trkpt lat="42.9561843" lon="-5.7338625">
        <ele>1344.95</ele>
        <time>2020-07-21T09:39:55.000Z</time>
      </trkpt>
      <trkpt lat="42.9561872" lon="-5.7338688">
        <ele>1344.95</ele>
        <time>2020-07-21T09:39:56.000Z</time>
      </trkpt>
      <trkpt lat="42.9561882" lon="-5.733873">
        <ele>1345.1</ele>
        <time>2020-07-21T09:39:57.000Z</time>
      </trkpt>
      <trkpt lat="42.9561897" lon="-5.7338782">
        <ele>1345.1</ele>
        <time>2020-07-21T09:39:58.000Z</time>
      </trkpt>
      <trkpt lat="42.9561902" lon="-5.7338833">
        <ele>1345.4</ele>
        <time>2020-07-21T09:39:59.000Z</time>
      </trkpt>
      <trkpt lat="42.9561905" lon="-5.733891">
        <ele>1345.4</ele>
        <time>2020-07-21T09:40:00.000Z</time>
      </trkpt>
      <trkpt lat="42.9561905" lon="-5.7338983">
        <ele>1345.71</ele>
        <time>2020-07-21T09:40:01.000Z</time>
      </trkpt>
      <trkpt lat="42.9561903" lon="-5.7339038">
        <ele>1345.71</ele>
        <time>2020-07-21T09:40:02.000Z</time>
      </trkpt>
      <trkpt lat="42.9561912" lon="-5.7339073">
        <ele>1346.01</ele>
        <time>2020-07-21T09:40:03.000Z</time>
      </trkpt>
      <trkpt lat="42.956192" lon="-5.7339087">
        <ele>1346.01</ele>
        <time>2020-07-21T09:40:04.000Z</time>
      </trkpt>
      <trkpt lat="42.9561927" lon="-5.7339088">
        <ele>1346.32</ele>
        <time>2020-07-21T09:40:05.000Z</time>
      </trkpt>
      <trkpt lat="42.9561927" lon="-5.7339095">
        <ele>1346.32</ele>
        <time>2020-07-21T09:40:06.000Z</time>
      </trkpt>
      <trkpt lat="42.9561925" lon="-5.7339103">
        <ele>1346.62</ele>
        <time>2020-07-21T09:40:07.000Z</time>
      </trkpt>
      <trkpt lat="42.9561917" lon="-5.7339117">
        <ele>1346.62</ele>
        <time>2020-07-21T09:40:08.000Z</time>
      </trkpt>
      <trkpt lat="42.9561907" lon="-5.7339132">
        <ele>1346.78</ele>
        <time>2020-07-21T09:40:09.000Z</time>
      </trkpt>
      <trkpt lat="42.9561905" lon="-5.733916">
        <ele>1346.78</ele>
        <time>2020-07-21T09:40:10.000Z</time>
      </trkpt>
      <trkpt lat="42.9561917" lon="-5.7339205">
        <ele>1347.23</ele>
        <time>2020-07-21T09:40:11.000Z</time>
      </trkpt>
      <trkpt lat="42.9561948" lon="-5.7339263">
        <ele>1347.23</ele>
        <time>2020-07-21T09:40:12.000Z</time>
      </trkpt>
      <trkpt lat="42.9561987" lon="-5.7339327">
        <ele>1347.54</ele>
        <time>2020-07-21T09:40:13.000Z</time>
      </trkpt>
      <trkpt lat="42.9562033" lon="-5.7339385">
        <ele>1347.54</ele>
        <time>2020-07-21T09:40:14.000Z</time>
      </trkpt>
      <trkpt lat="42.956208" lon="-5.7339435">
        <ele>1347.84</ele>
        <time>2020-07-21T09:40:15.000Z</time>
      </trkpt>
      <trkpt lat="42.9562123" lon="-5.7339478">
        <ele>1347.84</ele>
        <time>2020-07-21T09:40:16.000Z</time>
      </trkpt>
      <trkpt lat="42.9562148" lon="-5.7339513">
        <ele>1348.15</ele>
        <time>2020-07-21T09:40:17.000Z</time>
      </trkpt>
      <trkpt lat="42.9562158" lon="-5.7339557">
        <ele>1348.15</ele>
        <time>2020-07-21T09:40:18.000Z</time>
      </trkpt>
      <trkpt lat="42.9562148" lon="-5.73396">
        <ele>1348.45</ele>
        <time>2020-07-21T09:40:19.000Z</time>
      </trkpt>
      <trkpt lat="42.9562125" lon="-5.7339663">
        <ele>1348.45</ele>
        <time>2020-07-21T09:40:20.000Z</time>
      </trkpt>
      <trkpt lat="42.9562102" lon="-5.7339725">
        <ele>1348.76</ele>
        <time>2020-07-21T09:40:21.000Z</time>
      </trkpt>
      <trkpt lat="42.9562095" lon="-5.7339797">
        <ele>1348.76</ele>
        <time>2020-07-21T09:40:22.000Z</time>
      </trkpt>
      <trkpt lat="42.9562098" lon="-5.733987">
        <ele>1349.06</ele>
        <time>2020-07-21T09:40:23.000Z</time>
      </trkpt>
      <trkpt lat="42.9562095" lon="-5.7339973">
        <ele>1349.06</ele>
        <time>2020-07-21T09:40:24.000Z</time>
      </trkpt>
      <trkpt lat="42.956208" lon="-5.7340088">
        <ele>1349.37</ele>
        <time>2020-07-21T09:40:25.000Z</time>
      </trkpt>
      <trkpt lat="42.9562067" lon="-5.7340212">
        <ele>1349.37</ele>
        <time>2020-07-21T09:40:26.000Z</time>
      </trkpt>
      <trkpt lat="42.9562098" lon="-5.734029">
        <ele>1349.67</ele>
        <time>2020-07-21T09:40:27.000Z</time>
      </trkpt>
      <trkpt lat="42.9562168" lon="-5.734032">
        <ele>1349.67</ele>
        <time>2020-07-21T09:40:28.000Z</time>
      </trkpt>
      <trkpt lat="42.9562242" lon="-5.734032">
        <ele>1349.98</ele>
        <time>2020-07-21T09:40:29.000Z</time>
      </trkpt>
      <trkpt lat="42.9562298" lon="-5.7340343">
        <ele>1349.98</ele>
        <time>2020-07-21T09:40:30.000Z</time>
      </trkpt>
      <trkpt lat="42.9562347" lon="-5.7340405">
        <ele>1350.28</ele>
        <time>2020-07-21T09:40:31.000Z</time>
      </trkpt>
      <trkpt lat="42.9562408" lon="-5.7340477">
        <ele>1350.28</ele>
        <time>2020-07-21T09:40:32.000Z</time>
      </trkpt>
      <trkpt lat="42.956247" lon="-5.7340548">
        <ele>1350.58</ele>
        <time>2020-07-21T09:40:33.000Z</time>
      </trkpt>
      <trkpt lat="42.9562543" lon="-5.7340598">
        <ele>1350.58</ele>
        <time>2020-07-21T09:40:34.000Z</time>
      </trkpt>
      <trkpt lat="42.9562623" lon="-5.7340653">
        <ele>1350.89</ele>
        <time>2020-07-21T09:40:35.000Z</time>
      </trkpt>
      <trkpt lat="42.9562707" lon="-5.7340707">
        <ele>1350.89</ele>
        <time>2020-07-21T09:40:36.000Z</time>
      </trkpt>
      <trkpt lat="42.9562778" lon="-5.734078">
        <ele>1351.19</ele>
        <time>2020-07-21T09:40:37.000Z</time>
      </trkpt>
      <trkpt lat="42.9562853" lon="-5.7340857">
        <ele>1351.19</ele>
        <time>2020-07-21T09:40:38.000Z</time>
      </trkpt>
      <trkpt lat="42.956293" lon="-5.7340943">
        <ele>1351.5</ele>
        <time>2020-07-21T09:40:39.000Z</time>
      </trkpt>
      <trkpt lat="42.9563008" lon="-5.7341025">
        <ele>1351.5</ele>
        <time>2020-07-21T09:40:40.000Z</time>
      </trkpt>
      <trkpt lat="42.956309" lon="-5.7341105">
        <ele>1351.8</ele>
        <time>2020-07-21T09:40:41.000Z</time>
      </trkpt>
      <trkpt lat="42.9563175" lon="-5.7341182">
        <ele>1351.8</ele>
        <time>2020-07-21T09:40:42.000Z</time>
      </trkpt>
      <trkpt lat="42.956326" lon="-5.7341257">
        <ele>1352.11</ele>
        <time>2020-07-21T09:40:43.000Z</time>
      </trkpt>
      <trkpt lat="42.9563347" lon="-5.7341333">
        <ele>1352.11</ele>
        <time>2020-07-21T09:40:44.000Z</time>
      </trkpt>
      <trkpt lat="42.956343" lon="-5.7341407">
        <ele>1352.41</ele>
        <time>2020-07-21T09:40:45.000Z</time>
      </trkpt>
      <trkpt lat="42.956352" lon="-5.734148">
        <ele>1352.41</ele>
        <time>2020-07-21T09:40:46.000Z</time>
      </trkpt>
      <trkpt lat="42.956361" lon="-5.7341552">
        <ele>1352.72</ele>
        <time>2020-07-21T09:40:47.000Z</time>
      </trkpt>
      <trkpt lat="42.9563703" lon="-5.7341623">
        <ele>1352.72</ele>
        <time>2020-07-21T09:40:48.000Z</time>
      </trkpt>
      <trkpt lat="42.9563795" lon="-5.7341693">
        <ele>1353.02</ele>
        <time>2020-07-21T09:40:49.000Z</time>
      </trkpt>
      <trkpt lat="42.9563888" lon="-5.7341763">
        <ele>1353.02</ele>
        <time>2020-07-21T09:40:50.000Z</time>
      </trkpt>
      <trkpt lat="42.9563988" lon="-5.734183">
        <ele>1353.33</ele>
        <time>2020-07-21T09:40:51.000Z</time>
      </trkpt>
      <trkpt lat="42.9564093" lon="-5.7341898">
        <ele>1353.33</ele>
        <time>2020-07-21T09:40:52.000Z</time>
      </trkpt>
      <trkpt lat="42.9564202" lon="-5.7341967">
        <ele>1353.63</ele>
        <time>2020-07-21T09:40:53.000Z</time>
      </trkpt>
      <trkpt lat="42.9564305" lon="-5.734203">
        <ele>1353.63</ele>
        <time>2020-07-21T09:40:54.000Z</time>
      </trkpt>
      <trkpt lat="42.9564412" lon="-5.7342088">
        <ele>1353.94</ele>
        <time>2020-07-21T09:40:55.000Z</time>
      </trkpt>
      <trkpt lat="42.956452" lon="-5.7342137">
        <ele>1353.94</ele>
        <time>2020-07-21T09:40:56.000Z</time>
      </trkpt>
      <trkpt lat="42.956463" lon="-5.7342177">
        <ele>1354.24</ele>
        <time>2020-07-21T09:40:57.000Z</time>
      </trkpt>
      <trkpt lat="42.9564737" lon="-5.7342223">
        <ele>1354.24</ele>
        <time>2020-07-21T09:40:58.000Z</time>
      </trkpt>
      <trkpt lat="42.9564842" lon="-5.7342277">
        <ele>1354.55</ele>
        <time>2020-07-21T09:40:59.000Z</time>
      </trkpt>
      <trkpt lat="42.9564942" lon="-5.7342338">
        <ele>1354.55</ele>
        <time>2020-07-21T09:41:00.000Z</time>
      </trkpt>
      <trkpt lat="42.956504" lon="-5.7342398">
        <ele>1354.85</ele>
        <time>2020-07-21T09:41:01.000Z</time>
      </trkpt>
      <trkpt lat="42.956514" lon="-5.7342458">
        <ele>1354.85</ele>
        <time>2020-07-21T09:41:02.000Z</time>
      </trkpt>
      <trkpt lat="42.9565238" lon="-5.734252">
        <ele>1355.31</ele>
        <time>2020-07-21T09:41:03.000Z</time>
      </trkpt>
      <trkpt lat="42.9565335" lon="-5.7342573">
        <ele>1355.31</ele>
        <time>2020-07-21T09:41:04.000Z</time>
      </trkpt>
      <trkpt lat="42.9565425" lon="-5.7342615">
        <ele>1355.61</ele>
        <time>2020-07-21T09:41:05.000Z</time>
      </trkpt>
      <trkpt lat="42.9565513" lon="-5.7342643">
        <ele>1355.61</ele>
        <time>2020-07-21T09:41:06.000Z</time>
      </trkpt>
      <trkpt lat="42.9565608" lon="-5.7342668">
        <ele>1355.92</ele>
        <time>2020-07-21T09:41:07.000Z</time>
      </trkpt>
      <trkpt lat="42.95657" lon="-5.7342695">
        <ele>1355.92</ele>
        <time>2020-07-21T09:41:08.000Z</time>
      </trkpt>
      <trkpt lat="42.9565788" lon="-5.7342728">
        <ele>1356.38</ele>
        <time>2020-07-21T09:41:09.000Z</time>
      </trkpt>
      <trkpt lat="42.9565872" lon="-5.734276">
        <ele>1356.38</ele>
        <time>2020-07-21T09:41:10.000Z</time>
      </trkpt>
      <trkpt lat="42.956596" lon="-5.7342783">
        <ele>1356.68</ele>
        <time>2020-07-21T09:41:11.000Z</time>
      </trkpt>
      <trkpt lat="42.9566057" lon="-5.7342808">
        <ele>1356.68</ele>
        <time>2020-07-21T09:41:12.000Z</time>
      </trkpt>
      <trkpt lat="42.9566155" lon="-5.7342847">
        <ele>1357.14</ele>
        <time>2020-07-21T09:41:13.000Z</time>
      </trkpt>
      <trkpt lat="42.9566258" lon="-5.7342905">
        <ele>1357.14</ele>
        <time>2020-07-21T09:41:14.000Z</time>
      </trkpt>
      <trkpt lat="42.956636" lon="-5.734297">
        <ele>1357.44</ele>
        <time>2020-07-21T09:41:15.000Z</time>
      </trkpt>
      <trkpt lat="42.9566453" lon="-5.7343027">
        <ele>1357.44</ele>
        <time>2020-07-21T09:41:16.000Z</time>
      </trkpt>
      <trkpt lat="42.9566535" lon="-5.7343072">
        <ele>1357.9</ele>
        <time>2020-07-21T09:41:17.000Z</time>
      </trkpt>
      <trkpt lat="42.956661" lon="-5.734311">
        <ele>1357.9</ele>
        <time>2020-07-21T09:41:18.000Z</time>
      </trkpt>
      <trkpt lat="42.9566688" lon="-5.7343152">
        <ele>1358.2</ele>
        <time>2020-07-21T09:41:19.000Z</time>
      </trkpt>
      <trkpt lat="42.9566762" lon="-5.7343193">
        <ele>1358.2</ele>
        <time>2020-07-21T09:41:20.000Z</time>
      </trkpt>
      <trkpt lat="42.956684" lon="-5.734325">
        <ele>1358.66</ele>
        <time>2020-07-21T09:41:21.000Z</time>
      </trkpt>
      <trkpt lat="42.9566925" lon="-5.7343322">
        <ele>1358.66</ele>
        <time>2020-07-21T09:41:22.000Z</time>
      </trkpt>
      <trkpt lat="42.9567007" lon="-5.7343397">
        <ele>1359.12</ele>
        <time>2020-07-21T09:41:23.000Z</time>
      </trkpt>
      <trkpt lat="42.9567087" lon="-5.7343462">
        <ele>1359.12</ele>
        <time>2020-07-21T09:41:24.000Z</time>
      </trkpt>
      <trkpt lat="42.9567155" lon="-5.7343513">
        <ele>1359.58</ele>
        <time>2020-07-21T09:41:25.000Z</time>
      </trkpt>
      <trkpt lat="42.956723" lon="-5.7343565">
        <ele>1359.58</ele>
        <time>2020-07-21T09:41:26.000Z</time>
      </trkpt>
      <trkpt lat="42.9567298" lon="-5.7343607">
        <ele>1360.03</ele>
        <time>2020-07-21T09:41:27.000Z</time>
      </trkpt>
      <trkpt lat="42.9567368" lon="-5.734365">
        <ele>1360.03</ele>
        <time>2020-07-21T09:41:28.000Z</time>
      </trkpt>
      <trkpt lat="42.9567447" lon="-5.73437">
        <ele>1360.49</ele>
        <time>2020-07-21T09:41:29.000Z</time>
      </trkpt>
      <trkpt lat="42.9567533" lon="-5.7343762">
        <ele>1360.49</ele>
        <time>2020-07-21T09:41:30.000Z</time>
      </trkpt>
      <trkpt lat="42.9567622" lon="-5.7343832">
        <ele>1360.95</ele>
        <time>2020-07-21T09:41:31.000Z</time>
      </trkpt>
      <trkpt lat="42.9567703" lon="-5.7343898">
        <ele>1360.95</ele>
        <time>2020-07-21T09:41:32.000Z</time>
      </trkpt>
      <trkpt lat="42.9567788" lon="-5.7343965">
        <ele>1361.41</ele>
        <time>2020-07-21T09:41:33.000Z</time>
      </trkpt>
      <trkpt lat="42.9567875" lon="-5.7344023">
        <ele>1361.41</ele>
        <time>2020-07-21T09:41:34.000Z</time>
      </trkpt>
      <trkpt lat="42.9567955" lon="-5.7344073">
        <ele>1361.71</ele>
        <time>2020-07-21T09:41:35.000Z</time>
      </trkpt>
      <trkpt lat="42.9568032" lon="-5.7344102">
        <ele>1361.71</ele>
        <time>2020-07-21T09:41:36.000Z</time>
      </trkpt>
      <trkpt lat="42.9568103" lon="-5.734412">
        <ele>1362.17</ele>
        <time>2020-07-21T09:41:37.000Z</time>
      </trkpt>
      <trkpt lat="42.9568175" lon="-5.7344143">
        <ele>1362.17</ele>
        <time>2020-07-21T09:41:38.000Z</time>
      </trkpt>
      <trkpt lat="42.956824" lon="-5.7344182">
        <ele>1362.62</ele>
        <time>2020-07-21T09:41:39.000Z</time>
      </trkpt>
      <trkpt lat="42.9568307" lon="-5.7344227">
        <ele>1362.62</ele>
        <time>2020-07-21T09:41:40.000Z</time>
      </trkpt>
      <trkpt lat="42.956838" lon="-5.734427">
        <ele>1363.08</ele>
        <time>2020-07-21T09:41:41.000Z</time>
      </trkpt>
      <trkpt lat="42.9568455" lon="-5.7344313">
        <ele>1363.08</ele>
        <time>2020-07-21T09:41:42.000Z</time>
      </trkpt>
      <trkpt lat="42.9568537" lon="-5.7344365">
        <ele>1363.39</ele>
        <time>2020-07-21T09:41:43.000Z</time>
      </trkpt>
      <trkpt lat="42.9568612" lon="-5.7344423">
        <ele>1363.39</ele>
        <time>2020-07-21T09:41:44.000Z</time>
      </trkpt>
      <trkpt lat="42.9568692" lon="-5.7344492">
        <ele>1363.84</ele>
        <time>2020-07-21T09:41:45.000Z</time>
      </trkpt>
      <trkpt lat="42.956876" lon="-5.7344567">
        <ele>1363.84</ele>
        <time>2020-07-21T09:41:46.000Z</time>
      </trkpt>
      <trkpt lat="42.9568832" lon="-5.7344645">
        <ele>1364.3</ele>
        <time>2020-07-21T09:41:47.000Z</time>
      </trkpt>
      <trkpt lat="42.9568907" lon="-5.734473">
        <ele>1364.3</ele>
        <time>2020-07-21T09:41:48.000Z</time>
      </trkpt>
      <trkpt lat="42.9568988" lon="-5.7344818">
        <ele>1364.76</ele>
        <time>2020-07-21T09:41:49.000Z</time>
      </trkpt>
      <trkpt lat="42.9569063" lon="-5.7344908">
        <ele>1364.76</ele>
        <time>2020-07-21T09:41:50.000Z</time>
      </trkpt>
      <trkpt lat="42.956913" lon="-5.7344987">
        <ele>1365.22</ele>
        <time>2020-07-21T09:41:51.000Z</time>
      </trkpt>
      <trkpt lat="42.9569188" lon="-5.7345043">
        <ele>1365.22</ele>
        <time>2020-07-21T09:41:52.000Z</time>
      </trkpt>
      <trkpt lat="42.9569252" lon="-5.7345082">
        <ele>1365.67</ele>
        <time>2020-07-21T09:41:53.000Z</time>
      </trkpt>
      <trkpt lat="42.9569318" lon="-5.7345117">
        <ele>1365.67</ele>
        <time>2020-07-21T09:41:54.000Z</time>
      </trkpt>
      <trkpt lat="42.9569393" lon="-5.7345153">
        <ele>1366.13</ele>
        <time>2020-07-21T09:41:55.000Z</time>
      </trkpt>
      <trkpt lat="42.956946" lon="-5.7345197">
        <ele>1366.13</ele>
        <time>2020-07-21T09:41:56.000Z</time>
      </trkpt>
      <trkpt lat="42.9569522" lon="-5.7345238">
        <ele>1366.59</ele>
        <time>2020-07-21T09:41:57.000Z</time>
      </trkpt>
      <trkpt lat="42.9569588" lon="-5.7345287">
        <ele>1366.59</ele>
        <time>2020-07-21T09:41:58.000Z</time>
      </trkpt>
      <trkpt lat="42.9569665" lon="-5.7345332">
        <ele>1367.05</ele>
        <time>2020-07-21T09:41:59.000Z</time>
      </trkpt>
      <trkpt lat="42.9569738" lon="-5.7345375">
        <ele>1367.05</ele>
        <time>2020-07-21T09:42:00.000Z</time>
      </trkpt>
      <trkpt lat="42.9569807" lon="-5.7345408">
        <ele>1367.5</ele>
        <time>2020-07-21T09:42:01.000Z</time>
      </trkpt>
      <trkpt lat="42.9569873" lon="-5.7345438">
        <ele>1367.5</ele>
        <time>2020-07-21T09:42:02.000Z</time>
      </trkpt>
      <trkpt lat="42.9569943" lon="-5.734547">
        <ele>1367.96</ele>
        <time>2020-07-21T09:42:03.000Z</time>
      </trkpt>
      <trkpt lat="42.957001" lon="-5.7345497">
        <ele>1367.96</ele>
        <time>2020-07-21T09:42:04.000Z</time>
      </trkpt>
      <trkpt lat="42.9570075" lon="-5.7345523">
        <ele>1368.42</ele>
        <time>2020-07-21T09:42:05.000Z</time>
      </trkpt>
      <trkpt lat="42.9570137" lon="-5.7345542">
        <ele>1368.42</ele>
        <time>2020-07-21T09:42:06.000Z</time>
      </trkpt>
      <trkpt lat="42.9570207" lon="-5.7345553">
        <ele>1368.87</ele>
        <time>2020-07-21T09:42:07.000Z</time>
      </trkpt>
      <trkpt lat="42.9570272" lon="-5.7345558">
        <ele>1368.87</ele>
        <time>2020-07-21T09:42:08.000Z</time>
      </trkpt>
      <trkpt lat="42.957034" lon="-5.7345563">
        <ele>1369.33</ele>
        <time>2020-07-21T09:42:09.000Z</time>
      </trkpt>
      <trkpt lat="42.9570398" lon="-5.734557">
        <ele>1369.33</ele>
        <time>2020-07-21T09:42:10.000Z</time>
      </trkpt>
      <trkpt lat="42.9570458" lon="-5.7345575">
        <ele>1369.79</ele>
        <time>2020-07-21T09:42:11.000Z</time>
      </trkpt>
      <trkpt lat="42.9570513" lon="-5.7345587">
        <ele>1369.79</ele>
        <time>2020-07-21T09:42:12.000Z</time>
      </trkpt>
      <trkpt lat="42.9570565" lon="-5.7345605">
        <ele>1370.24</ele>
        <time>2020-07-21T09:42:13.000Z</time>
      </trkpt>
      <trkpt lat="42.9570617" lon="-5.7345642">
        <ele>1370.24</ele>
        <time>2020-07-21T09:42:14.000Z</time>
      </trkpt>
      <trkpt lat="42.9570667" lon="-5.7345678">
        <ele>1370.7</ele>
        <time>2020-07-21T09:42:15.000Z</time>
      </trkpt>
      <trkpt lat="42.9570723" lon="-5.7345718">
        <ele>1370.7</ele>
        <time>2020-07-21T09:42:16.000Z</time>
      </trkpt>
      <trkpt lat="42.9570775" lon="-5.734576">
        <ele>1371.16</ele>
        <time>2020-07-21T09:42:17.000Z</time>
      </trkpt>
      <trkpt lat="42.9570833" lon="-5.7345805">
        <ele>1371.16</ele>
        <time>2020-07-21T09:42:18.000Z</time>
      </trkpt>
      <trkpt lat="42.9570897" lon="-5.7345843">
        <ele>1371.62</ele>
        <time>2020-07-21T09:42:19.000Z</time>
      </trkpt>
      <trkpt lat="42.9570958" lon="-5.734588">
        <ele>1371.62</ele>
        <time>2020-07-21T09:42:20.000Z</time>
      </trkpt>
      <trkpt lat="42.9571013" lon="-5.7345922">
        <ele>1372.07</ele>
        <time>2020-07-21T09:42:21.000Z</time>
      </trkpt>
      <trkpt lat="42.9571073" lon="-5.7345958">
        <ele>1372.07</ele>
        <time>2020-07-21T09:42:22.000Z</time>
      </trkpt>
      <trkpt lat="42.957114" lon="-5.734599">
        <ele>1372.53</ele>
        <time>2020-07-21T09:42:23.000Z</time>
      </trkpt>
      <trkpt lat="42.9571215" lon="-5.7346018">
        <ele>1372.53</ele>
        <time>2020-07-21T09:42:24.000Z</time>
      </trkpt>
      <trkpt lat="42.9571295" lon="-5.7346045">
        <ele>1373.14</ele>
        <time>2020-07-21T09:42:25.000Z</time>
      </trkpt>
      <trkpt lat="42.9571373" lon="-5.7346067">
        <ele>1373.14</ele>
        <time>2020-07-21T09:42:26.000Z</time>
      </trkpt>
      <trkpt lat="42.957145" lon="-5.7346087">
        <ele>1373.6</ele>
        <time>2020-07-21T09:42:27.000Z</time>
      </trkpt>
      <trkpt lat="42.9571512" lon="-5.7346123">
        <ele>1373.6</ele>
        <time>2020-07-21T09:42:28.000Z</time>
      </trkpt>
      <trkpt lat="42.9571555" lon="-5.7346175">
        <ele>1374.06</ele>
        <time>2020-07-21T09:42:29.000Z</time>
      </trkpt>
      <trkpt lat="42.9571585" lon="-5.7346242">
        <ele>1374.06</ele>
        <time>2020-07-21T09:42:30.000Z</time>
      </trkpt>
      <trkpt lat="42.9571615" lon="-5.7346313">
        <ele>1374.51</ele>
        <time>2020-07-21T09:42:31.000Z</time>
      </trkpt>
      <trkpt lat="42.9571657" lon="-5.7346388">
        <ele>1374.51</ele>
        <time>2020-07-21T09:42:32.000Z</time>
      </trkpt>
      <trkpt lat="42.9571713" lon="-5.7346455">
        <ele>1374.97</ele>
        <time>2020-07-21T09:42:33.000Z</time>
      </trkpt>
      <trkpt lat="42.957177" lon="-5.7346508">
        <ele>1374.97</ele>
        <time>2020-07-21T09:42:34.000Z</time>
      </trkpt>
      <trkpt lat="42.9571827" lon="-5.7346548">
        <ele>1375.43</ele>
        <time>2020-07-21T09:42:35.000Z</time>
      </trkpt>
      <trkpt lat="42.9571882" lon="-5.7346585">
        <ele>1375.43</ele>
        <time>2020-07-21T09:42:36.000Z</time>
      </trkpt>
      <trkpt lat="42.9571932" lon="-5.734662">
        <ele>1375.88</ele>
        <time>2020-07-21T09:42:37.000Z</time>
      </trkpt>
      <trkpt lat="42.957198" lon="-5.734666">
        <ele>1375.88</ele>
        <time>2020-07-21T09:42:38.000Z</time>
      </trkpt>
      <trkpt lat="42.9572022" lon="-5.7346697">
        <ele>1376.34</ele>
        <time>2020-07-21T09:42:39.000Z</time>
      </trkpt>
      <trkpt lat="42.9572075" lon="-5.7346733">
        <ele>1376.34</ele>
        <time>2020-07-21T09:42:40.000Z</time>
      </trkpt>
      <trkpt lat="42.9572132" lon="-5.7346768">
        <ele>1376.8</ele>
        <time>2020-07-21T09:42:41.000Z</time>
      </trkpt>
      <trkpt lat="42.9572192" lon="-5.7346803">
        <ele>1376.8</ele>
        <time>2020-07-21T09:42:42.000Z</time>
      </trkpt>
      <trkpt lat="42.957224" lon="-5.7346843">
        <ele>1377.26</ele>
        <time>2020-07-21T09:42:43.000Z</time>
      </trkpt>
      <trkpt lat="42.9572287" lon="-5.7346883">
        <ele>1377.26</ele>
        <time>2020-07-21T09:42:44.000Z</time>
      </trkpt>
      <trkpt lat="42.9572332" lon="-5.7346925">
        <ele>1377.71</ele>
        <time>2020-07-21T09:42:45.000Z</time>
      </trkpt>
      <trkpt lat="42.9572372" lon="-5.7346955">
        <ele>1377.71</ele>
        <time>2020-07-21T09:42:46.000Z</time>
      </trkpt>
      <trkpt lat="42.957241" lon="-5.7346977">
        <ele>1378.17</ele>
        <time>2020-07-21T09:42:47.000Z</time>
      </trkpt>
      <trkpt lat="42.9572448" lon="-5.7346992">
        <ele>1378.17</ele>
        <time>2020-07-21T09:42:48.000Z</time>
      </trkpt>
      <trkpt lat="42.9572502" lon="-5.7347002">
        <ele>1378.47</ele>
        <time>2020-07-21T09:42:49.000Z</time>
      </trkpt>
      <trkpt lat="42.9572567" lon="-5.7347013">
        <ele>1378.47</ele>
        <time>2020-07-21T09:42:50.000Z</time>
      </trkpt>
      <trkpt lat="42.9572647" lon="-5.7347018">
        <ele>1378.93</ele>
        <time>2020-07-21T09:42:51.000Z</time>
      </trkpt>
      <trkpt lat="42.9572702" lon="-5.734704">
        <ele>1378.93</ele>
        <time>2020-07-21T09:42:52.000Z</time>
      </trkpt>
      <trkpt lat="42.9572743" lon="-5.7347068">
        <ele>1379.39</ele>
        <time>2020-07-21T09:42:53.000Z</time>
      </trkpt>
      <trkpt lat="42.9572763" lon="-5.7347112">
        <ele>1379.39</ele>
        <time>2020-07-21T09:42:54.000Z</time>
      </trkpt>
      <trkpt lat="42.9572817" lon="-5.7347155">
        <ele>1379.85</ele>
        <time>2020-07-21T09:42:55.000Z</time>
      </trkpt>
      <trkpt lat="42.9572878" lon="-5.73472">
        <ele>1379.85</ele>
        <time>2020-07-21T09:42:56.000Z</time>
      </trkpt>
      <trkpt lat="42.9572953" lon="-5.7347238">
        <ele>1380.3</ele>
        <time>2020-07-21T09:42:57.000Z</time>
      </trkpt>
      <trkpt lat="42.9573018" lon="-5.7347273">
        <ele>1380.3</ele>
        <time>2020-07-21T09:42:58.000Z</time>
      </trkpt>
      <trkpt lat="42.9573083" lon="-5.7347308">
        <ele>1380.76</ele>
        <time>2020-07-21T09:42:59.000Z</time>
      </trkpt>
      <trkpt lat="42.9573158" lon="-5.7347342">
        <ele>1380.76</ele>
        <time>2020-07-21T09:43:00.000Z</time>
      </trkpt>
      <trkpt lat="42.9573233" lon="-5.7347365">
        <ele>1381.22</ele>
        <time>2020-07-21T09:43:01.000Z</time>
      </trkpt>
      <trkpt lat="42.957331" lon="-5.7347378">
        <ele>1381.22</ele>
        <time>2020-07-21T09:43:02.000Z</time>
      </trkpt>
      <trkpt lat="42.9573382" lon="-5.7347383">
        <ele>1381.52</ele>
        <time>2020-07-21T09:43:03.000Z</time>
      </trkpt>
      <trkpt lat="42.9573458" lon="-5.7347392">
        <ele>1381.52</ele>
        <time>2020-07-21T09:43:04.000Z</time>
      </trkpt>
      <trkpt lat="42.9573535" lon="-5.7347415">
        <ele>1381.98</ele>
        <time>2020-07-21T09:43:05.000Z</time>
      </trkpt>
      <trkpt lat="42.957361" lon="-5.734745">
        <ele>1381.98</ele>
        <time>2020-07-21T09:43:06.000Z</time>
      </trkpt>
      <trkpt lat="42.9573675" lon="-5.7347498">
        <ele>1382.44</ele>
        <time>2020-07-21T09:43:07.000Z</time>
      </trkpt>
      <trkpt lat="42.9573725" lon="-5.7347553">
        <ele>1382.44</ele>
        <time>2020-07-21T09:43:08.000Z</time>
      </trkpt>
      <trkpt lat="42.957377" lon="-5.7347608">
        <ele>1382.89</ele>
        <time>2020-07-21T09:43:09.000Z</time>
      </trkpt>
      <trkpt lat="42.957381" lon="-5.7347662">
        <ele>1382.89</ele>
        <time>2020-07-21T09:43:10.000Z</time>
      </trkpt>
      <trkpt lat="42.9573857" lon="-5.7347713">
        <ele>1383.2</ele>
        <time>2020-07-21T09:43:11.000Z</time>
      </trkpt>
      <trkpt lat="42.9573912" lon="-5.7347763">
        <ele>1383.2</ele>
        <time>2020-07-21T09:43:12.000Z</time>
      </trkpt>
      <trkpt lat="42.9573975" lon="-5.7347808">
        <ele>1383.66</ele>
        <time>2020-07-21T09:43:13.000Z</time>
      </trkpt>
      <trkpt lat="42.9574048" lon="-5.7347842">
        <ele>1383.66</ele>
        <time>2020-07-21T09:43:14.000Z</time>
      </trkpt>
      <trkpt lat="42.957413" lon="-5.7347867">
        <ele>1384.11</ele>
        <time>2020-07-21T09:43:15.000Z</time>
      </trkpt>
      <trkpt lat="42.9574222" lon="-5.734789">
        <ele>1384.11</ele>
        <time>2020-07-21T09:43:16.000Z</time>
      </trkpt>
      <trkpt lat="42.9574308" lon="-5.7347917">
        <ele>1384.57</ele>
        <time>2020-07-21T09:43:17.000Z</time>
      </trkpt>
      <trkpt lat="42.9574377" lon="-5.734794">
        <ele>1384.57</ele>
        <time>2020-07-21T09:43:18.000Z</time>
      </trkpt>
      <trkpt lat="42.9574442" lon="-5.7347955">
        <ele>1384.88</ele>
        <time>2020-07-21T09:43:19.000Z</time>
      </trkpt>
      <trkpt lat="42.9574512" lon="-5.7347965">
        <ele>1384.88</ele>
        <time>2020-07-21T09:43:20.000Z</time>
      </trkpt>
      <trkpt lat="42.9574593" lon="-5.734798">
        <ele>1385.33</ele>
        <time>2020-07-21T09:43:21.000Z</time>
      </trkpt>
      <trkpt lat="42.9574675" lon="-5.734799">
        <ele>1385.33</ele>
        <time>2020-07-21T09:43:22.000Z</time>
      </trkpt>
      <trkpt lat="42.9574755" lon="-5.7347998">
        <ele>1385.79</ele>
        <time>2020-07-21T09:43:23.000Z</time>
      </trkpt>
      <trkpt lat="42.9574828" lon="-5.7348015">
        <ele>1385.79</ele>
        <time>2020-07-21T09:43:24.000Z</time>
      </trkpt>
      <trkpt lat="42.9574905" lon="-5.7348052">
        <ele>1386.25</ele>
        <time>2020-07-21T09:43:25.000Z</time>
      </trkpt>
      <trkpt lat="42.9574982" lon="-5.7348087">
        <ele>1386.25</ele>
        <time>2020-07-21T09:43:26.000Z</time>
      </trkpt>
      <trkpt lat="42.9575062" lon="-5.7348127">
        <ele>1386.7</ele>
        <time>2020-07-21T09:43:27.000Z</time>
      </trkpt>
      <trkpt lat="42.957514" lon="-5.7348163">
        <ele>1386.7</ele>
        <time>2020-07-21T09:43:28.000Z</time>
      </trkpt>
      <trkpt lat="42.9575217" lon="-5.7348193">
        <ele>1387.01</ele>
        <time>2020-07-21T09:43:29.000Z</time>
      </trkpt>
      <trkpt lat="42.9575295" lon="-5.7348217">
        <ele>1387.01</ele>
        <time>2020-07-21T09:43:30.000Z</time>
      </trkpt>
      <trkpt lat="42.957537" lon="-5.7348237">
        <ele>1387.47</ele>
        <time>2020-07-21T09:43:31.000Z</time>
      </trkpt>
      <trkpt lat="42.9575437" lon="-5.734827">
        <ele>1387.47</ele>
        <time>2020-07-21T09:43:32.000Z</time>
      </trkpt>
      <trkpt lat="42.9575507" lon="-5.7348322">
        <ele>1387.92</ele>
        <time>2020-07-21T09:43:33.000Z</time>
      </trkpt>
      <trkpt lat="42.957557" lon="-5.7348372">
        <ele>1387.92</ele>
        <time>2020-07-21T09:43:34.000Z</time>
      </trkpt>
      <trkpt lat="42.9575638" lon="-5.734842">
        <ele>1388.23</ele>
        <time>2020-07-21T09:43:35.000Z</time>
      </trkpt>
      <trkpt lat="42.95757" lon="-5.7348455">
        <ele>1388.23</ele>
        <time>2020-07-21T09:43:36.000Z</time>
      </trkpt>
      <trkpt lat="42.9575768" lon="-5.7348498">
        <ele>1388.69</ele>
        <time>2020-07-21T09:43:37.000Z</time>
      </trkpt>
      <trkpt lat="42.9575838" lon="-5.7348542">
        <ele>1388.69</ele>
        <time>2020-07-21T09:43:38.000Z</time>
      </trkpt>
      <trkpt lat="42.9575907" lon="-5.7348587">
        <ele>1388.99</ele>
        <time>2020-07-21T09:43:39.000Z</time>
      </trkpt>
      <trkpt lat="42.9575975" lon="-5.7348632">
        <ele>1388.99</ele>
        <time>2020-07-21T09:43:40.000Z</time>
      </trkpt>
      <trkpt lat="42.9576048" lon="-5.7348683">
        <ele>1389.3</ele>
        <time>2020-07-21T09:43:41.000Z</time>
      </trkpt>
      <trkpt lat="42.957613" lon="-5.7348722">
        <ele>1389.3</ele>
        <time>2020-07-21T09:43:42.000Z</time>
      </trkpt>
      <trkpt lat="42.9576215" lon="-5.7348742">
        <ele>1389.75</ele>
        <time>2020-07-21T09:43:43.000Z</time>
      </trkpt>
      <trkpt lat="42.9576295" lon="-5.7348747">
        <ele>1389.75</ele>
        <time>2020-07-21T09:43:44.000Z</time>
      </trkpt>
      <trkpt lat="42.957636" lon="-5.7348745">
        <ele>1390.06</ele>
        <time>2020-07-21T09:43:45.000Z</time>
      </trkpt>
      <trkpt lat="42.957642" lon="-5.7348745">
        <ele>1390.06</ele>
        <time>2020-07-21T09:43:46.000Z</time>
      </trkpt>
      <trkpt lat="42.957649" lon="-5.7348753">
        <ele>1390.36</ele>
        <time>2020-07-21T09:43:47.000Z</time>
      </trkpt>
      <trkpt lat="42.9576568" lon="-5.734878">
        <ele>1390.36</ele>
        <time>2020-07-21T09:43:48.000Z</time>
      </trkpt>
      <trkpt lat="42.9576648" lon="-5.7348817">
        <ele>1390.82</ele>
        <time>2020-07-21T09:43:49.000Z</time>
      </trkpt>
      <trkpt lat="42.9576723" lon="-5.7348862">
        <ele>1390.82</ele>
        <time>2020-07-21T09:43:50.000Z</time>
      </trkpt>
      <trkpt lat="42.9576793" lon="-5.7348912">
        <ele>1391.12</ele>
        <time>2020-07-21T09:43:51.000Z</time>
      </trkpt>
      <trkpt lat="42.9576865" lon="-5.7348968">
        <ele>1391.12</ele>
        <time>2020-07-21T09:43:52.000Z</time>
      </trkpt>
      <trkpt lat="42.9576937" lon="-5.7349027">
        <ele>1391.43</ele>
        <time>2020-07-21T09:43:53.000Z</time>
      </trkpt>
      <trkpt lat="42.9577007" lon="-5.7349085">
        <ele>1391.43</ele>
        <time>2020-07-21T09:43:54.000Z</time>
      </trkpt>
      <trkpt lat="42.9577078" lon="-5.7349135">
        <ele>1391.73</ele>
        <time>2020-07-21T09:43:55.000Z</time>
      </trkpt>
      <trkpt lat="42.9577147" lon="-5.7349182">
        <ele>1391.73</ele>
        <time>2020-07-21T09:43:56.000Z</time>
      </trkpt>
      <trkpt lat="42.9577213" lon="-5.7349232">
        <ele>1392.04</ele>
        <time>2020-07-21T09:43:57.000Z</time>
      </trkpt>
      <trkpt lat="42.957728" lon="-5.7349283">
        <ele>1392.04</ele>
        <time>2020-07-21T09:43:58.000Z</time>
      </trkpt>
      <trkpt lat="42.9577345" lon="-5.7349333">
        <ele>1392.34</ele>
        <time>2020-07-21T09:43:59.000Z</time>
      </trkpt>
      <trkpt lat="42.9577413" lon="-5.7349375">
        <ele>1392.34</ele>
        <time>2020-07-21T09:44:00.000Z</time>
      </trkpt>
      <trkpt lat="42.9577478" lon="-5.7349418">
        <ele>1392.8</ele>
        <time>2020-07-21T09:44:01.000Z</time>
      </trkpt>
      <trkpt lat="42.9577542" lon="-5.7349463">
        <ele>1392.8</ele>
        <time>2020-07-21T09:44:02.000Z</time>
      </trkpt>
      <trkpt lat="42.9577607" lon="-5.7349512">
        <ele>1393.1</ele>
        <time>2020-07-21T09:44:03.000Z</time>
      </trkpt>
      <trkpt lat="42.9577673" lon="-5.7349568">
        <ele>1393.1</ele>
        <time>2020-07-21T09:44:04.000Z</time>
      </trkpt>
      <trkpt lat="42.9577745" lon="-5.7349622">
        <ele>1393.41</ele>
        <time>2020-07-21T09:44:05.000Z</time>
      </trkpt>
      <trkpt lat="42.9577818" lon="-5.7349667">
        <ele>1393.41</ele>
        <time>2020-07-21T09:44:06.000Z</time>
      </trkpt>
      <trkpt lat="42.9577895" lon="-5.7349695">
        <ele>1393.71</ele>
        <time>2020-07-21T09:44:07.000Z</time>
      </trkpt>
      <trkpt lat="42.9577973" lon="-5.7349727">
        <ele>1393.71</ele>
        <time>2020-07-21T09:44:08.000Z</time>
      </trkpt>
      <trkpt lat="42.957805" lon="-5.7349762">
        <ele>1394.02</ele>
        <time>2020-07-21T09:44:09.000Z</time>
      </trkpt>
      <trkpt lat="42.957813" lon="-5.7349812">
        <ele>1394.02</ele>
        <time>2020-07-21T09:44:10.000Z</time>
      </trkpt>
      <trkpt lat="42.9578203" lon="-5.7349868">
        <ele>1394.32</ele>
        <time>2020-07-21T09:44:11.000Z</time>
      </trkpt>
      <trkpt lat="42.9578268" lon="-5.734993">
        <ele>1394.32</ele>
        <time>2020-07-21T09:44:12.000Z</time>
      </trkpt>
      <trkpt lat="42.9578332" lon="-5.7349998">
        <ele>1394.63</ele>
        <time>2020-07-21T09:44:13.000Z</time>
      </trkpt>
      <trkpt lat="42.9578397" lon="-5.7350065">
        <ele>1394.63</ele>
        <time>2020-07-21T09:44:14.000Z</time>
      </trkpt>
      <trkpt lat="42.9578455" lon="-5.7350122">
        <ele>1394.93</ele>
        <time>2020-07-21T09:44:15.000Z</time>
      </trkpt>
      <trkpt lat="42.9578508" lon="-5.7350167">
        <ele>1394.93</ele>
        <time>2020-07-21T09:44:16.000Z</time>
      </trkpt>
      <trkpt lat="42.9578558" lon="-5.7350212">
        <ele>1395.09</ele>
        <time>2020-07-21T09:44:17.000Z</time>
      </trkpt>
      <trkpt lat="42.9578608" lon="-5.7350263">
        <ele>1395.09</ele>
        <time>2020-07-21T09:44:18.000Z</time>
      </trkpt>
      <trkpt lat="42.9578658" lon="-5.7350322">
        <ele>1395.39</ele>
        <time>2020-07-21T09:44:19.000Z</time>
      </trkpt>
      <trkpt lat="42.9578708" lon="-5.7350388">
        <ele>1395.39</ele>
        <time>2020-07-21T09:44:20.000Z</time>
      </trkpt>
      <trkpt lat="42.957876" lon="-5.7350462">
        <ele>1395.7</ele>
        <time>2020-07-21T09:44:21.000Z</time>
      </trkpt>
      <trkpt lat="42.9578813" lon="-5.7350532">
        <ele>1395.7</ele>
        <time>2020-07-21T09:44:22.000Z</time>
      </trkpt>
      <trkpt lat="42.9578865" lon="-5.7350592">
        <ele>1396</ele>
        <time>2020-07-21T09:44:23.000Z</time>
      </trkpt>
      <trkpt lat="42.9578923" lon="-5.7350648">
        <ele>1396</ele>
        <time>2020-07-21T09:44:24.000Z</time>
      </trkpt>
      <trkpt lat="42.9578987" lon="-5.73507">
        <ele>1396.15</ele>
        <time>2020-07-21T09:44:25.000Z</time>
      </trkpt>
      <trkpt lat="42.9579065" lon="-5.7350738">
        <ele>1396.15</ele>
        <time>2020-07-21T09:44:26.000Z</time>
      </trkpt>
      <trkpt lat="42.9579132" lon="-5.7350768">
        <ele>1396.31</ele>
        <time>2020-07-21T09:44:27.000Z</time>
      </trkpt>
      <trkpt lat="42.9579188" lon="-5.7350812">
        <ele>1396.31</ele>
        <time>2020-07-21T09:44:28.000Z</time>
      </trkpt>
      <trkpt lat="42.9579233" lon="-5.7350878">
        <ele>1396.61</ele>
        <time>2020-07-21T09:44:29.000Z</time>
      </trkpt>
      <trkpt lat="42.957928" lon="-5.7350953">
        <ele>1396.61</ele>
        <time>2020-07-21T09:44:30.000Z</time>
      </trkpt>
      <trkpt lat="42.957933" lon="-5.7351025">
        <ele>1396.76</ele>
        <time>2020-07-21T09:44:31.000Z</time>
      </trkpt>
      <trkpt lat="42.9579387" lon="-5.7351095">
        <ele>1396.76</ele>
        <time>2020-07-21T09:44:32.000Z</time>
      </trkpt>
      <trkpt lat="42.9579435" lon="-5.7351175">
        <ele>1396.92</ele>
        <time>2020-07-21T09:44:33.000Z</time>
      </trkpt>
      <trkpt lat="42.9579495" lon="-5.7351245">
        <ele>1396.92</ele>
        <time>2020-07-21T09:44:34.000Z</time>
      </trkpt>
      <trkpt lat="42.957957" lon="-5.735128">
        <ele>1397.22</ele>
        <time>2020-07-21T09:44:35.000Z</time>
      </trkpt>
      <trkpt lat="42.9579662" lon="-5.7351308">
        <ele>1397.22</ele>
        <time>2020-07-21T09:44:36.000Z</time>
      </trkpt>
      <trkpt lat="42.9579723" lon="-5.735134">
        <ele>1397.37</ele>
        <time>2020-07-21T09:44:37.000Z</time>
      </trkpt>
      <trkpt lat="42.957976" lon="-5.7351408">
        <ele>1397.37</ele>
        <time>2020-07-21T09:44:38.000Z</time>
      </trkpt>
      <trkpt lat="42.9579798" lon="-5.7351482">
        <ele>1397.53</ele>
        <time>2020-07-21T09:44:39.000Z</time>
      </trkpt>
      <trkpt lat="42.9579862" lon="-5.735156">
        <ele>1397.53</ele>
        <time>2020-07-21T09:44:40.000Z</time>
      </trkpt>
      <trkpt lat="42.9579918" lon="-5.7351642">
        <ele>1397.68</ele>
        <time>2020-07-21T09:44:41.000Z</time>
      </trkpt>
      <trkpt lat="42.9579968" lon="-5.7351735">
        <ele>1397.68</ele>
        <time>2020-07-21T09:44:42.000Z</time>
      </trkpt>
      <trkpt lat="42.9579997" lon="-5.7351822">
        <ele>1397.83</ele>
        <time>2020-07-21T09:44:43.000Z</time>
      </trkpt>
      <trkpt lat="42.9580025" lon="-5.7351898">
        <ele>1397.83</ele>
        <time>2020-07-21T09:44:44.000Z</time>
      </trkpt>
      <trkpt lat="42.9580045" lon="-5.735198">
        <ele>1397.98</ele>
        <time>2020-07-21T09:44:45.000Z</time>
      </trkpt>
      <trkpt lat="42.9580077" lon="-5.735208">
        <ele>1397.98</ele>
        <time>2020-07-21T09:44:46.000Z</time>
      </trkpt>
      <trkpt lat="42.9580132" lon="-5.735218">
        <ele>1398.14</ele>
        <time>2020-07-21T09:44:47.000Z</time>
      </trkpt>
      <trkpt lat="42.9580193" lon="-5.7352273">
        <ele>1398.14</ele>
        <time>2020-07-21T09:44:48.000Z</time>
      </trkpt>
      <trkpt lat="42.9580257" lon="-5.7352347">
        <ele>1398.29</ele>
        <time>2020-07-21T09:44:49.000Z</time>
      </trkpt>
      <trkpt lat="42.958029" lon="-5.735243">
        <ele>1398.29</ele>
        <time>2020-07-21T09:44:50.000Z</time>
      </trkpt>
      <trkpt lat="42.958036" lon="-5.7352497">
        <ele>1398.44</ele>
        <time>2020-07-21T09:44:51.000Z</time>
      </trkpt>
      <trkpt lat="42.958047" lon="-5.7352538">
        <ele>1398.44</ele>
        <time>2020-07-21T09:44:52.000Z</time>
      </trkpt>
      <trkpt lat="42.9580575" lon="-5.7352575">
        <ele>1398.59</ele>
        <time>2020-07-21T09:44:53.000Z</time>
      </trkpt>
      <trkpt lat="42.9580663" lon="-5.7352595">
        <ele>1398.59</ele>
        <time>2020-07-21T09:44:54.000Z</time>
      </trkpt>
      <trkpt lat="42.9580725" lon="-5.7352642">
        <ele>1398.74</ele>
        <time>2020-07-21T09:44:55.000Z</time>
      </trkpt>
      <trkpt lat="42.958082" lon="-5.7352695">
        <ele>1398.74</ele>
        <time>2020-07-21T09:44:56.000Z</time>
      </trkpt>
      <trkpt lat="42.958092" lon="-5.7352775">
        <ele>1398.9</ele>
        <time>2020-07-21T09:44:57.000Z</time>
      </trkpt>
      <trkpt lat="42.9581018" lon="-5.7352858">
        <ele>1398.9</ele>
        <time>2020-07-21T09:44:58.000Z</time>
      </trkpt>
      <trkpt lat="42.9581113" lon="-5.7352922">
        <ele>1398.9</ele>
        <time>2020-07-21T09:44:59.000Z</time>
      </trkpt>
      <trkpt lat="42.9581205" lon="-5.7352997">
        <ele>1398.9</ele>
        <time>2020-07-21T09:45:00.000Z</time>
      </trkpt>
      <trkpt lat="42.95813" lon="-5.7353095">
        <ele>1399.05</ele>
        <time>2020-07-21T09:45:01.000Z</time>
      </trkpt>
      <trkpt lat="42.958138" lon="-5.7353213">
        <ele>1399.05</ele>
        <time>2020-07-21T09:45:02.000Z</time>
      </trkpt>
      <trkpt lat="42.9581452" lon="-5.7353323">
        <ele>1399.2</ele>
        <time>2020-07-21T09:45:03.000Z</time>
      </trkpt>
      <trkpt lat="42.9581513" lon="-5.7353423">
        <ele>1399.2</ele>
        <time>2020-07-21T09:45:04.000Z</time>
      </trkpt>
      <trkpt lat="42.9581592" lon="-5.7353538">
        <ele>1399.35</ele>
        <time>2020-07-21T09:45:05.000Z</time>
      </trkpt>
      <trkpt lat="42.9581663" lon="-5.7353667">
        <ele>1399.35</ele>
        <time>2020-07-21T09:45:06.000Z</time>
      </trkpt>
      <trkpt lat="42.9581728" lon="-5.7353795">
        <ele>1399.51</ele>
        <time>2020-07-21T09:45:07.000Z</time>
      </trkpt>
      <trkpt lat="42.9581768" lon="-5.735392">
        <ele>1399.51</ele>
        <time>2020-07-21T09:45:08.000Z</time>
      </trkpt>
      <trkpt lat="42.9581827" lon="-5.7354047">
        <ele>1399.51</ele>
        <time>2020-07-21T09:45:09.000Z</time>
      </trkpt>
      <trkpt lat="42.9581905" lon="-5.7354165">
        <ele>1399.51</ele>
        <time>2020-07-21T09:45:10.000Z</time>
      </trkpt>
      <trkpt lat="42.9581997" lon="-5.7354273">
        <ele>1399.66</ele>
        <time>2020-07-21T09:45:11.000Z</time>
      </trkpt>
      <trkpt lat="42.9582077" lon="-5.735436">
        <ele>1399.66</ele>
        <time>2020-07-21T09:45:12.000Z</time>
      </trkpt>
      <trkpt lat="42.9582157" lon="-5.7354423">
        <ele>1399.81</ele>
        <time>2020-07-21T09:45:13.000Z</time>
      </trkpt>
      <trkpt lat="42.9582243" lon="-5.7354462">
        <ele>1399.81</ele>
        <time>2020-07-21T09:45:14.000Z</time>
      </trkpt>
      <trkpt lat="42.9582347" lon="-5.7354498">
        <ele>1399.81</ele>
        <time>2020-07-21T09:45:15.000Z</time>
      </trkpt>
      <trkpt lat="42.9582445" lon="-5.735455">
        <ele>1399.81</ele>
        <time>2020-07-21T09:45:16.000Z</time>
      </trkpt>
      <trkpt lat="42.9582547" lon="-5.7354617">
        <ele>1399.96</ele>
        <time>2020-07-21T09:45:17.000Z</time>
      </trkpt>
      <trkpt lat="42.9582663" lon="-5.7354675">
        <ele>1399.96</ele>
        <time>2020-07-21T09:45:18.000Z</time>
      </trkpt>
      <trkpt lat="42.9582752" lon="-5.7354757">
        <ele>1400.12</ele>
        <time>2020-07-21T09:45:19.000Z</time>
      </trkpt>
      <trkpt lat="42.9582818" lon="-5.735485">
        <ele>1400.12</ele>
        <time>2020-07-21T09:45:20.000Z</time>
      </trkpt>
      <trkpt lat="42.9582853" lon="-5.7354965">
        <ele>1400.27</ele>
        <time>2020-07-21T09:45:21.000Z</time>
      </trkpt>
      <trkpt lat="42.9582895" lon="-5.7355082">
        <ele>1400.27</ele>
        <time>2020-07-21T09:45:22.000Z</time>
      </trkpt>
      <trkpt lat="42.9582947" lon="-5.7355215">
        <ele>1400.42</ele>
        <time>2020-07-21T09:45:23.000Z</time>
      </trkpt>
      <trkpt lat="42.9583012" lon="-5.7355372">
        <ele>1400.42</ele>
        <time>2020-07-21T09:45:24.000Z</time>
      </trkpt>
      <trkpt lat="42.9583097" lon="-5.7355532">
        <ele>1400.57</ele>
        <time>2020-07-21T09:45:25.000Z</time>
      </trkpt>
      <trkpt lat="42.9583188" lon="-5.7355667">
        <ele>1400.57</ele>
        <time>2020-07-21T09:45:26.000Z</time>
      </trkpt>
      <trkpt lat="42.9583268" lon="-5.7355762">
        <ele>1400.72</ele>
        <time>2020-07-21T09:45:27.000Z</time>
      </trkpt>
      <trkpt lat="42.9583342" lon="-5.7355845">
        <ele>1400.72</ele>
        <time>2020-07-21T09:45:28.000Z</time>
      </trkpt>
      <trkpt lat="42.9583412" lon="-5.7355933">
        <ele>1400.88</ele>
        <time>2020-07-21T09:45:29.000Z</time>
      </trkpt>
      <trkpt lat="42.9583477" lon="-5.7356023">
        <ele>1400.88</ele>
        <time>2020-07-21T09:45:30.000Z</time>
      </trkpt>
      <trkpt lat="42.9583527" lon="-5.7356083">
        <ele>1401.03</ele>
        <time>2020-07-21T09:45:31.000Z</time>
      </trkpt>
      <trkpt lat="42.9583577" lon="-5.7356135">
        <ele>1401.03</ele>
        <time>2020-07-21T09:45:32.000Z</time>
      </trkpt>
      <trkpt lat="42.9583633" lon="-5.7356185">
        <ele>1401.03</ele>
        <time>2020-07-21T09:45:33.000Z</time>
      </trkpt>
      <trkpt lat="42.9583713" lon="-5.7356247">
        <ele>1401.03</ele>
        <time>2020-07-21T09:45:34.000Z</time>
      </trkpt>
      <trkpt lat="42.9583813" lon="-5.7356288">
        <ele>1401.18</ele>
        <time>2020-07-21T09:45:35.000Z</time>
      </trkpt>
      <trkpt lat="42.9583927" lon="-5.735631">
        <ele>1401.18</ele>
        <time>2020-07-21T09:45:36.000Z</time>
      </trkpt>
      <trkpt lat="42.958404" lon="-5.7356307">
        <ele>1401.33</ele>
        <time>2020-07-21T09:45:37.000Z</time>
      </trkpt>
      <trkpt lat="42.9584157" lon="-5.7356287">
        <ele>1401.33</ele>
        <time>2020-07-21T09:45:38.000Z</time>
      </trkpt>
      <trkpt lat="42.958426" lon="-5.735626">
        <ele>1401.33</ele>
        <time>2020-07-21T09:45:39.000Z</time>
      </trkpt>
      <trkpt lat="42.9584368" lon="-5.7356233">
        <ele>1401.33</ele>
        <time>2020-07-21T09:45:40.000Z</time>
      </trkpt>
      <trkpt lat="42.9584468" lon="-5.7356222">
        <ele>1401.49</ele>
        <time>2020-07-21T09:45:41.000Z</time>
      </trkpt>
      <trkpt lat="42.9584575" lon="-5.7356207">
        <ele>1401.49</ele>
        <time>2020-07-21T09:45:42.000Z</time>
      </trkpt>
      <trkpt lat="42.9584683" lon="-5.7356192">
        <ele>1401.49</ele>
        <time>2020-07-21T09:45:43.000Z</time>
      </trkpt>
      <trkpt lat="42.9584795" lon="-5.7356178">
        <ele>1401.49</ele>
        <time>2020-07-21T09:45:44.000Z</time>
      </trkpt>
      <trkpt lat="42.9584907" lon="-5.7356175">
        <ele>1401.64</ele>
        <time>2020-07-21T09:45:45.000Z</time>
      </trkpt>
      <trkpt lat="42.9585022" lon="-5.7356175">
        <ele>1401.64</ele>
        <time>2020-07-21T09:45:46.000Z</time>
      </trkpt>
      <trkpt lat="42.9585148" lon="-5.7356165">
        <ele>1401.64</ele>
        <time>2020-07-21T09:45:47.000Z</time>
      </trkpt>
      <trkpt lat="42.9585273" lon="-5.7356153">
        <ele>1401.64</ele>
        <time>2020-07-21T09:45:48.000Z</time>
      </trkpt>
      <trkpt lat="42.9585392" lon="-5.7356132">
        <ele>1401.79</ele>
        <time>2020-07-21T09:45:49.000Z</time>
      </trkpt>
      <trkpt lat="42.9585505" lon="-5.7356088">
        <ele>1401.79</ele>
        <time>2020-07-21T09:45:50.000Z</time>
      </trkpt>
      <trkpt lat="42.9585625" lon="-5.735603">
        <ele>1401.79</ele>
        <time>2020-07-21T09:45:51.000Z</time>
      </trkpt>
      <trkpt lat="42.9585743" lon="-5.7355977">
        <ele>1401.79</ele>
        <time>2020-07-21T09:45:52.000Z</time>
      </trkpt>
      <trkpt lat="42.9585853" lon="-5.7355943">
        <ele>1401.79</ele>
        <time>2020-07-21T09:45:53.000Z</time>
      </trkpt>
      <trkpt lat="42.9585955" lon="-5.73559">
        <ele>1401.79</ele>
        <time>2020-07-21T09:45:54.000Z</time>
      </trkpt>
      <trkpt lat="42.9586068" lon="-5.7355833">
        <ele>1401.94</ele>
        <time>2020-07-21T09:45:55.000Z</time>
      </trkpt>
      <trkpt lat="42.9586172" lon="-5.7355773">
        <ele>1401.94</ele>
        <time>2020-07-21T09:45:56.000Z</time>
      </trkpt>
      <trkpt lat="42.958627" lon="-5.7355725">
        <ele>1401.94</ele>
        <time>2020-07-21T09:45:57.000Z</time>
      </trkpt>
      <trkpt lat="42.9586362" lon="-5.7355678">
        <ele>1401.94</ele>
        <time>2020-07-21T09:45:58.000Z</time>
      </trkpt>
      <trkpt lat="42.9586473" lon="-5.7355627">
        <ele>1401.94</ele>
        <time>2020-07-21T09:45:59.000Z</time>
      </trkpt>
      <trkpt lat="42.9586593" lon="-5.7355575">
        <ele>1401.94</ele>
        <time>2020-07-21T09:46:00.000Z</time>
      </trkpt>
      <trkpt lat="42.9586703" lon="-5.7355545">
        <ele>1401.94</ele>
        <time>2020-07-21T09:46:01.000Z</time>
      </trkpt>
      <trkpt lat="42.958681" lon="-5.7355528">
        <ele>1401.94</ele>
        <time>2020-07-21T09:46:02.000Z</time>
      </trkpt>
      <trkpt lat="42.9586913" lon="-5.7355522">
        <ele>1402.1</ele>
        <time>2020-07-21T09:46:03.000Z</time>
      </trkpt>
      <trkpt lat="42.9587055" lon="-5.7355518">
        <ele>1402.1</ele>
        <time>2020-07-21T09:46:04.000Z</time>
      </trkpt>
      <trkpt lat="42.9587193" lon="-5.7355522">
        <ele>1402.1</ele>
        <time>2020-07-21T09:46:05.000Z</time>
      </trkpt>
      <trkpt lat="42.9587337" lon="-5.735552">
        <ele>1402.1</ele>
        <time>2020-07-21T09:46:06.000Z</time>
      </trkpt>
      <trkpt lat="42.9587463" lon="-5.7355515">
        <ele>1402.1</ele>
        <time>2020-07-21T09:46:07.000Z</time>
      </trkpt>
      <trkpt lat="42.9587593" lon="-5.7355503">
        <ele>1402.1</ele>
        <time>2020-07-21T09:46:08.000Z</time>
      </trkpt>
      <trkpt lat="42.9587722" lon="-5.735548">
        <ele>1402.1</ele>
        <time>2020-07-21T09:46:09.000Z</time>
      </trkpt>
      <trkpt lat="42.9587835" lon="-5.7355448">
        <ele>1402.1</ele>
        <time>2020-07-21T09:46:10.000Z</time>
      </trkpt>
      <trkpt lat="42.9587943" lon="-5.7355408">
        <ele>1402.25</ele>
        <time>2020-07-21T09:46:11.000Z</time>
      </trkpt>
      <trkpt lat="42.9588045" lon="-5.7355382">
        <ele>1402.25</ele>
        <time>2020-07-21T09:46:12.000Z</time>
      </trkpt>
      <trkpt lat="42.9588142" lon="-5.7355378">
        <ele>1402.25</ele>
        <time>2020-07-21T09:46:13.000Z</time>
      </trkpt>
      <trkpt lat="42.9588238" lon="-5.7355408">
        <ele>1402.25</ele>
        <time>2020-07-21T09:46:14.000Z</time>
      </trkpt>
      <trkpt lat="42.9588342" lon="-5.7355467">
        <ele>1402.25</ele>
        <time>2020-07-21T09:46:15.000Z</time>
      </trkpt>
      <trkpt lat="42.9588463" lon="-5.7355523">
        <ele>1402.25</ele>
        <time>2020-07-21T09:46:16.000Z</time>
      </trkpt>
      <trkpt lat="42.9588593" lon="-5.7355563">
        <ele>1402.25</ele>
        <time>2020-07-21T09:46:17.000Z</time>
      </trkpt>
      <trkpt lat="42.9588728" lon="-5.7355577">
        <ele>1402.25</ele>
        <time>2020-07-21T09:46:18.000Z</time>
      </trkpt>
      <trkpt lat="42.9588855" lon="-5.7355578">
        <ele>1402.4</ele>
        <time>2020-07-21T09:46:19.000Z</time>
      </trkpt>
      <trkpt lat="42.9588978" lon="-5.7355582">
        <ele>1402.4</ele>
        <time>2020-07-21T09:46:20.000Z</time>
      </trkpt>
      <trkpt lat="42.9589105" lon="-5.7355563">
        <ele>1402.4</ele>
        <time>2020-07-21T09:46:21.000Z</time>
      </trkpt>
      <trkpt lat="42.958923" lon="-5.7355522">
        <ele>1402.4</ele>
        <time>2020-07-21T09:46:22.000Z</time>
      </trkpt>
      <trkpt lat="42.958935" lon="-5.7355438">
        <ele>1402.55</ele>
        <time>2020-07-21T09:46:23.000Z</time>
      </trkpt>
      <trkpt lat="42.958946" lon="-5.735534">
        <ele>1402.55</ele>
        <time>2020-07-21T09:46:24.000Z</time>
      </trkpt>
      <trkpt lat="42.9589563" lon="-5.7355233">
        <ele>1402.71</ele>
        <time>2020-07-21T09:46:25.000Z</time>
      </trkpt>
      <trkpt lat="42.9589653" lon="-5.7355142">
        <ele>1402.71</ele>
        <time>2020-07-21T09:46:26.000Z</time>
      </trkpt>
      <trkpt lat="42.9589738" lon="-5.7355068">
        <ele>1402.71</ele>
        <time>2020-07-21T09:46:27.000Z</time>
      </trkpt>
      <trkpt lat="42.9589833" lon="-5.7354997">
        <ele>1402.71</ele>
        <time>2020-07-21T09:46:28.000Z</time>
      </trkpt>
      <trkpt lat="42.9589942" lon="-5.7354908">
        <ele>1402.86</ele>
        <time>2020-07-21T09:46:29.000Z</time>
      </trkpt>
      <trkpt lat="42.959006" lon="-5.73548">
        <ele>1402.86</ele>
        <time>2020-07-21T09:46:30.000Z</time>
      </trkpt>
      <trkpt lat="42.9590173" lon="-5.73547">
        <ele>1402.86</ele>
        <time>2020-07-21T09:46:31.000Z</time>
      </trkpt>
      <trkpt lat="42.9590282" lon="-5.735462">
        <ele>1402.86</ele>
        <time>2020-07-21T09:46:32.000Z</time>
      </trkpt>
      <trkpt lat="42.9590395" lon="-5.7354557">
        <ele>1402.86</ele>
        <time>2020-07-21T09:46:33.000Z</time>
      </trkpt>
      <trkpt lat="42.9590522" lon="-5.7354488">
        <ele>1402.86</ele>
        <time>2020-07-21T09:46:34.000Z</time>
      </trkpt>
      <trkpt lat="42.9590653" lon="-5.7354408">
        <ele>1403.01</ele>
        <time>2020-07-21T09:46:35.000Z</time>
      </trkpt>
      <trkpt lat="42.9590765" lon="-5.735432">
        <ele>1403.01</ele>
        <time>2020-07-21T09:46:36.000Z</time>
      </trkpt>
      <trkpt lat="42.9590855" lon="-5.7354237">
        <ele>1403.01</ele>
        <time>2020-07-21T09:46:37.000Z</time>
      </trkpt>
      <trkpt lat="42.959094" lon="-5.7354162">
        <ele>1403.01</ele>
        <time>2020-07-21T09:46:38.000Z</time>
      </trkpt>
      <trkpt lat="42.9591043" lon="-5.7354087">
        <ele>1403.01</ele>
        <time>2020-07-21T09:46:39.000Z</time>
      </trkpt>
      <trkpt lat="42.9591168" lon="-5.7353988">
        <ele>1403.01</ele>
        <time>2020-07-21T09:46:40.000Z</time>
      </trkpt>
      <trkpt lat="42.9591278" lon="-5.7353893">
        <ele>1403.01</ele>
        <time>2020-07-21T09:46:41.000Z</time>
      </trkpt>
      <trkpt lat="42.9591383" lon="-5.7353798">
        <ele>1403.01</ele>
        <time>2020-07-21T09:46:42.000Z</time>
      </trkpt>
      <trkpt lat="42.9591473" lon="-5.7353723">
        <ele>1403.16</ele>
        <time>2020-07-21T09:46:43.000Z</time>
      </trkpt>
      <trkpt lat="42.959158" lon="-5.7353642">
        <ele>1403.16</ele>
        <time>2020-07-21T09:46:44.000Z</time>
      </trkpt>
      <trkpt lat="42.9591695" lon="-5.7353565">
        <ele>1403.16</ele>
        <time>2020-07-21T09:46:45.000Z</time>
      </trkpt>
      <trkpt lat="42.9591808" lon="-5.7353505">
        <ele>1403.16</ele>
        <time>2020-07-21T09:46:46.000Z</time>
      </trkpt>
      <trkpt lat="42.9591923" lon="-5.7353468">
        <ele>1403.16</ele>
        <time>2020-07-21T09:46:47.000Z</time>
      </trkpt>
      <trkpt lat="42.9592035" lon="-5.7353445">
        <ele>1403.16</ele>
        <time>2020-07-21T09:46:48.000Z</time>
      </trkpt>
      <trkpt lat="42.9592162" lon="-5.735342">
        <ele>1403.32</ele>
        <time>2020-07-21T09:46:49.000Z</time>
      </trkpt>
      <trkpt lat="42.9592287" lon="-5.7353392">
        <ele>1403.32</ele>
        <time>2020-07-21T09:46:50.000Z</time>
      </trkpt>
      <trkpt lat="42.9592397" lon="-5.7353358">
        <ele>1403.32</ele>
        <time>2020-07-21T09:46:51.000Z</time>
      </trkpt>
      <trkpt lat="42.959249" lon="-5.7353312">
        <ele>1403.32</ele>
        <time>2020-07-21T09:46:52.000Z</time>
      </trkpt>
      <trkpt lat="42.9592597" lon="-5.7353232">
        <ele>1403.32</ele>
        <time>2020-07-21T09:46:53.000Z</time>
      </trkpt>
      <trkpt lat="42.9592715" lon="-5.7353128">
        <ele>1403.32</ele>
        <time>2020-07-21T09:46:54.000Z</time>
      </trkpt>
      <trkpt lat="42.9592838" lon="-5.7353025">
        <ele>1403.32</ele>
        <time>2020-07-21T09:46:55.000Z</time>
      </trkpt>
      <trkpt lat="42.9592943" lon="-5.7352948">
        <ele>1403.32</ele>
        <time>2020-07-21T09:46:56.000Z</time>
      </trkpt>
      <trkpt lat="42.9593042" lon="-5.7352888">
        <ele>1403.32</ele>
        <time>2020-07-21T09:46:57.000Z</time>
      </trkpt>
      <trkpt lat="42.9593143" lon="-5.735284">
        <ele>1403.32</ele>
        <time>2020-07-21T09:46:58.000Z</time>
      </trkpt>
      <trkpt lat="42.9593248" lon="-5.7352792">
        <ele>1403.47</ele>
        <time>2020-07-21T09:46:59.000Z</time>
      </trkpt>
      <trkpt lat="42.959336" lon="-5.7352747">
        <ele>1403.47</ele>
        <time>2020-07-21T09:47:00.000Z</time>
      </trkpt>
      <trkpt lat="42.9593472" lon="-5.7352688">
        <ele>1403.47</ele>
        <time>2020-07-21T09:47:01.000Z</time>
      </trkpt>
      <trkpt lat="42.9593582" lon="-5.7352612">
        <ele>1403.47</ele>
        <time>2020-07-21T09:47:02.000Z</time>
      </trkpt>
      <trkpt lat="42.9593693" lon="-5.735251">
        <ele>1403.47</ele>
        <time>2020-07-21T09:47:03.000Z</time>
      </trkpt>
      <trkpt lat="42.9593802" lon="-5.7352415">
        <ele>1403.47</ele>
        <time>2020-07-21T09:47:04.000Z</time>
      </trkpt>
      <trkpt lat="42.9593907" lon="-5.7352332">
        <ele>1403.47</ele>
        <time>2020-07-21T09:47:05.000Z</time>
      </trkpt>
      <trkpt lat="42.9594012" lon="-5.7352257">
        <ele>1403.47</ele>
        <time>2020-07-21T09:47:06.000Z</time>
      </trkpt>
      <trkpt lat="42.959412" lon="-5.7352152">
        <ele>1403.47</ele>
        <time>2020-07-21T09:47:07.000Z</time>
      </trkpt>
      <trkpt lat="42.959423" lon="-5.7352073">
        <ele>1403.47</ele>
        <time>2020-07-21T09:47:08.000Z</time>
      </trkpt>
      <trkpt lat="42.959433" lon="-5.7352005">
        <ele>1403.47</ele>
        <time>2020-07-21T09:47:09.000Z</time>
      </trkpt>
      <trkpt lat="42.9594425" lon="-5.7351965">
        <ele>1403.47</ele>
        <time>2020-07-21T09:47:10.000Z</time>
      </trkpt>
      <trkpt lat="42.9594527" lon="-5.7351895">
        <ele>1403.47</ele>
        <time>2020-07-21T09:47:11.000Z</time>
      </trkpt>
      <trkpt lat="42.9594632" lon="-5.7351815">
        <ele>1403.47</ele>
        <time>2020-07-21T09:47:12.000Z</time>
      </trkpt>
      <trkpt lat="42.9594732" lon="-5.735173">
        <ele>1403.47</ele>
        <time>2020-07-21T09:47:13.000Z</time>
      </trkpt>
      <trkpt lat="42.959482" lon="-5.7351638">
        <ele>1403.47</ele>
        <time>2020-07-21T09:47:14.000Z</time>
      </trkpt>
      <trkpt lat="42.9594908" lon="-5.735154">
        <ele>1403.47</ele>
        <time>2020-07-21T09:47:15.000Z</time>
      </trkpt>
      <trkpt lat="42.9594998" lon="-5.7351437">
        <ele>1403.47</ele>
        <time>2020-07-21T09:47:16.000Z</time>
      </trkpt>
      <trkpt lat="42.959509" lon="-5.735134">
        <ele>1403.47</ele>
        <time>2020-07-21T09:47:17.000Z</time>
      </trkpt>
      <trkpt lat="42.9595183" lon="-5.7351262">
        <ele>1403.47</ele>
        <time>2020-07-21T09:47:18.000Z</time>
      </trkpt>
      <trkpt lat="42.9595277" lon="-5.7351198">
        <ele>1403.47</ele>
        <time>2020-07-21T09:47:19.000Z</time>
      </trkpt>
      <trkpt lat="42.9595375" lon="-5.7351135">
        <ele>1403.47</ele>
        <time>2020-07-21T09:47:20.000Z</time>
      </trkpt>
      <trkpt lat="42.9595473" lon="-5.7351072">
        <ele>1403.47</ele>
        <time>2020-07-21T09:47:21.000Z</time>
      </trkpt>
      <trkpt lat="42.9595578" lon="-5.7351005">
        <ele>1403.47</ele>
        <time>2020-07-21T09:47:22.000Z</time>
      </trkpt>
      <trkpt lat="42.9595692" lon="-5.7350938">
        <ele>1403.47</ele>
        <time>2020-07-21T09:47:23.000Z</time>
      </trkpt>
      <trkpt lat="42.9595813" lon="-5.7350855">
        <ele>1403.47</ele>
        <time>2020-07-21T09:47:24.000Z</time>
      </trkpt>
      <trkpt lat="42.9595928" lon="-5.735078">
        <ele>1403.47</ele>
        <time>2020-07-21T09:47:25.000Z</time>
      </trkpt>
      <trkpt lat="42.9596042" lon="-5.73507">
        <ele>1403.47</ele>
        <time>2020-07-21T09:47:26.000Z</time>
      </trkpt>
      <trkpt lat="42.9596165" lon="-5.735061">
        <ele>1403.47</ele>
        <time>2020-07-21T09:47:27.000Z</time>
      </trkpt>
      <trkpt lat="42.9596288" lon="-5.735049">
        <ele>1403.47</ele>
        <time>2020-07-21T09:47:28.000Z</time>
      </trkpt>
      <trkpt lat="42.95964" lon="-5.7350372">
        <ele>1403.47</ele>
        <time>2020-07-21T09:47:29.000Z</time>
      </trkpt>
      <trkpt lat="42.9596492" lon="-5.7350278">
        <ele>1403.47</ele>
        <time>2020-07-21T09:47:30.000Z</time>
      </trkpt>
      <trkpt lat="42.9596575" lon="-5.7350183">
        <ele>1403.32</ele>
        <time>2020-07-21T09:47:31.000Z</time>
      </trkpt>
      <trkpt lat="42.959666" lon="-5.7350082">
        <ele>1403.32</ele>
        <time>2020-07-21T09:47:32.000Z</time>
      </trkpt>
      <trkpt lat="42.9596758" lon="-5.734996">
        <ele>1403.32</ele>
        <time>2020-07-21T09:47:33.000Z</time>
      </trkpt>
      <trkpt lat="42.9596857" lon="-5.734985">
        <ele>1403.32</ele>
        <time>2020-07-21T09:47:34.000Z</time>
      </trkpt>
      <trkpt lat="42.9596953" lon="-5.7349743">
        <ele>1403.32</ele>
        <time>2020-07-21T09:47:35.000Z</time>
      </trkpt>
      <trkpt lat="42.9597033" lon="-5.7349652">
        <ele>1403.32</ele>
        <time>2020-07-21T09:47:36.000Z</time>
      </trkpt>
      <trkpt lat="42.9597133" lon="-5.7349552">
        <ele>1403.16</ele>
        <time>2020-07-21T09:47:37.000Z</time>
      </trkpt>
      <trkpt lat="42.9597225" lon="-5.7349472">
        <ele>1403.16</ele>
        <time>2020-07-21T09:47:38.000Z</time>
      </trkpt>
      <trkpt lat="42.9597327" lon="-5.7349383">
        <ele>1403.16</ele>
        <time>2020-07-21T09:47:39.000Z</time>
      </trkpt>
      <trkpt lat="42.9597423" lon="-5.73493">
        <ele>1403.16</ele>
        <time>2020-07-21T09:47:40.000Z</time>
      </trkpt>
      <trkpt lat="42.9597518" lon="-5.73492">
        <ele>1403.01</ele>
        <time>2020-07-21T09:47:41.000Z</time>
      </trkpt>
      <trkpt lat="42.959761" lon="-5.7349115">
        <ele>1403.01</ele>
        <time>2020-07-21T09:47:42.000Z</time>
      </trkpt>
      <trkpt lat="42.9597703" lon="-5.734903">
        <ele>1403.01</ele>
        <time>2020-07-21T09:47:43.000Z</time>
      </trkpt>
      <trkpt lat="42.9597817" lon="-5.7348925">
        <ele>1403.01</ele>
        <time>2020-07-21T09:47:44.000Z</time>
      </trkpt>
      <trkpt lat="42.9597927" lon="-5.7348807">
        <ele>1403.01</ele>
        <time>2020-07-21T09:47:45.000Z</time>
      </trkpt>
      <trkpt lat="42.9598013" lon="-5.7348708">
        <ele>1403.01</ele>
        <time>2020-07-21T09:47:46.000Z</time>
      </trkpt>
      <trkpt lat="42.9598077" lon="-5.7348633">
        <ele>1403.01</ele>
        <time>2020-07-21T09:47:47.000Z</time>
      </trkpt>
      <trkpt lat="42.9598145" lon="-5.7348565">
        <ele>1403.01</ele>
        <time>2020-07-21T09:47:48.000Z</time>
      </trkpt>
      <trkpt lat="42.9598225" lon="-5.7348462">
        <ele>1402.86</ele>
        <time>2020-07-21T09:47:49.000Z</time>
      </trkpt>
      <trkpt lat="42.9598313" lon="-5.7348357">
        <ele>1402.86</ele>
        <time>2020-07-21T09:47:50.000Z</time>
      </trkpt>
      <trkpt lat="42.9598397" lon="-5.7348257">
        <ele>1402.86</ele>
        <time>2020-07-21T09:47:51.000Z</time>
      </trkpt>
      <trkpt lat="42.9598472" lon="-5.7348183">
        <ele>1402.86</ele>
        <time>2020-07-21T09:47:52.000Z</time>
      </trkpt>
      <trkpt lat="42.959855" lon="-5.7348112">
        <ele>1402.86</ele>
        <time>2020-07-21T09:47:53.000Z</time>
      </trkpt>
      <trkpt lat="42.9598633" lon="-5.7348042">
        <ele>1402.86</ele>
        <time>2020-07-21T09:47:54.000Z</time>
      </trkpt>
      <trkpt lat="42.959873" lon="-5.7347973">
        <ele>1402.86</ele>
        <time>2020-07-21T09:47:55.000Z</time>
      </trkpt>
      <trkpt lat="42.959882" lon="-5.7347913">
        <ele>1402.86</ele>
        <time>2020-07-21T09:47:56.000Z</time>
      </trkpt>
      <trkpt lat="42.95989" lon="-5.7347872">
        <ele>1402.71</ele>
        <time>2020-07-21T09:47:57.000Z</time>
      </trkpt>
      <trkpt lat="42.959899" lon="-5.7347823">
        <ele>1402.71</ele>
        <time>2020-07-21T09:47:58.000Z</time>
      </trkpt>
      <trkpt lat="42.959908" lon="-5.7347747">
        <ele>1402.71</ele>
        <time>2020-07-21T09:47:59.000Z</time>
      </trkpt>
      <trkpt lat="42.959917" lon="-5.7347663">
        <ele>1402.71</ele>
        <time>2020-07-21T09:48:00.000Z</time>
      </trkpt>
      <trkpt lat="42.9599232" lon="-5.7347588">
        <ele>1402.71</ele>
        <time>2020-07-21T09:48:01.000Z</time>
      </trkpt>
      <trkpt lat="42.9599292" lon="-5.734752">
        <ele>1402.71</ele>
        <time>2020-07-21T09:48:02.000Z</time>
      </trkpt>
      <trkpt lat="42.9599375" lon="-5.734742">
        <ele>1402.71</ele>
        <time>2020-07-21T09:48:03.000Z</time>
      </trkpt>
      <trkpt lat="42.959948" lon="-5.7347293">
        <ele>1402.71</ele>
        <time>2020-07-21T09:48:04.000Z</time>
      </trkpt>
      <trkpt lat="42.959959" lon="-5.7347198">
        <ele>1402.71</ele>
        <time>2020-07-21T09:48:05.000Z</time>
      </trkpt>
      <trkpt lat="42.9599693" lon="-5.73471">
        <ele>1402.71</ele>
        <time>2020-07-21T09:48:06.000Z</time>
      </trkpt>
      <trkpt lat="42.959977" lon="-5.7346988">
        <ele>1402.71</ele>
        <time>2020-07-21T09:48:07.000Z</time>
      </trkpt>
      <trkpt lat="42.9599835" lon="-5.7346863">
        <ele>1402.71</ele>
        <time>2020-07-21T09:48:08.000Z</time>
      </trkpt>
      <trkpt lat="42.9599913" lon="-5.734676">
        <ele>1402.71</ele>
        <time>2020-07-21T09:48:09.000Z</time>
      </trkpt>
      <trkpt lat="42.9599965" lon="-5.7346693">
        <ele>1402.71</ele>
        <time>2020-07-21T09:48:10.000Z</time>
      </trkpt>
      <trkpt lat="42.9600025" lon="-5.734663">
        <ele>1402.55</ele>
        <time>2020-07-21T09:48:11.000Z</time>
      </trkpt>
      <trkpt lat="42.9600078" lon="-5.7346565">
        <ele>1402.55</ele>
        <time>2020-07-21T09:48:12.000Z</time>
      </trkpt>
      <trkpt lat="42.9600187" lon="-5.7346482">
        <ele>1402.55</ele>
        <time>2020-07-21T09:48:13.000Z</time>
      </trkpt>
      <trkpt lat="42.9600293" lon="-5.7346393">
        <ele>1402.55</ele>
        <time>2020-07-21T09:48:14.000Z</time>
      </trkpt>
      <trkpt lat="42.9600388" lon="-5.7346303">
        <ele>1402.55</ele>
        <time>2020-07-21T09:48:15.000Z</time>
      </trkpt>
      <trkpt lat="42.9600485" lon="-5.7346217">
        <ele>1402.55</ele>
        <time>2020-07-21T09:48:16.000Z</time>
      </trkpt>
      <trkpt lat="42.9600572" lon="-5.7346105">
        <ele>1402.55</ele>
        <time>2020-07-21T09:48:17.000Z</time>
      </trkpt>
      <trkpt lat="42.9600655" lon="-5.7345997">
        <ele>1402.55</ele>
        <time>2020-07-21T09:48:18.000Z</time>
      </trkpt>
      <trkpt lat="42.9600737" lon="-5.7345883">
        <ele>1402.55</ele>
        <time>2020-07-21T09:48:19.000Z</time>
      </trkpt>
      <trkpt lat="42.9600833" lon="-5.7345783">
        <ele>1402.55</ele>
        <time>2020-07-21T09:48:20.000Z</time>
      </trkpt>
      <trkpt lat="42.960093" lon="-5.7345683">
        <ele>1402.71</ele>
        <time>2020-07-21T09:48:21.000Z</time>
      </trkpt>
      <trkpt lat="42.9601037" lon="-5.7345592">
        <ele>1402.71</ele>
        <time>2020-07-21T09:48:22.000Z</time>
      </trkpt>
      <trkpt lat="42.960114" lon="-5.7345517">
        <ele>1402.71</ele>
        <time>2020-07-21T09:48:23.000Z</time>
      </trkpt>
      <trkpt lat="42.9601263" lon="-5.734542">
        <ele>1402.71</ele>
        <time>2020-07-21T09:48:24.000Z</time>
      </trkpt>
      <trkpt lat="42.9601383" lon="-5.7345317">
        <ele>1402.71</ele>
        <time>2020-07-21T09:48:25.000Z</time>
      </trkpt>
      <trkpt lat="42.9601505" lon="-5.7345208">
        <ele>1402.71</ele>
        <time>2020-07-21T09:48:26.000Z</time>
      </trkpt>
      <trkpt lat="42.9601612" lon="-5.7345122">
        <ele>1402.86</ele>
        <time>2020-07-21T09:48:27.000Z</time>
      </trkpt>
      <trkpt lat="42.960171" lon="-5.734505">
        <ele>1402.86</ele>
        <time>2020-07-21T09:48:28.000Z</time>
      </trkpt>
      <trkpt lat="42.9601813" lon="-5.734498">
        <ele>1402.86</ele>
        <time>2020-07-21T09:48:29.000Z</time>
      </trkpt>
      <trkpt lat="42.9601922" lon="-5.7344907">
        <ele>1402.86</ele>
        <time>2020-07-21T09:48:30.000Z</time>
      </trkpt>
      <trkpt lat="42.9602035" lon="-5.7344825">
        <ele>1402.86</ele>
        <time>2020-07-21T09:48:31.000Z</time>
      </trkpt>
      <trkpt lat="42.9602143" lon="-5.7344742">
        <ele>1402.86</ele>
        <time>2020-07-21T09:48:32.000Z</time>
      </trkpt>
      <trkpt lat="42.9602242" lon="-5.7344645">
        <ele>1403.01</ele>
        <time>2020-07-21T09:48:33.000Z</time>
      </trkpt>
      <trkpt lat="42.9602338" lon="-5.734454">
        <ele>1403.01</ele>
        <time>2020-07-21T09:48:34.000Z</time>
      </trkpt>
      <trkpt lat="42.9602433" lon="-5.7344422">
        <ele>1403.01</ele>
        <time>2020-07-21T09:48:35.000Z</time>
      </trkpt>
      <trkpt lat="42.960253" lon="-5.734431">
        <ele>1403.01</ele>
        <time>2020-07-21T09:48:36.000Z</time>
      </trkpt>
      <trkpt lat="42.9602625" lon="-5.7344208">
        <ele>1403.16</ele>
        <time>2020-07-21T09:48:37.000Z</time>
      </trkpt>
      <trkpt lat="42.9602725" lon="-5.7344127">
        <ele>1403.16</ele>
        <time>2020-07-21T09:48:38.000Z</time>
      </trkpt>
      <trkpt lat="42.9602833" lon="-5.7344047">
        <ele>1403.16</ele>
        <time>2020-07-21T09:48:39.000Z</time>
      </trkpt>
      <trkpt lat="42.9602947" lon="-5.7343963">
        <ele>1403.16</ele>
        <time>2020-07-21T09:48:40.000Z</time>
      </trkpt>
      <trkpt lat="42.9603055" lon="-5.7343868">
        <ele>1403.32</ele>
        <time>2020-07-21T09:48:41.000Z</time>
      </trkpt>
      <trkpt lat="42.9603157" lon="-5.7343772">
        <ele>1403.32</ele>
        <time>2020-07-21T09:48:42.000Z</time>
      </trkpt>
      <trkpt lat="42.9603255" lon="-5.7343673">
        <ele>1403.47</ele>
        <time>2020-07-21T09:48:43.000Z</time>
      </trkpt>
      <trkpt lat="42.9603355" lon="-5.7343577">
        <ele>1403.47</ele>
        <time>2020-07-21T09:48:44.000Z</time>
      </trkpt>
      <trkpt lat="42.960345" lon="-5.7343468">
        <ele>1403.47</ele>
        <time>2020-07-21T09:48:45.000Z</time>
      </trkpt>
      <trkpt lat="42.9603542" lon="-5.7343352">
        <ele>1403.47</ele>
        <time>2020-07-21T09:48:46.000Z</time>
      </trkpt>
      <trkpt lat="42.9603627" lon="-5.7343233">
        <ele>1403.62</ele>
        <time>2020-07-21T09:48:47.000Z</time>
      </trkpt>
      <trkpt lat="42.960371" lon="-5.7343115">
        <ele>1403.62</ele>
        <time>2020-07-21T09:48:48.000Z</time>
      </trkpt>
      <trkpt lat="42.9603798" lon="-5.7343">
        <ele>1403.62</ele>
        <time>2020-07-21T09:48:49.000Z</time>
      </trkpt>
      <trkpt lat="42.9603885" lon="-5.7342875">
        <ele>1403.62</ele>
        <time>2020-07-21T09:48:50.000Z</time>
      </trkpt>
      <trkpt lat="42.9603968" lon="-5.734275">
        <ele>1403.77</ele>
        <time>2020-07-21T09:48:51.000Z</time>
      </trkpt>
      <trkpt lat="42.9604045" lon="-5.7342633">
        <ele>1403.77</ele>
        <time>2020-07-21T09:48:52.000Z</time>
      </trkpt>
      <trkpt lat="42.9604122" lon="-5.7342537">
        <ele>1403.93</ele>
        <time>2020-07-21T09:48:53.000Z</time>
      </trkpt>
      <trkpt lat="42.9604208" lon="-5.734245">
        <ele>1403.93</ele>
        <time>2020-07-21T09:48:54.000Z</time>
      </trkpt>
      <trkpt lat="42.9604305" lon="-5.7342365">
        <ele>1403.93</ele>
        <time>2020-07-21T09:48:55.000Z</time>
      </trkpt>
      <trkpt lat="42.960441" lon="-5.7342273">
        <ele>1403.93</ele>
        <time>2020-07-21T09:48:56.000Z</time>
      </trkpt>
      <trkpt lat="42.9604515" lon="-5.7342187">
        <ele>1404.08</ele>
        <time>2020-07-21T09:48:57.000Z</time>
      </trkpt>
      <trkpt lat="42.9604618" lon="-5.7342108">
        <ele>1404.08</ele>
        <time>2020-07-21T09:48:58.000Z</time>
      </trkpt>
      <trkpt lat="42.9604717" lon="-5.7342033">
        <ele>1404.08</ele>
        <time>2020-07-21T09:48:59.000Z</time>
      </trkpt>
      <trkpt lat="42.9604812" lon="-5.7341953">
        <ele>1404.08</ele>
        <time>2020-07-21T09:49:00.000Z</time>
      </trkpt>
      <trkpt lat="42.9604898" lon="-5.7341858">
        <ele>1404.23</ele>
        <time>2020-07-21T09:49:01.000Z</time>
      </trkpt>
      <trkpt lat="42.9604978" lon="-5.7341748">
        <ele>1404.23</ele>
        <time>2020-07-21T09:49:02.000Z</time>
      </trkpt>
      <trkpt lat="42.9605062" lon="-5.7341628">
        <ele>1404.38</ele>
        <time>2020-07-21T09:49:03.000Z</time>
      </trkpt>
      <trkpt lat="42.9605142" lon="-5.7341502">
        <ele>1404.38</ele>
        <time>2020-07-21T09:49:04.000Z</time>
      </trkpt>
      <trkpt lat="42.9605213" lon="-5.7341377">
        <ele>1404.38</ele>
        <time>2020-07-21T09:49:05.000Z</time>
      </trkpt>
      <trkpt lat="42.9605273" lon="-5.7341248">
        <ele>1404.38</ele>
        <time>2020-07-21T09:49:06.000Z</time>
      </trkpt>
      <trkpt lat="42.9605332" lon="-5.7341127">
        <ele>1404.54</ele>
        <time>2020-07-21T09:49:07.000Z</time>
      </trkpt>
      <trkpt lat="42.96054" lon="-5.734101">
        <ele>1404.54</ele>
        <time>2020-07-21T09:49:08.000Z</time>
      </trkpt>
      <trkpt lat="42.960547" lon="-5.7340907">
        <ele>1404.54</ele>
        <time>2020-07-21T09:49:09.000Z</time>
      </trkpt>
      <trkpt lat="42.960554" lon="-5.7340803">
        <ele>1404.54</ele>
        <time>2020-07-21T09:49:10.000Z</time>
      </trkpt>
      <trkpt lat="42.960561" lon="-5.7340708">
        <ele>1404.69</ele>
        <time>2020-07-21T09:49:11.000Z</time>
      </trkpt>
      <trkpt lat="42.9605685" lon="-5.734061">
        <ele>1404.69</ele>
        <time>2020-07-21T09:49:12.000Z</time>
      </trkpt>
      <trkpt lat="42.9605773" lon="-5.7340522">
        <ele>1404.69</ele>
        <time>2020-07-21T09:49:13.000Z</time>
      </trkpt>
      <trkpt lat="42.9605873" lon="-5.7340428">
        <ele>1404.69</ele>
        <time>2020-07-21T09:49:14.000Z</time>
      </trkpt>
      <trkpt lat="42.9605963" lon="-5.7340328">
        <ele>1404.84</ele>
        <time>2020-07-21T09:49:15.000Z</time>
      </trkpt>
      <trkpt lat="42.9606047" lon="-5.7340223">
        <ele>1404.84</ele>
        <time>2020-07-21T09:49:16.000Z</time>
      </trkpt>
      <trkpt lat="42.960613" lon="-5.7340115">
        <ele>1404.84</ele>
        <time>2020-07-21T09:49:17.000Z</time>
      </trkpt>
      <trkpt lat="42.9606217" lon="-5.7340012">
        <ele>1404.84</ele>
        <time>2020-07-21T09:49:18.000Z</time>
      </trkpt>
      <trkpt lat="42.9606288" lon="-5.7339928">
        <ele>1404.99</ele>
        <time>2020-07-21T09:49:19.000Z</time>
      </trkpt>
      <trkpt lat="42.9606337" lon="-5.7339883">
        <ele>1404.99</ele>
        <time>2020-07-21T09:49:20.000Z</time>
      </trkpt>
      <trkpt lat="42.9606363" lon="-5.7339868">
        <ele>1405.15</ele>
        <time>2020-07-21T09:49:21.000Z</time>
      </trkpt>
      <trkpt lat="42.9606388" lon="-5.7339853">
        <ele>1405.15</ele>
        <time>2020-07-21T09:49:22.000Z</time>
      </trkpt>
      <trkpt lat="42.9606418" lon="-5.7339818">
        <ele>1405.15</ele>
        <time>2020-07-21T09:49:23.000Z</time>
      </trkpt>
      <trkpt lat="42.9606482" lon="-5.7339755">
        <ele>1405.15</ele>
        <time>2020-07-21T09:49:24.000Z</time>
      </trkpt>
      <trkpt lat="42.9606568" lon="-5.7339645">
        <ele>1405.3</ele>
        <time>2020-07-21T09:49:25.000Z</time>
      </trkpt>
      <trkpt lat="42.960666" lon="-5.7339535">
        <ele>1405.3</ele>
        <time>2020-07-21T09:49:26.000Z</time>
      </trkpt>
      <trkpt lat="42.9606738" lon="-5.7339438">
        <ele>1405.3</ele>
        <time>2020-07-21T09:49:27.000Z</time>
      </trkpt>
      <trkpt lat="42.9606815" lon="-5.7339358">
        <ele>1405.3</ele>
        <time>2020-07-21T09:49:28.000Z</time>
      </trkpt>
      <trkpt lat="42.9606908" lon="-5.7339258">
        <ele>1405.45</ele>
        <time>2020-07-21T09:49:29.000Z</time>
      </trkpt>
      <trkpt lat="42.960699" lon="-5.7339162">
        <ele>1405.45</ele>
        <time>2020-07-21T09:49:30.000Z</time>
      </trkpt>
      <trkpt lat="42.9607095" lon="-5.7339053">
        <ele>1405.6</ele>
        <time>2020-07-21T09:49:31.000Z</time>
      </trkpt>
      <trkpt lat="42.9607208" lon="-5.7338972">
        <ele>1405.6</ele>
        <time>2020-07-21T09:49:32.000Z</time>
      </trkpt>
      <trkpt lat="42.9607338" lon="-5.7338895">
        <ele>1405.76</ele>
        <time>2020-07-21T09:49:33.000Z</time>
      </trkpt>
      <trkpt lat="42.9607432" lon="-5.7338838">
        <ele>1405.76</ele>
        <time>2020-07-21T09:49:34.000Z</time>
      </trkpt>
      <trkpt lat="42.9607495" lon="-5.7338762">
        <ele>1405.91</ele>
        <time>2020-07-21T09:49:35.000Z</time>
      </trkpt>
      <trkpt lat="42.960754" lon="-5.7338678">
        <ele>1405.91</ele>
        <time>2020-07-21T09:49:36.000Z</time>
      </trkpt>
      <trkpt lat="42.9607555" lon="-5.7338617">
        <ele>1405.91</ele>
        <time>2020-07-21T09:49:37.000Z</time>
      </trkpt>
      <trkpt lat="42.9607552" lon="-5.7338587">
        <ele>1405.91</ele>
        <time>2020-07-21T09:49:38.000Z</time>
      </trkpt>
      <trkpt lat="42.9607535" lon="-5.7338585">
        <ele>1406.06</ele>
        <time>2020-07-21T09:49:39.000Z</time>
      </trkpt>
      <trkpt lat="42.9607527" lon="-5.7338588">
        <ele>1406.06</ele>
        <time>2020-07-21T09:49:40.000Z</time>
      </trkpt>
      <trkpt lat="42.9607528" lon="-5.7338583">
        <ele>1406.21</ele>
        <time>2020-07-21T09:49:41.000Z</time>
      </trkpt>
      <trkpt lat="42.9607532" lon="-5.7338585">
        <ele>1406.21</ele>
        <time>2020-07-21T09:49:42.000Z</time>
      </trkpt>
      <trkpt lat="42.9607547" lon="-5.7338572">
        <ele>1406.36</ele>
        <time>2020-07-21T09:49:43.000Z</time>
      </trkpt>
      <trkpt lat="42.9607583" lon="-5.7338552">
        <ele>1406.36</ele>
        <time>2020-07-21T09:49:44.000Z</time>
      </trkpt>
      <trkpt lat="42.9607655" lon="-5.7338497">
        <ele>1406.52</ele>
        <time>2020-07-21T09:49:45.000Z</time>
      </trkpt>
      <trkpt lat="42.960774" lon="-5.7338435">
        <ele>1406.52</ele>
        <time>2020-07-21T09:49:46.000Z</time>
      </trkpt>
      <trkpt lat="42.9607832" lon="-5.7338365">
        <ele>1406.67</ele>
        <time>2020-07-21T09:49:47.000Z</time>
      </trkpt>
      <trkpt lat="42.9607928" lon="-5.7338312">
        <ele>1406.67</ele>
        <time>2020-07-21T09:49:48.000Z</time>
      </trkpt>
      <trkpt lat="42.960804" lon="-5.7338267">
        <ele>1406.82</ele>
        <time>2020-07-21T09:49:49.000Z</time>
      </trkpt>
      <trkpt lat="42.9608162" lon="-5.7338237">
        <ele>1406.82</ele>
        <time>2020-07-21T09:49:50.000Z</time>
      </trkpt>
      <trkpt lat="42.9608277" lon="-5.7338218">
        <ele>1406.97</ele>
        <time>2020-07-21T09:49:51.000Z</time>
      </trkpt>
      <trkpt lat="42.9608402" lon="-5.7338218">
        <ele>1406.97</ele>
        <time>2020-07-21T09:49:52.000Z</time>
      </trkpt>
      <trkpt lat="42.960853" lon="-5.7338225">
        <ele>1407.13</ele>
        <time>2020-07-21T09:49:53.000Z</time>
      </trkpt>
      <trkpt lat="42.960867" lon="-5.7338217">
        <ele>1407.13</ele>
        <time>2020-07-21T09:49:54.000Z</time>
      </trkpt>
      <trkpt lat="42.9608797" lon="-5.73382">
        <ele>1407.28</ele>
        <time>2020-07-21T09:49:55.000Z</time>
      </trkpt>
      <trkpt lat="42.9608918" lon="-5.7338182">
        <ele>1407.28</ele>
        <time>2020-07-21T09:49:56.000Z</time>
      </trkpt>
      <trkpt lat="42.9609027" lon="-5.7338182">
        <ele>1407.43</ele>
        <time>2020-07-21T09:49:57.000Z</time>
      </trkpt>
      <trkpt lat="42.9609133" lon="-5.7338183">
        <ele>1407.43</ele>
        <time>2020-07-21T09:49:58.000Z</time>
      </trkpt>
      <trkpt lat="42.9609233" lon="-5.7338185">
        <ele>1407.58</ele>
        <time>2020-07-21T09:49:59.000Z</time>
      </trkpt>
      <trkpt lat="42.960934" lon="-5.733817">
        <ele>1407.58</ele>
        <time>2020-07-21T09:50:00.000Z</time>
      </trkpt>
      <trkpt lat="42.9609443" lon="-5.7338142">
        <ele>1407.74</ele>
        <time>2020-07-21T09:50:01.000Z</time>
      </trkpt>
      <trkpt lat="42.9609532" lon="-5.7338105">
        <ele>1407.74</ele>
        <time>2020-07-21T09:50:02.000Z</time>
      </trkpt>
      <trkpt lat="42.9609618" lon="-5.7338088">
        <ele>1407.89</ele>
        <time>2020-07-21T09:50:03.000Z</time>
      </trkpt>
      <trkpt lat="42.9609715" lon="-5.7338093">
        <ele>1407.89</ele>
        <time>2020-07-21T09:50:04.000Z</time>
      </trkpt>
      <trkpt lat="42.9609823" lon="-5.7338113">
        <ele>1408.04</ele>
        <time>2020-07-21T09:50:05.000Z</time>
      </trkpt>
      <trkpt lat="42.9609922" lon="-5.7338135">
        <ele>1408.04</ele>
        <time>2020-07-21T09:50:06.000Z</time>
      </trkpt>
      <trkpt lat="42.9610012" lon="-5.7338167">
        <ele>1408.34</ele>
        <time>2020-07-21T09:50:07.000Z</time>
      </trkpt>
      <trkpt lat="42.9610112" lon="-5.7338202">
        <ele>1408.34</ele>
        <time>2020-07-21T09:50:08.000Z</time>
      </trkpt>
      <trkpt lat="42.9610213" lon="-5.7338245">
        <ele>1408.5</ele>
        <time>2020-07-21T09:50:09.000Z</time>
      </trkpt>
      <trkpt lat="42.9610315" lon="-5.733828">
        <ele>1408.5</ele>
        <time>2020-07-21T09:50:10.000Z</time>
      </trkpt>
      <trkpt lat="42.9610412" lon="-5.7338315">
        <ele>1408.65</ele>
        <time>2020-07-21T09:50:11.000Z</time>
      </trkpt>
      <trkpt lat="42.9610515" lon="-5.7338345">
        <ele>1408.65</ele>
        <time>2020-07-21T09:50:12.000Z</time>
      </trkpt>
      <trkpt lat="42.961061" lon="-5.7338385">
        <ele>1408.95</ele>
        <time>2020-07-21T09:50:13.000Z</time>
      </trkpt>
      <trkpt lat="42.9610707" lon="-5.7338422">
        <ele>1408.95</ele>
        <time>2020-07-21T09:50:14.000Z</time>
      </trkpt>
      <trkpt lat="42.9610802" lon="-5.7338462">
        <ele>1409.11</ele>
        <time>2020-07-21T09:50:15.000Z</time>
      </trkpt>
      <trkpt lat="42.9610912" lon="-5.7338483">
        <ele>1409.11</ele>
        <time>2020-07-21T09:50:16.000Z</time>
      </trkpt>
      <trkpt lat="42.9611027" lon="-5.7338517">
        <ele>1409.26</ele>
        <time>2020-07-21T09:50:17.000Z</time>
      </trkpt>
      <trkpt lat="42.9611148" lon="-5.7338528">
        <ele>1409.26</ele>
        <time>2020-07-21T09:50:18.000Z</time>
      </trkpt>
      <trkpt lat="42.9611268" lon="-5.7338553">
        <ele>1409.56</ele>
        <time>2020-07-21T09:50:19.000Z</time>
      </trkpt>
      <trkpt lat="42.9611403" lon="-5.7338577">
        <ele>1409.56</ele>
        <time>2020-07-21T09:50:20.000Z</time>
      </trkpt>
      <trkpt lat="42.9611513" lon="-5.7338617">
        <ele>1409.72</ele>
        <time>2020-07-21T09:50:21.000Z</time>
      </trkpt>
      <trkpt lat="42.9611615" lon="-5.7338663">
        <ele>1409.72</ele>
        <time>2020-07-21T09:50:22.000Z</time>
      </trkpt>
      <trkpt lat="42.9611697" lon="-5.7338715">
        <ele>1409.87</ele>
        <time>2020-07-21T09:50:23.000Z</time>
      </trkpt>
      <trkpt lat="42.9611782" lon="-5.7338787">
        <ele>1409.87</ele>
        <time>2020-07-21T09:50:24.000Z</time>
      </trkpt>
      <trkpt lat="42.9611863" lon="-5.7338862">
        <ele>1410.17</ele>
        <time>2020-07-21T09:50:25.000Z</time>
      </trkpt>
      <trkpt lat="42.961194" lon="-5.7338938">
        <ele>1410.17</ele>
        <time>2020-07-21T09:50:26.000Z</time>
      </trkpt>
      <trkpt lat="42.9612035" lon="-5.7339008">
        <ele>1410.33</ele>
        <time>2020-07-21T09:50:27.000Z</time>
      </trkpt>
      <trkpt lat="42.9612133" lon="-5.733908">
        <ele>1410.33</ele>
        <time>2020-07-21T09:50:28.000Z</time>
      </trkpt>
      <trkpt lat="42.9612233" lon="-5.7339157">
        <ele>1410.63</ele>
        <time>2020-07-21T09:50:29.000Z</time>
      </trkpt>
      <trkpt lat="42.961232" lon="-5.7339233">
        <ele>1410.63</ele>
        <time>2020-07-21T09:50:30.000Z</time>
      </trkpt>
      <trkpt lat="42.961239" lon="-5.7339293">
        <ele>1410.78</ele>
        <time>2020-07-21T09:50:31.000Z</time>
      </trkpt>
      <trkpt lat="42.9612395" lon="-5.7339347">
        <ele>1410.78</ele>
        <time>2020-07-21T09:50:32.000Z</time>
      </trkpt>
      <trkpt lat="42.9612363" lon="-5.7339377">
        <ele>1411.09</ele>
        <time>2020-07-21T09:50:33.000Z</time>
      </trkpt>
      <trkpt lat="42.9612312" lon="-5.7339405">
        <ele>1411.09</ele>
        <time>2020-07-21T09:50:34.000Z</time>
      </trkpt>
      <trkpt lat="42.9612293" lon="-5.7339413">
        <ele>1411.24</ele>
        <time>2020-07-21T09:50:35.000Z</time>
      </trkpt>
      <trkpt lat="42.9612282" lon="-5.7339425">
        <ele>1411.24</ele>
        <time>2020-07-21T09:50:36.000Z</time>
      </trkpt>
      <trkpt lat="42.9612273" lon="-5.7339437">
        <ele>1411.55</ele>
        <time>2020-07-21T09:50:37.000Z</time>
      </trkpt>
      <trkpt lat="42.9612262" lon="-5.733945">
        <ele>1411.55</ele>
        <time>2020-07-21T09:50:38.000Z</time>
      </trkpt>
      <trkpt lat="42.9612245" lon="-5.7339462">
        <ele>1411.7</ele>
        <time>2020-07-21T09:50:39.000Z</time>
      </trkpt>
      <trkpt lat="42.961223" lon="-5.7339475">
        <ele>1411.7</ele>
        <time>2020-07-21T09:50:40.000Z</time>
      </trkpt>
      <trkpt lat="42.9612218" lon="-5.733948">
        <ele>1412</ele>
        <time>2020-07-21T09:50:41.000Z</time>
      </trkpt>
      <trkpt lat="42.9612208" lon="-5.7339483">
        <ele>1412</ele>
        <time>2020-07-21T09:50:42.000Z</time>
      </trkpt>
      <trkpt lat="42.9612195" lon="-5.7339475">
        <ele>1412.16</ele>
        <time>2020-07-21T09:50:43.000Z</time>
      </trkpt>
      <trkpt lat="42.961219" lon="-5.7339472">
        <ele>1412.16</ele>
        <time>2020-07-21T09:50:44.000Z</time>
      </trkpt>
      <trkpt lat="42.9612212" lon="-5.7339483">
        <ele>1412.46</ele>
        <time>2020-07-21T09:50:45.000Z</time>
      </trkpt>
      <trkpt lat="42.9612247" lon="-5.7339522">
        <ele>1412.46</ele>
        <time>2020-07-21T09:50:46.000Z</time>
      </trkpt>
      <trkpt lat="42.9612297" lon="-5.7339578">
        <ele>1412.61</ele>
        <time>2020-07-21T09:50:47.000Z</time>
      </trkpt>
      <trkpt lat="42.9612332" lon="-5.7339633">
        <ele>1412.61</ele>
        <time>2020-07-21T09:50:48.000Z</time>
      </trkpt>
      <trkpt lat="42.9612352" lon="-5.7339677">
        <ele>1412.77</ele>
        <time>2020-07-21T09:50:49.000Z</time>
      </trkpt>
      <trkpt lat="42.9612373" lon="-5.7339735">
        <ele>1412.77</ele>
        <time>2020-07-21T09:50:50.000Z</time>
      </trkpt>
      <trkpt lat="42.9612388" lon="-5.7339833">
        <ele>1413.07</ele>
        <time>2020-07-21T09:50:51.000Z</time>
      </trkpt>
      <trkpt lat="42.9612408" lon="-5.7339982">
        <ele>1413.07</ele>
        <time>2020-07-21T09:50:52.000Z</time>
      </trkpt>
      <trkpt lat="42.9612423" lon="-5.734015">
        <ele>1413.22</ele>
        <time>2020-07-21T09:50:53.000Z</time>
      </trkpt>
      <trkpt lat="42.9612448" lon="-5.7340328">
        <ele>1413.22</ele>
        <time>2020-07-21T09:50:54.000Z</time>
      </trkpt>
      <trkpt lat="42.9612468" lon="-5.7340497">
        <ele>1413.38</ele>
        <time>2020-07-21T09:50:55.000Z</time>
      </trkpt>
      <trkpt lat="42.9612502" lon="-5.7340638">
        <ele>1413.38</ele>
        <time>2020-07-21T09:50:56.000Z</time>
      </trkpt>
      <trkpt lat="42.9612552" lon="-5.734076">
        <ele>1413.68</ele>
        <time>2020-07-21T09:50:57.000Z</time>
      </trkpt>
      <trkpt lat="42.961263" lon="-5.7340853">
        <ele>1413.68</ele>
        <time>2020-07-21T09:50:58.000Z</time>
      </trkpt>
      <trkpt lat="42.9612702" lon="-5.7340943">
        <ele>1413.83</ele>
        <time>2020-07-21T09:50:59.000Z</time>
      </trkpt>
      <trkpt lat="42.9612767" lon="-5.7341022">
        <ele>1413.83</ele>
        <time>2020-07-21T09:51:00.000Z</time>
      </trkpt>
      <trkpt lat="42.9612822" lon="-5.7341123">
        <ele>1413.98</ele>
        <time>2020-07-21T09:51:01.000Z</time>
      </trkpt>
      <trkpt lat="42.9612875" lon="-5.7341243">
        <ele>1413.98</ele>
        <time>2020-07-21T09:51:02.000Z</time>
      </trkpt>
      <trkpt lat="42.9612927" lon="-5.7341367">
        <ele>1414.14</ele>
        <time>2020-07-21T09:51:03.000Z</time>
      </trkpt>
      <trkpt lat="42.9612977" lon="-5.7341493">
        <ele>1414.14</ele>
        <time>2020-07-21T09:51:04.000Z</time>
      </trkpt>
      <trkpt lat="42.9613018" lon="-5.7341638">
        <ele>1414.44</ele>
        <time>2020-07-21T09:51:05.000Z</time>
      </trkpt>
      <trkpt lat="42.9613038" lon="-5.7341808">
        <ele>1414.44</ele>
        <time>2020-07-21T09:51:06.000Z</time>
      </trkpt>
      <trkpt lat="42.9613053" lon="-5.7341977">
        <ele>1414.59</ele>
        <time>2020-07-21T09:51:07.000Z</time>
      </trkpt>
      <trkpt lat="42.9613072" lon="-5.7342133">
        <ele>1414.59</ele>
        <time>2020-07-21T09:51:08.000Z</time>
      </trkpt>
      <trkpt lat="42.961311" lon="-5.7342282">
        <ele>1414.75</ele>
        <time>2020-07-21T09:51:09.000Z</time>
      </trkpt>
      <trkpt lat="42.9613153" lon="-5.7342428">
        <ele>1414.75</ele>
        <time>2020-07-21T09:51:10.000Z</time>
      </trkpt>
      <trkpt lat="42.9613193" lon="-5.7342563">
        <ele>1415.05</ele>
        <time>2020-07-21T09:51:11.000Z</time>
      </trkpt>
      <trkpt lat="42.9613228" lon="-5.7342688">
        <ele>1415.05</ele>
        <time>2020-07-21T09:51:12.000Z</time>
      </trkpt>
      <trkpt lat="42.9613263" lon="-5.7342822">
        <ele>1415.2</ele>
        <time>2020-07-21T09:51:13.000Z</time>
      </trkpt>
      <trkpt lat="42.9613307" lon="-5.7342958">
        <ele>1415.2</ele>
        <time>2020-07-21T09:51:14.000Z</time>
      </trkpt>
      <trkpt lat="42.961335" lon="-5.7343093">
        <ele>1415.36</ele>
        <time>2020-07-21T09:51:15.000Z</time>
      </trkpt>
      <trkpt lat="42.9613393" lon="-5.7343223">
        <ele>1415.36</ele>
        <time>2020-07-21T09:51:16.000Z</time>
      </trkpt>
      <trkpt lat="42.9613435" lon="-5.7343355">
        <ele>1415.66</ele>
        <time>2020-07-21T09:51:17.000Z</time>
      </trkpt>
      <trkpt lat="42.9613483" lon="-5.734349">
        <ele>1415.66</ele>
        <time>2020-07-21T09:51:18.000Z</time>
      </trkpt>
      <trkpt lat="42.9613535" lon="-5.7343623">
        <ele>1415.81</ele>
        <time>2020-07-21T09:51:19.000Z</time>
      </trkpt>
      <trkpt lat="42.9613582" lon="-5.7343755">
        <ele>1415.81</ele>
        <time>2020-07-21T09:51:20.000Z</time>
      </trkpt>
      <trkpt lat="42.9613622" lon="-5.7343892">
        <ele>1416.12</ele>
        <time>2020-07-21T09:51:21.000Z</time>
      </trkpt>
      <trkpt lat="42.9613653" lon="-5.734403">
        <ele>1416.12</ele>
        <time>2020-07-21T09:51:22.000Z</time>
      </trkpt>
      <trkpt lat="42.9613697" lon="-5.7344163">
        <ele>1416.27</ele>
        <time>2020-07-21T09:51:23.000Z</time>
      </trkpt>
      <trkpt lat="42.9613747" lon="-5.7344288">
        <ele>1416.27</ele>
        <time>2020-07-21T09:51:24.000Z</time>
      </trkpt>
      <trkpt lat="42.9613787" lon="-5.7344405">
        <ele>1416.57</ele>
        <time>2020-07-21T09:51:25.000Z</time>
      </trkpt>
      <trkpt lat="42.9613825" lon="-5.734454">
        <ele>1416.57</ele>
        <time>2020-07-21T09:51:26.000Z</time>
      </trkpt>
      <trkpt lat="42.961386" lon="-5.7344665">
        <ele>1416.73</ele>
        <time>2020-07-21T09:51:27.000Z</time>
      </trkpt>
      <trkpt lat="42.9613905" lon="-5.7344795">
        <ele>1416.73</ele>
        <time>2020-07-21T09:51:28.000Z</time>
      </trkpt>
      <trkpt lat="42.9613948" lon="-5.7344903">
        <ele>1417.03</ele>
        <time>2020-07-21T09:51:29.000Z</time>
      </trkpt>
      <trkpt lat="42.9613978" lon="-5.7345012">
        <ele>1417.03</ele>
        <time>2020-07-21T09:51:30.000Z</time>
      </trkpt>
      <trkpt lat="42.961401" lon="-5.7345118">
        <ele>1417.19</ele>
        <time>2020-07-21T09:51:31.000Z</time>
      </trkpt>
      <trkpt lat="42.9614042" lon="-5.7345238">
        <ele>1417.19</ele>
        <time>2020-07-21T09:51:32.000Z</time>
      </trkpt>
      <trkpt lat="42.9614108" lon="-5.7345347">
        <ele>1417.49</ele>
        <time>2020-07-21T09:51:33.000Z</time>
      </trkpt>
      <trkpt lat="42.9614177" lon="-5.7345457">
        <ele>1417.49</ele>
        <time>2020-07-21T09:51:34.000Z</time>
      </trkpt>
      <trkpt lat="42.9614247" lon="-5.7345552">
        <ele>1417.64</ele>
        <time>2020-07-21T09:51:35.000Z</time>
      </trkpt>
      <trkpt lat="42.9614288" lon="-5.7345673">
        <ele>1417.64</ele>
        <time>2020-07-21T09:51:36.000Z</time>
      </trkpt>
      <trkpt lat="42.9614328" lon="-5.734579">
        <ele>1417.95</ele>
        <time>2020-07-21T09:51:37.000Z</time>
      </trkpt>
      <trkpt lat="42.961436" lon="-5.7345908">
        <ele>1417.95</ele>
        <time>2020-07-21T09:51:38.000Z</time>
      </trkpt>
      <trkpt lat="42.9614388" lon="-5.7346028">
        <ele>1418.25</ele>
        <time>2020-07-21T09:51:39.000Z</time>
      </trkpt>
      <trkpt lat="42.961441" lon="-5.734615">
        <ele>1418.25</ele>
        <time>2020-07-21T09:51:40.000Z</time>
      </trkpt>
      <trkpt lat="42.9614398" lon="-5.7346257">
        <ele>1418.4</ele>
        <time>2020-07-21T09:51:41.000Z</time>
      </trkpt>
      <trkpt lat="42.961438" lon="-5.7346362">
        <ele>1418.4</ele>
        <time>2020-07-21T09:51:42.000Z</time>
      </trkpt>
      <trkpt lat="42.9614367" lon="-5.7346468">
        <ele>1418.71</ele>
        <time>2020-07-21T09:51:43.000Z</time>
      </trkpt>
      <trkpt lat="42.9614398" lon="-5.7346575">
        <ele>1418.71</ele>
        <time>2020-07-21T09:51:44.000Z</time>
      </trkpt>
      <trkpt lat="42.9614438" lon="-5.7346678">
        <ele>1419.01</ele>
        <time>2020-07-21T09:51:45.000Z</time>
      </trkpt>
      <trkpt lat="42.9614463" lon="-5.7346782">
        <ele>1419.01</ele>
        <time>2020-07-21T09:51:46.000Z</time>
      </trkpt>
      <trkpt lat="42.9614488" lon="-5.7346907">
        <ele>1419.32</ele>
        <time>2020-07-21T09:51:47.000Z</time>
      </trkpt>
      <trkpt lat="42.9614508" lon="-5.7347028">
        <ele>1419.32</ele>
        <time>2020-07-21T09:51:48.000Z</time>
      </trkpt>
      <trkpt lat="42.961455" lon="-5.734715">
        <ele>1419.47</ele>
        <time>2020-07-21T09:51:49.000Z</time>
      </trkpt>
      <trkpt lat="42.9614588" lon="-5.7347258">
        <ele>1419.47</ele>
        <time>2020-07-21T09:51:50.000Z</time>
      </trkpt>
      <trkpt lat="42.9614633" lon="-5.734736">
        <ele>1419.78</ele>
        <time>2020-07-21T09:51:51.000Z</time>
      </trkpt>
      <trkpt lat="42.961468" lon="-5.7347453">
        <ele>1419.78</ele>
        <time>2020-07-21T09:51:52.000Z</time>
      </trkpt>
      <trkpt lat="42.9614732" lon="-5.7347547">
        <ele>1420.08</ele>
        <time>2020-07-21T09:51:53.000Z</time>
      </trkpt>
      <trkpt lat="42.9614783" lon="-5.7347642">
        <ele>1420.08</ele>
        <time>2020-07-21T09:51:54.000Z</time>
      </trkpt>
      <trkpt lat="42.9614865" lon="-5.7347732">
        <ele>1420.39</ele>
        <time>2020-07-21T09:51:55.000Z</time>
      </trkpt>
      <trkpt lat="42.9614935" lon="-5.734784">
        <ele>1420.39</ele>
        <time>2020-07-21T09:51:56.000Z</time>
      </trkpt>
      <trkpt lat="42.9615003" lon="-5.7347957">
        <ele>1420.69</ele>
        <time>2020-07-21T09:51:57.000Z</time>
      </trkpt>
      <trkpt lat="42.9615037" lon="-5.7348088">
        <ele>1420.69</ele>
        <time>2020-07-21T09:51:58.000Z</time>
      </trkpt>
      <trkpt lat="42.9615077" lon="-5.7348192">
        <ele>1420.84</ele>
        <time>2020-07-21T09:51:59.000Z</time>
      </trkpt>
      <trkpt lat="42.961512" lon="-5.7348297">
        <ele>1420.84</ele>
        <time>2020-07-21T09:52:00.000Z</time>
      </trkpt>
      <trkpt lat="42.9615167" lon="-5.7348403">
        <ele>1421.15</ele>
        <time>2020-07-21T09:52:01.000Z</time>
      </trkpt>
      <trkpt lat="42.9615208" lon="-5.7348523">
        <ele>1421.15</ele>
        <time>2020-07-21T09:52:02.000Z</time>
      </trkpt>
      <trkpt lat="42.9615255" lon="-5.7348642">
        <ele>1421.45</ele>
        <time>2020-07-21T09:52:03.000Z</time>
      </trkpt>
      <trkpt lat="42.9615298" lon="-5.7348768">
        <ele>1421.45</ele>
        <time>2020-07-21T09:52:04.000Z</time>
      </trkpt>
      <trkpt lat="42.961534" lon="-5.7348898">
        <ele>1421.76</ele>
        <time>2020-07-21T09:52:05.000Z</time>
      </trkpt>
      <trkpt lat="42.9615378" lon="-5.734903">
        <ele>1421.76</ele>
        <time>2020-07-21T09:52:06.000Z</time>
      </trkpt>
      <trkpt lat="42.9615418" lon="-5.7349155">
        <ele>1421.91</ele>
        <time>2020-07-21T09:52:07.000Z</time>
      </trkpt>
      <trkpt lat="42.9615465" lon="-5.734928">
        <ele>1421.91</ele>
        <time>2020-07-21T09:52:08.000Z</time>
      </trkpt>
      <trkpt lat="42.9615507" lon="-5.7349407">
        <ele>1422.21</ele>
        <time>2020-07-21T09:52:09.000Z</time>
      </trkpt>
      <trkpt lat="42.9615548" lon="-5.734954">
        <ele>1422.21</ele>
        <time>2020-07-21T09:52:10.000Z</time>
      </trkpt>
      <trkpt lat="42.961559" lon="-5.7349673">
        <ele>1422.52</ele>
        <time>2020-07-21T09:52:11.000Z</time>
      </trkpt>
      <trkpt lat="42.9615635" lon="-5.7349808">
        <ele>1422.52</ele>
        <time>2020-07-21T09:52:12.000Z</time>
      </trkpt>
      <trkpt lat="42.9615682" lon="-5.7349938">
        <ele>1422.82</ele>
        <time>2020-07-21T09:52:13.000Z</time>
      </trkpt>
      <trkpt lat="42.9615732" lon="-5.7350072">
        <ele>1422.82</ele>
        <time>2020-07-21T09:52:14.000Z</time>
      </trkpt>
      <trkpt lat="42.9615782" lon="-5.7350213">
        <ele>1422.98</ele>
        <time>2020-07-21T09:52:15.000Z</time>
      </trkpt>
      <trkpt lat="42.9615815" lon="-5.7350362">
        <ele>1422.98</ele>
        <time>2020-07-21T09:52:16.000Z</time>
      </trkpt>
      <trkpt lat="42.9615832" lon="-5.7350507">
        <ele>1423.28</ele>
        <time>2020-07-21T09:52:17.000Z</time>
      </trkpt>
      <trkpt lat="42.9615833" lon="-5.735064">
        <ele>1423.28</ele>
        <time>2020-07-21T09:52:18.000Z</time>
      </trkpt>
      <trkpt lat="42.9615837" lon="-5.7350767">
        <ele>1423.59</ele>
        <time>2020-07-21T09:52:19.000Z</time>
      </trkpt>
      <trkpt lat="42.9615842" lon="-5.7350898">
        <ele>1423.59</ele>
        <time>2020-07-21T09:52:20.000Z</time>
      </trkpt>
      <trkpt lat="42.961585" lon="-5.7351027">
        <ele>1423.74</ele>
        <time>2020-07-21T09:52:21.000Z</time>
      </trkpt>
      <trkpt lat="42.961587" lon="-5.7351142">
        <ele>1423.74</ele>
        <time>2020-07-21T09:52:22.000Z</time>
      </trkpt>
      <trkpt lat="42.9615878" lon="-5.7351265">
        <ele>1424.04</ele>
        <time>2020-07-21T09:52:23.000Z</time>
      </trkpt>
      <trkpt lat="42.9615922" lon="-5.7351402">
        <ele>1424.04</ele>
        <time>2020-07-21T09:52:24.000Z</time>
      </trkpt>
      <trkpt lat="42.961596" lon="-5.735153">
        <ele>1424.19</ele>
        <time>2020-07-21T09:52:25.000Z</time>
      </trkpt>
      <trkpt lat="42.9616033" lon="-5.735163">
        <ele>1424.19</ele>
        <time>2020-07-21T09:52:26.000Z</time>
      </trkpt>
      <trkpt lat="42.9616093" lon="-5.7351703">
        <ele>1424.5</ele>
        <time>2020-07-21T09:52:27.000Z</time>
      </trkpt>
      <trkpt lat="42.961616" lon="-5.7351797">
        <ele>1424.5</ele>
        <time>2020-07-21T09:52:28.000Z</time>
      </trkpt>
      <trkpt lat="42.9616207" lon="-5.7351902">
        <ele>1424.81</ele>
        <time>2020-07-21T09:52:29.000Z</time>
      </trkpt>
      <trkpt lat="42.9616245" lon="-5.7352022">
        <ele>1424.81</ele>
        <time>2020-07-21T09:52:30.000Z</time>
      </trkpt>
      <trkpt lat="42.9616268" lon="-5.7352147">
        <ele>1425.11</ele>
        <time>2020-07-21T09:52:31.000Z</time>
      </trkpt>
      <trkpt lat="42.9616292" lon="-5.7352268">
        <ele>1425.11</ele>
        <time>2020-07-21T09:52:32.000Z</time>
      </trkpt>
      <trkpt lat="42.9616303" lon="-5.735239">
        <ele>1425.41</ele>
        <time>2020-07-21T09:52:33.000Z</time>
      </trkpt>
      <trkpt lat="42.9616292" lon="-5.735252">
        <ele>1425.41</ele>
        <time>2020-07-21T09:52:34.000Z</time>
      </trkpt>
      <trkpt lat="42.9616263" lon="-5.735266">
        <ele>1425.72</ele>
        <time>2020-07-21T09:52:35.000Z</time>
      </trkpt>
      <trkpt lat="42.961624" lon="-5.7352818">
        <ele>1425.72</ele>
        <time>2020-07-21T09:52:36.000Z</time>
      </trkpt>
      <trkpt lat="42.9616227" lon="-5.7352997">
        <ele>1426.02</ele>
        <time>2020-07-21T09:52:37.000Z</time>
      </trkpt>
      <trkpt lat="42.9616225" lon="-5.7353182">
        <ele>1426.02</ele>
        <time>2020-07-21T09:52:38.000Z</time>
      </trkpt>
      <trkpt lat="42.9616217" lon="-5.7353348">
        <ele>1426.33</ele>
        <time>2020-07-21T09:52:39.000Z</time>
      </trkpt>
      <trkpt lat="42.9616225" lon="-5.7353507">
        <ele>1426.33</ele>
        <time>2020-07-21T09:52:40.000Z</time>
      </trkpt>
      <trkpt lat="42.9616245" lon="-5.7353667">
        <ele>1426.63</ele>
        <time>2020-07-21T09:52:41.000Z</time>
      </trkpt>
      <trkpt lat="42.9616265" lon="-5.7353835">
        <ele>1426.63</ele>
        <time>2020-07-21T09:52:42.000Z</time>
      </trkpt>
      <trkpt lat="42.9616273" lon="-5.7353988">
        <ele>1426.94</ele>
        <time>2020-07-21T09:52:43.000Z</time>
      </trkpt>
      <trkpt lat="42.9616273" lon="-5.7354132">
        <ele>1426.94</ele>
        <time>2020-07-21T09:52:44.000Z</time>
      </trkpt>
      <trkpt lat="42.9616275" lon="-5.7354277">
        <ele>1427.24</ele>
        <time>2020-07-21T09:52:45.000Z</time>
      </trkpt>
      <trkpt lat="42.961628" lon="-5.7354423">
        <ele>1427.24</ele>
        <time>2020-07-21T09:52:46.000Z</time>
      </trkpt>
      <trkpt lat="42.9616288" lon="-5.735457">
        <ele>1427.55</ele>
        <time>2020-07-21T09:52:47.000Z</time>
      </trkpt>
      <trkpt lat="42.9616295" lon="-5.7354722">
        <ele>1427.55</ele>
        <time>2020-07-21T09:52:48.000Z</time>
      </trkpt>
      <trkpt lat="42.9616303" lon="-5.735487">
        <ele>1427.85</ele>
        <time>2020-07-21T09:52:49.000Z</time>
      </trkpt>
      <trkpt lat="42.9616305" lon="-5.7355032">
        <ele>1427.85</ele>
        <time>2020-07-21T09:52:50.000Z</time>
      </trkpt>
      <trkpt lat="42.9616313" lon="-5.735519">
        <ele>1428.16</ele>
        <time>2020-07-21T09:52:51.000Z</time>
      </trkpt>
      <trkpt lat="42.9616323" lon="-5.735534">
        <ele>1428.16</ele>
        <time>2020-07-21T09:52:52.000Z</time>
      </trkpt>
      <trkpt lat="42.961634" lon="-5.7355487">
        <ele>1428.61</ele>
        <time>2020-07-21T09:52:53.000Z</time>
      </trkpt>
      <trkpt lat="42.9616353" lon="-5.735563">
        <ele>1428.61</ele>
        <time>2020-07-21T09:52:54.000Z</time>
      </trkpt>
      <trkpt lat="42.9616373" lon="-5.7355785">
        <ele>1428.92</ele>
        <time>2020-07-21T09:52:55.000Z</time>
      </trkpt>
      <trkpt lat="42.9616398" lon="-5.735593">
        <ele>1428.92</ele>
        <time>2020-07-21T09:52:56.000Z</time>
      </trkpt>
      <trkpt lat="42.9616412" lon="-5.7356067">
        <ele>1429.22</ele>
        <time>2020-07-21T09:52:57.000Z</time>
      </trkpt>
      <trkpt lat="42.9616418" lon="-5.7356205">
        <ele>1429.22</ele>
        <time>2020-07-21T09:52:58.000Z</time>
      </trkpt>
      <trkpt lat="42.9616425" lon="-5.735636">
        <ele>1429.53</ele>
        <time>2020-07-21T09:52:59.000Z</time>
      </trkpt>
      <trkpt lat="42.9616455" lon="-5.7356525">
        <ele>1429.53</ele>
        <time>2020-07-21T09:53:00.000Z</time>
      </trkpt>
      <trkpt lat="42.9616482" lon="-5.7356675">
        <ele>1429.99</ele>
        <time>2020-07-21T09:53:01.000Z</time>
      </trkpt>
      <trkpt lat="42.9616498" lon="-5.7356812">
        <ele>1429.99</ele>
        <time>2020-07-21T09:53:02.000Z</time>
      </trkpt>
      <trkpt lat="42.961651" lon="-5.7356958">
        <ele>1430.29</ele>
        <time>2020-07-21T09:53:03.000Z</time>
      </trkpt>
      <trkpt lat="42.9616527" lon="-5.7357122">
        <ele>1430.29</ele>
        <time>2020-07-21T09:53:04.000Z</time>
      </trkpt>
      <trkpt lat="42.9616558" lon="-5.7357295">
        <ele>1430.75</ele>
        <time>2020-07-21T09:53:05.000Z</time>
      </trkpt>
      <trkpt lat="42.9616595" lon="-5.7357448">
        <ele>1430.75</ele>
        <time>2020-07-21T09:53:06.000Z</time>
      </trkpt>
      <trkpt lat="42.961665" lon="-5.7357572">
        <ele>1431.05</ele>
        <time>2020-07-21T09:53:07.000Z</time>
      </trkpt>
      <trkpt lat="42.9616703" lon="-5.735767">
        <ele>1431.05</ele>
        <time>2020-07-21T09:53:08.000Z</time>
      </trkpt>
      <trkpt lat="42.9616755" lon="-5.7357768">
        <ele>1431.51</ele>
        <time>2020-07-21T09:53:09.000Z</time>
      </trkpt>
      <trkpt lat="42.961679" lon="-5.7357892">
        <ele>1431.51</ele>
        <time>2020-07-21T09:53:10.000Z</time>
      </trkpt>
      <trkpt lat="42.9616823" lon="-5.7358027">
        <ele>1431.81</ele>
        <time>2020-07-21T09:53:11.000Z</time>
      </trkpt>
      <trkpt lat="42.9616858" lon="-5.7358165">
        <ele>1431.81</ele>
        <time>2020-07-21T09:53:12.000Z</time>
      </trkpt>
      <trkpt lat="42.9616908" lon="-5.735829">
        <ele>1432.27</ele>
        <time>2020-07-21T09:53:13.000Z</time>
      </trkpt>
      <trkpt lat="42.9616958" lon="-5.735842">
        <ele>1432.27</ele>
        <time>2020-07-21T09:53:14.000Z</time>
      </trkpt>
      <trkpt lat="42.9617" lon="-5.7358542">
        <ele>1432.73</ele>
        <time>2020-07-21T09:53:15.000Z</time>
      </trkpt>
      <trkpt lat="42.961703" lon="-5.735866">
        <ele>1432.73</ele>
        <time>2020-07-21T09:53:16.000Z</time>
      </trkpt>
      <trkpt lat="42.9617055" lon="-5.735878">
        <ele>1433.04</ele>
        <time>2020-07-21T09:53:17.000Z</time>
      </trkpt>
      <trkpt lat="42.961708" lon="-5.7358907">
        <ele>1433.04</ele>
        <time>2020-07-21T09:53:18.000Z</time>
      </trkpt>
      <trkpt lat="42.9617102" lon="-5.735903">
        <ele>1433.49</ele>
        <time>2020-07-21T09:53:19.000Z</time>
      </trkpt>
      <trkpt lat="42.9617125" lon="-5.7359153">
        <ele>1433.49</ele>
        <time>2020-07-21T09:53:20.000Z</time>
      </trkpt>
      <trkpt lat="42.9617157" lon="-5.7359275">
        <ele>1433.95</ele>
        <time>2020-07-21T09:53:21.000Z</time>
      </trkpt>
      <trkpt lat="42.9617195" lon="-5.7359408">
        <ele>1433.95</ele>
        <time>2020-07-21T09:53:22.000Z</time>
      </trkpt>
      <trkpt lat="42.9617228" lon="-5.7359533">
        <ele>1434.41</ele>
        <time>2020-07-21T09:53:23.000Z</time>
      </trkpt>
      <trkpt lat="42.9617258" lon="-5.735964">
        <ele>1434.41</ele>
        <time>2020-07-21T09:53:24.000Z</time>
      </trkpt>
      <trkpt lat="42.9617295" lon="-5.7359727">
        <ele>1434.71</ele>
        <time>2020-07-21T09:53:25.000Z</time>
      </trkpt>
      <trkpt lat="42.9617353" lon="-5.7359792">
        <ele>1434.71</ele>
        <time>2020-07-21T09:53:26.000Z</time>
      </trkpt>
      <trkpt lat="42.9617408" lon="-5.7359862">
        <ele>1435.17</ele>
        <time>2020-07-21T09:53:27.000Z</time>
      </trkpt>
      <trkpt lat="42.9617448" lon="-5.7359952">
        <ele>1435.17</ele>
        <time>2020-07-21T09:53:28.000Z</time>
      </trkpt>
      <trkpt lat="42.961747" lon="-5.7360065">
        <ele>1435.62</ele>
        <time>2020-07-21T09:53:29.000Z</time>
      </trkpt>
      <trkpt lat="42.9617498" lon="-5.7360183">
        <ele>1435.62</ele>
        <time>2020-07-21T09:53:30.000Z</time>
      </trkpt>
      <trkpt lat="42.9617535" lon="-5.7360297">
        <ele>1435.93</ele>
        <time>2020-07-21T09:53:31.000Z</time>
      </trkpt>
      <trkpt lat="42.9617575" lon="-5.7360407">
        <ele>1435.93</ele>
        <time>2020-07-21T09:53:32.000Z</time>
      </trkpt>
      <trkpt lat="42.9617605" lon="-5.7360508">
        <ele>1436.39</ele>
        <time>2020-07-21T09:53:33.000Z</time>
      </trkpt>
      <trkpt lat="42.9617643" lon="-5.7360622">
        <ele>1436.39</ele>
        <time>2020-07-21T09:53:34.000Z</time>
      </trkpt>
      <trkpt lat="42.9617685" lon="-5.736074">
        <ele>1436.84</ele>
        <time>2020-07-21T09:53:35.000Z</time>
      </trkpt>
      <trkpt lat="42.9617733" lon="-5.736086">
        <ele>1436.84</ele>
        <time>2020-07-21T09:53:36.000Z</time>
      </trkpt>
      <trkpt lat="42.9617777" lon="-5.7360973">
        <ele>1437.3</ele>
        <time>2020-07-21T09:53:37.000Z</time>
      </trkpt>
      <trkpt lat="42.9617812" lon="-5.7361088">
        <ele>1437.3</ele>
        <time>2020-07-21T09:53:38.000Z</time>
      </trkpt>
      <trkpt lat="42.9617842" lon="-5.736121">
        <ele>1437.76</ele>
        <time>2020-07-21T09:53:39.000Z</time>
      </trkpt>
      <trkpt lat="42.961787" lon="-5.7361322">
        <ele>1437.76</ele>
        <time>2020-07-21T09:53:40.000Z</time>
      </trkpt>
      <trkpt lat="42.9617902" lon="-5.7361425">
        <ele>1438.22</ele>
        <time>2020-07-21T09:53:41.000Z</time>
      </trkpt>
      <trkpt lat="42.961795" lon="-5.736152">
        <ele>1438.22</ele>
        <time>2020-07-21T09:53:42.000Z</time>
      </trkpt>
      <trkpt lat="42.9618012" lon="-5.7361583">
        <ele>1438.67</ele>
        <time>2020-07-21T09:53:43.000Z</time>
      </trkpt>
      <trkpt lat="42.9618058" lon="-5.7361618">
        <ele>1438.67</ele>
        <time>2020-07-21T09:53:44.000Z</time>
      </trkpt>
      <trkpt lat="42.9618087" lon="-5.7361623">
        <ele>1439.13</ele>
        <time>2020-07-21T09:53:45.000Z</time>
      </trkpt>
      <trkpt lat="42.9618087" lon="-5.7361628">
        <ele>1439.13</ele>
        <time>2020-07-21T09:53:46.000Z</time>
      </trkpt>
      <trkpt lat="42.9618085" lon="-5.7361623">
        <ele>1439.59</ele>
        <time>2020-07-21T09:53:47.000Z</time>
      </trkpt>
      <trkpt lat="42.9618078" lon="-5.7361622">
        <ele>1439.59</ele>
        <time>2020-07-21T09:53:48.000Z</time>
      </trkpt>
      <trkpt lat="42.9618073" lon="-5.7361617">
        <ele>1439.89</ele>
        <time>2020-07-21T09:53:49.000Z</time>
      </trkpt>
      <trkpt lat="42.961807" lon="-5.7361615">
        <ele>1439.89</ele>
        <time>2020-07-21T09:53:50.000Z</time>
      </trkpt>
      <trkpt lat="42.9618063" lon="-5.736162">
        <ele>1440.35</ele>
        <time>2020-07-21T09:53:51.000Z</time>
      </trkpt>
      <trkpt lat="42.9618055" lon="-5.7361628">
        <ele>1440.35</ele>
        <time>2020-07-21T09:53:52.000Z</time>
      </trkpt>
      <trkpt lat="42.9618045" lon="-5.7361637">
        <ele>1440.81</ele>
        <time>2020-07-21T09:53:53.000Z</time>
      </trkpt>
      <trkpt lat="42.9618042" lon="-5.7361642">
        <ele>1440.81</ele>
        <time>2020-07-21T09:53:54.000Z</time>
      </trkpt>
      <trkpt lat="42.961804" lon="-5.7361647">
        <ele>1441.26</ele>
        <time>2020-07-21T09:53:55.000Z</time>
      </trkpt>
      <trkpt lat="42.9618038" lon="-5.7361652">
        <ele>1441.26</ele>
        <time>2020-07-21T09:53:56.000Z</time>
      </trkpt>
      <trkpt lat="42.9618035" lon="-5.736166">
        <ele>1441.72</ele>
        <time>2020-07-21T09:53:57.000Z</time>
      </trkpt>
      <trkpt lat="42.9618032" lon="-5.7361667">
        <ele>1441.72</ele>
        <time>2020-07-21T09:53:58.000Z</time>
      </trkpt>
      <trkpt lat="42.9618028" lon="-5.7361675">
        <ele>1442.03</ele>
        <time>2020-07-21T09:53:59.000Z</time>
      </trkpt>
      <trkpt lat="42.9618023" lon="-5.7361683">
        <ele>1442.03</ele>
        <time>2020-07-21T09:54:00.000Z</time>
      </trkpt>
      <trkpt lat="42.961802" lon="-5.7361693">
        <ele>1442.48</ele>
        <time>2020-07-21T09:54:01.000Z</time>
      </trkpt>
      <trkpt lat="42.9618015" lon="-5.7361705">
        <ele>1442.48</ele>
        <time>2020-07-21T09:54:02.000Z</time>
      </trkpt>
      <trkpt lat="42.9618013" lon="-5.7361717">
        <ele>1442.94</ele>
        <time>2020-07-21T09:54:03.000Z</time>
      </trkpt>
      <trkpt lat="42.9618015" lon="-5.736173">
        <ele>1442.94</ele>
        <time>2020-07-21T09:54:04.000Z</time>
      </trkpt>
      <trkpt lat="42.9618017" lon="-5.7361743">
        <ele>1443.4</ele>
        <time>2020-07-21T09:54:05.000Z</time>
      </trkpt>
      <trkpt lat="42.9618012" lon="-5.7361753">
        <ele>1443.4</ele>
        <time>2020-07-21T09:54:06.000Z</time>
      </trkpt>
      <trkpt lat="42.9618013" lon="-5.7361775">
        <ele>1443.7</ele>
        <time>2020-07-21T09:54:07.000Z</time>
      </trkpt>
      <trkpt lat="42.9618028" lon="-5.736182">
        <ele>1443.7</ele>
        <time>2020-07-21T09:54:08.000Z</time>
      </trkpt>
      <trkpt lat="42.9618067" lon="-5.7361905">
        <ele>1444.16</ele>
        <time>2020-07-21T09:54:09.000Z</time>
      </trkpt>
      <trkpt lat="42.9618108" lon="-5.7362">
        <ele>1444.16</ele>
        <time>2020-07-21T09:54:10.000Z</time>
      </trkpt>
      <trkpt lat="42.9618145" lon="-5.7362097">
        <ele>1444.62</ele>
        <time>2020-07-21T09:54:11.000Z</time>
      </trkpt>
      <trkpt lat="42.9618185" lon="-5.7362193">
        <ele>1444.62</ele>
        <time>2020-07-21T09:54:12.000Z</time>
      </trkpt>
      <trkpt lat="42.9618227" lon="-5.7362305">
        <ele>1444.92</ele>
        <time>2020-07-21T09:54:13.000Z</time>
      </trkpt>
      <trkpt lat="42.9618263" lon="-5.7362412">
        <ele>1444.92</ele>
        <time>2020-07-21T09:54:14.000Z</time>
      </trkpt>
      <trkpt lat="42.9618298" lon="-5.7362513">
        <ele>1445.38</ele>
        <time>2020-07-21T09:54:15.000Z</time>
      </trkpt>
      <trkpt lat="42.9618343" lon="-5.7362615">
        <ele>1445.38</ele>
        <time>2020-07-21T09:54:16.000Z</time>
      </trkpt>
      <trkpt lat="42.9618402" lon="-5.7362722">
        <ele>1445.68</ele>
        <time>2020-07-21T09:54:17.000Z</time>
      </trkpt>
      <trkpt lat="42.961847" lon="-5.7362825">
        <ele>1445.68</ele>
        <time>2020-07-21T09:54:18.000Z</time>
      </trkpt>
      <trkpt lat="42.961854" lon="-5.736292">
        <ele>1446.14</ele>
        <time>2020-07-21T09:54:19.000Z</time>
      </trkpt>
      <trkpt lat="42.961861" lon="-5.7363012">
        <ele>1446.14</ele>
        <time>2020-07-21T09:54:20.000Z</time>
      </trkpt>
      <trkpt lat="42.961867" lon="-5.7363112">
        <ele>1446.45</ele>
        <time>2020-07-21T09:54:21.000Z</time>
      </trkpt>
      <trkpt lat="42.9618718" lon="-5.736321">
        <ele>1446.45</ele>
        <time>2020-07-21T09:54:22.000Z</time>
      </trkpt>
      <trkpt lat="42.9618773" lon="-5.7363303">
        <ele>1446.9</ele>
        <time>2020-07-21T09:54:23.000Z</time>
      </trkpt>
      <trkpt lat="42.961884" lon="-5.7363385">
        <ele>1446.9</ele>
        <time>2020-07-21T09:54:24.000Z</time>
      </trkpt>
      <trkpt lat="42.9618913" lon="-5.7363458">
        <ele>1447.21</ele>
        <time>2020-07-21T09:54:25.000Z</time>
      </trkpt>
      <trkpt lat="42.9618978" lon="-5.7363525">
        <ele>1447.21</ele>
        <time>2020-07-21T09:54:26.000Z</time>
      </trkpt>
      <trkpt lat="42.9619038" lon="-5.7363582">
        <ele>1447.67</ele>
        <time>2020-07-21T09:54:27.000Z</time>
      </trkpt>
      <trkpt lat="42.9619098" lon="-5.7363637">
        <ele>1447.67</ele>
        <time>2020-07-21T09:54:28.000Z</time>
      </trkpt>
      <trkpt lat="42.9619158" lon="-5.736368">
        <ele>1447.97</ele>
        <time>2020-07-21T09:54:29.000Z</time>
      </trkpt>
      <trkpt lat="42.9619215" lon="-5.7363723">
        <ele>1447.97</ele>
        <time>2020-07-21T09:54:30.000Z</time>
      </trkpt>
      <trkpt lat="42.9619272" lon="-5.7363772">
        <ele>1448.43</ele>
        <time>2020-07-21T09:54:31.000Z</time>
      </trkpt>
      <trkpt lat="42.9619325" lon="-5.7363838">
        <ele>1448.43</ele>
        <time>2020-07-21T09:54:32.000Z</time>
      </trkpt>
      <trkpt lat="42.9619383" lon="-5.7363917">
        <ele>1448.88</ele>
        <time>2020-07-21T09:54:33.000Z</time>
      </trkpt>
      <trkpt lat="42.961944" lon="-5.7363992">
        <ele>1448.88</ele>
        <time>2020-07-21T09:54:34.000Z</time>
      </trkpt>
      <trkpt lat="42.9619498" lon="-5.7364063">
        <ele>1449.19</ele>
        <time>2020-07-21T09:54:35.000Z</time>
      </trkpt>
      <trkpt lat="42.9619548" lon="-5.7364128">
        <ele>1449.19</ele>
        <time>2020-07-21T09:54:36.000Z</time>
      </trkpt>
      <trkpt lat="42.9619587" lon="-5.7364202">
        <ele>1449.49</ele>
        <time>2020-07-21T09:54:37.000Z</time>
      </trkpt>
      <trkpt lat="42.9619645" lon="-5.736426">
        <ele>1449.49</ele>
        <time>2020-07-21T09:54:38.000Z</time>
      </trkpt>
      <trkpt lat="42.9619728" lon="-5.7364323">
        <ele>1449.95</ele>
        <time>2020-07-21T09:54:39.000Z</time>
      </trkpt>
      <trkpt lat="42.9619827" lon="-5.7364368">
        <ele>1449.95</ele>
        <time>2020-07-21T09:54:40.000Z</time>
      </trkpt>
      <trkpt lat="42.96199" lon="-5.736442">
        <ele>1450.26</ele>
        <time>2020-07-21T09:54:41.000Z</time>
      </trkpt>
      <trkpt lat="42.9619947" lon="-5.736447">
        <ele>1450.26</ele>
        <time>2020-07-21T09:54:42.000Z</time>
      </trkpt>
      <trkpt lat="42.961999" lon="-5.7364555">
        <ele>1450.71</ele>
        <time>2020-07-21T09:54:43.000Z</time>
      </trkpt>
      <trkpt lat="42.9620058" lon="-5.7364643">
        <ele>1450.71</ele>
        <time>2020-07-21T09:54:44.000Z</time>
      </trkpt>
      <trkpt lat="42.9620132" lon="-5.7364727">
        <ele>1451.02</ele>
        <time>2020-07-21T09:54:45.000Z</time>
      </trkpt>
      <trkpt lat="42.9620195" lon="-5.7364772">
        <ele>1451.02</ele>
        <time>2020-07-21T09:54:46.000Z</time>
      </trkpt>
      <trkpt lat="42.9620248" lon="-5.7364835">
        <ele>1451.47</ele>
        <time>2020-07-21T09:54:47.000Z</time>
      </trkpt>
      <trkpt lat="42.9620317" lon="-5.7364907">
        <ele>1451.47</ele>
        <time>2020-07-21T09:54:48.000Z</time>
      </trkpt>
      <trkpt lat="42.9620377" lon="-5.7365007">
        <ele>1451.78</ele>
        <time>2020-07-21T09:54:49.000Z</time>
      </trkpt>
      <trkpt lat="42.9620415" lon="-5.7365097">
        <ele>1451.78</ele>
        <time>2020-07-21T09:54:50.000Z</time>
      </trkpt>
      <trkpt lat="42.9620435" lon="-5.73652">
        <ele>1452.08</ele>
        <time>2020-07-21T09:54:51.000Z</time>
      </trkpt>
      <trkpt lat="42.9620473" lon="-5.7365307">
        <ele>1452.08</ele>
        <time>2020-07-21T09:54:52.000Z</time>
      </trkpt>
      <trkpt lat="42.9620547" lon="-5.7365418">
        <ele>1452.39</ele>
        <time>2020-07-21T09:54:53.000Z</time>
      </trkpt>
      <trkpt lat="42.9620618" lon="-5.7365517">
        <ele>1452.39</ele>
        <time>2020-07-21T09:54:54.000Z</time>
      </trkpt>
      <trkpt lat="42.962069" lon="-5.7365597">
        <ele>1452.69</ele>
        <time>2020-07-21T09:54:55.000Z</time>
      </trkpt>
      <trkpt lat="42.9620747" lon="-5.736566">
        <ele>1452.69</ele>
        <time>2020-07-21T09:54:56.000Z</time>
      </trkpt>
      <trkpt lat="42.9620823" lon="-5.7365723">
        <ele>1453</ele>
        <time>2020-07-21T09:54:57.000Z</time>
      </trkpt>
      <trkpt lat="42.9620885" lon="-5.7365778">
        <ele>1453</ele>
        <time>2020-07-21T09:54:58.000Z</time>
      </trkpt>
      <trkpt lat="42.962093" lon="-5.7365842">
        <ele>1453.3</ele>
        <time>2020-07-21T09:54:59.000Z</time>
      </trkpt>
      <trkpt lat="42.9620967" lon="-5.7365893">
        <ele>1453.3</ele>
        <time>2020-07-21T09:55:00.000Z</time>
      </trkpt>
      <trkpt lat="42.9621012" lon="-5.7365952">
        <ele>1453.61</ele>
        <time>2020-07-21T09:55:01.000Z</time>
      </trkpt>
      <trkpt lat="42.9621065" lon="-5.7366022">
        <ele>1453.61</ele>
        <time>2020-07-21T09:55:02.000Z</time>
      </trkpt>
      <trkpt lat="42.9621105" lon="-5.7366102">
        <ele>1453.91</ele>
        <time>2020-07-21T09:55:03.000Z</time>
      </trkpt>
      <trkpt lat="42.9621152" lon="-5.736619">
        <ele>1453.91</ele>
        <time>2020-07-21T09:55:04.000Z</time>
      </trkpt>
      <trkpt lat="42.9621207" lon="-5.7366263">
        <ele>1454.22</ele>
        <time>2020-07-21T09:55:05.000Z</time>
      </trkpt>
      <trkpt lat="42.9621258" lon="-5.7366332">
        <ele>1454.22</ele>
        <time>2020-07-21T09:55:06.000Z</time>
      </trkpt>
      <trkpt lat="42.96213" lon="-5.7366392">
        <ele>1454.52</ele>
        <time>2020-07-21T09:55:07.000Z</time>
      </trkpt>
      <trkpt lat="42.9621327" lon="-5.7366457">
        <ele>1454.52</ele>
        <time>2020-07-21T09:55:08.000Z</time>
      </trkpt>
      <trkpt lat="42.9621362" lon="-5.7366525">
        <ele>1454.68</ele>
        <time>2020-07-21T09:55:09.000Z</time>
      </trkpt>
      <trkpt lat="42.96214" lon="-5.7366588">
        <ele>1454.68</ele>
        <time>2020-07-21T09:55:10.000Z</time>
      </trkpt>
      <trkpt lat="42.9621463" lon="-5.7366613">
        <ele>1454.98</ele>
        <time>2020-07-21T09:55:11.000Z</time>
      </trkpt>
      <trkpt lat="42.9621542" lon="-5.7366633">
        <ele>1454.98</ele>
        <time>2020-07-21T09:55:12.000Z</time>
      </trkpt>
      <trkpt lat="42.9621643" lon="-5.7366632">
        <ele>1455.13</ele>
        <time>2020-07-21T09:55:13.000Z</time>
      </trkpt>
      <trkpt lat="42.962172" lon="-5.736666">
        <ele>1455.13</ele>
        <time>2020-07-21T09:55:14.000Z</time>
      </trkpt>
      <trkpt lat="42.9621765" lon="-5.7366682">
        <ele>1455.29</ele>
        <time>2020-07-21T09:55:15.000Z</time>
      </trkpt>
      <trkpt lat="42.9621782" lon="-5.7366745">
        <ele>1455.29</ele>
        <time>2020-07-21T09:55:16.000Z</time>
      </trkpt>
      <trkpt lat="42.96218" lon="-5.7366812">
        <ele>1455.44</ele>
        <time>2020-07-21T09:55:17.000Z</time>
      </trkpt>
      <trkpt lat="42.9621842" lon="-5.7366898">
        <ele>1455.44</ele>
        <time>2020-07-21T09:55:18.000Z</time>
      </trkpt>
      <trkpt lat="42.9621882" lon="-5.7366975">
        <ele>1455.74</ele>
        <time>2020-07-21T09:55:19.000Z</time>
      </trkpt>
      <trkpt lat="42.9621923" lon="-5.7367052">
        <ele>1455.74</ele>
        <time>2020-07-21T09:55:20.000Z</time>
      </trkpt>
      <trkpt lat="42.962194" lon="-5.7367118">
        <ele>1455.9</ele>
        <time>2020-07-21T09:55:21.000Z</time>
      </trkpt>
      <trkpt lat="42.9621958" lon="-5.7367185">
        <ele>1455.9</ele>
        <time>2020-07-21T09:55:22.000Z</time>
      </trkpt>
      <trkpt lat="42.9621958" lon="-5.7367245">
        <ele>1456.05</ele>
        <time>2020-07-21T09:55:23.000Z</time>
      </trkpt>
      <trkpt lat="42.9621958" lon="-5.7367313">
        <ele>1456.05</ele>
        <time>2020-07-21T09:55:24.000Z</time>
      </trkpt>
      <trkpt lat="42.9621935" lon="-5.7367385">
        <ele>1456.2</ele>
        <time>2020-07-21T09:55:25.000Z</time>
      </trkpt>
      <trkpt lat="42.962189" lon="-5.7367472">
        <ele>1456.2</ele>
        <time>2020-07-21T09:55:26.000Z</time>
      </trkpt>
      <trkpt lat="42.9621847" lon="-5.7367557">
        <ele>1456.35</ele>
        <time>2020-07-21T09:55:27.000Z</time>
      </trkpt>
      <trkpt lat="42.9621817" lon="-5.7367648">
        <ele>1456.35</ele>
        <time>2020-07-21T09:55:28.000Z</time>
      </trkpt>
      <trkpt lat="42.9621803" lon="-5.7367738">
        <ele>1456.51</ele>
        <time>2020-07-21T09:55:29.000Z</time>
      </trkpt>
      <trkpt lat="42.9621793" lon="-5.7367833">
        <ele>1456.51</ele>
        <time>2020-07-21T09:55:30.000Z</time>
      </trkpt>
      <trkpt lat="42.9621788" lon="-5.7367925">
        <ele>1456.81</ele>
        <time>2020-07-21T09:55:31.000Z</time>
      </trkpt>
      <trkpt lat="42.9621795" lon="-5.736803">
        <ele>1456.81</ele>
        <time>2020-07-21T09:55:32.000Z</time>
      </trkpt>
      <trkpt lat="42.9621808" lon="-5.7368147">
        <ele>1456.96</ele>
        <time>2020-07-21T09:55:33.000Z</time>
      </trkpt>
      <trkpt lat="42.962182" lon="-5.7368283">
        <ele>1456.96</ele>
        <time>2020-07-21T09:55:34.000Z</time>
      </trkpt>
      <trkpt lat="42.9621828" lon="-5.7368428">
        <ele>1457.11</ele>
        <time>2020-07-21T09:55:35.000Z</time>
      </trkpt>
      <trkpt lat="42.962184" lon="-5.7368567">
        <ele>1457.11</ele>
        <time>2020-07-21T09:55:36.000Z</time>
      </trkpt>
      <trkpt lat="42.9621865" lon="-5.7368693">
        <ele>1457.42</ele>
        <time>2020-07-21T09:55:37.000Z</time>
      </trkpt>
      <trkpt lat="42.9621907" lon="-5.7368815">
        <ele>1457.42</ele>
        <time>2020-07-21T09:55:38.000Z</time>
      </trkpt>
      <trkpt lat="42.9621953" lon="-5.7368932">
        <ele>1457.72</ele>
        <time>2020-07-21T09:55:39.000Z</time>
      </trkpt>
      <trkpt lat="42.9621983" lon="-5.7369038">
        <ele>1457.72</ele>
        <time>2020-07-21T09:55:40.000Z</time>
      </trkpt>
      <trkpt lat="42.9621992" lon="-5.7369128">
        <ele>1457.88</ele>
        <time>2020-07-21T09:55:41.000Z</time>
      </trkpt>
      <trkpt lat="42.9621997" lon="-5.7369232">
        <ele>1457.88</ele>
        <time>2020-07-21T09:55:42.000Z</time>
      </trkpt>
      <trkpt lat="42.9621985" lon="-5.7369362">
        <ele>1458.18</ele>
        <time>2020-07-21T09:55:43.000Z</time>
      </trkpt>
      <trkpt lat="42.9621972" lon="-5.73695">
        <ele>1458.18</ele>
        <time>2020-07-21T09:55:44.000Z</time>
      </trkpt>
      <trkpt lat="42.9621952" lon="-5.7369632">
        <ele>1458.49</ele>
        <time>2020-07-21T09:55:45.000Z</time>
      </trkpt>
      <trkpt lat="42.9621945" lon="-5.736975">
        <ele>1458.49</ele>
        <time>2020-07-21T09:55:46.000Z</time>
      </trkpt>
      <trkpt lat="42.962194" lon="-5.736987">
        <ele>1458.79</ele>
        <time>2020-07-21T09:55:47.000Z</time>
      </trkpt>
      <trkpt lat="42.9621948" lon="-5.736998">
        <ele>1458.79</ele>
        <time>2020-07-21T09:55:48.000Z</time>
      </trkpt>
      <trkpt lat="42.9621972" lon="-5.7370073">
        <ele>1458.94</ele>
        <time>2020-07-21T09:55:49.000Z</time>
      </trkpt>
      <trkpt lat="42.9622017" lon="-5.7370135">
        <ele>1458.94</ele>
        <time>2020-07-21T09:55:50.000Z</time>
      </trkpt>
      <trkpt lat="42.962207" lon="-5.7370175">
        <ele>1459.25</ele>
        <time>2020-07-21T09:55:51.000Z</time>
      </trkpt>
      <trkpt lat="42.962213" lon="-5.7370213">
        <ele>1459.25</ele>
        <time>2020-07-21T09:55:52.000Z</time>
      </trkpt>
      <trkpt lat="42.9622182" lon="-5.7370267">
        <ele>1459.4</ele>
        <time>2020-07-21T09:55:53.000Z</time>
      </trkpt>
      <trkpt lat="42.9622228" lon="-5.7370325">
        <ele>1459.4</ele>
        <time>2020-07-21T09:55:54.000Z</time>
      </trkpt>
      <trkpt lat="42.9622263" lon="-5.7370367">
        <ele>1459.55</ele>
        <time>2020-07-21T09:55:55.000Z</time>
      </trkpt>
      <trkpt lat="42.9622292" lon="-5.7370403">
        <ele>1459.55</ele>
        <time>2020-07-21T09:55:56.000Z</time>
      </trkpt>
      <trkpt lat="42.9622328" lon="-5.7370428">
        <ele>1459.7</ele>
        <time>2020-07-21T09:55:57.000Z</time>
      </trkpt>
      <trkpt lat="42.9622365" lon="-5.7370457">
        <ele>1459.7</ele>
        <time>2020-07-21T09:55:58.000Z</time>
      </trkpt>
      <trkpt lat="42.9622412" lon="-5.737048">
        <ele>1459.86</ele>
        <time>2020-07-21T09:55:59.000Z</time>
      </trkpt>
      <trkpt lat="42.9622457" lon="-5.737051">
        <ele>1459.86</ele>
        <time>2020-07-21T09:56:00.000Z</time>
      </trkpt>
      <trkpt lat="42.962251" lon="-5.737054">
        <ele>1460.16</ele>
        <time>2020-07-21T09:56:01.000Z</time>
      </trkpt>
      <trkpt lat="42.9622552" lon="-5.7370585">
        <time>2020-07-21T09:56:02.000Z</time>
      </trkpt>
      <trkpt lat="42.9622568" lon="-5.7370633">
        <time>2020-07-21T09:56:03.000Z</time>
      </trkpt>
      <trkpt lat="42.962257" lon="-5.7370682">
        <time>2020-07-21T09:56:04.000Z</time>
      </trkpt>
      <trkpt lat="42.9622575" lon="-5.7370715">
        <time>2020-07-21T09:56:05.000Z</time>
      </trkpt>
      <trkpt lat="42.9622598" lon="-5.7370748">
        <time>2020-07-21T09:56:06.000Z</time>
      </trkpt>
      <trkpt lat="42.9622645" lon="-5.737081">
        <time>2020-07-21T09:56:07.000Z</time>
      </trkpt>
      <trkpt lat="42.9622698" lon="-5.737089">
        <time>2020-07-21T09:56:08.000Z</time>
      </trkpt>
      <trkpt lat="42.962274" lon="-5.7370978">
        <time>2020-07-21T09:56:09.000Z</time>
      </trkpt>
      <trkpt lat="42.962278" lon="-5.7371038">
        <time>2020-07-21T09:56:10.000Z</time>
      </trkpt>
      <trkpt lat="42.9622828" lon="-5.73711">
        <time>2020-07-21T09:56:11.000Z</time>
      </trkpt>
      <trkpt lat="42.9622873" lon="-5.7371172">
        <time>2020-07-21T09:56:12.000Z</time>
      </trkpt>
      <trkpt lat="42.9622905" lon="-5.7371248">
        <time>2020-07-21T09:56:13.000Z</time>
      </trkpt>
      <trkpt lat="42.962294" lon="-5.7371323">
        <time>2020-07-21T09:56:14.000Z</time>
      </trkpt>
      <trkpt lat="42.9622965" lon="-5.7371387">
        <time>2020-07-21T09:56:15.000Z</time>
      </trkpt>
      <trkpt lat="42.9622978" lon="-5.7371437">
        <time>2020-07-21T09:56:16.000Z</time>
      </trkpt>
      <trkpt lat="42.9622942" lon="-5.7371483">
        <time>2020-07-21T09:56:17.000Z</time>
      </trkpt>
      <trkpt lat="42.9622912" lon="-5.7371525">
        <time>2020-07-21T09:56:18.000Z</time>
      </trkpt>
      <trkpt lat="42.9622873" lon="-5.7371575">
        <time>2020-07-21T09:56:19.000Z</time>
      </trkpt>
      <trkpt lat="42.9622853" lon="-5.737159">
        <time>2020-07-21T09:56:20.000Z</time>
      </trkpt>
      <trkpt lat="42.9622823" lon="-5.7371593">
        <time>2020-07-21T09:56:21.000Z</time>
      </trkpt>
      <trkpt lat="42.9622798" lon="-5.737159">
        <time>2020-07-21T09:56:22.000Z</time>
      </trkpt>
      <trkpt lat="42.9622788" lon="-5.7371598">
        <time>2020-07-21T09:56:23.000Z</time>
      </trkpt>
      <trkpt lat="42.9622795" lon="-5.7371602">
        <time>2020-07-21T09:56:24.000Z</time>
      </trkpt>
      <trkpt lat="42.96228" lon="-5.7371598">
        <time>2020-07-21T09:56:25.000Z</time>
      </trkpt>
      <trkpt lat="42.962281" lon="-5.7371595">
        <time>2020-07-21T09:56:26.000Z</time>
      </trkpt>
      <trkpt lat="42.9622823" lon="-5.7371592">
        <time>2020-07-21T09:56:27.000Z</time>
      </trkpt>
      <trkpt lat="42.962284" lon="-5.7371593">
        <time>2020-07-21T09:56:28.000Z</time>
      </trkpt>
      <trkpt lat="42.9622833" lon="-5.7371597">
        <time>2020-07-21T09:56:29.000Z</time>
      </trkpt>
      <trkpt lat="42.9622812" lon="-5.737161">
        <time>2020-07-21T09:56:30.000Z</time>
      </trkpt>
      <trkpt lat="42.9622792" lon="-5.7371617">
        <time>2020-07-21T09:56:31.000Z</time>
      </trkpt>
      <trkpt lat="42.9622787" lon="-5.737163">
        <time>2020-07-21T09:56:32.000Z</time>
      </trkpt>
      <trkpt lat="42.9622772" lon="-5.737164">
        <time>2020-07-21T09:56:33.000Z</time>
      </trkpt>
      <trkpt lat="42.9622757" lon="-5.737165">
        <time>2020-07-21T09:56:34.000Z</time>
      </trkpt>
      <trkpt lat="42.9622743" lon="-5.7371668">
        <time>2020-07-21T09:56:35.000Z</time>
      </trkpt>
      <trkpt lat="42.962277" lon="-5.7371713">
        <time>2020-07-21T09:56:36.000Z</time>
      </trkpt>
      <trkpt lat="42.9622812" lon="-5.7371795">
        <time>2020-07-21T09:56:37.000Z</time>
      </trkpt>
      <trkpt lat="42.9622872" lon="-5.7371897">
        <time>2020-07-21T09:56:38.000Z</time>
      </trkpt>
      <trkpt lat="42.9622923" lon="-5.737199">
        <time>2020-07-21T09:56:39.000Z</time>
      </trkpt>
      <trkpt lat="42.9623" lon="-5.737207">
        <time>2020-07-21T09:56:40.000Z</time>
      </trkpt>
      <trkpt lat="42.9623092" lon="-5.737212">
        <time>2020-07-21T09:56:41.000Z</time>
      </trkpt>
      <trkpt lat="42.962317" lon="-5.7372142">
        <time>2020-07-21T09:56:42.000Z</time>
      </trkpt>
      <trkpt lat="42.9623215" lon="-5.737215">
        <time>2020-07-21T09:56:43.000Z</time>
      </trkpt>
      <trkpt lat="42.9623217" lon="-5.7372162">
        <time>2020-07-21T09:56:44.000Z</time>
      </trkpt>
      <trkpt lat="42.9623212" lon="-5.7372178">
        <time>2020-07-21T09:56:45.000Z</time>
      </trkpt>
      <trkpt lat="42.9623212" lon="-5.7372178">
        <time>2020-07-21T09:56:46.000Z</time>
      </trkpt>
      <trkpt lat="42.9623227" lon="-5.7372173">
        <time>2020-07-21T09:56:47.000Z</time>
      </trkpt>
      <trkpt lat="42.9623257" lon="-5.7372168">
        <time>2020-07-21T09:56:48.000Z</time>
      </trkpt>
      <trkpt lat="42.9623277" lon="-5.7372173">
        <time>2020-07-21T09:56:49.000Z</time>
      </trkpt>
      <trkpt lat="42.962329" lon="-5.7372173">
        <time>2020-07-21T09:56:50.000Z</time>
      </trkpt>
      <trkpt lat="42.9623298" lon="-5.7372172">
        <time>2020-07-21T09:56:51.000Z</time>
      </trkpt>
      <trkpt lat="42.9623307" lon="-5.7372167">
        <time>2020-07-21T09:56:52.000Z</time>
      </trkpt>
      <trkpt lat="42.962331" lon="-5.737216">
        <time>2020-07-21T09:56:53.000Z</time>
      </trkpt>
      <trkpt lat="42.9623308" lon="-5.7372152">
        <time>2020-07-21T09:56:54.000Z</time>
      </trkpt>
      <trkpt lat="42.9623305" lon="-5.7372142">
        <time>2020-07-21T09:56:55.000Z</time>
      </trkpt>
      <trkpt lat="42.9623308" lon="-5.7372137">
        <time>2020-07-21T09:56:56.000Z</time>
      </trkpt>
      <trkpt lat="42.9623312" lon="-5.7372135">
        <time>2020-07-21T09:56:57.000Z</time>
      </trkpt>
      <trkpt lat="42.9623317" lon="-5.7372137">
        <time>2020-07-21T09:56:58.000Z</time>
      </trkpt>
      <trkpt lat="42.9623323" lon="-5.737214">
        <time>2020-07-21T09:56:59.000Z</time>
      </trkpt>
      <trkpt lat="42.9623327" lon="-5.7372142">
        <time>2020-07-21T09:57:00.000Z</time>
      </trkpt>
      <trkpt lat="42.9623328" lon="-5.7372147">
        <time>2020-07-21T09:57:01.000Z</time>
      </trkpt>
      <trkpt lat="42.962332" lon="-5.7372152">
        <time>2020-07-21T09:57:02.000Z</time>
      </trkpt>
      <trkpt lat="42.9623312" lon="-5.7372155">
        <time>2020-07-21T09:57:03.000Z</time>
      </trkpt>
      <trkpt lat="42.9623302" lon="-5.7372152">
        <time>2020-07-21T09:57:04.000Z</time>
      </trkpt>
      <trkpt lat="42.9623298" lon="-5.7372148">
        <time>2020-07-21T09:57:05.000Z</time>
      </trkpt>
      <trkpt lat="42.96233" lon="-5.737217">
        <time>2020-07-21T09:57:06.000Z</time>
      </trkpt>
      <trkpt lat="42.9623308" lon="-5.73722">
        <time>2020-07-21T09:57:07.000Z</time>
      </trkpt>
      <trkpt lat="42.962333" lon="-5.7372218">
        <time>2020-07-21T09:57:08.000Z</time>
      </trkpt>
      <trkpt lat="42.9623368" lon="-5.7372235">
        <time>2020-07-21T09:57:09.000Z</time>
      </trkpt>
      <trkpt lat="42.9623428" lon="-5.7372257">
        <time>2020-07-21T09:57:10.000Z</time>
      </trkpt>
      <trkpt lat="42.9623503" lon="-5.7372293">
        <time>2020-07-21T09:57:11.000Z</time>
      </trkpt>
      <trkpt lat="42.9623585" lon="-5.7372302">
        <time>2020-07-21T09:57:12.000Z</time>
      </trkpt>
      <trkpt lat="42.9623655" lon="-5.7372272">
        <time>2020-07-21T09:57:13.000Z</time>
      </trkpt>
      <trkpt lat="42.9623717" lon="-5.7372217">
        <time>2020-07-21T09:57:14.000Z</time>
      </trkpt>
      <trkpt lat="42.9623782" lon="-5.7372153">
        <time>2020-07-21T09:57:15.000Z</time>
      </trkpt>
      <trkpt lat="42.9623867" lon="-5.7372103">
        <time>2020-07-21T09:57:16.000Z</time>
      </trkpt>
      <trkpt lat="42.962393" lon="-5.7372033">
        <time>2020-07-21T09:57:17.000Z</time>
      </trkpt>
      <trkpt lat="42.9623935" lon="-5.7371922">
        <time>2020-07-21T09:57:18.000Z</time>
      </trkpt>
      <trkpt lat="42.9623912" lon="-5.7371828">
        <time>2020-07-21T09:57:19.000Z</time>
      </trkpt>
      <trkpt lat="42.9623898" lon="-5.7371753">
        <time>2020-07-21T09:57:20.000Z</time>
      </trkpt>
      <trkpt lat="42.9623925" lon="-5.7371713">
        <time>2020-07-21T09:57:21.000Z</time>
      </trkpt>
      <trkpt lat="42.9623973" lon="-5.7371625">
        <time>2020-07-21T09:57:22.000Z</time>
      </trkpt>
      <trkpt lat="42.9624037" lon="-5.7371542">
        <time>2020-07-21T09:57:23.000Z</time>
      </trkpt>
      <trkpt lat="42.962407" lon="-5.7371445">
        <time>2020-07-21T09:57:24.000Z</time>
      </trkpt>
      <trkpt lat="42.962409" lon="-5.737136">
        <time>2020-07-21T09:57:25.000Z</time>
      </trkpt>
      <trkpt lat="42.96241" lon="-5.7371277">
        <time>2020-07-21T09:57:26.000Z</time>
      </trkpt>
      <trkpt lat="42.9624143" lon="-5.7371167">
        <time>2020-07-21T09:57:27.000Z</time>
      </trkpt>
      <trkpt lat="42.9624173" lon="-5.7371048">
        <time>2020-07-21T09:57:28.000Z</time>
      </trkpt>
      <trkpt lat="42.96242" lon="-5.737092">
        <time>2020-07-21T09:57:29.000Z</time>
      </trkpt>
      <trkpt lat="42.9624205" lon="-5.7370838">
        <time>2020-07-21T09:57:30.000Z</time>
      </trkpt>
      <trkpt lat="42.9624197" lon="-5.737076">
        <time>2020-07-21T09:57:31.000Z</time>
      </trkpt>
      <trkpt lat="42.9624185" lon="-5.7370672">
        <time>2020-07-21T09:57:32.000Z</time>
      </trkpt>
      <trkpt lat="42.962418" lon="-5.7370583">
        <time>2020-07-21T09:57:33.000Z</time>
      </trkpt>
      <trkpt lat="42.9624193" lon="-5.737049">
        <time>2020-07-21T09:57:34.000Z</time>
      </trkpt>
      <trkpt lat="42.9624208" lon="-5.737041">
        <time>2020-07-21T09:57:35.000Z</time>
      </trkpt>
      <trkpt lat="42.9624222" lon="-5.737034">
        <time>2020-07-21T09:57:36.000Z</time>
      </trkpt>
      <trkpt lat="42.9624233" lon="-5.7370292">
        <time>2020-07-21T09:57:37.000Z</time>
      </trkpt>
      <trkpt lat="42.962424" lon="-5.737026">
        <time>2020-07-21T09:57:38.000Z</time>
      </trkpt>
      <trkpt lat="42.9624252" lon="-5.7370235">
        <time>2020-07-21T09:57:39.000Z</time>
      </trkpt>
      <trkpt lat="42.9624252" lon="-5.737023">
        <time>2020-07-21T09:57:40.000Z</time>
      </trkpt>
      <trkpt lat="42.962425" lon="-5.7370245">
        <time>2020-07-21T09:57:41.000Z</time>
      </trkpt>
      <trkpt lat="42.9624255" lon="-5.7370257">
        <time>2020-07-21T09:57:42.000Z</time>
      </trkpt>
      <trkpt lat="42.9624248" lon="-5.7370287">
        <time>2020-07-21T09:57:43.000Z</time>
      </trkpt>
      <trkpt lat="42.9624255" lon="-5.7370318">
        <time>2020-07-21T09:57:44.000Z</time>
      </trkpt>
      <trkpt lat="42.9624253" lon="-5.737034">
        <time>2020-07-21T09:57:45.000Z</time>
      </trkpt>
      <trkpt lat="42.962426" lon="-5.7370342">
        <time>2020-07-21T09:57:46.000Z</time>
      </trkpt>
      <trkpt lat="42.9624262" lon="-5.7370327">
        <time>2020-07-21T09:57:47.000Z</time>
      </trkpt>
      <trkpt lat="42.962426" lon="-5.7370332">
        <time>2020-07-21T09:57:48.000Z</time>
      </trkpt>
      <trkpt lat="42.9624265" lon="-5.7370333">
        <time>2020-07-21T09:57:49.000Z</time>
      </trkpt>
      <trkpt lat="42.9624268" lon="-5.7370322">
        <time>2020-07-21T09:57:50.000Z</time>
      </trkpt>
      <trkpt lat="42.9624272" lon="-5.7370303">
        <time>2020-07-21T09:57:51.000Z</time>
      </trkpt>
      <trkpt lat="42.9624277" lon="-5.7370293">
        <time>2020-07-21T09:57:52.000Z</time>
      </trkpt>
      <trkpt lat="42.9624628" lon="-5.7371087">
        <ele>1465.04</ele>
        <time>2020-07-21T10:17:00.000Z</time>
      </trkpt>
      <trkpt lat="42.9624628" lon="-5.7371087">
        <ele>1465.04</ele>
        <time>2020-07-21T10:17:01.000Z</time>
      </trkpt>
      <trkpt lat="42.9624628" lon="-5.7371087">
        <ele>1465.04</ele>
        <time>2020-07-21T10:17:02.000Z</time>
      </trkpt>
      <trkpt lat="42.9624592" lon="-5.7371085">
        <ele>1465.04</ele>
        <time>2020-07-21T10:17:03.000Z</time>
      </trkpt>
      <trkpt lat="42.9624522" lon="-5.7371048">
        <ele>1465.19</ele>
        <time>2020-07-21T10:17:04.000Z</time>
      </trkpt>
      <trkpt lat="42.9624467" lon="-5.7371012">
        <ele>1465.19</ele>
        <time>2020-07-21T10:17:05.000Z</time>
      </trkpt>
      <trkpt lat="42.9624405" lon="-5.7370965">
        <ele>1465.19</ele>
        <time>2020-07-21T10:17:06.000Z</time>
      </trkpt>
      <trkpt lat="42.9624368" lon="-5.7370933">
        <ele>1465.19</ele>
        <time>2020-07-21T10:17:07.000Z</time>
      </trkpt>
      <trkpt lat="42.962435" lon="-5.7370892">
        <ele>1465.34</ele>
        <time>2020-07-21T10:17:08.000Z</time>
      </trkpt>
      <trkpt lat="42.9624358" lon="-5.7370847">
        <ele>1465.34</ele>
        <time>2020-07-21T10:17:09.000Z</time>
      </trkpt>
      <trkpt lat="42.9624382" lon="-5.7370772">
        <ele>1465.34</ele>
        <time>2020-07-21T10:17:10.000Z</time>
      </trkpt>
      <trkpt lat="42.9624415" lon="-5.7370652">
        <ele>1465.34</ele>
        <time>2020-07-21T10:17:11.000Z</time>
      </trkpt>
      <trkpt lat="42.9624432" lon="-5.7370537">
        <ele>1465.34</ele>
        <time>2020-07-21T10:17:12.000Z</time>
      </trkpt>
      <trkpt lat="42.9624435" lon="-5.7370477">
        <ele>1465.34</ele>
        <time>2020-07-21T10:17:13.000Z</time>
      </trkpt>
      <trkpt lat="42.9624417" lon="-5.7370492">
        <ele>1465.5</ele>
        <time>2020-07-21T10:17:14.000Z</time>
      </trkpt>
      <trkpt lat="42.9624398" lon="-5.7370517">
        <ele>1465.5</ele>
        <time>2020-07-21T10:17:15.000Z</time>
      </trkpt>
      <trkpt lat="42.9624368" lon="-5.7370515">
        <ele>1465.5</ele>
        <time>2020-07-21T10:17:16.000Z</time>
      </trkpt>
      <trkpt lat="42.9624345" lon="-5.7370498">
        <ele>1465.5</ele>
        <time>2020-07-21T10:17:17.000Z</time>
      </trkpt>
      <trkpt lat="42.962432" lon="-5.7370475">
        <ele>1465.5</ele>
        <time>2020-07-21T10:17:18.000Z</time>
      </trkpt>
      <trkpt lat="42.9624308" lon="-5.7370463">
        <ele>1465.5</ele>
        <time>2020-07-21T10:17:19.000Z</time>
      </trkpt>
      <trkpt lat="42.9624293" lon="-5.737045">
        <ele>1465.5</ele>
        <time>2020-07-21T10:17:20.000Z</time>
      </trkpt>
      <trkpt lat="42.962429" lon="-5.737044">
        <ele>1465.5</ele>
        <time>2020-07-21T10:17:21.000Z</time>
      </trkpt>
      <trkpt lat="42.9624295" lon="-5.737042">
        <ele>1465.5</ele>
        <time>2020-07-21T10:17:22.000Z</time>
      </trkpt>
      <trkpt lat="42.9624297" lon="-5.737042">
        <ele>1465.5</ele>
        <time>2020-07-21T10:17:23.000Z</time>
      </trkpt>
      <trkpt lat="42.9624297" lon="-5.7370437">
        <ele>1465.5</ele>
        <time>2020-07-21T10:17:24.000Z</time>
      </trkpt>
      <trkpt lat="42.9624293" lon="-5.7370467">
        <ele>1465.5</ele>
        <time>2020-07-21T10:17:25.000Z</time>
      </trkpt>
      <trkpt lat="42.9624288" lon="-5.7370485">
        <ele>1465.34</ele>
        <time>2020-07-21T10:17:26.000Z</time>
      </trkpt>
      <trkpt lat="42.9624277" lon="-5.7370487">
        <ele>1465.34</ele>
        <time>2020-07-21T10:17:27.000Z</time>
      </trkpt>
      <trkpt lat="42.9624263" lon="-5.7370483">
        <ele>1465.19</ele>
        <time>2020-07-21T10:17:28.000Z</time>
      </trkpt>
      <trkpt lat="42.9624252" lon="-5.7370472">
        <ele>1465.19</ele>
        <time>2020-07-21T10:17:29.000Z</time>
      </trkpt>
      <trkpt lat="42.9624245" lon="-5.7370472">
        <ele>1465.04</ele>
        <time>2020-07-21T10:17:30.000Z</time>
      </trkpt>
      <trkpt lat="42.9624233" lon="-5.7370457">
        <ele>1465.04</ele>
        <time>2020-07-21T10:17:31.000Z</time>
      </trkpt>
      <trkpt lat="42.9624228" lon="-5.737045">
        <ele>1464.89</ele>
        <time>2020-07-21T10:17:32.000Z</time>
      </trkpt>
      <trkpt lat="42.9624218" lon="-5.7370435">
        <ele>1464.89</ele>
        <time>2020-07-21T10:17:33.000Z</time>
      </trkpt>
      <trkpt lat="42.9624222" lon="-5.737044">
        <ele>1464.73</ele>
        <time>2020-07-21T10:17:34.000Z</time>
      </trkpt>
      <trkpt lat="42.9624227" lon="-5.7370455">
        <ele>1464.73</ele>
        <time>2020-07-21T10:17:35.000Z</time>
      </trkpt>
      <trkpt lat="42.9624255" lon="-5.7370488">
        <ele>1464.58</ele>
        <time>2020-07-21T10:17:36.000Z</time>
      </trkpt>
      <trkpt lat="42.9624298" lon="-5.7370545">
        <ele>1464.58</ele>
        <time>2020-07-21T10:17:37.000Z</time>
      </trkpt>
      <trkpt lat="42.9624352" lon="-5.7370613">
        <ele>1464.43</ele>
        <time>2020-07-21T10:17:38.000Z</time>
      </trkpt>
      <trkpt lat="42.9624408" lon="-5.7370643">
        <ele>1464.43</ele>
        <time>2020-07-21T10:17:39.000Z</time>
      </trkpt>
      <trkpt lat="42.962445" lon="-5.7370652">
        <ele>1464.43</ele>
        <time>2020-07-21T10:17:40.000Z</time>
      </trkpt>
      <trkpt lat="42.9624478" lon="-5.7370635">
        <ele>1464.43</ele>
        <time>2020-07-21T10:17:41.000Z</time>
      </trkpt>
      <trkpt lat="42.9624493" lon="-5.737064">
        <ele>1464.43</ele>
        <time>2020-07-21T10:17:42.000Z</time>
      </trkpt>
      <trkpt lat="42.9624498" lon="-5.7370645">
        <ele>1464.43</ele>
        <time>2020-07-21T10:17:43.000Z</time>
      </trkpt>
      <trkpt lat="42.96245" lon="-5.737064">
        <ele>1464.58</ele>
        <time>2020-07-21T10:17:44.000Z</time>
      </trkpt>
      <trkpt lat="42.962449" lon="-5.737064">
        <ele>1464.58</ele>
        <time>2020-07-21T10:17:45.000Z</time>
      </trkpt>
      <trkpt lat="42.9624483" lon="-5.7370623">
        <ele>1464.73</ele>
        <time>2020-07-21T10:17:46.000Z</time>
      </trkpt>
      <trkpt lat="42.9624472" lon="-5.737061">
        <ele>1464.73</ele>
        <time>2020-07-21T10:17:47.000Z</time>
      </trkpt>
      <trkpt lat="42.9624467" lon="-5.7370602">
        <ele>1464.89</ele>
        <time>2020-07-21T10:17:48.000Z</time>
      </trkpt>
      <trkpt lat="42.9624462" lon="-5.73706">
        <ele>1464.89</ele>
        <time>2020-07-21T10:17:49.000Z</time>
      </trkpt>
      <trkpt lat="42.9624463" lon="-5.7370605">
        <ele>1465.04</ele>
        <time>2020-07-21T10:17:50.000Z</time>
      </trkpt>
      <trkpt lat="42.9624468" lon="-5.737061">
        <ele>1465.04</ele>
        <time>2020-07-21T10:17:51.000Z</time>
      </trkpt>
      <trkpt lat="42.962447" lon="-5.7370613">
        <ele>1465.19</ele>
        <time>2020-07-21T10:17:52.000Z</time>
      </trkpt>
      <trkpt lat="42.962447" lon="-5.737063">
        <ele>1465.19</ele>
        <time>2020-07-21T10:17:53.000Z</time>
      </trkpt>
      <trkpt lat="42.9624458" lon="-5.737065">
        <ele>1465.34</ele>
        <time>2020-07-21T10:17:54.000Z</time>
      </trkpt>
      <trkpt lat="42.9624467" lon="-5.7370673">
        <ele>1465.34</ele>
        <time>2020-07-21T10:17:55.000Z</time>
      </trkpt>
      <trkpt lat="42.9624483" lon="-5.737069">
        <ele>1465.5</ele>
        <time>2020-07-21T10:17:56.000Z</time>
      </trkpt>
      <trkpt lat="42.9624523" lon="-5.7370732">
        <ele>1465.5</ele>
        <time>2020-07-21T10:17:57.000Z</time>
      </trkpt>
      <trkpt lat="42.962456" lon="-5.7370802">
        <ele>1465.65</ele>
        <time>2020-07-21T10:17:58.000Z</time>
      </trkpt>
      <trkpt lat="42.9624615" lon="-5.7370908">
        <ele>1465.65</ele>
        <time>2020-07-21T10:17:59.000Z</time>
      </trkpt>
      <trkpt lat="42.9624675" lon="-5.7371022">
        <ele>1465.8</ele>
        <time>2020-07-21T10:18:00.000Z</time>
      </trkpt>
      <trkpt lat="42.962477" lon="-5.7371138">
        <ele>1465.8</ele>
        <time>2020-07-21T10:18:01.000Z</time>
      </trkpt>
      <trkpt lat="42.9624852" lon="-5.7371227">
        <ele>1466.11</ele>
        <time>2020-07-21T10:18:02.000Z</time>
      </trkpt>
      <trkpt lat="42.9624927" lon="-5.7371295">
        <ele>1466.11</ele>
        <time>2020-07-21T10:18:03.000Z</time>
      </trkpt>
      <trkpt lat="42.9624973" lon="-5.7371367">
        <ele>1466.26</ele>
        <time>2020-07-21T10:18:04.000Z</time>
      </trkpt>
      <trkpt lat="42.9625012" lon="-5.7371482">
        <ele>1466.26</ele>
        <time>2020-07-21T10:18:05.000Z</time>
      </trkpt>
      <trkpt lat="42.9625035" lon="-5.7371632">
        <ele>1466.56</ele>
        <time>2020-07-21T10:18:06.000Z</time>
      </trkpt>
      <trkpt lat="42.9625038" lon="-5.7371768">
        <ele>1466.56</ele>
        <time>2020-07-21T10:18:07.000Z</time>
      </trkpt>
      <trkpt lat="42.9625038" lon="-5.7371862">
        <ele>1466.87</ele>
        <time>2020-07-21T10:18:08.000Z</time>
      </trkpt>
      <trkpt lat="42.9625025" lon="-5.7371905">
        <ele>1466.87</ele>
        <time>2020-07-21T10:18:09.000Z</time>
      </trkpt>
      <trkpt lat="42.9625027" lon="-5.7371915">
        <ele>1467.17</ele>
        <time>2020-07-21T10:18:10.000Z</time>
      </trkpt>
      <trkpt lat="42.9625023" lon="-5.737191">
        <ele>1467.17</ele>
        <time>2020-07-21T10:18:11.000Z</time>
      </trkpt>
      <trkpt lat="42.962503" lon="-5.7371903">
        <ele>1467.48</ele>
        <time>2020-07-21T10:18:12.000Z</time>
      </trkpt>
      <trkpt lat="42.9625027" lon="-5.7371907">
        <ele>1467.48</ele>
        <time>2020-07-21T10:18:13.000Z</time>
      </trkpt>
      <trkpt lat="42.9625023" lon="-5.737191">
        <ele>1467.94</ele>
        <time>2020-07-21T10:18:14.000Z</time>
      </trkpt>
      <trkpt lat="42.9625018" lon="-5.7371913">
        <ele>1467.94</ele>
        <time>2020-07-21T10:18:15.000Z</time>
      </trkpt>
      <trkpt lat="42.9625007" lon="-5.7371915">
        <ele>1468.39</ele>
        <time>2020-07-21T10:18:16.000Z</time>
      </trkpt>
      <trkpt lat="42.9624993" lon="-5.7371913">
        <ele>1468.39</ele>
        <time>2020-07-21T10:18:17.000Z</time>
      </trkpt>
      <trkpt lat="42.9624982" lon="-5.7371908">
        <ele>1468.85</ele>
        <time>2020-07-21T10:18:18.000Z</time>
      </trkpt>
      <trkpt lat="42.9624975" lon="-5.7371905">
        <ele>1468.85</ele>
        <time>2020-07-21T10:18:19.000Z</time>
      </trkpt>
      <trkpt lat="42.9624983" lon="-5.7371942">
        <ele>1469.31</ele>
        <time>2020-07-21T10:18:20.000Z</time>
      </trkpt>
      <trkpt lat="42.9624998" lon="-5.7372022">
        <ele>1469.31</ele>
        <time>2020-07-21T10:18:21.000Z</time>
      </trkpt>
      <trkpt lat="42.9625027" lon="-5.7372157">
        <ele>1469.76</ele>
        <time>2020-07-21T10:18:22.000Z</time>
      </trkpt>
      <trkpt lat="42.9625067" lon="-5.7372295">
        <ele>1469.76</ele>
        <time>2020-07-21T10:18:23.000Z</time>
      </trkpt>
      <trkpt lat="42.9625132" lon="-5.7372443">
        <ele>1470.22</ele>
        <time>2020-07-21T10:18:24.000Z</time>
      </trkpt>
      <trkpt lat="42.962523" lon="-5.7372582">
        <ele>1470.22</ele>
        <time>2020-07-21T10:18:25.000Z</time>
      </trkpt>
      <trkpt lat="42.9625343" lon="-5.7372697">
        <ele>1470.83</ele>
        <time>2020-07-21T10:18:26.000Z</time>
      </trkpt>
      <trkpt lat="42.9625468" lon="-5.7372763">
        <ele>1470.83</ele>
        <time>2020-07-21T10:18:27.000Z</time>
      </trkpt>
      <trkpt lat="42.96256" lon="-5.7372763">
        <ele>1471.29</ele>
        <time>2020-07-21T10:18:28.000Z</time>
      </trkpt>
      <trkpt lat="42.9625743" lon="-5.737274">
        <ele>1471.29</ele>
        <time>2020-07-21T10:18:29.000Z</time>
      </trkpt>
      <trkpt lat="42.962589" lon="-5.7372718">
        <ele>1471.74</ele>
        <time>2020-07-21T10:18:30.000Z</time>
      </trkpt>
      <trkpt lat="42.962603" lon="-5.737271">
        <ele>1471.74</ele>
        <time>2020-07-21T10:18:31.000Z</time>
      </trkpt>
      <trkpt lat="42.9626165" lon="-5.7372705">
        <ele>1472.35</ele>
        <time>2020-07-21T10:18:32.000Z</time>
      </trkpt>
      <trkpt lat="42.96263" lon="-5.7372687">
        <ele>1472.35</ele>
        <time>2020-07-21T10:18:33.000Z</time>
      </trkpt>
      <trkpt lat="42.9626415" lon="-5.7372683">
        <ele>1472.81</ele>
        <time>2020-07-21T10:18:34.000Z</time>
      </trkpt>
      <trkpt lat="42.9626532" lon="-5.737268">
        <ele>1472.81</ele>
        <time>2020-07-21T10:18:35.000Z</time>
      </trkpt>
      <trkpt lat="42.9626647" lon="-5.7372687">
        <ele>1473.27</ele>
        <time>2020-07-21T10:18:36.000Z</time>
      </trkpt>
      <trkpt lat="42.9626772" lon="-5.7372685">
        <ele>1473.27</ele>
        <time>2020-07-21T10:18:37.000Z</time>
      </trkpt>
      <trkpt lat="42.9626772" lon="-5.7372685">
        <ele>1473.88</ele>
        <time>2020-07-21T10:18:38.000Z</time>
      </trkpt>
      <trkpt lat="42.9626928" lon="-5.737269">
        <ele>1473.88</ele>
        <time>2020-07-21T10:18:39.000Z</time>
      </trkpt>
      <trkpt lat="42.9627077" lon="-5.7372703">
        <ele>1474.33</ele>
        <time>2020-07-21T10:18:40.000Z</time>
      </trkpt>
      <trkpt lat="42.962722" lon="-5.7372718">
        <ele>1474.33</ele>
        <time>2020-07-21T10:18:41.000Z</time>
      </trkpt>
      <trkpt lat="42.9627327" lon="-5.7372738">
        <ele>1474.79</ele>
        <time>2020-07-21T10:18:42.000Z</time>
      </trkpt>
      <trkpt lat="42.962743" lon="-5.7372772">
        <ele>1474.79</ele>
        <time>2020-07-21T10:18:43.000Z</time>
      </trkpt>
      <trkpt lat="42.9627525" lon="-5.7372827">
        <ele>1475.25</ele>
        <time>2020-07-21T10:18:44.000Z</time>
      </trkpt>
      <trkpt lat="42.962763" lon="-5.737291">
        <ele>1475.25</ele>
        <time>2020-07-21T10:18:45.000Z</time>
      </trkpt>
      <trkpt lat="42.9627733" lon="-5.7372992">
        <ele>1475.86</ele>
        <time>2020-07-21T10:18:46.000Z</time>
      </trkpt>
      <trkpt lat="42.9627862" lon="-5.7373053">
        <ele>1475.86</ele>
        <time>2020-07-21T10:18:47.000Z</time>
      </trkpt>
      <trkpt lat="42.9627985" lon="-5.737309">
        <ele>1476.32</ele>
        <time>2020-07-21T10:18:48.000Z</time>
      </trkpt>
      <trkpt lat="42.9628133" lon="-5.7373107">
        <ele>1476.32</ele>
        <time>2020-07-21T10:18:49.000Z</time>
      </trkpt>
      <trkpt lat="42.9628277" lon="-5.7373125">
        <ele>1476.77</ele>
        <time>2020-07-21T10:18:50.000Z</time>
      </trkpt>
      <trkpt lat="42.9628423" lon="-5.7373138">
        <ele>1476.77</ele>
        <time>2020-07-21T10:18:51.000Z</time>
      </trkpt>
      <trkpt lat="42.9628547" lon="-5.7373165">
        <ele>1477.23</ele>
        <time>2020-07-21T10:18:52.000Z</time>
      </trkpt>
      <trkpt lat="42.9628653" lon="-5.7373208">
        <ele>1477.23</ele>
        <time>2020-07-21T10:18:53.000Z</time>
      </trkpt>
      <trkpt lat="42.9628758" lon="-5.737325">
        <ele>1477.84</ele>
        <time>2020-07-21T10:18:54.000Z</time>
      </trkpt>
      <trkpt lat="42.962887" lon="-5.7373292">
        <ele>1477.84</ele>
        <time>2020-07-21T10:18:55.000Z</time>
      </trkpt>
      <trkpt lat="42.9628995" lon="-5.7373313">
        <ele>1478.3</ele>
        <time>2020-07-21T10:18:56.000Z</time>
      </trkpt>
      <trkpt lat="42.9629122" lon="-5.7373327">
        <ele>1478.3</ele>
        <time>2020-07-21T10:18:57.000Z</time>
      </trkpt>
      <trkpt lat="42.962925" lon="-5.7373337">
        <ele>1478.76</ele>
        <time>2020-07-21T10:18:58.000Z</time>
      </trkpt>
      <trkpt lat="42.9629373" lon="-5.7373352">
        <ele>1478.76</ele>
        <time>2020-07-21T10:18:59.000Z</time>
      </trkpt>
      <trkpt lat="42.9629495" lon="-5.7373358">
        <ele>1479.21</ele>
        <time>2020-07-21T10:19:00.000Z</time>
      </trkpt>
      <trkpt lat="42.9629615" lon="-5.7373348">
        <ele>1479.21</ele>
        <time>2020-07-21T10:19:01.000Z</time>
      </trkpt>
      <trkpt lat="42.962974" lon="-5.7373327">
        <ele>1479.67</ele>
        <time>2020-07-21T10:19:02.000Z</time>
      </trkpt>
      <trkpt lat="42.9629855" lon="-5.7373307">
        <ele>1479.67</ele>
        <time>2020-07-21T10:19:03.000Z</time>
      </trkpt>
      <trkpt lat="42.9629967" lon="-5.7373292">
        <ele>1480.13</ele>
        <time>2020-07-21T10:19:04.000Z</time>
      </trkpt>
      <trkpt lat="42.9630073" lon="-5.7373285">
        <ele>1480.13</ele>
        <time>2020-07-21T10:19:05.000Z</time>
      </trkpt>
      <trkpt lat="42.9630178" lon="-5.7373285">
        <ele>1480.74</ele>
        <time>2020-07-21T10:19:06.000Z</time>
      </trkpt>
      <trkpt lat="42.9630282" lon="-5.7373305">
        <ele>1480.74</ele>
        <time>2020-07-21T10:19:07.000Z</time>
      </trkpt>
      <trkpt lat="42.9630382" lon="-5.7373345">
        <ele>1481.19</ele>
        <time>2020-07-21T10:19:08.000Z</time>
      </trkpt>
      <trkpt lat="42.9630483" lon="-5.7373393">
        <ele>1481.19</ele>
        <time>2020-07-21T10:19:09.000Z</time>
      </trkpt>
      <trkpt lat="42.9630583" lon="-5.7373437">
        <ele>1481.65</ele>
        <time>2020-07-21T10:19:10.000Z</time>
      </trkpt>
      <trkpt lat="42.9630685" lon="-5.7373472">
        <ele>1481.65</ele>
        <time>2020-07-21T10:19:11.000Z</time>
      </trkpt>
      <trkpt lat="42.9630788" lon="-5.7373508">
        <ele>1482.11</ele>
        <time>2020-07-21T10:19:12.000Z</time>
      </trkpt>
      <trkpt lat="42.9630898" lon="-5.7373535">
        <ele>1482.11</ele>
        <time>2020-07-21T10:19:13.000Z</time>
      </trkpt>
      <trkpt lat="42.9631013" lon="-5.7373542">
        <ele>1482.56</ele>
        <time>2020-07-21T10:19:14.000Z</time>
      </trkpt>
      <trkpt lat="42.963112" lon="-5.7373517">
        <ele>1482.56</ele>
        <time>2020-07-21T10:19:15.000Z</time>
      </trkpt>
      <trkpt lat="42.9631227" lon="-5.737348">
        <ele>1483.02</ele>
        <time>2020-07-21T10:19:16.000Z</time>
      </trkpt>
      <trkpt lat="42.9631327" lon="-5.7373435">
        <ele>1483.02</ele>
        <time>2020-07-21T10:19:17.000Z</time>
      </trkpt>
      <trkpt lat="42.963143" lon="-5.7373388">
        <ele>1483.48</ele>
        <time>2020-07-21T10:19:18.000Z</time>
      </trkpt>
      <trkpt lat="42.9631528" lon="-5.7373328">
        <ele>1483.48</ele>
        <time>2020-07-21T10:19:19.000Z</time>
      </trkpt>
      <trkpt lat="42.9631623" lon="-5.7373257">
        <ele>1483.94</ele>
        <time>2020-07-21T10:19:20.000Z</time>
      </trkpt>
      <trkpt lat="42.9631707" lon="-5.7373177">
        <ele>1483.94</ele>
        <time>2020-07-21T10:19:21.000Z</time>
      </trkpt>
      <trkpt lat="42.963178" lon="-5.7373092">
        <ele>1484.39</ele>
        <time>2020-07-21T10:19:22.000Z</time>
      </trkpt>
      <trkpt lat="42.9631843" lon="-5.7373002">
        <ele>1484.39</ele>
        <time>2020-07-21T10:19:23.000Z</time>
      </trkpt>
      <trkpt lat="42.963192" lon="-5.737292">
        <ele>1484.85</ele>
        <time>2020-07-21T10:19:24.000Z</time>
      </trkpt>
      <trkpt lat="42.9632005" lon="-5.737285">
        <ele>1484.85</ele>
        <time>2020-07-21T10:19:25.000Z</time>
      </trkpt>
      <trkpt lat="42.9632097" lon="-5.7372802">
        <ele>1485.31</ele>
        <time>2020-07-21T10:19:26.000Z</time>
      </trkpt>
      <trkpt lat="42.9632193" lon="-5.7372785">
        <ele>1485.31</ele>
        <time>2020-07-21T10:19:27.000Z</time>
      </trkpt>
      <trkpt lat="42.9632295" lon="-5.7372775">
        <ele>1485.77</ele>
        <time>2020-07-21T10:19:28.000Z</time>
      </trkpt>
      <trkpt lat="42.96324" lon="-5.7372757">
        <ele>1485.77</ele>
        <time>2020-07-21T10:19:29.000Z</time>
      </trkpt>
      <trkpt lat="42.9632492" lon="-5.7372713">
        <ele>1485.77</ele>
        <time>2020-07-21T10:19:30.000Z</time>
      </trkpt>
      <trkpt lat="42.9632575" lon="-5.737266">
        <ele>1485.77</ele>
        <time>2020-07-21T10:19:31.000Z</time>
      </trkpt>
      <trkpt lat="42.9632658" lon="-5.7372597">
        <ele>1485.92</ele>
        <time>2020-07-21T10:19:32.000Z</time>
      </trkpt>
      <trkpt lat="42.9632742" lon="-5.737253">
        <ele>1485.92</ele>
        <time>2020-07-21T10:19:33.000Z</time>
      </trkpt>
      <trkpt lat="42.9632822" lon="-5.7372455">
        <ele>1485.92</ele>
        <time>2020-07-21T10:19:34.000Z</time>
      </trkpt>
      <trkpt lat="42.9632895" lon="-5.7372377">
        <ele>1485.92</ele>
        <time>2020-07-21T10:19:35.000Z</time>
      </trkpt>
      <trkpt lat="42.9632953" lon="-5.737228">
        <ele>1486.07</ele>
        <time>2020-07-21T10:19:36.000Z</time>
      </trkpt>
      <trkpt lat="42.9632998" lon="-5.7372177">
        <ele>1486.07</ele>
        <time>2020-07-21T10:19:37.000Z</time>
      </trkpt>
      <trkpt lat="42.9633032" lon="-5.7372077">
        <ele>1486.07</ele>
        <time>2020-07-21T10:19:38.000Z</time>
      </trkpt>
      <trkpt lat="42.9633072" lon="-5.7371982">
        <ele>1486.07</ele>
        <time>2020-07-21T10:19:39.000Z</time>
      </trkpt>
      <trkpt lat="42.9633113" lon="-5.7371883">
        <ele>1486.07</ele>
        <time>2020-07-21T10:19:40.000Z</time>
      </trkpt>
      <trkpt lat="42.9633152" lon="-5.7371778">
        <ele>1486.07</ele>
        <time>2020-07-21T10:19:41.000Z</time>
      </trkpt>
      <trkpt lat="42.9633188" lon="-5.7371672">
        <ele>1486.22</ele>
        <time>2020-07-21T10:19:42.000Z</time>
      </trkpt>
      <trkpt lat="42.9633222" lon="-5.737156">
        <ele>1486.22</ele>
        <time>2020-07-21T10:19:43.000Z</time>
      </trkpt>
      <trkpt lat="42.9633252" lon="-5.7371445">
        <ele>1486.22</ele>
        <time>2020-07-21T10:19:44.000Z</time>
      </trkpt>
      <trkpt lat="42.963328" lon="-5.7371322">
        <ele>1486.22</ele>
        <time>2020-07-21T10:19:45.000Z</time>
      </trkpt>
      <trkpt lat="42.9633315" lon="-5.7371202">
        <ele>1486.38</ele>
        <time>2020-07-21T10:19:46.000Z</time>
      </trkpt>
      <trkpt lat="42.9633357" lon="-5.7371083">
        <ele>1486.38</ele>
        <time>2020-07-21T10:19:47.000Z</time>
      </trkpt>
      <trkpt lat="42.9633405" lon="-5.737097">
        <ele>1486.38</ele>
        <time>2020-07-21T10:19:48.000Z</time>
      </trkpt>
      <trkpt lat="42.9633457" lon="-5.7370858">
        <ele>1486.38</ele>
        <time>2020-07-21T10:19:49.000Z</time>
      </trkpt>
      <trkpt lat="42.963351" lon="-5.7370763">
        <ele>1486.53</ele>
        <time>2020-07-21T10:19:50.000Z</time>
      </trkpt>
      <trkpt lat="42.9633567" lon="-5.7370673">
        <ele>1486.53</ele>
        <time>2020-07-21T10:19:51.000Z</time>
      </trkpt>
      <trkpt lat="42.9633618" lon="-5.737058">
        <ele>1486.53</ele>
        <time>2020-07-21T10:19:52.000Z</time>
      </trkpt>
      <trkpt lat="42.9633668" lon="-5.7370467">
        <ele>1486.53</ele>
        <time>2020-07-21T10:19:53.000Z</time>
      </trkpt>
      <trkpt lat="42.9633718" lon="-5.7370348">
        <ele>1486.53</ele>
        <time>2020-07-21T10:19:54.000Z</time>
      </trkpt>
      <trkpt lat="42.9633783" lon="-5.7370237">
        <ele>1486.53</ele>
        <time>2020-07-21T10:19:55.000Z</time>
      </trkpt>
      <trkpt lat="42.9633858" lon="-5.737013">
        <ele>1486.68</ele>
        <time>2020-07-21T10:19:56.000Z</time>
      </trkpt>
      <trkpt lat="42.963394" lon="-5.7370013">
        <ele>1486.68</ele>
        <time>2020-07-21T10:19:57.000Z</time>
      </trkpt>
      <trkpt lat="42.9634013" lon="-5.7369878">
        <ele>1486.68</ele>
        <time>2020-07-21T10:19:58.000Z</time>
      </trkpt>
      <trkpt lat="42.9634078" lon="-5.7369728">
        <ele>1486.68</ele>
        <time>2020-07-21T10:19:59.000Z</time>
      </trkpt>
      <trkpt lat="42.9634142" lon="-5.736958">
        <ele>1486.83</ele>
        <time>2020-07-21T10:20:00.000Z</time>
      </trkpt>
      <trkpt lat="42.9634213" lon="-5.7369437">
        <ele>1486.83</ele>
        <time>2020-07-21T10:20:01.000Z</time>
      </trkpt>
      <trkpt lat="42.9634288" lon="-5.7369297">
        <ele>1486.83</ele>
        <time>2020-07-21T10:20:02.000Z</time>
      </trkpt>
      <trkpt lat="42.963436" lon="-5.7369163">
        <ele>1486.83</ele>
        <time>2020-07-21T10:20:03.000Z</time>
      </trkpt>
      <trkpt lat="42.9634428" lon="-5.7369035">
        <ele>1486.98</ele>
        <time>2020-07-21T10:20:04.000Z</time>
      </trkpt>
      <trkpt lat="42.9634493" lon="-5.7368923">
        <ele>1486.98</ele>
        <time>2020-07-21T10:20:05.000Z</time>
      </trkpt>
      <trkpt lat="42.9634563" lon="-5.7368812">
        <ele>1487.14</ele>
        <time>2020-07-21T10:20:06.000Z</time>
      </trkpt>
      <trkpt lat="42.9634633" lon="-5.7368703">
        <ele>1487.14</ele>
        <time>2020-07-21T10:20:07.000Z</time>
      </trkpt>
      <trkpt lat="42.9634705" lon="-5.7368582">
        <ele>1487.29</ele>
        <time>2020-07-21T10:20:08.000Z</time>
      </trkpt>
      <trkpt lat="42.9634772" lon="-5.7368467">
        <ele>1487.29</ele>
        <time>2020-07-21T10:20:09.000Z</time>
      </trkpt>
      <trkpt lat="42.9634838" lon="-5.7368367">
        <ele>1487.44</ele>
        <time>2020-07-21T10:20:10.000Z</time>
      </trkpt>
      <trkpt lat="42.9634907" lon="-5.7368287">
        <ele>1487.44</ele>
        <time>2020-07-21T10:20:11.000Z</time>
      </trkpt>
      <trkpt lat="42.9634983" lon="-5.7368202">
        <ele>1487.44</ele>
        <time>2020-07-21T10:20:12.000Z</time>
      </trkpt>
      <trkpt lat="42.9635062" lon="-5.7368103">
        <ele>1487.44</ele>
        <time>2020-07-21T10:20:13.000Z</time>
      </trkpt>
      <trkpt lat="42.9635143" lon="-5.7367983">
        <ele>1487.59</ele>
        <time>2020-07-21T10:20:14.000Z</time>
      </trkpt>
      <trkpt lat="42.9635218" lon="-5.7367865">
        <ele>1487.59</ele>
        <time>2020-07-21T10:20:15.000Z</time>
      </trkpt>
      <trkpt lat="42.9635287" lon="-5.7367733">
        <ele>1487.75</ele>
        <time>2020-07-21T10:20:16.000Z</time>
      </trkpt>
      <trkpt lat="42.9635355" lon="-5.7367612">
        <ele>1487.75</ele>
        <time>2020-07-21T10:20:17.000Z</time>
      </trkpt>
      <trkpt lat="42.9635427" lon="-5.7367495">
        <ele>1487.9</ele>
        <time>2020-07-21T10:20:18.000Z</time>
      </trkpt>
      <trkpt lat="42.9635502" lon="-5.7367393">
        <ele>1487.9</ele>
        <time>2020-07-21T10:20:19.000Z</time>
      </trkpt>
      <trkpt lat="42.963557" lon="-5.73673">
        <ele>1488.05</ele>
        <time>2020-07-21T10:20:20.000Z</time>
      </trkpt>
      <trkpt lat="42.9635628" lon="-5.7367203">
        <ele>1488.05</ele>
        <time>2020-07-21T10:20:21.000Z</time>
      </trkpt>
      <trkpt lat="42.963568" lon="-5.7367118">
        <ele>1488.2</ele>
        <time>2020-07-21T10:20:22.000Z</time>
      </trkpt>
      <trkpt lat="42.9635715" lon="-5.7367052">
        <ele>1488.2</ele>
        <time>2020-07-21T10:20:23.000Z</time>
      </trkpt>
      <trkpt lat="42.9635735" lon="-5.7367018">
        <ele>1488.36</ele>
        <time>2020-07-21T10:20:24.000Z</time>
      </trkpt>
      <trkpt lat="42.9635752" lon="-5.7367003">
        <ele>1488.36</ele>
        <time>2020-07-21T10:20:25.000Z</time>
      </trkpt>
      <trkpt lat="42.9635792" lon="-5.7366952">
        <ele>1488.51</ele>
        <time>2020-07-21T10:20:26.000Z</time>
      </trkpt>
      <trkpt lat="42.9635852" lon="-5.7366878">
        <ele>1488.51</ele>
        <time>2020-07-21T10:20:27.000Z</time>
      </trkpt>
      <trkpt lat="42.9635915" lon="-5.736679">
        <ele>1488.66</ele>
        <time>2020-07-21T10:20:28.000Z</time>
      </trkpt>
      <trkpt lat="42.9635968" lon="-5.736672">
        <ele>1488.66</ele>
        <time>2020-07-21T10:20:29.000Z</time>
      </trkpt>
      <trkpt lat="42.9636008" lon="-5.736665">
        <ele>1488.81</ele>
        <time>2020-07-21T10:20:30.000Z</time>
      </trkpt>
      <trkpt lat="42.963603" lon="-5.7366587">
        <ele>1488.81</ele>
        <time>2020-07-21T10:20:31.000Z</time>
      </trkpt>
      <trkpt lat="42.9636043" lon="-5.736656">
        <ele>1489.12</ele>
        <time>2020-07-21T10:20:32.000Z</time>
      </trkpt>
      <trkpt lat="42.9636047" lon="-5.7366557">
        <ele>1489.12</ele>
        <time>2020-07-21T10:20:33.000Z</time>
      </trkpt>
      <trkpt lat="42.9636053" lon="-5.7366567">
        <ele>1489.27</ele>
        <time>2020-07-21T10:20:34.000Z</time>
      </trkpt>
      <trkpt lat="42.9636057" lon="-5.7366575">
        <ele>1489.27</ele>
        <time>2020-07-21T10:20:35.000Z</time>
      </trkpt>
      <trkpt lat="42.9636072" lon="-5.7366573">
        <ele>1489.42</ele>
        <time>2020-07-21T10:20:36.000Z</time>
      </trkpt>
      <trkpt lat="42.963611" lon="-5.7366548">
        <ele>1489.42</ele>
        <time>2020-07-21T10:20:37.000Z</time>
      </trkpt>
      <trkpt lat="42.963618" lon="-5.7366492">
        <ele>1489.73</ele>
        <time>2020-07-21T10:20:38.000Z</time>
      </trkpt>
      <trkpt lat="42.9636267" lon="-5.736641">
        <ele>1489.73</ele>
        <time>2020-07-21T10:20:39.000Z</time>
      </trkpt>
      <trkpt lat="42.963636" lon="-5.7366323">
        <ele>1489.88</ele>
        <time>2020-07-21T10:20:40.000Z</time>
      </trkpt>
      <trkpt lat="42.9636453" lon="-5.736623">
        <ele>1489.88</ele>
        <time>2020-07-21T10:20:41.000Z</time>
      </trkpt>
      <trkpt lat="42.9636547" lon="-5.736615">
        <ele>1490.03</ele>
        <time>2020-07-21T10:20:42.000Z</time>
      </trkpt>
      <trkpt lat="42.9636608" lon="-5.7366092">
        <ele>1490.03</ele>
        <time>2020-07-21T10:20:43.000Z</time>
      </trkpt>
      <trkpt lat="42.9636642" lon="-5.7366063">
        <ele>1490.34</ele>
        <time>2020-07-21T10:20:44.000Z</time>
      </trkpt>
      <trkpt lat="42.9636642" lon="-5.7366055">
        <ele>1490.34</ele>
        <time>2020-07-21T10:20:45.000Z</time>
      </trkpt>
      <trkpt lat="42.9636658" lon="-5.7366048">
        <ele>1490.49</ele>
        <time>2020-07-21T10:20:46.000Z</time>
      </trkpt>
      <trkpt lat="42.96367" lon="-5.7366022">
        <ele>1490.49</ele>
        <time>2020-07-21T10:20:47.000Z</time>
      </trkpt>
      <trkpt lat="42.9636773" lon="-5.7365962">
        <ele>1490.8</ele>
        <time>2020-07-21T10:20:48.000Z</time>
      </trkpt>
      <trkpt lat="42.9636863" lon="-5.7365883">
        <ele>1490.8</ele>
        <time>2020-07-21T10:20:49.000Z</time>
      </trkpt>
      <trkpt lat="42.963696" lon="-5.7365803">
        <ele>1490.95</ele>
        <time>2020-07-21T10:20:50.000Z</time>
      </trkpt>
      <trkpt lat="42.9637057" lon="-5.7365723">
        <ele>1490.95</ele>
        <time>2020-07-21T10:20:51.000Z</time>
      </trkpt>
      <trkpt lat="42.9637145" lon="-5.7365643">
        <ele>1491.25</ele>
        <time>2020-07-21T10:20:52.000Z</time>
      </trkpt>
      <trkpt lat="42.9637232" lon="-5.736555">
        <ele>1491.25</ele>
        <time>2020-07-21T10:20:53.000Z</time>
      </trkpt>
      <trkpt lat="42.9637318" lon="-5.7365452">
        <ele>1491.41</ele>
        <time>2020-07-21T10:20:54.000Z</time>
      </trkpt>
      <trkpt lat="42.9637408" lon="-5.7365348">
        <ele>1491.41</ele>
        <time>2020-07-21T10:20:55.000Z</time>
      </trkpt>
      <trkpt lat="42.9637492" lon="-5.736524">
        <ele>1491.71</ele>
        <time>2020-07-21T10:20:56.000Z</time>
      </trkpt>
      <trkpt lat="42.963757" lon="-5.7365137">
        <ele>1491.71</ele>
        <time>2020-07-21T10:20:57.000Z</time>
      </trkpt>
      <trkpt lat="42.9637645" lon="-5.7365025">
        <ele>1491.86</ele>
        <time>2020-07-21T10:20:58.000Z</time>
      </trkpt>
      <trkpt lat="42.9637717" lon="-5.7364915">
        <ele>1491.86</ele>
        <time>2020-07-21T10:20:59.000Z</time>
      </trkpt>
      <trkpt lat="42.9637785" lon="-5.7364805">
        <ele>1492.17</ele>
        <time>2020-07-21T10:21:00.000Z</time>
      </trkpt>
      <trkpt lat="42.9637853" lon="-5.7364698">
        <ele>1492.17</ele>
        <time>2020-07-21T10:21:01.000Z</time>
      </trkpt>
      <trkpt lat="42.9637935" lon="-5.7364585">
        <ele>1492.47</ele>
        <time>2020-07-21T10:21:02.000Z</time>
      </trkpt>
      <trkpt lat="42.9638028" lon="-5.7364475">
        <ele>1492.47</ele>
        <time>2020-07-21T10:21:03.000Z</time>
      </trkpt>
      <trkpt lat="42.9638132" lon="-5.7364372">
        <ele>1492.62</ele>
        <time>2020-07-21T10:21:04.000Z</time>
      </trkpt>
      <trkpt lat="42.9638227" lon="-5.7364287">
        <ele>1492.62</ele>
        <time>2020-07-21T10:21:05.000Z</time>
      </trkpt>
      <trkpt lat="42.9638325" lon="-5.736419">
        <ele>1492.93</ele>
        <time>2020-07-21T10:21:06.000Z</time>
      </trkpt>
      <trkpt lat="42.9638422" lon="-5.7364078">
        <ele>1492.93</ele>
        <time>2020-07-21T10:21:07.000Z</time>
      </trkpt>
      <trkpt lat="42.9638518" lon="-5.7363967">
        <ele>1493.23</ele>
        <time>2020-07-21T10:21:08.000Z</time>
      </trkpt>
      <trkpt lat="42.9638602" lon="-5.7363863">
        <ele>1493.23</ele>
        <time>2020-07-21T10:21:09.000Z</time>
      </trkpt>
      <trkpt lat="42.9638683" lon="-5.7363762">
        <ele>1493.54</ele>
        <time>2020-07-21T10:21:10.000Z</time>
      </trkpt>
      <trkpt lat="42.9638765" lon="-5.7363643">
        <ele>1493.54</ele>
        <time>2020-07-21T10:21:11.000Z</time>
      </trkpt>
      <trkpt lat="42.9638852" lon="-5.7363518">
        <ele>1493.84</ele>
        <time>2020-07-21T10:21:12.000Z</time>
      </trkpt>
      <trkpt lat="42.9638933" lon="-5.7363397">
        <ele>1493.84</ele>
        <time>2020-07-21T10:21:13.000Z</time>
      </trkpt>
      <trkpt lat="42.9639003" lon="-5.7363278">
        <ele>1494.15</ele>
        <time>2020-07-21T10:21:14.000Z</time>
      </trkpt>
      <trkpt lat="42.963906" lon="-5.7363148">
        <ele>1494.15</ele>
        <time>2020-07-21T10:21:15.000Z</time>
      </trkpt>
      <trkpt lat="42.9639115" lon="-5.7363008">
        <ele>1494.45</ele>
        <time>2020-07-21T10:21:16.000Z</time>
      </trkpt>
      <trkpt lat="42.9639178" lon="-5.736287">
        <ele>1494.45</ele>
        <time>2020-07-21T10:21:17.000Z</time>
      </trkpt>
      <trkpt lat="42.963925" lon="-5.7362737">
        <ele>1494.6</ele>
        <time>2020-07-21T10:21:18.000Z</time>
      </trkpt>
      <trkpt lat="42.9639322" lon="-5.7362622">
        <ele>1494.6</ele>
        <time>2020-07-21T10:21:19.000Z</time>
      </trkpt>
      <trkpt lat="42.96394" lon="-5.7362515">
        <ele>1494.91</ele>
        <time>2020-07-21T10:21:20.000Z</time>
      </trkpt>
      <trkpt lat="42.9639483" lon="-5.736242">
        <ele>1494.91</ele>
        <time>2020-07-21T10:21:21.000Z</time>
      </trkpt>
      <trkpt lat="42.9639577" lon="-5.7362318">
        <ele>1495.21</ele>
        <time>2020-07-21T10:21:22.000Z</time>
      </trkpt>
      <trkpt lat="42.963967" lon="-5.7362215">
        <ele>1495.21</ele>
        <time>2020-07-21T10:21:23.000Z</time>
      </trkpt>
      <trkpt lat="42.963976" lon="-5.7362117">
        <ele>1495.52</ele>
        <time>2020-07-21T10:21:24.000Z</time>
      </trkpt>
      <trkpt lat="42.9639847" lon="-5.7362025">
        <ele>1495.52</ele>
        <time>2020-07-21T10:21:25.000Z</time>
      </trkpt>
      <trkpt lat="42.9639943" lon="-5.7361938">
        <ele>1495.82</ele>
        <time>2020-07-21T10:21:26.000Z</time>
      </trkpt>
      <trkpt lat="42.9640055" lon="-5.736185">
        <ele>1495.82</ele>
        <time>2020-07-21T10:21:27.000Z</time>
      </trkpt>
      <trkpt lat="42.9640175" lon="-5.7361763">
        <ele>1496.13</ele>
        <time>2020-07-21T10:21:28.000Z</time>
      </trkpt>
      <trkpt lat="42.9640288" lon="-5.7361687">
        <ele>1496.13</ele>
        <time>2020-07-21T10:21:29.000Z</time>
      </trkpt>
      <trkpt lat="42.9640387" lon="-5.736161">
        <ele>1496.43</ele>
        <time>2020-07-21T10:21:30.000Z</time>
      </trkpt>
      <trkpt lat="42.964048" lon="-5.7361525">
        <ele>1496.43</ele>
        <time>2020-07-21T10:21:31.000Z</time>
      </trkpt>
      <trkpt lat="42.9640572" lon="-5.7361435">
        <ele>1496.74</ele>
        <time>2020-07-21T10:21:32.000Z</time>
      </trkpt>
      <trkpt lat="42.9640675" lon="-5.7361358">
        <ele>1496.74</ele>
        <time>2020-07-21T10:21:33.000Z</time>
      </trkpt>
      <trkpt lat="42.9640773" lon="-5.7361302">
        <ele>1497.04</ele>
        <time>2020-07-21T10:21:34.000Z</time>
      </trkpt>
      <trkpt lat="42.9640875" lon="-5.736125">
        <ele>1497.04</ele>
        <time>2020-07-21T10:21:35.000Z</time>
      </trkpt>
      <trkpt lat="42.9640973" lon="-5.7361185">
        <ele>1497.35</ele>
        <time>2020-07-21T10:21:36.000Z</time>
      </trkpt>
      <trkpt lat="42.964107" lon="-5.7361097">
        <ele>1497.35</ele>
        <time>2020-07-21T10:21:37.000Z</time>
      </trkpt>
      <trkpt lat="42.9641158" lon="-5.7360998">
        <ele>1497.65</ele>
        <time>2020-07-21T10:21:38.000Z</time>
      </trkpt>
      <trkpt lat="42.964123" lon="-5.73609">
        <ele>1497.65</ele>
        <time>2020-07-21T10:21:39.000Z</time>
      </trkpt>
      <trkpt lat="42.96413" lon="-5.7360805">
        <ele>1497.96</ele>
        <time>2020-07-21T10:21:40.000Z</time>
      </trkpt>
      <trkpt lat="42.9641367" lon="-5.7360705">
        <ele>1497.96</ele>
        <time>2020-07-21T10:21:41.000Z</time>
      </trkpt>
      <trkpt lat="42.9641437" lon="-5.736059">
        <ele>1498.26</ele>
        <time>2020-07-21T10:21:42.000Z</time>
      </trkpt>
      <trkpt lat="42.9641502" lon="-5.7360478">
        <ele>1498.26</ele>
        <time>2020-07-21T10:21:43.000Z</time>
      </trkpt>
      <trkpt lat="42.9641555" lon="-5.7360373">
        <ele>1498.57</ele>
        <time>2020-07-21T10:21:44.000Z</time>
      </trkpt>
      <trkpt lat="42.9641615" lon="-5.736028">
        <ele>1498.57</ele>
        <time>2020-07-21T10:21:45.000Z</time>
      </trkpt>
      <trkpt lat="42.9641692" lon="-5.7360185">
        <ele>1498.87</ele>
        <time>2020-07-21T10:21:46.000Z</time>
      </trkpt>
      <trkpt lat="42.964179" lon="-5.7360083">
        <ele>1498.87</ele>
        <time>2020-07-21T10:21:47.000Z</time>
      </trkpt>
      <trkpt lat="42.964188" lon="-5.735999">
        <ele>1499.18</ele>
        <time>2020-07-21T10:21:48.000Z</time>
      </trkpt>
      <trkpt lat="42.964196" lon="-5.7359907">
        <ele>1499.18</ele>
        <time>2020-07-21T10:21:49.000Z</time>
      </trkpt>
      <trkpt lat="42.964204" lon="-5.735983">
        <ele>1499.48</ele>
        <time>2020-07-21T10:21:50.000Z</time>
      </trkpt>
      <trkpt lat="42.9642127" lon="-5.735974">
        <ele>1499.48</ele>
        <time>2020-07-21T10:21:51.000Z</time>
      </trkpt>
      <trkpt lat="42.9642218" lon="-5.735964">
        <ele>1499.94</ele>
        <time>2020-07-21T10:21:52.000Z</time>
      </trkpt>
      <trkpt lat="42.9642305" lon="-5.7359532">
        <ele>1499.94</ele>
        <time>2020-07-21T10:21:53.000Z</time>
      </trkpt>
      <trkpt lat="42.9642388" lon="-5.7359438">
        <ele>1500.24</ele>
        <time>2020-07-21T10:21:54.000Z</time>
      </trkpt>
      <trkpt lat="42.9642475" lon="-5.7359372">
        <ele>1500.24</ele>
        <time>2020-07-21T10:21:55.000Z</time>
      </trkpt>
      <trkpt lat="42.9642577" lon="-5.735933">
        <ele>1500.55</ele>
        <time>2020-07-21T10:21:56.000Z</time>
      </trkpt>
      <trkpt lat="42.9642688" lon="-5.7359285">
        <ele>1500.55</ele>
        <time>2020-07-21T10:21:57.000Z</time>
      </trkpt>
      <trkpt lat="42.9642813" lon="-5.7359215">
        <ele>1500.85</ele>
        <time>2020-07-21T10:21:58.000Z</time>
      </trkpt>
      <trkpt lat="42.9642942" lon="-5.7359137">
        <ele>1500.85</ele>
        <time>2020-07-21T10:21:59.000Z</time>
      </trkpt>
      <trkpt lat="42.9643057" lon="-5.7359062">
        <ele>1501.16</ele>
        <time>2020-07-21T10:22:00.000Z</time>
      </trkpt>
      <trkpt lat="42.9643158" lon="-5.7358988">
        <ele>1501.16</ele>
        <time>2020-07-21T10:22:01.000Z</time>
      </trkpt>
      <trkpt lat="42.9643265" lon="-5.7358908">
        <ele>1501.61</ele>
        <time>2020-07-21T10:22:02.000Z</time>
      </trkpt>
      <trkpt lat="42.964339" lon="-5.7358828">
        <ele>1501.61</ele>
        <time>2020-07-21T10:22:03.000Z</time>
      </trkpt>
      <trkpt lat="42.9643518" lon="-5.7358755">
        <ele>1501.92</ele>
        <time>2020-07-21T10:22:04.000Z</time>
      </trkpt>
      <trkpt lat="42.9643622" lon="-5.7358693">
        <ele>1501.92</ele>
        <time>2020-07-21T10:22:05.000Z</time>
      </trkpt>
      <trkpt lat="42.9643718" lon="-5.7358632">
        <ele>1502.38</ele>
        <time>2020-07-21T10:22:06.000Z</time>
      </trkpt>
      <trkpt lat="42.9643812" lon="-5.735857">
        <ele>1502.38</ele>
        <time>2020-07-21T10:22:07.000Z</time>
      </trkpt>
      <trkpt lat="42.9643912" lon="-5.7358505">
        <ele>1502.68</ele>
        <time>2020-07-21T10:22:08.000Z</time>
      </trkpt>
      <trkpt lat="42.9644013" lon="-5.7358437">
        <ele>1502.68</ele>
        <time>2020-07-21T10:22:09.000Z</time>
      </trkpt>
      <trkpt lat="42.9644113" lon="-5.7358363">
        <ele>1503.14</ele>
        <time>2020-07-21T10:22:10.000Z</time>
      </trkpt>
      <trkpt lat="42.9644213" lon="-5.7358287">
        <ele>1503.14</ele>
        <time>2020-07-21T10:22:11.000Z</time>
      </trkpt>
      <trkpt lat="42.964431" lon="-5.7358205">
        <ele>1503.44</ele>
        <time>2020-07-21T10:22:12.000Z</time>
      </trkpt>
      <trkpt lat="42.9644407" lon="-5.7358123">
        <ele>1503.44</ele>
        <time>2020-07-21T10:22:13.000Z</time>
      </trkpt>
      <trkpt lat="42.9644502" lon="-5.735804">
        <ele>1503.9</ele>
        <time>2020-07-21T10:22:14.000Z</time>
      </trkpt>
      <trkpt lat="42.9644598" lon="-5.7357968">
        <ele>1503.9</ele>
        <time>2020-07-21T10:22:15.000Z</time>
      </trkpt>
      <trkpt lat="42.9644697" lon="-5.73579">
        <ele>1504.21</ele>
        <time>2020-07-21T10:22:16.000Z</time>
      </trkpt>
      <trkpt lat="42.9644793" lon="-5.7357835">
        <ele>1504.21</ele>
        <time>2020-07-21T10:22:17.000Z</time>
      </trkpt>
      <trkpt lat="42.9644888" lon="-5.7357765">
        <ele>1504.66</ele>
        <time>2020-07-21T10:22:18.000Z</time>
      </trkpt>
      <trkpt lat="42.9644987" lon="-5.7357707">
        <ele>1504.66</ele>
        <time>2020-07-21T10:22:19.000Z</time>
      </trkpt>
      <trkpt lat="42.9645087" lon="-5.7357667">
        <ele>1505.12</ele>
        <time>2020-07-21T10:22:20.000Z</time>
      </trkpt>
      <trkpt lat="42.964519" lon="-5.7357645">
        <ele>1505.12</ele>
        <time>2020-07-21T10:22:21.000Z</time>
      </trkpt>
      <trkpt lat="42.9645293" lon="-5.7357635">
        <ele>1505.58</ele>
        <time>2020-07-21T10:22:22.000Z</time>
      </trkpt>
      <trkpt lat="42.9645398" lon="-5.7357632">
        <ele>1505.58</ele>
        <time>2020-07-21T10:22:23.000Z</time>
      </trkpt>
      <trkpt lat="42.9645502" lon="-5.7357633">
        <ele>1506.04</ele>
        <time>2020-07-21T10:22:24.000Z</time>
      </trkpt>
      <trkpt lat="42.9645605" lon="-5.7357653">
        <ele>1506.04</ele>
        <time>2020-07-21T10:22:25.000Z</time>
      </trkpt>
      <trkpt lat="42.9645705" lon="-5.7357683">
        <ele>1506.34</ele>
        <time>2020-07-21T10:22:26.000Z</time>
      </trkpt>
      <trkpt lat="42.9645808" lon="-5.7357717">
        <ele>1506.34</ele>
        <time>2020-07-21T10:22:27.000Z</time>
      </trkpt>
      <trkpt lat="42.964591" lon="-5.7357738">
        <ele>1506.8</ele>
        <time>2020-07-21T10:22:28.000Z</time>
      </trkpt>
      <trkpt lat="42.9646012" lon="-5.7357752">
        <ele>1506.8</ele>
        <time>2020-07-21T10:22:29.000Z</time>
      </trkpt>
      <trkpt lat="42.9646098" lon="-5.7357778">
        <ele>1507.25</ele>
        <time>2020-07-21T10:22:30.000Z</time>
      </trkpt>
      <trkpt lat="42.9646188" lon="-5.7357818">
        <ele>1507.25</ele>
        <time>2020-07-21T10:22:31.000Z</time>
      </trkpt>
      <trkpt lat="42.9646275" lon="-5.7357847">
        <ele>1507.71</ele>
        <time>2020-07-21T10:22:32.000Z</time>
      </trkpt>
      <trkpt lat="42.9646378" lon="-5.735785">
        <ele>1507.71</ele>
        <time>2020-07-21T10:22:33.000Z</time>
      </trkpt>
      <trkpt lat="42.9646477" lon="-5.7357853">
        <ele>1508.17</ele>
        <time>2020-07-21T10:22:34.000Z</time>
      </trkpt>
      <trkpt lat="42.9646575" lon="-5.7357875">
        <ele>1508.17</ele>
        <time>2020-07-21T10:22:35.000Z</time>
      </trkpt>
      <trkpt lat="42.964667" lon="-5.73579">
        <ele>1508.63</ele>
        <time>2020-07-21T10:22:36.000Z</time>
      </trkpt>
      <trkpt lat="42.9646768" lon="-5.7357908">
        <ele>1508.63</ele>
        <time>2020-07-21T10:22:37.000Z</time>
      </trkpt>
      <trkpt lat="42.9646872" lon="-5.7357905">
        <ele>1509.08</ele>
        <time>2020-07-21T10:22:38.000Z</time>
      </trkpt>
      <trkpt lat="42.9646978" lon="-5.735791">
        <ele>1509.08</ele>
        <time>2020-07-21T10:22:39.000Z</time>
      </trkpt>
      <trkpt lat="42.9647083" lon="-5.7357923">
        <ele>1509.54</ele>
        <time>2020-07-21T10:22:40.000Z</time>
      </trkpt>
      <trkpt lat="42.9647188" lon="-5.7357943">
        <ele>1509.54</ele>
        <time>2020-07-21T10:22:41.000Z</time>
      </trkpt>
      <trkpt lat="42.9647293" lon="-5.735797">
        <ele>1510</ele>
        <time>2020-07-21T10:22:42.000Z</time>
      </trkpt>
      <trkpt lat="42.9647395" lon="-5.7358">
        <ele>1510</ele>
        <time>2020-07-21T10:22:43.000Z</time>
      </trkpt>
      <trkpt lat="42.9647488" lon="-5.7358033">
        <ele>1510.45</ele>
        <time>2020-07-21T10:22:44.000Z</time>
      </trkpt>
      <trkpt lat="42.9647573" lon="-5.7358075">
        <ele>1510.45</ele>
        <time>2020-07-21T10:22:45.000Z</time>
      </trkpt>
      <trkpt lat="42.9647662" lon="-5.735813">
        <ele>1510.91</ele>
        <time>2020-07-21T10:22:46.000Z</time>
      </trkpt>
      <trkpt lat="42.9647753" lon="-5.7358203">
        <ele>1510.91</ele>
        <time>2020-07-21T10:22:47.000Z</time>
      </trkpt>
      <trkpt lat="42.9647863" lon="-5.7358282">
        <ele>1511.37</ele>
        <time>2020-07-21T10:22:48.000Z</time>
      </trkpt>
      <trkpt lat="42.9647977" lon="-5.735836">
        <ele>1511.37</ele>
        <time>2020-07-21T10:22:49.000Z</time>
      </trkpt>
      <trkpt lat="42.9648095" lon="-5.7358437">
        <ele>1511.83</ele>
        <time>2020-07-21T10:22:50.000Z</time>
      </trkpt>
      <trkpt lat="42.9648195" lon="-5.7358508">
        <ele>1511.83</ele>
        <time>2020-07-21T10:22:51.000Z</time>
      </trkpt>
      <trkpt lat="42.9648287" lon="-5.7358575">
        <ele>1512.13</ele>
        <time>2020-07-21T10:22:52.000Z</time>
      </trkpt>
      <trkpt lat="42.964837" lon="-5.7358635">
        <ele>1512.13</ele>
        <time>2020-07-21T10:22:53.000Z</time>
      </trkpt>
      <trkpt lat="42.964846" lon="-5.7358687">
        <ele>1512.59</ele>
        <time>2020-07-21T10:22:54.000Z</time>
      </trkpt>
      <trkpt lat="42.9648558" lon="-5.7358733">
        <ele>1512.59</ele>
        <time>2020-07-21T10:22:55.000Z</time>
      </trkpt>
      <trkpt lat="42.9648665" lon="-5.7358767">
        <ele>1512.89</ele>
        <time>2020-07-21T10:22:56.000Z</time>
      </trkpt>
      <trkpt lat="42.9648765" lon="-5.7358808">
        <ele>1512.89</ele>
        <time>2020-07-21T10:22:57.000Z</time>
      </trkpt>
      <trkpt lat="42.9648855" lon="-5.7358855">
        <ele>1513.35</ele>
        <time>2020-07-21T10:22:58.000Z</time>
      </trkpt>
      <trkpt lat="42.9648935" lon="-5.7358912">
        <ele>1513.35</ele>
        <time>2020-07-21T10:22:59.000Z</time>
      </trkpt>
      <trkpt lat="42.9649025" lon="-5.735896">
        <ele>1513.66</ele>
        <time>2020-07-21T10:23:00.000Z</time>
      </trkpt>
      <trkpt lat="42.9649127" lon="-5.7359008">
        <ele>1513.66</ele>
        <time>2020-07-21T10:23:01.000Z</time>
      </trkpt>
      <trkpt lat="42.9649242" lon="-5.7359063">
        <ele>1514.11</ele>
        <time>2020-07-21T10:23:02.000Z</time>
      </trkpt>
      <trkpt lat="42.9649357" lon="-5.7359118">
        <ele>1514.11</ele>
        <time>2020-07-21T10:23:03.000Z</time>
      </trkpt>
      <trkpt lat="42.964946" lon="-5.7359168">
        <ele>1514.57</ele>
        <time>2020-07-21T10:23:04.000Z</time>
      </trkpt>
      <trkpt lat="42.964956" lon="-5.7359202">
        <ele>1514.57</ele>
        <time>2020-07-21T10:23:05.000Z</time>
      </trkpt>
      <trkpt lat="42.964966" lon="-5.7359232">
        <ele>1514.87</ele>
        <time>2020-07-21T10:23:06.000Z</time>
      </trkpt>
      <trkpt lat="42.964977" lon="-5.7359243">
        <ele>1514.87</ele>
        <time>2020-07-21T10:23:07.000Z</time>
      </trkpt>
      <trkpt lat="42.964989" lon="-5.7359245">
        <ele>1515.33</ele>
        <time>2020-07-21T10:23:08.000Z</time>
      </trkpt>
      <trkpt lat="42.9650005" lon="-5.735925">
        <ele>1515.33</ele>
        <time>2020-07-21T10:23:09.000Z</time>
      </trkpt>
      <trkpt lat="42.9650108" lon="-5.7359273">
        <ele>1515.64</ele>
        <time>2020-07-21T10:23:10.000Z</time>
      </trkpt>
      <trkpt lat="42.9650193" lon="-5.735931">
        <ele>1515.64</ele>
        <time>2020-07-21T10:23:11.000Z</time>
      </trkpt>
      <trkpt lat="42.9650268" lon="-5.735935">
        <ele>1516.09</ele>
        <time>2020-07-21T10:23:12.000Z</time>
      </trkpt>
      <trkpt lat="42.965035" lon="-5.7359392">
        <ele>1516.09</ele>
        <time>2020-07-21T10:23:13.000Z</time>
      </trkpt>
      <trkpt lat="42.9650448" lon="-5.7359438">
        <ele>1516.4</ele>
        <time>2020-07-21T10:23:14.000Z</time>
      </trkpt>
      <trkpt lat="42.9650555" lon="-5.7359483">
        <ele>1516.4</ele>
        <time>2020-07-21T10:23:15.000Z</time>
      </trkpt>
      <trkpt lat="42.9650653" lon="-5.7359532">
        <ele>1516.7</ele>
        <time>2020-07-21T10:23:16.000Z</time>
      </trkpt>
      <trkpt lat="42.9650735" lon="-5.7359572">
        <ele>1516.7</ele>
        <time>2020-07-21T10:23:17.000Z</time>
      </trkpt>
      <trkpt lat="42.9650805" lon="-5.7359612">
        <ele>1517.16</ele>
        <time>2020-07-21T10:23:18.000Z</time>
      </trkpt>
      <trkpt lat="42.9650882" lon="-5.735965">
        <ele>1517.16</ele>
        <time>2020-07-21T10:23:19.000Z</time>
      </trkpt>
      <trkpt lat="42.9650963" lon="-5.7359702">
        <ele>1517.46</ele>
        <time>2020-07-21T10:23:20.000Z</time>
      </trkpt>
      <trkpt lat="42.9651045" lon="-5.735976">
        <ele>1517.46</ele>
        <time>2020-07-21T10:23:21.000Z</time>
      </trkpt>
      <trkpt lat="42.9651112" lon="-5.735983">
        <ele>1517.77</ele>
        <time>2020-07-21T10:23:22.000Z</time>
      </trkpt>
      <trkpt lat="42.9651172" lon="-5.7359895">
        <ele>1517.77</ele>
        <time>2020-07-21T10:23:23.000Z</time>
      </trkpt>
      <trkpt lat="42.9651235" lon="-5.7359952">
        <ele>1518.07</ele>
        <time>2020-07-21T10:23:24.000Z</time>
      </trkpt>
      <trkpt lat="42.9651318" lon="-5.7359998">
        <ele>1518.07</ele>
        <time>2020-07-21T10:23:25.000Z</time>
      </trkpt>
      <trkpt lat="42.9651398" lon="-5.7360055">
        <ele>1518.38</ele>
        <time>2020-07-21T10:23:26.000Z</time>
      </trkpt>
      <trkpt lat="42.9651472" lon="-5.7360115">
        <ele>1518.38</ele>
        <time>2020-07-21T10:23:27.000Z</time>
      </trkpt>
      <trkpt lat="42.9651542" lon="-5.7360178">
        <ele>1518.68</ele>
        <time>2020-07-21T10:23:28.000Z</time>
      </trkpt>
      <trkpt lat="42.965162" lon="-5.7360228">
        <ele>1518.68</ele>
        <time>2020-07-21T10:23:29.000Z</time>
      </trkpt>
      <trkpt lat="42.9651698" lon="-5.7360277">
        <ele>1518.99</ele>
        <time>2020-07-21T10:23:30.000Z</time>
      </trkpt>
      <trkpt lat="42.9651763" lon="-5.7360318">
        <ele>1518.99</ele>
        <time>2020-07-21T10:23:31.000Z</time>
      </trkpt>
      <trkpt lat="42.9651813" lon="-5.7360352">
        <ele>1519.29</ele>
        <time>2020-07-21T10:23:32.000Z</time>
      </trkpt>
      <trkpt lat="42.9651865" lon="-5.7360383">
        <ele>1519.29</ele>
        <time>2020-07-21T10:23:33.000Z</time>
      </trkpt>
      <trkpt lat="42.9651927" lon="-5.7360412">
        <ele>1519.6</ele>
        <time>2020-07-21T10:23:34.000Z</time>
      </trkpt>
      <trkpt lat="42.9651982" lon="-5.7360452">
        <ele>1519.6</ele>
        <time>2020-07-21T10:23:35.000Z</time>
      </trkpt>
      <trkpt lat="42.9652042" lon="-5.7360488">
        <ele>1519.9</ele>
        <time>2020-07-21T10:23:36.000Z</time>
      </trkpt>
      <trkpt lat="42.9652097" lon="-5.7360527">
        <ele>1519.9</ele>
        <time>2020-07-21T10:23:37.000Z</time>
      </trkpt>
      <trkpt lat="42.9652172" lon="-5.7360572">
        <ele>1520.21</ele>
        <time>2020-07-21T10:23:38.000Z</time>
      </trkpt>
      <trkpt lat="42.9652243" lon="-5.7360625">
        <ele>1520.21</ele>
        <time>2020-07-21T10:23:39.000Z</time>
      </trkpt>
      <trkpt lat="42.9652318" lon="-5.7360695">
        <ele>1520.51</ele>
        <time>2020-07-21T10:23:40.000Z</time>
      </trkpt>
      <trkpt lat="42.9652385" lon="-5.7360748">
        <ele>1520.51</ele>
        <time>2020-07-21T10:23:41.000Z</time>
      </trkpt>
      <trkpt lat="42.965244" lon="-5.7360797">
        <ele>1520.82</ele>
        <time>2020-07-21T10:23:42.000Z</time>
      </trkpt>
      <trkpt lat="42.9652498" lon="-5.7360837">
        <ele>1520.82</ele>
        <time>2020-07-21T10:23:43.000Z</time>
      </trkpt>
      <trkpt lat="42.9652553" lon="-5.7360905">
        <ele>1521.12</ele>
        <time>2020-07-21T10:23:44.000Z</time>
      </trkpt>
      <trkpt lat="42.9652623" lon="-5.7360988">
        <ele>1521.12</ele>
        <time>2020-07-21T10:23:45.000Z</time>
      </trkpt>
      <trkpt lat="42.9652688" lon="-5.7361063">
        <ele>1521.43</ele>
        <time>2020-07-21T10:23:46.000Z</time>
      </trkpt>
      <trkpt lat="42.9652773" lon="-5.7361118">
        <ele>1521.43</ele>
        <time>2020-07-21T10:23:47.000Z</time>
      </trkpt>
      <trkpt lat="42.9652862" lon="-5.736117">
        <ele>1521.73</ele>
        <time>2020-07-21T10:23:48.000Z</time>
      </trkpt>
      <trkpt lat="42.965295" lon="-5.736122">
        <ele>1521.73</ele>
        <time>2020-07-21T10:23:49.000Z</time>
      </trkpt>
      <trkpt lat="42.965302" lon="-5.736127">
        <ele>1522.04</ele>
        <time>2020-07-21T10:23:50.000Z</time>
      </trkpt>
      <trkpt lat="42.9653082" lon="-5.7361328">
        <ele>1522.04</ele>
        <time>2020-07-21T10:23:51.000Z</time>
      </trkpt>
      <trkpt lat="42.965315" lon="-5.7361395">
        <ele>1522.19</ele>
        <time>2020-07-21T10:23:52.000Z</time>
      </trkpt>
      <trkpt lat="42.965321" lon="-5.7361478">
        <ele>1522.19</ele>
        <time>2020-07-21T10:23:53.000Z</time>
      </trkpt>
      <trkpt lat="42.9653273" lon="-5.7361545">
        <ele>1522.49</ele>
        <time>2020-07-21T10:23:54.000Z</time>
      </trkpt>
      <trkpt lat="42.9653317" lon="-5.7361605">
        <ele>1522.49</ele>
        <time>2020-07-21T10:23:55.000Z</time>
      </trkpt>
      <trkpt lat="42.965338" lon="-5.7361653">
        <ele>1522.8</ele>
        <time>2020-07-21T10:23:56.000Z</time>
      </trkpt>
      <trkpt lat="42.9653435" lon="-5.7361708">
        <ele>1522.8</ele>
        <time>2020-07-21T10:23:57.000Z</time>
      </trkpt>
      <trkpt lat="42.9653512" lon="-5.736178">
        <ele>1522.95</ele>
        <time>2020-07-21T10:23:58.000Z</time>
      </trkpt>
      <trkpt lat="42.9653577" lon="-5.7361855">
        <ele>1522.95</ele>
        <time>2020-07-21T10:23:59.000Z</time>
      </trkpt>
      <trkpt lat="42.965364" lon="-5.736192">
        <ele>1523.26</ele>
        <time>2020-07-21T10:24:00.000Z</time>
      </trkpt>
      <trkpt lat="42.9653717" lon="-5.7361975">
        <ele>1523.26</ele>
        <time>2020-07-21T10:24:01.000Z</time>
      </trkpt>
      <trkpt lat="42.96538" lon="-5.7362022">
        <ele>1523.41</ele>
        <time>2020-07-21T10:24:02.000Z</time>
      </trkpt>
      <trkpt lat="42.9653873" lon="-5.736206">
        <ele>1523.41</ele>
        <time>2020-07-21T10:24:03.000Z</time>
      </trkpt>
      <trkpt lat="42.9653937" lon="-5.7362098">
        <ele>1523.56</ele>
        <time>2020-07-21T10:24:04.000Z</time>
      </trkpt>
      <trkpt lat="42.9653998" lon="-5.7362142">
        <ele>1523.56</ele>
        <time>2020-07-21T10:24:05.000Z</time>
      </trkpt>
      <trkpt lat="42.9654078" lon="-5.7362207">
        <ele>1523.87</ele>
        <time>2020-07-21T10:24:06.000Z</time>
      </trkpt>
      <trkpt lat="42.9654153" lon="-5.7362267">
        <ele>1523.87</ele>
        <time>2020-07-21T10:24:07.000Z</time>
      </trkpt>
      <trkpt lat="42.965423" lon="-5.7362332">
        <ele>1524.02</ele>
        <time>2020-07-21T10:24:08.000Z</time>
      </trkpt>
      <trkpt lat="42.9654303" lon="-5.7362387">
        <ele>1524.02</ele>
        <time>2020-07-21T10:24:09.000Z</time>
      </trkpt>
      <trkpt lat="42.9654377" lon="-5.7362455">
        <ele>1524.17</ele>
        <time>2020-07-21T10:24:10.000Z</time>
      </trkpt>
      <trkpt lat="42.9654453" lon="-5.7362523">
        <ele>1524.17</ele>
        <time>2020-07-21T10:24:11.000Z</time>
      </trkpt>
      <trkpt lat="42.9654543" lon="-5.7362613">
        <ele>1524.32</ele>
        <time>2020-07-21T10:24:12.000Z</time>
      </trkpt>
      <trkpt lat="42.9654635" lon="-5.7362697">
        <ele>1524.32</ele>
        <time>2020-07-21T10:24:13.000Z</time>
      </trkpt>
      <trkpt lat="42.9654707" lon="-5.7362748">
        <ele>1524.48</ele>
        <time>2020-07-21T10:24:14.000Z</time>
      </trkpt>
      <trkpt lat="42.9654738" lon="-5.7362755">
        <ele>1524.48</ele>
        <time>2020-07-21T10:24:15.000Z</time>
      </trkpt>
      <trkpt lat="42.9654748" lon="-5.7362742">
        <ele>1524.63</ele>
        <time>2020-07-21T10:24:16.000Z</time>
      </trkpt>
      <trkpt lat="42.9654755" lon="-5.7362743">
        <ele>1524.63</ele>
        <time>2020-07-21T10:24:17.000Z</time>
      </trkpt>
      <trkpt lat="42.9654783" lon="-5.7362758">
        <ele>1524.78</ele>
        <time>2020-07-21T10:24:18.000Z</time>
      </trkpt>
      <trkpt lat="42.9654822" lon="-5.7362783">
        <ele>1524.78</ele>
        <time>2020-07-21T10:24:19.000Z</time>
      </trkpt>
      <trkpt lat="42.9654875" lon="-5.7362803">
        <ele>1524.93</ele>
        <time>2020-07-21T10:24:20.000Z</time>
      </trkpt>
      <trkpt lat="42.965493" lon="-5.7362827">
        <ele>1524.93</ele>
        <time>2020-07-21T10:24:21.000Z</time>
      </trkpt>
      <trkpt lat="42.9654983" lon="-5.736284">
        <ele>1525.08</ele>
        <time>2020-07-21T10:24:22.000Z</time>
      </trkpt>
      <trkpt lat="42.9655022" lon="-5.7362848">
        <ele>1525.08</ele>
        <time>2020-07-21T10:24:23.000Z</time>
      </trkpt>
      <trkpt lat="42.9655035" lon="-5.7362847">
        <ele>1525.24</ele>
        <time>2020-07-21T10:24:24.000Z</time>
      </trkpt>
      <trkpt lat="42.9655018" lon="-5.7362868">
        <ele>1525.24</ele>
        <time>2020-07-21T10:24:25.000Z</time>
      </trkpt>
      <trkpt lat="42.9654962" lon="-5.7362895">
        <ele>1525.39</ele>
        <time>2020-07-21T10:24:26.000Z</time>
      </trkpt>
      <trkpt lat="42.9654872" lon="-5.736294">
        <ele>1525.39</ele>
        <time>2020-07-21T10:24:27.000Z</time>
      </trkpt>
      <trkpt lat="42.9654775" lon="-5.736299">
        <ele>1525.39</ele>
        <time>2020-07-21T10:24:28.000Z</time>
      </trkpt>
      <trkpt lat="42.9654688" lon="-5.7363068">
        <ele>1525.39</ele>
        <time>2020-07-21T10:24:29.000Z</time>
      </trkpt>
      <trkpt lat="42.965462" lon="-5.736318">
        <ele>1525.54</ele>
        <time>2020-07-21T10:24:30.000Z</time>
      </trkpt>
      <trkpt lat="42.965455" lon="-5.7363303">
        <ele>1525.54</ele>
        <time>2020-07-21T10:24:31.000Z</time>
      </trkpt>
      <trkpt lat="42.9654485" lon="-5.7363418">
        <ele>1525.69</ele>
        <time>2020-07-21T10:24:32.000Z</time>
      </trkpt>
      <trkpt lat="42.9654408" lon="-5.7363495">
        <ele>1525.69</ele>
        <time>2020-07-21T10:24:33.000Z</time>
      </trkpt>
      <trkpt lat="42.9654335" lon="-5.7363552">
        <ele>1525.85</ele>
        <time>2020-07-21T10:24:34.000Z</time>
      </trkpt>
      <trkpt lat="42.9654267" lon="-5.736362">
        <ele>1525.85</ele>
        <time>2020-07-21T10:24:35.000Z</time>
      </trkpt>
      <trkpt lat="42.9654227" lon="-5.7363708">
        <ele>1526</ele>
        <time>2020-07-21T10:24:36.000Z</time>
      </trkpt>
      <trkpt lat="42.9654183" lon="-5.7363818">
        <ele>1526</ele>
        <time>2020-07-21T10:24:37.000Z</time>
      </trkpt>
      <trkpt lat="42.9654148" lon="-5.7363903">
        <ele>1526.15</ele>
        <time>2020-07-21T10:24:38.000Z</time>
      </trkpt>
      <trkpt lat="42.9654113" lon="-5.7363952">
        <ele>1526.15</ele>
        <time>2020-07-21T10:24:39.000Z</time>
      </trkpt>
      <trkpt lat="42.9654103" lon="-5.7363965">
        <ele>1526.31</ele>
        <time>2020-07-21T10:24:40.000Z</time>
      </trkpt>
      <trkpt lat="42.9654105" lon="-5.7363968">
        <ele>1526.31</ele>
        <time>2020-07-21T10:24:41.000Z</time>
      </trkpt>
      <trkpt lat="42.9654112" lon="-5.7363962">
        <ele>1526.46</ele>
        <time>2020-07-21T10:24:42.000Z</time>
      </trkpt>
      <trkpt lat="42.9654113" lon="-5.7363962">
        <ele>1526.46</ele>
        <time>2020-07-21T10:24:43.000Z</time>
      </trkpt>
      <trkpt lat="42.9654115" lon="-5.7363958">
        <ele>1526.46</ele>
        <time>2020-07-21T10:24:44.000Z</time>
      </trkpt>
      <trkpt lat="42.9654118" lon="-5.7363967">
        <ele>1526.46</ele>
        <time>2020-07-21T10:24:45.000Z</time>
      </trkpt>
      <trkpt lat="42.9654125" lon="-5.736397">
        <ele>1526.61</ele>
        <time>2020-07-21T10:24:46.000Z</time>
      </trkpt>
      <trkpt lat="42.965413" lon="-5.7363977">
        <ele>1526.61</ele>
        <time>2020-07-21T10:24:47.000Z</time>
      </trkpt>
      <trkpt lat="42.9654137" lon="-5.7363985">
        <ele>1526.76</ele>
        <time>2020-07-21T10:24:48.000Z</time>
      </trkpt>
      <trkpt lat="42.9654142" lon="-5.7363997">
        <ele>1526.76</ele>
        <time>2020-07-21T10:24:49.000Z</time>
      </trkpt>
      <trkpt lat="42.9654142" lon="-5.7364005">
        <ele>1526.91</ele>
        <time>2020-07-21T10:24:50.000Z</time>
      </trkpt>
      <trkpt lat="42.9654135" lon="-5.736401">
        <ele>1526.91</ele>
        <time>2020-07-21T10:24:51.000Z</time>
      </trkpt>
      <trkpt lat="42.9654128" lon="-5.7364007">
        <ele>1526.91</ele>
        <time>2020-07-21T10:24:52.000Z</time>
      </trkpt>
      <trkpt lat="42.965413" lon="-5.7363993">
        <ele>1526.91</ele>
        <time>2020-07-21T10:24:53.000Z</time>
      </trkpt>
      <trkpt lat="42.9654133" lon="-5.7363968">
        <ele>1527.07</ele>
        <time>2020-07-21T10:24:54.000Z</time>
      </trkpt>
      <trkpt lat="42.9654132" lon="-5.7363945">
        <ele>1527.07</ele>
        <time>2020-07-21T10:24:55.000Z</time>
      </trkpt>
      <trkpt lat="42.9654132" lon="-5.7363938">
        <ele>1527.07</ele>
        <time>2020-07-21T10:24:56.000Z</time>
      </trkpt>
      <trkpt lat="42.965413" lon="-5.7363947">
        <ele>1527.07</ele>
        <time>2020-07-21T10:24:57.000Z</time>
      </trkpt>
      <trkpt lat="42.9654138" lon="-5.736396">
        <ele>1527.22</ele>
        <time>2020-07-21T10:24:58.000Z</time>
      </trkpt>
      <trkpt lat="42.9654143" lon="-5.7363962">
        <ele>1527.22</ele>
        <time>2020-07-21T10:24:59.000Z</time>
      </trkpt>
      <trkpt lat="42.9654138" lon="-5.7363947">
        <ele>1527.22</ele>
        <time>2020-07-21T10:25:00.000Z</time>
      </trkpt>
      <trkpt lat="42.9654127" lon="-5.7363923">
        <ele>1527.22</ele>
        <time>2020-07-21T10:25:01.000Z</time>
      </trkpt>
      <trkpt lat="42.9654097" lon="-5.7363915">
        <ele>1527.22</ele>
        <time>2020-07-21T10:25:02.000Z</time>
      </trkpt>
      <trkpt lat="42.9654068" lon="-5.7363922">
        <ele>1527.22</ele>
        <time>2020-07-21T10:25:03.000Z</time>
      </trkpt>
      <trkpt lat="42.9654042" lon="-5.7363935">
        <ele>1527.37</ele>
        <time>2020-07-21T10:25:04.000Z</time>
      </trkpt>
      <trkpt lat="42.9654052" lon="-5.7363972">
        <ele>1527.37</ele>
        <time>2020-07-21T10:25:05.000Z</time>
      </trkpt>
      <trkpt lat="42.9654078" lon="-5.7364007">
        <ele>1527.37</ele>
        <time>2020-07-21T10:25:06.000Z</time>
      </trkpt>
      <trkpt lat="42.9654115" lon="-5.736403">
        <ele>1527.37</ele>
        <time>2020-07-21T10:25:07.000Z</time>
      </trkpt>
      <trkpt lat="42.9654143" lon="-5.7363983">
        <ele>1527.52</ele>
        <time>2020-07-21T10:25:08.000Z</time>
      </trkpt>
      <trkpt lat="42.9654172" lon="-5.7363912">
        <ele>1527.52</ele>
        <time>2020-07-21T10:25:09.000Z</time>
      </trkpt>
      <trkpt lat="42.965419" lon="-5.736385">
        <ele>1527.52</ele>
        <time>2020-07-21T10:25:10.000Z</time>
      </trkpt>
      <trkpt lat="42.9654218" lon="-5.7363815">
        <ele>1527.52</ele>
        <time>2020-07-21T10:25:11.000Z</time>
      </trkpt>
      <trkpt lat="42.9654265" lon="-5.7363797">
        <ele>1527.68</ele>
        <time>2020-07-21T10:25:12.000Z</time>
      </trkpt>
      <trkpt lat="42.965433" lon="-5.7363755">
        <ele>1527.68</ele>
        <time>2020-07-21T10:25:13.000Z</time>
      </trkpt>
      <trkpt lat="42.9654382" lon="-5.7363717">
        <ele>1527.68</ele>
        <time>2020-07-21T10:25:14.000Z</time>
      </trkpt>
      <trkpt lat="42.9654433" lon="-5.7363683">
        <ele>1527.68</ele>
        <time>2020-07-21T10:25:15.000Z</time>
      </trkpt>
      <trkpt lat="42.9654497" lon="-5.7363647">
        <ele>1527.83</ele>
        <time>2020-07-21T10:25:16.000Z</time>
      </trkpt>
      <trkpt lat="42.9654565" lon="-5.7363622">
        <ele>1527.83</ele>
        <time>2020-07-21T10:25:17.000Z</time>
      </trkpt>
      <trkpt lat="42.9654618" lon="-5.7363583">
        <ele>1527.83</ele>
        <time>2020-07-21T10:25:18.000Z</time>
      </trkpt>
      <trkpt lat="42.9654652" lon="-5.7363552">
        <ele>1527.83</ele>
        <time>2020-07-21T10:25:19.000Z</time>
      </trkpt>
      <trkpt lat="42.9654675" lon="-5.736351">
        <ele>1527.83</ele>
        <time>2020-07-21T10:25:20.000Z</time>
      </trkpt>
      <trkpt lat="42.9654685" lon="-5.7363487">
        <ele>1527.83</ele>
        <time>2020-07-21T10:25:21.000Z</time>
      </trkpt>
      <trkpt lat="42.9654685" lon="-5.7363477">
        <ele>1527.98</ele>
        <time>2020-07-21T10:25:22.000Z</time>
      </trkpt>
      <trkpt lat="42.9654687" lon="-5.7363468">
        <ele>1527.98</ele>
        <time>2020-07-21T10:25:23.000Z</time>
      </trkpt>
      <trkpt lat="42.9654692" lon="-5.736346">
        <ele>1527.98</ele>
        <time>2020-07-21T10:25:24.000Z</time>
      </trkpt>
      <trkpt lat="42.9654698" lon="-5.7363455">
        <ele>1527.98</ele>
        <time>2020-07-21T10:25:25.000Z</time>
      </trkpt>
      <trkpt lat="42.9654705" lon="-5.736345">
        <ele>1528.13</ele>
        <time>2020-07-21T10:25:26.000Z</time>
      </trkpt>
      <trkpt lat="42.965471" lon="-5.7363442">
        <ele>1528.13</ele>
        <time>2020-07-21T10:25:27.000Z</time>
      </trkpt>
      <trkpt lat="42.9654717" lon="-5.7363438">
        <ele>1528.13</ele>
        <time>2020-07-21T10:25:28.000Z</time>
      </trkpt>
      <trkpt lat="42.9654725" lon="-5.7363433">
        <ele>1528.13</ele>
        <time>2020-07-21T10:25:29.000Z</time>
      </trkpt>
      <trkpt lat="42.9654728" lon="-5.7363427">
        <ele>1528.13</ele>
        <time>2020-07-21T10:25:30.000Z</time>
      </trkpt>
      <trkpt lat="42.9654728" lon="-5.7363405">
        <ele>1528.13</ele>
        <time>2020-07-21T10:25:31.000Z</time>
      </trkpt>
      <trkpt lat="42.965472" lon="-5.7363365">
        <ele>1528.29</ele>
        <time>2020-07-21T10:25:32.000Z</time>
      </trkpt>
      <trkpt lat="42.965472" lon="-5.7363305">
        <ele>1528.29</ele>
        <time>2020-07-21T10:25:33.000Z</time>
      </trkpt>
      <trkpt lat="42.9654718" lon="-5.7363237">
        <ele>1528.29</ele>
        <time>2020-07-21T10:25:34.000Z</time>
      </trkpt>
      <trkpt lat="42.9654718" lon="-5.736316">
        <ele>1528.29</ele>
        <time>2020-07-21T10:25:35.000Z</time>
      </trkpt>
      <trkpt lat="42.965468" lon="-5.7363093">
        <ele>1528.29</ele>
        <time>2020-07-21T10:25:36.000Z</time>
      </trkpt>
      <trkpt lat="42.9654625" lon="-5.7363043">
        <ele>1528.29</ele>
        <time>2020-07-21T10:25:37.000Z</time>
      </trkpt>
      <trkpt lat="42.965457" lon="-5.7363025">
        <ele>1528.44</ele>
        <time>2020-07-21T10:25:38.000Z</time>
      </trkpt>
      <trkpt lat="42.9654538" lon="-5.7363023">
        <ele>1528.44</ele>
        <time>2020-07-21T10:25:39.000Z</time>
      </trkpt>
      <trkpt lat="42.9654525" lon="-5.7363027">
        <ele>1528.44</ele>
        <time>2020-07-21T10:25:40.000Z</time>
      </trkpt>
      <trkpt lat="42.9654527" lon="-5.7363027">
        <ele>1528.44</ele>
        <time>2020-07-21T10:25:41.000Z</time>
      </trkpt>
      <trkpt lat="42.9654542" lon="-5.7363023">
        <ele>1528.59</ele>
        <time>2020-07-21T10:25:42.000Z</time>
      </trkpt>
      <trkpt lat="42.9654573" lon="-5.7363023">
        <ele>1528.59</ele>
        <time>2020-07-21T10:25:43.000Z</time>
      </trkpt>
      <trkpt lat="42.9654605" lon="-5.7363035">
        <ele>1528.59</ele>
        <time>2020-07-21T10:25:44.000Z</time>
      </trkpt>
      <trkpt lat="42.965463" lon="-5.736305">
        <ele>1528.59</ele>
        <time>2020-07-21T10:25:45.000Z</time>
      </trkpt>
      <trkpt lat="42.9654648" lon="-5.7363057">
        <ele>1528.74</ele>
        <time>2020-07-21T10:25:46.000Z</time>
      </trkpt>
      <trkpt lat="42.9654682" lon="-5.7363055">
        <ele>1528.74</ele>
        <time>2020-07-21T10:25:47.000Z</time>
      </trkpt>
      <trkpt lat="42.9654747" lon="-5.7363027">
        <ele>1528.74</ele>
        <time>2020-07-21T10:25:48.000Z</time>
      </trkpt>
      <trkpt lat="42.965483" lon="-5.736299">
        <ele>1528.74</ele>
        <time>2020-07-21T10:25:49.000Z</time>
      </trkpt>
      <trkpt lat="42.9654915" lon="-5.7362958">
        <ele>1528.9</ele>
        <time>2020-07-21T10:25:50.000Z</time>
      </trkpt>
      <trkpt lat="42.9654998" lon="-5.736294">
        <ele>1528.9</ele>
        <time>2020-07-21T10:25:51.000Z</time>
      </trkpt>
      <trkpt lat="42.9655097" lon="-5.7362943">
        <ele>1529.05</ele>
        <time>2020-07-21T10:25:52.000Z</time>
      </trkpt>
      <trkpt lat="42.9655212" lon="-5.7362942">
        <ele>1529.05</ele>
        <time>2020-07-21T10:25:53.000Z</time>
      </trkpt>
      <trkpt lat="42.965532" lon="-5.7362965">
        <ele>1529.05</ele>
        <time>2020-07-21T10:25:54.000Z</time>
      </trkpt>
      <trkpt lat="42.965542" lon="-5.7363002">
        <ele>1529.05</ele>
        <time>2020-07-21T10:25:55.000Z</time>
      </trkpt>
      <trkpt lat="42.9655517" lon="-5.7363048">
        <ele>1529.2</ele>
        <time>2020-07-21T10:25:56.000Z</time>
      </trkpt>
      <trkpt lat="42.9655633" lon="-5.7363088">
        <ele>1529.2</ele>
        <time>2020-07-21T10:25:57.000Z</time>
      </trkpt>
      <trkpt lat="42.965574" lon="-5.736312">
        <ele>1529.35</ele>
        <time>2020-07-21T10:25:58.000Z</time>
      </trkpt>
      <trkpt lat="42.9655837" lon="-5.7363152">
        <ele>1529.35</ele>
        <time>2020-07-21T10:25:59.000Z</time>
      </trkpt>
      <trkpt lat="42.9655942" lon="-5.736318">
        <ele>1529.51</ele>
        <time>2020-07-21T10:26:00.000Z</time>
      </trkpt>
      <trkpt lat="42.9656053" lon="-5.736321">
        <ele>1529.51</ele>
        <time>2020-07-21T10:26:01.000Z</time>
      </trkpt>
      <trkpt lat="42.9656175" lon="-5.7363235">
        <ele>1529.66</ele>
        <time>2020-07-21T10:26:02.000Z</time>
      </trkpt>
      <trkpt lat="42.9656277" lon="-5.7363258">
        <ele>1529.66</ele>
        <time>2020-07-21T10:26:03.000Z</time>
      </trkpt>
      <trkpt lat="42.9656375" lon="-5.7363272">
        <ele>1529.81</ele>
        <time>2020-07-21T10:26:04.000Z</time>
      </trkpt>
      <trkpt lat="42.965649" lon="-5.7363262">
        <ele>1529.81</ele>
        <time>2020-07-21T10:26:05.000Z</time>
      </trkpt>
      <trkpt lat="42.9656625" lon="-5.7363245">
        <ele>1529.96</ele>
        <time>2020-07-21T10:26:06.000Z</time>
      </trkpt>
      <trkpt lat="42.965677" lon="-5.7363235">
        <ele>1529.96</ele>
        <time>2020-07-21T10:26:07.000Z</time>
      </trkpt>
      <trkpt lat="42.965691" lon="-5.7363258">
        <ele>1530.11</ele>
        <time>2020-07-21T10:26:08.000Z</time>
      </trkpt>
      <trkpt lat="42.9657033" lon="-5.736328">
        <ele>1530.11</ele>
        <time>2020-07-21T10:26:09.000Z</time>
      </trkpt>
      <trkpt lat="42.9657153" lon="-5.7363293">
        <ele>1530.27</ele>
        <time>2020-07-21T10:26:10.000Z</time>
      </trkpt>
      <trkpt lat="42.965727" lon="-5.7363278">
        <ele>1530.27</ele>
        <time>2020-07-21T10:26:11.000Z</time>
      </trkpt>
      <trkpt lat="42.9657415" lon="-5.736325">
        <ele>1530.42</ele>
        <time>2020-07-21T10:26:12.000Z</time>
      </trkpt>
      <trkpt lat="42.965756" lon="-5.7363203">
        <ele>1530.42</ele>
        <time>2020-07-21T10:26:13.000Z</time>
      </trkpt>
      <trkpt lat="42.9657712" lon="-5.7363155">
        <ele>1530.57</ele>
        <time>2020-07-21T10:26:14.000Z</time>
      </trkpt>
      <trkpt lat="42.9657842" lon="-5.736311">
        <ele>1530.57</ele>
        <time>2020-07-21T10:26:15.000Z</time>
      </trkpt>
      <trkpt lat="42.9657968" lon="-5.7363073">
        <ele>1530.72</ele>
        <time>2020-07-21T10:26:16.000Z</time>
      </trkpt>
      <trkpt lat="42.965809" lon="-5.7363047">
        <ele>1530.72</ele>
        <time>2020-07-21T10:26:17.000Z</time>
      </trkpt>
      <trkpt lat="42.965822" lon="-5.7363027">
        <ele>1530.88</ele>
        <time>2020-07-21T10:26:18.000Z</time>
      </trkpt>
      <trkpt lat="42.9658358" lon="-5.736301">
        <ele>1530.88</ele>
        <time>2020-07-21T10:26:19.000Z</time>
      </trkpt>
      <trkpt lat="42.9658493" lon="-5.7362988">
        <ele>1531.03</ele>
        <time>2020-07-21T10:26:20.000Z</time>
      </trkpt>
      <trkpt lat="42.9658627" lon="-5.7362957">
        <ele>1531.03</ele>
        <time>2020-07-21T10:26:21.000Z</time>
      </trkpt>
      <trkpt lat="42.9658755" lon="-5.7362915">
        <ele>1531.18</ele>
        <time>2020-07-21T10:26:22.000Z</time>
      </trkpt>
      <trkpt lat="42.9658882" lon="-5.7362865">
        <ele>1531.18</ele>
        <time>2020-07-21T10:26:23.000Z</time>
      </trkpt>
      <trkpt lat="42.9659008" lon="-5.7362813">
        <ele>1531.49</ele>
        <time>2020-07-21T10:26:24.000Z</time>
      </trkpt>
      <trkpt lat="42.9659137" lon="-5.7362758">
        <ele>1531.49</ele>
        <time>2020-07-21T10:26:25.000Z</time>
      </trkpt>
      <trkpt lat="42.9659268" lon="-5.7362707">
        <ele>1531.64</ele>
        <time>2020-07-21T10:26:26.000Z</time>
      </trkpt>
      <trkpt lat="42.9659402" lon="-5.7362655">
        <ele>1531.64</ele>
        <time>2020-07-21T10:26:27.000Z</time>
      </trkpt>
      <trkpt lat="42.9659532" lon="-5.7362598">
        <ele>1531.79</ele>
        <time>2020-07-21T10:26:28.000Z</time>
      </trkpt>
      <trkpt lat="42.9659652" lon="-5.736253">
        <ele>1531.79</ele>
        <time>2020-07-21T10:26:29.000Z</time>
      </trkpt>
      <trkpt lat="42.9659765" lon="-5.736245">
        <ele>1531.94</ele>
        <time>2020-07-21T10:26:30.000Z</time>
      </trkpt>
      <trkpt lat="42.9659865" lon="-5.736236">
        <ele>1531.94</ele>
        <time>2020-07-21T10:26:31.000Z</time>
      </trkpt>
      <trkpt lat="42.9659962" lon="-5.7362265">
        <ele>1532.25</ele>
        <time>2020-07-21T10:26:32.000Z</time>
      </trkpt>
      <trkpt lat="42.9660057" lon="-5.7362172">
        <ele>1532.25</ele>
        <time>2020-07-21T10:26:33.000Z</time>
      </trkpt>
      <trkpt lat="42.9660153" lon="-5.7362073">
        <ele>1532.4</ele>
        <time>2020-07-21T10:26:34.000Z</time>
      </trkpt>
      <trkpt lat="42.9660245" lon="-5.7361977">
        <ele>1532.4</ele>
        <time>2020-07-21T10:26:35.000Z</time>
      </trkpt>
      <trkpt lat="42.9660338" lon="-5.7361883">
        <ele>1532.55</ele>
        <time>2020-07-21T10:26:36.000Z</time>
      </trkpt>
      <trkpt lat="42.9660435" lon="-5.7361777">
        <ele>1532.55</ele>
        <time>2020-07-21T10:26:37.000Z</time>
      </trkpt>
      <trkpt lat="42.9660523" lon="-5.7361648">
        <ele>1532.86</ele>
        <time>2020-07-21T10:26:38.000Z</time>
      </trkpt>
      <trkpt lat="42.966061" lon="-5.7361508">
        <ele>1532.86</ele>
        <time>2020-07-21T10:26:39.000Z</time>
      </trkpt>
      <trkpt lat="42.9660693" lon="-5.736136">
        <ele>1533.01</ele>
        <time>2020-07-21T10:26:40.000Z</time>
      </trkpt>
      <trkpt lat="42.9660788" lon="-5.7361225">
        <ele>1533.01</ele>
        <time>2020-07-21T10:26:41.000Z</time>
      </trkpt>
      <trkpt lat="42.9660877" lon="-5.7361105">
        <ele>1533.31</ele>
        <time>2020-07-21T10:26:42.000Z</time>
      </trkpt>
      <trkpt lat="42.9660965" lon="-5.7361005">
        <ele>1533.31</ele>
        <time>2020-07-21T10:26:43.000Z</time>
      </trkpt>
      <trkpt lat="42.9661048" lon="-5.736091">
        <ele>1533.47</ele>
        <time>2020-07-21T10:26:44.000Z</time>
      </trkpt>
      <trkpt lat="42.9661142" lon="-5.7360807">
        <ele>1533.47</ele>
        <time>2020-07-21T10:26:45.000Z</time>
      </trkpt>
      <trkpt lat="42.9661237" lon="-5.7360705">
        <ele>1533.77</ele>
        <time>2020-07-21T10:26:46.000Z</time>
      </trkpt>
      <trkpt lat="42.9661335" lon="-5.7360618">
        <ele>1533.77</ele>
        <time>2020-07-21T10:26:47.000Z</time>
      </trkpt>
      <trkpt lat="42.9661438" lon="-5.7360547">
        <ele>1534.08</ele>
        <time>2020-07-21T10:26:48.000Z</time>
      </trkpt>
      <trkpt lat="42.9661553" lon="-5.7360493">
        <ele>1534.08</ele>
        <time>2020-07-21T10:26:49.000Z</time>
      </trkpt>
      <trkpt lat="42.9661673" lon="-5.7360433">
        <ele>1534.38</ele>
        <time>2020-07-21T10:26:50.000Z</time>
      </trkpt>
      <trkpt lat="42.9661798" lon="-5.7360383">
        <ele>1534.38</ele>
        <time>2020-07-21T10:26:51.000Z</time>
      </trkpt>
      <trkpt lat="42.9661925" lon="-5.736034">
        <ele>1534.69</ele>
        <time>2020-07-21T10:26:52.000Z</time>
      </trkpt>
      <trkpt lat="42.9662057" lon="-5.73603">
        <ele>1534.69</ele>
        <time>2020-07-21T10:26:53.000Z</time>
      </trkpt>
      <trkpt lat="42.966218" lon="-5.7360248">
        <ele>1534.84</ele>
        <time>2020-07-21T10:26:54.000Z</time>
      </trkpt>
      <trkpt lat="42.9662297" lon="-5.7360177">
        <ele>1534.84</ele>
        <time>2020-07-21T10:26:55.000Z</time>
      </trkpt>
      <trkpt lat="42.966241" lon="-5.7360112">
        <ele>1535.14</ele>
        <time>2020-07-21T10:26:56.000Z</time>
      </trkpt>
      <trkpt lat="42.9662543" lon="-5.7360053">
        <ele>1535.14</ele>
        <time>2020-07-21T10:26:57.000Z</time>
      </trkpt>
      <trkpt lat="42.966268" lon="-5.736">
        <ele>1535.45</ele>
        <time>2020-07-21T10:26:58.000Z</time>
      </trkpt>
      <trkpt lat="42.9662808" lon="-5.7359945">
        <ele>1535.45</ele>
        <time>2020-07-21T10:26:59.000Z</time>
      </trkpt>
      <trkpt lat="42.9662938" lon="-5.7359875">
        <ele>1535.75</ele>
        <time>2020-07-21T10:27:00.000Z</time>
      </trkpt>
      <trkpt lat="42.9663068" lon="-5.7359805">
        <ele>1535.75</ele>
        <time>2020-07-21T10:27:01.000Z</time>
      </trkpt>
      <trkpt lat="42.9663192" lon="-5.7359715">
        <ele>1536.06</ele>
        <time>2020-07-21T10:27:02.000Z</time>
      </trkpt>
      <trkpt lat="42.9663287" lon="-5.7359628">
        <ele>1536.06</ele>
        <time>2020-07-21T10:27:03.000Z</time>
      </trkpt>
      <trkpt lat="42.9663353" lon="-5.7359523">
        <ele>1536.21</ele>
        <time>2020-07-21T10:27:04.000Z</time>
      </trkpt>
      <trkpt lat="42.9663427" lon="-5.7359418">
        <ele>1536.21</ele>
        <time>2020-07-21T10:27:05.000Z</time>
      </trkpt>
      <trkpt lat="42.9663508" lon="-5.735932">
        <ele>1536.52</ele>
        <time>2020-07-21T10:27:06.000Z</time>
      </trkpt>
      <trkpt lat="42.9663613" lon="-5.7359242">
        <ele>1536.52</ele>
        <time>2020-07-21T10:27:07.000Z</time>
      </trkpt>
      <trkpt lat="42.9663727" lon="-5.7359177">
        <ele>1536.82</ele>
        <time>2020-07-21T10:27:08.000Z</time>
      </trkpt>
      <trkpt lat="42.9663838" lon="-5.7359123">
        <ele>1536.82</ele>
        <time>2020-07-21T10:27:09.000Z</time>
      </trkpt>
      <trkpt lat="42.9663955" lon="-5.7359082">
        <ele>1537.12</ele>
        <time>2020-07-21T10:27:10.000Z</time>
      </trkpt>
      <trkpt lat="42.9664072" lon="-5.7359043">
        <ele>1537.12</ele>
        <time>2020-07-21T10:27:11.000Z</time>
      </trkpt>
      <trkpt lat="42.966419" lon="-5.7358995">
        <ele>1537.43</ele>
        <time>2020-07-21T10:27:12.000Z</time>
      </trkpt>
      <trkpt lat="42.9664303" lon="-5.7358932">
        <ele>1537.43</ele>
        <time>2020-07-21T10:27:13.000Z</time>
      </trkpt>
      <trkpt lat="42.966441" lon="-5.7358848">
        <ele>1537.58</ele>
        <time>2020-07-21T10:27:14.000Z</time>
      </trkpt>
      <trkpt lat="42.9664505" lon="-5.7358758">
        <ele>1537.58</ele>
        <time>2020-07-21T10:27:15.000Z</time>
      </trkpt>
      <trkpt lat="42.9664597" lon="-5.7358675">
        <ele>1537.89</ele>
        <time>2020-07-21T10:27:16.000Z</time>
      </trkpt>
      <trkpt lat="42.966469" lon="-5.7358608">
        <ele>1537.89</ele>
        <time>2020-07-21T10:27:17.000Z</time>
      </trkpt>
      <trkpt lat="42.9664788" lon="-5.7358553">
        <ele>1538.19</ele>
        <time>2020-07-21T10:27:18.000Z</time>
      </trkpt>
      <trkpt lat="42.9664895" lon="-5.7358507">
        <ele>1538.19</ele>
        <time>2020-07-21T10:27:19.000Z</time>
      </trkpt>
      <trkpt lat="42.9664998" lon="-5.7358463">
        <ele>1538.5</ele>
        <time>2020-07-21T10:27:20.000Z</time>
      </trkpt>
      <trkpt lat="42.9665103" lon="-5.735841">
        <ele>1538.5</ele>
        <time>2020-07-21T10:27:21.000Z</time>
      </trkpt>
      <trkpt lat="42.9665195" lon="-5.7358343">
        <ele>1538.8</ele>
        <time>2020-07-21T10:27:22.000Z</time>
      </trkpt>
      <trkpt lat="42.9665282" lon="-5.735827">
        <ele>1538.8</ele>
        <time>2020-07-21T10:27:23.000Z</time>
      </trkpt>
      <trkpt lat="42.9665362" lon="-5.7358208">
        <ele>1538.95</ele>
        <time>2020-07-21T10:27:24.000Z</time>
      </trkpt>
      <trkpt lat="42.9665445" lon="-5.735817">
        <ele>1538.95</ele>
        <time>2020-07-21T10:27:25.000Z</time>
      </trkpt>
      <trkpt lat="42.9665532" lon="-5.7358138">
        <ele>1539.26</ele>
        <time>2020-07-21T10:27:26.000Z</time>
      </trkpt>
      <trkpt lat="42.966562" lon="-5.7358093">
        <ele>1539.26</ele>
        <time>2020-07-21T10:27:27.000Z</time>
      </trkpt>
      <trkpt lat="42.9665708" lon="-5.7358018">
        <ele>1539.56</ele>
        <time>2020-07-21T10:27:28.000Z</time>
      </trkpt>
      <trkpt lat="42.9665792" lon="-5.7357922">
        <ele>1539.56</ele>
        <time>2020-07-21T10:27:29.000Z</time>
      </trkpt>
      <trkpt lat="42.9665877" lon="-5.7357825">
        <ele>1539.87</ele>
        <time>2020-07-21T10:27:30.000Z</time>
      </trkpt>
      <trkpt lat="42.9665965" lon="-5.7357733">
        <ele>1539.87</ele>
        <time>2020-07-21T10:27:31.000Z</time>
      </trkpt>
      <trkpt lat="42.9666058" lon="-5.7357643">
        <ele>1540.17</ele>
        <time>2020-07-21T10:27:32.000Z</time>
      </trkpt>
      <trkpt lat="42.9666148" lon="-5.7357547">
        <ele>1540.17</ele>
        <time>2020-07-21T10:27:33.000Z</time>
      </trkpt>
      <trkpt lat="42.9666233" lon="-5.7357438">
        <ele>1540.32</ele>
        <time>2020-07-21T10:27:34.000Z</time>
      </trkpt>
      <trkpt lat="42.9666308" lon="-5.7357325">
        <ele>1540.32</ele>
        <time>2020-07-21T10:27:35.000Z</time>
      </trkpt>
      <trkpt lat="42.966638" lon="-5.7357212">
        <ele>1540.63</ele>
        <time>2020-07-21T10:27:36.000Z</time>
      </trkpt>
      <trkpt lat="42.9666453" lon="-5.7357095">
        <ele>1540.63</ele>
        <time>2020-07-21T10:27:37.000Z</time>
      </trkpt>
      <trkpt lat="42.9666532" lon="-5.7356978">
        <ele>1540.94</ele>
        <time>2020-07-21T10:27:38.000Z</time>
      </trkpt>
      <trkpt lat="42.9666613" lon="-5.7356863">
        <ele>1540.94</ele>
        <time>2020-07-21T10:27:39.000Z</time>
      </trkpt>
      <trkpt lat="42.9666697" lon="-5.7356772">
        <ele>1541.24</ele>
        <time>2020-07-21T10:27:40.000Z</time>
      </trkpt>
      <trkpt lat="42.9666788" lon="-5.7356658">
        <ele>1541.24</ele>
        <time>2020-07-21T10:27:41.000Z</time>
      </trkpt>
      <trkpt lat="42.9666877" lon="-5.7356535">
        <ele>1541.55</ele>
        <time>2020-07-21T10:27:42.000Z</time>
      </trkpt>
      <trkpt lat="42.9666967" lon="-5.735638">
        <ele>1541.55</ele>
        <time>2020-07-21T10:27:43.000Z</time>
      </trkpt>
      <trkpt lat="42.9667047" lon="-5.7356245">
        <ele>1541.85</ele>
        <time>2020-07-21T10:27:44.000Z</time>
      </trkpt>
      <trkpt lat="42.9667135" lon="-5.7356118">
        <ele>1541.85</ele>
        <time>2020-07-21T10:27:45.000Z</time>
      </trkpt>
      <trkpt lat="42.9667228" lon="-5.7356">
        <ele>1542.15</ele>
        <time>2020-07-21T10:27:46.000Z</time>
      </trkpt>
      <trkpt lat="42.9667322" lon="-5.7355895">
        <ele>1542.15</ele>
        <time>2020-07-21T10:27:47.000Z</time>
      </trkpt>
      <trkpt lat="42.9667428" lon="-5.7355808">
        <ele>1542.31</ele>
        <time>2020-07-21T10:27:48.000Z</time>
      </trkpt>
      <trkpt lat="42.9667542" lon="-5.7355725">
        <ele>1542.31</ele>
        <time>2020-07-21T10:27:49.000Z</time>
      </trkpt>
      <trkpt lat="42.966766" lon="-5.7355627">
        <ele>1542.61</ele>
        <time>2020-07-21T10:27:50.000Z</time>
      </trkpt>
      <trkpt lat="42.9667752" lon="-5.7355512">
        <ele>1542.61</ele>
        <time>2020-07-21T10:27:51.000Z</time>
      </trkpt>
      <trkpt lat="42.9667833" lon="-5.7355387">
        <ele>1542.92</ele>
        <time>2020-07-21T10:27:52.000Z</time>
      </trkpt>
      <trkpt lat="42.9667913" lon="-5.7355263">
        <ele>1542.92</ele>
        <time>2020-07-21T10:27:53.000Z</time>
      </trkpt>
      <trkpt lat="42.9668013" lon="-5.7355133">
        <ele>1543.22</ele>
        <time>2020-07-21T10:27:54.000Z</time>
      </trkpt>
      <trkpt lat="42.9668118" lon="-5.7354998">
        <ele>1543.22</ele>
        <time>2020-07-21T10:27:55.000Z</time>
      </trkpt>
      <trkpt lat="42.9668222" lon="-5.735486">
        <ele>1543.53</ele>
        <time>2020-07-21T10:27:56.000Z</time>
      </trkpt>
      <trkpt lat="42.9668305" lon="-5.7354732">
        <ele>1543.53</ele>
        <time>2020-07-21T10:27:57.000Z</time>
      </trkpt>
      <trkpt lat="42.9668385" lon="-5.735462">
        <ele>1543.83</ele>
        <time>2020-07-21T10:27:58.000Z</time>
      </trkpt>
      <trkpt lat="42.9668457" lon="-5.7354495">
        <ele>1543.83</ele>
        <time>2020-07-21T10:27:59.000Z</time>
      </trkpt>
      <trkpt lat="42.9668533" lon="-5.7354362">
        <ele>1544.29</ele>
        <time>2020-07-21T10:28:00.000Z</time>
      </trkpt>
      <trkpt lat="42.9668607" lon="-5.7354212">
        <ele>1544.29</ele>
        <time>2020-07-21T10:28:01.000Z</time>
      </trkpt>
      <trkpt lat="42.966868" lon="-5.735406">
        <ele>1544.59</ele>
        <time>2020-07-21T10:28:02.000Z</time>
      </trkpt>
      <trkpt lat="42.966874" lon="-5.7353905">
        <ele>1544.59</ele>
        <time>2020-07-21T10:28:03.000Z</time>
      </trkpt>
      <trkpt lat="42.9668795" lon="-5.7353765">
        <ele>1544.9</ele>
        <time>2020-07-21T10:28:04.000Z</time>
      </trkpt>
      <trkpt lat="42.966885" lon="-5.7353647">
        <ele>1544.9</ele>
        <time>2020-07-21T10:28:05.000Z</time>
      </trkpt>
      <trkpt lat="42.966892" lon="-5.7353532">
        <ele>1545.2</ele>
        <time>2020-07-21T10:28:06.000Z</time>
      </trkpt>
      <trkpt lat="42.9668995" lon="-5.7353402">
        <ele>1545.2</ele>
        <time>2020-07-21T10:28:07.000Z</time>
      </trkpt>
      <trkpt lat="42.9669072" lon="-5.7353257">
        <ele>1545.51</ele>
        <time>2020-07-21T10:28:08.000Z</time>
      </trkpt>
      <trkpt lat="42.9669143" lon="-5.735312">
        <ele>1545.51</ele>
        <time>2020-07-21T10:28:09.000Z</time>
      </trkpt>
      <trkpt lat="42.9669217" lon="-5.7352995">
        <ele>1545.81</ele>
        <time>2020-07-21T10:28:10.000Z</time>
      </trkpt>
      <trkpt lat="42.9669298" lon="-5.73529">
        <ele>1545.81</ele>
        <time>2020-07-21T10:28:11.000Z</time>
      </trkpt>
      <trkpt lat="42.966939" lon="-5.7352808">
        <ele>1546.12</ele>
        <time>2020-07-21T10:28:12.000Z</time>
      </trkpt>
      <trkpt lat="42.9669493" lon="-5.7352723">
        <ele>1546.12</ele>
        <time>2020-07-21T10:28:13.000Z</time>
      </trkpt>
      <trkpt lat="42.9669602" lon="-5.7352647">
        <ele>1546.42</ele>
        <time>2020-07-21T10:28:14.000Z</time>
      </trkpt>
      <trkpt lat="42.9669707" lon="-5.7352593">
        <ele>1546.42</ele>
        <time>2020-07-21T10:28:15.000Z</time>
      </trkpt>
      <trkpt lat="42.9669813" lon="-5.7352552">
        <ele>1546.73</ele>
        <time>2020-07-21T10:28:16.000Z</time>
      </trkpt>
      <trkpt lat="42.9669913" lon="-5.7352505">
        <ele>1546.73</ele>
        <time>2020-07-21T10:28:17.000Z</time>
      </trkpt>
      <trkpt lat="42.9670003" lon="-5.7352443">
        <ele>1547.03</ele>
        <time>2020-07-21T10:28:18.000Z</time>
      </trkpt>
      <trkpt lat="42.9670082" lon="-5.7352363">
        <ele>1547.03</ele>
        <time>2020-07-21T10:28:19.000Z</time>
      </trkpt>
      <trkpt lat="42.9670167" lon="-5.735227">
        <ele>1547.34</ele>
        <time>2020-07-21T10:28:20.000Z</time>
      </trkpt>
      <trkpt lat="42.9670255" lon="-5.735218">
        <ele>1547.34</ele>
        <time>2020-07-21T10:28:21.000Z</time>
      </trkpt>
      <trkpt lat="42.9670347" lon="-5.7352095">
        <ele>1547.64</ele>
        <time>2020-07-21T10:28:22.000Z</time>
      </trkpt>
      <trkpt lat="42.9670433" lon="-5.7352013">
        <ele>1547.64</ele>
        <time>2020-07-21T10:28:23.000Z</time>
      </trkpt>
      <trkpt lat="42.967053" lon="-5.7351937">
        <ele>1547.95</ele>
        <time>2020-07-21T10:28:24.000Z</time>
      </trkpt>
      <trkpt lat="42.9670633" lon="-5.7351863">
        <ele>1547.95</ele>
        <time>2020-07-21T10:28:25.000Z</time>
      </trkpt>
      <trkpt lat="42.9670733" lon="-5.7351795">
        <ele>1548.25</ele>
        <time>2020-07-21T10:28:26.000Z</time>
      </trkpt>
      <trkpt lat="42.9670833" lon="-5.7351727">
        <ele>1548.25</ele>
        <time>2020-07-21T10:28:27.000Z</time>
      </trkpt>
      <trkpt lat="42.9670937" lon="-5.7351668">
        <ele>1548.56</ele>
        <time>2020-07-21T10:28:28.000Z</time>
      </trkpt>
      <trkpt lat="42.9671028" lon="-5.7351608">
        <ele>1548.56</ele>
        <time>2020-07-21T10:28:29.000Z</time>
      </trkpt>
      <trkpt lat="42.9671117" lon="-5.7351527">
        <ele>1548.86</ele>
        <time>2020-07-21T10:28:30.000Z</time>
      </trkpt>
      <trkpt lat="42.9671183" lon="-5.7351413">
        <ele>1548.86</ele>
        <time>2020-07-21T10:28:31.000Z</time>
      </trkpt>
      <trkpt lat="42.9671252" lon="-5.735129">
        <ele>1549.17</ele>
        <time>2020-07-21T10:28:32.000Z</time>
      </trkpt>
      <trkpt lat="42.9671312" lon="-5.7351163">
        <ele>1549.17</ele>
        <time>2020-07-21T10:28:33.000Z</time>
      </trkpt>
      <trkpt lat="42.967138" lon="-5.7351043">
        <ele>1549.47</ele>
        <time>2020-07-21T10:28:34.000Z</time>
      </trkpt>
      <trkpt lat="42.9671455" lon="-5.7350918">
        <ele>1549.47</ele>
        <time>2020-07-21T10:28:35.000Z</time>
      </trkpt>
      <trkpt lat="42.9671528" lon="-5.73508">
        <ele>1549.77</ele>
        <time>2020-07-21T10:28:36.000Z</time>
      </trkpt>
      <trkpt lat="42.9671607" lon="-5.735069">
        <ele>1549.77</ele>
        <time>2020-07-21T10:28:37.000Z</time>
      </trkpt>
      <trkpt lat="42.9671687" lon="-5.7350597">
        <ele>1550.08</ele>
        <time>2020-07-21T10:28:38.000Z</time>
      </trkpt>
      <trkpt lat="42.9671772" lon="-5.7350513">
        <ele>1550.08</ele>
        <time>2020-07-21T10:28:39.000Z</time>
      </trkpt>
      <trkpt lat="42.9671852" lon="-5.7350423">
        <ele>1550.38</ele>
        <time>2020-07-21T10:28:40.000Z</time>
      </trkpt>
      <trkpt lat="42.9671925" lon="-5.7350325">
        <ele>1550.38</ele>
        <time>2020-07-21T10:28:41.000Z</time>
      </trkpt>
      <trkpt lat="42.9671998" lon="-5.7350223">
        <ele>1550.69</ele>
        <time>2020-07-21T10:28:42.000Z</time>
      </trkpt>
      <trkpt lat="42.967207" lon="-5.7350125">
        <ele>1550.69</ele>
        <time>2020-07-21T10:28:43.000Z</time>
      </trkpt>
      <trkpt lat="42.9672143" lon="-5.7350008">
        <ele>1550.99</ele>
        <time>2020-07-21T10:28:44.000Z</time>
      </trkpt>
      <trkpt lat="42.9672203" lon="-5.7349875">
        <ele>1550.99</ele>
        <time>2020-07-21T10:28:45.000Z</time>
      </trkpt>
      <trkpt lat="42.967226" lon="-5.7349723">
        <ele>1551.3</ele>
        <time>2020-07-21T10:28:46.000Z</time>
      </trkpt>
      <trkpt lat="42.9672317" lon="-5.7349587">
        <ele>1551.3</ele>
        <time>2020-07-21T10:28:47.000Z</time>
      </trkpt>
      <trkpt lat="42.9672375" lon="-5.7349468">
        <ele>1551.76</ele>
        <time>2020-07-21T10:28:48.000Z</time>
      </trkpt>
      <trkpt lat="42.967244" lon="-5.7349363">
        <ele>1551.76</ele>
        <time>2020-07-21T10:28:49.000Z</time>
      </trkpt>
      <trkpt lat="42.9672503" lon="-5.7349253">
        <ele>1552.06</ele>
        <time>2020-07-21T10:28:50.000Z</time>
      </trkpt>
      <trkpt lat="42.967255" lon="-5.734913">
        <ele>1552.06</ele>
        <time>2020-07-21T10:28:51.000Z</time>
      </trkpt>
      <trkpt lat="42.967259" lon="-5.7348993">
        <ele>1552.36</ele>
        <time>2020-07-21T10:28:52.000Z</time>
      </trkpt>
      <trkpt lat="42.9672625" lon="-5.7348862">
        <ele>1552.36</ele>
        <time>2020-07-21T10:28:53.000Z</time>
      </trkpt>
      <trkpt lat="42.967267" lon="-5.7348743">
        <ele>1552.67</ele>
        <time>2020-07-21T10:28:54.000Z</time>
      </trkpt>
      <trkpt lat="42.967272" lon="-5.7348642">
        <ele>1552.67</ele>
        <time>2020-07-21T10:28:55.000Z</time>
      </trkpt>
      <trkpt lat="42.967278" lon="-5.7348538">
        <ele>1552.82</ele>
        <time>2020-07-21T10:28:56.000Z</time>
      </trkpt>
      <trkpt lat="42.9672843" lon="-5.7348423">
        <ele>1552.82</ele>
        <time>2020-07-21T10:28:57.000Z</time>
      </trkpt>
      <trkpt lat="42.9672907" lon="-5.7348312">
        <ele>1553.13</ele>
        <time>2020-07-21T10:28:58.000Z</time>
      </trkpt>
      <trkpt lat="42.9672968" lon="-5.7348203">
        <ele>1553.13</ele>
        <time>2020-07-21T10:28:59.000Z</time>
      </trkpt>
      <trkpt lat="42.9673035" lon="-5.73481">
        <ele>1553.43</ele>
        <time>2020-07-21T10:29:00.000Z</time>
      </trkpt>
      <trkpt lat="42.9673112" lon="-5.7347992">
        <ele>1553.43</ele>
        <time>2020-07-21T10:29:01.000Z</time>
      </trkpt>
      <trkpt lat="42.9673192" lon="-5.7347862">
        <ele>1553.74</ele>
        <time>2020-07-21T10:29:02.000Z</time>
      </trkpt>
      <trkpt lat="42.9673275" lon="-5.7347735">
        <ele>1553.74</ele>
        <time>2020-07-21T10:29:03.000Z</time>
      </trkpt>
      <trkpt lat="42.9673353" lon="-5.7347617">
        <ele>1554.04</ele>
        <time>2020-07-21T10:29:04.000Z</time>
      </trkpt>
      <trkpt lat="42.9673427" lon="-5.7347503">
        <ele>1554.04</ele>
        <time>2020-07-21T10:29:05.000Z</time>
      </trkpt>
      <trkpt lat="42.9673495" lon="-5.7347378">
        <ele>1554.35</ele>
        <time>2020-07-21T10:29:06.000Z</time>
      </trkpt>
      <trkpt lat="42.9673555" lon="-5.7347235">
        <ele>1554.35</ele>
        <time>2020-07-21T10:29:07.000Z</time>
      </trkpt>
      <trkpt lat="42.9673613" lon="-5.7347097">
        <ele>1554.65</ele>
        <time>2020-07-21T10:29:08.000Z</time>
      </trkpt>
      <trkpt lat="42.9673673" lon="-5.7346968">
        <ele>1554.65</ele>
        <time>2020-07-21T10:29:09.000Z</time>
      </trkpt>
      <trkpt lat="42.9673737" lon="-5.734686">
        <ele>1554.96</ele>
        <time>2020-07-21T10:29:10.000Z</time>
      </trkpt>
      <trkpt lat="42.96738" lon="-5.7346735">
        <ele>1554.96</ele>
        <time>2020-07-21T10:29:11.000Z</time>
      </trkpt>
      <trkpt lat="42.967386" lon="-5.7346593">
        <ele>1555.26</ele>
        <time>2020-07-21T10:29:12.000Z</time>
      </trkpt>
      <trkpt lat="42.9673945" lon="-5.734645">
        <ele>1555.26</ele>
        <time>2020-07-21T10:29:13.000Z</time>
      </trkpt>
      <trkpt lat="42.9674043" lon="-5.7346332">
        <ele>1555.57</ele>
        <time>2020-07-21T10:29:14.000Z</time>
      </trkpt>
      <trkpt lat="42.967415" lon="-5.7346242">
        <ele>1555.57</ele>
        <time>2020-07-21T10:29:15.000Z</time>
      </trkpt>
      <trkpt lat="42.9674248" lon="-5.7346167">
        <ele>1555.87</ele>
        <time>2020-07-21T10:29:16.000Z</time>
      </trkpt>
      <trkpt lat="42.9674345" lon="-5.7346092">
        <ele>1555.87</ele>
        <time>2020-07-21T10:29:17.000Z</time>
      </trkpt>
      <trkpt lat="42.9674447" lon="-5.7346008">
        <ele>1556.18</ele>
        <time>2020-07-21T10:29:18.000Z</time>
      </trkpt>
      <trkpt lat="42.967455" lon="-5.7345917">
        <ele>1556.18</ele>
        <time>2020-07-21T10:29:19.000Z</time>
      </trkpt>
      <trkpt lat="42.9674652" lon="-5.7345825">
        <ele>1556.48</ele>
        <time>2020-07-21T10:29:20.000Z</time>
      </trkpt>
      <trkpt lat="42.967475" lon="-5.7345728">
        <ele>1556.48</ele>
        <time>2020-07-21T10:29:21.000Z</time>
      </trkpt>
      <trkpt lat="42.9674838" lon="-5.7345632">
        <ele>1556.79</ele>
        <time>2020-07-21T10:29:22.000Z</time>
      </trkpt>
      <trkpt lat="42.967492" lon="-5.7345528">
        <ele>1556.79</ele>
        <time>2020-07-21T10:29:23.000Z</time>
      </trkpt>
      <trkpt lat="42.9674993" lon="-5.7345418">
        <ele>1557.09</ele>
        <time>2020-07-21T10:29:24.000Z</time>
      </trkpt>
      <trkpt lat="42.9675067" lon="-5.7345312">
        <ele>1557.09</ele>
        <time>2020-07-21T10:29:25.000Z</time>
      </trkpt>
      <trkpt lat="42.9675143" lon="-5.7345212">
        <ele>1557.4</ele>
        <time>2020-07-21T10:29:26.000Z</time>
      </trkpt>
      <trkpt lat="42.9675223" lon="-5.734511">
        <ele>1557.4</ele>
        <time>2020-07-21T10:29:27.000Z</time>
      </trkpt>
      <trkpt lat="42.9675308" lon="-5.7345007">
        <ele>1557.55</ele>
        <time>2020-07-21T10:29:28.000Z</time>
      </trkpt>
      <trkpt lat="42.9675395" lon="-5.73449">
        <ele>1557.55</ele>
        <time>2020-07-21T10:29:29.000Z</time>
      </trkpt>
      <trkpt lat="42.9675477" lon="-5.7344803">
        <ele>1557.85</ele>
        <time>2020-07-21T10:29:30.000Z</time>
      </trkpt>
      <trkpt lat="42.9675553" lon="-5.7344715">
        <ele>1557.85</ele>
        <time>2020-07-21T10:29:31.000Z</time>
      </trkpt>
      <trkpt lat="42.9675633" lon="-5.734463">
        <ele>1558.16</ele>
        <time>2020-07-21T10:29:32.000Z</time>
      </trkpt>
      <trkpt lat="42.9675718" lon="-5.7344542">
        <ele>1558.16</ele>
        <time>2020-07-21T10:29:33.000Z</time>
      </trkpt>
      <trkpt lat="42.9675805" lon="-5.7344447">
        <ele>1558.31</ele>
        <time>2020-07-21T10:29:34.000Z</time>
      </trkpt>
      <trkpt lat="42.9675897" lon="-5.734434">
        <ele>1558.31</ele>
        <time>2020-07-21T10:29:35.000Z</time>
      </trkpt>
      <trkpt lat="42.9675982" lon="-5.734425">
        <ele>1558.61</ele>
        <time>2020-07-21T10:29:36.000Z</time>
      </trkpt>
      <trkpt lat="42.9676073" lon="-5.7344163">
        <ele>1558.61</ele>
        <time>2020-07-21T10:29:37.000Z</time>
      </trkpt>
      <trkpt lat="42.9676168" lon="-5.7344078">
        <ele>1558.92</ele>
        <time>2020-07-21T10:29:38.000Z</time>
      </trkpt>
      <trkpt lat="42.9676273" lon="-5.7343997">
        <ele>1558.92</ele>
        <time>2020-07-21T10:29:39.000Z</time>
      </trkpt>
      <trkpt lat="42.9676377" lon="-5.7343918">
        <ele>1559.07</ele>
        <time>2020-07-21T10:29:40.000Z</time>
      </trkpt>
      <trkpt lat="42.9676477" lon="-5.7343863">
        <ele>1559.07</ele>
        <time>2020-07-21T10:29:41.000Z</time>
      </trkpt>
      <trkpt lat="42.967658" lon="-5.7343808">
        <ele>1559.38</ele>
        <time>2020-07-21T10:29:42.000Z</time>
      </trkpt>
      <trkpt lat="42.9676687" lon="-5.734376">
        <ele>1559.38</ele>
        <time>2020-07-21T10:29:43.000Z</time>
      </trkpt>
      <trkpt lat="42.9676793" lon="-5.7343707">
        <ele>1559.68</ele>
        <time>2020-07-21T10:29:44.000Z</time>
      </trkpt>
      <trkpt lat="42.9676895" lon="-5.7343652">
        <ele>1559.68</ele>
        <time>2020-07-21T10:29:45.000Z</time>
      </trkpt>
      <trkpt lat="42.9676998" lon="-5.7343597">
        <ele>1559.83</ele>
        <time>2020-07-21T10:29:46.000Z</time>
      </trkpt>
      <trkpt lat="42.96771" lon="-5.7343532">
        <ele>1559.83</ele>
        <time>2020-07-21T10:29:47.000Z</time>
      </trkpt>
      <trkpt lat="42.9677203" lon="-5.7343467">
        <ele>1560.14</ele>
        <time>2020-07-21T10:29:48.000Z</time>
      </trkpt>
      <trkpt lat="42.9677303" lon="-5.734339">
        <ele>1560.14</ele>
        <time>2020-07-21T10:29:49.000Z</time>
      </trkpt>
      <trkpt lat="42.9677408" lon="-5.7343307">
        <ele>1560.44</ele>
        <time>2020-07-21T10:29:50.000Z</time>
      </trkpt>
      <trkpt lat="42.9677517" lon="-5.7343207">
        <ele>1560.44</ele>
        <time>2020-07-21T10:29:51.000Z</time>
      </trkpt>
      <trkpt lat="42.967762" lon="-5.7343093">
        <ele>1560.59</ele>
        <time>2020-07-21T10:29:52.000Z</time>
      </trkpt>
      <trkpt lat="42.9677712" lon="-5.7342973">
        <ele>1560.59</ele>
        <time>2020-07-21T10:29:53.000Z</time>
      </trkpt>
      <trkpt lat="42.9677788" lon="-5.734286">
        <ele>1560.9</ele>
        <time>2020-07-21T10:29:54.000Z</time>
      </trkpt>
      <trkpt lat="42.9677867" lon="-5.7342742">
        <ele>1560.9</ele>
        <time>2020-07-21T10:29:55.000Z</time>
      </trkpt>
      <trkpt lat="42.9677955" lon="-5.7342613">
        <ele>1561.2</ele>
        <time>2020-07-21T10:29:56.000Z</time>
      </trkpt>
      <trkpt lat="42.9678047" lon="-5.7342485">
        <ele>1561.2</ele>
        <time>2020-07-21T10:29:57.000Z</time>
      </trkpt>
      <trkpt lat="42.9678137" lon="-5.734238">
        <ele>1561.36</ele>
        <time>2020-07-21T10:29:58.000Z</time>
      </trkpt>
      <trkpt lat="42.9678217" lon="-5.7342307">
        <ele>1561.36</ele>
        <time>2020-07-21T10:29:59.000Z</time>
      </trkpt>
      <trkpt lat="42.9678303" lon="-5.7342218">
        <ele>1561.66</ele>
        <time>2020-07-21T10:30:00.000Z</time>
      </trkpt>
      <trkpt lat="42.9678398" lon="-5.7342123">
        <ele>1561.66</ele>
        <time>2020-07-21T10:30:01.000Z</time>
      </trkpt>
      <trkpt lat="42.9678493" lon="-5.7341993">
        <ele>1561.97</ele>
        <time>2020-07-21T10:30:02.000Z</time>
      </trkpt>
      <trkpt lat="42.9678583" lon="-5.734188">
        <ele>1561.97</ele>
        <time>2020-07-21T10:30:03.000Z</time>
      </trkpt>
      <trkpt lat="42.9678665" lon="-5.7341762">
        <ele>1562.27</ele>
        <time>2020-07-21T10:30:04.000Z</time>
      </trkpt>
      <trkpt lat="42.9678742" lon="-5.7341657">
        <ele>1562.27</ele>
        <time>2020-07-21T10:30:05.000Z</time>
      </trkpt>
      <trkpt lat="42.9678817" lon="-5.7341545">
        <ele>1562.42</ele>
        <time>2020-07-21T10:30:06.000Z</time>
      </trkpt>
      <trkpt lat="42.9678897" lon="-5.734143">
        <ele>1562.42</ele>
        <time>2020-07-21T10:30:07.000Z</time>
      </trkpt>
      <trkpt lat="42.967898" lon="-5.734131">
        <ele>1562.73</ele>
        <time>2020-07-21T10:30:08.000Z</time>
      </trkpt>
      <trkpt lat="42.9679057" lon="-5.734119">
        <ele>1562.73</ele>
        <time>2020-07-21T10:30:09.000Z</time>
      </trkpt>
      <trkpt lat="42.9679127" lon="-5.734107">
        <ele>1563.03</ele>
        <time>2020-07-21T10:30:10.000Z</time>
      </trkpt>
      <trkpt lat="42.9679195" lon="-5.7340947">
        <ele>1563.03</ele>
        <time>2020-07-21T10:30:11.000Z</time>
      </trkpt>
      <trkpt lat="42.9679262" lon="-5.7340825">
        <ele>1563.34</ele>
        <time>2020-07-21T10:30:12.000Z</time>
      </trkpt>
      <trkpt lat="42.9679332" lon="-5.7340708">
        <ele>1563.34</ele>
        <time>2020-07-21T10:30:13.000Z</time>
      </trkpt>
      <trkpt lat="42.9679408" lon="-5.7340603">
        <ele>1563.49</ele>
        <time>2020-07-21T10:30:14.000Z</time>
      </trkpt>
      <trkpt lat="42.9679492" lon="-5.7340502">
        <ele>1563.49</ele>
        <time>2020-07-21T10:30:15.000Z</time>
      </trkpt>
      <trkpt lat="42.9679582" lon="-5.7340398">
        <ele>1563.8</ele>
        <time>2020-07-21T10:30:16.000Z</time>
      </trkpt>
      <trkpt lat="42.9679675" lon="-5.734029">
        <ele>1563.8</ele>
        <time>2020-07-21T10:30:17.000Z</time>
      </trkpt>
      <trkpt lat="42.9679768" lon="-5.7340178">
        <ele>1563.95</ele>
        <time>2020-07-21T10:30:18.000Z</time>
      </trkpt>
      <trkpt lat="42.9679863" lon="-5.7340073">
        <ele>1563.95</ele>
        <time>2020-07-21T10:30:19.000Z</time>
      </trkpt>
      <trkpt lat="42.967996" lon="-5.7339983">
        <ele>1564.25</ele>
        <time>2020-07-21T10:30:20.000Z</time>
      </trkpt>
      <trkpt lat="42.9680062" lon="-5.733989">
        <ele>1564.25</ele>
        <time>2020-07-21T10:30:21.000Z</time>
      </trkpt>
      <trkpt lat="42.9680165" lon="-5.7339798">
        <ele>1564.41</ele>
        <time>2020-07-21T10:30:22.000Z</time>
      </trkpt>
      <trkpt lat="42.9680262" lon="-5.7339692">
        <ele>1564.41</ele>
        <time>2020-07-21T10:30:23.000Z</time>
      </trkpt>
      <trkpt lat="42.9680353" lon="-5.7339578">
        <ele>1564.56</ele>
        <time>2020-07-21T10:30:24.000Z</time>
      </trkpt>
      <trkpt lat="42.9680438" lon="-5.7339458">
        <ele>1564.56</ele>
        <time>2020-07-21T10:30:25.000Z</time>
      </trkpt>
      <trkpt lat="42.9680517" lon="-5.7339347">
        <ele>1564.86</ele>
        <time>2020-07-21T10:30:26.000Z</time>
      </trkpt>
      <trkpt lat="42.968059" lon="-5.7339245">
        <ele>1564.86</ele>
        <time>2020-07-21T10:30:27.000Z</time>
      </trkpt>
      <trkpt lat="42.9680677" lon="-5.7339142">
        <ele>1565.02</ele>
        <time>2020-07-21T10:30:28.000Z</time>
      </trkpt>
      <trkpt lat="42.9680767" lon="-5.7339037">
        <ele>1565.02</ele>
        <time>2020-07-21T10:30:29.000Z</time>
      </trkpt>
      <trkpt lat="42.968086" lon="-5.7338927">
        <ele>1565.17</ele>
        <time>2020-07-21T10:30:30.000Z</time>
      </trkpt>
      <trkpt lat="42.9680942" lon="-5.7338838">
        <ele>1565.17</ele>
        <time>2020-07-21T10:30:31.000Z</time>
      </trkpt>
      <trkpt lat="42.9681033" lon="-5.7338732">
        <ele>1565.32</ele>
        <time>2020-07-21T10:30:32.000Z</time>
      </trkpt>
      <trkpt lat="42.9681122" lon="-5.7338627">
        <ele>1565.32</ele>
        <time>2020-07-21T10:30:33.000Z</time>
      </trkpt>
      <trkpt lat="42.9681218" lon="-5.733849">
        <ele>1565.47</ele>
        <time>2020-07-21T10:30:34.000Z</time>
      </trkpt>
      <trkpt lat="42.9681305" lon="-5.7338367">
        <ele>1565.47</ele>
        <time>2020-07-21T10:30:35.000Z</time>
      </trkpt>
      <trkpt lat="42.9681397" lon="-5.7338243">
        <ele>1565.62</ele>
        <time>2020-07-21T10:30:36.000Z</time>
      </trkpt>
      <trkpt lat="42.9681485" lon="-5.7338138">
        <ele>1565.62</ele>
        <time>2020-07-21T10:30:37.000Z</time>
      </trkpt>
      <trkpt lat="42.968158" lon="-5.7338053">
        <ele>1565.78</ele>
        <time>2020-07-21T10:30:38.000Z</time>
      </trkpt>
      <trkpt lat="42.9681667" lon="-5.733798">
        <ele>1565.78</ele>
        <time>2020-07-21T10:30:39.000Z</time>
      </trkpt>
      <trkpt lat="42.9681752" lon="-5.7337905">
        <ele>1566.08</ele>
        <time>2020-07-21T10:30:40.000Z</time>
      </trkpt>
      <trkpt lat="42.968183" lon="-5.7337828">
        <ele>1566.08</ele>
        <time>2020-07-21T10:30:41.000Z</time>
      </trkpt>
      <trkpt lat="42.9681912" lon="-5.733775">
        <ele>1566.23</ele>
        <time>2020-07-21T10:30:42.000Z</time>
      </trkpt>
      <trkpt lat="42.9681993" lon="-5.7337678">
        <ele>1566.23</ele>
        <time>2020-07-21T10:30:43.000Z</time>
      </trkpt>
      <trkpt lat="42.9682082" lon="-5.7337605">
        <ele>1566.39</ele>
        <time>2020-07-21T10:30:44.000Z</time>
      </trkpt>
      <trkpt lat="42.9682165" lon="-5.7337523">
        <ele>1566.39</ele>
        <time>2020-07-21T10:30:45.000Z</time>
      </trkpt>
      <trkpt lat="42.9682243" lon="-5.7337428">
        <ele>1566.39</ele>
        <time>2020-07-21T10:30:46.000Z</time>
      </trkpt>
      <trkpt lat="42.9682317" lon="-5.7337328">
        <ele>1566.39</ele>
        <time>2020-07-21T10:30:47.000Z</time>
      </trkpt>
      <trkpt lat="42.9682405" lon="-5.7337232">
        <ele>1566.54</ele>
        <time>2020-07-21T10:30:48.000Z</time>
      </trkpt>
      <trkpt lat="42.9682495" lon="-5.7337135">
        <ele>1566.54</ele>
        <time>2020-07-21T10:30:49.000Z</time>
      </trkpt>
      <trkpt lat="42.9682592" lon="-5.7337032">
        <ele>1566.69</ele>
        <time>2020-07-21T10:30:50.000Z</time>
      </trkpt>
      <trkpt lat="42.9682682" lon="-5.7336932">
        <ele>1566.69</ele>
        <time>2020-07-21T10:30:51.000Z</time>
      </trkpt>
      <trkpt lat="42.9682775" lon="-5.7336838">
        <ele>1566.84</ele>
        <time>2020-07-21T10:30:52.000Z</time>
      </trkpt>
      <trkpt lat="42.9682843" lon="-5.7336748">
        <ele>1566.84</ele>
        <time>2020-07-21T10:30:53.000Z</time>
      </trkpt>
      <trkpt lat="42.9682902" lon="-5.7336653">
        <ele>1567</ele>
        <time>2020-07-21T10:30:54.000Z</time>
      </trkpt>
      <trkpt lat="42.9682953" lon="-5.7336563">
        <ele>1567</ele>
        <time>2020-07-21T10:30:55.000Z</time>
      </trkpt>
      <trkpt lat="42.9683027" lon="-5.733649">
        <ele>1567.15</ele>
        <time>2020-07-21T10:30:56.000Z</time>
      </trkpt>
      <trkpt lat="42.9683103" lon="-5.7336425">
        <ele>1567.15</ele>
        <time>2020-07-21T10:30:57.000Z</time>
      </trkpt>
      <trkpt lat="42.9683188" lon="-5.7336365">
        <ele>1567.3</ele>
        <time>2020-07-21T10:30:58.000Z</time>
      </trkpt>
      <trkpt lat="42.9683277" lon="-5.7336307">
        <ele>1567.3</ele>
        <time>2020-07-21T10:30:59.000Z</time>
      </trkpt>
      <trkpt lat="42.9683373" lon="-5.7336248">
        <ele>1567.45</ele>
        <time>2020-07-21T10:31:00.000Z</time>
      </trkpt>
      <trkpt lat="42.9683458" lon="-5.7336182">
        <ele>1567.45</ele>
        <time>2020-07-21T10:31:01.000Z</time>
      </trkpt>
      <trkpt lat="42.9683515" lon="-5.73361">
        <ele>1567.6</ele>
        <time>2020-07-21T10:31:02.000Z</time>
      </trkpt>
      <trkpt lat="42.9683517" lon="-5.733603">
        <ele>1567.6</ele>
        <time>2020-07-21T10:31:03.000Z</time>
      </trkpt>
      <trkpt lat="42.968349" lon="-5.7335985">
        <ele>1567.76</ele>
        <time>2020-07-21T10:31:04.000Z</time>
      </trkpt>
      <trkpt lat="42.9683452" lon="-5.7335967">
        <ele>1567.76</ele>
        <time>2020-07-21T10:31:05.000Z</time>
      </trkpt>
      <trkpt lat="42.9683442" lon="-5.733596">
        <ele>1567.91</ele>
        <time>2020-07-21T10:31:06.000Z</time>
      </trkpt>
      <trkpt lat="42.9683435" lon="-5.733595">
        <ele>1567.91</ele>
        <time>2020-07-21T10:31:07.000Z</time>
      </trkpt>
      <trkpt lat="42.9683435" lon="-5.7335942">
        <ele>1567.91</ele>
        <time>2020-07-21T10:31:08.000Z</time>
      </trkpt>
      <trkpt lat="42.968343" lon="-5.733594">
        <ele>1567.91</ele>
        <time>2020-07-21T10:31:09.000Z</time>
      </trkpt>
      <trkpt lat="42.9683433" lon="-5.7335947">
        <ele>1568.06</ele>
        <time>2020-07-21T10:31:10.000Z</time>
      </trkpt>
      <trkpt lat="42.9683447" lon="-5.733595">
        <ele>1568.06</ele>
        <time>2020-07-21T10:31:11.000Z</time>
      </trkpt>
      <trkpt lat="42.9683487" lon="-5.7335912">
        <ele>1568.21</ele>
        <time>2020-07-21T10:31:12.000Z</time>
      </trkpt>
      <trkpt lat="42.9683547" lon="-5.7335847">
        <ele>1568.21</ele>
        <time>2020-07-21T10:31:13.000Z</time>
      </trkpt>
      <trkpt lat="42.9683623" lon="-5.7335762">
        <ele>1568.37</ele>
        <time>2020-07-21T10:31:14.000Z</time>
      </trkpt>
      <trkpt lat="42.9683702" lon="-5.7335682">
        <ele>1568.37</ele>
        <time>2020-07-21T10:31:15.000Z</time>
      </trkpt>
      <trkpt lat="42.9683782" lon="-5.733559">
        <ele>1568.52</ele>
        <time>2020-07-21T10:31:16.000Z</time>
      </trkpt>
      <trkpt lat="42.968387" lon="-5.733551">
        <ele>1568.52</ele>
        <time>2020-07-21T10:31:17.000Z</time>
      </trkpt>
      <trkpt lat="42.9683958" lon="-5.733544">
        <ele>1568.52</ele>
        <time>2020-07-21T10:31:18.000Z</time>
      </trkpt>
      <trkpt lat="42.9684047" lon="-5.733539">
        <ele>1568.52</ele>
        <time>2020-07-21T10:31:19.000Z</time>
      </trkpt>
      <trkpt lat="42.9684135" lon="-5.7335347">
        <ele>1568.67</ele>
        <time>2020-07-21T10:31:20.000Z</time>
      </trkpt>
      <trkpt lat="42.968422" lon="-5.7335323">
        <ele>1568.67</ele>
        <time>2020-07-21T10:31:21.000Z</time>
      </trkpt>
      <trkpt lat="42.96843" lon="-5.7335315">
        <ele>1568.82</ele>
        <time>2020-07-21T10:31:22.000Z</time>
      </trkpt>
      <trkpt lat="42.9684367" lon="-5.733532">
        <ele>1568.82</ele>
        <time>2020-07-21T10:31:23.000Z</time>
      </trkpt>
      <trkpt lat="42.9684427" lon="-5.7335337">
        <ele>1568.82</ele>
        <time>2020-07-21T10:31:24.000Z</time>
      </trkpt>
      <trkpt lat="42.9684482" lon="-5.7335368">
        <ele>1568.82</ele>
        <time>2020-07-21T10:31:25.000Z</time>
      </trkpt>
      <trkpt lat="42.9684518" lon="-5.7335402">
        <ele>1568.98</ele>
        <time>2020-07-21T10:31:26.000Z</time>
      </trkpt>
      <trkpt lat="42.9684533" lon="-5.7335423">
        <ele>1568.98</ele>
        <time>2020-07-21T10:31:27.000Z</time>
      </trkpt>
      <trkpt lat="42.9684528" lon="-5.733543">
        <ele>1569.13</ele>
        <time>2020-07-21T10:31:28.000Z</time>
      </trkpt>
      <trkpt lat="42.9684523" lon="-5.733543">
        <ele>1569.13</ele>
        <time>2020-07-21T10:31:29.000Z</time>
      </trkpt>
      <trkpt lat="42.9684523" lon="-5.733543">
        <ele>1569.13</ele>
        <time>2020-07-21T10:31:30.000Z</time>
      </trkpt>
      <trkpt lat="42.9684527" lon="-5.7335433">
        <ele>1569.13</ele>
        <time>2020-07-21T10:31:31.000Z</time>
      </trkpt>
      <trkpt lat="42.968453" lon="-5.733544">
        <ele>1569.28</ele>
        <time>2020-07-21T10:31:32.000Z</time>
      </trkpt>
      <trkpt lat="42.9684532" lon="-5.7335447">
        <ele>1569.28</ele>
        <time>2020-07-21T10:31:33.000Z</time>
      </trkpt>
      <trkpt lat="42.9684533" lon="-5.7335453">
        <ele>1569.28</ele>
        <time>2020-07-21T10:31:34.000Z</time>
      </trkpt>
      <trkpt lat="42.9684532" lon="-5.7335458">
        <ele>1569.28</ele>
        <time>2020-07-21T10:31:35.000Z</time>
      </trkpt>
      <trkpt lat="42.968453" lon="-5.7335462">
        <ele>1569.43</ele>
        <time>2020-07-21T10:31:36.000Z</time>
      </trkpt>
      <trkpt lat="42.9684528" lon="-5.7335465">
        <ele>1569.43</ele>
        <time>2020-07-21T10:31:37.000Z</time>
      </trkpt>
      <trkpt lat="42.9684528" lon="-5.7335465">
        <ele>1569.43</ele>
        <time>2020-07-21T10:31:38.000Z</time>
      </trkpt>
      <trkpt lat="42.968453" lon="-5.7335467">
        <ele>1569.43</ele>
        <time>2020-07-21T10:31:39.000Z</time>
      </trkpt>
      <trkpt lat="42.9684532" lon="-5.7335468">
        <ele>1569.59</ele>
        <time>2020-07-21T10:31:40.000Z</time>
      </trkpt>
      <trkpt lat="42.9684532" lon="-5.7335472">
        <ele>1569.59</ele>
        <time>2020-07-21T10:31:41.000Z</time>
      </trkpt>
      <trkpt lat="42.9684532" lon="-5.7335473">
        <ele>1569.59</ele>
        <time>2020-07-21T10:31:42.000Z</time>
      </trkpt>
      <trkpt lat="42.9684533" lon="-5.7335477">
        <ele>1569.59</ele>
        <time>2020-07-21T10:31:43.000Z</time>
      </trkpt>
      <trkpt lat="42.9684538" lon="-5.733548">
        <ele>1569.74</ele>
        <time>2020-07-21T10:31:44.000Z</time>
      </trkpt>
      <trkpt lat="42.9684543" lon="-5.7335485">
        <ele>1569.74</ele>
        <time>2020-07-21T10:31:45.000Z</time>
      </trkpt>
      <trkpt lat="42.9684548" lon="-5.7335488">
        <ele>1569.89</ele>
        <time>2020-07-21T10:31:46.000Z</time>
      </trkpt>
      <trkpt lat="42.9684552" lon="-5.733549">
        <ele>1569.89</ele>
        <time>2020-07-21T10:31:47.000Z</time>
      </trkpt>
      <trkpt lat="42.9684555" lon="-5.7335492">
        <ele>1569.89</ele>
        <time>2020-07-21T10:31:48.000Z</time>
      </trkpt>
      <trkpt lat="42.9684557" lon="-5.7335493">
        <ele>1569.89</ele>
        <time>2020-07-21T10:31:49.000Z</time>
      </trkpt>
      <trkpt lat="42.968456" lon="-5.7335493">
        <ele>1570.04</ele>
        <time>2020-07-21T10:31:50.000Z</time>
      </trkpt>
      <trkpt lat="42.9684562" lon="-5.7335493">
        <ele>1570.04</ele>
        <time>2020-07-21T10:31:51.000Z</time>
      </trkpt>
      <trkpt lat="42.9684563" lon="-5.7335497">
        <ele>1570.04</ele>
        <time>2020-07-21T10:31:52.000Z</time>
      </trkpt>
      <trkpt lat="42.9684567" lon="-5.7335498">
        <ele>1570.04</ele>
        <time>2020-07-21T10:31:53.000Z</time>
      </trkpt>
      <trkpt lat="42.968457" lon="-5.7335502">
        <ele>1570.04</ele>
        <time>2020-07-21T10:31:54.000Z</time>
      </trkpt>
      <trkpt lat="42.9684575" lon="-5.7335505">
        <ele>1570.04</ele>
        <time>2020-07-21T10:31:55.000Z</time>
      </trkpt>
      <trkpt lat="42.968458" lon="-5.7335508">
        <ele>1570.04</ele>
        <time>2020-07-21T10:31:56.000Z</time>
      </trkpt>
      <trkpt lat="42.9684583" lon="-5.7335513">
        <ele>1570.04</ele>
        <time>2020-07-21T10:31:57.000Z</time>
      </trkpt>
      <trkpt lat="42.9684587" lon="-5.7335517">
        <ele>1570.2</ele>
        <time>2020-07-21T10:31:58.000Z</time>
      </trkpt>
      <trkpt lat="42.9684588" lon="-5.7335518">
        <ele>1570.2</ele>
        <time>2020-07-21T10:31:59.000Z</time>
      </trkpt>
      <trkpt lat="42.9684588" lon="-5.733552">
        <ele>1570.2</ele>
        <time>2020-07-21T10:32:00.000Z</time>
      </trkpt>
      <trkpt lat="42.9684588" lon="-5.7335522">
        <ele>1570.2</ele>
        <time>2020-07-21T10:32:01.000Z</time>
      </trkpt>
      <trkpt lat="42.9684588" lon="-5.7335523">
        <ele>1570.2</ele>
        <time>2020-07-21T10:32:02.000Z</time>
      </trkpt>
      <trkpt lat="42.968459" lon="-5.7335527">
        <ele>1570.2</ele>
        <time>2020-07-21T10:32:03.000Z</time>
      </trkpt>
      <trkpt lat="42.968459" lon="-5.7335528">
        <ele>1570.2</ele>
        <time>2020-07-21T10:32:04.000Z</time>
      </trkpt>
      <trkpt lat="42.9684592" lon="-5.733553">
        <ele>1570.2</ele>
        <time>2020-07-21T10:32:05.000Z</time>
      </trkpt>
      <trkpt lat="42.9684593" lon="-5.7335532">
        <ele>1570.2</ele>
        <time>2020-07-21T10:32:06.000Z</time>
      </trkpt>
      <trkpt lat="42.9684593" lon="-5.7335532">
        <ele>1570.2</ele>
        <time>2020-07-21T10:32:07.000Z</time>
      </trkpt>
      <trkpt lat="42.9684595" lon="-5.7335532">
        <ele>1570.2</ele>
        <time>2020-07-21T10:32:08.000Z</time>
      </trkpt>
      <trkpt lat="42.9684595" lon="-5.7335532">
        <ele>1570.2</ele>
        <time>2020-07-21T10:32:09.000Z</time>
      </trkpt>
      <trkpt lat="42.9684597" lon="-5.7335532">
        <ele>1570.2</ele>
        <time>2020-07-21T10:32:10.000Z</time>
      </trkpt>
      <trkpt lat="42.9684598" lon="-5.7335532">
        <ele>1570.2</ele>
        <time>2020-07-21T10:32:11.000Z</time>
      </trkpt>
      <trkpt lat="42.9684602" lon="-5.7335535">
        <ele>1570.2</ele>
        <time>2020-07-21T10:32:12.000Z</time>
      </trkpt>
      <trkpt lat="42.9684605" lon="-5.7335538">
        <ele>1570.2</ele>
        <time>2020-07-21T10:32:13.000Z</time>
      </trkpt>
      <trkpt lat="42.9684607" lon="-5.7335542">
        <ele>1570.2</ele>
        <time>2020-07-21T10:32:14.000Z</time>
      </trkpt>
      <trkpt lat="42.9684608" lon="-5.7335545">
        <ele>1570.2</ele>
        <time>2020-07-21T10:32:15.000Z</time>
      </trkpt>
      <trkpt lat="42.9684612" lon="-5.7335547">
        <ele>1570.2</ele>
        <time>2020-07-21T10:32:16.000Z</time>
      </trkpt>
      <trkpt lat="42.9684613" lon="-5.7335545">
        <ele>1570.2</ele>
        <time>2020-07-21T10:32:17.000Z</time>
      </trkpt>
      <trkpt lat="42.9684615" lon="-5.7335545">
        <ele>1570.2</ele>
        <time>2020-07-21T10:32:18.000Z</time>
      </trkpt>
      <trkpt lat="42.9684617" lon="-5.7335545">
        <ele>1570.2</ele>
        <time>2020-07-21T10:32:19.000Z</time>
      </trkpt>
      <trkpt lat="42.9684618" lon="-5.7335545">
        <ele>1570.2</ele>
        <time>2020-07-21T10:32:20.000Z</time>
      </trkpt>
      <trkpt lat="42.9684617" lon="-5.7335545">
        <ele>1570.2</ele>
        <time>2020-07-21T10:32:21.000Z</time>
      </trkpt>
      <trkpt lat="42.9684615" lon="-5.7335545">
        <ele>1570.2</ele>
        <time>2020-07-21T10:32:22.000Z</time>
      </trkpt>
      <trkpt lat="42.968461" lon="-5.7335543">
        <ele>1570.2</ele>
        <time>2020-07-21T10:32:23.000Z</time>
      </trkpt>
      <trkpt lat="42.9684605" lon="-5.733554">
        <ele>1570.2</ele>
        <time>2020-07-21T10:32:24.000Z</time>
      </trkpt>
      <trkpt lat="42.96846" lon="-5.7335538">
        <ele>1570.2</ele>
        <time>2020-07-21T10:32:25.000Z</time>
      </trkpt>
      <trkpt lat="42.9684588" lon="-5.7335527">
        <ele>1570.2</ele>
        <time>2020-07-21T10:32:26.000Z</time>
      </trkpt>
      <trkpt lat="42.9684575" lon="-5.7335522">
        <ele>1570.2</ele>
        <time>2020-07-21T10:32:27.000Z</time>
      </trkpt>
      <trkpt lat="42.968456" lon="-5.7335513">
        <ele>1570.2</ele>
        <time>2020-07-21T10:32:28.000Z</time>
      </trkpt>
      <trkpt lat="42.9684548" lon="-5.7335513">
        <ele>1570.2</ele>
        <time>2020-07-21T10:32:29.000Z</time>
      </trkpt>
      <trkpt lat="42.968454" lon="-5.7335517">
        <ele>1570.2</ele>
        <time>2020-07-21T10:32:30.000Z</time>
      </trkpt>
      <trkpt lat="42.9684533" lon="-5.7335522">
        <ele>1570.2</ele>
        <time>2020-07-21T10:32:31.000Z</time>
      </trkpt>
      <trkpt lat="42.9684528" lon="-5.7335528">
        <ele>1570.2</ele>
        <time>2020-07-21T10:32:32.000Z</time>
      </trkpt>
      <trkpt lat="42.9684528" lon="-5.7335525">
        <ele>1570.2</ele>
        <time>2020-07-21T10:32:33.000Z</time>
      </trkpt>
      <trkpt lat="42.968453" lon="-5.7335528">
        <ele>1570.2</ele>
        <time>2020-07-21T10:32:34.000Z</time>
      </trkpt>
      <trkpt lat="42.968453" lon="-5.7335533">
        <ele>1570.2</ele>
        <time>2020-07-21T10:32:35.000Z</time>
      </trkpt>
      <trkpt lat="42.9684522" lon="-5.7335548">
        <ele>1570.2</ele>
        <time>2020-07-21T10:32:36.000Z</time>
      </trkpt>
      <trkpt lat="42.968451" lon="-5.733556">
        <ele>1570.2</ele>
        <time>2020-07-21T10:32:37.000Z</time>
      </trkpt>
      <trkpt lat="42.9684498" lon="-5.7335568">
        <ele>1570.2</ele>
        <time>2020-07-21T10:32:38.000Z</time>
      </trkpt>
      <trkpt lat="42.9684488" lon="-5.7335575">
        <ele>1570.2</ele>
        <time>2020-07-21T10:32:39.000Z</time>
      </trkpt>
      <trkpt lat="42.9684477" lon="-5.7335577">
        <ele>1570.2</ele>
        <time>2020-07-21T10:32:40.000Z</time>
      </trkpt>
      <trkpt lat="42.9684468" lon="-5.7335577">
        <ele>1570.2</ele>
        <time>2020-07-21T10:32:41.000Z</time>
      </trkpt>
      <trkpt lat="42.968446" lon="-5.7335572">
        <ele>1570.2</ele>
        <time>2020-07-21T10:32:42.000Z</time>
      </trkpt>
      <trkpt lat="42.9684457" lon="-5.7335567">
        <ele>1570.2</ele>
        <time>2020-07-21T10:32:43.000Z</time>
      </trkpt>
      <trkpt lat="42.9684452" lon="-5.7335558">
        <ele>1570.2</ele>
        <time>2020-07-21T10:32:44.000Z</time>
      </trkpt>
      <trkpt lat="42.9684448" lon="-5.7335552">
        <ele>1570.2</ele>
        <time>2020-07-21T10:32:45.000Z</time>
      </trkpt>
      <trkpt lat="42.9684442" lon="-5.7335547">
        <ele>1570.2</ele>
        <time>2020-07-21T10:32:46.000Z</time>
      </trkpt>
      <trkpt lat="42.9684438" lon="-5.7335538">
        <ele>1570.2</ele>
        <time>2020-07-21T10:32:47.000Z</time>
      </trkpt>
      <trkpt lat="42.968444" lon="-5.733553">
        <ele>1570.2</ele>
        <time>2020-07-21T10:32:48.000Z</time>
      </trkpt>
      <trkpt lat="42.9684445" lon="-5.733552">
        <ele>1570.2</ele>
        <time>2020-07-21T10:32:49.000Z</time>
      </trkpt>
      <trkpt lat="42.9684452" lon="-5.7335513">
        <ele>1570.2</ele>
        <time>2020-07-21T10:32:50.000Z</time>
      </trkpt>
      <trkpt lat="42.9684465" lon="-5.7335498">
        <ele>1570.2</ele>
        <time>2020-07-21T10:32:51.000Z</time>
      </trkpt>
      <trkpt lat="42.968448" lon="-5.7335477">
        <ele>1570.2</ele>
        <time>2020-07-21T10:32:52.000Z</time>
      </trkpt>
      <trkpt lat="42.9684498" lon="-5.7335452">
        <ele>1570.2</ele>
        <time>2020-07-21T10:32:53.000Z</time>
      </trkpt>
      <trkpt lat="42.968451" lon="-5.7335438">
        <ele>1570.2</ele>
        <time>2020-07-21T10:32:54.000Z</time>
      </trkpt>
      <trkpt lat="42.9684518" lon="-5.7335433">
        <ele>1570.2</ele>
        <time>2020-07-21T10:32:55.000Z</time>
      </trkpt>
      <trkpt lat="42.9684522" lon="-5.7335438">
        <ele>1570.2</ele>
        <time>2020-07-21T10:32:56.000Z</time>
      </trkpt>
      <trkpt lat="42.9684522" lon="-5.7335443">
        <ele>1570.2</ele>
        <time>2020-07-21T10:32:57.000Z</time>
      </trkpt>
      <trkpt lat="42.9684518" lon="-5.7335448">
        <ele>1570.2</ele>
        <time>2020-07-21T10:32:58.000Z</time>
      </trkpt>
      <trkpt lat="42.9684513" lon="-5.733545">
        <ele>1570.2</ele>
        <time>2020-07-21T10:32:59.000Z</time>
      </trkpt>
      <trkpt lat="42.9684513" lon="-5.7335442">
        <ele>1570.2</ele>
        <time>2020-07-21T10:33:00.000Z</time>
      </trkpt>
      <trkpt lat="42.9684517" lon="-5.7335415">
        <ele>1570.2</ele>
        <time>2020-07-21T10:33:01.000Z</time>
      </trkpt>
      <trkpt lat="42.9684522" lon="-5.7335357">
        <ele>1570.2</ele>
        <time>2020-07-21T10:33:02.000Z</time>
      </trkpt>
      <trkpt lat="42.9684502" lon="-5.7335268">
        <ele>1570.2</ele>
        <time>2020-07-21T10:33:03.000Z</time>
      </trkpt>
      <trkpt lat="42.9684483" lon="-5.733518">
        <ele>1570.2</ele>
        <time>2020-07-21T10:33:04.000Z</time>
      </trkpt>
      <trkpt lat="42.968447" lon="-5.7335117">
        <ele>1570.2</ele>
        <time>2020-07-21T10:33:05.000Z</time>
      </trkpt>
      <trkpt lat="42.968448" lon="-5.7335095">
        <ele>1570.04</ele>
        <time>2020-07-21T10:33:06.000Z</time>
      </trkpt>
      <trkpt lat="42.9684485" lon="-5.733509">
        <ele>1570.04</ele>
        <time>2020-07-21T10:33:07.000Z</time>
      </trkpt>
      <trkpt lat="42.968449" lon="-5.733509">
        <ele>1570.04</ele>
        <time>2020-07-21T10:33:08.000Z</time>
      </trkpt>
      <trkpt lat="42.9684485" lon="-5.7335093">
        <ele>1570.04</ele>
        <time>2020-07-21T10:33:09.000Z</time>
      </trkpt>
      <trkpt lat="42.9684483" lon="-5.7335103">
        <ele>1570.04</ele>
        <time>2020-07-21T10:33:10.000Z</time>
      </trkpt>
      <trkpt lat="42.9684473" lon="-5.7335108">
        <ele>1570.04</ele>
        <time>2020-07-21T10:33:11.000Z</time>
      </trkpt>
      <trkpt lat="42.968447" lon="-5.7335117">
        <ele>1570.04</ele>
        <time>2020-07-21T10:33:12.000Z</time>
      </trkpt>
      <trkpt lat="42.9684467" lon="-5.7335122">
        <ele>1570.04</ele>
        <time>2020-07-21T10:33:13.000Z</time>
      </trkpt>
      <trkpt lat="42.9684472" lon="-5.7335138">
        <ele>1570.04</ele>
        <time>2020-07-21T10:33:14.000Z</time>
      </trkpt>
      <trkpt lat="42.9684475" lon="-5.7335148">
        <ele>1570.04</ele>
        <time>2020-07-21T10:33:15.000Z</time>
      </trkpt>
      <trkpt lat="42.9684472" lon="-5.7335155">
        <ele>1570.04</ele>
        <time>2020-07-21T10:33:16.000Z</time>
      </trkpt>
      <trkpt lat="42.9684465" lon="-5.7335152">
        <ele>1570.04</ele>
        <time>2020-07-21T10:33:17.000Z</time>
      </trkpt>
      <trkpt lat="42.9684457" lon="-5.7335148">
        <ele>1570.04</ele>
        <time>2020-07-21T10:33:18.000Z</time>
      </trkpt>
      <trkpt lat="42.9684462" lon="-5.7335147">
        <ele>1570.04</ele>
        <time>2020-07-21T10:33:19.000Z</time>
      </trkpt>
      <trkpt lat="42.9684472" lon="-5.7335148">
        <ele>1569.89</ele>
        <time>2020-07-21T10:33:20.000Z</time>
      </trkpt>
      <trkpt lat="42.96845" lon="-5.733514">
        <ele>1569.89</ele>
        <time>2020-07-21T10:33:21.000Z</time>
      </trkpt>
      <trkpt lat="42.9684532" lon="-5.7335115">
        <ele>1569.89</ele>
        <time>2020-07-21T10:33:22.000Z</time>
      </trkpt>
      <trkpt lat="42.9684572" lon="-5.7335047">
        <ele>1569.89</ele>
        <time>2020-07-21T10:33:23.000Z</time>
      </trkpt>
      <trkpt lat="42.968461" lon="-5.7334973">
        <ele>1569.74</ele>
        <time>2020-07-21T10:33:24.000Z</time>
      </trkpt>
      <trkpt lat="42.9684645" lon="-5.7334878">
        <ele>1569.74</ele>
        <time>2020-07-21T10:33:25.000Z</time>
      </trkpt>
      <trkpt lat="42.9684678" lon="-5.7334793">
        <ele>1569.74</ele>
        <time>2020-07-21T10:33:26.000Z</time>
      </trkpt>
      <trkpt lat="42.9684713" lon="-5.7334692">
        <ele>1569.74</ele>
        <time>2020-07-21T10:33:27.000Z</time>
      </trkpt>
      <trkpt lat="42.9684743" lon="-5.7334612">
        <ele>1569.59</ele>
        <time>2020-07-21T10:33:28.000Z</time>
      </trkpt>
      <trkpt lat="42.968476" lon="-5.733453">
        <ele>1569.59</ele>
        <time>2020-07-21T10:33:29.000Z</time>
      </trkpt>
      <trkpt lat="42.9684762" lon="-5.7334477">
        <ele>1569.43</ele>
        <time>2020-07-21T10:33:30.000Z</time>
      </trkpt>
      <trkpt lat="42.9684762" lon="-5.7334443">
        <ele>1569.43</ele>
        <time>2020-07-21T10:33:31.000Z</time>
      </trkpt>
      <trkpt lat="42.9684772" lon="-5.733444">
        <ele>1569.43</ele>
        <time>2020-07-21T10:33:32.000Z</time>
      </trkpt>
      <trkpt lat="42.9684782" lon="-5.7334443">
        <ele>1569.43</ele>
        <time>2020-07-21T10:33:33.000Z</time>
      </trkpt>
      <trkpt lat="42.9684788" lon="-5.7334445">
        <ele>1569.28</ele>
        <time>2020-07-21T10:33:34.000Z</time>
      </trkpt>
      <trkpt lat="42.9684792" lon="-5.733445">
        <ele>1569.28</ele>
        <time>2020-07-21T10:33:35.000Z</time>
      </trkpt>
      <trkpt lat="42.9684812" lon="-5.7334453">
        <ele>1569.13</ele>
        <time>2020-07-21T10:33:36.000Z</time>
      </trkpt>
      <trkpt lat="42.9684832" lon="-5.7334453">
        <ele>1569.13</ele>
        <time>2020-07-21T10:33:37.000Z</time>
      </trkpt>
      <trkpt lat="42.9684853" lon="-5.7334452">
        <ele>1568.98</ele>
        <time>2020-07-21T10:33:38.000Z</time>
      </trkpt>
      <trkpt lat="42.9684858" lon="-5.7334445">
        <ele>1568.98</ele>
        <time>2020-07-21T10:33:39.000Z</time>
      </trkpt>
      <trkpt lat="42.9684837" lon="-5.7334415">
        <ele>1568.82</ele>
        <time>2020-07-21T10:33:40.000Z</time>
      </trkpt>
      <trkpt lat="42.9684812" lon="-5.733438">
        <ele>1568.82</ele>
        <time>2020-07-21T10:33:41.000Z</time>
      </trkpt>
      <trkpt lat="42.9684787" lon="-5.7334357">
        <ele>1568.67</ele>
        <time>2020-07-21T10:33:42.000Z</time>
      </trkpt>
      <trkpt lat="42.9684788" lon="-5.7334352">
        <ele>1568.67</ele>
        <time>2020-07-21T10:33:43.000Z</time>
      </trkpt>
      <trkpt lat="42.9684822" lon="-5.7334362">
        <ele>1568.52</ele>
        <time>2020-07-21T10:33:44.000Z</time>
      </trkpt>
      <trkpt lat="42.9684877" lon="-5.7334365">
        <ele>1568.52</ele>
        <time>2020-07-21T10:33:45.000Z</time>
      </trkpt>
      <trkpt lat="42.9684958" lon="-5.7334358">
        <ele>1568.37</ele>
        <time>2020-07-21T10:33:46.000Z</time>
      </trkpt>
      <trkpt lat="42.9685033" lon="-5.7334335">
        <ele>1568.37</ele>
        <time>2020-07-21T10:33:47.000Z</time>
      </trkpt>
      <trkpt lat="42.9685083" lon="-5.7334277">
        <ele>1568.06</ele>
        <time>2020-07-21T10:33:48.000Z</time>
      </trkpt>
      <trkpt lat="42.9685108" lon="-5.733423">
        <ele>1568.06</ele>
        <time>2020-07-21T10:33:49.000Z</time>
      </trkpt>
      <trkpt lat="42.9685107" lon="-5.7334203">
        <ele>1567.91</ele>
        <time>2020-07-21T10:33:50.000Z</time>
      </trkpt>
      <trkpt lat="42.9685112" lon="-5.7334208">
        <ele>1567.91</ele>
        <time>2020-07-21T10:33:51.000Z</time>
      </trkpt>
      <trkpt lat="42.9685107" lon="-5.7334218">
        <ele>1567.6</ele>
        <time>2020-07-21T10:33:52.000Z</time>
      </trkpt>
      <trkpt lat="42.968511" lon="-5.7334215">
        <ele>1567.6</ele>
        <time>2020-07-21T10:33:53.000Z</time>
      </trkpt>
      <trkpt lat="42.9685107" lon="-5.7334232">
        <ele>1567.3</ele>
        <time>2020-07-21T10:33:54.000Z</time>
      </trkpt>
      <trkpt lat="42.9685107" lon="-5.733425">
        <ele>1567.3</ele>
        <time>2020-07-21T10:33:55.000Z</time>
      </trkpt>
      <trkpt lat="42.9685108" lon="-5.7334267">
        <ele>1567.15</ele>
        <time>2020-07-21T10:33:56.000Z</time>
      </trkpt>
      <trkpt lat="42.9685107" lon="-5.7334273">
        <ele>1567.15</ele>
        <time>2020-07-21T10:33:57.000Z</time>
      </trkpt>
      <trkpt lat="42.968511" lon="-5.7334277">
        <ele>1566.84</ele>
        <time>2020-07-21T10:33:58.000Z</time>
      </trkpt>
      <trkpt lat="42.9685112" lon="-5.733428">
        <ele>1566.84</ele>
        <time>2020-07-21T10:33:59.000Z</time>
      </trkpt>
      <trkpt lat="42.9685113" lon="-5.7334275">
        <ele>1566.54</ele>
        <time>2020-07-21T10:34:00.000Z</time>
      </trkpt>
      <trkpt lat="42.9685113" lon="-5.7334272">
        <ele>1566.54</ele>
        <time>2020-07-21T10:34:01.000Z</time>
      </trkpt>
      <trkpt lat="42.9685115" lon="-5.733426">
        <ele>1566.23</ele>
        <time>2020-07-21T10:34:02.000Z</time>
      </trkpt>
      <trkpt lat="42.9685113" lon="-5.7334252">
        <ele>1566.23</ele>
        <time>2020-07-21T10:34:03.000Z</time>
      </trkpt>
      <trkpt lat="42.9685118" lon="-5.733424">
        <ele>1565.93</ele>
        <time>2020-07-21T10:34:04.000Z</time>
      </trkpt>
      <trkpt lat="42.9685122" lon="-5.7334238">
        <ele>1565.93</ele>
        <time>2020-07-21T10:34:05.000Z</time>
      </trkpt>
      <trkpt lat="42.9685128" lon="-5.7334238">
        <ele>1565.62</ele>
        <time>2020-07-21T10:34:06.000Z</time>
      </trkpt>
      <trkpt lat="42.9685133" lon="-5.733424">
        <ele>1565.62</ele>
        <time>2020-07-21T10:34:07.000Z</time>
      </trkpt>
      <trkpt lat="42.9685143" lon="-5.7334245">
        <ele>1565.32</ele>
        <time>2020-07-21T10:34:08.000Z</time>
      </trkpt>
      <trkpt lat="42.9685153" lon="-5.733425">
        <ele>1565.32</ele>
        <time>2020-07-21T10:34:09.000Z</time>
      </trkpt>
      <trkpt lat="42.9685158" lon="-5.7334255">
        <ele>1565.02</ele>
        <time>2020-07-21T10:34:10.000Z</time>
      </trkpt>
      <trkpt lat="42.968516" lon="-5.7334255">
        <ele>1565.02</ele>
        <time>2020-07-21T10:34:11.000Z</time>
      </trkpt>
      <trkpt lat="42.968516" lon="-5.7334255">
        <ele>1564.71</ele>
        <time>2020-07-21T10:34:12.000Z</time>
      </trkpt>
      <trkpt lat="42.9685163" lon="-5.7334248">
        <ele>1564.71</ele>
        <time>2020-07-21T10:34:13.000Z</time>
      </trkpt>
      <trkpt lat="42.9685183" lon="-5.7334227">
        <ele>1564.41</ele>
        <time>2020-07-21T10:34:14.000Z</time>
      </trkpt>
      <trkpt lat="42.9685227" lon="-5.7334182">
        <ele>1564.41</ele>
        <time>2020-07-21T10:34:15.000Z</time>
      </trkpt>
      <trkpt lat="42.968529" lon="-5.733411">
        <ele>1564.1</ele>
        <time>2020-07-21T10:34:16.000Z</time>
      </trkpt>
      <trkpt lat="42.9685365" lon="-5.7334025">
        <ele>1564.1</ele>
        <time>2020-07-21T10:34:17.000Z</time>
      </trkpt>
      <trkpt lat="42.968544" lon="-5.7333933">
        <ele>1563.8</ele>
        <time>2020-07-21T10:34:18.000Z</time>
      </trkpt>
      <trkpt lat="42.9685527" lon="-5.733383">
        <ele>1563.8</ele>
        <time>2020-07-21T10:34:19.000Z</time>
      </trkpt>
      <trkpt lat="42.968562" lon="-5.7333707">
        <ele>1563.49</ele>
        <time>2020-07-21T10:34:20.000Z</time>
      </trkpt>
      <trkpt lat="42.9685735" lon="-5.7333558">
        <ele>1563.49</ele>
        <time>2020-07-21T10:34:21.000Z</time>
      </trkpt>
      <trkpt lat="42.968584" lon="-5.7333417">
        <ele>1563.03</ele>
        <time>2020-07-21T10:34:22.000Z</time>
      </trkpt>
      <trkpt lat="42.9685947" lon="-5.7333288">
        <ele>1563.03</ele>
        <time>2020-07-21T10:34:23.000Z</time>
      </trkpt>
      <trkpt lat="42.9686047" lon="-5.733317">
        <ele>1562.73</ele>
        <time>2020-07-21T10:34:24.000Z</time>
      </trkpt>
      <trkpt lat="42.9686155" lon="-5.7333078">
        <ele>1562.73</ele>
        <time>2020-07-21T10:34:25.000Z</time>
      </trkpt>
      <trkpt lat="42.9686268" lon="-5.7332997">
        <ele>1562.42</ele>
        <time>2020-07-21T10:34:26.000Z</time>
      </trkpt>
      <trkpt lat="42.9686387" lon="-5.7332937">
        <ele>1562.42</ele>
        <time>2020-07-21T10:34:27.000Z</time>
      </trkpt>
      <trkpt lat="42.9686502" lon="-5.733287">
        <ele>1561.97</ele>
        <time>2020-07-21T10:34:28.000Z</time>
      </trkpt>
      <trkpt lat="42.9686615" lon="-5.7332808">
        <ele>1561.97</ele>
        <time>2020-07-21T10:34:29.000Z</time>
      </trkpt>
      <trkpt lat="42.9686722" lon="-5.7332743">
        <ele>1561.66</ele>
        <time>2020-07-21T10:34:30.000Z</time>
      </trkpt>
      <trkpt lat="42.9686798" lon="-5.7332692">
        <ele>1561.66</ele>
        <time>2020-07-21T10:34:31.000Z</time>
      </trkpt>
      <trkpt lat="42.9686862" lon="-5.7332627">
        <ele>1561.36</ele>
        <time>2020-07-21T10:34:32.000Z</time>
      </trkpt>
      <trkpt lat="42.9686913" lon="-5.7332575">
        <ele>1561.36</ele>
        <time>2020-07-21T10:34:33.000Z</time>
      </trkpt>
      <trkpt lat="42.968699" lon="-5.7332508">
        <ele>1561.05</ele>
        <time>2020-07-21T10:34:34.000Z</time>
      </trkpt>
      <trkpt lat="42.968707" lon="-5.7332455">
        <ele>1561.05</ele>
        <time>2020-07-21T10:34:35.000Z</time>
      </trkpt>
      <trkpt lat="42.9687157" lon="-5.733239">
        <ele>1560.75</ele>
        <time>2020-07-21T10:34:36.000Z</time>
      </trkpt>
      <trkpt lat="42.9687257" lon="-5.7332303">
        <ele>1560.75</ele>
        <time>2020-07-21T10:34:37.000Z</time>
      </trkpt>
      <trkpt lat="42.9687377" lon="-5.7332185">
        <ele>1560.44</ele>
        <time>2020-07-21T10:34:38.000Z</time>
      </trkpt>
      <trkpt lat="42.968749" lon="-5.7332043">
        <ele>1560.44</ele>
        <time>2020-07-21T10:34:39.000Z</time>
      </trkpt>
      <trkpt lat="42.9687598" lon="-5.7331883">
        <ele>1560.14</ele>
        <time>2020-07-21T10:34:40.000Z</time>
      </trkpt>
      <trkpt lat="42.9687653" lon="-5.7331688">
        <ele>1560.14</ele>
        <time>2020-07-21T10:34:41.000Z</time>
      </trkpt>
      <trkpt lat="42.9687695" lon="-5.7331495">
        <ele>1559.83</ele>
        <time>2020-07-21T10:34:42.000Z</time>
      </trkpt>
      <trkpt lat="42.9687735" lon="-5.7331312">
        <ele>1559.83</ele>
        <time>2020-07-21T10:34:43.000Z</time>
      </trkpt>
      <trkpt lat="42.9687817" lon="-5.7331187">
        <ele>1559.53</ele>
        <time>2020-07-21T10:34:44.000Z</time>
      </trkpt>
      <trkpt lat="42.9687927" lon="-5.7331058">
        <ele>1559.53</ele>
        <time>2020-07-21T10:34:45.000Z</time>
      </trkpt>
      <trkpt lat="42.9688042" lon="-5.733095">
        <ele>1559.22</ele>
        <time>2020-07-21T10:34:46.000Z</time>
      </trkpt>
      <trkpt lat="42.9688153" lon="-5.7330833">
        <ele>1559.22</ele>
        <time>2020-07-21T10:34:47.000Z</time>
      </trkpt>
      <trkpt lat="42.9688265" lon="-5.7330712">
        <ele>1558.92</ele>
        <time>2020-07-21T10:34:48.000Z</time>
      </trkpt>
      <trkpt lat="42.968838" lon="-5.7330582">
        <ele>1558.92</ele>
        <time>2020-07-21T10:34:49.000Z</time>
      </trkpt>
      <trkpt lat="42.9688505" lon="-5.7330438">
        <ele>1558.61</ele>
        <time>2020-07-21T10:34:50.000Z</time>
      </trkpt>
      <trkpt lat="42.9688628" lon="-5.7330308">
        <ele>1558.61</ele>
        <time>2020-07-21T10:34:51.000Z</time>
      </trkpt>
      <trkpt lat="42.9688752" lon="-5.7330183">
        <ele>1558.31</ele>
        <time>2020-07-21T10:34:52.000Z</time>
      </trkpt>
      <trkpt lat="42.9688872" lon="-5.7330073">
        <ele>1558.31</ele>
        <time>2020-07-21T10:34:53.000Z</time>
      </trkpt>
      <trkpt lat="42.9688985" lon="-5.732997">
        <ele>1558</ele>
        <time>2020-07-21T10:34:54.000Z</time>
      </trkpt>
      <trkpt lat="42.9689108" lon="-5.7329855">
        <ele>1558</ele>
        <time>2020-07-21T10:34:55.000Z</time>
      </trkpt>
      <trkpt lat="42.968923" lon="-5.7329732">
        <ele>1557.7</ele>
        <time>2020-07-21T10:34:56.000Z</time>
      </trkpt>
      <trkpt lat="42.9689363" lon="-5.7329608">
        <ele>1557.7</ele>
        <time>2020-07-21T10:34:57.000Z</time>
      </trkpt>
      <trkpt lat="42.9689493" lon="-5.7329505">
        <ele>1557.4</ele>
        <time>2020-07-21T10:34:58.000Z</time>
      </trkpt>
      <trkpt lat="42.9689628" lon="-5.7329405">
        <ele>1557.4</ele>
        <time>2020-07-21T10:34:59.000Z</time>
      </trkpt>
      <trkpt lat="42.9689752" lon="-5.732931">
        <ele>1557.24</ele>
        <time>2020-07-21T10:35:00.000Z</time>
      </trkpt>
      <trkpt lat="42.968988" lon="-5.7329238">
        <ele>1557.24</ele>
        <time>2020-07-21T10:35:01.000Z</time>
      </trkpt>
      <trkpt lat="42.9690012" lon="-5.7329237">
        <ele>1557.09</ele>
        <time>2020-07-21T10:35:02.000Z</time>
      </trkpt>
      <trkpt lat="42.9690143" lon="-5.732928">
        <ele>1557.09</ele>
        <time>2020-07-21T10:35:03.000Z</time>
      </trkpt>
      <trkpt lat="42.969027" lon="-5.7329357">
        <ele>1556.79</ele>
        <time>2020-07-21T10:35:04.000Z</time>
      </trkpt>
      <trkpt lat="42.9690427" lon="-5.7329423">
        <ele>1556.79</ele>
        <time>2020-07-21T10:35:05.000Z</time>
      </trkpt>
      <trkpt lat="42.9690607" lon="-5.7329483">
        <ele>1556.63</ele>
        <time>2020-07-21T10:35:06.000Z</time>
      </trkpt>
      <trkpt lat="42.9690795" lon="-5.7329528">
        <ele>1556.63</ele>
        <time>2020-07-21T10:35:07.000Z</time>
      </trkpt>
      <trkpt lat="42.9690953" lon="-5.7329558">
        <ele>1556.33</ele>
        <time>2020-07-21T10:35:08.000Z</time>
      </trkpt>
      <trkpt lat="42.9691112" lon="-5.7329603">
        <ele>1556.33</ele>
        <time>2020-07-21T10:35:09.000Z</time>
      </trkpt>
      <trkpt lat="42.9691248" lon="-5.732968">
        <ele>1556.18</ele>
        <time>2020-07-21T10:35:10.000Z</time>
      </trkpt>
      <trkpt lat="42.9691367" lon="-5.732976">
        <ele>1556.18</ele>
        <time>2020-07-21T10:35:11.000Z</time>
      </trkpt>
      <trkpt lat="42.9691407" lon="-5.7329802">
        <ele>1555.87</ele>
        <time>2020-07-21T10:35:12.000Z</time>
      </trkpt>
      <trkpt lat="42.9691392" lon="-5.7329837">
        <ele>1555.87</ele>
        <time>2020-07-21T10:35:13.000Z</time>
      </trkpt>
      <trkpt lat="42.9691375" lon="-5.7329885">
        <ele>1555.72</ele>
        <time>2020-07-21T10:35:14.000Z</time>
      </trkpt>
      <trkpt lat="42.9691417" lon="-5.7329987">
        <ele>1555.72</ele>
        <time>2020-07-21T10:35:15.000Z</time>
      </trkpt>
      <trkpt lat="42.9691527" lon="-5.7330085">
        <ele>1555.57</ele>
        <time>2020-07-21T10:35:16.000Z</time>
      </trkpt>
      <trkpt lat="42.9691638" lon="-5.7330168">
        <ele>1555.57</ele>
        <time>2020-07-21T10:35:17.000Z</time>
      </trkpt>
      <trkpt lat="42.9691745" lon="-5.7330242">
        <ele>1555.26</ele>
        <time>2020-07-21T10:35:18.000Z</time>
      </trkpt>
      <trkpt lat="42.9691847" lon="-5.7330318">
        <ele>1555.26</ele>
        <time>2020-07-21T10:35:19.000Z</time>
      </trkpt>
      <trkpt lat="42.969198" lon="-5.7330417">
        <ele>1555.11</ele>
        <time>2020-07-21T10:35:20.000Z</time>
      </trkpt>
      <trkpt lat="42.9692127" lon="-5.7330528">
        <ele>1555.11</ele>
        <time>2020-07-21T10:35:21.000Z</time>
      </trkpt>
      <trkpt lat="42.9692233" lon="-5.7330637">
        <ele>1554.96</ele>
        <time>2020-07-21T10:35:22.000Z</time>
      </trkpt>
      <trkpt lat="42.9692307" lon="-5.7330758">
        <ele>1554.96</ele>
        <time>2020-07-21T10:35:23.000Z</time>
      </trkpt>
      <trkpt lat="42.969238" lon="-5.7330883">
        <ele>1554.8</ele>
        <time>2020-07-21T10:35:24.000Z</time>
      </trkpt>
      <trkpt lat="42.9692498" lon="-5.7331017">
        <ele>1554.8</ele>
        <time>2020-07-21T10:35:25.000Z</time>
      </trkpt>
      <trkpt lat="42.969263" lon="-5.7331115">
        <ele>1554.5</ele>
        <time>2020-07-21T10:35:26.000Z</time>
      </trkpt>
      <trkpt lat="42.9692765" lon="-5.7331185">
        <ele>1554.5</ele>
        <time>2020-07-21T10:35:27.000Z</time>
      </trkpt>
      <trkpt lat="42.9692883" lon="-5.7331253">
        <ele>1554.35</ele>
        <time>2020-07-21T10:35:28.000Z</time>
      </trkpt>
      <trkpt lat="42.9693008" lon="-5.7331333">
        <ele>1554.35</ele>
        <time>2020-07-21T10:35:29.000Z</time>
      </trkpt>
      <trkpt lat="42.969312" lon="-5.733143">
        <ele>1554.04</ele>
        <time>2020-07-21T10:35:30.000Z</time>
      </trkpt>
      <trkpt lat="42.9693237" lon="-5.733151">
        <ele>1554.04</ele>
        <time>2020-07-21T10:35:31.000Z</time>
      </trkpt>
      <trkpt lat="42.9693338" lon="-5.7331582">
        <ele>1553.89</ele>
        <time>2020-07-21T10:35:32.000Z</time>
      </trkpt>
      <trkpt lat="42.9693447" lon="-5.7331668">
        <ele>1553.89</ele>
        <time>2020-07-21T10:35:33.000Z</time>
      </trkpt>
      <trkpt lat="42.9693568" lon="-5.7331753">
        <ele>1553.58</ele>
        <time>2020-07-21T10:35:34.000Z</time>
      </trkpt>
      <trkpt lat="42.9693713" lon="-5.733183">
        <ele>1553.58</ele>
        <time>2020-07-21T10:35:35.000Z</time>
      </trkpt>
      <trkpt lat="42.9693832" lon="-5.7331927">
        <ele>1553.43</ele>
        <time>2020-07-21T10:35:36.000Z</time>
      </trkpt>
      <trkpt lat="42.9693943" lon="-5.7332042">
        <ele>1553.43</ele>
        <time>2020-07-21T10:35:37.000Z</time>
      </trkpt>
      <trkpt lat="42.9694022" lon="-5.7332177">
        <ele>1553.13</ele>
        <time>2020-07-21T10:35:38.000Z</time>
      </trkpt>
      <trkpt lat="42.9694117" lon="-5.733227">
        <ele>1553.13</ele>
        <time>2020-07-21T10:35:39.000Z</time>
      </trkpt>
      <trkpt lat="42.9694205" lon="-5.733238">
        <ele>1552.97</ele>
        <time>2020-07-21T10:35:40.000Z</time>
      </trkpt>
      <trkpt lat="42.9694317" lon="-5.7332495">
        <ele>1552.97</ele>
        <time>2020-07-21T10:35:41.000Z</time>
      </trkpt>
      <trkpt lat="42.9694433" lon="-5.7332628">
        <ele>1552.67</ele>
        <time>2020-07-21T10:35:42.000Z</time>
      </trkpt>
      <trkpt lat="42.969455" lon="-5.7332757">
        <ele>1552.67</ele>
        <time>2020-07-21T10:35:43.000Z</time>
      </trkpt>
      <trkpt lat="42.9694633" lon="-5.733289">
        <ele>1552.36</ele>
        <time>2020-07-21T10:35:44.000Z</time>
      </trkpt>
      <trkpt lat="42.9694733" lon="-5.7333003">
        <ele>1552.36</ele>
        <time>2020-07-21T10:35:45.000Z</time>
      </trkpt>
      <trkpt lat="42.9694857" lon="-5.7333058">
        <ele>1552.06</ele>
        <time>2020-07-21T10:35:46.000Z</time>
      </trkpt>
      <trkpt lat="42.9694982" lon="-5.733309">
        <ele>1552.06</ele>
        <time>2020-07-21T10:35:47.000Z</time>
      </trkpt>
      <trkpt lat="42.9695087" lon="-5.7333092">
        <ele>1551.91</ele>
        <time>2020-07-21T10:35:48.000Z</time>
      </trkpt>
      <trkpt lat="42.9695137" lon="-5.73331">
        <ele>1551.91</ele>
        <time>2020-07-21T10:35:49.000Z</time>
      </trkpt>
      <trkpt lat="42.9695167" lon="-5.7333082">
        <ele>1551.6</ele>
        <time>2020-07-21T10:35:50.000Z</time>
      </trkpt>
      <trkpt lat="42.9695177" lon="-5.7333062">
        <ele>1551.6</ele>
        <time>2020-07-21T10:35:51.000Z</time>
      </trkpt>
      <trkpt lat="42.9695193" lon="-5.7333038">
        <ele>1551.3</ele>
        <time>2020-07-21T10:35:52.000Z</time>
      </trkpt>
      <trkpt lat="42.9695205" lon="-5.7333018">
        <ele>1551.3</ele>
        <time>2020-07-21T10:35:53.000Z</time>
      </trkpt>
      <trkpt lat="42.9695208" lon="-5.7333002">
        <ele>1550.99</ele>
        <time>2020-07-21T10:35:54.000Z</time>
      </trkpt>
      <trkpt lat="42.9695207" lon="-5.7332993">
        <ele>1550.99</ele>
        <time>2020-07-21T10:35:55.000Z</time>
      </trkpt>
      <trkpt lat="42.9695208" lon="-5.7333003">
        <ele>1550.84</ele>
        <time>2020-07-21T10:35:56.000Z</time>
      </trkpt>
      <trkpt lat="42.9695212" lon="-5.7333028">
        <ele>1550.84</ele>
        <time>2020-07-21T10:35:57.000Z</time>
      </trkpt>
      <trkpt lat="42.9695217" lon="-5.7333058">
        <ele>1550.54</ele>
        <time>2020-07-21T10:35:58.000Z</time>
      </trkpt>
      <trkpt lat="42.9695237" lon="-5.7333073">
        <ele>1550.54</ele>
        <time>2020-07-21T10:35:59.000Z</time>
      </trkpt>
      <trkpt lat="42.9695305" lon="-5.7333083">
        <ele>1550.23</ele>
        <time>2020-07-21T10:36:00.000Z</time>
      </trkpt>
      <trkpt lat="42.9695412" lon="-5.7333097">
        <ele>1550.23</ele>
        <time>2020-07-21T10:36:01.000Z</time>
      </trkpt>
      <trkpt lat="42.969556" lon="-5.7333122">
        <ele>1550.08</ele>
        <time>2020-07-21T10:36:02.000Z</time>
      </trkpt>
      <trkpt lat="42.9695702" lon="-5.7333153">
        <ele>1550.08</ele>
        <time>2020-07-21T10:36:03.000Z</time>
      </trkpt>
      <trkpt lat="42.9695845" lon="-5.7333195">
        <ele>1549.77</ele>
        <time>2020-07-21T10:36:04.000Z</time>
      </trkpt>
      <trkpt lat="42.9695973" lon="-5.7333233">
        <ele>1549.77</ele>
        <time>2020-07-21T10:36:05.000Z</time>
      </trkpt>
      <trkpt lat="42.9696088" lon="-5.733328">
        <ele>1549.47</ele>
        <time>2020-07-21T10:36:06.000Z</time>
      </trkpt>
      <trkpt lat="42.9696207" lon="-5.733332">
        <ele>1549.47</ele>
        <time>2020-07-21T10:36:07.000Z</time>
      </trkpt>
      <trkpt lat="42.9696322" lon="-5.7333357">
        <ele>1549.17</ele>
        <time>2020-07-21T10:36:08.000Z</time>
      </trkpt>
      <trkpt lat="42.9696447" lon="-5.7333415">
        <ele>1549.17</ele>
        <time>2020-07-21T10:36:09.000Z</time>
      </trkpt>
      <trkpt lat="42.9696565" lon="-5.7333495">
        <ele>1549.01</ele>
        <time>2020-07-21T10:36:10.000Z</time>
      </trkpt>
      <trkpt lat="42.9696675" lon="-5.733359">
        <ele>1549.01</ele>
        <time>2020-07-21T10:36:11.000Z</time>
      </trkpt>
      <trkpt lat="42.9696782" lon="-5.7333673">
        <ele>1548.71</ele>
        <time>2020-07-21T10:36:12.000Z</time>
      </trkpt>
      <trkpt lat="42.9696878" lon="-5.7333747">
        <ele>1548.71</ele>
        <time>2020-07-21T10:36:13.000Z</time>
      </trkpt>
      <trkpt lat="42.9696997" lon="-5.7333832">
        <ele>1548.4</ele>
        <time>2020-07-21T10:36:14.000Z</time>
      </trkpt>
      <trkpt lat="42.9697122" lon="-5.7333883">
        <ele>1548.4</ele>
        <time>2020-07-21T10:36:15.000Z</time>
      </trkpt>
      <trkpt lat="42.9697262" lon="-5.733391">
        <ele>1548.1</ele>
        <time>2020-07-21T10:36:16.000Z</time>
      </trkpt>
      <trkpt lat="42.9697377" lon="-5.7333917">
        <ele>1548.1</ele>
        <time>2020-07-21T10:36:17.000Z</time>
      </trkpt>
      <trkpt lat="42.9697478" lon="-5.7333945">
        <ele>1547.79</ele>
        <time>2020-07-21T10:36:18.000Z</time>
      </trkpt>
      <trkpt lat="42.969759" lon="-5.7333985">
        <ele>1547.79</ele>
        <time>2020-07-21T10:36:19.000Z</time>
      </trkpt>
      <trkpt lat="42.9697715" lon="-5.7334015">
        <ele>1547.49</ele>
        <time>2020-07-21T10:36:20.000Z</time>
      </trkpt>
      <trkpt lat="42.9697855" lon="-5.733404">
        <ele>1547.49</ele>
        <time>2020-07-21T10:36:21.000Z</time>
      </trkpt>
      <trkpt lat="42.9697997" lon="-5.7334077">
        <ele>1547.18</ele>
        <time>2020-07-21T10:36:22.000Z</time>
      </trkpt>
      <trkpt lat="42.9698147" lon="-5.7334115">
        <ele>1547.18</ele>
        <time>2020-07-21T10:36:23.000Z</time>
      </trkpt>
      <trkpt lat="42.96983" lon="-5.7334155">
        <ele>1546.88</ele>
        <time>2020-07-21T10:36:24.000Z</time>
      </trkpt>
      <trkpt lat="42.969845" lon="-5.733418">
        <ele>1546.88</ele>
        <time>2020-07-21T10:36:25.000Z</time>
      </trkpt>
      <trkpt lat="42.9698575" lon="-5.733421">
        <ele>1546.42</ele>
        <time>2020-07-21T10:36:26.000Z</time>
      </trkpt>
      <trkpt lat="42.9698683" lon="-5.7334245">
        <ele>1546.42</ele>
        <time>2020-07-21T10:36:27.000Z</time>
      </trkpt>
      <trkpt lat="42.969878" lon="-5.733428">
        <ele>1546.12</ele>
        <time>2020-07-21T10:36:28.000Z</time>
      </trkpt>
      <trkpt lat="42.9698873" lon="-5.7334337">
        <ele>1546.12</ele>
        <time>2020-07-21T10:36:29.000Z</time>
      </trkpt>
      <trkpt lat="42.9698972" lon="-5.733444">
        <ele>1545.81</ele>
        <time>2020-07-21T10:36:30.000Z</time>
      </trkpt>
      <trkpt lat="42.9699072" lon="-5.7334573">
        <ele>1545.81</ele>
        <time>2020-07-21T10:36:31.000Z</time>
      </trkpt>
      <trkpt lat="42.9699177" lon="-5.733472">
        <ele>1545.35</ele>
        <time>2020-07-21T10:36:32.000Z</time>
      </trkpt>
      <trkpt lat="42.9699272" lon="-5.733487">
        <ele>1545.35</ele>
        <time>2020-07-21T10:36:33.000Z</time>
      </trkpt>
      <trkpt lat="42.9699337" lon="-5.733503">
        <ele>1545.05</ele>
        <time>2020-07-21T10:36:34.000Z</time>
      </trkpt>
      <trkpt lat="42.9699387" lon="-5.7335202">
        <ele>1545.05</ele>
        <time>2020-07-21T10:36:35.000Z</time>
      </trkpt>
      <trkpt lat="42.9699432" lon="-5.7335372">
        <ele>1544.74</ele>
        <time>2020-07-21T10:36:36.000Z</time>
      </trkpt>
      <trkpt lat="42.9699488" lon="-5.7335542">
        <ele>1544.74</ele>
        <time>2020-07-21T10:36:37.000Z</time>
      </trkpt>
      <trkpt lat="42.9699555" lon="-5.7335718">
        <ele>1544.29</ele>
        <time>2020-07-21T10:36:38.000Z</time>
      </trkpt>
      <trkpt lat="42.9699607" lon="-5.7335887">
        <ele>1544.29</ele>
        <time>2020-07-21T10:36:39.000Z</time>
      </trkpt>
      <trkpt lat="42.9699655" lon="-5.7336068">
        <ele>1543.98</ele>
        <time>2020-07-21T10:36:40.000Z</time>
      </trkpt>
      <trkpt lat="42.9699695" lon="-5.7336263">
        <ele>1543.98</ele>
        <time>2020-07-21T10:36:41.000Z</time>
      </trkpt>
      <trkpt lat="42.9699727" lon="-5.7336457">
        <ele>1543.53</ele>
        <time>2020-07-21T10:36:42.000Z</time>
      </trkpt>
      <trkpt lat="42.9699728" lon="-5.7336625">
        <ele>1543.53</ele>
        <time>2020-07-21T10:36:43.000Z</time>
      </trkpt>
      <trkpt lat="42.9699708" lon="-5.733677">
        <ele>1543.22</ele>
        <time>2020-07-21T10:36:44.000Z</time>
      </trkpt>
      <trkpt lat="42.9699692" lon="-5.7336953">
        <ele>1543.22</ele>
        <time>2020-07-21T10:36:45.000Z</time>
      </trkpt>
      <trkpt lat="42.9699705" lon="-5.7337167">
        <ele>1542.92</ele>
        <time>2020-07-21T10:36:46.000Z</time>
      </trkpt>
      <trkpt lat="42.9699737" lon="-5.7337398">
        <ele>1542.92</ele>
        <time>2020-07-21T10:36:47.000Z</time>
      </trkpt>
      <trkpt lat="42.9699762" lon="-5.7337605">
        <ele>1542.61</ele>
        <time>2020-07-21T10:36:48.000Z</time>
      </trkpt>
      <trkpt lat="42.9699765" lon="-5.733778">
        <ele>1542.61</ele>
        <time>2020-07-21T10:36:49.000Z</time>
      </trkpt>
      <trkpt lat="42.9699743" lon="-5.7337947">
        <ele>1542.31</ele>
        <time>2020-07-21T10:36:50.000Z</time>
      </trkpt>
      <trkpt lat="42.969972" lon="-5.733812">
        <ele>1542.31</ele>
        <time>2020-07-21T10:36:51.000Z</time>
      </trkpt>
      <trkpt lat="42.9699702" lon="-5.7338333">
        <ele>1542</ele>
        <time>2020-07-21T10:36:52.000Z</time>
      </trkpt>
      <trkpt lat="42.9699698" lon="-5.7338542">
        <ele>1542</ele>
        <time>2020-07-21T10:36:53.000Z</time>
      </trkpt>
      <trkpt lat="42.9699702" lon="-5.7338727">
        <ele>1541.7</ele>
        <time>2020-07-21T10:36:54.000Z</time>
      </trkpt>
      <trkpt lat="42.969971" lon="-5.7338887">
        <ele>1541.7</ele>
        <time>2020-07-21T10:36:55.000Z</time>
      </trkpt>
      <trkpt lat="42.9699713" lon="-5.7339075">
        <ele>1541.39</ele>
        <time>2020-07-21T10:36:56.000Z</time>
      </trkpt>
      <trkpt lat="42.9699723" lon="-5.733929">
        <ele>1541.39</ele>
        <time>2020-07-21T10:36:57.000Z</time>
      </trkpt>
      <trkpt lat="42.9699748" lon="-5.7339537">
        <ele>1541.09</ele>
        <time>2020-07-21T10:36:58.000Z</time>
      </trkpt>
      <trkpt lat="42.9699762" lon="-5.733977">
        <ele>1541.09</ele>
        <time>2020-07-21T10:36:59.000Z</time>
      </trkpt>
      <trkpt lat="42.9699778" lon="-5.7340005">
        <ele>1540.78</ele>
        <time>2020-07-21T10:37:00.000Z</time>
      </trkpt>
      <trkpt lat="42.9699775" lon="-5.734022">
        <ele>1540.78</ele>
        <time>2020-07-21T10:37:01.000Z</time>
      </trkpt>
      <trkpt lat="42.9699785" lon="-5.7340405">
        <ele>1540.48</ele>
        <time>2020-07-21T10:37:02.000Z</time>
      </trkpt>
      <trkpt lat="42.9699787" lon="-5.7340558">
        <ele>1540.48</ele>
        <time>2020-07-21T10:37:03.000Z</time>
      </trkpt>
      <trkpt lat="42.9699787" lon="-5.7340712">
        <ele>1540.17</ele>
        <time>2020-07-21T10:37:04.000Z</time>
      </trkpt>
      <trkpt lat="42.9699767" lon="-5.7340857">
        <ele>1540.17</ele>
        <time>2020-07-21T10:37:05.000Z</time>
      </trkpt>
      <trkpt lat="42.9699733" lon="-5.734101">
        <ele>1539.87</ele>
        <time>2020-07-21T10:37:06.000Z</time>
      </trkpt>
      <trkpt lat="42.9699705" lon="-5.7341165">
        <ele>1539.87</ele>
        <time>2020-07-21T10:37:07.000Z</time>
      </trkpt>
      <trkpt lat="42.9699695" lon="-5.7341352">
        <ele>1539.56</ele>
        <time>2020-07-21T10:37:08.000Z</time>
      </trkpt>
      <trkpt lat="42.9699708" lon="-5.7341532">
        <ele>1539.56</ele>
        <time>2020-07-21T10:37:09.000Z</time>
      </trkpt>
      <trkpt lat="42.9699722" lon="-5.7341695">
        <ele>1539.26</ele>
        <time>2020-07-21T10:37:10.000Z</time>
      </trkpt>
      <trkpt lat="42.9699723" lon="-5.7341845">
        <ele>1539.26</ele>
        <time>2020-07-21T10:37:11.000Z</time>
      </trkpt>
      <trkpt lat="42.969973" lon="-5.734201">
        <ele>1538.95</ele>
        <time>2020-07-21T10:37:12.000Z</time>
      </trkpt>
      <trkpt lat="42.9699757" lon="-5.7342182">
        <ele>1538.95</ele>
        <time>2020-07-21T10:37:13.000Z</time>
      </trkpt>
      <trkpt lat="42.9699803" lon="-5.7342373">
        <ele>1538.5</ele>
        <time>2020-07-21T10:37:14.000Z</time>
      </trkpt>
      <trkpt lat="42.9699855" lon="-5.7342565">
        <ele>1538.5</ele>
        <time>2020-07-21T10:37:15.000Z</time>
      </trkpt>
      <trkpt lat="42.9699877" lon="-5.7342753">
        <ele>1538.19</ele>
        <time>2020-07-21T10:37:16.000Z</time>
      </trkpt>
      <trkpt lat="42.9699885" lon="-5.734294">
        <ele>1538.19</ele>
        <time>2020-07-21T10:37:17.000Z</time>
      </trkpt>
      <trkpt lat="42.9699878" lon="-5.7343125">
        <ele>1537.89</ele>
        <time>2020-07-21T10:37:18.000Z</time>
      </trkpt>
      <trkpt lat="42.9699887" lon="-5.7343327">
        <ele>1537.89</ele>
        <time>2020-07-21T10:37:19.000Z</time>
      </trkpt>
      <trkpt lat="42.9699898" lon="-5.7343513">
        <ele>1537.43</ele>
        <time>2020-07-21T10:37:20.000Z</time>
      </trkpt>
      <trkpt lat="42.9699913" lon="-5.7343698">
        <ele>1537.43</ele>
        <time>2020-07-21T10:37:21.000Z</time>
      </trkpt>
      <trkpt lat="42.9699922" lon="-5.7343865">
        <ele>1537.12</ele>
        <time>2020-07-21T10:37:22.000Z</time>
      </trkpt>
      <trkpt lat="42.9699928" lon="-5.7344028">
        <ele>1537.12</ele>
        <time>2020-07-21T10:37:23.000Z</time>
      </trkpt>
      <trkpt lat="42.9699935" lon="-5.7344203">
        <ele>1536.82</ele>
        <time>2020-07-21T10:37:24.000Z</time>
      </trkpt>
      <trkpt lat="42.9699955" lon="-5.7344392">
        <ele>1536.82</ele>
        <time>2020-07-21T10:37:25.000Z</time>
      </trkpt>
      <trkpt lat="42.9699985" lon="-5.7344608">
        <ele>1536.36</ele>
        <time>2020-07-21T10:37:26.000Z</time>
      </trkpt>
      <trkpt lat="42.970002" lon="-5.7344818">
        <ele>1536.36</ele>
        <time>2020-07-21T10:37:27.000Z</time>
      </trkpt>
      <trkpt lat="42.9700043" lon="-5.7345023">
        <ele>1536.06</ele>
        <time>2020-07-21T10:37:28.000Z</time>
      </trkpt>
      <trkpt lat="42.9700062" lon="-5.7345205">
        <ele>1536.06</ele>
        <time>2020-07-21T10:37:29.000Z</time>
      </trkpt>
      <trkpt lat="42.9700065" lon="-5.7345397">
        <ele>1535.6</ele>
        <time>2020-07-21T10:37:30.000Z</time>
      </trkpt>
      <trkpt lat="42.9700063" lon="-5.7345607">
        <ele>1535.6</ele>
        <time>2020-07-21T10:37:31.000Z</time>
      </trkpt>
      <trkpt lat="42.9700053" lon="-5.734583">
        <ele>1535.3</ele>
        <time>2020-07-21T10:37:32.000Z</time>
      </trkpt>
      <trkpt lat="42.970004" lon="-5.7346043">
        <ele>1535.3</ele>
        <time>2020-07-21T10:37:33.000Z</time>
      </trkpt>
      <trkpt lat="42.9700033" lon="-5.7346252">
        <ele>1534.84</ele>
        <time>2020-07-21T10:37:34.000Z</time>
      </trkpt>
      <trkpt lat="42.9700035" lon="-5.7346497">
        <ele>1534.84</ele>
        <time>2020-07-21T10:37:35.000Z</time>
      </trkpt>
      <trkpt lat="42.9700045" lon="-5.734674">
        <ele>1534.38</ele>
        <time>2020-07-21T10:37:36.000Z</time>
      </trkpt>
      <trkpt lat="42.9700048" lon="-5.7346965">
        <ele>1534.38</ele>
        <time>2020-07-21T10:37:37.000Z</time>
      </trkpt>
      <trkpt lat="42.970005" lon="-5.7347137">
        <ele>1534.08</ele>
        <time>2020-07-21T10:37:38.000Z</time>
      </trkpt>
      <trkpt lat="42.9700053" lon="-5.7347298">
        <ele>1534.08</ele>
        <time>2020-07-21T10:37:39.000Z</time>
      </trkpt>
      <trkpt lat="42.9700038" lon="-5.734748">
        <ele>1533.62</ele>
        <time>2020-07-21T10:37:40.000Z</time>
      </trkpt>
      <trkpt lat="42.970002" lon="-5.734767">
        <ele>1533.62</ele>
        <time>2020-07-21T10:37:41.000Z</time>
      </trkpt>
      <trkpt lat="42.9699993" lon="-5.734789">
        <ele>1533.31</ele>
        <time>2020-07-21T10:37:42.000Z</time>
      </trkpt>
      <trkpt lat="42.9699998" lon="-5.7348122">
        <ele>1533.31</ele>
        <time>2020-07-21T10:37:43.000Z</time>
      </trkpt>
      <trkpt lat="42.9700003" lon="-5.7348357">
        <ele>1532.86</ele>
        <time>2020-07-21T10:37:44.000Z</time>
      </trkpt>
      <trkpt lat="42.970001" lon="-5.734858">
        <ele>1532.86</ele>
        <time>2020-07-21T10:37:45.000Z</time>
      </trkpt>
      <trkpt lat="42.969999" lon="-5.7348775">
        <ele>1532.4</ele>
        <time>2020-07-21T10:37:46.000Z</time>
      </trkpt>
      <trkpt lat="42.9699977" lon="-5.7348952">
        <ele>1532.4</ele>
        <time>2020-07-21T10:37:47.000Z</time>
      </trkpt>
      <trkpt lat="42.9699958" lon="-5.7349115">
        <ele>1531.94</ele>
        <time>2020-07-21T10:37:48.000Z</time>
      </trkpt>
      <trkpt lat="42.969995" lon="-5.7349305">
        <ele>1531.94</ele>
        <time>2020-07-21T10:37:49.000Z</time>
      </trkpt>
      <trkpt lat="42.9699948" lon="-5.7349525">
        <ele>1531.64</ele>
        <time>2020-07-21T10:37:50.000Z</time>
      </trkpt>
      <trkpt lat="42.969995" lon="-5.7349758">
        <ele>1531.64</ele>
        <time>2020-07-21T10:37:51.000Z</time>
      </trkpt>
      <trkpt lat="42.969997" lon="-5.7349982">
        <ele>1531.18</ele>
        <time>2020-07-21T10:37:52.000Z</time>
      </trkpt>
      <trkpt lat="42.9699985" lon="-5.7350178">
        <ele>1531.18</ele>
        <time>2020-07-21T10:37:53.000Z</time>
      </trkpt>
      <trkpt lat="42.970002" lon="-5.7350287">
        <ele>1530.88</ele>
        <time>2020-07-21T10:37:54.000Z</time>
      </trkpt>
      <trkpt lat="42.9700018" lon="-5.7350353">
        <ele>1530.88</ele>
        <time>2020-07-21T10:37:55.000Z</time>
      </trkpt>
      <trkpt lat="42.9700033" lon="-5.7350372">
        <ele>1530.42</ele>
        <time>2020-07-21T10:37:56.000Z</time>
      </trkpt>
      <trkpt lat="42.9700052" lon="-5.7350427">
        <ele>1530.42</ele>
        <time>2020-07-21T10:37:57.000Z</time>
      </trkpt>
      <trkpt lat="42.9700112" lon="-5.7350493">
        <ele>1529.96</ele>
        <time>2020-07-21T10:37:58.000Z</time>
      </trkpt>
      <trkpt lat="42.970017" lon="-5.7350598">
        <ele>1529.96</ele>
        <time>2020-07-21T10:37:59.000Z</time>
      </trkpt>
      <trkpt lat="42.9700212" lon="-5.7350723">
        <ele>1529.66</ele>
        <time>2020-07-21T10:38:00.000Z</time>
      </trkpt>
      <trkpt lat="42.9700245" lon="-5.735088">
        <ele>1529.66</ele>
        <time>2020-07-21T10:38:01.000Z</time>
      </trkpt>
      <trkpt lat="42.9700292" lon="-5.735108">
        <ele>1529.2</ele>
        <time>2020-07-21T10:38:02.000Z</time>
      </trkpt>
      <trkpt lat="42.970035" lon="-5.7351282">
        <ele>1529.2</ele>
        <time>2020-07-21T10:38:03.000Z</time>
      </trkpt>
      <trkpt lat="42.9700412" lon="-5.735148">
        <ele>1528.9</ele>
        <time>2020-07-21T10:38:04.000Z</time>
      </trkpt>
      <trkpt lat="42.9700452" lon="-5.735164">
        <ele>1528.9</ele>
        <time>2020-07-21T10:38:05.000Z</time>
      </trkpt>
      <trkpt lat="42.9700487" lon="-5.7351802">
        <ele>1528.44</ele>
        <time>2020-07-21T10:38:06.000Z</time>
      </trkpt>
      <trkpt lat="42.9700532" lon="-5.7351953">
        <ele>1528.44</ele>
        <time>2020-07-21T10:38:07.000Z</time>
      </trkpt>
      <trkpt lat="42.9700587" lon="-5.7352107">
        <ele>1528.13</ele>
        <time>2020-07-21T10:38:08.000Z</time>
      </trkpt>
      <trkpt lat="42.9700633" lon="-5.7352272">
        <ele>1528.13</ele>
        <time>2020-07-21T10:38:09.000Z</time>
      </trkpt>
      <trkpt lat="42.970066" lon="-5.7352423">
        <ele>1527.68</ele>
        <time>2020-07-21T10:38:10.000Z</time>
      </trkpt>
      <trkpt lat="42.9700677" lon="-5.7352613">
        <ele>1527.68</ele>
        <time>2020-07-21T10:38:11.000Z</time>
      </trkpt>
      <trkpt lat="42.9700688" lon="-5.7352818">
        <ele>1527.37</ele>
        <time>2020-07-21T10:38:12.000Z</time>
      </trkpt>
      <trkpt lat="42.9700683" lon="-5.7353052">
        <ele>1527.37</ele>
        <time>2020-07-21T10:38:13.000Z</time>
      </trkpt>
      <trkpt lat="42.9700672" lon="-5.735326">
        <ele>1527.07</ele>
        <time>2020-07-21T10:38:14.000Z</time>
      </trkpt>
      <trkpt lat="42.970066" lon="-5.7353437">
        <ele>1527.07</ele>
        <time>2020-07-21T10:38:15.000Z</time>
      </trkpt>
      <trkpt lat="42.9700663" lon="-5.7353587">
        <ele>1526.76</ele>
        <time>2020-07-21T10:38:16.000Z</time>
      </trkpt>
      <trkpt lat="42.97007" lon="-5.7353722">
        <ele>1526.76</ele>
        <time>2020-07-21T10:38:17.000Z</time>
      </trkpt>
      <trkpt lat="42.9700763" lon="-5.7353823">
        <ele>1526.46</ele>
        <time>2020-07-21T10:38:18.000Z</time>
      </trkpt>
      <trkpt lat="42.9700835" lon="-5.735391">
        <ele>1526.46</ele>
        <time>2020-07-21T10:38:19.000Z</time>
      </trkpt>
      <trkpt lat="42.9700887" lon="-5.7353993">
        <ele>1526.15</ele>
        <time>2020-07-21T10:38:20.000Z</time>
      </trkpt>
      <trkpt lat="42.9700913" lon="-5.7354115">
        <ele>1526.15</ele>
        <time>2020-07-21T10:38:21.000Z</time>
      </trkpt>
      <trkpt lat="42.9700948" lon="-5.7354257">
        <ele>1525.85</ele>
        <time>2020-07-21T10:38:22.000Z</time>
      </trkpt>
      <trkpt lat="42.9700978" lon="-5.7354412">
        <ele>1525.85</ele>
        <time>2020-07-21T10:38:23.000Z</time>
      </trkpt>
      <trkpt lat="42.9701018" lon="-5.735458">
        <ele>1525.54</ele>
        <time>2020-07-21T10:38:24.000Z</time>
      </trkpt>
      <trkpt lat="42.970104" lon="-5.7354778">
        <ele>1525.54</ele>
        <time>2020-07-21T10:38:25.000Z</time>
      </trkpt>
      <trkpt lat="42.9701053" lon="-5.7354998">
        <ele>1525.24</ele>
        <time>2020-07-21T10:38:26.000Z</time>
      </trkpt>
      <trkpt lat="42.9701063" lon="-5.7355232">
        <ele>1525.24</ele>
        <time>2020-07-21T10:38:27.000Z</time>
      </trkpt>
      <trkpt lat="42.9701078" lon="-5.7355468">
        <ele>1525.08</ele>
        <time>2020-07-21T10:38:28.000Z</time>
      </trkpt>
      <trkpt lat="42.9701105" lon="-5.73557">
        <ele>1525.08</ele>
        <time>2020-07-21T10:38:29.000Z</time>
      </trkpt>
      <trkpt lat="42.9701127" lon="-5.7355923">
        <ele>1524.78</ele>
        <time>2020-07-21T10:38:30.000Z</time>
      </trkpt>
      <trkpt lat="42.970113" lon="-5.7356127">
        <ele>1524.78</ele>
        <time>2020-07-21T10:38:31.000Z</time>
      </trkpt>
      <trkpt lat="42.970113" lon="-5.7356318">
        <ele>1524.48</ele>
        <time>2020-07-21T10:38:32.000Z</time>
      </trkpt>
      <trkpt lat="42.9701142" lon="-5.7356512">
        <ele>1524.48</ele>
        <time>2020-07-21T10:38:33.000Z</time>
      </trkpt>
      <trkpt lat="42.970117" lon="-5.7356708">
        <ele>1524.32</ele>
        <time>2020-07-21T10:38:34.000Z</time>
      </trkpt>
      <trkpt lat="42.9701208" lon="-5.7356892">
        <ele>1524.32</ele>
        <time>2020-07-21T10:38:35.000Z</time>
      </trkpt>
      <trkpt lat="42.9701227" lon="-5.7357062">
        <ele>1524.02</ele>
        <time>2020-07-21T10:38:36.000Z</time>
      </trkpt>
      <trkpt lat="42.9701248" lon="-5.7357222">
        <ele>1524.02</ele>
        <time>2020-07-21T10:38:37.000Z</time>
      </trkpt>
      <trkpt lat="42.9701263" lon="-5.7357388">
        <ele>1523.71</ele>
        <time>2020-07-21T10:38:38.000Z</time>
      </trkpt>
      <trkpt lat="42.9701283" lon="-5.735756">
        <ele>1523.71</ele>
        <time>2020-07-21T10:38:39.000Z</time>
      </trkpt>
      <trkpt lat="42.9701278" lon="-5.7357733">
        <ele>1523.56</ele>
        <time>2020-07-21T10:38:40.000Z</time>
      </trkpt>
      <trkpt lat="42.9701263" lon="-5.735791">
        <ele>1523.56</ele>
        <time>2020-07-21T10:38:41.000Z</time>
      </trkpt>
      <trkpt lat="42.9701253" lon="-5.7358098">
        <ele>1523.26</ele>
        <time>2020-07-21T10:38:42.000Z</time>
      </trkpt>
      <trkpt lat="42.9701252" lon="-5.7358278">
        <ele>1523.26</ele>
        <time>2020-07-21T10:38:43.000Z</time>
      </trkpt>
      <trkpt lat="42.9701255" lon="-5.7358467">
        <ele>1523.1</ele>
        <time>2020-07-21T10:38:44.000Z</time>
      </trkpt>
      <trkpt lat="42.9701258" lon="-5.7358677">
        <ele>1523.1</ele>
        <time>2020-07-21T10:38:45.000Z</time>
      </trkpt>
      <trkpt lat="42.9701272" lon="-5.7358895">
        <ele>1522.8</ele>
        <time>2020-07-21T10:38:46.000Z</time>
      </trkpt>
      <trkpt lat="42.9701298" lon="-5.7359112">
        <ele>1522.8</ele>
        <time>2020-07-21T10:38:47.000Z</time>
      </trkpt>
      <trkpt lat="42.9701328" lon="-5.735933">
        <ele>1522.49</ele>
        <time>2020-07-21T10:38:48.000Z</time>
      </trkpt>
      <trkpt lat="42.9701348" lon="-5.7359552">
        <ele>1522.49</ele>
        <time>2020-07-21T10:38:49.000Z</time>
      </trkpt>
      <trkpt lat="42.9701353" lon="-5.735977">
        <ele>1522.19</ele>
        <time>2020-07-21T10:38:50.000Z</time>
      </trkpt>
      <trkpt lat="42.9701355" lon="-5.735995">
        <ele>1522.19</ele>
        <time>2020-07-21T10:38:51.000Z</time>
      </trkpt>
      <trkpt lat="42.970138" lon="-5.7360082">
        <ele>1522.04</ele>
        <time>2020-07-21T10:38:52.000Z</time>
      </trkpt>
      <trkpt lat="42.9701418" lon="-5.7360155">
        <ele>1522.04</ele>
        <time>2020-07-21T10:38:53.000Z</time>
      </trkpt>
      <trkpt lat="42.9701457" lon="-5.736018">
        <ele>1521.73</ele>
        <time>2020-07-21T10:38:54.000Z</time>
      </trkpt>
      <trkpt lat="42.9701465" lon="-5.7360197">
        <ele>1521.73</ele>
        <time>2020-07-21T10:38:55.000Z</time>
      </trkpt>
      <trkpt lat="42.970146" lon="-5.7360243">
        <ele>1521.43</ele>
        <time>2020-07-21T10:38:56.000Z</time>
      </trkpt>
      <trkpt lat="42.9701447" lon="-5.7360312">
        <ele>1521.43</ele>
        <time>2020-07-21T10:38:57.000Z</time>
      </trkpt>
      <trkpt lat="42.9701442" lon="-5.7360433">
        <ele>1521.12</ele>
        <time>2020-07-21T10:38:58.000Z</time>
      </trkpt>
      <trkpt lat="42.9701437" lon="-5.7360583">
        <ele>1521.12</ele>
        <time>2020-07-21T10:38:59.000Z</time>
      </trkpt>
      <trkpt lat="42.9701437" lon="-5.7360793">
        <ele>1520.82</ele>
        <time>2020-07-21T10:39:00.000Z</time>
      </trkpt>
      <trkpt lat="42.9701413" lon="-5.7361015">
        <ele>1520.82</ele>
        <time>2020-07-21T10:39:01.000Z</time>
      </trkpt>
      <trkpt lat="42.970138" lon="-5.7361213">
        <ele>1520.51</ele>
        <time>2020-07-21T10:39:02.000Z</time>
      </trkpt>
      <trkpt lat="42.9701345" lon="-5.7361393">
        <ele>1520.51</ele>
        <time>2020-07-21T10:39:03.000Z</time>
      </trkpt>
      <trkpt lat="42.9701342" lon="-5.7361572">
        <ele>1520.36</ele>
        <time>2020-07-21T10:39:04.000Z</time>
      </trkpt>
      <trkpt lat="42.9701355" lon="-5.7361775">
        <ele>1520.36</ele>
        <time>2020-07-21T10:39:05.000Z</time>
      </trkpt>
      <trkpt lat="42.9701408" lon="-5.7361978">
        <ele>1520.06</ele>
        <time>2020-07-21T10:39:06.000Z</time>
      </trkpt>
      <trkpt lat="42.9701467" lon="-5.736218">
        <ele>1520.06</ele>
        <time>2020-07-21T10:39:07.000Z</time>
      </trkpt>
      <trkpt lat="42.970153" lon="-5.7362388">
        <ele>1519.75</ele>
        <time>2020-07-21T10:39:08.000Z</time>
      </trkpt>
      <trkpt lat="42.9701562" lon="-5.7362592">
        <ele>1519.75</ele>
        <time>2020-07-21T10:39:09.000Z</time>
      </trkpt>
      <trkpt lat="42.970159" lon="-5.7362793">
        <ele>1519.45</ele>
        <time>2020-07-21T10:39:10.000Z</time>
      </trkpt>
      <trkpt lat="42.9701587" lon="-5.7362958">
        <ele>1519.45</ele>
        <time>2020-07-21T10:39:11.000Z</time>
      </trkpt>
      <trkpt lat="42.970159" lon="-5.7363138">
        <ele>1519.14</ele>
        <time>2020-07-21T10:39:12.000Z</time>
      </trkpt>
      <trkpt lat="42.9701595" lon="-5.7363313">
        <ele>1519.14</ele>
        <time>2020-07-21T10:39:13.000Z</time>
      </trkpt>
      <trkpt lat="42.9701622" lon="-5.7363517">
        <ele>1518.84</ele>
        <time>2020-07-21T10:39:14.000Z</time>
      </trkpt>
      <trkpt lat="42.9701618" lon="-5.7363712">
        <ele>1518.84</ele>
        <time>2020-07-21T10:39:15.000Z</time>
      </trkpt>
      <trkpt lat="42.9701613" lon="-5.736392">
        <ele>1518.53</ele>
        <time>2020-07-21T10:39:16.000Z</time>
      </trkpt>
      <trkpt lat="42.9701613" lon="-5.736413">
        <ele>1518.53</ele>
        <time>2020-07-21T10:39:17.000Z</time>
      </trkpt>
      <trkpt lat="42.9701635" lon="-5.736432">
        <ele>1518.07</ele>
        <time>2020-07-21T10:39:18.000Z</time>
      </trkpt>
      <trkpt lat="42.9701655" lon="-5.7364478">
        <ele>1518.07</ele>
        <time>2020-07-21T10:39:19.000Z</time>
      </trkpt>
      <trkpt lat="42.9701693" lon="-5.7364633">
        <ele>1517.77</ele>
        <time>2020-07-21T10:39:20.000Z</time>
      </trkpt>
      <trkpt lat="42.9701738" lon="-5.7364807">
        <ele>1517.77</ele>
        <time>2020-07-21T10:39:21.000Z</time>
      </trkpt>
      <trkpt lat="42.970179" lon="-5.7365008">
        <ele>1517.31</ele>
        <time>2020-07-21T10:39:22.000Z</time>
      </trkpt>
      <trkpt lat="42.9701835" lon="-5.7365213">
        <ele>1517.31</ele>
        <time>2020-07-21T10:39:23.000Z</time>
      </trkpt>
      <trkpt lat="42.9701868" lon="-5.7365408">
        <ele>1517.01</ele>
        <time>2020-07-21T10:39:24.000Z</time>
      </trkpt>
      <trkpt lat="42.9701903" lon="-5.7365588">
        <ele>1517.01</ele>
        <time>2020-07-21T10:39:25.000Z</time>
      </trkpt>
      <trkpt lat="42.9701938" lon="-5.7365753">
        <ele>1516.55</ele>
        <time>2020-07-21T10:39:26.000Z</time>
      </trkpt>
      <trkpt lat="42.9701988" lon="-5.7365907">
        <ele>1516.55</ele>
        <time>2020-07-21T10:39:27.000Z</time>
      </trkpt>
      <trkpt lat="42.9702043" lon="-5.736605">
        <ele>1516.25</ele>
        <time>2020-07-21T10:39:28.000Z</time>
      </trkpt>
      <trkpt lat="42.9702103" lon="-5.7366185">
        <ele>1516.25</ele>
        <time>2020-07-21T10:39:29.000Z</time>
      </trkpt>
      <trkpt lat="42.9702167" lon="-5.7366322">
        <ele>1515.79</ele>
        <time>2020-07-21T10:39:30.000Z</time>
      </trkpt>
      <trkpt lat="42.9702233" lon="-5.7366462">
        <ele>1515.79</ele>
        <time>2020-07-21T10:39:31.000Z</time>
      </trkpt>
      <trkpt lat="42.9702322" lon="-5.7366603">
        <ele>1515.33</ele>
        <time>2020-07-21T10:39:32.000Z</time>
      </trkpt>
      <trkpt lat="42.9702427" lon="-5.7366747">
        <ele>1515.33</ele>
        <time>2020-07-21T10:39:33.000Z</time>
      </trkpt>
      <trkpt lat="42.9702525" lon="-5.7366878">
        <ele>1514.87</ele>
        <time>2020-07-21T10:39:34.000Z</time>
      </trkpt>
      <trkpt lat="42.9702617" lon="-5.7367015">
        <ele>1514.87</ele>
        <time>2020-07-21T10:39:35.000Z</time>
      </trkpt>
      <trkpt lat="42.9702705" lon="-5.7367157">
        <ele>1514.57</ele>
        <time>2020-07-21T10:39:36.000Z</time>
      </trkpt>
      <trkpt lat="42.9702803" lon="-5.7367308">
        <ele>1514.57</ele>
        <time>2020-07-21T10:39:37.000Z</time>
      </trkpt>
      <trkpt lat="42.9702917" lon="-5.7367462">
        <ele>1514.11</ele>
        <time>2020-07-21T10:39:38.000Z</time>
      </trkpt>
      <trkpt lat="42.9703032" lon="-5.7367627">
        <ele>1514.11</ele>
        <time>2020-07-21T10:39:39.000Z</time>
      </trkpt>
      <trkpt lat="42.9703157" lon="-5.7367783">
        <ele>1513.81</ele>
        <time>2020-07-21T10:39:40.000Z</time>
      </trkpt>
      <trkpt lat="42.9703263" lon="-5.7367907">
        <ele>1513.81</ele>
        <time>2020-07-21T10:39:41.000Z</time>
      </trkpt>
      <trkpt lat="42.9703372" lon="-5.7368008">
        <ele>1513.35</ele>
        <time>2020-07-21T10:39:42.000Z</time>
      </trkpt>
      <trkpt lat="42.9703495" lon="-5.7368085">
        <ele>1513.35</ele>
        <time>2020-07-21T10:39:43.000Z</time>
      </trkpt>
      <trkpt lat="42.9703622" lon="-5.7368157">
        <ele>1513.05</ele>
        <time>2020-07-21T10:39:44.000Z</time>
      </trkpt>
      <trkpt lat="42.970375" lon="-5.7368195">
        <ele>1513.05</ele>
        <time>2020-07-21T10:39:45.000Z</time>
      </trkpt>
      <trkpt lat="42.970386" lon="-5.7368222">
        <ele>1512.59</ele>
        <time>2020-07-21T10:39:46.000Z</time>
      </trkpt>
      <trkpt lat="42.9703967" lon="-5.7368213">
        <ele>1512.59</ele>
        <time>2020-07-21T10:39:47.000Z</time>
      </trkpt>
      <trkpt lat="42.9704037" lon="-5.7368208">
        <ele>1512.28</ele>
        <time>2020-07-21T10:39:48.000Z</time>
      </trkpt>
      <trkpt lat="42.970408" lon="-5.7368198">
        <ele>1512.28</ele>
        <time>2020-07-21T10:39:49.000Z</time>
      </trkpt>
      <trkpt lat="42.970411" lon="-5.73682">
        <ele>1511.98</ele>
        <time>2020-07-21T10:39:50.000Z</time>
      </trkpt>
      <trkpt lat="42.9704162" lon="-5.7368178">
        <ele>1511.98</ele>
        <time>2020-07-21T10:39:51.000Z</time>
      </trkpt>
      <trkpt lat="42.9704227" lon="-5.7368122">
        <ele>1511.67</ele>
        <time>2020-07-21T10:39:52.000Z</time>
      </trkpt>
      <trkpt lat="42.9704275" lon="-5.736808">
        <ele>1511.67</ele>
        <time>2020-07-21T10:39:53.000Z</time>
      </trkpt>
      <trkpt lat="42.97043" lon="-5.736807">
        <ele>1511.22</ele>
        <time>2020-07-21T10:39:54.000Z</time>
      </trkpt>
      <trkpt lat="42.9704312" lon="-5.7368088">
        <ele>1511.22</ele>
        <time>2020-07-21T10:39:55.000Z</time>
      </trkpt>
      <trkpt lat="42.9704343" lon="-5.7368093">
        <ele>1510.91</ele>
        <time>2020-07-21T10:39:56.000Z</time>
      </trkpt>
      <trkpt lat="42.9704407" lon="-5.7368067">
        <ele>1510.91</ele>
        <time>2020-07-21T10:39:57.000Z</time>
      </trkpt>
      <trkpt lat="42.9704498" lon="-5.7368">
        <ele>1510.61</ele>
        <time>2020-07-21T10:39:58.000Z</time>
      </trkpt>
      <trkpt lat="42.9704548" lon="-5.7367935">
        <ele>1510.61</ele>
        <time>2020-07-21T10:39:59.000Z</time>
      </trkpt>
      <trkpt lat="42.9704565" lon="-5.7367887">
        <ele>1510.15</ele>
        <time>2020-07-21T10:40:00.000Z</time>
      </trkpt>
      <trkpt lat="42.9704547" lon="-5.7367868">
        <ele>1510.15</ele>
        <time>2020-07-21T10:40:01.000Z</time>
      </trkpt>
      <trkpt lat="42.9704578" lon="-5.7367815">
        <ele>1509.84</ele>
        <time>2020-07-21T10:40:02.000Z</time>
      </trkpt>
      <trkpt lat="42.9704652" lon="-5.736773">
        <ele>1509.84</ele>
        <time>2020-07-21T10:40:03.000Z</time>
      </trkpt>
      <trkpt lat="42.9704758" lon="-5.7367638">
        <ele>1509.39</ele>
        <time>2020-07-21T10:40:04.000Z</time>
      </trkpt>
      <trkpt lat="42.970487" lon="-5.7367535">
        <ele>1509.39</ele>
        <time>2020-07-21T10:40:05.000Z</time>
      </trkpt>
      <trkpt lat="42.9704972" lon="-5.7367435">
        <ele>1509.08</ele>
        <time>2020-07-21T10:40:06.000Z</time>
      </trkpt>
      <trkpt lat="42.9705062" lon="-5.7367315">
        <ele>1509.08</ele>
        <time>2020-07-21T10:40:07.000Z</time>
      </trkpt>
      <trkpt lat="42.9705155" lon="-5.7367193">
        <ele>1508.63</ele>
        <time>2020-07-21T10:40:08.000Z</time>
      </trkpt>
      <trkpt lat="42.9705248" lon="-5.736704">
        <ele>1508.63</ele>
        <time>2020-07-21T10:40:09.000Z</time>
      </trkpt>
      <trkpt lat="42.9705352" lon="-5.7366868">
        <ele>1508.17</ele>
        <time>2020-07-21T10:40:10.000Z</time>
      </trkpt>
      <trkpt lat="42.9705452" lon="-5.7366712">
        <ele>1508.17</ele>
        <time>2020-07-21T10:40:11.000Z</time>
      </trkpt>
      <trkpt lat="42.970556" lon="-5.7366568">
        <ele>1507.86</ele>
        <time>2020-07-21T10:40:12.000Z</time>
      </trkpt>
      <trkpt lat="42.9705662" lon="-5.7366447">
        <ele>1507.86</ele>
        <time>2020-07-21T10:40:13.000Z</time>
      </trkpt>
      <trkpt lat="42.9705752" lon="-5.7366315">
        <ele>1507.41</ele>
        <time>2020-07-21T10:40:14.000Z</time>
      </trkpt>
      <trkpt lat="42.9705835" lon="-5.7366187">
        <ele>1507.41</ele>
        <time>2020-07-21T10:40:15.000Z</time>
      </trkpt>
      <trkpt lat="42.9705912" lon="-5.7366042">
        <ele>1506.95</ele>
        <time>2020-07-21T10:40:16.000Z</time>
      </trkpt>
      <trkpt lat="42.9705963" lon="-5.7365885">
        <ele>1506.95</ele>
        <time>2020-07-21T10:40:17.000Z</time>
      </trkpt>
      <trkpt lat="42.9706008" lon="-5.7365727">
        <ele>1506.49</ele>
        <time>2020-07-21T10:40:18.000Z</time>
      </trkpt>
      <trkpt lat="42.9706052" lon="-5.736557">
        <ele>1506.49</ele>
        <time>2020-07-21T10:40:19.000Z</time>
      </trkpt>
      <trkpt lat="42.9706135" lon="-5.736544">
        <ele>1506.19</ele>
        <time>2020-07-21T10:40:20.000Z</time>
      </trkpt>
      <trkpt lat="42.9706223" lon="-5.73653">
        <ele>1506.19</ele>
        <time>2020-07-21T10:40:21.000Z</time>
      </trkpt>
      <trkpt lat="42.9706308" lon="-5.7365168">
        <ele>1505.73</ele>
        <time>2020-07-21T10:40:22.000Z</time>
      </trkpt>
      <trkpt lat="42.970637" lon="-5.7365042">
        <ele>1505.73</ele>
        <time>2020-07-21T10:40:23.000Z</time>
      </trkpt>
      <trkpt lat="42.9706413" lon="-5.7364938">
        <ele>1505.27</ele>
        <time>2020-07-21T10:40:24.000Z</time>
      </trkpt>
      <trkpt lat="42.9706418" lon="-5.7364867">
        <ele>1505.27</ele>
        <time>2020-07-21T10:40:25.000Z</time>
      </trkpt>
      <trkpt lat="42.9706362" lon="-5.736481">
        <ele>1504.82</ele>
        <time>2020-07-21T10:40:26.000Z</time>
      </trkpt>
      <trkpt lat="42.9706302" lon="-5.736478">
        <ele>1504.82</ele>
        <time>2020-07-21T10:40:27.000Z</time>
      </trkpt>
      <trkpt lat="42.9706265" lon="-5.7364762">
        <ele>1504.51</ele>
        <time>2020-07-21T10:40:28.000Z</time>
      </trkpt>
      <trkpt lat="42.9706287" lon="-5.7364758">
        <ele>1504.51</ele>
        <time>2020-07-21T10:40:29.000Z</time>
      </trkpt>
      <trkpt lat="42.9706298" lon="-5.7364758">
        <ele>1504.05</ele>
        <time>2020-07-21T10:40:30.000Z</time>
      </trkpt>
      <trkpt lat="42.9706312" lon="-5.7364752">
        <ele>1504.05</ele>
        <time>2020-07-21T10:40:31.000Z</time>
      </trkpt>
      <trkpt lat="42.9706327" lon="-5.7364742">
        <ele>1503.6</ele>
        <time>2020-07-21T10:40:32.000Z</time>
      </trkpt>
      <trkpt lat="42.9706357" lon="-5.7364717">
        <ele>1503.6</ele>
        <time>2020-07-21T10:40:33.000Z</time>
      </trkpt>
      <trkpt lat="42.9706408" lon="-5.7364657">
        <ele>1503.29</ele>
        <time>2020-07-21T10:40:34.000Z</time>
      </trkpt>
      <trkpt lat="42.9706467" lon="-5.7364542">
        <ele>1503.29</ele>
        <time>2020-07-21T10:40:35.000Z</time>
      </trkpt>
      <trkpt lat="42.9706503" lon="-5.7364418">
        <ele>1502.83</ele>
        <time>2020-07-21T10:40:36.000Z</time>
      </trkpt>
      <trkpt lat="42.9706512" lon="-5.736432">
        <ele>1502.83</ele>
        <time>2020-07-21T10:40:37.000Z</time>
      </trkpt>
      <trkpt lat="42.9706498" lon="-5.7364272">
        <ele>1502.53</ele>
        <time>2020-07-21T10:40:38.000Z</time>
      </trkpt>
      <trkpt lat="42.9706488" lon="-5.7364243">
        <ele>1502.53</ele>
        <time>2020-07-21T10:40:39.000Z</time>
      </trkpt>
      <trkpt lat="42.9706482" lon="-5.7364228">
        <ele>1502.07</ele>
        <time>2020-07-21T10:40:40.000Z</time>
      </trkpt>
      <trkpt lat="42.9706478" lon="-5.7364218">
        <ele>1502.07</ele>
        <time>2020-07-21T10:40:41.000Z</time>
      </trkpt>
      <trkpt lat="42.9706498" lon="-5.7364218">
        <ele>1501.77</ele>
        <time>2020-07-21T10:40:42.000Z</time>
      </trkpt>
      <trkpt lat="42.9706518" lon="-5.7364223">
        <ele>1501.77</ele>
        <time>2020-07-21T10:40:43.000Z</time>
      </trkpt>
      <trkpt lat="42.9706542" lon="-5.7364232">
        <ele>1501.31</ele>
        <time>2020-07-21T10:40:44.000Z</time>
      </trkpt>
      <trkpt lat="42.9706558" lon="-5.7364263">
        <ele>1501.31</ele>
        <time>2020-07-21T10:40:45.000Z</time>
      </trkpt>
      <trkpt lat="42.9706577" lon="-5.7364267">
        <ele>1501.01</ele>
        <time>2020-07-21T10:40:46.000Z</time>
      </trkpt>
      <trkpt lat="42.9706603" lon="-5.7364233">
        <ele>1501.01</ele>
        <time>2020-07-21T10:40:47.000Z</time>
      </trkpt>
      <trkpt lat="42.970663" lon="-5.7364123">
        <ele>1500.55</ele>
        <time>2020-07-21T10:40:48.000Z</time>
      </trkpt>
      <trkpt lat="42.9706672" lon="-5.7364008">
        <ele>1500.55</ele>
        <time>2020-07-21T10:40:49.000Z</time>
      </trkpt>
      <trkpt lat="42.970673" lon="-5.7363893">
        <ele>1500.24</ele>
        <time>2020-07-21T10:40:50.000Z</time>
      </trkpt>
      <trkpt lat="42.9706785" lon="-5.736379">
        <ele>1500.24</ele>
        <time>2020-07-21T10:40:51.000Z</time>
      </trkpt>
      <trkpt lat="42.9706848" lon="-5.7363667">
        <ele>1499.79</ele>
        <time>2020-07-21T10:40:52.000Z</time>
      </trkpt>
      <trkpt lat="42.9706885" lon="-5.7363525">
        <ele>1499.79</ele>
        <time>2020-07-21T10:40:53.000Z</time>
      </trkpt>
      <trkpt lat="42.9706925" lon="-5.7363393">
        <ele>1499.33</ele>
        <time>2020-07-21T10:40:54.000Z</time>
      </trkpt>
      <trkpt lat="42.9706947" lon="-5.7363277">
        <ele>1499.33</ele>
        <time>2020-07-21T10:40:55.000Z</time>
      </trkpt>
      <trkpt lat="42.9706975" lon="-5.7363197">
        <ele>1499.03</ele>
        <time>2020-07-21T10:40:56.000Z</time>
      </trkpt>
      <trkpt lat="42.9707012" lon="-5.73631">
        <ele>1499.03</ele>
        <time>2020-07-21T10:40:57.000Z</time>
      </trkpt>
      <trkpt lat="42.9707055" lon="-5.7362978">
        <ele>1498.57</ele>
        <time>2020-07-21T10:40:58.000Z</time>
      </trkpt>
      <trkpt lat="42.9707093" lon="-5.7362823">
        <ele>1498.57</ele>
        <time>2020-07-21T10:40:59.000Z</time>
      </trkpt>
      <trkpt lat="42.9707125" lon="-5.736267">
        <ele>1498.26</ele>
        <time>2020-07-21T10:41:00.000Z</time>
      </trkpt>
      <trkpt lat="42.9707152" lon="-5.7362538">
        <ele>1498.26</ele>
        <time>2020-07-21T10:41:01.000Z</time>
      </trkpt>
      <trkpt lat="42.9707178" lon="-5.7362427">
        <ele>1497.96</ele>
        <time>2020-07-21T10:41:02.000Z</time>
      </trkpt>
      <trkpt lat="42.9707208" lon="-5.7362307">
        <ele>1497.96</ele>
        <time>2020-07-21T10:41:03.000Z</time>
      </trkpt>
      <trkpt lat="42.9707243" lon="-5.7362175">
        <ele>1497.65</ele>
        <time>2020-07-21T10:41:04.000Z</time>
      </trkpt>
      <trkpt lat="42.9707293" lon="-5.7362028">
        <ele>1497.65</ele>
        <time>2020-07-21T10:41:05.000Z</time>
      </trkpt>
      <trkpt lat="42.9707348" lon="-5.7361903">
        <ele>1497.35</ele>
        <time>2020-07-21T10:41:06.000Z</time>
      </trkpt>
      <trkpt lat="42.9707398" lon="-5.7361813">
        <ele>1497.35</ele>
        <time>2020-07-21T10:41:07.000Z</time>
      </trkpt>
      <trkpt lat="42.9707445" lon="-5.736174">
        <ele>1496.89</ele>
        <time>2020-07-21T10:41:08.000Z</time>
      </trkpt>
      <trkpt lat="42.9707465" lon="-5.7361653">
        <ele>1496.89</ele>
        <time>2020-07-21T10:41:09.000Z</time>
      </trkpt>
      <trkpt lat="42.9707463" lon="-5.7361552">
        <ele>1496.59</ele>
        <time>2020-07-21T10:41:10.000Z</time>
      </trkpt>
      <trkpt lat="42.9707405" lon="-5.7361453">
        <ele>1496.59</ele>
        <time>2020-07-21T10:41:11.000Z</time>
      </trkpt>
      <trkpt lat="42.970732" lon="-5.7361378">
        <ele>1496.43</ele>
        <time>2020-07-21T10:41:12.000Z</time>
      </trkpt>
      <trkpt lat="42.9707243" lon="-5.7361338">
        <ele>1496.43</ele>
        <time>2020-07-21T10:41:13.000Z</time>
      </trkpt>
      <trkpt lat="42.9707195" lon="-5.736132">
        <ele>1496.13</ele>
        <time>2020-07-21T10:41:14.000Z</time>
      </trkpt>
      <trkpt lat="42.9707168" lon="-5.7361323">
        <ele>1496.13</ele>
        <time>2020-07-21T10:41:15.000Z</time>
      </trkpt>
      <trkpt lat="42.9707145" lon="-5.7361325">
        <ele>1495.82</ele>
        <time>2020-07-21T10:41:16.000Z</time>
      </trkpt>
      <trkpt lat="42.9707132" lon="-5.7361335">
        <ele>1495.82</ele>
        <time>2020-07-21T10:41:17.000Z</time>
      </trkpt>
      <trkpt lat="42.9707127" lon="-5.7361348">
        <ele>1495.52</ele>
        <time>2020-07-21T10:41:18.000Z</time>
      </trkpt>
      <trkpt lat="42.9707123" lon="-5.736136">
        <ele>1495.52</ele>
        <time>2020-07-21T10:41:19.000Z</time>
      </trkpt>
      <trkpt lat="42.970712" lon="-5.7361368">
        <ele>1495.21</ele>
        <time>2020-07-21T10:41:20.000Z</time>
      </trkpt>
      <trkpt lat="42.9707117" lon="-5.7361378">
        <ele>1495.21</ele>
        <time>2020-07-21T10:41:21.000Z</time>
      </trkpt>
      <trkpt lat="42.9707115" lon="-5.7361392">
        <ele>1494.91</ele>
        <time>2020-07-21T10:41:22.000Z</time>
      </trkpt>
      <trkpt lat="42.970712" lon="-5.7361397">
        <ele>1494.91</ele>
        <time>2020-07-21T10:41:23.000Z</time>
      </trkpt>
      <trkpt lat="42.9707123" lon="-5.7361407">
        <ele>1494.6</ele>
        <time>2020-07-21T10:41:24.000Z</time>
      </trkpt>
      <trkpt lat="42.970713" lon="-5.7361418">
        <ele>1494.6</ele>
        <time>2020-07-21T10:41:25.000Z</time>
      </trkpt>
      <trkpt lat="42.9707135" lon="-5.7361438">
        <ele>1494.3</ele>
        <time>2020-07-21T10:41:26.000Z</time>
      </trkpt>
      <trkpt lat="42.9707143" lon="-5.736145">
        <ele>1494.3</ele>
        <time>2020-07-21T10:41:27.000Z</time>
      </trkpt>
      <trkpt lat="42.9707155" lon="-5.7361443">
        <ele>1493.99</ele>
        <time>2020-07-21T10:41:28.000Z</time>
      </trkpt>
      <trkpt lat="42.970718" lon="-5.7361422">
        <ele>1493.99</ele>
        <time>2020-07-21T10:41:29.000Z</time>
      </trkpt>
      <trkpt lat="42.9707243" lon="-5.7361355">
        <ele>1493.84</ele>
        <time>2020-07-21T10:41:30.000Z</time>
      </trkpt>
      <trkpt lat="42.9707332" lon="-5.736124">
        <ele>1493.84</ele>
        <time>2020-07-21T10:41:31.000Z</time>
      </trkpt>
      <trkpt lat="42.9707423" lon="-5.736112">
        <ele>1493.54</ele>
        <time>2020-07-21T10:41:32.000Z</time>
      </trkpt>
      <trkpt lat="42.9707477" lon="-5.7361027">
        <ele>1493.54</ele>
        <time>2020-07-21T10:41:33.000Z</time>
      </trkpt>
      <trkpt lat="42.9707507" lon="-5.7360953">
        <ele>1493.39</ele>
        <time>2020-07-21T10:41:34.000Z</time>
      </trkpt>
      <trkpt lat="42.9707548" lon="-5.7360838">
        <ele>1493.39</ele>
        <time>2020-07-21T10:41:35.000Z</time>
      </trkpt>
      <trkpt lat="42.9707612" lon="-5.7360715">
        <ele>1493.08</ele>
        <time>2020-07-21T10:41:36.000Z</time>
      </trkpt>
      <trkpt lat="42.9707688" lon="-5.7360597">
        <ele>1493.08</ele>
        <time>2020-07-21T10:41:37.000Z</time>
      </trkpt>
      <trkpt lat="42.9707757" lon="-5.7360508">
        <ele>1492.93</ele>
        <time>2020-07-21T10:41:38.000Z</time>
      </trkpt>
      <trkpt lat="42.970784" lon="-5.7360403">
        <ele>1492.93</ele>
        <time>2020-07-21T10:41:39.000Z</time>
      </trkpt>
      <trkpt lat="42.9707923" lon="-5.7360303">
        <ele>1492.62</ele>
        <time>2020-07-21T10:41:40.000Z</time>
      </trkpt>
      <trkpt lat="42.9708015" lon="-5.7360193">
        <ele>1492.62</ele>
        <time>2020-07-21T10:41:41.000Z</time>
      </trkpt>
      <trkpt lat="42.9708107" lon="-5.736008">
        <ele>1492.47</ele>
        <time>2020-07-21T10:41:42.000Z</time>
      </trkpt>
      <trkpt lat="42.970823" lon="-5.7359952">
        <ele>1492.47</ele>
        <time>2020-07-21T10:41:43.000Z</time>
      </trkpt>
      <trkpt lat="42.9708362" lon="-5.7359817">
        <ele>1492.32</ele>
        <time>2020-07-21T10:41:44.000Z</time>
      </trkpt>
      <trkpt lat="42.9708483" lon="-5.7359677">
        <ele>1492.32</ele>
        <time>2020-07-21T10:41:45.000Z</time>
      </trkpt>
      <trkpt lat="42.9708587" lon="-5.7359545">
        <ele>1492.01</ele>
        <time>2020-07-21T10:41:46.000Z</time>
      </trkpt>
      <trkpt lat="42.970868" lon="-5.7359425">
        <ele>1492.01</ele>
        <time>2020-07-21T10:41:47.000Z</time>
      </trkpt>
      <trkpt lat="42.9708783" lon="-5.7359312">
        <ele>1491.86</ele>
        <time>2020-07-21T10:41:48.000Z</time>
      </trkpt>
      <trkpt lat="42.9708868" lon="-5.7359202">
        <ele>1491.86</ele>
        <time>2020-07-21T10:41:49.000Z</time>
      </trkpt>
      <trkpt lat="42.9708943" lon="-5.7359108">
        <ele>1491.56</ele>
        <time>2020-07-21T10:41:50.000Z</time>
      </trkpt>
      <trkpt lat="42.970902" lon="-5.7359062">
        <ele>1491.56</ele>
        <time>2020-07-21T10:41:51.000Z</time>
      </trkpt>
      <trkpt lat="42.9709095" lon="-5.7359043">
        <ele>1491.41</ele>
        <time>2020-07-21T10:41:52.000Z</time>
      </trkpt>
      <trkpt lat="42.970916" lon="-5.735905">
        <ele>1491.41</ele>
        <time>2020-07-21T10:41:53.000Z</time>
      </trkpt>
      <trkpt lat="42.9709195" lon="-5.735905">
        <ele>1491.1</ele>
        <time>2020-07-21T10:41:54.000Z</time>
      </trkpt>
      <trkpt lat="42.9709208" lon="-5.7359055">
        <ele>1491.1</ele>
        <time>2020-07-21T10:41:55.000Z</time>
      </trkpt>
      <trkpt lat="42.9709208" lon="-5.7359058">
        <ele>1490.8</ele>
        <time>2020-07-21T10:41:56.000Z</time>
      </trkpt>
      <trkpt lat="42.97092" lon="-5.7359057">
        <ele>1490.8</ele>
        <time>2020-07-21T10:41:57.000Z</time>
      </trkpt>
      <trkpt lat="42.9709198" lon="-5.7359062">
        <ele>1490.64</ele>
        <time>2020-07-21T10:41:58.000Z</time>
      </trkpt>
      <trkpt lat="42.9709205" lon="-5.7359063">
        <ele>1490.64</ele>
        <time>2020-07-21T10:41:59.000Z</time>
      </trkpt>
      <trkpt lat="42.9709217" lon="-5.7359068">
        <ele>1490.34</ele>
        <time>2020-07-21T10:42:00.000Z</time>
      </trkpt>
      <trkpt lat="42.970923" lon="-5.7359063">
        <ele>1490.34</ele>
        <time>2020-07-21T10:42:01.000Z</time>
      </trkpt>
      <trkpt lat="42.970924" lon="-5.7359062">
        <ele>1490.03</ele>
        <time>2020-07-21T10:42:02.000Z</time>
      </trkpt>
      <trkpt lat="42.9709248" lon="-5.735906">
        <ele>1490.03</ele>
        <time>2020-07-21T10:42:03.000Z</time>
      </trkpt>
      <trkpt lat="42.9709245" lon="-5.7359058">
        <ele>1489.88</ele>
        <time>2020-07-21T10:42:04.000Z</time>
      </trkpt>
      <trkpt lat="42.9709238" lon="-5.7359058">
        <ele>1489.88</ele>
        <time>2020-07-21T10:42:05.000Z</time>
      </trkpt>
      <trkpt lat="42.9709233" lon="-5.7359065">
        <ele>1489.58</ele>
        <time>2020-07-21T10:42:06.000Z</time>
      </trkpt>
      <trkpt lat="42.9709235" lon="-5.7359077">
        <ele>1489.58</ele>
        <time>2020-07-21T10:42:07.000Z</time>
      </trkpt>
      <trkpt lat="42.970925" lon="-5.7359087">
        <ele>1489.27</ele>
        <time>2020-07-21T10:42:08.000Z</time>
      </trkpt>
      <trkpt lat="42.9709263" lon="-5.7359093">
        <ele>1489.27</ele>
        <time>2020-07-21T10:42:09.000Z</time>
      </trkpt>
      <trkpt lat="42.9709268" lon="-5.7359105">
        <ele>1488.97</ele>
        <time>2020-07-21T10:42:10.000Z</time>
      </trkpt>
      <trkpt lat="42.9709253" lon="-5.7359113">
        <ele>1488.97</ele>
        <time>2020-07-21T10:42:11.000Z</time>
      </trkpt>
      <trkpt lat="42.970923" lon="-5.7359125">
        <ele>1488.51</ele>
        <time>2020-07-21T10:42:12.000Z</time>
      </trkpt>
      <trkpt lat="42.9709207" lon="-5.7359133">
        <ele>1488.51</ele>
        <time>2020-07-21T10:42:13.000Z</time>
      </trkpt>
      <trkpt lat="42.9709183" lon="-5.7359143">
        <ele>1488.2</ele>
        <time>2020-07-21T10:42:14.000Z</time>
      </trkpt>
      <trkpt lat="42.9709162" lon="-5.7359142">
        <ele>1488.2</ele>
        <time>2020-07-21T10:42:15.000Z</time>
      </trkpt>
      <trkpt lat="42.9709145" lon="-5.7359135">
        <ele>1487.9</ele>
        <time>2020-07-21T10:42:16.000Z</time>
      </trkpt>
      <trkpt lat="42.9709133" lon="-5.735913">
        <ele>1487.9</ele>
        <time>2020-07-21T10:42:17.000Z</time>
      </trkpt>
      <trkpt lat="42.9709133" lon="-5.7359118">
        <ele>1487.44</ele>
        <time>2020-07-21T10:42:18.000Z</time>
      </trkpt>
      <trkpt lat="42.970915" lon="-5.7359102">
        <ele>1487.44</ele>
        <time>2020-07-21T10:42:19.000Z</time>
      </trkpt>
      <trkpt lat="42.970918" lon="-5.7359082">
        <ele>1487.14</ele>
        <time>2020-07-21T10:42:20.000Z</time>
      </trkpt>
      <trkpt lat="42.9709208" lon="-5.7359073">
        <ele>1487.14</ele>
        <time>2020-07-21T10:42:21.000Z</time>
      </trkpt>
      <trkpt lat="42.9709227" lon="-5.7359072">
        <ele>1486.83</ele>
        <time>2020-07-21T10:42:22.000Z</time>
      </trkpt>
      <trkpt lat="42.970924" lon="-5.7359067">
        <ele>1486.83</ele>
        <time>2020-07-21T10:42:23.000Z</time>
      </trkpt>
      <trkpt lat="42.9709255" lon="-5.7359063">
        <ele>1486.38</ele>
        <time>2020-07-21T10:42:24.000Z</time>
      </trkpt>
      <trkpt lat="42.9709255" lon="-5.7359062">
        <ele>1486.38</ele>
        <time>2020-07-21T10:42:25.000Z</time>
      </trkpt>
      <trkpt lat="42.970923" lon="-5.7359068">
        <ele>1486.07</ele>
        <time>2020-07-21T10:42:26.000Z</time>
      </trkpt>
      <trkpt lat="42.9709192" lon="-5.7359077">
        <ele>1486.07</ele>
        <time>2020-07-21T10:42:27.000Z</time>
      </trkpt>
      <trkpt lat="42.9709162" lon="-5.7359093">
        <ele>1485.77</ele>
        <time>2020-07-21T10:42:28.000Z</time>
      </trkpt>
      <trkpt lat="42.9709152" lon="-5.7359105">
        <ele>1485.77</ele>
        <time>2020-07-21T10:42:29.000Z</time>
      </trkpt>
      <trkpt lat="42.9709148" lon="-5.7359115">
        <ele>1485.46</ele>
        <time>2020-07-21T10:42:30.000Z</time>
      </trkpt>
      <trkpt lat="42.9709145" lon="-5.7359113">
        <ele>1485.46</ele>
        <time>2020-07-21T10:42:31.000Z</time>
      </trkpt>
      <trkpt lat="42.970914" lon="-5.7359112">
        <ele>1485.31</ele>
        <time>2020-07-21T10:42:32.000Z</time>
      </trkpt>
      <trkpt lat="42.9709135" lon="-5.7359108">
        <ele>1485.31</ele>
        <time>2020-07-21T10:42:33.000Z</time>
      </trkpt>
      <trkpt lat="42.9709135" lon="-5.7359102">
        <ele>1485</ele>
        <time>2020-07-21T10:42:34.000Z</time>
      </trkpt>
      <trkpt lat="42.9709148" lon="-5.7359073">
        <ele>1485</ele>
        <time>2020-07-21T10:42:35.000Z</time>
      </trkpt>
      <trkpt lat="42.9709178" lon="-5.735904">
        <ele>1484.7</ele>
        <time>2020-07-21T10:42:36.000Z</time>
      </trkpt>
      <trkpt lat="42.970921" lon="-5.7359008">
        <ele>1484.7</ele>
        <time>2020-07-21T10:42:37.000Z</time>
      </trkpt>
      <trkpt lat="42.9709237" lon="-5.7358993">
        <ele>1484.55</ele>
        <time>2020-07-21T10:42:38.000Z</time>
      </trkpt>
      <trkpt lat="42.9709265" lon="-5.7358942">
        <ele>1484.55</ele>
        <time>2020-07-21T10:42:39.000Z</time>
      </trkpt>
      <trkpt lat="42.9709295" lon="-5.7358838">
        <ele>1484.24</ele>
        <time>2020-07-21T10:42:40.000Z</time>
      </trkpt>
      <trkpt lat="42.9709322" lon="-5.7358703">
        <ele>1484.24</ele>
        <time>2020-07-21T10:42:41.000Z</time>
      </trkpt>
      <trkpt lat="42.9709345" lon="-5.7358588">
        <ele>1484.09</ele>
        <time>2020-07-21T10:42:42.000Z</time>
      </trkpt>
      <trkpt lat="42.9709378" lon="-5.7358487">
        <ele>1484.09</ele>
        <time>2020-07-21T10:42:43.000Z</time>
      </trkpt>
      <trkpt lat="42.9709423" lon="-5.7358392">
        <ele>1483.94</ele>
        <time>2020-07-21T10:42:44.000Z</time>
      </trkpt>
      <trkpt lat="42.9709477" lon="-5.7358287">
        <ele>1483.94</ele>
        <time>2020-07-21T10:42:45.000Z</time>
      </trkpt>
      <trkpt lat="42.9709533" lon="-5.7358185">
        <ele>1483.63</ele>
        <time>2020-07-21T10:42:46.000Z</time>
      </trkpt>
      <trkpt lat="42.9709593" lon="-5.735807">
        <ele>1483.63</ele>
        <time>2020-07-21T10:42:47.000Z</time>
      </trkpt>
      <trkpt lat="42.9709655" lon="-5.7357952">
        <ele>1483.48</ele>
        <time>2020-07-21T10:42:48.000Z</time>
      </trkpt>
      <trkpt lat="42.9709717" lon="-5.7357825">
        <ele>1483.48</ele>
        <time>2020-07-21T10:42:49.000Z</time>
      </trkpt>
      <trkpt lat="42.9709778" lon="-5.7357692">
        <ele>1483.33</ele>
        <time>2020-07-21T10:42:50.000Z</time>
      </trkpt>
      <trkpt lat="42.9709838" lon="-5.7357532">
        <ele>1483.33</ele>
        <time>2020-07-21T10:42:51.000Z</time>
      </trkpt>
      <trkpt lat="42.9709885" lon="-5.7357355">
        <ele>1483.18</ele>
        <time>2020-07-21T10:42:52.000Z</time>
      </trkpt>
      <trkpt lat="42.9709935" lon="-5.7357177">
        <ele>1483.18</ele>
        <time>2020-07-21T10:42:53.000Z</time>
      </trkpt>
      <trkpt lat="42.9709987" lon="-5.7357005">
        <ele>1483.02</ele>
        <time>2020-07-21T10:42:54.000Z</time>
      </trkpt>
      <trkpt lat="42.9710063" lon="-5.7356837">
        <ele>1483.02</ele>
        <time>2020-07-21T10:42:55.000Z</time>
      </trkpt>
      <trkpt lat="42.9710147" lon="-5.7356672">
        <ele>1483.02</ele>
        <time>2020-07-21T10:42:56.000Z</time>
      </trkpt>
      <trkpt lat="42.9710238" lon="-5.7356518">
        <ele>1483.02</ele>
        <time>2020-07-21T10:42:57.000Z</time>
      </trkpt>
      <trkpt lat="42.971032" lon="-5.7356377">
        <ele>1482.87</ele>
        <time>2020-07-21T10:42:58.000Z</time>
      </trkpt>
      <trkpt lat="42.9710407" lon="-5.7356227">
        <ele>1482.87</ele>
        <time>2020-07-21T10:42:59.000Z</time>
      </trkpt>
      <trkpt lat="42.9710482" lon="-5.7356067">
        <ele>1482.87</ele>
        <time>2020-07-21T10:43:00.000Z</time>
      </trkpt>
      <trkpt lat="42.9710522" lon="-5.7355892">
        <ele>1482.87</ele>
        <time>2020-07-21T10:43:01.000Z</time>
      </trkpt>
      <trkpt lat="42.9710542" lon="-5.7355747">
        <ele>1482.72</ele>
        <time>2020-07-21T10:43:02.000Z</time>
      </trkpt>
      <trkpt lat="42.9710585" lon="-5.7355618">
        <ele>1482.72</ele>
        <time>2020-07-21T10:43:03.000Z</time>
      </trkpt>
      <trkpt lat="42.971067" lon="-5.73555">
        <ele>1482.56</ele>
        <time>2020-07-21T10:43:04.000Z</time>
      </trkpt>
      <trkpt lat="42.971076" lon="-5.7355372">
        <ele>1482.56</ele>
        <time>2020-07-21T10:43:05.000Z</time>
      </trkpt>
      <trkpt lat="42.9710828" lon="-5.7355233">
        <ele>1482.56</ele>
        <time>2020-07-21T10:43:06.000Z</time>
      </trkpt>
      <trkpt lat="42.9710898" lon="-5.7355083">
        <ele>1482.56</ele>
        <time>2020-07-21T10:43:07.000Z</time>
      </trkpt>
      <trkpt lat="42.9710972" lon="-5.7354933">
        <ele>1482.56</ele>
        <time>2020-07-21T10:43:08.000Z</time>
      </trkpt>
      <trkpt lat="42.9711057" lon="-5.7354792">
        <ele>1482.56</ele>
        <time>2020-07-21T10:43:09.000Z</time>
      </trkpt>
      <trkpt lat="42.9711138" lon="-5.7354702">
        <ele>1482.41</ele>
        <time>2020-07-21T10:43:10.000Z</time>
      </trkpt>
      <trkpt lat="42.9711262" lon="-5.7354648">
        <ele>1482.41</ele>
        <time>2020-07-21T10:43:11.000Z</time>
      </trkpt>
      <trkpt lat="42.9711403" lon="-5.7354635">
        <ele>1482.41</ele>
        <time>2020-07-21T10:43:12.000Z</time>
      </trkpt>
      <trkpt lat="42.9711538" lon="-5.7354652">
        <ele>1482.41</ele>
        <time>2020-07-21T10:43:13.000Z</time>
      </trkpt>
      <trkpt lat="42.9711653" lon="-5.735469">
        <ele>1482.41</ele>
        <time>2020-07-21T10:43:14.000Z</time>
      </trkpt>
      <trkpt lat="42.9711767" lon="-5.7354733">
        <ele>1482.41</ele>
        <time>2020-07-21T10:43:15.000Z</time>
      </trkpt>
      <trkpt lat="42.9711898" lon="-5.7354763">
        <ele>1482.26</ele>
        <time>2020-07-21T10:43:16.000Z</time>
      </trkpt>
      <trkpt lat="42.9712037" lon="-5.7354787">
        <ele>1482.26</ele>
        <time>2020-07-21T10:43:17.000Z</time>
      </trkpt>
      <trkpt lat="42.971216" lon="-5.7354805">
        <ele>1482.26</ele>
        <time>2020-07-21T10:43:18.000Z</time>
      </trkpt>
      <trkpt lat="42.9712255" lon="-5.7354837">
        <ele>1482.26</ele>
        <time>2020-07-21T10:43:19.000Z</time>
      </trkpt>
      <trkpt lat="42.971233" lon="-5.7354872">
        <ele>1482.26</ele>
        <time>2020-07-21T10:43:20.000Z</time>
      </trkpt>
      <trkpt lat="42.9712412" lon="-5.7354922">
        <ele>1482.26</ele>
        <time>2020-07-21T10:43:21.000Z</time>
      </trkpt>
      <trkpt lat="42.971252" lon="-5.7354963">
        <ele>1482.26</ele>
        <time>2020-07-21T10:43:22.000Z</time>
      </trkpt>
      <trkpt lat="42.9712627" lon="-5.7355002">
        <ele>1482.26</ele>
        <time>2020-07-21T10:43:23.000Z</time>
      </trkpt>
      <trkpt lat="42.9712718" lon="-5.7355032">
        <ele>1482.26</ele>
        <time>2020-07-21T10:43:24.000Z</time>
      </trkpt>
      <trkpt lat="42.9712792" lon="-5.735505">
        <ele>1482.26</ele>
        <time>2020-07-21T10:43:25.000Z</time>
      </trkpt>
      <trkpt lat="42.9712862" lon="-5.7355063">
        <ele>1482.26</ele>
        <time>2020-07-21T10:43:26.000Z</time>
      </trkpt>
      <trkpt lat="42.9712918" lon="-5.735508">
        <ele>1482.26</ele>
        <time>2020-07-21T10:43:27.000Z</time>
      </trkpt>
      <trkpt lat="42.9712973" lon="-5.7355105">
        <ele>1482.26</ele>
        <time>2020-07-21T10:43:28.000Z</time>
      </trkpt>
      <trkpt lat="42.9713038" lon="-5.7355133">
        <ele>1482.26</ele>
        <time>2020-07-21T10:43:29.000Z</time>
      </trkpt>
      <trkpt lat="42.9713117" lon="-5.7355172">
        <ele>1482.26</ele>
        <time>2020-07-21T10:43:30.000Z</time>
      </trkpt>
      <trkpt lat="42.9713202" lon="-5.7355212">
        <ele>1482.26</ele>
        <time>2020-07-21T10:43:31.000Z</time>
      </trkpt>
      <trkpt lat="42.971328" lon="-5.735526">
        <ele>1482.41</ele>
        <time>2020-07-21T10:43:32.000Z</time>
      </trkpt>
      <trkpt lat="42.9713372" lon="-5.7355295">
        <ele>1482.41</ele>
        <time>2020-07-21T10:43:33.000Z</time>
      </trkpt>
      <trkpt lat="42.971347" lon="-5.7355317">
        <ele>1482.41</ele>
        <time>2020-07-21T10:43:34.000Z</time>
      </trkpt>
      <trkpt lat="42.9713572" lon="-5.7355338">
        <ele>1482.41</ele>
        <time>2020-07-21T10:43:35.000Z</time>
      </trkpt>
      <trkpt lat="42.9713677" lon="-5.7355372">
        <ele>1482.41</ele>
        <time>2020-07-21T10:43:36.000Z</time>
      </trkpt>
      <trkpt lat="42.9713768" lon="-5.735543">
        <ele>1482.41</ele>
        <time>2020-07-21T10:43:37.000Z</time>
      </trkpt>
      <trkpt lat="42.9713877" lon="-5.7355495">
        <ele>1482.56</ele>
        <time>2020-07-21T10:43:38.000Z</time>
      </trkpt>
      <trkpt lat="42.9713978" lon="-5.7355562">
        <ele>1482.56</ele>
        <time>2020-07-21T10:43:39.000Z</time>
      </trkpt>
      <trkpt lat="42.9714093" lon="-5.7355615">
        <ele>1482.72</ele>
        <time>2020-07-21T10:43:40.000Z</time>
      </trkpt>
      <trkpt lat="42.97142" lon="-5.7355668">
        <ele>1482.72</ele>
        <time>2020-07-21T10:43:41.000Z</time>
      </trkpt>
      <trkpt lat="42.9714318" lon="-5.73557">
        <ele>1482.72</ele>
        <time>2020-07-21T10:43:42.000Z</time>
      </trkpt>
      <trkpt lat="42.9714427" lon="-5.7355738">
        <ele>1482.72</ele>
        <time>2020-07-21T10:43:43.000Z</time>
      </trkpt>
      <trkpt lat="42.9714535" lon="-5.7355768">
        <ele>1482.87</ele>
        <time>2020-07-21T10:43:44.000Z</time>
      </trkpt>
      <trkpt lat="42.9714642" lon="-5.7355797">
        <ele>1482.87</ele>
        <time>2020-07-21T10:43:45.000Z</time>
      </trkpt>
      <trkpt lat="42.9714782" lon="-5.7355797">
        <ele>1483.02</ele>
        <time>2020-07-21T10:43:46.000Z</time>
      </trkpt>
      <trkpt lat="42.971493" lon="-5.7355787">
        <ele>1483.02</ele>
        <time>2020-07-21T10:43:47.000Z</time>
      </trkpt>
      <trkpt lat="42.9715078" lon="-5.7355793">
        <ele>1483.18</ele>
        <time>2020-07-21T10:43:48.000Z</time>
      </trkpt>
      <trkpt lat="42.9715213" lon="-5.7355813">
        <ele>1483.18</ele>
        <time>2020-07-21T10:43:49.000Z</time>
      </trkpt>
      <trkpt lat="42.9715342" lon="-5.7355847">
        <ele>1483.33</ele>
        <time>2020-07-21T10:43:50.000Z</time>
      </trkpt>
      <trkpt lat="42.9715465" lon="-5.7355865">
        <ele>1483.33</ele>
        <time>2020-07-21T10:43:51.000Z</time>
      </trkpt>
      <trkpt lat="42.9715585" lon="-5.7355883">
        <ele>1483.48</ele>
        <time>2020-07-21T10:43:52.000Z</time>
      </trkpt>
      <trkpt lat="42.9715708" lon="-5.7355893">
        <ele>1483.48</ele>
        <time>2020-07-21T10:43:53.000Z</time>
      </trkpt>
      <trkpt lat="42.9715832" lon="-5.735589">
        <ele>1483.63</ele>
        <time>2020-07-21T10:43:54.000Z</time>
      </trkpt>
      <trkpt lat="42.9715957" lon="-5.7355875">
        <ele>1483.63</ele>
        <time>2020-07-21T10:43:55.000Z</time>
      </trkpt>
      <trkpt lat="42.9716083" lon="-5.735585">
        <ele>1483.78</ele>
        <time>2020-07-21T10:43:56.000Z</time>
      </trkpt>
      <trkpt lat="42.971621" lon="-5.7355827">
        <ele>1483.78</ele>
        <time>2020-07-21T10:43:57.000Z</time>
      </trkpt>
      <trkpt lat="42.971634" lon="-5.735581">
        <ele>1484.09</ele>
        <time>2020-07-21T10:43:58.000Z</time>
      </trkpt>
      <trkpt lat="42.971647" lon="-5.7355788">
        <ele>1484.09</ele>
        <time>2020-07-21T10:43:59.000Z</time>
      </trkpt>
      <trkpt lat="42.9716595" lon="-5.7355763">
        <ele>1484.24</ele>
        <time>2020-07-21T10:44:00.000Z</time>
      </trkpt>
      <trkpt lat="42.9716713" lon="-5.7355735">
        <ele>1484.24</ele>
        <time>2020-07-21T10:44:01.000Z</time>
      </trkpt>
      <trkpt lat="42.9716833" lon="-5.7355707">
        <ele>1484.39</ele>
        <time>2020-07-21T10:44:02.000Z</time>
      </trkpt>
      <trkpt lat="42.9716953" lon="-5.7355683">
        <ele>1484.39</ele>
        <time>2020-07-21T10:44:03.000Z</time>
      </trkpt>
      <trkpt lat="42.9717073" lon="-5.7355658">
        <ele>1484.55</ele>
        <time>2020-07-21T10:44:04.000Z</time>
      </trkpt>
      <trkpt lat="42.9717192" lon="-5.735563">
        <ele>1484.55</ele>
        <time>2020-07-21T10:44:05.000Z</time>
      </trkpt>
      <trkpt lat="42.971731" lon="-5.7355595">
        <ele>1484.85</ele>
        <time>2020-07-21T10:44:06.000Z</time>
      </trkpt>
      <trkpt lat="42.971743" lon="-5.7355558">
        <ele>1484.85</ele>
        <time>2020-07-21T10:44:07.000Z</time>
      </trkpt>
      <trkpt lat="42.9717547" lon="-5.7355527">
        <ele>1485</ele>
        <time>2020-07-21T10:44:08.000Z</time>
      </trkpt>
      <trkpt lat="42.9717658" lon="-5.7355498">
        <ele>1485</ele>
        <time>2020-07-21T10:44:09.000Z</time>
      </trkpt>
      <trkpt lat="42.9717765" lon="-5.7355472">
        <ele>1485.16</ele>
        <time>2020-07-21T10:44:10.000Z</time>
      </trkpt>
      <trkpt lat="42.9717878" lon="-5.7355443">
        <ele>1485.16</ele>
        <time>2020-07-21T10:44:11.000Z</time>
      </trkpt>
      <trkpt lat="42.9717993" lon="-5.7355413">
        <ele>1485.31</ele>
        <time>2020-07-21T10:44:12.000Z</time>
      </trkpt>
      <trkpt lat="42.9718112" lon="-5.7355378">
        <ele>1485.31</ele>
        <time>2020-07-21T10:44:13.000Z</time>
      </trkpt>
      <trkpt lat="42.9718227" lon="-5.7355345">
        <ele>1485.61</ele>
        <time>2020-07-21T10:44:14.000Z</time>
      </trkpt>
      <trkpt lat="42.9718347" lon="-5.735531">
        <ele>1485.61</ele>
        <time>2020-07-21T10:44:15.000Z</time>
      </trkpt>
      <trkpt lat="42.9718465" lon="-5.7355282">
        <ele>1485.77</ele>
        <time>2020-07-21T10:44:16.000Z</time>
      </trkpt>
      <trkpt lat="42.9718585" lon="-5.735525">
        <ele>1485.77</ele>
        <time>2020-07-21T10:44:17.000Z</time>
      </trkpt>
      <trkpt lat="42.9718703" lon="-5.7355222">
        <ele>1485.92</ele>
        <time>2020-07-21T10:44:18.000Z</time>
      </trkpt>
      <trkpt lat="42.971882" lon="-5.735518">
        <ele>1485.92</ele>
        <time>2020-07-21T10:44:19.000Z</time>
      </trkpt>
      <trkpt lat="42.9718942" lon="-5.7355145">
        <ele>1486.07</ele>
        <time>2020-07-21T10:44:20.000Z</time>
      </trkpt>
      <trkpt lat="42.971907" lon="-5.7355117">
        <ele>1486.07</ele>
        <time>2020-07-21T10:44:21.000Z</time>
      </trkpt>
      <trkpt lat="42.9719207" lon="-5.7355102">
        <ele>1486.38</ele>
        <time>2020-07-21T10:44:22.000Z</time>
      </trkpt>
      <trkpt lat="42.9719335" lon="-5.7355085">
        <ele>1486.38</ele>
        <time>2020-07-21T10:44:23.000Z</time>
      </trkpt>
      <trkpt lat="42.9719453" lon="-5.7355058">
        <ele>1486.53</ele>
        <time>2020-07-21T10:44:24.000Z</time>
      </trkpt>
      <trkpt lat="42.9719575" lon="-5.735502">
        <ele>1486.53</ele>
        <time>2020-07-21T10:44:25.000Z</time>
      </trkpt>
      <trkpt lat="42.9719702" lon="-5.7354985">
        <ele>1486.83</ele>
        <time>2020-07-21T10:44:26.000Z</time>
      </trkpt>
      <trkpt lat="42.971983" lon="-5.7354947">
        <ele>1486.83</ele>
        <time>2020-07-21T10:44:27.000Z</time>
      </trkpt>
      <trkpt lat="42.9719933" lon="-5.7354915">
        <ele>1486.98</ele>
        <time>2020-07-21T10:44:28.000Z</time>
      </trkpt>
      <trkpt lat="42.9720025" lon="-5.7354883">
        <ele>1486.98</ele>
        <time>2020-07-21T10:44:29.000Z</time>
      </trkpt>
      <trkpt lat="42.9720118" lon="-5.735486">
        <ele>1487.14</ele>
        <time>2020-07-21T10:44:30.000Z</time>
      </trkpt>
      <trkpt lat="42.9720233" lon="-5.7354838">
        <ele>1487.14</ele>
        <time>2020-07-21T10:44:31.000Z</time>
      </trkpt>
      <trkpt lat="42.9720355" lon="-5.7354817">
        <ele>1487.44</ele>
        <time>2020-07-21T10:44:32.000Z</time>
      </trkpt>
      <trkpt lat="42.9720467" lon="-5.735479">
        <ele>1487.44</ele>
        <time>2020-07-21T10:44:33.000Z</time>
      </trkpt>
      <trkpt lat="42.9720585" lon="-5.7354762">
        <ele>1487.59</ele>
        <time>2020-07-21T10:44:34.000Z</time>
      </trkpt>
      <trkpt lat="42.9720715" lon="-5.7354722">
        <ele>1487.59</ele>
        <time>2020-07-21T10:44:35.000Z</time>
      </trkpt>
      <trkpt lat="42.9720862" lon="-5.7354668">
        <ele>1487.9</ele>
        <time>2020-07-21T10:44:36.000Z</time>
      </trkpt>
      <trkpt lat="42.972099" lon="-5.7354612">
        <ele>1487.9</ele>
        <time>2020-07-21T10:44:37.000Z</time>
      </trkpt>
      <trkpt lat="42.9721105" lon="-5.7354568">
        <ele>1488.05</ele>
        <time>2020-07-21T10:44:38.000Z</time>
      </trkpt>
      <trkpt lat="42.9721207" lon="-5.7354543">
        <ele>1488.05</ele>
        <time>2020-07-21T10:44:39.000Z</time>
      </trkpt>
      <trkpt lat="42.9721328" lon="-5.735452">
        <ele>1488.36</ele>
        <time>2020-07-21T10:44:40.000Z</time>
      </trkpt>
      <trkpt lat="42.972145" lon="-5.7354482">
        <ele>1488.36</ele>
        <time>2020-07-21T10:44:41.000Z</time>
      </trkpt>
      <trkpt lat="42.972158" lon="-5.7354457">
        <ele>1488.66</ele>
        <time>2020-07-21T10:44:42.000Z</time>
      </trkpt>
      <trkpt lat="42.9721702" lon="-5.7354437">
        <ele>1488.66</ele>
        <time>2020-07-21T10:44:43.000Z</time>
      </trkpt>
      <trkpt lat="42.9721835" lon="-5.735442">
        <ele>1488.81</ele>
        <time>2020-07-21T10:44:44.000Z</time>
      </trkpt>
      <trkpt lat="42.9721967" lon="-5.7354387">
        <ele>1488.81</ele>
        <time>2020-07-21T10:44:45.000Z</time>
      </trkpt>
      <trkpt lat="42.972209" lon="-5.7354343">
        <ele>1489.12</ele>
        <time>2020-07-21T10:44:46.000Z</time>
      </trkpt>
      <trkpt lat="42.9722208" lon="-5.735432">
        <ele>1489.12</ele>
        <time>2020-07-21T10:44:47.000Z</time>
      </trkpt>
      <trkpt lat="42.972232" lon="-5.7354303">
        <ele>1489.42</ele>
        <time>2020-07-21T10:44:48.000Z</time>
      </trkpt>
      <trkpt lat="42.9722435" lon="-5.735429">
        <ele>1489.42</ele>
        <time>2020-07-21T10:44:49.000Z</time>
      </trkpt>
      <trkpt lat="42.972256" lon="-5.735426">
        <ele>1489.58</ele>
        <time>2020-07-21T10:44:50.000Z</time>
      </trkpt>
      <trkpt lat="42.972269" lon="-5.7354227">
        <ele>1489.58</ele>
        <time>2020-07-21T10:44:51.000Z</time>
      </trkpt>
      <trkpt lat="42.9722822" lon="-5.7354197">
        <ele>1489.88</ele>
        <time>2020-07-21T10:44:52.000Z</time>
      </trkpt>
      <trkpt lat="42.972295" lon="-5.7354178">
        <ele>1489.88</ele>
        <time>2020-07-21T10:44:53.000Z</time>
      </trkpt>
      <trkpt lat="42.9723065" lon="-5.7354173">
        <ele>1490.19</ele>
        <time>2020-07-21T10:44:54.000Z</time>
      </trkpt>
      <trkpt lat="42.9723175" lon="-5.7354168">
        <ele>1490.19</ele>
        <time>2020-07-21T10:44:55.000Z</time>
      </trkpt>
      <trkpt lat="42.9723283" lon="-5.7354147">
        <ele>1490.34</ele>
        <time>2020-07-21T10:44:56.000Z</time>
      </trkpt>
      <trkpt lat="42.97234" lon="-5.735412">
        <ele>1490.34</ele>
        <time>2020-07-21T10:44:57.000Z</time>
      </trkpt>
      <trkpt lat="42.9723523" lon="-5.7354097">
        <ele>1490.64</ele>
        <time>2020-07-21T10:44:58.000Z</time>
      </trkpt>
      <trkpt lat="42.9723638" lon="-5.7354088">
        <ele>1490.64</ele>
        <time>2020-07-21T10:44:59.000Z</time>
      </trkpt>
      <trkpt lat="42.9723752" lon="-5.7354063">
        <ele>1490.95</ele>
        <time>2020-07-21T10:45:00.000Z</time>
      </trkpt>
      <trkpt lat="42.972386" lon="-5.7354042">
        <ele>1490.95</ele>
        <time>2020-07-21T10:45:01.000Z</time>
      </trkpt>
      <trkpt lat="42.9723968" lon="-5.7354018">
        <ele>1491.1</ele>
        <time>2020-07-21T10:45:02.000Z</time>
      </trkpt>
      <trkpt lat="42.9724082" lon="-5.7354013">
        <ele>1491.1</ele>
        <time>2020-07-21T10:45:03.000Z</time>
      </trkpt>
      <trkpt lat="42.9724205" lon="-5.7354008">
        <ele>1491.41</ele>
        <time>2020-07-21T10:45:04.000Z</time>
      </trkpt>
      <trkpt lat="42.9724328" lon="-5.7354002">
        <ele>1491.41</ele>
        <time>2020-07-21T10:45:05.000Z</time>
      </trkpt>
      <trkpt lat="42.9724448" lon="-5.735399">
        <ele>1491.71</ele>
        <time>2020-07-21T10:45:06.000Z</time>
      </trkpt>
      <trkpt lat="42.9724567" lon="-5.7353978">
        <ele>1491.71</ele>
        <time>2020-07-21T10:45:07.000Z</time>
      </trkpt>
      <trkpt lat="42.9724683" lon="-5.7353975">
        <ele>1492.01</ele>
        <time>2020-07-21T10:45:08.000Z</time>
      </trkpt>
      <trkpt lat="42.9724803" lon="-5.7353965">
        <ele>1492.01</ele>
        <time>2020-07-21T10:45:09.000Z</time>
      </trkpt>
      <trkpt lat="42.9724912" lon="-5.7353955">
        <ele>1492.32</ele>
        <time>2020-07-21T10:45:10.000Z</time>
      </trkpt>
      <trkpt lat="42.9725032" lon="-5.7353937">
        <ele>1492.32</ele>
        <time>2020-07-21T10:45:11.000Z</time>
      </trkpt>
      <trkpt lat="42.9725155" lon="-5.7353918">
        <ele>1492.62</ele>
        <time>2020-07-21T10:45:12.000Z</time>
      </trkpt>
      <trkpt lat="42.972528" lon="-5.7353897">
        <ele>1492.62</ele>
        <time>2020-07-21T10:45:13.000Z</time>
      </trkpt>
      <trkpt lat="42.9725397" lon="-5.7353882">
        <ele>1492.78</ele>
        <time>2020-07-21T10:45:14.000Z</time>
      </trkpt>
      <trkpt lat="42.972551" lon="-5.7353865">
        <ele>1492.78</ele>
        <time>2020-07-21T10:45:15.000Z</time>
      </trkpt>
      <trkpt lat="42.9725622" lon="-5.7353843">
        <ele>1493.08</ele>
        <time>2020-07-21T10:45:16.000Z</time>
      </trkpt>
      <trkpt lat="42.9725742" lon="-5.7353817">
        <ele>1493.08</ele>
        <time>2020-07-21T10:45:17.000Z</time>
      </trkpt>
      <trkpt lat="42.972586" lon="-5.7353787">
        <ele>1493.39</ele>
        <time>2020-07-21T10:45:18.000Z</time>
      </trkpt>
      <trkpt lat="42.9725978" lon="-5.7353757">
        <ele>1493.39</ele>
        <time>2020-07-21T10:45:19.000Z</time>
      </trkpt>
      <trkpt lat="42.9726087" lon="-5.735373">
        <ele>1493.54</ele>
        <time>2020-07-21T10:45:20.000Z</time>
      </trkpt>
      <trkpt lat="42.9726192" lon="-5.7353708">
        <ele>1493.54</ele>
        <time>2020-07-21T10:45:21.000Z</time>
      </trkpt>
      <trkpt lat="42.9726295" lon="-5.7353685">
        <ele>1493.84</ele>
        <time>2020-07-21T10:45:22.000Z</time>
      </trkpt>
      <trkpt lat="42.9726398" lon="-5.7353662">
        <ele>1493.84</ele>
        <time>2020-07-21T10:45:23.000Z</time>
      </trkpt>
      <trkpt lat="42.9726503" lon="-5.735363">
        <ele>1494.15</ele>
        <time>2020-07-21T10:45:24.000Z</time>
      </trkpt>
      <trkpt lat="42.9726608" lon="-5.7353588">
        <ele>1494.15</ele>
        <time>2020-07-21T10:45:25.000Z</time>
      </trkpt>
      <trkpt lat="42.972672" lon="-5.735354">
        <ele>1494.45</ele>
        <time>2020-07-21T10:45:26.000Z</time>
      </trkpt>
      <trkpt lat="42.9726828" lon="-5.7353492">
        <ele>1494.45</ele>
        <time>2020-07-21T10:45:27.000Z</time>
      </trkpt>
      <trkpt lat="42.9726932" lon="-5.7353455">
        <ele>1494.6</ele>
        <time>2020-07-21T10:45:28.000Z</time>
      </trkpt>
      <trkpt lat="42.9727032" lon="-5.735342">
        <ele>1494.6</ele>
        <time>2020-07-21T10:45:29.000Z</time>
      </trkpt>
      <trkpt lat="42.9727142" lon="-5.7353398">
        <ele>1494.91</ele>
        <time>2020-07-21T10:45:30.000Z</time>
      </trkpt>
      <trkpt lat="42.9727258" lon="-5.7353378">
        <ele>1494.91</ele>
        <time>2020-07-21T10:45:31.000Z</time>
      </trkpt>
      <trkpt lat="42.9727395" lon="-5.7353347">
        <ele>1495.21</ele>
        <time>2020-07-21T10:45:32.000Z</time>
      </trkpt>
      <trkpt lat="42.9727532" lon="-5.7353302">
        <ele>1495.21</ele>
        <time>2020-07-21T10:45:33.000Z</time>
      </trkpt>
      <trkpt lat="42.9727673" lon="-5.7353255">
        <ele>1495.37</ele>
        <time>2020-07-21T10:45:34.000Z</time>
      </trkpt>
      <trkpt lat="42.9727803" lon="-5.7353218">
        <ele>1495.37</ele>
        <time>2020-07-21T10:45:35.000Z</time>
      </trkpt>
      <trkpt lat="42.9727935" lon="-5.735318">
        <ele>1495.67</ele>
        <time>2020-07-21T10:45:36.000Z</time>
      </trkpt>
      <trkpt lat="42.9728062" lon="-5.7353142">
        <ele>1495.67</ele>
        <time>2020-07-21T10:45:37.000Z</time>
      </trkpt>
      <trkpt lat="42.972819" lon="-5.7353112">
        <ele>1495.82</ele>
        <time>2020-07-21T10:45:38.000Z</time>
      </trkpt>
      <trkpt lat="42.9728308" lon="-5.7353095">
        <ele>1495.82</ele>
        <time>2020-07-21T10:45:39.000Z</time>
      </trkpt>
      <trkpt lat="42.9728437" lon="-5.7353085">
        <ele>1496.13</ele>
        <time>2020-07-21T10:45:40.000Z</time>
      </trkpt>
      <trkpt lat="42.9728543" lon="-5.7353072">
        <ele>1496.13</ele>
        <time>2020-07-21T10:45:41.000Z</time>
      </trkpt>
      <trkpt lat="42.9728648" lon="-5.735305">
        <ele>1496.43</ele>
        <time>2020-07-21T10:45:42.000Z</time>
      </trkpt>
      <trkpt lat="42.9728753" lon="-5.7353018">
        <ele>1496.43</ele>
        <time>2020-07-21T10:45:43.000Z</time>
      </trkpt>
      <trkpt lat="42.9728878" lon="-5.7352993">
        <ele>1496.59</ele>
        <time>2020-07-21T10:45:44.000Z</time>
      </trkpt>
      <trkpt lat="42.9729003" lon="-5.7352978">
        <ele>1496.59</ele>
        <time>2020-07-21T10:45:45.000Z</time>
      </trkpt>
      <trkpt lat="42.9729127" lon="-5.7352967">
        <ele>1496.89</ele>
        <time>2020-07-21T10:45:46.000Z</time>
      </trkpt>
      <trkpt lat="42.972925" lon="-5.735295">
        <ele>1496.89</ele>
        <time>2020-07-21T10:45:47.000Z</time>
      </trkpt>
      <trkpt lat="42.9729373" lon="-5.7352932">
        <ele>1497.04</ele>
        <time>2020-07-21T10:45:48.000Z</time>
      </trkpt>
      <trkpt lat="42.9729495" lon="-5.7352925">
        <ele>1497.04</ele>
        <time>2020-07-21T10:45:49.000Z</time>
      </trkpt>
      <trkpt lat="42.9729613" lon="-5.7352925">
        <ele>1497.35</ele>
        <time>2020-07-21T10:45:50.000Z</time>
      </trkpt>
      <trkpt lat="42.9729738" lon="-5.7352918">
        <ele>1497.35</ele>
        <time>2020-07-21T10:45:51.000Z</time>
      </trkpt>
      <trkpt lat="42.972986" lon="-5.7352902">
        <ele>1497.65</ele>
        <time>2020-07-21T10:45:52.000Z</time>
      </trkpt>
      <trkpt lat="42.9729987" lon="-5.7352885">
        <ele>1497.65</ele>
        <time>2020-07-21T10:45:53.000Z</time>
      </trkpt>
      <trkpt lat="42.973011" lon="-5.7352875">
        <ele>1497.96</ele>
        <time>2020-07-21T10:45:54.000Z</time>
      </trkpt>
      <trkpt lat="42.9730228" lon="-5.7352867">
        <ele>1497.96</ele>
        <time>2020-07-21T10:45:55.000Z</time>
      </trkpt>
      <trkpt lat="42.9730353" lon="-5.7352842">
        <ele>1498.26</ele>
        <time>2020-07-21T10:45:56.000Z</time>
      </trkpt>
      <trkpt lat="42.9730487" lon="-5.7352813">
        <ele>1498.26</ele>
        <time>2020-07-21T10:45:57.000Z</time>
      </trkpt>
      <trkpt lat="42.9730615" lon="-5.7352792">
        <ele>1498.57</ele>
        <time>2020-07-21T10:45:58.000Z</time>
      </trkpt>
      <trkpt lat="42.9730757" lon="-5.7352788">
        <ele>1498.57</ele>
        <time>2020-07-21T10:45:59.000Z</time>
      </trkpt>
      <trkpt lat="42.9730895" lon="-5.7352782">
        <ele>1498.87</ele>
        <time>2020-07-21T10:46:00.000Z</time>
      </trkpt>
      <trkpt lat="42.9731038" lon="-5.7352773">
        <ele>1498.87</ele>
        <time>2020-07-21T10:46:01.000Z</time>
      </trkpt>
      <trkpt lat="42.9731153" lon="-5.7352762">
        <ele>1499.18</ele>
        <time>2020-07-21T10:46:02.000Z</time>
      </trkpt>
      <trkpt lat="42.973126" lon="-5.735274">
        <ele>1499.18</ele>
        <time>2020-07-21T10:46:03.000Z</time>
      </trkpt>
      <trkpt lat="42.9731363" lon="-5.735271">
        <ele>1499.48</ele>
        <time>2020-07-21T10:46:04.000Z</time>
      </trkpt>
      <trkpt lat="42.9731477" lon="-5.7352678">
        <ele>1499.48</ele>
        <time>2020-07-21T10:46:05.000Z</time>
      </trkpt>
      <trkpt lat="42.9731583" lon="-5.7352665">
        <ele>1499.79</ele>
        <time>2020-07-21T10:46:06.000Z</time>
      </trkpt>
      <trkpt lat="42.9731692" lon="-5.7352647">
        <ele>1499.79</ele>
        <time>2020-07-21T10:46:07.000Z</time>
      </trkpt>
      <trkpt lat="42.973179" lon="-5.7352627">
        <ele>1500.09</ele>
        <time>2020-07-21T10:46:08.000Z</time>
      </trkpt>
      <trkpt lat="42.973189" lon="-5.735261">
        <ele>1500.09</ele>
        <time>2020-07-21T10:46:09.000Z</time>
      </trkpt>
      <trkpt lat="42.9731997" lon="-5.7352603">
        <ele>1500.4</ele>
        <time>2020-07-21T10:46:10.000Z</time>
      </trkpt>
      <trkpt lat="42.97321" lon="-5.7352592">
        <ele>1500.4</ele>
        <time>2020-07-21T10:46:11.000Z</time>
      </trkpt>
      <trkpt lat="42.9732195" lon="-5.735257">
        <ele>1500.7</ele>
        <time>2020-07-21T10:46:12.000Z</time>
      </trkpt>
      <trkpt lat="42.9732282" lon="-5.7352548">
        <ele>1500.7</ele>
        <time>2020-07-21T10:46:13.000Z</time>
      </trkpt>
      <trkpt lat="42.9732383" lon="-5.7352532">
        <ele>1501.01</ele>
        <time>2020-07-21T10:46:14.000Z</time>
      </trkpt>
      <trkpt lat="42.9732493" lon="-5.7352522">
        <ele>1501.01</ele>
        <time>2020-07-21T10:46:15.000Z</time>
      </trkpt>
      <trkpt lat="42.9732608" lon="-5.735249">
        <ele>1501.31</ele>
        <time>2020-07-21T10:46:16.000Z</time>
      </trkpt>
      <trkpt lat="42.9732717" lon="-5.7352453">
        <ele>1501.31</ele>
        <time>2020-07-21T10:46:17.000Z</time>
      </trkpt>
      <trkpt lat="42.973283" lon="-5.735241">
        <ele>1501.61</ele>
        <time>2020-07-21T10:46:18.000Z</time>
      </trkpt>
      <trkpt lat="42.9732945" lon="-5.7352373">
        <ele>1501.61</ele>
        <time>2020-07-21T10:46:19.000Z</time>
      </trkpt>
      <trkpt lat="42.973306" lon="-5.7352345">
        <ele>1501.92</ele>
        <time>2020-07-21T10:46:20.000Z</time>
      </trkpt>
      <trkpt lat="42.9733168" lon="-5.7352322">
        <ele>1501.92</ele>
        <time>2020-07-21T10:46:21.000Z</time>
      </trkpt>
      <trkpt lat="42.9733275" lon="-5.7352308">
        <ele>1502.22</ele>
        <time>2020-07-21T10:46:22.000Z</time>
      </trkpt>
      <trkpt lat="42.9733395" lon="-5.7352295">
        <ele>1502.22</ele>
        <time>2020-07-21T10:46:23.000Z</time>
      </trkpt>
      <trkpt lat="42.973352" lon="-5.735229">
        <ele>1502.53</ele>
        <time>2020-07-21T10:46:24.000Z</time>
      </trkpt>
      <trkpt lat="42.973364" lon="-5.735228">
        <ele>1502.53</ele>
        <time>2020-07-21T10:46:25.000Z</time>
      </trkpt>
      <trkpt lat="42.9733753" lon="-5.7352272">
        <ele>1502.68</ele>
        <time>2020-07-21T10:46:26.000Z</time>
      </trkpt>
      <trkpt lat="42.9733865" lon="-5.7352255">
        <ele>1502.68</ele>
        <time>2020-07-21T10:46:27.000Z</time>
      </trkpt>
      <trkpt lat="42.973398" lon="-5.7352248">
        <ele>1502.99</ele>
        <time>2020-07-21T10:46:28.000Z</time>
      </trkpt>
      <trkpt lat="42.9734098" lon="-5.7352242">
        <ele>1502.99</ele>
        <time>2020-07-21T10:46:29.000Z</time>
      </trkpt>
      <trkpt lat="42.973422" lon="-5.7352235">
        <ele>1503.14</ele>
        <time>2020-07-21T10:46:30.000Z</time>
      </trkpt>
      <trkpt lat="42.9734352" lon="-5.7352218">
        <ele>1503.14</ele>
        <time>2020-07-21T10:46:31.000Z</time>
      </trkpt>
      <trkpt lat="42.973448" lon="-5.7352197">
        <ele>1503.29</ele>
        <time>2020-07-21T10:46:32.000Z</time>
      </trkpt>
      <trkpt lat="42.9734607" lon="-5.7352173">
        <ele>1503.29</ele>
        <time>2020-07-21T10:46:33.000Z</time>
      </trkpt>
      <trkpt lat="42.9734713" lon="-5.7352157">
        <ele>1503.6</ele>
        <time>2020-07-21T10:46:34.000Z</time>
      </trkpt>
      <trkpt lat="42.9734812" lon="-5.735215">
        <ele>1503.6</ele>
        <time>2020-07-21T10:46:35.000Z</time>
      </trkpt>
      <trkpt lat="42.9734915" lon="-5.7352152">
        <ele>1503.75</ele>
        <time>2020-07-21T10:46:36.000Z</time>
      </trkpt>
      <trkpt lat="42.9735027" lon="-5.7352153">
        <ele>1503.75</ele>
        <time>2020-07-21T10:46:37.000Z</time>
      </trkpt>
      <trkpt lat="42.9735137" lon="-5.7352155">
        <ele>1503.9</ele>
        <time>2020-07-21T10:46:38.000Z</time>
      </trkpt>
      <trkpt lat="42.9735252" lon="-5.735216">
        <ele>1503.9</ele>
        <time>2020-07-21T10:46:39.000Z</time>
      </trkpt>
      <trkpt lat="42.9735387" lon="-5.7352158">
        <ele>1504.21</ele>
        <time>2020-07-21T10:46:40.000Z</time>
      </trkpt>
      <trkpt lat="42.9735528" lon="-5.7352147">
        <ele>1504.21</ele>
        <time>2020-07-21T10:46:41.000Z</time>
      </trkpt>
      <trkpt lat="42.973567" lon="-5.7352133">
        <ele>1504.36</ele>
        <time>2020-07-21T10:46:42.000Z</time>
      </trkpt>
      <trkpt lat="42.9735793" lon="-5.7352132">
        <ele>1504.36</ele>
        <time>2020-07-21T10:46:43.000Z</time>
      </trkpt>
      <trkpt lat="42.9735925" lon="-5.7352138">
        <ele>1504.51</ele>
        <time>2020-07-21T10:46:44.000Z</time>
      </trkpt>
      <trkpt lat="42.9736055" lon="-5.735215">
        <ele>1504.51</ele>
        <time>2020-07-21T10:46:45.000Z</time>
      </trkpt>
      <trkpt lat="42.9736212" lon="-5.7352147">
        <ele>1504.82</ele>
        <time>2020-07-21T10:46:46.000Z</time>
      </trkpt>
      <trkpt lat="42.9736368" lon="-5.7352123">
        <ele>1504.82</ele>
        <time>2020-07-21T10:46:47.000Z</time>
      </trkpt>
      <trkpt lat="42.973652" lon="-5.7352092">
        <ele>1504.97</ele>
        <time>2020-07-21T10:46:48.000Z</time>
      </trkpt>
      <trkpt lat="42.9736645" lon="-5.7352067">
        <ele>1504.97</ele>
        <time>2020-07-21T10:46:49.000Z</time>
      </trkpt>
      <trkpt lat="42.9736755" lon="-5.7352055">
        <ele>1505.27</ele>
        <time>2020-07-21T10:46:50.000Z</time>
      </trkpt>
      <trkpt lat="42.9736867" lon="-5.7352048">
        <ele>1505.27</ele>
        <time>2020-07-21T10:46:51.000Z</time>
      </trkpt>
      <trkpt lat="42.9736972" lon="-5.7352043">
        <ele>1505.58</ele>
        <time>2020-07-21T10:46:52.000Z</time>
      </trkpt>
      <trkpt lat="42.973709" lon="-5.7352022">
        <ele>1505.58</ele>
        <time>2020-07-21T10:46:53.000Z</time>
      </trkpt>
      <trkpt lat="42.9737182" lon="-5.7352">
        <ele>1505.73</ele>
        <time>2020-07-21T10:46:54.000Z</time>
      </trkpt>
      <trkpt lat="42.9737232" lon="-5.7351983">
        <ele>1505.73</ele>
        <time>2020-07-21T10:46:55.000Z</time>
      </trkpt>
      <trkpt lat="42.9737237" lon="-5.735199">
        <ele>1506.04</ele>
        <time>2020-07-21T10:46:56.000Z</time>
      </trkpt>
      <trkpt lat="42.9737232" lon="-5.7351992">
        <ele>1506.04</ele>
        <time>2020-07-21T10:46:57.000Z</time>
      </trkpt>
      <trkpt lat="42.9737248" lon="-5.7351982">
        <ele>1506.34</ele>
        <time>2020-07-21T10:46:58.000Z</time>
      </trkpt>
      <trkpt lat="42.9737268" lon="-5.735197">
        <ele>1506.34</ele>
        <time>2020-07-21T10:46:59.000Z</time>
      </trkpt>
      <trkpt lat="42.973729" lon="-5.7351967">
        <ele>1506.65</ele>
        <time>2020-07-21T10:47:00.000Z</time>
      </trkpt>
      <trkpt lat="42.9737307" lon="-5.7351973">
        <ele>1506.65</ele>
        <time>2020-07-21T10:47:01.000Z</time>
      </trkpt>
      <trkpt lat="42.9737317" lon="-5.7351977">
        <ele>1506.8</ele>
        <time>2020-07-21T10:47:02.000Z</time>
      </trkpt>
      <trkpt lat="42.973732" lon="-5.7351973">
        <ele>1506.8</ele>
        <time>2020-07-21T10:47:03.000Z</time>
      </trkpt>
      <trkpt lat="42.973733" lon="-5.7351955">
        <ele>1507.1</ele>
        <time>2020-07-21T10:47:04.000Z</time>
      </trkpt>
      <trkpt lat="42.973734" lon="-5.7351935">
        <ele>1507.1</ele>
        <time>2020-07-21T10:47:05.000Z</time>
      </trkpt>
      <trkpt lat="42.9737353" lon="-5.7351918">
        <ele>1507.41</ele>
        <time>2020-07-21T10:47:06.000Z</time>
      </trkpt>
      <trkpt lat="42.9737357" lon="-5.7351915">
        <ele>1507.41</ele>
        <time>2020-07-21T10:47:07.000Z</time>
      </trkpt>
      <trkpt lat="42.973736" lon="-5.7351912">
        <ele>1507.56</ele>
        <time>2020-07-21T10:47:08.000Z</time>
      </trkpt>
      <trkpt lat="42.9737365" lon="-5.735191">
        <ele>1507.56</ele>
        <time>2020-07-21T10:47:09.000Z</time>
      </trkpt>
      <trkpt lat="42.9737368" lon="-5.7351917">
        <ele>1507.86</ele>
        <time>2020-07-21T10:47:10.000Z</time>
      </trkpt>
      <trkpt lat="42.9737372" lon="-5.7351922">
        <ele>1507.86</ele>
        <time>2020-07-21T10:47:11.000Z</time>
      </trkpt>
      <trkpt lat="42.9737375" lon="-5.7351917">
        <ele>1508.17</ele>
        <time>2020-07-21T10:47:12.000Z</time>
      </trkpt>
      <trkpt lat="42.9737377" lon="-5.7351908">
        <ele>1508.17</ele>
        <time>2020-07-21T10:47:13.000Z</time>
      </trkpt>
      <trkpt lat="42.9737368" lon="-5.7351915">
        <ele>1508.47</ele>
        <time>2020-07-21T10:47:14.000Z</time>
      </trkpt>
      <trkpt lat="42.9737353" lon="-5.735193">
        <ele>1508.47</ele>
        <time>2020-07-21T10:47:15.000Z</time>
      </trkpt>
      <trkpt lat="42.973734" lon="-5.7351947">
        <ele>1508.78</ele>
        <time>2020-07-21T10:47:16.000Z</time>
      </trkpt>
      <trkpt lat="42.9737337" lon="-5.7351955">
        <ele>1508.78</ele>
        <time>2020-07-21T10:47:17.000Z</time>
      </trkpt>
      <trkpt lat="42.9737335" lon="-5.7351967">
        <ele>1509.08</ele>
        <time>2020-07-21T10:47:18.000Z</time>
      </trkpt>
      <trkpt lat="42.9737333" lon="-5.7351978">
        <ele>1509.08</ele>
        <time>2020-07-21T10:47:19.000Z</time>
      </trkpt>
      <trkpt lat="42.9737333" lon="-5.7351993">
        <ele>1509.39</ele>
        <time>2020-07-21T10:47:20.000Z</time>
      </trkpt>
      <trkpt lat="42.9737343" lon="-5.7352007">
        <ele>1509.39</ele>
        <time>2020-07-21T10:47:21.000Z</time>
      </trkpt>
      <trkpt lat="42.9737373" lon="-5.7352023">
        <ele>1509.54</ele>
        <time>2020-07-21T10:47:22.000Z</time>
      </trkpt>
      <trkpt lat="42.9737427" lon="-5.7352037">
        <ele>1509.54</ele>
        <time>2020-07-21T10:47:23.000Z</time>
      </trkpt>
      <trkpt lat="42.9737487" lon="-5.7352045">
        <ele>1509.84</ele>
        <time>2020-07-21T10:47:24.000Z</time>
      </trkpt>
      <trkpt lat="42.9737558" lon="-5.7352042">
        <ele>1509.84</ele>
        <time>2020-07-21T10:47:25.000Z</time>
      </trkpt>
      <trkpt lat="42.9737633" lon="-5.7352033">
        <ele>1510.15</ele>
        <time>2020-07-21T10:47:26.000Z</time>
      </trkpt>
      <trkpt lat="42.9737727" lon="-5.7352023">
        <ele>1510.15</ele>
        <time>2020-07-21T10:47:27.000Z</time>
      </trkpt>
      <trkpt lat="42.9737813" lon="-5.7352008">
        <ele>1510.45</ele>
        <time>2020-07-21T10:47:28.000Z</time>
      </trkpt>
      <trkpt lat="42.9737905" lon="-5.7352002">
        <ele>1510.45</ele>
        <time>2020-07-21T10:47:29.000Z</time>
      </trkpt>
      <trkpt lat="42.9737987" lon="-5.7351993">
        <ele>1510.76</ele>
        <time>2020-07-21T10:47:30.000Z</time>
      </trkpt>
      <trkpt lat="42.9738068" lon="-5.7351993">
        <ele>1510.76</ele>
        <time>2020-07-21T10:47:31.000Z</time>
      </trkpt>
      <trkpt lat="42.9738148" lon="-5.7351992">
        <ele>1511.06</ele>
        <time>2020-07-21T10:47:32.000Z</time>
      </trkpt>
      <trkpt lat="42.9738235" lon="-5.735199">
        <ele>1511.06</ele>
        <time>2020-07-21T10:47:33.000Z</time>
      </trkpt>
      <trkpt lat="42.9738322" lon="-5.7351977">
        <ele>1511.37</ele>
        <time>2020-07-21T10:47:34.000Z</time>
      </trkpt>
      <trkpt lat="42.9738405" lon="-5.7351957">
        <ele>1511.37</ele>
        <time>2020-07-21T10:47:35.000Z</time>
      </trkpt>
      <trkpt lat="42.973849" lon="-5.7351935">
        <ele>1511.67</ele>
        <time>2020-07-21T10:47:36.000Z</time>
      </trkpt>
      <trkpt lat="42.9738572" lon="-5.7351928">
        <ele>1511.67</ele>
        <time>2020-07-21T10:47:37.000Z</time>
      </trkpt>
      <trkpt lat="42.9738653" lon="-5.7351912">
        <ele>1511.83</ele>
        <time>2020-07-21T10:47:38.000Z</time>
      </trkpt>
      <trkpt lat="42.9738747" lon="-5.7351903">
        <ele>1511.83</ele>
        <time>2020-07-21T10:47:39.000Z</time>
      </trkpt>
      <trkpt lat="42.9738865" lon="-5.7351895">
        <ele>1512.13</ele>
        <time>2020-07-21T10:47:40.000Z</time>
      </trkpt>
      <trkpt lat="42.9739007" lon="-5.7351893">
        <ele>1512.13</ele>
        <time>2020-07-21T10:47:41.000Z</time>
      </trkpt>
      <trkpt lat="42.9739133" lon="-5.7351892">
        <ele>1512.44</ele>
        <time>2020-07-21T10:47:42.000Z</time>
      </trkpt>
      <trkpt lat="42.973928" lon="-5.7351882">
        <ele>1512.44</ele>
        <time>2020-07-21T10:47:43.000Z</time>
      </trkpt>
      <trkpt lat="42.9739422" lon="-5.7351868">
        <ele>1512.59</ele>
        <time>2020-07-21T10:47:44.000Z</time>
      </trkpt>
      <trkpt lat="42.9739585" lon="-5.7351855">
        <ele>1512.59</ele>
        <time>2020-07-21T10:47:45.000Z</time>
      </trkpt>
      <trkpt lat="42.9739733" lon="-5.735185">
        <ele>1512.89</ele>
        <time>2020-07-21T10:47:46.000Z</time>
      </trkpt>
      <trkpt lat="42.973987" lon="-5.7351855">
        <ele>1512.89</ele>
        <time>2020-07-21T10:47:47.000Z</time>
      </trkpt>
      <trkpt lat="42.9740008" lon="-5.735186">
        <ele>1513.05</ele>
        <time>2020-07-21T10:47:48.000Z</time>
      </trkpt>
      <trkpt lat="42.9740142" lon="-5.7351872">
        <ele>1513.05</ele>
        <time>2020-07-21T10:47:49.000Z</time>
      </trkpt>
      <trkpt lat="42.974028" lon="-5.7351883">
        <ele>1513.35</ele>
        <time>2020-07-21T10:47:50.000Z</time>
      </trkpt>
      <trkpt lat="42.974041" lon="-5.7351902">
        <ele>1513.35</ele>
        <time>2020-07-21T10:47:51.000Z</time>
      </trkpt>
      <trkpt lat="42.9740535" lon="-5.7351908">
        <ele>1513.5</ele>
        <time>2020-07-21T10:47:52.000Z</time>
      </trkpt>
      <trkpt lat="42.974066" lon="-5.7351908">
        <ele>1513.5</ele>
        <time>2020-07-21T10:47:53.000Z</time>
      </trkpt>
      <trkpt lat="42.9740782" lon="-5.7351905">
        <ele>1513.66</ele>
        <time>2020-07-21T10:47:54.000Z</time>
      </trkpt>
      <trkpt lat="42.9740913" lon="-5.73519">
        <ele>1513.66</ele>
        <time>2020-07-21T10:47:55.000Z</time>
      </trkpt>
      <trkpt lat="42.9741042" lon="-5.7351898">
        <ele>1513.96</ele>
        <time>2020-07-21T10:47:56.000Z</time>
      </trkpt>
      <trkpt lat="42.9741162" lon="-5.7351893">
        <ele>1513.96</ele>
        <time>2020-07-21T10:47:57.000Z</time>
      </trkpt>
      <trkpt lat="42.974128" lon="-5.7351878">
        <ele>1514.27</ele>
        <time>2020-07-21T10:47:58.000Z</time>
      </trkpt>
      <trkpt lat="42.9741395" lon="-5.7351867">
        <ele>1514.27</ele>
        <time>2020-07-21T10:47:59.000Z</time>
      </trkpt>
      <trkpt lat="42.9741517" lon="-5.7351873">
        <ele>1514.42</ele>
        <time>2020-07-21T10:48:00.000Z</time>
      </trkpt>
      <trkpt lat="42.9741623" lon="-5.735189">
        <ele>1514.42</ele>
        <time>2020-07-21T10:48:01.000Z</time>
      </trkpt>
      <trkpt lat="42.9741735" lon="-5.7351882">
        <ele>1514.72</ele>
        <time>2020-07-21T10:48:02.000Z</time>
      </trkpt>
      <trkpt lat="42.9741838" lon="-5.7351862">
        <ele>1514.72</ele>
        <time>2020-07-21T10:48:03.000Z</time>
      </trkpt>
      <trkpt lat="42.9741955" lon="-5.7351848">
        <ele>1515.03</ele>
        <time>2020-07-21T10:48:04.000Z</time>
      </trkpt>
      <trkpt lat="42.9742065" lon="-5.7351848">
        <ele>1515.03</ele>
        <time>2020-07-21T10:48:05.000Z</time>
      </trkpt>
      <trkpt lat="42.9742175" lon="-5.7351838">
        <ele>1515.33</ele>
        <time>2020-07-21T10:48:06.000Z</time>
      </trkpt>
      <trkpt lat="42.9742277" lon="-5.735183">
        <ele>1515.33</ele>
        <time>2020-07-21T10:48:07.000Z</time>
      </trkpt>
      <trkpt lat="42.9742373" lon="-5.7351823">
        <ele>1515.64</ele>
        <time>2020-07-21T10:48:08.000Z</time>
      </trkpt>
      <trkpt lat="42.9742465" lon="-5.7351827">
        <ele>1515.64</ele>
        <time>2020-07-21T10:48:09.000Z</time>
      </trkpt>
      <trkpt lat="42.9742573" lon="-5.7351832">
        <ele>1515.94</ele>
        <time>2020-07-21T10:48:10.000Z</time>
      </trkpt>
      <trkpt lat="42.9742695" lon="-5.735184">
        <ele>1515.94</ele>
        <time>2020-07-21T10:48:11.000Z</time>
      </trkpt>
      <trkpt lat="42.974283" lon="-5.7351858">
        <ele>1516.25</ele>
        <time>2020-07-21T10:48:12.000Z</time>
      </trkpt>
      <trkpt lat="42.9742958" lon="-5.7351872">
        <ele>1516.25</ele>
        <time>2020-07-21T10:48:13.000Z</time>
      </trkpt>
      <trkpt lat="42.9743087" lon="-5.7351883">
        <ele>1516.55</ele>
        <time>2020-07-21T10:48:14.000Z</time>
      </trkpt>
      <trkpt lat="42.9743222" lon="-5.735188">
        <ele>1516.55</ele>
        <time>2020-07-21T10:48:15.000Z</time>
      </trkpt>
      <trkpt lat="42.974336" lon="-5.7351858">
        <ele>1516.7</ele>
        <time>2020-07-21T10:48:16.000Z</time>
      </trkpt>
      <trkpt lat="42.9743515" lon="-5.7351867">
        <ele>1516.7</ele>
        <time>2020-07-21T10:48:17.000Z</time>
      </trkpt>
      <trkpt lat="42.9743653" lon="-5.735188">
        <ele>1517.01</ele>
        <time>2020-07-21T10:48:18.000Z</time>
      </trkpt>
      <trkpt lat="42.9743785" lon="-5.7351908">
        <ele>1517.01</ele>
        <time>2020-07-21T10:48:19.000Z</time>
      </trkpt>
      <trkpt lat="42.9743895" lon="-5.7351903">
        <ele>1517.31</ele>
        <time>2020-07-21T10:48:20.000Z</time>
      </trkpt>
      <trkpt lat="42.9744012" lon="-5.7351888">
        <ele>1517.31</ele>
        <time>2020-07-21T10:48:21.000Z</time>
      </trkpt>
      <trkpt lat="42.9744133" lon="-5.7351897">
        <ele>1517.62</ele>
        <time>2020-07-21T10:48:22.000Z</time>
      </trkpt>
      <trkpt lat="42.9744253" lon="-5.7351923">
        <ele>1517.62</ele>
        <time>2020-07-21T10:48:23.000Z</time>
      </trkpt>
      <trkpt lat="42.9744365" lon="-5.7351958">
        <ele>1517.92</ele>
        <time>2020-07-21T10:48:24.000Z</time>
      </trkpt>
      <trkpt lat="42.974447" lon="-5.7351968">
        <ele>1517.92</ele>
        <time>2020-07-21T10:48:25.000Z</time>
      </trkpt>
      <trkpt lat="42.9744563" lon="-5.7351972">
        <ele>1518.07</ele>
        <time>2020-07-21T10:48:26.000Z</time>
      </trkpt>
      <trkpt lat="42.9744667" lon="-5.7351973">
        <ele>1518.07</ele>
        <time>2020-07-21T10:48:27.000Z</time>
      </trkpt>
      <trkpt lat="42.9744777" lon="-5.7351983">
        <ele>1518.38</ele>
        <time>2020-07-21T10:48:28.000Z</time>
      </trkpt>
      <trkpt lat="42.9744898" lon="-5.7351993">
        <ele>1518.38</ele>
        <time>2020-07-21T10:48:29.000Z</time>
      </trkpt>
      <trkpt lat="42.9745015" lon="-5.7352012">
        <ele>1518.68</ele>
        <time>2020-07-21T10:48:30.000Z</time>
      </trkpt>
      <trkpt lat="42.9745125" lon="-5.7352025">
        <ele>1518.68</ele>
        <time>2020-07-21T10:48:31.000Z</time>
      </trkpt>
      <trkpt lat="42.974523" lon="-5.7352042">
        <ele>1518.84</ele>
        <time>2020-07-21T10:48:32.000Z</time>
      </trkpt>
      <trkpt lat="42.974533" lon="-5.735206">
        <ele>1518.84</ele>
        <time>2020-07-21T10:48:33.000Z</time>
      </trkpt>
      <trkpt lat="42.974543" lon="-5.7352085">
        <ele>1519.14</ele>
        <time>2020-07-21T10:48:34.000Z</time>
      </trkpt>
      <trkpt lat="42.9745533" lon="-5.7352107">
        <ele>1519.14</ele>
        <time>2020-07-21T10:48:35.000Z</time>
      </trkpt>
      <trkpt lat="42.974565" lon="-5.7352127">
        <ele>1519.45</ele>
        <time>2020-07-21T10:48:36.000Z</time>
      </trkpt>
      <trkpt lat="42.9745763" lon="-5.7352148">
        <ele>1519.45</ele>
        <time>2020-07-21T10:48:37.000Z</time>
      </trkpt>
      <trkpt lat="42.9745875" lon="-5.735218">
        <ele>1519.6</ele>
        <time>2020-07-21T10:48:38.000Z</time>
      </trkpt>
      <trkpt lat="42.9745977" lon="-5.7352207">
        <ele>1519.6</ele>
        <time>2020-07-21T10:48:39.000Z</time>
      </trkpt>
      <trkpt lat="42.9746077" lon="-5.7352228">
        <ele>1519.9</ele>
        <time>2020-07-21T10:48:40.000Z</time>
      </trkpt>
      <trkpt lat="42.9746185" lon="-5.7352247">
        <ele>1519.9</ele>
        <time>2020-07-21T10:48:41.000Z</time>
      </trkpt>
      <trkpt lat="42.9746298" lon="-5.7352262">
        <ele>1520.21</ele>
        <time>2020-07-21T10:48:42.000Z</time>
      </trkpt>
      <trkpt lat="42.9746412" lon="-5.7352275">
        <ele>1520.21</ele>
        <time>2020-07-21T10:48:43.000Z</time>
      </trkpt>
      <trkpt lat="42.9746512" lon="-5.735229">
        <ele>1520.51</ele>
        <time>2020-07-21T10:48:44.000Z</time>
      </trkpt>
      <trkpt lat="42.9746607" lon="-5.7352295">
        <ele>1520.51</ele>
        <time>2020-07-21T10:48:45.000Z</time>
      </trkpt>
      <trkpt lat="42.9746707" lon="-5.7352298">
        <ele>1520.97</ele>
        <time>2020-07-21T10:48:46.000Z</time>
      </trkpt>
      <trkpt lat="42.9746823" lon="-5.7352298">
        <ele>1520.97</ele>
        <time>2020-07-21T10:48:47.000Z</time>
      </trkpt>
      <trkpt lat="42.9746945" lon="-5.7352307">
        <ele>1521.28</ele>
        <time>2020-07-21T10:48:48.000Z</time>
      </trkpt>
      <trkpt lat="42.9747065" lon="-5.7352317">
        <ele>1521.28</ele>
        <time>2020-07-21T10:48:49.000Z</time>
      </trkpt>
      <trkpt lat="42.974718" lon="-5.735233">
        <ele>1521.58</ele>
        <time>2020-07-21T10:48:50.000Z</time>
      </trkpt>
      <trkpt lat="42.9747305" lon="-5.7352333">
        <ele>1521.58</ele>
        <time>2020-07-21T10:48:51.000Z</time>
      </trkpt>
      <trkpt lat="42.974744" lon="-5.7352332">
        <ele>1521.89</ele>
        <time>2020-07-21T10:48:52.000Z</time>
      </trkpt>
      <trkpt lat="42.974758" lon="-5.7352338">
        <ele>1521.89</ele>
        <time>2020-07-21T10:48:53.000Z</time>
      </trkpt>
      <trkpt lat="42.974772" lon="-5.7352357">
        <ele>1522.34</ele>
        <time>2020-07-21T10:48:54.000Z</time>
      </trkpt>
      <trkpt lat="42.9747855" lon="-5.7352373">
        <ele>1522.34</ele>
        <time>2020-07-21T10:48:55.000Z</time>
      </trkpt>
      <trkpt lat="42.9747983" lon="-5.7352382">
        <ele>1522.65</ele>
        <time>2020-07-21T10:48:56.000Z</time>
      </trkpt>
      <trkpt lat="42.97481" lon="-5.735239">
        <ele>1522.65</ele>
        <time>2020-07-21T10:48:57.000Z</time>
      </trkpt>
      <trkpt lat="42.9748225" lon="-5.7352407">
        <ele>1523.1</ele>
        <time>2020-07-21T10:48:58.000Z</time>
      </trkpt>
      <trkpt lat="42.9748347" lon="-5.7352415">
        <ele>1523.1</ele>
        <time>2020-07-21T10:48:59.000Z</time>
      </trkpt>
      <trkpt lat="42.9748462" lon="-5.7352418">
        <ele>1523.56</ele>
        <time>2020-07-21T10:49:00.000Z</time>
      </trkpt>
      <trkpt lat="42.9748572" lon="-5.7352422">
        <ele>1523.56</ele>
        <time>2020-07-21T10:49:01.000Z</time>
      </trkpt>
      <trkpt lat="42.9748687" lon="-5.7352435">
        <ele>1523.87</ele>
        <time>2020-07-21T10:49:02.000Z</time>
      </trkpt>
      <trkpt lat="42.9748815" lon="-5.7352445">
        <ele>1523.87</ele>
        <time>2020-07-21T10:49:03.000Z</time>
      </trkpt>
      <trkpt lat="42.9748933" lon="-5.7352452">
        <ele>1524.32</ele>
        <time>2020-07-21T10:49:04.000Z</time>
      </trkpt>
      <trkpt lat="42.9749055" lon="-5.7352452">
        <ele>1524.32</ele>
        <time>2020-07-21T10:49:05.000Z</time>
      </trkpt>
      <trkpt lat="42.9749162" lon="-5.735246">
        <ele>1524.63</ele>
        <time>2020-07-21T10:49:06.000Z</time>
      </trkpt>
      <trkpt lat="42.974927" lon="-5.7352473">
        <ele>1524.63</ele>
        <time>2020-07-21T10:49:07.000Z</time>
      </trkpt>
      <trkpt lat="42.9749368" lon="-5.7352493">
        <ele>1525.08</ele>
        <time>2020-07-21T10:49:08.000Z</time>
      </trkpt>
      <trkpt lat="42.974946" lon="-5.7352512">
        <ele>1525.08</ele>
        <time>2020-07-21T10:49:09.000Z</time>
      </trkpt>
      <trkpt lat="42.9749552" lon="-5.7352525">
        <ele>1525.54</ele>
        <time>2020-07-21T10:49:10.000Z</time>
      </trkpt>
      <trkpt lat="42.9749647" lon="-5.7352533">
        <ele>1525.54</ele>
        <time>2020-07-21T10:49:11.000Z</time>
      </trkpt>
      <trkpt lat="42.9749755" lon="-5.7352535">
        <ele>1526</ele>
        <time>2020-07-21T10:49:12.000Z</time>
      </trkpt>
      <trkpt lat="42.9749862" lon="-5.7352537">
        <ele>1526</ele>
        <time>2020-07-21T10:49:13.000Z</time>
      </trkpt>
      <trkpt lat="42.9749965" lon="-5.7352537">
        <ele>1526.46</ele>
        <time>2020-07-21T10:49:14.000Z</time>
      </trkpt>
      <trkpt lat="42.9750055" lon="-5.7352535">
        <ele>1526.46</ele>
        <time>2020-07-21T10:49:15.000Z</time>
      </trkpt>
      <trkpt lat="42.9750142" lon="-5.7352528">
        <ele>1526.76</ele>
        <time>2020-07-21T10:49:16.000Z</time>
      </trkpt>
      <trkpt lat="42.9750235" lon="-5.7352518">
        <ele>1526.76</ele>
        <time>2020-07-21T10:49:17.000Z</time>
      </trkpt>
      <trkpt lat="42.9750333" lon="-5.7352515">
        <ele>1527.22</ele>
        <time>2020-07-21T10:49:18.000Z</time>
      </trkpt>
      <trkpt lat="42.9750438" lon="-5.7352513">
        <ele>1527.22</ele>
        <time>2020-07-21T10:49:19.000Z</time>
      </trkpt>
      <trkpt lat="42.9750542" lon="-5.7352507">
        <ele>1527.68</ele>
        <time>2020-07-21T10:49:20.000Z</time>
      </trkpt>
      <trkpt lat="42.9750642" lon="-5.73525">
        <ele>1527.68</ele>
        <time>2020-07-21T10:49:21.000Z</time>
      </trkpt>
      <trkpt lat="42.9750747" lon="-5.7352498">
        <ele>1528.13</ele>
        <time>2020-07-21T10:49:22.000Z</time>
      </trkpt>
      <trkpt lat="42.9750852" lon="-5.7352498">
        <ele>1528.13</ele>
        <time>2020-07-21T10:49:23.000Z</time>
      </trkpt>
      <trkpt lat="42.9750975" lon="-5.7352497">
        <ele>1528.59</ele>
        <time>2020-07-21T10:49:24.000Z</time>
      </trkpt>
      <trkpt lat="42.9751092" lon="-5.7352493">
        <ele>1528.59</ele>
        <time>2020-07-21T10:49:25.000Z</time>
      </trkpt>
      <trkpt lat="42.9751207" lon="-5.7352493">
        <ele>1529.05</ele>
        <time>2020-07-21T10:49:26.000Z</time>
      </trkpt>
      <trkpt lat="42.9751313" lon="-5.735249">
        <ele>1529.05</ele>
        <time>2020-07-21T10:49:27.000Z</time>
      </trkpt>
      <trkpt lat="42.9751428" lon="-5.7352463">
        <ele>1529.35</ele>
        <time>2020-07-21T10:49:28.000Z</time>
      </trkpt>
      <trkpt lat="42.9751548" lon="-5.7352433">
        <ele>1529.35</ele>
        <time>2020-07-21T10:49:29.000Z</time>
      </trkpt>
      <trkpt lat="42.9751657" lon="-5.7352405">
        <ele>1529.81</ele>
        <time>2020-07-21T10:49:30.000Z</time>
      </trkpt>
      <trkpt lat="42.9751767" lon="-5.7352395">
        <ele>1529.81</ele>
        <time>2020-07-21T10:49:31.000Z</time>
      </trkpt>
      <trkpt lat="42.975188" lon="-5.7352388">
        <ele>1530.27</ele>
        <time>2020-07-21T10:49:32.000Z</time>
      </trkpt>
      <trkpt lat="42.9751995" lon="-5.7352388">
        <ele>1530.27</ele>
        <time>2020-07-21T10:49:33.000Z</time>
      </trkpt>
      <trkpt lat="42.9752105" lon="-5.7352385">
        <ele>1530.72</ele>
        <time>2020-07-21T10:49:34.000Z</time>
      </trkpt>
      <trkpt lat="42.9752202" lon="-5.735238">
        <ele>1530.72</ele>
        <time>2020-07-21T10:49:35.000Z</time>
      </trkpt>
      <trkpt lat="42.975233" lon="-5.7352363">
        <ele>1531.03</ele>
        <time>2020-07-21T10:49:36.000Z</time>
      </trkpt>
      <trkpt lat="42.975247" lon="-5.7352333">
        <ele>1531.03</ele>
        <time>2020-07-21T10:49:37.000Z</time>
      </trkpt>
      <trkpt lat="42.9752623" lon="-5.7352297">
        <ele>1531.49</ele>
        <time>2020-07-21T10:49:38.000Z</time>
      </trkpt>
      <trkpt lat="42.9752743" lon="-5.7352258">
        <ele>1531.49</ele>
        <time>2020-07-21T10:49:39.000Z</time>
      </trkpt>
      <trkpt lat="42.975285" lon="-5.7352228">
        <ele>1531.94</ele>
        <time>2020-07-21T10:49:40.000Z</time>
      </trkpt>
      <trkpt lat="42.9752953" lon="-5.7352197">
        <ele>1531.94</ele>
        <time>2020-07-21T10:49:41.000Z</time>
      </trkpt>
      <trkpt lat="42.9753057" lon="-5.735216">
        <ele>1532.4</ele>
        <time>2020-07-21T10:49:42.000Z</time>
      </trkpt>
      <trkpt lat="42.9753173" lon="-5.7352133">
        <ele>1532.4</ele>
        <time>2020-07-21T10:49:43.000Z</time>
      </trkpt>
      <trkpt lat="42.9753287" lon="-5.7352118">
        <ele>1532.86</ele>
        <time>2020-07-21T10:49:44.000Z</time>
      </trkpt>
      <trkpt lat="42.9753412" lon="-5.7352102">
        <ele>1532.86</ele>
        <time>2020-07-21T10:49:45.000Z</time>
      </trkpt>
      <trkpt lat="42.975352" lon="-5.735207">
        <ele>1533.16</ele>
        <time>2020-07-21T10:49:46.000Z</time>
      </trkpt>
      <trkpt lat="42.9753635" lon="-5.7352015">
        <ele>1533.16</ele>
        <time>2020-07-21T10:49:47.000Z</time>
      </trkpt>
      <trkpt lat="42.9753743" lon="-5.7351963">
        <ele>1533.62</ele>
        <time>2020-07-21T10:49:48.000Z</time>
      </trkpt>
      <trkpt lat="42.9753852" lon="-5.7351928">
        <ele>1533.62</ele>
        <time>2020-07-21T10:49:49.000Z</time>
      </trkpt>
      <trkpt lat="42.975397" lon="-5.735192">
        <ele>1534.08</ele>
        <time>2020-07-21T10:49:50.000Z</time>
      </trkpt>
      <trkpt lat="42.9754088" lon="-5.7351903">
        <ele>1534.08</ele>
        <time>2020-07-21T10:49:51.000Z</time>
      </trkpt>
      <trkpt lat="42.9754217" lon="-5.7351873">
        <ele>1534.38</ele>
        <time>2020-07-21T10:49:52.000Z</time>
      </trkpt>
      <trkpt lat="42.975433" lon="-5.7351835">
        <ele>1534.38</ele>
        <time>2020-07-21T10:49:53.000Z</time>
      </trkpt>
      <trkpt lat="42.9754435" lon="-5.7351822">
        <ele>1534.84</ele>
        <time>2020-07-21T10:49:54.000Z</time>
      </trkpt>
      <trkpt lat="42.9754517" lon="-5.735182">
        <ele>1534.84</ele>
        <time>2020-07-21T10:49:55.000Z</time>
      </trkpt>
      <trkpt lat="42.97546" lon="-5.7351823">
        <ele>1535.14</ele>
        <time>2020-07-21T10:49:56.000Z</time>
      </trkpt>
      <trkpt lat="42.9754695" lon="-5.7351792">
        <ele>1535.14</ele>
        <time>2020-07-21T10:49:57.000Z</time>
      </trkpt>
      <trkpt lat="42.9754802" lon="-5.7351767">
        <ele>1535.6</ele>
        <time>2020-07-21T10:49:58.000Z</time>
      </trkpt>
      <trkpt lat="42.9754908" lon="-5.7351735">
        <ele>1535.6</ele>
        <time>2020-07-21T10:49:59.000Z</time>
      </trkpt>
      <trkpt lat="42.9755003" lon="-5.7351722">
        <ele>1535.91</ele>
        <time>2020-07-21T10:50:00.000Z</time>
      </trkpt>
      <trkpt lat="42.975509" lon="-5.73517">
        <ele>1535.91</ele>
        <time>2020-07-21T10:50:01.000Z</time>
      </trkpt>
      <trkpt lat="42.975518" lon="-5.7351673">
        <ele>1536.21</ele>
        <time>2020-07-21T10:50:02.000Z</time>
      </trkpt>
      <trkpt lat="42.9755268" lon="-5.7351662">
        <ele>1536.21</ele>
        <time>2020-07-21T10:50:03.000Z</time>
      </trkpt>
      <trkpt lat="42.9755362" lon="-5.7351652">
        <ele>1536.52</ele>
        <time>2020-07-21T10:50:04.000Z</time>
      </trkpt>
      <trkpt lat="42.9755448" lon="-5.7351648">
        <ele>1536.52</ele>
        <time>2020-07-21T10:50:05.000Z</time>
      </trkpt>
      <trkpt lat="42.9755547" lon="-5.7351625">
        <ele>1536.82</ele>
        <time>2020-07-21T10:50:06.000Z</time>
      </trkpt>
      <trkpt lat="42.9755658" lon="-5.7351593">
        <ele>1536.82</ele>
        <time>2020-07-21T10:50:07.000Z</time>
      </trkpt>
      <trkpt lat="42.9755775" lon="-5.7351557">
        <ele>1537.12</ele>
        <time>2020-07-21T10:50:08.000Z</time>
      </trkpt>
      <trkpt lat="42.9755883" lon="-5.7351532">
        <ele>1537.12</ele>
        <time>2020-07-21T10:50:09.000Z</time>
      </trkpt>
      <trkpt lat="42.975599" lon="-5.7351515">
        <ele>1537.43</ele>
        <time>2020-07-21T10:50:10.000Z</time>
      </trkpt>
      <trkpt lat="42.9756107" lon="-5.7351507">
        <ele>1537.43</ele>
        <time>2020-07-21T10:50:11.000Z</time>
      </trkpt>
      <trkpt lat="42.9756223" lon="-5.7351507">
        <ele>1537.73</ele>
        <time>2020-07-21T10:50:12.000Z</time>
      </trkpt>
      <trkpt lat="42.9756332" lon="-5.7351512">
        <ele>1537.73</ele>
        <time>2020-07-21T10:50:13.000Z</time>
      </trkpt>
      <trkpt lat="42.9756428" lon="-5.7351517">
        <ele>1538.04</ele>
        <time>2020-07-21T10:50:14.000Z</time>
      </trkpt>
      <trkpt lat="42.9756523" lon="-5.7351515">
        <ele>1538.04</ele>
        <time>2020-07-21T10:50:15.000Z</time>
      </trkpt>
      <trkpt lat="42.9756618" lon="-5.7351505">
        <ele>1538.34</ele>
        <time>2020-07-21T10:50:16.000Z</time>
      </trkpt>
      <trkpt lat="42.9756707" lon="-5.7351512">
        <ele>1538.34</ele>
        <time>2020-07-21T10:50:17.000Z</time>
      </trkpt>
      <trkpt lat="42.97568" lon="-5.735153">
        <ele>1538.8</ele>
        <time>2020-07-21T10:50:18.000Z</time>
      </trkpt>
      <trkpt lat="42.9756887" lon="-5.7351553">
        <ele>1538.8</ele>
        <time>2020-07-21T10:50:19.000Z</time>
      </trkpt>
      <trkpt lat="42.9756963" lon="-5.7351563">
        <ele>1539.11</ele>
        <time>2020-07-21T10:50:20.000Z</time>
      </trkpt>
      <trkpt lat="42.9757027" lon="-5.735158">
        <ele>1539.11</ele>
        <time>2020-07-21T10:50:21.000Z</time>
      </trkpt>
      <trkpt lat="42.975709" lon="-5.7351587">
        <ele>1539.41</ele>
        <time>2020-07-21T10:50:22.000Z</time>
      </trkpt>
      <trkpt lat="42.9757173" lon="-5.7351595">
        <ele>1539.41</ele>
        <time>2020-07-21T10:50:23.000Z</time>
      </trkpt>
      <trkpt lat="42.975727" lon="-5.735159">
        <ele>1539.72</ele>
        <time>2020-07-21T10:50:24.000Z</time>
      </trkpt>
      <trkpt lat="42.9757368" lon="-5.7351582">
        <ele>1539.72</ele>
        <time>2020-07-21T10:50:25.000Z</time>
      </trkpt>
      <trkpt lat="42.975746" lon="-5.7351577">
        <ele>1540.02</ele>
        <time>2020-07-21T10:50:26.000Z</time>
      </trkpt>
      <trkpt lat="42.9757553" lon="-5.7351583">
        <ele>1540.02</ele>
        <time>2020-07-21T10:50:27.000Z</time>
      </trkpt>
      <trkpt lat="42.975765" lon="-5.7351575">
        <ele>1540.32</ele>
        <time>2020-07-21T10:50:28.000Z</time>
      </trkpt>
      <trkpt lat="42.9757755" lon="-5.7351563">
        <ele>1540.32</ele>
        <time>2020-07-21T10:50:29.000Z</time>
      </trkpt>
      <trkpt lat="42.9757862" lon="-5.7351548">
        <ele>1540.63</ele>
        <time>2020-07-21T10:50:30.000Z</time>
      </trkpt>
      <trkpt lat="42.9757963" lon="-5.7351545">
        <ele>1540.63</ele>
        <time>2020-07-21T10:50:31.000Z</time>
      </trkpt>
      <trkpt lat="42.9758053" lon="-5.7351547">
        <ele>1540.94</ele>
        <time>2020-07-21T10:50:32.000Z</time>
      </trkpt>
      <trkpt lat="42.9758147" lon="-5.7351555">
        <ele>1540.94</ele>
        <time>2020-07-21T10:50:33.000Z</time>
      </trkpt>
      <trkpt lat="42.9758238" lon="-5.7351583">
        <ele>1541.24</ele>
        <time>2020-07-21T10:50:34.000Z</time>
      </trkpt>
      <trkpt lat="42.975834" lon="-5.7351588">
        <ele>1541.24</ele>
        <time>2020-07-21T10:50:35.000Z</time>
      </trkpt>
      <trkpt lat="42.9758445" lon="-5.735158">
        <ele>1541.55</ele>
        <time>2020-07-21T10:50:36.000Z</time>
      </trkpt>
      <trkpt lat="42.9758532" lon="-5.7351558">
        <ele>1541.55</ele>
        <time>2020-07-21T10:50:37.000Z</time>
      </trkpt>
      <trkpt lat="42.9758608" lon="-5.7351562">
        <ele>1541.85</ele>
        <time>2020-07-21T10:50:38.000Z</time>
      </trkpt>
      <trkpt lat="42.975868" lon="-5.7351577">
        <ele>1541.85</ele>
        <time>2020-07-21T10:50:39.000Z</time>
      </trkpt>
      <trkpt lat="42.975878" lon="-5.7351588">
        <ele>1542.15</ele>
        <time>2020-07-21T10:50:40.000Z</time>
      </trkpt>
      <trkpt lat="42.975889" lon="-5.735158">
        <ele>1542.15</ele>
        <time>2020-07-21T10:50:41.000Z</time>
      </trkpt>
      <trkpt lat="42.9758985" lon="-5.73516">
        <ele>1542.46</ele>
        <time>2020-07-21T10:50:42.000Z</time>
      </trkpt>
      <trkpt lat="42.975907" lon="-5.7351633">
        <ele>1542.46</ele>
        <time>2020-07-21T10:50:43.000Z</time>
      </trkpt>
      <trkpt lat="42.9759152" lon="-5.7351673">
        <ele>1542.92</ele>
        <time>2020-07-21T10:50:44.000Z</time>
      </trkpt>
      <trkpt lat="42.9759247" lon="-5.7351687">
        <ele>1542.92</ele>
        <time>2020-07-21T10:50:45.000Z</time>
      </trkpt>
      <trkpt lat="42.9759352" lon="-5.7351695">
        <ele>1543.22</ele>
        <time>2020-07-21T10:50:46.000Z</time>
      </trkpt>
      <trkpt lat="42.9759455" lon="-5.735171">
        <ele>1543.22</ele>
        <time>2020-07-21T10:50:47.000Z</time>
      </trkpt>
      <trkpt lat="42.975956" lon="-5.7351732">
        <ele>1543.68</ele>
        <time>2020-07-21T10:50:48.000Z</time>
      </trkpt>
      <trkpt lat="42.975967" lon="-5.7351762">
        <ele>1543.68</ele>
        <time>2020-07-21T10:50:49.000Z</time>
      </trkpt>
      <trkpt lat="42.9759785" lon="-5.7351798">
        <ele>1543.98</ele>
        <time>2020-07-21T10:50:50.000Z</time>
      </trkpt>
      <trkpt lat="42.97599" lon="-5.7351835">
        <ele>1543.98</ele>
        <time>2020-07-21T10:50:51.000Z</time>
      </trkpt>
      <trkpt lat="42.9759998" lon="-5.7351867">
        <ele>1544.29</ele>
        <time>2020-07-21T10:50:52.000Z</time>
      </trkpt>
      <trkpt lat="42.9760093" lon="-5.7351903">
        <ele>1544.29</ele>
        <time>2020-07-21T10:50:53.000Z</time>
      </trkpt>
      <trkpt lat="42.9760185" lon="-5.7351937">
        <ele>1544.74</ele>
        <time>2020-07-21T10:50:54.000Z</time>
      </trkpt>
      <trkpt lat="42.9760283" lon="-5.7351972">
        <ele>1544.74</ele>
        <time>2020-07-21T10:50:55.000Z</time>
      </trkpt>
      <trkpt lat="42.9760372" lon="-5.7352003">
        <ele>1545.05</ele>
        <time>2020-07-21T10:50:56.000Z</time>
      </trkpt>
      <trkpt lat="42.9760452" lon="-5.735203">
        <ele>1545.05</ele>
        <time>2020-07-21T10:50:57.000Z</time>
      </trkpt>
      <trkpt lat="42.9760545" lon="-5.735206">
        <ele>1545.51</ele>
        <time>2020-07-21T10:50:58.000Z</time>
      </trkpt>
      <trkpt lat="42.9760657" lon="-5.735208">
        <ele>1545.51</ele>
        <time>2020-07-21T10:50:59.000Z</time>
      </trkpt>
      <trkpt lat="42.9760785" lon="-5.735211">
        <ele>1545.81</ele>
        <time>2020-07-21T10:51:00.000Z</time>
      </trkpt>
      <trkpt lat="42.9760908" lon="-5.7352135">
        <ele>1545.81</ele>
        <time>2020-07-21T10:51:01.000Z</time>
      </trkpt>
      <trkpt lat="42.9761027" lon="-5.7352162">
        <ele>1546.12</ele>
        <time>2020-07-21T10:51:02.000Z</time>
      </trkpt>
      <trkpt lat="42.9761138" lon="-5.7352185">
        <ele>1546.12</ele>
        <time>2020-07-21T10:51:03.000Z</time>
      </trkpt>
      <trkpt lat="42.9761255" lon="-5.735221">
        <ele>1546.57</ele>
        <time>2020-07-21T10:51:04.000Z</time>
      </trkpt>
      <trkpt lat="42.9761373" lon="-5.735224">
        <ele>1546.57</ele>
        <time>2020-07-21T10:51:05.000Z</time>
      </trkpt>
      <trkpt lat="42.9761495" lon="-5.7352267">
        <ele>1546.88</ele>
        <time>2020-07-21T10:51:06.000Z</time>
      </trkpt>
      <trkpt lat="42.9761618" lon="-5.7352288">
        <ele>1546.88</ele>
        <time>2020-07-21T10:51:07.000Z</time>
      </trkpt>
      <trkpt lat="42.9761748" lon="-5.7352307">
        <ele>1547.34</ele>
        <time>2020-07-21T10:51:08.000Z</time>
      </trkpt>
      <trkpt lat="42.9761882" lon="-5.735232">
        <ele>1547.34</ele>
        <time>2020-07-21T10:51:09.000Z</time>
      </trkpt>
      <trkpt lat="42.9762002" lon="-5.7352333">
        <ele>1547.64</ele>
        <time>2020-07-21T10:51:10.000Z</time>
      </trkpt>
      <trkpt lat="42.9762113" lon="-5.7352352">
        <ele>1547.64</ele>
        <time>2020-07-21T10:51:11.000Z</time>
      </trkpt>
      <trkpt lat="42.9762217" lon="-5.7352383">
        <ele>1547.95</ele>
        <time>2020-07-21T10:51:12.000Z</time>
      </trkpt>
      <trkpt lat="42.976232" lon="-5.7352417">
        <ele>1547.95</ele>
        <time>2020-07-21T10:51:13.000Z</time>
      </trkpt>
      <trkpt lat="42.9762428" lon="-5.7352445">
        <ele>1548.4</ele>
        <time>2020-07-21T10:51:14.000Z</time>
      </trkpt>
      <trkpt lat="42.9762545" lon="-5.7352468">
        <ele>1548.4</ele>
        <time>2020-07-21T10:51:15.000Z</time>
      </trkpt>
      <trkpt lat="42.9762657" lon="-5.7352498">
        <ele>1548.71</ele>
        <time>2020-07-21T10:51:16.000Z</time>
      </trkpt>
      <trkpt lat="42.9762763" lon="-5.7352532">
        <ele>1548.71</ele>
        <time>2020-07-21T10:51:17.000Z</time>
      </trkpt>
      <trkpt lat="42.9762865" lon="-5.7352572">
        <ele>1549.01</ele>
        <time>2020-07-21T10:51:18.000Z</time>
      </trkpt>
      <trkpt lat="42.9762975" lon="-5.73526">
        <ele>1549.01</ele>
        <time>2020-07-21T10:51:19.000Z</time>
      </trkpt>
      <trkpt lat="42.9763098" lon="-5.735262">
        <ele>1549.32</ele>
        <time>2020-07-21T10:51:20.000Z</time>
      </trkpt>
      <trkpt lat="42.976321" lon="-5.7352633">
        <ele>1549.32</ele>
        <time>2020-07-21T10:51:21.000Z</time>
      </trkpt>
      <trkpt lat="42.976332" lon="-5.735265">
        <ele>1549.62</ele>
        <time>2020-07-21T10:51:22.000Z</time>
      </trkpt>
      <trkpt lat="42.9763437" lon="-5.7352663">
        <ele>1549.62</ele>
        <time>2020-07-21T10:51:23.000Z</time>
      </trkpt>
      <trkpt lat="42.9763562" lon="-5.7352663">
        <ele>1549.93</ele>
        <time>2020-07-21T10:51:24.000Z</time>
      </trkpt>
      <trkpt lat="42.9763695" lon="-5.7352657">
        <ele>1549.93</ele>
        <time>2020-07-21T10:51:25.000Z</time>
      </trkpt>
      <trkpt lat="42.9763823" lon="-5.7352653">
        <ele>1550.23</ele>
        <time>2020-07-21T10:51:26.000Z</time>
      </trkpt>
      <trkpt lat="42.9763947" lon="-5.7352665">
        <ele>1550.23</ele>
        <time>2020-07-21T10:51:27.000Z</time>
      </trkpt>
      <trkpt lat="42.9764057" lon="-5.7352677">
        <ele>1550.54</ele>
        <time>2020-07-21T10:51:28.000Z</time>
      </trkpt>
      <trkpt lat="42.9764175" lon="-5.735268">
        <ele>1550.54</ele>
        <time>2020-07-21T10:51:29.000Z</time>
      </trkpt>
      <trkpt lat="42.976432" lon="-5.7352675">
        <ele>1550.84</ele>
        <time>2020-07-21T10:51:30.000Z</time>
      </trkpt>
      <trkpt lat="42.9764472" lon="-5.7352672">
        <ele>1550.84</ele>
        <time>2020-07-21T10:51:31.000Z</time>
      </trkpt>
      <trkpt lat="42.9764615" lon="-5.7352683">
        <ele>1551.15</ele>
        <time>2020-07-21T10:51:32.000Z</time>
      </trkpt>
      <trkpt lat="42.976474" lon="-5.73527">
        <ele>1551.15</ele>
        <time>2020-07-21T10:51:33.000Z</time>
      </trkpt>
      <trkpt lat="42.9764855" lon="-5.7352723">
        <ele>1551.45</ele>
        <time>2020-07-21T10:51:34.000Z</time>
      </trkpt>
      <trkpt lat="42.9764967" lon="-5.735274">
        <ele>1551.45</ele>
        <time>2020-07-21T10:51:35.000Z</time>
      </trkpt>
      <trkpt lat="42.9765077" lon="-5.7352762">
        <ele>1551.6</ele>
        <time>2020-07-21T10:51:36.000Z</time>
      </trkpt>
      <trkpt lat="42.9765203" lon="-5.7352757">
        <ele>1551.6</ele>
        <time>2020-07-21T10:51:37.000Z</time>
      </trkpt>
      <trkpt lat="42.9765328" lon="-5.7352755">
        <ele>1551.91</ele>
        <time>2020-07-21T10:51:38.000Z</time>
      </trkpt>
      <trkpt lat="42.9765452" lon="-5.7352747">
        <ele>1551.91</ele>
        <time>2020-07-21T10:51:39.000Z</time>
      </trkpt>
      <trkpt lat="42.9765577" lon="-5.7352757">
        <ele>1552.21</ele>
        <time>2020-07-21T10:51:40.000Z</time>
      </trkpt>
      <trkpt lat="42.9765708" lon="-5.735277">
        <ele>1552.21</ele>
        <time>2020-07-21T10:51:41.000Z</time>
      </trkpt>
      <trkpt lat="42.9765847" lon="-5.7352767">
        <ele>1552.52</ele>
        <time>2020-07-21T10:51:42.000Z</time>
      </trkpt>
      <trkpt lat="42.9765978" lon="-5.7352747">
        <ele>1552.52</ele>
        <time>2020-07-21T10:51:43.000Z</time>
      </trkpt>
      <trkpt lat="42.9766108" lon="-5.7352703">
        <ele>1552.82</ele>
        <time>2020-07-21T10:51:44.000Z</time>
      </trkpt>
      <trkpt lat="42.9766232" lon="-5.735267">
        <ele>1552.82</ele>
        <time>2020-07-21T10:51:45.000Z</time>
      </trkpt>
      <trkpt lat="42.9766355" lon="-5.7352653">
        <ele>1553.13</ele>
        <time>2020-07-21T10:51:46.000Z</time>
      </trkpt>
      <trkpt lat="42.9766472" lon="-5.7352672">
        <ele>1553.13</ele>
        <time>2020-07-21T10:51:47.000Z</time>
      </trkpt>
      <trkpt lat="42.9766593" lon="-5.7352695">
        <ele>1553.43</ele>
        <time>2020-07-21T10:51:48.000Z</time>
      </trkpt>
      <trkpt lat="42.9766713" lon="-5.7352715">
        <ele>1553.43</ele>
        <time>2020-07-21T10:51:49.000Z</time>
      </trkpt>
      <trkpt lat="42.9766835" lon="-5.735271">
        <ele>1553.58</ele>
        <time>2020-07-21T10:51:50.000Z</time>
      </trkpt>
      <trkpt lat="42.976696" lon="-5.7352692">
        <ele>1553.58</ele>
        <time>2020-07-21T10:51:51.000Z</time>
      </trkpt>
      <trkpt lat="42.9767085" lon="-5.7352677">
        <ele>1553.89</ele>
        <time>2020-07-21T10:51:52.000Z</time>
      </trkpt>
      <trkpt lat="42.9767218" lon="-5.7352665">
        <ele>1553.89</ele>
        <time>2020-07-21T10:51:53.000Z</time>
      </trkpt>
      <trkpt lat="42.9767352" lon="-5.7352653">
        <ele>1554.19</ele>
        <time>2020-07-21T10:51:54.000Z</time>
      </trkpt>
      <trkpt lat="42.9767482" lon="-5.7352643">
        <ele>1554.19</ele>
        <time>2020-07-21T10:51:55.000Z</time>
      </trkpt>
      <trkpt lat="42.9767607" lon="-5.7352637">
        <ele>1554.5</ele>
        <time>2020-07-21T10:51:56.000Z</time>
      </trkpt>
      <trkpt lat="42.976773" lon="-5.7352637">
        <ele>1554.5</ele>
        <time>2020-07-21T10:51:57.000Z</time>
      </trkpt>
      <trkpt lat="42.976785" lon="-5.7352632">
        <ele>1554.8</ele>
        <time>2020-07-21T10:51:58.000Z</time>
      </trkpt>
      <trkpt lat="42.9767973" lon="-5.7352622">
        <ele>1554.8</ele>
        <time>2020-07-21T10:51:59.000Z</time>
      </trkpt>
      <trkpt lat="42.976809" lon="-5.7352613">
        <ele>1555.11</ele>
        <time>2020-07-21T10:52:00.000Z</time>
      </trkpt>
      <trkpt lat="42.9768213" lon="-5.7352607">
        <ele>1555.11</ele>
        <time>2020-07-21T10:52:01.000Z</time>
      </trkpt>
      <trkpt lat="42.9768335" lon="-5.73526">
        <ele>1555.41</ele>
        <time>2020-07-21T10:52:02.000Z</time>
      </trkpt>
      <trkpt lat="42.9768463" lon="-5.7352583">
        <ele>1555.41</ele>
        <time>2020-07-21T10:52:03.000Z</time>
      </trkpt>
      <trkpt lat="42.976859" lon="-5.7352558">
        <ele>1555.72</ele>
        <time>2020-07-21T10:52:04.000Z</time>
      </trkpt>
      <trkpt lat="42.9768713" lon="-5.735254">
        <ele>1555.72</ele>
        <time>2020-07-21T10:52:05.000Z</time>
      </trkpt>
      <trkpt lat="42.9768832" lon="-5.7352535">
        <ele>1556.02</ele>
        <time>2020-07-21T10:52:06.000Z</time>
      </trkpt>
      <trkpt lat="42.9768958" lon="-5.735254">
        <ele>1556.02</ele>
        <time>2020-07-21T10:52:07.000Z</time>
      </trkpt>
      <trkpt lat="42.976908" lon="-5.7352542">
        <ele>1556.33</ele>
        <time>2020-07-21T10:52:08.000Z</time>
      </trkpt>
      <trkpt lat="42.9769207" lon="-5.7352532">
        <ele>1556.33</ele>
        <time>2020-07-21T10:52:09.000Z</time>
      </trkpt>
      <trkpt lat="42.9769325" lon="-5.735252">
        <ele>1556.63</ele>
        <time>2020-07-21T10:52:10.000Z</time>
      </trkpt>
      <trkpt lat="42.9769442" lon="-5.7352517">
        <ele>1556.63</ele>
        <time>2020-07-21T10:52:11.000Z</time>
      </trkpt>
      <trkpt lat="42.9769557" lon="-5.735252">
        <ele>1556.94</ele>
        <time>2020-07-21T10:52:12.000Z</time>
      </trkpt>
      <trkpt lat="42.9769673" lon="-5.735252">
        <ele>1556.94</ele>
        <time>2020-07-21T10:52:13.000Z</time>
      </trkpt>
      <trkpt lat="42.976979" lon="-5.7352513">
        <ele>1557.24</ele>
        <time>2020-07-21T10:52:14.000Z</time>
      </trkpt>
      <trkpt lat="42.9769913" lon="-5.7352512">
        <ele>1557.24</ele>
        <time>2020-07-21T10:52:15.000Z</time>
      </trkpt>
      <trkpt lat="42.977004" lon="-5.7352508">
        <ele>1557.4</ele>
        <time>2020-07-21T10:52:16.000Z</time>
      </trkpt>
      <trkpt lat="42.9770167" lon="-5.735251">
        <ele>1557.4</ele>
        <time>2020-07-21T10:52:17.000Z</time>
      </trkpt>
      <trkpt lat="42.9770288" lon="-5.7352505">
        <ele>1557.7</ele>
        <time>2020-07-21T10:52:18.000Z</time>
      </trkpt>
      <trkpt lat="42.9770387" lon="-5.7352513">
        <ele>1557.7</ele>
        <time>2020-07-21T10:52:19.000Z</time>
      </trkpt>
      <trkpt lat="42.9770492" lon="-5.7352522">
        <ele>1558</ele>
        <time>2020-07-21T10:52:20.000Z</time>
      </trkpt>
      <trkpt lat="42.977059" lon="-5.735254">
        <ele>1558</ele>
        <time>2020-07-21T10:52:21.000Z</time>
      </trkpt>
      <trkpt lat="42.9770723" lon="-5.7352548">
        <ele>1558.16</ele>
        <time>2020-07-21T10:52:22.000Z</time>
      </trkpt>
      <trkpt lat="42.9770852" lon="-5.7352557">
        <ele>1558.16</ele>
        <time>2020-07-21T10:52:23.000Z</time>
      </trkpt>
      <trkpt lat="42.977099" lon="-5.7352567">
        <ele>1558.46</ele>
        <time>2020-07-21T10:52:24.000Z</time>
      </trkpt>
      <trkpt lat="42.977112" lon="-5.7352568">
        <ele>1558.46</ele>
        <time>2020-07-21T10:52:25.000Z</time>
      </trkpt>
      <trkpt lat="42.9771248" lon="-5.7352573">
        <ele>1558.61</ele>
        <time>2020-07-21T10:52:26.000Z</time>
      </trkpt>
      <trkpt lat="42.9771377" lon="-5.735257">
        <ele>1558.61</ele>
        <time>2020-07-21T10:52:27.000Z</time>
      </trkpt>
      <trkpt lat="42.97715" lon="-5.7352575">
        <ele>1558.92</ele>
        <time>2020-07-21T10:52:28.000Z</time>
      </trkpt>
      <trkpt lat="42.977162" lon="-5.7352582">
        <ele>1558.92</ele>
        <time>2020-07-21T10:52:29.000Z</time>
      </trkpt>
      <trkpt lat="42.9771757" lon="-5.7352588">
        <ele>1559.07</ele>
        <time>2020-07-21T10:52:30.000Z</time>
      </trkpt>
      <trkpt lat="42.9771888" lon="-5.73526">
        <ele>1559.07</ele>
        <time>2020-07-21T10:52:31.000Z</time>
      </trkpt>
      <trkpt lat="42.9772022" lon="-5.7352607">
        <ele>1559.38</ele>
        <time>2020-07-21T10:52:32.000Z</time>
      </trkpt>
      <trkpt lat="42.9772145" lon="-5.7352613">
        <ele>1559.38</ele>
        <time>2020-07-21T10:52:33.000Z</time>
      </trkpt>
      <trkpt lat="42.9772285" lon="-5.7352615">
        <ele>1559.53</ele>
        <time>2020-07-21T10:52:34.000Z</time>
      </trkpt>
      <trkpt lat="42.9772432" lon="-5.7352612">
        <ele>1559.53</ele>
        <time>2020-07-21T10:52:35.000Z</time>
      </trkpt>
      <trkpt lat="42.9772573" lon="-5.7352608">
        <ele>1559.83</ele>
        <time>2020-07-21T10:52:36.000Z</time>
      </trkpt>
      <trkpt lat="42.9772695" lon="-5.7352603">
        <ele>1559.83</ele>
        <time>2020-07-21T10:52:37.000Z</time>
      </trkpt>
      <trkpt lat="42.977282" lon="-5.73526">
        <ele>1559.98</ele>
        <time>2020-07-21T10:52:38.000Z</time>
      </trkpt>
      <trkpt lat="42.9772948" lon="-5.7352588">
        <ele>1559.98</ele>
        <time>2020-07-21T10:52:39.000Z</time>
      </trkpt>
      <trkpt lat="42.9773087" lon="-5.7352573">
        <ele>1560.29</ele>
        <time>2020-07-21T10:52:40.000Z</time>
      </trkpt>
      <trkpt lat="42.9773227" lon="-5.7352557">
        <ele>1560.29</ele>
        <time>2020-07-21T10:52:41.000Z</time>
      </trkpt>
      <trkpt lat="42.9773352" lon="-5.7352552">
        <ele>1560.44</ele>
        <time>2020-07-21T10:52:42.000Z</time>
      </trkpt>
      <trkpt lat="42.9773472" lon="-5.7352558">
        <ele>1560.44</ele>
        <time>2020-07-21T10:52:43.000Z</time>
      </trkpt>
      <trkpt lat="42.977358" lon="-5.7352567">
        <ele>1560.59</ele>
        <time>2020-07-21T10:52:44.000Z</time>
      </trkpt>
      <trkpt lat="42.9773698" lon="-5.7352572">
        <ele>1560.59</ele>
        <time>2020-07-21T10:52:45.000Z</time>
      </trkpt>
      <trkpt lat="42.9773813" lon="-5.7352563">
        <ele>1560.9</ele>
        <time>2020-07-21T10:52:46.000Z</time>
      </trkpt>
      <trkpt lat="42.9773923" lon="-5.7352562">
        <ele>1560.9</ele>
        <time>2020-07-21T10:52:47.000Z</time>
      </trkpt>
      <trkpt lat="42.9774027" lon="-5.735256">
        <ele>1561.05</ele>
        <time>2020-07-21T10:52:48.000Z</time>
      </trkpt>
      <trkpt lat="42.977413" lon="-5.7352565">
        <ele>1561.05</ele>
        <time>2020-07-21T10:52:49.000Z</time>
      </trkpt>
      <trkpt lat="42.9774233" lon="-5.7352557">
        <ele>1561.2</ele>
        <time>2020-07-21T10:52:50.000Z</time>
      </trkpt>
      <trkpt lat="42.9774325" lon="-5.7352552">
        <ele>1561.2</ele>
        <time>2020-07-21T10:52:51.000Z</time>
      </trkpt>
      <trkpt lat="42.9774407" lon="-5.7352528">
        <ele>1561.36</ele>
        <time>2020-07-21T10:52:52.000Z</time>
      </trkpt>
      <trkpt lat="42.977449" lon="-5.7352492">
        <ele>1561.36</ele>
        <time>2020-07-21T10:52:53.000Z</time>
      </trkpt>
      <trkpt lat="42.9774573" lon="-5.7352445">
        <ele>1561.51</ele>
        <time>2020-07-21T10:52:54.000Z</time>
      </trkpt>
      <trkpt lat="42.9774647" lon="-5.7352423">
        <ele>1561.51</ele>
        <time>2020-07-21T10:52:55.000Z</time>
      </trkpt>
      <trkpt lat="42.9774705" lon="-5.735244">
        <ele>1561.66</ele>
        <time>2020-07-21T10:52:56.000Z</time>
      </trkpt>
      <trkpt lat="42.9774772" lon="-5.7352478">
        <ele>1561.66</ele>
        <time>2020-07-21T10:52:57.000Z</time>
      </trkpt>
      <trkpt lat="42.9774867" lon="-5.7352523">
        <ele>1561.81</ele>
        <time>2020-07-21T10:52:58.000Z</time>
      </trkpt>
      <trkpt lat="42.977498" lon="-5.7352567">
        <ele>1561.81</ele>
        <time>2020-07-21T10:52:59.000Z</time>
      </trkpt>
      <trkpt lat="42.9775095" lon="-5.735261">
        <ele>1561.97</ele>
        <time>2020-07-21T10:53:00.000Z</time>
      </trkpt>
      <trkpt lat="42.9775205" lon="-5.7352647">
        <ele>1561.97</ele>
        <time>2020-07-21T10:53:01.000Z</time>
      </trkpt>
      <trkpt lat="42.9775323" lon="-5.7352657">
        <ele>1562.12</ele>
        <time>2020-07-21T10:53:02.000Z</time>
      </trkpt>
      <trkpt lat="42.9775437" lon="-5.7352635">
        <ele>1562.12</ele>
        <time>2020-07-21T10:53:03.000Z</time>
      </trkpt>
      <trkpt lat="42.9775497" lon="-5.7352607">
        <ele>1562.12</ele>
        <time>2020-07-21T10:53:04.000Z</time>
      </trkpt>
      <trkpt lat="42.9775508" lon="-5.7352597">
        <ele>1562.12</ele>
        <time>2020-07-21T10:53:05.000Z</time>
      </trkpt>
      <trkpt lat="42.9775477" lon="-5.7352643">
        <ele>1562.27</ele>
        <time>2020-07-21T10:53:06.000Z</time>
      </trkpt>
      <trkpt lat="42.9775433" lon="-5.7352758">
        <ele>1562.27</ele>
        <time>2020-07-21T10:53:07.000Z</time>
      </trkpt>
      <trkpt lat="42.9775388" lon="-5.7352923">
        <ele>1562.42</ele>
        <time>2020-07-21T10:53:08.000Z</time>
      </trkpt>
      <trkpt lat="42.9775365" lon="-5.7353088">
        <ele>1562.42</ele>
        <time>2020-07-21T10:53:09.000Z</time>
      </trkpt>
      <trkpt lat="42.9775373" lon="-5.735322">
        <ele>1562.42</ele>
        <time>2020-07-21T10:53:10.000Z</time>
      </trkpt>
      <trkpt lat="42.977541" lon="-5.7353355">
        <ele>1562.42</ele>
        <time>2020-07-21T10:53:11.000Z</time>
      </trkpt>
      <trkpt lat="42.9775453" lon="-5.7353483">
        <ele>1562.58</ele>
        <time>2020-07-21T10:53:12.000Z</time>
      </trkpt>
      <trkpt lat="42.9775507" lon="-5.7353563">
        <ele>1562.58</ele>
        <time>2020-07-21T10:53:13.000Z</time>
      </trkpt>
      <trkpt lat="42.9775552" lon="-5.7353568">
        <ele>1562.73</ele>
        <time>2020-07-21T10:53:14.000Z</time>
      </trkpt>
      <trkpt lat="42.9775593" lon="-5.7353535">
        <ele>1562.73</ele>
        <time>2020-07-21T10:53:15.000Z</time>
      </trkpt>
      <trkpt lat="42.977561" lon="-5.735351">
        <ele>1562.73</ele>
        <time>2020-07-21T10:53:16.000Z</time>
      </trkpt>
      <trkpt lat="42.9775613" lon="-5.7353497">
        <ele>1562.73</ele>
        <time>2020-07-21T10:53:17.000Z</time>
      </trkpt>
      <trkpt lat="42.9775608" lon="-5.735349">
        <ele>1562.88</ele>
        <time>2020-07-21T10:53:18.000Z</time>
      </trkpt>
      <trkpt lat="42.977561" lon="-5.7353488">
        <ele>1562.88</ele>
        <time>2020-07-21T10:53:19.000Z</time>
      </trkpt>
      <trkpt lat="42.9775608" lon="-5.7353487">
        <ele>1562.88</ele>
        <time>2020-07-21T10:53:20.000Z</time>
      </trkpt>
      <trkpt lat="42.977561" lon="-5.735349">
        <ele>1562.88</ele>
        <time>2020-07-21T10:53:21.000Z</time>
      </trkpt>
      <trkpt lat="42.977561" lon="-5.7353493">
        <ele>1562.88</ele>
        <time>2020-07-21T10:53:22.000Z</time>
      </trkpt>
      <trkpt lat="42.9775612" lon="-5.7353492">
        <ele>1562.88</ele>
        <time>2020-07-21T10:53:23.000Z</time>
      </trkpt>
      <trkpt lat="42.9775622" lon="-5.735347">
        <ele>1563.03</ele>
        <time>2020-07-21T10:53:24.000Z</time>
      </trkpt>
      <trkpt lat="42.9775637" lon="-5.7353447">
        <ele>1563.03</ele>
        <time>2020-07-21T10:53:25.000Z</time>
      </trkpt>
      <trkpt lat="42.9775652" lon="-5.7353428">
        <ele>1563.03</ele>
        <time>2020-07-21T10:53:26.000Z</time>
      </trkpt>
      <trkpt lat="42.9775657" lon="-5.7353432">
        <ele>1563.03</ele>
        <time>2020-07-21T10:53:27.000Z</time>
      </trkpt>
      <trkpt lat="42.9775662" lon="-5.735344">
        <ele>1563.03</ele>
        <time>2020-07-21T10:53:28.000Z</time>
      </trkpt>
      <trkpt lat="42.9775667" lon="-5.7353462">
        <ele>1563.03</ele>
        <time>2020-07-21T10:53:29.000Z</time>
      </trkpt>
      <trkpt lat="42.9775662" lon="-5.7353498">
        <ele>1563.03</ele>
        <time>2020-07-21T10:53:30.000Z</time>
      </trkpt>
      <trkpt lat="42.9775642" lon="-5.7353552">
        <ele>1563.03</ele>
        <time>2020-07-21T10:53:31.000Z</time>
      </trkpt>
      <trkpt lat="42.9775615" lon="-5.735362">
        <ele>1562.88</ele>
        <time>2020-07-21T10:53:32.000Z</time>
      </trkpt>
      <trkpt lat="42.9775605" lon="-5.7353708">
        <ele>1562.88</ele>
        <time>2020-07-21T10:53:33.000Z</time>
      </trkpt>
      <trkpt lat="42.9775605" lon="-5.7353813">
        <ele>1562.88</ele>
        <time>2020-07-21T10:53:34.000Z</time>
      </trkpt>
      <trkpt lat="42.9775602" lon="-5.7353927">
        <ele>1562.88</ele>
        <time>2020-07-21T10:53:35.000Z</time>
      </trkpt>
      <trkpt lat="42.9775592" lon="-5.7354038">
        <ele>1562.73</ele>
        <time>2020-07-21T10:53:36.000Z</time>
      </trkpt>
      <trkpt lat="42.9775588" lon="-5.7354128">
        <ele>1562.73</ele>
        <time>2020-07-21T10:53:37.000Z</time>
      </trkpt>
      <trkpt lat="42.977559" lon="-5.7354178">
        <ele>1562.73</ele>
        <time>2020-07-21T10:53:38.000Z</time>
      </trkpt>
      <trkpt lat="42.9775592" lon="-5.7354173">
        <ele>1562.73</ele>
        <time>2020-07-21T10:53:39.000Z</time>
      </trkpt>
      <trkpt lat="42.9775587" lon="-5.7354147">
        <ele>1562.58</ele>
        <time>2020-07-21T10:53:40.000Z</time>
      </trkpt>
      <trkpt lat="42.9775572" lon="-5.7354127">
        <ele>1562.58</ele>
        <time>2020-07-21T10:53:41.000Z</time>
      </trkpt>
      <trkpt lat="42.9775567" lon="-5.7354123">
        <ele>1562.42</ele>
        <time>2020-07-21T10:53:42.000Z</time>
      </trkpt>
      <trkpt lat="42.9775582" lon="-5.735413">
        <ele>1562.42</ele>
        <time>2020-07-21T10:53:43.000Z</time>
      </trkpt>
      <trkpt lat="42.9775618" lon="-5.7354142">
        <ele>1562.27</ele>
        <time>2020-07-21T10:53:44.000Z</time>
      </trkpt>
      <trkpt lat="42.977565" lon="-5.7354177">
        <ele>1562.27</ele>
        <time>2020-07-21T10:53:45.000Z</time>
      </trkpt>
      <trkpt lat="42.9775673" lon="-5.7354243">
        <ele>1562.12</ele>
        <time>2020-07-21T10:53:46.000Z</time>
      </trkpt>
      <trkpt lat="42.97757" lon="-5.735435">
        <ele>1562.12</ele>
        <time>2020-07-21T10:53:47.000Z</time>
      </trkpt>
      <trkpt lat="42.9775738" lon="-5.7354465">
        <ele>1561.81</ele>
        <time>2020-07-21T10:53:48.000Z</time>
      </trkpt>
      <trkpt lat="42.9775777" lon="-5.7354562">
        <ele>1561.81</ele>
        <time>2020-07-21T10:53:49.000Z</time>
      </trkpt>
      <trkpt lat="42.9775803" lon="-5.735462">
        <ele>1561.66</ele>
        <time>2020-07-21T10:53:50.000Z</time>
      </trkpt>
      <trkpt lat="42.9775817" lon="-5.7354648">
        <ele>1561.66</ele>
        <time>2020-07-21T10:53:51.000Z</time>
      </trkpt>
      <trkpt lat="42.9775817" lon="-5.7354663">
        <ele>1561.51</ele>
        <time>2020-07-21T10:53:52.000Z</time>
      </trkpt>
      <trkpt lat="42.9775813" lon="-5.735467">
        <ele>1561.51</ele>
        <time>2020-07-21T10:53:53.000Z</time>
      </trkpt>
      <trkpt lat="42.9775808" lon="-5.7354673">
        <ele>1561.2</ele>
        <time>2020-07-21T10:53:54.000Z</time>
      </trkpt>
      <trkpt lat="42.9775803" lon="-5.7354678">
        <ele>1561.2</ele>
        <time>2020-07-21T10:53:55.000Z</time>
      </trkpt>
      <trkpt lat="42.9775805" lon="-5.735469">
        <ele>1560.9</ele>
        <time>2020-07-21T10:53:56.000Z</time>
      </trkpt>
      <trkpt lat="42.9775812" lon="-5.7354727">
        <ele>1560.9</ele>
        <time>2020-07-21T10:53:57.000Z</time>
      </trkpt>
      <trkpt lat="42.9775825" lon="-5.7354787">
        <ele>1560.59</ele>
        <time>2020-07-21T10:53:58.000Z</time>
      </trkpt>
      <trkpt lat="42.9775852" lon="-5.7354855">
        <ele>1560.59</ele>
        <time>2020-07-21T10:53:59.000Z</time>
      </trkpt>
      <trkpt lat="42.9775885" lon="-5.7354922">
        <ele>1560.44</ele>
        <time>2020-07-21T10:54:00.000Z</time>
      </trkpt>
      <trkpt lat="42.9775922" lon="-5.7354987">
        <ele>1560.44</ele>
        <time>2020-07-21T10:54:01.000Z</time>
      </trkpt>
      <trkpt lat="42.977596" lon="-5.7355067">
        <ele>1560.14</ele>
        <time>2020-07-21T10:54:02.000Z</time>
      </trkpt>
      <trkpt lat="42.9776002" lon="-5.7355158">
        <ele>1560.14</ele>
        <time>2020-07-21T10:54:03.000Z</time>
      </trkpt>
      <trkpt lat="42.9776045" lon="-5.7355228">
        <ele>1559.68</ele>
        <time>2020-07-21T10:54:04.000Z</time>
      </trkpt>
      <trkpt lat="42.9776073" lon="-5.7355272">
        <ele>1559.68</ele>
        <time>2020-07-21T10:54:05.000Z</time>
      </trkpt>
      <trkpt lat="42.9776088" lon="-5.7355287">
        <ele>1559.38</ele>
        <time>2020-07-21T10:54:06.000Z</time>
      </trkpt>
      <trkpt lat="42.9776088" lon="-5.7355302">
        <ele>1559.38</ele>
        <time>2020-07-21T10:54:07.000Z</time>
      </trkpt>
      <trkpt lat="42.9776085" lon="-5.7355313">
        <ele>1559.07</ele>
        <time>2020-07-21T10:54:08.000Z</time>
      </trkpt>
      <trkpt lat="42.9776082" lon="-5.7355323">
        <ele>1559.07</ele>
        <time>2020-07-21T10:54:09.000Z</time>
      </trkpt>
      <trkpt lat="42.9776077" lon="-5.7355333">
        <ele>1558.77</ele>
        <time>2020-07-21T10:54:10.000Z</time>
      </trkpt>
      <trkpt lat="42.9776078" lon="-5.7355355">
        <ele>1558.77</ele>
        <time>2020-07-21T10:54:11.000Z</time>
      </trkpt>
      <trkpt lat="42.9776093" lon="-5.7355398">
        <ele>1558.46</ele>
        <time>2020-07-21T10:54:12.000Z</time>
      </trkpt>
      <trkpt lat="42.9776137" lon="-5.7355463">
        <ele>1558.46</ele>
        <time>2020-07-21T10:54:13.000Z</time>
      </trkpt>
      <trkpt lat="42.977621" lon="-5.7355538">
        <ele>1558.31</ele>
        <time>2020-07-21T10:54:14.000Z</time>
      </trkpt>
      <trkpt lat="42.9776288" lon="-5.735561">
        <ele>1558.31</ele>
        <time>2020-07-21T10:54:15.000Z</time>
      </trkpt>
      <trkpt lat="42.9776362" lon="-5.735567">
        <ele>1558</ele>
        <time>2020-07-21T10:54:16.000Z</time>
      </trkpt>
      <trkpt lat="42.9776432" lon="-5.7355725">
        <ele>1558</ele>
        <time>2020-07-21T10:54:17.000Z</time>
      </trkpt>
      <trkpt lat="42.9776512" lon="-5.7355783">
        <ele>1557.7</ele>
        <time>2020-07-21T10:54:18.000Z</time>
      </trkpt>
      <trkpt lat="42.9776605" lon="-5.7355853">
        <ele>1557.7</ele>
        <time>2020-07-21T10:54:19.000Z</time>
      </trkpt>
      <trkpt lat="42.9776702" lon="-5.7355933">
        <ele>1557.4</ele>
        <time>2020-07-21T10:54:20.000Z</time>
      </trkpt>
      <trkpt lat="42.9776798" lon="-5.7356018">
        <ele>1557.4</ele>
        <time>2020-07-21T10:54:21.000Z</time>
      </trkpt>
      <trkpt lat="42.977689" lon="-5.7356098">
        <ele>1556.94</ele>
        <time>2020-07-21T10:54:22.000Z</time>
      </trkpt>
      <trkpt lat="42.9776993" lon="-5.735618">
        <ele>1556.94</ele>
        <time>2020-07-21T10:54:23.000Z</time>
      </trkpt>
      <trkpt lat="42.9777087" lon="-5.7356262">
        <ele>1556.63</ele>
        <time>2020-07-21T10:54:24.000Z</time>
      </trkpt>
      <trkpt lat="42.9777188" lon="-5.7356348">
        <ele>1556.63</ele>
        <time>2020-07-21T10:54:25.000Z</time>
      </trkpt>
      <trkpt lat="42.9777285" lon="-5.7356418">
        <ele>1556.33</ele>
        <time>2020-07-21T10:54:26.000Z</time>
      </trkpt>
      <trkpt lat="42.9777402" lon="-5.7356475">
        <ele>1556.33</ele>
        <time>2020-07-21T10:54:27.000Z</time>
      </trkpt>
      <trkpt lat="42.9777523" lon="-5.7356518">
        <ele>1556.02</ele>
        <time>2020-07-21T10:54:28.000Z</time>
      </trkpt>
      <trkpt lat="42.977765" lon="-5.7356568">
        <ele>1556.02</ele>
        <time>2020-07-21T10:54:29.000Z</time>
      </trkpt>
      <trkpt lat="42.9777775" lon="-5.7356618">
        <ele>1555.72</ele>
        <time>2020-07-21T10:54:30.000Z</time>
      </trkpt>
      <trkpt lat="42.9777898" lon="-5.735668">
        <ele>1555.72</ele>
        <time>2020-07-21T10:54:31.000Z</time>
      </trkpt>
      <trkpt lat="42.977801" lon="-5.7356752">
        <ele>1555.41</ele>
        <time>2020-07-21T10:54:32.000Z</time>
      </trkpt>
      <trkpt lat="42.9778117" lon="-5.7356825">
        <ele>1555.41</ele>
        <time>2020-07-21T10:54:33.000Z</time>
      </trkpt>
      <trkpt lat="42.977822" lon="-5.7356898">
        <ele>1555.11</ele>
        <time>2020-07-21T10:54:34.000Z</time>
      </trkpt>
      <trkpt lat="42.9778325" lon="-5.7356975">
        <ele>1555.11</ele>
        <time>2020-07-21T10:54:35.000Z</time>
      </trkpt>
      <trkpt lat="42.9778422" lon="-5.7357065">
        <ele>1554.8</ele>
        <time>2020-07-21T10:54:36.000Z</time>
      </trkpt>
      <trkpt lat="42.977851" lon="-5.7357157">
        <ele>1554.8</ele>
        <time>2020-07-21T10:54:37.000Z</time>
      </trkpt>
      <trkpt lat="42.9778598" lon="-5.7357252">
        <ele>1554.5</ele>
        <time>2020-07-21T10:54:38.000Z</time>
      </trkpt>
      <trkpt lat="42.97787" lon="-5.7357357">
        <ele>1554.5</ele>
        <time>2020-07-21T10:54:39.000Z</time>
      </trkpt>
      <trkpt lat="42.9778827" lon="-5.7357477">
        <ele>1554.19</ele>
        <time>2020-07-21T10:54:40.000Z</time>
      </trkpt>
      <trkpt lat="42.9778963" lon="-5.73576">
        <ele>1554.19</ele>
        <time>2020-07-21T10:54:41.000Z</time>
      </trkpt>
      <trkpt lat="42.9779107" lon="-5.7357715">
        <ele>1553.89</ele>
        <time>2020-07-21T10:54:42.000Z</time>
      </trkpt>
      <trkpt lat="42.9779237" lon="-5.7357815">
        <ele>1553.89</ele>
        <time>2020-07-21T10:54:43.000Z</time>
      </trkpt>
      <trkpt lat="42.9779367" lon="-5.7357902">
        <ele>1553.58</ele>
        <time>2020-07-21T10:54:44.000Z</time>
      </trkpt>
      <trkpt lat="42.9779497" lon="-5.7357987">
        <ele>1553.58</ele>
        <time>2020-07-21T10:54:45.000Z</time>
      </trkpt>
      <trkpt lat="42.9779633" lon="-5.7358073">
        <ele>1553.13</ele>
        <time>2020-07-21T10:54:46.000Z</time>
      </trkpt>
      <trkpt lat="42.9779775" lon="-5.7358157">
        <ele>1553.13</ele>
        <time>2020-07-21T10:54:47.000Z</time>
      </trkpt>
      <trkpt lat="42.9779912" lon="-5.7358228">
        <ele>1552.82</ele>
        <time>2020-07-21T10:54:48.000Z</time>
      </trkpt>
      <trkpt lat="42.9780043" lon="-5.7358293">
        <ele>1552.82</ele>
        <time>2020-07-21T10:54:49.000Z</time>
      </trkpt>
      <trkpt lat="42.9780178" lon="-5.7358365">
        <ele>1552.52</ele>
        <time>2020-07-21T10:54:50.000Z</time>
      </trkpt>
      <trkpt lat="42.9780313" lon="-5.7358452">
        <ele>1552.52</ele>
        <time>2020-07-21T10:54:51.000Z</time>
      </trkpt>
      <trkpt lat="42.9780457" lon="-5.7358552">
        <ele>1552.21</ele>
        <time>2020-07-21T10:54:52.000Z</time>
      </trkpt>
      <trkpt lat="42.9780595" lon="-5.735866">
        <ele>1552.21</ele>
        <time>2020-07-21T10:54:53.000Z</time>
      </trkpt>
      <trkpt lat="42.9780722" lon="-5.7358773">
        <ele>1551.76</ele>
        <time>2020-07-21T10:54:54.000Z</time>
      </trkpt>
      <trkpt lat="42.9780843" lon="-5.7358885">
        <ele>1551.76</ele>
        <time>2020-07-21T10:54:55.000Z</time>
      </trkpt>
      <trkpt lat="42.9780968" lon="-5.735898">
        <ele>1551.45</ele>
        <time>2020-07-21T10:54:56.000Z</time>
      </trkpt>
      <trkpt lat="42.9781108" lon="-5.735908">
        <ele>1551.45</ele>
        <time>2020-07-21T10:54:57.000Z</time>
      </trkpt>
      <trkpt lat="42.9781237" lon="-5.7359188">
        <ele>1551.15</ele>
        <time>2020-07-21T10:54:58.000Z</time>
      </trkpt>
      <trkpt lat="42.978136" lon="-5.7359315">
        <ele>1551.15</ele>
        <time>2020-07-21T10:54:59.000Z</time>
      </trkpt>
      <trkpt lat="42.9781428" lon="-5.735939">
        <ele>1550.84</ele>
        <time>2020-07-21T10:55:00.000Z</time>
      </trkpt>
      <trkpt lat="42.978147" lon="-5.7359418">
        <ele>1550.84</ele>
        <time>2020-07-21T10:55:01.000Z</time>
      </trkpt>
      <trkpt lat="42.9781472" lon="-5.7359425">
        <ele>1550.38</ele>
        <time>2020-07-21T10:55:02.000Z</time>
      </trkpt>
      <trkpt lat="42.9781483" lon="-5.7359432">
        <ele>1550.38</ele>
        <time>2020-07-21T10:55:03.000Z</time>
      </trkpt>
      <trkpt lat="42.9781488" lon="-5.7359455">
        <ele>1550.08</ele>
        <time>2020-07-21T10:55:04.000Z</time>
      </trkpt>
      <trkpt lat="42.9781507" lon="-5.7359465">
        <ele>1550.08</ele>
        <time>2020-07-21T10:55:05.000Z</time>
      </trkpt>
      <trkpt lat="42.9781542" lon="-5.7359515">
        <ele>1549.62</ele>
        <time>2020-07-21T10:55:06.000Z</time>
      </trkpt>
      <trkpt lat="42.9781625" lon="-5.7359568">
        <ele>1549.62</ele>
        <time>2020-07-21T10:55:07.000Z</time>
      </trkpt>
      <trkpt lat="42.978173" lon="-5.7359633">
        <ele>1549.32</ele>
        <time>2020-07-21T10:55:08.000Z</time>
      </trkpt>
      <trkpt lat="42.9781857" lon="-5.7359687">
        <ele>1549.32</ele>
        <time>2020-07-21T10:55:09.000Z</time>
      </trkpt>
      <trkpt lat="42.9781982" lon="-5.735975">
        <ele>1548.86</ele>
        <time>2020-07-21T10:55:10.000Z</time>
      </trkpt>
      <trkpt lat="42.9782105" lon="-5.7359823">
        <ele>1548.86</ele>
        <time>2020-07-21T10:55:11.000Z</time>
      </trkpt>
      <trkpt lat="42.9782222" lon="-5.73599">
        <ele>1548.56</ele>
        <time>2020-07-21T10:55:12.000Z</time>
      </trkpt>
      <trkpt lat="42.9782333" lon="-5.7359967">
        <ele>1548.56</ele>
        <time>2020-07-21T10:55:13.000Z</time>
      </trkpt>
      <trkpt lat="42.9782455" lon="-5.736002">
        <ele>1548.1</ele>
        <time>2020-07-21T10:55:14.000Z</time>
      </trkpt>
      <trkpt lat="42.9782587" lon="-5.736006">
        <ele>1548.1</ele>
        <time>2020-07-21T10:55:15.000Z</time>
      </trkpt>
      <trkpt lat="42.9782735" lon="-5.7360102">
        <ele>1547.64</ele>
        <time>2020-07-21T10:55:16.000Z</time>
      </trkpt>
      <trkpt lat="42.9782888" lon="-5.7360142">
        <ele>1547.64</ele>
        <time>2020-07-21T10:55:17.000Z</time>
      </trkpt>
      <trkpt lat="42.9783052" lon="-5.7360187">
        <ele>1547.34</ele>
        <time>2020-07-21T10:55:18.000Z</time>
      </trkpt>
      <trkpt lat="42.9783212" lon="-5.7360232">
        <ele>1547.34</ele>
        <time>2020-07-21T10:55:19.000Z</time>
      </trkpt>
      <trkpt lat="42.9783357" lon="-5.7360287">
        <ele>1546.88</ele>
        <time>2020-07-21T10:55:20.000Z</time>
      </trkpt>
      <trkpt lat="42.9783483" lon="-5.7360342">
        <ele>1546.88</ele>
        <time>2020-07-21T10:55:21.000Z</time>
      </trkpt>
      <trkpt lat="42.9783582" lon="-5.7360363">
        <ele>1546.42</ele>
        <time>2020-07-21T10:55:22.000Z</time>
      </trkpt>
      <trkpt lat="42.9783628" lon="-5.736038">
        <ele>1546.42</ele>
        <time>2020-07-21T10:55:23.000Z</time>
      </trkpt>
      <trkpt lat="42.9783645" lon="-5.7360367">
        <ele>1545.96</ele>
        <time>2020-07-21T10:55:24.000Z</time>
      </trkpt>
      <trkpt lat="42.9783647" lon="-5.7360368">
        <ele>1545.96</ele>
        <time>2020-07-21T10:55:25.000Z</time>
      </trkpt>
      <trkpt lat="42.9783658" lon="-5.7360355">
        <ele>1545.66</ele>
        <time>2020-07-21T10:55:26.000Z</time>
      </trkpt>
      <trkpt lat="42.978368" lon="-5.7360355">
        <ele>1545.66</ele>
        <time>2020-07-21T10:55:27.000Z</time>
      </trkpt>
      <trkpt lat="42.9783715" lon="-5.7360365">
        <ele>1545.2</ele>
        <time>2020-07-21T10:55:28.000Z</time>
      </trkpt>
      <trkpt lat="42.9783768" lon="-5.736038">
        <ele>1545.2</ele>
        <time>2020-07-21T10:55:29.000Z</time>
      </trkpt>
      <trkpt lat="42.9783822" lon="-5.73604">
        <ele>1544.74</ele>
        <time>2020-07-21T10:55:30.000Z</time>
      </trkpt>
      <trkpt lat="42.9783873" lon="-5.7360382">
        <ele>1544.74</ele>
        <time>2020-07-21T10:55:31.000Z</time>
      </trkpt>
      <trkpt lat="42.9783908" lon="-5.7360357">
        <ele>1544.29</ele>
        <time>2020-07-21T10:55:32.000Z</time>
      </trkpt>
      <trkpt lat="42.9783927" lon="-5.7360315">
        <ele>1544.29</ele>
        <time>2020-07-21T10:55:33.000Z</time>
      </trkpt>
      <trkpt lat="42.9783923" lon="-5.736031">
        <ele>1543.83</ele>
        <time>2020-07-21T10:55:34.000Z</time>
      </trkpt>
      <trkpt lat="42.9783922" lon="-5.736032">
        <ele>1543.83</ele>
        <time>2020-07-21T10:55:35.000Z</time>
      </trkpt>
      <trkpt lat="42.9783947" lon="-5.736036">
        <ele>1543.53</ele>
        <time>2020-07-21T10:55:36.000Z</time>
      </trkpt>
      <trkpt lat="42.978401" lon="-5.7360403">
        <ele>1543.53</ele>
        <time>2020-07-21T10:55:37.000Z</time>
      </trkpt>
      <trkpt lat="42.9784108" lon="-5.736044">
        <ele>1543.07</ele>
        <time>2020-07-21T10:55:38.000Z</time>
      </trkpt>
      <trkpt lat="42.978422" lon="-5.7360478">
        <ele>1543.07</ele>
        <time>2020-07-21T10:55:39.000Z</time>
      </trkpt>
      <trkpt lat="42.9784347" lon="-5.736052">
        <ele>1542.61</ele>
        <time>2020-07-21T10:55:40.000Z</time>
      </trkpt>
      <trkpt lat="42.9784485" lon="-5.7360568">
        <ele>1542.61</ele>
        <time>2020-07-21T10:55:41.000Z</time>
      </trkpt>
      <trkpt lat="42.9784632" lon="-5.736061">
        <ele>1542.15</ele>
        <time>2020-07-21T10:55:42.000Z</time>
      </trkpt>
      <trkpt lat="42.9784778" lon="-5.7360657">
        <ele>1542.15</ele>
        <time>2020-07-21T10:55:43.000Z</time>
      </trkpt>
      <trkpt lat="42.9784922" lon="-5.73607">
        <ele>1541.7</ele>
        <time>2020-07-21T10:55:44.000Z</time>
      </trkpt>
      <trkpt lat="42.9785058" lon="-5.7360755">
        <ele>1541.7</ele>
        <time>2020-07-21T10:55:45.000Z</time>
      </trkpt>
      <trkpt lat="42.9785187" lon="-5.7360815">
        <ele>1541.39</ele>
        <time>2020-07-21T10:55:46.000Z</time>
      </trkpt>
      <trkpt lat="42.9785308" lon="-5.736089">
        <ele>1541.39</ele>
        <time>2020-07-21T10:55:47.000Z</time>
      </trkpt>
      <trkpt lat="42.9785435" lon="-5.736097">
        <ele>1540.94</ele>
        <time>2020-07-21T10:55:48.000Z</time>
      </trkpt>
      <trkpt lat="42.9785572" lon="-5.7361037">
        <ele>1540.94</ele>
        <time>2020-07-21T10:55:49.000Z</time>
      </trkpt>
      <trkpt lat="42.9785722" lon="-5.7361088">
        <ele>1540.48</ele>
        <time>2020-07-21T10:55:50.000Z</time>
      </trkpt>
      <trkpt lat="42.9785875" lon="-5.7361135">
        <ele>1540.48</ele>
        <time>2020-07-21T10:55:51.000Z</time>
      </trkpt>
      <trkpt lat="42.9786035" lon="-5.7361182">
        <ele>1540.02</ele>
        <time>2020-07-21T10:55:52.000Z</time>
      </trkpt>
      <trkpt lat="42.978618" lon="-5.736124">
        <ele>1540.02</ele>
        <time>2020-07-21T10:55:53.000Z</time>
      </trkpt>
      <trkpt lat="42.9786323" lon="-5.7361293">
        <ele>1539.56</ele>
        <time>2020-07-21T10:55:54.000Z</time>
      </trkpt>
      <trkpt lat="42.9786463" lon="-5.7361362">
        <ele>1539.56</ele>
        <time>2020-07-21T10:55:55.000Z</time>
      </trkpt>
      <trkpt lat="42.9786605" lon="-5.736142">
        <ele>1539.11</ele>
        <time>2020-07-21T10:55:56.000Z</time>
      </trkpt>
      <trkpt lat="42.9786735" lon="-5.7361477">
        <ele>1539.11</ele>
        <time>2020-07-21T10:55:57.000Z</time>
      </trkpt>
      <trkpt lat="42.9786857" lon="-5.7361517">
        <ele>1538.65</ele>
        <time>2020-07-21T10:55:58.000Z</time>
      </trkpt>
      <trkpt lat="42.9787008" lon="-5.7361557">
        <ele>1538.65</ele>
        <time>2020-07-21T10:55:59.000Z</time>
      </trkpt>
      <trkpt lat="42.9787162" lon="-5.7361597">
        <ele>1538.34</ele>
        <time>2020-07-21T10:56:00.000Z</time>
      </trkpt>
      <trkpt lat="42.9787312" lon="-5.7361645">
        <ele>1538.34</ele>
        <time>2020-07-21T10:56:01.000Z</time>
      </trkpt>
      <trkpt lat="42.9787437" lon="-5.7361693">
        <ele>1537.89</ele>
        <time>2020-07-21T10:56:02.000Z</time>
      </trkpt>
      <trkpt lat="42.9787563" lon="-5.7361752">
        <ele>1537.89</ele>
        <time>2020-07-21T10:56:03.000Z</time>
      </trkpt>
      <trkpt lat="42.978769" lon="-5.7361813">
        <ele>1537.43</ele>
        <time>2020-07-21T10:56:04.000Z</time>
      </trkpt>
      <trkpt lat="42.9787818" lon="-5.7361885">
        <ele>1537.43</ele>
        <time>2020-07-21T10:56:05.000Z</time>
      </trkpt>
      <trkpt lat="42.9787947" lon="-5.7361962">
        <ele>1537.12</ele>
        <time>2020-07-21T10:56:06.000Z</time>
      </trkpt>
      <trkpt lat="42.978808" lon="-5.736205">
        <ele>1537.12</ele>
        <time>2020-07-21T10:56:07.000Z</time>
      </trkpt>
      <trkpt lat="42.9788215" lon="-5.7362135">
        <ele>1536.67</ele>
        <time>2020-07-21T10:56:08.000Z</time>
      </trkpt>
      <trkpt lat="42.9788345" lon="-5.7362215">
        <ele>1536.67</ele>
        <time>2020-07-21T10:56:09.000Z</time>
      </trkpt>
      <trkpt lat="42.9788472" lon="-5.7362287">
        <ele>1536.21</ele>
        <time>2020-07-21T10:56:10.000Z</time>
      </trkpt>
      <trkpt lat="42.978859" lon="-5.7362363">
        <ele>1536.21</ele>
        <time>2020-07-21T10:56:11.000Z</time>
      </trkpt>
      <trkpt lat="42.978871" lon="-5.736245">
        <ele>1535.91</ele>
        <time>2020-07-21T10:56:12.000Z</time>
      </trkpt>
      <trkpt lat="42.9788832" lon="-5.7362538">
        <ele>1535.91</ele>
        <time>2020-07-21T10:56:13.000Z</time>
      </trkpt>
      <trkpt lat="42.9788958" lon="-5.7362622">
        <ele>1535.45</ele>
        <time>2020-07-21T10:56:14.000Z</time>
      </trkpt>
      <trkpt lat="42.9789087" lon="-5.7362703">
        <ele>1535.45</ele>
        <time>2020-07-21T10:56:15.000Z</time>
      </trkpt>
      <trkpt lat="42.978921" lon="-5.7362783">
        <ele>1534.99</ele>
        <time>2020-07-21T10:56:16.000Z</time>
      </trkpt>
      <trkpt lat="42.9789332" lon="-5.7362858">
        <ele>1534.99</ele>
        <time>2020-07-21T10:56:17.000Z</time>
      </trkpt>
      <trkpt lat="42.9789457" lon="-5.7362932">
        <ele>1534.69</ele>
        <time>2020-07-21T10:56:18.000Z</time>
      </trkpt>
      <trkpt lat="42.9789582" lon="-5.7363002">
        <ele>1534.69</ele>
        <time>2020-07-21T10:56:19.000Z</time>
      </trkpt>
      <trkpt lat="42.9789708" lon="-5.7363073">
        <ele>1534.23</ele>
        <time>2020-07-21T10:56:20.000Z</time>
      </trkpt>
      <trkpt lat="42.9789827" lon="-5.7363145">
        <ele>1534.23</ele>
        <time>2020-07-21T10:56:21.000Z</time>
      </trkpt>
      <trkpt lat="42.9789948" lon="-5.7363217">
        <ele>1533.93</ele>
        <time>2020-07-21T10:56:22.000Z</time>
      </trkpt>
      <trkpt lat="42.9790068" lon="-5.7363293">
        <ele>1533.93</ele>
        <time>2020-07-21T10:56:23.000Z</time>
      </trkpt>
      <trkpt lat="42.979019" lon="-5.7363367">
        <ele>1533.47</ele>
        <time>2020-07-21T10:56:24.000Z</time>
      </trkpt>
      <trkpt lat="42.9790308" lon="-5.7363443">
        <ele>1533.47</ele>
        <time>2020-07-21T10:56:25.000Z</time>
      </trkpt>
      <trkpt lat="42.9790432" lon="-5.7363515">
        <ele>1533.16</ele>
        <time>2020-07-21T10:56:26.000Z</time>
      </trkpt>
      <trkpt lat="42.9790563" lon="-5.7363585">
        <ele>1533.16</ele>
        <time>2020-07-21T10:56:27.000Z</time>
      </trkpt>
      <trkpt lat="42.9790702" lon="-5.736365">
        <ele>1532.7</ele>
        <time>2020-07-21T10:56:28.000Z</time>
      </trkpt>
      <trkpt lat="42.9790837" lon="-5.736372">
        <ele>1532.7</ele>
        <time>2020-07-21T10:56:29.000Z</time>
      </trkpt>
      <trkpt lat="42.979097" lon="-5.7363795">
        <ele>1532.4</ele>
        <time>2020-07-21T10:56:30.000Z</time>
      </trkpt>
      <trkpt lat="42.9791102" lon="-5.736387">
        <ele>1532.4</ele>
        <time>2020-07-21T10:56:31.000Z</time>
      </trkpt>
      <trkpt lat="42.9791232" lon="-5.736394">
        <ele>1531.94</ele>
        <time>2020-07-21T10:56:32.000Z</time>
      </trkpt>
      <trkpt lat="42.9791352" lon="-5.7364">
        <ele>1531.94</ele>
        <time>2020-07-21T10:56:33.000Z</time>
      </trkpt>
      <trkpt lat="42.9791462" lon="-5.7364062">
        <ele>1531.64</ele>
        <time>2020-07-21T10:56:34.000Z</time>
      </trkpt>
      <trkpt lat="42.9791583" lon="-5.7364127">
        <ele>1531.64</ele>
        <time>2020-07-21T10:56:35.000Z</time>
      </trkpt>
      <trkpt lat="42.9791713" lon="-5.7364193">
        <ele>1531.18</ele>
        <time>2020-07-21T10:56:36.000Z</time>
      </trkpt>
      <trkpt lat="42.9791843" lon="-5.7364257">
        <ele>1531.18</ele>
        <time>2020-07-21T10:56:37.000Z</time>
      </trkpt>
      <trkpt lat="42.979197" lon="-5.7364315">
        <ele>1530.88</ele>
        <time>2020-07-21T10:56:38.000Z</time>
      </trkpt>
      <trkpt lat="42.97921" lon="-5.7364378">
        <ele>1530.88</ele>
        <time>2020-07-21T10:56:39.000Z</time>
      </trkpt>
      <trkpt lat="42.9792232" lon="-5.7364437">
        <ele>1530.57</ele>
        <time>2020-07-21T10:56:40.000Z</time>
      </trkpt>
      <trkpt lat="42.979236" lon="-5.7364497">
        <ele>1530.57</ele>
        <time>2020-07-21T10:56:41.000Z</time>
      </trkpt>
      <trkpt lat="42.9792487" lon="-5.7364557">
        <ele>1530.11</ele>
        <time>2020-07-21T10:56:42.000Z</time>
      </trkpt>
      <trkpt lat="42.979262" lon="-5.7364625">
        <ele>1530.11</ele>
        <time>2020-07-21T10:56:43.000Z</time>
      </trkpt>
      <trkpt lat="42.979275" lon="-5.7364697">
        <ele>1529.81</ele>
        <time>2020-07-21T10:56:44.000Z</time>
      </trkpt>
      <trkpt lat="42.9792878" lon="-5.7364767">
        <ele>1529.81</ele>
        <time>2020-07-21T10:56:45.000Z</time>
      </trkpt>
      <trkpt lat="42.9793003" lon="-5.7364832">
        <ele>1529.51</ele>
        <time>2020-07-21T10:56:46.000Z</time>
      </trkpt>
      <trkpt lat="42.9793133" lon="-5.7364897">
        <ele>1529.51</ele>
        <time>2020-07-21T10:56:47.000Z</time>
      </trkpt>
      <trkpt lat="42.9793272" lon="-5.7364965">
        <ele>1529.05</ele>
        <time>2020-07-21T10:56:48.000Z</time>
      </trkpt>
      <trkpt lat="42.979341" lon="-5.7365035">
        <ele>1529.05</ele>
        <time>2020-07-21T10:56:49.000Z</time>
      </trkpt>
      <trkpt lat="42.9793545" lon="-5.736511">
        <ele>1528.74</ele>
        <time>2020-07-21T10:56:50.000Z</time>
      </trkpt>
      <trkpt lat="42.9793688" lon="-5.7365185">
        <ele>1528.74</ele>
        <time>2020-07-21T10:56:51.000Z</time>
      </trkpt>
      <trkpt lat="42.9793838" lon="-5.7365262">
        <ele>1528.44</ele>
        <time>2020-07-21T10:56:52.000Z</time>
      </trkpt>
      <trkpt lat="42.979399" lon="-5.7365332">
        <ele>1528.44</ele>
        <time>2020-07-21T10:56:53.000Z</time>
      </trkpt>
      <trkpt lat="42.9794123" lon="-5.7365397">
        <ele>1528.13</ele>
        <time>2020-07-21T10:56:54.000Z</time>
      </trkpt>
      <trkpt lat="42.9794245" lon="-5.7365453">
        <ele>1528.13</ele>
        <time>2020-07-21T10:56:55.000Z</time>
      </trkpt>
      <trkpt lat="42.979437" lon="-5.7365507">
        <ele>1527.68</ele>
        <time>2020-07-21T10:56:56.000Z</time>
      </trkpt>
      <trkpt lat="42.97945" lon="-5.7365558">
        <ele>1527.68</ele>
        <time>2020-07-21T10:56:57.000Z</time>
      </trkpt>
      <trkpt lat="42.9794632" lon="-5.7365617">
        <ele>1527.37</ele>
        <time>2020-07-21T10:56:58.000Z</time>
      </trkpt>
      <trkpt lat="42.9794772" lon="-5.7365678">
        <ele>1527.37</ele>
        <time>2020-07-21T10:56:59.000Z</time>
      </trkpt>
      <trkpt lat="42.9794918" lon="-5.736574">
        <ele>1527.07</ele>
        <time>2020-07-21T10:57:00.000Z</time>
      </trkpt>
      <trkpt lat="42.9795078" lon="-5.73658">
        <ele>1527.07</ele>
        <time>2020-07-21T10:57:01.000Z</time>
      </trkpt>
      <trkpt lat="42.979523" lon="-5.7365857">
        <ele>1526.61</ele>
        <time>2020-07-21T10:57:02.000Z</time>
      </trkpt>
      <trkpt lat="42.9795378" lon="-5.7365907">
        <ele>1526.61</ele>
        <time>2020-07-21T10:57:03.000Z</time>
      </trkpt>
      <trkpt lat="42.9795522" lon="-5.7365947">
        <ele>1526.31</ele>
        <time>2020-07-21T10:57:04.000Z</time>
      </trkpt>
      <trkpt lat="42.9795667" lon="-5.7365987">
        <ele>1526.31</ele>
        <time>2020-07-21T10:57:05.000Z</time>
      </trkpt>
      <trkpt lat="42.979581" lon="-5.7366028">
        <ele>1526</ele>
        <time>2020-07-21T10:57:06.000Z</time>
      </trkpt>
      <trkpt lat="42.979595" lon="-5.7366067">
        <ele>1526</ele>
        <time>2020-07-21T10:57:07.000Z</time>
      </trkpt>
      <trkpt lat="42.9796088" lon="-5.73661">
        <ele>1525.69</ele>
        <time>2020-07-21T10:57:08.000Z</time>
      </trkpt>
      <trkpt lat="42.9796218" lon="-5.7366138">
        <ele>1525.69</ele>
        <time>2020-07-21T10:57:09.000Z</time>
      </trkpt>
      <trkpt lat="42.9796355" lon="-5.7366192">
        <ele>1525.24</ele>
        <time>2020-07-21T10:57:10.000Z</time>
      </trkpt>
      <trkpt lat="42.9796483" lon="-5.7366242">
        <ele>1525.24</ele>
        <time>2020-07-21T10:57:11.000Z</time>
      </trkpt>
      <trkpt lat="42.9796627" lon="-5.7366278">
        <ele>1524.93</ele>
        <time>2020-07-21T10:57:12.000Z</time>
      </trkpt>
      <trkpt lat="42.9796772" lon="-5.7366305">
        <ele>1524.93</ele>
        <time>2020-07-21T10:57:13.000Z</time>
      </trkpt>
      <trkpt lat="42.9796928" lon="-5.7366343">
        <ele>1524.48</ele>
        <time>2020-07-21T10:57:14.000Z</time>
      </trkpt>
      <trkpt lat="42.9797075" lon="-5.7366387">
        <ele>1524.48</ele>
        <time>2020-07-21T10:57:15.000Z</time>
      </trkpt>
      <trkpt lat="42.9797213" lon="-5.7366425">
        <ele>1524.17</ele>
        <time>2020-07-21T10:57:16.000Z</time>
      </trkpt>
      <trkpt lat="42.9797348" lon="-5.7366453">
        <ele>1524.17</ele>
        <time>2020-07-21T10:57:17.000Z</time>
      </trkpt>
      <trkpt lat="42.9797482" lon="-5.736649">
        <ele>1523.71</ele>
        <time>2020-07-21T10:57:18.000Z</time>
      </trkpt>
      <trkpt lat="42.9797617" lon="-5.7366532">
        <ele>1523.71</ele>
        <time>2020-07-21T10:57:19.000Z</time>
      </trkpt>
      <trkpt lat="42.9797757" lon="-5.736658">
        <ele>1523.26</ele>
        <time>2020-07-21T10:57:20.000Z</time>
      </trkpt>
      <trkpt lat="42.9797903" lon="-5.7366622">
        <ele>1523.26</ele>
        <time>2020-07-21T10:57:21.000Z</time>
      </trkpt>
      <trkpt lat="42.9798058" lon="-5.7366655">
        <ele>1522.95</ele>
        <time>2020-07-21T10:57:22.000Z</time>
      </trkpt>
      <trkpt lat="42.979821" lon="-5.7366675">
        <ele>1522.95</ele>
        <time>2020-07-21T10:57:23.000Z</time>
      </trkpt>
      <trkpt lat="42.979836" lon="-5.7366695">
        <ele>1522.49</ele>
        <time>2020-07-21T10:57:24.000Z</time>
      </trkpt>
      <trkpt lat="42.979851" lon="-5.7366717">
        <ele>1522.49</ele>
        <time>2020-07-21T10:57:25.000Z</time>
      </trkpt>
      <trkpt lat="42.9798663" lon="-5.7366745">
        <ele>1522.04</ele>
        <time>2020-07-21T10:57:26.000Z</time>
      </trkpt>
      <trkpt lat="42.9798805" lon="-5.7366767">
        <ele>1522.04</ele>
        <time>2020-07-21T10:57:27.000Z</time>
      </trkpt>
      <trkpt lat="42.9798938" lon="-5.7366783">
        <ele>1521.73</ele>
        <time>2020-07-21T10:57:28.000Z</time>
      </trkpt>
      <trkpt lat="42.9799082" lon="-5.7366777">
        <ele>1521.73</ele>
        <time>2020-07-21T10:57:29.000Z</time>
      </trkpt>
      <trkpt lat="42.9799233" lon="-5.7366777">
        <ele>1521.28</ele>
        <time>2020-07-21T10:57:30.000Z</time>
      </trkpt>
      <trkpt lat="42.979939" lon="-5.7366792">
        <ele>1521.28</ele>
        <time>2020-07-21T10:57:31.000Z</time>
      </trkpt>
      <trkpt lat="42.9799538" lon="-5.7366833">
        <ele>1520.82</ele>
        <time>2020-07-21T10:57:32.000Z</time>
      </trkpt>
      <trkpt lat="42.9799688" lon="-5.7366873">
        <ele>1520.82</ele>
        <time>2020-07-21T10:57:33.000Z</time>
      </trkpt>
      <trkpt lat="42.9799842" lon="-5.73669">
        <ele>1520.36</ele>
        <time>2020-07-21T10:57:34.000Z</time>
      </trkpt>
      <trkpt lat="42.9799995" lon="-5.7366902">
        <ele>1520.36</ele>
        <time>2020-07-21T10:57:35.000Z</time>
      </trkpt>
      <trkpt lat="42.9800138" lon="-5.7366903">
        <ele>1520.06</ele>
        <time>2020-07-21T10:57:36.000Z</time>
      </trkpt>
      <trkpt lat="42.9800273" lon="-5.7366917">
        <ele>1520.06</ele>
        <time>2020-07-21T10:57:37.000Z</time>
      </trkpt>
      <trkpt lat="42.9800392" lon="-5.7366957">
        <ele>1519.6</ele>
        <time>2020-07-21T10:57:38.000Z</time>
      </trkpt>
      <trkpt lat="42.9800513" lon="-5.7367008">
        <ele>1519.6</ele>
        <time>2020-07-21T10:57:39.000Z</time>
      </trkpt>
      <trkpt lat="42.9800647" lon="-5.7367065">
        <ele>1519.14</ele>
        <time>2020-07-21T10:57:40.000Z</time>
      </trkpt>
      <trkpt lat="42.9800797" lon="-5.7367112">
        <ele>1519.14</ele>
        <time>2020-07-21T10:57:41.000Z</time>
      </trkpt>
      <trkpt lat="42.9800947" lon="-5.7367158">
        <ele>1518.68</ele>
        <time>2020-07-21T10:57:42.000Z</time>
      </trkpt>
      <trkpt lat="42.9801092" lon="-5.7367195">
        <ele>1518.68</ele>
        <time>2020-07-21T10:57:43.000Z</time>
      </trkpt>
      <trkpt lat="42.9801225" lon="-5.7367235">
        <ele>1518.38</ele>
        <time>2020-07-21T10:57:44.000Z</time>
      </trkpt>
      <trkpt lat="42.9801347" lon="-5.736728">
        <ele>1518.38</ele>
        <time>2020-07-21T10:57:45.000Z</time>
      </trkpt>
      <trkpt lat="42.9801458" lon="-5.736734">
        <ele>1517.92</ele>
        <time>2020-07-21T10:57:46.000Z</time>
      </trkpt>
      <trkpt lat="42.9801573" lon="-5.7367403">
        <ele>1517.92</ele>
        <time>2020-07-21T10:57:47.000Z</time>
      </trkpt>
      <trkpt lat="42.9801695" lon="-5.7367458">
        <ele>1517.46</ele>
        <time>2020-07-21T10:57:48.000Z</time>
      </trkpt>
      <trkpt lat="42.9801815" lon="-5.7367498">
        <ele>1517.46</ele>
        <time>2020-07-21T10:57:49.000Z</time>
      </trkpt>
      <trkpt lat="42.9801937" lon="-5.736754">
        <ele>1517.16</ele>
        <time>2020-07-21T10:57:50.000Z</time>
      </trkpt>
      <trkpt lat="42.9802053" lon="-5.736758">
        <ele>1517.16</ele>
        <time>2020-07-21T10:57:51.000Z</time>
      </trkpt>
      <trkpt lat="42.9802177" lon="-5.7367627">
        <ele>1516.7</ele>
        <time>2020-07-21T10:57:52.000Z</time>
      </trkpt>
      <trkpt lat="42.9802302" lon="-5.7367672">
        <ele>1516.7</ele>
        <time>2020-07-21T10:57:53.000Z</time>
      </trkpt>
      <trkpt lat="42.9802428" lon="-5.7367717">
        <ele>1516.25</ele>
        <time>2020-07-21T10:57:54.000Z</time>
      </trkpt>
      <trkpt lat="42.9802562" lon="-5.736776">
        <ele>1516.25</ele>
        <time>2020-07-21T10:57:55.000Z</time>
      </trkpt>
      <trkpt lat="42.9802693" lon="-5.7367805">
        <ele>1515.79</ele>
        <time>2020-07-21T10:57:56.000Z</time>
      </trkpt>
      <trkpt lat="42.9802822" lon="-5.7367835">
        <ele>1515.79</ele>
        <time>2020-07-21T10:57:57.000Z</time>
      </trkpt>
      <trkpt lat="42.9802947" lon="-5.736785">
        <ele>1515.48</ele>
        <time>2020-07-21T10:57:58.000Z</time>
      </trkpt>
      <trkpt lat="42.9803075" lon="-5.7367863">
        <ele>1515.48</ele>
        <time>2020-07-21T10:57:59.000Z</time>
      </trkpt>
      <trkpt lat="42.9803208" lon="-5.7367895">
        <ele>1515.03</ele>
        <time>2020-07-21T10:58:00.000Z</time>
      </trkpt>
      <trkpt lat="42.9803335" lon="-5.7367952">
        <ele>1515.03</ele>
        <time>2020-07-21T10:58:01.000Z</time>
      </trkpt>
      <trkpt lat="42.9803462" lon="-5.7368013">
        <ele>1514.57</ele>
        <time>2020-07-21T10:58:02.000Z</time>
      </trkpt>
      <trkpt lat="42.9803585" lon="-5.7368062">
        <ele>1514.57</ele>
        <time>2020-07-21T10:58:03.000Z</time>
      </trkpt>
      <trkpt lat="42.9803715" lon="-5.7368102">
        <ele>1514.11</ele>
        <time>2020-07-21T10:58:04.000Z</time>
      </trkpt>
      <trkpt lat="42.9803853" lon="-5.7368145">
        <ele>1514.11</ele>
        <time>2020-07-21T10:58:05.000Z</time>
      </trkpt>
      <trkpt lat="42.9803995" lon="-5.7368193">
        <ele>1513.66</ele>
        <time>2020-07-21T10:58:06.000Z</time>
      </trkpt>
      <trkpt lat="42.980414" lon="-5.7368235">
        <ele>1513.66</ele>
        <time>2020-07-21T10:58:07.000Z</time>
      </trkpt>
      <trkpt lat="42.9804273" lon="-5.7368272">
        <ele>1513.35</ele>
        <time>2020-07-21T10:58:08.000Z</time>
      </trkpt>
      <trkpt lat="42.9804403" lon="-5.7368313">
        <ele>1513.35</ele>
        <time>2020-07-21T10:58:09.000Z</time>
      </trkpt>
      <trkpt lat="42.980453" lon="-5.7368365">
        <ele>1512.89</ele>
        <time>2020-07-21T10:58:10.000Z</time>
      </trkpt>
      <trkpt lat="42.9804645" lon="-5.7368418">
        <ele>1512.89</ele>
        <time>2020-07-21T10:58:11.000Z</time>
      </trkpt>
      <trkpt lat="42.9804762" lon="-5.7368467">
        <ele>1512.44</ele>
        <time>2020-07-21T10:58:12.000Z</time>
      </trkpt>
      <trkpt lat="42.9804892" lon="-5.7368515">
        <ele>1512.44</ele>
        <time>2020-07-21T10:58:13.000Z</time>
      </trkpt>
      <trkpt lat="42.9805043" lon="-5.7368557">
        <ele>1511.98</ele>
        <time>2020-07-21T10:58:14.000Z</time>
      </trkpt>
      <trkpt lat="42.98052" lon="-5.7368605">
        <ele>1511.98</ele>
        <time>2020-07-21T10:58:15.000Z</time>
      </trkpt>
      <trkpt lat="42.9805355" lon="-5.736865">
        <ele>1511.52</ele>
        <time>2020-07-21T10:58:16.000Z</time>
      </trkpt>
      <trkpt lat="42.9805508" lon="-5.7368692">
        <ele>1511.52</ele>
        <time>2020-07-21T10:58:17.000Z</time>
      </trkpt>
      <trkpt lat="42.9805655" lon="-5.7368735">
        <ele>1511.06</ele>
        <time>2020-07-21T10:58:18.000Z</time>
      </trkpt>
      <trkpt lat="42.980579" lon="-5.7368783">
        <ele>1511.06</ele>
        <time>2020-07-21T10:58:19.000Z</time>
      </trkpt>
      <trkpt lat="42.9805918" lon="-5.7368843">
        <ele>1510.61</ele>
        <time>2020-07-21T10:58:20.000Z</time>
      </trkpt>
      <trkpt lat="42.9806055" lon="-5.7368907">
        <ele>1510.61</ele>
        <time>2020-07-21T10:58:21.000Z</time>
      </trkpt>
      <trkpt lat="42.9806197" lon="-5.7368963">
        <ele>1510.15</ele>
        <time>2020-07-21T10:58:22.000Z</time>
      </trkpt>
      <trkpt lat="42.9806342" lon="-5.7369022">
        <ele>1510.15</ele>
        <time>2020-07-21T10:58:23.000Z</time>
      </trkpt>
      <trkpt lat="42.9806468" lon="-5.7369072">
        <ele>1509.69</ele>
        <time>2020-07-21T10:58:24.000Z</time>
      </trkpt>
      <trkpt lat="42.980659" lon="-5.7369122">
        <ele>1509.69</ele>
        <time>2020-07-21T10:58:25.000Z</time>
      </trkpt>
      <trkpt lat="42.980671" lon="-5.7369162">
        <ele>1509.23</ele>
        <time>2020-07-21T10:58:26.000Z</time>
      </trkpt>
      <trkpt lat="42.9806845" lon="-5.7369213">
        <ele>1509.23</ele>
        <time>2020-07-21T10:58:27.000Z</time>
      </trkpt>
      <trkpt lat="42.980697" lon="-5.7369273">
        <ele>1508.78</ele>
        <time>2020-07-21T10:58:28.000Z</time>
      </trkpt>
      <trkpt lat="42.9807092" lon="-5.7369343">
        <ele>1508.78</ele>
        <time>2020-07-21T10:58:29.000Z</time>
      </trkpt>
      <trkpt lat="42.9807208" lon="-5.736941">
        <ele>1508.32</ele>
        <time>2020-07-21T10:58:30.000Z</time>
      </trkpt>
      <trkpt lat="42.9807342" lon="-5.736945">
        <ele>1508.32</ele>
        <time>2020-07-21T10:58:31.000Z</time>
      </trkpt>
      <trkpt lat="42.9807475" lon="-5.7369493">
        <ele>1507.86</ele>
        <time>2020-07-21T10:58:32.000Z</time>
      </trkpt>
      <trkpt lat="42.9807605" lon="-5.7369528">
        <ele>1507.86</ele>
        <time>2020-07-21T10:58:33.000Z</time>
      </trkpt>
      <trkpt lat="42.9807727" lon="-5.736958">
        <ele>1507.41</ele>
        <time>2020-07-21T10:58:34.000Z</time>
      </trkpt>
      <trkpt lat="42.9807847" lon="-5.7369623">
        <ele>1507.41</ele>
        <time>2020-07-21T10:58:35.000Z</time>
      </trkpt>
      <trkpt lat="42.9807963" lon="-5.7369672">
        <ele>1506.95</ele>
        <time>2020-07-21T10:58:36.000Z</time>
      </trkpt>
      <trkpt lat="42.980808" lon="-5.7369723">
        <ele>1506.95</ele>
        <time>2020-07-21T10:58:37.000Z</time>
      </trkpt>
      <trkpt lat="42.9808203" lon="-5.7369772">
        <ele>1506.49</ele>
        <time>2020-07-21T10:58:38.000Z</time>
      </trkpt>
      <trkpt lat="42.9808332" lon="-5.736982">
        <ele>1506.49</ele>
        <time>2020-07-21T10:58:39.000Z</time>
      </trkpt>
      <trkpt lat="42.980846" lon="-5.7369868">
        <ele>1506.04</ele>
        <time>2020-07-21T10:58:40.000Z</time>
      </trkpt>
      <trkpt lat="42.9808588" lon="-5.7369917">
        <ele>1506.04</ele>
        <time>2020-07-21T10:58:41.000Z</time>
      </trkpt>
      <trkpt lat="42.9808717" lon="-5.7369967">
        <ele>1505.58</ele>
        <time>2020-07-21T10:58:42.000Z</time>
      </trkpt>
      <trkpt lat="42.9808848" lon="-5.737001">
        <ele>1505.58</ele>
        <time>2020-07-21T10:58:43.000Z</time>
      </trkpt>
      <trkpt lat="42.9808978" lon="-5.7370055">
        <ele>1504.97</ele>
        <time>2020-07-21T10:58:44.000Z</time>
      </trkpt>
      <trkpt lat="42.980911" lon="-5.7370102">
        <ele>1504.97</ele>
        <time>2020-07-21T10:58:45.000Z</time>
      </trkpt>
      <trkpt lat="42.9809233" lon="-5.7370143">
        <ele>1504.51</ele>
        <time>2020-07-21T10:58:46.000Z</time>
      </trkpt>
      <trkpt lat="42.9809357" lon="-5.7370187">
        <ele>1504.51</ele>
        <time>2020-07-21T10:58:47.000Z</time>
      </trkpt>
      <trkpt lat="42.9809478" lon="-5.7370228">
        <ele>1504.05</ele>
        <time>2020-07-21T10:58:48.000Z</time>
      </trkpt>
      <trkpt lat="42.9809605" lon="-5.737028">
        <ele>1504.05</ele>
        <time>2020-07-21T10:58:49.000Z</time>
      </trkpt>
      <trkpt lat="42.9809737" lon="-5.7370338">
        <ele>1503.6</ele>
        <time>2020-07-21T10:58:50.000Z</time>
      </trkpt>
      <trkpt lat="42.9809875" lon="-5.7370395">
        <ele>1503.6</ele>
        <time>2020-07-21T10:58:51.000Z</time>
      </trkpt>
      <trkpt lat="42.9810013" lon="-5.7370442">
        <ele>1503.14</ele>
        <time>2020-07-21T10:58:52.000Z</time>
      </trkpt>
      <trkpt lat="42.9810142" lon="-5.7370482">
        <ele>1503.14</ele>
        <time>2020-07-21T10:58:53.000Z</time>
      </trkpt>
      <trkpt lat="42.9810267" lon="-5.737052">
        <ele>1502.53</ele>
        <time>2020-07-21T10:58:54.000Z</time>
      </trkpt>
      <trkpt lat="42.9810397" lon="-5.7370565">
        <ele>1502.53</ele>
        <time>2020-07-21T10:58:55.000Z</time>
      </trkpt>
      <trkpt lat="42.9810527" lon="-5.7370612">
        <ele>1502.07</ele>
        <time>2020-07-21T10:58:56.000Z</time>
      </trkpt>
      <trkpt lat="42.9810658" lon="-5.737066">
        <ele>1502.07</ele>
        <time>2020-07-21T10:58:57.000Z</time>
      </trkpt>
      <trkpt lat="42.9810785" lon="-5.737071">
        <ele>1501.61</ele>
        <time>2020-07-21T10:58:58.000Z</time>
      </trkpt>
      <trkpt lat="42.9810917" lon="-5.7370758">
        <ele>1501.61</ele>
        <time>2020-07-21T10:58:59.000Z</time>
      </trkpt>
      <trkpt lat="42.9811037" lon="-5.7370803">
        <ele>1501.01</ele>
        <time>2020-07-21T10:59:00.000Z</time>
      </trkpt>
      <trkpt lat="42.9811138" lon="-5.7370833">
        <ele>1501.01</ele>
        <time>2020-07-21T10:59:01.000Z</time>
      </trkpt>
      <trkpt lat="42.9811212" lon="-5.7370857">
        <ele>1500.55</ele>
        <time>2020-07-21T10:59:02.000Z</time>
      </trkpt>
      <trkpt lat="42.9811275" lon="-5.7370882">
        <ele>1500.55</ele>
        <time>2020-07-21T10:59:03.000Z</time>
      </trkpt>
      <trkpt lat="42.9811357" lon="-5.7370923">
        <ele>1499.94</ele>
        <time>2020-07-21T10:59:04.000Z</time>
      </trkpt>
      <trkpt lat="42.9811467" lon="-5.737097">
        <ele>1499.94</ele>
        <time>2020-07-21T10:59:05.000Z</time>
      </trkpt>
      <trkpt lat="42.9811592" lon="-5.7371012">
        <ele>1499.48</ele>
        <time>2020-07-21T10:59:06.000Z</time>
      </trkpt>
      <trkpt lat="42.9811715" lon="-5.737105">
        <ele>1499.48</ele>
        <time>2020-07-21T10:59:07.000Z</time>
      </trkpt>
      <trkpt lat="42.981184" lon="-5.7371092">
        <ele>1498.87</ele>
        <time>2020-07-21T10:59:08.000Z</time>
      </trkpt>
      <trkpt lat="42.981197" lon="-5.7371135">
        <ele>1498.87</ele>
        <time>2020-07-21T10:59:09.000Z</time>
      </trkpt>
      <trkpt lat="42.98121" lon="-5.7371177">
        <ele>1498.42</ele>
        <time>2020-07-21T10:59:10.000Z</time>
      </trkpt>
      <trkpt lat="42.9812225" lon="-5.7371215">
        <ele>1498.42</ele>
        <time>2020-07-21T10:59:11.000Z</time>
      </trkpt>
      <trkpt lat="42.9812338" lon="-5.7371252">
        <ele>1497.96</ele>
        <time>2020-07-21T10:59:12.000Z</time>
      </trkpt>
      <trkpt lat="42.9812452" lon="-5.737129">
        <ele>1497.96</ele>
        <time>2020-07-21T10:59:13.000Z</time>
      </trkpt>
      <trkpt lat="42.9812562" lon="-5.737133">
        <ele>1497.35</ele>
        <time>2020-07-21T10:59:14.000Z</time>
      </trkpt>
      <trkpt lat="42.9812667" lon="-5.7371362">
        <ele>1497.35</ele>
        <time>2020-07-21T10:59:15.000Z</time>
      </trkpt>
      <trkpt lat="42.9812762" lon="-5.7371388">
        <ele>1496.89</ele>
        <time>2020-07-21T10:59:16.000Z</time>
      </trkpt>
      <trkpt lat="42.9812855" lon="-5.7371417">
        <ele>1496.89</ele>
        <time>2020-07-21T10:59:17.000Z</time>
      </trkpt>
      <trkpt lat="42.9812948" lon="-5.7371435">
        <ele>1496.28</ele>
        <time>2020-07-21T10:59:18.000Z</time>
      </trkpt>
      <trkpt lat="42.9813033" lon="-5.7371438">
        <ele>1496.28</ele>
        <time>2020-07-21T10:59:19.000Z</time>
      </trkpt>
      <trkpt lat="42.9813105" lon="-5.7371415">
        <ele>1495.82</ele>
        <time>2020-07-21T10:59:20.000Z</time>
      </trkpt>
      <trkpt lat="42.9813177" lon="-5.7371393">
        <ele>1495.82</ele>
        <time>2020-07-21T10:59:21.000Z</time>
      </trkpt>
      <trkpt lat="42.9813255" lon="-5.7371388">
        <ele>1495.21</ele>
        <time>2020-07-21T10:59:22.000Z</time>
      </trkpt>
      <trkpt lat="42.9813348" lon="-5.7371407">
        <ele>1495.21</ele>
        <time>2020-07-21T10:59:23.000Z</time>
      </trkpt>
      <trkpt lat="42.9813452" lon="-5.7371438">
        <ele>1494.76</ele>
        <time>2020-07-21T10:59:24.000Z</time>
      </trkpt>
      <trkpt lat="42.9813573" lon="-5.7371472">
        <ele>1494.76</ele>
        <time>2020-07-21T10:59:25.000Z</time>
      </trkpt>
      <trkpt lat="42.9813712" lon="-5.7371505">
        <ele>1494.3</ele>
        <time>2020-07-21T10:59:26.000Z</time>
      </trkpt>
      <trkpt lat="42.9813855" lon="-5.7371535">
        <ele>1494.3</ele>
        <time>2020-07-21T10:59:27.000Z</time>
      </trkpt>
      <trkpt lat="42.9813993" lon="-5.7371562">
        <ele>1493.69</ele>
        <time>2020-07-21T10:59:28.000Z</time>
      </trkpt>
      <trkpt lat="42.9814132" lon="-5.7371585">
        <ele>1493.69</ele>
        <time>2020-07-21T10:59:29.000Z</time>
      </trkpt>
      <trkpt lat="42.9814268" lon="-5.7371605">
        <ele>1493.23</ele>
        <time>2020-07-21T10:59:30.000Z</time>
      </trkpt>
      <trkpt lat="42.9814405" lon="-5.7371622">
        <ele>1493.23</ele>
        <time>2020-07-21T10:59:31.000Z</time>
      </trkpt>
      <trkpt lat="42.9814552" lon="-5.7371643">
        <ele>1492.78</ele>
        <time>2020-07-21T10:59:32.000Z</time>
      </trkpt>
      <trkpt lat="42.9814697" lon="-5.7371663">
        <ele>1492.78</ele>
        <time>2020-07-21T10:59:33.000Z</time>
      </trkpt>
      <trkpt lat="42.9814847" lon="-5.7371683">
        <ele>1492.17</ele>
        <time>2020-07-21T10:59:34.000Z</time>
      </trkpt>
      <trkpt lat="42.9814992" lon="-5.7371693">
        <ele>1492.17</ele>
        <time>2020-07-21T10:59:35.000Z</time>
      </trkpt>
      <trkpt lat="42.9815142" lon="-5.7371703">
        <ele>1491.71</ele>
        <time>2020-07-21T10:59:36.000Z</time>
      </trkpt>
      <trkpt lat="42.9815295" lon="-5.7371715">
        <ele>1491.71</ele>
        <time>2020-07-21T10:59:37.000Z</time>
      </trkpt>
      <trkpt lat="42.981544" lon="-5.7371732">
        <ele>1491.25</ele>
        <time>2020-07-21T10:59:38.000Z</time>
      </trkpt>
      <trkpt lat="42.9815582" lon="-5.7371755">
        <ele>1491.25</ele>
        <time>2020-07-21T10:59:39.000Z</time>
      </trkpt>
      <trkpt lat="42.9815722" lon="-5.7371777">
        <ele>1490.8</ele>
        <time>2020-07-21T10:59:40.000Z</time>
      </trkpt>
      <trkpt lat="42.9815863" lon="-5.7371795">
        <ele>1490.8</ele>
        <time>2020-07-21T10:59:41.000Z</time>
      </trkpt>
      <trkpt lat="42.981601" lon="-5.7371813">
        <ele>1490.19</ele>
        <time>2020-07-21T10:59:42.000Z</time>
      </trkpt>
      <trkpt lat="42.9816163" lon="-5.737183">
        <ele>1490.19</ele>
        <time>2020-07-21T10:59:43.000Z</time>
      </trkpt>
      <trkpt lat="42.9816312" lon="-5.7371847">
        <ele>1489.73</ele>
        <time>2020-07-21T10:59:44.000Z</time>
      </trkpt>
      <trkpt lat="42.9816457" lon="-5.7371863">
        <ele>1489.73</ele>
        <time>2020-07-21T10:59:45.000Z</time>
      </trkpt>
      <trkpt lat="42.9816593" lon="-5.7371878">
        <ele>1489.27</ele>
        <time>2020-07-21T10:59:46.000Z</time>
      </trkpt>
      <trkpt lat="42.9816725" lon="-5.7371902">
        <ele>1489.27</ele>
        <time>2020-07-21T10:59:47.000Z</time>
      </trkpt>
      <trkpt lat="42.9816867" lon="-5.7371923">
        <ele>1488.66</ele>
        <time>2020-07-21T10:59:48.000Z</time>
      </trkpt>
      <trkpt lat="42.9817005" lon="-5.7371942">
        <ele>1488.66</ele>
        <time>2020-07-21T10:59:49.000Z</time>
      </trkpt>
      <trkpt lat="42.9817158" lon="-5.7371958">
        <ele>1488.2</ele>
        <time>2020-07-21T10:59:50.000Z</time>
      </trkpt>
      <trkpt lat="42.9817305" lon="-5.7371968">
        <ele>1488.2</ele>
        <time>2020-07-21T10:59:51.000Z</time>
      </trkpt>
      <trkpt lat="42.9817453" lon="-5.7371988">
        <ele>1487.75</ele>
        <time>2020-07-21T10:59:52.000Z</time>
      </trkpt>
      <trkpt lat="42.98176" lon="-5.7372003">
        <ele>1487.75</ele>
        <time>2020-07-21T10:59:53.000Z</time>
      </trkpt>
      <trkpt lat="42.9817757" lon="-5.7372022">
        <ele>1487.14</ele>
        <time>2020-07-21T10:59:54.000Z</time>
      </trkpt>
      <trkpt lat="42.9817912" lon="-5.7372037">
        <ele>1487.14</ele>
        <time>2020-07-21T10:59:55.000Z</time>
      </trkpt>
      <trkpt lat="42.9818062" lon="-5.7372062">
        <ele>1486.68</ele>
        <time>2020-07-21T10:59:56.000Z</time>
      </trkpt>
      <trkpt lat="42.9818213" lon="-5.7372097">
        <ele>1486.68</ele>
        <time>2020-07-21T10:59:57.000Z</time>
      </trkpt>
      <trkpt lat="42.9818362" lon="-5.7372137">
        <ele>1486.07</ele>
        <time>2020-07-21T10:59:58.000Z</time>
      </trkpt>
      <trkpt lat="42.9818515" lon="-5.7372175">
        <ele>1486.07</ele>
        <time>2020-07-21T10:59:59.000Z</time>
      </trkpt>
      <trkpt lat="42.981867" lon="-5.7372213">
        <ele>1485.61</ele>
        <time>2020-07-21T11:00:00.000Z</time>
      </trkpt>
      <trkpt lat="42.9818832" lon="-5.7372247">
        <ele>1485.61</ele>
        <time>2020-07-21T11:00:01.000Z</time>
      </trkpt>
      <trkpt lat="42.9818993" lon="-5.737228">
        <ele>1485</ele>
        <time>2020-07-21T11:00:02.000Z</time>
      </trkpt>
      <trkpt lat="42.9819142" lon="-5.7372308">
        <ele>1485</ele>
        <time>2020-07-21T11:00:03.000Z</time>
      </trkpt>
      <trkpt lat="42.981929" lon="-5.7372342">
        <ele>1484.39</ele>
        <time>2020-07-21T11:00:04.000Z</time>
      </trkpt>
      <trkpt lat="42.9819437" lon="-5.7372368">
        <ele>1484.39</ele>
        <time>2020-07-21T11:00:05.000Z</time>
      </trkpt>
      <trkpt lat="42.9819582" lon="-5.7372388">
        <ele>1483.94</ele>
        <time>2020-07-21T11:00:06.000Z</time>
      </trkpt>
      <trkpt lat="42.9819722" lon="-5.7372395">
        <ele>1483.94</ele>
        <time>2020-07-21T11:00:07.000Z</time>
      </trkpt>
      <trkpt lat="42.9819855" lon="-5.73724">
        <ele>1483.33</ele>
        <time>2020-07-21T11:00:08.000Z</time>
      </trkpt>
      <trkpt lat="42.9819983" lon="-5.7372402">
        <ele>1483.33</ele>
        <time>2020-07-21T11:00:09.000Z</time>
      </trkpt>
      <trkpt lat="42.9820107" lon="-5.7372402">
        <ele>1482.72</ele>
        <time>2020-07-21T11:00:10.000Z</time>
      </trkpt>
      <trkpt lat="42.9820233" lon="-5.7372403">
        <ele>1482.72</ele>
        <time>2020-07-21T11:00:11.000Z</time>
      </trkpt>
      <trkpt lat="42.9820363" lon="-5.7372402">
        <ele>1482.11</ele>
        <time>2020-07-21T11:00:12.000Z</time>
      </trkpt>
      <trkpt lat="42.9820493" lon="-5.7372398">
        <ele>1482.11</ele>
        <time>2020-07-21T11:00:13.000Z</time>
      </trkpt>
      <trkpt lat="42.9820618" lon="-5.7372392">
        <ele>1481.65</ele>
        <time>2020-07-21T11:00:14.000Z</time>
      </trkpt>
      <trkpt lat="42.9820748" lon="-5.7372385">
        <ele>1481.65</ele>
        <time>2020-07-21T11:00:15.000Z</time>
      </trkpt>
      <trkpt lat="42.9820877" lon="-5.7372378">
        <ele>1481.04</ele>
        <time>2020-07-21T11:00:16.000Z</time>
      </trkpt>
      <trkpt lat="42.9821013" lon="-5.7372367">
        <ele>1481.04</ele>
        <time>2020-07-21T11:00:17.000Z</time>
      </trkpt>
      <trkpt lat="42.9821142" lon="-5.737235">
        <ele>1480.43</ele>
        <time>2020-07-21T11:00:18.000Z</time>
      </trkpt>
      <trkpt lat="42.9821263" lon="-5.7372328">
        <ele>1480.43</ele>
        <time>2020-07-21T11:00:19.000Z</time>
      </trkpt>
      <trkpt lat="42.9821372" lon="-5.7372303">
        <ele>1479.82</ele>
        <time>2020-07-21T11:00:20.000Z</time>
      </trkpt>
      <trkpt lat="42.9821475" lon="-5.7372275">
        <ele>1479.82</ele>
        <time>2020-07-21T11:00:21.000Z</time>
      </trkpt>
      <trkpt lat="42.9821582" lon="-5.7372247">
        <ele>1479.21</ele>
        <time>2020-07-21T11:00:22.000Z</time>
      </trkpt>
      <trkpt lat="42.9821688" lon="-5.7372205">
        <ele>1479.21</ele>
        <time>2020-07-21T11:00:23.000Z</time>
      </trkpt>
      <trkpt lat="42.9821802" lon="-5.7372157">
        <ele>1478.6</ele>
        <time>2020-07-21T11:00:24.000Z</time>
      </trkpt>
      <trkpt lat="42.9821917" lon="-5.7372115">
        <ele>1478.6</ele>
        <time>2020-07-21T11:00:25.000Z</time>
      </trkpt>
      <trkpt lat="42.9822045" lon="-5.7372077">
        <ele>1477.99</ele>
        <time>2020-07-21T11:00:26.000Z</time>
      </trkpt>
      <trkpt lat="42.982219" lon="-5.7372035">
        <ele>1477.99</ele>
        <time>2020-07-21T11:00:27.000Z</time>
      </trkpt>
      <trkpt lat="42.9822345" lon="-5.7371978">
        <ele>1477.38</ele>
        <time>2020-07-21T11:00:28.000Z</time>
      </trkpt>
      <trkpt lat="42.9822498" lon="-5.7371927">
        <ele>1477.38</ele>
        <time>2020-07-21T11:00:29.000Z</time>
      </trkpt>
      <trkpt lat="42.9822642" lon="-5.7371878">
        <ele>1476.77</ele>
        <time>2020-07-21T11:00:30.000Z</time>
      </trkpt>
      <trkpt lat="42.9822788" lon="-5.7371827">
        <ele>1476.77</ele>
        <time>2020-07-21T11:00:31.000Z</time>
      </trkpt>
      <trkpt lat="42.9822937" lon="-5.7371753">
        <ele>1476.16</ele>
        <time>2020-07-21T11:00:32.000Z</time>
      </trkpt>
      <trkpt lat="42.9823087" lon="-5.7371687">
        <ele>1476.16</ele>
        <time>2020-07-21T11:00:33.000Z</time>
      </trkpt>
      <trkpt lat="42.9823237" lon="-5.7371628">
        <ele>1475.71</ele>
        <time>2020-07-21T11:00:34.000Z</time>
      </trkpt>
      <trkpt lat="42.9823385" lon="-5.7371598">
        <ele>1475.71</ele>
        <time>2020-07-21T11:00:35.000Z</time>
      </trkpt>
      <trkpt lat="42.982353" lon="-5.737158">
        <ele>1475.1</ele>
        <time>2020-07-21T11:00:36.000Z</time>
      </trkpt>
      <trkpt lat="42.9823672" lon="-5.7371575">
        <ele>1475.1</ele>
        <time>2020-07-21T11:00:37.000Z</time>
      </trkpt>
      <trkpt lat="42.982381" lon="-5.737158">
        <ele>1474.49</ele>
        <time>2020-07-21T11:00:38.000Z</time>
      </trkpt>
      <trkpt lat="42.982395" lon="-5.7371585">
        <ele>1474.49</ele>
        <time>2020-07-21T11:00:39.000Z</time>
      </trkpt>
      <trkpt lat="42.9824092" lon="-5.7371598">
        <ele>1473.88</ele>
        <time>2020-07-21T11:00:40.000Z</time>
      </trkpt>
      <trkpt lat="42.9824237" lon="-5.737162">
        <ele>1473.88</ele>
        <time>2020-07-21T11:00:41.000Z</time>
      </trkpt>
      <trkpt lat="42.9824383" lon="-5.7371633">
        <ele>1473.27</ele>
        <time>2020-07-21T11:00:42.000Z</time>
      </trkpt>
      <trkpt lat="42.9824525" lon="-5.7371627">
        <ele>1473.27</ele>
        <time>2020-07-21T11:00:43.000Z</time>
      </trkpt>
      <trkpt lat="42.9824653" lon="-5.7371602">
        <ele>1472.66</ele>
        <time>2020-07-21T11:00:44.000Z</time>
      </trkpt>
      <trkpt lat="42.9824777" lon="-5.7371583">
        <ele>1472.66</ele>
        <time>2020-07-21T11:00:45.000Z</time>
      </trkpt>
      <trkpt lat="42.9824897" lon="-5.7371578">
        <ele>1472.05</ele>
        <time>2020-07-21T11:00:46.000Z</time>
      </trkpt>
      <trkpt lat="42.9825025" lon="-5.7371585">
        <ele>1472.05</ele>
        <time>2020-07-21T11:00:47.000Z</time>
      </trkpt>
      <trkpt lat="42.982516" lon="-5.7371595">
        <ele>1471.44</ele>
        <time>2020-07-21T11:00:48.000Z</time>
      </trkpt>
      <trkpt lat="42.98253" lon="-5.737161">
        <ele>1471.44</ele>
        <time>2020-07-21T11:00:49.000Z</time>
      </trkpt>
      <trkpt lat="42.9825453" lon="-5.7371618">
        <ele>1470.83</ele>
        <time>2020-07-21T11:00:50.000Z</time>
      </trkpt>
      <trkpt lat="42.98256" lon="-5.7371623">
        <ele>1470.83</ele>
        <time>2020-07-21T11:00:51.000Z</time>
      </trkpt>
      <trkpt lat="42.9825745" lon="-5.7371622">
        <ele>1470.37</ele>
        <time>2020-07-21T11:00:52.000Z</time>
      </trkpt>
      <trkpt lat="42.9825878" lon="-5.7371605">
        <ele>1470.37</ele>
        <time>2020-07-21T11:00:53.000Z</time>
      </trkpt>
      <trkpt lat="42.9826015" lon="-5.7371562">
        <ele>1469.76</ele>
        <time>2020-07-21T11:00:54.000Z</time>
      </trkpt>
      <trkpt lat="42.9826158" lon="-5.7371498">
        <ele>1469.76</ele>
        <time>2020-07-21T11:00:55.000Z</time>
      </trkpt>
      <trkpt lat="42.9826305" lon="-5.7371442">
        <ele>1469.31</ele>
        <time>2020-07-21T11:00:56.000Z</time>
      </trkpt>
      <trkpt lat="42.9826452" lon="-5.7371407">
        <ele>1469.31</ele>
        <time>2020-07-21T11:00:57.000Z</time>
      </trkpt>
      <trkpt lat="42.9826593" lon="-5.737139">
        <ele>1468.7</ele>
        <time>2020-07-21T11:00:58.000Z</time>
      </trkpt>
      <trkpt lat="42.982673" lon="-5.7371368">
        <ele>1468.7</ele>
        <time>2020-07-21T11:00:59.000Z</time>
      </trkpt>
      <trkpt lat="42.982687" lon="-5.7371342">
        <ele>1468.24</ele>
        <time>2020-07-21T11:01:00.000Z</time>
      </trkpt>
      <trkpt lat="42.9827015" lon="-5.7371298">
        <ele>1468.24</ele>
        <time>2020-07-21T11:01:01.000Z</time>
      </trkpt>
      <trkpt lat="42.9827167" lon="-5.7371257">
        <ele>1467.63</ele>
        <time>2020-07-21T11:01:02.000Z</time>
      </trkpt>
      <trkpt lat="42.9827313" lon="-5.7371242">
        <ele>1467.63</ele>
        <time>2020-07-21T11:01:03.000Z</time>
      </trkpt>
      <trkpt lat="42.9827442" lon="-5.7371275">
        <ele>1467.17</ele>
        <time>2020-07-21T11:01:04.000Z</time>
      </trkpt>
      <trkpt lat="42.9827535" lon="-5.7371358">
        <ele>1467.17</ele>
        <time>2020-07-21T11:01:05.000Z</time>
      </trkpt>
      <trkpt lat="42.9827583" lon="-5.7371472">
        <ele>1466.71</ele>
        <time>2020-07-21T11:01:06.000Z</time>
      </trkpt>
      <trkpt lat="42.9827583" lon="-5.73716">
        <ele>1466.71</ele>
        <time>2020-07-21T11:01:07.000Z</time>
      </trkpt>
      <trkpt lat="42.9827555" lon="-5.7371737">
        <ele>1466.11</ele>
        <time>2020-07-21T11:01:08.000Z</time>
      </trkpt>
      <trkpt lat="42.9827512" lon="-5.7371877">
        <ele>1466.11</ele>
        <time>2020-07-21T11:01:09.000Z</time>
      </trkpt>
      <trkpt lat="42.9827458" lon="-5.7372013">
        <ele>1465.65</ele>
        <time>2020-07-21T11:01:10.000Z</time>
      </trkpt>
      <trkpt lat="42.98274" lon="-5.7372147">
        <ele>1465.65</ele>
        <time>2020-07-21T11:01:11.000Z</time>
      </trkpt>
      <trkpt lat="42.9827335" lon="-5.7372272">
        <ele>1465.19</ele>
        <time>2020-07-21T11:01:12.000Z</time>
      </trkpt>
      <trkpt lat="42.9827258" lon="-5.7372392">
        <ele>1465.19</ele>
        <time>2020-07-21T11:01:13.000Z</time>
      </trkpt>
      <trkpt lat="42.9827178" lon="-5.737251">
        <ele>1464.73</ele>
        <time>2020-07-21T11:01:14.000Z</time>
      </trkpt>
      <trkpt lat="42.9827095" lon="-5.7372642">
        <ele>1464.73</ele>
        <time>2020-07-21T11:01:15.000Z</time>
      </trkpt>
      <trkpt lat="42.9827018" lon="-5.7372772">
        <ele>1464.28</ele>
        <time>2020-07-21T11:01:16.000Z</time>
      </trkpt>
      <trkpt lat="42.982694" lon="-5.7372892">
        <ele>1464.28</ele>
        <time>2020-07-21T11:01:17.000Z</time>
      </trkpt>
      <trkpt lat="42.9826865" lon="-5.7373018">
        <ele>1463.82</ele>
        <time>2020-07-21T11:01:18.000Z</time>
      </trkpt>
      <trkpt lat="42.9826788" lon="-5.737314">
        <ele>1463.82</ele>
        <time>2020-07-21T11:01:19.000Z</time>
      </trkpt>
      <trkpt lat="42.9826718" lon="-5.7373273">
        <ele>1463.36</ele>
        <time>2020-07-21T11:01:20.000Z</time>
      </trkpt>
      <trkpt lat="42.9826653" lon="-5.7373393">
        <ele>1463.36</ele>
        <time>2020-07-21T11:01:21.000Z</time>
      </trkpt>
      <trkpt lat="42.9826598" lon="-5.7373525">
        <ele>1462.75</ele>
        <time>2020-07-21T11:01:22.000Z</time>
      </trkpt>
      <trkpt lat="42.9826547" lon="-5.7373667">
        <ele>1462.75</ele>
        <time>2020-07-21T11:01:23.000Z</time>
      </trkpt>
      <trkpt lat="42.98265" lon="-5.7373808">
        <ele>1462.3</ele>
        <time>2020-07-21T11:01:24.000Z</time>
      </trkpt>
      <trkpt lat="42.9826443" lon="-5.7373932">
        <ele>1462.3</ele>
        <time>2020-07-21T11:01:25.000Z</time>
      </trkpt>
      <trkpt lat="42.9826382" lon="-5.7374028">
        <ele>1461.84</ele>
        <time>2020-07-21T11:01:26.000Z</time>
      </trkpt>
      <trkpt lat="42.982631" lon="-5.7374123">
        <ele>1461.84</ele>
        <time>2020-07-21T11:01:27.000Z</time>
      </trkpt>
      <trkpt lat="42.9826253" lon="-5.7374203">
        <ele>1461.38</ele>
        <time>2020-07-21T11:01:28.000Z</time>
      </trkpt>
      <trkpt lat="42.9826203" lon="-5.7374272">
        <ele>1461.38</ele>
        <time>2020-07-21T11:01:29.000Z</time>
      </trkpt>
      <trkpt lat="42.9826163" lon="-5.737432">
        <ele>1460.92</ele>
        <time>2020-07-21T11:01:30.000Z</time>
      </trkpt>
      <trkpt lat="42.982612" lon="-5.7374378">
        <ele>1460.92</ele>
        <time>2020-07-21T11:01:31.000Z</time>
      </trkpt>
      <trkpt lat="42.9826075" lon="-5.737445">
        <ele>1460.47</ele>
        <time>2020-07-21T11:01:32.000Z</time>
      </trkpt>
      <trkpt lat="42.9826038" lon="-5.737454">
        <ele>1460.47</ele>
        <time>2020-07-21T11:01:33.000Z</time>
      </trkpt>
      <trkpt lat="42.9825998" lon="-5.7374648">
        <ele>1460.01</ele>
        <time>2020-07-21T11:01:34.000Z</time>
      </trkpt>
      <trkpt lat="42.9825952" lon="-5.737476">
        <ele>1460.01</ele>
        <time>2020-07-21T11:01:35.000Z</time>
      </trkpt>
      <trkpt lat="42.9825892" lon="-5.737486">
        <ele>1459.55</ele>
        <time>2020-07-21T11:01:36.000Z</time>
      </trkpt>
      <trkpt lat="42.9825833" lon="-5.7374933">
        <ele>1459.55</ele>
        <time>2020-07-21T11:01:37.000Z</time>
      </trkpt>
      <trkpt lat="42.9825792" lon="-5.7374975">
        <ele>1459.09</ele>
        <time>2020-07-21T11:01:38.000Z</time>
      </trkpt>
      <trkpt lat="42.9825775" lon="-5.7374997">
        <ele>1459.09</ele>
        <time>2020-07-21T11:01:39.000Z</time>
      </trkpt>
      <trkpt lat="42.982575" lon="-5.7375012">
        <ele>1458.64</ele>
        <time>2020-07-21T11:01:40.000Z</time>
      </trkpt>
      <trkpt lat="42.9825717" lon="-5.7375067">
        <ele>1458.64</ele>
        <time>2020-07-21T11:01:41.000Z</time>
      </trkpt>
      <trkpt lat="42.9825655" lon="-5.7375163">
        <ele>1458.18</ele>
        <time>2020-07-21T11:01:42.000Z</time>
      </trkpt>
      <trkpt lat="42.9825578" lon="-5.7375302">
        <ele>1458.18</ele>
        <time>2020-07-21T11:01:43.000Z</time>
      </trkpt>
      <trkpt lat="42.9825472" lon="-5.7375428">
        <ele>1457.72</ele>
        <time>2020-07-21T11:01:44.000Z</time>
      </trkpt>
      <trkpt lat="42.9825345" lon="-5.7375532">
        <ele>1457.72</ele>
        <time>2020-07-21T11:01:45.000Z</time>
      </trkpt>
      <trkpt lat="42.9825217" lon="-5.7375608">
        <ele>1457.27</ele>
        <time>2020-07-21T11:01:46.000Z</time>
      </trkpt>
      <trkpt lat="42.9825097" lon="-5.7375678">
        <ele>1457.27</ele>
        <time>2020-07-21T11:01:47.000Z</time>
      </trkpt>
      <trkpt lat="42.9824985" lon="-5.7375763">
        <ele>1456.81</ele>
        <time>2020-07-21T11:01:48.000Z</time>
      </trkpt>
      <trkpt lat="42.9824877" lon="-5.7375852">
        <ele>1456.81</ele>
        <time>2020-07-21T11:01:49.000Z</time>
      </trkpt>
      <trkpt lat="42.9824778" lon="-5.7375948">
        <ele>1456.35</ele>
        <time>2020-07-21T11:01:50.000Z</time>
      </trkpt>
      <trkpt lat="42.9824692" lon="-5.7376035">
        <ele>1456.35</ele>
        <time>2020-07-21T11:01:51.000Z</time>
      </trkpt>
      <trkpt lat="42.982461" lon="-5.7376145">
        <ele>1455.9</ele>
        <time>2020-07-21T11:01:52.000Z</time>
      </trkpt>
      <trkpt lat="42.9824532" lon="-5.7376265">
        <ele>1455.9</ele>
        <time>2020-07-21T11:01:53.000Z</time>
      </trkpt>
      <trkpt lat="42.9824457" lon="-5.7376368">
        <ele>1455.44</ele>
        <time>2020-07-21T11:01:54.000Z</time>
      </trkpt>
      <trkpt lat="42.9824388" lon="-5.7376445">
        <ele>1455.44</ele>
        <time>2020-07-21T11:01:55.000Z</time>
      </trkpt>
      <trkpt lat="42.9824328" lon="-5.7376495">
        <ele>1454.98</ele>
        <time>2020-07-21T11:01:56.000Z</time>
      </trkpt>
      <trkpt lat="42.9824272" lon="-5.7376557">
        <ele>1454.98</ele>
        <time>2020-07-21T11:01:57.000Z</time>
      </trkpt>
      <trkpt lat="42.982422" lon="-5.737662">
        <ele>1454.68</ele>
        <time>2020-07-21T11:01:58.000Z</time>
      </trkpt>
      <trkpt lat="42.9824158" lon="-5.7376687">
        <ele>1454.68</ele>
        <time>2020-07-21T11:01:59.000Z</time>
      </trkpt>
      <trkpt lat="42.9824097" lon="-5.7376757">
        <ele>1454.22</ele>
        <time>2020-07-21T11:02:00.000Z</time>
      </trkpt>
      <trkpt lat="42.9824018" lon="-5.7376875">
        <ele>1454.22</ele>
        <time>2020-07-21T11:02:01.000Z</time>
      </trkpt>
      <trkpt lat="42.9823965" lon="-5.737704">
        <ele>1453.76</ele>
        <time>2020-07-21T11:02:02.000Z</time>
      </trkpt>
      <trkpt lat="42.9823888" lon="-5.7377237">
        <ele>1453.76</ele>
        <time>2020-07-21T11:02:03.000Z</time>
      </trkpt>
      <trkpt lat="42.9823828" lon="-5.7377418">
        <ele>1453.3</ele>
        <time>2020-07-21T11:02:04.000Z</time>
      </trkpt>
      <trkpt lat="42.9823752" lon="-5.7377578">
        <ele>1453.3</ele>
        <time>2020-07-21T11:02:05.000Z</time>
      </trkpt>
      <trkpt lat="42.9823697" lon="-5.7377712">
        <ele>1452.85</ele>
        <time>2020-07-21T11:02:06.000Z</time>
      </trkpt>
      <trkpt lat="42.9823635" lon="-5.7377802">
        <ele>1452.85</ele>
        <time>2020-07-21T11:02:07.000Z</time>
      </trkpt>
      <trkpt lat="42.982356" lon="-5.7377877">
        <ele>1452.54</ele>
        <time>2020-07-21T11:02:08.000Z</time>
      </trkpt>
      <trkpt lat="42.9823517" lon="-5.7377925">
        <ele>1452.54</ele>
        <time>2020-07-21T11:02:09.000Z</time>
      </trkpt>
      <trkpt lat="42.982349" lon="-5.7377978">
        <ele>1452.08</ele>
        <time>2020-07-21T11:02:10.000Z</time>
      </trkpt>
      <trkpt lat="42.9823505" lon="-5.7377993">
        <ele>1452.08</ele>
        <time>2020-07-21T11:02:11.000Z</time>
      </trkpt>
      <trkpt lat="42.9823497" lon="-5.7378015">
        <ele>1451.63</ele>
        <time>2020-07-21T11:02:12.000Z</time>
      </trkpt>
      <trkpt lat="42.9823492" lon="-5.7378032">
        <ele>1451.63</ele>
        <time>2020-07-21T11:02:13.000Z</time>
      </trkpt>
      <trkpt lat="42.9823467" lon="-5.7378072">
        <ele>1451.17</ele>
        <time>2020-07-21T11:02:14.000Z</time>
      </trkpt>
      <trkpt lat="42.9823433" lon="-5.7378167">
        <ele>1451.17</ele>
        <time>2020-07-21T11:02:15.000Z</time>
      </trkpt>
      <trkpt lat="42.9823385" lon="-5.7378317">
        <ele>1450.71</ele>
        <time>2020-07-21T11:02:16.000Z</time>
      </trkpt>
      <trkpt lat="42.9823313" lon="-5.7378518">
        <ele>1450.71</ele>
        <time>2020-07-21T11:02:17.000Z</time>
      </trkpt>
      <trkpt lat="42.9823213" lon="-5.7378695">
        <ele>1450.26</ele>
        <time>2020-07-21T11:02:18.000Z</time>
      </trkpt>
      <trkpt lat="42.9823122" lon="-5.7378863">
        <ele>1450.26</ele>
        <time>2020-07-21T11:02:19.000Z</time>
      </trkpt>
      <trkpt lat="42.9823047" lon="-5.7379002">
        <ele>1449.8</ele>
        <time>2020-07-21T11:02:20.000Z</time>
      </trkpt>
      <trkpt lat="42.9823012" lon="-5.7379125">
        <ele>1449.8</ele>
        <time>2020-07-21T11:02:21.000Z</time>
      </trkpt>
      <trkpt lat="42.9822965" lon="-5.7379235">
        <ele>1449.34</ele>
        <time>2020-07-21T11:02:22.000Z</time>
      </trkpt>
      <trkpt lat="42.9822923" lon="-5.7379363">
        <ele>1449.34</ele>
        <time>2020-07-21T11:02:23.000Z</time>
      </trkpt>
      <trkpt lat="42.9822865" lon="-5.7379518">
        <ele>1449.04</ele>
        <time>2020-07-21T11:02:24.000Z</time>
      </trkpt>
      <trkpt lat="42.9822808" lon="-5.7379673">
        <ele>1449.04</ele>
        <time>2020-07-21T11:02:25.000Z</time>
      </trkpt>
      <trkpt lat="42.982274" lon="-5.737981">
        <ele>1448.58</ele>
        <time>2020-07-21T11:02:26.000Z</time>
      </trkpt>
      <trkpt lat="42.982268" lon="-5.7379957">
        <ele>1448.58</ele>
        <time>2020-07-21T11:02:27.000Z</time>
      </trkpt>
      <trkpt lat="42.9822628" lon="-5.7380125">
        <ele>1448.12</ele>
        <time>2020-07-21T11:02:28.000Z</time>
      </trkpt>
      <trkpt lat="42.9822582" lon="-5.7380285">
        <ele>1448.12</ele>
        <time>2020-07-21T11:02:29.000Z</time>
      </trkpt>
      <trkpt lat="42.9822532" lon="-5.738042">
        <ele>1447.67</ele>
        <time>2020-07-21T11:02:30.000Z</time>
      </trkpt>
      <trkpt lat="42.9822467" lon="-5.7380522">
        <ele>1447.67</ele>
        <time>2020-07-21T11:02:31.000Z</time>
      </trkpt>
      <trkpt lat="42.9822395" lon="-5.738062">
        <ele>1447.21</ele>
        <time>2020-07-21T11:02:32.000Z</time>
      </trkpt>
      <trkpt lat="42.9822317" lon="-5.7380717">
        <ele>1447.21</ele>
        <time>2020-07-21T11:02:33.000Z</time>
      </trkpt>
      <trkpt lat="42.982222" lon="-5.738083">
        <ele>1446.9</ele>
        <time>2020-07-21T11:02:34.000Z</time>
      </trkpt>
      <trkpt lat="42.9822118" lon="-5.7380957">
        <ele>1446.9</ele>
        <time>2020-07-21T11:02:35.000Z</time>
      </trkpt>
      <trkpt lat="42.9822028" lon="-5.73811">
        <ele>1446.45</ele>
        <time>2020-07-21T11:02:36.000Z</time>
      </trkpt>
      <trkpt lat="42.9821958" lon="-5.7381238">
        <ele>1446.45</ele>
        <time>2020-07-21T11:02:37.000Z</time>
      </trkpt>
      <trkpt lat="42.9821903" lon="-5.7381397">
        <ele>1445.99</ele>
        <time>2020-07-21T11:02:38.000Z</time>
      </trkpt>
      <trkpt lat="42.9821845" lon="-5.7381547">
        <ele>1445.99</ele>
        <time>2020-07-21T11:02:39.000Z</time>
      </trkpt>
      <trkpt lat="42.9821792" lon="-5.7381725">
        <ele>1445.68</ele>
        <time>2020-07-21T11:02:40.000Z</time>
      </trkpt>
      <trkpt lat="42.982174" lon="-5.738189">
        <ele>1445.68</ele>
        <time>2020-07-21T11:02:41.000Z</time>
      </trkpt>
      <trkpt lat="42.982168" lon="-5.7382075">
        <ele>1445.23</ele>
        <time>2020-07-21T11:02:42.000Z</time>
      </trkpt>
      <trkpt lat="42.982163" lon="-5.7382235">
        <ele>1445.23</ele>
        <time>2020-07-21T11:02:43.000Z</time>
      </trkpt>
      <trkpt lat="42.9821587" lon="-5.7382407">
        <ele>1444.77</ele>
        <time>2020-07-21T11:02:44.000Z</time>
      </trkpt>
      <trkpt lat="42.9821567" lon="-5.7382595">
        <ele>1444.77</ele>
        <time>2020-07-21T11:02:45.000Z</time>
      </trkpt>
      <trkpt lat="42.9821547" lon="-5.7382795">
        <ele>1444.46</ele>
        <time>2020-07-21T11:02:46.000Z</time>
      </trkpt>
      <trkpt lat="42.9821528" lon="-5.7382985">
        <ele>1444.46</ele>
        <time>2020-07-21T11:02:47.000Z</time>
      </trkpt>
      <trkpt lat="42.9821488" lon="-5.7383162">
        <ele>1444.01</ele>
        <time>2020-07-21T11:02:48.000Z</time>
      </trkpt>
      <trkpt lat="42.982142" lon="-5.7383317">
        <ele>1444.01</ele>
        <time>2020-07-21T11:02:49.000Z</time>
      </trkpt>
      <trkpt lat="42.9821333" lon="-5.7383458">
        <ele>1443.7</ele>
        <time>2020-07-21T11:02:50.000Z</time>
      </trkpt>
      <trkpt lat="42.9821237" lon="-5.7383565">
        <ele>1443.7</ele>
        <time>2020-07-21T11:02:51.000Z</time>
      </trkpt>
      <trkpt lat="42.982114" lon="-5.7383682">
        <ele>1443.24</ele>
        <time>2020-07-21T11:02:52.000Z</time>
      </trkpt>
      <trkpt lat="42.9821053" lon="-5.7383823">
        <ele>1443.24</ele>
        <time>2020-07-21T11:02:53.000Z</time>
      </trkpt>
      <trkpt lat="42.9820973" lon="-5.7383985">
        <ele>1442.94</ele>
        <time>2020-07-21T11:02:54.000Z</time>
      </trkpt>
      <trkpt lat="42.9820902" lon="-5.7384158">
        <ele>1442.94</ele>
        <time>2020-07-21T11:02:55.000Z</time>
      </trkpt>
      <trkpt lat="42.9820815" lon="-5.7384313">
        <ele>1442.64</ele>
        <time>2020-07-21T11:02:56.000Z</time>
      </trkpt>
      <trkpt lat="42.9820725" lon="-5.7384463">
        <ele>1442.64</ele>
        <time>2020-07-21T11:02:57.000Z</time>
      </trkpt>
      <trkpt lat="42.9820652" lon="-5.738461">
        <ele>1442.18</ele>
        <time>2020-07-21T11:02:58.000Z</time>
      </trkpt>
      <trkpt lat="42.9820603" lon="-5.738476">
        <ele>1442.18</ele>
        <time>2020-07-21T11:02:59.000Z</time>
      </trkpt>
      <trkpt lat="42.982057" lon="-5.7384933">
        <ele>1441.87</ele>
        <time>2020-07-21T11:03:00.000Z</time>
      </trkpt>
      <trkpt lat="42.982055" lon="-5.7385097">
        <ele>1441.87</ele>
        <time>2020-07-21T11:03:01.000Z</time>
      </trkpt>
      <trkpt lat="42.9820535" lon="-5.7385265">
        <ele>1441.57</ele>
        <time>2020-07-21T11:03:02.000Z</time>
      </trkpt>
      <trkpt lat="42.9820518" lon="-5.7385415">
        <ele>1441.57</ele>
        <time>2020-07-21T11:03:03.000Z</time>
      </trkpt>
      <trkpt lat="42.9820485" lon="-5.7385563">
        <ele>1441.26</ele>
        <time>2020-07-21T11:03:04.000Z</time>
      </trkpt>
      <trkpt lat="42.9820455" lon="-5.7385695">
        <ele>1441.26</ele>
        <time>2020-07-21T11:03:05.000Z</time>
      </trkpt>
      <trkpt lat="42.9820432" lon="-5.7385833">
        <ele>1440.96</ele>
        <time>2020-07-21T11:03:06.000Z</time>
      </trkpt>
      <trkpt lat="42.9820407" lon="-5.7385968">
        <ele>1440.96</ele>
        <time>2020-07-21T11:03:07.000Z</time>
      </trkpt>
      <trkpt lat="42.982037" lon="-5.7386088">
        <ele>1440.66</ele>
        <time>2020-07-21T11:03:08.000Z</time>
      </trkpt>
      <trkpt lat="42.9820327" lon="-5.7386172">
        <ele>1440.66</ele>
        <time>2020-07-21T11:03:09.000Z</time>
      </trkpt>
      <trkpt lat="42.982028" lon="-5.738622">
        <ele>1440.35</ele>
        <time>2020-07-21T11:03:10.000Z</time>
      </trkpt>
      <trkpt lat="42.9820213" lon="-5.7386238">
        <ele>1440.35</ele>
        <time>2020-07-21T11:03:11.000Z</time>
      </trkpt>
      <trkpt lat="42.9820125" lon="-5.7386232">
        <ele>1440.05</ele>
        <time>2020-07-21T11:03:12.000Z</time>
      </trkpt>
      <trkpt lat="42.9820023" lon="-5.7386217">
        <ele>1440.05</ele>
        <time>2020-07-21T11:03:13.000Z</time>
      </trkpt>
      <trkpt lat="42.9819925" lon="-5.7386228">
        <ele>1439.59</ele>
        <time>2020-07-21T11:03:14.000Z</time>
      </trkpt>
      <trkpt lat="42.9819838" lon="-5.7386267">
        <ele>1439.59</ele>
        <time>2020-07-21T11:03:15.000Z</time>
      </trkpt>
      <trkpt lat="42.981978" lon="-5.7386338">
        <ele>1439.28</ele>
        <time>2020-07-21T11:03:16.000Z</time>
      </trkpt>
      <trkpt lat="42.9819748" lon="-5.7386423">
        <ele>1439.28</ele>
        <time>2020-07-21T11:03:17.000Z</time>
      </trkpt>
      <trkpt lat="42.9819723" lon="-5.7386525">
        <ele>1438.98</ele>
        <time>2020-07-21T11:03:18.000Z</time>
      </trkpt>
      <trkpt lat="42.981968" lon="-5.738663">
        <ele>1438.98</ele>
        <time>2020-07-21T11:03:19.000Z</time>
      </trkpt>
      <trkpt lat="42.9819618" lon="-5.7386723">
        <ele>1438.67</ele>
        <time>2020-07-21T11:03:20.000Z</time>
      </trkpt>
      <trkpt lat="42.9819552" lon="-5.7386817">
        <ele>1438.67</ele>
        <time>2020-07-21T11:03:21.000Z</time>
      </trkpt>
      <trkpt lat="42.9819483" lon="-5.7386897">
        <ele>1438.22</ele>
        <time>2020-07-21T11:03:22.000Z</time>
      </trkpt>
      <trkpt lat="42.9819418" lon="-5.7386973">
        <ele>1438.22</ele>
        <time>2020-07-21T11:03:23.000Z</time>
      </trkpt>
      <trkpt lat="42.9819348" lon="-5.7387038">
        <ele>1437.91</ele>
        <time>2020-07-21T11:03:24.000Z</time>
      </trkpt>
      <trkpt lat="42.981927" lon="-5.7387105">
        <ele>1437.91</ele>
        <time>2020-07-21T11:03:25.000Z</time>
      </trkpt>
      <trkpt lat="42.9819197" lon="-5.7387172">
        <ele>1437.45</ele>
        <time>2020-07-21T11:03:26.000Z</time>
      </trkpt>
      <trkpt lat="42.981914" lon="-5.7387262">
        <ele>1437.45</ele>
        <time>2020-07-21T11:03:27.000Z</time>
      </trkpt>
      <trkpt lat="42.981911" lon="-5.7387358">
        <ele>1437.15</ele>
        <time>2020-07-21T11:03:28.000Z</time>
      </trkpt>
      <trkpt lat="42.9819083" lon="-5.7387467">
        <ele>1437.15</ele>
        <time>2020-07-21T11:03:29.000Z</time>
      </trkpt>
      <trkpt lat="42.9819067" lon="-5.7387568">
        <ele>1436.69</ele>
        <time>2020-07-21T11:03:30.000Z</time>
      </trkpt>
      <trkpt lat="42.9819057" lon="-5.7387657">
        <ele>1436.69</ele>
        <time>2020-07-21T11:03:31.000Z</time>
      </trkpt>
      <trkpt lat="42.981906" lon="-5.7387732">
        <ele>1436.39</ele>
        <time>2020-07-21T11:03:32.000Z</time>
      </trkpt>
      <trkpt lat="42.981905" lon="-5.7387793">
        <ele>1436.39</ele>
        <time>2020-07-21T11:03:33.000Z</time>
      </trkpt>
      <trkpt lat="42.9819027" lon="-5.7387863">
        <ele>1436.08</ele>
        <time>2020-07-21T11:03:34.000Z</time>
      </trkpt>
      <trkpt lat="42.9818983" lon="-5.7387938">
        <ele>1436.08</ele>
        <time>2020-07-21T11:03:35.000Z</time>
      </trkpt>
      <trkpt lat="42.9818908" lon="-5.7388028">
        <ele>1435.62</ele>
        <time>2020-07-21T11:03:36.000Z</time>
      </trkpt>
      <trkpt lat="42.9818822" lon="-5.7388113">
        <ele>1435.62</ele>
        <time>2020-07-21T11:03:37.000Z</time>
      </trkpt>
      <trkpt lat="42.9818733" lon="-5.7388192">
        <ele>1435.32</ele>
        <time>2020-07-21T11:03:38.000Z</time>
      </trkpt>
      <trkpt lat="42.9818677" lon="-5.7388252">
        <ele>1435.32</ele>
        <time>2020-07-21T11:03:39.000Z</time>
      </trkpt>
      <trkpt lat="42.9818635" lon="-5.738829">
        <ele>1435.02</ele>
        <time>2020-07-21T11:03:40.000Z</time>
      </trkpt>
      <trkpt lat="42.9818613" lon="-5.7388312">
        <ele>1435.02</ele>
        <time>2020-07-21T11:03:41.000Z</time>
      </trkpt>
      <trkpt lat="42.9818588" lon="-5.7388332">
        <ele>1434.71</ele>
        <time>2020-07-21T11:03:42.000Z</time>
      </trkpt>
      <trkpt lat="42.981856" lon="-5.7388363">
        <ele>1434.71</ele>
        <time>2020-07-21T11:03:43.000Z</time>
      </trkpt>
      <trkpt lat="42.9818525" lon="-5.7388397">
        <ele>1434.41</ele>
        <time>2020-07-21T11:03:44.000Z</time>
      </trkpt>
      <trkpt lat="42.9818492" lon="-5.738843">
        <ele>1434.41</ele>
        <time>2020-07-21T11:03:45.000Z</time>
      </trkpt>
      <trkpt lat="42.9818457" lon="-5.7388463">
        <ele>1433.95</ele>
        <time>2020-07-21T11:03:46.000Z</time>
      </trkpt>
      <trkpt lat="42.981842" lon="-5.73885">
        <ele>1433.95</ele>
        <time>2020-07-21T11:03:47.000Z</time>
      </trkpt>
      <trkpt lat="42.9818387" lon="-5.7388532">
        <ele>1433.64</ele>
        <time>2020-07-21T11:03:48.000Z</time>
      </trkpt>
      <trkpt lat="42.9818348" lon="-5.7388563">
        <ele>1433.64</ele>
        <time>2020-07-21T11:03:49.000Z</time>
      </trkpt>
      <trkpt lat="42.9818312" lon="-5.7388585">
        <ele>1433.34</ele>
        <time>2020-07-21T11:03:50.000Z</time>
      </trkpt>
      <trkpt lat="42.981827" lon="-5.7388615">
        <ele>1433.34</ele>
        <time>2020-07-21T11:03:51.000Z</time>
      </trkpt>
      <trkpt lat="42.9818242" lon="-5.7388642">
        <ele>1432.88</ele>
        <time>2020-07-21T11:03:52.000Z</time>
      </trkpt>
      <trkpt lat="42.981821" lon="-5.7388672">
        <ele>1432.88</ele>
        <time>2020-07-21T11:03:53.000Z</time>
      </trkpt>
      <trkpt lat="42.9818182" lon="-5.7388703">
        <ele>1432.43</ele>
        <time>2020-07-21T11:03:54.000Z</time>
      </trkpt>
      <trkpt lat="42.981815" lon="-5.738874">
        <ele>1432.43</ele>
        <time>2020-07-21T11:03:55.000Z</time>
      </trkpt>
      <trkpt lat="42.9818123" lon="-5.738877">
        <ele>1432.12</ele>
        <time>2020-07-21T11:03:56.000Z</time>
      </trkpt>
      <trkpt lat="42.9818095" lon="-5.7388803">
        <ele>1432.12</ele>
        <time>2020-07-21T11:03:57.000Z</time>
      </trkpt>
      <trkpt lat="42.981806" lon="-5.7388828">
        <ele>1431.66</ele>
        <time>2020-07-21T11:03:58.000Z</time>
      </trkpt>
      <trkpt lat="42.9818017" lon="-5.7388872">
        <ele>1431.66</ele>
        <time>2020-07-21T11:03:59.000Z</time>
      </trkpt>
      <trkpt lat="42.981797" lon="-5.7388915">
        <ele>1431.21</ele>
        <time>2020-07-21T11:04:00.000Z</time>
      </trkpt>
      <trkpt lat="42.9817927" lon="-5.738897">
        <ele>1431.21</ele>
        <time>2020-07-21T11:04:01.000Z</time>
      </trkpt>
      <trkpt lat="42.9817888" lon="-5.7389008">
        <ele>1430.75</ele>
        <time>2020-07-21T11:04:02.000Z</time>
      </trkpt>
      <trkpt lat="42.9817848" lon="-5.738905">
        <ele>1430.75</ele>
        <time>2020-07-21T11:04:03.000Z</time>
      </trkpt>
      <trkpt lat="42.9817798" lon="-5.7389087">
        <ele>1430.29</ele>
        <time>2020-07-21T11:04:04.000Z</time>
      </trkpt>
      <trkpt lat="42.9817735" lon="-5.738914">
        <ele>1430.29</ele>
        <time>2020-07-21T11:04:05.000Z</time>
      </trkpt>
      <trkpt lat="42.9817662" lon="-5.7389203">
        <ele>1429.83</ele>
        <time>2020-07-21T11:04:06.000Z</time>
      </trkpt>
      <trkpt lat="42.981759" lon="-5.738931">
        <ele>1429.83</ele>
        <time>2020-07-21T11:04:07.000Z</time>
      </trkpt>
      <trkpt lat="42.9817518" lon="-5.7389432">
        <ele>1429.38</ele>
        <time>2020-07-21T11:04:08.000Z</time>
      </trkpt>
      <trkpt lat="42.981744" lon="-5.7389562">
        <ele>1429.38</ele>
        <time>2020-07-21T11:04:09.000Z</time>
      </trkpt>
      <trkpt lat="42.9817347" lon="-5.7389673">
        <ele>1428.92</ele>
        <time>2020-07-21T11:04:10.000Z</time>
      </trkpt>
      <trkpt lat="42.9817252" lon="-5.7389772">
        <ele>1428.92</ele>
        <time>2020-07-21T11:04:11.000Z</time>
      </trkpt>
      <trkpt lat="42.981716" lon="-5.7389848">
        <ele>1428.46</ele>
        <time>2020-07-21T11:04:12.000Z</time>
      </trkpt>
      <trkpt lat="42.9817078" lon="-5.7389912">
        <ele>1428.46</ele>
        <time>2020-07-21T11:04:13.000Z</time>
      </trkpt>
      <trkpt lat="42.9816995" lon="-5.7389973">
        <ele>1428.01</ele>
        <time>2020-07-21T11:04:14.000Z</time>
      </trkpt>
      <trkpt lat="42.981691" lon="-5.7390035">
        <ele>1428.01</ele>
        <time>2020-07-21T11:04:15.000Z</time>
      </trkpt>
      <trkpt lat="42.9816807" lon="-5.73901">
        <ele>1427.55</ele>
        <time>2020-07-21T11:04:16.000Z</time>
      </trkpt>
      <trkpt lat="42.9816707" lon="-5.7390148">
        <ele>1427.55</ele>
        <time>2020-07-21T11:04:17.000Z</time>
      </trkpt>
      <trkpt lat="42.9816587" lon="-5.7390208">
        <ele>1427.09</ele>
        <time>2020-07-21T11:04:18.000Z</time>
      </trkpt>
      <trkpt lat="42.9816488" lon="-5.7390317">
        <ele>1427.09</ele>
        <time>2020-07-21T11:04:19.000Z</time>
      </trkpt>
      <trkpt lat="42.981639" lon="-5.7390467">
        <ele>1426.63</ele>
        <time>2020-07-21T11:04:20.000Z</time>
      </trkpt>
      <trkpt lat="42.9816318" lon="-5.7390628">
        <ele>1426.63</ele>
        <time>2020-07-21T11:04:21.000Z</time>
      </trkpt>
      <trkpt lat="42.981624" lon="-5.7390752">
        <ele>1426.02</ele>
        <time>2020-07-21T11:04:22.000Z</time>
      </trkpt>
      <trkpt lat="42.9816143" lon="-5.7390858">
        <ele>1426.02</ele>
        <time>2020-07-21T11:04:23.000Z</time>
      </trkpt>
      <trkpt lat="42.9816027" lon="-5.7390965">
        <ele>1425.57</ele>
        <time>2020-07-21T11:04:24.000Z</time>
      </trkpt>
      <trkpt lat="42.9815918" lon="-5.739109">
        <ele>1425.57</ele>
        <time>2020-07-21T11:04:25.000Z</time>
      </trkpt>
      <trkpt lat="42.9815843" lon="-5.7391242">
        <ele>1425.11</ele>
        <time>2020-07-21T11:04:26.000Z</time>
      </trkpt>
      <trkpt lat="42.9815808" lon="-5.739141">
        <ele>1425.11</ele>
        <time>2020-07-21T11:04:27.000Z</time>
      </trkpt>
      <trkpt lat="42.98158" lon="-5.7391615">
        <ele>1424.65</ele>
        <time>2020-07-21T11:04:28.000Z</time>
      </trkpt>
      <trkpt lat="42.9815842" lon="-5.7391787">
        <ele>1424.65</ele>
        <time>2020-07-21T11:04:29.000Z</time>
      </trkpt>
      <trkpt lat="42.9815902" lon="-5.739192">
        <ele>1424.19</ele>
        <time>2020-07-21T11:04:30.000Z</time>
      </trkpt>
      <trkpt lat="42.9815947" lon="-5.7391975">
        <ele>1424.19</ele>
        <time>2020-07-21T11:04:31.000Z</time>
      </trkpt>
      <trkpt lat="42.981598" lon="-5.7391995">
        <ele>1423.59</ele>
        <time>2020-07-21T11:04:32.000Z</time>
      </trkpt>
      <trkpt lat="42.981602" lon="-5.7392002">
        <ele>1423.59</ele>
        <time>2020-07-21T11:04:33.000Z</time>
      </trkpt>
      <trkpt lat="42.9816107" lon="-5.7392005">
        <ele>1423.13</ele>
        <time>2020-07-21T11:04:34.000Z</time>
      </trkpt>
      <trkpt lat="42.9816205" lon="-5.7392017">
        <ele>1423.13</ele>
        <time>2020-07-21T11:04:35.000Z</time>
      </trkpt>
      <trkpt lat="42.9816318" lon="-5.7392018">
        <ele>1422.52</ele>
        <time>2020-07-21T11:04:36.000Z</time>
      </trkpt>
      <trkpt lat="42.9816428" lon="-5.7392008">
        <ele>1422.52</ele>
        <time>2020-07-21T11:04:37.000Z</time>
      </trkpt>
      <trkpt lat="42.9816557" lon="-5.7392018">
        <ele>1422.06</ele>
        <time>2020-07-21T11:04:38.000Z</time>
      </trkpt>
      <trkpt lat="42.9816697" lon="-5.7392038">
        <ele>1422.06</ele>
        <time>2020-07-21T11:04:39.000Z</time>
      </trkpt>
      <trkpt lat="42.981684" lon="-5.7392075">
        <ele>1421.6</ele>
        <time>2020-07-21T11:04:40.000Z</time>
      </trkpt>
      <trkpt lat="42.9816962" lon="-5.7392097">
        <ele>1421.6</ele>
        <time>2020-07-21T11:04:41.000Z</time>
      </trkpt>
      <trkpt lat="42.9817075" lon="-5.7392107">
        <ele>1421.15</ele>
        <time>2020-07-21T11:04:42.000Z</time>
      </trkpt>
      <trkpt lat="42.981719" lon="-5.7392093">
        <ele>1421.15</ele>
        <time>2020-07-21T11:04:43.000Z</time>
      </trkpt>
      <trkpt lat="42.9817298" lon="-5.739208">
        <ele>1420.69</ele>
        <time>2020-07-21T11:04:44.000Z</time>
      </trkpt>
      <trkpt lat="42.9817405" lon="-5.7392075">
        <ele>1420.69</ele>
        <time>2020-07-21T11:04:45.000Z</time>
      </trkpt>
      <trkpt lat="42.9817515" lon="-5.7392078">
        <ele>1420.23</ele>
        <time>2020-07-21T11:04:46.000Z</time>
      </trkpt>
      <trkpt lat="42.981763" lon="-5.7392072">
        <ele>1420.23</ele>
        <time>2020-07-21T11:04:47.000Z</time>
      </trkpt>
      <trkpt lat="42.9817745" lon="-5.7392043">
        <ele>1419.78</ele>
        <time>2020-07-21T11:04:48.000Z</time>
      </trkpt>
      <trkpt lat="42.9817845" lon="-5.739202">
        <ele>1419.78</ele>
        <time>2020-07-21T11:04:49.000Z</time>
      </trkpt>
      <trkpt lat="42.9817963" lon="-5.7392017">
        <ele>1419.32</ele>
        <time>2020-07-21T11:04:50.000Z</time>
      </trkpt>
      <trkpt lat="42.9818088" lon="-5.7392027">
        <ele>1419.32</ele>
        <time>2020-07-21T11:04:51.000Z</time>
      </trkpt>
      <trkpt lat="42.9818233" lon="-5.7392035">
        <ele>1419.01</ele>
        <time>2020-07-21T11:04:52.000Z</time>
      </trkpt>
      <trkpt lat="42.9818375" lon="-5.7392038">
        <ele>1419.01</ele>
        <time>2020-07-21T11:04:53.000Z</time>
      </trkpt>
      <trkpt lat="42.9818535" lon="-5.7392042">
        <ele>1418.56</ele>
        <time>2020-07-21T11:04:54.000Z</time>
      </trkpt>
      <trkpt lat="42.9818692" lon="-5.7392052">
        <ele>1418.56</ele>
        <time>2020-07-21T11:04:55.000Z</time>
      </trkpt>
      <trkpt lat="42.9818842" lon="-5.7392077">
        <ele>1418.25</ele>
        <time>2020-07-21T11:04:56.000Z</time>
      </trkpt>
      <trkpt lat="42.9818977" lon="-5.739212">
        <ele>1418.25</ele>
        <time>2020-07-21T11:04:57.000Z</time>
      </trkpt>
      <trkpt lat="42.9819147" lon="-5.7392153">
        <ele>1417.79</ele>
        <time>2020-07-21T11:04:58.000Z</time>
      </trkpt>
      <trkpt lat="42.9819325" lon="-5.7392162">
        <ele>1417.79</ele>
        <time>2020-07-21T11:04:59.000Z</time>
      </trkpt>
      <trkpt lat="42.9819505" lon="-5.7392157">
        <ele>1417.34</ele>
        <time>2020-07-21T11:05:00.000Z</time>
      </trkpt>
      <trkpt lat="42.981965" lon="-5.7392158">
        <ele>1417.34</ele>
        <time>2020-07-21T11:05:01.000Z</time>
      </trkpt>
      <trkpt lat="42.9819787" lon="-5.739217">
        <ele>1417.03</ele>
        <time>2020-07-21T11:05:02.000Z</time>
      </trkpt>
      <trkpt lat="42.9819925" lon="-5.739218">
        <ele>1417.03</ele>
        <time>2020-07-21T11:05:03.000Z</time>
      </trkpt>
      <trkpt lat="42.9820063" lon="-5.7392183">
        <ele>1416.57</ele>
        <time>2020-07-21T11:05:04.000Z</time>
      </trkpt>
      <trkpt lat="42.9820207" lon="-5.7392187">
        <ele>1416.57</ele>
        <time>2020-07-21T11:05:05.000Z</time>
      </trkpt>
      <trkpt lat="42.9820355" lon="-5.739219">
        <ele>1416.12</ele>
        <time>2020-07-21T11:05:06.000Z</time>
      </trkpt>
      <trkpt lat="42.9820503" lon="-5.7392193">
        <ele>1416.12</ele>
        <time>2020-07-21T11:05:07.000Z</time>
      </trkpt>
      <trkpt lat="42.982065" lon="-5.7392197">
        <ele>1415.81</ele>
        <time>2020-07-21T11:05:08.000Z</time>
      </trkpt>
      <trkpt lat="42.982079" lon="-5.7392202">
        <ele>1415.81</ele>
        <time>2020-07-21T11:05:09.000Z</time>
      </trkpt>
      <trkpt lat="42.9820937" lon="-5.7392202">
        <ele>1415.36</ele>
        <time>2020-07-21T11:05:10.000Z</time>
      </trkpt>
      <trkpt lat="42.982108" lon="-5.73922">
        <ele>1415.36</ele>
        <time>2020-07-21T11:05:11.000Z</time>
      </trkpt>
      <trkpt lat="42.982122" lon="-5.7392212">
        <ele>1415.05</ele>
        <time>2020-07-21T11:05:12.000Z</time>
      </trkpt>
      <trkpt lat="42.9821353" lon="-5.7392243">
        <ele>1415.05</ele>
        <time>2020-07-21T11:05:13.000Z</time>
      </trkpt>
      <trkpt lat="42.9821485" lon="-5.7392297">
        <ele>1414.59</ele>
        <time>2020-07-21T11:05:14.000Z</time>
      </trkpt>
      <trkpt lat="42.9821613" lon="-5.739237">
        <ele>1414.59</ele>
        <time>2020-07-21T11:05:15.000Z</time>
      </trkpt>
      <trkpt lat="42.9821748" lon="-5.7392463">
        <ele>1414.29</ele>
        <time>2020-07-21T11:05:16.000Z</time>
      </trkpt>
      <trkpt lat="42.9821885" lon="-5.7392582">
        <ele>1414.29</ele>
        <time>2020-07-21T11:05:17.000Z</time>
      </trkpt>
      <trkpt lat="42.9822015" lon="-5.7392715">
        <ele>1413.83</ele>
        <time>2020-07-21T11:05:18.000Z</time>
      </trkpt>
      <trkpt lat="42.9822122" lon="-5.7392862">
        <ele>1413.83</ele>
        <time>2020-07-21T11:05:19.000Z</time>
      </trkpt>
      <trkpt lat="42.9822207" lon="-5.7393013">
        <ele>1413.53</ele>
        <time>2020-07-21T11:05:20.000Z</time>
      </trkpt>
      <trkpt lat="42.982228" lon="-5.7393177">
        <ele>1413.53</ele>
        <time>2020-07-21T11:05:21.000Z</time>
      </trkpt>
      <trkpt lat="42.9822343" lon="-5.7393353">
        <ele>1413.07</ele>
        <time>2020-07-21T11:05:22.000Z</time>
      </trkpt>
      <trkpt lat="42.9822398" lon="-5.7393533">
        <ele>1413.07</ele>
        <time>2020-07-21T11:05:23.000Z</time>
      </trkpt>
      <trkpt lat="42.9822443" lon="-5.7393718">
        <ele>1412.77</ele>
        <time>2020-07-21T11:05:24.000Z</time>
      </trkpt>
      <trkpt lat="42.9822478" lon="-5.7393892">
        <ele>1412.77</ele>
        <time>2020-07-21T11:05:25.000Z</time>
      </trkpt>
      <trkpt lat="42.9822498" lon="-5.7394067">
        <ele>1412.31</ele>
        <time>2020-07-21T11:05:26.000Z</time>
      </trkpt>
      <trkpt lat="42.9822512" lon="-5.739424">
        <ele>1412.31</ele>
        <time>2020-07-21T11:05:27.000Z</time>
      </trkpt>
      <trkpt lat="42.9822512" lon="-5.7394425">
        <ele>1412</ele>
        <time>2020-07-21T11:05:28.000Z</time>
      </trkpt>
      <trkpt lat="42.9822508" lon="-5.7394603">
        <ele>1412</ele>
        <time>2020-07-21T11:05:29.000Z</time>
      </trkpt>
      <trkpt lat="42.9822502" lon="-5.7394782">
        <ele>1411.7</ele>
        <time>2020-07-21T11:05:30.000Z</time>
      </trkpt>
      <trkpt lat="42.9822482" lon="-5.7394975">
        <ele>1411.7</ele>
        <time>2020-07-21T11:05:31.000Z</time>
      </trkpt>
      <trkpt lat="42.9822442" lon="-5.7395195">
        <ele>1411.39</ele>
        <time>2020-07-21T11:05:32.000Z</time>
      </trkpt>
      <trkpt lat="42.982238" lon="-5.7395437">
        <ele>1411.39</ele>
        <time>2020-07-21T11:05:33.000Z</time>
      </trkpt>
      <trkpt lat="42.9822302" lon="-5.7395652">
        <ele>1411.09</ele>
        <time>2020-07-21T11:05:34.000Z</time>
      </trkpt>
      <trkpt lat="42.9822212" lon="-5.7395848">
        <ele>1411.09</ele>
        <time>2020-07-21T11:05:35.000Z</time>
      </trkpt>
      <trkpt lat="42.9822107" lon="-5.7396013">
        <ele>1410.78</ele>
        <time>2020-07-21T11:05:36.000Z</time>
      </trkpt>
      <trkpt lat="42.9821992" lon="-5.7396172">
        <ele>1410.78</ele>
        <time>2020-07-21T11:05:37.000Z</time>
      </trkpt>
      <trkpt lat="42.9821877" lon="-5.7396298">
        <ele>1410.63</ele>
        <time>2020-07-21T11:05:38.000Z</time>
      </trkpt>
      <trkpt lat="42.9821755" lon="-5.7396422">
        <ele>1410.63</ele>
        <time>2020-07-21T11:05:39.000Z</time>
      </trkpt>
      <trkpt lat="42.9821628" lon="-5.7396555">
        <ele>1410.33</ele>
        <time>2020-07-21T11:05:40.000Z</time>
      </trkpt>
      <trkpt lat="42.9821503" lon="-5.7396707">
        <ele>1410.33</ele>
        <time>2020-07-21T11:05:41.000Z</time>
      </trkpt>
      <trkpt lat="42.9821382" lon="-5.7396858">
        <ele>1410.17</ele>
        <time>2020-07-21T11:05:42.000Z</time>
      </trkpt>
      <trkpt lat="42.9821272" lon="-5.7397">
        <ele>1410.17</ele>
        <time>2020-07-21T11:05:43.000Z</time>
      </trkpt>
      <trkpt lat="42.9821155" lon="-5.7397133">
        <ele>1409.87</ele>
        <time>2020-07-21T11:05:44.000Z</time>
      </trkpt>
      <trkpt lat="42.9821043" lon="-5.7397275">
        <ele>1409.87</ele>
        <time>2020-07-21T11:05:45.000Z</time>
      </trkpt>
      <trkpt lat="42.9820927" lon="-5.739743">
        <ele>1409.72</ele>
        <time>2020-07-21T11:05:46.000Z</time>
      </trkpt>
      <trkpt lat="42.9820818" lon="-5.739759">
        <ele>1409.72</ele>
        <time>2020-07-21T11:05:47.000Z</time>
      </trkpt>
      <trkpt lat="42.9820717" lon="-5.739775">
        <ele>1409.56</ele>
        <time>2020-07-21T11:05:48.000Z</time>
      </trkpt>
      <trkpt lat="42.9820612" lon="-5.7397902">
        <ele>1409.56</ele>
        <time>2020-07-21T11:05:49.000Z</time>
      </trkpt>
      <trkpt lat="42.98205" lon="-5.7398057">
        <ele>1409.26</ele>
        <time>2020-07-21T11:05:50.000Z</time>
      </trkpt>
      <trkpt lat="42.9820387" lon="-5.7398202">
        <ele>1409.26</ele>
        <time>2020-07-21T11:05:51.000Z</time>
      </trkpt>
      <trkpt lat="42.9820285" lon="-5.7398352">
        <ele>1409.11</ele>
        <time>2020-07-21T11:05:52.000Z</time>
      </trkpt>
      <trkpt lat="42.9820188" lon="-5.739851">
        <ele>1409.11</ele>
        <time>2020-07-21T11:05:53.000Z</time>
      </trkpt>
      <trkpt lat="42.9820108" lon="-5.7398695">
        <ele>1408.8</ele>
        <time>2020-07-21T11:05:54.000Z</time>
      </trkpt>
      <trkpt lat="42.9820048" lon="-5.7398917">
        <ele>1408.8</ele>
        <time>2020-07-21T11:05:55.000Z</time>
      </trkpt>
      <trkpt lat="42.982001" lon="-5.7399153">
        <ele>1408.65</ele>
        <time>2020-07-21T11:05:56.000Z</time>
      </trkpt>
      <trkpt lat="42.9819993" lon="-5.739937">
        <ele>1408.65</ele>
        <time>2020-07-21T11:05:57.000Z</time>
      </trkpt>
      <trkpt lat="42.9820003" lon="-5.7399528">
        <ele>1408.5</ele>
        <time>2020-07-21T11:05:58.000Z</time>
      </trkpt>
      <trkpt lat="42.982003" lon="-5.7399665">
        <ele>1408.5</ele>
        <time>2020-07-21T11:05:59.000Z</time>
      </trkpt>
      <trkpt lat="42.9820038" lon="-5.7399783">
        <ele>1408.19</ele>
        <time>2020-07-21T11:06:00.000Z</time>
      </trkpt>
      <trkpt lat="42.9820027" lon="-5.739986">
        <ele>1408.19</ele>
        <time>2020-07-21T11:06:01.000Z</time>
      </trkpt>
      <trkpt lat="42.9820018" lon="-5.7399905">
        <ele>1408.04</ele>
        <time>2020-07-21T11:06:02.000Z</time>
      </trkpt>
      <trkpt lat="42.9820022" lon="-5.7399932">
        <ele>1408.04</ele>
        <time>2020-07-21T11:06:03.000Z</time>
      </trkpt>
      <trkpt lat="42.9820025" lon="-5.7399962">
        <ele>1407.89</ele>
        <time>2020-07-21T11:06:04.000Z</time>
      </trkpt>
      <trkpt lat="42.9820018" lon="-5.7399983">
        <ele>1407.89</ele>
        <time>2020-07-21T11:06:05.000Z</time>
      </trkpt>
      <trkpt lat="42.9820017" lon="-5.7399988">
        <ele>1407.74</ele>
        <time>2020-07-21T11:06:06.000Z</time>
      </trkpt>
      <trkpt lat="42.9820022" lon="-5.7400007">
        <ele>1407.74</ele>
        <time>2020-07-21T11:06:07.000Z</time>
      </trkpt>
      <trkpt lat="42.9820028" lon="-5.7400023">
        <ele>1407.58</ele>
        <time>2020-07-21T11:06:08.000Z</time>
      </trkpt>
      <trkpt lat="42.9820043" lon="-5.7400047">
        <ele>1407.58</ele>
        <time>2020-07-21T11:06:09.000Z</time>
      </trkpt>
      <trkpt lat="42.982006" lon="-5.7400045">
        <ele>1407.43</ele>
        <time>2020-07-21T11:06:10.000Z</time>
      </trkpt>
      <trkpt lat="42.9820083" lon="-5.7400038">
        <ele>1407.43</ele>
        <time>2020-07-21T11:06:11.000Z</time>
      </trkpt>
      <trkpt lat="42.982008" lon="-5.7400028">
        <ele>1407.28</ele>
        <time>2020-07-21T11:06:12.000Z</time>
      </trkpt>
      <trkpt lat="42.9820093" lon="-5.7400022">
        <ele>1407.28</ele>
        <time>2020-07-21T11:06:13.000Z</time>
      </trkpt>
      <trkpt lat="42.9820095" lon="-5.7400008">
        <ele>1407.13</ele>
        <time>2020-07-21T11:06:14.000Z</time>
      </trkpt>
      <trkpt lat="42.9820107" lon="-5.7400005">
        <ele>1407.13</ele>
        <time>2020-07-21T11:06:15.000Z</time>
      </trkpt>
      <trkpt lat="42.9820103" lon="-5.7399998">
        <ele>1406.97</ele>
        <time>2020-07-21T11:06:16.000Z</time>
      </trkpt>
      <trkpt lat="42.9820095" lon="-5.7400005">
        <ele>1406.97</ele>
        <time>2020-07-21T11:06:17.000Z</time>
      </trkpt>
      <trkpt lat="42.982009" lon="-5.7399998">
        <ele>1406.97</ele>
        <time>2020-07-21T11:06:18.000Z</time>
      </trkpt>
      <trkpt lat="42.9820088" lon="-5.74">
        <ele>1406.97</ele>
        <time>2020-07-21T11:06:19.000Z</time>
      </trkpt>
      <trkpt lat="42.9820092" lon="-5.7399997">
        <ele>1406.82</ele>
        <time>2020-07-21T11:06:20.000Z</time>
      </trkpt>
      <trkpt lat="42.9820088" lon="-5.7399995">
        <ele>1406.82</ele>
        <time>2020-07-21T11:06:21.000Z</time>
      </trkpt>
      <trkpt lat="42.982008" lon="-5.7399997">
        <ele>1406.67</ele>
        <time>2020-07-21T11:06:22.000Z</time>
      </trkpt>
      <trkpt lat="42.982007" lon="-5.7399998">
        <ele>1406.67</ele>
        <time>2020-07-21T11:06:23.000Z</time>
      </trkpt>
      <trkpt lat="42.9820072" lon="-5.7399998">
        <ele>1406.67</ele>
        <time>2020-07-21T11:06:24.000Z</time>
      </trkpt>
      <trkpt lat="42.9820072" lon="-5.74">
        <ele>1406.67</ele>
        <time>2020-07-21T11:06:25.000Z</time>
      </trkpt>
      <trkpt lat="42.9820077" lon="-5.7400005">
        <ele>1406.52</ele>
        <time>2020-07-21T11:06:26.000Z</time>
      </trkpt>
      <trkpt lat="42.9820082" lon="-5.7400017">
        <ele>1406.52</ele>
        <time>2020-07-21T11:06:27.000Z</time>
      </trkpt>
      <trkpt lat="42.9820087" lon="-5.7400007">
        <ele>1406.52</ele>
        <time>2020-07-21T11:06:28.000Z</time>
      </trkpt>
      <trkpt lat="42.9820082" lon="-5.7399997">
        <ele>1406.52</ele>
        <time>2020-07-21T11:06:29.000Z</time>
      </trkpt>
      <trkpt lat="42.982007" lon="-5.7399978">
        <ele>1406.36</ele>
        <time>2020-07-21T11:06:30.000Z</time>
      </trkpt>
      <trkpt lat="42.9820058" lon="-5.7399987">
        <ele>1406.36</ele>
        <time>2020-07-21T11:06:31.000Z</time>
      </trkpt>
      <trkpt lat="42.9820048" lon="-5.7399973">
        <ele>1406.36</ele>
        <time>2020-07-21T11:06:32.000Z</time>
      </trkpt>
      <trkpt lat="42.9820042" lon="-5.7399952">
        <ele>1406.36</ele>
        <time>2020-07-21T11:06:33.000Z</time>
      </trkpt>
      <trkpt lat="42.9820038" lon="-5.739992">
        <ele>1406.21</ele>
        <time>2020-07-21T11:06:34.000Z</time>
      </trkpt>
      <trkpt lat="42.9820043" lon="-5.7399892">
        <ele>1406.21</ele>
        <time>2020-07-21T11:06:35.000Z</time>
      </trkpt>
      <trkpt lat="42.9820055" lon="-5.7399878">
        <ele>1406.06</ele>
        <time>2020-07-21T11:06:36.000Z</time>
      </trkpt>
      <trkpt lat="42.9820088" lon="-5.7399857">
        <ele>1406.06</ele>
        <time>2020-07-21T11:06:37.000Z</time>
      </trkpt>
      <trkpt lat="42.982012" lon="-5.7399843">
        <ele>1406.06</ele>
        <time>2020-07-21T11:06:38.000Z</time>
      </trkpt>
      <trkpt lat="42.9820162" lon="-5.7399857">
        <ele>1406.06</ele>
        <time>2020-07-21T11:06:39.000Z</time>
      </trkpt>
      <trkpt lat="42.9820195" lon="-5.7399878">
        <ele>1405.91</ele>
        <time>2020-07-21T11:06:40.000Z</time>
      </trkpt>
      <trkpt lat="42.9820257" lon="-5.739992">
        <ele>1405.91</ele>
        <time>2020-07-21T11:06:41.000Z</time>
      </trkpt>
      <trkpt lat="42.9820323" lon="-5.7399948">
        <ele>1405.91</ele>
        <time>2020-07-21T11:06:42.000Z</time>
      </trkpt>
      <trkpt lat="42.9820407" lon="-5.7400007">
        <ele>1405.91</ele>
        <time>2020-07-21T11:06:43.000Z</time>
      </trkpt>
      <trkpt lat="42.9820447" lon="-5.7400033">
        <ele>1405.76</ele>
        <time>2020-07-21T11:06:44.000Z</time>
      </trkpt>
      <trkpt lat="42.9820455" lon="-5.7400047">
        <ele>1405.76</ele>
        <time>2020-07-21T11:06:45.000Z</time>
      </trkpt>
      <trkpt lat="42.9820432" lon="-5.7400033">
        <ele>1405.76</ele>
        <time>2020-07-21T11:06:46.000Z</time>
      </trkpt>
      <trkpt lat="42.9820425" lon="-5.7400033">
        <ele>1405.76</ele>
        <time>2020-07-21T11:06:47.000Z</time>
      </trkpt>
      <trkpt lat="42.9820422" lon="-5.7400028">
        <ele>1405.6</ele>
        <time>2020-07-21T11:06:48.000Z</time>
      </trkpt>
      <trkpt lat="42.9820425" lon="-5.7400022">
        <ele>1405.6</ele>
        <time>2020-07-21T11:06:49.000Z</time>
      </trkpt>
      <trkpt lat="42.9820427" lon="-5.740002">
        <ele>1405.6</ele>
        <time>2020-07-21T11:06:50.000Z</time>
      </trkpt>
      <trkpt lat="42.982043" lon="-5.7400013">
        <ele>1405.6</ele>
        <time>2020-07-21T11:06:51.000Z</time>
      </trkpt>
      <trkpt lat="42.9820422" lon="-5.7400012">
        <ele>1405.6</ele>
        <time>2020-07-21T11:06:52.000Z</time>
      </trkpt>
      <trkpt lat="42.9820417" lon="-5.7400007">
        <ele>1405.6</ele>
        <time>2020-07-21T11:06:53.000Z</time>
      </trkpt>
      <trkpt lat="42.9820423" lon="-5.7400012">
        <ele>1405.45</ele>
        <time>2020-07-21T11:06:54.000Z</time>
      </trkpt>
      <trkpt lat="42.982043" lon="-5.740001">
        <ele>1405.45</ele>
        <time>2020-07-21T11:06:55.000Z</time>
      </trkpt>
      <trkpt lat="42.982041" lon="-5.74">
        <ele>1405.45</ele>
        <time>2020-07-21T11:06:56.000Z</time>
      </trkpt>
      <trkpt lat="42.9820368" lon="-5.7399975">
        <ele>1405.45</ele>
        <time>2020-07-21T11:06:57.000Z</time>
      </trkpt>
      <trkpt lat="42.9820312" lon="-5.7399945">
        <ele>1405.45</ele>
        <time>2020-07-21T11:06:58.000Z</time>
      </trkpt>
      <trkpt lat="42.982028" lon="-5.7399918">
        <ele>1405.45</ele>
        <time>2020-07-21T11:06:59.000Z</time>
      </trkpt>
      <trkpt lat="42.9820257" lon="-5.7399907">
        <ele>1405.45</ele>
        <time>2020-07-21T11:07:00.000Z</time>
      </trkpt>
      <trkpt lat="42.9820227" lon="-5.7399915">
        <ele>1405.45</ele>
        <time>2020-07-21T11:07:01.000Z</time>
      </trkpt>
      <trkpt lat="42.982018" lon="-5.7399932">
        <ele>1405.45</ele>
        <time>2020-07-21T11:07:02.000Z</time>
      </trkpt>
      <trkpt lat="42.9820138" lon="-5.739994">
        <ele>1405.45</ele>
        <time>2020-07-21T11:07:03.000Z</time>
      </trkpt>
      <trkpt lat="42.9820123" lon="-5.7399933">
        <ele>1405.45</ele>
        <time>2020-07-21T11:07:04.000Z</time>
      </trkpt>
      <trkpt lat="42.982013" lon="-5.7399917">
        <ele>1405.45</ele>
        <time>2020-07-21T11:07:05.000Z</time>
      </trkpt>
      <trkpt lat="42.9820135" lon="-5.7399907">
        <ele>1405.45</ele>
        <time>2020-07-21T11:07:06.000Z</time>
      </trkpt>
      <trkpt lat="42.9820133" lon="-5.7399873">
        <ele>1405.45</ele>
        <time>2020-07-21T11:07:07.000Z</time>
      </trkpt>
      <trkpt lat="42.9820143" lon="-5.7399842">
        <ele>1405.45</ele>
        <time>2020-07-21T11:07:08.000Z</time>
      </trkpt>
      <trkpt lat="42.9820172" lon="-5.739984">
        <ele>1405.45</ele>
        <time>2020-07-21T11:07:09.000Z</time>
      </trkpt>
      <trkpt lat="42.9820212" lon="-5.7399868">
        <ele>1405.45</ele>
        <time>2020-07-21T11:07:10.000Z</time>
      </trkpt>
      <trkpt lat="42.9820253" lon="-5.7399893">
        <ele>1405.45</ele>
        <time>2020-07-21T11:07:11.000Z</time>
      </trkpt>
      <trkpt lat="42.9820303" lon="-5.7399923">
        <ele>1405.45</ele>
        <time>2020-07-21T11:07:12.000Z</time>
      </trkpt>
      <trkpt lat="42.9820362" lon="-5.7399973">
        <ele>1405.45</ele>
        <time>2020-07-21T11:07:13.000Z</time>
      </trkpt>
      <trkpt lat="42.9820412" lon="-5.7400048">
        <ele>1405.6</ele>
        <time>2020-07-21T11:07:14.000Z</time>
      </trkpt>
      <trkpt lat="42.9820452" lon="-5.74001">
        <ele>1405.6</ele>
        <time>2020-07-21T11:07:15.000Z</time>
      </trkpt>
      <trkpt lat="42.9820485" lon="-5.740013">
        <ele>1405.6</ele>
        <time>2020-07-21T11:07:16.000Z</time>
      </trkpt>
      <trkpt lat="42.982052" lon="-5.7400145">
        <ele>1405.6</ele>
        <time>2020-07-21T11:07:17.000Z</time>
      </trkpt>
      <trkpt lat="42.9820537" lon="-5.7400138">
        <ele>1405.76</ele>
        <time>2020-07-21T11:07:18.000Z</time>
      </trkpt>
      <trkpt lat="42.9820547" lon="-5.7400122">
        <ele>1405.76</ele>
        <time>2020-07-21T11:07:19.000Z</time>
      </trkpt>
      <trkpt lat="42.9820547" lon="-5.7400105">
        <ele>1405.76</ele>
        <time>2020-07-21T11:07:20.000Z</time>
      </trkpt>
      <trkpt lat="42.9820548" lon="-5.7400097">
        <ele>1405.76</ele>
        <time>2020-07-21T11:07:21.000Z</time>
      </trkpt>
      <trkpt lat="42.9820547" lon="-5.7400093">
        <ele>1405.91</ele>
        <time>2020-07-21T11:07:22.000Z</time>
      </trkpt>
      <trkpt lat="42.9820543" lon="-5.7400087">
        <ele>1405.91</ele>
        <time>2020-07-21T11:07:23.000Z</time>
      </trkpt>
      <trkpt lat="42.9820542" lon="-5.7400108">
        <ele>1405.91</ele>
        <time>2020-07-21T11:07:24.000Z</time>
      </trkpt>
      <trkpt lat="42.9820583" lon="-5.7400162">
        <ele>1405.91</ele>
        <time>2020-07-21T11:07:25.000Z</time>
      </trkpt>
      <trkpt lat="42.9820673" lon="-5.7400237">
        <ele>1406.06</ele>
        <time>2020-07-21T11:07:26.000Z</time>
      </trkpt>
      <trkpt lat="42.9820787" lon="-5.7400268">
        <ele>1406.06</ele>
        <time>2020-07-21T11:07:27.000Z</time>
      </trkpt>
      <trkpt lat="42.9820857" lon="-5.7400273">
        <ele>1406.06</ele>
        <time>2020-07-21T11:07:28.000Z</time>
      </trkpt>
      <trkpt lat="42.9820875" lon="-5.7400252">
        <ele>1406.06</ele>
        <time>2020-07-21T11:07:29.000Z</time>
      </trkpt>
      <trkpt lat="42.982087" lon="-5.7400252">
        <ele>1406.21</ele>
        <time>2020-07-21T11:07:30.000Z</time>
      </trkpt>
      <trkpt lat="42.9820873" lon="-5.7400255">
        <ele>1406.21</ele>
        <time>2020-07-21T11:07:31.000Z</time>
      </trkpt>
      <trkpt lat="42.9820888" lon="-5.740027">
        <ele>1406.36</ele>
        <time>2020-07-21T11:07:32.000Z</time>
      </trkpt>
      <trkpt lat="42.9820903" lon="-5.740027">
        <ele>1406.36</ele>
        <time>2020-07-21T11:07:33.000Z</time>
      </trkpt>
      <trkpt lat="42.9820922" lon="-5.7400273">
        <ele>1406.52</ele>
        <time>2020-07-21T11:07:34.000Z</time>
      </trkpt>
      <trkpt lat="42.9820942" lon="-5.7400275">
        <ele>1406.52</ele>
        <time>2020-07-21T11:07:35.000Z</time>
      </trkpt>
      <trkpt lat="42.9820972" lon="-5.7400298">
        <ele>1406.52</ele>
        <time>2020-07-21T11:07:36.000Z</time>
      </trkpt>
      <trkpt lat="42.9821038" lon="-5.7400323">
        <ele>1406.52</ele>
        <time>2020-07-21T11:07:37.000Z</time>
      </trkpt>
      <trkpt lat="42.9821112" lon="-5.7400348">
        <ele>1406.67</ele>
        <time>2020-07-21T11:07:38.000Z</time>
      </trkpt>
      <trkpt lat="42.982119" lon="-5.7400377">
        <ele>1406.67</ele>
        <time>2020-07-21T11:07:39.000Z</time>
      </trkpt>
      <trkpt lat="42.9821265" lon="-5.7400412">
        <ele>1406.82</ele>
        <time>2020-07-21T11:07:40.000Z</time>
      </trkpt>
      <trkpt lat="42.9821347" lon="-5.7400458">
        <ele>1406.82</ele>
        <time>2020-07-21T11:07:41.000Z</time>
      </trkpt>
      <trkpt lat="42.9821443" lon="-5.7400503">
        <ele>1406.97</ele>
        <time>2020-07-21T11:07:42.000Z</time>
      </trkpt>
      <trkpt lat="42.9821527" lon="-5.7400548">
        <ele>1406.97</ele>
        <time>2020-07-21T11:07:43.000Z</time>
      </trkpt>
      <trkpt lat="42.9821603" lon="-5.740058">
        <ele>1407.13</ele>
        <time>2020-07-21T11:07:44.000Z</time>
      </trkpt>
      <trkpt lat="42.9821675" lon="-5.7400603">
        <ele>1407.13</ele>
        <time>2020-07-21T11:07:45.000Z</time>
      </trkpt>
      <trkpt lat="42.9821762" lon="-5.7400618">
        <ele>1407.28</ele>
        <time>2020-07-21T11:07:46.000Z</time>
      </trkpt>
      <trkpt lat="42.9821862" lon="-5.7400642">
        <ele>1407.28</ele>
        <time>2020-07-21T11:07:47.000Z</time>
      </trkpt>
      <trkpt lat="42.9821965" lon="-5.7400677">
        <ele>1407.58</ele>
        <time>2020-07-21T11:07:48.000Z</time>
      </trkpt>
      <trkpt lat="42.9822068" lon="-5.7400715">
        <ele>1407.58</ele>
        <time>2020-07-21T11:07:49.000Z</time>
      </trkpt>
      <trkpt lat="42.9822183" lon="-5.740076">
        <ele>1407.74</ele>
        <time>2020-07-21T11:07:50.000Z</time>
      </trkpt>
      <trkpt lat="42.9822295" lon="-5.7400795">
        <ele>1407.74</ele>
        <time>2020-07-21T11:07:51.000Z</time>
      </trkpt>
      <trkpt lat="42.9822403" lon="-5.7400822">
        <ele>1407.89</ele>
        <time>2020-07-21T11:07:52.000Z</time>
      </trkpt>
      <trkpt lat="42.9822515" lon="-5.740084">
        <ele>1407.89</ele>
        <time>2020-07-21T11:07:53.000Z</time>
      </trkpt>
      <trkpt lat="42.9822632" lon="-5.740086">
        <ele>1408.19</ele>
        <time>2020-07-21T11:07:54.000Z</time>
      </trkpt>
      <trkpt lat="42.9822745" lon="-5.7400885">
        <ele>1408.19</ele>
        <time>2020-07-21T11:07:55.000Z</time>
      </trkpt>
      <trkpt lat="42.9822852" lon="-5.7400902">
        <ele>1408.5</ele>
        <time>2020-07-21T11:07:56.000Z</time>
      </trkpt>
      <trkpt lat="42.9822958" lon="-5.7400912">
        <ele>1408.5</ele>
        <time>2020-07-21T11:07:57.000Z</time>
      </trkpt>
      <trkpt lat="42.9823065" lon="-5.7400917">
        <ele>1408.65</ele>
        <time>2020-07-21T11:07:58.000Z</time>
      </trkpt>
      <trkpt lat="42.9823175" lon="-5.7400927">
        <ele>1408.65</ele>
        <time>2020-07-21T11:07:59.000Z</time>
      </trkpt>
      <trkpt lat="42.982328" lon="-5.7400938">
        <ele>1408.95</ele>
        <time>2020-07-21T11:08:00.000Z</time>
      </trkpt>
      <trkpt lat="42.9823388" lon="-5.7400957">
        <ele>1408.95</ele>
        <time>2020-07-21T11:08:01.000Z</time>
      </trkpt>
      <trkpt lat="42.9823488" lon="-5.7400983">
        <ele>1409.11</ele>
        <time>2020-07-21T11:08:02.000Z</time>
      </trkpt>
      <trkpt lat="42.9823597" lon="-5.7401033">
        <ele>1409.11</ele>
        <time>2020-07-21T11:08:03.000Z</time>
      </trkpt>
      <trkpt lat="42.9823717" lon="-5.7401087">
        <ele>1409.41</ele>
        <time>2020-07-21T11:08:04.000Z</time>
      </trkpt>
      <trkpt lat="42.9823842" lon="-5.7401147">
        <ele>1409.41</ele>
        <time>2020-07-21T11:08:05.000Z</time>
      </trkpt>
      <trkpt lat="42.9823963" lon="-5.7401195">
        <ele>1409.56</ele>
        <time>2020-07-21T11:08:06.000Z</time>
      </trkpt>
      <trkpt lat="42.9824072" lon="-5.7401247">
        <ele>1409.56</ele>
        <time>2020-07-21T11:08:07.000Z</time>
      </trkpt>
      <trkpt lat="42.9824172" lon="-5.7401308">
        <ele>1409.87</ele>
        <time>2020-07-21T11:08:08.000Z</time>
      </trkpt>
      <trkpt lat="42.9824273" lon="-5.7401372">
        <ele>1409.87</ele>
        <time>2020-07-21T11:08:09.000Z</time>
      </trkpt>
      <trkpt lat="42.9824417" lon="-5.7401437">
        <ele>1410.02</ele>
        <time>2020-07-21T11:08:10.000Z</time>
      </trkpt>
      <trkpt lat="42.9824565" lon="-5.7401495">
        <ele>1410.02</ele>
        <time>2020-07-21T11:08:11.000Z</time>
      </trkpt>
      <trkpt lat="42.9824728" lon="-5.740156">
        <ele>1410.33</ele>
        <time>2020-07-21T11:08:12.000Z</time>
      </trkpt>
      <trkpt lat="42.9824848" lon="-5.7401627">
        <ele>1410.33</ele>
        <time>2020-07-21T11:08:13.000Z</time>
      </trkpt>
      <trkpt lat="42.9824993" lon="-5.7401683">
        <ele>1410.48</ele>
        <time>2020-07-21T11:08:14.000Z</time>
      </trkpt>
      <trkpt lat="42.982513" lon="-5.7401738">
        <ele>1410.48</ele>
        <time>2020-07-21T11:08:15.000Z</time>
      </trkpt>
      <trkpt lat="42.982528" lon="-5.7401785">
        <ele>1410.78</ele>
        <time>2020-07-21T11:08:16.000Z</time>
      </trkpt>
      <trkpt lat="42.9825402" lon="-5.7401847">
        <ele>1410.78</ele>
        <time>2020-07-21T11:08:17.000Z</time>
      </trkpt>
      <trkpt lat="42.982553" lon="-5.7401897">
        <ele>1410.94</ele>
        <time>2020-07-21T11:08:18.000Z</time>
      </trkpt>
      <trkpt lat="42.982565" lon="-5.740194">
        <ele>1410.94</ele>
        <time>2020-07-21T11:08:19.000Z</time>
      </trkpt>
      <trkpt lat="42.9825783" lon="-5.7401958">
        <ele>1411.24</ele>
        <time>2020-07-21T11:08:20.000Z</time>
      </trkpt>
      <trkpt lat="42.9825922" lon="-5.7401953">
        <ele>1411.24</ele>
        <time>2020-07-21T11:08:21.000Z</time>
      </trkpt>
      <trkpt lat="42.982607" lon="-5.740194">
        <ele>1411.39</ele>
        <time>2020-07-21T11:08:22.000Z</time>
      </trkpt>
      <trkpt lat="42.9826223" lon="-5.7401918">
        <ele>1411.39</ele>
        <time>2020-07-21T11:08:23.000Z</time>
      </trkpt>
      <trkpt lat="42.982638" lon="-5.7401905">
        <ele>1411.7</ele>
        <time>2020-07-21T11:08:24.000Z</time>
      </trkpt>
      <trkpt lat="42.982652" lon="-5.7401912">
        <ele>1411.7</ele>
        <time>2020-07-21T11:08:25.000Z</time>
      </trkpt>
      <trkpt lat="42.9826643" lon="-5.7401932">
        <ele>1412</ele>
        <time>2020-07-21T11:08:26.000Z</time>
      </trkpt>
      <trkpt lat="42.982677" lon="-5.7401957">
        <ele>1412</ele>
        <time>2020-07-21T11:08:27.000Z</time>
      </trkpt>
      <trkpt lat="42.9826908" lon="-5.7401967">
        <ele>1412.16</ele>
        <time>2020-07-21T11:08:28.000Z</time>
      </trkpt>
      <trkpt lat="42.982706" lon="-5.7401975">
        <ele>1412.16</ele>
        <time>2020-07-21T11:08:29.000Z</time>
      </trkpt>
      <trkpt lat="42.9827187" lon="-5.7401997">
        <ele>1412.46</ele>
        <time>2020-07-21T11:08:30.000Z</time>
      </trkpt>
      <trkpt lat="42.9827303" lon="-5.7402027">
        <ele>1412.46</ele>
        <time>2020-07-21T11:08:31.000Z</time>
      </trkpt>
      <trkpt lat="42.9827413" lon="-5.7402055">
        <ele>1412.61</ele>
        <time>2020-07-21T11:08:32.000Z</time>
      </trkpt>
      <trkpt lat="42.9827527" lon="-5.740209">
        <ele>1412.61</ele>
        <time>2020-07-21T11:08:33.000Z</time>
      </trkpt>
      <trkpt lat="42.9827638" lon="-5.7402137">
        <ele>1412.92</ele>
        <time>2020-07-21T11:08:34.000Z</time>
      </trkpt>
      <trkpt lat="42.9827732" lon="-5.7402208">
        <ele>1412.92</ele>
        <time>2020-07-21T11:08:35.000Z</time>
      </trkpt>
      <trkpt lat="42.9827818" lon="-5.7402278">
        <ele>1413.22</ele>
        <time>2020-07-21T11:08:36.000Z</time>
      </trkpt>
      <trkpt lat="42.982789" lon="-5.7402353">
        <ele>1413.22</ele>
        <time>2020-07-21T11:08:37.000Z</time>
      </trkpt>
      <trkpt lat="42.9827977" lon="-5.7402418">
        <ele>1413.38</ele>
        <time>2020-07-21T11:08:38.000Z</time>
      </trkpt>
      <trkpt lat="42.9828065" lon="-5.7402497">
        <ele>1413.38</ele>
        <time>2020-07-21T11:08:39.000Z</time>
      </trkpt>
      <trkpt lat="42.9828153" lon="-5.7402572">
        <ele>1413.68</ele>
        <time>2020-07-21T11:08:40.000Z</time>
      </trkpt>
      <trkpt lat="42.9828248" lon="-5.7402642">
        <ele>1413.68</ele>
        <time>2020-07-21T11:08:41.000Z</time>
      </trkpt>
      <trkpt lat="42.9828322" lon="-5.7402702">
        <ele>1413.98</ele>
        <time>2020-07-21T11:08:42.000Z</time>
      </trkpt>
      <trkpt lat="42.9828405" lon="-5.740277">
        <ele>1413.98</ele>
        <time>2020-07-21T11:08:43.000Z</time>
      </trkpt>
      <trkpt lat="42.9828477" lon="-5.7402852">
        <ele>1414.29</ele>
        <time>2020-07-21T11:08:44.000Z</time>
      </trkpt>
      <trkpt lat="42.9828567" lon="-5.7402935">
        <ele>1414.29</ele>
        <time>2020-07-21T11:08:45.000Z</time>
      </trkpt>
      <trkpt lat="42.9828657" lon="-5.7403018">
        <ele>1414.59</ele>
        <time>2020-07-21T11:08:46.000Z</time>
      </trkpt>
      <trkpt lat="42.9828742" lon="-5.740311">
        <ele>1414.59</ele>
        <time>2020-07-21T11:08:47.000Z</time>
      </trkpt>
      <trkpt lat="42.9828835" lon="-5.7403207">
        <ele>1414.75</ele>
        <time>2020-07-21T11:08:48.000Z</time>
      </trkpt>
      <trkpt lat="42.9828948" lon="-5.7403277">
        <ele>1414.75</ele>
        <time>2020-07-21T11:08:49.000Z</time>
      </trkpt>
      <trkpt lat="42.9829073" lon="-5.7403327">
        <ele>1415.05</ele>
        <time>2020-07-21T11:08:50.000Z</time>
      </trkpt>
      <trkpt lat="42.9829178" lon="-5.7403372">
        <ele>1415.05</ele>
        <time>2020-07-21T11:08:51.000Z</time>
      </trkpt>
      <trkpt lat="42.9829255" lon="-5.7403437">
        <ele>1415.36</ele>
        <time>2020-07-21T11:08:52.000Z</time>
      </trkpt>
      <trkpt lat="42.9829327" lon="-5.7403515">
        <ele>1415.36</ele>
        <time>2020-07-21T11:08:53.000Z</time>
      </trkpt>
      <trkpt lat="42.9829433" lon="-5.7403548">
        <ele>1415.51</ele>
        <time>2020-07-21T11:08:54.000Z</time>
      </trkpt>
      <trkpt lat="42.982955" lon="-5.7403573">
        <ele>1415.51</ele>
        <time>2020-07-21T11:08:55.000Z</time>
      </trkpt>
      <trkpt lat="42.9829655" lon="-5.7403593">
        <ele>1415.66</ele>
        <time>2020-07-21T11:08:56.000Z</time>
      </trkpt>
      <trkpt lat="42.9829737" lon="-5.7403658">
        <ele>1415.66</ele>
        <time>2020-07-21T11:08:57.000Z</time>
      </trkpt>
      <trkpt lat="42.9829825" lon="-5.7403718">
        <ele>1415.81</ele>
        <time>2020-07-21T11:08:58.000Z</time>
      </trkpt>
      <trkpt lat="42.9829913" lon="-5.740378">
        <ele>1415.81</ele>
        <time>2020-07-21T11:08:59.000Z</time>
      </trkpt>
      <trkpt lat="42.9829997" lon="-5.7403848">
        <ele>1415.97</ele>
        <time>2020-07-21T11:09:00.000Z</time>
      </trkpt>
      <trkpt lat="42.983006" lon="-5.740393">
        <ele>1415.97</ele>
        <time>2020-07-21T11:09:01.000Z</time>
      </trkpt>
      <trkpt lat="42.9830123" lon="-5.7403997">
        <ele>1416.12</ele>
        <time>2020-07-21T11:09:02.000Z</time>
      </trkpt>
      <trkpt lat="42.98302" lon="-5.7404048">
        <ele>1416.12</ele>
        <time>2020-07-21T11:09:03.000Z</time>
      </trkpt>
      <trkpt lat="42.9830297" lon="-5.7404085">
        <ele>1416.27</ele>
        <time>2020-07-21T11:09:04.000Z</time>
      </trkpt>
      <trkpt lat="42.9830403" lon="-5.7404135">
        <ele>1416.27</ele>
        <time>2020-07-21T11:09:05.000Z</time>
      </trkpt>
      <trkpt lat="42.9830488" lon="-5.740419">
        <ele>1416.27</ele>
        <time>2020-07-21T11:09:06.000Z</time>
      </trkpt>
      <trkpt lat="42.983056" lon="-5.7404253">
        <ele>1416.27</ele>
        <time>2020-07-21T11:09:07.000Z</time>
      </trkpt>
      <trkpt lat="42.9830622" lon="-5.7404305">
        <ele>1416.42</ele>
        <time>2020-07-21T11:09:08.000Z</time>
      </trkpt>
      <trkpt lat="42.9830708" lon="-5.7404358">
        <ele>1416.42</ele>
        <time>2020-07-21T11:09:09.000Z</time>
      </trkpt>
      <trkpt lat="42.9830797" lon="-5.7404412">
        <ele>1416.57</ele>
        <time>2020-07-21T11:09:10.000Z</time>
      </trkpt>
      <trkpt lat="42.983089" lon="-5.7404473">
        <ele>1416.57</ele>
        <time>2020-07-21T11:09:11.000Z</time>
      </trkpt>
      <trkpt lat="42.9830963" lon="-5.7404535">
        <ele>1416.73</ele>
        <time>2020-07-21T11:09:12.000Z</time>
      </trkpt>
      <trkpt lat="42.9831033" lon="-5.740459">
        <ele>1416.73</ele>
        <time>2020-07-21T11:09:13.000Z</time>
      </trkpt>
      <trkpt lat="42.9831108" lon="-5.7404643">
        <ele>1416.73</ele>
        <time>2020-07-21T11:09:14.000Z</time>
      </trkpt>
      <trkpt lat="42.983121" lon="-5.7404688">
        <ele>1416.73</ele>
        <time>2020-07-21T11:09:15.000Z</time>
      </trkpt>
      <trkpt lat="42.983132" lon="-5.7404738">
        <ele>1416.88</ele>
        <time>2020-07-21T11:09:16.000Z</time>
      </trkpt>
      <trkpt lat="42.9831425" lon="-5.7404788">
        <ele>1416.88</ele>
        <time>2020-07-21T11:09:17.000Z</time>
      </trkpt>
      <trkpt lat="42.9831517" lon="-5.7404833">
        <ele>1417.03</ele>
        <time>2020-07-21T11:09:18.000Z</time>
      </trkpt>
      <trkpt lat="42.9831597" lon="-5.7404878">
        <ele>1417.03</ele>
        <time>2020-07-21T11:09:19.000Z</time>
      </trkpt>
      <trkpt lat="42.9831685" lon="-5.7404922">
        <ele>1417.03</ele>
        <time>2020-07-21T11:09:20.000Z</time>
      </trkpt>
      <trkpt lat="42.9831772" lon="-5.7404962">
        <ele>1417.03</ele>
        <time>2020-07-21T11:09:21.000Z</time>
      </trkpt>
      <trkpt lat="42.9831867" lon="-5.7404995">
        <ele>1417.19</ele>
        <time>2020-07-21T11:09:22.000Z</time>
      </trkpt>
      <trkpt lat="42.9831958" lon="-5.740501">
        <ele>1417.19</ele>
        <time>2020-07-21T11:09:23.000Z</time>
      </trkpt>
      <trkpt lat="42.9832052" lon="-5.7405023">
        <ele>1417.19</ele>
        <time>2020-07-21T11:09:24.000Z</time>
      </trkpt>
      <trkpt lat="42.9832155" lon="-5.7405028">
        <ele>1417.19</ele>
        <time>2020-07-21T11:09:25.000Z</time>
      </trkpt>
      <trkpt lat="42.9832282" lon="-5.7405012">
        <ele>1417.34</ele>
        <time>2020-07-21T11:09:26.000Z</time>
      </trkpt>
      <trkpt lat="42.983241" lon="-5.7404995">
        <ele>1417.34</ele>
        <time>2020-07-21T11:09:27.000Z</time>
      </trkpt>
      <trkpt lat="42.9832528" lon="-5.7404982">
        <ele>1417.34</ele>
        <time>2020-07-21T11:09:28.000Z</time>
      </trkpt>
      <trkpt lat="42.9832628" lon="-5.7404985">
        <ele>1417.34</ele>
        <time>2020-07-21T11:09:29.000Z</time>
      </trkpt>
      <trkpt lat="42.9832738" lon="-5.7404972">
        <ele>1417.34</ele>
        <time>2020-07-21T11:09:30.000Z</time>
      </trkpt>
      <trkpt lat="42.9832872" lon="-5.7404943">
        <ele>1417.34</ele>
        <time>2020-07-21T11:09:31.000Z</time>
      </trkpt>
      <trkpt lat="42.9833027" lon="-5.7404918">
        <ele>1417.49</ele>
        <time>2020-07-21T11:09:32.000Z</time>
      </trkpt>
      <trkpt lat="42.983317" lon="-5.7404913">
        <ele>1417.49</ele>
        <time>2020-07-21T11:09:33.000Z</time>
      </trkpt>
      <trkpt lat="42.9833293" lon="-5.7404923">
        <ele>1417.49</ele>
        <time>2020-07-21T11:09:34.000Z</time>
      </trkpt>
      <trkpt lat="42.9833402" lon="-5.7404945">
        <ele>1417.49</ele>
        <time>2020-07-21T11:09:35.000Z</time>
      </trkpt>
      <trkpt lat="42.9833533" lon="-5.7404957">
        <ele>1417.49</ele>
        <time>2020-07-21T11:09:36.000Z</time>
      </trkpt>
      <trkpt lat="42.9833687" lon="-5.7404948">
        <ele>1417.49</ele>
        <time>2020-07-21T11:09:37.000Z</time>
      </trkpt>
      <trkpt lat="42.9833842" lon="-5.7404918">
        <ele>1417.64</ele>
        <time>2020-07-21T11:09:38.000Z</time>
      </trkpt>
      <trkpt lat="42.9834" lon="-5.7404878">
        <ele>1417.64</ele>
        <time>2020-07-21T11:09:39.000Z</time>
      </trkpt>
      <trkpt lat="42.9834127" lon="-5.7404848">
        <ele>1417.64</ele>
        <time>2020-07-21T11:09:40.000Z</time>
      </trkpt>
      <trkpt lat="42.9834257" lon="-5.7404815">
        <ele>1417.64</ele>
        <time>2020-07-21T11:09:41.000Z</time>
      </trkpt>
      <trkpt lat="42.9834372" lon="-5.7404762">
        <ele>1417.64</ele>
        <time>2020-07-21T11:09:42.000Z</time>
      </trkpt>
      <trkpt lat="42.9834493" lon="-5.7404705">
        <ele>1417.64</ele>
        <time>2020-07-21T11:09:43.000Z</time>
      </trkpt>
      <trkpt lat="42.9834608" lon="-5.7404643">
        <ele>1417.79</ele>
        <time>2020-07-21T11:09:44.000Z</time>
      </trkpt>
      <trkpt lat="42.9834735" lon="-5.740457">
        <ele>1417.79</ele>
        <time>2020-07-21T11:09:45.000Z</time>
      </trkpt>
      <trkpt lat="42.983486" lon="-5.7404477">
        <ele>1417.79</ele>
        <time>2020-07-21T11:09:46.000Z</time>
      </trkpt>
      <trkpt lat="42.983498" lon="-5.7404393">
        <ele>1417.79</ele>
        <time>2020-07-21T11:09:47.000Z</time>
      </trkpt>
      <trkpt lat="42.9835083" lon="-5.740433">
        <ele>1417.79</ele>
        <time>2020-07-21T11:09:48.000Z</time>
      </trkpt>
      <trkpt lat="42.9835183" lon="-5.7404278">
        <ele>1417.79</ele>
        <time>2020-07-21T11:09:49.000Z</time>
      </trkpt>
      <trkpt lat="42.9835305" lon="-5.740421">
        <ele>1417.95</ele>
        <time>2020-07-21T11:09:50.000Z</time>
      </trkpt>
      <trkpt lat="42.9835442" lon="-5.7404147">
        <ele>1417.95</ele>
        <time>2020-07-21T11:09:51.000Z</time>
      </trkpt>
      <trkpt lat="42.9835592" lon="-5.7404065">
        <ele>1417.95</ele>
        <time>2020-07-21T11:09:52.000Z</time>
      </trkpt>
      <trkpt lat="42.9835735" lon="-5.7403985">
        <ele>1417.95</ele>
        <time>2020-07-21T11:09:53.000Z</time>
      </trkpt>
      <trkpt lat="42.9835875" lon="-5.7403897">
        <ele>1418.1</ele>
        <time>2020-07-21T11:09:54.000Z</time>
      </trkpt>
      <trkpt lat="42.9836007" lon="-5.7403838">
        <ele>1418.1</ele>
        <time>2020-07-21T11:09:55.000Z</time>
      </trkpt>
      <trkpt lat="42.9836115" lon="-5.7403797">
        <ele>1418.1</ele>
        <time>2020-07-21T11:09:56.000Z</time>
      </trkpt>
      <trkpt lat="42.9836212" lon="-5.7403753">
        <ele>1418.1</ele>
        <time>2020-07-21T11:09:57.000Z</time>
      </trkpt>
      <trkpt lat="42.9836258" lon="-5.7403728">
        <ele>1418.25</ele>
        <time>2020-07-21T11:09:58.000Z</time>
      </trkpt>
      <trkpt lat="42.9836253" lon="-5.7403703">
        <ele>1418.25</ele>
        <time>2020-07-21T11:09:59.000Z</time>
      </trkpt>
      <trkpt lat="42.9836213" lon="-5.7403708">
        <ele>1418.4</ele>
        <time>2020-07-21T11:10:00.000Z</time>
      </trkpt>
      <trkpt lat="42.9836197" lon="-5.7403703">
        <ele>1418.4</ele>
        <time>2020-07-21T11:10:01.000Z</time>
      </trkpt>
      <trkpt lat="42.9836207" lon="-5.7403697">
        <ele>1418.4</ele>
        <time>2020-07-21T11:10:02.000Z</time>
      </trkpt>
      <trkpt lat="42.9836225" lon="-5.7403673">
        <ele>1418.4</ele>
        <time>2020-07-21T11:10:03.000Z</time>
      </trkpt>
      <trkpt lat="42.9836242" lon="-5.7403635">
        <ele>1418.56</ele>
        <time>2020-07-21T11:10:04.000Z</time>
      </trkpt>
      <trkpt lat="42.9836267" lon="-5.7403603">
        <ele>1418.56</ele>
        <time>2020-07-21T11:10:05.000Z</time>
      </trkpt>
      <trkpt lat="42.9836318" lon="-5.740358">
        <ele>1418.71</ele>
        <time>2020-07-21T11:10:06.000Z</time>
      </trkpt>
      <trkpt lat="42.9836418" lon="-5.740353">
        <ele>1418.71</ele>
        <time>2020-07-21T11:10:07.000Z</time>
      </trkpt>
      <trkpt lat="42.9836533" lon="-5.740347">
        <ele>1418.86</ele>
        <time>2020-07-21T11:10:08.000Z</time>
      </trkpt>
      <trkpt lat="42.983665" lon="-5.7403413">
        <ele>1418.86</ele>
        <time>2020-07-21T11:10:09.000Z</time>
      </trkpt>
      <trkpt lat="42.9836742" lon="-5.7403383">
        <ele>1419.01</ele>
        <time>2020-07-21T11:10:10.000Z</time>
      </trkpt>
      <trkpt lat="42.9836837" lon="-5.7403355">
        <ele>1419.01</ele>
        <time>2020-07-21T11:10:11.000Z</time>
      </trkpt>
      <trkpt lat="42.9836937" lon="-5.740331">
        <ele>1419.32</ele>
        <time>2020-07-21T11:10:12.000Z</time>
      </trkpt>
      <trkpt lat="42.9837045" lon="-5.7403258">
        <ele>1419.32</ele>
        <time>2020-07-21T11:10:13.000Z</time>
      </trkpt>
      <trkpt lat="42.9837162" lon="-5.7403185">
        <ele>1419.47</ele>
        <time>2020-07-21T11:10:14.000Z</time>
      </trkpt>
      <trkpt lat="42.9837287" lon="-5.7403088">
        <ele>1419.47</ele>
        <time>2020-07-21T11:10:15.000Z</time>
      </trkpt>
      <trkpt lat="42.9837412" lon="-5.7402977">
        <ele>1419.62</ele>
        <time>2020-07-21T11:10:16.000Z</time>
      </trkpt>
      <trkpt lat="42.9837532" lon="-5.740288">
        <ele>1419.62</ele>
        <time>2020-07-21T11:10:17.000Z</time>
      </trkpt>
      <trkpt lat="42.9837658" lon="-5.7402803">
        <ele>1419.93</ele>
        <time>2020-07-21T11:10:18.000Z</time>
      </trkpt>
      <trkpt lat="42.9837797" lon="-5.7402732">
        <ele>1419.93</ele>
        <time>2020-07-21T11:10:19.000Z</time>
      </trkpt>
      <trkpt lat="42.9837943" lon="-5.7402663">
        <ele>1420.08</ele>
        <time>2020-07-21T11:10:20.000Z</time>
      </trkpt>
      <trkpt lat="42.9838092" lon="-5.7402595">
        <ele>1420.08</ele>
        <time>2020-07-21T11:10:21.000Z</time>
      </trkpt>
      <trkpt lat="42.9838243" lon="-5.7402538">
        <ele>1420.23</ele>
        <time>2020-07-21T11:10:22.000Z</time>
      </trkpt>
      <trkpt lat="42.9838402" lon="-5.7402478">
        <ele>1420.23</ele>
        <time>2020-07-21T11:10:23.000Z</time>
      </trkpt>
      <trkpt lat="42.9838555" lon="-5.7402412">
        <ele>1420.54</ele>
        <time>2020-07-21T11:10:24.000Z</time>
      </trkpt>
      <trkpt lat="42.98387" lon="-5.7402343">
        <ele>1420.54</ele>
        <time>2020-07-21T11:10:25.000Z</time>
      </trkpt>
      <trkpt lat="42.9838822" lon="-5.7402267">
        <ele>1420.69</ele>
        <time>2020-07-21T11:10:26.000Z</time>
      </trkpt>
      <trkpt lat="42.983893" lon="-5.7402193">
        <ele>1420.69</ele>
        <time>2020-07-21T11:10:27.000Z</time>
      </trkpt>
      <trkpt lat="42.9839037" lon="-5.7402102">
        <ele>1420.84</ele>
        <time>2020-07-21T11:10:28.000Z</time>
      </trkpt>
      <trkpt lat="42.9839148" lon="-5.7402017">
        <ele>1420.84</ele>
        <time>2020-07-21T11:10:29.000Z</time>
      </trkpt>
      <trkpt lat="42.9839272" lon="-5.740193">
        <ele>1421.15</ele>
        <time>2020-07-21T11:10:30.000Z</time>
      </trkpt>
      <trkpt lat="42.9839387" lon="-5.7401895">
        <ele>1421.15</ele>
        <time>2020-07-21T11:10:31.000Z</time>
      </trkpt>
      <trkpt lat="42.98395" lon="-5.7401882">
        <ele>1421.3</ele>
        <time>2020-07-21T11:10:32.000Z</time>
      </trkpt>
      <trkpt lat="42.9839615" lon="-5.7401875">
        <ele>1421.3</ele>
        <time>2020-07-21T11:10:33.000Z</time>
      </trkpt>
      <trkpt lat="42.9839733" lon="-5.7401842">
        <ele>1421.6</ele>
        <time>2020-07-21T11:10:34.000Z</time>
      </trkpt>
      <trkpt lat="42.9839852" lon="-5.7401797">
        <ele>1421.6</ele>
        <time>2020-07-21T11:10:35.000Z</time>
      </trkpt>
      <trkpt lat="42.9839962" lon="-5.7401745">
        <ele>1421.76</ele>
        <time>2020-07-21T11:10:36.000Z</time>
      </trkpt>
      <trkpt lat="42.9840072" lon="-5.7401705">
        <ele>1421.76</ele>
        <time>2020-07-21T11:10:37.000Z</time>
      </trkpt>
      <trkpt lat="42.9840182" lon="-5.7401685">
        <ele>1421.91</ele>
        <time>2020-07-21T11:10:38.000Z</time>
      </trkpt>
      <trkpt lat="42.9840297" lon="-5.7401685">
        <ele>1421.91</ele>
        <time>2020-07-21T11:10:39.000Z</time>
      </trkpt>
      <trkpt lat="42.9840407" lon="-5.7401682">
        <ele>1422.06</ele>
        <time>2020-07-21T11:10:40.000Z</time>
      </trkpt>
      <trkpt lat="42.9840522" lon="-5.7401675">
        <ele>1422.06</ele>
        <time>2020-07-21T11:10:41.000Z</time>
      </trkpt>
      <trkpt lat="42.9840638" lon="-5.740167">
        <ele>1422.37</ele>
        <time>2020-07-21T11:10:42.000Z</time>
      </trkpt>
      <trkpt lat="42.9840757" lon="-5.7401665">
        <ele>1422.37</ele>
        <time>2020-07-21T11:10:43.000Z</time>
      </trkpt>
      <trkpt lat="42.9840877" lon="-5.7401655">
        <ele>1422.52</ele>
        <time>2020-07-21T11:10:44.000Z</time>
      </trkpt>
      <trkpt lat="42.9841" lon="-5.7401637">
        <ele>1422.52</ele>
        <time>2020-07-21T11:10:45.000Z</time>
      </trkpt>
      <trkpt lat="42.984111" lon="-5.7401618">
        <ele>1422.67</ele>
        <time>2020-07-21T11:10:46.000Z</time>
      </trkpt>
      <trkpt lat="42.9841222" lon="-5.7401598">
        <ele>1422.67</ele>
        <time>2020-07-21T11:10:47.000Z</time>
      </trkpt>
      <trkpt lat="42.9841317" lon="-5.740159">
        <ele>1422.98</ele>
        <time>2020-07-21T11:10:48.000Z</time>
      </trkpt>
      <trkpt lat="42.9841428" lon="-5.7401578">
        <ele>1422.98</ele>
        <time>2020-07-21T11:10:49.000Z</time>
      </trkpt>
      <trkpt lat="42.9841537" lon="-5.7401558">
        <ele>1423.13</ele>
        <time>2020-07-21T11:10:50.000Z</time>
      </trkpt>
      <trkpt lat="42.9841665" lon="-5.740152">
        <ele>1423.13</ele>
        <time>2020-07-21T11:10:51.000Z</time>
      </trkpt>
      <trkpt lat="42.9841787" lon="-5.740148">
        <ele>1423.28</ele>
        <time>2020-07-21T11:10:52.000Z</time>
      </trkpt>
      <trkpt lat="42.9841912" lon="-5.7401442">
        <ele>1423.28</ele>
        <time>2020-07-21T11:10:53.000Z</time>
      </trkpt>
      <trkpt lat="42.9842033" lon="-5.7401403">
        <ele>1423.59</ele>
        <time>2020-07-21T11:10:54.000Z</time>
      </trkpt>
      <trkpt lat="42.9842158" lon="-5.7401368">
        <ele>1423.59</ele>
        <time>2020-07-21T11:10:55.000Z</time>
      </trkpt>
      <trkpt lat="42.9842283" lon="-5.740134">
        <ele>1423.74</ele>
        <time>2020-07-21T11:10:56.000Z</time>
      </trkpt>
      <trkpt lat="42.9842427" lon="-5.7401305">
        <ele>1423.74</ele>
        <time>2020-07-21T11:10:57.000Z</time>
      </trkpt>
      <trkpt lat="42.9842577" lon="-5.7401275">
        <ele>1423.89</ele>
        <time>2020-07-21T11:10:58.000Z</time>
      </trkpt>
      <trkpt lat="42.984273" lon="-5.7401233">
        <ele>1423.89</ele>
        <time>2020-07-21T11:10:59.000Z</time>
      </trkpt>
      <trkpt lat="42.9842862" lon="-5.7401203">
        <ele>1424.19</ele>
        <time>2020-07-21T11:11:00.000Z</time>
      </trkpt>
      <trkpt lat="42.9842993" lon="-5.7401173">
        <ele>1424.19</ele>
        <time>2020-07-21T11:11:01.000Z</time>
      </trkpt>
      <trkpt lat="42.9843133" lon="-5.7401158">
        <ele>1424.35</ele>
        <time>2020-07-21T11:11:02.000Z</time>
      </trkpt>
      <trkpt lat="42.984329" lon="-5.7401142">
        <ele>1424.35</ele>
        <time>2020-07-21T11:11:03.000Z</time>
      </trkpt>
      <trkpt lat="42.9843457" lon="-5.740113">
        <ele>1424.65</ele>
        <time>2020-07-21T11:11:04.000Z</time>
      </trkpt>
      <trkpt lat="42.9843602" lon="-5.740112">
        <ele>1424.65</ele>
        <time>2020-07-21T11:11:05.000Z</time>
      </trkpt>
      <trkpt lat="42.9843732" lon="-5.7401122">
        <ele>1424.81</ele>
        <time>2020-07-21T11:11:06.000Z</time>
      </trkpt>
      <trkpt lat="42.9843843" lon="-5.7401132">
        <ele>1424.81</ele>
        <time>2020-07-21T11:11:07.000Z</time>
      </trkpt>
      <trkpt lat="42.9843982" lon="-5.7401153">
        <ele>1425.11</ele>
        <time>2020-07-21T11:11:08.000Z</time>
      </trkpt>
      <trkpt lat="42.984413" lon="-5.7401173">
        <ele>1425.11</ele>
        <time>2020-07-21T11:11:09.000Z</time>
      </trkpt>
      <trkpt lat="42.9844283" lon="-5.7401188">
        <ele>1425.41</ele>
        <time>2020-07-21T11:11:10.000Z</time>
      </trkpt>
      <trkpt lat="42.984443" lon="-5.7401192">
        <ele>1425.41</ele>
        <time>2020-07-21T11:11:11.000Z</time>
      </trkpt>
      <trkpt lat="42.9844573" lon="-5.7401202">
        <ele>1425.57</ele>
        <time>2020-07-21T11:11:12.000Z</time>
      </trkpt>
      <trkpt lat="42.9844713" lon="-5.7401222">
        <ele>1425.57</ele>
        <time>2020-07-21T11:11:13.000Z</time>
      </trkpt>
      <trkpt lat="42.9844835" lon="-5.7401245">
        <ele>1425.87</ele>
        <time>2020-07-21T11:11:14.000Z</time>
      </trkpt>
      <trkpt lat="42.9844948" lon="-5.7401273">
        <ele>1425.87</ele>
        <time>2020-07-21T11:11:15.000Z</time>
      </trkpt>
      <trkpt lat="42.9845067" lon="-5.740127">
        <ele>1426.02</ele>
        <time>2020-07-21T11:11:16.000Z</time>
      </trkpt>
      <trkpt lat="42.9845178" lon="-5.7401268">
        <ele>1426.02</ele>
        <time>2020-07-21T11:11:17.000Z</time>
      </trkpt>
      <trkpt lat="42.98453" lon="-5.740125">
        <ele>1426.33</ele>
        <time>2020-07-21T11:11:18.000Z</time>
      </trkpt>
      <trkpt lat="42.98453" lon="-5.740125">
        <ele>1426.33</ele>
        <time>2020-07-21T11:11:19.000Z</time>
      </trkpt>
      <trkpt lat="42.9845472" lon="-5.7401265">
        <ele>1426.63</ele>
        <time>2020-07-21T11:11:20.000Z</time>
      </trkpt>
      <trkpt lat="42.984566" lon="-5.7401262">
        <ele>1426.63</ele>
        <time>2020-07-21T11:11:21.000Z</time>
      </trkpt>
      <trkpt lat="42.984586" lon="-5.740126">
        <ele>1426.94</ele>
        <time>2020-07-21T11:11:22.000Z</time>
      </trkpt>
      <trkpt lat="42.9846005" lon="-5.7401245">
        <ele>1426.94</ele>
        <time>2020-07-21T11:11:23.000Z</time>
      </trkpt>
      <trkpt lat="42.9846143" lon="-5.7401247">
        <ele>1427.09</ele>
        <time>2020-07-21T11:11:24.000Z</time>
      </trkpt>
      <trkpt lat="42.9846268" lon="-5.7401253">
        <ele>1427.09</ele>
        <time>2020-07-21T11:11:25.000Z</time>
      </trkpt>
      <trkpt lat="42.98464" lon="-5.740126">
        <ele>1427.4</ele>
        <time>2020-07-21T11:11:26.000Z</time>
      </trkpt>
      <trkpt lat="42.984653" lon="-5.740125">
        <ele>1427.4</ele>
        <time>2020-07-21T11:11:27.000Z</time>
      </trkpt>
      <trkpt lat="42.9846658" lon="-5.7401233">
        <ele>1427.7</ele>
        <time>2020-07-21T11:11:28.000Z</time>
      </trkpt>
      <trkpt lat="42.9846787" lon="-5.7401217">
        <ele>1427.7</ele>
        <time>2020-07-21T11:11:29.000Z</time>
      </trkpt>
      <trkpt lat="42.9846918" lon="-5.7401207">
        <ele>1428.01</ele>
        <time>2020-07-21T11:11:30.000Z</time>
      </trkpt>
      <trkpt lat="42.984704" lon="-5.74012">
        <ele>1428.01</ele>
        <time>2020-07-21T11:11:31.000Z</time>
      </trkpt>
      <trkpt lat="42.9847148" lon="-5.7401193">
        <ele>1428.16</ele>
        <time>2020-07-21T11:11:32.000Z</time>
      </trkpt>
      <trkpt lat="42.9847255" lon="-5.740119">
        <ele>1428.16</ele>
        <time>2020-07-21T11:11:33.000Z</time>
      </trkpt>
      <trkpt lat="42.9847367" lon="-5.7401183">
        <ele>1428.46</ele>
        <time>2020-07-21T11:11:34.000Z</time>
      </trkpt>
      <trkpt lat="42.984749" lon="-5.7401178">
        <ele>1428.46</ele>
        <time>2020-07-21T11:11:35.000Z</time>
      </trkpt>
      <trkpt lat="42.9847613" lon="-5.7401178">
        <ele>1428.61</ele>
        <time>2020-07-21T11:11:36.000Z</time>
      </trkpt>
      <trkpt lat="42.9847733" lon="-5.7401173">
        <ele>1428.61</ele>
        <time>2020-07-21T11:11:37.000Z</time>
      </trkpt>
      <trkpt lat="42.9847855" lon="-5.7401158">
        <ele>1428.77</ele>
        <time>2020-07-21T11:11:38.000Z</time>
      </trkpt>
      <trkpt lat="42.9847975" lon="-5.7401138">
        <ele>1428.77</ele>
        <time>2020-07-21T11:11:39.000Z</time>
      </trkpt>
      <trkpt lat="42.9848095" lon="-5.7401117">
        <ele>1428.92</ele>
        <time>2020-07-21T11:11:40.000Z</time>
      </trkpt>
      <trkpt lat="42.984822" lon="-5.7401102">
        <ele>1428.92</ele>
        <time>2020-07-21T11:11:41.000Z</time>
      </trkpt>
      <trkpt lat="42.9848338" lon="-5.7401082">
        <ele>1429.07</ele>
        <time>2020-07-21T11:11:42.000Z</time>
      </trkpt>
      <trkpt lat="42.9848453" lon="-5.7401062">
        <ele>1429.07</ele>
        <time>2020-07-21T11:11:43.000Z</time>
      </trkpt>
      <trkpt lat="42.9848553" lon="-5.7401043">
        <ele>1429.22</ele>
        <time>2020-07-21T11:11:44.000Z</time>
      </trkpt>
      <trkpt lat="42.9848672" lon="-5.7401033">
        <ele>1429.22</ele>
        <time>2020-07-21T11:11:45.000Z</time>
      </trkpt>
      <trkpt lat="42.9848803" lon="-5.7401012">
        <ele>1429.38</ele>
        <time>2020-07-21T11:11:46.000Z</time>
      </trkpt>
      <trkpt lat="42.9848955" lon="-5.740099">
        <ele>1429.38</ele>
        <time>2020-07-21T11:11:47.000Z</time>
      </trkpt>
      <trkpt lat="42.9849102" lon="-5.740096">
        <ele>1429.53</ele>
        <time>2020-07-21T11:11:48.000Z</time>
      </trkpt>
      <trkpt lat="42.984924" lon="-5.7400962">
        <ele>1429.53</ele>
        <time>2020-07-21T11:11:49.000Z</time>
      </trkpt>
      <trkpt lat="42.984937" lon="-5.7400968">
        <ele>1429.53</ele>
        <time>2020-07-21T11:11:50.000Z</time>
      </trkpt>
      <trkpt lat="42.9849498" lon="-5.740098">
        <ele>1429.53</ele>
        <time>2020-07-21T11:11:51.000Z</time>
      </trkpt>
      <trkpt lat="42.9849618" lon="-5.7400985">
        <ele>1429.53</ele>
        <time>2020-07-21T11:11:52.000Z</time>
      </trkpt>
      <trkpt lat="42.9849747" lon="-5.7400992">
        <ele>1429.53</ele>
        <time>2020-07-21T11:11:53.000Z</time>
      </trkpt>
      <trkpt lat="42.9849883" lon="-5.7401003">
        <ele>1429.68</ele>
        <time>2020-07-21T11:11:54.000Z</time>
      </trkpt>
      <trkpt lat="42.9850032" lon="-5.7401012">
        <ele>1429.68</ele>
        <time>2020-07-21T11:11:55.000Z</time>
      </trkpt>
      <trkpt lat="42.9850175" lon="-5.740101">
        <ele>1429.53</ele>
        <time>2020-07-21T11:11:56.000Z</time>
      </trkpt>
      <trkpt lat="42.9850305" lon="-5.7401017">
        <ele>1429.53</ele>
        <time>2020-07-21T11:11:57.000Z</time>
      </trkpt>
      <trkpt lat="42.9850423" lon="-5.7401037">
        <ele>1429.53</ele>
        <time>2020-07-21T11:11:58.000Z</time>
      </trkpt>
      <trkpt lat="42.9850517" lon="-5.7401088">
        <ele>1429.53</ele>
        <time>2020-07-21T11:11:59.000Z</time>
      </trkpt>
      <trkpt lat="42.9850613" lon="-5.7401165">
        <ele>1429.53</ele>
        <time>2020-07-21T11:12:00.000Z</time>
      </trkpt>
      <trkpt lat="42.9850687" lon="-5.740124">
        <ele>1429.53</ele>
        <time>2020-07-21T11:12:01.000Z</time>
      </trkpt>
      <trkpt lat="42.9850773" lon="-5.7401318">
        <ele>1429.53</ele>
        <time>2020-07-21T11:12:02.000Z</time>
      </trkpt>
      <trkpt lat="42.985084" lon="-5.7401407">
        <ele>1429.53</ele>
        <time>2020-07-21T11:12:03.000Z</time>
      </trkpt>
      <trkpt lat="42.9850925" lon="-5.7401515">
        <ele>1429.38</ele>
        <time>2020-07-21T11:12:04.000Z</time>
      </trkpt>
      <trkpt lat="42.9850993" lon="-5.7401635">
        <ele>1429.38</ele>
        <time>2020-07-21T11:12:05.000Z</time>
      </trkpt>
      <trkpt lat="42.9851053" lon="-5.740174">
        <ele>1429.22</ele>
        <time>2020-07-21T11:12:06.000Z</time>
      </trkpt>
      <trkpt lat="42.9851113" lon="-5.7401838">
        <ele>1429.22</ele>
        <time>2020-07-21T11:12:07.000Z</time>
      </trkpt>
      <trkpt lat="42.9851172" lon="-5.7401938">
        <ele>1429.22</ele>
        <time>2020-07-21T11:12:08.000Z</time>
      </trkpt>
      <trkpt lat="42.9851237" lon="-5.7402048">
        <ele>1429.22</ele>
        <time>2020-07-21T11:12:09.000Z</time>
      </trkpt>
      <trkpt lat="42.9851285" lon="-5.7402168">
        <ele>1429.07</ele>
        <time>2020-07-21T11:12:10.000Z</time>
      </trkpt>
      <trkpt lat="42.9851325" lon="-5.7402282">
        <ele>1429.07</ele>
        <time>2020-07-21T11:12:11.000Z</time>
      </trkpt>
      <trkpt lat="42.9851357" lon="-5.740241">
        <ele>1429.07</ele>
        <time>2020-07-21T11:12:12.000Z</time>
      </trkpt>
      <trkpt lat="42.985139" lon="-5.7402543">
        <ele>1429.07</ele>
        <time>2020-07-21T11:12:13.000Z</time>
      </trkpt>
      <trkpt lat="42.985142" lon="-5.7402678">
        <ele>1428.92</ele>
        <time>2020-07-21T11:12:14.000Z</time>
      </trkpt>
      <trkpt lat="42.9851443" lon="-5.740282">
        <ele>1428.92</ele>
        <time>2020-07-21T11:12:15.000Z</time>
      </trkpt>
      <trkpt lat="42.9851457" lon="-5.7402963">
        <ele>1428.92</ele>
        <time>2020-07-21T11:12:16.000Z</time>
      </trkpt>
      <trkpt lat="42.9851483" lon="-5.7403125">
        <ele>1428.92</ele>
        <time>2020-07-21T11:12:17.000Z</time>
      </trkpt>
      <trkpt lat="42.9851507" lon="-5.7403275">
        <ele>1428.77</ele>
        <time>2020-07-21T11:12:18.000Z</time>
      </trkpt>
      <trkpt lat="42.9851533" lon="-5.7403423">
        <ele>1428.77</ele>
        <time>2020-07-21T11:12:19.000Z</time>
      </trkpt>
      <trkpt lat="42.9851548" lon="-5.7403568">
        <ele>1428.61</ele>
        <time>2020-07-21T11:12:20.000Z</time>
      </trkpt>
      <trkpt lat="42.9851563" lon="-5.7403722">
        <ele>1428.61</ele>
        <time>2020-07-21T11:12:21.000Z</time>
      </trkpt>
      <trkpt lat="42.9851572" lon="-5.7403875">
        <ele>1428.46</ele>
        <time>2020-07-21T11:12:22.000Z</time>
      </trkpt>
      <trkpt lat="42.9851575" lon="-5.7404027">
        <ele>1428.46</ele>
        <time>2020-07-21T11:12:23.000Z</time>
      </trkpt>
      <trkpt lat="42.9851578" lon="-5.7404163">
        <ele>1428.31</ele>
        <time>2020-07-21T11:12:24.000Z</time>
      </trkpt>
      <trkpt lat="42.9851578" lon="-5.7404305">
        <ele>1428.31</ele>
        <time>2020-07-21T11:12:25.000Z</time>
      </trkpt>
      <trkpt lat="42.9851567" lon="-5.7404447">
        <ele>1428.16</ele>
        <time>2020-07-21T11:12:26.000Z</time>
      </trkpt>
      <trkpt lat="42.9851562" lon="-5.7404608">
        <ele>1428.16</ele>
        <time>2020-07-21T11:12:27.000Z</time>
      </trkpt>
      <trkpt lat="42.9851553" lon="-5.740477">
        <ele>1428.01</ele>
        <time>2020-07-21T11:12:28.000Z</time>
      </trkpt>
      <trkpt lat="42.9851562" lon="-5.7404923">
        <ele>1428.01</ele>
        <time>2020-07-21T11:12:29.000Z</time>
      </trkpt>
      <trkpt lat="42.9851563" lon="-5.7405067">
        <ele>1427.7</ele>
        <time>2020-07-21T11:12:30.000Z</time>
      </trkpt>
      <trkpt lat="42.9851572" lon="-5.7405203">
        <ele>1427.7</ele>
        <time>2020-07-21T11:12:31.000Z</time>
      </trkpt>
      <trkpt lat="42.9851587" lon="-5.7405345">
        <ele>1427.55</ele>
        <time>2020-07-21T11:12:32.000Z</time>
      </trkpt>
      <trkpt lat="42.9851607" lon="-5.7405498">
        <ele>1427.55</ele>
        <time>2020-07-21T11:12:33.000Z</time>
      </trkpt>
      <trkpt lat="42.9851625" lon="-5.7405658">
        <ele>1427.24</ele>
        <time>2020-07-21T11:12:34.000Z</time>
      </trkpt>
      <trkpt lat="42.9851638" lon="-5.7405827">
        <ele>1427.24</ele>
        <time>2020-07-21T11:12:35.000Z</time>
      </trkpt>
      <trkpt lat="42.9851657" lon="-5.7405985">
        <ele>1426.94</ele>
        <time>2020-07-21T11:12:36.000Z</time>
      </trkpt>
      <trkpt lat="42.9851678" lon="-5.7406145">
        <ele>1426.94</ele>
        <time>2020-07-21T11:12:37.000Z</time>
      </trkpt>
      <trkpt lat="42.9851703" lon="-5.7406302">
        <ele>1426.63</ele>
        <time>2020-07-21T11:12:38.000Z</time>
      </trkpt>
      <trkpt lat="42.985173" lon="-5.7406473">
        <ele>1426.63</ele>
        <time>2020-07-21T11:12:39.000Z</time>
      </trkpt>
      <trkpt lat="42.985176" lon="-5.7406652">
        <ele>1426.33</ele>
        <time>2020-07-21T11:12:40.000Z</time>
      </trkpt>
      <trkpt lat="42.9851787" lon="-5.740683">
        <ele>1426.33</ele>
        <time>2020-07-21T11:12:41.000Z</time>
      </trkpt>
      <trkpt lat="42.9851813" lon="-5.7407018">
        <ele>1426.02</ele>
        <time>2020-07-21T11:12:42.000Z</time>
      </trkpt>
      <trkpt lat="42.9851842" lon="-5.7407205">
        <ele>1426.02</ele>
        <time>2020-07-21T11:12:43.000Z</time>
      </trkpt>
      <trkpt lat="42.985187" lon="-5.7407402">
        <ele>1425.72</ele>
        <time>2020-07-21T11:12:44.000Z</time>
      </trkpt>
      <trkpt lat="42.9851897" lon="-5.7407585">
        <ele>1425.72</ele>
        <time>2020-07-21T11:12:45.000Z</time>
      </trkpt>
      <trkpt lat="42.9851922" lon="-5.740776">
        <ele>1425.26</ele>
        <time>2020-07-21T11:12:46.000Z</time>
      </trkpt>
      <trkpt lat="42.9851955" lon="-5.740792">
        <ele>1425.26</ele>
        <time>2020-07-21T11:12:47.000Z</time>
      </trkpt>
      <trkpt lat="42.9851978" lon="-5.7408073">
        <ele>1424.96</ele>
        <time>2020-07-21T11:12:48.000Z</time>
      </trkpt>
      <trkpt lat="42.9851995" lon="-5.7408225">
        <ele>1424.96</ele>
        <time>2020-07-21T11:12:49.000Z</time>
      </trkpt>
      <trkpt lat="42.9851998" lon="-5.7408383">
        <ele>1424.65</ele>
        <time>2020-07-21T11:12:50.000Z</time>
      </trkpt>
      <trkpt lat="42.9852007" lon="-5.7408542">
        <ele>1424.65</ele>
        <time>2020-07-21T11:12:51.000Z</time>
      </trkpt>
      <trkpt lat="42.9852008" lon="-5.740869">
        <ele>1424.35</ele>
        <time>2020-07-21T11:12:52.000Z</time>
      </trkpt>
      <trkpt lat="42.9852003" lon="-5.7408857">
        <ele>1424.35</ele>
        <time>2020-07-21T11:12:53.000Z</time>
      </trkpt>
      <trkpt lat="42.9851987" lon="-5.7409028">
        <ele>1423.89</ele>
        <time>2020-07-21T11:12:54.000Z</time>
      </trkpt>
      <trkpt lat="42.9851968" lon="-5.7409248">
        <ele>1423.89</ele>
        <time>2020-07-21T11:12:55.000Z</time>
      </trkpt>
      <trkpt lat="42.9851967" lon="-5.7409453">
        <ele>1423.59</ele>
        <time>2020-07-21T11:12:56.000Z</time>
      </trkpt>
      <trkpt lat="42.9851973" lon="-5.7409652">
        <ele>1423.59</ele>
        <time>2020-07-21T11:12:57.000Z</time>
      </trkpt>
      <trkpt lat="42.9851982" lon="-5.740981">
        <ele>1423.28</ele>
        <time>2020-07-21T11:12:58.000Z</time>
      </trkpt>
      <trkpt lat="42.9851983" lon="-5.7409953">
        <ele>1423.28</ele>
        <time>2020-07-21T11:12:59.000Z</time>
      </trkpt>
      <trkpt lat="42.9851975" lon="-5.7410103">
        <ele>1423.13</ele>
        <time>2020-07-21T11:13:00.000Z</time>
      </trkpt>
      <trkpt lat="42.9851968" lon="-5.741026">
        <ele>1423.13</ele>
        <time>2020-07-21T11:13:01.000Z</time>
      </trkpt>
      <trkpt lat="42.9851972" lon="-5.7410437">
        <ele>1422.82</ele>
        <time>2020-07-21T11:13:02.000Z</time>
      </trkpt>
      <trkpt lat="42.9851978" lon="-5.7410608">
        <ele>1422.82</ele>
        <time>2020-07-21T11:13:03.000Z</time>
      </trkpt>
      <trkpt lat="42.9851992" lon="-5.7410782">
        <ele>1422.67</ele>
        <time>2020-07-21T11:13:04.000Z</time>
      </trkpt>
      <trkpt lat="42.9852003" lon="-5.7410938">
        <ele>1422.67</ele>
        <time>2020-07-21T11:13:05.000Z</time>
      </trkpt>
      <trkpt lat="42.9852015" lon="-5.7411097">
        <ele>1422.37</ele>
        <time>2020-07-21T11:13:06.000Z</time>
      </trkpt>
      <trkpt lat="42.9852008" lon="-5.7411248">
        <ele>1422.37</ele>
        <time>2020-07-21T11:13:07.000Z</time>
      </trkpt>
      <trkpt lat="42.9851992" lon="-5.7411407">
        <ele>1422.21</ele>
        <time>2020-07-21T11:13:08.000Z</time>
      </trkpt>
      <trkpt lat="42.985197" lon="-5.7411562">
        <ele>1422.21</ele>
        <time>2020-07-21T11:13:09.000Z</time>
      </trkpt>
      <trkpt lat="42.985194" lon="-5.7411727">
        <ele>1422.06</ele>
        <time>2020-07-21T11:13:10.000Z</time>
      </trkpt>
      <trkpt lat="42.9851922" lon="-5.7411898">
        <ele>1422.06</ele>
        <time>2020-07-21T11:13:11.000Z</time>
      </trkpt>
      <trkpt lat="42.9851895" lon="-5.7412078">
        <ele>1422.06</ele>
        <time>2020-07-21T11:13:12.000Z</time>
      </trkpt>
      <trkpt lat="42.9851868" lon="-5.7412265">
        <ele>1422.06</ele>
        <time>2020-07-21T11:13:13.000Z</time>
      </trkpt>
      <trkpt lat="42.985182" lon="-5.7412442">
        <ele>1421.91</ele>
        <time>2020-07-21T11:13:14.000Z</time>
      </trkpt>
      <trkpt lat="42.9851763" lon="-5.7412632">
        <ele>1421.91</ele>
        <time>2020-07-21T11:13:15.000Z</time>
      </trkpt>
      <trkpt lat="42.9851702" lon="-5.7412817">
        <ele>1421.76</ele>
        <time>2020-07-21T11:13:16.000Z</time>
      </trkpt>
      <trkpt lat="42.9851673" lon="-5.7413">
        <ele>1421.76</ele>
        <time>2020-07-21T11:13:17.000Z</time>
      </trkpt>
      <trkpt lat="42.985168" lon="-5.741317">
        <ele>1421.76</ele>
        <time>2020-07-21T11:13:18.000Z</time>
      </trkpt>
      <trkpt lat="42.9851705" lon="-5.7413325">
        <ele>1421.76</ele>
        <time>2020-07-21T11:13:19.000Z</time>
      </trkpt>
      <trkpt lat="42.9851723" lon="-5.7413475">
        <ele>1421.76</ele>
        <time>2020-07-21T11:13:20.000Z</time>
      </trkpt>
      <trkpt lat="42.985173" lon="-5.7413623">
        <ele>1421.76</ele>
        <time>2020-07-21T11:13:21.000Z</time>
      </trkpt>
      <trkpt lat="42.9851732" lon="-5.741378">
        <ele>1421.6</ele>
        <time>2020-07-21T11:13:22.000Z</time>
      </trkpt>
      <trkpt lat="42.9851715" lon="-5.7413937">
        <ele>1421.6</ele>
        <time>2020-07-21T11:13:23.000Z</time>
      </trkpt>
      <trkpt lat="42.9851703" lon="-5.7414092">
        <ele>1421.6</ele>
        <time>2020-07-21T11:13:24.000Z</time>
      </trkpt>
      <trkpt lat="42.9851707" lon="-5.7414252">
        <ele>1421.6</ele>
        <time>2020-07-21T11:13:25.000Z</time>
      </trkpt>
      <trkpt lat="42.9851733" lon="-5.741441">
        <ele>1421.6</ele>
        <time>2020-07-21T11:13:26.000Z</time>
      </trkpt>
      <trkpt lat="42.9851763" lon="-5.7414565">
        <ele>1421.6</ele>
        <time>2020-07-21T11:13:27.000Z</time>
      </trkpt>
      <trkpt lat="42.9851798" lon="-5.7414723">
        <ele>1421.6</ele>
        <time>2020-07-21T11:13:28.000Z</time>
      </trkpt>
      <trkpt lat="42.9851833" lon="-5.7414892">
        <ele>1421.6</ele>
        <time>2020-07-21T11:13:29.000Z</time>
      </trkpt>
      <trkpt lat="42.9851857" lon="-5.7415072">
        <ele>1421.6</ele>
        <time>2020-07-21T11:13:30.000Z</time>
      </trkpt>
      <trkpt lat="42.9851862" lon="-5.7415262">
        <ele>1421.6</ele>
        <time>2020-07-21T11:13:31.000Z</time>
      </trkpt>
      <trkpt lat="42.9851862" lon="-5.7415482">
        <ele>1421.45</ele>
        <time>2020-07-21T11:13:32.000Z</time>
      </trkpt>
      <trkpt lat="42.985187" lon="-5.7415722">
        <ele>1421.45</ele>
        <time>2020-07-21T11:13:33.000Z</time>
      </trkpt>
      <trkpt lat="42.985188" lon="-5.7415962">
        <ele>1421.45</ele>
        <time>2020-07-21T11:13:34.000Z</time>
      </trkpt>
      <trkpt lat="42.9851887" lon="-5.7416177">
        <ele>1421.45</ele>
        <time>2020-07-21T11:13:35.000Z</time>
      </trkpt>
      <trkpt lat="42.98519" lon="-5.741638">
        <ele>1421.45</ele>
        <time>2020-07-21T11:13:36.000Z</time>
      </trkpt>
      <trkpt lat="42.9851928" lon="-5.7416568">
        <ele>1421.45</ele>
        <time>2020-07-21T11:13:37.000Z</time>
      </trkpt>
      <trkpt lat="42.9851952" lon="-5.7416752">
        <ele>1421.3</ele>
        <time>2020-07-21T11:13:38.000Z</time>
      </trkpt>
      <trkpt lat="42.9851957" lon="-5.741692">
        <ele>1421.3</ele>
        <time>2020-07-21T11:13:39.000Z</time>
      </trkpt>
      <trkpt lat="42.9851938" lon="-5.7417088">
        <ele>1421.15</ele>
        <time>2020-07-21T11:13:40.000Z</time>
      </trkpt>
      <trkpt lat="42.985191" lon="-5.7417273">
        <ele>1421.15</ele>
        <time>2020-07-21T11:13:41.000Z</time>
      </trkpt>
      <trkpt lat="42.985189" lon="-5.7417477">
        <ele>1421.15</ele>
        <time>2020-07-21T11:13:42.000Z</time>
      </trkpt>
      <trkpt lat="42.9851875" lon="-5.741769">
        <ele>1421.15</ele>
        <time>2020-07-21T11:13:43.000Z</time>
      </trkpt>
      <trkpt lat="42.9851862" lon="-5.7417885">
        <ele>1420.84</ele>
        <time>2020-07-21T11:13:44.000Z</time>
      </trkpt>
      <trkpt lat="42.9851847" lon="-5.7418083">
        <ele>1420.84</ele>
        <time>2020-07-21T11:13:45.000Z</time>
      </trkpt>
      <trkpt lat="42.985185" lon="-5.7418295">
        <ele>1420.69</ele>
        <time>2020-07-21T11:13:46.000Z</time>
      </trkpt>
      <trkpt lat="42.9851873" lon="-5.7418495">
        <ele>1420.69</ele>
        <time>2020-07-21T11:13:47.000Z</time>
      </trkpt>
      <trkpt lat="42.9851905" lon="-5.7418673">
        <ele>1420.54</ele>
        <time>2020-07-21T11:13:48.000Z</time>
      </trkpt>
      <trkpt lat="42.9851947" lon="-5.741882">
        <ele>1420.54</ele>
        <time>2020-07-21T11:13:49.000Z</time>
      </trkpt>
      <trkpt lat="42.9852002" lon="-5.7418967">
        <ele>1420.23</ele>
        <time>2020-07-21T11:13:50.000Z</time>
      </trkpt>
      <trkpt lat="42.9852057" lon="-5.7419065">
        <ele>1420.23</ele>
        <time>2020-07-21T11:13:51.000Z</time>
      </trkpt>
      <trkpt lat="42.9852092" lon="-5.7419143">
        <ele>1419.93</ele>
        <time>2020-07-21T11:13:52.000Z</time>
      </trkpt>
      <trkpt lat="42.9852112" lon="-5.74192">
        <ele>1419.93</ele>
        <time>2020-07-21T11:13:53.000Z</time>
      </trkpt>
      <trkpt lat="42.9852123" lon="-5.7419265">
        <ele>1419.78</ele>
        <time>2020-07-21T11:13:54.000Z</time>
      </trkpt>
      <trkpt lat="42.9852137" lon="-5.7419327">
        <ele>1419.78</ele>
        <time>2020-07-21T11:13:55.000Z</time>
      </trkpt>
      <trkpt lat="42.9852157" lon="-5.7419378">
        <ele>1419.47</ele>
        <time>2020-07-21T11:13:56.000Z</time>
      </trkpt>
      <trkpt lat="42.9852173" lon="-5.7419435">
        <ele>1419.47</ele>
        <time>2020-07-21T11:13:57.000Z</time>
      </trkpt>
      <trkpt lat="42.9852182" lon="-5.7419498">
        <ele>1419.17</ele>
        <time>2020-07-21T11:13:58.000Z</time>
      </trkpt>
      <trkpt lat="42.9852175" lon="-5.7419567">
        <ele>1419.17</ele>
        <time>2020-07-21T11:13:59.000Z</time>
      </trkpt>
      <trkpt lat="42.9852173" lon="-5.741963">
        <ele>1418.71</ele>
        <time>2020-07-21T11:14:00.000Z</time>
      </trkpt>
      <trkpt lat="42.9852178" lon="-5.7419682">
        <ele>1418.71</ele>
        <time>2020-07-21T11:14:01.000Z</time>
      </trkpt>
      <trkpt lat="42.9852187" lon="-5.7419723">
        <ele>1418.4</ele>
        <time>2020-07-21T11:14:02.000Z</time>
      </trkpt>
      <trkpt lat="42.9852192" lon="-5.741976">
        <ele>1418.4</ele>
        <time>2020-07-21T11:14:03.000Z</time>
      </trkpt>
      <trkpt lat="42.9852202" lon="-5.7419792">
        <ele>1418.1</ele>
        <time>2020-07-21T11:14:04.000Z</time>
      </trkpt>
      <trkpt lat="42.9852213" lon="-5.741982">
        <ele>1418.1</ele>
        <time>2020-07-21T11:14:05.000Z</time>
      </trkpt>
      <trkpt lat="42.985222" lon="-5.7419847">
        <ele>1417.79</ele>
        <time>2020-07-21T11:14:06.000Z</time>
      </trkpt>
      <trkpt lat="42.9852225" lon="-5.7419867">
        <ele>1417.79</ele>
        <time>2020-07-21T11:14:07.000Z</time>
      </trkpt>
      <trkpt lat="42.985223" lon="-5.741988">
        <ele>1417.34</ele>
        <time>2020-07-21T11:14:08.000Z</time>
      </trkpt>
      <trkpt lat="42.9852235" lon="-5.7419888">
        <ele>1417.34</ele>
        <time>2020-07-21T11:14:09.000Z</time>
      </trkpt>
      <trkpt lat="42.9852238" lon="-5.7419898">
        <ele>1417.03</ele>
        <time>2020-07-21T11:14:10.000Z</time>
      </trkpt>
      <trkpt lat="42.9852238" lon="-5.7419908">
        <ele>1417.03</ele>
        <time>2020-07-21T11:14:11.000Z</time>
      </trkpt>
      <trkpt lat="42.9852238" lon="-5.741993">
        <ele>1416.57</ele>
        <time>2020-07-21T11:14:12.000Z</time>
      </trkpt>
      <trkpt lat="42.985224" lon="-5.7419955">
        <ele>1416.57</ele>
        <time>2020-07-21T11:14:13.000Z</time>
      </trkpt>
      <trkpt lat="42.9852242" lon="-5.7419982">
        <ele>1416.27</ele>
        <time>2020-07-21T11:14:14.000Z</time>
      </trkpt>
      <trkpt lat="42.9852245" lon="-5.7420003">
        <ele>1416.27</ele>
        <time>2020-07-21T11:14:15.000Z</time>
      </trkpt>
      <trkpt lat="42.985225" lon="-5.7420025">
        <ele>1415.97</ele>
        <time>2020-07-21T11:14:16.000Z</time>
      </trkpt>
      <trkpt lat="42.9852257" lon="-5.7420042">
        <ele>1415.97</ele>
        <time>2020-07-21T11:14:17.000Z</time>
      </trkpt>
      <trkpt lat="42.985226" lon="-5.7420055">
        <ele>1415.51</ele>
        <time>2020-07-21T11:14:18.000Z</time>
      </trkpt>
      <trkpt lat="42.9852257" lon="-5.7420067">
        <ele>1415.51</ele>
        <time>2020-07-21T11:14:19.000Z</time>
      </trkpt>
      <trkpt lat="42.9852252" lon="-5.7420078">
        <ele>1415.2</ele>
        <time>2020-07-21T11:14:20.000Z</time>
      </trkpt>
      <trkpt lat="42.9852247" lon="-5.7420092">
        <ele>1415.2</ele>
        <time>2020-07-21T11:14:21.000Z</time>
      </trkpt>
      <trkpt lat="42.9852245" lon="-5.7420105">
        <ele>1414.9</ele>
        <time>2020-07-21T11:14:22.000Z</time>
      </trkpt>
      <trkpt lat="42.9852243" lon="-5.742012">
        <ele>1414.9</ele>
        <time>2020-07-21T11:14:23.000Z</time>
      </trkpt>
      <trkpt lat="42.9852243" lon="-5.742013">
        <ele>1414.44</ele>
        <time>2020-07-21T11:14:24.000Z</time>
      </trkpt>
      <trkpt lat="42.9852242" lon="-5.7420132">
        <ele>1414.44</ele>
        <time>2020-07-21T11:14:25.000Z</time>
      </trkpt>
      <trkpt lat="42.9852237" lon="-5.7420148">
        <ele>1414.14</ele>
        <time>2020-07-21T11:14:26.000Z</time>
      </trkpt>
      <trkpt lat="42.985223" lon="-5.7420188">
        <ele>1414.14</ele>
        <time>2020-07-21T11:14:27.000Z</time>
      </trkpt>
      <trkpt lat="42.9852237" lon="-5.7420272">
        <ele>1413.83</ele>
        <time>2020-07-21T11:14:28.000Z</time>
      </trkpt>
      <trkpt lat="42.9852258" lon="-5.7420383">
        <ele>1413.83</ele>
        <time>2020-07-21T11:14:29.000Z</time>
      </trkpt>
      <trkpt lat="42.9852292" lon="-5.7420525">
        <ele>1413.38</ele>
        <time>2020-07-21T11:14:30.000Z</time>
      </trkpt>
      <trkpt lat="42.9852315" lon="-5.7420668">
        <ele>1413.38</ele>
        <time>2020-07-21T11:14:31.000Z</time>
      </trkpt>
      <trkpt lat="42.9852337" lon="-5.7420822">
        <ele>1413.07</ele>
        <time>2020-07-21T11:14:32.000Z</time>
      </trkpt>
      <trkpt lat="42.985235" lon="-5.7420968">
        <ele>1413.07</ele>
        <time>2020-07-21T11:14:33.000Z</time>
      </trkpt>
      <trkpt lat="42.9852372" lon="-5.7421145">
        <ele>1412.61</ele>
        <time>2020-07-21T11:14:34.000Z</time>
      </trkpt>
      <trkpt lat="42.9852402" lon="-5.7421368">
        <ele>1412.61</ele>
        <time>2020-07-21T11:14:35.000Z</time>
      </trkpt>
      <trkpt lat="42.9852448" lon="-5.7421603">
        <ele>1412.31</ele>
        <time>2020-07-21T11:14:36.000Z</time>
      </trkpt>
      <trkpt lat="42.9852487" lon="-5.7421822">
        <ele>1412.31</ele>
        <time>2020-07-21T11:14:37.000Z</time>
      </trkpt>
      <trkpt lat="42.9852512" lon="-5.7422002">
        <ele>1411.85</ele>
        <time>2020-07-21T11:14:38.000Z</time>
      </trkpt>
      <trkpt lat="42.9852557" lon="-5.7422168">
        <ele>1411.85</ele>
        <time>2020-07-21T11:14:39.000Z</time>
      </trkpt>
      <trkpt lat="42.985262" lon="-5.7422317">
        <ele>1411.39</ele>
        <time>2020-07-21T11:14:40.000Z</time>
      </trkpt>
      <trkpt lat="42.9852713" lon="-5.7422445">
        <ele>1411.39</ele>
        <time>2020-07-21T11:14:41.000Z</time>
      </trkpt>
      <trkpt lat="42.9852797" lon="-5.7422603">
        <ele>1411.09</ele>
        <time>2020-07-21T11:14:42.000Z</time>
      </trkpt>
      <trkpt lat="42.9852858" lon="-5.7422775">
        <ele>1411.09</ele>
        <time>2020-07-21T11:14:43.000Z</time>
      </trkpt>
      <trkpt lat="42.9852892" lon="-5.742295">
        <ele>1410.63</ele>
        <time>2020-07-21T11:14:44.000Z</time>
      </trkpt>
      <trkpt lat="42.9852887" lon="-5.7423102">
        <ele>1410.63</ele>
        <time>2020-07-21T11:14:45.000Z</time>
      </trkpt>
      <trkpt lat="42.985288" lon="-5.7423277">
        <ele>1410.33</ele>
        <time>2020-07-21T11:14:46.000Z</time>
      </trkpt>
      <trkpt lat="42.9852887" lon="-5.7423457">
        <ele>1410.33</ele>
        <time>2020-07-21T11:14:47.000Z</time>
      </trkpt>
      <trkpt lat="42.9852915" lon="-5.7423633">
        <ele>1409.87</ele>
        <time>2020-07-21T11:14:48.000Z</time>
      </trkpt>
      <trkpt lat="42.9852953" lon="-5.7423793">
        <ele>1409.87</ele>
        <time>2020-07-21T11:14:49.000Z</time>
      </trkpt>
      <trkpt lat="42.9852997" lon="-5.7423948">
        <ele>1409.56</ele>
        <time>2020-07-21T11:14:50.000Z</time>
      </trkpt>
      <trkpt lat="42.9853037" lon="-5.7424098">
        <ele>1409.56</ele>
        <time>2020-07-21T11:14:51.000Z</time>
      </trkpt>
      <trkpt lat="42.9853073" lon="-5.7424258">
        <ele>1409.26</ele>
        <time>2020-07-21T11:14:52.000Z</time>
      </trkpt>
      <trkpt lat="42.9853113" lon="-5.7424418">
        <ele>1409.26</ele>
        <time>2020-07-21T11:14:53.000Z</time>
      </trkpt>
      <trkpt lat="42.9853163" lon="-5.7424592">
        <ele>1408.8</ele>
        <time>2020-07-21T11:14:54.000Z</time>
      </trkpt>
      <trkpt lat="42.9853232" lon="-5.7424767">
        <ele>1408.8</ele>
        <time>2020-07-21T11:14:55.000Z</time>
      </trkpt>
      <trkpt lat="42.9853303" lon="-5.7424955">
        <ele>1408.5</ele>
        <time>2020-07-21T11:14:56.000Z</time>
      </trkpt>
      <trkpt lat="42.9853375" lon="-5.7425145">
        <ele>1408.5</ele>
        <time>2020-07-21T11:14:57.000Z</time>
      </trkpt>
      <trkpt lat="42.9853437" lon="-5.7425342">
        <ele>1408.19</ele>
        <time>2020-07-21T11:14:58.000Z</time>
      </trkpt>
      <trkpt lat="42.985349" lon="-5.7425543">
        <ele>1408.19</ele>
        <time>2020-07-21T11:14:59.000Z</time>
      </trkpt>
      <trkpt lat="42.985354" lon="-5.7425752">
        <ele>1407.89</ele>
        <time>2020-07-21T11:15:00.000Z</time>
      </trkpt>
      <trkpt lat="42.9853587" lon="-5.7425958">
        <ele>1407.89</ele>
        <time>2020-07-21T11:15:01.000Z</time>
      </trkpt>
      <trkpt lat="42.9853628" lon="-5.7426172">
        <ele>1407.43</ele>
        <time>2020-07-21T11:15:02.000Z</time>
      </trkpt>
      <trkpt lat="42.9853668" lon="-5.7426397">
        <ele>1407.43</ele>
        <time>2020-07-21T11:15:03.000Z</time>
      </trkpt>
      <trkpt lat="42.985369" lon="-5.742662">
        <ele>1407.13</ele>
        <time>2020-07-21T11:15:04.000Z</time>
      </trkpt>
      <trkpt lat="42.985371" lon="-5.7426843">
        <ele>1407.13</ele>
        <time>2020-07-21T11:15:05.000Z</time>
      </trkpt>
      <trkpt lat="42.9853713" lon="-5.7427058">
        <ele>1406.82</ele>
        <time>2020-07-21T11:15:06.000Z</time>
      </trkpt>
      <trkpt lat="42.9853712" lon="-5.7427278">
        <ele>1406.82</ele>
        <time>2020-07-21T11:15:07.000Z</time>
      </trkpt>
      <trkpt lat="42.9853703" lon="-5.7427502">
        <ele>1406.36</ele>
        <time>2020-07-21T11:15:08.000Z</time>
      </trkpt>
      <trkpt lat="42.9853688" lon="-5.7427725">
        <ele>1406.36</ele>
        <time>2020-07-21T11:15:09.000Z</time>
      </trkpt>
      <trkpt lat="42.9853668" lon="-5.7427943">
        <ele>1406.06</ele>
        <time>2020-07-21T11:15:10.000Z</time>
      </trkpt>
      <trkpt lat="42.9853637" lon="-5.7428145">
        <ele>1406.06</ele>
        <time>2020-07-21T11:15:11.000Z</time>
      </trkpt>
      <trkpt lat="42.9853595" lon="-5.7428338">
        <ele>1405.6</ele>
        <time>2020-07-21T11:15:12.000Z</time>
      </trkpt>
      <trkpt lat="42.9853553" lon="-5.7428523">
        <ele>1405.6</ele>
        <time>2020-07-21T11:15:13.000Z</time>
      </trkpt>
      <trkpt lat="42.985352" lon="-5.7428703">
        <ele>1405.3</ele>
        <time>2020-07-21T11:15:14.000Z</time>
      </trkpt>
      <trkpt lat="42.9853495" lon="-5.7428895">
        <ele>1405.3</ele>
        <time>2020-07-21T11:15:15.000Z</time>
      </trkpt>
      <trkpt lat="42.9853463" lon="-5.7429075">
        <ele>1404.99</ele>
        <time>2020-07-21T11:15:16.000Z</time>
      </trkpt>
      <trkpt lat="42.9853437" lon="-5.7429268">
        <ele>1404.99</ele>
        <time>2020-07-21T11:15:17.000Z</time>
      </trkpt>
      <trkpt lat="42.9853412" lon="-5.7429452">
        <ele>1404.54</ele>
        <time>2020-07-21T11:15:18.000Z</time>
      </trkpt>
      <trkpt lat="42.9853397" lon="-5.7429647">
        <ele>1404.54</ele>
        <time>2020-07-21T11:15:19.000Z</time>
      </trkpt>
      <trkpt lat="42.9853383" lon="-5.7429843">
        <ele>1404.23</ele>
        <time>2020-07-21T11:15:20.000Z</time>
      </trkpt>
      <trkpt lat="42.9853377" lon="-5.743005">
        <ele>1404.23</ele>
        <time>2020-07-21T11:15:21.000Z</time>
      </trkpt>
      <trkpt lat="42.9853363" lon="-5.743026">
        <ele>1403.93</ele>
        <time>2020-07-21T11:15:22.000Z</time>
      </trkpt>
      <trkpt lat="42.9853345" lon="-5.743047">
        <ele>1403.93</ele>
        <time>2020-07-21T11:15:23.000Z</time>
      </trkpt>
      <trkpt lat="42.9853323" lon="-5.7430682">
        <ele>1403.47</ele>
        <time>2020-07-21T11:15:24.000Z</time>
      </trkpt>
      <trkpt lat="42.985329" lon="-5.743088">
        <ele>1403.47</ele>
        <time>2020-07-21T11:15:25.000Z</time>
      </trkpt>
      <trkpt lat="42.9853242" lon="-5.7431065">
        <ele>1403.16</ele>
        <time>2020-07-21T11:15:26.000Z</time>
      </trkpt>
      <trkpt lat="42.9853175" lon="-5.7431242">
        <ele>1403.16</ele>
        <time>2020-07-21T11:15:27.000Z</time>
      </trkpt>
      <trkpt lat="42.9853108" lon="-5.7431425">
        <ele>1402.86</ele>
        <time>2020-07-21T11:15:28.000Z</time>
      </trkpt>
      <trkpt lat="42.9853032" lon="-5.7431612">
        <ele>1402.86</ele>
        <time>2020-07-21T11:15:29.000Z</time>
      </trkpt>
      <trkpt lat="42.9852955" lon="-5.7431797">
        <ele>1402.4</ele>
        <time>2020-07-21T11:15:30.000Z</time>
      </trkpt>
      <trkpt lat="42.9852873" lon="-5.7431983">
        <ele>1402.4</ele>
        <time>2020-07-21T11:15:31.000Z</time>
      </trkpt>
      <trkpt lat="42.9852797" lon="-5.743217">
        <ele>1402.1</ele>
        <time>2020-07-21T11:15:32.000Z</time>
      </trkpt>
      <trkpt lat="42.985272" lon="-5.7432352">
        <ele>1402.1</ele>
        <time>2020-07-21T11:15:33.000Z</time>
      </trkpt>
      <trkpt lat="42.9852643" lon="-5.7432533">
        <ele>1401.79</ele>
        <time>2020-07-21T11:15:34.000Z</time>
      </trkpt>
      <trkpt lat="42.9852565" lon="-5.7432708">
        <ele>1401.79</ele>
        <time>2020-07-21T11:15:35.000Z</time>
      </trkpt>
      <trkpt lat="42.985248" lon="-5.7432872">
        <ele>1401.33</ele>
        <time>2020-07-21T11:15:36.000Z</time>
      </trkpt>
      <trkpt lat="42.9852397" lon="-5.7433035">
        <ele>1401.33</ele>
        <time>2020-07-21T11:15:37.000Z</time>
      </trkpt>
      <trkpt lat="42.9852313" lon="-5.7433195">
        <ele>1401.03</ele>
        <time>2020-07-21T11:15:38.000Z</time>
      </trkpt>
      <trkpt lat="42.9852228" lon="-5.7433352">
        <ele>1401.03</ele>
        <time>2020-07-21T11:15:39.000Z</time>
      </trkpt>
      <trkpt lat="42.9852143" lon="-5.7433505">
        <ele>1400.72</ele>
        <time>2020-07-21T11:15:40.000Z</time>
      </trkpt>
      <trkpt lat="42.9852055" lon="-5.743366">
        <ele>1400.72</ele>
        <time>2020-07-21T11:15:41.000Z</time>
      </trkpt>
      <trkpt lat="42.9851968" lon="-5.7433823">
        <ele>1400.42</ele>
        <time>2020-07-21T11:15:42.000Z</time>
      </trkpt>
      <trkpt lat="42.9851883" lon="-5.743399">
        <ele>1400.42</ele>
        <time>2020-07-21T11:15:43.000Z</time>
      </trkpt>
      <trkpt lat="42.9851815" lon="-5.7434177">
        <ele>1399.96</ele>
        <time>2020-07-21T11:15:44.000Z</time>
      </trkpt>
      <trkpt lat="42.9851755" lon="-5.7434363">
        <ele>1399.96</ele>
        <time>2020-07-21T11:15:45.000Z</time>
      </trkpt>
      <trkpt lat="42.9851697" lon="-5.7434577">
        <ele>1399.66</ele>
        <time>2020-07-21T11:15:46.000Z</time>
      </trkpt>
      <trkpt lat="42.9851633" lon="-5.7434777">
        <ele>1399.66</ele>
        <time>2020-07-21T11:15:47.000Z</time>
      </trkpt>
      <trkpt lat="42.9851543" lon="-5.7434985">
        <ele>1399.2</ele>
        <time>2020-07-21T11:15:48.000Z</time>
      </trkpt>
      <trkpt lat="42.9851448" lon="-5.7435167">
        <ele>1399.2</ele>
        <time>2020-07-21T11:15:49.000Z</time>
      </trkpt>
      <trkpt lat="42.9851348" lon="-5.7435333">
        <ele>1398.9</ele>
        <time>2020-07-21T11:15:50.000Z</time>
      </trkpt>
      <trkpt lat="42.9851257" lon="-5.7435503">
        <ele>1398.9</ele>
        <time>2020-07-21T11:15:51.000Z</time>
      </trkpt>
      <trkpt lat="42.9851165" lon="-5.7435652">
        <ele>1398.44</ele>
        <time>2020-07-21T11:15:52.000Z</time>
      </trkpt>
      <trkpt lat="42.9851072" lon="-5.7435797">
        <ele>1398.44</ele>
        <time>2020-07-21T11:15:53.000Z</time>
      </trkpt>
      <trkpt lat="42.9850978" lon="-5.7435932">
        <ele>1398.14</ele>
        <time>2020-07-21T11:15:54.000Z</time>
      </trkpt>
      <trkpt lat="42.9850885" lon="-5.7436092">
        <ele>1398.14</ele>
        <time>2020-07-21T11:15:55.000Z</time>
      </trkpt>
      <trkpt lat="42.9850792" lon="-5.743628">
        <ele>1397.68</ele>
        <time>2020-07-21T11:15:56.000Z</time>
      </trkpt>
      <trkpt lat="42.985071" lon="-5.7436452">
        <ele>1397.68</ele>
        <time>2020-07-21T11:15:57.000Z</time>
      </trkpt>
      <trkpt lat="42.9850628" lon="-5.743662">
        <ele>1397.22</ele>
        <time>2020-07-21T11:15:58.000Z</time>
      </trkpt>
      <trkpt lat="42.9850553" lon="-5.7436768">
        <ele>1397.22</ele>
        <time>2020-07-21T11:15:59.000Z</time>
      </trkpt>
      <trkpt lat="42.9850472" lon="-5.7436928">
        <ele>1396.76</ele>
        <time>2020-07-21T11:16:00.000Z</time>
      </trkpt>
      <trkpt lat="42.9850393" lon="-5.743708">
        <ele>1396.76</ele>
        <time>2020-07-21T11:16:01.000Z</time>
      </trkpt>
      <trkpt lat="42.9850315" lon="-5.743725">
        <ele>1396.46</ele>
        <time>2020-07-21T11:16:02.000Z</time>
      </trkpt>
      <trkpt lat="42.9850237" lon="-5.7437417">
        <ele>1396.46</ele>
        <time>2020-07-21T11:16:03.000Z</time>
      </trkpt>
      <trkpt lat="42.9850162" lon="-5.7437583">
        <ele>1396</ele>
        <time>2020-07-21T11:16:04.000Z</time>
      </trkpt>
      <trkpt lat="42.985008" lon="-5.7437752">
        <ele>1396</ele>
        <time>2020-07-21T11:16:05.000Z</time>
      </trkpt>
      <trkpt lat="42.9850002" lon="-5.7437968">
        <ele>1395.54</ele>
        <time>2020-07-21T11:16:06.000Z</time>
      </trkpt>
      <trkpt lat="42.9849938" lon="-5.7438212">
        <ele>1395.54</ele>
        <time>2020-07-21T11:16:07.000Z</time>
      </trkpt>
      <trkpt lat="42.9849883" lon="-5.7438448">
        <ele>1395.09</ele>
        <time>2020-07-21T11:16:08.000Z</time>
      </trkpt>
      <trkpt lat="42.9849832" lon="-5.7438675">
        <ele>1395.09</ele>
        <time>2020-07-21T11:16:09.000Z</time>
      </trkpt>
      <trkpt lat="42.98498" lon="-5.7438893">
        <ele>1394.63</ele>
        <time>2020-07-21T11:16:10.000Z</time>
      </trkpt>
      <trkpt lat="42.98498" lon="-5.743911">
        <ele>1394.63</ele>
        <time>2020-07-21T11:16:11.000Z</time>
      </trkpt>
      <trkpt lat="42.9849825" lon="-5.7439323">
        <ele>1394.17</ele>
        <time>2020-07-21T11:16:12.000Z</time>
      </trkpt>
      <trkpt lat="42.9849835" lon="-5.743953">
        <ele>1394.17</ele>
        <time>2020-07-21T11:16:13.000Z</time>
      </trkpt>
      <trkpt lat="42.9849868" lon="-5.7439758">
        <ele>1393.71</ele>
        <time>2020-07-21T11:16:14.000Z</time>
      </trkpt>
      <trkpt lat="42.9849912" lon="-5.7439972">
        <ele>1393.71</ele>
        <time>2020-07-21T11:16:15.000Z</time>
      </trkpt>
      <trkpt lat="42.9849962" lon="-5.7440187">
        <ele>1393.26</ele>
        <time>2020-07-21T11:16:16.000Z</time>
      </trkpt>
      <trkpt lat="42.9850005" lon="-5.7440377">
        <ele>1393.26</ele>
        <time>2020-07-21T11:16:17.000Z</time>
      </trkpt>
      <trkpt lat="42.985005" lon="-5.7440558">
        <ele>1392.8</ele>
        <time>2020-07-21T11:16:18.000Z</time>
      </trkpt>
      <trkpt lat="42.985011" lon="-5.7440733">
        <ele>1392.8</ele>
        <time>2020-07-21T11:16:19.000Z</time>
      </trkpt>
      <trkpt lat="42.9850142" lon="-5.7440912">
        <ele>1392.5</ele>
        <time>2020-07-21T11:16:20.000Z</time>
      </trkpt>
      <trkpt lat="42.9850158" lon="-5.7441088">
        <ele>1392.5</ele>
        <time>2020-07-21T11:16:21.000Z</time>
      </trkpt>
      <trkpt lat="42.9850182" lon="-5.7441272">
        <ele>1392.04</ele>
        <time>2020-07-21T11:16:22.000Z</time>
      </trkpt>
      <trkpt lat="42.9850215" lon="-5.744146">
        <ele>1392.04</ele>
        <time>2020-07-21T11:16:23.000Z</time>
      </trkpt>
      <trkpt lat="42.9850273" lon="-5.7441663">
        <ele>1391.58</ele>
        <time>2020-07-21T11:16:24.000Z</time>
      </trkpt>
      <trkpt lat="42.9850328" lon="-5.7441883">
        <ele>1391.58</ele>
        <time>2020-07-21T11:16:25.000Z</time>
      </trkpt>
      <trkpt lat="42.9850403" lon="-5.744209">
        <ele>1391.28</ele>
        <time>2020-07-21T11:16:26.000Z</time>
      </trkpt>
      <trkpt lat="42.985046" lon="-5.7442285">
        <ele>1391.28</ele>
        <time>2020-07-21T11:16:27.000Z</time>
      </trkpt>
      <trkpt lat="42.985052" lon="-5.744247">
        <ele>1390.82</ele>
        <time>2020-07-21T11:16:28.000Z</time>
      </trkpt>
      <trkpt lat="42.9850572" lon="-5.744267">
        <ele>1390.82</ele>
        <time>2020-07-21T11:16:29.000Z</time>
      </trkpt>
      <trkpt lat="42.9850625" lon="-5.7442863">
        <ele>1390.51</ele>
        <time>2020-07-21T11:16:30.000Z</time>
      </trkpt>
      <trkpt lat="42.985068" lon="-5.7443067">
        <ele>1390.51</ele>
        <time>2020-07-21T11:16:31.000Z</time>
      </trkpt>
      <trkpt lat="42.9850728" lon="-5.7443265">
        <ele>1390.06</ele>
        <time>2020-07-21T11:16:32.000Z</time>
      </trkpt>
      <trkpt lat="42.9850767" lon="-5.7443472">
        <ele>1390.06</ele>
        <time>2020-07-21T11:16:33.000Z</time>
      </trkpt>
      <trkpt lat="42.9850785" lon="-5.7443668">
        <ele>1389.75</ele>
        <time>2020-07-21T11:16:34.000Z</time>
      </trkpt>
      <trkpt lat="42.9850802" lon="-5.7443873">
        <ele>1389.75</ele>
        <time>2020-07-21T11:16:35.000Z</time>
      </trkpt>
      <trkpt lat="42.9850823" lon="-5.7444088">
        <ele>1389.45</ele>
        <time>2020-07-21T11:16:36.000Z</time>
      </trkpt>
      <trkpt lat="42.9850853" lon="-5.7444313">
        <ele>1389.45</ele>
        <time>2020-07-21T11:16:37.000Z</time>
      </trkpt>
      <trkpt lat="42.9850833" lon="-5.7444528">
        <ele>1388.99</ele>
        <time>2020-07-21T11:16:38.000Z</time>
      </trkpt>
      <trkpt lat="42.9850802" lon="-5.744474">
        <ele>1388.99</ele>
        <time>2020-07-21T11:16:39.000Z</time>
      </trkpt>
      <trkpt lat="42.9850752" lon="-5.744494">
        <ele>1388.69</ele>
        <time>2020-07-21T11:16:40.000Z</time>
      </trkpt>
      <trkpt lat="42.9850738" lon="-5.7445125">
        <ele>1388.69</ele>
        <time>2020-07-21T11:16:41.000Z</time>
      </trkpt>
      <trkpt lat="42.9850725" lon="-5.7445292">
        <ele>1388.38</ele>
        <time>2020-07-21T11:16:42.000Z</time>
      </trkpt>
      <trkpt lat="42.9850702" lon="-5.7445475">
        <ele>1388.38</ele>
        <time>2020-07-21T11:16:43.000Z</time>
      </trkpt>
      <trkpt lat="42.9850652" lon="-5.7445678">
        <ele>1388.08</ele>
        <time>2020-07-21T11:16:44.000Z</time>
      </trkpt>
      <trkpt lat="42.985059" lon="-5.7445878">
        <ele>1388.08</ele>
        <time>2020-07-21T11:16:45.000Z</time>
      </trkpt>
      <trkpt lat="42.985053" lon="-5.7446057">
        <ele>1387.77</ele>
        <time>2020-07-21T11:16:46.000Z</time>
      </trkpt>
      <trkpt lat="42.98505" lon="-5.7446243">
        <ele>1387.77</ele>
        <time>2020-07-21T11:16:47.000Z</time>
      </trkpt>
      <trkpt lat="42.985046" lon="-5.7446437">
        <ele>1387.47</ele>
        <time>2020-07-21T11:16:48.000Z</time>
      </trkpt>
      <trkpt lat="42.9850418" lon="-5.7446622">
        <ele>1387.47</ele>
        <time>2020-07-21T11:16:49.000Z</time>
      </trkpt>
      <trkpt lat="42.985036" lon="-5.7446778">
        <ele>1387.16</ele>
        <time>2020-07-21T11:16:50.000Z</time>
      </trkpt>
      <trkpt lat="42.9850307" lon="-5.7446925">
        <ele>1387.16</ele>
        <time>2020-07-21T11:16:51.000Z</time>
      </trkpt>
      <trkpt lat="42.9850253" lon="-5.7447073">
        <ele>1386.86</ele>
        <time>2020-07-21T11:16:52.000Z</time>
      </trkpt>
      <trkpt lat="42.98502" lon="-5.744723">
        <ele>1386.86</ele>
        <time>2020-07-21T11:16:53.000Z</time>
      </trkpt>
      <trkpt lat="42.9850142" lon="-5.7447385">
        <ele>1386.55</ele>
        <time>2020-07-21T11:16:54.000Z</time>
      </trkpt>
      <trkpt lat="42.9850072" lon="-5.744753">
        <ele>1386.55</ele>
        <time>2020-07-21T11:16:55.000Z</time>
      </trkpt>
      <trkpt lat="42.9849997" lon="-5.7447685">
        <ele>1386.25</ele>
        <time>2020-07-21T11:16:56.000Z</time>
      </trkpt>
      <trkpt lat="42.9849928" lon="-5.7447838">
        <ele>1386.25</ele>
        <time>2020-07-21T11:16:57.000Z</time>
      </trkpt>
      <trkpt lat="42.9849875" lon="-5.7448013">
        <ele>1385.94</ele>
        <time>2020-07-21T11:16:58.000Z</time>
      </trkpt>
      <trkpt lat="42.9849832" lon="-5.7448183">
        <ele>1385.94</ele>
        <time>2020-07-21T11:16:59.000Z</time>
      </trkpt>
      <trkpt lat="42.9849775" lon="-5.7448373">
        <ele>1385.64</ele>
        <time>2020-07-21T11:17:00.000Z</time>
      </trkpt>
      <trkpt lat="42.984971" lon="-5.7448567">
        <ele>1385.64</ele>
        <time>2020-07-21T11:17:01.000Z</time>
      </trkpt>
      <trkpt lat="42.9849657" lon="-5.7448783">
        <ele>1385.33</ele>
        <time>2020-07-21T11:17:02.000Z</time>
      </trkpt>
      <trkpt lat="42.9849623" lon="-5.7448995">
        <ele>1385.33</ele>
        <time>2020-07-21T11:17:03.000Z</time>
      </trkpt>
      <trkpt lat="42.9849605" lon="-5.7449203">
        <ele>1385.03</ele>
        <time>2020-07-21T11:17:04.000Z</time>
      </trkpt>
      <trkpt lat="42.9849558" lon="-5.744941">
        <ele>1385.03</ele>
        <time>2020-07-21T11:17:05.000Z</time>
      </trkpt>
      <trkpt lat="42.9849517" lon="-5.7449605">
        <ele>1384.72</ele>
        <time>2020-07-21T11:17:06.000Z</time>
      </trkpt>
      <trkpt lat="42.9849478" lon="-5.7449803">
        <ele>1384.72</ele>
        <time>2020-07-21T11:17:07.000Z</time>
      </trkpt>
      <trkpt lat="42.9849465" lon="-5.7449998">
        <ele>1384.42</ele>
        <time>2020-07-21T11:17:08.000Z</time>
      </trkpt>
      <trkpt lat="42.9849457" lon="-5.74502">
        <ele>1384.42</ele>
        <time>2020-07-21T11:17:09.000Z</time>
      </trkpt>
      <trkpt lat="42.9849458" lon="-5.7450393">
        <ele>1384.11</ele>
        <time>2020-07-21T11:17:10.000Z</time>
      </trkpt>
      <trkpt lat="42.98495" lon="-5.7450587">
        <ele>1384.11</ele>
        <time>2020-07-21T11:17:11.000Z</time>
      </trkpt>
      <trkpt lat="42.9849567" lon="-5.7450792">
        <ele>1383.81</ele>
        <time>2020-07-21T11:17:12.000Z</time>
      </trkpt>
      <trkpt lat="42.9849667" lon="-5.7450992">
        <ele>1383.81</ele>
        <time>2020-07-21T11:17:13.000Z</time>
      </trkpt>
      <trkpt lat="42.9849772" lon="-5.7451177">
        <ele>1383.5</ele>
        <time>2020-07-21T11:17:14.000Z</time>
      </trkpt>
      <trkpt lat="42.9849897" lon="-5.7451333">
        <ele>1383.5</ele>
        <time>2020-07-21T11:17:15.000Z</time>
      </trkpt>
      <trkpt lat="42.9850052" lon="-5.7451472">
        <ele>1383.2</ele>
        <time>2020-07-21T11:17:16.000Z</time>
      </trkpt>
      <trkpt lat="42.9850202" lon="-5.7451597">
        <ele>1383.2</ele>
        <time>2020-07-21T11:17:17.000Z</time>
      </trkpt>
      <trkpt lat="42.9850347" lon="-5.7451718">
        <ele>1382.89</ele>
        <time>2020-07-21T11:17:18.000Z</time>
      </trkpt>
      <trkpt lat="42.9850467" lon="-5.7451838">
        <ele>1382.89</ele>
        <time>2020-07-21T11:17:19.000Z</time>
      </trkpt>
      <trkpt lat="42.9850592" lon="-5.7451937">
        <ele>1382.59</ele>
        <time>2020-07-21T11:17:20.000Z</time>
      </trkpt>
      <trkpt lat="42.9850732" lon="-5.7452027">
        <ele>1382.59</ele>
        <time>2020-07-21T11:17:21.000Z</time>
      </trkpt>
      <trkpt lat="42.9850867" lon="-5.7452115">
        <ele>1382.29</ele>
        <time>2020-07-21T11:17:22.000Z</time>
      </trkpt>
      <trkpt lat="42.9851002" lon="-5.7452217">
        <ele>1382.29</ele>
        <time>2020-07-21T11:17:23.000Z</time>
      </trkpt>
      <trkpt lat="42.9851132" lon="-5.745233">
        <ele>1381.98</ele>
        <time>2020-07-21T11:17:24.000Z</time>
      </trkpt>
      <trkpt lat="42.9851263" lon="-5.7452447">
        <ele>1381.98</ele>
        <time>2020-07-21T11:17:25.000Z</time>
      </trkpt>
      <trkpt lat="42.9851392" lon="-5.7452563">
        <ele>1381.68</ele>
        <time>2020-07-21T11:17:26.000Z</time>
      </trkpt>
      <trkpt lat="42.9851515" lon="-5.7452685">
        <ele>1381.68</ele>
        <time>2020-07-21T11:17:27.000Z</time>
      </trkpt>
      <trkpt lat="42.9851643" lon="-5.7452802">
        <ele>1381.37</ele>
        <time>2020-07-21T11:17:28.000Z</time>
      </trkpt>
      <trkpt lat="42.985177" lon="-5.7452912">
        <ele>1381.37</ele>
        <time>2020-07-21T11:17:29.000Z</time>
      </trkpt>
      <trkpt lat="42.9851898" lon="-5.7453005">
        <ele>1381.07</ele>
        <time>2020-07-21T11:17:30.000Z</time>
      </trkpt>
      <trkpt lat="42.9852028" lon="-5.7453098">
        <ele>1381.07</ele>
        <time>2020-07-21T11:17:31.000Z</time>
      </trkpt>
      <trkpt lat="42.9852188" lon="-5.7453202">
        <ele>1380.76</ele>
        <time>2020-07-21T11:17:32.000Z</time>
      </trkpt>
      <trkpt lat="42.985235" lon="-5.7453305">
        <ele>1380.76</ele>
        <time>2020-07-21T11:17:33.000Z</time>
      </trkpt>
      <trkpt lat="42.9852507" lon="-5.745339">
        <ele>1380.46</ele>
        <time>2020-07-21T11:17:34.000Z</time>
      </trkpt>
      <trkpt lat="42.985265" lon="-5.7453452">
        <ele>1380.46</ele>
        <time>2020-07-21T11:17:35.000Z</time>
      </trkpt>
      <trkpt lat="42.9852805" lon="-5.7453488">
        <ele>1380.15</ele>
        <time>2020-07-21T11:17:36.000Z</time>
      </trkpt>
      <trkpt lat="42.9852968" lon="-5.7453533">
        <ele>1380.15</ele>
        <time>2020-07-21T11:17:37.000Z</time>
      </trkpt>
      <trkpt lat="42.9853123" lon="-5.7453582">
        <ele>1379.85</ele>
        <time>2020-07-21T11:17:38.000Z</time>
      </trkpt>
      <trkpt lat="42.9853268" lon="-5.7453652">
        <ele>1379.85</ele>
        <time>2020-07-21T11:17:39.000Z</time>
      </trkpt>
      <trkpt lat="42.9853413" lon="-5.7453715">
        <ele>1379.54</ele>
        <time>2020-07-21T11:17:40.000Z</time>
      </trkpt>
      <trkpt lat="42.9853575" lon="-5.7453753">
        <ele>1379.54</ele>
        <time>2020-07-21T11:17:41.000Z</time>
      </trkpt>
      <trkpt lat="42.9853742" lon="-5.7453777">
        <ele>1379.24</ele>
        <time>2020-07-21T11:17:42.000Z</time>
      </trkpt>
      <trkpt lat="42.9853912" lon="-5.7453792">
        <ele>1379.24</ele>
        <time>2020-07-21T11:17:43.000Z</time>
      </trkpt>
      <trkpt lat="42.9854067" lon="-5.7453843">
        <ele>1378.93</ele>
        <time>2020-07-21T11:17:44.000Z</time>
      </trkpt>
      <trkpt lat="42.9854237" lon="-5.7453898">
        <ele>1378.93</ele>
        <time>2020-07-21T11:17:45.000Z</time>
      </trkpt>
      <trkpt lat="42.9854402" lon="-5.7453952">
        <ele>1378.63</ele>
        <time>2020-07-21T11:17:46.000Z</time>
      </trkpt>
      <trkpt lat="42.9854565" lon="-5.7453982">
        <ele>1378.63</ele>
        <time>2020-07-21T11:17:47.000Z</time>
      </trkpt>
      <trkpt lat="42.9854702" lon="-5.7454017">
        <ele>1378.32</ele>
        <time>2020-07-21T11:17:48.000Z</time>
      </trkpt>
      <trkpt lat="42.9854838" lon="-5.7454065">
        <ele>1378.32</ele>
        <time>2020-07-21T11:17:49.000Z</time>
      </trkpt>
      <trkpt lat="42.9854968" lon="-5.7454117">
        <ele>1378.17</ele>
        <time>2020-07-21T11:17:50.000Z</time>
      </trkpt>
      <trkpt lat="42.985511" lon="-5.7454157">
        <ele>1378.17</ele>
        <time>2020-07-21T11:17:51.000Z</time>
      </trkpt>
      <trkpt lat="42.9855262" lon="-5.7454187">
        <ele>1377.86</ele>
        <time>2020-07-21T11:17:52.000Z</time>
      </trkpt>
      <trkpt lat="42.9855417" lon="-5.7454213">
        <ele>1377.86</ele>
        <time>2020-07-21T11:17:53.000Z</time>
      </trkpt>
      <trkpt lat="42.9855583" lon="-5.7454222">
        <ele>1377.56</ele>
        <time>2020-07-21T11:17:54.000Z</time>
      </trkpt>
      <trkpt lat="42.9855738" lon="-5.7454218">
        <ele>1377.56</ele>
        <time>2020-07-21T11:17:55.000Z</time>
      </trkpt>
      <trkpt lat="42.9855892" lon="-5.7454222">
        <ele>1377.41</ele>
        <time>2020-07-21T11:17:56.000Z</time>
      </trkpt>
      <trkpt lat="42.9856028" lon="-5.7454237">
        <ele>1377.41</ele>
        <time>2020-07-21T11:17:57.000Z</time>
      </trkpt>
      <trkpt lat="42.9856165" lon="-5.745424">
        <ele>1377.1</ele>
        <time>2020-07-21T11:17:58.000Z</time>
      </trkpt>
      <trkpt lat="42.9856292" lon="-5.7454215">
        <ele>1377.1</ele>
        <time>2020-07-21T11:17:59.000Z</time>
      </trkpt>
      <trkpt lat="42.9856432" lon="-5.7454177">
        <ele>1376.95</ele>
        <time>2020-07-21T11:18:00.000Z</time>
      </trkpt>
      <trkpt lat="42.9856568" lon="-5.7454153">
        <ele>1376.95</ele>
        <time>2020-07-21T11:18:01.000Z</time>
      </trkpt>
      <trkpt lat="42.9856717" lon="-5.7454155">
        <ele>1376.65</ele>
        <time>2020-07-21T11:18:02.000Z</time>
      </trkpt>
      <trkpt lat="42.9856867" lon="-5.7454173">
        <ele>1376.65</ele>
        <time>2020-07-21T11:18:03.000Z</time>
      </trkpt>
      <trkpt lat="42.9857028" lon="-5.7454187">
        <ele>1376.49</ele>
        <time>2020-07-21T11:18:04.000Z</time>
      </trkpt>
      <trkpt lat="42.9857185" lon="-5.745419">
        <ele>1376.49</ele>
        <time>2020-07-21T11:18:05.000Z</time>
      </trkpt>
      <trkpt lat="42.9857335" lon="-5.7454203">
        <ele>1376.19</ele>
        <time>2020-07-21T11:18:06.000Z</time>
      </trkpt>
      <trkpt lat="42.9857475" lon="-5.745423">
        <ele>1376.19</ele>
        <time>2020-07-21T11:18:07.000Z</time>
      </trkpt>
      <trkpt lat="42.9857618" lon="-5.7454245">
        <ele>1376.04</ele>
        <time>2020-07-21T11:18:08.000Z</time>
      </trkpt>
      <trkpt lat="42.9857763" lon="-5.7454252">
        <ele>1376.04</ele>
        <time>2020-07-21T11:18:09.000Z</time>
      </trkpt>
      <trkpt lat="42.9857908" lon="-5.7454258">
        <ele>1375.73</ele>
        <time>2020-07-21T11:18:10.000Z</time>
      </trkpt>
      <trkpt lat="42.985805" lon="-5.7454287">
        <ele>1375.73</ele>
        <time>2020-07-21T11:18:11.000Z</time>
      </trkpt>
      <trkpt lat="42.9858188" lon="-5.7454332">
        <ele>1375.58</ele>
        <time>2020-07-21T11:18:12.000Z</time>
      </trkpt>
      <trkpt lat="42.985832" lon="-5.74544">
        <ele>1375.58</ele>
        <time>2020-07-21T11:18:13.000Z</time>
      </trkpt>
      <trkpt lat="42.985845" lon="-5.7454478">
        <ele>1375.27</ele>
        <time>2020-07-21T11:18:14.000Z</time>
      </trkpt>
      <trkpt lat="42.9858578" lon="-5.7454555">
        <ele>1375.27</ele>
        <time>2020-07-21T11:18:15.000Z</time>
      </trkpt>
      <trkpt lat="42.9858713" lon="-5.745463">
        <ele>1375.12</ele>
        <time>2020-07-21T11:18:16.000Z</time>
      </trkpt>
      <trkpt lat="42.9858852" lon="-5.7454717">
        <ele>1375.12</ele>
        <time>2020-07-21T11:18:17.000Z</time>
      </trkpt>
      <trkpt lat="42.9858978" lon="-5.7454822">
        <ele>1374.97</ele>
        <time>2020-07-21T11:18:18.000Z</time>
      </trkpt>
      <trkpt lat="42.985909" lon="-5.7454943">
        <ele>1374.97</ele>
        <time>2020-07-21T11:18:19.000Z</time>
      </trkpt>
      <trkpt lat="42.9859182" lon="-5.7455078">
        <ele>1374.67</ele>
        <time>2020-07-21T11:18:20.000Z</time>
      </trkpt>
      <trkpt lat="42.9859267" lon="-5.745523">
        <ele>1374.67</ele>
        <time>2020-07-21T11:18:21.000Z</time>
      </trkpt>
      <trkpt lat="42.9859342" lon="-5.7455382">
        <ele>1374.51</ele>
        <time>2020-07-21T11:18:22.000Z</time>
      </trkpt>
      <trkpt lat="42.9859405" lon="-5.7455538">
        <ele>1374.51</ele>
        <time>2020-07-21T11:18:23.000Z</time>
      </trkpt>
      <trkpt lat="42.9859462" lon="-5.74557">
        <ele>1374.36</ele>
        <time>2020-07-21T11:18:24.000Z</time>
      </trkpt>
      <trkpt lat="42.9859517" lon="-5.7455875">
        <ele>1374.36</ele>
        <time>2020-07-21T11:18:25.000Z</time>
      </trkpt>
      <trkpt lat="42.9859582" lon="-5.7456047">
        <ele>1374.06</ele>
        <time>2020-07-21T11:18:26.000Z</time>
      </trkpt>
      <trkpt lat="42.9859645" lon="-5.745622">
        <ele>1374.06</ele>
        <time>2020-07-21T11:18:27.000Z</time>
      </trkpt>
      <trkpt lat="42.9859702" lon="-5.7456393">
        <ele>1373.9</ele>
        <time>2020-07-21T11:18:28.000Z</time>
      </trkpt>
      <trkpt lat="42.9859748" lon="-5.7456577">
        <ele>1373.9</ele>
        <time>2020-07-21T11:18:29.000Z</time>
      </trkpt>
      <trkpt lat="42.9859795" lon="-5.7456762">
        <ele>1373.75</ele>
        <time>2020-07-21T11:18:30.000Z</time>
      </trkpt>
      <trkpt lat="42.985984" lon="-5.745695">
        <ele>1373.75</ele>
        <time>2020-07-21T11:18:31.000Z</time>
      </trkpt>
      <trkpt lat="42.9859887" lon="-5.7457133">
        <ele>1373.6</ele>
        <time>2020-07-21T11:18:32.000Z</time>
      </trkpt>
      <trkpt lat="42.985993" lon="-5.7457312">
        <ele>1373.6</ele>
        <time>2020-07-21T11:18:33.000Z</time>
      </trkpt>
      <trkpt lat="42.9859973" lon="-5.7457485">
        <ele>1373.29</ele>
        <time>2020-07-21T11:18:34.000Z</time>
      </trkpt>
      <trkpt lat="42.9860013" lon="-5.745765">
        <ele>1373.29</ele>
        <time>2020-07-21T11:18:35.000Z</time>
      </trkpt>
      <trkpt lat="42.9860047" lon="-5.745781">
        <ele>1373.14</ele>
        <time>2020-07-21T11:18:36.000Z</time>
      </trkpt>
      <trkpt lat="42.9860085" lon="-5.7457955">
        <ele>1373.14</ele>
        <time>2020-07-21T11:18:37.000Z</time>
      </trkpt>
      <trkpt lat="42.9860147" lon="-5.7458083">
        <ele>1372.99</ele>
        <time>2020-07-21T11:18:38.000Z</time>
      </trkpt>
      <trkpt lat="42.986023" lon="-5.7458188">
        <ele>1372.99</ele>
        <time>2020-07-21T11:18:39.000Z</time>
      </trkpt>
      <trkpt lat="42.9860313" lon="-5.7458277">
        <ele>1372.84</ele>
        <time>2020-07-21T11:18:40.000Z</time>
      </trkpt>
      <trkpt lat="42.9860383" lon="-5.7458362">
        <ele>1372.84</ele>
        <time>2020-07-21T11:18:41.000Z</time>
      </trkpt>
      <trkpt lat="42.986045" lon="-5.745845">
        <ele>1372.68</ele>
        <time>2020-07-21T11:18:42.000Z</time>
      </trkpt>
      <trkpt lat="42.9860532" lon="-5.745855">
        <ele>1372.68</ele>
        <time>2020-07-21T11:18:43.000Z</time>
      </trkpt>
      <trkpt lat="42.9860627" lon="-5.745865">
        <ele>1372.53</ele>
        <time>2020-07-21T11:18:44.000Z</time>
      </trkpt>
      <trkpt lat="42.9860733" lon="-5.7458753">
        <ele>1372.53</ele>
        <time>2020-07-21T11:18:45.000Z</time>
      </trkpt>
      <trkpt lat="42.9860845" lon="-5.745885">
        <ele>1372.53</ele>
        <time>2020-07-21T11:18:46.000Z</time>
      </trkpt>
      <trkpt lat="42.986096" lon="-5.7458943">
        <ele>1372.53</ele>
        <time>2020-07-21T11:18:47.000Z</time>
      </trkpt>
      <trkpt lat="42.9861072" lon="-5.7459022">
        <ele>1372.38</ele>
        <time>2020-07-21T11:18:48.000Z</time>
      </trkpt>
      <trkpt lat="42.9861183" lon="-5.7459093">
        <ele>1372.38</ele>
        <time>2020-07-21T11:18:49.000Z</time>
      </trkpt>
      <trkpt lat="42.9861302" lon="-5.745917">
        <ele>1372.23</ele>
        <time>2020-07-21T11:18:50.000Z</time>
      </trkpt>
      <trkpt lat="42.9861428" lon="-5.7459267">
        <ele>1372.23</ele>
        <time>2020-07-21T11:18:51.000Z</time>
      </trkpt>
      <trkpt lat="42.9861562" lon="-5.7459382">
        <ele>1372.07</ele>
        <time>2020-07-21T11:18:52.000Z</time>
      </trkpt>
      <trkpt lat="42.986169" lon="-5.7459495">
        <ele>1372.07</ele>
        <time>2020-07-21T11:18:53.000Z</time>
      </trkpt>
      <trkpt lat="42.9861812" lon="-5.7459607">
        <ele>1372.07</ele>
        <time>2020-07-21T11:18:54.000Z</time>
      </trkpt>
      <trkpt lat="42.9861925" lon="-5.7459708">
        <ele>1372.07</ele>
        <time>2020-07-21T11:18:55.000Z</time>
      </trkpt>
      <trkpt lat="42.9862037" lon="-5.7459803">
        <ele>1371.92</ele>
        <time>2020-07-21T11:18:56.000Z</time>
      </trkpt>
      <trkpt lat="42.9862163" lon="-5.74599">
        <ele>1371.92</ele>
        <time>2020-07-21T11:18:57.000Z</time>
      </trkpt>
      <trkpt lat="42.9862288" lon="-5.7460012">
        <ele>1371.92</ele>
        <time>2020-07-21T11:18:58.000Z</time>
      </trkpt>
      <trkpt lat="42.9862425" lon="-5.7460133">
        <ele>1371.92</ele>
        <time>2020-07-21T11:18:59.000Z</time>
      </trkpt>
      <trkpt lat="42.9862562" lon="-5.7460257">
        <ele>1371.92</ele>
        <time>2020-07-21T11:19:00.000Z</time>
      </trkpt>
      <trkpt lat="42.986271" lon="-5.7460362">
        <ele>1371.92</ele>
        <time>2020-07-21T11:19:01.000Z</time>
      </trkpt>
      <trkpt lat="42.9862855" lon="-5.7460445">
        <ele>1371.77</ele>
        <time>2020-07-21T11:19:02.000Z</time>
      </trkpt>
      <trkpt lat="42.9862995" lon="-5.7460503">
        <ele>1371.77</ele>
        <time>2020-07-21T11:19:03.000Z</time>
      </trkpt>
      <trkpt lat="42.9863128" lon="-5.7460548">
        <ele>1371.77</ele>
        <time>2020-07-21T11:19:04.000Z</time>
      </trkpt>
      <trkpt lat="42.986326" lon="-5.746061">
        <ele>1371.77</ele>
        <time>2020-07-21T11:19:05.000Z</time>
      </trkpt>
      <trkpt lat="42.9863383" lon="-5.7460685">
        <ele>1371.77</ele>
        <time>2020-07-21T11:19:06.000Z</time>
      </trkpt>
      <trkpt lat="42.986351" lon="-5.7460777">
        <ele>1371.77</ele>
        <time>2020-07-21T11:19:07.000Z</time>
      </trkpt>
      <trkpt lat="42.9863637" lon="-5.7460853">
        <ele>1371.77</ele>
        <time>2020-07-21T11:19:08.000Z</time>
      </trkpt>
      <trkpt lat="42.9863772" lon="-5.7460928">
        <ele>1371.77</ele>
        <time>2020-07-21T11:19:09.000Z</time>
      </trkpt>
      <trkpt lat="42.9863907" lon="-5.746099">
        <ele>1371.77</ele>
        <time>2020-07-21T11:19:10.000Z</time>
      </trkpt>
      <trkpt lat="42.9864047" lon="-5.7461048">
        <ele>1371.77</ele>
        <time>2020-07-21T11:19:11.000Z</time>
      </trkpt>
      <trkpt lat="42.9864187" lon="-5.7461113">
        <ele>1371.77</ele>
        <time>2020-07-21T11:19:12.000Z</time>
      </trkpt>
      <trkpt lat="42.9864323" lon="-5.7461193">
        <ele>1371.77</ele>
        <time>2020-07-21T11:19:13.000Z</time>
      </trkpt>
      <trkpt lat="42.9864453" lon="-5.7461273">
        <ele>1371.77</ele>
        <time>2020-07-21T11:19:14.000Z</time>
      </trkpt>
      <trkpt lat="42.9864577" lon="-5.746135">
        <ele>1371.77</ele>
        <time>2020-07-21T11:19:15.000Z</time>
      </trkpt>
      <trkpt lat="42.9864702" lon="-5.7461432">
        <ele>1371.77</ele>
        <time>2020-07-21T11:19:16.000Z</time>
      </trkpt>
      <trkpt lat="42.986483" lon="-5.7461525">
        <ele>1371.77</ele>
        <time>2020-07-21T11:19:17.000Z</time>
      </trkpt>
      <trkpt lat="42.9864962" lon="-5.746163">
        <ele>1371.77</ele>
        <time>2020-07-21T11:19:18.000Z</time>
      </trkpt>
      <trkpt lat="42.986509" lon="-5.7461748">
        <ele>1371.77</ele>
        <time>2020-07-21T11:19:19.000Z</time>
      </trkpt>
      <trkpt lat="42.9865228" lon="-5.7461877">
        <ele>1371.92</ele>
        <time>2020-07-21T11:19:20.000Z</time>
      </trkpt>
      <trkpt lat="42.9865365" lon="-5.7462008">
        <ele>1371.92</ele>
        <time>2020-07-21T11:19:21.000Z</time>
      </trkpt>
      <trkpt lat="42.9865505" lon="-5.7462135">
        <ele>1371.92</ele>
        <time>2020-07-21T11:19:22.000Z</time>
      </trkpt>
      <trkpt lat="42.9865633" lon="-5.7462263">
        <ele>1371.92</ele>
        <time>2020-07-21T11:19:23.000Z</time>
      </trkpt>
      <trkpt lat="42.9865753" lon="-5.7462377">
        <ele>1371.92</ele>
        <time>2020-07-21T11:19:24.000Z</time>
      </trkpt>
      <trkpt lat="42.986587" lon="-5.7462477">
        <ele>1371.92</ele>
        <time>2020-07-21T11:19:25.000Z</time>
      </trkpt>
      <trkpt lat="42.9865987" lon="-5.7462568">
        <ele>1371.92</ele>
        <time>2020-07-21T11:19:26.000Z</time>
      </trkpt>
      <trkpt lat="42.9866113" lon="-5.746267">
        <ele>1371.92</ele>
        <time>2020-07-21T11:19:27.000Z</time>
      </trkpt>
      <trkpt lat="42.9866243" lon="-5.7462785">
        <ele>1372.07</ele>
        <time>2020-07-21T11:19:28.000Z</time>
      </trkpt>
      <trkpt lat="42.986638" lon="-5.7462897">
        <ele>1372.07</ele>
        <time>2020-07-21T11:19:29.000Z</time>
      </trkpt>
      <trkpt lat="42.986651" lon="-5.7463002">
        <ele>1372.07</ele>
        <time>2020-07-21T11:19:30.000Z</time>
      </trkpt>
      <trkpt lat="42.9866635" lon="-5.7463102">
        <ele>1372.07</ele>
        <time>2020-07-21T11:19:31.000Z</time>
      </trkpt>
      <trkpt lat="42.9866757" lon="-5.7463202">
        <ele>1372.07</ele>
        <time>2020-07-21T11:19:32.000Z</time>
      </trkpt>
      <trkpt lat="42.986688" lon="-5.7463302">
        <ele>1372.07</ele>
        <time>2020-07-21T11:19:33.000Z</time>
      </trkpt>
      <trkpt lat="42.9867007" lon="-5.7463392">
        <ele>1372.23</ele>
        <time>2020-07-21T11:19:34.000Z</time>
      </trkpt>
      <trkpt lat="42.9867133" lon="-5.7463478">
        <ele>1372.23</ele>
        <time>2020-07-21T11:19:35.000Z</time>
      </trkpt>
      <trkpt lat="42.9867265" lon="-5.7463568">
        <ele>1372.23</ele>
        <time>2020-07-21T11:19:36.000Z</time>
      </trkpt>
      <trkpt lat="42.9867393" lon="-5.746366">
        <ele>1372.23</ele>
        <time>2020-07-21T11:19:37.000Z</time>
      </trkpt>
      <trkpt lat="42.9867522" lon="-5.746375">
        <ele>1372.23</ele>
        <time>2020-07-21T11:19:38.000Z</time>
      </trkpt>
      <trkpt lat="42.9867645" lon="-5.7463843">
        <ele>1372.23</ele>
        <time>2020-07-21T11:19:39.000Z</time>
      </trkpt>
      <trkpt lat="42.9867768" lon="-5.7463943">
        <ele>1372.38</ele>
        <time>2020-07-21T11:19:40.000Z</time>
      </trkpt>
      <trkpt lat="42.9867882" lon="-5.7464047">
        <ele>1372.38</ele>
        <time>2020-07-21T11:19:41.000Z</time>
      </trkpt>
      <trkpt lat="42.9867997" lon="-5.7464137">
        <ele>1372.38</ele>
        <time>2020-07-21T11:19:42.000Z</time>
      </trkpt>
      <trkpt lat="42.9868115" lon="-5.7464223">
        <ele>1372.38</ele>
        <time>2020-07-21T11:19:43.000Z</time>
      </trkpt>
      <trkpt lat="42.9868245" lon="-5.746431">
        <ele>1372.53</ele>
        <time>2020-07-21T11:19:44.000Z</time>
      </trkpt>
      <trkpt lat="42.9868378" lon="-5.7464395">
        <ele>1372.53</ele>
        <time>2020-07-21T11:19:45.000Z</time>
      </trkpt>
      <trkpt lat="42.9868512" lon="-5.746448">
        <ele>1372.53</ele>
        <time>2020-07-21T11:19:46.000Z</time>
      </trkpt>
      <trkpt lat="42.9868637" lon="-5.7464568">
        <ele>1372.53</ele>
        <time>2020-07-21T11:19:47.000Z</time>
      </trkpt>
      <trkpt lat="42.9868745" lon="-5.746466">
        <ele>1372.53</ele>
        <time>2020-07-21T11:19:48.000Z</time>
      </trkpt>
      <trkpt lat="42.9868847" lon="-5.7464758">
        <ele>1372.53</ele>
        <time>2020-07-21T11:19:49.000Z</time>
      </trkpt>
      <trkpt lat="42.9868957" lon="-5.746486">
        <ele>1372.68</ele>
        <time>2020-07-21T11:19:50.000Z</time>
      </trkpt>
      <trkpt lat="42.9869082" lon="-5.7464963">
        <ele>1372.68</ele>
        <time>2020-07-21T11:19:51.000Z</time>
      </trkpt>
      <trkpt lat="42.9869212" lon="-5.7465073">
        <ele>1372.68</ele>
        <time>2020-07-21T11:19:52.000Z</time>
      </trkpt>
      <trkpt lat="42.9869337" lon="-5.746518">
        <ele>1372.68</ele>
        <time>2020-07-21T11:19:53.000Z</time>
      </trkpt>
      <trkpt lat="42.9869452" lon="-5.7465285">
        <ele>1372.68</ele>
        <time>2020-07-21T11:19:54.000Z</time>
      </trkpt>
      <trkpt lat="42.9869565" lon="-5.746538">
        <ele>1372.68</ele>
        <time>2020-07-21T11:19:55.000Z</time>
      </trkpt>
      <trkpt lat="42.9869692" lon="-5.7465463">
        <ele>1372.68</ele>
        <time>2020-07-21T11:19:56.000Z</time>
      </trkpt>
      <trkpt lat="42.9869822" lon="-5.7465548">
        <ele>1372.68</ele>
        <time>2020-07-21T11:19:57.000Z</time>
      </trkpt>
      <trkpt lat="42.9869945" lon="-5.7465637">
        <ele>1372.84</ele>
        <time>2020-07-21T11:19:58.000Z</time>
      </trkpt>
      <trkpt lat="42.9870058" lon="-5.7465728">
        <ele>1372.84</ele>
        <time>2020-07-21T11:19:59.000Z</time>
      </trkpt>
      <trkpt lat="42.9870168" lon="-5.7465807">
        <ele>1372.84</ele>
        <time>2020-07-21T11:20:00.000Z</time>
      </trkpt>
      <trkpt lat="42.987028" lon="-5.7465868">
        <ele>1372.84</ele>
        <time>2020-07-21T11:20:01.000Z</time>
      </trkpt>
      <trkpt lat="42.9870393" lon="-5.7465938">
        <ele>1372.84</ele>
        <time>2020-07-21T11:20:02.000Z</time>
      </trkpt>
      <trkpt lat="42.9870512" lon="-5.746602">
        <ele>1372.84</ele>
        <time>2020-07-21T11:20:03.000Z</time>
      </trkpt>
      <trkpt lat="42.9870632" lon="-5.7466112">
        <ele>1372.99</ele>
        <time>2020-07-21T11:20:04.000Z</time>
      </trkpt>
      <trkpt lat="42.9870753" lon="-5.7466198">
        <ele>1372.99</ele>
        <time>2020-07-21T11:20:05.000Z</time>
      </trkpt>
      <trkpt lat="42.9870862" lon="-5.746628">
        <ele>1372.99</ele>
        <time>2020-07-21T11:20:06.000Z</time>
      </trkpt>
      <trkpt lat="42.9870963" lon="-5.7466362">
        <ele>1372.99</ele>
        <time>2020-07-21T11:20:07.000Z</time>
      </trkpt>
      <trkpt lat="42.9871065" lon="-5.7466438">
        <ele>1372.99</ele>
        <time>2020-07-21T11:20:08.000Z</time>
      </trkpt>
      <trkpt lat="42.987118" lon="-5.7466513">
        <ele>1372.99</ele>
        <time>2020-07-21T11:20:09.000Z</time>
      </trkpt>
      <trkpt lat="42.9871297" lon="-5.7466585">
        <ele>1372.99</ele>
        <time>2020-07-21T11:20:10.000Z</time>
      </trkpt>
      <trkpt lat="42.9871415" lon="-5.7466667">
        <ele>1372.99</ele>
        <time>2020-07-21T11:20:11.000Z</time>
      </trkpt>
      <trkpt lat="42.987153" lon="-5.7466753">
        <ele>1372.99</ele>
        <time>2020-07-21T11:20:12.000Z</time>
      </trkpt>
      <trkpt lat="42.9871642" lon="-5.7466843">
        <ele>1372.99</ele>
        <time>2020-07-21T11:20:13.000Z</time>
      </trkpt>
      <trkpt lat="42.9871748" lon="-5.7466925">
        <ele>1372.99</ele>
        <time>2020-07-21T11:20:14.000Z</time>
      </trkpt>
      <trkpt lat="42.9871858" lon="-5.7466998">
        <ele>1372.99</ele>
        <time>2020-07-21T11:20:15.000Z</time>
      </trkpt>
      <trkpt lat="42.9871973" lon="-5.7467067">
        <ele>1372.99</ele>
        <time>2020-07-21T11:20:16.000Z</time>
      </trkpt>
      <trkpt lat="42.9872082" lon="-5.7467132">
        <ele>1372.99</ele>
        <time>2020-07-21T11:20:17.000Z</time>
      </trkpt>
      <trkpt lat="42.987218" lon="-5.746719">
        <ele>1372.99</ele>
        <time>2020-07-21T11:20:18.000Z</time>
      </trkpt>
      <trkpt lat="42.9872278" lon="-5.7467227">
        <ele>1372.99</ele>
        <time>2020-07-21T11:20:19.000Z</time>
      </trkpt>
      <trkpt lat="42.987239" lon="-5.7467228">
        <ele>1372.99</ele>
        <time>2020-07-21T11:20:20.000Z</time>
      </trkpt>
      <trkpt lat="42.9872505" lon="-5.7467173">
        <ele>1372.99</ele>
        <time>2020-07-21T11:20:21.000Z</time>
      </trkpt>
      <trkpt lat="42.987261" lon="-5.7467103">
        <ele>1372.99</ele>
        <time>2020-07-21T11:20:22.000Z</time>
      </trkpt>
      <trkpt lat="42.9872705" lon="-5.746702">
        <ele>1372.99</ele>
        <time>2020-07-21T11:20:23.000Z</time>
      </trkpt>
      <trkpt lat="42.98728" lon="-5.7466935">
        <ele>1372.99</ele>
        <time>2020-07-21T11:20:24.000Z</time>
      </trkpt>
      <trkpt lat="42.9872892" lon="-5.7466822">
        <ele>1372.99</ele>
        <time>2020-07-21T11:20:25.000Z</time>
      </trkpt>
      <trkpt lat="42.9872988" lon="-5.7466737">
        <ele>1372.99</ele>
        <time>2020-07-21T11:20:26.000Z</time>
      </trkpt>
      <trkpt lat="42.9873105" lon="-5.7466703">
        <ele>1372.99</ele>
        <time>2020-07-21T11:20:27.000Z</time>
      </trkpt>
      <trkpt lat="42.987323" lon="-5.7466708">
        <ele>1373.14</ele>
        <time>2020-07-21T11:20:28.000Z</time>
      </trkpt>
      <trkpt lat="42.987336" lon="-5.7466717">
        <ele>1373.14</ele>
        <time>2020-07-21T11:20:29.000Z</time>
      </trkpt>
      <trkpt lat="42.9873482" lon="-5.7466705">
        <ele>1373.14</ele>
        <time>2020-07-21T11:20:30.000Z</time>
      </trkpt>
      <trkpt lat="42.9873613" lon="-5.7466662">
        <ele>1373.14</ele>
        <time>2020-07-21T11:20:31.000Z</time>
      </trkpt>
      <trkpt lat="42.987375" lon="-5.7466615">
        <ele>1373.14</ele>
        <time>2020-07-21T11:20:32.000Z</time>
      </trkpt>
      <trkpt lat="42.9873882" lon="-5.7466575">
        <ele>1373.14</ele>
        <time>2020-07-21T11:20:33.000Z</time>
      </trkpt>
      <trkpt lat="42.9874012" lon="-5.746657">
        <ele>1373.14</ele>
        <time>2020-07-21T11:20:34.000Z</time>
      </trkpt>
      <trkpt lat="42.9874142" lon="-5.7466562">
        <ele>1373.14</ele>
        <time>2020-07-21T11:20:35.000Z</time>
      </trkpt>
      <trkpt lat="42.9874268" lon="-5.7466548">
        <ele>1373.14</ele>
        <time>2020-07-21T11:20:36.000Z</time>
      </trkpt>
      <trkpt lat="42.9874407" lon="-5.7466503">
        <ele>1373.14</ele>
        <time>2020-07-21T11:20:37.000Z</time>
      </trkpt>
      <trkpt lat="42.987453" lon="-5.7466435">
        <ele>1373.14</ele>
        <time>2020-07-21T11:20:38.000Z</time>
      </trkpt>
      <trkpt lat="42.9874653" lon="-5.7466353">
        <ele>1373.14</ele>
        <time>2020-07-21T11:20:39.000Z</time>
      </trkpt>
      <trkpt lat="42.9874752" lon="-5.7466255">
        <ele>1373.14</ele>
        <time>2020-07-21T11:20:40.000Z</time>
      </trkpt>
      <trkpt lat="42.9874848" lon="-5.7466172">
        <ele>1373.14</ele>
        <time>2020-07-21T11:20:41.000Z</time>
      </trkpt>
      <trkpt lat="42.9874945" lon="-5.7466067">
        <ele>1373.14</ele>
        <time>2020-07-21T11:20:42.000Z</time>
      </trkpt>
      <trkpt lat="42.9875043" lon="-5.7465977">
        <ele>1373.14</ele>
        <time>2020-07-21T11:20:43.000Z</time>
      </trkpt>
      <trkpt lat="42.987514" lon="-5.7465857">
        <ele>1373.14</ele>
        <time>2020-07-21T11:20:44.000Z</time>
      </trkpt>
      <trkpt lat="42.9875222" lon="-5.7465745">
        <ele>1373.14</ele>
        <time>2020-07-21T11:20:45.000Z</time>
      </trkpt>
      <trkpt lat="42.9875297" lon="-5.7465642">
        <ele>1373.14</ele>
        <time>2020-07-21T11:20:46.000Z</time>
      </trkpt>
      <trkpt lat="42.9875353" lon="-5.7465537">
        <ele>1373.14</ele>
        <time>2020-07-21T11:20:47.000Z</time>
      </trkpt>
      <trkpt lat="42.9875412" lon="-5.7465433">
        <ele>1373.14</ele>
        <time>2020-07-21T11:20:48.000Z</time>
      </trkpt>
      <trkpt lat="42.9875482" lon="-5.7465327">
        <ele>1373.14</ele>
        <time>2020-07-21T11:20:49.000Z</time>
      </trkpt>
      <trkpt lat="42.9875578" lon="-5.7465213">
        <ele>1373.14</ele>
        <time>2020-07-21T11:20:50.000Z</time>
      </trkpt>
      <trkpt lat="42.9875672" lon="-5.7465073">
        <ele>1373.14</ele>
        <time>2020-07-21T11:20:51.000Z</time>
      </trkpt>
      <trkpt lat="42.9875758" lon="-5.746492">
        <ele>1373.14</ele>
        <time>2020-07-21T11:20:52.000Z</time>
      </trkpt>
      <trkpt lat="42.9875825" lon="-5.7464767">
        <ele>1373.14</ele>
        <time>2020-07-21T11:20:53.000Z</time>
      </trkpt>
      <trkpt lat="42.9875893" lon="-5.7464647">
        <ele>1373.14</ele>
        <time>2020-07-21T11:20:54.000Z</time>
      </trkpt>
      <trkpt lat="42.987596" lon="-5.74645">
        <ele>1373.14</ele>
        <time>2020-07-21T11:20:55.000Z</time>
      </trkpt>
      <trkpt lat="42.9876032" lon="-5.746436">
        <ele>1373.14</ele>
        <time>2020-07-21T11:20:56.000Z</time>
      </trkpt>
      <trkpt lat="42.9876097" lon="-5.7464193">
        <ele>1373.14</ele>
        <time>2020-07-21T11:20:57.000Z</time>
      </trkpt>
      <trkpt lat="42.9876152" lon="-5.7464042">
        <ele>1373.14</ele>
        <time>2020-07-21T11:20:58.000Z</time>
      </trkpt>
      <trkpt lat="42.9876202" lon="-5.7463887">
        <ele>1373.14</ele>
        <time>2020-07-21T11:20:59.000Z</time>
      </trkpt>
      <trkpt lat="42.9876237" lon="-5.7463733">
        <ele>1373.14</ele>
        <time>2020-07-21T11:21:00.000Z</time>
      </trkpt>
      <trkpt lat="42.9876263" lon="-5.7463565">
        <ele>1373.14</ele>
        <time>2020-07-21T11:21:01.000Z</time>
      </trkpt>
      <trkpt lat="42.9876287" lon="-5.746338">
        <ele>1372.99</ele>
        <time>2020-07-21T11:21:02.000Z</time>
      </trkpt>
      <trkpt lat="42.9876328" lon="-5.74632">
        <ele>1372.99</ele>
        <time>2020-07-21T11:21:03.000Z</time>
      </trkpt>
      <trkpt lat="42.9876367" lon="-5.7463027">
        <ele>1372.99</ele>
        <time>2020-07-21T11:21:04.000Z</time>
      </trkpt>
      <trkpt lat="42.9876398" lon="-5.7462865">
        <ele>1372.99</ele>
        <time>2020-07-21T11:21:05.000Z</time>
      </trkpt>
      <trkpt lat="42.9876413" lon="-5.7462712">
        <ele>1372.99</ele>
        <time>2020-07-21T11:21:06.000Z</time>
      </trkpt>
      <trkpt lat="42.9876433" lon="-5.7462557">
        <ele>1372.99</ele>
        <time>2020-07-21T11:21:07.000Z</time>
      </trkpt>
      <trkpt lat="42.987646" lon="-5.7462397">
        <ele>1372.99</ele>
        <time>2020-07-21T11:21:08.000Z</time>
      </trkpt>
      <trkpt lat="42.9876512" lon="-5.746223">
        <ele>1372.99</ele>
        <time>2020-07-21T11:21:09.000Z</time>
      </trkpt>
      <trkpt lat="42.9876573" lon="-5.7462085">
        <ele>1372.99</ele>
        <time>2020-07-21T11:21:10.000Z</time>
      </trkpt>
      <trkpt lat="42.9876647" lon="-5.7461952">
        <ele>1372.99</ele>
        <time>2020-07-21T11:21:11.000Z</time>
      </trkpt>
      <trkpt lat="42.987672" lon="-5.7461825">
        <ele>1372.99</ele>
        <time>2020-07-21T11:21:12.000Z</time>
      </trkpt>
      <trkpt lat="42.9876812" lon="-5.7461683">
        <ele>1372.99</ele>
        <time>2020-07-21T11:21:13.000Z</time>
      </trkpt>
      <trkpt lat="42.9876897" lon="-5.7461532">
        <ele>1372.99</ele>
        <time>2020-07-21T11:21:14.000Z</time>
      </trkpt>
      <trkpt lat="42.9876982" lon="-5.7461382">
        <ele>1372.99</ele>
        <time>2020-07-21T11:21:15.000Z</time>
      </trkpt>
      <trkpt lat="42.9877043" lon="-5.7461232">
        <ele>1372.99</ele>
        <time>2020-07-21T11:21:16.000Z</time>
      </trkpt>
      <trkpt lat="42.98771" lon="-5.7461085">
        <ele>1372.99</ele>
        <time>2020-07-21T11:21:17.000Z</time>
      </trkpt>
      <trkpt lat="42.9877162" lon="-5.7460927">
        <ele>1372.99</ele>
        <time>2020-07-21T11:21:18.000Z</time>
      </trkpt>
      <trkpt lat="42.9877242" lon="-5.7460762">
        <ele>1372.99</ele>
        <time>2020-07-21T11:21:19.000Z</time>
      </trkpt>
      <trkpt lat="42.987735" lon="-5.7460627">
        <ele>1372.99</ele>
        <time>2020-07-21T11:21:20.000Z</time>
      </trkpt>
      <trkpt lat="42.9877467" lon="-5.7460525">
        <ele>1372.99</ele>
        <time>2020-07-21T11:21:21.000Z</time>
      </trkpt>
      <trkpt lat="42.9877588" lon="-5.7460457">
        <ele>1372.99</ele>
        <time>2020-07-21T11:21:22.000Z</time>
      </trkpt>
      <trkpt lat="42.9877712" lon="-5.746041">
        <ele>1372.99</ele>
        <time>2020-07-21T11:21:23.000Z</time>
      </trkpt>
      <trkpt lat="42.9877848" lon="-5.746038">
        <ele>1372.99</ele>
        <time>2020-07-21T11:21:24.000Z</time>
      </trkpt>
      <trkpt lat="42.9877988" lon="-5.746035">
        <ele>1372.99</ele>
        <time>2020-07-21T11:21:25.000Z</time>
      </trkpt>
      <trkpt lat="42.9878115" lon="-5.746032">
        <ele>1372.99</ele>
        <time>2020-07-21T11:21:26.000Z</time>
      </trkpt>
      <trkpt lat="42.9878228" lon="-5.7460288">
        <ele>1372.99</ele>
        <time>2020-07-21T11:21:27.000Z</time>
      </trkpt>
      <trkpt lat="42.9878338" lon="-5.746026">
        <ele>1372.99</ele>
        <time>2020-07-21T11:21:28.000Z</time>
      </trkpt>
      <trkpt lat="42.9878453" lon="-5.7460213">
        <ele>1372.99</ele>
        <time>2020-07-21T11:21:29.000Z</time>
      </trkpt>
      <trkpt lat="42.9878577" lon="-5.7460133">
        <ele>1372.99</ele>
        <time>2020-07-21T11:21:30.000Z</time>
      </trkpt>
      <trkpt lat="42.9878702" lon="-5.7460037">
        <ele>1372.99</ele>
        <time>2020-07-21T11:21:31.000Z</time>
      </trkpt>
      <trkpt lat="42.9878828" lon="-5.7459932">
        <ele>1372.99</ele>
        <time>2020-07-21T11:21:32.000Z</time>
      </trkpt>
      <trkpt lat="42.9878952" lon="-5.7459838">
        <ele>1372.99</ele>
        <time>2020-07-21T11:21:33.000Z</time>
      </trkpt>
      <trkpt lat="42.9879072" lon="-5.7459745">
        <ele>1372.99</ele>
        <time>2020-07-21T11:21:34.000Z</time>
      </trkpt>
      <trkpt lat="42.9879182" lon="-5.7459652">
        <ele>1372.99</ele>
        <time>2020-07-21T11:21:35.000Z</time>
      </trkpt>
      <trkpt lat="42.987929" lon="-5.7459538">
        <ele>1372.99</ele>
        <time>2020-07-21T11:21:36.000Z</time>
      </trkpt>
      <trkpt lat="42.9879408" lon="-5.7459413">
        <ele>1372.99</ele>
        <time>2020-07-21T11:21:37.000Z</time>
      </trkpt>
      <trkpt lat="42.9879528" lon="-5.7459285">
        <ele>1372.99</ele>
        <time>2020-07-21T11:21:38.000Z</time>
      </trkpt>
      <trkpt lat="42.9879653" lon="-5.7459172">
        <ele>1372.99</ele>
        <time>2020-07-21T11:21:39.000Z</time>
      </trkpt>
      <trkpt lat="42.9879767" lon="-5.745909">
        <ele>1373.14</ele>
        <time>2020-07-21T11:21:40.000Z</time>
      </trkpt>
      <trkpt lat="42.9879878" lon="-5.7459027">
        <ele>1373.14</ele>
        <time>2020-07-21T11:21:41.000Z</time>
      </trkpt>
      <trkpt lat="42.9879993" lon="-5.745899">
        <ele>1373.14</ele>
        <time>2020-07-21T11:21:42.000Z</time>
      </trkpt>
      <trkpt lat="42.9880125" lon="-5.7458968">
        <ele>1373.14</ele>
        <time>2020-07-21T11:21:43.000Z</time>
      </trkpt>
      <trkpt lat="42.9880277" lon="-5.7458955">
        <ele>1373.14</ele>
        <time>2020-07-21T11:21:44.000Z</time>
      </trkpt>
      <trkpt lat="42.988043" lon="-5.7458963">
        <ele>1373.14</ele>
        <time>2020-07-21T11:21:45.000Z</time>
      </trkpt>
      <trkpt lat="42.9880573" lon="-5.745898">
        <ele>1373.14</ele>
        <time>2020-07-21T11:21:46.000Z</time>
      </trkpt>
      <trkpt lat="42.98807" lon="-5.745903">
        <ele>1373.14</ele>
        <time>2020-07-21T11:21:47.000Z</time>
      </trkpt>
      <trkpt lat="42.9880818" lon="-5.7459085">
        <ele>1373.14</ele>
        <time>2020-07-21T11:21:48.000Z</time>
      </trkpt>
      <trkpt lat="42.988094" lon="-5.7459152">
        <ele>1373.14</ele>
        <time>2020-07-21T11:21:49.000Z</time>
      </trkpt>
      <trkpt lat="42.9881077" lon="-5.745923">
        <ele>1373.29</ele>
        <time>2020-07-21T11:21:50.000Z</time>
      </trkpt>
      <trkpt lat="42.9881203" lon="-5.7459303">
        <ele>1373.29</ele>
        <time>2020-07-21T11:21:51.000Z</time>
      </trkpt>
      <trkpt lat="42.9881332" lon="-5.7459403">
        <ele>1373.29</ele>
        <time>2020-07-21T11:21:52.000Z</time>
      </trkpt>
      <trkpt lat="42.9881437" lon="-5.74595">
        <ele>1373.29</ele>
        <time>2020-07-21T11:21:53.000Z</time>
      </trkpt>
      <trkpt lat="42.9881545" lon="-5.7459617">
        <ele>1373.29</ele>
        <time>2020-07-21T11:21:54.000Z</time>
      </trkpt>
      <trkpt lat="42.988164" lon="-5.7459717">
        <ele>1373.29</ele>
        <time>2020-07-21T11:21:55.000Z</time>
      </trkpt>
      <trkpt lat="42.9881758" lon="-5.7459825">
        <ele>1373.29</ele>
        <time>2020-07-21T11:21:56.000Z</time>
      </trkpt>
      <trkpt lat="42.9881895" lon="-5.7459895">
        <ele>1373.29</ele>
        <time>2020-07-21T11:21:57.000Z</time>
      </trkpt>
      <trkpt lat="42.9882043" lon="-5.7459933">
        <ele>1373.29</ele>
        <time>2020-07-21T11:21:58.000Z</time>
      </trkpt>
      <trkpt lat="42.9882175" lon="-5.7459955">
        <ele>1373.29</ele>
        <time>2020-07-21T11:21:59.000Z</time>
      </trkpt>
      <trkpt lat="42.9882292" lon="-5.7460002">
        <ele>1373.44</ele>
        <time>2020-07-21T11:22:00.000Z</time>
      </trkpt>
      <trkpt lat="42.9882408" lon="-5.7460062">
        <ele>1373.44</ele>
        <time>2020-07-21T11:22:01.000Z</time>
      </trkpt>
      <trkpt lat="42.9882538" lon="-5.7460115">
        <ele>1373.44</ele>
        <time>2020-07-21T11:22:02.000Z</time>
      </trkpt>
      <trkpt lat="42.9882677" lon="-5.7460162">
        <ele>1373.44</ele>
        <time>2020-07-21T11:22:03.000Z</time>
      </trkpt>
      <trkpt lat="42.9882828" lon="-5.7460198">
        <ele>1373.44</ele>
        <time>2020-07-21T11:22:04.000Z</time>
      </trkpt>
      <trkpt lat="42.9882977" lon="-5.7460225">
        <ele>1373.44</ele>
        <time>2020-07-21T11:22:05.000Z</time>
      </trkpt>
      <trkpt lat="42.9883122" lon="-5.746024">
        <ele>1373.44</ele>
        <time>2020-07-21T11:22:06.000Z</time>
      </trkpt>
      <trkpt lat="42.9883252" lon="-5.7460253">
        <ele>1373.44</ele>
        <time>2020-07-21T11:22:07.000Z</time>
      </trkpt>
      <trkpt lat="42.9883385" lon="-5.7460265">
        <ele>1373.44</ele>
        <time>2020-07-21T11:22:08.000Z</time>
      </trkpt>
      <trkpt lat="42.9883522" lon="-5.746029">
        <ele>1373.44</ele>
        <time>2020-07-21T11:22:09.000Z</time>
      </trkpt>
      <trkpt lat="42.9883667" lon="-5.7460327">
        <ele>1373.44</ele>
        <time>2020-07-21T11:22:10.000Z</time>
      </trkpt>
      <trkpt lat="42.9883805" lon="-5.7460368">
        <ele>1373.44</ele>
        <time>2020-07-21T11:22:11.000Z</time>
      </trkpt>
      <trkpt lat="42.9883935" lon="-5.7460413">
        <ele>1373.44</ele>
        <time>2020-07-21T11:22:12.000Z</time>
      </trkpt>
      <trkpt lat="42.9884053" lon="-5.7460428">
        <ele>1373.44</ele>
        <time>2020-07-21T11:22:13.000Z</time>
      </trkpt>
      <trkpt lat="42.9884137" lon="-5.7460453">
        <ele>1373.6</ele>
        <time>2020-07-21T11:22:14.000Z</time>
      </trkpt>
      <trkpt lat="42.9884192" lon="-5.7460472">
        <ele>1373.6</ele>
        <time>2020-07-21T11:22:15.000Z</time>
      </trkpt>
      <trkpt lat="42.9884208" lon="-5.7460505">
        <ele>1373.6</ele>
        <time>2020-07-21T11:22:16.000Z</time>
      </trkpt>
      <trkpt lat="42.9884215" lon="-5.7460517">
        <ele>1373.6</ele>
        <time>2020-07-21T11:22:17.000Z</time>
      </trkpt>
      <trkpt lat="42.9884232" lon="-5.7460543">
        <ele>1373.6</ele>
        <time>2020-07-21T11:22:18.000Z</time>
      </trkpt>
      <trkpt lat="42.9884292" lon="-5.7460592">
        <ele>1373.6</ele>
        <time>2020-07-21T11:22:19.000Z</time>
      </trkpt>
      <trkpt lat="42.988439" lon="-5.7460663">
        <ele>1373.6</ele>
        <time>2020-07-21T11:22:20.000Z</time>
      </trkpt>
      <trkpt lat="42.9884512" lon="-5.7460733">
        <ele>1373.6</ele>
        <time>2020-07-21T11:22:21.000Z</time>
      </trkpt>
      <trkpt lat="42.9884643" lon="-5.7460775">
        <ele>1373.6</ele>
        <time>2020-07-21T11:22:22.000Z</time>
      </trkpt>
      <trkpt lat="42.9884782" lon="-5.7460795">
        <ele>1373.6</ele>
        <time>2020-07-21T11:22:23.000Z</time>
      </trkpt>
      <trkpt lat="42.9884918" lon="-5.746081">
        <ele>1373.6</ele>
        <time>2020-07-21T11:22:24.000Z</time>
      </trkpt>
      <trkpt lat="42.9885053" lon="-5.7460857">
        <ele>1373.6</ele>
        <time>2020-07-21T11:22:25.000Z</time>
      </trkpt>
      <trkpt lat="42.9885187" lon="-5.7460915">
        <ele>1373.6</ele>
        <time>2020-07-21T11:22:26.000Z</time>
      </trkpt>
      <trkpt lat="42.9885312" lon="-5.7460987">
        <ele>1373.6</ele>
        <time>2020-07-21T11:22:27.000Z</time>
      </trkpt>
      <trkpt lat="42.9885422" lon="-5.746106">
        <ele>1373.75</ele>
        <time>2020-07-21T11:22:28.000Z</time>
      </trkpt>
      <trkpt lat="42.988553" lon="-5.746116">
        <ele>1373.75</ele>
        <time>2020-07-21T11:22:29.000Z</time>
      </trkpt>
      <trkpt lat="42.9885662" lon="-5.7461237">
        <ele>1373.75</ele>
        <time>2020-07-21T11:22:30.000Z</time>
      </trkpt>
      <trkpt lat="42.9885803" lon="-5.7461305">
        <ele>1373.75</ele>
        <time>2020-07-21T11:22:31.000Z</time>
      </trkpt>
      <trkpt lat="42.9885957" lon="-5.7461342">
        <ele>1373.75</ele>
        <time>2020-07-21T11:22:32.000Z</time>
      </trkpt>
      <trkpt lat="42.9886093" lon="-5.7461362">
        <ele>1373.75</ele>
        <time>2020-07-21T11:22:33.000Z</time>
      </trkpt>
      <trkpt lat="42.9886218" lon="-5.7461347">
        <ele>1373.75</ele>
        <time>2020-07-21T11:22:34.000Z</time>
      </trkpt>
      <trkpt lat="42.9886347" lon="-5.7461292">
        <ele>1373.75</ele>
        <time>2020-07-21T11:22:35.000Z</time>
      </trkpt>
      <trkpt lat="42.988647" lon="-5.7461232">
        <ele>1373.9</ele>
        <time>2020-07-21T11:22:36.000Z</time>
      </trkpt>
      <trkpt lat="42.98866" lon="-5.746117">
        <ele>1373.9</ele>
        <time>2020-07-21T11:22:37.000Z</time>
      </trkpt>
      <trkpt lat="42.9886737" lon="-5.7461133">
        <ele>1373.9</ele>
        <time>2020-07-21T11:22:38.000Z</time>
      </trkpt>
      <trkpt lat="42.9886878" lon="-5.7461108">
        <ele>1373.9</ele>
        <time>2020-07-21T11:22:39.000Z</time>
      </trkpt>
      <trkpt lat="42.9887015" lon="-5.74611">
        <ele>1373.9</ele>
        <time>2020-07-21T11:22:40.000Z</time>
      </trkpt>
      <trkpt lat="42.988714" lon="-5.7461098">
        <ele>1373.9</ele>
        <time>2020-07-21T11:22:41.000Z</time>
      </trkpt>
      <trkpt lat="42.9887277" lon="-5.7461112">
        <ele>1373.9</ele>
        <time>2020-07-21T11:22:42.000Z</time>
      </trkpt>
      <trkpt lat="42.9887425" lon="-5.7461118">
        <ele>1373.9</ele>
        <time>2020-07-21T11:22:43.000Z</time>
      </trkpt>
      <trkpt lat="42.9887583" lon="-5.746113">
        <ele>1373.9</ele>
        <time>2020-07-21T11:22:44.000Z</time>
      </trkpt>
      <trkpt lat="42.9887725" lon="-5.7461128">
        <ele>1373.9</ele>
        <time>2020-07-21T11:22:45.000Z</time>
      </trkpt>
      <trkpt lat="42.9887868" lon="-5.7461137">
        <ele>1373.9</ele>
        <time>2020-07-21T11:22:46.000Z</time>
      </trkpt>
      <trkpt lat="42.9887997" lon="-5.746114">
        <ele>1373.9</ele>
        <time>2020-07-21T11:22:47.000Z</time>
      </trkpt>
      <trkpt lat="42.9888138" lon="-5.7461152">
        <ele>1373.9</ele>
        <time>2020-07-21T11:22:48.000Z</time>
      </trkpt>
      <trkpt lat="42.9888268" lon="-5.7461165">
        <ele>1373.9</ele>
        <time>2020-07-21T11:22:49.000Z</time>
      </trkpt>
      <trkpt lat="42.9888412" lon="-5.746115">
        <ele>1373.9</ele>
        <time>2020-07-21T11:22:50.000Z</time>
      </trkpt>
      <trkpt lat="42.9888543" lon="-5.7461118">
        <ele>1373.9</ele>
        <time>2020-07-21T11:22:51.000Z</time>
      </trkpt>
      <trkpt lat="42.9888672" lon="-5.746108">
        <ele>1373.9</ele>
        <time>2020-07-21T11:22:52.000Z</time>
      </trkpt>
      <trkpt lat="42.9888787" lon="-5.7461068">
        <ele>1373.9</ele>
        <time>2020-07-21T11:22:53.000Z</time>
      </trkpt>
      <trkpt lat="42.9888893" lon="-5.7461085">
        <ele>1373.9</ele>
        <time>2020-07-21T11:22:54.000Z</time>
      </trkpt>
      <trkpt lat="42.9888985" lon="-5.7461117">
        <ele>1373.9</ele>
        <time>2020-07-21T11:22:55.000Z</time>
      </trkpt>
      <trkpt lat="42.9889088" lon="-5.7461145">
        <ele>1373.9</ele>
        <time>2020-07-21T11:22:56.000Z</time>
      </trkpt>
      <trkpt lat="42.9889215" lon="-5.7461167">
        <ele>1373.9</ele>
        <time>2020-07-21T11:22:57.000Z</time>
      </trkpt>
      <trkpt lat="42.9889367" lon="-5.7461175">
        <ele>1373.9</ele>
        <time>2020-07-21T11:22:58.000Z</time>
      </trkpt>
      <trkpt lat="42.9889505" lon="-5.7461172">
        <ele>1373.9</ele>
        <time>2020-07-21T11:22:59.000Z</time>
      </trkpt>
      <trkpt lat="42.9889632" lon="-5.7461158">
        <ele>1373.9</ele>
        <time>2020-07-21T11:23:00.000Z</time>
      </trkpt>
      <trkpt lat="42.9889747" lon="-5.7461138">
        <ele>1373.9</ele>
        <time>2020-07-21T11:23:01.000Z</time>
      </trkpt>
      <trkpt lat="42.9889868" lon="-5.7461113">
        <ele>1373.9</ele>
        <time>2020-07-21T11:23:02.000Z</time>
      </trkpt>
      <trkpt lat="42.9890002" lon="-5.7461087">
        <ele>1373.9</ele>
        <time>2020-07-21T11:23:03.000Z</time>
      </trkpt>
      <trkpt lat="42.9890143" lon="-5.7461067">
        <ele>1373.75</ele>
        <time>2020-07-21T11:23:04.000Z</time>
      </trkpt>
      <trkpt lat="42.9890283" lon="-5.7461065">
        <ele>1373.75</ele>
        <time>2020-07-21T11:23:05.000Z</time>
      </trkpt>
      <trkpt lat="42.989041" lon="-5.7461082">
        <ele>1373.75</ele>
        <time>2020-07-21T11:23:06.000Z</time>
      </trkpt>
      <trkpt lat="42.989053" lon="-5.7461103">
        <ele>1373.75</ele>
        <time>2020-07-21T11:23:07.000Z</time>
      </trkpt>
      <trkpt lat="42.9890657" lon="-5.7461138">
        <ele>1373.75</ele>
        <time>2020-07-21T11:23:08.000Z</time>
      </trkpt>
      <trkpt lat="42.9890792" lon="-5.7461172">
        <ele>1373.75</ele>
        <time>2020-07-21T11:23:09.000Z</time>
      </trkpt>
      <trkpt lat="42.9890938" lon="-5.7461202">
        <ele>1373.75</ele>
        <time>2020-07-21T11:23:10.000Z</time>
      </trkpt>
      <trkpt lat="42.9891075" lon="-5.7461205">
        <ele>1373.75</ele>
        <time>2020-07-21T11:23:11.000Z</time>
      </trkpt>
      <trkpt lat="42.9891202" lon="-5.7461192">
        <ele>1373.6</ele>
        <time>2020-07-21T11:23:12.000Z</time>
      </trkpt>
      <trkpt lat="42.9891318" lon="-5.746118">
        <ele>1373.6</ele>
        <time>2020-07-21T11:23:13.000Z</time>
      </trkpt>
      <trkpt lat="42.9891448" lon="-5.7461178">
        <ele>1373.6</ele>
        <time>2020-07-21T11:23:14.000Z</time>
      </trkpt>
      <trkpt lat="42.9891588" lon="-5.7461178">
        <ele>1373.6</ele>
        <time>2020-07-21T11:23:15.000Z</time>
      </trkpt>
      <trkpt lat="42.9891725" lon="-5.7461178">
        <ele>1373.6</ele>
        <time>2020-07-21T11:23:16.000Z</time>
      </trkpt>
      <trkpt lat="42.9891847" lon="-5.7461182">
        <ele>1373.6</ele>
        <time>2020-07-21T11:23:17.000Z</time>
      </trkpt>
      <trkpt lat="42.9891958" lon="-5.7461172">
        <ele>1373.6</ele>
        <time>2020-07-21T11:23:18.000Z</time>
      </trkpt>
      <trkpt lat="42.989208" lon="-5.7461162">
        <ele>1373.6</ele>
        <time>2020-07-21T11:23:19.000Z</time>
      </trkpt>
      <trkpt lat="42.9892203" lon="-5.7461195">
        <ele>1373.6</ele>
        <time>2020-07-21T11:23:20.000Z</time>
      </trkpt>
      <trkpt lat="42.9892343" lon="-5.7461253">
        <ele>1373.6</ele>
        <time>2020-07-21T11:23:21.000Z</time>
      </trkpt>
      <trkpt lat="42.9892472" lon="-5.7461298">
        <ele>1373.44</ele>
        <time>2020-07-21T11:23:22.000Z</time>
      </trkpt>
      <trkpt lat="42.989259" lon="-5.7461292">
        <ele>1373.44</ele>
        <time>2020-07-21T11:23:23.000Z</time>
      </trkpt>
      <trkpt lat="42.9892685" lon="-5.7461258">
        <ele>1373.44</ele>
        <time>2020-07-21T11:23:24.000Z</time>
      </trkpt>
      <trkpt lat="42.9892793" lon="-5.7461237">
        <ele>1373.44</ele>
        <time>2020-07-21T11:23:25.000Z</time>
      </trkpt>
      <trkpt lat="42.9892915" lon="-5.7461205">
        <ele>1373.44</ele>
        <time>2020-07-21T11:23:26.000Z</time>
      </trkpt>
      <trkpt lat="42.9893043" lon="-5.7461173">
        <ele>1373.44</ele>
        <time>2020-07-21T11:23:27.000Z</time>
      </trkpt>
      <trkpt lat="42.9893143" lon="-5.746113">
        <ele>1373.44</ele>
        <time>2020-07-21T11:23:28.000Z</time>
      </trkpt>
      <trkpt lat="42.9893243" lon="-5.7461102">
        <ele>1373.44</ele>
        <time>2020-07-21T11:23:29.000Z</time>
      </trkpt>
      <trkpt lat="42.9893347" lon="-5.7461095">
        <ele>1373.44</ele>
        <time>2020-07-21T11:23:30.000Z</time>
      </trkpt>
      <trkpt lat="42.9893465" lon="-5.7461107">
        <ele>1373.44</ele>
        <time>2020-07-21T11:23:31.000Z</time>
      </trkpt>
      <trkpt lat="42.989358" lon="-5.746112">
        <ele>1373.44</ele>
        <time>2020-07-21T11:23:32.000Z</time>
      </trkpt>
      <trkpt lat="42.9893708" lon="-5.7461115">
        <ele>1373.44</ele>
        <time>2020-07-21T11:23:33.000Z</time>
      </trkpt>
      <trkpt lat="42.9893843" lon="-5.7461115">
        <ele>1373.29</ele>
        <time>2020-07-21T11:23:34.000Z</time>
      </trkpt>
      <trkpt lat="42.9893978" lon="-5.7461132">
        <ele>1373.29</ele>
        <time>2020-07-21T11:23:35.000Z</time>
      </trkpt>
      <trkpt lat="42.9894103" lon="-5.7461182">
        <ele>1373.29</ele>
        <time>2020-07-21T11:23:36.000Z</time>
      </trkpt>
      <trkpt lat="42.9894215" lon="-5.7461237">
        <ele>1373.29</ele>
        <time>2020-07-21T11:23:37.000Z</time>
      </trkpt>
      <trkpt lat="42.9894335" lon="-5.7461287">
        <ele>1373.29</ele>
        <time>2020-07-21T11:23:38.000Z</time>
      </trkpt>
      <trkpt lat="42.9894467" lon="-5.7461312">
        <ele>1373.29</ele>
        <time>2020-07-21T11:23:39.000Z</time>
      </trkpt>
      <trkpt lat="42.989461" lon="-5.746133">
        <ele>1373.29</ele>
        <time>2020-07-21T11:23:40.000Z</time>
      </trkpt>
      <trkpt lat="42.9894767" lon="-5.746133">
        <ele>1373.29</ele>
        <time>2020-07-21T11:23:41.000Z</time>
      </trkpt>
      <trkpt lat="42.9894905" lon="-5.7461298">
        <ele>1373.29</ele>
        <time>2020-07-21T11:23:42.000Z</time>
      </trkpt>
      <trkpt lat="42.989504" lon="-5.7461243">
        <ele>1373.29</ele>
        <time>2020-07-21T11:23:43.000Z</time>
      </trkpt>
      <trkpt lat="42.9895153" lon="-5.746117">
        <ele>1373.14</ele>
        <time>2020-07-21T11:23:44.000Z</time>
      </trkpt>
      <trkpt lat="42.9895278" lon="-5.7461123">
        <ele>1373.14</ele>
        <time>2020-07-21T11:23:45.000Z</time>
      </trkpt>
      <trkpt lat="42.9895397" lon="-5.7461082">
        <ele>1373.14</ele>
        <time>2020-07-21T11:23:46.000Z</time>
      </trkpt>
      <trkpt lat="42.9895503" lon="-5.7461052">
        <ele>1373.14</ele>
        <time>2020-07-21T11:23:47.000Z</time>
      </trkpt>
      <trkpt lat="42.9895595" lon="-5.7461022">
        <ele>1372.99</ele>
        <time>2020-07-21T11:23:48.000Z</time>
      </trkpt>
      <trkpt lat="42.989568" lon="-5.7460993">
        <ele>1372.99</ele>
        <time>2020-07-21T11:23:49.000Z</time>
      </trkpt>
      <trkpt lat="42.9895777" lon="-5.7460993">
        <ele>1372.99</ele>
        <time>2020-07-21T11:23:50.000Z</time>
      </trkpt>
      <trkpt lat="42.9895893" lon="-5.746102">
        <ele>1372.99</ele>
        <time>2020-07-21T11:23:51.000Z</time>
      </trkpt>
      <trkpt lat="42.9896038" lon="-5.7461087">
        <ele>1372.84</ele>
        <time>2020-07-21T11:23:52.000Z</time>
      </trkpt>
      <trkpt lat="42.989619" lon="-5.7461127">
        <ele>1372.84</ele>
        <time>2020-07-21T11:23:53.000Z</time>
      </trkpt>
      <trkpt lat="42.9896325" lon="-5.7461162">
        <ele>1372.84</ele>
        <time>2020-07-21T11:23:54.000Z</time>
      </trkpt>
      <trkpt lat="42.9896445" lon="-5.7461193">
        <ele>1372.84</ele>
        <time>2020-07-21T11:23:55.000Z</time>
      </trkpt>
      <trkpt lat="42.9896565" lon="-5.7461267">
        <ele>1372.68</ele>
        <time>2020-07-21T11:23:56.000Z</time>
      </trkpt>
      <trkpt lat="42.9896683" lon="-5.7461352">
        <ele>1372.68</ele>
        <time>2020-07-21T11:23:57.000Z</time>
      </trkpt>
      <trkpt lat="42.9896793" lon="-5.7461432">
        <ele>1372.68</ele>
        <time>2020-07-21T11:23:58.000Z</time>
      </trkpt>
      <trkpt lat="42.9896888" lon="-5.74615">
        <ele>1372.68</ele>
        <time>2020-07-21T11:23:59.000Z</time>
      </trkpt>
      <trkpt lat="42.9896983" lon="-5.746156">
        <ele>1372.53</ele>
        <time>2020-07-21T11:24:00.000Z</time>
      </trkpt>
      <trkpt lat="42.9897088" lon="-5.746161">
        <ele>1372.53</ele>
        <time>2020-07-21T11:24:01.000Z</time>
      </trkpt>
      <trkpt lat="42.989721" lon="-5.7461658">
        <ele>1372.53</ele>
        <time>2020-07-21T11:24:02.000Z</time>
      </trkpt>
      <trkpt lat="42.9897323" lon="-5.7461728">
        <ele>1372.53</ele>
        <time>2020-07-21T11:24:03.000Z</time>
      </trkpt>
      <trkpt lat="42.9897435" lon="-5.746181">
        <ele>1372.38</ele>
        <time>2020-07-21T11:24:04.000Z</time>
      </trkpt>
      <trkpt lat="42.9897545" lon="-5.7461895">
        <ele>1372.38</ele>
        <time>2020-07-21T11:24:05.000Z</time>
      </trkpt>
      <trkpt lat="42.989768" lon="-5.7461947">
        <ele>1372.38</ele>
        <time>2020-07-21T11:24:06.000Z</time>
      </trkpt>
      <trkpt lat="42.9897825" lon="-5.746198">
        <ele>1372.38</ele>
        <time>2020-07-21T11:24:07.000Z</time>
      </trkpt>
      <trkpt lat="42.989795" lon="-5.7461995">
        <ele>1372.38</ele>
        <time>2020-07-21T11:24:08.000Z</time>
      </trkpt>
      <trkpt lat="42.9898067" lon="-5.7461988">
        <ele>1372.38</ele>
        <time>2020-07-21T11:24:09.000Z</time>
      </trkpt>
      <trkpt lat="42.9898165" lon="-5.746196">
        <ele>1372.23</ele>
        <time>2020-07-21T11:24:10.000Z</time>
      </trkpt>
      <trkpt lat="42.9898263" lon="-5.7461945">
        <ele>1372.23</ele>
        <time>2020-07-21T11:24:11.000Z</time>
      </trkpt>
      <trkpt lat="42.9898373" lon="-5.7461962">
        <ele>1372.07</ele>
        <time>2020-07-21T11:24:12.000Z</time>
      </trkpt>
      <trkpt lat="42.9898492" lon="-5.7461987">
        <ele>1372.07</ele>
        <time>2020-07-21T11:24:13.000Z</time>
      </trkpt>
      <trkpt lat="42.9898607" lon="-5.7461997">
        <ele>1372.07</ele>
        <time>2020-07-21T11:24:14.000Z</time>
      </trkpt>
      <trkpt lat="42.9898727" lon="-5.7462018">
        <ele>1372.07</ele>
        <time>2020-07-21T11:24:15.000Z</time>
      </trkpt>
      <trkpt lat="42.9898865" lon="-5.7462053">
        <ele>1371.92</ele>
        <time>2020-07-21T11:24:16.000Z</time>
      </trkpt>
      <trkpt lat="42.9899017" lon="-5.7462097">
        <ele>1371.92</ele>
        <time>2020-07-21T11:24:17.000Z</time>
      </trkpt>
      <trkpt lat="42.989915" lon="-5.7462135">
        <ele>1371.92</ele>
        <time>2020-07-21T11:24:18.000Z</time>
      </trkpt>
      <trkpt lat="42.9899262" lon="-5.746217">
        <ele>1371.92</ele>
        <time>2020-07-21T11:24:19.000Z</time>
      </trkpt>
      <trkpt lat="42.9899367" lon="-5.7462203">
        <ele>1371.77</ele>
        <time>2020-07-21T11:24:20.000Z</time>
      </trkpt>
      <trkpt lat="42.9899473" lon="-5.7462232">
        <ele>1371.77</ele>
        <time>2020-07-21T11:24:21.000Z</time>
      </trkpt>
      <trkpt lat="42.9899585" lon="-5.746226">
        <ele>1371.62</ele>
        <time>2020-07-21T11:24:22.000Z</time>
      </trkpt>
      <trkpt lat="42.9899697" lon="-5.7462263">
        <ele>1371.62</ele>
        <time>2020-07-21T11:24:23.000Z</time>
      </trkpt>
      <trkpt lat="42.9899797" lon="-5.7462243">
        <ele>1371.62</ele>
        <time>2020-07-21T11:24:24.000Z</time>
      </trkpt>
      <trkpt lat="42.9899905" lon="-5.7462225">
        <ele>1371.62</ele>
        <time>2020-07-21T11:24:25.000Z</time>
      </trkpt>
      <trkpt lat="42.9900022" lon="-5.7462233">
        <ele>1371.46</ele>
        <time>2020-07-21T11:24:26.000Z</time>
      </trkpt>
      <trkpt lat="42.9900135" lon="-5.7462282">
        <ele>1371.46</ele>
        <time>2020-07-21T11:24:27.000Z</time>
      </trkpt>
      <trkpt lat="42.9900238" lon="-5.7462338">
        <ele>1371.31</ele>
        <time>2020-07-21T11:24:28.000Z</time>
      </trkpt>
      <trkpt lat="42.9900338" lon="-5.7462395">
        <ele>1371.31</ele>
        <time>2020-07-21T11:24:29.000Z</time>
      </trkpt>
      <trkpt lat="42.9900443" lon="-5.7462433">
        <ele>1371.16</ele>
        <time>2020-07-21T11:24:30.000Z</time>
      </trkpt>
      <trkpt lat="42.990055" lon="-5.7462477">
        <ele>1371.16</ele>
        <time>2020-07-21T11:24:31.000Z</time>
      </trkpt>
      <trkpt lat="42.9900663" lon="-5.7462517">
        <ele>1371.01</ele>
        <time>2020-07-21T11:24:32.000Z</time>
      </trkpt>
      <trkpt lat="42.9900775" lon="-5.746257">
        <ele>1371.01</ele>
        <time>2020-07-21T11:24:33.000Z</time>
      </trkpt>
      <trkpt lat="42.9900882" lon="-5.7462625">
        <ele>1370.7</ele>
        <time>2020-07-21T11:24:34.000Z</time>
      </trkpt>
      <trkpt lat="42.9900985" lon="-5.7462683">
        <ele>1370.7</ele>
        <time>2020-07-21T11:24:35.000Z</time>
      </trkpt>
      <trkpt lat="42.9901097" lon="-5.7462742">
        <ele>1370.55</ele>
        <time>2020-07-21T11:24:36.000Z</time>
      </trkpt>
      <trkpt lat="42.9901218" lon="-5.74628">
        <ele>1370.55</ele>
        <time>2020-07-21T11:24:37.000Z</time>
      </trkpt>
      <trkpt lat="42.9901348" lon="-5.7462855">
        <ele>1370.4</ele>
        <time>2020-07-21T11:24:38.000Z</time>
      </trkpt>
      <trkpt lat="42.990148" lon="-5.7462905">
        <ele>1370.4</ele>
        <time>2020-07-21T11:24:39.000Z</time>
      </trkpt>
      <trkpt lat="42.9901608" lon="-5.7462943">
        <ele>1370.24</ele>
        <time>2020-07-21T11:24:40.000Z</time>
      </trkpt>
      <trkpt lat="42.9901725" lon="-5.7462967">
        <ele>1370.24</ele>
        <time>2020-07-21T11:24:41.000Z</time>
      </trkpt>
      <trkpt lat="42.9901842" lon="-5.746298">
        <ele>1370.09</ele>
        <time>2020-07-21T11:24:42.000Z</time>
      </trkpt>
      <trkpt lat="42.9901965" lon="-5.7462987">
        <ele>1370.09</ele>
        <time>2020-07-21T11:24:43.000Z</time>
      </trkpt>
      <trkpt lat="42.9902098" lon="-5.7463007">
        <ele>1369.79</ele>
        <time>2020-07-21T11:24:44.000Z</time>
      </trkpt>
      <trkpt lat="42.9902228" lon="-5.7463033">
        <ele>1369.79</ele>
        <time>2020-07-21T11:24:45.000Z</time>
      </trkpt>
      <trkpt lat="42.9902362" lon="-5.746306">
        <ele>1369.64</ele>
        <time>2020-07-21T11:24:46.000Z</time>
      </trkpt>
      <trkpt lat="42.9902493" lon="-5.7463092">
        <ele>1369.64</ele>
        <time>2020-07-21T11:24:47.000Z</time>
      </trkpt>
      <trkpt lat="42.990264" lon="-5.7463122">
        <ele>1369.48</ele>
        <time>2020-07-21T11:24:48.000Z</time>
      </trkpt>
      <trkpt lat="42.990279" lon="-5.7463147">
        <ele>1369.48</ele>
        <time>2020-07-21T11:24:49.000Z</time>
      </trkpt>
      <trkpt lat="42.9902945" lon="-5.7463158">
        <ele>1369.33</ele>
        <time>2020-07-21T11:24:50.000Z</time>
      </trkpt>
      <trkpt lat="42.9903097" lon="-5.7463157">
        <ele>1369.33</ele>
        <time>2020-07-21T11:24:51.000Z</time>
      </trkpt>
      <trkpt lat="42.9903252" lon="-5.746314">
        <ele>1369.18</ele>
        <time>2020-07-21T11:24:52.000Z</time>
      </trkpt>
      <trkpt lat="42.9903402" lon="-5.746313">
        <ele>1369.18</ele>
        <time>2020-07-21T11:24:53.000Z</time>
      </trkpt>
      <trkpt lat="42.9903543" lon="-5.7463127">
        <ele>1369.03</ele>
        <time>2020-07-21T11:24:54.000Z</time>
      </trkpt>
      <trkpt lat="42.9903682" lon="-5.746313">
        <ele>1369.03</ele>
        <time>2020-07-21T11:24:55.000Z</time>
      </trkpt>
      <trkpt lat="42.990383" lon="-5.7463123">
        <ele>1368.87</ele>
        <time>2020-07-21T11:24:56.000Z</time>
      </trkpt>
      <trkpt lat="42.9903985" lon="-5.7463105">
        <ele>1368.87</ele>
        <time>2020-07-21T11:24:57.000Z</time>
      </trkpt>
      <trkpt lat="42.9904135" lon="-5.7463077">
        <ele>1368.72</ele>
        <time>2020-07-21T11:24:58.000Z</time>
      </trkpt>
      <trkpt lat="42.9904273" lon="-5.7463045">
        <ele>1368.72</ele>
        <time>2020-07-21T11:24:59.000Z</time>
      </trkpt>
      <trkpt lat="42.9904403" lon="-5.7463025">
        <ele>1368.57</ele>
        <time>2020-07-21T11:25:00.000Z</time>
      </trkpt>
      <trkpt lat="42.9904523" lon="-5.7463022">
        <ele>1368.57</ele>
        <time>2020-07-21T11:25:01.000Z</time>
      </trkpt>
      <trkpt lat="42.9904652" lon="-5.7463033">
        <ele>1368.42</ele>
        <time>2020-07-21T11:25:02.000Z</time>
      </trkpt>
      <trkpt lat="42.9904782" lon="-5.7463042">
        <ele>1368.42</ele>
        <time>2020-07-21T11:25:03.000Z</time>
      </trkpt>
      <trkpt lat="42.9904927" lon="-5.7463038">
        <ele>1368.42</ele>
        <time>2020-07-21T11:25:04.000Z</time>
      </trkpt>
      <trkpt lat="42.9905065" lon="-5.7463037">
        <ele>1368.42</ele>
        <time>2020-07-21T11:25:05.000Z</time>
      </trkpt>
      <trkpt lat="42.9905205" lon="-5.7463038">
        <ele>1368.26</ele>
        <time>2020-07-21T11:25:06.000Z</time>
      </trkpt>
      <trkpt lat="42.9905323" lon="-5.7463042">
        <ele>1368.26</ele>
        <time>2020-07-21T11:25:07.000Z</time>
      </trkpt>
      <trkpt lat="42.9905427" lon="-5.7463023">
        <ele>1368.11</ele>
        <time>2020-07-21T11:25:08.000Z</time>
      </trkpt>
      <trkpt lat="42.9905522" lon="-5.7462958">
        <ele>1368.11</ele>
        <time>2020-07-21T11:25:09.000Z</time>
      </trkpt>
      <trkpt lat="42.9905593" lon="-5.7462873">
        <ele>1367.96</ele>
        <time>2020-07-21T11:25:10.000Z</time>
      </trkpt>
      <trkpt lat="42.9905653" lon="-5.7462808">
        <ele>1367.96</ele>
        <time>2020-07-21T11:25:11.000Z</time>
      </trkpt>
      <trkpt lat="42.9905682" lon="-5.7462787">
        <ele>1367.96</ele>
        <time>2020-07-21T11:25:12.000Z</time>
      </trkpt>
      <trkpt lat="42.9905705" lon="-5.7462787">
        <ele>1367.96</ele>
        <time>2020-07-21T11:25:13.000Z</time>
      </trkpt>
      <trkpt lat="42.9905715" lon="-5.7462793">
        <ele>1367.81</ele>
        <time>2020-07-21T11:25:14.000Z</time>
      </trkpt>
      <trkpt lat="42.9905747" lon="-5.746279">
        <ele>1367.81</ele>
        <time>2020-07-21T11:25:15.000Z</time>
      </trkpt>
      <trkpt lat="42.9905803" lon="-5.7462763">
        <ele>1367.81</ele>
        <time>2020-07-21T11:25:16.000Z</time>
      </trkpt>
      <trkpt lat="42.9905902" lon="-5.7462695">
        <ele>1367.81</ele>
        <time>2020-07-21T11:25:17.000Z</time>
      </trkpt>
      <trkpt lat="42.9906002" lon="-5.7462607">
        <ele>1367.65</ele>
        <time>2020-07-21T11:25:18.000Z</time>
      </trkpt>
      <trkpt lat="42.9906085" lon="-5.746251">
        <ele>1367.65</ele>
        <time>2020-07-21T11:25:19.000Z</time>
      </trkpt>
      <trkpt lat="42.9906145" lon="-5.7462425">
        <ele>1367.65</ele>
        <time>2020-07-21T11:25:20.000Z</time>
      </trkpt>
      <trkpt lat="42.9906232" lon="-5.7462337">
        <ele>1367.65</ele>
        <time>2020-07-21T11:25:21.000Z</time>
      </trkpt>
      <trkpt lat="42.9906348" lon="-5.7462238">
        <ele>1367.5</ele>
        <time>2020-07-21T11:25:22.000Z</time>
      </trkpt>
      <trkpt lat="42.9906472" lon="-5.7462132">
        <ele>1367.5</ele>
        <time>2020-07-21T11:25:23.000Z</time>
      </trkpt>
      <trkpt lat="42.9906588" lon="-5.746204">
        <ele>1367.35</ele>
        <time>2020-07-21T11:25:24.000Z</time>
      </trkpt>
      <trkpt lat="42.990669" lon="-5.7461972">
        <ele>1367.35</ele>
        <time>2020-07-21T11:25:25.000Z</time>
      </trkpt>
      <trkpt lat="42.9906798" lon="-5.7461922">
        <ele>1367.35</ele>
        <time>2020-07-21T11:25:26.000Z</time>
      </trkpt>
      <trkpt lat="42.9906915" lon="-5.7461843">
        <ele>1367.35</ele>
        <time>2020-07-21T11:25:27.000Z</time>
      </trkpt>
      <trkpt lat="42.990705" lon="-5.7461727">
        <ele>1367.2</ele>
        <time>2020-07-21T11:25:28.000Z</time>
      </trkpt>
      <trkpt lat="42.9907185" lon="-5.74616">
        <ele>1367.2</ele>
        <time>2020-07-21T11:25:29.000Z</time>
      </trkpt>
      <trkpt lat="42.9907308" lon="-5.746148">
        <ele>1367.2</ele>
        <time>2020-07-21T11:25:30.000Z</time>
      </trkpt>
      <trkpt lat="42.990742" lon="-5.746139">
        <ele>1367.2</ele>
        <time>2020-07-21T11:25:31.000Z</time>
      </trkpt>
      <trkpt lat="42.9907527" lon="-5.7461313">
        <ele>1367.05</ele>
        <time>2020-07-21T11:25:32.000Z</time>
      </trkpt>
      <trkpt lat="42.9907627" lon="-5.746125">
        <ele>1367.05</ele>
        <time>2020-07-21T11:25:33.000Z</time>
      </trkpt>
      <trkpt lat="42.9907733" lon="-5.7461178">
        <ele>1367.05</ele>
        <time>2020-07-21T11:25:34.000Z</time>
      </trkpt>
      <trkpt lat="42.9907855" lon="-5.7461062">
        <ele>1367.05</ele>
        <time>2020-07-21T11:25:35.000Z</time>
      </trkpt>
      <trkpt lat="42.9907977" lon="-5.7460928">
        <ele>1367.05</ele>
        <time>2020-07-21T11:25:36.000Z</time>
      </trkpt>
      <trkpt lat="42.9908092" lon="-5.7460793">
        <ele>1367.05</ele>
        <time>2020-07-21T11:25:37.000Z</time>
      </trkpt>
      <trkpt lat="42.9908183" lon="-5.7460677">
        <ele>1367.05</ele>
        <time>2020-07-21T11:25:38.000Z</time>
      </trkpt>
      <trkpt lat="42.990828" lon="-5.7460567">
        <ele>1367.05</ele>
        <time>2020-07-21T11:25:39.000Z</time>
      </trkpt>
      <trkpt lat="42.9908362" lon="-5.7460447">
        <ele>1366.89</ele>
        <time>2020-07-21T11:25:40.000Z</time>
      </trkpt>
      <trkpt lat="42.9908453" lon="-5.7460307">
        <ele>1366.89</ele>
        <time>2020-07-21T11:25:41.000Z</time>
      </trkpt>
      <trkpt lat="42.9908518" lon="-5.7460162">
        <ele>1366.89</ele>
        <time>2020-07-21T11:25:42.000Z</time>
      </trkpt>
      <trkpt lat="42.9908593" lon="-5.7460035">
        <ele>1366.89</ele>
        <time>2020-07-21T11:25:43.000Z</time>
      </trkpt>
      <trkpt lat="42.9908655" lon="-5.7459985">
        <ele>1366.89</ele>
        <time>2020-07-21T11:25:44.000Z</time>
      </trkpt>
      <trkpt lat="42.9908747" lon="-5.745997">
        <ele>1366.89</ele>
        <time>2020-07-21T11:25:45.000Z</time>
      </trkpt>
      <trkpt lat="42.9908852" lon="-5.7459972">
        <ele>1366.89</ele>
        <time>2020-07-21T11:25:46.000Z</time>
      </trkpt>
      <trkpt lat="42.9908975" lon="-5.7459958">
        <ele>1366.89</ele>
        <time>2020-07-21T11:25:47.000Z</time>
      </trkpt>
      <trkpt lat="42.9909087" lon="-5.7459947">
        <ele>1366.89</ele>
        <time>2020-07-21T11:25:48.000Z</time>
      </trkpt>
      <trkpt lat="42.9909183" lon="-5.7459942">
        <ele>1366.89</ele>
        <time>2020-07-21T11:25:49.000Z</time>
      </trkpt>
      <trkpt lat="42.9909272" lon="-5.7459915">
        <ele>1366.89</ele>
        <time>2020-07-21T11:25:50.000Z</time>
      </trkpt>
      <trkpt lat="42.990937" lon="-5.7459867">
        <ele>1366.89</ele>
        <time>2020-07-21T11:25:51.000Z</time>
      </trkpt>
      <trkpt lat="42.9909482" lon="-5.7459808">
        <ele>1366.89</ele>
        <time>2020-07-21T11:25:52.000Z</time>
      </trkpt>
      <trkpt lat="42.9909592" lon="-5.7459757">
        <ele>1366.89</ele>
        <time>2020-07-21T11:25:53.000Z</time>
      </trkpt>
      <trkpt lat="42.990969" lon="-5.745972">
        <ele>1366.89</ele>
        <time>2020-07-21T11:25:54.000Z</time>
      </trkpt>
      <trkpt lat="42.9909777" lon="-5.7459688">
        <ele>1366.89</ele>
        <time>2020-07-21T11:25:55.000Z</time>
      </trkpt>
      <trkpt lat="42.9909865" lon="-5.7459637">
        <ele>1366.89</ele>
        <time>2020-07-21T11:25:56.000Z</time>
      </trkpt>
      <trkpt lat="42.9909957" lon="-5.745957">
        <ele>1366.89</ele>
        <time>2020-07-21T11:25:57.000Z</time>
      </trkpt>
      <trkpt lat="42.991006" lon="-5.7459483">
        <ele>1366.89</ele>
        <time>2020-07-21T11:25:58.000Z</time>
      </trkpt>
      <trkpt lat="42.9910192" lon="-5.7459403">
        <ele>1366.89</ele>
        <time>2020-07-21T11:25:59.000Z</time>
      </trkpt>
      <trkpt lat="42.9910323" lon="-5.7459335">
        <ele>1366.89</ele>
        <time>2020-07-21T11:26:00.000Z</time>
      </trkpt>
      <trkpt lat="42.9910447" lon="-5.7459277">
        <ele>1366.89</ele>
        <time>2020-07-21T11:26:01.000Z</time>
      </trkpt>
      <trkpt lat="42.991055" lon="-5.7459223">
        <ele>1366.89</ele>
        <time>2020-07-21T11:26:02.000Z</time>
      </trkpt>
      <trkpt lat="42.9910672" lon="-5.7459157">
        <ele>1366.89</ele>
        <time>2020-07-21T11:26:03.000Z</time>
      </trkpt>
      <trkpt lat="42.9910798" lon="-5.7459087">
        <ele>1366.89</ele>
        <time>2020-07-21T11:26:04.000Z</time>
      </trkpt>
      <trkpt lat="42.9910933" lon="-5.7459012">
        <ele>1366.89</ele>
        <time>2020-07-21T11:26:05.000Z</time>
      </trkpt>
      <trkpt lat="42.9911058" lon="-5.7458948">
        <ele>1366.89</ele>
        <time>2020-07-21T11:26:06.000Z</time>
      </trkpt>
      <trkpt lat="42.991118" lon="-5.7458897">
        <ele>1366.89</ele>
        <time>2020-07-21T11:26:07.000Z</time>
      </trkpt>
      <trkpt lat="42.99113" lon="-5.7458858">
        <ele>1366.74</ele>
        <time>2020-07-21T11:26:08.000Z</time>
      </trkpt>
      <trkpt lat="42.9911413" lon="-5.7458837">
        <ele>1366.74</ele>
        <time>2020-07-21T11:26:09.000Z</time>
      </trkpt>
      <trkpt lat="42.9911535" lon="-5.7458823">
        <ele>1366.74</ele>
        <time>2020-07-21T11:26:10.000Z</time>
      </trkpt>
      <trkpt lat="42.9911675" lon="-5.7458797">
        <ele>1366.74</ele>
        <time>2020-07-21T11:26:11.000Z</time>
      </trkpt>
      <trkpt lat="42.9911848" lon="-5.745874">
        <ele>1366.59</ele>
        <time>2020-07-21T11:26:12.000Z</time>
      </trkpt>
      <trkpt lat="42.9912027" lon="-5.7458667">
        <ele>1366.59</ele>
        <time>2020-07-21T11:26:13.000Z</time>
      </trkpt>
      <trkpt lat="42.9912188" lon="-5.7458608">
        <ele>1366.59</ele>
        <time>2020-07-21T11:26:14.000Z</time>
      </trkpt>
      <trkpt lat="42.9912325" lon="-5.7458578">
        <ele>1366.59</ele>
        <time>2020-07-21T11:26:15.000Z</time>
      </trkpt>
      <trkpt lat="42.9912465" lon="-5.7458547">
        <ele>1366.44</ele>
        <time>2020-07-21T11:26:16.000Z</time>
      </trkpt>
      <trkpt lat="42.9912623" lon="-5.7458507">
        <ele>1366.44</ele>
        <time>2020-07-21T11:26:17.000Z</time>
      </trkpt>
      <trkpt lat="42.9912793" lon="-5.745846">
        <ele>1366.44</ele>
        <time>2020-07-21T11:26:18.000Z</time>
      </trkpt>
      <trkpt lat="42.9912955" lon="-5.7458422">
        <ele>1366.44</ele>
        <time>2020-07-21T11:26:19.000Z</time>
      </trkpt>
      <trkpt lat="42.9913103" lon="-5.7458383">
        <ele>1366.44</ele>
        <time>2020-07-21T11:26:20.000Z</time>
      </trkpt>
      <trkpt lat="42.9913248" lon="-5.7458342">
        <ele>1366.44</ele>
        <time>2020-07-21T11:26:21.000Z</time>
      </trkpt>
      <trkpt lat="42.9913397" lon="-5.7458303">
        <ele>1366.28</ele>
        <time>2020-07-21T11:26:22.000Z</time>
      </trkpt>
      <trkpt lat="42.9913547" lon="-5.7458278">
        <ele>1366.28</ele>
        <time>2020-07-21T11:26:23.000Z</time>
      </trkpt>
      <trkpt lat="42.9913688" lon="-5.7458265">
        <ele>1366.28</ele>
        <time>2020-07-21T11:26:24.000Z</time>
      </trkpt>
      <trkpt lat="42.991382" lon="-5.745825">
        <ele>1366.28</ele>
        <time>2020-07-21T11:26:25.000Z</time>
      </trkpt>
      <trkpt lat="42.9913943" lon="-5.7458185">
        <ele>1366.13</ele>
        <time>2020-07-21T11:26:26.000Z</time>
      </trkpt>
      <trkpt lat="42.9914067" lon="-5.7458088">
        <ele>1366.13</ele>
        <time>2020-07-21T11:26:27.000Z</time>
      </trkpt>
      <trkpt lat="42.9914192" lon="-5.745796">
        <ele>1366.13</ele>
        <time>2020-07-21T11:26:28.000Z</time>
      </trkpt>
      <trkpt lat="42.9914302" lon="-5.7457847">
        <ele>1366.13</ele>
        <time>2020-07-21T11:26:29.000Z</time>
      </trkpt>
      <trkpt lat="42.9914405" lon="-5.7457743">
        <ele>1365.98</ele>
        <time>2020-07-21T11:26:30.000Z</time>
      </trkpt>
      <trkpt lat="42.9914502" lon="-5.7457657">
        <ele>1365.98</ele>
        <time>2020-07-21T11:26:31.000Z</time>
      </trkpt>
      <trkpt lat="42.9914625" lon="-5.7457573">
        <ele>1365.98</ele>
        <time>2020-07-21T11:26:32.000Z</time>
      </trkpt>
      <trkpt lat="42.9914752" lon="-5.7457483">
        <ele>1365.98</ele>
        <time>2020-07-21T11:26:33.000Z</time>
      </trkpt>
      <trkpt lat="42.9914877" lon="-5.7457383">
        <ele>1365.82</ele>
        <time>2020-07-21T11:26:34.000Z</time>
      </trkpt>
      <trkpt lat="42.9914988" lon="-5.7457287">
        <ele>1365.82</ele>
        <time>2020-07-21T11:26:35.000Z</time>
      </trkpt>
      <trkpt lat="42.9915095" lon="-5.7457188">
        <ele>1365.67</ele>
        <time>2020-07-21T11:26:36.000Z</time>
      </trkpt>
      <trkpt lat="42.9915203" lon="-5.745711">
        <ele>1365.67</ele>
        <time>2020-07-21T11:26:37.000Z</time>
      </trkpt>
      <trkpt lat="42.9915322" lon="-5.745704">
        <ele>1365.67</ele>
        <time>2020-07-21T11:26:38.000Z</time>
      </trkpt>
      <trkpt lat="42.9915432" lon="-5.7456997">
        <ele>1365.67</ele>
        <time>2020-07-21T11:26:39.000Z</time>
      </trkpt>
      <trkpt lat="42.9915547" lon="-5.7456955">
        <ele>1365.52</ele>
        <time>2020-07-21T11:26:40.000Z</time>
      </trkpt>
      <trkpt lat="42.991566" lon="-5.7456913">
        <ele>1365.52</ele>
        <time>2020-07-21T11:26:41.000Z</time>
      </trkpt>
      <trkpt lat="42.9915797" lon="-5.7456857">
        <ele>1365.37</ele>
        <time>2020-07-21T11:26:42.000Z</time>
      </trkpt>
      <trkpt lat="42.9915938" lon="-5.74568">
        <ele>1365.37</ele>
        <time>2020-07-21T11:26:43.000Z</time>
      </trkpt>
      <trkpt lat="42.9916078" lon="-5.7456752">
        <ele>1365.37</ele>
        <time>2020-07-21T11:26:44.000Z</time>
      </trkpt>
      <trkpt lat="42.9916208" lon="-5.7456718">
        <ele>1365.37</ele>
        <time>2020-07-21T11:26:45.000Z</time>
      </trkpt>
      <trkpt lat="42.991634" lon="-5.7456702">
        <ele>1365.22</ele>
        <time>2020-07-21T11:26:46.000Z</time>
      </trkpt>
      <trkpt lat="42.9916475" lon="-5.7456687">
        <ele>1365.22</ele>
        <time>2020-07-21T11:26:47.000Z</time>
      </trkpt>
      <trkpt lat="42.9916617" lon="-5.7456657">
        <ele>1365.06</ele>
        <time>2020-07-21T11:26:48.000Z</time>
      </trkpt>
      <trkpt lat="42.9916768" lon="-5.745661">
        <ele>1365.06</ele>
        <time>2020-07-21T11:26:49.000Z</time>
      </trkpt>
      <trkpt lat="42.991692" lon="-5.7456555">
        <ele>1364.91</ele>
        <time>2020-07-21T11:26:50.000Z</time>
      </trkpt>
      <trkpt lat="42.9917072" lon="-5.7456502">
        <ele>1364.91</ele>
        <time>2020-07-21T11:26:51.000Z</time>
      </trkpt>
      <trkpt lat="42.9917215" lon="-5.7456462">
        <ele>1364.91</ele>
        <time>2020-07-21T11:26:52.000Z</time>
      </trkpt>
      <trkpt lat="42.9917352" lon="-5.7456433">
        <ele>1364.91</ele>
        <time>2020-07-21T11:26:53.000Z</time>
      </trkpt>
      <trkpt lat="42.9917498" lon="-5.7456383">
        <ele>1364.76</ele>
        <time>2020-07-21T11:26:54.000Z</time>
      </trkpt>
      <trkpt lat="42.9917638" lon="-5.7456327">
        <ele>1364.76</ele>
        <time>2020-07-21T11:26:55.000Z</time>
      </trkpt>
      <trkpt lat="42.9917778" lon="-5.745626">
        <ele>1364.61</ele>
        <time>2020-07-21T11:26:56.000Z</time>
      </trkpt>
      <trkpt lat="42.991791" lon="-5.7456225">
        <ele>1364.61</ele>
        <time>2020-07-21T11:26:57.000Z</time>
      </trkpt>
      <trkpt lat="42.9918053" lon="-5.7456195">
        <ele>1364.45</ele>
        <time>2020-07-21T11:26:58.000Z</time>
      </trkpt>
      <trkpt lat="42.9918203" lon="-5.7456172">
        <ele>1364.45</ele>
        <time>2020-07-21T11:26:59.000Z</time>
      </trkpt>
      <trkpt lat="42.9918355" lon="-5.7456158">
        <ele>1364.3</ele>
        <time>2020-07-21T11:27:00.000Z</time>
      </trkpt>
      <trkpt lat="42.9918492" lon="-5.745616">
        <ele>1364.3</ele>
        <time>2020-07-21T11:27:01.000Z</time>
      </trkpt>
      <trkpt lat="42.9918615" lon="-5.7456175">
        <ele>1364.15</ele>
        <time>2020-07-21T11:27:02.000Z</time>
      </trkpt>
      <trkpt lat="42.9918733" lon="-5.7456192">
        <ele>1364.15</ele>
        <time>2020-07-21T11:27:03.000Z</time>
      </trkpt>
      <trkpt lat="42.991888" lon="-5.7456222">
        <ele>1364</ele>
        <time>2020-07-21T11:27:04.000Z</time>
      </trkpt>
      <trkpt lat="42.991904" lon="-5.7456263">
        <ele>1364</ele>
        <time>2020-07-21T11:27:05.000Z</time>
      </trkpt>
      <trkpt lat="42.9919205" lon="-5.7456318">
        <ele>1363.84</ele>
        <time>2020-07-21T11:27:06.000Z</time>
      </trkpt>
      <trkpt lat="42.9919352" lon="-5.7456378">
        <ele>1363.84</ele>
        <time>2020-07-21T11:27:07.000Z</time>
      </trkpt>
      <trkpt lat="42.991949" lon="-5.7456432">
        <ele>1363.69</ele>
        <time>2020-07-21T11:27:08.000Z</time>
      </trkpt>
      <trkpt lat="42.9919623" lon="-5.745649">
        <ele>1363.69</ele>
        <time>2020-07-21T11:27:09.000Z</time>
      </trkpt>
      <trkpt lat="42.9919748" lon="-5.7456542">
        <ele>1363.54</ele>
        <time>2020-07-21T11:27:10.000Z</time>
      </trkpt>
      <trkpt lat="42.9919877" lon="-5.7456587">
        <ele>1363.54</ele>
        <time>2020-07-21T11:27:11.000Z</time>
      </trkpt>
      <trkpt lat="42.9920003" lon="-5.7456615">
        <ele>1363.39</ele>
        <time>2020-07-21T11:27:12.000Z</time>
      </trkpt>
      <trkpt lat="42.9920128" lon="-5.7456642">
        <ele>1363.39</ele>
        <time>2020-07-21T11:27:13.000Z</time>
      </trkpt>
      <trkpt lat="42.9920248" lon="-5.7456652">
        <ele>1363.23</ele>
        <time>2020-07-21T11:27:14.000Z</time>
      </trkpt>
      <trkpt lat="42.992037" lon="-5.7456683">
        <ele>1363.23</ele>
        <time>2020-07-21T11:27:15.000Z</time>
      </trkpt>
      <trkpt lat="42.9920492" lon="-5.7456717">
        <ele>1363.08</ele>
        <time>2020-07-21T11:27:16.000Z</time>
      </trkpt>
      <trkpt lat="42.9920613" lon="-5.745678">
        <ele>1363.08</ele>
        <time>2020-07-21T11:27:17.000Z</time>
      </trkpt>
      <trkpt lat="42.992074" lon="-5.7456832">
        <ele>1362.78</ele>
        <time>2020-07-21T11:27:18.000Z</time>
      </trkpt>
      <trkpt lat="42.9920863" lon="-5.7456885">
        <ele>1362.78</ele>
        <time>2020-07-21T11:27:19.000Z</time>
      </trkpt>
      <trkpt lat="42.9920975" lon="-5.745692">
        <ele>1362.62</ele>
        <time>2020-07-21T11:27:20.000Z</time>
      </trkpt>
      <trkpt lat="42.992106" lon="-5.7456938">
        <ele>1362.62</ele>
        <time>2020-07-21T11:27:21.000Z</time>
      </trkpt>
      <trkpt lat="42.9921093" lon="-5.7456938">
        <ele>1362.47</ele>
        <time>2020-07-21T11:27:22.000Z</time>
      </trkpt>
      <trkpt lat="42.9921092" lon="-5.7456928">
        <ele>1362.47</ele>
        <time>2020-07-21T11:27:23.000Z</time>
      </trkpt>
      <trkpt lat="42.9921072" lon="-5.7456915">
        <ele>1362.17</ele>
        <time>2020-07-21T11:27:24.000Z</time>
      </trkpt>
      <trkpt lat="42.9921067" lon="-5.7456903">
        <ele>1362.17</ele>
        <time>2020-07-21T11:27:25.000Z</time>
      </trkpt>
      <trkpt lat="42.9921065" lon="-5.7456895">
        <ele>1361.86</ele>
        <time>2020-07-21T11:27:26.000Z</time>
      </trkpt>
      <trkpt lat="42.9921063" lon="-5.7456888">
        <ele>1361.86</ele>
        <time>2020-07-21T11:27:27.000Z</time>
      </trkpt>
      <trkpt lat="42.992106" lon="-5.7456882">
        <ele>1361.71</ele>
        <time>2020-07-21T11:27:28.000Z</time>
      </trkpt>
      <trkpt lat="42.9921057" lon="-5.745688">
        <ele>1361.71</ele>
        <time>2020-07-21T11:27:29.000Z</time>
      </trkpt>
      <trkpt lat="42.9921055" lon="-5.7456878">
        <ele>1361.41</ele>
        <time>2020-07-21T11:27:30.000Z</time>
      </trkpt>
      <trkpt lat="42.9921053" lon="-5.7456877">
        <ele>1361.41</ele>
        <time>2020-07-21T11:27:31.000Z</time>
      </trkpt>
      <trkpt lat="42.9921063" lon="-5.7456885">
        <ele>1361.1</ele>
        <time>2020-07-21T11:27:32.000Z</time>
      </trkpt>
      <trkpt lat="42.992109" lon="-5.7456905">
        <ele>1361.1</ele>
        <time>2020-07-21T11:27:33.000Z</time>
      </trkpt>
      <trkpt lat="42.9921148" lon="-5.745694">
        <ele>1360.8</ele>
        <time>2020-07-21T11:27:34.000Z</time>
      </trkpt>
      <trkpt lat="42.9921238" lon="-5.7456987">
        <ele>1360.8</ele>
        <time>2020-07-21T11:27:35.000Z</time>
      </trkpt>
      <trkpt lat="42.9921353" lon="-5.7457052">
        <ele>1360.49</ele>
        <time>2020-07-21T11:27:36.000Z</time>
      </trkpt>
      <trkpt lat="42.9921478" lon="-5.7457128">
        <ele>1360.49</ele>
        <time>2020-07-21T11:27:37.000Z</time>
      </trkpt>
      <trkpt lat="42.99216" lon="-5.7457207">
        <ele>1360.19</ele>
        <time>2020-07-21T11:27:38.000Z</time>
      </trkpt>
      <trkpt lat="42.9921717" lon="-5.7457287">
        <ele>1360.19</ele>
        <time>2020-07-21T11:27:39.000Z</time>
      </trkpt>
      <trkpt lat="42.9921835" lon="-5.7457365">
        <ele>1360.03</ele>
        <time>2020-07-21T11:27:40.000Z</time>
      </trkpt>
      <trkpt lat="42.9921958" lon="-5.7457433">
        <ele>1360.03</ele>
        <time>2020-07-21T11:27:41.000Z</time>
      </trkpt>
      <trkpt lat="42.992209" lon="-5.7457483">
        <ele>1359.73</ele>
        <time>2020-07-21T11:27:42.000Z</time>
      </trkpt>
      <trkpt lat="42.9922227" lon="-5.745752">
        <ele>1359.73</ele>
        <time>2020-07-21T11:27:43.000Z</time>
      </trkpt>
      <trkpt lat="42.992237" lon="-5.7457557">
        <ele>1359.42</ele>
        <time>2020-07-21T11:27:44.000Z</time>
      </trkpt>
      <trkpt lat="42.9922508" lon="-5.7457602">
        <ele>1359.42</ele>
        <time>2020-07-21T11:27:45.000Z</time>
      </trkpt>
      <trkpt lat="42.9922643" lon="-5.7457658">
        <ele>1359.12</ele>
        <time>2020-07-21T11:27:46.000Z</time>
      </trkpt>
      <trkpt lat="42.9922775" lon="-5.7457732">
        <ele>1359.12</ele>
        <time>2020-07-21T11:27:47.000Z</time>
      </trkpt>
      <trkpt lat="42.9922895" lon="-5.7457808">
        <ele>1358.97</ele>
        <time>2020-07-21T11:27:48.000Z</time>
      </trkpt>
      <trkpt lat="42.9923002" lon="-5.7457875">
        <ele>1358.97</ele>
        <time>2020-07-21T11:27:49.000Z</time>
      </trkpt>
      <trkpt lat="42.9923085" lon="-5.7457912">
        <ele>1358.66</ele>
        <time>2020-07-21T11:27:50.000Z</time>
      </trkpt>
      <trkpt lat="42.9923163" lon="-5.745792">
        <ele>1358.66</ele>
        <time>2020-07-21T11:27:51.000Z</time>
      </trkpt>
      <trkpt lat="42.9923258" lon="-5.7457878">
        <ele>1358.51</ele>
        <time>2020-07-21T11:27:52.000Z</time>
      </trkpt>
      <trkpt lat="42.9923382" lon="-5.745779">
        <ele>1358.51</ele>
        <time>2020-07-21T11:27:53.000Z</time>
      </trkpt>
      <trkpt lat="42.9923512" lon="-5.745768">
        <ele>1358.2</ele>
        <time>2020-07-21T11:27:54.000Z</time>
      </trkpt>
      <trkpt lat="42.992363" lon="-5.7457605">
        <ele>1358.2</ele>
        <time>2020-07-21T11:27:55.000Z</time>
      </trkpt>
      <trkpt lat="42.9923747" lon="-5.745756">
        <ele>1357.9</ele>
        <time>2020-07-21T11:27:56.000Z</time>
      </trkpt>
      <trkpt lat="42.9923892" lon="-5.7457533">
        <ele>1357.9</ele>
        <time>2020-07-21T11:27:57.000Z</time>
      </trkpt>
      <trkpt lat="42.9924065" lon="-5.7457518">
        <ele>1357.75</ele>
        <time>2020-07-21T11:27:58.000Z</time>
      </trkpt>
      <trkpt lat="42.9924243" lon="-5.7457525">
        <ele>1357.75</ele>
        <time>2020-07-21T11:27:59.000Z</time>
      </trkpt>
      <trkpt lat="42.992439" lon="-5.7457567">
        <ele>1357.6</ele>
        <time>2020-07-21T11:28:00.000Z</time>
      </trkpt>
      <trkpt lat="42.9924507" lon="-5.7457625">
        <ele>1357.6</ele>
        <time>2020-07-21T11:28:01.000Z</time>
      </trkpt>
      <trkpt lat="42.9924627" lon="-5.7457717">
        <ele>1357.29</ele>
        <time>2020-07-21T11:28:02.000Z</time>
      </trkpt>
      <trkpt lat="42.9924763" lon="-5.7457822">
        <ele>1357.29</ele>
        <time>2020-07-21T11:28:03.000Z</time>
      </trkpt>
      <trkpt lat="42.9924917" lon="-5.745791">
        <ele>1357.14</ele>
        <time>2020-07-21T11:28:04.000Z</time>
      </trkpt>
      <trkpt lat="42.9925077" lon="-5.7457952">
        <ele>1357.14</ele>
        <time>2020-07-21T11:28:05.000Z</time>
      </trkpt>
      <trkpt lat="42.9925243" lon="-5.7457938">
        <ele>1356.83</ele>
        <time>2020-07-21T11:28:06.000Z</time>
      </trkpt>
      <trkpt lat="42.9925407" lon="-5.7457917">
        <ele>1356.83</ele>
        <time>2020-07-21T11:28:07.000Z</time>
      </trkpt>
      <trkpt lat="42.9925557" lon="-5.7457898">
        <ele>1356.68</ele>
        <time>2020-07-21T11:28:08.000Z</time>
      </trkpt>
      <trkpt lat="42.9925677" lon="-5.74579">
        <ele>1356.68</ele>
        <time>2020-07-21T11:28:09.000Z</time>
      </trkpt>
      <trkpt lat="42.992578" lon="-5.7457897">
        <ele>1356.38</ele>
        <time>2020-07-21T11:28:10.000Z</time>
      </trkpt>
      <trkpt lat="42.9925865" lon="-5.7457892">
        <ele>1356.38</ele>
        <time>2020-07-21T11:28:11.000Z</time>
      </trkpt>
      <trkpt lat="42.9925953" lon="-5.745785">
        <ele>1356.22</ele>
        <time>2020-07-21T11:28:12.000Z</time>
      </trkpt>
      <trkpt lat="42.9926045" lon="-5.7457792">
        <ele>1356.22</ele>
        <time>2020-07-21T11:28:13.000Z</time>
      </trkpt>
      <trkpt lat="42.9926138" lon="-5.7457718">
        <ele>1355.92</ele>
        <time>2020-07-21T11:28:14.000Z</time>
      </trkpt>
      <trkpt lat="42.9926245" lon="-5.7457655">
        <ele>1355.92</ele>
        <time>2020-07-21T11:28:15.000Z</time>
      </trkpt>
      <trkpt lat="42.9926358" lon="-5.745761">
        <ele>1355.61</ele>
        <time>2020-07-21T11:28:16.000Z</time>
      </trkpt>
      <trkpt lat="42.992648" lon="-5.7457593">
        <ele>1355.61</ele>
        <time>2020-07-21T11:28:17.000Z</time>
      </trkpt>
      <trkpt lat="42.9926588" lon="-5.7457597">
        <ele>1355.31</ele>
        <time>2020-07-21T11:28:18.000Z</time>
      </trkpt>
      <trkpt lat="42.9926695" lon="-5.7457575">
        <ele>1355.31</ele>
        <time>2020-07-21T11:28:19.000Z</time>
      </trkpt>
      <trkpt lat="42.9926783" lon="-5.7457503">
        <ele>1355.01</ele>
        <time>2020-07-21T11:28:20.000Z</time>
      </trkpt>
      <trkpt lat="42.9926847" lon="-5.7457393">
        <ele>1355.01</ele>
        <time>2020-07-21T11:28:21.000Z</time>
      </trkpt>
      <trkpt lat="42.99269" lon="-5.7457278">
        <ele>1354.7</ele>
        <time>2020-07-21T11:28:22.000Z</time>
      </trkpt>
      <trkpt lat="42.9926965" lon="-5.7457173">
        <ele>1354.7</ele>
        <time>2020-07-21T11:28:23.000Z</time>
      </trkpt>
      <trkpt lat="42.9927055" lon="-5.7457075">
        <ele>1354.4</ele>
        <time>2020-07-21T11:28:24.000Z</time>
      </trkpt>
      <trkpt lat="42.992714" lon="-5.7457">
        <ele>1354.4</ele>
        <time>2020-07-21T11:28:25.000Z</time>
      </trkpt>
      <trkpt lat="42.9927188" lon="-5.7456965">
        <ele>1354.09</ele>
        <time>2020-07-21T11:28:26.000Z</time>
      </trkpt>
      <trkpt lat="42.9927202" lon="-5.7456958">
        <ele>1354.09</ele>
        <time>2020-07-21T11:28:27.000Z</time>
      </trkpt>
      <trkpt lat="42.99272" lon="-5.745696">
        <ele>1353.63</ele>
        <time>2020-07-21T11:28:28.000Z</time>
      </trkpt>
      <trkpt lat="42.9927207" lon="-5.7456952">
        <ele>1353.63</ele>
        <time>2020-07-21T11:28:29.000Z</time>
      </trkpt>
      <trkpt lat="42.9927218" lon="-5.7456932">
        <ele>1353.33</ele>
        <time>2020-07-21T11:28:30.000Z</time>
      </trkpt>
      <trkpt lat="42.9927235" lon="-5.7456903">
        <ele>1353.33</ele>
        <time>2020-07-21T11:28:31.000Z</time>
      </trkpt>
      <trkpt lat="42.992726" lon="-5.7456855">
        <ele>1352.87</ele>
        <time>2020-07-21T11:28:32.000Z</time>
      </trkpt>
      <trkpt lat="42.9927287" lon="-5.7456783">
        <ele>1352.87</ele>
        <time>2020-07-21T11:28:33.000Z</time>
      </trkpt>
      <trkpt lat="42.9927317" lon="-5.7456685">
        <ele>1352.57</ele>
        <time>2020-07-21T11:28:34.000Z</time>
      </trkpt>
      <trkpt lat="42.9927343" lon="-5.7456582">
        <ele>1352.57</ele>
        <time>2020-07-21T11:28:35.000Z</time>
      </trkpt>
      <trkpt lat="42.9927372" lon="-5.7456493">
        <ele>1352.11</ele>
        <time>2020-07-21T11:28:36.000Z</time>
      </trkpt>
      <trkpt lat="42.9927392" lon="-5.745642">
        <ele>1352.11</ele>
        <time>2020-07-21T11:28:37.000Z</time>
      </trkpt>
      <trkpt lat="42.9927417" lon="-5.7456347">
        <ele>1351.65</ele>
        <time>2020-07-21T11:28:38.000Z</time>
      </trkpt>
      <trkpt lat="42.9927438" lon="-5.7456282">
        <ele>1351.65</ele>
        <time>2020-07-21T11:28:39.000Z</time>
      </trkpt>
      <trkpt lat="42.9927455" lon="-5.7456245">
        <ele>1351.19</ele>
        <time>2020-07-21T11:28:40.000Z</time>
      </trkpt>
      <trkpt lat="42.992746" lon="-5.7456237">
        <ele>1351.19</ele>
        <time>2020-07-21T11:28:41.000Z</time>
      </trkpt>
      <trkpt lat="42.9927462" lon="-5.7456245">
        <ele>1350.74</ele>
        <time>2020-07-21T11:28:42.000Z</time>
      </trkpt>
      <trkpt lat="42.9927475" lon="-5.7456252">
        <ele>1350.74</ele>
        <time>2020-07-21T11:28:43.000Z</time>
      </trkpt>
      <trkpt lat="42.9927502" lon="-5.7456253">
        <ele>1350.28</ele>
        <time>2020-07-21T11:28:44.000Z</time>
      </trkpt>
      <trkpt lat="42.9927532" lon="-5.7456247">
        <ele>1350.28</ele>
        <time>2020-07-21T11:28:45.000Z</time>
      </trkpt>
      <trkpt lat="42.9927553" lon="-5.7456238">
        <ele>1349.82</ele>
        <time>2020-07-21T11:28:46.000Z</time>
      </trkpt>
      <trkpt lat="42.992757" lon="-5.7456238">
        <ele>1349.82</ele>
        <time>2020-07-21T11:28:47.000Z</time>
      </trkpt>
      <trkpt lat="42.9927577" lon="-5.7456242">
        <ele>1349.21</ele>
        <time>2020-07-21T11:28:48.000Z</time>
      </trkpt>
      <trkpt lat="42.9927573" lon="-5.7456235">
        <ele>1349.21</ele>
        <time>2020-07-21T11:28:49.000Z</time>
      </trkpt>
      <trkpt lat="42.9927558" lon="-5.7456208">
        <ele>1348.76</ele>
        <time>2020-07-21T11:28:50.000Z</time>
      </trkpt>
      <trkpt lat="42.9927542" lon="-5.7456185">
        <ele>1348.76</ele>
        <time>2020-07-21T11:28:51.000Z</time>
      </trkpt>
      <trkpt lat="42.9927527" lon="-5.7456168">
        <ele>1348.15</ele>
        <time>2020-07-21T11:28:52.000Z</time>
      </trkpt>
      <trkpt lat="42.9927513" lon="-5.7456173">
        <ele>1348.15</ele>
        <time>2020-07-21T11:28:53.000Z</time>
      </trkpt>
      <trkpt lat="42.9927515" lon="-5.7456177">
        <ele>1347.54</ele>
        <time>2020-07-21T11:28:54.000Z</time>
      </trkpt>
      <trkpt lat="42.9927528" lon="-5.74562">
        <ele>1347.54</ele>
        <time>2020-07-21T11:28:55.000Z</time>
      </trkpt>
      <trkpt lat="42.992755" lon="-5.7456225">
        <ele>1347.08</ele>
        <time>2020-07-21T11:28:56.000Z</time>
      </trkpt>
      <trkpt lat="42.9927573" lon="-5.7456257">
        <ele>1347.08</ele>
        <time>2020-07-21T11:28:57.000Z</time>
      </trkpt>
      <trkpt lat="42.9927618" lon="-5.7456265">
        <ele>1346.47</ele>
        <time>2020-07-21T11:28:58.000Z</time>
      </trkpt>
      <trkpt lat="42.9927693" lon="-5.7456263">
        <ele>1346.47</ele>
        <time>2020-07-21T11:28:59.000Z</time>
      </trkpt>
      <trkpt lat="42.9927787" lon="-5.7456262">
        <ele>1345.86</ele>
        <time>2020-07-21T11:29:00.000Z</time>
      </trkpt>
      <trkpt lat="42.9927883" lon="-5.7456273">
        <ele>1345.86</ele>
        <time>2020-07-21T11:29:01.000Z</time>
      </trkpt>
      <trkpt lat="42.9927978" lon="-5.7456285">
        <ele>1345.25</ele>
        <time>2020-07-21T11:29:02.000Z</time>
      </trkpt>
      <trkpt lat="42.992807" lon="-5.7456303">
        <ele>1345.25</ele>
        <time>2020-07-21T11:29:03.000Z</time>
      </trkpt>
      <trkpt lat="42.9928168" lon="-5.7456312">
        <ele>1344.64</ele>
        <time>2020-07-21T11:29:04.000Z</time>
      </trkpt>
      <trkpt lat="42.9928275" lon="-5.745632">
        <ele>1344.64</ele>
        <time>2020-07-21T11:29:05.000Z</time>
      </trkpt>
      <trkpt lat="42.9928395" lon="-5.7456315">
        <ele>1344.18</ele>
        <time>2020-07-21T11:29:06.000Z</time>
      </trkpt>
      <trkpt lat="42.9928523" lon="-5.745628">
        <ele>1344.18</ele>
        <time>2020-07-21T11:29:07.000Z</time>
      </trkpt>
      <trkpt lat="42.9928648" lon="-5.7456215">
        <ele>1343.57</ele>
        <time>2020-07-21T11:29:08.000Z</time>
      </trkpt>
      <trkpt lat="42.992876" lon="-5.7456132">
        <ele>1343.57</ele>
        <time>2020-07-21T11:29:09.000Z</time>
      </trkpt>
      <trkpt lat="42.9928828" lon="-5.7456072">
        <ele>1343.12</ele>
        <time>2020-07-21T11:29:10.000Z</time>
      </trkpt>
      <trkpt lat="42.9928872" lon="-5.7456045">
        <ele>1343.12</ele>
        <time>2020-07-21T11:29:11.000Z</time>
      </trkpt>
      <trkpt lat="42.992892" lon="-5.7456047">
        <ele>1342.66</ele>
        <time>2020-07-21T11:29:12.000Z</time>
      </trkpt>
      <trkpt lat="42.9929" lon="-5.7456045">
        <ele>1342.66</ele>
        <time>2020-07-21T11:29:13.000Z</time>
      </trkpt>
      <trkpt lat="42.99291" lon="-5.7455988">
        <ele>1342.2</ele>
        <time>2020-07-21T11:29:14.000Z</time>
      </trkpt>
      <trkpt lat="42.992919" lon="-5.7455878">
        <ele>1342.2</ele>
        <time>2020-07-21T11:29:15.000Z</time>
      </trkpt>
      <trkpt lat="42.9929277" lon="-5.7455762">
        <ele>1341.9</ele>
        <time>2020-07-21T11:29:16.000Z</time>
      </trkpt>
      <trkpt lat="42.992937" lon="-5.745567">
        <ele>1341.9</ele>
        <time>2020-07-21T11:29:17.000Z</time>
      </trkpt>
      <trkpt lat="42.9929478" lon="-5.7455595">
        <ele>1341.44</ele>
        <time>2020-07-21T11:29:18.000Z</time>
      </trkpt>
      <trkpt lat="42.9929568" lon="-5.7455518">
        <ele>1341.44</ele>
        <time>2020-07-21T11:29:19.000Z</time>
      </trkpt>
      <trkpt lat="42.992964" lon="-5.7455428">
        <ele>1341.14</ele>
        <time>2020-07-21T11:29:20.000Z</time>
      </trkpt>
      <trkpt lat="42.99297" lon="-5.7455343">
        <ele>1341.14</ele>
        <time>2020-07-21T11:29:21.000Z</time>
      </trkpt>
      <trkpt lat="42.992979" lon="-5.7455248">
        <ele>1340.83</ele>
        <time>2020-07-21T11:29:22.000Z</time>
      </trkpt>
      <trkpt lat="42.992989" lon="-5.7455143">
        <ele>1340.83</ele>
        <time>2020-07-21T11:29:23.000Z</time>
      </trkpt>
      <trkpt lat="42.9929995" lon="-5.7455017">
        <ele>1340.53</ele>
        <time>2020-07-21T11:29:24.000Z</time>
      </trkpt>
      <trkpt lat="42.9930087" lon="-5.7454897">
        <ele>1340.53</ele>
        <time>2020-07-21T11:29:25.000Z</time>
      </trkpt>
      <trkpt lat="42.993017" lon="-5.7454787">
        <ele>1340.37</ele>
        <time>2020-07-21T11:29:26.000Z</time>
      </trkpt>
      <trkpt lat="42.9930257" lon="-5.7454678">
        <ele>1340.37</ele>
        <time>2020-07-21T11:29:27.000Z</time>
      </trkpt>
      <trkpt lat="42.9930347" lon="-5.7454557">
        <ele>1340.07</ele>
        <time>2020-07-21T11:29:28.000Z</time>
      </trkpt>
      <trkpt lat="42.9930462" lon="-5.7454458">
        <ele>1340.07</ele>
        <time>2020-07-21T11:29:29.000Z</time>
      </trkpt>
      <trkpt lat="42.9930578" lon="-5.745443">
        <ele>1339.92</ele>
        <time>2020-07-21T11:29:30.000Z</time>
      </trkpt>
      <trkpt lat="42.9930683" lon="-5.7454492">
        <ele>1339.92</ele>
        <time>2020-07-21T11:29:31.000Z</time>
      </trkpt>
      <trkpt lat="42.993076" lon="-5.7454602">
        <ele>1339.61</ele>
        <time>2020-07-21T11:29:32.000Z</time>
      </trkpt>
      <trkpt lat="42.9930833" lon="-5.7454692">
        <ele>1339.61</ele>
        <time>2020-07-21T11:29:33.000Z</time>
      </trkpt>
      <trkpt lat="42.9930913" lon="-5.7454732">
        <ele>1339.46</ele>
        <time>2020-07-21T11:29:34.000Z</time>
      </trkpt>
      <trkpt lat="42.9930987" lon="-5.7454748">
        <ele>1339.46</ele>
        <time>2020-07-21T11:29:35.000Z</time>
      </trkpt>
      <trkpt lat="42.9931057" lon="-5.7454793">
        <ele>1339.31</ele>
        <time>2020-07-21T11:29:36.000Z</time>
      </trkpt>
      <trkpt lat="42.9931107" lon="-5.7454875">
        <ele>1339.31</ele>
        <time>2020-07-21T11:29:37.000Z</time>
      </trkpt>
      <trkpt lat="42.9931167" lon="-5.7454962">
        <ele>1339</ele>
        <time>2020-07-21T11:29:38.000Z</time>
      </trkpt>
      <trkpt lat="42.9931228" lon="-5.7455018">
        <ele>1339</ele>
        <time>2020-07-21T11:29:39.000Z</time>
      </trkpt>
      <trkpt lat="42.993131" lon="-5.7455017">
        <ele>1338.85</ele>
        <time>2020-07-21T11:29:40.000Z</time>
      </trkpt>
      <trkpt lat="42.9931395" lon="-5.745495">
        <ele>1338.85</ele>
        <time>2020-07-21T11:29:41.000Z</time>
      </trkpt>
      <trkpt lat="42.9931473" lon="-5.7454835">
        <ele>1338.55</ele>
        <time>2020-07-21T11:29:42.000Z</time>
      </trkpt>
      <trkpt lat="42.9931522" lon="-5.7454698">
        <ele>1338.55</ele>
        <time>2020-07-21T11:29:43.000Z</time>
      </trkpt>
      <trkpt lat="42.9931527" lon="-5.7454573">
        <ele>1338.39</ele>
        <time>2020-07-21T11:29:44.000Z</time>
      </trkpt>
      <trkpt lat="42.9931502" lon="-5.7454463">
        <ele>1338.39</ele>
        <time>2020-07-21T11:29:45.000Z</time>
      </trkpt>
      <trkpt lat="42.9931473" lon="-5.7454392">
        <ele>1338.24</ele>
        <time>2020-07-21T11:29:46.000Z</time>
      </trkpt>
      <trkpt lat="42.9931465" lon="-5.7454355">
        <ele>1338.24</ele>
        <time>2020-07-21T11:29:47.000Z</time>
      </trkpt>
      <trkpt lat="42.9931465" lon="-5.745434">
        <ele>1337.94</ele>
        <time>2020-07-21T11:29:48.000Z</time>
      </trkpt>
      <trkpt lat="42.9931482" lon="-5.7454318">
        <ele>1337.94</ele>
        <time>2020-07-21T11:29:49.000Z</time>
      </trkpt>
      <trkpt lat="42.9931503" lon="-5.7454263">
        <ele>1337.78</ele>
        <time>2020-07-21T11:29:50.000Z</time>
      </trkpt>
      <trkpt lat="42.993154" lon="-5.745419">
        <ele>1337.78</ele>
        <time>2020-07-21T11:29:51.000Z</time>
      </trkpt>
      <trkpt lat="42.9931555" lon="-5.7454133">
        <ele>1337.63</ele>
        <time>2020-07-21T11:29:52.000Z</time>
      </trkpt>
      <trkpt lat="42.9931527" lon="-5.7454088">
        <ele>1337.63</ele>
        <time>2020-07-21T11:29:53.000Z</time>
      </trkpt>
      <trkpt lat="42.9931455" lon="-5.745404">
        <ele>1337.48</ele>
        <time>2020-07-21T11:29:54.000Z</time>
      </trkpt>
      <trkpt lat="42.9931378" lon="-5.745396">
        <ele>1337.48</ele>
        <time>2020-07-21T11:29:55.000Z</time>
      </trkpt>
      <trkpt lat="42.9931335" lon="-5.7453877">
        <ele>1337.17</ele>
        <time>2020-07-21T11:29:56.000Z</time>
      </trkpt>
      <trkpt lat="42.9931337" lon="-5.7453795">
        <ele>1337.17</ele>
        <time>2020-07-21T11:29:57.000Z</time>
      </trkpt>
      <trkpt lat="42.9931365" lon="-5.7453725">
        <ele>1337.02</ele>
        <time>2020-07-21T11:29:58.000Z</time>
      </trkpt>
      <trkpt lat="42.9931438" lon="-5.745367">
        <ele>1337.02</ele>
        <time>2020-07-21T11:29:59.000Z</time>
      </trkpt>
      <trkpt lat="42.993153" lon="-5.7453627">
        <ele>1336.87</ele>
        <time>2020-07-21T11:30:00.000Z</time>
      </trkpt>
      <trkpt lat="42.9931638" lon="-5.7453588">
        <ele>1336.87</ele>
        <time>2020-07-21T11:30:01.000Z</time>
      </trkpt>
      <trkpt lat="42.9931732" lon="-5.7453547">
        <ele>1336.56</ele>
        <time>2020-07-21T11:30:02.000Z</time>
      </trkpt>
      <trkpt lat="42.9931815" lon="-5.7453497">
        <ele>1336.56</ele>
        <time>2020-07-21T11:30:03.000Z</time>
      </trkpt>
      <trkpt lat="42.9931887" lon="-5.7453447">
        <ele>1336.41</ele>
        <time>2020-07-21T11:30:04.000Z</time>
      </trkpt>
      <trkpt lat="42.9931968" lon="-5.7453402">
        <ele>1336.41</ele>
        <time>2020-07-21T11:30:05.000Z</time>
      </trkpt>
      <trkpt lat="42.9932025" lon="-5.745339">
        <ele>1336.11</ele>
        <time>2020-07-21T11:30:06.000Z</time>
      </trkpt>
      <trkpt lat="42.9932058" lon="-5.745339">
        <ele>1336.11</ele>
        <time>2020-07-21T11:30:07.000Z</time>
      </trkpt>
      <trkpt lat="42.9932055" lon="-5.7453385">
        <ele>1335.95</ele>
        <time>2020-07-21T11:30:08.000Z</time>
      </trkpt>
      <trkpt lat="42.9932053" lon="-5.7453375">
        <ele>1335.95</ele>
        <time>2020-07-21T11:30:09.000Z</time>
      </trkpt>
      <trkpt lat="42.9932058" lon="-5.7453398">
        <ele>1335.8</ele>
        <time>2020-07-21T11:30:10.000Z</time>
      </trkpt>
      <trkpt lat="42.9932073" lon="-5.7453435">
        <ele>1335.8</ele>
        <time>2020-07-21T11:30:11.000Z</time>
      </trkpt>
      <trkpt lat="42.993209" lon="-5.745344">
        <ele>1335.65</ele>
        <time>2020-07-21T11:30:12.000Z</time>
      </trkpt>
      <trkpt lat="42.9932093" lon="-5.7453405">
        <ele>1335.65</ele>
        <time>2020-07-21T11:30:13.000Z</time>
      </trkpt>
      <trkpt lat="42.9932068" lon="-5.7453387">
        <ele>1335.5</ele>
        <time>2020-07-21T11:30:14.000Z</time>
      </trkpt>
      <trkpt lat="42.993202" lon="-5.7453382">
        <ele>1335.5</ele>
        <time>2020-07-21T11:30:15.000Z</time>
      </trkpt>
      <trkpt lat="42.993195" lon="-5.7453383">
        <ele>1335.19</ele>
        <time>2020-07-21T11:30:16.000Z</time>
      </trkpt>
      <trkpt lat="42.9931862" lon="-5.7453367">
        <ele>1335.19</ele>
        <time>2020-07-21T11:30:17.000Z</time>
      </trkpt>
      <trkpt lat="42.9931758" lon="-5.7453368">
        <ele>1335.04</ele>
        <time>2020-07-21T11:30:18.000Z</time>
      </trkpt>
      <trkpt lat="42.993165" lon="-5.7453373">
        <ele>1335.04</ele>
        <time>2020-07-21T11:30:19.000Z</time>
      </trkpt>
      <trkpt lat="42.9931567" lon="-5.7453372">
        <ele>1334.89</ele>
        <time>2020-07-21T11:30:20.000Z</time>
      </trkpt>
      <trkpt lat="42.9931495" lon="-5.7453353">
        <ele>1334.89</ele>
        <time>2020-07-21T11:30:21.000Z</time>
      </trkpt>
      <trkpt lat="42.9931455" lon="-5.7453337">
        <ele>1334.73</ele>
        <time>2020-07-21T11:30:22.000Z</time>
      </trkpt>
      <trkpt lat="42.9931412" lon="-5.7453327">
        <ele>1334.73</ele>
        <time>2020-07-21T11:30:23.000Z</time>
      </trkpt>
      <trkpt lat="42.9931372" lon="-5.7453338">
        <ele>1334.58</ele>
        <time>2020-07-21T11:30:24.000Z</time>
      </trkpt>
      <trkpt lat="42.9931328" lon="-5.7453403">
        <ele>1334.58</ele>
        <time>2020-07-21T11:30:25.000Z</time>
      </trkpt>
      <trkpt lat="42.9931287" lon="-5.7453512">
        <ele>1334.43</ele>
        <time>2020-07-21T11:30:26.000Z</time>
      </trkpt>
      <trkpt lat="42.9931255" lon="-5.7453625">
        <ele>1334.43</ele>
        <time>2020-07-21T11:30:27.000Z</time>
      </trkpt>
      <trkpt lat="42.9931235" lon="-5.7453682">
        <ele>1334.28</ele>
        <time>2020-07-21T11:30:28.000Z</time>
      </trkpt>
      <trkpt lat="42.993123" lon="-5.7453697">
        <ele>1334.28</ele>
        <time>2020-07-21T11:30:29.000Z</time>
      </trkpt>
      <trkpt lat="42.9931237" lon="-5.7453695">
        <ele>1334.13</ele>
        <time>2020-07-21T11:30:30.000Z</time>
      </trkpt>
      <trkpt lat="42.9931243" lon="-5.7453697">
        <ele>1334.13</ele>
        <time>2020-07-21T11:30:31.000Z</time>
      </trkpt>
      <trkpt lat="42.9931248" lon="-5.7453695">
        <ele>1333.97</ele>
        <time>2020-07-21T11:30:32.000Z</time>
      </trkpt>
      <trkpt lat="42.9931255" lon="-5.7453693">
        <ele>1333.97</ele>
        <time>2020-07-21T11:30:33.000Z</time>
      </trkpt>
      <trkpt lat="42.993126" lon="-5.7453702">
        <ele>1333.82</ele>
        <time>2020-07-21T11:30:34.000Z</time>
      </trkpt>
      <trkpt lat="42.9931258" lon="-5.7453733">
        <ele>1333.82</ele>
        <time>2020-07-21T11:30:35.000Z</time>
      </trkpt>
      <trkpt lat="42.9931257" lon="-5.7453822">
        <ele>1333.67</ele>
        <time>2020-07-21T11:30:36.000Z</time>
      </trkpt>
      <trkpt lat="42.9931273" lon="-5.745394">
        <ele>1333.67</ele>
        <time>2020-07-21T11:30:37.000Z</time>
      </trkpt>
      <trkpt lat="42.9931327" lon="-5.7454072">
        <ele>1333.36</ele>
        <time>2020-07-21T11:30:38.000Z</time>
      </trkpt>
      <trkpt lat="42.9931395" lon="-5.745419">
        <ele>1333.36</ele>
        <time>2020-07-21T11:30:39.000Z</time>
      </trkpt>
      <trkpt lat="42.993147" lon="-5.7454323">
        <ele>1333.21</ele>
        <time>2020-07-21T11:30:40.000Z</time>
      </trkpt>
      <trkpt lat="42.9931523" lon="-5.745445">
        <ele>1333.21</ele>
        <time>2020-07-21T11:30:41.000Z</time>
      </trkpt>
      <trkpt lat="42.9931575" lon="-5.7454598">
        <ele>1333.06</ele>
        <time>2020-07-21T11:30:42.000Z</time>
      </trkpt>
      <trkpt lat="42.9931625" lon="-5.7454713">
        <ele>1333.06</ele>
        <time>2020-07-21T11:30:43.000Z</time>
      </trkpt>
      <trkpt lat="42.9931687" lon="-5.745486">
        <ele>1332.91</ele>
        <time>2020-07-21T11:30:44.000Z</time>
      </trkpt>
      <trkpt lat="42.993175" lon="-5.7455015">
        <ele>1332.91</ele>
        <time>2020-07-21T11:30:45.000Z</time>
      </trkpt>
      <trkpt lat="42.9931818" lon="-5.7455242">
        <ele>1332.75</ele>
        <time>2020-07-21T11:30:46.000Z</time>
      </trkpt>
      <trkpt lat="42.9931888" lon="-5.7455495">
        <ele>1332.75</ele>
        <time>2020-07-21T11:30:47.000Z</time>
      </trkpt>
      <trkpt lat="42.9931963" lon="-5.7455752">
        <ele>1332.6</ele>
        <time>2020-07-21T11:30:48.000Z</time>
      </trkpt>
      <trkpt lat="42.9932028" lon="-5.7455968">
        <ele>1332.6</ele>
        <time>2020-07-21T11:30:49.000Z</time>
      </trkpt>
      <trkpt lat="42.9932077" lon="-5.7456152">
        <ele>1332.45</ele>
        <time>2020-07-21T11:30:50.000Z</time>
      </trkpt>
      <trkpt lat="42.9932095" lon="-5.7456313">
        <ele>1332.45</ele>
        <time>2020-07-21T11:30:51.000Z</time>
      </trkpt>
      <trkpt lat="42.9932105" lon="-5.7456417">
        <ele>1332.3</ele>
        <time>2020-07-21T11:30:52.000Z</time>
      </trkpt>
      <trkpt lat="42.9932117" lon="-5.745648">
        <ele>1332.3</ele>
        <time>2020-07-21T11:30:53.000Z</time>
      </trkpt>
      <trkpt lat="42.9932123" lon="-5.7456508">
        <ele>1332.15</ele>
        <time>2020-07-21T11:30:54.000Z</time>
      </trkpt>
      <trkpt lat="42.9932143" lon="-5.745654">
        <ele>1332.15</ele>
        <time>2020-07-21T11:30:55.000Z</time>
      </trkpt>
      <trkpt lat="42.9932162" lon="-5.745654">
        <ele>1332.15</ele>
        <time>2020-07-21T11:30:56.000Z</time>
      </trkpt>
      <trkpt lat="42.9932192" lon="-5.7456517">
        <ele>1332.15</ele>
        <time>2020-07-21T11:30:57.000Z</time>
      </trkpt>
      <trkpt lat="42.9932198" lon="-5.74565">
        <ele>1331.99</ele>
        <time>2020-07-21T11:30:58.000Z</time>
      </trkpt>
      <trkpt lat="42.9932208" lon="-5.7456527">
        <ele>1331.99</ele>
        <time>2020-07-21T11:30:59.000Z</time>
      </trkpt>
      <trkpt lat="42.9932223" lon="-5.7456567">
        <ele>1331.99</ele>
        <time>2020-07-21T11:31:00.000Z</time>
      </trkpt>
      <trkpt lat="42.9932245" lon="-5.7456595">
        <ele>1331.99</ele>
        <time>2020-07-21T11:31:01.000Z</time>
      </trkpt>
      <trkpt lat="42.9932243" lon="-5.7456578">
        <ele>1331.99</ele>
        <time>2020-07-21T11:31:02.000Z</time>
      </trkpt>
      <trkpt lat="42.9932222" lon="-5.7456538">
        <ele>1331.99</ele>
        <time>2020-07-21T11:31:03.000Z</time>
      </trkpt>
      <trkpt lat="42.9932212" lon="-5.7456513">
        <ele>1331.99</ele>
        <time>2020-07-21T11:31:04.000Z</time>
      </trkpt>
      <trkpt lat="42.9932208" lon="-5.7456512">
        <ele>1331.99</ele>
        <time>2020-07-21T11:31:05.000Z</time>
      </trkpt>
      <trkpt lat="42.9932228" lon="-5.7456527">
        <ele>1331.99</ele>
        <time>2020-07-21T11:31:06.000Z</time>
      </trkpt>
      <trkpt lat="42.9932248" lon="-5.7456533">
        <ele>1331.99</ele>
        <time>2020-07-21T11:31:07.000Z</time>
      </trkpt>
      <trkpt lat="42.9932283" lon="-5.7456523">
        <ele>1331.99</ele>
        <time>2020-07-21T11:31:08.000Z</time>
      </trkpt>
      <trkpt lat="42.9932298" lon="-5.7456517">
        <ele>1331.99</ele>
        <time>2020-07-21T11:31:09.000Z</time>
      </trkpt>
      <trkpt lat="42.9932293" lon="-5.7456508">
        <ele>1331.99</ele>
        <time>2020-07-21T11:31:10.000Z</time>
      </trkpt>
      <trkpt lat="42.993228" lon="-5.7456503">
        <ele>1331.99</ele>
        <time>2020-07-21T11:31:11.000Z</time>
      </trkpt>
      <trkpt lat="42.993227" lon="-5.745648">
        <ele>1331.99</ele>
        <time>2020-07-21T11:31:12.000Z</time>
      </trkpt>
      <trkpt lat="42.9932273" lon="-5.7456458">
        <ele>1331.99</ele>
        <time>2020-07-21T11:31:13.000Z</time>
      </trkpt>
      <trkpt lat="42.9932298" lon="-5.7456437">
        <ele>1332.15</ele>
        <time>2020-07-21T11:31:14.000Z</time>
      </trkpt>
      <trkpt lat="42.9932332" lon="-5.7456415">
        <ele>1332.15</ele>
        <time>2020-07-21T11:31:15.000Z</time>
      </trkpt>
      <trkpt lat="42.9932373" lon="-5.7456353">
        <ele>1332.15</ele>
        <time>2020-07-21T11:31:16.000Z</time>
      </trkpt>
      <trkpt lat="42.9932427" lon="-5.745627">
        <ele>1332.15</ele>
        <time>2020-07-21T11:31:17.000Z</time>
      </trkpt>
      <trkpt lat="42.9932497" lon="-5.7456187">
        <ele>1332.15</ele>
        <time>2020-07-21T11:31:18.000Z</time>
      </trkpt>
      <trkpt lat="42.9932578" lon="-5.7456142">
        <ele>1332.15</ele>
        <time>2020-07-21T11:31:19.000Z</time>
      </trkpt>
      <trkpt lat="42.9932662" lon="-5.7456125">
        <ele>1332.15</ele>
        <time>2020-07-21T11:31:20.000Z</time>
      </trkpt>
      <trkpt lat="42.9932755" lon="-5.745613">
        <ele>1332.15</ele>
        <time>2020-07-21T11:31:21.000Z</time>
      </trkpt>
      <trkpt lat="42.9932853" lon="-5.7456147">
        <ele>1332.15</ele>
        <time>2020-07-21T11:31:22.000Z</time>
      </trkpt>
      <trkpt lat="42.993295" lon="-5.7456163">
        <ele>1332.15</ele>
        <time>2020-07-21T11:31:23.000Z</time>
      </trkpt>
      <trkpt lat="42.9933042" lon="-5.7456167">
        <ele>1332.15</ele>
        <time>2020-07-21T11:31:24.000Z</time>
      </trkpt>
      <trkpt lat="42.9933135" lon="-5.7456155">
        <ele>1332.15</ele>
        <time>2020-07-21T11:31:25.000Z</time>
      </trkpt>
      <trkpt lat="42.9933207" lon="-5.745615">
        <ele>1332.3</ele>
        <time>2020-07-21T11:31:26.000Z</time>
      </trkpt>
      <trkpt lat="42.9933253" lon="-5.7456158">
        <ele>1332.3</ele>
        <time>2020-07-21T11:31:27.000Z</time>
      </trkpt>
      <trkpt lat="42.9933275" lon="-5.7456195">
        <ele>1332.3</ele>
        <time>2020-07-21T11:31:28.000Z</time>
      </trkpt>
      <trkpt lat="42.9933307" lon="-5.7456247">
        <ele>1332.3</ele>
        <time>2020-07-21T11:31:29.000Z</time>
      </trkpt>
      <trkpt lat="42.9933363" lon="-5.7456327">
        <ele>1332.3</ele>
        <time>2020-07-21T11:31:30.000Z</time>
      </trkpt>
      <trkpt lat="42.9933423" lon="-5.7456422">
        <ele>1332.3</ele>
        <time>2020-07-21T11:31:31.000Z</time>
      </trkpt>
      <trkpt lat="42.9933485" lon="-5.745653">
        <ele>1332.3</ele>
        <time>2020-07-21T11:31:32.000Z</time>
      </trkpt>
      <trkpt lat="42.993353" lon="-5.7456655">
        <ele>1332.3</ele>
        <time>2020-07-21T11:31:33.000Z</time>
      </trkpt>
      <trkpt lat="42.993359" lon="-5.7456797">
        <ele>1332.3</ele>
        <time>2020-07-21T11:31:34.000Z</time>
      </trkpt>
      <trkpt lat="42.9933645" lon="-5.7456943">
        <ele>1332.3</ele>
        <time>2020-07-21T11:31:35.000Z</time>
      </trkpt>
      <trkpt lat="42.9933697" lon="-5.745709">
        <ele>1332.3</ele>
        <time>2020-07-21T11:31:36.000Z</time>
      </trkpt>
      <trkpt lat="42.993375" lon="-5.745724">
        <ele>1332.3</ele>
        <time>2020-07-21T11:31:37.000Z</time>
      </trkpt>
      <trkpt lat="42.99338" lon="-5.7457398">
        <ele>1332.3</ele>
        <time>2020-07-21T11:31:38.000Z</time>
      </trkpt>
      <trkpt lat="42.9933852" lon="-5.7457557">
        <ele>1332.3</ele>
        <time>2020-07-21T11:31:39.000Z</time>
      </trkpt>
      <trkpt lat="42.993389" lon="-5.745771">
        <ele>1332.3</ele>
        <time>2020-07-21T11:31:40.000Z</time>
      </trkpt>
      <trkpt lat="42.9933917" lon="-5.7457853">
        <ele>1332.3</ele>
        <time>2020-07-21T11:31:41.000Z</time>
      </trkpt>
      <trkpt lat="42.9933967" lon="-5.7457943">
        <ele>1332.3</ele>
        <time>2020-07-21T11:31:42.000Z</time>
      </trkpt>
      <trkpt lat="42.9934013" lon="-5.7458002">
        <ele>1332.3</ele>
        <time>2020-07-21T11:31:43.000Z</time>
      </trkpt>
      <trkpt lat="42.9934068" lon="-5.745802">
        <ele>1332.45</ele>
        <time>2020-07-21T11:31:44.000Z</time>
      </trkpt>
      <trkpt lat="42.993413" lon="-5.7458017">
        <ele>1332.45</ele>
        <time>2020-07-21T11:31:45.000Z</time>
      </trkpt>
      <trkpt lat="42.9934207" lon="-5.7458005">
        <ele>1332.45</ele>
        <time>2020-07-21T11:31:46.000Z</time>
      </trkpt>
      <trkpt lat="42.9934278" lon="-5.7457995">
        <ele>1332.45</ele>
        <time>2020-07-21T11:31:47.000Z</time>
      </trkpt>
      <trkpt lat="42.993431" lon="-5.7458003">
        <ele>1332.45</ele>
        <time>2020-07-21T11:31:48.000Z</time>
      </trkpt>
      <trkpt lat="42.9934322" lon="-5.7458003">
        <ele>1332.45</ele>
        <time>2020-07-21T11:31:49.000Z</time>
      </trkpt>
      <trkpt lat="42.9934327" lon="-5.7458">
        <ele>1332.45</ele>
        <time>2020-07-21T11:31:50.000Z</time>
      </trkpt>
      <trkpt lat="42.9934328" lon="-5.7458003">
        <ele>1332.45</ele>
        <time>2020-07-21T11:31:51.000Z</time>
      </trkpt>
      <trkpt lat="42.9934328" lon="-5.745801">
        <ele>1332.6</ele>
        <time>2020-07-21T11:31:52.000Z</time>
      </trkpt>
      <trkpt lat="42.9934327" lon="-5.7458013">
        <ele>1332.6</ele>
        <time>2020-07-21T11:31:53.000Z</time>
      </trkpt>
      <trkpt lat="42.9934333" lon="-5.7458015">
        <ele>1332.6</ele>
        <time>2020-07-21T11:31:54.000Z</time>
      </trkpt>
      <trkpt lat="42.9934372" lon="-5.7457967">
        <ele>1332.6</ele>
        <time>2020-07-21T11:31:55.000Z</time>
      </trkpt>
      <trkpt lat="42.9934447" lon="-5.7457893">
        <ele>1332.6</ele>
        <time>2020-07-21T11:31:56.000Z</time>
      </trkpt>
      <trkpt lat="42.9934553" lon="-5.7457788">
        <ele>1332.6</ele>
        <time>2020-07-21T11:31:57.000Z</time>
      </trkpt>
      <trkpt lat="42.993467" lon="-5.745771">
        <ele>1332.75</ele>
        <time>2020-07-21T11:31:58.000Z</time>
      </trkpt>
      <trkpt lat="42.9934787" lon="-5.7457627">
        <ele>1332.75</ele>
        <time>2020-07-21T11:31:59.000Z</time>
      </trkpt>
      <trkpt lat="42.99349" lon="-5.7457533">
        <ele>1332.75</ele>
        <time>2020-07-21T11:32:00.000Z</time>
      </trkpt>
      <trkpt lat="42.9934983" lon="-5.7457407">
        <ele>1332.75</ele>
        <time>2020-07-21T11:32:01.000Z</time>
      </trkpt>
      <trkpt lat="42.9935038" lon="-5.7457248">
        <ele>1332.75</ele>
        <time>2020-07-21T11:32:02.000Z</time>
      </trkpt>
      <trkpt lat="42.993506" lon="-5.745707">
        <ele>1332.75</ele>
        <time>2020-07-21T11:32:03.000Z</time>
      </trkpt>
      <trkpt lat="42.9935048" lon="-5.745689">
        <ele>1332.75</ele>
        <time>2020-07-21T11:32:04.000Z</time>
      </trkpt>
      <trkpt lat="42.993503" lon="-5.745672">
        <ele>1332.75</ele>
        <time>2020-07-21T11:32:05.000Z</time>
      </trkpt>
      <trkpt lat="42.9935002" lon="-5.7456555">
        <ele>1332.75</ele>
        <time>2020-07-21T11:32:06.000Z</time>
      </trkpt>
      <trkpt lat="42.9934983" lon="-5.7456392">
        <ele>1332.75</ele>
        <time>2020-07-21T11:32:07.000Z</time>
      </trkpt>
      <trkpt lat="42.993495" lon="-5.7456222">
        <ele>1332.75</ele>
        <time>2020-07-21T11:32:08.000Z</time>
      </trkpt>
      <trkpt lat="42.9934915" lon="-5.7456055">
        <ele>1332.75</ele>
        <time>2020-07-21T11:32:09.000Z</time>
      </trkpt>
      <trkpt lat="42.9934872" lon="-5.7455873">
        <ele>1332.91</ele>
        <time>2020-07-21T11:32:10.000Z</time>
      </trkpt>
      <trkpt lat="42.9934832" lon="-5.7455688">
        <ele>1332.91</ele>
        <time>2020-07-21T11:32:11.000Z</time>
      </trkpt>
      <trkpt lat="42.9934792" lon="-5.7455495">
        <ele>1332.91</ele>
        <time>2020-07-21T11:32:12.000Z</time>
      </trkpt>
      <trkpt lat="42.9934762" lon="-5.7455308">
        <ele>1332.91</ele>
        <time>2020-07-21T11:32:13.000Z</time>
      </trkpt>
      <trkpt lat="42.9934743" lon="-5.7455128">
        <ele>1332.91</ele>
        <time>2020-07-21T11:32:14.000Z</time>
      </trkpt>
      <trkpt lat="42.9934723" lon="-5.745494">
        <ele>1332.91</ele>
        <time>2020-07-21T11:32:15.000Z</time>
      </trkpt>
      <trkpt lat="42.9934703" lon="-5.7454753">
        <ele>1332.91</ele>
        <time>2020-07-21T11:32:16.000Z</time>
      </trkpt>
      <trkpt lat="42.9934652" lon="-5.7454565">
        <ele>1332.91</ele>
        <time>2020-07-21T11:32:17.000Z</time>
      </trkpt>
      <trkpt lat="42.9934598" lon="-5.7454382">
        <ele>1332.75</ele>
        <time>2020-07-21T11:32:18.000Z</time>
      </trkpt>
      <trkpt lat="42.9934535" lon="-5.745419">
        <ele>1332.75</ele>
        <time>2020-07-21T11:32:19.000Z</time>
      </trkpt>
      <trkpt lat="42.9934487" lon="-5.7453998">
        <ele>1332.75</ele>
        <time>2020-07-21T11:32:20.000Z</time>
      </trkpt>
      <trkpt lat="42.9934437" lon="-5.7453813">
        <ele>1332.75</ele>
        <time>2020-07-21T11:32:21.000Z</time>
      </trkpt>
      <trkpt lat="42.9934392" lon="-5.7453638">
        <ele>1332.75</ele>
        <time>2020-07-21T11:32:22.000Z</time>
      </trkpt>
      <trkpt lat="42.9934348" lon="-5.7453465">
        <ele>1332.75</ele>
        <time>2020-07-21T11:32:23.000Z</time>
      </trkpt>
      <trkpt lat="42.9934303" lon="-5.7453297">
        <ele>1332.75</ele>
        <time>2020-07-21T11:32:24.000Z</time>
      </trkpt>
      <trkpt lat="42.9934263" lon="-5.7453142">
        <ele>1332.75</ele>
        <time>2020-07-21T11:32:25.000Z</time>
      </trkpt>
      <trkpt lat="42.9934223" lon="-5.7452973">
        <ele>1332.91</ele>
        <time>2020-07-21T11:32:26.000Z</time>
      </trkpt>
      <trkpt lat="42.9934182" lon="-5.7452797">
        <ele>1332.91</ele>
        <time>2020-07-21T11:32:27.000Z</time>
      </trkpt>
      <trkpt lat="42.993413" lon="-5.7452602">
        <ele>1331.23</ele>
        <time>2020-07-21T11:32:28.000Z</time>
      </trkpt>
      <trkpt lat="42.993407" lon="-5.7452417">
        <ele>1331.23</ele>
        <time>2020-07-21T11:32:29.000Z</time>
      </trkpt>
      <trkpt lat="42.9934007" lon="-5.745224">
        <ele>1331.23</ele>
        <time>2020-07-21T11:32:30.000Z</time>
      </trkpt>
      <trkpt lat="42.9933948" lon="-5.7452072">
        <ele>1331.38</ele>
        <time>2020-07-21T11:32:31.000Z</time>
      </trkpt>
      <trkpt lat="42.9933895" lon="-5.7451907">
        <ele>1331.38</ele>
        <time>2020-07-21T11:32:32.000Z</time>
      </trkpt>
      <trkpt lat="42.9933842" lon="-5.7451737">
        <ele>1331.38</ele>
        <time>2020-07-21T11:32:33.000Z</time>
      </trkpt>
      <trkpt lat="42.9933783" lon="-5.745156">
        <ele>1331.38</ele>
        <time>2020-07-21T11:32:34.000Z</time>
      </trkpt>
      <trkpt lat="42.993372" lon="-5.7451383">
        <ele>1331.38</ele>
        <time>2020-07-21T11:32:35.000Z</time>
      </trkpt>
      <trkpt lat="42.9933663" lon="-5.7451212">
        <ele>1331.38</ele>
        <time>2020-07-21T11:32:36.000Z</time>
      </trkpt>
      <trkpt lat="42.9933607" lon="-5.7451043">
        <ele>1331.38</ele>
        <time>2020-07-21T11:32:37.000Z</time>
      </trkpt>
      <trkpt lat="42.993355" lon="-5.7450883">
        <ele>1331.38</ele>
        <time>2020-07-21T11:32:38.000Z</time>
      </trkpt>
      <trkpt lat="42.9933488" lon="-5.7450735">
        <ele>1331.38</ele>
        <time>2020-07-21T11:32:39.000Z</time>
      </trkpt>
      <trkpt lat="42.993342" lon="-5.7450602">
        <ele>1331.38</ele>
        <time>2020-07-21T11:32:40.000Z</time>
      </trkpt>
      <trkpt lat="42.9933345" lon="-5.7450472">
        <ele>1331.38</ele>
        <time>2020-07-21T11:32:41.000Z</time>
      </trkpt>
      <trkpt lat="42.9933273" lon="-5.7450332">
        <ele>1331.38</ele>
        <time>2020-07-21T11:32:42.000Z</time>
      </trkpt>
      <trkpt lat="42.9933205" lon="-5.7450182">
        <ele>1331.54</ele>
        <time>2020-07-21T11:32:43.000Z</time>
      </trkpt>
      <trkpt lat="42.9933152" lon="-5.7450025">
        <ele>1331.54</ele>
        <time>2020-07-21T11:32:44.000Z</time>
      </trkpt>
      <trkpt lat="42.9933088" lon="-5.7449862">
        <ele>1331.54</ele>
        <time>2020-07-21T11:32:45.000Z</time>
      </trkpt>
      <trkpt lat="42.993303" lon="-5.7449707">
        <ele>1331.54</ele>
        <time>2020-07-21T11:32:46.000Z</time>
      </trkpt>
      <trkpt lat="42.9932965" lon="-5.7449558">
        <ele>1331.69</ele>
        <time>2020-07-21T11:32:47.000Z</time>
      </trkpt>
      <trkpt lat="42.9932902" lon="-5.7449417">
        <ele>1331.69</ele>
        <time>2020-07-21T11:32:48.000Z</time>
      </trkpt>
      <trkpt lat="42.993282" lon="-5.744927">
        <ele>1331.69</ele>
        <time>2020-07-21T11:32:49.000Z</time>
      </trkpt>
      <trkpt lat="42.9932757" lon="-5.7449133">
        <ele>1331.69</ele>
        <time>2020-07-21T11:32:50.000Z</time>
      </trkpt>
      <trkpt lat="42.9932713" lon="-5.7449017">
        <ele>1331.84</ele>
        <time>2020-07-21T11:32:51.000Z</time>
      </trkpt>
      <trkpt lat="42.9932693" lon="-5.7448868">
        <ele>1331.84</ele>
        <time>2020-07-21T11:32:52.000Z</time>
      </trkpt>
      <trkpt lat="42.9932668" lon="-5.744869">
        <ele>1331.84</ele>
        <time>2020-07-21T11:32:53.000Z</time>
      </trkpt>
      <trkpt lat="42.993264" lon="-5.7448488">
        <ele>1331.84</ele>
        <time>2020-07-21T11:32:54.000Z</time>
      </trkpt>
      <trkpt lat="42.993262" lon="-5.7448325">
        <ele>1331.84</ele>
        <time>2020-07-21T11:32:55.000Z</time>
      </trkpt>
      <trkpt lat="42.9932608" lon="-5.744819">
        <ele>1331.84</ele>
        <time>2020-07-21T11:32:56.000Z</time>
      </trkpt>
      <trkpt lat="42.9932603" lon="-5.7448077">
        <ele>1331.99</ele>
        <time>2020-07-21T11:32:57.000Z</time>
      </trkpt>
      <trkpt lat="42.9932605" lon="-5.744799">
        <ele>1331.99</ele>
        <time>2020-07-21T11:32:58.000Z</time>
      </trkpt>
      <trkpt lat="42.9932615" lon="-5.7447957">
        <ele>1331.99</ele>
        <time>2020-07-21T11:32:59.000Z</time>
      </trkpt>
      <trkpt lat="42.9932623" lon="-5.7447957">
        <ele>1331.99</ele>
        <time>2020-07-21T11:33:00.000Z</time>
      </trkpt>
      <trkpt lat="42.9932622" lon="-5.7447982">
        <ele>1331.99</ele>
        <time>2020-07-21T11:33:01.000Z</time>
      </trkpt>
      <trkpt lat="42.993261" lon="-5.7447995">
        <ele>1331.99</ele>
        <time>2020-07-21T11:33:02.000Z</time>
      </trkpt>
      <trkpt lat="42.9932612" lon="-5.7447977">
        <ele>1331.99</ele>
        <time>2020-07-21T11:33:03.000Z</time>
      </trkpt>
      <trkpt lat="42.9932617" lon="-5.7447953">
        <ele>1331.99</ele>
        <time>2020-07-21T11:33:04.000Z</time>
      </trkpt>
      <trkpt lat="42.9932627" lon="-5.7447908">
        <ele>1331.99</ele>
        <time>2020-07-21T11:33:05.000Z</time>
      </trkpt>
      <trkpt lat="42.9932628" lon="-5.7447893">
        <ele>1331.99</ele>
        <time>2020-07-21T11:33:06.000Z</time>
      </trkpt>
      <trkpt lat="42.9932645" lon="-5.7447873">
        <ele>1331.99</ele>
        <time>2020-07-21T11:33:07.000Z</time>
      </trkpt>
      <trkpt lat="42.9932658" lon="-5.744787">
        <ele>1331.99</ele>
        <time>2020-07-21T11:33:08.000Z</time>
      </trkpt>
      <trkpt lat="42.9932665" lon="-5.7447873">
        <ele>1331.99</ele>
        <time>2020-07-21T11:33:09.000Z</time>
      </trkpt>
      <trkpt lat="42.9932645" lon="-5.7447855">
        <ele>1331.99</ele>
        <time>2020-07-21T11:33:10.000Z</time>
      </trkpt>
      <trkpt lat="42.9932612" lon="-5.74478">
        <ele>1331.99</ele>
        <time>2020-07-21T11:33:11.000Z</time>
      </trkpt>
      <trkpt lat="42.9932563" lon="-5.7447697">
        <ele>1331.99</ele>
        <time>2020-07-21T11:33:12.000Z</time>
      </trkpt>
      <trkpt lat="42.9932493" lon="-5.7447597">
        <ele>1331.99</ele>
        <time>2020-07-21T11:33:13.000Z</time>
      </trkpt>
      <trkpt lat="42.993242" lon="-5.7447512">
        <ele>1331.99</ele>
        <time>2020-07-21T11:33:14.000Z</time>
      </trkpt>
      <trkpt lat="42.993232" lon="-5.744742">
        <ele>1331.84</ele>
        <time>2020-07-21T11:33:15.000Z</time>
      </trkpt>
      <trkpt lat="42.993223" lon="-5.7447295">
        <ele>1331.84</ele>
        <time>2020-07-21T11:33:16.000Z</time>
      </trkpt>
      <trkpt lat="42.9932117" lon="-5.7447128">
        <ele>1331.84</ele>
        <time>2020-07-21T11:33:17.000Z</time>
      </trkpt>
      <trkpt lat="42.9932032" lon="-5.7446977">
        <ele>1331.84</ele>
        <time>2020-07-21T11:33:18.000Z</time>
      </trkpt>
      <trkpt lat="42.9931953" lon="-5.744688">
        <ele>1331.69</ele>
        <time>2020-07-21T11:33:19.000Z</time>
      </trkpt>
      <trkpt lat="42.9931907" lon="-5.7446848">
        <ele>1331.69</ele>
        <time>2020-07-21T11:33:20.000Z</time>
      </trkpt>
      <trkpt lat="42.9931865" lon="-5.7446838">
        <ele>1331.69</ele>
        <time>2020-07-21T11:33:21.000Z</time>
      </trkpt>
      <trkpt lat="42.9931827" lon="-5.7446827">
        <ele>1331.69</ele>
        <time>2020-07-21T11:33:22.000Z</time>
      </trkpt>
      <trkpt lat="42.9931827" lon="-5.7446827">
        <ele>1331.54</ele>
        <time>2020-07-21T11:33:23.000Z</time>
      </trkpt>
      <trkpt lat="42.9931827" lon="-5.7446827">
        <ele>1331.54</ele>
        <time>2020-07-21T11:33:24.000Z</time>
      </trkpt>
      <trkpt lat="42.9931827" lon="-5.7446827">
        <ele>1331.38</ele>
        <time>2020-07-21T11:33:25.000Z</time>
      </trkpt>
      <trkpt lat="42.9931827" lon="-5.7446827">
        <ele>1331.38</ele>
        <time>2020-07-21T11:33:26.000Z</time>
      </trkpt>
      <trkpt lat="42.9931827" lon="-5.7446827">
        <ele>1331.38</ele>
        <time>2020-07-21T11:33:27.000Z</time>
      </trkpt>
      <trkpt lat="42.9931827" lon="-5.7446827">
        <ele>1331.38</ele>
        <time>2020-07-21T11:33:28.000Z</time>
      </trkpt>
      <trkpt lat="42.9931827" lon="-5.7446827">
        <ele>1331.23</ele>
        <time>2020-07-21T11:33:29.000Z</time>
      </trkpt>
      <trkpt lat="42.993178" lon="-5.7446835">
        <ele>1331.23</ele>
        <time>2020-07-21T11:33:30.000Z</time>
      </trkpt>
      <trkpt lat="42.9931743" lon="-5.7446848">
        <ele>1331.23</ele>
        <time>2020-07-21T11:33:31.000Z</time>
      </trkpt>
      <trkpt lat="42.9928893" lon="-5.7444075">
        <ele>1331.23</ele>
        <time>2020-07-21T11:42:27.000Z</time>
      </trkpt>
      <trkpt lat="42.9929" lon="-5.744417">
        <ele>1331.08</ele>
        <time>2020-07-21T11:42:28.000Z</time>
      </trkpt>
      <trkpt lat="42.9929107" lon="-5.7444263">
        <ele>1331.08</ele>
        <time>2020-07-21T11:42:29.000Z</time>
      </trkpt>
      <trkpt lat="42.992919" lon="-5.7444358">
        <ele>1331.08</ele>
        <time>2020-07-21T11:42:30.000Z</time>
      </trkpt>
      <trkpt lat="42.9929278" lon="-5.7444447">
        <ele>1331.08</ele>
        <time>2020-07-21T11:42:31.000Z</time>
      </trkpt>
      <trkpt lat="42.9929367" lon="-5.7444543">
        <ele>1330.93</ele>
        <time>2020-07-21T11:42:32.000Z</time>
      </trkpt>
      <trkpt lat="42.9929452" lon="-5.7444645">
        <ele>1330.93</ele>
        <time>2020-07-21T11:42:33.000Z</time>
      </trkpt>
      <trkpt lat="42.9929533" lon="-5.744476">
        <ele>1330.93</ele>
        <time>2020-07-21T11:42:34.000Z</time>
      </trkpt>
      <trkpt lat="42.9929622" lon="-5.7444882">
        <ele>1330.93</ele>
        <time>2020-07-21T11:42:35.000Z</time>
      </trkpt>
      <trkpt lat="42.9929723" lon="-5.744501">
        <ele>1330.93</ele>
        <time>2020-07-21T11:42:36.000Z</time>
      </trkpt>
      <trkpt lat="42.9929823" lon="-5.7445133">
        <ele>1330.93</ele>
        <time>2020-07-21T11:42:37.000Z</time>
      </trkpt>
      <trkpt lat="42.9929918" lon="-5.7445258">
        <ele>1330.77</ele>
        <time>2020-07-21T11:42:38.000Z</time>
      </trkpt>
      <trkpt lat="42.9929995" lon="-5.744538">
        <ele>1330.77</ele>
        <time>2020-07-21T11:42:39.000Z</time>
      </trkpt>
      <trkpt lat="42.9930065" lon="-5.7445507">
        <ele>1330.77</ele>
        <time>2020-07-21T11:42:40.000Z</time>
      </trkpt>
      <trkpt lat="42.9930133" lon="-5.7445633">
        <ele>1330.77</ele>
        <time>2020-07-21T11:42:41.000Z</time>
      </trkpt>
      <trkpt lat="42.993021" lon="-5.744576">
        <ele>1330.77</ele>
        <time>2020-07-21T11:42:42.000Z</time>
      </trkpt>
      <trkpt lat="42.9930292" lon="-5.7445885">
        <ele>1330.77</ele>
        <time>2020-07-21T11:42:43.000Z</time>
      </trkpt>
      <trkpt lat="42.9930375" lon="-5.7446003">
        <ele>1330.77</ele>
        <time>2020-07-21T11:42:44.000Z</time>
      </trkpt>
      <trkpt lat="42.9930455" lon="-5.7446122">
        <ele>1330.77</ele>
        <time>2020-07-21T11:42:45.000Z</time>
      </trkpt>
      <trkpt lat="42.9930527" lon="-5.7446238">
        <ele>1330.77</ele>
        <time>2020-07-21T11:42:46.000Z</time>
      </trkpt>
      <trkpt lat="42.9930587" lon="-5.7446363">
        <ele>1330.77</ele>
        <time>2020-07-21T11:42:47.000Z</time>
      </trkpt>
      <trkpt lat="42.9930638" lon="-5.7446495">
        <ele>1330.93</ele>
        <time>2020-07-21T11:42:48.000Z</time>
      </trkpt>
      <trkpt lat="42.9930693" lon="-5.7446638">
        <ele>1330.93</ele>
        <time>2020-07-21T11:42:49.000Z</time>
      </trkpt>
      <trkpt lat="42.9930745" lon="-5.7446787">
        <ele>1330.93</ele>
        <time>2020-07-21T11:42:50.000Z</time>
      </trkpt>
      <trkpt lat="42.9930798" lon="-5.7446933">
        <ele>1330.93</ele>
        <time>2020-07-21T11:42:51.000Z</time>
      </trkpt>
      <trkpt lat="42.9930843" lon="-5.7447072">
        <ele>1331.08</ele>
        <time>2020-07-21T11:42:52.000Z</time>
      </trkpt>
      <trkpt lat="42.993089" lon="-5.7447195">
        <ele>1331.08</ele>
        <time>2020-07-21T11:42:53.000Z</time>
      </trkpt>
      <trkpt lat="42.9930933" lon="-5.7447312">
        <ele>1331.08</ele>
        <time>2020-07-21T11:42:54.000Z</time>
      </trkpt>
      <trkpt lat="42.9930967" lon="-5.7447428">
        <ele>1331.08</ele>
        <time>2020-07-21T11:42:55.000Z</time>
      </trkpt>
      <trkpt lat="42.9931" lon="-5.7447545">
        <ele>1331.08</ele>
        <time>2020-07-21T11:42:56.000Z</time>
      </trkpt>
      <trkpt lat="42.9931043" lon="-5.7447663">
        <ele>1331.08</ele>
        <time>2020-07-21T11:42:57.000Z</time>
      </trkpt>
      <trkpt lat="42.9931107" lon="-5.7447812">
        <ele>1331.23</ele>
        <time>2020-07-21T11:42:58.000Z</time>
      </trkpt>
      <trkpt lat="42.9931165" lon="-5.7447965">
        <ele>1331.23</ele>
        <time>2020-07-21T11:42:59.000Z</time>
      </trkpt>
      <trkpt lat="42.9931213" lon="-5.7448105">
        <ele>1331.23</ele>
        <time>2020-07-21T11:43:00.000Z</time>
      </trkpt>
      <trkpt lat="42.993125" lon="-5.7448217">
        <ele>1331.23</ele>
        <time>2020-07-21T11:43:01.000Z</time>
      </trkpt>
      <trkpt lat="42.993128" lon="-5.7448327">
        <ele>1331.23</ele>
        <time>2020-07-21T11:43:02.000Z</time>
      </trkpt>
      <trkpt lat="42.9931308" lon="-5.744845">
        <ele>1331.23</ele>
        <time>2020-07-21T11:43:03.000Z</time>
      </trkpt>
      <trkpt lat="42.9931332" lon="-5.7448562">
        <ele>1331.38</ele>
        <time>2020-07-21T11:43:04.000Z</time>
      </trkpt>
      <trkpt lat="42.993137" lon="-5.7448678">
        <ele>1331.38</ele>
        <time>2020-07-21T11:43:05.000Z</time>
      </trkpt>
      <trkpt lat="42.993142" lon="-5.7448787">
        <ele>1331.38</ele>
        <time>2020-07-21T11:43:06.000Z</time>
      </trkpt>
      <trkpt lat="42.9931493" lon="-5.7448877">
        <ele>1331.38</ele>
        <time>2020-07-21T11:43:07.000Z</time>
      </trkpt>
      <trkpt lat="42.9931587" lon="-5.7448925">
        <ele>1331.38</ele>
        <time>2020-07-21T11:43:08.000Z</time>
      </trkpt>
      <trkpt lat="42.9931732" lon="-5.7448945">
        <ele>1331.38</ele>
        <time>2020-07-21T11:43:09.000Z</time>
      </trkpt>
      <trkpt lat="42.9931882" lon="-5.7448942">
        <ele>1331.38</ele>
        <time>2020-07-21T11:43:10.000Z</time>
      </trkpt>
      <trkpt lat="42.993201" lon="-5.7448972">
        <ele>1331.38</ele>
        <time>2020-07-21T11:43:11.000Z</time>
      </trkpt>
      <trkpt lat="42.9932083" lon="-5.7449037">
        <ele>1331.54</ele>
        <time>2020-07-21T11:43:12.000Z</time>
      </trkpt>
      <trkpt lat="42.9932157" lon="-5.7449185">
        <ele>1331.54</ele>
        <time>2020-07-21T11:43:13.000Z</time>
      </trkpt>
      <trkpt lat="42.9932247" lon="-5.7449365">
        <ele>1331.54</ele>
        <time>2020-07-21T11:43:14.000Z</time>
      </trkpt>
      <trkpt lat="42.9932333" lon="-5.7449565">
        <ele>1331.54</ele>
        <time>2020-07-21T11:43:15.000Z</time>
      </trkpt>
      <trkpt lat="42.9932398" lon="-5.744976">
        <ele>1331.54</ele>
        <time>2020-07-21T11:43:16.000Z</time>
      </trkpt>
      <trkpt lat="42.9932418" lon="-5.744997">
        <ele>1331.54</ele>
        <time>2020-07-21T11:43:17.000Z</time>
      </trkpt>
      <trkpt lat="42.9932385" lon="-5.7450157">
        <ele>1331.54</ele>
        <time>2020-07-21T11:43:18.000Z</time>
      </trkpt>
      <trkpt lat="42.9932352" lon="-5.7450337">
        <ele>1331.54</ele>
        <time>2020-07-21T11:43:19.000Z</time>
      </trkpt>
      <trkpt lat="42.9932345" lon="-5.7450485">
        <ele>1331.54</ele>
        <time>2020-07-21T11:43:20.000Z</time>
      </trkpt>
      <trkpt lat="42.9932383" lon="-5.7450645">
        <ele>1331.54</ele>
        <time>2020-07-21T11:43:21.000Z</time>
      </trkpt>
      <trkpt lat="42.9932408" lon="-5.7450788">
        <ele>1331.54</ele>
        <time>2020-07-21T11:43:22.000Z</time>
      </trkpt>
      <trkpt lat="42.9932433" lon="-5.7450928">
        <ele>1331.54</ele>
        <time>2020-07-21T11:43:23.000Z</time>
      </trkpt>
      <trkpt lat="42.99325" lon="-5.7451085">
        <ele>1331.54</ele>
        <time>2020-07-21T11:43:24.000Z</time>
      </trkpt>
      <trkpt lat="42.9932592" lon="-5.7451243">
        <ele>1331.54</ele>
        <time>2020-07-21T11:43:25.000Z</time>
      </trkpt>
      <trkpt lat="42.9932692" lon="-5.7451417">
        <ele>1331.54</ele>
        <time>2020-07-21T11:43:26.000Z</time>
      </trkpt>
      <trkpt lat="42.993277" lon="-5.7451592">
        <ele>1331.54</ele>
        <time>2020-07-21T11:43:27.000Z</time>
      </trkpt>
      <trkpt lat="42.9932818" lon="-5.745178">
        <ele>1331.69</ele>
        <time>2020-07-21T11:43:28.000Z</time>
      </trkpt>
      <trkpt lat="42.9932877" lon="-5.7451963">
        <ele>1331.69</ele>
        <time>2020-07-21T11:43:29.000Z</time>
      </trkpt>
      <trkpt lat="42.9932917" lon="-5.7452147">
        <ele>1331.69</ele>
        <time>2020-07-21T11:43:30.000Z</time>
      </trkpt>
      <trkpt lat="42.9932972" lon="-5.7452328">
        <ele>1331.69</ele>
        <time>2020-07-21T11:43:31.000Z</time>
      </trkpt>
      <trkpt lat="42.993301" lon="-5.7452513">
        <ele>1331.69</ele>
        <time>2020-07-21T11:43:32.000Z</time>
      </trkpt>
      <trkpt lat="42.9933053" lon="-5.7452687">
        <ele>1331.69</ele>
        <time>2020-07-21T11:43:33.000Z</time>
      </trkpt>
      <trkpt lat="42.9933098" lon="-5.7452853">
        <ele>1331.69</ele>
        <time>2020-07-21T11:43:34.000Z</time>
      </trkpt>
      <trkpt lat="42.9933142" lon="-5.7453015">
        <ele>1331.69</ele>
        <time>2020-07-21T11:43:35.000Z</time>
      </trkpt>
      <trkpt lat="42.9933172" lon="-5.7453183">
        <ele>1331.69</ele>
        <time>2020-07-21T11:43:36.000Z</time>
      </trkpt>
      <trkpt lat="42.99332" lon="-5.7453358">
        <ele>1331.69</ele>
        <time>2020-07-21T11:43:37.000Z</time>
      </trkpt>
      <trkpt lat="42.993324" lon="-5.745353">
        <ele>1331.69</ele>
        <time>2020-07-21T11:43:38.000Z</time>
      </trkpt>
      <trkpt lat="42.9933297" lon="-5.745369">
        <ele>1331.69</ele>
        <time>2020-07-21T11:43:39.000Z</time>
      </trkpt>
      <trkpt lat="42.9933358" lon="-5.7453852">
        <ele>1331.69</ele>
        <time>2020-07-21T11:43:40.000Z</time>
      </trkpt>
      <trkpt lat="42.9933408" lon="-5.7454017">
        <ele>1331.69</ele>
        <time>2020-07-21T11:43:41.000Z</time>
      </trkpt>
      <trkpt lat="42.9933465" lon="-5.7454183">
        <ele>1331.69</ele>
        <time>2020-07-21T11:43:42.000Z</time>
      </trkpt>
      <trkpt lat="42.9933517" lon="-5.7454345">
        <ele>1331.69</ele>
        <time>2020-07-21T11:43:43.000Z</time>
      </trkpt>
      <trkpt lat="42.9933572" lon="-5.7454507">
        <ele>1331.69</ele>
        <time>2020-07-21T11:43:44.000Z</time>
      </trkpt>
      <trkpt lat="42.9933618" lon="-5.745467">
        <ele>1331.69</ele>
        <time>2020-07-21T11:43:45.000Z</time>
      </trkpt>
      <trkpt lat="42.9933662" lon="-5.7454833">
        <ele>1331.84</ele>
        <time>2020-07-21T11:43:46.000Z</time>
      </trkpt>
      <trkpt lat="42.9933698" lon="-5.7454998">
        <ele>1331.84</ele>
        <time>2020-07-21T11:43:47.000Z</time>
      </trkpt>
      <trkpt lat="42.993375" lon="-5.7455183">
        <ele>1331.84</ele>
        <time>2020-07-21T11:43:48.000Z</time>
      </trkpt>
      <trkpt lat="42.9933803" lon="-5.7455377">
        <ele>1331.84</ele>
        <time>2020-07-21T11:43:49.000Z</time>
      </trkpt>
      <trkpt lat="42.993386" lon="-5.7455563">
        <ele>1331.84</ele>
        <time>2020-07-21T11:43:50.000Z</time>
      </trkpt>
      <trkpt lat="42.9933902" lon="-5.7455737">
        <ele>1331.84</ele>
        <time>2020-07-21T11:43:51.000Z</time>
      </trkpt>
      <trkpt lat="42.9933943" lon="-5.7455908">
        <ele>1331.84</ele>
        <time>2020-07-21T11:43:52.000Z</time>
      </trkpt>
      <trkpt lat="42.993398" lon="-5.7456083">
        <ele>1331.84</ele>
        <time>2020-07-21T11:43:53.000Z</time>
      </trkpt>
      <trkpt lat="42.9934017" lon="-5.7456255">
        <ele>1331.99</ele>
        <time>2020-07-21T11:43:54.000Z</time>
      </trkpt>
      <trkpt lat="42.9934053" lon="-5.7456422">
        <ele>1331.99</ele>
        <time>2020-07-21T11:43:55.000Z</time>
      </trkpt>
      <trkpt lat="42.9934088" lon="-5.7456585">
        <ele>1331.99</ele>
        <time>2020-07-21T11:43:56.000Z</time>
      </trkpt>
      <trkpt lat="42.9934122" lon="-5.7456745">
        <ele>1331.99</ele>
        <time>2020-07-21T11:43:57.000Z</time>
      </trkpt>
      <trkpt lat="42.9934147" lon="-5.7456908">
        <ele>1331.99</ele>
        <time>2020-07-21T11:43:58.000Z</time>
      </trkpt>
      <trkpt lat="42.9934172" lon="-5.7457082">
        <ele>1331.99</ele>
        <time>2020-07-21T11:43:59.000Z</time>
      </trkpt>
      <trkpt lat="42.9934197" lon="-5.7457258">
        <ele>1332.15</ele>
        <time>2020-07-21T11:44:00.000Z</time>
      </trkpt>
      <trkpt lat="42.9934225" lon="-5.745744">
        <ele>1332.15</ele>
        <time>2020-07-21T11:44:01.000Z</time>
      </trkpt>
      <trkpt lat="42.9934258" lon="-5.7457627">
        <ele>1332.15</ele>
        <time>2020-07-21T11:44:02.000Z</time>
      </trkpt>
      <trkpt lat="42.9934295" lon="-5.7457812">
        <ele>1332.15</ele>
        <time>2020-07-21T11:44:03.000Z</time>
      </trkpt>
      <trkpt lat="42.993433" lon="-5.7457985">
        <ele>1332.15</ele>
        <time>2020-07-21T11:44:04.000Z</time>
      </trkpt>
      <trkpt lat="42.993436" lon="-5.7458145">
        <ele>1332.15</ele>
        <time>2020-07-21T11:44:05.000Z</time>
      </trkpt>
      <trkpt lat="42.9934373" lon="-5.745831">
        <ele>1332.3</ele>
        <time>2020-07-21T11:44:06.000Z</time>
      </trkpt>
      <trkpt lat="42.9934368" lon="-5.7458487">
        <ele>1332.3</ele>
        <time>2020-07-21T11:44:07.000Z</time>
      </trkpt>
      <trkpt lat="42.9934358" lon="-5.7458683">
        <ele>1332.3</ele>
        <time>2020-07-21T11:44:08.000Z</time>
      </trkpt>
      <trkpt lat="42.993436" lon="-5.7458875">
        <ele>1332.3</ele>
        <time>2020-07-21T11:44:09.000Z</time>
      </trkpt>
      <trkpt lat="42.9934363" lon="-5.7459043">
        <ele>1332.45</ele>
        <time>2020-07-21T11:44:10.000Z</time>
      </trkpt>
      <trkpt lat="42.9934372" lon="-5.7459183">
        <ele>1332.45</ele>
        <time>2020-07-21T11:44:11.000Z</time>
      </trkpt>
      <trkpt lat="42.9934388" lon="-5.745932">
        <ele>1332.45</ele>
        <time>2020-07-21T11:44:12.000Z</time>
      </trkpt>
      <trkpt lat="42.9934412" lon="-5.7459465">
        <ele>1332.45</ele>
        <time>2020-07-21T11:44:13.000Z</time>
      </trkpt>
      <trkpt lat="42.9934438" lon="-5.7459643">
        <ele>1332.6</ele>
        <time>2020-07-21T11:44:14.000Z</time>
      </trkpt>
      <trkpt lat="42.9934462" lon="-5.7459827">
        <ele>1332.6</ele>
        <time>2020-07-21T11:44:15.000Z</time>
      </trkpt>
      <trkpt lat="42.993449" lon="-5.7460008">
        <ele>1332.6</ele>
        <time>2020-07-21T11:44:16.000Z</time>
      </trkpt>
      <trkpt lat="42.9934517" lon="-5.7460178">
        <ele>1332.6</ele>
        <time>2020-07-21T11:44:17.000Z</time>
      </trkpt>
      <trkpt lat="42.9934555" lon="-5.7460347">
        <ele>1332.6</ele>
        <time>2020-07-21T11:44:18.000Z</time>
      </trkpt>
      <trkpt lat="42.9934602" lon="-5.746052">
        <ele>1332.6</ele>
        <time>2020-07-21T11:44:19.000Z</time>
      </trkpt>
      <trkpt lat="42.9934643" lon="-5.7460688">
        <ele>1332.75</ele>
        <time>2020-07-21T11:44:20.000Z</time>
      </trkpt>
      <trkpt lat="42.9934677" lon="-5.7460867">
        <ele>1332.75</ele>
        <time>2020-07-21T11:44:21.000Z</time>
      </trkpt>
      <trkpt lat="42.993471" lon="-5.7461052">
        <ele>1332.75</ele>
        <time>2020-07-21T11:44:22.000Z</time>
      </trkpt>
      <trkpt lat="42.9934747" lon="-5.7461237">
        <ele>1332.75</ele>
        <time>2020-07-21T11:44:23.000Z</time>
      </trkpt>
      <trkpt lat="42.9934782" lon="-5.746141">
        <ele>1332.75</ele>
        <time>2020-07-21T11:44:24.000Z</time>
      </trkpt>
      <trkpt lat="42.9934822" lon="-5.7461573">
        <ele>1332.75</ele>
        <time>2020-07-21T11:44:25.000Z</time>
      </trkpt>
      <trkpt lat="42.9934868" lon="-5.746174">
        <ele>1332.91</ele>
        <time>2020-07-21T11:44:26.000Z</time>
      </trkpt>
      <trkpt lat="42.9934912" lon="-5.7461917">
        <ele>1332.91</ele>
        <time>2020-07-21T11:44:27.000Z</time>
      </trkpt>
      <trkpt lat="42.9934933" lon="-5.7462103">
        <ele>1332.91</ele>
        <time>2020-07-21T11:44:28.000Z</time>
      </trkpt>
      <trkpt lat="42.9934942" lon="-5.74623">
        <ele>1332.91</ele>
        <time>2020-07-21T11:44:29.000Z</time>
      </trkpt>
      <trkpt lat="42.9934955" lon="-5.7462485">
        <ele>1333.06</ele>
        <time>2020-07-21T11:44:30.000Z</time>
      </trkpt>
      <trkpt lat="42.9934973" lon="-5.7462657">
        <ele>1333.06</ele>
        <time>2020-07-21T11:44:31.000Z</time>
      </trkpt>
      <trkpt lat="42.9934998" lon="-5.7462803">
        <ele>1333.06</ele>
        <time>2020-07-21T11:44:32.000Z</time>
      </trkpt>
      <trkpt lat="42.9935008" lon="-5.7462965">
        <ele>1333.06</ele>
        <time>2020-07-21T11:44:33.000Z</time>
      </trkpt>
      <trkpt lat="42.9935017" lon="-5.7463137">
        <ele>1333.21</ele>
        <time>2020-07-21T11:44:34.000Z</time>
      </trkpt>
      <trkpt lat="42.993502" lon="-5.7463337">
        <ele>1333.21</ele>
        <time>2020-07-21T11:44:35.000Z</time>
      </trkpt>
      <trkpt lat="42.9935023" lon="-5.7463533">
        <ele>1333.21</ele>
        <time>2020-07-21T11:44:36.000Z</time>
      </trkpt>
      <trkpt lat="42.9935035" lon="-5.746373">
        <ele>1333.21</ele>
        <time>2020-07-21T11:44:37.000Z</time>
      </trkpt>
      <trkpt lat="42.993504" lon="-5.7463915">
        <ele>1333.36</ele>
        <time>2020-07-21T11:44:38.000Z</time>
      </trkpt>
      <trkpt lat="42.9935038" lon="-5.7464095">
        <ele>1333.36</ele>
        <time>2020-07-21T11:44:39.000Z</time>
      </trkpt>
      <trkpt lat="42.9935032" lon="-5.7464272">
        <ele>1333.52</ele>
        <time>2020-07-21T11:44:40.000Z</time>
      </trkpt>
      <trkpt lat="42.9935022" lon="-5.746445">
        <ele>1333.52</ele>
        <time>2020-07-21T11:44:41.000Z</time>
      </trkpt>
      <trkpt lat="42.9935012" lon="-5.7464642">
        <ele>1333.52</ele>
        <time>2020-07-21T11:44:42.000Z</time>
      </trkpt>
      <trkpt lat="42.9935003" lon="-5.7464837">
        <ele>1333.52</ele>
        <time>2020-07-21T11:44:43.000Z</time>
      </trkpt>
      <trkpt lat="42.9935" lon="-5.7465037">
        <ele>1333.67</ele>
        <time>2020-07-21T11:44:44.000Z</time>
      </trkpt>
      <trkpt lat="42.9935003" lon="-5.7465228">
        <ele>1333.67</ele>
        <time>2020-07-21T11:44:45.000Z</time>
      </trkpt>
      <trkpt lat="42.9935008" lon="-5.7465422">
        <ele>1333.82</ele>
        <time>2020-07-21T11:44:46.000Z</time>
      </trkpt>
      <trkpt lat="42.9935012" lon="-5.7465612">
        <ele>1333.82</ele>
        <time>2020-07-21T11:44:47.000Z</time>
      </trkpt>
      <trkpt lat="42.993501" lon="-5.7465795">
        <ele>1333.82</ele>
        <time>2020-07-21T11:44:48.000Z</time>
      </trkpt>
      <trkpt lat="42.9935003" lon="-5.7465972">
        <ele>1333.82</ele>
        <time>2020-07-21T11:44:49.000Z</time>
      </trkpt>
      <trkpt lat="42.993499" lon="-5.7466167">
        <ele>1333.97</ele>
        <time>2020-07-21T11:44:50.000Z</time>
      </trkpt>
      <trkpt lat="42.9934982" lon="-5.7466367">
        <ele>1333.97</ele>
        <time>2020-07-21T11:44:51.000Z</time>
      </trkpt>
      <trkpt lat="42.9934983" lon="-5.7466573">
        <ele>1334.13</ele>
        <time>2020-07-21T11:44:52.000Z</time>
      </trkpt>
      <trkpt lat="42.993499" lon="-5.7466763">
        <ele>1334.13</ele>
        <time>2020-07-21T11:44:53.000Z</time>
      </trkpt>
      <trkpt lat="42.9934993" lon="-5.7466947">
        <ele>1334.13</ele>
        <time>2020-07-21T11:44:54.000Z</time>
      </trkpt>
      <trkpt lat="42.9934992" lon="-5.7467125">
        <ele>1334.13</ele>
        <time>2020-07-21T11:44:55.000Z</time>
      </trkpt>
      <trkpt lat="42.993499" lon="-5.746731">
        <ele>1334.28</ele>
        <time>2020-07-21T11:44:56.000Z</time>
      </trkpt>
      <trkpt lat="42.993499" lon="-5.7467503">
        <ele>1334.28</ele>
        <time>2020-07-21T11:44:57.000Z</time>
      </trkpt>
      <trkpt lat="42.9934985" lon="-5.7467705">
        <ele>1334.43</ele>
        <time>2020-07-21T11:44:58.000Z</time>
      </trkpt>
      <trkpt lat="42.993498" lon="-5.7467908">
        <ele>1334.43</ele>
        <time>2020-07-21T11:44:59.000Z</time>
      </trkpt>
      <trkpt lat="42.9934972" lon="-5.74681">
        <ele>1334.58</ele>
        <time>2020-07-21T11:45:00.000Z</time>
      </trkpt>
      <trkpt lat="42.9934958" lon="-5.7468272">
        <ele>1334.58</ele>
        <time>2020-07-21T11:45:01.000Z</time>
      </trkpt>
      <trkpt lat="42.9934938" lon="-5.7468435">
        <ele>1334.58</ele>
        <time>2020-07-21T11:45:02.000Z</time>
      </trkpt>
      <trkpt lat="42.993492" lon="-5.7468603">
        <ele>1334.58</ele>
        <time>2020-07-21T11:45:03.000Z</time>
      </trkpt>
      <trkpt lat="42.993491" lon="-5.7468803">
        <ele>1334.73</ele>
        <time>2020-07-21T11:45:04.000Z</time>
      </trkpt>
      <trkpt lat="42.9934905" lon="-5.7469008">
        <ele>1334.73</ele>
        <time>2020-07-21T11:45:05.000Z</time>
      </trkpt>
      <trkpt lat="42.9934902" lon="-5.7469218">
        <ele>1334.89</ele>
        <time>2020-07-21T11:45:06.000Z</time>
      </trkpt>
      <trkpt lat="42.9934888" lon="-5.7469408">
        <ele>1334.89</ele>
        <time>2020-07-21T11:45:07.000Z</time>
      </trkpt>
      <trkpt lat="42.9934872" lon="-5.7469595">
        <ele>1334.89</ele>
        <time>2020-07-21T11:45:08.000Z</time>
      </trkpt>
      <trkpt lat="42.9934852" lon="-5.7469778">
        <ele>1334.89</ele>
        <time>2020-07-21T11:45:09.000Z</time>
      </trkpt>
      <trkpt lat="42.993483" lon="-5.7469962">
        <ele>1335.04</ele>
        <time>2020-07-21T11:45:10.000Z</time>
      </trkpt>
      <trkpt lat="42.9934807" lon="-5.747013">
        <ele>1335.04</ele>
        <time>2020-07-21T11:45:11.000Z</time>
      </trkpt>
      <trkpt lat="42.9934785" lon="-5.7470307">
        <ele>1335.04</ele>
        <time>2020-07-21T11:45:12.000Z</time>
      </trkpt>
      <trkpt lat="42.9934765" lon="-5.7470485">
        <ele>1335.04</ele>
        <time>2020-07-21T11:45:13.000Z</time>
      </trkpt>
      <trkpt lat="42.9934742" lon="-5.7470685">
        <ele>1335.19</ele>
        <time>2020-07-21T11:45:14.000Z</time>
      </trkpt>
      <trkpt lat="42.9934713" lon="-5.747088">
        <ele>1335.19</ele>
        <time>2020-07-21T11:45:15.000Z</time>
      </trkpt>
      <trkpt lat="42.9934678" lon="-5.7471073">
        <ele>1335.19</ele>
        <time>2020-07-21T11:45:16.000Z</time>
      </trkpt>
      <trkpt lat="42.9934647" lon="-5.747126">
        <ele>1335.19</ele>
        <time>2020-07-21T11:45:17.000Z</time>
      </trkpt>
      <trkpt lat="42.9934612" lon="-5.7471438">
        <ele>1335.19</ele>
        <time>2020-07-21T11:45:18.000Z</time>
      </trkpt>
      <trkpt lat="42.9934585" lon="-5.7471613">
        <ele>1335.19</ele>
        <time>2020-07-21T11:45:19.000Z</time>
      </trkpt>
      <trkpt lat="42.9934555" lon="-5.7471785">
        <ele>1335.34</ele>
        <time>2020-07-21T11:45:20.000Z</time>
      </trkpt>
      <trkpt lat="42.9934528" lon="-5.7471963">
        <ele>1335.34</ele>
        <time>2020-07-21T11:45:21.000Z</time>
      </trkpt>
      <trkpt lat="42.99345" lon="-5.7472152">
        <ele>1335.34</ele>
        <time>2020-07-21T11:45:22.000Z</time>
      </trkpt>
      <trkpt lat="42.9934473" lon="-5.747235">
        <ele>1335.34</ele>
        <time>2020-07-21T11:45:23.000Z</time>
      </trkpt>
      <trkpt lat="42.993445" lon="-5.747255">
        <ele>1335.5</ele>
        <time>2020-07-21T11:45:24.000Z</time>
      </trkpt>
      <trkpt lat="42.9934423" lon="-5.747274">
        <ele>1335.5</ele>
        <time>2020-07-21T11:45:25.000Z</time>
      </trkpt>
      <trkpt lat="42.9934392" lon="-5.747292">
        <ele>1335.5</ele>
        <time>2020-07-21T11:45:26.000Z</time>
      </trkpt>
      <trkpt lat="42.9934355" lon="-5.7473092">
        <ele>1335.5</ele>
        <time>2020-07-21T11:45:27.000Z</time>
      </trkpt>
      <trkpt lat="42.9934322" lon="-5.7473268">
        <ele>1335.65</ele>
        <time>2020-07-21T11:45:28.000Z</time>
      </trkpt>
      <trkpt lat="42.9934297" lon="-5.7473462">
        <ele>1335.65</ele>
        <time>2020-07-21T11:45:29.000Z</time>
      </trkpt>
      <trkpt lat="42.993427" lon="-5.7473662">
        <ele>1335.65</ele>
        <time>2020-07-21T11:45:30.000Z</time>
      </trkpt>
      <trkpt lat="42.993424" lon="-5.747387">
        <ele>1335.65</ele>
        <time>2020-07-21T11:45:31.000Z</time>
      </trkpt>
      <trkpt lat="42.9934205" lon="-5.747408">
        <ele>1335.8</ele>
        <time>2020-07-21T11:45:32.000Z</time>
      </trkpt>
      <trkpt lat="42.993417" lon="-5.7474287">
        <ele>1335.8</ele>
        <time>2020-07-21T11:45:33.000Z</time>
      </trkpt>
      <trkpt lat="42.9934138" lon="-5.7474485">
        <ele>1335.8</ele>
        <time>2020-07-21T11:45:34.000Z</time>
      </trkpt>
      <trkpt lat="42.9934102" lon="-5.7474665">
        <ele>1335.8</ele>
        <time>2020-07-21T11:45:35.000Z</time>
      </trkpt>
      <trkpt lat="42.9934065" lon="-5.7474835">
        <ele>1335.95</ele>
        <time>2020-07-21T11:45:36.000Z</time>
      </trkpt>
      <trkpt lat="42.993403" lon="-5.7475">
        <ele>1335.95</ele>
        <time>2020-07-21T11:45:37.000Z</time>
      </trkpt>
      <trkpt lat="42.9933993" lon="-5.747517">
        <ele>1336.11</ele>
        <time>2020-07-21T11:45:38.000Z</time>
      </trkpt>
      <trkpt lat="42.9933958" lon="-5.747535">
        <ele>1336.11</ele>
        <time>2020-07-21T11:45:39.000Z</time>
      </trkpt>
      <trkpt lat="42.9933922" lon="-5.747554">
        <ele>1336.11</ele>
        <time>2020-07-21T11:45:40.000Z</time>
      </trkpt>
      <trkpt lat="42.993389" lon="-5.7475743">
        <ele>1336.11</ele>
        <time>2020-07-21T11:45:41.000Z</time>
      </trkpt>
      <trkpt lat="42.993386" lon="-5.7475938">
        <ele>1336.26</ele>
        <time>2020-07-21T11:45:42.000Z</time>
      </trkpt>
      <trkpt lat="42.9933828" lon="-5.7476123">
        <ele>1336.26</ele>
        <time>2020-07-21T11:45:43.000Z</time>
      </trkpt>
      <trkpt lat="42.993379" lon="-5.7476288">
        <ele>1336.26</ele>
        <time>2020-07-21T11:45:44.000Z</time>
      </trkpt>
      <trkpt lat="42.993375" lon="-5.7476448">
        <ele>1336.26</ele>
        <time>2020-07-21T11:45:45.000Z</time>
      </trkpt>
      <trkpt lat="42.993371" lon="-5.7476612">
        <ele>1336.41</ele>
        <time>2020-07-21T11:45:46.000Z</time>
      </trkpt>
      <trkpt lat="42.9933662" lon="-5.747677">
        <ele>1336.41</ele>
        <time>2020-07-21T11:45:47.000Z</time>
      </trkpt>
      <trkpt lat="42.9933602" lon="-5.7476927">
        <ele>1336.56</ele>
        <time>2020-07-21T11:45:48.000Z</time>
      </trkpt>
      <trkpt lat="42.9933548" lon="-5.7477097">
        <ele>1336.56</ele>
        <time>2020-07-21T11:45:49.000Z</time>
      </trkpt>
      <trkpt lat="42.9933502" lon="-5.7477265">
        <ele>1336.72</ele>
        <time>2020-07-21T11:45:50.000Z</time>
      </trkpt>
      <trkpt lat="42.9933465" lon="-5.7477442">
        <ele>1336.72</ele>
        <time>2020-07-21T11:45:51.000Z</time>
      </trkpt>
      <trkpt lat="42.9933427" lon="-5.7477615">
        <ele>1336.72</ele>
        <time>2020-07-21T11:45:52.000Z</time>
      </trkpt>
      <trkpt lat="42.9933383" lon="-5.7477795">
        <ele>1336.72</ele>
        <time>2020-07-21T11:45:53.000Z</time>
      </trkpt>
      <trkpt lat="42.9933337" lon="-5.7477978">
        <ele>1336.87</ele>
        <time>2020-07-21T11:45:54.000Z</time>
      </trkpt>
      <trkpt lat="42.9933277" lon="-5.7478147">
        <ele>1336.87</ele>
        <time>2020-07-21T11:45:55.000Z</time>
      </trkpt>
      <trkpt lat="42.9933222" lon="-5.747832">
        <ele>1337.02</ele>
        <time>2020-07-21T11:45:56.000Z</time>
      </trkpt>
      <trkpt lat="42.9933163" lon="-5.7478485">
        <ele>1337.02</ele>
        <time>2020-07-21T11:45:57.000Z</time>
      </trkpt>
      <trkpt lat="42.9933107" lon="-5.7478645">
        <ele>1337.02</ele>
        <time>2020-07-21T11:45:58.000Z</time>
      </trkpt>
      <trkpt lat="42.9933055" lon="-5.74788">
        <ele>1337.02</ele>
        <time>2020-07-21T11:45:59.000Z</time>
      </trkpt>
      <trkpt lat="42.9933008" lon="-5.7478965">
        <ele>1337.17</ele>
        <time>2020-07-21T11:46:00.000Z</time>
      </trkpt>
      <trkpt lat="42.993296" lon="-5.7479135">
        <ele>1337.17</ele>
        <time>2020-07-21T11:46:01.000Z</time>
      </trkpt>
      <trkpt lat="42.9932908" lon="-5.747931">
        <ele>1337.17</ele>
        <time>2020-07-21T11:46:02.000Z</time>
      </trkpt>
      <trkpt lat="42.9932853" lon="-5.74795">
        <ele>1337.17</ele>
        <time>2020-07-21T11:46:03.000Z</time>
      </trkpt>
      <trkpt lat="42.9932802" lon="-5.7479685">
        <ele>1337.33</ele>
        <time>2020-07-21T11:46:04.000Z</time>
      </trkpt>
      <trkpt lat="42.993275" lon="-5.747986">
        <ele>1337.33</ele>
        <time>2020-07-21T11:46:05.000Z</time>
      </trkpt>
      <trkpt lat="42.9932698" lon="-5.7480007">
        <ele>1337.48</ele>
        <time>2020-07-21T11:46:06.000Z</time>
      </trkpt>
      <trkpt lat="42.993265" lon="-5.7480158">
        <ele>1337.48</ele>
        <time>2020-07-21T11:46:07.000Z</time>
      </trkpt>
      <trkpt lat="42.9932603" lon="-5.7480318">
        <ele>1337.48</ele>
        <time>2020-07-21T11:46:08.000Z</time>
      </trkpt>
      <trkpt lat="42.9932553" lon="-5.7480483">
        <ele>1337.48</ele>
        <time>2020-07-21T11:46:09.000Z</time>
      </trkpt>
      <trkpt lat="42.9932497" lon="-5.7480648">
        <ele>1337.63</ele>
        <time>2020-07-21T11:46:10.000Z</time>
      </trkpt>
      <trkpt lat="42.9932442" lon="-5.7480795">
        <ele>1337.63</ele>
        <time>2020-07-21T11:46:11.000Z</time>
      </trkpt>
      <trkpt lat="42.993239" lon="-5.7480942">
        <ele>1337.78</ele>
        <time>2020-07-21T11:46:12.000Z</time>
      </trkpt>
      <trkpt lat="42.9932337" lon="-5.7481083">
        <ele>1337.78</ele>
        <time>2020-07-21T11:46:13.000Z</time>
      </trkpt>
      <trkpt lat="42.9932283" lon="-5.7481228">
        <ele>1337.94</ele>
        <time>2020-07-21T11:46:14.000Z</time>
      </trkpt>
      <trkpt lat="42.9932233" lon="-5.7481377">
        <ele>1337.94</ele>
        <time>2020-07-21T11:46:15.000Z</time>
      </trkpt>
      <trkpt lat="42.9932188" lon="-5.7481532">
        <ele>1338.09</ele>
        <time>2020-07-21T11:46:16.000Z</time>
      </trkpt>
      <trkpt lat="42.9932138" lon="-5.748168">
        <ele>1338.09</ele>
        <time>2020-07-21T11:46:17.000Z</time>
      </trkpt>
      <trkpt lat="42.9932078" lon="-5.7481827">
        <ele>1338.24</ele>
        <time>2020-07-21T11:46:18.000Z</time>
      </trkpt>
      <trkpt lat="42.993201" lon="-5.7481967">
        <ele>1338.24</ele>
        <time>2020-07-21T11:46:19.000Z</time>
      </trkpt>
      <trkpt lat="42.9931945" lon="-5.7482122">
        <ele>1338.39</ele>
        <time>2020-07-21T11:46:20.000Z</time>
      </trkpt>
      <trkpt lat="42.9931888" lon="-5.7482273">
        <ele>1338.39</ele>
        <time>2020-07-21T11:46:21.000Z</time>
      </trkpt>
      <trkpt lat="42.9931828" lon="-5.7482427">
        <ele>1338.55</ele>
        <time>2020-07-21T11:46:22.000Z</time>
      </trkpt>
      <trkpt lat="42.9931763" lon="-5.748259">
        <ele>1338.55</ele>
        <time>2020-07-21T11:46:23.000Z</time>
      </trkpt>
      <trkpt lat="42.9931697" lon="-5.7482755">
        <ele>1338.7</ele>
        <time>2020-07-21T11:46:24.000Z</time>
      </trkpt>
      <trkpt lat="42.9931627" lon="-5.7482918">
        <ele>1338.7</ele>
        <time>2020-07-21T11:46:25.000Z</time>
      </trkpt>
      <trkpt lat="42.993155" lon="-5.7483062">
        <ele>1338.85</ele>
        <time>2020-07-21T11:46:26.000Z</time>
      </trkpt>
      <trkpt lat="42.9931475" lon="-5.74832">
        <ele>1338.85</ele>
        <time>2020-07-21T11:46:27.000Z</time>
      </trkpt>
      <trkpt lat="42.9931405" lon="-5.7483342">
        <ele>1339</ele>
        <time>2020-07-21T11:46:28.000Z</time>
      </trkpt>
      <trkpt lat="42.9931335" lon="-5.7483487">
        <ele>1339</ele>
        <time>2020-07-21T11:46:29.000Z</time>
      </trkpt>
      <trkpt lat="42.9931265" lon="-5.7483633">
        <ele>1339.16</ele>
        <time>2020-07-21T11:46:30.000Z</time>
      </trkpt>
      <trkpt lat="42.9931192" lon="-5.748378">
        <ele>1339.16</ele>
        <time>2020-07-21T11:46:31.000Z</time>
      </trkpt>
      <trkpt lat="42.993112" lon="-5.7483923">
        <ele>1339.16</ele>
        <time>2020-07-21T11:46:32.000Z</time>
      </trkpt>
      <trkpt lat="42.9931045" lon="-5.748406">
        <ele>1339.16</ele>
        <time>2020-07-21T11:46:33.000Z</time>
      </trkpt>
      <trkpt lat="42.9930973" lon="-5.7484195">
        <ele>1339.31</ele>
        <time>2020-07-21T11:46:34.000Z</time>
      </trkpt>
      <trkpt lat="42.993091" lon="-5.748433">
        <ele>1339.31</ele>
        <time>2020-07-21T11:46:35.000Z</time>
      </trkpt>
      <trkpt lat="42.9930853" lon="-5.7484472">
        <ele>1339.46</ele>
        <time>2020-07-21T11:46:36.000Z</time>
      </trkpt>
      <trkpt lat="42.9930788" lon="-5.7484617">
        <ele>1339.46</ele>
        <time>2020-07-21T11:46:37.000Z</time>
      </trkpt>
      <trkpt lat="42.9930713" lon="-5.7484773">
        <ele>1339.61</ele>
        <time>2020-07-21T11:46:38.000Z</time>
      </trkpt>
      <trkpt lat="42.9930628" lon="-5.7484935">
        <ele>1339.61</ele>
        <time>2020-07-21T11:46:39.000Z</time>
      </trkpt>
      <trkpt lat="42.993055" lon="-5.7485097">
        <ele>1339.61</ele>
        <time>2020-07-21T11:46:40.000Z</time>
      </trkpt>
      <trkpt lat="42.9930475" lon="-5.7485242">
        <ele>1339.61</ele>
        <time>2020-07-21T11:46:41.000Z</time>
      </trkpt>
      <trkpt lat="42.9930402" lon="-5.7485382">
        <ele>1339.77</ele>
        <time>2020-07-21T11:46:42.000Z</time>
      </trkpt>
      <trkpt lat="42.9930325" lon="-5.7485512">
        <ele>1339.77</ele>
        <time>2020-07-21T11:46:43.000Z</time>
      </trkpt>
      <trkpt lat="42.9930245" lon="-5.7485642">
        <ele>1339.92</ele>
        <time>2020-07-21T11:46:44.000Z</time>
      </trkpt>
      <trkpt lat="42.9930168" lon="-5.7485762">
        <ele>1339.92</ele>
        <time>2020-07-21T11:46:45.000Z</time>
      </trkpt>
      <trkpt lat="42.9930085" lon="-5.7485883">
        <ele>1339.92</ele>
        <time>2020-07-21T11:46:46.000Z</time>
      </trkpt>
      <trkpt lat="42.9930002" lon="-5.7485998">
        <ele>1339.92</ele>
        <time>2020-07-21T11:46:47.000Z</time>
      </trkpt>
      <trkpt lat="42.9929917" lon="-5.7486115">
        <ele>1340.07</ele>
        <time>2020-07-21T11:46:48.000Z</time>
      </trkpt>
      <trkpt lat="42.9929827" lon="-5.7486232">
        <ele>1340.07</ele>
        <time>2020-07-21T11:46:49.000Z</time>
      </trkpt>
      <trkpt lat="42.9929732" lon="-5.7486367">
        <ele>1340.22</ele>
        <time>2020-07-21T11:46:50.000Z</time>
      </trkpt>
      <trkpt lat="42.992964" lon="-5.7486502">
        <ele>1340.22</ele>
        <time>2020-07-21T11:46:51.000Z</time>
      </trkpt>
      <trkpt lat="42.9929552" lon="-5.748664">
        <ele>1340.22</ele>
        <time>2020-07-21T11:46:52.000Z</time>
      </trkpt>
      <trkpt lat="42.9929475" lon="-5.7486777">
        <ele>1340.22</ele>
        <time>2020-07-21T11:46:53.000Z</time>
      </trkpt>
      <trkpt lat="42.9929403" lon="-5.7486922">
        <ele>1340.22</ele>
        <time>2020-07-21T11:46:54.000Z</time>
      </trkpt>
      <trkpt lat="42.9929335" lon="-5.7487053">
        <ele>1340.22</ele>
        <time>2020-07-21T11:46:55.000Z</time>
      </trkpt>
      <trkpt lat="42.992926" lon="-5.7487178">
        <ele>1340.37</ele>
        <time>2020-07-21T11:46:56.000Z</time>
      </trkpt>
      <trkpt lat="42.9929172" lon="-5.74873">
        <ele>1340.37</ele>
        <time>2020-07-21T11:46:57.000Z</time>
      </trkpt>
      <trkpt lat="42.9929085" lon="-5.7487443">
        <ele>1340.37</ele>
        <time>2020-07-21T11:46:58.000Z</time>
      </trkpt>
      <trkpt lat="42.9929002" lon="-5.7487585">
        <ele>1340.37</ele>
        <time>2020-07-21T11:46:59.000Z</time>
      </trkpt>
      <trkpt lat="42.9928928" lon="-5.7487728">
        <ele>1340.53</ele>
        <time>2020-07-21T11:47:00.000Z</time>
      </trkpt>
      <trkpt lat="42.9928855" lon="-5.7487862">
        <ele>1340.53</ele>
        <time>2020-07-21T11:47:01.000Z</time>
      </trkpt>
      <trkpt lat="42.9928775" lon="-5.7487998">
        <ele>1340.53</ele>
        <time>2020-07-21T11:47:02.000Z</time>
      </trkpt>
      <trkpt lat="42.9928687" lon="-5.7488127">
        <ele>1340.53</ele>
        <time>2020-07-21T11:47:03.000Z</time>
      </trkpt>
      <trkpt lat="42.9928593" lon="-5.7488258">
        <ele>1340.68</ele>
        <time>2020-07-21T11:47:04.000Z</time>
      </trkpt>
      <trkpt lat="42.9928503" lon="-5.748839">
        <ele>1340.68</ele>
        <time>2020-07-21T11:47:05.000Z</time>
      </trkpt>
      <trkpt lat="42.9928415" lon="-5.7488522">
        <ele>1340.68</ele>
        <time>2020-07-21T11:47:06.000Z</time>
      </trkpt>
      <trkpt lat="42.9928327" lon="-5.7488648">
        <ele>1340.68</ele>
        <time>2020-07-21T11:47:07.000Z</time>
      </trkpt>
      <trkpt lat="42.992823" lon="-5.7488778">
        <ele>1340.83</ele>
        <time>2020-07-21T11:47:08.000Z</time>
      </trkpt>
      <trkpt lat="42.9928132" lon="-5.7488908">
        <ele>1340.83</ele>
        <time>2020-07-21T11:47:09.000Z</time>
      </trkpt>
      <trkpt lat="42.9928035" lon="-5.7489045">
        <ele>1340.83</ele>
        <time>2020-07-21T11:47:10.000Z</time>
      </trkpt>
      <trkpt lat="42.992794" lon="-5.7489177">
        <ele>1340.83</ele>
        <time>2020-07-21T11:47:11.000Z</time>
      </trkpt>
      <trkpt lat="42.9927847" lon="-5.7489312">
        <ele>1340.83</ele>
        <time>2020-07-21T11:47:12.000Z</time>
      </trkpt>
      <trkpt lat="42.9927753" lon="-5.748944">
        <ele>1340.83</ele>
        <time>2020-07-21T11:47:13.000Z</time>
      </trkpt>
      <trkpt lat="42.9927662" lon="-5.748956">
        <ele>1340.98</ele>
        <time>2020-07-21T11:47:14.000Z</time>
      </trkpt>
      <trkpt lat="42.9927567" lon="-5.7489683">
        <ele>1340.98</ele>
        <time>2020-07-21T11:47:15.000Z</time>
      </trkpt>
      <trkpt lat="42.992747" lon="-5.748981">
        <ele>1341.14</ele>
        <time>2020-07-21T11:47:16.000Z</time>
      </trkpt>
      <trkpt lat="42.9927373" lon="-5.7489945">
        <ele>1341.14</ele>
        <time>2020-07-21T11:47:17.000Z</time>
      </trkpt>
      <trkpt lat="42.9927275" lon="-5.7490078">
        <ele>1341.14</ele>
        <time>2020-07-21T11:47:18.000Z</time>
      </trkpt>
      <trkpt lat="42.9927177" lon="-5.7490207">
        <ele>1341.14</ele>
        <time>2020-07-21T11:47:19.000Z</time>
      </trkpt>
      <trkpt lat="42.992708" lon="-5.7490333">
        <ele>1341.29</ele>
        <time>2020-07-21T11:47:20.000Z</time>
      </trkpt>
      <trkpt lat="42.9926987" lon="-5.7490457">
        <ele>1341.29</ele>
        <time>2020-07-21T11:47:21.000Z</time>
      </trkpt>
      <trkpt lat="42.9926895" lon="-5.7490582">
        <ele>1341.44</ele>
        <time>2020-07-21T11:47:22.000Z</time>
      </trkpt>
      <trkpt lat="42.9926797" lon="-5.74907">
        <ele>1341.44</ele>
        <time>2020-07-21T11:47:23.000Z</time>
      </trkpt>
      <trkpt lat="42.9926698" lon="-5.7490815">
        <ele>1341.59</ele>
        <time>2020-07-21T11:47:24.000Z</time>
      </trkpt>
      <trkpt lat="42.9926593" lon="-5.749093">
        <ele>1341.59</ele>
        <time>2020-07-21T11:47:25.000Z</time>
      </trkpt>
      <trkpt lat="42.9926492" lon="-5.7491043">
        <ele>1341.75</ele>
        <time>2020-07-21T11:47:26.000Z</time>
      </trkpt>
      <trkpt lat="42.9926387" lon="-5.749116">
        <ele>1341.75</ele>
        <time>2020-07-21T11:47:27.000Z</time>
      </trkpt>
      <trkpt lat="42.992629" lon="-5.7491273">
        <ele>1341.9</ele>
        <time>2020-07-21T11:47:28.000Z</time>
      </trkpt>
      <trkpt lat="42.9926195" lon="-5.7491385">
        <ele>1341.9</ele>
        <time>2020-07-21T11:47:29.000Z</time>
      </trkpt>
      <trkpt lat="42.9926102" lon="-5.749149">
        <ele>1342.05</ele>
        <time>2020-07-21T11:47:30.000Z</time>
      </trkpt>
      <trkpt lat="42.992601" lon="-5.7491597">
        <ele>1342.05</ele>
        <time>2020-07-21T11:47:31.000Z</time>
      </trkpt>
      <trkpt lat="42.9925915" lon="-5.7491707">
        <ele>1342.05</ele>
        <time>2020-07-21T11:47:32.000Z</time>
      </trkpt>
      <trkpt lat="42.9925813" lon="-5.7491822">
        <ele>1342.05</ele>
        <time>2020-07-21T11:47:33.000Z</time>
      </trkpt>
      <trkpt lat="42.992571" lon="-5.7491935">
        <ele>1342.2</ele>
        <time>2020-07-21T11:47:34.000Z</time>
      </trkpt>
      <trkpt lat="42.992561" lon="-5.7492043">
        <ele>1342.2</ele>
        <time>2020-07-21T11:47:35.000Z</time>
      </trkpt>
      <trkpt lat="42.9925515" lon="-5.7492143">
        <ele>1342.35</ele>
        <time>2020-07-21T11:47:36.000Z</time>
      </trkpt>
      <trkpt lat="42.992542" lon="-5.7492247">
        <ele>1342.35</ele>
        <time>2020-07-21T11:47:37.000Z</time>
      </trkpt>
      <trkpt lat="42.9925322" lon="-5.7492357">
        <ele>1342.51</ele>
        <time>2020-07-21T11:47:38.000Z</time>
      </trkpt>
      <trkpt lat="42.992522" lon="-5.7492473">
        <ele>1342.51</ele>
        <time>2020-07-21T11:47:39.000Z</time>
      </trkpt>
      <trkpt lat="42.9925113" lon="-5.7492587">
        <ele>1342.66</ele>
        <time>2020-07-21T11:47:40.000Z</time>
      </trkpt>
      <trkpt lat="42.9925008" lon="-5.749269">
        <ele>1342.66</ele>
        <time>2020-07-21T11:47:41.000Z</time>
      </trkpt>
      <trkpt lat="42.9924903" lon="-5.7492787">
        <ele>1342.81</ele>
        <time>2020-07-21T11:47:42.000Z</time>
      </trkpt>
      <trkpt lat="42.9924802" lon="-5.7492887">
        <ele>1342.81</ele>
        <time>2020-07-21T11:47:43.000Z</time>
      </trkpt>
      <trkpt lat="42.9924698" lon="-5.7492988">
        <ele>1342.96</ele>
        <time>2020-07-21T11:47:44.000Z</time>
      </trkpt>
      <trkpt lat="42.9924587" lon="-5.7493095">
        <ele>1342.96</ele>
        <time>2020-07-21T11:47:45.000Z</time>
      </trkpt>
      <trkpt lat="42.9924473" lon="-5.7493192">
        <ele>1343.12</ele>
        <time>2020-07-21T11:47:46.000Z</time>
      </trkpt>
      <trkpt lat="42.9924367" lon="-5.7493287">
        <ele>1343.12</ele>
        <time>2020-07-21T11:47:47.000Z</time>
      </trkpt>
      <trkpt lat="42.9924263" lon="-5.7493382">
        <ele>1343.27</ele>
        <time>2020-07-21T11:47:48.000Z</time>
      </trkpt>
      <trkpt lat="42.9924162" lon="-5.749348">
        <ele>1343.27</ele>
        <time>2020-07-21T11:47:49.000Z</time>
      </trkpt>
      <trkpt lat="42.992405" lon="-5.7493583">
        <ele>1343.42</ele>
        <time>2020-07-21T11:47:50.000Z</time>
      </trkpt>
      <trkpt lat="42.9923938" lon="-5.749369">
        <ele>1343.42</ele>
        <time>2020-07-21T11:47:51.000Z</time>
      </trkpt>
      <trkpt lat="42.9923833" lon="-5.74938">
        <ele>1343.57</ele>
        <time>2020-07-21T11:47:52.000Z</time>
      </trkpt>
      <trkpt lat="42.9923735" lon="-5.7493902">
        <ele>1343.57</ele>
        <time>2020-07-21T11:47:53.000Z</time>
      </trkpt>
      <trkpt lat="42.9923633" lon="-5.7493998">
        <ele>1343.57</ele>
        <time>2020-07-21T11:47:54.000Z</time>
      </trkpt>
      <trkpt lat="42.9923525" lon="-5.7494097">
        <ele>1343.57</ele>
        <time>2020-07-21T11:47:55.000Z</time>
      </trkpt>
      <trkpt lat="42.992341" lon="-5.7494192">
        <ele>1343.73</ele>
        <time>2020-07-21T11:47:56.000Z</time>
      </trkpt>
      <trkpt lat="42.99233" lon="-5.7494277">
        <ele>1343.73</ele>
        <time>2020-07-21T11:47:57.000Z</time>
      </trkpt>
      <trkpt lat="42.9923187" lon="-5.7494358">
        <ele>1343.88</ele>
        <time>2020-07-21T11:47:58.000Z</time>
      </trkpt>
      <trkpt lat="42.9923068" lon="-5.7494452">
        <ele>1343.88</ele>
        <time>2020-07-21T11:47:59.000Z</time>
      </trkpt>
      <trkpt lat="42.9922942" lon="-5.7494565">
        <ele>1344.03</ele>
        <time>2020-07-21T11:48:00.000Z</time>
      </trkpt>
      <trkpt lat="42.9922812" lon="-5.7494687">
        <ele>1344.03</ele>
        <time>2020-07-21T11:48:01.000Z</time>
      </trkpt>
      <trkpt lat="42.9922683" lon="-5.7494802">
        <ele>1344.34</ele>
        <time>2020-07-21T11:48:02.000Z</time>
      </trkpt>
      <trkpt lat="42.9922558" lon="-5.7494903">
        <ele>1344.34</ele>
        <time>2020-07-21T11:48:03.000Z</time>
      </trkpt>
      <trkpt lat="42.9922443" lon="-5.7495">
        <ele>1344.49</ele>
        <time>2020-07-21T11:48:04.000Z</time>
      </trkpt>
      <trkpt lat="42.9922332" lon="-5.749509">
        <ele>1344.49</ele>
        <time>2020-07-21T11:48:05.000Z</time>
      </trkpt>
      <trkpt lat="42.992223" lon="-5.7495175">
        <ele>1344.64</ele>
        <time>2020-07-21T11:48:06.000Z</time>
      </trkpt>
      <trkpt lat="42.9922122" lon="-5.7495263">
        <ele>1344.64</ele>
        <time>2020-07-21T11:48:07.000Z</time>
      </trkpt>
      <trkpt lat="42.9922013" lon="-5.7495352">
        <ele>1344.95</ele>
        <time>2020-07-21T11:48:08.000Z</time>
      </trkpt>
      <trkpt lat="42.9921897" lon="-5.7495447">
        <ele>1344.95</ele>
        <time>2020-07-21T11:48:09.000Z</time>
      </trkpt>
      <trkpt lat="42.9921785" lon="-5.7495537">
        <ele>1345.1</ele>
        <time>2020-07-21T11:48:10.000Z</time>
      </trkpt>
      <trkpt lat="42.9921672" lon="-5.7495633">
        <ele>1345.1</ele>
        <time>2020-07-21T11:48:11.000Z</time>
      </trkpt>
      <trkpt lat="42.9921557" lon="-5.7495727">
        <ele>1345.25</ele>
        <time>2020-07-21T11:48:12.000Z</time>
      </trkpt>
      <trkpt lat="42.992142" lon="-5.7495837">
        <ele>1345.25</ele>
        <time>2020-07-21T11:48:13.000Z</time>
      </trkpt>
      <trkpt lat="42.992128" lon="-5.7495938">
        <ele>1345.56</ele>
        <time>2020-07-21T11:48:14.000Z</time>
      </trkpt>
      <trkpt lat="42.9921128" lon="-5.7496052">
        <ele>1345.56</ele>
        <time>2020-07-21T11:48:15.000Z</time>
      </trkpt>
      <trkpt lat="42.9920997" lon="-5.7496163">
        <ele>1345.86</ele>
        <time>2020-07-21T11:48:16.000Z</time>
      </trkpt>
      <trkpt lat="42.9920868" lon="-5.7496283">
        <ele>1345.86</ele>
        <time>2020-07-21T11:48:17.000Z</time>
      </trkpt>
      <trkpt lat="42.9920743" lon="-5.7496397">
        <ele>1346.01</ele>
        <time>2020-07-21T11:48:18.000Z</time>
      </trkpt>
      <trkpt lat="42.992062" lon="-5.7496507">
        <ele>1346.01</ele>
        <time>2020-07-21T11:48:19.000Z</time>
      </trkpt>
      <trkpt lat="42.99205" lon="-5.7496615">
        <ele>1346.32</ele>
        <time>2020-07-21T11:48:20.000Z</time>
      </trkpt>
      <trkpt lat="42.9920388" lon="-5.7496723">
        <ele>1346.32</ele>
        <time>2020-07-21T11:48:21.000Z</time>
      </trkpt>
      <trkpt lat="42.9920275" lon="-5.7496827">
        <ele>1346.47</ele>
        <time>2020-07-21T11:48:22.000Z</time>
      </trkpt>
      <trkpt lat="42.9920162" lon="-5.7496928">
        <ele>1346.47</ele>
        <time>2020-07-21T11:48:23.000Z</time>
      </trkpt>
      <trkpt lat="42.9920045" lon="-5.7497027">
        <ele>1346.78</ele>
        <time>2020-07-21T11:48:24.000Z</time>
      </trkpt>
      <trkpt lat="42.991993" lon="-5.7497127">
        <ele>1346.78</ele>
        <time>2020-07-21T11:48:25.000Z</time>
      </trkpt>
      <trkpt lat="42.9919815" lon="-5.7497227">
        <ele>1346.93</ele>
        <time>2020-07-21T11:48:26.000Z</time>
      </trkpt>
      <trkpt lat="42.9919703" lon="-5.7497327">
        <ele>1346.93</ele>
        <time>2020-07-21T11:48:27.000Z</time>
      </trkpt>
      <trkpt lat="42.991959" lon="-5.7497433">
        <ele>1347.23</ele>
        <time>2020-07-21T11:48:28.000Z</time>
      </trkpt>
      <trkpt lat="42.9919478" lon="-5.7497543">
        <ele>1347.23</ele>
        <time>2020-07-21T11:48:29.000Z</time>
      </trkpt>
      <trkpt lat="42.9919362" lon="-5.7497653">
        <ele>1347.39</ele>
        <time>2020-07-21T11:48:30.000Z</time>
      </trkpt>
      <trkpt lat="42.991924" lon="-5.7497752">
        <ele>1347.39</ele>
        <time>2020-07-21T11:48:31.000Z</time>
      </trkpt>
      <trkpt lat="42.9919117" lon="-5.749785">
        <ele>1347.69</ele>
        <time>2020-07-21T11:48:32.000Z</time>
      </trkpt>
      <trkpt lat="42.9918993" lon="-5.7497953">
        <ele>1347.69</ele>
        <time>2020-07-21T11:48:33.000Z</time>
      </trkpt>
      <trkpt lat="42.9918877" lon="-5.7498062">
        <ele>1347.84</ele>
        <time>2020-07-21T11:48:34.000Z</time>
      </trkpt>
      <trkpt lat="42.9918763" lon="-5.749817">
        <ele>1347.84</ele>
        <time>2020-07-21T11:48:35.000Z</time>
      </trkpt>
      <trkpt lat="42.9918655" lon="-5.7498275">
        <ele>1348.15</ele>
        <time>2020-07-21T11:48:36.000Z</time>
      </trkpt>
      <trkpt lat="42.9918545" lon="-5.7498378">
        <ele>1348.15</ele>
        <time>2020-07-21T11:48:37.000Z</time>
      </trkpt>
      <trkpt lat="42.9918433" lon="-5.7498477">
        <ele>1348.3</ele>
        <time>2020-07-21T11:48:38.000Z</time>
      </trkpt>
      <trkpt lat="42.991832" lon="-5.7498573">
        <ele>1348.3</ele>
        <time>2020-07-21T11:48:39.000Z</time>
      </trkpt>
      <trkpt lat="42.9918207" lon="-5.749867">
        <ele>1348.45</ele>
        <time>2020-07-21T11:48:40.000Z</time>
      </trkpt>
      <trkpt lat="42.9918095" lon="-5.7498772">
        <ele>1348.45</ele>
        <time>2020-07-21T11:48:41.000Z</time>
      </trkpt>
      <trkpt lat="42.9917985" lon="-5.749887">
        <ele>1348.76</ele>
        <time>2020-07-21T11:48:42.000Z</time>
      </trkpt>
      <trkpt lat="42.9917873" lon="-5.7498965">
        <ele>1348.76</ele>
        <time>2020-07-21T11:48:43.000Z</time>
      </trkpt>
      <trkpt lat="42.991776" lon="-5.7499063">
        <ele>1348.91</ele>
        <time>2020-07-21T11:48:44.000Z</time>
      </trkpt>
      <trkpt lat="42.9917647" lon="-5.749916">
        <ele>1348.91</ele>
        <time>2020-07-21T11:48:45.000Z</time>
      </trkpt>
      <trkpt lat="42.9917535" lon="-5.7499262">
        <ele>1349.06</ele>
        <time>2020-07-21T11:48:46.000Z</time>
      </trkpt>
      <trkpt lat="42.991742" lon="-5.7499365">
        <ele>1349.06</ele>
        <time>2020-07-21T11:48:47.000Z</time>
      </trkpt>
      <trkpt lat="42.9917312" lon="-5.7499477">
        <ele>1349.21</ele>
        <time>2020-07-21T11:48:48.000Z</time>
      </trkpt>
      <trkpt lat="42.9917208" lon="-5.7499593">
        <ele>1349.21</ele>
        <time>2020-07-21T11:48:49.000Z</time>
      </trkpt>
      <trkpt lat="42.9917112" lon="-5.7499705">
        <ele>1349.37</ele>
        <time>2020-07-21T11:48:50.000Z</time>
      </trkpt>
      <trkpt lat="42.9917013" lon="-5.749982">
        <ele>1349.37</ele>
        <time>2020-07-21T11:48:51.000Z</time>
      </trkpt>
      <trkpt lat="42.9916915" lon="-5.7499933">
        <ele>1349.67</ele>
        <time>2020-07-21T11:48:52.000Z</time>
      </trkpt>
      <trkpt lat="42.9916812" lon="-5.7500052">
        <ele>1349.67</ele>
        <time>2020-07-21T11:48:53.000Z</time>
      </trkpt>
      <trkpt lat="42.9916705" lon="-5.7500162">
        <ele>1349.82</ele>
        <time>2020-07-21T11:48:54.000Z</time>
      </trkpt>
      <trkpt lat="42.9916602" lon="-5.7500283">
        <ele>1349.82</ele>
        <time>2020-07-21T11:48:55.000Z</time>
      </trkpt>
      <trkpt lat="42.99165" lon="-5.75004">
        <ele>1349.98</ele>
        <time>2020-07-21T11:48:56.000Z</time>
      </trkpt>
      <trkpt lat="42.9916388" lon="-5.7500515">
        <ele>1349.98</ele>
        <time>2020-07-21T11:48:57.000Z</time>
      </trkpt>
      <trkpt lat="42.9916282" lon="-5.7500618">
        <ele>1350.13</ele>
        <time>2020-07-21T11:48:58.000Z</time>
      </trkpt>
      <trkpt lat="42.9916165" lon="-5.7500745">
        <ele>1350.13</ele>
        <time>2020-07-21T11:48:59.000Z</time>
      </trkpt>
      <trkpt lat="42.9916058" lon="-5.7500878">
        <ele>1350.28</ele>
        <time>2020-07-21T11:49:00.000Z</time>
      </trkpt>
      <trkpt lat="42.9915953" lon="-5.7501018">
        <ele>1350.28</ele>
        <time>2020-07-21T11:49:01.000Z</time>
      </trkpt>
      <trkpt lat="42.9915862" lon="-5.7501152">
        <ele>1350.58</ele>
        <time>2020-07-21T11:49:02.000Z</time>
      </trkpt>
      <trkpt lat="42.9915775" lon="-5.7501302">
        <ele>1350.58</ele>
        <time>2020-07-21T11:49:03.000Z</time>
      </trkpt>
      <trkpt lat="42.9915682" lon="-5.7501445">
        <ele>1350.74</ele>
        <time>2020-07-21T11:49:04.000Z</time>
      </trkpt>
      <trkpt lat="42.9915592" lon="-5.750158">
        <ele>1350.74</ele>
        <time>2020-07-21T11:49:05.000Z</time>
      </trkpt>
      <trkpt lat="42.99155" lon="-5.7501707">
        <ele>1350.89</ele>
        <time>2020-07-21T11:49:06.000Z</time>
      </trkpt>
      <trkpt lat="42.9915408" lon="-5.7501847">
        <ele>1350.89</ele>
        <time>2020-07-21T11:49:07.000Z</time>
      </trkpt>
      <trkpt lat="42.9915317" lon="-5.7501987">
        <ele>1351.04</ele>
        <time>2020-07-21T11:49:08.000Z</time>
      </trkpt>
      <trkpt lat="42.9915222" lon="-5.7502123">
        <ele>1351.04</ele>
        <time>2020-07-21T11:49:09.000Z</time>
      </trkpt>
      <trkpt lat="42.991513" lon="-5.7502257">
        <ele>1351.19</ele>
        <time>2020-07-21T11:49:10.000Z</time>
      </trkpt>
      <trkpt lat="42.9915038" lon="-5.7502388">
        <ele>1351.19</ele>
        <time>2020-07-21T11:49:11.000Z</time>
      </trkpt>
      <trkpt lat="42.9914953" lon="-5.7502525">
        <ele>1351.35</ele>
        <time>2020-07-21T11:49:12.000Z</time>
      </trkpt>
      <trkpt lat="42.9914872" lon="-5.7502668">
        <ele>1351.35</ele>
        <time>2020-07-21T11:49:13.000Z</time>
      </trkpt>
      <trkpt lat="42.9914793" lon="-5.7502822">
        <ele>1351.5</ele>
        <time>2020-07-21T11:49:14.000Z</time>
      </trkpt>
      <trkpt lat="42.9914713" lon="-5.7502975">
        <ele>1351.5</ele>
        <time>2020-07-21T11:49:15.000Z</time>
      </trkpt>
      <trkpt lat="42.9914638" lon="-5.7503123">
        <ele>1351.65</ele>
        <time>2020-07-21T11:49:16.000Z</time>
      </trkpt>
      <trkpt lat="42.9914562" lon="-5.7503265">
        <ele>1351.65</ele>
        <time>2020-07-21T11:49:17.000Z</time>
      </trkpt>
      <trkpt lat="42.9914485" lon="-5.7503405">
        <ele>1351.8</ele>
        <time>2020-07-21T11:49:18.000Z</time>
      </trkpt>
      <trkpt lat="42.9914407" lon="-5.7503542">
        <ele>1351.8</ele>
        <time>2020-07-21T11:49:19.000Z</time>
      </trkpt>
      <trkpt lat="42.9914328" lon="-5.750368">
        <ele>1351.96</ele>
        <time>2020-07-21T11:49:20.000Z</time>
      </trkpt>
      <trkpt lat="42.9914253" lon="-5.7503817">
        <ele>1351.96</ele>
        <time>2020-07-21T11:49:21.000Z</time>
      </trkpt>
      <trkpt lat="42.9914177" lon="-5.750395">
        <ele>1352.11</ele>
        <time>2020-07-21T11:49:22.000Z</time>
      </trkpt>
      <trkpt lat="42.9914107" lon="-5.7504082">
        <ele>1352.11</ele>
        <time>2020-07-21T11:49:23.000Z</time>
      </trkpt>
      <trkpt lat="42.9914037" lon="-5.7504213">
        <ele>1352.26</ele>
        <time>2020-07-21T11:49:24.000Z</time>
      </trkpt>
      <trkpt lat="42.9913967" lon="-5.7504357">
        <ele>1352.26</ele>
        <time>2020-07-21T11:49:25.000Z</time>
      </trkpt>
      <trkpt lat="42.9913893" lon="-5.7504507">
        <ele>1352.26</ele>
        <time>2020-07-21T11:49:26.000Z</time>
      </trkpt>
      <trkpt lat="42.9913817" lon="-5.7504667">
        <ele>1352.26</ele>
        <time>2020-07-21T11:49:27.000Z</time>
      </trkpt>
      <trkpt lat="42.9913738" lon="-5.750482">
        <ele>1352.41</ele>
        <time>2020-07-21T11:49:28.000Z</time>
      </trkpt>
      <trkpt lat="42.9913653" lon="-5.7504955">
        <ele>1352.41</ele>
        <time>2020-07-21T11:49:29.000Z</time>
      </trkpt>
      <trkpt lat="42.9913567" lon="-5.7505073">
        <ele>1352.57</ele>
        <time>2020-07-21T11:49:30.000Z</time>
      </trkpt>
      <trkpt lat="42.9913475" lon="-5.7505195">
        <ele>1352.57</ele>
        <time>2020-07-21T11:49:31.000Z</time>
      </trkpt>
      <trkpt lat="42.9913388" lon="-5.7505335">
        <ele>1352.72</ele>
        <time>2020-07-21T11:49:32.000Z</time>
      </trkpt>
      <trkpt lat="42.9913305" lon="-5.7505497">
        <ele>1352.72</ele>
        <time>2020-07-21T11:49:33.000Z</time>
      </trkpt>
      <trkpt lat="42.9913243" lon="-5.7505675">
        <ele>1352.87</ele>
        <time>2020-07-21T11:49:34.000Z</time>
      </trkpt>
      <trkpt lat="42.9913195" lon="-5.7505865">
        <ele>1352.87</ele>
        <time>2020-07-21T11:49:35.000Z</time>
      </trkpt>
      <trkpt lat="42.9913152" lon="-5.7506047">
        <ele>1353.02</ele>
        <time>2020-07-21T11:49:36.000Z</time>
      </trkpt>
      <trkpt lat="42.9913105" lon="-5.7506217">
        <ele>1353.02</ele>
        <time>2020-07-21T11:49:37.000Z</time>
      </trkpt>
      <trkpt lat="42.991304" lon="-5.7506367">
        <ele>1353.18</ele>
        <time>2020-07-21T11:49:38.000Z</time>
      </trkpt>
      <trkpt lat="42.9912973" lon="-5.750652">
        <ele>1353.18</ele>
        <time>2020-07-21T11:49:39.000Z</time>
      </trkpt>
      <trkpt lat="42.9912903" lon="-5.7506678">
        <ele>1353.33</ele>
        <time>2020-07-21T11:49:40.000Z</time>
      </trkpt>
      <trkpt lat="42.9912845" lon="-5.7506847">
        <ele>1353.33</ele>
        <time>2020-07-21T11:49:41.000Z</time>
      </trkpt>
      <trkpt lat="42.9912788" lon="-5.7507005">
        <ele>1353.48</ele>
        <time>2020-07-21T11:49:42.000Z</time>
      </trkpt>
      <trkpt lat="42.9912732" lon="-5.7507165">
        <ele>1353.48</ele>
        <time>2020-07-21T11:49:43.000Z</time>
      </trkpt>
      <trkpt lat="42.991267" lon="-5.7507318">
        <ele>1353.63</ele>
        <time>2020-07-21T11:49:44.000Z</time>
      </trkpt>
      <trkpt lat="42.9912608" lon="-5.7507473">
        <ele>1353.63</ele>
        <time>2020-07-21T11:49:45.000Z</time>
      </trkpt>
      <trkpt lat="42.991255" lon="-5.7507625">
        <ele>1353.79</ele>
        <time>2020-07-21T11:49:46.000Z</time>
      </trkpt>
      <trkpt lat="42.9912495" lon="-5.7507778">
        <ele>1353.79</ele>
        <time>2020-07-21T11:49:47.000Z</time>
      </trkpt>
      <trkpt lat="42.9912438" lon="-5.750794">
        <ele>1353.94</ele>
        <time>2020-07-21T11:49:48.000Z</time>
      </trkpt>
      <trkpt lat="42.9912378" lon="-5.7508112">
        <ele>1353.94</ele>
        <time>2020-07-21T11:49:49.000Z</time>
      </trkpt>
      <trkpt lat="42.991232" lon="-5.7508285">
        <ele>1354.09</ele>
        <time>2020-07-21T11:49:50.000Z</time>
      </trkpt>
      <trkpt lat="42.991226" lon="-5.7508455">
        <ele>1354.09</ele>
        <time>2020-07-21T11:49:51.000Z</time>
      </trkpt>
      <trkpt lat="42.9912202" lon="-5.7508618">
        <ele>1354.24</ele>
        <time>2020-07-21T11:49:52.000Z</time>
      </trkpt>
      <trkpt lat="42.9912147" lon="-5.7508778">
        <ele>1354.24</ele>
        <time>2020-07-21T11:49:53.000Z</time>
      </trkpt>
      <trkpt lat="42.9912098" lon="-5.750894">
        <ele>1354.4</ele>
        <time>2020-07-21T11:49:54.000Z</time>
      </trkpt>
      <trkpt lat="42.9912047" lon="-5.7509108">
        <ele>1354.4</ele>
        <time>2020-07-21T11:49:55.000Z</time>
      </trkpt>
      <trkpt lat="42.9911998" lon="-5.7509288">
        <ele>1354.55</ele>
        <time>2020-07-21T11:49:56.000Z</time>
      </trkpt>
      <trkpt lat="42.9911955" lon="-5.750948">
        <ele>1354.55</ele>
        <time>2020-07-21T11:49:57.000Z</time>
      </trkpt>
      <trkpt lat="42.991192" lon="-5.7509672">
        <ele>1354.7</ele>
        <time>2020-07-21T11:49:58.000Z</time>
      </trkpt>
      <trkpt lat="42.9911882" lon="-5.7509855">
        <ele>1354.7</ele>
        <time>2020-07-21T11:49:59.000Z</time>
      </trkpt>
      <trkpt lat="42.9911838" lon="-5.7510028">
        <ele>1354.7</ele>
        <time>2020-07-21T11:50:00.000Z</time>
      </trkpt>
      <trkpt lat="42.9911802" lon="-5.7510202">
        <ele>1354.7</ele>
        <time>2020-07-21T11:50:01.000Z</time>
      </trkpt>
      <trkpt lat="42.9911768" lon="-5.7510375">
        <ele>1354.85</ele>
        <time>2020-07-21T11:50:02.000Z</time>
      </trkpt>
      <trkpt lat="42.9911732" lon="-5.7510558">
        <ele>1354.85</ele>
        <time>2020-07-21T11:50:03.000Z</time>
      </trkpt>
      <trkpt lat="42.9911688" lon="-5.7510725">
        <ele>1355.01</ele>
        <time>2020-07-21T11:50:04.000Z</time>
      </trkpt>
      <trkpt lat="42.9911637" lon="-5.7510885">
        <ele>1355.01</ele>
        <time>2020-07-21T11:50:05.000Z</time>
      </trkpt>
      <trkpt lat="42.9911593" lon="-5.7511047">
        <ele>1355.16</ele>
        <time>2020-07-21T11:50:06.000Z</time>
      </trkpt>
      <trkpt lat="42.9911542" lon="-5.7511213">
        <ele>1355.16</ele>
        <time>2020-07-21T11:50:07.000Z</time>
      </trkpt>
      <trkpt lat="42.9911498" lon="-5.7511382">
        <ele>1355.31</ele>
        <time>2020-07-21T11:50:08.000Z</time>
      </trkpt>
      <trkpt lat="42.991145" lon="-5.7511538">
        <ele>1355.31</ele>
        <time>2020-07-21T11:50:09.000Z</time>
      </trkpt>
      <trkpt lat="42.9911408" lon="-5.7511707">
        <ele>1355.31</ele>
        <time>2020-07-21T11:50:10.000Z</time>
      </trkpt>
      <trkpt lat="42.9911368" lon="-5.7511878">
        <ele>1355.31</ele>
        <time>2020-07-21T11:50:11.000Z</time>
      </trkpt>
      <trkpt lat="42.9911328" lon="-5.751205">
        <ele>1355.46</ele>
        <time>2020-07-21T11:50:12.000Z</time>
      </trkpt>
      <trkpt lat="42.9911288" lon="-5.7512215">
        <ele>1355.46</ele>
        <time>2020-07-21T11:50:13.000Z</time>
      </trkpt>
      <trkpt lat="42.9911252" lon="-5.7512382">
        <ele>1355.61</ele>
        <time>2020-07-21T11:50:14.000Z</time>
      </trkpt>
      <trkpt lat="42.991122" lon="-5.7512557">
        <ele>1355.61</ele>
        <time>2020-07-21T11:50:15.000Z</time>
      </trkpt>
      <trkpt lat="42.9911195" lon="-5.7512732">
        <ele>1355.61</ele>
        <time>2020-07-21T11:50:16.000Z</time>
      </trkpt>
      <trkpt lat="42.9911175" lon="-5.7512902">
        <ele>1355.61</ele>
        <time>2020-07-21T11:50:17.000Z</time>
      </trkpt>
      <trkpt lat="42.9911153" lon="-5.7513063">
        <ele>1355.77</ele>
        <time>2020-07-21T11:50:18.000Z</time>
      </trkpt>
      <trkpt lat="42.9911128" lon="-5.7513223">
        <ele>1355.77</ele>
        <time>2020-07-21T11:50:19.000Z</time>
      </trkpt>
      <trkpt lat="42.9911097" lon="-5.7513392">
        <ele>1355.92</ele>
        <time>2020-07-21T11:50:20.000Z</time>
      </trkpt>
      <trkpt lat="42.9911055" lon="-5.7513568">
        <ele>1355.92</ele>
        <time>2020-07-21T11:50:21.000Z</time>
      </trkpt>
      <trkpt lat="42.9911012" lon="-5.7513738">
        <ele>1355.92</ele>
        <time>2020-07-21T11:50:22.000Z</time>
      </trkpt>
      <trkpt lat="42.9910977" lon="-5.7513915">
        <ele>1355.92</ele>
        <time>2020-07-21T11:50:23.000Z</time>
      </trkpt>
      <trkpt lat="42.9910948" lon="-5.7514093">
        <ele>1356.07</ele>
        <time>2020-07-21T11:50:24.000Z</time>
      </trkpt>
      <trkpt lat="42.9910935" lon="-5.7514312">
        <ele>1356.07</ele>
        <time>2020-07-21T11:50:25.000Z</time>
      </trkpt>
      <trkpt lat="42.9910915" lon="-5.7514517">
        <ele>1356.22</ele>
        <time>2020-07-21T11:50:26.000Z</time>
      </trkpt>
      <trkpt lat="42.9910895" lon="-5.7514723">
        <ele>1356.22</ele>
        <time>2020-07-21T11:50:27.000Z</time>
      </trkpt>
      <trkpt lat="42.991086" lon="-5.7514907">
        <ele>1356.22</ele>
        <time>2020-07-21T11:50:28.000Z</time>
      </trkpt>
      <trkpt lat="42.9910827" lon="-5.7515098">
        <ele>1356.22</ele>
        <time>2020-07-21T11:50:29.000Z</time>
      </trkpt>
      <trkpt lat="42.9910787" lon="-5.7515292">
        <ele>1356.38</ele>
        <time>2020-07-21T11:50:30.000Z</time>
      </trkpt>
      <trkpt lat="42.9910745" lon="-5.7515482">
        <ele>1356.38</ele>
        <time>2020-07-21T11:50:31.000Z</time>
      </trkpt>
      <trkpt lat="42.9910707" lon="-5.7515667">
        <ele>1356.53</ele>
        <time>2020-07-21T11:50:32.000Z</time>
      </trkpt>
      <trkpt lat="42.9910673" lon="-5.751585">
        <ele>1356.53</ele>
        <time>2020-07-21T11:50:33.000Z</time>
      </trkpt>
      <trkpt lat="42.9910643" lon="-5.7516037">
        <ele>1356.53</ele>
        <time>2020-07-21T11:50:34.000Z</time>
      </trkpt>
      <trkpt lat="42.991061" lon="-5.751623">
        <ele>1356.53</ele>
        <time>2020-07-21T11:50:35.000Z</time>
      </trkpt>
      <trkpt lat="42.9910578" lon="-5.7516418">
        <ele>1356.68</ele>
        <time>2020-07-21T11:50:36.000Z</time>
      </trkpt>
      <trkpt lat="42.9910547" lon="-5.75166">
        <ele>1356.68</ele>
        <time>2020-07-21T11:50:37.000Z</time>
      </trkpt>
      <trkpt lat="42.9910518" lon="-5.7516773">
        <ele>1356.83</ele>
        <time>2020-07-21T11:50:38.000Z</time>
      </trkpt>
      <trkpt lat="42.9910497" lon="-5.7516945">
        <ele>1356.83</ele>
        <time>2020-07-21T11:50:39.000Z</time>
      </trkpt>
      <trkpt lat="42.9910477" lon="-5.7517115">
        <ele>1356.83</ele>
        <time>2020-07-21T11:50:40.000Z</time>
      </trkpt>
      <trkpt lat="42.9910452" lon="-5.7517293">
        <ele>1356.83</ele>
        <time>2020-07-21T11:50:41.000Z</time>
      </trkpt>
      <trkpt lat="42.9910425" lon="-5.7517475">
        <ele>1356.99</ele>
        <time>2020-07-21T11:50:42.000Z</time>
      </trkpt>
      <trkpt lat="42.9910398" lon="-5.7517655">
        <ele>1356.99</ele>
        <time>2020-07-21T11:50:43.000Z</time>
      </trkpt>
      <trkpt lat="42.991038" lon="-5.7517828">
        <ele>1357.14</ele>
        <time>2020-07-21T11:50:44.000Z</time>
      </trkpt>
      <trkpt lat="42.991036" lon="-5.7518002">
        <ele>1357.14</ele>
        <time>2020-07-21T11:50:45.000Z</time>
      </trkpt>
      <trkpt lat="42.9910337" lon="-5.7518173">
        <ele>1357.29</ele>
        <time>2020-07-21T11:50:46.000Z</time>
      </trkpt>
      <trkpt lat="42.9910317" lon="-5.751835">
        <ele>1357.29</ele>
        <time>2020-07-21T11:50:47.000Z</time>
      </trkpt>
      <trkpt lat="42.9910295" lon="-5.7518523">
        <ele>1357.29</ele>
        <time>2020-07-21T11:50:48.000Z</time>
      </trkpt>
      <trkpt lat="42.9910273" lon="-5.7518697">
        <ele>1357.29</ele>
        <time>2020-07-21T11:50:49.000Z</time>
      </trkpt>
      <trkpt lat="42.9910247" lon="-5.751887">
        <ele>1357.44</ele>
        <time>2020-07-21T11:50:50.000Z</time>
      </trkpt>
      <trkpt lat="42.9910222" lon="-5.7519052">
        <ele>1357.44</ele>
        <time>2020-07-21T11:50:51.000Z</time>
      </trkpt>
      <trkpt lat="42.99102" lon="-5.751924">
        <ele>1357.6</ele>
        <time>2020-07-21T11:50:52.000Z</time>
      </trkpt>
      <trkpt lat="42.9910182" lon="-5.7519428">
        <ele>1357.6</ele>
        <time>2020-07-21T11:50:53.000Z</time>
      </trkpt>
      <trkpt lat="42.9910167" lon="-5.7519617">
        <ele>1357.75</ele>
        <time>2020-07-21T11:50:54.000Z</time>
      </trkpt>
      <trkpt lat="42.9910148" lon="-5.7519798">
        <ele>1357.75</ele>
        <time>2020-07-21T11:50:55.000Z</time>
      </trkpt>
      <trkpt lat="42.9910127" lon="-5.7519978">
        <ele>1357.75</ele>
        <time>2020-07-21T11:50:56.000Z</time>
      </trkpt>
      <trkpt lat="42.9910107" lon="-5.7520157">
        <ele>1357.75</ele>
        <time>2020-07-21T11:50:57.000Z</time>
      </trkpt>
      <trkpt lat="42.9910083" lon="-5.7520338">
        <ele>1357.9</ele>
        <time>2020-07-21T11:50:58.000Z</time>
      </trkpt>
      <trkpt lat="42.991006" lon="-5.7520527">
        <ele>1357.9</ele>
        <time>2020-07-21T11:50:59.000Z</time>
      </trkpt>
      <trkpt lat="42.9910035" lon="-5.7520715">
        <ele>1358.05</ele>
        <time>2020-07-21T11:51:00.000Z</time>
      </trkpt>
      <trkpt lat="42.9910012" lon="-5.75209">
        <ele>1358.05</ele>
        <time>2020-07-21T11:51:01.000Z</time>
      </trkpt>
      <trkpt lat="42.9909983" lon="-5.7521085">
        <ele>1358.2</ele>
        <time>2020-07-21T11:51:02.000Z</time>
      </trkpt>
      <trkpt lat="42.9909945" lon="-5.7521267">
        <ele>1358.2</ele>
        <time>2020-07-21T11:51:03.000Z</time>
      </trkpt>
      <trkpt lat="42.9909903" lon="-5.7521447">
        <ele>1358.36</ele>
        <time>2020-07-21T11:51:04.000Z</time>
      </trkpt>
      <trkpt lat="42.990987" lon="-5.7521632">
        <ele>1358.36</ele>
        <time>2020-07-21T11:51:05.000Z</time>
      </trkpt>
      <trkpt lat="42.9909855" lon="-5.7521822">
        <ele>1358.36</ele>
        <time>2020-07-21T11:51:06.000Z</time>
      </trkpt>
      <trkpt lat="42.9909857" lon="-5.7522018">
        <ele>1358.36</ele>
        <time>2020-07-21T11:51:07.000Z</time>
      </trkpt>
      <trkpt lat="42.9909863" lon="-5.7522217">
        <ele>1358.51</ele>
        <time>2020-07-21T11:51:08.000Z</time>
      </trkpt>
      <trkpt lat="42.9909868" lon="-5.7522413">
        <ele>1358.51</ele>
        <time>2020-07-21T11:51:09.000Z</time>
      </trkpt>
      <trkpt lat="42.9909865" lon="-5.7522608">
        <ele>1358.66</ele>
        <time>2020-07-21T11:51:10.000Z</time>
      </trkpt>
      <trkpt lat="42.9909862" lon="-5.7522795">
        <ele>1358.66</ele>
        <time>2020-07-21T11:51:11.000Z</time>
      </trkpt>
      <trkpt lat="42.9909853" lon="-5.7522972">
        <ele>1358.66</ele>
        <time>2020-07-21T11:51:12.000Z</time>
      </trkpt>
      <trkpt lat="42.9909843" lon="-5.7523153">
        <ele>1358.66</ele>
        <time>2020-07-21T11:51:13.000Z</time>
      </trkpt>
      <trkpt lat="42.9909832" lon="-5.7523343">
        <ele>1358.81</ele>
        <time>2020-07-21T11:51:14.000Z</time>
      </trkpt>
      <trkpt lat="42.9909822" lon="-5.7523535">
        <ele>1358.81</ele>
        <time>2020-07-21T11:51:15.000Z</time>
      </trkpt>
      <trkpt lat="42.9909803" lon="-5.7523718">
        <ele>1358.97</ele>
        <time>2020-07-21T11:51:16.000Z</time>
      </trkpt>
      <trkpt lat="42.9909778" lon="-5.7523895">
        <ele>1358.97</ele>
        <time>2020-07-21T11:51:17.000Z</time>
      </trkpt>
      <trkpt lat="42.9909742" lon="-5.7524068">
        <ele>1358.97</ele>
        <time>2020-07-21T11:51:18.000Z</time>
      </trkpt>
      <trkpt lat="42.99097" lon="-5.7524242">
        <ele>1358.97</ele>
        <time>2020-07-21T11:51:19.000Z</time>
      </trkpt>
      <trkpt lat="42.9909655" lon="-5.752442">
        <ele>1359.12</ele>
        <time>2020-07-21T11:51:20.000Z</time>
      </trkpt>
      <trkpt lat="42.9909625" lon="-5.7524602">
        <ele>1359.12</ele>
        <time>2020-07-21T11:51:21.000Z</time>
      </trkpt>
      <trkpt lat="42.9909612" lon="-5.7524787">
        <ele>1359.27</ele>
        <time>2020-07-21T11:51:22.000Z</time>
      </trkpt>
      <trkpt lat="42.9909618" lon="-5.7524965">
        <ele>1359.27</ele>
        <time>2020-07-21T11:51:23.000Z</time>
      </trkpt>
      <trkpt lat="42.9909625" lon="-5.7525143">
        <ele>1359.27</ele>
        <time>2020-07-21T11:51:24.000Z</time>
      </trkpt>
      <trkpt lat="42.9909628" lon="-5.7525323">
        <ele>1359.27</ele>
        <time>2020-07-21T11:51:25.000Z</time>
      </trkpt>
      <trkpt lat="42.9909623" lon="-5.752551">
        <ele>1359.42</ele>
        <time>2020-07-21T11:51:26.000Z</time>
      </trkpt>
      <trkpt lat="42.990962" lon="-5.7525697">
        <ele>1359.42</ele>
        <time>2020-07-21T11:51:27.000Z</time>
      </trkpt>
      <trkpt lat="42.9909633" lon="-5.7525872">
        <ele>1359.58</ele>
        <time>2020-07-21T11:51:28.000Z</time>
      </trkpt>
      <trkpt lat="42.9909662" lon="-5.7526047">
        <ele>1359.58</ele>
        <time>2020-07-21T11:51:29.000Z</time>
      </trkpt>
      <trkpt lat="42.9909703" lon="-5.7526228">
        <ele>1359.58</ele>
        <time>2020-07-21T11:51:30.000Z</time>
      </trkpt>
      <trkpt lat="42.9909753" lon="-5.752642">
        <ele>1359.58</ele>
        <time>2020-07-21T11:51:31.000Z</time>
      </trkpt>
      <trkpt lat="42.9909808" lon="-5.7526602">
        <ele>1359.73</ele>
        <time>2020-07-21T11:51:32.000Z</time>
      </trkpt>
      <trkpt lat="42.9909867" lon="-5.7526773">
        <ele>1359.73</ele>
        <time>2020-07-21T11:51:33.000Z</time>
      </trkpt>
      <trkpt lat="42.9909928" lon="-5.7526937">
        <ele>1359.73</ele>
        <time>2020-07-21T11:51:34.000Z</time>
      </trkpt>
      <trkpt lat="42.9909997" lon="-5.7527095">
        <ele>1359.73</ele>
        <time>2020-07-21T11:51:35.000Z</time>
      </trkpt>
      <trkpt lat="42.9910075" lon="-5.7527247">
        <ele>1359.88</ele>
        <time>2020-07-21T11:51:36.000Z</time>
      </trkpt>
      <trkpt lat="42.9910163" lon="-5.7527388">
        <ele>1359.88</ele>
        <time>2020-07-21T11:51:37.000Z</time>
      </trkpt>
      <trkpt lat="42.991026" lon="-5.7527527">
        <ele>1359.88</ele>
        <time>2020-07-21T11:51:38.000Z</time>
      </trkpt>
      <trkpt lat="42.9910355" lon="-5.7527662">
        <ele>1359.88</ele>
        <time>2020-07-21T11:51:39.000Z</time>
      </trkpt>
      <trkpt lat="42.9910443" lon="-5.7527802">
        <ele>1360.03</ele>
        <time>2020-07-21T11:51:40.000Z</time>
      </trkpt>
      <trkpt lat="42.991052" lon="-5.7527957">
        <ele>1360.03</ele>
        <time>2020-07-21T11:51:41.000Z</time>
      </trkpt>
      <trkpt lat="42.9910592" lon="-5.752812">
        <ele>1360.19</ele>
        <time>2020-07-21T11:51:42.000Z</time>
      </trkpt>
      <trkpt lat="42.9910663" lon="-5.7528282">
        <ele>1360.19</ele>
        <time>2020-07-21T11:51:43.000Z</time>
      </trkpt>
      <trkpt lat="42.9910733" lon="-5.7528442">
        <ele>1360.19</ele>
        <time>2020-07-21T11:51:44.000Z</time>
      </trkpt>
      <trkpt lat="42.9910803" lon="-5.7528607">
        <ele>1360.19</ele>
        <time>2020-07-21T11:51:45.000Z</time>
      </trkpt>
      <trkpt lat="42.9910867" lon="-5.7528778">
        <ele>1360.34</ele>
        <time>2020-07-21T11:51:46.000Z</time>
      </trkpt>
      <trkpt lat="42.9910925" lon="-5.7528953">
        <ele>1360.34</ele>
        <time>2020-07-21T11:51:47.000Z</time>
      </trkpt>
      <trkpt lat="42.9910977" lon="-5.752912">
        <ele>1360.34</ele>
        <time>2020-07-21T11:51:48.000Z</time>
      </trkpt>
      <trkpt lat="42.9911025" lon="-5.752929">
        <ele>1360.34</ele>
        <time>2020-07-21T11:51:49.000Z</time>
      </trkpt>
      <trkpt lat="42.9911078" lon="-5.7529457">
        <ele>1360.49</ele>
        <time>2020-07-21T11:51:50.000Z</time>
      </trkpt>
      <trkpt lat="42.9911147" lon="-5.7529625">
        <ele>1360.49</ele>
        <time>2020-07-21T11:51:51.000Z</time>
      </trkpt>
      <trkpt lat="42.9911233" lon="-5.7529778">
        <ele>1360.49</ele>
        <time>2020-07-21T11:51:52.000Z</time>
      </trkpt>
      <trkpt lat="42.9911328" lon="-5.7529922">
        <ele>1360.49</ele>
        <time>2020-07-21T11:51:53.000Z</time>
      </trkpt>
      <trkpt lat="42.9911423" lon="-5.753006">
        <ele>1360.64</ele>
        <time>2020-07-21T11:51:54.000Z</time>
      </trkpt>
      <trkpt lat="42.991151" lon="-5.75302">
        <ele>1360.64</ele>
        <time>2020-07-21T11:51:55.000Z</time>
      </trkpt>
      <trkpt lat="42.9911587" lon="-5.7530345">
        <ele>1360.64</ele>
        <time>2020-07-21T11:51:56.000Z</time>
      </trkpt>
      <trkpt lat="42.9911665" lon="-5.7530492">
        <ele>1360.64</ele>
        <time>2020-07-21T11:51:57.000Z</time>
      </trkpt>
      <trkpt lat="42.9911733" lon="-5.7530655">
        <ele>1360.8</ele>
        <time>2020-07-21T11:51:58.000Z</time>
      </trkpt>
      <trkpt lat="42.9911783" lon="-5.7530827">
        <ele>1360.8</ele>
        <time>2020-07-21T11:51:59.000Z</time>
      </trkpt>
      <trkpt lat="42.991182" lon="-5.7531">
        <ele>1360.8</ele>
        <time>2020-07-21T11:52:00.000Z</time>
      </trkpt>
      <trkpt lat="42.9911855" lon="-5.7531165">
        <ele>1360.8</ele>
        <time>2020-07-21T11:52:01.000Z</time>
      </trkpt>
      <trkpt lat="42.9911898" lon="-5.7531327">
        <ele>1360.95</ele>
        <time>2020-07-21T11:52:02.000Z</time>
      </trkpt>
      <trkpt lat="42.9911957" lon="-5.7531485">
        <ele>1360.95</ele>
        <time>2020-07-21T11:52:03.000Z</time>
      </trkpt>
      <trkpt lat="42.991204" lon="-5.7531633">
        <ele>1360.95</ele>
        <time>2020-07-21T11:52:04.000Z</time>
      </trkpt>
      <trkpt lat="42.9912152" lon="-5.7531752">
        <ele>1360.95</ele>
        <time>2020-07-21T11:52:05.000Z</time>
      </trkpt>
      <trkpt lat="42.9912272" lon="-5.753186">
        <ele>1361.1</ele>
        <time>2020-07-21T11:52:06.000Z</time>
      </trkpt>
      <trkpt lat="42.991239" lon="-5.753196">
        <ele>1361.1</ele>
        <time>2020-07-21T11:52:07.000Z</time>
      </trkpt>
      <trkpt lat="42.9912497" lon="-5.7532072">
        <ele>1361.1</ele>
        <time>2020-07-21T11:52:08.000Z</time>
      </trkpt>
      <trkpt lat="42.99126" lon="-5.7532183">
        <ele>1361.1</ele>
        <time>2020-07-21T11:52:09.000Z</time>
      </trkpt>
      <trkpt lat="42.9912703" lon="-5.7532293">
        <ele>1361.1</ele>
        <time>2020-07-21T11:52:10.000Z</time>
      </trkpt>
      <trkpt lat="42.9912813" lon="-5.7532395">
        <ele>1361.1</ele>
        <time>2020-07-21T11:52:11.000Z</time>
      </trkpt>
      <trkpt lat="42.9912947" lon="-5.7532465">
        <ele>1361.25</ele>
        <time>2020-07-21T11:52:12.000Z</time>
      </trkpt>
      <trkpt lat="42.9913093" lon="-5.7532508">
        <ele>1361.25</ele>
        <time>2020-07-21T11:52:13.000Z</time>
      </trkpt>
      <trkpt lat="42.9913245" lon="-5.7532535">
        <ele>1361.25</ele>
        <time>2020-07-21T11:52:14.000Z</time>
      </trkpt>
      <trkpt lat="42.9913397" lon="-5.7532573">
        <ele>1361.25</ele>
        <time>2020-07-21T11:52:15.000Z</time>
      </trkpt>
      <trkpt lat="42.9913548" lon="-5.7532617">
        <ele>1361.41</ele>
        <time>2020-07-21T11:52:16.000Z</time>
      </trkpt>
      <trkpt lat="42.9913712" lon="-5.753265">
        <ele>1361.41</ele>
        <time>2020-07-21T11:52:17.000Z</time>
      </trkpt>
      <trkpt lat="42.9913867" lon="-5.7532687">
        <ele>1361.41</ele>
        <time>2020-07-21T11:52:18.000Z</time>
      </trkpt>
      <trkpt lat="42.9914018" lon="-5.7532733">
        <ele>1361.41</ele>
        <time>2020-07-21T11:52:19.000Z</time>
      </trkpt>
      <trkpt lat="42.991415" lon="-5.7532817">
        <ele>1361.56</ele>
        <time>2020-07-21T11:52:20.000Z</time>
      </trkpt>
      <trkpt lat="42.9914268" lon="-5.7532925">
        <ele>1361.56</ele>
        <time>2020-07-21T11:52:21.000Z</time>
      </trkpt>
      <trkpt lat="42.9914362" lon="-5.7533057">
        <ele>1361.71</ele>
        <time>2020-07-21T11:52:22.000Z</time>
      </trkpt>
      <trkpt lat="42.9914452" lon="-5.7533183">
        <ele>1361.71</ele>
        <time>2020-07-21T11:52:23.000Z</time>
      </trkpt>
      <trkpt lat="42.9914548" lon="-5.753331">
        <ele>1361.71</ele>
        <time>2020-07-21T11:52:24.000Z</time>
      </trkpt>
      <trkpt lat="42.9914658" lon="-5.7533437">
        <ele>1361.71</ele>
        <time>2020-07-21T11:52:25.000Z</time>
      </trkpt>
      <trkpt lat="42.9914778" lon="-5.753357">
        <ele>1361.86</ele>
        <time>2020-07-21T11:52:26.000Z</time>
      </trkpt>
      <trkpt lat="42.9914883" lon="-5.7533708">
        <ele>1361.86</ele>
        <time>2020-07-21T11:52:27.000Z</time>
      </trkpt>
      <trkpt lat="42.9914975" lon="-5.7533862">
        <ele>1362.02</ele>
        <time>2020-07-21T11:52:28.000Z</time>
      </trkpt>
      <trkpt lat="42.9915055" lon="-5.7534037">
        <ele>1362.02</ele>
        <time>2020-07-21T11:52:29.000Z</time>
      </trkpt>
      <trkpt lat="42.9915133" lon="-5.7534217">
        <ele>1362.02</ele>
        <time>2020-07-21T11:52:30.000Z</time>
      </trkpt>
      <trkpt lat="42.9915215" lon="-5.7534383">
        <ele>1362.02</ele>
        <time>2020-07-21T11:52:31.000Z</time>
      </trkpt>
      <trkpt lat="42.991529" lon="-5.7534532">
        <ele>1362.17</ele>
        <time>2020-07-21T11:52:32.000Z</time>
      </trkpt>
      <trkpt lat="42.9915368" lon="-5.7534678">
        <ele>1362.17</ele>
        <time>2020-07-21T11:52:33.000Z</time>
      </trkpt>
      <trkpt lat="42.9915442" lon="-5.7534835">
        <ele>1362.32</ele>
        <time>2020-07-21T11:52:34.000Z</time>
      </trkpt>
      <trkpt lat="42.9915508" lon="-5.7535005">
        <ele>1362.32</ele>
        <time>2020-07-21T11:52:35.000Z</time>
      </trkpt>
      <trkpt lat="42.9915572" lon="-5.7535183">
        <ele>1362.47</ele>
        <time>2020-07-21T11:52:36.000Z</time>
      </trkpt>
      <trkpt lat="42.9915648" lon="-5.7535365">
        <ele>1362.47</ele>
        <time>2020-07-21T11:52:37.000Z</time>
      </trkpt>
      <trkpt lat="42.9915732" lon="-5.7535533">
        <ele>1362.47</ele>
        <time>2020-07-21T11:52:38.000Z</time>
      </trkpt>
      <trkpt lat="42.9915815" lon="-5.7535702">
        <ele>1362.47</ele>
        <time>2020-07-21T11:52:39.000Z</time>
      </trkpt>
      <trkpt lat="42.991589" lon="-5.7535865">
        <ele>1362.62</ele>
        <time>2020-07-21T11:52:40.000Z</time>
      </trkpt>
      <trkpt lat="42.9915968" lon="-5.7536033">
        <ele>1362.62</ele>
        <time>2020-07-21T11:52:41.000Z</time>
      </trkpt>
      <trkpt lat="42.9916047" lon="-5.7536198">
        <ele>1362.78</ele>
        <time>2020-07-21T11:52:42.000Z</time>
      </trkpt>
      <trkpt lat="42.9916122" lon="-5.7536367">
        <ele>1362.78</ele>
        <time>2020-07-21T11:52:43.000Z</time>
      </trkpt>
      <trkpt lat="42.991619" lon="-5.7536525">
        <ele>1362.93</ele>
        <time>2020-07-21T11:52:44.000Z</time>
      </trkpt>
      <trkpt lat="42.9916255" lon="-5.7536682">
        <ele>1362.93</ele>
        <time>2020-07-21T11:52:45.000Z</time>
      </trkpt>
      <trkpt lat="42.9916327" lon="-5.7536838">
        <ele>1363.08</ele>
        <time>2020-07-21T11:52:46.000Z</time>
      </trkpt>
      <trkpt lat="42.9916398" lon="-5.7536997">
        <ele>1363.08</ele>
        <time>2020-07-21T11:52:47.000Z</time>
      </trkpt>
      <trkpt lat="42.9916463" lon="-5.7537163">
        <ele>1363.23</ele>
        <time>2020-07-21T11:52:48.000Z</time>
      </trkpt>
      <trkpt lat="42.9916515" lon="-5.7537332">
        <ele>1363.23</ele>
        <time>2020-07-21T11:52:49.000Z</time>
      </trkpt>
      <trkpt lat="42.9916555" lon="-5.7537513">
        <ele>1363.39</ele>
        <time>2020-07-21T11:52:50.000Z</time>
      </trkpt>
      <trkpt lat="42.9916585" lon="-5.753769">
        <ele>1363.39</ele>
        <time>2020-07-21T11:52:51.000Z</time>
      </trkpt>
      <trkpt lat="42.9916613" lon="-5.7537873">
        <ele>1363.39</ele>
        <time>2020-07-21T11:52:52.000Z</time>
      </trkpt>
      <trkpt lat="42.9916647" lon="-5.7538043">
        <ele>1363.39</ele>
        <time>2020-07-21T11:52:53.000Z</time>
      </trkpt>
      <trkpt lat="42.991669" lon="-5.7538218">
        <ele>1363.54</ele>
        <time>2020-07-21T11:52:54.000Z</time>
      </trkpt>
      <trkpt lat="42.9916728" lon="-5.7538393">
        <ele>1363.54</ele>
        <time>2020-07-21T11:52:55.000Z</time>
      </trkpt>
      <trkpt lat="42.991676" lon="-5.7538575">
        <ele>1363.69</ele>
        <time>2020-07-21T11:52:56.000Z</time>
      </trkpt>
      <trkpt lat="42.9916793" lon="-5.7538758">
        <ele>1363.69</ele>
        <time>2020-07-21T11:52:57.000Z</time>
      </trkpt>
      <trkpt lat="42.991683" lon="-5.7538933">
        <ele>1363.84</ele>
        <time>2020-07-21T11:52:58.000Z</time>
      </trkpt>
      <trkpt lat="42.9916868" lon="-5.7539103">
        <ele>1363.84</ele>
        <time>2020-07-21T11:52:59.000Z</time>
      </trkpt>
      <trkpt lat="42.9916903" lon="-5.7539272">
        <ele>1364</ele>
        <time>2020-07-21T11:53:00.000Z</time>
      </trkpt>
      <trkpt lat="42.9916937" lon="-5.7539447">
        <ele>1364</ele>
        <time>2020-07-21T11:53:01.000Z</time>
      </trkpt>
      <trkpt lat="42.9916973" lon="-5.7539632">
        <ele>1364.15</ele>
        <time>2020-07-21T11:53:02.000Z</time>
      </trkpt>
      <trkpt lat="42.9917008" lon="-5.7539815">
        <ele>1364.15</ele>
        <time>2020-07-21T11:53:03.000Z</time>
      </trkpt>
      <trkpt lat="42.9917045" lon="-5.7539993">
        <ele>1364.3</ele>
        <time>2020-07-21T11:53:04.000Z</time>
      </trkpt>
      <trkpt lat="42.9917075" lon="-5.7540165">
        <ele>1364.3</ele>
        <time>2020-07-21T11:53:05.000Z</time>
      </trkpt>
      <trkpt lat="42.9917103" lon="-5.7540335">
        <ele>1364.3</ele>
        <time>2020-07-21T11:53:06.000Z</time>
      </trkpt>
      <trkpt lat="42.9917137" lon="-5.754051">
        <ele>1364.3</ele>
        <time>2020-07-21T11:53:07.000Z</time>
      </trkpt>
      <trkpt lat="42.991717" lon="-5.7540683">
        <ele>1364.45</ele>
        <time>2020-07-21T11:53:08.000Z</time>
      </trkpt>
      <trkpt lat="42.9917205" lon="-5.7540858">
        <ele>1364.45</ele>
        <time>2020-07-21T11:53:09.000Z</time>
      </trkpt>
      <trkpt lat="42.9917235" lon="-5.7541033">
        <ele>1364.61</ele>
        <time>2020-07-21T11:53:10.000Z</time>
      </trkpt>
      <trkpt lat="42.9917267" lon="-5.7541213">
        <ele>1364.61</ele>
        <time>2020-07-21T11:53:11.000Z</time>
      </trkpt>
      <trkpt lat="42.9917305" lon="-5.7541393">
        <ele>1364.76</ele>
        <time>2020-07-21T11:53:12.000Z</time>
      </trkpt>
      <trkpt lat="42.9917345" lon="-5.754157">
        <ele>1364.76</ele>
        <time>2020-07-21T11:53:13.000Z</time>
      </trkpt>
      <trkpt lat="42.9917383" lon="-5.7541743">
        <ele>1364.91</ele>
        <time>2020-07-21T11:53:14.000Z</time>
      </trkpt>
      <trkpt lat="42.9917422" lon="-5.7541922">
        <ele>1364.91</ele>
        <time>2020-07-21T11:53:15.000Z</time>
      </trkpt>
      <trkpt lat="42.9917453" lon="-5.7542103">
        <ele>1365.06</ele>
        <time>2020-07-21T11:53:16.000Z</time>
      </trkpt>
      <trkpt lat="42.991748" lon="-5.7542293">
        <ele>1365.06</ele>
        <time>2020-07-21T11:53:17.000Z</time>
      </trkpt>
      <trkpt lat="42.9917503" lon="-5.7542488">
        <ele>1365.06</ele>
        <time>2020-07-21T11:53:18.000Z</time>
      </trkpt>
      <trkpt lat="42.9917532" lon="-5.7542683">
        <ele>1365.06</ele>
        <time>2020-07-21T11:53:19.000Z</time>
      </trkpt>
      <trkpt lat="42.991757" lon="-5.7542873">
        <ele>1365.22</ele>
        <time>2020-07-21T11:53:20.000Z</time>
      </trkpt>
      <trkpt lat="42.9917613" lon="-5.7543052">
        <ele>1365.22</ele>
        <time>2020-07-21T11:53:21.000Z</time>
      </trkpt>
      <trkpt lat="42.991765" lon="-5.754323">
        <ele>1365.37</ele>
        <time>2020-07-21T11:53:22.000Z</time>
      </trkpt>
      <trkpt lat="42.991768" lon="-5.7543408">
        <ele>1365.37</ele>
        <time>2020-07-21T11:53:23.000Z</time>
      </trkpt>
      <trkpt lat="42.9917708" lon="-5.7543595">
        <ele>1365.37</ele>
        <time>2020-07-21T11:53:24.000Z</time>
      </trkpt>
      <trkpt lat="42.991775" lon="-5.7543778">
        <ele>1365.37</ele>
        <time>2020-07-21T11:53:25.000Z</time>
      </trkpt>
      <trkpt lat="42.9917792" lon="-5.7543958">
        <ele>1365.52</ele>
        <time>2020-07-21T11:53:26.000Z</time>
      </trkpt>
      <trkpt lat="42.9917832" lon="-5.7544142">
        <ele>1365.52</ele>
        <time>2020-07-21T11:53:27.000Z</time>
      </trkpt>
      <trkpt lat="42.9917862" lon="-5.7544327">
        <ele>1365.52</ele>
        <time>2020-07-21T11:53:28.000Z</time>
      </trkpt>
      <trkpt lat="42.9917892" lon="-5.7544518">
        <ele>1365.52</ele>
        <time>2020-07-21T11:53:29.000Z</time>
      </trkpt>
      <trkpt lat="42.9917925" lon="-5.7544703">
        <ele>1365.67</ele>
        <time>2020-07-21T11:53:30.000Z</time>
      </trkpt>
      <trkpt lat="42.9917965" lon="-5.7544882">
        <ele>1365.67</ele>
        <time>2020-07-21T11:53:31.000Z</time>
      </trkpt>
      <trkpt lat="42.991801" lon="-5.7545053">
        <ele>1365.67</ele>
        <time>2020-07-21T11:53:32.000Z</time>
      </trkpt>
      <trkpt lat="42.9918053" lon="-5.7545227">
        <ele>1365.67</ele>
        <time>2020-07-21T11:53:33.000Z</time>
      </trkpt>
      <trkpt lat="42.9918093" lon="-5.7545402">
        <ele>1365.82</ele>
        <time>2020-07-21T11:53:34.000Z</time>
      </trkpt>
      <trkpt lat="42.9918125" lon="-5.7545578">
        <ele>1365.82</ele>
        <time>2020-07-21T11:53:35.000Z</time>
      </trkpt>
      <trkpt lat="42.9918153" lon="-5.7545755">
        <ele>1365.82</ele>
        <time>2020-07-21T11:53:36.000Z</time>
      </trkpt>
      <trkpt lat="42.9918185" lon="-5.754593">
        <ele>1365.82</ele>
        <time>2020-07-21T11:53:37.000Z</time>
      </trkpt>
      <trkpt lat="42.9918218" lon="-5.7546107">
        <ele>1365.98</ele>
        <time>2020-07-21T11:53:38.000Z</time>
      </trkpt>
      <trkpt lat="42.991825" lon="-5.754628">
        <ele>1365.98</ele>
        <time>2020-07-21T11:53:39.000Z</time>
      </trkpt>
      <trkpt lat="42.9918278" lon="-5.754646">
        <ele>1365.98</ele>
        <time>2020-07-21T11:53:40.000Z</time>
      </trkpt>
      <trkpt lat="42.9918303" lon="-5.7546647">
        <ele>1365.98</ele>
        <time>2020-07-21T11:53:41.000Z</time>
      </trkpt>
      <trkpt lat="42.9918335" lon="-5.7546847">
        <ele>1366.13</ele>
        <time>2020-07-21T11:53:42.000Z</time>
      </trkpt>
      <trkpt lat="42.9918367" lon="-5.7547047">
        <ele>1366.13</ele>
        <time>2020-07-21T11:53:43.000Z</time>
      </trkpt>
      <trkpt lat="42.9918403" lon="-5.7547248">
        <ele>1366.13</ele>
        <time>2020-07-21T11:53:44.000Z</time>
      </trkpt>
      <trkpt lat="42.9918438" lon="-5.7547442">
        <ele>1366.13</ele>
        <time>2020-07-21T11:53:45.000Z</time>
      </trkpt>
      <trkpt lat="42.991847" lon="-5.754762">
        <ele>1366.13</ele>
        <time>2020-07-21T11:53:46.000Z</time>
      </trkpt>
      <trkpt lat="42.9918515" lon="-5.7547798">
        <ele>1366.13</ele>
        <time>2020-07-21T11:53:47.000Z</time>
      </trkpt>
      <trkpt lat="42.991858" lon="-5.7547972">
        <ele>1366.28</ele>
        <time>2020-07-21T11:53:48.000Z</time>
      </trkpt>
      <trkpt lat="42.9918663" lon="-5.7548155">
        <ele>1366.28</ele>
        <time>2020-07-21T11:53:49.000Z</time>
      </trkpt>
      <trkpt lat="42.9918742" lon="-5.7548332">
        <ele>1366.28</ele>
        <time>2020-07-21T11:53:50.000Z</time>
      </trkpt>
      <trkpt lat="42.9918805" lon="-5.7548507">
        <ele>1366.28</ele>
        <time>2020-07-21T11:53:51.000Z</time>
      </trkpt>
      <trkpt lat="42.9918855" lon="-5.7548683">
        <ele>1366.44</ele>
        <time>2020-07-21T11:53:52.000Z</time>
      </trkpt>
      <trkpt lat="42.99189" lon="-5.754886">
        <ele>1366.44</ele>
        <time>2020-07-21T11:53:53.000Z</time>
      </trkpt>
      <trkpt lat="42.9918933" lon="-5.7549035">
        <ele>1366.44</ele>
        <time>2020-07-21T11:53:54.000Z</time>
      </trkpt>
      <trkpt lat="42.9918962" lon="-5.754921">
        <ele>1366.44</ele>
        <time>2020-07-21T11:53:55.000Z</time>
      </trkpt>
      <trkpt lat="42.9918988" lon="-5.7549388">
        <ele>1366.59</ele>
        <time>2020-07-21T11:53:56.000Z</time>
      </trkpt>
      <trkpt lat="42.991902" lon="-5.7549568">
        <ele>1366.59</ele>
        <time>2020-07-21T11:53:57.000Z</time>
      </trkpt>
      <trkpt lat="42.9919053" lon="-5.7549748">
        <ele>1366.59</ele>
        <time>2020-07-21T11:53:58.000Z</time>
      </trkpt>
      <trkpt lat="42.9919097" lon="-5.7549928">
        <ele>1366.59</ele>
        <time>2020-07-21T11:53:59.000Z</time>
      </trkpt>
      <trkpt lat="42.9919143" lon="-5.755011">
        <ele>1366.74</ele>
        <time>2020-07-21T11:54:00.000Z</time>
      </trkpt>
      <trkpt lat="42.9919193" lon="-5.7550287">
        <ele>1366.74</ele>
        <time>2020-07-21T11:54:01.000Z</time>
      </trkpt>
      <trkpt lat="42.9919245" lon="-5.7550458">
        <ele>1366.74</ele>
        <time>2020-07-21T11:54:02.000Z</time>
      </trkpt>
      <trkpt lat="42.9919297" lon="-5.755063">
        <ele>1366.74</ele>
        <time>2020-07-21T11:54:03.000Z</time>
      </trkpt>
      <trkpt lat="42.9919345" lon="-5.7550803">
        <ele>1366.89</ele>
        <time>2020-07-21T11:54:04.000Z</time>
      </trkpt>
      <trkpt lat="42.9919387" lon="-5.7550982">
        <ele>1366.89</ele>
        <time>2020-07-21T11:54:05.000Z</time>
      </trkpt>
      <trkpt lat="42.9919425" lon="-5.7551155">
        <ele>1367.05</ele>
        <time>2020-07-21T11:54:06.000Z</time>
      </trkpt>
      <trkpt lat="42.9919463" lon="-5.7551327">
        <ele>1367.05</ele>
        <time>2020-07-21T11:54:07.000Z</time>
      </trkpt>
      <trkpt lat="42.99195" lon="-5.7551503">
        <ele>1367.2</ele>
        <time>2020-07-21T11:54:08.000Z</time>
      </trkpt>
      <trkpt lat="42.9919542" lon="-5.7551677">
        <ele>1367.2</ele>
        <time>2020-07-21T11:54:09.000Z</time>
      </trkpt>
      <trkpt lat="42.9919585" lon="-5.7551848">
        <ele>1367.35</ele>
        <time>2020-07-21T11:54:10.000Z</time>
      </trkpt>
      <trkpt lat="42.9919635" lon="-5.7552017">
        <ele>1367.35</ele>
        <time>2020-07-21T11:54:11.000Z</time>
      </trkpt>
      <trkpt lat="42.991969" lon="-5.755218">
        <ele>1367.5</ele>
        <time>2020-07-21T11:54:12.000Z</time>
      </trkpt>
      <trkpt lat="42.9919753" lon="-5.7552337">
        <ele>1367.5</ele>
        <time>2020-07-21T11:54:13.000Z</time>
      </trkpt>
      <trkpt lat="42.9919822" lon="-5.7552482">
        <ele>1367.65</ele>
        <time>2020-07-21T11:54:14.000Z</time>
      </trkpt>
      <trkpt lat="42.9919898" lon="-5.7552615">
        <ele>1367.65</ele>
        <time>2020-07-21T11:54:15.000Z</time>
      </trkpt>
      <trkpt lat="42.991998" lon="-5.7552742">
        <ele>1367.81</ele>
        <time>2020-07-21T11:54:16.000Z</time>
      </trkpt>
      <trkpt lat="42.9920067" lon="-5.7552862">
        <ele>1367.81</ele>
        <time>2020-07-21T11:54:17.000Z</time>
      </trkpt>
      <trkpt lat="42.992015" lon="-5.7552977">
        <ele>1367.96</ele>
        <time>2020-07-21T11:54:18.000Z</time>
      </trkpt>
      <trkpt lat="42.9920238" lon="-5.7553078">
        <ele>1367.96</ele>
        <time>2020-07-21T11:54:19.000Z</time>
      </trkpt>
      <trkpt lat="42.992032" lon="-5.7553168">
        <ele>1368.11</ele>
        <time>2020-07-21T11:54:20.000Z</time>
      </trkpt>
      <trkpt lat="42.9920403" lon="-5.7553245">
        <ele>1368.11</ele>
        <time>2020-07-21T11:54:21.000Z</time>
      </trkpt>
      <trkpt lat="42.992048" lon="-5.7553323">
        <ele>1368.26</ele>
        <time>2020-07-21T11:54:22.000Z</time>
      </trkpt>
      <trkpt lat="42.9920558" lon="-5.7553413">
        <ele>1368.26</ele>
        <time>2020-07-21T11:54:23.000Z</time>
      </trkpt>
      <trkpt lat="42.9920637" lon="-5.7553522">
        <ele>1368.42</ele>
        <time>2020-07-21T11:54:24.000Z</time>
      </trkpt>
      <trkpt lat="42.9920715" lon="-5.7553635">
        <ele>1368.42</ele>
        <time>2020-07-21T11:54:25.000Z</time>
      </trkpt>
      <trkpt lat="42.9920778" lon="-5.7553753">
        <ele>1368.57</ele>
        <time>2020-07-21T11:54:26.000Z</time>
      </trkpt>
      <trkpt lat="42.992083" lon="-5.7553892">
        <ele>1368.57</ele>
        <time>2020-07-21T11:54:27.000Z</time>
      </trkpt>
      <trkpt lat="42.9920865" lon="-5.7554045">
        <ele>1368.72</ele>
        <time>2020-07-21T11:54:28.000Z</time>
      </trkpt>
      <trkpt lat="42.9920897" lon="-5.755421">
        <ele>1368.72</ele>
        <time>2020-07-21T11:54:29.000Z</time>
      </trkpt>
      <trkpt lat="42.9920922" lon="-5.7554372">
        <ele>1368.87</ele>
        <time>2020-07-21T11:54:30.000Z</time>
      </trkpt>
      <trkpt lat="42.9920953" lon="-5.7554537">
        <ele>1368.87</ele>
        <time>2020-07-21T11:54:31.000Z</time>
      </trkpt>
      <trkpt lat="42.9920985" lon="-5.7554703">
        <ele>1369.03</ele>
        <time>2020-07-21T11:54:32.000Z</time>
      </trkpt>
      <trkpt lat="42.9921017" lon="-5.755487">
        <ele>1369.03</ele>
        <time>2020-07-21T11:54:33.000Z</time>
      </trkpt>
      <trkpt lat="42.9921045" lon="-5.7555042">
        <ele>1369.18</ele>
        <time>2020-07-21T11:54:34.000Z</time>
      </trkpt>
      <trkpt lat="42.9921073" lon="-5.7555215">
        <ele>1369.18</ele>
        <time>2020-07-21T11:54:35.000Z</time>
      </trkpt>
      <trkpt lat="42.9921112" lon="-5.7555385">
        <ele>1369.33</ele>
        <time>2020-07-21T11:54:36.000Z</time>
      </trkpt>
      <trkpt lat="42.9921157" lon="-5.7555547">
        <ele>1369.33</ele>
        <time>2020-07-21T11:54:37.000Z</time>
      </trkpt>
      <trkpt lat="42.9921207" lon="-5.7555698">
        <ele>1369.48</ele>
        <time>2020-07-21T11:54:38.000Z</time>
      </trkpt>
      <trkpt lat="42.9921253" lon="-5.7555857">
        <ele>1369.48</ele>
        <time>2020-07-21T11:54:39.000Z</time>
      </trkpt>
      <trkpt lat="42.992129" lon="-5.7556018">
        <ele>1369.64</ele>
        <time>2020-07-21T11:54:40.000Z</time>
      </trkpt>
      <trkpt lat="42.992132" lon="-5.755619">
        <ele>1369.64</ele>
        <time>2020-07-21T11:54:41.000Z</time>
      </trkpt>
      <trkpt lat="42.992135" lon="-5.7556357">
        <ele>1369.64</ele>
        <time>2020-07-21T11:54:42.000Z</time>
      </trkpt>
      <trkpt lat="42.9921387" lon="-5.7556523">
        <ele>1369.64</ele>
        <time>2020-07-21T11:54:43.000Z</time>
      </trkpt>
      <trkpt lat="42.9921427" lon="-5.7556687">
        <ele>1369.79</ele>
        <time>2020-07-21T11:54:44.000Z</time>
      </trkpt>
      <trkpt lat="42.9921467" lon="-5.755685">
        <ele>1369.79</ele>
        <time>2020-07-21T11:54:45.000Z</time>
      </trkpt>
      <trkpt lat="42.9921505" lon="-5.7557012">
        <ele>1369.94</ele>
        <time>2020-07-21T11:54:46.000Z</time>
      </trkpt>
      <trkpt lat="42.9921538" lon="-5.7557173">
        <ele>1369.94</ele>
        <time>2020-07-21T11:54:47.000Z</time>
      </trkpt>
      <trkpt lat="42.9921577" lon="-5.7557342">
        <ele>1370.09</ele>
        <time>2020-07-21T11:54:48.000Z</time>
      </trkpt>
      <trkpt lat="42.9921607" lon="-5.7557512">
        <ele>1370.09</ele>
        <time>2020-07-21T11:54:49.000Z</time>
      </trkpt>
      <trkpt lat="42.9921642" lon="-5.7557683">
        <ele>1370.09</ele>
        <time>2020-07-21T11:54:50.000Z</time>
      </trkpt>
      <trkpt lat="42.9921673" lon="-5.7557852">
        <ele>1370.09</ele>
        <time>2020-07-21T11:54:51.000Z</time>
      </trkpt>
      <trkpt lat="42.9921708" lon="-5.7558025">
        <ele>1370.24</ele>
        <time>2020-07-21T11:54:52.000Z</time>
      </trkpt>
      <trkpt lat="42.9921743" lon="-5.7558198">
        <ele>1370.24</ele>
        <time>2020-07-21T11:54:53.000Z</time>
      </trkpt>
      <trkpt lat="42.9921772" lon="-5.7558372">
        <ele>1370.4</ele>
        <time>2020-07-21T11:54:54.000Z</time>
      </trkpt>
      <trkpt lat="42.9921793" lon="-5.7558545">
        <ele>1370.4</ele>
        <time>2020-07-21T11:54:55.000Z</time>
      </trkpt>
      <trkpt lat="42.9921813" lon="-5.7558718">
        <ele>1370.55</ele>
        <time>2020-07-21T11:54:56.000Z</time>
      </trkpt>
      <trkpt lat="42.9921832" lon="-5.75589">
        <ele>1370.55</ele>
        <time>2020-07-21T11:54:57.000Z</time>
      </trkpt>
      <trkpt lat="42.9921865" lon="-5.7559088">
        <ele>1370.55</ele>
        <time>2020-07-21T11:54:58.000Z</time>
      </trkpt>
      <trkpt lat="42.9921912" lon="-5.7559282">
        <ele>1370.55</ele>
        <time>2020-07-21T11:54:59.000Z</time>
      </trkpt>
      <trkpt lat="42.9921968" lon="-5.7559465">
        <ele>1370.7</ele>
        <time>2020-07-21T11:55:00.000Z</time>
      </trkpt>
      <trkpt lat="42.9922022" lon="-5.7559648">
        <ele>1370.7</ele>
        <time>2020-07-21T11:55:01.000Z</time>
      </trkpt>
      <trkpt lat="42.9922078" lon="-5.7559827">
        <ele>1370.7</ele>
        <time>2020-07-21T11:55:02.000Z</time>
      </trkpt>
      <trkpt lat="42.9922143" lon="-5.7559998">
        <ele>1370.7</ele>
        <time>2020-07-21T11:55:03.000Z</time>
      </trkpt>
      <trkpt lat="42.9922195" lon="-5.7560177">
        <ele>1370.85</ele>
        <time>2020-07-21T11:55:04.000Z</time>
      </trkpt>
      <trkpt lat="42.9922237" lon="-5.756036">
        <ele>1370.85</ele>
        <time>2020-07-21T11:55:05.000Z</time>
      </trkpt>
      <trkpt lat="42.9922265" lon="-5.756054">
        <ele>1370.85</ele>
        <time>2020-07-21T11:55:06.000Z</time>
      </trkpt>
      <trkpt lat="42.9922295" lon="-5.7560715">
        <ele>1370.85</ele>
        <time>2020-07-21T11:55:07.000Z</time>
      </trkpt>
      <trkpt lat="42.9922325" lon="-5.7560892">
        <ele>1370.85</ele>
        <time>2020-07-21T11:55:08.000Z</time>
      </trkpt>
      <trkpt lat="42.9922357" lon="-5.7561082">
        <ele>1370.85</ele>
        <time>2020-07-21T11:55:09.000Z</time>
      </trkpt>
      <trkpt lat="42.9922395" lon="-5.756127">
        <ele>1371.01</ele>
        <time>2020-07-21T11:55:10.000Z</time>
      </trkpt>
      <trkpt lat="42.9922435" lon="-5.7561452">
        <ele>1371.01</ele>
        <time>2020-07-21T11:55:11.000Z</time>
      </trkpt>
      <trkpt lat="42.9922475" lon="-5.7561632">
        <ele>1371.01</ele>
        <time>2020-07-21T11:55:12.000Z</time>
      </trkpt>
      <trkpt lat="42.992251" lon="-5.7561808">
        <ele>1371.01</ele>
        <time>2020-07-21T11:55:13.000Z</time>
      </trkpt>
      <trkpt lat="42.9922548" lon="-5.7561998">
        <ele>1371.01</ele>
        <time>2020-07-21T11:55:14.000Z</time>
      </trkpt>
      <trkpt lat="42.9922587" lon="-5.756219">
        <ele>1371.01</ele>
        <time>2020-07-21T11:55:15.000Z</time>
      </trkpt>
      <trkpt lat="42.9922632" lon="-5.7562383">
        <ele>1371.16</ele>
        <time>2020-07-21T11:55:16.000Z</time>
      </trkpt>
      <trkpt lat="42.9922663" lon="-5.7562557">
        <ele>1371.16</ele>
        <time>2020-07-21T11:55:17.000Z</time>
      </trkpt>
      <trkpt lat="42.9922692" lon="-5.7562722">
        <ele>1371.16</ele>
        <time>2020-07-21T11:55:18.000Z</time>
      </trkpt>
      <trkpt lat="42.9922713" lon="-5.7562882">
        <ele>1371.16</ele>
        <time>2020-07-21T11:55:19.000Z</time>
      </trkpt>
      <trkpt lat="42.9922738" lon="-5.7563037">
        <ele>1371.31</ele>
        <time>2020-07-21T11:55:20.000Z</time>
      </trkpt>
      <trkpt lat="42.9922762" lon="-5.7563187">
        <ele>1371.31</ele>
        <time>2020-07-21T11:55:21.000Z</time>
      </trkpt>
      <trkpt lat="42.9922783" lon="-5.7563323">
        <ele>1371.31</ele>
        <time>2020-07-21T11:55:22.000Z</time>
      </trkpt>
      <trkpt lat="42.9922805" lon="-5.7563452">
        <ele>1371.31</ele>
        <time>2020-07-21T11:55:23.000Z</time>
      </trkpt>
      <trkpt lat="42.9922835" lon="-5.7563585">
        <ele>1371.46</ele>
        <time>2020-07-21T11:55:24.000Z</time>
      </trkpt>
      <trkpt lat="42.992286" lon="-5.7563718">
        <ele>1371.46</ele>
        <time>2020-07-21T11:55:25.000Z</time>
      </trkpt>
      <trkpt lat="42.992288" lon="-5.7563862">
        <ele>1371.62</ele>
        <time>2020-07-21T11:55:26.000Z</time>
      </trkpt>
      <trkpt lat="42.9922897" lon="-5.7564007">
        <ele>1371.62</ele>
        <time>2020-07-21T11:55:27.000Z</time>
      </trkpt>
      <trkpt lat="42.9922915" lon="-5.7564148">
        <ele>1371.77</ele>
        <time>2020-07-21T11:55:28.000Z</time>
      </trkpt>
      <trkpt lat="42.9922937" lon="-5.756431">
        <ele>1371.77</ele>
        <time>2020-07-21T11:55:29.000Z</time>
      </trkpt>
      <trkpt lat="42.9922958" lon="-5.756447">
        <ele>1371.92</ele>
        <time>2020-07-21T11:55:30.000Z</time>
      </trkpt>
      <trkpt lat="42.9922995" lon="-5.7564638">
        <ele>1371.92</ele>
        <time>2020-07-21T11:55:31.000Z</time>
      </trkpt>
      <trkpt lat="42.9923035" lon="-5.7564777">
        <ele>1372.07</ele>
        <time>2020-07-21T11:55:32.000Z</time>
      </trkpt>
      <trkpt lat="42.9923055" lon="-5.7564925">
        <ele>1372.07</ele>
        <time>2020-07-21T11:55:33.000Z</time>
      </trkpt>
      <trkpt lat="42.9923068" lon="-5.756508">
        <ele>1372.23</ele>
        <time>2020-07-21T11:55:34.000Z</time>
      </trkpt>
      <trkpt lat="42.992308" lon="-5.7565255">
        <ele>1372.23</ele>
        <time>2020-07-21T11:55:35.000Z</time>
      </trkpt>
      <trkpt lat="42.9923118" lon="-5.7565432">
        <ele>1372.38</ele>
        <time>2020-07-21T11:55:36.000Z</time>
      </trkpt>
      <trkpt lat="42.9923162" lon="-5.75656">
        <ele>1372.38</ele>
        <time>2020-07-21T11:55:37.000Z</time>
      </trkpt>
      <trkpt lat="42.9923187" lon="-5.7565782">
        <ele>1372.53</ele>
        <time>2020-07-21T11:55:38.000Z</time>
      </trkpt>
      <trkpt lat="42.992319" lon="-5.7565967">
        <ele>1372.53</ele>
        <time>2020-07-21T11:55:39.000Z</time>
      </trkpt>
      <trkpt lat="42.9923172" lon="-5.7566148">
        <ele>1372.68</ele>
        <time>2020-07-21T11:55:40.000Z</time>
      </trkpt>
      <trkpt lat="42.992317" lon="-5.7566328">
        <ele>1372.68</ele>
        <time>2020-07-21T11:55:41.000Z</time>
      </trkpt>
      <trkpt lat="42.9923183" lon="-5.7566488">
        <ele>1372.84</ele>
        <time>2020-07-21T11:55:42.000Z</time>
      </trkpt>
      <trkpt lat="42.9923245" lon="-5.756665">
        <ele>1372.84</ele>
        <time>2020-07-21T11:55:43.000Z</time>
      </trkpt>
      <trkpt lat="42.9923342" lon="-5.7566802">
        <ele>1372.99</ele>
        <time>2020-07-21T11:55:44.000Z</time>
      </trkpt>
      <trkpt lat="42.9923458" lon="-5.7566953">
        <ele>1372.99</ele>
        <time>2020-07-21T11:55:45.000Z</time>
      </trkpt>
      <trkpt lat="42.9923545" lon="-5.7567097">
        <ele>1373.14</ele>
        <time>2020-07-21T11:55:46.000Z</time>
      </trkpt>
      <trkpt lat="42.9923597" lon="-5.7567215">
        <ele>1373.14</ele>
        <time>2020-07-21T11:55:47.000Z</time>
      </trkpt>
      <trkpt lat="42.9923635" lon="-5.756732">
        <ele>1373.29</ele>
        <time>2020-07-21T11:55:48.000Z</time>
      </trkpt>
      <trkpt lat="42.992369" lon="-5.7567423">
        <ele>1373.29</ele>
        <time>2020-07-21T11:55:49.000Z</time>
      </trkpt>
      <trkpt lat="42.9923742" lon="-5.7567528">
        <ele>1373.44</ele>
        <time>2020-07-21T11:55:50.000Z</time>
      </trkpt>
      <trkpt lat="42.9923833" lon="-5.7567672">
        <ele>1373.44</ele>
        <time>2020-07-21T11:55:51.000Z</time>
      </trkpt>
      <trkpt lat="42.992394" lon="-5.7567898">
        <ele>1373.6</ele>
        <time>2020-07-21T11:55:52.000Z</time>
      </trkpt>
      <trkpt lat="42.9924042" lon="-5.7568165">
        <ele>1373.6</ele>
        <time>2020-07-21T11:55:53.000Z</time>
      </trkpt>
      <trkpt lat="42.9924077" lon="-5.7568443">
        <ele>1373.75</ele>
        <time>2020-07-21T11:55:54.000Z</time>
      </trkpt>
      <trkpt lat="42.9924078" lon="-5.7568675">
        <ele>1373.75</ele>
        <time>2020-07-21T11:55:55.000Z</time>
      </trkpt>
      <trkpt lat="42.992409" lon="-5.7568898">
        <ele>1373.9</ele>
        <time>2020-07-21T11:55:56.000Z</time>
      </trkpt>
      <trkpt lat="42.9924127" lon="-5.7569112">
        <ele>1373.9</ele>
        <time>2020-07-21T11:55:57.000Z</time>
      </trkpt>
      <trkpt lat="42.992415" lon="-5.7569303">
        <ele>1374.06</ele>
        <time>2020-07-21T11:55:58.000Z</time>
      </trkpt>
      <trkpt lat="42.9924162" lon="-5.7569505">
        <ele>1374.06</ele>
        <time>2020-07-21T11:55:59.000Z</time>
      </trkpt>
      <trkpt lat="42.9924203" lon="-5.7569717">
        <ele>1374.06</ele>
        <time>2020-07-21T11:56:00.000Z</time>
      </trkpt>
      <trkpt lat="42.9924283" lon="-5.7569935">
        <ele>1374.06</ele>
        <time>2020-07-21T11:56:01.000Z</time>
      </trkpt>
      <trkpt lat="42.9924397" lon="-5.7570153">
        <ele>1374.21</ele>
        <time>2020-07-21T11:56:02.000Z</time>
      </trkpt>
      <trkpt lat="42.9924478" lon="-5.7570357">
        <ele>1374.21</ele>
        <time>2020-07-21T11:56:03.000Z</time>
      </trkpt>
      <trkpt lat="42.992454" lon="-5.7570547">
        <ele>1374.36</ele>
        <time>2020-07-21T11:56:04.000Z</time>
      </trkpt>
      <trkpt lat="42.9924588" lon="-5.7570735">
        <ele>1374.36</ele>
        <time>2020-07-21T11:56:05.000Z</time>
      </trkpt>
      <trkpt lat="42.9924633" lon="-5.757091">
        <ele>1374.36</ele>
        <time>2020-07-21T11:56:06.000Z</time>
      </trkpt>
      <trkpt lat="42.9924682" lon="-5.7571093">
        <ele>1374.36</ele>
        <time>2020-07-21T11:56:07.000Z</time>
      </trkpt>
      <trkpt lat="42.9924728" lon="-5.7571255">
        <ele>1374.51</ele>
        <time>2020-07-21T11:56:08.000Z</time>
      </trkpt>
      <trkpt lat="42.9924793" lon="-5.7571448">
        <ele>1374.51</ele>
        <time>2020-07-21T11:56:09.000Z</time>
      </trkpt>
      <trkpt lat="42.9924872" lon="-5.7571648">
        <ele>1374.51</ele>
        <time>2020-07-21T11:56:10.000Z</time>
      </trkpt>
      <trkpt lat="42.9924882" lon="-5.7571868">
        <ele>1374.51</ele>
        <time>2020-07-21T11:56:11.000Z</time>
      </trkpt>
      <trkpt lat="42.9924857" lon="-5.757207">
        <ele>1374.67</ele>
        <time>2020-07-21T11:56:12.000Z</time>
      </trkpt>
      <trkpt lat="42.992483" lon="-5.7572288">
        <ele>1374.67</ele>
        <time>2020-07-21T11:56:13.000Z</time>
      </trkpt>
      <trkpt lat="42.9924872" lon="-5.7572505">
        <ele>1374.67</ele>
        <time>2020-07-21T11:56:14.000Z</time>
      </trkpt>
      <trkpt lat="42.992492" lon="-5.7572732">
        <ele>1374.67</ele>
        <time>2020-07-21T11:56:15.000Z</time>
      </trkpt>
      <trkpt lat="42.9924947" lon="-5.7572933">
        <ele>1374.82</ele>
        <time>2020-07-21T11:56:16.000Z</time>
      </trkpt>
      <trkpt lat="42.9924968" lon="-5.7573128">
        <ele>1374.82</ele>
        <time>2020-07-21T11:56:17.000Z</time>
      </trkpt>
      <trkpt lat="42.9925" lon="-5.7573307">
        <ele>1374.97</ele>
        <time>2020-07-21T11:56:18.000Z</time>
      </trkpt>
      <trkpt lat="42.9925043" lon="-5.7573493">
        <ele>1374.97</ele>
        <time>2020-07-21T11:56:19.000Z</time>
      </trkpt>
      <trkpt lat="42.9925087" lon="-5.7573682">
        <ele>1374.97</ele>
        <time>2020-07-21T11:56:20.000Z</time>
      </trkpt>
      <trkpt lat="42.9925117" lon="-5.7573873">
        <ele>1374.97</ele>
        <time>2020-07-21T11:56:21.000Z</time>
      </trkpt>
      <trkpt lat="42.9925152" lon="-5.7574065">
        <ele>1375.12</ele>
        <time>2020-07-21T11:56:22.000Z</time>
      </trkpt>
      <trkpt lat="42.9925177" lon="-5.7574248">
        <ele>1375.12</ele>
        <time>2020-07-21T11:56:23.000Z</time>
      </trkpt>
      <trkpt lat="42.9925212" lon="-5.7574413">
        <ele>1375.43</ele>
        <time>2020-07-21T11:56:24.000Z</time>
      </trkpt>
      <trkpt lat="42.9925238" lon="-5.7574567">
        <ele>1375.43</ele>
        <time>2020-07-21T11:56:25.000Z</time>
      </trkpt>
      <trkpt lat="42.9925272" lon="-5.7574732">
        <ele>1375.58</ele>
        <time>2020-07-21T11:56:26.000Z</time>
      </trkpt>
      <trkpt lat="42.9925308" lon="-5.7574912">
        <ele>1375.58</ele>
        <time>2020-07-21T11:56:27.000Z</time>
      </trkpt>
      <trkpt lat="42.9925353" lon="-5.7575093">
        <ele>1375.58</ele>
        <time>2020-07-21T11:56:28.000Z</time>
      </trkpt>
      <trkpt lat="42.9925398" lon="-5.7575257">
        <ele>1375.58</ele>
        <time>2020-07-21T11:56:29.000Z</time>
      </trkpt>
      <trkpt lat="42.9925443" lon="-5.7575407">
        <ele>1375.73</ele>
        <time>2020-07-21T11:56:30.000Z</time>
      </trkpt>
      <trkpt lat="42.9925482" lon="-5.7575542">
        <ele>1375.73</ele>
        <time>2020-07-21T11:56:31.000Z</time>
      </trkpt>
      <trkpt lat="42.992551" lon="-5.7575668">
        <ele>1375.88</ele>
        <time>2020-07-21T11:56:32.000Z</time>
      </trkpt>
      <trkpt lat="42.992553" lon="-5.7575788">
        <ele>1375.88</ele>
        <time>2020-07-21T11:56:33.000Z</time>
      </trkpt>
      <trkpt lat="42.9925547" lon="-5.7575895">
        <ele>1376.04</ele>
        <time>2020-07-21T11:56:34.000Z</time>
      </trkpt>
      <trkpt lat="42.9925562" lon="-5.7575993">
        <ele>1376.04</ele>
        <time>2020-07-21T11:56:35.000Z</time>
      </trkpt>
      <trkpt lat="42.9925572" lon="-5.7576075">
        <ele>1376.19</ele>
        <time>2020-07-21T11:56:36.000Z</time>
      </trkpt>
      <trkpt lat="42.9925573" lon="-5.757615">
        <ele>1376.19</ele>
        <time>2020-07-21T11:56:37.000Z</time>
      </trkpt>
      <trkpt lat="42.9925577" lon="-5.7576222">
        <ele>1376.34</ele>
        <time>2020-07-21T11:56:38.000Z</time>
      </trkpt>
      <trkpt lat="42.9925582" lon="-5.7576292">
        <ele>1376.34</ele>
        <time>2020-07-21T11:56:39.000Z</time>
      </trkpt>
      <trkpt lat="42.9925603" lon="-5.7576365">
        <ele>1376.49</ele>
        <time>2020-07-21T11:56:40.000Z</time>
      </trkpt>
      <trkpt lat="42.9925615" lon="-5.7576418">
        <ele>1376.49</ele>
        <time>2020-07-21T11:56:41.000Z</time>
      </trkpt>
      <trkpt lat="42.9925622" lon="-5.7576452">
        <ele>1376.65</ele>
        <time>2020-07-21T11:56:42.000Z</time>
      </trkpt>
      <trkpt lat="42.992561" lon="-5.757647">
        <ele>1376.65</ele>
        <time>2020-07-21T11:56:43.000Z</time>
      </trkpt>
      <trkpt lat="42.9925595" lon="-5.7576503">
        <ele>1376.8</ele>
        <time>2020-07-21T11:56:44.000Z</time>
      </trkpt>
      <trkpt lat="42.9925577" lon="-5.7576547">
        <ele>1376.8</ele>
        <time>2020-07-21T11:56:45.000Z</time>
      </trkpt>
      <trkpt lat="42.992558" lon="-5.7576597">
        <ele>1376.95</ele>
        <time>2020-07-21T11:56:46.000Z</time>
      </trkpt>
      <trkpt lat="42.9925592" lon="-5.7576638">
        <ele>1376.95</ele>
        <time>2020-07-21T11:56:47.000Z</time>
      </trkpt>
      <trkpt lat="42.9925603" lon="-5.7576675">
        <ele>1377.1</ele>
        <time>2020-07-21T11:56:48.000Z</time>
      </trkpt>
      <trkpt lat="42.9925602" lon="-5.7576697">
        <ele>1377.1</ele>
        <time>2020-07-21T11:56:49.000Z</time>
      </trkpt>
      <trkpt lat="42.9925607" lon="-5.7576707">
        <ele>1377.41</ele>
        <time>2020-07-21T11:56:50.000Z</time>
      </trkpt>
      <trkpt lat="42.9925617" lon="-5.757671">
        <ele>1377.41</ele>
        <time>2020-07-21T11:56:51.000Z</time>
      </trkpt>
      <trkpt lat="42.9925628" lon="-5.757673">
        <ele>1377.56</ele>
        <time>2020-07-21T11:56:52.000Z</time>
      </trkpt>
      <trkpt lat="42.9925643" lon="-5.7576758">
        <ele>1377.56</ele>
        <time>2020-07-21T11:56:53.000Z</time>
      </trkpt>
      <trkpt lat="42.9925673" lon="-5.7576813">
        <ele>1377.71</ele>
        <time>2020-07-21T11:56:54.000Z</time>
      </trkpt>
      <trkpt lat="42.9925725" lon="-5.757688">
        <ele>1377.71</ele>
        <time>2020-07-21T11:56:55.000Z</time>
      </trkpt>
      <trkpt lat="42.9925812" lon="-5.7576947">
        <ele>1377.86</ele>
        <time>2020-07-21T11:56:56.000Z</time>
      </trkpt>
      <trkpt lat="42.9925917" lon="-5.7576997">
        <ele>1377.86</ele>
        <time>2020-07-21T11:56:57.000Z</time>
      </trkpt>
      <trkpt lat="42.9926052" lon="-5.7577002">
        <ele>1378.02</ele>
        <time>2020-07-21T11:56:58.000Z</time>
      </trkpt>
      <trkpt lat="42.9926185" lon="-5.7576992">
        <ele>1378.02</ele>
        <time>2020-07-21T11:56:59.000Z</time>
      </trkpt>
      <trkpt lat="42.9926328" lon="-5.757696">
        <ele>1378.17</ele>
        <time>2020-07-21T11:57:00.000Z</time>
      </trkpt>
      <trkpt lat="42.9926437" lon="-5.7576945">
        <ele>1378.17</ele>
        <time>2020-07-21T11:57:01.000Z</time>
      </trkpt>
      <trkpt lat="42.992653" lon="-5.7576923">
        <ele>1378.32</ele>
        <time>2020-07-21T11:57:02.000Z</time>
      </trkpt>
      <trkpt lat="42.9926588" lon="-5.7576912">
        <ele>1378.32</ele>
        <time>2020-07-21T11:57:03.000Z</time>
      </trkpt>
      <trkpt lat="42.9926638" lon="-5.7576903">
        <ele>1378.47</ele>
        <time>2020-07-21T11:57:04.000Z</time>
      </trkpt>
      <trkpt lat="42.9926677" lon="-5.757691">
        <ele>1378.47</ele>
        <time>2020-07-21T11:57:05.000Z</time>
      </trkpt>
      <trkpt lat="42.9926727" lon="-5.7576912">
        <ele>1378.47</ele>
        <time>2020-07-21T11:57:06.000Z</time>
      </trkpt>
      <trkpt lat="42.9926783" lon="-5.7576912">
        <ele>1378.47</ele>
        <time>2020-07-21T11:57:07.000Z</time>
      </trkpt>
      <trkpt lat="42.9926828" lon="-5.7576903">
        <ele>1378.63</ele>
        <time>2020-07-21T11:57:08.000Z</time>
      </trkpt>
      <trkpt lat="42.992684" lon="-5.757689">
        <ele>1378.63</ele>
        <time>2020-07-21T11:57:09.000Z</time>
      </trkpt>
      <trkpt lat="42.9926808" lon="-5.7576888">
        <ele>1378.63</ele>
        <time>2020-07-21T11:57:10.000Z</time>
      </trkpt>
      <trkpt lat="42.9926765" lon="-5.757689">
        <ele>1378.63</ele>
        <time>2020-07-21T11:57:11.000Z</time>
      </trkpt>
      <trkpt lat="42.9926718" lon="-5.7576898">
        <ele>1378.78</ele>
        <time>2020-07-21T11:57:12.000Z</time>
      </trkpt>
      <trkpt lat="42.9926692" lon="-5.7576892">
        <ele>1378.78</ele>
        <time>2020-07-21T11:57:13.000Z</time>
      </trkpt>
      <trkpt lat="42.9926683" lon="-5.7576925">
        <ele>1378.78</ele>
        <time>2020-07-21T11:57:14.000Z</time>
      </trkpt>
      <trkpt lat="42.9926705" lon="-5.7576993">
        <ele>1378.78</ele>
        <time>2020-07-21T11:57:15.000Z</time>
      </trkpt>
      <trkpt lat="42.992673" lon="-5.757709">
        <ele>1378.93</ele>
        <time>2020-07-21T11:57:16.000Z</time>
      </trkpt>
      <trkpt lat="42.9926787" lon="-5.757717">
        <ele>1378.93</ele>
        <time>2020-07-21T11:57:17.000Z</time>
      </trkpt>
      <trkpt lat="42.992686" lon="-5.7577243">
        <ele>1379.08</ele>
        <time>2020-07-21T11:57:18.000Z</time>
      </trkpt>
      <trkpt lat="42.9926965" lon="-5.7577325">
        <ele>1379.08</ele>
        <time>2020-07-21T11:57:19.000Z</time>
      </trkpt>
      <trkpt lat="42.9927053" lon="-5.7577415">
        <ele>1379.24</ele>
        <time>2020-07-21T11:57:20.000Z</time>
      </trkpt>
      <trkpt lat="42.9927132" lon="-5.7577513">
        <ele>1379.24</ele>
        <time>2020-07-21T11:57:21.000Z</time>
      </trkpt>
      <trkpt lat="42.9927203" lon="-5.7577602">
        <ele>1379.24</ele>
        <time>2020-07-21T11:57:22.000Z</time>
      </trkpt>
      <trkpt lat="42.9927292" lon="-5.7577682">
        <ele>1379.24</ele>
        <time>2020-07-21T11:57:23.000Z</time>
      </trkpt>
      <trkpt lat="42.992739" lon="-5.7577758">
        <ele>1379.39</ele>
        <time>2020-07-21T11:57:24.000Z</time>
      </trkpt>
      <trkpt lat="42.9927498" lon="-5.7577833">
        <ele>1379.39</ele>
        <time>2020-07-21T11:57:25.000Z</time>
      </trkpt>
      <trkpt lat="42.9927597" lon="-5.7577918">
        <ele>1379.54</ele>
        <time>2020-07-21T11:57:26.000Z</time>
      </trkpt>
      <trkpt lat="42.992769" lon="-5.7578012">
        <ele>1379.54</ele>
        <time>2020-07-21T11:57:27.000Z</time>
      </trkpt>
      <trkpt lat="42.9927788" lon="-5.7578127">
        <ele>1379.69</ele>
        <time>2020-07-21T11:57:28.000Z</time>
      </trkpt>
      <trkpt lat="42.9927902" lon="-5.7578243">
        <ele>1379.69</ele>
        <time>2020-07-21T11:57:29.000Z</time>
      </trkpt>
      <trkpt lat="42.992802" lon="-5.7578368">
        <ele>1379.85</ele>
        <time>2020-07-21T11:57:30.000Z</time>
      </trkpt>
      <trkpt lat="42.9928133" lon="-5.7578483">
        <ele>1379.85</ele>
        <time>2020-07-21T11:57:31.000Z</time>
      </trkpt>
      <trkpt lat="42.9928238" lon="-5.7578597">
        <ele>1380</ele>
        <time>2020-07-21T11:57:32.000Z</time>
      </trkpt>
      <trkpt lat="42.9928335" lon="-5.757871">
        <ele>1380</ele>
        <time>2020-07-21T11:57:33.000Z</time>
      </trkpt>
      <trkpt lat="42.9928442" lon="-5.7578822">
        <ele>1380.15</ele>
        <time>2020-07-21T11:57:34.000Z</time>
      </trkpt>
      <trkpt lat="42.992855" lon="-5.7578922">
        <ele>1380.15</ele>
        <time>2020-07-21T11:57:35.000Z</time>
      </trkpt>
      <trkpt lat="42.9928668" lon="-5.7579008">
        <ele>1380.3</ele>
        <time>2020-07-21T11:57:36.000Z</time>
      </trkpt>
      <trkpt lat="42.9928768" lon="-5.7579093">
        <ele>1380.3</ele>
        <time>2020-07-21T11:57:37.000Z</time>
      </trkpt>
      <trkpt lat="42.992886" lon="-5.7579178">
        <ele>1380.46</ele>
        <time>2020-07-21T11:57:38.000Z</time>
      </trkpt>
      <trkpt lat="42.9928948" lon="-5.7579265">
        <ele>1380.46</ele>
        <time>2020-07-21T11:57:39.000Z</time>
      </trkpt>
      <trkpt lat="42.9929032" lon="-5.7579357">
        <ele>1380.61</ele>
        <time>2020-07-21T11:57:40.000Z</time>
      </trkpt>
      <trkpt lat="42.992911" lon="-5.7579453">
        <ele>1380.61</ele>
        <time>2020-07-21T11:57:41.000Z</time>
      </trkpt>
      <trkpt lat="42.9929182" lon="-5.7579557">
        <ele>1380.76</ele>
        <time>2020-07-21T11:57:42.000Z</time>
      </trkpt>
      <trkpt lat="42.9929248" lon="-5.7579658">
        <ele>1380.76</ele>
        <time>2020-07-21T11:57:43.000Z</time>
      </trkpt>
      <trkpt lat="42.9929327" lon="-5.7579763">
        <ele>1380.91</ele>
        <time>2020-07-21T11:57:44.000Z</time>
      </trkpt>
      <trkpt lat="42.9929423" lon="-5.7579867">
        <ele>1380.91</ele>
        <time>2020-07-21T11:57:45.000Z</time>
      </trkpt>
      <trkpt lat="42.9929537" lon="-5.757997">
        <ele>1381.07</ele>
        <time>2020-07-21T11:57:46.000Z</time>
      </trkpt>
      <trkpt lat="42.9929642" lon="-5.7580077">
        <ele>1381.07</ele>
        <time>2020-07-21T11:57:47.000Z</time>
      </trkpt>
      <trkpt lat="42.9929733" lon="-5.7580187">
        <ele>1381.37</ele>
        <time>2020-07-21T11:57:48.000Z</time>
      </trkpt>
      <trkpt lat="42.9929813" lon="-5.7580298">
        <ele>1381.37</ele>
        <time>2020-07-21T11:57:49.000Z</time>
      </trkpt>
      <trkpt lat="42.9929895" lon="-5.758041">
        <ele>1381.52</ele>
        <time>2020-07-21T11:57:50.000Z</time>
      </trkpt>
      <trkpt lat="42.9929987" lon="-5.758053">
        <ele>1381.52</ele>
        <time>2020-07-21T11:57:51.000Z</time>
      </trkpt>
      <trkpt lat="42.9930102" lon="-5.7580632">
        <ele>1381.83</ele>
        <time>2020-07-21T11:57:52.000Z</time>
      </trkpt>
      <trkpt lat="42.9930222" lon="-5.758073">
        <ele>1381.83</ele>
        <time>2020-07-21T11:57:53.000Z</time>
      </trkpt>
      <trkpt lat="42.9930337" lon="-5.7580812">
        <ele>1381.98</ele>
        <time>2020-07-21T11:57:54.000Z</time>
      </trkpt>
      <trkpt lat="42.9930435" lon="-5.7580908">
        <ele>1381.98</ele>
        <time>2020-07-21T11:57:55.000Z</time>
      </trkpt>
      <trkpt lat="42.9930538" lon="-5.7580995">
        <ele>1382.29</ele>
        <time>2020-07-21T11:57:56.000Z</time>
      </trkpt>
      <trkpt lat="42.9930655" lon="-5.7581077">
        <ele>1382.29</ele>
        <time>2020-07-21T11:57:57.000Z</time>
      </trkpt>
      <trkpt lat="42.9930773" lon="-5.7581152">
        <ele>1382.59</ele>
        <time>2020-07-21T11:57:58.000Z</time>
      </trkpt>
      <trkpt lat="42.9930887" lon="-5.7581222">
        <ele>1382.59</ele>
        <time>2020-07-21T11:57:59.000Z</time>
      </trkpt>
      <trkpt lat="42.9930998" lon="-5.758129">
        <ele>1382.89</ele>
        <time>2020-07-21T11:58:00.000Z</time>
      </trkpt>
      <trkpt lat="42.9931117" lon="-5.7581352">
        <ele>1382.89</ele>
        <time>2020-07-21T11:58:01.000Z</time>
      </trkpt>
      <trkpt lat="42.993125" lon="-5.758139">
        <ele>1383.05</ele>
        <time>2020-07-21T11:58:02.000Z</time>
      </trkpt>
      <trkpt lat="42.9931395" lon="-5.7581417">
        <ele>1383.05</ele>
        <time>2020-07-21T11:58:03.000Z</time>
      </trkpt>
      <trkpt lat="42.9931532" lon="-5.7581442">
        <ele>1383.35</ele>
        <time>2020-07-21T11:58:04.000Z</time>
      </trkpt>
      <trkpt lat="42.9931648" lon="-5.7581493">
        <ele>1383.35</ele>
        <time>2020-07-21T11:58:05.000Z</time>
      </trkpt>
      <trkpt lat="42.9931748" lon="-5.7581562">
        <ele>1383.66</ele>
        <time>2020-07-21T11:58:06.000Z</time>
      </trkpt>
      <trkpt lat="42.9931853" lon="-5.7581635">
        <ele>1383.66</ele>
        <time>2020-07-21T11:58:07.000Z</time>
      </trkpt>
      <trkpt lat="42.9931958" lon="-5.7581708">
        <ele>1383.96</ele>
        <time>2020-07-21T11:58:08.000Z</time>
      </trkpt>
      <trkpt lat="42.9932058" lon="-5.758178">
        <ele>1383.96</ele>
        <time>2020-07-21T11:58:09.000Z</time>
      </trkpt>
      <trkpt lat="42.9932157" lon="-5.758185">
        <ele>1384.11</ele>
        <time>2020-07-21T11:58:10.000Z</time>
      </trkpt>
      <trkpt lat="42.9932257" lon="-5.7581913">
        <ele>1384.11</ele>
        <time>2020-07-21T11:58:11.000Z</time>
      </trkpt>
      <trkpt lat="42.9932382" lon="-5.7581973">
        <ele>1384.42</ele>
        <time>2020-07-21T11:58:12.000Z</time>
      </trkpt>
      <trkpt lat="42.9932505" lon="-5.7582027">
        <ele>1384.42</ele>
        <time>2020-07-21T11:58:13.000Z</time>
      </trkpt>
      <trkpt lat="42.9932638" lon="-5.7582092">
        <ele>1384.57</ele>
        <time>2020-07-21T11:58:14.000Z</time>
      </trkpt>
      <trkpt lat="42.9932752" lon="-5.7582155">
        <ele>1384.57</ele>
        <time>2020-07-21T11:58:15.000Z</time>
      </trkpt>
      <trkpt lat="42.9932872" lon="-5.7582215">
        <ele>1384.88</ele>
        <time>2020-07-21T11:58:16.000Z</time>
      </trkpt>
      <trkpt lat="42.9932987" lon="-5.758226">
        <ele>1384.88</ele>
        <time>2020-07-21T11:58:17.000Z</time>
      </trkpt>
      <trkpt lat="42.9933102" lon="-5.7582307">
        <ele>1385.03</ele>
        <time>2020-07-21T11:58:18.000Z</time>
      </trkpt>
      <trkpt lat="42.9933213" lon="-5.758236">
        <ele>1385.03</ele>
        <time>2020-07-21T11:58:19.000Z</time>
      </trkpt>
      <trkpt lat="42.9933325" lon="-5.7582412">
        <ele>1385.33</ele>
        <time>2020-07-21T11:58:20.000Z</time>
      </trkpt>
      <trkpt lat="42.993344" lon="-5.758246">
        <ele>1385.33</ele>
        <time>2020-07-21T11:58:21.000Z</time>
      </trkpt>
      <trkpt lat="42.993356" lon="-5.7582512">
        <ele>1385.48</ele>
        <time>2020-07-21T11:58:22.000Z</time>
      </trkpt>
      <trkpt lat="42.9933682" lon="-5.7582563">
        <ele>1385.48</ele>
        <time>2020-07-21T11:58:23.000Z</time>
      </trkpt>
      <trkpt lat="42.9933798" lon="-5.7582615">
        <ele>1385.79</ele>
        <time>2020-07-21T11:58:24.000Z</time>
      </trkpt>
      <trkpt lat="42.9933915" lon="-5.7582648">
        <ele>1385.79</ele>
        <time>2020-07-21T11:58:25.000Z</time>
      </trkpt>
      <trkpt lat="42.9934033" lon="-5.7582675">
        <ele>1385.94</ele>
        <time>2020-07-21T11:58:26.000Z</time>
      </trkpt>
      <trkpt lat="42.9934158" lon="-5.7582697">
        <ele>1385.94</ele>
        <time>2020-07-21T11:58:27.000Z</time>
      </trkpt>
      <trkpt lat="42.9934273" lon="-5.758272">
        <ele>1386.25</ele>
        <time>2020-07-21T11:58:28.000Z</time>
      </trkpt>
      <trkpt lat="42.9934382" lon="-5.7582735">
        <ele>1386.25</ele>
        <time>2020-07-21T11:58:29.000Z</time>
      </trkpt>
      <trkpt lat="42.9934485" lon="-5.7582745">
        <ele>1386.4</ele>
        <time>2020-07-21T11:58:30.000Z</time>
      </trkpt>
      <trkpt lat="42.9934588" lon="-5.7582753">
        <ele>1386.4</ele>
        <time>2020-07-21T11:58:31.000Z</time>
      </trkpt>
      <trkpt lat="42.99347" lon="-5.7582772">
        <ele>1386.7</ele>
        <time>2020-07-21T11:58:32.000Z</time>
      </trkpt>
      <trkpt lat="42.9934807" lon="-5.7582783">
        <ele>1386.7</ele>
        <time>2020-07-21T11:58:33.000Z</time>
      </trkpt>
      <trkpt lat="42.99349" lon="-5.7582798">
        <ele>1387.01</ele>
        <time>2020-07-21T11:58:34.000Z</time>
      </trkpt>
      <trkpt lat="42.9934982" lon="-5.7582817">
        <ele>1387.01</ele>
        <time>2020-07-21T11:58:35.000Z</time>
      </trkpt>
      <trkpt lat="42.9935078" lon="-5.7582833">
        <ele>1387.16</ele>
        <time>2020-07-21T11:58:36.000Z</time>
      </trkpt>
      <trkpt lat="42.99352" lon="-5.7582848">
        <ele>1387.16</ele>
        <time>2020-07-21T11:58:37.000Z</time>
      </trkpt>
      <trkpt lat="42.9935337" lon="-5.7582855">
        <ele>1387.47</ele>
        <time>2020-07-21T11:58:38.000Z</time>
      </trkpt>
      <trkpt lat="42.9935465" lon="-5.758287">
        <ele>1387.47</ele>
        <time>2020-07-21T11:58:39.000Z</time>
      </trkpt>
      <trkpt lat="42.9935592" lon="-5.7582897">
        <ele>1387.77</ele>
        <time>2020-07-21T11:58:40.000Z</time>
      </trkpt>
      <trkpt lat="42.9935715" lon="-5.758294">
        <ele>1387.77</ele>
        <time>2020-07-21T11:58:41.000Z</time>
      </trkpt>
      <trkpt lat="42.9935832" lon="-5.7582992">
        <ele>1387.92</ele>
        <time>2020-07-21T11:58:42.000Z</time>
      </trkpt>
      <trkpt lat="42.9935942" lon="-5.7583022">
        <ele>1387.92</ele>
        <time>2020-07-21T11:58:43.000Z</time>
      </trkpt>
      <trkpt lat="42.9936043" lon="-5.7583033">
        <ele>1388.23</ele>
        <time>2020-07-21T11:58:44.000Z</time>
      </trkpt>
      <trkpt lat="42.9936145" lon="-5.7583045">
        <ele>1388.23</ele>
        <time>2020-07-21T11:58:45.000Z</time>
      </trkpt>
      <trkpt lat="42.9936242" lon="-5.758308">
        <ele>1388.53</ele>
        <time>2020-07-21T11:58:46.000Z</time>
      </trkpt>
      <trkpt lat="42.9936362" lon="-5.7583132">
        <ele>1388.53</ele>
        <time>2020-07-21T11:58:47.000Z</time>
      </trkpt>
      <trkpt lat="42.9936482" lon="-5.758318">
        <ele>1388.69</ele>
        <time>2020-07-21T11:58:48.000Z</time>
      </trkpt>
      <trkpt lat="42.9936602" lon="-5.7583223">
        <ele>1388.69</ele>
        <time>2020-07-21T11:58:49.000Z</time>
      </trkpt>
      <trkpt lat="42.9936703" lon="-5.7583257">
        <ele>1388.99</ele>
        <time>2020-07-21T11:58:50.000Z</time>
      </trkpt>
      <trkpt lat="42.9936807" lon="-5.7583282">
        <ele>1388.99</ele>
        <time>2020-07-21T11:58:51.000Z</time>
      </trkpt>
      <trkpt lat="42.9936915" lon="-5.7583315">
        <ele>1389.14</ele>
        <time>2020-07-21T11:58:52.000Z</time>
      </trkpt>
      <trkpt lat="42.9937025" lon="-5.7583348">
        <ele>1389.14</ele>
        <time>2020-07-21T11:58:53.000Z</time>
      </trkpt>
      <trkpt lat="42.993713" lon="-5.7583388">
        <ele>1389.45</ele>
        <time>2020-07-21T11:58:54.000Z</time>
      </trkpt>
      <trkpt lat="42.9937235" lon="-5.7583428">
        <ele>1389.45</ele>
        <time>2020-07-21T11:58:55.000Z</time>
      </trkpt>
      <trkpt lat="42.9937332" lon="-5.7583472">
        <ele>1389.75</ele>
        <time>2020-07-21T11:58:56.000Z</time>
      </trkpt>
      <trkpt lat="42.993744" lon="-5.758351">
        <ele>1389.75</ele>
        <time>2020-07-21T11:58:57.000Z</time>
      </trkpt>
      <trkpt lat="42.9937545" lon="-5.7583543">
        <ele>1389.91</ele>
        <time>2020-07-21T11:58:58.000Z</time>
      </trkpt>
      <trkpt lat="42.9937657" lon="-5.758357">
        <ele>1389.91</ele>
        <time>2020-07-21T11:58:59.000Z</time>
      </trkpt>
      <trkpt lat="42.9937768" lon="-5.7583595">
        <ele>1390.21</ele>
        <time>2020-07-21T11:59:00.000Z</time>
      </trkpt>
      <trkpt lat="42.9937872" lon="-5.7583612">
        <ele>1390.21</ele>
        <time>2020-07-21T11:59:01.000Z</time>
      </trkpt>
      <trkpt lat="42.9937987" lon="-5.7583602">
        <ele>1390.36</ele>
        <time>2020-07-21T11:59:02.000Z</time>
      </trkpt>
      <trkpt lat="42.9938107" lon="-5.7583573">
        <ele>1390.36</ele>
        <time>2020-07-21T11:59:03.000Z</time>
      </trkpt>
      <trkpt lat="42.9938225" lon="-5.7583547">
        <ele>1390.67</ele>
        <time>2020-07-21T11:59:04.000Z</time>
      </trkpt>
      <trkpt lat="42.9938333" lon="-5.7583547">
        <ele>1390.67</ele>
        <time>2020-07-21T11:59:05.000Z</time>
      </trkpt>
      <trkpt lat="42.9938433" lon="-5.7583567">
        <ele>1390.97</ele>
        <time>2020-07-21T11:59:06.000Z</time>
      </trkpt>
      <trkpt lat="42.9938537" lon="-5.7583587">
        <ele>1390.97</ele>
        <time>2020-07-21T11:59:07.000Z</time>
      </trkpt>
      <trkpt lat="42.9938648" lon="-5.7583617">
        <ele>1391.12</ele>
        <time>2020-07-21T11:59:08.000Z</time>
      </trkpt>
      <trkpt lat="42.993877" lon="-5.7583635">
        <ele>1391.12</ele>
        <time>2020-07-21T11:59:09.000Z</time>
      </trkpt>
      <trkpt lat="42.9938898" lon="-5.7583638">
        <ele>1391.28</ele>
        <time>2020-07-21T11:59:10.000Z</time>
      </trkpt>
      <trkpt lat="42.9939023" lon="-5.7583612">
        <ele>1391.28</ele>
        <time>2020-07-21T11:59:11.000Z</time>
      </trkpt>
      <trkpt lat="42.9939143" lon="-5.7583595">
        <ele>1391.58</ele>
        <time>2020-07-21T11:59:12.000Z</time>
      </trkpt>
      <trkpt lat="42.9939255" lon="-5.7583597">
        <ele>1391.58</ele>
        <time>2020-07-21T11:59:13.000Z</time>
      </trkpt>
      <trkpt lat="42.9939352" lon="-5.7583623">
        <ele>1391.89</ele>
        <time>2020-07-21T11:59:14.000Z</time>
      </trkpt>
      <trkpt lat="42.9939448" lon="-5.7583637">
        <ele>1391.89</ele>
        <time>2020-07-21T11:59:15.000Z</time>
      </trkpt>
      <trkpt lat="42.9939555" lon="-5.7583618">
        <ele>1392.04</ele>
        <time>2020-07-21T11:59:16.000Z</time>
      </trkpt>
      <trkpt lat="42.9939668" lon="-5.758359">
        <ele>1392.04</ele>
        <time>2020-07-21T11:59:17.000Z</time>
      </trkpt>
      <trkpt lat="42.9939787" lon="-5.7583585">
        <ele>1392.34</ele>
        <time>2020-07-21T11:59:18.000Z</time>
      </trkpt>
      <trkpt lat="42.9939905" lon="-5.7583603">
        <ele>1392.34</ele>
        <time>2020-07-21T11:59:19.000Z</time>
      </trkpt>
      <trkpt lat="42.9940025" lon="-5.7583632">
        <ele>1392.65</ele>
        <time>2020-07-21T11:59:20.000Z</time>
      </trkpt>
      <trkpt lat="42.9940137" lon="-5.7583658">
        <ele>1392.65</ele>
        <time>2020-07-21T11:59:21.000Z</time>
      </trkpt>
      <trkpt lat="42.994025" lon="-5.7583683">
        <ele>1392.95</ele>
        <time>2020-07-21T11:59:22.000Z</time>
      </trkpt>
      <trkpt lat="42.9940363" lon="-5.7583687">
        <ele>1392.95</ele>
        <time>2020-07-21T11:59:23.000Z</time>
      </trkpt>
      <trkpt lat="42.9940477" lon="-5.7583678">
        <ele>1393.1</ele>
        <time>2020-07-21T11:59:24.000Z</time>
      </trkpt>
      <trkpt lat="42.9940578" lon="-5.7583678">
        <ele>1393.1</ele>
        <time>2020-07-21T11:59:25.000Z</time>
      </trkpt>
      <trkpt lat="42.9940685" lon="-5.7583695">
        <ele>1393.41</ele>
        <time>2020-07-21T11:59:26.000Z</time>
      </trkpt>
      <trkpt lat="42.9940773" lon="-5.7583712">
        <ele>1393.41</ele>
        <time>2020-07-21T11:59:27.000Z</time>
      </trkpt>
      <trkpt lat="42.9940875" lon="-5.7583727">
        <ele>1393.71</ele>
        <time>2020-07-21T11:59:28.000Z</time>
      </trkpt>
      <trkpt lat="42.9940983" lon="-5.7583738">
        <ele>1393.71</ele>
        <time>2020-07-21T11:59:29.000Z</time>
      </trkpt>
      <trkpt lat="42.9941108" lon="-5.7583757">
        <ele>1394.02</ele>
        <time>2020-07-21T11:59:30.000Z</time>
      </trkpt>
      <trkpt lat="42.9941228" lon="-5.7583775">
        <ele>1394.02</ele>
        <time>2020-07-21T11:59:31.000Z</time>
      </trkpt>
      <trkpt lat="42.9941352" lon="-5.7583793">
        <ele>1394.17</ele>
        <time>2020-07-21T11:59:32.000Z</time>
      </trkpt>
      <trkpt lat="42.9941478" lon="-5.7583802">
        <ele>1394.17</ele>
        <time>2020-07-21T11:59:33.000Z</time>
      </trkpt>
      <trkpt lat="42.99416" lon="-5.7583807">
        <ele>1394.48</ele>
        <time>2020-07-21T11:59:34.000Z</time>
      </trkpt>
      <trkpt lat="42.9941715" lon="-5.7583812">
        <ele>1394.48</ele>
        <time>2020-07-21T11:59:35.000Z</time>
      </trkpt>
      <trkpt lat="42.9941828" lon="-5.7583817">
        <ele>1394.63</ele>
        <time>2020-07-21T11:59:36.000Z</time>
      </trkpt>
      <trkpt lat="42.9941945" lon="-5.7583827">
        <ele>1394.63</ele>
        <time>2020-07-21T11:59:37.000Z</time>
      </trkpt>
      <trkpt lat="42.9942063" lon="-5.7583842">
        <ele>1394.78</ele>
        <time>2020-07-21T11:59:38.000Z</time>
      </trkpt>
      <trkpt lat="42.9942185" lon="-5.7583863">
        <ele>1394.78</ele>
        <time>2020-07-21T11:59:39.000Z</time>
      </trkpt>
      <trkpt lat="42.9942305" lon="-5.7583885">
        <ele>1395.09</ele>
        <time>2020-07-21T11:59:40.000Z</time>
      </trkpt>
      <trkpt lat="42.9942422" lon="-5.7583903">
        <ele>1395.09</ele>
        <time>2020-07-21T11:59:41.000Z</time>
      </trkpt>
      <trkpt lat="42.9942537" lon="-5.7583922">
        <ele>1395.24</ele>
        <time>2020-07-21T11:59:42.000Z</time>
      </trkpt>
      <trkpt lat="42.9942653" lon="-5.7583948">
        <ele>1395.24</ele>
        <time>2020-07-21T11:59:43.000Z</time>
      </trkpt>
      <trkpt lat="42.9942773" lon="-5.7583977">
        <ele>1395.39</ele>
        <time>2020-07-21T11:59:44.000Z</time>
      </trkpt>
      <trkpt lat="42.9942895" lon="-5.7583998">
        <ele>1395.39</ele>
        <time>2020-07-21T11:59:45.000Z</time>
      </trkpt>
      <trkpt lat="42.9943015" lon="-5.7584013">
        <ele>1395.54</ele>
        <time>2020-07-21T11:59:46.000Z</time>
      </trkpt>
      <trkpt lat="42.9943132" lon="-5.7584037">
        <ele>1395.54</ele>
        <time>2020-07-21T11:59:47.000Z</time>
      </trkpt>
      <trkpt lat="42.9943242" lon="-5.7584063">
        <ele>1395.85</ele>
        <time>2020-07-21T11:59:48.000Z</time>
      </trkpt>
      <trkpt lat="42.9943353" lon="-5.7584087">
        <ele>1395.85</ele>
        <time>2020-07-21T11:59:49.000Z</time>
      </trkpt>
      <trkpt lat="42.9943465" lon="-5.7584102">
        <ele>1396</ele>
        <time>2020-07-21T11:59:50.000Z</time>
      </trkpt>
      <trkpt lat="42.9943577" lon="-5.7584113">
        <ele>1396</ele>
        <time>2020-07-21T11:59:51.000Z</time>
      </trkpt>
      <trkpt lat="42.9943687" lon="-5.7584128">
        <ele>1396.15</ele>
        <time>2020-07-21T11:59:52.000Z</time>
      </trkpt>
      <trkpt lat="42.9943795" lon="-5.7584153">
        <ele>1396.15</ele>
        <time>2020-07-21T11:59:53.000Z</time>
      </trkpt>
      <trkpt lat="42.9943907" lon="-5.7584188">
        <ele>1396.46</ele>
        <time>2020-07-21T11:59:54.000Z</time>
      </trkpt>
      <trkpt lat="42.9944015" lon="-5.758423">
        <ele>1396.46</ele>
        <time>2020-07-21T11:59:55.000Z</time>
      </trkpt>
      <trkpt lat="42.9944137" lon="-5.758427">
        <ele>1396.76</ele>
        <time>2020-07-21T11:59:56.000Z</time>
      </trkpt>
      <trkpt lat="42.9944247" lon="-5.7584307">
        <ele>1396.76</ele>
        <time>2020-07-21T11:59:57.000Z</time>
      </trkpt>
      <trkpt lat="42.9944338" lon="-5.7584333">
        <ele>1396.92</ele>
        <time>2020-07-21T11:59:58.000Z</time>
      </trkpt>
      <trkpt lat="42.9944437" lon="-5.758435">
        <ele>1396.92</ele>
        <time>2020-07-21T11:59:59.000Z</time>
      </trkpt>
      <trkpt lat="42.9944565" lon="-5.758436">
        <ele>1397.22</ele>
        <time>2020-07-21T12:00:00.000Z</time>
      </trkpt>
      <trkpt lat="42.9944718" lon="-5.7584385">
        <ele>1397.22</ele>
        <time>2020-07-21T12:00:01.000Z</time>
      </trkpt>
      <trkpt lat="42.9944855" lon="-5.7584423">
        <ele>1397.37</ele>
        <time>2020-07-21T12:00:02.000Z</time>
      </trkpt>
      <trkpt lat="42.9944973" lon="-5.758447">
        <ele>1397.37</ele>
        <time>2020-07-21T12:00:03.000Z</time>
      </trkpt>
      <trkpt lat="42.9945087" lon="-5.7584503">
        <ele>1397.68</ele>
        <time>2020-07-21T12:00:04.000Z</time>
      </trkpt>
      <trkpt lat="42.9945203" lon="-5.7584533">
        <ele>1397.68</ele>
        <time>2020-07-21T12:00:05.000Z</time>
      </trkpt>
      <trkpt lat="42.9945322" lon="-5.7584567">
        <ele>1397.98</ele>
        <time>2020-07-21T12:00:06.000Z</time>
      </trkpt>
      <trkpt lat="42.9945445" lon="-5.758461">
        <ele>1397.98</ele>
        <time>2020-07-21T12:00:07.000Z</time>
      </trkpt>
      <trkpt lat="42.9945577" lon="-5.7584645">
        <ele>1398.14</ele>
        <time>2020-07-21T12:00:08.000Z</time>
      </trkpt>
      <trkpt lat="42.9945702" lon="-5.7584682">
        <ele>1398.14</ele>
        <time>2020-07-21T12:00:09.000Z</time>
      </trkpt>
      <trkpt lat="42.9945818" lon="-5.758473">
        <ele>1398.44</ele>
        <time>2020-07-21T12:00:10.000Z</time>
      </trkpt>
      <trkpt lat="42.9945922" lon="-5.7584793">
        <ele>1398.44</ele>
        <time>2020-07-21T12:00:11.000Z</time>
      </trkpt>
      <trkpt lat="42.9946032" lon="-5.7584852">
        <ele>1398.59</ele>
        <time>2020-07-21T12:00:12.000Z</time>
      </trkpt>
      <trkpt lat="42.9946158" lon="-5.7584883">
        <ele>1398.59</ele>
        <time>2020-07-21T12:00:13.000Z</time>
      </trkpt>
      <trkpt lat="42.9946283" lon="-5.7584902">
        <ele>1398.9</ele>
        <time>2020-07-21T12:00:14.000Z</time>
      </trkpt>
      <trkpt lat="42.994641" lon="-5.7584927">
        <ele>1398.9</ele>
        <time>2020-07-21T12:00:15.000Z</time>
      </trkpt>
      <trkpt lat="42.9946517" lon="-5.7584968">
        <ele>1399.05</ele>
        <time>2020-07-21T12:00:16.000Z</time>
      </trkpt>
      <trkpt lat="42.9946633" lon="-5.758502">
        <ele>1399.05</ele>
        <time>2020-07-21T12:00:17.000Z</time>
      </trkpt>
      <trkpt lat="42.9946753" lon="-5.7585072">
        <ele>1399.35</ele>
        <time>2020-07-21T12:00:18.000Z</time>
      </trkpt>
      <trkpt lat="42.994687" lon="-5.7585122">
        <ele>1399.35</ele>
        <time>2020-07-21T12:00:19.000Z</time>
      </trkpt>
      <trkpt lat="42.994696" lon="-5.7585172">
        <ele>1399.51</ele>
        <time>2020-07-21T12:00:20.000Z</time>
      </trkpt>
      <trkpt lat="42.9947048" lon="-5.7585222">
        <ele>1399.51</ele>
        <time>2020-07-21T12:00:21.000Z</time>
      </trkpt>
      <trkpt lat="42.9947143" lon="-5.7585278">
        <ele>1399.81</ele>
        <time>2020-07-21T12:00:22.000Z</time>
      </trkpt>
      <trkpt lat="42.994726" lon="-5.7585348">
        <ele>1399.81</ele>
        <time>2020-07-21T12:00:23.000Z</time>
      </trkpt>
      <trkpt lat="42.9947358" lon="-5.758543">
        <ele>1399.96</ele>
        <time>2020-07-21T12:00:24.000Z</time>
      </trkpt>
      <trkpt lat="42.994745" lon="-5.7585513">
        <ele>1399.96</ele>
        <time>2020-07-21T12:00:25.000Z</time>
      </trkpt>
      <trkpt lat="42.9947535" lon="-5.7585588">
        <ele>1400.12</ele>
        <time>2020-07-21T12:00:26.000Z</time>
      </trkpt>
      <trkpt lat="42.9947633" lon="-5.7585647">
        <ele>1400.12</ele>
        <time>2020-07-21T12:00:27.000Z</time>
      </trkpt>
      <trkpt lat="42.9947748" lon="-5.7585682">
        <ele>1400.42</ele>
        <time>2020-07-21T12:00:28.000Z</time>
      </trkpt>
      <trkpt lat="42.9947878" lon="-5.7585677">
        <ele>1400.42</ele>
        <time>2020-07-21T12:00:29.000Z</time>
      </trkpt>
      <trkpt lat="42.9948013" lon="-5.7585653">
        <ele>1400.57</ele>
        <time>2020-07-21T12:00:30.000Z</time>
      </trkpt>
      <trkpt lat="42.9948143" lon="-5.7585647">
        <ele>1400.57</ele>
        <time>2020-07-21T12:00:31.000Z</time>
      </trkpt>
      <trkpt lat="42.9948273" lon="-5.7585667">
        <ele>1400.72</ele>
        <time>2020-07-21T12:00:32.000Z</time>
      </trkpt>
      <trkpt lat="42.9948417" lon="-5.7585675">
        <ele>1400.72</ele>
        <time>2020-07-21T12:00:33.000Z</time>
      </trkpt>
      <trkpt lat="42.994855" lon="-5.758567">
        <ele>1401.03</ele>
        <time>2020-07-21T12:00:34.000Z</time>
      </trkpt>
      <trkpt lat="42.9948678" lon="-5.7585655">
        <ele>1401.03</ele>
        <time>2020-07-21T12:00:35.000Z</time>
      </trkpt>
      <trkpt lat="42.9948798" lon="-5.7585655">
        <ele>1401.18</ele>
        <time>2020-07-21T12:00:36.000Z</time>
      </trkpt>
      <trkpt lat="42.9948943" lon="-5.7585652">
        <ele>1401.18</ele>
        <time>2020-07-21T12:00:37.000Z</time>
      </trkpt>
      <trkpt lat="42.9949088" lon="-5.7585648">
        <ele>1401.33</ele>
        <time>2020-07-21T12:00:38.000Z</time>
      </trkpt>
      <trkpt lat="42.9949232" lon="-5.7585647">
        <ele>1401.33</ele>
        <time>2020-07-21T12:00:39.000Z</time>
      </trkpt>
      <trkpt lat="42.9949362" lon="-5.7585652">
        <ele>1401.49</ele>
        <time>2020-07-21T12:00:40.000Z</time>
      </trkpt>
      <trkpt lat="42.9949488" lon="-5.7585642">
        <ele>1401.49</ele>
        <time>2020-07-21T12:00:41.000Z</time>
      </trkpt>
      <trkpt lat="42.9949618" lon="-5.7585637">
        <ele>1401.64</ele>
        <time>2020-07-21T12:00:42.000Z</time>
      </trkpt>
      <trkpt lat="42.9949758" lon="-5.7585625">
        <ele>1401.64</ele>
        <time>2020-07-21T12:00:43.000Z</time>
      </trkpt>
      <trkpt lat="42.9949905" lon="-5.7585627">
        <ele>1401.79</ele>
        <time>2020-07-21T12:00:44.000Z</time>
      </trkpt>
      <trkpt lat="42.9950045" lon="-5.758562">
        <ele>1401.79</ele>
        <time>2020-07-21T12:00:45.000Z</time>
      </trkpt>
      <trkpt lat="42.995018" lon="-5.7585607">
        <ele>1401.79</ele>
        <time>2020-07-21T12:00:46.000Z</time>
      </trkpt>
      <trkpt lat="42.9950313" lon="-5.7585583">
        <ele>1401.79</ele>
        <time>2020-07-21T12:00:47.000Z</time>
      </trkpt>
      <trkpt lat="42.9950458" lon="-5.7585558">
        <ele>1401.94</ele>
        <time>2020-07-21T12:00:48.000Z</time>
      </trkpt>
      <trkpt lat="42.9950607" lon="-5.7585525">
        <ele>1401.94</ele>
        <time>2020-07-21T12:00:49.000Z</time>
      </trkpt>
      <trkpt lat="42.9950747" lon="-5.75855">
        <ele>1401.94</ele>
        <time>2020-07-21T12:00:50.000Z</time>
      </trkpt>
      <trkpt lat="42.9950872" lon="-5.7585472">
        <ele>1401.94</ele>
        <time>2020-07-21T12:00:51.000Z</time>
      </trkpt>
      <trkpt lat="42.9950988" lon="-5.7585457">
        <ele>1401.94</ele>
        <time>2020-07-21T12:00:52.000Z</time>
      </trkpt>
      <trkpt lat="42.9951098" lon="-5.7585435">
        <ele>1401.94</ele>
        <time>2020-07-21T12:00:53.000Z</time>
      </trkpt>
      <trkpt lat="42.9951202" lon="-5.7585408">
        <ele>1401.94</ele>
        <time>2020-07-21T12:00:54.000Z</time>
      </trkpt>
      <trkpt lat="42.9951307" lon="-5.7585383">
        <ele>1401.94</ele>
        <time>2020-07-21T12:00:55.000Z</time>
      </trkpt>
      <trkpt lat="42.9951432" lon="-5.7585373">
        <ele>1401.94</ele>
        <time>2020-07-21T12:00:56.000Z</time>
      </trkpt>
      <trkpt lat="42.9951565" lon="-5.7585382">
        <ele>1401.94</ele>
        <time>2020-07-21T12:00:57.000Z</time>
      </trkpt>
      <trkpt lat="42.9951695" lon="-5.7585395">
        <ele>1401.94</ele>
        <time>2020-07-21T12:00:58.000Z</time>
      </trkpt>
      <trkpt lat="42.9951818" lon="-5.7585392">
        <ele>1401.94</ele>
        <time>2020-07-21T12:00:59.000Z</time>
      </trkpt>
      <trkpt lat="42.9951937" lon="-5.7585378">
        <ele>1401.94</ele>
        <time>2020-07-21T12:01:00.000Z</time>
      </trkpt>
      <trkpt lat="42.995206" lon="-5.7585358">
        <ele>1401.94</ele>
        <time>2020-07-21T12:01:01.000Z</time>
      </trkpt>
      <trkpt lat="42.9952182" lon="-5.7585345">
        <ele>1401.94</ele>
        <time>2020-07-21T12:01:02.000Z</time>
      </trkpt>
      <trkpt lat="42.9952303" lon="-5.7585338">
        <ele>1401.94</ele>
        <time>2020-07-21T12:01:03.000Z</time>
      </trkpt>
      <trkpt lat="42.9952417" lon="-5.7585352">
        <ele>1401.94</ele>
        <time>2020-07-21T12:01:04.000Z</time>
      </trkpt>
      <trkpt lat="42.995253" lon="-5.7585365">
        <ele>1401.94</ele>
        <time>2020-07-21T12:01:05.000Z</time>
      </trkpt>
      <trkpt lat="42.9952643" lon="-5.7585378">
        <ele>1401.94</ele>
        <time>2020-07-21T12:01:06.000Z</time>
      </trkpt>
      <trkpt lat="42.9952765" lon="-5.7585395">
        <ele>1401.94</ele>
        <time>2020-07-21T12:01:07.000Z</time>
      </trkpt>
      <trkpt lat="42.9952883" lon="-5.758542">
        <ele>1401.79</ele>
        <time>2020-07-21T12:01:08.000Z</time>
      </trkpt>
      <trkpt lat="42.9953" lon="-5.7585455">
        <ele>1401.79</ele>
        <time>2020-07-21T12:01:09.000Z</time>
      </trkpt>
      <trkpt lat="42.9953115" lon="-5.7585492">
        <ele>1401.79</ele>
        <time>2020-07-21T12:01:10.000Z</time>
      </trkpt>
      <trkpt lat="42.9953238" lon="-5.7585522">
        <ele>1401.79</ele>
        <time>2020-07-21T12:01:11.000Z</time>
      </trkpt>
      <trkpt lat="42.995336" lon="-5.7585557">
        <ele>1401.79</ele>
        <time>2020-07-21T12:01:12.000Z</time>
      </trkpt>
      <trkpt lat="42.995348" lon="-5.75856">
        <ele>1401.79</ele>
        <time>2020-07-21T12:01:13.000Z</time>
      </trkpt>
      <trkpt lat="42.995359" lon="-5.7585665">
        <ele>1401.79</ele>
        <time>2020-07-21T12:01:14.000Z</time>
      </trkpt>
      <trkpt lat="42.9953698" lon="-5.7585735">
        <ele>1401.79</ele>
        <time>2020-07-21T12:01:15.000Z</time>
      </trkpt>
      <trkpt lat="42.9953805" lon="-5.7585807">
        <ele>1401.79</ele>
        <time>2020-07-21T12:01:16.000Z</time>
      </trkpt>
      <trkpt lat="42.9953917" lon="-5.7585877">
        <ele>1401.79</ele>
        <time>2020-07-21T12:01:17.000Z</time>
      </trkpt>
      <trkpt lat="42.9954037" lon="-5.7585955">
        <ele>1401.94</ele>
        <time>2020-07-21T12:01:18.000Z</time>
      </trkpt>
      <trkpt lat="42.9954158" lon="-5.758605">
        <ele>1401.94</ele>
        <time>2020-07-21T12:01:19.000Z</time>
      </trkpt>
      <trkpt lat="42.9954275" lon="-5.7586152">
        <ele>1401.94</ele>
        <time>2020-07-21T12:01:20.000Z</time>
      </trkpt>
      <trkpt lat="42.9954383" lon="-5.7586258">
        <ele>1401.94</ele>
        <time>2020-07-21T12:01:21.000Z</time>
      </trkpt>
      <trkpt lat="42.9954492" lon="-5.7586355">
        <ele>1402.1</ele>
        <time>2020-07-21T12:01:22.000Z</time>
      </trkpt>
      <trkpt lat="42.9954605" lon="-5.758644">
        <ele>1402.1</ele>
        <time>2020-07-21T12:01:23.000Z</time>
      </trkpt>
      <trkpt lat="42.9954718" lon="-5.7586503">
        <ele>1402.1</ele>
        <time>2020-07-21T12:01:24.000Z</time>
      </trkpt>
      <trkpt lat="42.9954837" lon="-5.7586572">
        <ele>1402.1</ele>
        <time>2020-07-21T12:01:25.000Z</time>
      </trkpt>
      <trkpt lat="42.9954957" lon="-5.7586647">
        <ele>1402.25</ele>
        <time>2020-07-21T12:01:26.000Z</time>
      </trkpt>
      <trkpt lat="42.9955083" lon="-5.758673">
        <ele>1402.25</ele>
        <time>2020-07-21T12:01:27.000Z</time>
      </trkpt>
      <trkpt lat="42.995521" lon="-5.7586805">
        <ele>1402.25</ele>
        <time>2020-07-21T12:01:28.000Z</time>
      </trkpt>
      <trkpt lat="42.9955338" lon="-5.7586877">
        <ele>1402.25</ele>
        <time>2020-07-21T12:01:29.000Z</time>
      </trkpt>
      <trkpt lat="42.9955462" lon="-5.758695">
        <ele>1402.4</ele>
        <time>2020-07-21T12:01:30.000Z</time>
      </trkpt>
      <trkpt lat="42.9955595" lon="-5.7587025">
        <ele>1402.4</ele>
        <time>2020-07-21T12:01:31.000Z</time>
      </trkpt>
      <trkpt lat="42.9955722" lon="-5.7587097">
        <ele>1402.55</ele>
        <time>2020-07-21T12:01:32.000Z</time>
      </trkpt>
      <trkpt lat="42.9955853" lon="-5.7587165">
        <ele>1402.55</ele>
        <time>2020-07-21T12:01:33.000Z</time>
      </trkpt>
      <trkpt lat="42.9955978" lon="-5.758722">
        <ele>1402.55</ele>
        <time>2020-07-21T12:01:34.000Z</time>
      </trkpt>
      <trkpt lat="42.9956108" lon="-5.758727">
        <ele>1402.55</ele>
        <time>2020-07-21T12:01:35.000Z</time>
      </trkpt>
      <trkpt lat="42.995624" lon="-5.7587323">
        <ele>1402.71</ele>
        <time>2020-07-21T12:01:36.000Z</time>
      </trkpt>
      <trkpt lat="42.9956373" lon="-5.7587388">
        <ele>1402.71</ele>
        <time>2020-07-21T12:01:37.000Z</time>
      </trkpt>
      <trkpt lat="42.9956507" lon="-5.7587455">
        <ele>1402.71</ele>
        <time>2020-07-21T12:01:38.000Z</time>
      </trkpt>
      <trkpt lat="42.9956632" lon="-5.758752">
        <ele>1402.71</ele>
        <time>2020-07-21T12:01:39.000Z</time>
      </trkpt>
      <trkpt lat="42.995674" lon="-5.7587593">
        <ele>1402.71</ele>
        <time>2020-07-21T12:01:40.000Z</time>
      </trkpt>
      <trkpt lat="42.9956838" lon="-5.7587673">
        <ele>1402.71</ele>
        <time>2020-07-21T12:01:41.000Z</time>
      </trkpt>
      <trkpt lat="42.9956937" lon="-5.7587758">
        <ele>1402.86</ele>
        <time>2020-07-21T12:01:42.000Z</time>
      </trkpt>
      <trkpt lat="42.9957048" lon="-5.758782">
        <ele>1402.86</ele>
        <time>2020-07-21T12:01:43.000Z</time>
      </trkpt>
      <trkpt lat="42.9957173" lon="-5.7587848">
        <ele>1402.86</ele>
        <time>2020-07-21T12:01:44.000Z</time>
      </trkpt>
      <trkpt lat="42.9957305" lon="-5.7587825">
        <ele>1402.86</ele>
        <time>2020-07-21T12:01:45.000Z</time>
      </trkpt>
      <trkpt lat="42.995743" lon="-5.7587775">
        <ele>1402.86</ele>
        <time>2020-07-21T12:01:46.000Z</time>
      </trkpt>
      <trkpt lat="42.9957552" lon="-5.758771">
        <ele>1402.86</ele>
        <time>2020-07-21T12:01:47.000Z</time>
      </trkpt>
      <trkpt lat="42.9957672" lon="-5.7587655">
        <ele>1402.86</ele>
        <time>2020-07-21T12:01:48.000Z</time>
      </trkpt>
      <trkpt lat="42.9957798" lon="-5.7587607">
        <ele>1402.86</ele>
        <time>2020-07-21T12:01:49.000Z</time>
      </trkpt>
      <trkpt lat="42.9957932" lon="-5.7587568">
        <ele>1403.01</ele>
        <time>2020-07-21T12:01:50.000Z</time>
      </trkpt>
      <trkpt lat="42.9958065" lon="-5.7587535">
        <ele>1403.01</ele>
        <time>2020-07-21T12:01:51.000Z</time>
      </trkpt>
      <trkpt lat="42.99582" lon="-5.7587513">
        <ele>1403.01</ele>
        <time>2020-07-21T12:01:52.000Z</time>
      </trkpt>
      <trkpt lat="42.9958337" lon="-5.7587497">
        <ele>1403.01</ele>
        <time>2020-07-21T12:01:53.000Z</time>
      </trkpt>
      <trkpt lat="42.995847" lon="-5.758747">
        <ele>1403.01</ele>
        <time>2020-07-21T12:01:54.000Z</time>
      </trkpt>
      <trkpt lat="42.9958603" lon="-5.758744">
        <ele>1403.01</ele>
        <time>2020-07-21T12:01:55.000Z</time>
      </trkpt>
      <trkpt lat="42.9958732" lon="-5.7587415">
        <ele>1403.16</ele>
        <time>2020-07-21T12:01:56.000Z</time>
      </trkpt>
      <trkpt lat="42.9958857" lon="-5.7587412">
        <ele>1403.16</ele>
        <time>2020-07-21T12:01:57.000Z</time>
      </trkpt>
      <trkpt lat="42.995898" lon="-5.758742">
        <ele>1403.16</ele>
        <time>2020-07-21T12:01:58.000Z</time>
      </trkpt>
      <trkpt lat="42.9959112" lon="-5.7587437">
        <ele>1403.16</ele>
        <time>2020-07-21T12:01:59.000Z</time>
      </trkpt>
      <trkpt lat="42.9959248" lon="-5.7587443">
        <ele>1403.32</ele>
        <time>2020-07-21T12:02:00.000Z</time>
      </trkpt>
      <trkpt lat="42.995939" lon="-5.7587447">
        <ele>1403.32</ele>
        <time>2020-07-21T12:02:01.000Z</time>
      </trkpt>
      <trkpt lat="42.9959528" lon="-5.7587447">
        <ele>1403.32</ele>
        <time>2020-07-21T12:02:02.000Z</time>
      </trkpt>
      <trkpt lat="42.9959663" lon="-5.7587455">
        <ele>1403.32</ele>
        <time>2020-07-21T12:02:03.000Z</time>
      </trkpt>
      <trkpt lat="42.9959795" lon="-5.7587463">
        <ele>1403.32</ele>
        <time>2020-07-21T12:02:04.000Z</time>
      </trkpt>
      <trkpt lat="42.9959922" lon="-5.7587477">
        <ele>1403.32</ele>
        <time>2020-07-21T12:02:05.000Z</time>
      </trkpt>
      <trkpt lat="42.9960053" lon="-5.7587482">
        <ele>1403.32</ele>
        <time>2020-07-21T12:02:06.000Z</time>
      </trkpt>
      <trkpt lat="42.9960182" lon="-5.7587488">
        <ele>1403.32</ele>
        <time>2020-07-21T12:02:07.000Z</time>
      </trkpt>
      <trkpt lat="42.9960313" lon="-5.7587493">
        <ele>1403.32</ele>
        <time>2020-07-21T12:02:08.000Z</time>
      </trkpt>
      <trkpt lat="42.9960443" lon="-5.7587502">
        <ele>1403.32</ele>
        <time>2020-07-21T12:02:09.000Z</time>
      </trkpt>
      <trkpt lat="42.9960573" lon="-5.7587517">
        <ele>1403.32</ele>
        <time>2020-07-21T12:02:10.000Z</time>
      </trkpt>
      <trkpt lat="42.9960687" lon="-5.758754">
        <ele>1403.32</ele>
        <time>2020-07-21T12:02:11.000Z</time>
      </trkpt>
      <trkpt lat="42.9960763" lon="-5.7587572">
        <ele>1403.32</ele>
        <time>2020-07-21T12:02:12.000Z</time>
      </trkpt>
      <trkpt lat="42.9960798" lon="-5.7587588">
        <ele>1403.32</ele>
        <time>2020-07-21T12:02:13.000Z</time>
      </trkpt>
      <trkpt lat="42.99608" lon="-5.7587602">
        <ele>1403.32</ele>
        <time>2020-07-21T12:02:14.000Z</time>
      </trkpt>
      <trkpt lat="42.99608" lon="-5.7587648">
        <ele>1403.32</ele>
        <time>2020-07-21T12:02:15.000Z</time>
      </trkpt>
      <trkpt lat="42.9960823" lon="-5.7587757">
        <ele>1403.32</ele>
        <time>2020-07-21T12:02:16.000Z</time>
      </trkpt>
      <trkpt lat="42.996085" lon="-5.7587903">
        <ele>1403.32</ele>
        <time>2020-07-21T12:02:17.000Z</time>
      </trkpt>
      <trkpt lat="42.9960878" lon="-5.7588045">
        <ele>1403.32</ele>
        <time>2020-07-21T12:02:18.000Z</time>
      </trkpt>
      <trkpt lat="42.9960892" lon="-5.7588183">
        <ele>1403.32</ele>
        <time>2020-07-21T12:02:19.000Z</time>
      </trkpt>
      <trkpt lat="42.996091" lon="-5.7588328">
        <ele>1403.16</ele>
        <time>2020-07-21T12:02:20.000Z</time>
      </trkpt>
      <trkpt lat="42.9960935" lon="-5.7588477">
        <ele>1403.16</ele>
        <time>2020-07-21T12:02:21.000Z</time>
      </trkpt>
      <trkpt lat="42.9960972" lon="-5.7588588">
        <ele>1403.16</ele>
        <time>2020-07-21T12:02:22.000Z</time>
      </trkpt>
      <trkpt lat="42.9961007" lon="-5.758868">
        <ele>1403.16</ele>
        <time>2020-07-21T12:02:23.000Z</time>
      </trkpt>
      <trkpt lat="42.9961037" lon="-5.7588772">
        <ele>1403.01</ele>
        <time>2020-07-21T12:02:24.000Z</time>
      </trkpt>
      <trkpt lat="42.9961067" lon="-5.7588882">
        <ele>1403.01</ele>
        <time>2020-07-21T12:02:25.000Z</time>
      </trkpt>
      <trkpt lat="42.9961112" lon="-5.7588992">
        <ele>1402.86</ele>
        <time>2020-07-21T12:02:26.000Z</time>
      </trkpt>
      <trkpt lat="42.9961163" lon="-5.7589092">
        <ele>1402.86</ele>
        <time>2020-07-21T12:02:27.000Z</time>
      </trkpt>
      <trkpt lat="42.9961212" lon="-5.7589175">
        <ele>1402.71</ele>
        <time>2020-07-21T12:02:28.000Z</time>
      </trkpt>
      <trkpt lat="42.9961242" lon="-5.7589228">
        <ele>1402.71</ele>
        <time>2020-07-21T12:02:29.000Z</time>
      </trkpt>
      <trkpt lat="42.9961252" lon="-5.7589248">
        <ele>1402.55</ele>
        <time>2020-07-21T12:02:30.000Z</time>
      </trkpt>
      <trkpt lat="42.996125" lon="-5.7589248">
        <ele>1402.55</ele>
        <time>2020-07-21T12:02:31.000Z</time>
      </trkpt>
      <trkpt lat="42.9961248" lon="-5.7589247">
        <ele>1402.4</ele>
        <time>2020-07-21T12:02:32.000Z</time>
      </trkpt>
      <trkpt lat="42.996125" lon="-5.7589248">
        <ele>1402.4</ele>
        <time>2020-07-21T12:02:33.000Z</time>
      </trkpt>
      <trkpt lat="42.9961253" lon="-5.758924">
        <ele>1402.25</ele>
        <time>2020-07-21T12:02:34.000Z</time>
      </trkpt>
      <trkpt lat="42.9961258" lon="-5.7589215">
        <ele>1402.25</ele>
        <time>2020-07-21T12:02:35.000Z</time>
      </trkpt>
      <trkpt lat="42.9961262" lon="-5.7589183">
        <ele>1402.1</ele>
        <time>2020-07-21T12:02:36.000Z</time>
      </trkpt>
      <trkpt lat="42.9961255" lon="-5.758916">
        <ele>1402.1</ele>
        <time>2020-07-21T12:02:37.000Z</time>
      </trkpt>
      <trkpt lat="42.9961228" lon="-5.7589142">
        <ele>1401.94</ele>
        <time>2020-07-21T12:02:38.000Z</time>
      </trkpt>
      <trkpt lat="42.9961218" lon="-5.7589163">
        <ele>1401.94</ele>
        <time>2020-07-21T12:02:39.000Z</time>
      </trkpt>
      <trkpt lat="42.9961212" lon="-5.758922">
        <ele>1401.79</ele>
        <time>2020-07-21T12:02:40.000Z</time>
      </trkpt>
      <trkpt lat="42.9961235" lon="-5.7589287">
        <ele>1401.79</ele>
        <time>2020-07-21T12:02:41.000Z</time>
      </trkpt>
      <trkpt lat="42.996124" lon="-5.7589315">
        <ele>1401.49</ele>
        <time>2020-07-21T12:02:42.000Z</time>
      </trkpt>
      <trkpt lat="42.996125" lon="-5.758932">
        <ele>1401.49</ele>
        <time>2020-07-21T12:02:43.000Z</time>
      </trkpt>
      <trkpt lat="42.9961252" lon="-5.7589333">
        <ele>1401.33</ele>
        <time>2020-07-21T12:02:44.000Z</time>
      </trkpt>
      <trkpt lat="42.9961267" lon="-5.7589353">
        <ele>1401.33</ele>
        <time>2020-07-21T12:02:45.000Z</time>
      </trkpt>
      <trkpt lat="42.9961273" lon="-5.7589358">
        <ele>1401.18</ele>
        <time>2020-07-21T12:02:46.000Z</time>
      </trkpt>
      <trkpt lat="42.9961272" lon="-5.7589352">
        <ele>1401.18</ele>
        <time>2020-07-21T12:02:47.000Z</time>
      </trkpt>
      <trkpt lat="42.9961273" lon="-5.7589327">
        <ele>1401.03</ele>
        <time>2020-07-21T12:02:48.000Z</time>
      </trkpt>
      <trkpt lat="42.996128" lon="-5.7589307">
        <ele>1401.03</ele>
        <time>2020-07-21T12:02:49.000Z</time>
      </trkpt>
      <trkpt lat="42.9961295" lon="-5.7589295">
        <ele>1400.88</ele>
        <time>2020-07-21T12:02:50.000Z</time>
      </trkpt>
      <trkpt lat="42.9961303" lon="-5.75893">
        <ele>1400.88</ele>
        <time>2020-07-21T12:02:51.000Z</time>
      </trkpt>
      <trkpt lat="42.9961312" lon="-5.7589308">
        <ele>1400.57</ele>
        <time>2020-07-21T12:02:52.000Z</time>
      </trkpt>
      <trkpt lat="42.9961303" lon="-5.7589298">
        <ele>1400.57</ele>
        <time>2020-07-21T12:02:53.000Z</time>
      </trkpt>
      <trkpt lat="42.9961297" lon="-5.7589322">
        <ele>1400.42</ele>
        <time>2020-07-21T12:02:54.000Z</time>
      </trkpt>
      <trkpt lat="42.9961285" lon="-5.7589382">
        <ele>1400.42</ele>
        <time>2020-07-21T12:02:55.000Z</time>
      </trkpt>
      <trkpt lat="42.9961278" lon="-5.7589465">
        <ele>1400.27</ele>
        <time>2020-07-21T12:02:56.000Z</time>
      </trkpt>
      <trkpt lat="42.9961265" lon="-5.758952">
        <ele>1400.27</ele>
        <time>2020-07-21T12:02:57.000Z</time>
      </trkpt>
      <trkpt lat="42.9961255" lon="-5.7589548">
        <ele>1400.12</ele>
        <time>2020-07-21T12:02:58.000Z</time>
      </trkpt>
      <trkpt lat="42.9961258" lon="-5.7589573">
        <ele>1400.12</ele>
        <time>2020-07-21T12:02:59.000Z</time>
      </trkpt>
      <trkpt lat="42.9961253" lon="-5.7589617">
        <ele>1399.96</ele>
        <time>2020-07-21T12:03:00.000Z</time>
      </trkpt>
      <trkpt lat="42.996125" lon="-5.7589683">
        <ele>1399.96</ele>
        <time>2020-07-21T12:03:01.000Z</time>
      </trkpt>
      <trkpt lat="42.9961238" lon="-5.7589777">
        <ele>1399.81</ele>
        <time>2020-07-21T12:03:02.000Z</time>
      </trkpt>
      <trkpt lat="42.9961238" lon="-5.7589873">
        <ele>1399.81</ele>
        <time>2020-07-21T12:03:03.000Z</time>
      </trkpt>
      <trkpt lat="42.9961247" lon="-5.7589977">
        <ele>1399.66</ele>
        <time>2020-07-21T12:03:04.000Z</time>
      </trkpt>
      <trkpt lat="42.9961252" lon="-5.7590075">
        <ele>1399.66</ele>
        <time>2020-07-21T12:03:05.000Z</time>
      </trkpt>
      <trkpt lat="42.9961255" lon="-5.7590193">
        <ele>1399.51</ele>
        <time>2020-07-21T12:03:06.000Z</time>
      </trkpt>
      <trkpt lat="42.996126" lon="-5.7590313">
        <ele>1399.51</ele>
        <time>2020-07-21T12:03:07.000Z</time>
      </trkpt>
      <trkpt lat="42.9961273" lon="-5.759042">
        <ele>1399.35</ele>
        <time>2020-07-21T12:03:08.000Z</time>
      </trkpt>
      <trkpt lat="42.996129" lon="-5.7590528">
        <ele>1399.35</ele>
        <time>2020-07-21T12:03:09.000Z</time>
      </trkpt>
      <trkpt lat="42.9961303" lon="-5.7590645">
        <ele>1399.05</ele>
        <time>2020-07-21T12:03:10.000Z</time>
      </trkpt>
      <trkpt lat="42.9961313" lon="-5.759079">
        <ele>1399.05</ele>
        <time>2020-07-21T12:03:11.000Z</time>
      </trkpt>
      <trkpt lat="42.9961325" lon="-5.7590937">
        <ele>1398.9</ele>
        <time>2020-07-21T12:03:12.000Z</time>
      </trkpt>
      <trkpt lat="42.996134" lon="-5.7591075">
        <ele>1398.9</ele>
        <time>2020-07-21T12:03:13.000Z</time>
      </trkpt>
      <trkpt lat="42.9961358" lon="-5.7591213">
        <ele>1398.74</ele>
        <time>2020-07-21T12:03:14.000Z</time>
      </trkpt>
      <trkpt lat="42.9961392" lon="-5.7591353">
        <ele>1398.74</ele>
        <time>2020-07-21T12:03:15.000Z</time>
      </trkpt>
      <trkpt lat="42.9961435" lon="-5.7591495">
        <ele>1398.44</ele>
        <time>2020-07-21T12:03:16.000Z</time>
      </trkpt>
      <trkpt lat="42.9961475" lon="-5.7591632">
        <ele>1398.44</ele>
        <time>2020-07-21T12:03:17.000Z</time>
      </trkpt>
      <trkpt lat="42.9961507" lon="-5.7591747">
        <ele>1398.29</ele>
        <time>2020-07-21T12:03:18.000Z</time>
      </trkpt>
      <trkpt lat="42.9961525" lon="-5.7591868">
        <ele>1398.29</ele>
        <time>2020-07-21T12:03:19.000Z</time>
      </trkpt>
      <trkpt lat="42.996155" lon="-5.7592003">
        <ele>1397.98</ele>
        <time>2020-07-21T12:03:20.000Z</time>
      </trkpt>
      <trkpt lat="42.9961578" lon="-5.759217">
        <ele>1397.98</ele>
        <time>2020-07-21T12:03:21.000Z</time>
      </trkpt>
      <trkpt lat="42.996161" lon="-5.7592338">
        <ele>1397.83</ele>
        <time>2020-07-21T12:03:22.000Z</time>
      </trkpt>
      <trkpt lat="42.9961645" lon="-5.7592497">
        <ele>1397.83</ele>
        <time>2020-07-21T12:03:23.000Z</time>
      </trkpt>
      <trkpt lat="42.9961695" lon="-5.7592642">
        <ele>1397.53</ele>
        <time>2020-07-21T12:03:24.000Z</time>
      </trkpt>
      <trkpt lat="42.9961767" lon="-5.7592787">
        <ele>1397.53</ele>
        <time>2020-07-21T12:03:25.000Z</time>
      </trkpt>
      <trkpt lat="42.9961852" lon="-5.759293">
        <ele>1397.22</ele>
        <time>2020-07-21T12:03:26.000Z</time>
      </trkpt>
      <trkpt lat="42.9961932" lon="-5.759306">
        <ele>1397.22</ele>
        <time>2020-07-21T12:03:27.000Z</time>
      </trkpt>
      <trkpt lat="42.996202" lon="-5.7593177">
        <ele>1396.92</ele>
        <time>2020-07-21T12:03:28.000Z</time>
      </trkpt>
      <trkpt lat="42.9962118" lon="-5.7593277">
        <ele>1396.92</ele>
        <time>2020-07-21T12:03:29.000Z</time>
      </trkpt>
      <trkpt lat="42.9962235" lon="-5.7593365">
        <ele>1396.61</ele>
        <time>2020-07-21T12:03:30.000Z</time>
      </trkpt>
      <trkpt lat="42.996235" lon="-5.7593443">
        <ele>1396.61</ele>
        <time>2020-07-21T12:03:31.000Z</time>
      </trkpt>
      <trkpt lat="42.9962457" lon="-5.7593525">
        <ele>1396.31</ele>
        <time>2020-07-21T12:03:32.000Z</time>
      </trkpt>
      <trkpt lat="42.9962545" lon="-5.7593608">
        <ele>1396.31</ele>
        <time>2020-07-21T12:03:33.000Z</time>
      </trkpt>
      <trkpt lat="42.996261" lon="-5.7593683">
        <ele>1396</ele>
        <time>2020-07-21T12:03:34.000Z</time>
      </trkpt>
      <trkpt lat="42.9962673" lon="-5.759376">
        <ele>1396</ele>
        <time>2020-07-21T12:03:35.000Z</time>
      </trkpt>
      <trkpt lat="42.9962743" lon="-5.7593835">
        <ele>1395.54</ele>
        <time>2020-07-21T12:03:36.000Z</time>
      </trkpt>
      <trkpt lat="42.9962838" lon="-5.7593927">
        <ele>1395.54</ele>
        <time>2020-07-21T12:03:37.000Z</time>
      </trkpt>
      <trkpt lat="42.9962942" lon="-5.7594027">
        <ele>1395.24</ele>
        <time>2020-07-21T12:03:38.000Z</time>
      </trkpt>
      <trkpt lat="42.9963057" lon="-5.759413">
        <ele>1395.24</ele>
        <time>2020-07-21T12:03:39.000Z</time>
      </trkpt>
      <trkpt lat="42.9963173" lon="-5.7594223">
        <ele>1394.78</ele>
        <time>2020-07-21T12:03:40.000Z</time>
      </trkpt>
      <trkpt lat="42.9963292" lon="-5.7594305">
        <ele>1394.78</ele>
        <time>2020-07-21T12:03:41.000Z</time>
      </trkpt>
      <trkpt lat="42.9963415" lon="-5.7594375">
        <ele>1394.32</ele>
        <time>2020-07-21T12:03:42.000Z</time>
      </trkpt>
      <trkpt lat="42.9963567" lon="-5.7594452">
        <ele>1394.32</ele>
        <time>2020-07-21T12:03:43.000Z</time>
      </trkpt>
      <trkpt lat="42.9963732" lon="-5.759452">
        <ele>1394.02</ele>
        <time>2020-07-21T12:03:44.000Z</time>
      </trkpt>
      <trkpt lat="42.9963902" lon="-5.7594595">
        <ele>1394.02</ele>
        <time>2020-07-21T12:03:45.000Z</time>
      </trkpt>
      <trkpt lat="42.9964062" lon="-5.7594667">
        <ele>1393.56</ele>
        <time>2020-07-21T12:03:46.000Z</time>
      </trkpt>
      <trkpt lat="42.996422" lon="-5.7594738">
        <ele>1393.56</ele>
        <time>2020-07-21T12:03:47.000Z</time>
      </trkpt>
      <trkpt lat="42.9964362" lon="-5.7594812">
        <ele>1393.1</ele>
        <time>2020-07-21T12:03:48.000Z</time>
      </trkpt>
      <trkpt lat="42.9964507" lon="-5.7594875">
        <ele>1393.1</ele>
        <time>2020-07-21T12:03:49.000Z</time>
      </trkpt>
      <trkpt lat="42.9964643" lon="-5.7594928">
        <ele>1392.65</ele>
        <time>2020-07-21T12:03:50.000Z</time>
      </trkpt>
      <trkpt lat="42.9964782" lon="-5.7594965">
        <ele>1392.65</ele>
        <time>2020-07-21T12:03:51.000Z</time>
      </trkpt>
      <trkpt lat="42.996488" lon="-5.7595012">
        <ele>1392.19</ele>
        <time>2020-07-21T12:03:52.000Z</time>
      </trkpt>
      <trkpt lat="42.9964968" lon="-5.7595072">
        <ele>1392.19</ele>
        <time>2020-07-21T12:03:53.000Z</time>
      </trkpt>
      <trkpt lat="42.9965045" lon="-5.7595143">
        <ele>1391.73</ele>
        <time>2020-07-21T12:03:54.000Z</time>
      </trkpt>
      <trkpt lat="42.9965132" lon="-5.759519">
        <ele>1391.73</ele>
        <time>2020-07-21T12:03:55.000Z</time>
      </trkpt>
      <trkpt lat="42.9965193" lon="-5.75952">
        <ele>1391.28</ele>
        <time>2020-07-21T12:03:56.000Z</time>
      </trkpt>
      <trkpt lat="42.9965233" lon="-5.759519">
        <ele>1391.28</ele>
        <time>2020-07-21T12:03:57.000Z</time>
      </trkpt>
      <trkpt lat="42.996522" lon="-5.7595193">
        <ele>1390.82</ele>
        <time>2020-07-21T12:03:58.000Z</time>
      </trkpt>
      <trkpt lat="42.9965222" lon="-5.7595205">
        <ele>1390.82</ele>
        <time>2020-07-21T12:03:59.000Z</time>
      </trkpt>
      <trkpt lat="42.9965225" lon="-5.7595193">
        <ele>1390.36</ele>
        <time>2020-07-21T12:04:00.000Z</time>
      </trkpt>
      <trkpt lat="42.9965255" lon="-5.7595155">
        <ele>1390.36</ele>
        <time>2020-07-21T12:04:01.000Z</time>
      </trkpt>
      <trkpt lat="42.9965278" lon="-5.7595085">
        <ele>1389.91</ele>
        <time>2020-07-21T12:04:02.000Z</time>
      </trkpt>
      <trkpt lat="42.9965303" lon="-5.759503">
        <ele>1389.91</ele>
        <time>2020-07-21T12:04:03.000Z</time>
      </trkpt>
      <trkpt lat="42.9965312" lon="-5.759496">
        <ele>1389.3</ele>
        <time>2020-07-21T12:04:04.000Z</time>
      </trkpt>
      <trkpt lat="42.9965287" lon="-5.7594903">
        <ele>1389.3</ele>
        <time>2020-07-21T12:04:05.000Z</time>
      </trkpt>
      <trkpt lat="42.9965233" lon="-5.759484">
        <ele>1388.84</ele>
        <time>2020-07-21T12:04:06.000Z</time>
      </trkpt>
      <trkpt lat="42.9965148" lon="-5.7594805">
        <ele>1388.84</ele>
        <time>2020-07-21T12:04:07.000Z</time>
      </trkpt>
      <trkpt lat="42.9965055" lon="-5.7594808">
        <ele>1388.23</ele>
        <time>2020-07-21T12:04:08.000Z</time>
      </trkpt>
      <trkpt lat="42.9964948" lon="-5.7594832">
        <ele>1388.23</ele>
        <time>2020-07-21T12:04:09.000Z</time>
      </trkpt>
      <trkpt lat="42.9964852" lon="-5.7594858">
        <ele>1387.77</ele>
        <time>2020-07-21T12:04:10.000Z</time>
      </trkpt>
      <trkpt lat="42.9964733" lon="-5.7594897">
        <ele>1387.77</ele>
        <time>2020-07-21T12:04:11.000Z</time>
      </trkpt>
      <trkpt lat="42.9964592" lon="-5.7594957">
        <ele>1387.16</ele>
        <time>2020-07-21T12:04:12.000Z</time>
      </trkpt>
      <trkpt lat="42.9964435" lon="-5.7595033">
        <ele>1387.16</ele>
        <time>2020-07-21T12:04:13.000Z</time>
      </trkpt>
      <trkpt lat="42.9964285" lon="-5.7595135">
        <ele>1386.55</ele>
        <time>2020-07-21T12:04:14.000Z</time>
      </trkpt>
      <trkpt lat="42.9964157" lon="-5.7595245">
        <ele>1386.55</ele>
        <time>2020-07-21T12:04:15.000Z</time>
      </trkpt>
      <trkpt lat="42.9964038" lon="-5.7595373">
        <ele>1385.94</ele>
        <time>2020-07-21T12:04:16.000Z</time>
      </trkpt>
      <trkpt lat="42.9963933" lon="-5.759552">
        <ele>1385.94</ele>
        <time>2020-07-21T12:04:17.000Z</time>
      </trkpt>
      <trkpt lat="42.9963837" lon="-5.759568">
        <ele>1385.33</ele>
        <time>2020-07-21T12:04:18.000Z</time>
      </trkpt>
      <trkpt lat="42.9963747" lon="-5.759584">
        <ele>1385.33</ele>
        <time>2020-07-21T12:04:19.000Z</time>
      </trkpt>
      <trkpt lat="42.9963665" lon="-5.759597">
        <ele>1384.88</ele>
        <time>2020-07-21T12:04:20.000Z</time>
      </trkpt>
      <trkpt lat="42.9963592" lon="-5.7596087">
        <ele>1384.88</ele>
        <time>2020-07-21T12:04:21.000Z</time>
      </trkpt>
      <trkpt lat="42.996353" lon="-5.7596198">
        <ele>1384.27</ele>
        <time>2020-07-21T12:04:22.000Z</time>
      </trkpt>
      <trkpt lat="42.9963487" lon="-5.7596335">
        <ele>1384.27</ele>
        <time>2020-07-21T12:04:23.000Z</time>
      </trkpt>
      <trkpt lat="42.9963463" lon="-5.7596475">
        <ele>1383.66</ele>
        <time>2020-07-21T12:04:24.000Z</time>
      </trkpt>
      <trkpt lat="42.9963465" lon="-5.7596625">
        <ele>1383.66</ele>
        <time>2020-07-21T12:04:25.000Z</time>
      </trkpt>
      <trkpt lat="42.9963473" lon="-5.7596768">
        <ele>1383.05</ele>
        <time>2020-07-21T12:04:26.000Z</time>
      </trkpt>
      <trkpt lat="42.9963483" lon="-5.7596927">
        <ele>1383.05</ele>
        <time>2020-07-21T12:04:27.000Z</time>
      </trkpt>
      <trkpt lat="42.9963497" lon="-5.7597082">
        <ele>1382.44</ele>
        <time>2020-07-21T12:04:28.000Z</time>
      </trkpt>
      <trkpt lat="42.9963537" lon="-5.7597232">
        <ele>1382.44</ele>
        <time>2020-07-21T12:04:29.000Z</time>
      </trkpt>
      <trkpt lat="42.9963597" lon="-5.7597382">
        <ele>1381.83</ele>
        <time>2020-07-21T12:04:30.000Z</time>
      </trkpt>
      <trkpt lat="42.9963658" lon="-5.7597538">
        <ele>1381.83</ele>
        <time>2020-07-21T12:04:31.000Z</time>
      </trkpt>
      <trkpt lat="42.9963702" lon="-5.7597693">
        <ele>1381.22</ele>
        <time>2020-07-21T12:04:32.000Z</time>
      </trkpt>
      <trkpt lat="42.9963728" lon="-5.7597837">
        <ele>1381.22</ele>
        <time>2020-07-21T12:04:33.000Z</time>
      </trkpt>
      <trkpt lat="42.996375" lon="-5.7597993">
        <ele>1380.61</ele>
        <time>2020-07-21T12:04:34.000Z</time>
      </trkpt>
      <trkpt lat="42.9963758" lon="-5.7598162">
        <ele>1380.61</ele>
        <time>2020-07-21T12:04:35.000Z</time>
      </trkpt>
      <trkpt lat="42.9963768" lon="-5.7598347">
        <ele>1380</ele>
        <time>2020-07-21T12:04:36.000Z</time>
      </trkpt>
      <trkpt lat="42.9963778" lon="-5.7598508">
        <ele>1380</ele>
        <time>2020-07-21T12:04:37.000Z</time>
      </trkpt>
      <trkpt lat="42.996379" lon="-5.7598657">
        <ele>1379.39</ele>
        <time>2020-07-21T12:04:38.000Z</time>
      </trkpt>
      <trkpt lat="42.9963808" lon="-5.7598792">
        <ele>1379.39</ele>
        <time>2020-07-21T12:04:39.000Z</time>
      </trkpt>
      <trkpt lat="42.9963838" lon="-5.7598912">
        <ele>1378.78</ele>
        <time>2020-07-21T12:04:40.000Z</time>
      </trkpt>
      <trkpt lat="42.9963888" lon="-5.7599007">
        <ele>1378.78</ele>
        <time>2020-07-21T12:04:41.000Z</time>
      </trkpt>
      <trkpt lat="42.9963938" lon="-5.7599087">
        <ele>1378.17</ele>
        <time>2020-07-21T12:04:42.000Z</time>
      </trkpt>
      <trkpt lat="42.996398" lon="-5.7599168">
        <ele>1378.17</ele>
        <time>2020-07-21T12:04:43.000Z</time>
      </trkpt>
      <trkpt lat="42.9964007" lon="-5.7599265">
        <ele>1377.56</ele>
        <time>2020-07-21T12:04:44.000Z</time>
      </trkpt>
      <trkpt lat="42.9964027" lon="-5.7599368">
        <ele>1377.56</ele>
        <time>2020-07-21T12:04:45.000Z</time>
      </trkpt>
      <trkpt lat="42.9964052" lon="-5.7599472">
        <ele>1376.95</ele>
        <time>2020-07-21T12:04:46.000Z</time>
      </trkpt>
      <trkpt lat="42.9964098" lon="-5.7599573">
        <ele>1376.95</ele>
        <time>2020-07-21T12:04:47.000Z</time>
      </trkpt>
      <trkpt lat="42.9964158" lon="-5.759967">
        <ele>1376.34</ele>
        <time>2020-07-21T12:04:48.000Z</time>
      </trkpt>
      <trkpt lat="42.9964238" lon="-5.7599768">
        <ele>1376.34</ele>
        <time>2020-07-21T12:04:49.000Z</time>
      </trkpt>
      <trkpt lat="42.9964302" lon="-5.759985">
        <ele>1375.73</ele>
        <time>2020-07-21T12:04:50.000Z</time>
      </trkpt>
      <trkpt lat="42.9964352" lon="-5.7599945">
        <ele>1375.73</ele>
        <time>2020-07-21T12:04:51.000Z</time>
      </trkpt>
      <trkpt lat="42.9964377" lon="-5.7600053">
        <ele>1375.12</ele>
        <time>2020-07-21T12:04:52.000Z</time>
      </trkpt>
      <trkpt lat="42.9964402" lon="-5.7600188">
        <ele>1375.12</ele>
        <time>2020-07-21T12:04:53.000Z</time>
      </trkpt>
      <trkpt lat="42.9964432" lon="-5.760033">
        <ele>1374.36</ele>
        <time>2020-07-21T12:04:54.000Z</time>
      </trkpt>
      <trkpt lat="42.996447" lon="-5.7600475">
        <ele>1374.36</ele>
        <time>2020-07-21T12:04:55.000Z</time>
      </trkpt>
      <trkpt lat="42.9964512" lon="-5.7600622">
        <ele>1373.75</ele>
        <time>2020-07-21T12:04:56.000Z</time>
      </trkpt>
      <trkpt lat="42.9964562" lon="-5.7600765">
        <ele>1373.75</ele>
        <time>2020-07-21T12:04:57.000Z</time>
      </trkpt>
      <trkpt lat="42.9964612" lon="-5.7600908">
        <ele>1373.14</ele>
        <time>2020-07-21T12:04:58.000Z</time>
      </trkpt>
      <trkpt lat="42.996466" lon="-5.7601052">
        <ele>1373.14</ele>
        <time>2020-07-21T12:04:59.000Z</time>
      </trkpt>
      <trkpt lat="42.9964712" lon="-5.7601192">
        <ele>1372.53</ele>
        <time>2020-07-21T12:05:00.000Z</time>
      </trkpt>
      <trkpt lat="42.9964772" lon="-5.7601327">
        <ele>1372.53</ele>
        <time>2020-07-21T12:05:01.000Z</time>
      </trkpt>
      <trkpt lat="42.9964833" lon="-5.7601453">
        <ele>1371.92</ele>
        <time>2020-07-21T12:05:02.000Z</time>
      </trkpt>
      <trkpt lat="42.9964892" lon="-5.7601582">
        <ele>1371.92</ele>
        <time>2020-07-21T12:05:03.000Z</time>
      </trkpt>
      <trkpt lat="42.9964953" lon="-5.760171">
        <ele>1371.16</ele>
        <time>2020-07-21T12:05:04.000Z</time>
      </trkpt>
      <trkpt lat="42.9965017" lon="-5.7601848">
        <ele>1371.16</ele>
        <time>2020-07-21T12:05:05.000Z</time>
      </trkpt>
      <trkpt lat="42.9965087" lon="-5.760199">
        <ele>1370.55</ele>
        <time>2020-07-21T12:05:06.000Z</time>
      </trkpt>
      <trkpt lat="42.9965155" lon="-5.7602118">
        <ele>1370.55</ele>
        <time>2020-07-21T12:05:07.000Z</time>
      </trkpt>
      <trkpt lat="42.996522" lon="-5.7602228">
        <ele>1369.94</ele>
        <time>2020-07-21T12:05:08.000Z</time>
      </trkpt>
      <trkpt lat="42.9965267" lon="-5.7602348">
        <ele>1369.94</ele>
        <time>2020-07-21T12:05:09.000Z</time>
      </trkpt>
      <trkpt lat="42.9965302" lon="-5.7602478">
        <ele>1369.18</ele>
        <time>2020-07-21T12:05:10.000Z</time>
      </trkpt>
      <trkpt lat="42.9965355" lon="-5.7602627">
        <ele>1369.18</ele>
        <time>2020-07-21T12:05:11.000Z</time>
      </trkpt>
      <trkpt lat="42.996544" lon="-5.760275">
        <ele>1368.57</ele>
        <time>2020-07-21T12:05:12.000Z</time>
      </trkpt>
      <trkpt lat="42.9965557" lon="-5.7602848">
        <ele>1368.57</ele>
        <time>2020-07-21T12:05:13.000Z</time>
      </trkpt>
      <trkpt lat="42.996566" lon="-5.7602938">
        <ele>1367.96</ele>
        <time>2020-07-21T12:05:14.000Z</time>
      </trkpt>
      <trkpt lat="42.996575" lon="-5.7603043">
        <ele>1367.96</ele>
        <time>2020-07-21T12:05:15.000Z</time>
      </trkpt>
      <trkpt lat="42.9965828" lon="-5.7603178">
        <ele>1367.35</ele>
        <time>2020-07-21T12:05:16.000Z</time>
      </trkpt>
      <trkpt lat="42.9965915" lon="-5.7603307">
        <ele>1367.35</ele>
        <time>2020-07-21T12:05:17.000Z</time>
      </trkpt>
      <trkpt lat="42.9965998" lon="-5.7603442">
        <ele>1366.74</ele>
        <time>2020-07-21T12:05:18.000Z</time>
      </trkpt>
      <trkpt lat="42.9966073" lon="-5.7603568">
        <ele>1366.74</ele>
        <time>2020-07-21T12:05:19.000Z</time>
      </trkpt>
      <trkpt lat="42.9966135" lon="-5.7603697">
        <ele>1366.13</ele>
        <time>2020-07-21T12:05:20.000Z</time>
      </trkpt>
      <trkpt lat="42.9966178" lon="-5.760383">
        <ele>1366.13</ele>
        <time>2020-07-21T12:05:21.000Z</time>
      </trkpt>
      <trkpt lat="42.996621" lon="-5.7603978">
        <ele>1365.52</ele>
        <time>2020-07-21T12:05:22.000Z</time>
      </trkpt>
      <trkpt lat="42.9966222" lon="-5.7604142">
        <ele>1365.52</ele>
        <time>2020-07-21T12:05:23.000Z</time>
      </trkpt>
      <trkpt lat="42.9966198" lon="-5.7604275">
        <ele>1364.91</ele>
        <time>2020-07-21T12:05:24.000Z</time>
      </trkpt>
      <trkpt lat="42.9966172" lon="-5.7604388">
        <ele>1364.91</ele>
        <time>2020-07-21T12:05:25.000Z</time>
      </trkpt>
      <trkpt lat="42.9966155" lon="-5.7604462">
        <ele>1364.3</ele>
        <time>2020-07-21T12:05:26.000Z</time>
      </trkpt>
      <trkpt lat="42.9966175" lon="-5.7604552">
        <ele>1364.3</ele>
        <time>2020-07-21T12:05:27.000Z</time>
      </trkpt>
      <trkpt lat="42.99662" lon="-5.7604645">
        <ele>1363.69</ele>
        <time>2020-07-21T12:05:28.000Z</time>
      </trkpt>
      <trkpt lat="42.9966232" lon="-5.7604752">
        <ele>1363.69</ele>
        <time>2020-07-21T12:05:29.000Z</time>
      </trkpt>
      <trkpt lat="42.9966265" lon="-5.7604852">
        <ele>1363.08</ele>
        <time>2020-07-21T12:05:30.000Z</time>
      </trkpt>
      <trkpt lat="42.9966288" lon="-5.760497">
        <ele>1363.08</ele>
        <time>2020-07-21T12:05:31.000Z</time>
      </trkpt>
      <trkpt lat="42.9966302" lon="-5.7605132">
        <ele>1362.47</ele>
        <time>2020-07-21T12:05:32.000Z</time>
      </trkpt>
      <trkpt lat="42.9966317" lon="-5.7605327">
        <ele>1362.47</ele>
        <time>2020-07-21T12:05:33.000Z</time>
      </trkpt>
      <trkpt lat="42.996638" lon="-5.7605503">
        <ele>1361.71</ele>
        <time>2020-07-21T12:05:34.000Z</time>
      </trkpt>
      <trkpt lat="42.9966468" lon="-5.7605653">
        <ele>1361.71</ele>
        <time>2020-07-21T12:05:35.000Z</time>
      </trkpt>
      <trkpt lat="42.9966538" lon="-5.7605758">
        <ele>1361.1</ele>
        <time>2020-07-21T12:05:36.000Z</time>
      </trkpt>
      <trkpt lat="42.9966555" lon="-5.7605832">
        <ele>1361.1</ele>
        <time>2020-07-21T12:05:37.000Z</time>
      </trkpt>
      <trkpt lat="42.996654" lon="-5.7605885">
        <ele>1360.64</ele>
        <time>2020-07-21T12:05:38.000Z</time>
      </trkpt>
      <trkpt lat="42.9966525" lon="-5.7605935">
        <ele>1360.64</ele>
        <time>2020-07-21T12:05:39.000Z</time>
      </trkpt>
      <trkpt lat="42.9966527" lon="-5.760603">
        <ele>1360.03</ele>
        <time>2020-07-21T12:05:40.000Z</time>
      </trkpt>
      <trkpt lat="42.9966542" lon="-5.7606148">
        <ele>1360.03</ele>
        <time>2020-07-21T12:05:41.000Z</time>
      </trkpt>
      <trkpt lat="42.9966597" lon="-5.7606297">
        <ele>1359.58</ele>
        <time>2020-07-21T12:05:42.000Z</time>
      </trkpt>
      <trkpt lat="42.9966685" lon="-5.7606442">
        <ele>1359.58</ele>
        <time>2020-07-21T12:05:43.000Z</time>
      </trkpt>
      <trkpt lat="42.9966793" lon="-5.7606578">
        <ele>1358.97</ele>
        <time>2020-07-21T12:05:44.000Z</time>
      </trkpt>
      <trkpt lat="42.9966897" lon="-5.76067">
        <ele>1358.97</ele>
        <time>2020-07-21T12:05:45.000Z</time>
      </trkpt>
      <trkpt lat="42.9966987" lon="-5.7606795">
        <ele>1358.51</ele>
        <time>2020-07-21T12:05:46.000Z</time>
      </trkpt>
      <trkpt lat="42.9967067" lon="-5.760688">
        <ele>1358.51</ele>
        <time>2020-07-21T12:05:47.000Z</time>
      </trkpt>
      <trkpt lat="42.9967145" lon="-5.7606963">
        <ele>1358.05</ele>
        <time>2020-07-21T12:05:48.000Z</time>
      </trkpt>
      <trkpt lat="42.99672" lon="-5.7607025">
        <ele>1358.05</ele>
        <time>2020-07-21T12:05:49.000Z</time>
      </trkpt>
      <trkpt lat="42.996723" lon="-5.7607075">
        <ele>1357.6</ele>
        <time>2020-07-21T12:05:50.000Z</time>
      </trkpt>
      <trkpt lat="42.9967267" lon="-5.7607118">
        <ele>1357.6</ele>
        <time>2020-07-21T12:05:51.000Z</time>
      </trkpt>
      <trkpt lat="42.996733" lon="-5.7607183">
        <ele>1357.14</ele>
        <time>2020-07-21T12:05:52.000Z</time>
      </trkpt>
      <trkpt lat="42.9967458" lon="-5.7607243">
        <ele>1357.14</ele>
        <time>2020-07-21T12:05:53.000Z</time>
      </trkpt>
      <trkpt lat="42.996762" lon="-5.760729">
        <ele>1356.68</ele>
        <time>2020-07-21T12:05:54.000Z</time>
      </trkpt>
      <trkpt lat="42.9967827" lon="-5.7607303">
        <ele>1356.68</ele>
        <time>2020-07-21T12:05:55.000Z</time>
      </trkpt>
      <trkpt lat="42.9968015" lon="-5.76073">
        <ele>1356.07</ele>
        <time>2020-07-21T12:05:56.000Z</time>
      </trkpt>
      <trkpt lat="42.9968148" lon="-5.7607297">
        <ele>1356.07</ele>
        <time>2020-07-21T12:05:57.000Z</time>
      </trkpt>
      <trkpt lat="42.9968238" lon="-5.7607328">
        <ele>1355.61</ele>
        <time>2020-07-21T12:05:58.000Z</time>
      </trkpt>
      <trkpt lat="42.9968323" lon="-5.760737">
        <ele>1355.61</ele>
        <time>2020-07-21T12:05:59.000Z</time>
      </trkpt>
      <trkpt lat="42.9968385" lon="-5.7607385">
        <ele>1355.16</ele>
        <time>2020-07-21T12:06:00.000Z</time>
      </trkpt>
      <trkpt lat="42.9968432" lon="-5.7607395">
        <ele>1355.16</ele>
        <time>2020-07-21T12:06:01.000Z</time>
      </trkpt>
      <trkpt lat="42.9968467" lon="-5.7607415">
        <ele>1354.7</ele>
        <time>2020-07-21T12:06:02.000Z</time>
      </trkpt>
      <trkpt lat="42.9968542" lon="-5.760747">
        <ele>1354.7</ele>
        <time>2020-07-21T12:06:03.000Z</time>
      </trkpt>
      <trkpt lat="42.9968635" lon="-5.7607538">
        <ele>1354.09</ele>
        <time>2020-07-21T12:06:04.000Z</time>
      </trkpt>
      <trkpt lat="42.9968733" lon="-5.7607602">
        <ele>1354.09</ele>
        <time>2020-07-21T12:06:05.000Z</time>
      </trkpt>
      <trkpt lat="42.9968822" lon="-5.7607655">
        <ele>1353.63</ele>
        <time>2020-07-21T12:06:06.000Z</time>
      </trkpt>
      <trkpt lat="42.9968892" lon="-5.7607712">
        <ele>1353.63</ele>
        <time>2020-07-21T12:06:07.000Z</time>
      </trkpt>
      <trkpt lat="42.9968932" lon="-5.7607787">
        <ele>1353.18</ele>
        <time>2020-07-21T12:06:08.000Z</time>
      </trkpt>
      <trkpt lat="42.9968975" lon="-5.7607895">
        <ele>1353.18</ele>
        <time>2020-07-21T12:06:09.000Z</time>
      </trkpt>
      <trkpt lat="42.9969025" lon="-5.7608015">
        <ele>1352.72</ele>
        <time>2020-07-21T12:06:10.000Z</time>
      </trkpt>
      <trkpt lat="42.9969083" lon="-5.7608137">
        <ele>1352.72</ele>
        <time>2020-07-21T12:06:11.000Z</time>
      </trkpt>
      <trkpt lat="42.9969127" lon="-5.760824">
        <ele>1352.26</ele>
        <time>2020-07-21T12:06:12.000Z</time>
      </trkpt>
      <trkpt lat="42.996916" lon="-5.7608315">
        <ele>1352.26</ele>
        <time>2020-07-21T12:06:13.000Z</time>
      </trkpt>
      <trkpt lat="42.9969202" lon="-5.760838">
        <ele>1351.8</ele>
        <time>2020-07-21T12:06:14.000Z</time>
      </trkpt>
      <trkpt lat="42.9969253" lon="-5.760845">
        <ele>1351.8</ele>
        <time>2020-07-21T12:06:15.000Z</time>
      </trkpt>
      <trkpt lat="42.996931" lon="-5.7608512">
        <ele>1351.35</ele>
        <time>2020-07-21T12:06:16.000Z</time>
      </trkpt>
      <trkpt lat="42.9969373" lon="-5.7608527">
        <ele>1351.35</ele>
        <time>2020-07-21T12:06:17.000Z</time>
      </trkpt>
      <trkpt lat="42.9969432" lon="-5.7608537">
        <ele>1350.89</ele>
        <time>2020-07-21T12:06:18.000Z</time>
      </trkpt>
      <trkpt lat="42.996949" lon="-5.7608545">
        <ele>1350.89</ele>
        <time>2020-07-21T12:06:19.000Z</time>
      </trkpt>
      <trkpt lat="42.9969567" lon="-5.7608587">
        <ele>1350.43</ele>
        <time>2020-07-21T12:06:20.000Z</time>
      </trkpt>
      <trkpt lat="42.9969653" lon="-5.7608613">
        <ele>1350.43</ele>
        <time>2020-07-21T12:06:21.000Z</time>
      </trkpt>
      <trkpt lat="42.9969735" lon="-5.7608633">
        <ele>1349.98</ele>
        <time>2020-07-21T12:06:22.000Z</time>
      </trkpt>
      <trkpt lat="42.9969812" lon="-5.7608663">
        <ele>1349.98</ele>
        <time>2020-07-21T12:06:23.000Z</time>
      </trkpt>
      <trkpt lat="42.9969872" lon="-5.7608732">
        <ele>1349.52</ele>
        <time>2020-07-21T12:06:24.000Z</time>
      </trkpt>
      <trkpt lat="42.9969917" lon="-5.7608845">
        <ele>1349.52</ele>
        <time>2020-07-21T12:06:25.000Z</time>
      </trkpt>
      <trkpt lat="42.996994" lon="-5.7609003">
        <ele>1349.06</ele>
        <time>2020-07-21T12:06:26.000Z</time>
      </trkpt>
      <trkpt lat="42.9969963" lon="-5.7609182">
        <ele>1349.06</ele>
        <time>2020-07-21T12:06:27.000Z</time>
      </trkpt>
      <trkpt lat="42.9970007" lon="-5.7609355">
        <ele>1348.6</ele>
        <time>2020-07-21T12:06:28.000Z</time>
      </trkpt>
      <trkpt lat="42.997005" lon="-5.7609528">
        <ele>1348.6</ele>
        <time>2020-07-21T12:06:29.000Z</time>
      </trkpt>
      <trkpt lat="42.997008" lon="-5.7609683">
        <ele>1348.15</ele>
        <time>2020-07-21T12:06:30.000Z</time>
      </trkpt>
      <trkpt lat="42.9970095" lon="-5.7609857">
        <ele>1348.15</ele>
        <time>2020-07-21T12:06:31.000Z</time>
      </trkpt>
      <trkpt lat="42.9970122" lon="-5.7610017">
        <ele>1347.69</ele>
        <time>2020-07-21T12:06:32.000Z</time>
      </trkpt>
      <trkpt lat="42.9970177" lon="-5.761015">
        <ele>1347.69</ele>
        <time>2020-07-21T12:06:33.000Z</time>
      </trkpt>
      <trkpt lat="42.9970233" lon="-5.7610217">
        <ele>1347.39</ele>
        <time>2020-07-21T12:06:34.000Z</time>
      </trkpt>
      <trkpt lat="42.997026" lon="-5.761024">
        <ele>1347.39</ele>
        <time>2020-07-21T12:06:35.000Z</time>
      </trkpt>
      <trkpt lat="42.997026" lon="-5.7610243">
        <ele>1346.93</ele>
        <time>2020-07-21T12:06:36.000Z</time>
      </trkpt>
      <trkpt lat="42.9970253" lon="-5.761025">
        <ele>1346.93</ele>
        <time>2020-07-21T12:06:37.000Z</time>
      </trkpt>
      <trkpt lat="42.9970245" lon="-5.7610253">
        <ele>1346.47</ele>
        <time>2020-07-21T12:06:38.000Z</time>
      </trkpt>
      <trkpt lat="42.9970238" lon="-5.761026">
        <ele>1346.47</ele>
        <time>2020-07-21T12:06:39.000Z</time>
      </trkpt>
      <trkpt lat="42.9970233" lon="-5.7610263">
        <ele>1346.17</ele>
        <time>2020-07-21T12:06:40.000Z</time>
      </trkpt>
      <trkpt lat="42.9970232" lon="-5.7610268">
        <ele>1346.17</ele>
        <time>2020-07-21T12:06:41.000Z</time>
      </trkpt>
      <trkpt lat="42.9970233" lon="-5.7610278">
        <ele>1345.86</ele>
        <time>2020-07-21T12:06:42.000Z</time>
      </trkpt>
      <trkpt lat="42.9970235" lon="-5.7610285">
        <ele>1345.86</ele>
        <time>2020-07-21T12:06:43.000Z</time>
      </trkpt>
      <trkpt lat="42.9970238" lon="-5.761029">
        <ele>1345.56</ele>
        <time>2020-07-21T12:06:44.000Z</time>
      </trkpt>
      <trkpt lat="42.997024" lon="-5.7610293">
        <ele>1345.56</ele>
        <time>2020-07-21T12:06:45.000Z</time>
      </trkpt>
      <trkpt lat="42.9970242" lon="-5.7610295">
        <ele>1345.25</ele>
        <time>2020-07-21T12:06:46.000Z</time>
      </trkpt>
      <trkpt lat="42.9970242" lon="-5.7610293">
        <ele>1345.25</ele>
        <time>2020-07-21T12:06:47.000Z</time>
      </trkpt>
      <trkpt lat="42.9970245" lon="-5.7610293">
        <ele>1344.95</ele>
        <time>2020-07-21T12:06:48.000Z</time>
      </trkpt>
      <trkpt lat="42.9970262" lon="-5.76103">
        <ele>1344.95</ele>
        <time>2020-07-21T12:06:49.000Z</time>
      </trkpt>
      <trkpt lat="42.9970293" lon="-5.7610315">
        <ele>1344.64</ele>
        <time>2020-07-21T12:06:50.000Z</time>
      </trkpt>
      <trkpt lat="42.997034" lon="-5.7610353">
        <ele>1344.64</ele>
        <time>2020-07-21T12:06:51.000Z</time>
      </trkpt>
      <trkpt lat="42.9970385" lon="-5.7610417">
        <ele>1344.49</ele>
        <time>2020-07-21T12:06:52.000Z</time>
      </trkpt>
      <trkpt lat="42.997042" lon="-5.76105">
        <ele>1344.49</ele>
        <time>2020-07-21T12:06:53.000Z</time>
      </trkpt>
      <trkpt lat="42.9970455" lon="-5.7610602">
        <ele>1344.18</ele>
        <time>2020-07-21T12:06:54.000Z</time>
      </trkpt>
      <trkpt lat="42.9970497" lon="-5.7610707">
        <ele>1344.18</ele>
        <time>2020-07-21T12:06:55.000Z</time>
      </trkpt>
      <trkpt lat="42.9970548" lon="-5.7610807">
        <ele>1344.03</ele>
        <time>2020-07-21T12:06:56.000Z</time>
      </trkpt>
      <trkpt lat="42.99706" lon="-5.7610895">
        <ele>1344.03</ele>
        <time>2020-07-21T12:06:57.000Z</time>
      </trkpt>
      <trkpt lat="42.9970667" lon="-5.7610983">
        <ele>1343.88</ele>
        <time>2020-07-21T12:06:58.000Z</time>
      </trkpt>
      <trkpt lat="42.9970743" lon="-5.7611063">
        <ele>1343.88</ele>
        <time>2020-07-21T12:06:59.000Z</time>
      </trkpt>
      <trkpt lat="42.9970838" lon="-5.7611127">
        <ele>1343.73</ele>
        <time>2020-07-21T12:07:00.000Z</time>
      </trkpt>
      <trkpt lat="42.997093" lon="-5.7611167">
        <ele>1343.73</ele>
        <time>2020-07-21T12:07:01.000Z</time>
      </trkpt>
      <trkpt lat="42.9971018" lon="-5.7611205">
        <ele>1343.57</ele>
        <time>2020-07-21T12:07:02.000Z</time>
      </trkpt>
      <trkpt lat="42.9971093" lon="-5.7611233">
        <ele>1343.57</ele>
        <time>2020-07-21T12:07:03.000Z</time>
      </trkpt>
      <trkpt lat="42.9971155" lon="-5.761125">
        <ele>1343.42</ele>
        <time>2020-07-21T12:07:04.000Z</time>
      </trkpt>
      <trkpt lat="42.9971208" lon="-5.7611273">
        <ele>1343.42</ele>
        <time>2020-07-21T12:07:05.000Z</time>
      </trkpt>
      <trkpt lat="42.9971245" lon="-5.7611293">
        <ele>1343.42</ele>
        <time>2020-07-21T12:07:06.000Z</time>
      </trkpt>
      <trkpt lat="42.9971268" lon="-5.7611308">
        <ele>1343.42</ele>
        <time>2020-07-21T12:07:07.000Z</time>
      </trkpt>
      <trkpt lat="42.997128" lon="-5.76113">
        <ele>1343.27</ele>
        <time>2020-07-21T12:07:08.000Z</time>
      </trkpt>
      <trkpt lat="42.9971288" lon="-5.7611287">
        <ele>1343.27</ele>
        <time>2020-07-21T12:07:09.000Z</time>
      </trkpt>
      <trkpt lat="42.9971295" lon="-5.7611277">
        <ele>1343.27</ele>
        <time>2020-07-21T12:07:10.000Z</time>
      </trkpt>
      <trkpt lat="42.9971303" lon="-5.7611268">
        <ele>1343.27</ele>
        <time>2020-07-21T12:07:11.000Z</time>
      </trkpt>
      <trkpt lat="42.9971308" lon="-5.7611263">
        <ele>1343.12</ele>
        <time>2020-07-21T12:07:12.000Z</time>
      </trkpt>
      <trkpt lat="42.9971315" lon="-5.761126">
        <ele>1343.12</ele>
        <time>2020-07-21T12:07:13.000Z</time>
      </trkpt>
      <trkpt lat="42.997132" lon="-5.7611253">
        <ele>1342.96</ele>
        <time>2020-07-21T12:07:14.000Z</time>
      </trkpt>
      <trkpt lat="42.9971327" lon="-5.7611245">
        <ele>1342.96</ele>
        <time>2020-07-21T12:07:15.000Z</time>
      </trkpt>
      <trkpt lat="42.9971333" lon="-5.7611237">
        <ele>1342.96</ele>
        <time>2020-07-21T12:07:16.000Z</time>
      </trkpt>
      <trkpt lat="42.997134" lon="-5.7611232">
        <ele>1342.96</ele>
        <time>2020-07-21T12:07:17.000Z</time>
      </trkpt>
      <trkpt lat="42.9971343" lon="-5.7611225">
        <ele>1342.81</ele>
        <time>2020-07-21T12:07:18.000Z</time>
      </trkpt>
      <trkpt lat="42.9971342" lon="-5.7611215">
        <ele>1342.81</ele>
        <time>2020-07-21T12:07:19.000Z</time>
      </trkpt>
      <trkpt lat="42.9971342" lon="-5.76112">
        <ele>1342.66</ele>
        <time>2020-07-21T12:07:20.000Z</time>
      </trkpt>
      <trkpt lat="42.9971362" lon="-5.7611178">
        <ele>1342.66</ele>
        <time>2020-07-21T12:07:21.000Z</time>
      </trkpt>
      <trkpt lat="42.9971395" lon="-5.7611165">
        <ele>1342.51</ele>
        <time>2020-07-21T12:07:22.000Z</time>
      </trkpt>
      <trkpt lat="42.9971447" lon="-5.7611167">
        <ele>1342.51</ele>
        <time>2020-07-21T12:07:23.000Z</time>
      </trkpt>
      <trkpt lat="42.9971513" lon="-5.7611175">
        <ele>1342.35</ele>
        <time>2020-07-21T12:07:24.000Z</time>
      </trkpt>
      <trkpt lat="42.9971583" lon="-5.7611178">
        <ele>1342.35</ele>
        <time>2020-07-21T12:07:25.000Z</time>
      </trkpt>
      <trkpt lat="42.9971655" lon="-5.7611178">
        <ele>1342.2</ele>
        <time>2020-07-21T12:07:26.000Z</time>
      </trkpt>
      <trkpt lat="42.9971705" lon="-5.7611192">
        <ele>1342.2</ele>
        <time>2020-07-21T12:07:27.000Z</time>
      </trkpt>
      <trkpt lat="42.9971752" lon="-5.7611242">
        <ele>1342.05</ele>
        <time>2020-07-21T12:07:28.000Z</time>
      </trkpt>
      <trkpt lat="42.997179" lon="-5.7611313">
        <ele>1342.05</ele>
        <time>2020-07-21T12:07:29.000Z</time>
      </trkpt>
      <trkpt lat="42.9971823" lon="-5.7611398">
        <ele>1341.9</ele>
        <time>2020-07-21T12:07:30.000Z</time>
      </trkpt>
      <trkpt lat="42.9971858" lon="-5.7611483">
        <ele>1341.9</ele>
        <time>2020-07-21T12:07:31.000Z</time>
      </trkpt>
      <trkpt lat="42.9971902" lon="-5.7611575">
        <ele>1341.75</ele>
        <time>2020-07-21T12:07:32.000Z</time>
      </trkpt>
      <trkpt lat="42.9971962" lon="-5.761163">
        <ele>1341.75</ele>
        <time>2020-07-21T12:07:33.000Z</time>
      </trkpt>
      <trkpt lat="42.997202" lon="-5.7611662">
        <ele>1341.44</ele>
        <time>2020-07-21T12:07:34.000Z</time>
      </trkpt>
      <trkpt lat="42.9972063" lon="-5.7611665">
        <ele>1341.44</ele>
        <time>2020-07-21T12:07:35.000Z</time>
      </trkpt>
      <trkpt lat="42.997209" lon="-5.7611677">
        <ele>1341.29</ele>
        <time>2020-07-21T12:07:36.000Z</time>
      </trkpt>
      <trkpt lat="42.9972115" lon="-5.7611637">
        <ele>1341.29</ele>
        <time>2020-07-21T12:07:37.000Z</time>
      </trkpt>
      <trkpt lat="42.9972142" lon="-5.7611562">
        <ele>1341.14</ele>
        <time>2020-07-21T12:07:38.000Z</time>
      </trkpt>
      <trkpt lat="42.9972152" lon="-5.7611447">
        <ele>1341.14</ele>
        <time>2020-07-21T12:07:39.000Z</time>
      </trkpt>
      <trkpt lat="42.9972127" lon="-5.7611333">
        <ele>1340.83</ele>
        <time>2020-07-21T12:07:40.000Z</time>
      </trkpt>
      <trkpt lat="42.9972102" lon="-5.7611228">
        <ele>1340.83</ele>
        <time>2020-07-21T12:07:41.000Z</time>
      </trkpt>
      <trkpt lat="42.9972073" lon="-5.7611138">
        <ele>1340.53</ele>
        <time>2020-07-21T12:07:42.000Z</time>
      </trkpt>
      <trkpt lat="42.9972048" lon="-5.7611043">
        <ele>1340.53</ele>
        <time>2020-07-21T12:07:43.000Z</time>
      </trkpt>
      <trkpt lat="42.9972" lon="-5.7610933">
        <ele>1340.37</ele>
        <time>2020-07-21T12:07:44.000Z</time>
      </trkpt>
      <trkpt lat="42.9971947" lon="-5.7610818">
        <ele>1340.37</ele>
        <time>2020-07-21T12:07:45.000Z</time>
      </trkpt>
      <trkpt lat="42.9971905" lon="-5.7610717">
        <ele>1340.07</ele>
        <time>2020-07-21T12:07:46.000Z</time>
      </trkpt>
      <trkpt lat="42.997186" lon="-5.7610638">
        <ele>1340.07</ele>
        <time>2020-07-21T12:07:47.000Z</time>
      </trkpt>
      <trkpt lat="42.9971818" lon="-5.7610563">
        <ele>1339.77</ele>
        <time>2020-07-21T12:07:48.000Z</time>
      </trkpt>
      <trkpt lat="42.9971768" lon="-5.7610493">
        <ele>1339.77</ele>
        <time>2020-07-21T12:07:49.000Z</time>
      </trkpt>
      <trkpt lat="42.9971732" lon="-5.7610422">
        <ele>1339.46</ele>
        <time>2020-07-21T12:07:50.000Z</time>
      </trkpt>
      <trkpt lat="42.9971677" lon="-5.761035">
        <ele>1339.46</ele>
        <time>2020-07-21T12:07:51.000Z</time>
      </trkpt>
      <trkpt lat="42.9971622" lon="-5.7610272">
        <ele>1339.16</ele>
        <time>2020-07-21T12:07:52.000Z</time>
      </trkpt>
      <trkpt lat="42.9971568" lon="-5.7610182">
        <ele>1339.16</ele>
        <time>2020-07-21T12:07:53.000Z</time>
      </trkpt>
      <trkpt lat="42.9971537" lon="-5.7610085">
        <ele>1338.85</ele>
        <time>2020-07-21T12:07:54.000Z</time>
      </trkpt>
      <trkpt lat="42.9971515" lon="-5.7609988">
        <ele>1338.85</ele>
        <time>2020-07-21T12:07:55.000Z</time>
      </trkpt>
      <trkpt lat="42.9971488" lon="-5.7609878">
        <ele>1338.55</ele>
        <time>2020-07-21T12:07:56.000Z</time>
      </trkpt>
      <trkpt lat="42.9971462" lon="-5.7609757">
        <ele>1338.55</ele>
        <time>2020-07-21T12:07:57.000Z</time>
      </trkpt>
      <trkpt lat="42.9971437" lon="-5.7609643">
        <ele>1338.24</ele>
        <time>2020-07-21T12:07:58.000Z</time>
      </trkpt>
      <trkpt lat="42.9971408" lon="-5.7609528">
        <ele>1338.24</ele>
        <time>2020-07-21T12:07:59.000Z</time>
      </trkpt>
      <trkpt lat="42.997139" lon="-5.7609422">
        <ele>1337.94</ele>
        <time>2020-07-21T12:08:00.000Z</time>
      </trkpt>
      <trkpt lat="42.9971372" lon="-5.7609305">
        <ele>1337.94</ele>
        <time>2020-07-21T12:08:01.000Z</time>
      </trkpt>
      <trkpt lat="42.9971363" lon="-5.7609223">
        <ele>1337.78</ele>
        <time>2020-07-21T12:08:02.000Z</time>
      </trkpt>
      <trkpt lat="42.9971348" lon="-5.7609173">
        <ele>1337.78</ele>
        <time>2020-07-21T12:08:03.000Z</time>
      </trkpt>
      <trkpt lat="42.9971337" lon="-5.7609142">
        <ele>1337.48</ele>
        <time>2020-07-21T12:08:04.000Z</time>
      </trkpt>
      <trkpt lat="42.9971345" lon="-5.7609092">
        <ele>1337.48</ele>
        <time>2020-07-21T12:08:05.000Z</time>
      </trkpt>
      <trkpt lat="42.997138" lon="-5.7609043">
        <ele>1337.33</ele>
        <time>2020-07-21T12:08:06.000Z</time>
      </trkpt>
      <trkpt lat="42.9971408" lon="-5.7608998">
        <ele>1337.33</ele>
        <time>2020-07-21T12:08:07.000Z</time>
      </trkpt>
      <trkpt lat="42.9971427" lon="-5.7608977">
        <ele>1337.02</ele>
        <time>2020-07-21T12:08:08.000Z</time>
      </trkpt>
      <trkpt lat="42.9971432" lon="-5.7608967">
        <ele>1337.02</ele>
        <time>2020-07-21T12:08:09.000Z</time>
      </trkpt>
      <trkpt lat="42.9971478" lon="-5.7608975">
        <ele>1336.87</ele>
        <time>2020-07-21T12:08:10.000Z</time>
      </trkpt>
      <trkpt lat="42.9971568" lon="-5.7609005">
        <ele>1336.87</ele>
        <time>2020-07-21T12:08:11.000Z</time>
      </trkpt>
      <trkpt lat="42.997167" lon="-5.760903">
        <ele>1336.56</ele>
        <time>2020-07-21T12:08:12.000Z</time>
      </trkpt>
      <trkpt lat="42.9971757" lon="-5.7609053">
        <ele>1336.56</ele>
        <time>2020-07-21T12:08:13.000Z</time>
      </trkpt>
      <trkpt lat="42.9971802" lon="-5.760907">
        <ele>1336.41</ele>
        <time>2020-07-21T12:08:14.000Z</time>
      </trkpt>
      <trkpt lat="42.9971828" lon="-5.7609095">
        <ele>1336.41</ele>
        <time>2020-07-21T12:08:15.000Z</time>
      </trkpt>
      <trkpt lat="42.9971845" lon="-5.7609117">
        <ele>1336.26</ele>
        <time>2020-07-21T12:08:16.000Z</time>
      </trkpt>
      <trkpt lat="42.9971892" lon="-5.7609153">
        <ele>1336.26</ele>
        <time>2020-07-21T12:08:17.000Z</time>
      </trkpt>
      <trkpt lat="42.997196" lon="-5.7609198">
        <ele>1336.11</ele>
        <time>2020-07-21T12:08:18.000Z</time>
      </trkpt>
      <trkpt lat="42.9972047" lon="-5.7609292">
        <ele>1336.11</ele>
        <time>2020-07-21T12:08:19.000Z</time>
      </trkpt>
      <trkpt lat="42.9972127" lon="-5.7609377">
        <ele>1335.95</ele>
        <time>2020-07-21T12:08:20.000Z</time>
      </trkpt>
      <trkpt lat="42.997221" lon="-5.7609463">
        <ele>1335.95</ele>
        <time>2020-07-21T12:08:21.000Z</time>
      </trkpt>
      <trkpt lat="42.9972302" lon="-5.7609517">
        <ele>1335.8</ele>
        <time>2020-07-21T12:08:22.000Z</time>
      </trkpt>
      <trkpt lat="42.9972407" lon="-5.7609577">
        <ele>1335.8</ele>
        <time>2020-07-21T12:08:23.000Z</time>
      </trkpt>
      <trkpt lat="42.9972512" lon="-5.7609635">
        <ele>1335.65</ele>
        <time>2020-07-21T12:08:24.000Z</time>
      </trkpt>
      <trkpt lat="42.997263" lon="-5.7609698">
        <ele>1335.65</ele>
        <time>2020-07-21T12:08:25.000Z</time>
      </trkpt>
      <trkpt lat="42.9972742" lon="-5.760976">
        <ele>1335.5</ele>
        <time>2020-07-21T12:08:26.000Z</time>
      </trkpt>
      <trkpt lat="42.997285" lon="-5.7609832">
        <ele>1335.5</ele>
        <time>2020-07-21T12:08:27.000Z</time>
      </trkpt>
      <trkpt lat="42.9972952" lon="-5.7609907">
        <ele>1335.34</ele>
        <time>2020-07-21T12:08:28.000Z</time>
      </trkpt>
      <trkpt lat="42.9973057" lon="-5.7609982">
        <ele>1335.34</ele>
        <time>2020-07-21T12:08:29.000Z</time>
      </trkpt>
      <trkpt lat="42.9973167" lon="-5.761001">
        <ele>1335.19</ele>
        <time>2020-07-21T12:08:30.000Z</time>
      </trkpt>
      <trkpt lat="42.9973278" lon="-5.760996">
        <ele>1335.19</ele>
        <time>2020-07-21T12:08:31.000Z</time>
      </trkpt>
      <trkpt lat="42.9973373" lon="-5.7609873">
        <ele>1335.19</ele>
        <time>2020-07-21T12:08:32.000Z</time>
      </trkpt>
      <trkpt lat="42.9973475" lon="-5.7609798">
        <ele>1335.19</ele>
        <time>2020-07-21T12:08:33.000Z</time>
      </trkpt>
      <trkpt lat="42.997357" lon="-5.7609775">
        <ele>1335.04</ele>
        <time>2020-07-21T12:08:34.000Z</time>
      </trkpt>
      <trkpt lat="42.9973682" lon="-5.7609777">
        <ele>1335.04</ele>
        <time>2020-07-21T12:08:35.000Z</time>
      </trkpt>
      <trkpt lat="42.9973778" lon="-5.760979">
        <ele>1334.89</ele>
        <time>2020-07-21T12:08:36.000Z</time>
      </trkpt>
      <trkpt lat="42.9973863" lon="-5.7609838">
        <ele>1334.89</ele>
        <time>2020-07-21T12:08:37.000Z</time>
      </trkpt>
      <trkpt lat="42.997392" lon="-5.7609932">
        <ele>1334.89</ele>
        <time>2020-07-21T12:08:38.000Z</time>
      </trkpt>
      <trkpt lat="42.9973978" lon="-5.7610055">
        <ele>1334.89</ele>
        <time>2020-07-21T12:08:39.000Z</time>
      </trkpt>
      <trkpt lat="42.9974035" lon="-5.7610197">
        <ele>1334.73</ele>
        <time>2020-07-21T12:08:40.000Z</time>
      </trkpt>
      <trkpt lat="42.997409" lon="-5.7610322">
        <ele>1334.73</ele>
        <time>2020-07-21T12:08:41.000Z</time>
      </trkpt>
      <trkpt lat="42.9974122" lon="-5.7610453">
        <ele>1334.73</ele>
        <time>2020-07-21T12:08:42.000Z</time>
      </trkpt>
      <trkpt lat="42.9974158" lon="-5.7610568">
        <ele>1334.73</ele>
        <time>2020-07-21T12:08:43.000Z</time>
      </trkpt>
      <trkpt lat="42.9974205" lon="-5.7610675">
        <ele>1334.58</ele>
        <time>2020-07-21T12:08:44.000Z</time>
      </trkpt>
      <trkpt lat="42.9974278" lon="-5.761078">
        <ele>1334.58</ele>
        <time>2020-07-21T12:08:45.000Z</time>
      </trkpt>
      <trkpt lat="42.9974348" lon="-5.7610885">
        <ele>1334.58</ele>
        <time>2020-07-21T12:08:46.000Z</time>
      </trkpt>
      <trkpt lat="42.9974397" lon="-5.761099">
        <ele>1334.58</ele>
        <time>2020-07-21T12:08:47.000Z</time>
      </trkpt>
      <trkpt lat="42.9974398" lon="-5.7611078">
        <ele>1334.43</ele>
        <time>2020-07-21T12:08:48.000Z</time>
      </trkpt>
      <trkpt lat="42.9974348" lon="-5.7611145">
        <ele>1334.43</ele>
        <time>2020-07-21T12:08:49.000Z</time>
      </trkpt>
      <trkpt lat="42.9974287" lon="-5.761117">
        <ele>1334.43</ele>
        <time>2020-07-21T12:08:50.000Z</time>
      </trkpt>
      <trkpt lat="42.997422" lon="-5.7611172">
        <ele>1334.43</ele>
        <time>2020-07-21T12:08:51.000Z</time>
      </trkpt>
      <trkpt lat="42.997416" lon="-5.7611172">
        <ele>1334.28</ele>
        <time>2020-07-21T12:08:52.000Z</time>
      </trkpt>
      <trkpt lat="42.9974105" lon="-5.7611173">
        <ele>1334.28</ele>
        <time>2020-07-21T12:08:53.000Z</time>
      </trkpt>
      <trkpt lat="42.9974078" lon="-5.7611182">
        <ele>1334.28</ele>
        <time>2020-07-21T12:08:54.000Z</time>
      </trkpt>
      <trkpt lat="42.997408" lon="-5.7611187">
        <ele>1334.28</ele>
        <time>2020-07-21T12:08:55.000Z</time>
      </trkpt>
      <trkpt lat="42.9974085" lon="-5.7611212">
        <ele>1334.13</ele>
        <time>2020-07-21T12:08:56.000Z</time>
      </trkpt>
      <trkpt lat="42.9974082" lon="-5.7611233">
        <ele>1334.13</ele>
        <time>2020-07-21T12:08:57.000Z</time>
      </trkpt>
      <trkpt lat="42.9974078" lon="-5.7611247">
        <ele>1334.13</ele>
        <time>2020-07-21T12:08:58.000Z</time>
      </trkpt>
      <trkpt lat="42.9974078" lon="-5.7611243">
        <ele>1334.13</ele>
        <time>2020-07-21T12:08:59.000Z</time>
      </trkpt>
      <trkpt lat="42.9974077" lon="-5.7611247">
        <ele>1334.13</ele>
        <time>2020-07-21T12:09:00.000Z</time>
      </trkpt>
      <trkpt lat="42.9974067" lon="-5.7611248">
        <ele>1334.13</ele>
        <time>2020-07-21T12:09:01.000Z</time>
      </trkpt>
      <trkpt lat="42.9974057" lon="-5.7611248">
        <ele>1333.97</ele>
        <time>2020-07-21T12:09:02.000Z</time>
      </trkpt>
      <trkpt lat="42.9974042" lon="-5.7611235">
        <ele>1333.97</ele>
        <time>2020-07-21T12:09:03.000Z</time>
      </trkpt>
      <trkpt lat="42.997403" lon="-5.7611228">
        <ele>1333.97</ele>
        <time>2020-07-21T12:09:04.000Z</time>
      </trkpt>
      <trkpt lat="42.9974013" lon="-5.7611222">
        <ele>1333.97</ele>
        <time>2020-07-21T12:09:05.000Z</time>
      </trkpt>
      <trkpt lat="42.9974007" lon="-5.761122">
        <ele>1333.82</ele>
        <time>2020-07-21T12:09:06.000Z</time>
      </trkpt>
      <trkpt lat="42.9974" lon="-5.7611213">
        <ele>1333.82</ele>
        <time>2020-07-21T12:09:07.000Z</time>
      </trkpt>
      <trkpt lat="42.9973992" lon="-5.7611208">
        <ele>1333.82</ele>
        <time>2020-07-21T12:09:08.000Z</time>
      </trkpt>
      <trkpt lat="42.9973983" lon="-5.76112">
        <ele>1333.82</ele>
        <time>2020-07-21T12:09:09.000Z</time>
      </trkpt>
      <trkpt lat="42.9973972" lon="-5.761119">
        <ele>1333.67</ele>
        <time>2020-07-21T12:09:10.000Z</time>
      </trkpt>
      <trkpt lat="42.9973962" lon="-5.761118">
        <ele>1333.67</ele>
        <time>2020-07-21T12:09:11.000Z</time>
      </trkpt>
      <trkpt lat="42.9973952" lon="-5.7611167">
        <ele>1333.67</ele>
        <time>2020-07-21T12:09:12.000Z</time>
      </trkpt>
      <trkpt lat="42.9973943" lon="-5.7611158">
        <ele>1333.67</ele>
        <time>2020-07-21T12:09:13.000Z</time>
      </trkpt>
      <trkpt lat="42.9973938" lon="-5.7611158">
        <ele>1333.52</ele>
        <time>2020-07-21T12:09:14.000Z</time>
      </trkpt>
      <trkpt lat="42.9973937" lon="-5.7611162">
        <ele>1333.52</ele>
        <time>2020-07-21T12:09:15.000Z</time>
      </trkpt>
      <trkpt lat="42.997393" lon="-5.7611152">
        <ele>1333.52</ele>
        <time>2020-07-21T12:09:16.000Z</time>
      </trkpt>
      <trkpt lat="42.9973933" lon="-5.7611127">
        <ele>1333.52</ele>
        <time>2020-07-21T12:09:17.000Z</time>
      </trkpt>
      <trkpt lat="42.9973943" lon="-5.7611085">
        <ele>1333.52</ele>
        <time>2020-07-21T12:09:18.000Z</time>
      </trkpt>
      <trkpt lat="42.9973945" lon="-5.7611083">
        <ele>1333.52</ele>
        <time>2020-07-21T12:09:19.000Z</time>
      </trkpt>
      <trkpt lat="42.9973987" lon="-5.761112">
        <ele>1333.36</ele>
        <time>2020-07-21T12:09:20.000Z</time>
      </trkpt>
      <trkpt lat="42.9974042" lon="-5.7611188">
        <ele>1333.36</ele>
        <time>2020-07-21T12:09:21.000Z</time>
      </trkpt>
      <trkpt lat="42.9974117" lon="-5.7611233">
        <ele>1333.36</ele>
        <time>2020-07-21T12:09:22.000Z</time>
      </trkpt>
      <trkpt lat="42.9974157" lon="-5.7611267">
        <ele>1333.36</ele>
        <time>2020-07-21T12:09:23.000Z</time>
      </trkpt>
      <trkpt lat="42.9974182" lon="-5.7611302">
        <ele>1333.36</ele>
        <time>2020-07-21T12:09:24.000Z</time>
      </trkpt>
      <trkpt lat="42.9974217" lon="-5.7611338">
        <ele>1333.36</ele>
        <time>2020-07-21T12:09:25.000Z</time>
      </trkpt>
      <trkpt lat="42.9974258" lon="-5.761137">
        <ele>1333.21</ele>
        <time>2020-07-21T12:09:26.000Z</time>
      </trkpt>
      <trkpt lat="42.9974298" lon="-5.7611388">
        <ele>1333.21</ele>
        <time>2020-07-21T12:09:27.000Z</time>
      </trkpt>
      <trkpt lat="42.9974313" lon="-5.761139">
        <ele>1333.21</ele>
        <time>2020-07-21T12:09:28.000Z</time>
      </trkpt>
      <trkpt lat="42.9974305" lon="-5.7611387">
        <ele>1333.21</ele>
        <time>2020-07-21T12:09:29.000Z</time>
      </trkpt>
      <trkpt lat="42.9974292" lon="-5.7611377">
        <ele>1333.06</ele>
        <time>2020-07-21T12:09:30.000Z</time>
      </trkpt>
      <trkpt lat="42.9974275" lon="-5.761137">
        <ele>1333.06</ele>
        <time>2020-07-21T12:09:31.000Z</time>
      </trkpt>
      <trkpt lat="42.9974265" lon="-5.7611362">
        <ele>1333.06</ele>
        <time>2020-07-21T12:09:32.000Z</time>
      </trkpt>
      <trkpt lat="42.9974263" lon="-5.7611375">
        <ele>1333.06</ele>
        <time>2020-07-21T12:09:33.000Z</time>
      </trkpt>
      <trkpt lat="42.997426" lon="-5.761139">
        <ele>1332.91</ele>
        <time>2020-07-21T12:09:34.000Z</time>
      </trkpt>
      <trkpt lat="42.9974268" lon="-5.761141">
        <ele>1332.91</ele>
        <time>2020-07-21T12:09:35.000Z</time>
      </trkpt>
      <trkpt lat="42.9974288" lon="-5.761141">
        <ele>1332.75</ele>
        <time>2020-07-21T12:09:36.000Z</time>
      </trkpt>
      <trkpt lat="42.9974343" lon="-5.7611402">
        <ele>1332.75</ele>
        <time>2020-07-21T12:09:37.000Z</time>
      </trkpt>
      <trkpt lat="42.9974403" lon="-5.7611392">
        <ele>1332.75</ele>
        <time>2020-07-21T12:09:38.000Z</time>
      </trkpt>
      <trkpt lat="42.9974465" lon="-5.7611392">
        <ele>1332.75</ele>
        <time>2020-07-21T12:09:39.000Z</time>
      </trkpt>
      <trkpt lat="42.9974507" lon="-5.7611393">
        <ele>1332.6</ele>
        <time>2020-07-21T12:09:40.000Z</time>
      </trkpt>
      <trkpt lat="42.9974523" lon="-5.761139">
        <ele>1332.6</ele>
        <time>2020-07-21T12:09:41.000Z</time>
      </trkpt>
      <trkpt lat="42.9974522" lon="-5.7611378">
        <ele>1332.6</ele>
        <time>2020-07-21T12:09:42.000Z</time>
      </trkpt>
      <trkpt lat="42.9974515" lon="-5.7611372">
        <ele>1332.6</ele>
        <time>2020-07-21T12:09:43.000Z</time>
      </trkpt>
      <trkpt lat="42.9974515" lon="-5.7611373">
        <ele>1332.45</ele>
        <time>2020-07-21T12:09:44.000Z</time>
      </trkpt>
      <trkpt lat="42.9974513" lon="-5.7611377">
        <ele>1332.45</ele>
        <time>2020-07-21T12:09:45.000Z</time>
      </trkpt>
      <trkpt lat="42.9974513" lon="-5.761138">
        <ele>1332.3</ele>
        <time>2020-07-21T12:09:46.000Z</time>
      </trkpt>
      <trkpt lat="42.9974512" lon="-5.7611378">
        <ele>1332.3</ele>
        <time>2020-07-21T12:09:47.000Z</time>
      </trkpt>
      <trkpt lat="42.9974513" lon="-5.7611372">
        <ele>1332.3</ele>
        <time>2020-07-21T12:09:48.000Z</time>
      </trkpt>
      <trkpt lat="42.9974518" lon="-5.7611362">
        <ele>1332.3</ele>
        <time>2020-07-21T12:09:49.000Z</time>
      </trkpt>
      <trkpt lat="42.9974513" lon="-5.7611353">
        <ele>1332.15</ele>
        <time>2020-07-21T12:09:50.000Z</time>
      </trkpt>
      <trkpt lat="42.9974512" lon="-5.7611357">
        <ele>1332.15</ele>
        <time>2020-07-21T12:09:51.000Z</time>
      </trkpt>
      <trkpt lat="42.9974512" lon="-5.761137">
        <ele>1331.99</ele>
        <time>2020-07-21T12:09:52.000Z</time>
      </trkpt>
      <trkpt lat="42.9974522" lon="-5.7611377">
        <ele>1331.99</ele>
        <time>2020-07-21T12:09:53.000Z</time>
      </trkpt>
      <trkpt lat="42.9974528" lon="-5.7611375">
        <ele>1331.84</ele>
        <time>2020-07-21T12:09:54.000Z</time>
      </trkpt>
      <trkpt lat="42.997453" lon="-5.7611367">
        <ele>1331.84</ele>
        <time>2020-07-21T12:09:55.000Z</time>
      </trkpt>
      <trkpt lat="42.9974533" lon="-5.7611365">
        <ele>1331.69</ele>
        <time>2020-07-21T12:09:56.000Z</time>
      </trkpt>
      <trkpt lat="42.9974538" lon="-5.7611363">
        <ele>1331.69</ele>
        <time>2020-07-21T12:09:57.000Z</time>
      </trkpt>
      <trkpt lat="42.9974545" lon="-5.7611365">
        <ele>1331.54</ele>
        <time>2020-07-21T12:09:58.000Z</time>
      </trkpt>
      <trkpt lat="42.9974552" lon="-5.7611365">
        <ele>1331.54</ele>
        <time>2020-07-21T12:09:59.000Z</time>
      </trkpt>
      <trkpt lat="42.9974557" lon="-5.7611365">
        <ele>1331.38</ele>
        <time>2020-07-21T12:10:00.000Z</time>
      </trkpt>
      <trkpt lat="42.9974565" lon="-5.7611387">
        <ele>1331.38</ele>
        <time>2020-07-21T12:10:01.000Z</time>
      </trkpt>
      <trkpt lat="42.997457" lon="-5.7611413">
        <ele>1331.23</ele>
        <time>2020-07-21T12:10:02.000Z</time>
      </trkpt>
      <trkpt lat="42.997457" lon="-5.7611428">
        <ele>1331.23</ele>
        <time>2020-07-21T12:10:03.000Z</time>
      </trkpt>
      <trkpt lat="42.9974568" lon="-5.761141">
        <ele>1331.08</ele>
        <time>2020-07-21T12:10:04.000Z</time>
      </trkpt>
      <trkpt lat="42.9974567" lon="-5.7611378">
        <ele>1331.08</ele>
        <time>2020-07-21T12:10:05.000Z</time>
      </trkpt>
      <trkpt lat="42.9974563" lon="-5.7611342">
        <ele>1330.93</ele>
        <time>2020-07-21T12:10:06.000Z</time>
      </trkpt>
      <trkpt lat="42.9974563" lon="-5.7611303">
        <ele>1330.93</ele>
        <time>2020-07-21T12:10:07.000Z</time>
      </trkpt>
      <trkpt lat="42.9974565" lon="-5.7611273">
        <ele>1330.77</ele>
        <time>2020-07-21T12:10:08.000Z</time>
      </trkpt>
      <trkpt lat="42.9974568" lon="-5.7611262">
        <ele>1330.77</ele>
        <time>2020-07-21T12:10:09.000Z</time>
      </trkpt>
      <trkpt lat="42.9974572" lon="-5.7611262">
        <ele>1330.62</ele>
        <time>2020-07-21T12:10:10.000Z</time>
      </trkpt>
      <trkpt lat="42.997458" lon="-5.761126">
        <ele>1330.62</ele>
        <time>2020-07-21T12:10:11.000Z</time>
      </trkpt>
      <trkpt lat="42.9974588" lon="-5.7611253">
        <ele>1330.32</ele>
        <time>2020-07-21T12:10:12.000Z</time>
      </trkpt>
      <trkpt lat="42.9974592" lon="-5.7611252">
        <ele>1330.32</ele>
        <time>2020-07-21T12:10:13.000Z</time>
      </trkpt>
      <trkpt lat="42.9974593" lon="-5.761125">
        <ele>1330.16</ele>
        <time>2020-07-21T12:10:14.000Z</time>
      </trkpt>
      <trkpt lat="42.9974595" lon="-5.7611257">
        <ele>1330.16</ele>
        <time>2020-07-21T12:10:15.000Z</time>
      </trkpt>
      <trkpt lat="42.9974598" lon="-5.761126">
        <ele>1330.01</ele>
        <time>2020-07-21T12:10:16.000Z</time>
      </trkpt>
      <trkpt lat="42.9974595" lon="-5.7611263">
        <ele>1330.01</ele>
        <time>2020-07-21T12:10:17.000Z</time>
      </trkpt>
      <trkpt lat="42.997459" lon="-5.7611267">
        <ele>1329.71</ele>
        <time>2020-07-21T12:10:18.000Z</time>
      </trkpt>
      <trkpt lat="42.9974587" lon="-5.7611273">
        <ele>1329.71</ele>
        <time>2020-07-21T12:10:19.000Z</time>
      </trkpt>
      <trkpt lat="42.9974588" lon="-5.7611283">
        <ele>1329.55</ele>
        <time>2020-07-21T12:10:20.000Z</time>
      </trkpt>
      <trkpt lat="42.9974587" lon="-5.7611292">
        <ele>1329.55</ele>
        <time>2020-07-21T12:10:21.000Z</time>
      </trkpt>
      <trkpt lat="42.9974585" lon="-5.7611292">
        <ele>1329.25</ele>
        <time>2020-07-21T12:10:22.000Z</time>
      </trkpt>
      <trkpt lat="42.9974583" lon="-5.7611278">
        <ele>1329.25</ele>
        <time>2020-07-21T12:10:23.000Z</time>
      </trkpt>
      <trkpt lat="42.9974585" lon="-5.761127">
        <ele>1328.94</ele>
        <time>2020-07-21T12:10:24.000Z</time>
      </trkpt>
      <trkpt lat="42.9974585" lon="-5.7611265">
        <ele>1328.94</ele>
        <time>2020-07-21T12:10:25.000Z</time>
      </trkpt>
      <trkpt lat="42.9974585" lon="-5.7611282">
        <ele>1328.64</ele>
        <time>2020-07-21T12:10:26.000Z</time>
      </trkpt>
      <trkpt lat="42.9974608" lon="-5.7611338">
        <ele>1328.64</ele>
        <time>2020-07-21T12:10:27.000Z</time>
      </trkpt>
      <trkpt lat="42.9974652" lon="-5.761142">
        <ele>1328.33</ele>
        <time>2020-07-21T12:10:28.000Z</time>
      </trkpt>
      <trkpt lat="42.9974723" lon="-5.7611522">
        <ele>1328.33</ele>
        <time>2020-07-21T12:10:29.000Z</time>
      </trkpt>
      <trkpt lat="42.9974795" lon="-5.7611608">
        <ele>1328.18</ele>
        <time>2020-07-21T12:10:30.000Z</time>
      </trkpt>
      <trkpt lat="42.9974878" lon="-5.7611733">
        <ele>1328.18</ele>
        <time>2020-07-21T12:10:31.000Z</time>
      </trkpt>
      <trkpt lat="42.9974948" lon="-5.7611857">
        <ele>1327.88</ele>
        <time>2020-07-21T12:10:32.000Z</time>
      </trkpt>
      <trkpt lat="42.9975025" lon="-5.7611988">
        <ele>1327.88</ele>
        <time>2020-07-21T12:10:33.000Z</time>
      </trkpt>
      <trkpt lat="42.9975097" lon="-5.7612107">
        <ele>1327.42</ele>
        <time>2020-07-21T12:10:34.000Z</time>
      </trkpt>
      <trkpt lat="42.9975157" lon="-5.7612238">
        <ele>1327.42</ele>
        <time>2020-07-21T12:10:35.000Z</time>
      </trkpt>
      <trkpt lat="42.9975213" lon="-5.7612373">
        <ele>1327.11</ele>
        <time>2020-07-21T12:10:36.000Z</time>
      </trkpt>
      <trkpt lat="42.9975278" lon="-5.7612498">
        <ele>1327.11</ele>
        <time>2020-07-21T12:10:37.000Z</time>
      </trkpt>
      <trkpt lat="42.997537" lon="-5.7612612">
        <ele>1326.81</ele>
        <time>2020-07-21T12:10:38.000Z</time>
      </trkpt>
      <trkpt lat="42.997547" lon="-5.7612713">
        <ele>1326.81</ele>
        <time>2020-07-21T12:10:39.000Z</time>
      </trkpt>
      <trkpt lat="42.9975563" lon="-5.7612798">
        <ele>1326.51</ele>
        <time>2020-07-21T12:10:40.000Z</time>
      </trkpt>
      <trkpt lat="42.9975648" lon="-5.761288">
        <ele>1326.51</ele>
        <time>2020-07-21T12:10:41.000Z</time>
      </trkpt>
      <trkpt lat="42.9975727" lon="-5.7612973">
        <ele>1326.2</ele>
        <time>2020-07-21T12:10:42.000Z</time>
      </trkpt>
      <trkpt lat="42.9975805" lon="-5.7613097">
        <ele>1326.2</ele>
        <time>2020-07-21T12:10:43.000Z</time>
      </trkpt>
      <trkpt lat="42.9975877" lon="-5.7613232">
        <ele>1325.74</ele>
        <time>2020-07-21T12:10:44.000Z</time>
      </trkpt>
      <trkpt lat="42.9975937" lon="-5.7613358">
        <ele>1325.74</ele>
        <time>2020-07-21T12:10:45.000Z</time>
      </trkpt>
      <trkpt lat="42.9975985" lon="-5.7613453">
        <ele>1325.44</ele>
        <time>2020-07-21T12:10:46.000Z</time>
      </trkpt>
      <trkpt lat="42.9976033" lon="-5.7613547">
        <ele>1325.44</ele>
        <time>2020-07-21T12:10:47.000Z</time>
      </trkpt>
      <trkpt lat="42.997609" lon="-5.761366">
        <ele>1325.13</ele>
        <time>2020-07-21T12:10:48.000Z</time>
      </trkpt>
      <trkpt lat="42.9976153" lon="-5.7613773">
        <ele>1325.13</ele>
        <time>2020-07-21T12:10:49.000Z</time>
      </trkpt>
      <trkpt lat="42.99762" lon="-5.7613845">
        <ele>1324.68</ele>
        <time>2020-07-21T12:10:50.000Z</time>
      </trkpt>
      <trkpt lat="42.9976235" lon="-5.7613885">
        <ele>1324.68</ele>
        <time>2020-07-21T12:10:51.000Z</time>
      </trkpt>
      <trkpt lat="42.9976263" lon="-5.7613917">
        <ele>1324.37</ele>
        <time>2020-07-21T12:10:52.000Z</time>
      </trkpt>
      <trkpt lat="42.9976315" lon="-5.7613983">
        <ele>1324.37</ele>
        <time>2020-07-21T12:10:53.000Z</time>
      </trkpt>
      <trkpt lat="42.9976387" lon="-5.7614058">
        <ele>1323.92</ele>
        <time>2020-07-21T12:10:54.000Z</time>
      </trkpt>
      <trkpt lat="42.9976475" lon="-5.7614143">
        <ele>1323.92</ele>
        <time>2020-07-21T12:10:55.000Z</time>
      </trkpt>
      <trkpt lat="42.9976562" lon="-5.7614217">
        <ele>1323.61</ele>
        <time>2020-07-21T12:10:56.000Z</time>
      </trkpt>
      <trkpt lat="42.9976643" lon="-5.7614283">
        <ele>1323.61</ele>
        <time>2020-07-21T12:10:57.000Z</time>
      </trkpt>
      <trkpt lat="42.9976727" lon="-5.7614353">
        <ele>1323.31</ele>
        <time>2020-07-21T12:10:58.000Z</time>
      </trkpt>
      <trkpt lat="42.9976807" lon="-5.7614405">
        <ele>1323.31</ele>
        <time>2020-07-21T12:10:59.000Z</time>
      </trkpt>
      <trkpt lat="42.997688" lon="-5.7614428">
        <ele>1323</ele>
        <time>2020-07-21T12:11:00.000Z</time>
      </trkpt>
      <trkpt lat="42.9976945" lon="-5.7614427">
        <ele>1323</ele>
        <time>2020-07-21T12:11:01.000Z</time>
      </trkpt>
      <trkpt lat="42.9977008" lon="-5.7614427">
        <ele>1322.54</ele>
        <time>2020-07-21T12:11:02.000Z</time>
      </trkpt>
      <trkpt lat="42.9977085" lon="-5.7614452">
        <ele>1322.54</ele>
        <time>2020-07-21T12:11:03.000Z</time>
      </trkpt>
      <trkpt lat="42.997717" lon="-5.7614502">
        <ele>1322.24</ele>
        <time>2020-07-21T12:11:04.000Z</time>
      </trkpt>
      <trkpt lat="42.9977257" lon="-5.7614573">
        <ele>1322.24</ele>
        <time>2020-07-21T12:11:05.000Z</time>
      </trkpt>
      <trkpt lat="42.9977337" lon="-5.7614647">
        <ele>1321.93</ele>
        <time>2020-07-21T12:11:06.000Z</time>
      </trkpt>
      <trkpt lat="42.9977415" lon="-5.7614723">
        <ele>1321.93</ele>
        <time>2020-07-21T12:11:07.000Z</time>
      </trkpt>
      <trkpt lat="42.9977492" lon="-5.7614803">
        <ele>1321.63</ele>
        <time>2020-07-21T12:11:08.000Z</time>
      </trkpt>
      <trkpt lat="42.9977552" lon="-5.7614888">
        <ele>1321.63</ele>
        <time>2020-07-21T12:11:09.000Z</time>
      </trkpt>
      <trkpt lat="42.9977598" lon="-5.761497">
        <ele>1321.17</ele>
        <time>2020-07-21T12:11:10.000Z</time>
      </trkpt>
      <trkpt lat="42.9977637" lon="-5.761506">
        <ele>1321.17</ele>
        <time>2020-07-21T12:11:11.000Z</time>
      </trkpt>
      <trkpt lat="42.9977688" lon="-5.7615155">
        <ele>1320.87</ele>
        <time>2020-07-21T12:11:12.000Z</time>
      </trkpt>
      <trkpt lat="42.997775" lon="-5.761525">
        <ele>1320.87</ele>
        <time>2020-07-21T12:11:13.000Z</time>
      </trkpt>
      <trkpt lat="42.9977815" lon="-5.7615343">
        <ele>1320.56</ele>
        <time>2020-07-21T12:11:14.000Z</time>
      </trkpt>
      <trkpt lat="42.9977872" lon="-5.761545">
        <ele>1320.56</ele>
        <time>2020-07-21T12:11:15.000Z</time>
      </trkpt>
      <trkpt lat="42.9977935" lon="-5.761558">
        <ele>1320.26</ele>
        <time>2020-07-21T12:11:16.000Z</time>
      </trkpt>
      <trkpt lat="42.9978003" lon="-5.7615705">
        <ele>1320.26</ele>
        <time>2020-07-21T12:11:17.000Z</time>
      </trkpt>
      <trkpt lat="42.9978072" lon="-5.761581">
        <ele>1319.95</ele>
        <time>2020-07-21T12:11:18.000Z</time>
      </trkpt>
      <trkpt lat="42.9978143" lon="-5.7615905">
        <ele>1319.95</ele>
        <time>2020-07-21T12:11:19.000Z</time>
      </trkpt>
      <trkpt lat="42.997821" lon="-5.7615992">
        <ele>1319.49</ele>
        <time>2020-07-21T12:11:20.000Z</time>
      </trkpt>
      <trkpt lat="42.997829" lon="-5.761606">
        <ele>1319.49</ele>
        <time>2020-07-21T12:11:21.000Z</time>
      </trkpt>
      <trkpt lat="42.9978365" lon="-5.76161">
        <ele>1319.19</ele>
        <time>2020-07-21T12:11:22.000Z</time>
      </trkpt>
      <trkpt lat="42.997845" lon="-5.7616123">
        <ele>1319.19</ele>
        <time>2020-07-21T12:11:23.000Z</time>
      </trkpt>
      <trkpt lat="42.9978548" lon="-5.7616157">
        <ele>1318.73</ele>
        <time>2020-07-21T12:11:24.000Z</time>
      </trkpt>
      <trkpt lat="42.9978658" lon="-5.7616195">
        <ele>1318.73</ele>
        <time>2020-07-21T12:11:25.000Z</time>
      </trkpt>
      <trkpt lat="42.9978767" lon="-5.7616237">
        <ele>1318.43</ele>
        <time>2020-07-21T12:11:26.000Z</time>
      </trkpt>
      <trkpt lat="42.9978863" lon="-5.7616272">
        <ele>1318.43</ele>
        <time>2020-07-21T12:11:27.000Z</time>
      </trkpt>
      <trkpt lat="42.9978947" lon="-5.761631">
        <ele>1317.97</ele>
        <time>2020-07-21T12:11:28.000Z</time>
      </trkpt>
      <trkpt lat="42.997901" lon="-5.7616343">
        <ele>1317.97</ele>
        <time>2020-07-21T12:11:29.000Z</time>
      </trkpt>
      <trkpt lat="42.9979063" lon="-5.7616402">
        <ele>1317.51</ele>
        <time>2020-07-21T12:11:30.000Z</time>
      </trkpt>
      <trkpt lat="42.997912" lon="-5.761648">
        <ele>1317.51</ele>
        <time>2020-07-21T12:11:31.000Z</time>
      </trkpt>
      <trkpt lat="42.9979185" lon="-5.7616573">
        <ele>1317.06</ele>
        <time>2020-07-21T12:11:32.000Z</time>
      </trkpt>
      <trkpt lat="42.9979272" lon="-5.761666">
        <ele>1317.06</ele>
        <time>2020-07-21T12:11:33.000Z</time>
      </trkpt>
      <trkpt lat="42.997937" lon="-5.7616732">
        <ele>1316.6</ele>
        <time>2020-07-21T12:11:34.000Z</time>
      </trkpt>
      <trkpt lat="42.9979488" lon="-5.7616802">
        <ele>1316.6</ele>
        <time>2020-07-21T12:11:35.000Z</time>
      </trkpt>
      <trkpt lat="42.9979595" lon="-5.761687">
        <ele>1316.14</ele>
        <time>2020-07-21T12:11:36.000Z</time>
      </trkpt>
      <trkpt lat="42.9979682" lon="-5.7616972">
        <ele>1316.14</ele>
        <time>2020-07-21T12:11:37.000Z</time>
      </trkpt>
      <trkpt lat="42.9979737" lon="-5.7617095">
        <ele>1315.84</ele>
        <time>2020-07-21T12:11:38.000Z</time>
      </trkpt>
      <trkpt lat="42.9979788" lon="-5.7617245">
        <ele>1315.84</ele>
        <time>2020-07-21T12:11:39.000Z</time>
      </trkpt>
      <trkpt lat="42.9979828" lon="-5.7617372">
        <ele>1315.38</ele>
        <time>2020-07-21T12:11:40.000Z</time>
      </trkpt>
      <trkpt lat="42.9979875" lon="-5.7617493">
        <ele>1315.38</ele>
        <time>2020-07-21T12:11:41.000Z</time>
      </trkpt>
      <trkpt lat="42.9979925" lon="-5.7617617">
        <ele>1314.92</ele>
        <time>2020-07-21T12:11:42.000Z</time>
      </trkpt>
      <trkpt lat="42.9980003" lon="-5.7617755">
        <ele>1314.92</ele>
        <time>2020-07-21T12:11:43.000Z</time>
      </trkpt>
      <trkpt lat="42.9980105" lon="-5.7617885">
        <ele>1314.47</ele>
        <time>2020-07-21T12:11:44.000Z</time>
      </trkpt>
      <trkpt lat="42.9980207" lon="-5.7617977">
        <ele>1314.47</ele>
        <time>2020-07-21T12:11:45.000Z</time>
      </trkpt>
      <trkpt lat="42.9980305" lon="-5.7618048">
        <ele>1314.01</ele>
        <time>2020-07-21T12:11:46.000Z</time>
      </trkpt>
      <trkpt lat="42.9980392" lon="-5.7618107">
        <ele>1314.01</ele>
        <time>2020-07-21T12:11:47.000Z</time>
      </trkpt>
      <trkpt lat="42.998048" lon="-5.761818">
        <ele>1313.55</ele>
        <time>2020-07-21T12:11:48.000Z</time>
      </trkpt>
      <trkpt lat="42.9980577" lon="-5.7618273">
        <ele>1313.55</ele>
        <time>2020-07-21T12:11:49.000Z</time>
      </trkpt>
      <trkpt lat="42.998068" lon="-5.7618372">
        <ele>1313.25</ele>
        <time>2020-07-21T12:11:50.000Z</time>
      </trkpt>
      <trkpt lat="42.998078" lon="-5.7618458">
        <ele>1313.25</ele>
        <time>2020-07-21T12:11:51.000Z</time>
      </trkpt>
      <trkpt lat="42.9980867" lon="-5.7618513">
        <ele>1312.79</ele>
        <time>2020-07-21T12:11:52.000Z</time>
      </trkpt>
      <trkpt lat="42.9980955" lon="-5.7618575">
        <ele>1312.79</ele>
        <time>2020-07-21T12:11:53.000Z</time>
      </trkpt>
      <trkpt lat="42.998104" lon="-5.7618642">
        <ele>1312.33</ele>
        <time>2020-07-21T12:11:54.000Z</time>
      </trkpt>
      <trkpt lat="42.9981133" lon="-5.7618707">
        <ele>1312.33</ele>
        <time>2020-07-21T12:11:55.000Z</time>
      </trkpt>
      <trkpt lat="42.998123" lon="-5.761875">
        <ele>1312.03</ele>
        <time>2020-07-21T12:11:56.000Z</time>
      </trkpt>
      <trkpt lat="42.9981335" lon="-5.7618785">
        <ele>1312.03</ele>
        <time>2020-07-21T12:11:57.000Z</time>
      </trkpt>
      <trkpt lat="42.9981435" lon="-5.761881">
        <ele>1311.57</ele>
        <time>2020-07-21T12:11:58.000Z</time>
      </trkpt>
      <trkpt lat="42.9981545" lon="-5.7618847">
        <ele>1311.57</ele>
        <time>2020-07-21T12:11:59.000Z</time>
      </trkpt>
      <trkpt lat="42.9981672" lon="-5.7618878">
        <ele>1311.27</ele>
        <time>2020-07-21T12:12:00.000Z</time>
      </trkpt>
      <trkpt lat="42.998181" lon="-5.7618907">
        <ele>1311.27</ele>
        <time>2020-07-21T12:12:01.000Z</time>
      </trkpt>
      <trkpt lat="42.998193" lon="-5.7618933">
        <ele>1310.81</ele>
        <time>2020-07-21T12:12:02.000Z</time>
      </trkpt>
      <trkpt lat="42.9982003" lon="-5.7618953">
        <ele>1310.81</ele>
        <time>2020-07-21T12:12:03.000Z</time>
      </trkpt>
      <trkpt lat="42.9982055" lon="-5.7618983">
        <ele>1310.35</ele>
        <time>2020-07-21T12:12:04.000Z</time>
      </trkpt>
      <trkpt lat="42.9982093" lon="-5.7619022">
        <ele>1310.35</ele>
        <time>2020-07-21T12:12:05.000Z</time>
      </trkpt>
      <trkpt lat="42.9982148" lon="-5.7619085">
        <ele>1309.89</ele>
        <time>2020-07-21T12:12:06.000Z</time>
      </trkpt>
      <trkpt lat="42.9982188" lon="-5.7619142">
        <ele>1309.89</ele>
        <time>2020-07-21T12:12:07.000Z</time>
      </trkpt>
      <trkpt lat="42.9982217" lon="-5.7619172">
        <ele>1309.44</ele>
        <time>2020-07-21T12:12:08.000Z</time>
      </trkpt>
      <trkpt lat="42.9982238" lon="-5.7619183">
        <ele>1309.44</ele>
        <time>2020-07-21T12:12:09.000Z</time>
      </trkpt>
      <trkpt lat="42.9982273" lon="-5.7619198">
        <ele>1309.13</ele>
        <time>2020-07-21T12:12:10.000Z</time>
      </trkpt>
      <trkpt lat="42.9982332" lon="-5.7619223">
        <ele>1309.13</ele>
        <time>2020-07-21T12:12:11.000Z</time>
      </trkpt>
      <trkpt lat="42.9982398" lon="-5.7619258">
        <ele>1308.68</ele>
        <time>2020-07-21T12:12:12.000Z</time>
      </trkpt>
      <trkpt lat="42.9982478" lon="-5.7619293">
        <ele>1308.68</ele>
        <time>2020-07-21T12:12:13.000Z</time>
      </trkpt>
      <trkpt lat="42.9982585" lon="-5.7619317">
        <ele>1308.22</ele>
        <time>2020-07-21T12:12:14.000Z</time>
      </trkpt>
      <trkpt lat="42.9982695" lon="-5.7619318">
        <ele>1308.22</ele>
        <time>2020-07-21T12:12:15.000Z</time>
      </trkpt>
      <trkpt lat="42.9982765" lon="-5.7619305">
        <ele>1307.76</ele>
        <time>2020-07-21T12:12:16.000Z</time>
      </trkpt>
      <trkpt lat="42.9982762" lon="-5.7619327">
        <ele>1307.76</ele>
        <time>2020-07-21T12:12:17.000Z</time>
      </trkpt>
      <trkpt lat="42.9982708" lon="-5.7619403">
        <ele>1307.3</ele>
        <time>2020-07-21T12:12:18.000Z</time>
      </trkpt>
      <trkpt lat="42.9982647" lon="-5.7619518">
        <ele>1307.3</ele>
        <time>2020-07-21T12:12:19.000Z</time>
      </trkpt>
      <trkpt lat="42.9982587" lon="-5.7619642">
        <ele>1306.85</ele>
        <time>2020-07-21T12:12:20.000Z</time>
      </trkpt>
      <trkpt lat="42.998254" lon="-5.7619752">
        <ele>1306.85</ele>
        <time>2020-07-21T12:12:21.000Z</time>
      </trkpt>
      <trkpt lat="42.9982483" lon="-5.7619868">
        <ele>1306.39</ele>
        <time>2020-07-21T12:12:22.000Z</time>
      </trkpt>
      <trkpt lat="42.9982427" lon="-5.7619985">
        <ele>1306.39</ele>
        <time>2020-07-21T12:12:23.000Z</time>
      </trkpt>
      <trkpt lat="42.9982365" lon="-5.7620105">
        <ele>1306.08</ele>
        <time>2020-07-21T12:12:24.000Z</time>
      </trkpt>
      <trkpt lat="42.9982313" lon="-5.7620223">
        <ele>1306.08</ele>
        <time>2020-07-21T12:12:25.000Z</time>
      </trkpt>
      <trkpt lat="42.9982267" lon="-5.762035">
        <ele>1305.63</ele>
        <time>2020-07-21T12:12:26.000Z</time>
      </trkpt>
      <trkpt lat="42.9982223" lon="-5.7620475">
        <ele>1305.63</ele>
        <time>2020-07-21T12:12:27.000Z</time>
      </trkpt>
      <trkpt lat="42.9982165" lon="-5.7620588">
        <ele>1305.17</ele>
        <time>2020-07-21T12:12:28.000Z</time>
      </trkpt>
      <trkpt lat="42.9982083" lon="-5.7620682">
        <ele>1305.17</ele>
        <time>2020-07-21T12:12:29.000Z</time>
      </trkpt>
      <trkpt lat="42.9981983" lon="-5.7620763">
        <ele>1304.86</ele>
        <time>2020-07-21T12:12:30.000Z</time>
      </trkpt>
      <trkpt lat="42.9981887" lon="-5.7620847">
        <ele>1304.86</ele>
        <time>2020-07-21T12:12:31.000Z</time>
      </trkpt>
      <trkpt lat="42.9981795" lon="-5.7620933">
        <ele>1304.41</ele>
        <time>2020-07-21T12:12:32.000Z</time>
      </trkpt>
      <trkpt lat="42.9981713" lon="-5.7621032">
        <ele>1304.41</ele>
        <time>2020-07-21T12:12:33.000Z</time>
      </trkpt>
      <trkpt lat="42.9981645" lon="-5.7621142">
        <ele>1304.1</ele>
        <time>2020-07-21T12:12:34.000Z</time>
      </trkpt>
      <trkpt lat="42.9981602" lon="-5.7621228">
        <ele>1304.1</ele>
        <time>2020-07-21T12:12:35.000Z</time>
      </trkpt>
      <trkpt lat="42.998157" lon="-5.762129">
        <ele>1303.65</ele>
        <time>2020-07-21T12:12:36.000Z</time>
      </trkpt>
      <trkpt lat="42.9981528" lon="-5.762138">
        <ele>1303.65</ele>
        <time>2020-07-21T12:12:37.000Z</time>
      </trkpt>
      <trkpt lat="42.99815" lon="-5.7621508">
        <ele>1303.34</ele>
        <time>2020-07-21T12:12:38.000Z</time>
      </trkpt>
      <trkpt lat="42.9981522" lon="-5.7621665">
        <ele>1303.34</ele>
        <time>2020-07-21T12:12:39.000Z</time>
      </trkpt>
      <trkpt lat="42.9981605" lon="-5.7621787">
        <ele>1302.88</ele>
        <time>2020-07-21T12:12:40.000Z</time>
      </trkpt>
      <trkpt lat="42.9981717" lon="-5.7621902">
        <ele>1302.88</ele>
        <time>2020-07-21T12:12:41.000Z</time>
      </trkpt>
      <trkpt lat="42.9981843" lon="-5.7622022">
        <ele>1302.58</ele>
        <time>2020-07-21T12:12:42.000Z</time>
      </trkpt>
      <trkpt lat="42.9981947" lon="-5.7622148">
        <ele>1302.58</ele>
        <time>2020-07-21T12:12:43.000Z</time>
      </trkpt>
      <trkpt lat="42.9982025" lon="-5.7622287">
        <ele>1302.12</ele>
        <time>2020-07-21T12:12:44.000Z</time>
      </trkpt>
      <trkpt lat="42.998206" lon="-5.7622425">
        <ele>1302.12</ele>
        <time>2020-07-21T12:12:45.000Z</time>
      </trkpt>
      <trkpt lat="42.9982093" lon="-5.762256">
        <ele>1301.82</ele>
        <time>2020-07-21T12:12:46.000Z</time>
      </trkpt>
      <trkpt lat="42.9982138" lon="-5.7622683">
        <ele>1301.82</ele>
        <time>2020-07-21T12:12:47.000Z</time>
      </trkpt>
      <trkpt lat="42.9982203" lon="-5.7622805">
        <ele>1301.51</ele>
        <time>2020-07-21T12:12:48.000Z</time>
      </trkpt>
      <trkpt lat="42.9982273" lon="-5.7622928">
        <ele>1301.51</ele>
        <time>2020-07-21T12:12:49.000Z</time>
      </trkpt>
      <trkpt lat="42.9982343" lon="-5.762307">
        <ele>1301.21</ele>
        <time>2020-07-21T12:12:50.000Z</time>
      </trkpt>
      <trkpt lat="42.9982415" lon="-5.7623207">
        <ele>1301.21</ele>
        <time>2020-07-21T12:12:51.000Z</time>
      </trkpt>
      <trkpt lat="42.9982483" lon="-5.7623345">
        <ele>1300.9</ele>
        <time>2020-07-21T12:12:52.000Z</time>
      </trkpt>
      <trkpt lat="42.9982555" lon="-5.762346">
        <ele>1300.9</ele>
        <time>2020-07-21T12:12:53.000Z</time>
      </trkpt>
      <trkpt lat="42.9982628" lon="-5.7623562">
        <ele>1300.6</ele>
        <time>2020-07-21T12:12:54.000Z</time>
      </trkpt>
      <trkpt lat="42.9982723" lon="-5.762367">
        <ele>1300.6</ele>
        <time>2020-07-21T12:12:55.000Z</time>
      </trkpt>
      <trkpt lat="42.9982822" lon="-5.7623773">
        <ele>1300.29</ele>
        <time>2020-07-21T12:12:56.000Z</time>
      </trkpt>
      <trkpt lat="42.9982933" lon="-5.762388">
        <ele>1300.29</ele>
        <time>2020-07-21T12:12:57.000Z</time>
      </trkpt>
      <trkpt lat="42.9983053" lon="-5.7623982">
        <ele>1299.99</ele>
        <time>2020-07-21T12:12:58.000Z</time>
      </trkpt>
      <trkpt lat="42.998318" lon="-5.7624083">
        <ele>1299.99</ele>
        <time>2020-07-21T12:12:59.000Z</time>
      </trkpt>
      <trkpt lat="42.99833" lon="-5.7624172">
        <ele>1299.83</ele>
        <time>2020-07-21T12:13:00.000Z</time>
      </trkpt>
      <trkpt lat="42.9983405" lon="-5.7624245">
        <ele>1299.83</ele>
        <time>2020-07-21T12:13:01.000Z</time>
      </trkpt>
      <trkpt lat="42.998349" lon="-5.7624323">
        <ele>1299.53</ele>
        <time>2020-07-21T12:13:02.000Z</time>
      </trkpt>
      <trkpt lat="42.9983557" lon="-5.7624467">
        <ele>1299.53</ele>
        <time>2020-07-21T12:13:03.000Z</time>
      </trkpt>
      <trkpt lat="42.998361" lon="-5.7624643">
        <ele>1299.38</ele>
        <time>2020-07-21T12:13:04.000Z</time>
      </trkpt>
      <trkpt lat="42.9983662" lon="-5.7624838">
        <ele>1299.38</ele>
        <time>2020-07-21T12:13:05.000Z</time>
      </trkpt>
      <trkpt lat="42.9983727" lon="-5.7624997">
        <ele>1299.23</ele>
        <time>2020-07-21T12:13:06.000Z</time>
      </trkpt>
      <trkpt lat="42.9983798" lon="-5.7625143">
        <ele>1299.23</ele>
        <time>2020-07-21T12:13:07.000Z</time>
      </trkpt>
      <trkpt lat="42.9983885" lon="-5.7625273">
        <ele>1299.07</ele>
        <time>2020-07-21T12:13:08.000Z</time>
      </trkpt>
      <trkpt lat="42.998398" lon="-5.7625403">
        <ele>1299.07</ele>
        <time>2020-07-21T12:13:09.000Z</time>
      </trkpt>
      <trkpt lat="42.9984073" lon="-5.7625545">
        <ele>1298.92</ele>
        <time>2020-07-21T12:13:10.000Z</time>
      </trkpt>
      <trkpt lat="42.998416" lon="-5.7625673">
        <ele>1298.92</ele>
        <time>2020-07-21T12:13:11.000Z</time>
      </trkpt>
      <trkpt lat="42.9984252" lon="-5.7625772">
        <ele>1298.77</ele>
        <time>2020-07-21T12:13:12.000Z</time>
      </trkpt>
      <trkpt lat="42.9984355" lon="-5.7625838">
        <ele>1298.77</ele>
        <time>2020-07-21T12:13:13.000Z</time>
      </trkpt>
      <trkpt lat="42.9984473" lon="-5.7625905">
        <ele>1298.62</ele>
        <time>2020-07-21T12:13:14.000Z</time>
      </trkpt>
      <trkpt lat="42.9984607" lon="-5.7625973">
        <ele>1298.62</ele>
        <time>2020-07-21T12:13:15.000Z</time>
      </trkpt>
      <trkpt lat="42.9984738" lon="-5.7626028">
        <ele>1298.46</ele>
        <time>2020-07-21T12:13:16.000Z</time>
      </trkpt>
      <trkpt lat="42.9984868" lon="-5.7626073">
        <ele>1298.46</ele>
        <time>2020-07-21T12:13:17.000Z</time>
      </trkpt>
      <trkpt lat="42.9984977" lon="-5.7626122">
        <ele>1298.31</ele>
        <time>2020-07-21T12:13:18.000Z</time>
      </trkpt>
      <trkpt lat="42.998507" lon="-5.7626158">
        <ele>1298.31</ele>
        <time>2020-07-21T12:13:19.000Z</time>
      </trkpt>
      <trkpt lat="42.9985155" lon="-5.7626195">
        <ele>1298.16</ele>
        <time>2020-07-21T12:13:20.000Z</time>
      </trkpt>
      <trkpt lat="42.9985238" lon="-5.7626218">
        <ele>1298.16</ele>
        <time>2020-07-21T12:13:21.000Z</time>
      </trkpt>
      <trkpt lat="42.9985323" lon="-5.7626263">
        <ele>1298.01</ele>
        <time>2020-07-21T12:13:22.000Z</time>
      </trkpt>
      <trkpt lat="42.9985392" lon="-5.7626303">
        <ele>1298.01</ele>
        <time>2020-07-21T12:13:23.000Z</time>
      </trkpt>
      <trkpt lat="42.998545" lon="-5.762634">
        <ele>1297.85</ele>
        <time>2020-07-21T12:13:24.000Z</time>
      </trkpt>
      <trkpt lat="42.9985512" lon="-5.7626352">
        <ele>1297.85</ele>
        <time>2020-07-21T12:13:25.000Z</time>
      </trkpt>
      <trkpt lat="42.9985587" lon="-5.7626348">
        <ele>1297.55</ele>
        <time>2020-07-21T12:13:26.000Z</time>
      </trkpt>
      <trkpt lat="42.9985668" lon="-5.7626328">
        <ele>1297.55</ele>
        <time>2020-07-21T12:13:27.000Z</time>
      </trkpt>
      <trkpt lat="42.998576" lon="-5.7626287">
        <ele>1297.4</ele>
        <time>2020-07-21T12:13:28.000Z</time>
      </trkpt>
      <trkpt lat="42.9985857" lon="-5.7626213">
        <ele>1297.4</ele>
        <time>2020-07-21T12:13:29.000Z</time>
      </trkpt>
      <trkpt lat="42.998595" lon="-5.762613">
        <ele>1297.24</ele>
        <time>2020-07-21T12:13:30.000Z</time>
      </trkpt>
      <trkpt lat="42.998604" lon="-5.7626058">
        <ele>1297.24</ele>
        <time>2020-07-21T12:13:31.000Z</time>
      </trkpt>
      <trkpt lat="42.9986133" lon="-5.762601">
        <ele>1297.09</ele>
        <time>2020-07-21T12:13:32.000Z</time>
      </trkpt>
      <trkpt lat="42.9986233" lon="-5.7625955">
        <ele>1297.09</ele>
        <time>2020-07-21T12:13:33.000Z</time>
      </trkpt>
      <trkpt lat="42.9986342" lon="-5.7625878">
        <ele>1296.94</ele>
        <time>2020-07-21T12:13:34.000Z</time>
      </trkpt>
      <trkpt lat="42.9986447" lon="-5.7625787">
        <ele>1296.94</ele>
        <time>2020-07-21T12:13:35.000Z</time>
      </trkpt>
      <trkpt lat="42.9986537" lon="-5.7625683">
        <ele>1296.64</ele>
        <time>2020-07-21T12:13:36.000Z</time>
      </trkpt>
      <trkpt lat="42.9986612" lon="-5.76256">
        <ele>1296.64</ele>
        <time>2020-07-21T12:13:37.000Z</time>
      </trkpt>
      <trkpt lat="42.998663" lon="-5.762555">
        <ele>1296.48</ele>
        <time>2020-07-21T12:13:38.000Z</time>
      </trkpt>
      <trkpt lat="42.9986628" lon="-5.762555">
        <ele>1296.48</ele>
        <time>2020-07-21T12:13:39.000Z</time>
      </trkpt>
      <trkpt lat="42.9986612" lon="-5.7625542">
        <ele>1296.18</ele>
        <time>2020-07-21T12:13:40.000Z</time>
      </trkpt>
      <trkpt lat="42.9986588" lon="-5.762557">
        <ele>1296.18</ele>
        <time>2020-07-21T12:13:41.000Z</time>
      </trkpt>
      <trkpt lat="42.9986528" lon="-5.7625618">
        <ele>1295.87</ele>
        <time>2020-07-21T12:13:42.000Z</time>
      </trkpt>
      <trkpt lat="42.9986418" lon="-5.7625727">
        <ele>1295.87</ele>
        <time>2020-07-21T12:13:43.000Z</time>
      </trkpt>
      <trkpt lat="42.9986293" lon="-5.7625825">
        <ele>1295.72</ele>
        <time>2020-07-21T12:13:44.000Z</time>
      </trkpt>
      <trkpt lat="42.9986168" lon="-5.7625898">
        <ele>1295.72</ele>
        <time>2020-07-21T12:13:45.000Z</time>
      </trkpt>
      <trkpt lat="42.9986053" lon="-5.7625943">
        <ele>1295.42</ele>
        <time>2020-07-21T12:13:46.000Z</time>
      </trkpt>
      <trkpt lat="42.9985943" lon="-5.7625968">
        <ele>1295.42</ele>
        <time>2020-07-21T12:13:47.000Z</time>
      </trkpt>
      <trkpt lat="42.9985822" lon="-5.7625992">
        <ele>1295.11</ele>
        <time>2020-07-21T12:13:48.000Z</time>
      </trkpt>
      <trkpt lat="42.9985688" lon="-5.7626033">
        <ele>1295.11</ele>
        <time>2020-07-21T12:13:49.000Z</time>
      </trkpt>
      <trkpt lat="42.9985565" lon="-5.7626077">
        <ele>1294.81</ele>
        <time>2020-07-21T12:13:50.000Z</time>
      </trkpt>
      <trkpt lat="42.9985457" lon="-5.7626097">
        <ele>1294.81</ele>
        <time>2020-07-21T12:13:51.000Z</time>
      </trkpt>
      <trkpt lat="42.9985362" lon="-5.7626083">
        <ele>1294.5</ele>
        <time>2020-07-21T12:13:52.000Z</time>
      </trkpt>
      <trkpt lat="42.9985263" lon="-5.7626052">
        <ele>1294.5</ele>
        <time>2020-07-21T12:13:53.000Z</time>
      </trkpt>
      <trkpt lat="42.9985152" lon="-5.7626013">
        <ele>1294.35</ele>
        <time>2020-07-21T12:13:54.000Z</time>
      </trkpt>
      <trkpt lat="42.9985037" lon="-5.7625973">
        <ele>1294.35</ele>
        <time>2020-07-21T12:13:55.000Z</time>
      </trkpt>
      <trkpt lat="42.9984937" lon="-5.7625928">
        <ele>1294.04</ele>
        <time>2020-07-21T12:13:56.000Z</time>
      </trkpt>
      <trkpt lat="42.9984848" lon="-5.7625885">
        <ele>1294.04</ele>
        <time>2020-07-21T12:13:57.000Z</time>
      </trkpt>
      <trkpt lat="42.9984762" lon="-5.7625838">
        <ele>1293.74</ele>
        <time>2020-07-21T12:13:58.000Z</time>
      </trkpt>
      <trkpt lat="42.998466" lon="-5.7625783">
        <ele>1293.74</ele>
        <time>2020-07-21T12:13:59.000Z</time>
      </trkpt>
      <trkpt lat="42.9984547" lon="-5.7625715">
        <ele>1293.59</ele>
        <time>2020-07-21T12:14:00.000Z</time>
      </trkpt>
      <trkpt lat="42.9984437" lon="-5.7625642">
        <ele>1293.59</ele>
        <time>2020-07-21T12:14:01.000Z</time>
      </trkpt>
      <trkpt lat="42.9984337" lon="-5.7625572">
        <ele>1293.28</ele>
        <time>2020-07-21T12:14:02.000Z</time>
      </trkpt>
      <trkpt lat="42.9984242" lon="-5.7625503">
        <ele>1293.28</ele>
        <time>2020-07-21T12:14:03.000Z</time>
      </trkpt>
      <trkpt lat="42.9984143" lon="-5.7625442">
        <ele>1293.13</ele>
        <time>2020-07-21T12:14:04.000Z</time>
      </trkpt>
      <trkpt lat="42.9984023" lon="-5.7625405">
        <ele>1293.13</ele>
        <time>2020-07-21T12:14:05.000Z</time>
      </trkpt>
      <trkpt lat="42.9983922" lon="-5.76254">
        <ele>1292.98</ele>
        <time>2020-07-21T12:14:06.000Z</time>
      </trkpt>
      <trkpt lat="42.9983845" lon="-5.7625397">
        <ele>1292.98</ele>
        <time>2020-07-21T12:14:07.000Z</time>
      </trkpt>
      <trkpt lat="42.9983795" lon="-5.762535">
        <ele>1292.82</ele>
        <time>2020-07-21T12:14:08.000Z</time>
      </trkpt>
      <trkpt lat="42.9983742" lon="-5.7625257">
        <ele>1292.82</ele>
        <time>2020-07-21T12:14:09.000Z</time>
      </trkpt>
      <trkpt lat="42.9983675" lon="-5.7625147">
        <ele>1292.67</ele>
        <time>2020-07-21T12:14:10.000Z</time>
      </trkpt>
      <trkpt lat="42.998361" lon="-5.7625068">
        <ele>1292.67</ele>
        <time>2020-07-21T12:14:11.000Z</time>
      </trkpt>
      <trkpt lat="42.998352" lon="-5.7625037">
        <ele>1292.52</ele>
        <time>2020-07-21T12:14:12.000Z</time>
      </trkpt>
      <trkpt lat="42.998342" lon="-5.7625075">
        <ele>1292.52</ele>
        <time>2020-07-21T12:14:13.000Z</time>
      </trkpt>
      <trkpt lat="42.9983315" lon="-5.7625175">
        <ele>1292.37</ele>
        <time>2020-07-21T12:14:14.000Z</time>
      </trkpt>
      <trkpt lat="42.9983237" lon="-5.762532">
        <ele>1292.37</ele>
        <time>2020-07-21T12:14:15.000Z</time>
      </trkpt>
      <trkpt lat="42.9983165" lon="-5.7625453">
        <ele>1292.21</ele>
        <time>2020-07-21T12:14:16.000Z</time>
      </trkpt>
      <trkpt lat="42.9983093" lon="-5.7625555">
        <ele>1292.21</ele>
        <time>2020-07-21T12:14:17.000Z</time>
      </trkpt>
      <trkpt lat="42.9983012" lon="-5.7625625">
        <ele>1292.21</ele>
        <time>2020-07-21T12:14:18.000Z</time>
      </trkpt>
      <trkpt lat="42.9982917" lon="-5.7625702">
        <ele>1292.21</ele>
        <time>2020-07-21T12:14:19.000Z</time>
      </trkpt>
      <trkpt lat="42.998281" lon="-5.7625788">
        <ele>1292.06</ele>
        <time>2020-07-21T12:14:20.000Z</time>
      </trkpt>
      <trkpt lat="42.9982717" lon="-5.7625872">
        <ele>1292.06</ele>
        <time>2020-07-21T12:14:21.000Z</time>
      </trkpt>
      <trkpt lat="42.9982632" lon="-5.7625945">
        <ele>1292.06</ele>
        <time>2020-07-21T12:14:22.000Z</time>
      </trkpt>
      <trkpt lat="42.9982543" lon="-5.7626013">
        <ele>1292.06</ele>
        <time>2020-07-21T12:14:23.000Z</time>
      </trkpt>
      <trkpt lat="42.9982443" lon="-5.762609">
        <ele>1291.91</ele>
        <time>2020-07-21T12:14:24.000Z</time>
      </trkpt>
      <trkpt lat="42.9982337" lon="-5.7626168">
        <ele>1291.91</ele>
        <time>2020-07-21T12:14:25.000Z</time>
      </trkpt>
      <trkpt lat="42.9982217" lon="-5.7626243">
        <ele>1291.76</ele>
        <time>2020-07-21T12:14:26.000Z</time>
      </trkpt>
      <trkpt lat="42.9982092" lon="-5.7626315">
        <ele>1291.76</ele>
        <time>2020-07-21T12:14:27.000Z</time>
      </trkpt>
      <trkpt lat="42.998196" lon="-5.7626382">
        <ele>1291.76</ele>
        <time>2020-07-21T12:14:28.000Z</time>
      </trkpt>
      <trkpt lat="42.9981838" lon="-5.7626435">
        <ele>1291.76</ele>
        <time>2020-07-21T12:14:29.000Z</time>
      </trkpt>
      <trkpt lat="42.9981712" lon="-5.762649">
        <ele>1291.76</ele>
        <time>2020-07-21T12:14:30.000Z</time>
      </trkpt>
      <trkpt lat="42.9981593" lon="-5.7626528">
        <ele>1291.76</ele>
        <time>2020-07-21T12:14:31.000Z</time>
      </trkpt>
      <trkpt lat="42.9981493" lon="-5.7626562">
        <ele>1291.61</ele>
        <time>2020-07-21T12:14:32.000Z</time>
      </trkpt>
      <trkpt lat="42.9981395" lon="-5.762658">
        <ele>1291.61</ele>
        <time>2020-07-21T12:14:33.000Z</time>
      </trkpt>
      <trkpt lat="42.9981298" lon="-5.7626613">
        <ele>1291.61</ele>
        <time>2020-07-21T12:14:34.000Z</time>
      </trkpt>
      <trkpt lat="42.9981192" lon="-5.7626677">
        <ele>1291.61</ele>
        <time>2020-07-21T12:14:35.000Z</time>
      </trkpt>
      <trkpt lat="42.99811" lon="-5.7626782">
        <ele>1291.45</ele>
        <time>2020-07-21T12:14:36.000Z</time>
      </trkpt>
      <trkpt lat="42.9981015" lon="-5.7626915">
        <ele>1291.45</ele>
        <time>2020-07-21T12:14:37.000Z</time>
      </trkpt>
      <trkpt lat="42.9980953" lon="-5.7627065">
        <ele>1291.3</ele>
        <time>2020-07-21T12:14:38.000Z</time>
      </trkpt>
      <trkpt lat="42.9980918" lon="-5.762721">
        <ele>1291.3</ele>
        <time>2020-07-21T12:14:39.000Z</time>
      </trkpt>
      <trkpt lat="42.9980898" lon="-5.7627347">
        <ele>1291.3</ele>
        <time>2020-07-21T12:14:40.000Z</time>
      </trkpt>
      <trkpt lat="42.9980873" lon="-5.7627492">
        <ele>1291.3</ele>
        <time>2020-07-21T12:14:41.000Z</time>
      </trkpt>
      <trkpt lat="42.9980832" lon="-5.7627655">
        <ele>1291.15</ele>
        <time>2020-07-21T12:14:42.000Z</time>
      </trkpt>
      <trkpt lat="42.9980773" lon="-5.7627855">
        <ele>1291.15</ele>
        <time>2020-07-21T12:14:43.000Z</time>
      </trkpt>
      <trkpt lat="42.9980698" lon="-5.7628072">
        <ele>1291</ele>
        <time>2020-07-21T12:14:44.000Z</time>
      </trkpt>
      <trkpt lat="42.9980632" lon="-5.7628293">
        <ele>1291</ele>
        <time>2020-07-21T12:14:45.000Z</time>
      </trkpt>
      <trkpt lat="42.9980588" lon="-5.7628497">
        <ele>1291</ele>
        <time>2020-07-21T12:14:46.000Z</time>
      </trkpt>
      <trkpt lat="42.9980553" lon="-5.7628688">
        <ele>1291</ele>
        <time>2020-07-21T12:14:47.000Z</time>
      </trkpt>
      <trkpt lat="42.9980487" lon="-5.7628848">
        <ele>1290.84</ele>
        <time>2020-07-21T12:14:48.000Z</time>
      </trkpt>
      <trkpt lat="42.9980385" lon="-5.7628983">
        <ele>1290.84</ele>
        <time>2020-07-21T12:14:49.000Z</time>
      </trkpt>
      <trkpt lat="42.9980268" lon="-5.7629088">
        <ele>1290.69</ele>
        <time>2020-07-21T12:14:50.000Z</time>
      </trkpt>
      <trkpt lat="42.9980158" lon="-5.762919">
        <ele>1290.69</ele>
        <time>2020-07-21T12:14:51.000Z</time>
      </trkpt>
      <trkpt lat="42.9980073" lon="-5.762927">
        <ele>1290.54</ele>
        <time>2020-07-21T12:14:52.000Z</time>
      </trkpt>
      <trkpt lat="42.9979983" lon="-5.7629343">
        <ele>1290.54</ele>
        <time>2020-07-21T12:14:53.000Z</time>
      </trkpt>
      <trkpt lat="42.9979898" lon="-5.762941">
        <ele>1290.54</ele>
        <time>2020-07-21T12:14:54.000Z</time>
      </trkpt>
      <trkpt lat="42.9979807" lon="-5.7629477">
        <ele>1290.54</ele>
        <time>2020-07-21T12:14:55.000Z</time>
      </trkpt>
      <trkpt lat="42.9979745" lon="-5.7629508">
        <ele>1290.39</ele>
        <time>2020-07-21T12:14:56.000Z</time>
      </trkpt>
      <trkpt lat="42.9979692" lon="-5.7629512">
        <ele>1290.39</ele>
        <time>2020-07-21T12:14:57.000Z</time>
      </trkpt>
      <trkpt lat="42.997964" lon="-5.7629508">
        <ele>1290.39</ele>
        <time>2020-07-21T12:14:58.000Z</time>
      </trkpt>
      <trkpt lat="42.9979562" lon="-5.7629557">
        <ele>1290.39</ele>
        <time>2020-07-21T12:14:59.000Z</time>
      </trkpt>
      <trkpt lat="42.9979477" lon="-5.7629635">
        <ele>1290.23</ele>
        <time>2020-07-21T12:15:00.000Z</time>
      </trkpt>
      <trkpt lat="42.9979382" lon="-5.7629732">
        <ele>1290.23</ele>
        <time>2020-07-21T12:15:01.000Z</time>
      </trkpt>
      <trkpt lat="42.9979307" lon="-5.7629797">
        <ele>1290.23</ele>
        <time>2020-07-21T12:15:02.000Z</time>
      </trkpt>
      <trkpt lat="42.997923" lon="-5.762986">
        <ele>1290.23</ele>
        <time>2020-07-21T12:15:03.000Z</time>
      </trkpt>
      <trkpt lat="42.997916" lon="-5.762994">
        <ele>1290.08</ele>
        <time>2020-07-21T12:15:04.000Z</time>
      </trkpt>
      <trkpt lat="42.9979083" lon="-5.763002">
        <ele>1290.08</ele>
        <time>2020-07-21T12:15:05.000Z</time>
      </trkpt>
      <trkpt lat="42.9979008" lon="-5.7630105">
        <ele>1290.08</ele>
        <time>2020-07-21T12:15:06.000Z</time>
      </trkpt>
      <trkpt lat="42.997894" lon="-5.7630177">
        <ele>1290.08</ele>
        <time>2020-07-21T12:15:07.000Z</time>
      </trkpt>
      <trkpt lat="42.9978875" lon="-5.7630257">
        <ele>1290.08</ele>
        <time>2020-07-21T12:15:08.000Z</time>
      </trkpt>
      <trkpt lat="42.9978807" lon="-5.7630345">
        <ele>1290.08</ele>
        <time>2020-07-21T12:15:09.000Z</time>
      </trkpt>
      <trkpt lat="42.9978735" lon="-5.7630458">
        <ele>1290.08</ele>
        <time>2020-07-21T12:15:10.000Z</time>
      </trkpt>
      <trkpt lat="42.9978675" lon="-5.763058">
        <ele>1290.08</ele>
        <time>2020-07-21T12:15:11.000Z</time>
      </trkpt>
      <trkpt lat="42.9978647" lon="-5.7630668">
        <ele>1289.93</ele>
        <time>2020-07-21T12:15:12.000Z</time>
      </trkpt>
      <trkpt lat="42.9978625" lon="-5.7630702">
        <ele>1289.93</ele>
        <time>2020-07-21T12:15:13.000Z</time>
      </trkpt>
      <trkpt lat="42.9978598" lon="-5.7630705">
        <ele>1289.93</ele>
        <time>2020-07-21T12:15:14.000Z</time>
      </trkpt>
      <trkpt lat="42.9978563" lon="-5.7630713">
        <ele>1289.93</ele>
        <time>2020-07-21T12:15:15.000Z</time>
      </trkpt>
      <trkpt lat="42.9978545" lon="-5.7630732">
        <ele>1289.93</ele>
        <time>2020-07-21T12:15:16.000Z</time>
      </trkpt>
      <trkpt lat="42.997854" lon="-5.763075">
        <ele>1289.93</ele>
        <time>2020-07-21T12:15:17.000Z</time>
      </trkpt>
      <trkpt lat="42.997854" lon="-5.763076">
        <ele>1289.78</ele>
        <time>2020-07-21T12:15:18.000Z</time>
      </trkpt>
      <trkpt lat="42.9978538" lon="-5.7630772">
        <ele>1289.78</ele>
        <time>2020-07-21T12:15:19.000Z</time>
      </trkpt>
      <trkpt lat="42.997854" lon="-5.7630782">
        <ele>1289.78</ele>
        <time>2020-07-21T12:15:20.000Z</time>
      </trkpt>
      <trkpt lat="42.9978548" lon="-5.7630788">
        <ele>1289.78</ele>
        <time>2020-07-21T12:15:21.000Z</time>
      </trkpt>
      <trkpt lat="42.9978555" lon="-5.7630783">
        <ele>1289.78</ele>
        <time>2020-07-21T12:15:22.000Z</time>
      </trkpt>
      <trkpt lat="42.9978558" lon="-5.763078">
        <ele>1289.78</ele>
        <time>2020-07-21T12:15:23.000Z</time>
      </trkpt>
      <trkpt lat="42.997856" lon="-5.7630782">
        <ele>1289.62</ele>
        <time>2020-07-21T12:15:24.000Z</time>
      </trkpt>
      <trkpt lat="42.9978562" lon="-5.7630782">
        <ele>1289.62</ele>
        <time>2020-07-21T12:15:25.000Z</time>
      </trkpt>
      <trkpt lat="42.9978563" lon="-5.7630782">
        <ele>1289.62</ele>
        <time>2020-07-21T12:15:26.000Z</time>
      </trkpt>
      <trkpt lat="42.9978568" lon="-5.7630775">
        <ele>1289.62</ele>
        <time>2020-07-21T12:15:27.000Z</time>
      </trkpt>
      <trkpt lat="42.9978573" lon="-5.763074">
        <ele>1289.62</ele>
        <time>2020-07-21T12:15:28.000Z</time>
      </trkpt>
      <trkpt lat="42.997857" lon="-5.763071">
        <ele>1289.62</ele>
        <time>2020-07-21T12:15:29.000Z</time>
      </trkpt>
      <trkpt lat="42.9978557" lon="-5.763069">
        <ele>1289.62</ele>
        <time>2020-07-21T12:15:30.000Z</time>
      </trkpt>
      <trkpt lat="42.9978545" lon="-5.7630713">
        <ele>1289.62</ele>
        <time>2020-07-21T12:15:31.000Z</time>
      </trkpt>
      <trkpt lat="42.9978543" lon="-5.7630737">
        <ele>1289.62</ele>
        <time>2020-07-21T12:15:32.000Z</time>
      </trkpt>
      <trkpt lat="42.997855" lon="-5.7630742">
        <ele>1289.62</ele>
        <time>2020-07-21T12:15:33.000Z</time>
      </trkpt>
      <trkpt lat="42.9978558" lon="-5.763073">
        <ele>1289.62</ele>
        <time>2020-07-21T12:15:34.000Z</time>
      </trkpt>
      <trkpt lat="42.9978573" lon="-5.7630717">
        <ele>1289.62</ele>
        <time>2020-07-21T12:15:35.000Z</time>
      </trkpt>
      <trkpt lat="42.9978587" lon="-5.7630713">
        <ele>1289.47</ele>
        <time>2020-07-21T12:15:36.000Z</time>
      </trkpt>
      <trkpt lat="42.9978602" lon="-5.7630717">
        <ele>1289.47</ele>
        <time>2020-07-21T12:15:37.000Z</time>
      </trkpt>
      <trkpt lat="42.99786" lon="-5.7630715">
        <ele>1289.47</ele>
        <time>2020-07-21T12:15:38.000Z</time>
      </trkpt>
      <trkpt lat="42.9978627" lon="-5.7630747">
        <ele>1289.47</ele>
        <time>2020-07-21T12:15:39.000Z</time>
      </trkpt>
      <trkpt lat="42.997867" lon="-5.7630792">
        <ele>1289.47</ele>
        <time>2020-07-21T12:15:40.000Z</time>
      </trkpt>
      <trkpt lat="42.9978718" lon="-5.7630832">
        <ele>1289.47</ele>
        <time>2020-07-21T12:15:41.000Z</time>
      </trkpt>
      <trkpt lat="42.9978735" lon="-5.7630808">
        <ele>1289.47</ele>
        <time>2020-07-21T12:15:42.000Z</time>
      </trkpt>
      <trkpt lat="42.9978738" lon="-5.763077">
        <ele>1289.47</ele>
        <time>2020-07-21T12:15:43.000Z</time>
      </trkpt>
      <trkpt lat="42.9978737" lon="-5.763074">
        <ele>1289.32</ele>
        <time>2020-07-21T12:15:44.000Z</time>
      </trkpt>
      <trkpt lat="42.9978742" lon="-5.763074">
        <ele>1289.32</ele>
        <time>2020-07-21T12:15:45.000Z</time>
      </trkpt>
      <trkpt lat="42.9978743" lon="-5.7630762">
        <ele>1289.32</ele>
        <time>2020-07-21T12:15:46.000Z</time>
      </trkpt>
      <trkpt lat="42.9978758" lon="-5.7630818">
        <ele>1289.32</ele>
        <time>2020-07-21T12:15:47.000Z</time>
      </trkpt>
      <trkpt lat="42.9978798" lon="-5.7630915">
        <ele>1289.32</ele>
        <time>2020-07-21T12:15:48.000Z</time>
      </trkpt>
      <trkpt lat="42.9978865" lon="-5.763102">
        <ele>1289.32</ele>
        <time>2020-07-21T12:15:49.000Z</time>
      </trkpt>
      <trkpt lat="42.9978932" lon="-5.7631123">
        <ele>1289.32</ele>
        <time>2020-07-21T12:15:50.000Z</time>
      </trkpt>
      <trkpt lat="42.9978967" lon="-5.7631208">
        <ele>1289.32</ele>
        <time>2020-07-21T12:15:51.000Z</time>
      </trkpt>
      <trkpt lat="42.9978993" lon="-5.763131">
        <ele>1289.32</ele>
        <time>2020-07-21T12:15:52.000Z</time>
      </trkpt>
      <trkpt lat="42.9979022" lon="-5.7631415">
        <ele>1289.32</ele>
        <time>2020-07-21T12:15:53.000Z</time>
      </trkpt>
      <trkpt lat="42.9979063" lon="-5.7631518">
        <ele>1289.32</ele>
        <time>2020-07-21T12:15:54.000Z</time>
      </trkpt>
      <trkpt lat="42.9979082" lon="-5.7631573">
        <ele>1289.32</ele>
        <time>2020-07-21T12:15:55.000Z</time>
      </trkpt>
      <trkpt lat="42.9979085" lon="-5.7631593">
        <ele>1289.32</ele>
        <time>2020-07-21T12:15:56.000Z</time>
      </trkpt>
      <trkpt lat="42.9979082" lon="-5.7631595">
        <ele>1289.32</ele>
        <time>2020-07-21T12:15:57.000Z</time>
      </trkpt>
      <trkpt lat="42.9979082" lon="-5.76316">
        <ele>1289.32</ele>
        <time>2020-07-21T12:15:58.000Z</time>
      </trkpt>
      <trkpt lat="42.9979082" lon="-5.7631603">
        <ele>1289.32</ele>
        <time>2020-07-21T12:15:59.000Z</time>
      </trkpt>
      <trkpt lat="42.9979083" lon="-5.7631607">
        <ele>1289.32</ele>
        <time>2020-07-21T12:16:00.000Z</time>
      </trkpt>
      <trkpt lat="42.997909" lon="-5.763161">
        <ele>1289.32</ele>
        <time>2020-07-21T12:16:01.000Z</time>
      </trkpt>
      <trkpt lat="42.9979095" lon="-5.7631617">
        <ele>1289.47</ele>
        <time>2020-07-21T12:16:02.000Z</time>
      </trkpt>
      <trkpt lat="42.9979098" lon="-5.7631627">
        <ele>1289.47</ele>
        <time>2020-07-21T12:16:03.000Z</time>
      </trkpt>
      <trkpt lat="42.99791" lon="-5.7631638">
        <ele>1289.47</ele>
        <time>2020-07-21T12:16:04.000Z</time>
      </trkpt>
      <trkpt lat="42.9979098" lon="-5.7631648">
        <ele>1289.47</ele>
        <time>2020-07-21T12:16:05.000Z</time>
      </trkpt>
      <trkpt lat="42.9979097" lon="-5.7631655">
        <ele>1289.47</ele>
        <time>2020-07-21T12:16:06.000Z</time>
      </trkpt>
      <trkpt lat="42.9979095" lon="-5.7631657">
        <ele>1289.47</ele>
        <time>2020-07-21T12:16:07.000Z</time>
      </trkpt>
      <trkpt lat="42.9979093" lon="-5.763166">
        <ele>1289.47</ele>
        <time>2020-07-21T12:16:08.000Z</time>
      </trkpt>
      <trkpt lat="42.9979092" lon="-5.7631663">
        <ele>1289.47</ele>
        <time>2020-07-21T12:16:09.000Z</time>
      </trkpt>
      <trkpt lat="42.9979097" lon="-5.7631682">
        <ele>1289.62</ele>
        <time>2020-07-21T12:16:10.000Z</time>
      </trkpt>
      <trkpt lat="42.9979097" lon="-5.7631695">
        <ele>1289.62</ele>
        <time>2020-07-21T12:16:11.000Z</time>
      </trkpt>
      <trkpt lat="42.9979108" lon="-5.7631717">
        <ele>1289.62</ele>
        <time>2020-07-21T12:16:12.000Z</time>
      </trkpt>
      <trkpt lat="42.9979133" lon="-5.7631768">
        <ele>1289.62</ele>
        <time>2020-07-21T12:16:13.000Z</time>
      </trkpt>
      <trkpt lat="42.9979212" lon="-5.7631905">
        <ele>1289.62</ele>
        <time>2020-07-21T12:16:14.000Z</time>
      </trkpt>
      <trkpt lat="42.9979332" lon="-5.7632137">
        <ele>1289.62</ele>
        <time>2020-07-21T12:16:15.000Z</time>
      </trkpt>
      <trkpt lat="42.9979488" lon="-5.7632443">
        <ele>1289.62</ele>
        <time>2020-07-21T12:16:16.000Z</time>
      </trkpt>
      <trkpt lat="42.9979635" lon="-5.7632742">
        <ele>1289.62</ele>
        <time>2020-07-21T12:16:17.000Z</time>
      </trkpt>
      <trkpt lat="42.9979745" lon="-5.7632995">
        <ele>1289.78</ele>
        <time>2020-07-21T12:16:18.000Z</time>
      </trkpt>
      <trkpt lat="42.9979798" lon="-5.763317">
        <ele>1289.78</ele>
        <time>2020-07-21T12:16:19.000Z</time>
      </trkpt>
      <trkpt lat="42.997983" lon="-5.7633327">
        <ele>1289.78</ele>
        <time>2020-07-21T12:16:20.000Z</time>
      </trkpt>
      <trkpt lat="42.997986" lon="-5.7633483">
        <ele>1289.78</ele>
        <time>2020-07-21T12:16:21.000Z</time>
      </trkpt>
      <trkpt lat="42.99799" lon="-5.7633648">
        <ele>1289.78</ele>
        <time>2020-07-21T12:16:22.000Z</time>
      </trkpt>
      <trkpt lat="42.9979928" lon="-5.7633803">
        <ele>1289.78</ele>
        <time>2020-07-21T12:16:23.000Z</time>
      </trkpt>
      <trkpt lat="42.9979932" lon="-5.7633927">
        <ele>1289.78</ele>
        <time>2020-07-21T12:16:24.000Z</time>
      </trkpt>
      <trkpt lat="42.9979927" lon="-5.7634023">
        <ele>1289.78</ele>
        <time>2020-07-21T12:16:25.000Z</time>
      </trkpt>
      <trkpt lat="42.9979925" lon="-5.7634087">
        <ele>1289.78</ele>
        <time>2020-07-21T12:16:26.000Z</time>
      </trkpt>
      <trkpt lat="42.9979942" lon="-5.7634145">
        <ele>1289.78</ele>
        <time>2020-07-21T12:16:27.000Z</time>
      </trkpt>
      <trkpt lat="42.9979957" lon="-5.7634202">
        <ele>1289.78</ele>
        <time>2020-07-21T12:16:28.000Z</time>
      </trkpt>
      <trkpt lat="42.9979962" lon="-5.7634242">
        <ele>1289.78</ele>
        <time>2020-07-21T12:16:29.000Z</time>
      </trkpt>
      <trkpt lat="42.9979962" lon="-5.7634253">
        <ele>1289.78</ele>
        <time>2020-07-21T12:16:30.000Z</time>
      </trkpt>
      <trkpt lat="42.997996" lon="-5.7634242">
        <ele>1289.78</ele>
        <time>2020-07-21T12:16:31.000Z</time>
      </trkpt>
      <trkpt lat="42.9979957" lon="-5.7634227">
        <ele>1289.78</ele>
        <time>2020-07-21T12:16:32.000Z</time>
      </trkpt>
      <trkpt lat="42.9979953" lon="-5.7634215">
        <ele>1289.78</ele>
        <time>2020-07-21T12:16:33.000Z</time>
      </trkpt>
      <trkpt lat="42.9979952" lon="-5.76342">
        <ele>1289.78</ele>
        <time>2020-07-21T12:16:34.000Z</time>
      </trkpt>
      <trkpt lat="42.9979945" lon="-5.7634183">
        <ele>1289.78</ele>
        <time>2020-07-21T12:16:35.000Z</time>
      </trkpt>
      <trkpt lat="42.9979937" lon="-5.7634172">
        <ele>1289.78</ele>
        <time>2020-07-21T12:16:36.000Z</time>
      </trkpt>
      <trkpt lat="42.997993" lon="-5.7634153">
        <ele>1289.78</ele>
        <time>2020-07-21T12:16:37.000Z</time>
      </trkpt>
      <trkpt lat="42.9979925" lon="-5.7634137">
        <ele>1289.78</ele>
        <time>2020-07-21T12:16:38.000Z</time>
      </trkpt>
      <trkpt lat="42.9979918" lon="-5.763412">
        <ele>1289.78</ele>
        <time>2020-07-21T12:16:39.000Z</time>
      </trkpt>
      <trkpt lat="42.9979905" lon="-5.7634113">
        <ele>1289.78</ele>
        <time>2020-07-21T12:16:40.000Z</time>
      </trkpt>
      <trkpt lat="42.9979895" lon="-5.763411">
        <ele>1289.78</ele>
        <time>2020-07-21T12:16:41.000Z</time>
      </trkpt>
      <trkpt lat="42.9979883" lon="-5.7634123">
        <ele>1289.78</ele>
        <time>2020-07-21T12:16:42.000Z</time>
      </trkpt>
      <trkpt lat="42.9979875" lon="-5.7634143">
        <ele>1289.78</ele>
        <time>2020-07-21T12:16:43.000Z</time>
      </trkpt>
      <trkpt lat="42.9979868" lon="-5.763417">
        <ele>1289.93</ele>
        <time>2020-07-21T12:16:44.000Z</time>
      </trkpt>
      <trkpt lat="42.9979875" lon="-5.7634188">
        <ele>1289.93</ele>
        <time>2020-07-21T12:16:45.000Z</time>
      </trkpt>
      <trkpt lat="42.9979862" lon="-5.763421">
        <ele>1289.93</ele>
        <time>2020-07-21T12:16:46.000Z</time>
      </trkpt>
      <trkpt lat="42.9979853" lon="-5.7634247">
        <ele>1289.93</ele>
        <time>2020-07-21T12:16:47.000Z</time>
      </trkpt>
      <trkpt lat="42.997983" lon="-5.7634317">
        <ele>1289.93</ele>
        <time>2020-07-21T12:16:48.000Z</time>
      </trkpt>
      <trkpt lat="42.997983" lon="-5.7634432">
        <ele>1289.93</ele>
        <time>2020-07-21T12:16:49.000Z</time>
      </trkpt>
      <trkpt lat="42.9979817" lon="-5.7634577">
        <ele>1289.93</ele>
        <time>2020-07-21T12:16:50.000Z</time>
      </trkpt>
      <trkpt lat="42.9979793" lon="-5.7634733">
        <ele>1289.93</ele>
        <time>2020-07-21T12:16:51.000Z</time>
      </trkpt>
      <trkpt lat="42.9979752" lon="-5.7634882">
        <ele>1289.78</ele>
        <time>2020-07-21T12:16:52.000Z</time>
      </trkpt>
      <trkpt lat="42.997971" lon="-5.7635032">
        <ele>1289.78</ele>
        <time>2020-07-21T12:16:53.000Z</time>
      </trkpt>
      <trkpt lat="42.9979695" lon="-5.7635138">
        <ele>1289.78</ele>
        <time>2020-07-21T12:16:54.000Z</time>
      </trkpt>
      <trkpt lat="42.9979693" lon="-5.7635203">
        <ele>1289.78</ele>
        <time>2020-07-21T12:16:55.000Z</time>
      </trkpt>
      <trkpt lat="42.99797" lon="-5.7635237">
        <ele>1289.78</ele>
        <time>2020-07-21T12:16:56.000Z</time>
      </trkpt>
      <trkpt lat="42.997969" lon="-5.7635275">
        <ele>1289.78</ele>
        <time>2020-07-21T12:16:57.000Z</time>
      </trkpt>
      <trkpt lat="42.9979675" lon="-5.7635328">
        <ele>1289.78</ele>
        <time>2020-07-21T12:16:58.000Z</time>
      </trkpt>
      <trkpt lat="42.9979677" lon="-5.7635395">
        <ele>1289.78</ele>
        <time>2020-07-21T12:16:59.000Z</time>
      </trkpt>
      <trkpt lat="42.9979665" lon="-5.7635488">
        <ele>1289.62</ele>
        <time>2020-07-21T12:17:00.000Z</time>
      </trkpt>
      <trkpt lat="42.9979642" lon="-5.7635622">
        <ele>1289.62</ele>
        <time>2020-07-21T12:17:01.000Z</time>
      </trkpt>
      <trkpt lat="42.9979598" lon="-5.7635765">
        <ele>1289.62</ele>
        <time>2020-07-21T12:17:02.000Z</time>
      </trkpt>
      <trkpt lat="42.9979563" lon="-5.7635918">
        <ele>1289.62</ele>
        <time>2020-07-21T12:17:03.000Z</time>
      </trkpt>
      <trkpt lat="42.997954" lon="-5.7636068">
        <ele>1289.62</ele>
        <time>2020-07-21T12:17:04.000Z</time>
      </trkpt>
      <trkpt lat="42.997952" lon="-5.7636237">
        <ele>1289.62</ele>
        <time>2020-07-21T12:17:05.000Z</time>
      </trkpt>
      <trkpt lat="42.9979503" lon="-5.7636413">
        <ele>1289.47</ele>
        <time>2020-07-21T12:17:06.000Z</time>
      </trkpt>
      <trkpt lat="42.9979485" lon="-5.7636592">
        <ele>1289.47</ele>
        <time>2020-07-21T12:17:07.000Z</time>
      </trkpt>
      <trkpt lat="42.9979465" lon="-5.7636758">
        <ele>1289.47</ele>
        <time>2020-07-21T12:17:08.000Z</time>
      </trkpt>
      <trkpt lat="42.9979447" lon="-5.7636915">
        <ele>1289.47</ele>
        <time>2020-07-21T12:17:09.000Z</time>
      </trkpt>
      <trkpt lat="42.9979435" lon="-5.7637068">
        <ele>1289.32</ele>
        <time>2020-07-21T12:17:10.000Z</time>
      </trkpt>
      <trkpt lat="42.9979423" lon="-5.7637238">
        <ele>1289.32</ele>
        <time>2020-07-21T12:17:11.000Z</time>
      </trkpt>
      <trkpt lat="42.9979403" lon="-5.7637415">
        <ele>1289.32</ele>
        <time>2020-07-21T12:17:12.000Z</time>
      </trkpt>
      <trkpt lat="42.997937" lon="-5.7637585">
        <ele>1289.32</ele>
        <time>2020-07-21T12:17:13.000Z</time>
      </trkpt>
      <trkpt lat="42.9979327" lon="-5.7637735">
        <ele>1289.32</ele>
        <time>2020-07-21T12:17:14.000Z</time>
      </trkpt>
      <trkpt lat="42.9979282" lon="-5.7637873">
        <ele>1289.32</ele>
        <time>2020-07-21T12:17:15.000Z</time>
      </trkpt>
      <trkpt lat="42.9979233" lon="-5.7638047">
        <ele>1289.17</ele>
        <time>2020-07-21T12:17:16.000Z</time>
      </trkpt>
      <trkpt lat="42.9979183" lon="-5.7638237">
        <ele>1289.17</ele>
        <time>2020-07-21T12:17:17.000Z</time>
      </trkpt>
      <trkpt lat="42.9979135" lon="-5.7638437">
        <ele>1289.17</ele>
        <time>2020-07-21T12:17:18.000Z</time>
      </trkpt>
      <trkpt lat="42.9979088" lon="-5.7638603">
        <ele>1289.17</ele>
        <time>2020-07-21T12:17:19.000Z</time>
      </trkpt>
      <trkpt lat="42.9979045" lon="-5.7638767">
        <ele>1289.17</ele>
        <time>2020-07-21T12:17:20.000Z</time>
      </trkpt>
      <trkpt lat="42.9978997" lon="-5.7638917">
        <ele>1289.17</ele>
        <time>2020-07-21T12:17:21.000Z</time>
      </trkpt>
      <trkpt lat="42.9978945" lon="-5.7639067">
        <ele>1289.17</ele>
        <time>2020-07-21T12:17:22.000Z</time>
      </trkpt>
      <trkpt lat="42.9978908" lon="-5.7639198">
        <ele>1289.17</ele>
        <time>2020-07-21T12:17:23.000Z</time>
      </trkpt>
      <trkpt lat="42.9978915" lon="-5.7639272">
        <ele>1289.17</ele>
        <time>2020-07-21T12:17:24.000Z</time>
      </trkpt>
      <trkpt lat="42.9978948" lon="-5.76393">
        <ele>1289.17</ele>
        <time>2020-07-21T12:17:25.000Z</time>
      </trkpt>
      <trkpt lat="42.9978992" lon="-5.7639287">
        <ele>1289.02</ele>
        <time>2020-07-21T12:17:26.000Z</time>
      </trkpt>
      <trkpt lat="42.9979007" lon="-5.7639273">
        <ele>1289.02</ele>
        <time>2020-07-21T12:17:27.000Z</time>
      </trkpt>
      <trkpt lat="42.9979007" lon="-5.7639252">
        <ele>1289.02</ele>
        <time>2020-07-21T12:17:28.000Z</time>
      </trkpt>
      <trkpt lat="42.9979002" lon="-5.763924">
        <ele>1289.02</ele>
        <time>2020-07-21T12:17:29.000Z</time>
      </trkpt>
      <trkpt lat="42.9978998" lon="-5.7639243">
        <ele>1289.02</ele>
        <time>2020-07-21T12:17:30.000Z</time>
      </trkpt>
      <trkpt lat="42.9978998" lon="-5.763925">
        <ele>1289.02</ele>
        <time>2020-07-21T12:17:31.000Z</time>
      </trkpt>
      <trkpt lat="42.9978998" lon="-5.7639255">
        <ele>1288.86</ele>
        <time>2020-07-21T12:17:32.000Z</time>
      </trkpt>
      <trkpt lat="42.9978998" lon="-5.7639255">
        <ele>1288.86</ele>
        <time>2020-07-21T12:17:33.000Z</time>
      </trkpt>
      <trkpt lat="42.9979003" lon="-5.7639253">
        <ele>1288.86</ele>
        <time>2020-07-21T12:17:34.000Z</time>
      </trkpt>
      <trkpt lat="42.9979003" lon="-5.7639252">
        <ele>1288.86</ele>
        <time>2020-07-21T12:17:35.000Z</time>
      </trkpt>
      <trkpt lat="42.997901" lon="-5.7639252">
        <ele>1288.86</ele>
        <time>2020-07-21T12:17:36.000Z</time>
      </trkpt>
      <trkpt lat="42.9979013" lon="-5.7639252">
        <ele>1288.86</ele>
        <time>2020-07-21T12:17:37.000Z</time>
      </trkpt>
      <trkpt lat="42.9979015" lon="-5.7639253">
        <ele>1288.86</ele>
        <time>2020-07-21T12:17:38.000Z</time>
      </trkpt>
      <trkpt lat="42.9979003" lon="-5.7639263">
        <ele>1288.86</ele>
        <time>2020-07-21T12:17:39.000Z</time>
      </trkpt>
      <trkpt lat="42.9978992" lon="-5.7639292">
        <ele>1288.71</ele>
        <time>2020-07-21T12:17:40.000Z</time>
      </trkpt>
      <trkpt lat="42.9978983" lon="-5.763932">
        <ele>1288.71</ele>
        <time>2020-07-21T12:17:41.000Z</time>
      </trkpt>
      <trkpt lat="42.997898" lon="-5.7639338">
        <ele>1288.71</ele>
        <time>2020-07-21T12:17:42.000Z</time>
      </trkpt>
      <trkpt lat="42.9978975" lon="-5.7639342">
        <ele>1288.71</ele>
        <time>2020-07-21T12:17:43.000Z</time>
      </trkpt>
      <trkpt lat="42.9978965" lon="-5.7639342">
        <ele>1288.71</ele>
        <time>2020-07-21T12:17:44.000Z</time>
      </trkpt>
      <trkpt lat="42.9978962" lon="-5.7639335">
        <ele>1288.71</ele>
        <time>2020-07-21T12:17:45.000Z</time>
      </trkpt>
      <trkpt lat="42.9978953" lon="-5.7639323">
        <ele>1288.71</ele>
        <time>2020-07-21T12:17:46.000Z</time>
      </trkpt>
      <trkpt lat="42.997894" lon="-5.7639315">
        <ele>1288.71</ele>
        <time>2020-07-21T12:17:47.000Z</time>
      </trkpt>
      <trkpt lat="42.99789" lon="-5.7639355">
        <ele>1288.56</ele>
        <time>2020-07-21T12:17:48.000Z</time>
      </trkpt>
      <trkpt lat="42.9978855" lon="-5.7639433">
        <ele>1288.56</ele>
        <time>2020-07-21T12:17:49.000Z</time>
      </trkpt>
      <trkpt lat="42.9978808" lon="-5.7639537">
        <ele>1288.56</ele>
        <time>2020-07-21T12:17:50.000Z</time>
      </trkpt>
      <trkpt lat="42.9978772" lon="-5.7639632">
        <ele>1288.56</ele>
        <time>2020-07-21T12:17:51.000Z</time>
      </trkpt>
      <trkpt lat="42.9978752" lon="-5.7639708">
        <ele>1288.56</ele>
        <time>2020-07-21T12:17:52.000Z</time>
      </trkpt>
      <trkpt lat="42.9978753" lon="-5.7639708">
        <ele>1288.56</ele>
        <time>2020-07-21T12:17:53.000Z</time>
      </trkpt>
      <trkpt lat="42.9978788" lon="-5.7639645">
        <ele>1288.41</ele>
        <time>2020-07-21T12:17:54.000Z</time>
      </trkpt>
      <trkpt lat="42.9978828" lon="-5.7639523">
        <ele>1288.41</ele>
        <time>2020-07-21T12:17:55.000Z</time>
      </trkpt>
      <trkpt lat="42.9978868" lon="-5.7639435">
        <ele>1288.41</ele>
        <time>2020-07-21T12:17:56.000Z</time>
      </trkpt>
      <trkpt lat="42.9978902" lon="-5.7639377">
        <ele>1288.41</ele>
        <time>2020-07-21T12:17:57.000Z</time>
      </trkpt>
      <trkpt lat="42.9978918" lon="-5.7639352">
        <ele>1288.25</ele>
        <time>2020-07-21T12:17:58.000Z</time>
      </trkpt>
      <trkpt lat="42.9978922" lon="-5.763933">
        <ele>1288.25</ele>
        <time>2020-07-21T12:17:59.000Z</time>
      </trkpt>
      <trkpt lat="42.997892" lon="-5.763931">
        <ele>1288.1</ele>
        <time>2020-07-21T12:18:00.000Z</time>
      </trkpt>
      <trkpt lat="42.9978915" lon="-5.76393">
        <ele>1288.1</ele>
        <time>2020-07-21T12:18:01.000Z</time>
      </trkpt>
      <trkpt lat="42.997888" lon="-5.7639313">
        <ele>1287.95</ele>
        <time>2020-07-21T12:18:02.000Z</time>
      </trkpt>
      <trkpt lat="42.9978833" lon="-5.7639357">
        <ele>1287.95</ele>
        <time>2020-07-21T12:18:03.000Z</time>
      </trkpt>
      <trkpt lat="42.997877" lon="-5.7639443">
        <ele>1287.8</ele>
        <time>2020-07-21T12:18:04.000Z</time>
      </trkpt>
      <trkpt lat="42.9978712" lon="-5.7639567">
        <ele>1287.8</ele>
        <time>2020-07-21T12:18:05.000Z</time>
      </trkpt>
      <trkpt lat="42.9978655" lon="-5.7639712">
        <ele>1287.64</ele>
        <time>2020-07-21T12:18:06.000Z</time>
      </trkpt>
      <trkpt lat="42.9978608" lon="-5.7639845">
        <ele>1287.64</ele>
        <time>2020-07-21T12:18:07.000Z</time>
      </trkpt>
      <trkpt lat="42.9978567" lon="-5.763993">
        <ele>1287.49</ele>
        <time>2020-07-21T12:18:08.000Z</time>
      </trkpt>
      <trkpt lat="42.9978533" lon="-5.7639965">
        <ele>1287.49</ele>
        <time>2020-07-21T12:18:09.000Z</time>
      </trkpt>
      <trkpt lat="42.997852" lon="-5.763996">
        <ele>1287.34</ele>
        <time>2020-07-21T12:18:10.000Z</time>
      </trkpt>
      <trkpt lat="42.9978522" lon="-5.7639952">
        <ele>1287.34</ele>
        <time>2020-07-21T12:18:11.000Z</time>
      </trkpt>
      <trkpt lat="42.9978513" lon="-5.763996">
        <ele>1287.19</ele>
        <time>2020-07-21T12:18:12.000Z</time>
      </trkpt>
      <trkpt lat="42.9978493" lon="-5.764001">
        <ele>1287.19</ele>
        <time>2020-07-21T12:18:13.000Z</time>
      </trkpt>
      <trkpt lat="42.9978442" lon="-5.7640108">
        <ele>1286.88</ele>
        <time>2020-07-21T12:18:14.000Z</time>
      </trkpt>
      <trkpt lat="42.9978378" lon="-5.7640237">
        <ele>1286.88</ele>
        <time>2020-07-21T12:18:15.000Z</time>
      </trkpt>
      <trkpt lat="42.9978302" lon="-5.7640372">
        <ele>1286.73</ele>
        <time>2020-07-21T12:18:16.000Z</time>
      </trkpt>
      <trkpt lat="42.9978228" lon="-5.7640497">
        <ele>1286.73</ele>
        <time>2020-07-21T12:18:17.000Z</time>
      </trkpt>
      <trkpt lat="42.9978157" lon="-5.7640617">
        <ele>1286.58</ele>
        <time>2020-07-21T12:18:18.000Z</time>
      </trkpt>
      <trkpt lat="42.9978078" lon="-5.7640732">
        <ele>1286.58</ele>
        <time>2020-07-21T12:18:19.000Z</time>
      </trkpt>
      <trkpt lat="42.9978012" lon="-5.764084">
        <ele>1286.27</ele>
        <time>2020-07-21T12:18:20.000Z</time>
      </trkpt>
      <trkpt lat="42.9977952" lon="-5.7640933">
        <ele>1286.27</ele>
        <time>2020-07-21T12:18:21.000Z</time>
      </trkpt>
      <trkpt lat="42.9977912" lon="-5.7640993">
        <ele>1286.12</ele>
        <time>2020-07-21T12:18:22.000Z</time>
      </trkpt>
      <trkpt lat="42.9977875" lon="-5.764103">
        <ele>1286.12</ele>
        <time>2020-07-21T12:18:23.000Z</time>
      </trkpt>
      <trkpt lat="42.997786" lon="-5.7641045">
        <ele>1285.81</ele>
        <time>2020-07-21T12:18:24.000Z</time>
      </trkpt>
      <trkpt lat="42.9977835" lon="-5.7641068">
        <ele>1285.81</ele>
        <time>2020-07-21T12:18:25.000Z</time>
      </trkpt>
      <trkpt lat="42.9977833" lon="-5.7641108">
        <ele>1285.66</ele>
        <time>2020-07-21T12:18:26.000Z</time>
      </trkpt>
      <trkpt lat="42.9977817" lon="-5.7641197">
        <ele>1285.66</ele>
        <time>2020-07-21T12:18:27.000Z</time>
      </trkpt>
      <trkpt lat="42.9977805" lon="-5.7641285">
        <ele>1285.36</ele>
        <time>2020-07-21T12:18:28.000Z</time>
      </trkpt>
      <trkpt lat="42.997779" lon="-5.764134">
        <ele>1285.36</ele>
        <time>2020-07-21T12:18:29.000Z</time>
      </trkpt>
      <trkpt lat="42.9977772" lon="-5.7641367">
        <ele>1285.05</ele>
        <time>2020-07-21T12:18:30.000Z</time>
      </trkpt>
      <trkpt lat="42.9977735" lon="-5.7641433">
        <ele>1285.05</ele>
        <time>2020-07-21T12:18:31.000Z</time>
      </trkpt>
      <trkpt lat="42.9977678" lon="-5.764156">
        <ele>1284.75</ele>
        <time>2020-07-21T12:18:32.000Z</time>
      </trkpt>
      <trkpt lat="42.997764" lon="-5.764171">
        <ele>1284.75</ele>
        <time>2020-07-21T12:18:33.000Z</time>
      </trkpt>
      <trkpt lat="42.9977648" lon="-5.764186">
        <ele>1284.44</ele>
        <time>2020-07-21T12:18:34.000Z</time>
      </trkpt>
      <trkpt lat="42.9977657" lon="-5.7642022">
        <ele>1284.44</ele>
        <time>2020-07-21T12:18:35.000Z</time>
      </trkpt>
      <trkpt lat="42.997764" lon="-5.7642173">
        <ele>1284.14</ele>
        <time>2020-07-21T12:18:36.000Z</time>
      </trkpt>
      <trkpt lat="42.99776" lon="-5.7642322">
        <ele>1284.14</ele>
        <time>2020-07-21T12:18:37.000Z</time>
      </trkpt>
      <trkpt lat="42.9977562" lon="-5.764247">
        <ele>1283.83</ele>
        <time>2020-07-21T12:18:38.000Z</time>
      </trkpt>
      <trkpt lat="42.997752" lon="-5.7642638">
        <ele>1283.83</ele>
        <time>2020-07-21T12:18:39.000Z</time>
      </trkpt>
      <trkpt lat="42.9977483" lon="-5.7642813">
        <ele>1283.53</ele>
        <time>2020-07-21T12:18:40.000Z</time>
      </trkpt>
      <trkpt lat="42.9977448" lon="-5.7642993">
        <ele>1283.53</ele>
        <time>2020-07-21T12:18:41.000Z</time>
      </trkpt>
      <trkpt lat="42.997742" lon="-5.7643173">
        <ele>1283.07</ele>
        <time>2020-07-21T12:18:42.000Z</time>
      </trkpt>
      <trkpt lat="42.9977377" lon="-5.7643362">
        <ele>1283.07</ele>
        <time>2020-07-21T12:18:43.000Z</time>
      </trkpt>
      <trkpt lat="42.9977322" lon="-5.764354">
        <ele>1282.61</ele>
        <time>2020-07-21T12:18:44.000Z</time>
      </trkpt>
      <trkpt lat="42.9977258" lon="-5.7643708">
        <ele>1282.61</ele>
        <time>2020-07-21T12:18:45.000Z</time>
      </trkpt>
      <trkpt lat="42.9977195" lon="-5.7643863">
        <ele>1282.31</ele>
        <time>2020-07-21T12:18:46.000Z</time>
      </trkpt>
      <trkpt lat="42.9977137" lon="-5.7644043">
        <ele>1282.31</ele>
        <time>2020-07-21T12:18:47.000Z</time>
      </trkpt>
      <trkpt lat="42.9977085" lon="-5.76442">
        <ele>1281.85</ele>
        <time>2020-07-21T12:18:48.000Z</time>
      </trkpt>
      <trkpt lat="42.9977045" lon="-5.7644307">
        <ele>1281.85</ele>
        <time>2020-07-21T12:18:49.000Z</time>
      </trkpt>
      <trkpt lat="42.9977007" lon="-5.7644365">
        <ele>1281.4</ele>
        <time>2020-07-21T12:18:50.000Z</time>
      </trkpt>
      <trkpt lat="42.997697" lon="-5.7644455">
        <ele>1281.4</ele>
        <time>2020-07-21T12:18:51.000Z</time>
      </trkpt>
      <trkpt lat="42.9976923" lon="-5.7644593">
        <ele>1281.09</ele>
        <time>2020-07-21T12:18:52.000Z</time>
      </trkpt>
      <trkpt lat="42.9976867" lon="-5.7644758">
        <ele>1281.09</ele>
        <time>2020-07-21T12:18:53.000Z</time>
      </trkpt>
      <trkpt lat="42.9976803" lon="-5.7644935">
        <ele>1280.63</ele>
        <time>2020-07-21T12:18:54.000Z</time>
      </trkpt>
      <trkpt lat="42.9976727" lon="-5.764511">
        <ele>1280.63</ele>
        <time>2020-07-21T12:18:55.000Z</time>
      </trkpt>
      <trkpt lat="42.9976638" lon="-5.7645288">
        <ele>1280.18</ele>
        <time>2020-07-21T12:18:56.000Z</time>
      </trkpt>
      <trkpt lat="42.9976552" lon="-5.764545">
        <ele>1280.18</ele>
        <time>2020-07-21T12:18:57.000Z</time>
      </trkpt>
      <trkpt lat="42.9976465" lon="-5.7645593">
        <ele>1279.72</ele>
        <time>2020-07-21T12:18:58.000Z</time>
      </trkpt>
      <trkpt lat="42.9976378" lon="-5.764574">
        <ele>1279.72</ele>
        <time>2020-07-21T12:18:59.000Z</time>
      </trkpt>
      <trkpt lat="42.9976287" lon="-5.7645847">
        <ele>1279.26</ele>
        <time>2020-07-21T12:19:00.000Z</time>
      </trkpt>
      <trkpt lat="42.9976197" lon="-5.7645965">
        <ele>1279.26</ele>
        <time>2020-07-21T12:19:01.000Z</time>
      </trkpt>
      <trkpt lat="42.9976097" lon="-5.7646072">
        <ele>1278.65</ele>
        <time>2020-07-21T12:19:02.000Z</time>
      </trkpt>
      <trkpt lat="42.9975982" lon="-5.764622">
        <ele>1278.65</ele>
        <time>2020-07-21T12:19:03.000Z</time>
      </trkpt>
      <trkpt lat="42.9975865" lon="-5.7646372">
        <ele>1278.19</ele>
        <time>2020-07-21T12:19:04.000Z</time>
      </trkpt>
      <trkpt lat="42.9975758" lon="-5.7646538">
        <ele>1278.19</ele>
        <time>2020-07-21T12:19:05.000Z</time>
      </trkpt>
      <trkpt lat="42.9975677" lon="-5.7646722">
        <ele>1277.74</ele>
        <time>2020-07-21T12:19:06.000Z</time>
      </trkpt>
      <trkpt lat="42.9975618" lon="-5.764695">
        <ele>1277.74</ele>
        <time>2020-07-21T12:19:07.000Z</time>
      </trkpt>
      <trkpt lat="42.9975588" lon="-5.7647207">
        <ele>1277.28</ele>
        <time>2020-07-21T12:19:08.000Z</time>
      </trkpt>
      <trkpt lat="42.9975565" lon="-5.7647487">
        <ele>1277.28</ele>
        <time>2020-07-21T12:19:09.000Z</time>
      </trkpt>
      <trkpt lat="42.9975555" lon="-5.7647737">
        <ele>1276.67</ele>
        <time>2020-07-21T12:19:10.000Z</time>
      </trkpt>
      <trkpt lat="42.9975557" lon="-5.7647975">
        <ele>1276.67</ele>
        <time>2020-07-21T12:19:11.000Z</time>
      </trkpt>
      <trkpt lat="42.9975563" lon="-5.764819">
        <ele>1276.21</ele>
        <time>2020-07-21T12:19:12.000Z</time>
      </trkpt>
      <trkpt lat="42.9975565" lon="-5.7648413">
        <ele>1276.21</ele>
        <time>2020-07-21T12:19:13.000Z</time>
      </trkpt>
      <trkpt lat="42.9975577" lon="-5.7648625">
        <ele>1275.76</ele>
        <time>2020-07-21T12:19:14.000Z</time>
      </trkpt>
      <trkpt lat="42.9975595" lon="-5.7648842">
        <ele>1275.76</ele>
        <time>2020-07-21T12:19:15.000Z</time>
      </trkpt>
      <trkpt lat="42.9975617" lon="-5.7649082">
        <ele>1275.15</ele>
        <time>2020-07-21T12:19:16.000Z</time>
      </trkpt>
      <trkpt lat="42.997564" lon="-5.7649327">
        <ele>1275.15</ele>
        <time>2020-07-21T12:19:17.000Z</time>
      </trkpt>
      <trkpt lat="42.9975672" lon="-5.7649573">
        <ele>1274.69</ele>
        <time>2020-07-21T12:19:18.000Z</time>
      </trkpt>
      <trkpt lat="42.9975708" lon="-5.7649797">
        <ele>1274.69</ele>
        <time>2020-07-21T12:19:19.000Z</time>
      </trkpt>
      <trkpt lat="42.997574" lon="-5.7650032">
        <ele>1274.08</ele>
        <time>2020-07-21T12:19:20.000Z</time>
      </trkpt>
      <trkpt lat="42.997578" lon="-5.7650262">
        <ele>1274.08</ele>
        <time>2020-07-21T12:19:21.000Z</time>
      </trkpt>
      <trkpt lat="42.997583" lon="-5.7650492">
        <ele>1273.62</ele>
        <time>2020-07-21T12:19:22.000Z</time>
      </trkpt>
      <trkpt lat="42.9975888" lon="-5.7650703">
        <ele>1273.62</ele>
        <time>2020-07-21T12:19:23.000Z</time>
      </trkpt>
      <trkpt lat="42.9975955" lon="-5.765091">
        <ele>1273.17</ele>
        <time>2020-07-21T12:19:24.000Z</time>
      </trkpt>
      <trkpt lat="42.9976015" lon="-5.7651123">
        <ele>1273.17</ele>
        <time>2020-07-21T12:19:25.000Z</time>
      </trkpt>
      <trkpt lat="42.9976073" lon="-5.7651357">
        <ele>1272.56</ele>
        <time>2020-07-21T12:19:26.000Z</time>
      </trkpt>
      <trkpt lat="42.9976143" lon="-5.7651578">
        <ele>1272.56</ele>
        <time>2020-07-21T12:19:27.000Z</time>
      </trkpt>
      <trkpt lat="42.9976208" lon="-5.7651787">
        <ele>1272.1</ele>
        <time>2020-07-21T12:19:28.000Z</time>
      </trkpt>
      <trkpt lat="42.9976275" lon="-5.7651962">
        <ele>1272.1</ele>
        <time>2020-07-21T12:19:29.000Z</time>
      </trkpt>
      <trkpt lat="42.9976305" lon="-5.7652115">
        <ele>1271.49</ele>
        <time>2020-07-21T12:19:30.000Z</time>
      </trkpt>
      <trkpt lat="42.9976347" lon="-5.7652285">
        <ele>1271.49</ele>
        <time>2020-07-21T12:19:31.000Z</time>
      </trkpt>
      <trkpt lat="42.9976383" lon="-5.7652472">
        <ele>1271.03</ele>
        <time>2020-07-21T12:19:32.000Z</time>
      </trkpt>
      <trkpt lat="42.9976432" lon="-5.7652687">
        <ele>1271.03</ele>
        <time>2020-07-21T12:19:33.000Z</time>
      </trkpt>
      <trkpt lat="42.9976465" lon="-5.7652887">
        <ele>1270.42</ele>
        <time>2020-07-21T12:19:34.000Z</time>
      </trkpt>
      <trkpt lat="42.9976507" lon="-5.765306">
        <ele>1270.42</ele>
        <time>2020-07-21T12:19:35.000Z</time>
      </trkpt>
      <trkpt lat="42.9976545" lon="-5.7653223">
        <ele>1269.96</ele>
        <time>2020-07-21T12:19:36.000Z</time>
      </trkpt>
      <trkpt lat="42.997659" lon="-5.7653385">
        <ele>1269.96</ele>
        <time>2020-07-21T12:19:37.000Z</time>
      </trkpt>
      <trkpt lat="42.997662" lon="-5.7653557">
        <ele>1269.51</ele>
        <time>2020-07-21T12:19:38.000Z</time>
      </trkpt>
      <trkpt lat="42.9976642" lon="-5.7653732">
        <ele>1269.51</ele>
        <time>2020-07-21T12:19:39.000Z</time>
      </trkpt>
      <trkpt lat="42.9976675" lon="-5.7653907">
        <ele>1269.05</ele>
        <time>2020-07-21T12:19:40.000Z</time>
      </trkpt>
      <trkpt lat="42.9976707" lon="-5.765408">
        <ele>1269.05</ele>
        <time>2020-07-21T12:19:41.000Z</time>
      </trkpt>
      <trkpt lat="42.997676" lon="-5.7654245">
        <ele>1268.59</ele>
        <time>2020-07-21T12:19:42.000Z</time>
      </trkpt>
      <trkpt lat="42.9976793" lon="-5.7654427">
        <ele>1268.59</ele>
        <time>2020-07-21T12:19:43.000Z</time>
      </trkpt>
      <trkpt lat="42.9976822" lon="-5.7654632">
        <ele>1268.14</ele>
        <time>2020-07-21T12:19:44.000Z</time>
      </trkpt>
      <trkpt lat="42.9976838" lon="-5.7654842">
        <ele>1268.14</ele>
        <time>2020-07-21T12:19:45.000Z</time>
      </trkpt>
      <trkpt lat="42.9976868" lon="-5.7655053">
        <ele>1267.83</ele>
        <time>2020-07-21T12:19:46.000Z</time>
      </trkpt>
      <trkpt lat="42.9976912" lon="-5.7655248">
        <ele>1267.83</ele>
        <time>2020-07-21T12:19:47.000Z</time>
      </trkpt>
      <trkpt lat="42.9976953" lon="-5.765546">
        <ele>1267.37</ele>
        <time>2020-07-21T12:19:48.000Z</time>
      </trkpt>
      <trkpt lat="42.9976987" lon="-5.7655647">
        <ele>1267.37</ele>
        <time>2020-07-21T12:19:49.000Z</time>
      </trkpt>
      <trkpt lat="42.997702" lon="-5.7655845">
        <ele>1266.92</ele>
        <time>2020-07-21T12:19:50.000Z</time>
      </trkpt>
      <trkpt lat="42.9977055" lon="-5.765604">
        <ele>1266.92</ele>
        <time>2020-07-21T12:19:51.000Z</time>
      </trkpt>
      <trkpt lat="42.9977083" lon="-5.7656245">
        <ele>1266.61</ele>
        <time>2020-07-21T12:19:52.000Z</time>
      </trkpt>
      <trkpt lat="42.9977113" lon="-5.7656435">
        <ele>1266.61</ele>
        <time>2020-07-21T12:19:53.000Z</time>
      </trkpt>
      <trkpt lat="42.9977153" lon="-5.7656612">
        <ele>1266.31</ele>
        <time>2020-07-21T12:19:54.000Z</time>
      </trkpt>
      <trkpt lat="42.9977207" lon="-5.7656783">
        <ele>1266.31</ele>
        <time>2020-07-21T12:19:55.000Z</time>
      </trkpt>
      <trkpt lat="42.9977262" lon="-5.7656975">
        <ele>1265.85</ele>
        <time>2020-07-21T12:19:56.000Z</time>
      </trkpt>
      <trkpt lat="42.9977308" lon="-5.7657182">
        <ele>1265.85</ele>
        <time>2020-07-21T12:19:57.000Z</time>
      </trkpt>
      <trkpt lat="42.9977355" lon="-5.765739">
        <ele>1265.55</ele>
        <time>2020-07-21T12:19:58.000Z</time>
      </trkpt>
      <trkpt lat="42.9977405" lon="-5.7657573">
        <ele>1265.55</ele>
        <time>2020-07-21T12:19:59.000Z</time>
      </trkpt>
      <trkpt lat="42.9977453" lon="-5.7657743">
        <ele>1265.24</ele>
        <time>2020-07-21T12:20:00.000Z</time>
      </trkpt>
      <trkpt lat="42.9977518" lon="-5.7657895">
        <ele>1265.24</ele>
        <time>2020-07-21T12:20:01.000Z</time>
      </trkpt>
      <trkpt lat="42.9977577" lon="-5.7658067">
        <ele>1264.94</ele>
        <time>2020-07-21T12:20:02.000Z</time>
      </trkpt>
      <trkpt lat="42.9977648" lon="-5.7658238">
        <ele>1264.94</ele>
        <time>2020-07-21T12:20:03.000Z</time>
      </trkpt>
      <trkpt lat="42.9977697" lon="-5.7658423">
        <ele>1264.63</ele>
        <time>2020-07-21T12:20:04.000Z</time>
      </trkpt>
      <trkpt lat="42.997774" lon="-5.7658597">
        <ele>1264.63</ele>
        <time>2020-07-21T12:20:05.000Z</time>
      </trkpt>
      <trkpt lat="42.9977767" lon="-5.765877">
        <ele>1264.33</ele>
        <time>2020-07-21T12:20:06.000Z</time>
      </trkpt>
      <trkpt lat="42.9977792" lon="-5.7658948">
        <ele>1264.33</ele>
        <time>2020-07-21T12:20:07.000Z</time>
      </trkpt>
      <trkpt lat="42.9977825" lon="-5.7659125">
        <ele>1264.02</ele>
        <time>2020-07-21T12:20:08.000Z</time>
      </trkpt>
      <trkpt lat="42.9977865" lon="-5.7659307">
        <ele>1264.02</ele>
        <time>2020-07-21T12:20:09.000Z</time>
      </trkpt>
      <trkpt lat="42.9977912" lon="-5.7659485">
        <ele>1263.72</ele>
        <time>2020-07-21T12:20:10.000Z</time>
      </trkpt>
      <trkpt lat="42.9977958" lon="-5.7659665">
        <ele>1263.72</ele>
        <time>2020-07-21T12:20:11.000Z</time>
      </trkpt>
      <trkpt lat="42.9978007" lon="-5.7659838">
        <ele>1263.41</ele>
        <time>2020-07-21T12:20:12.000Z</time>
      </trkpt>
      <trkpt lat="42.9978052" lon="-5.7660015">
        <ele>1263.41</ele>
        <time>2020-07-21T12:20:13.000Z</time>
      </trkpt>
      <trkpt lat="42.9978098" lon="-5.7660198">
        <ele>1263.11</ele>
        <time>2020-07-21T12:20:14.000Z</time>
      </trkpt>
      <trkpt lat="42.9978152" lon="-5.7660393">
        <ele>1263.11</ele>
        <time>2020-07-21T12:20:15.000Z</time>
      </trkpt>
      <trkpt lat="42.9978203" lon="-5.7660587">
        <ele>1262.8</ele>
        <time>2020-07-21T12:20:16.000Z</time>
      </trkpt>
      <trkpt lat="42.997825" lon="-5.7660783">
        <ele>1262.8</ele>
        <time>2020-07-21T12:20:17.000Z</time>
      </trkpt>
      <trkpt lat="42.9978293" lon="-5.7660975">
        <ele>1262.5</ele>
        <time>2020-07-21T12:20:18.000Z</time>
      </trkpt>
      <trkpt lat="42.9978338" lon="-5.7661173">
        <ele>1262.5</ele>
        <time>2020-07-21T12:20:19.000Z</time>
      </trkpt>
      <trkpt lat="42.9978378" lon="-5.7661367">
        <ele>1262.04</ele>
        <time>2020-07-21T12:20:20.000Z</time>
      </trkpt>
      <trkpt lat="42.9978422" lon="-5.766156">
        <ele>1262.04</ele>
        <time>2020-07-21T12:20:21.000Z</time>
      </trkpt>
      <trkpt lat="42.9978475" lon="-5.7661752">
        <ele>1261.73</ele>
        <time>2020-07-21T12:20:22.000Z</time>
      </trkpt>
      <trkpt lat="42.9978537" lon="-5.7661942">
        <ele>1261.73</ele>
        <time>2020-07-21T12:20:23.000Z</time>
      </trkpt>
      <trkpt lat="42.99786" lon="-5.7662125">
        <ele>1261.43</ele>
        <time>2020-07-21T12:20:24.000Z</time>
      </trkpt>
      <trkpt lat="42.9978662" lon="-5.7662303">
        <ele>1261.43</ele>
        <time>2020-07-21T12:20:25.000Z</time>
      </trkpt>
      <trkpt lat="42.9978722" lon="-5.7662477">
        <ele>1260.97</ele>
        <time>2020-07-21T12:20:26.000Z</time>
      </trkpt>
      <trkpt lat="42.9978778" lon="-5.7662652">
        <ele>1260.97</ele>
        <time>2020-07-21T12:20:27.000Z</time>
      </trkpt>
      <trkpt lat="42.9978822" lon="-5.7662797">
        <ele>1260.67</ele>
        <time>2020-07-21T12:20:28.000Z</time>
      </trkpt>
      <trkpt lat="42.9978848" lon="-5.7662972">
        <ele>1260.67</ele>
        <time>2020-07-21T12:20:29.000Z</time>
      </trkpt>
      <trkpt lat="42.9978863" lon="-5.7663155">
        <ele>1260.21</ele>
        <time>2020-07-21T12:20:30.000Z</time>
      </trkpt>
      <trkpt lat="42.997887" lon="-5.7663365">
        <ele>1260.21</ele>
        <time>2020-07-21T12:20:31.000Z</time>
      </trkpt>
      <trkpt lat="42.9978865" lon="-5.7663543">
        <ele>1259.91</ele>
        <time>2020-07-21T12:20:32.000Z</time>
      </trkpt>
      <trkpt lat="42.9978847" lon="-5.7663687">
        <ele>1259.91</ele>
        <time>2020-07-21T12:20:33.000Z</time>
      </trkpt>
      <trkpt lat="42.9978818" lon="-5.7663813">
        <ele>1259.45</ele>
        <time>2020-07-21T12:20:34.000Z</time>
      </trkpt>
      <trkpt lat="42.9978782" lon="-5.7663918">
        <ele>1259.45</ele>
        <time>2020-07-21T12:20:35.000Z</time>
      </trkpt>
      <trkpt lat="42.9978743" lon="-5.7664023">
        <ele>1259.14</ele>
        <time>2020-07-21T12:20:36.000Z</time>
      </trkpt>
      <trkpt lat="42.9978705" lon="-5.766409">
        <ele>1259.14</ele>
        <time>2020-07-21T12:20:37.000Z</time>
      </trkpt>
      <trkpt lat="42.9978688" lon="-5.7664117">
        <ele>1258.69</ele>
        <time>2020-07-21T12:20:38.000Z</time>
      </trkpt>
      <trkpt lat="42.9978683" lon="-5.766411">
        <ele>1258.69</ele>
        <time>2020-07-21T12:20:39.000Z</time>
      </trkpt>
      <trkpt lat="42.9978683" lon="-5.76641">
        <ele>1258.23</ele>
        <time>2020-07-21T12:20:40.000Z</time>
      </trkpt>
      <trkpt lat="42.9978685" lon="-5.7664093">
        <ele>1258.23</ele>
        <time>2020-07-21T12:20:41.000Z</time>
      </trkpt>
      <trkpt lat="42.9978687" lon="-5.7664095">
        <ele>1257.93</ele>
        <time>2020-07-21T12:20:42.000Z</time>
      </trkpt>
      <trkpt lat="42.9978685" lon="-5.7664092">
        <ele>1257.93</ele>
        <time>2020-07-21T12:20:43.000Z</time>
      </trkpt>
      <trkpt lat="42.9978682" lon="-5.7664088">
        <ele>1257.47</ele>
        <time>2020-07-21T12:20:44.000Z</time>
      </trkpt>
      <trkpt lat="42.9978675" lon="-5.7664082">
        <ele>1257.47</ele>
        <time>2020-07-21T12:20:45.000Z</time>
      </trkpt>
      <trkpt lat="42.997867" lon="-5.7664078">
        <ele>1257.16</ele>
        <time>2020-07-21T12:20:46.000Z</time>
      </trkpt>
      <trkpt lat="42.9978668" lon="-5.7664078">
        <ele>1257.16</ele>
        <time>2020-07-21T12:20:47.000Z</time>
      </trkpt>
      <trkpt lat="42.9978675" lon="-5.7664087">
        <ele>1256.71</ele>
        <time>2020-07-21T12:20:48.000Z</time>
      </trkpt>
      <trkpt lat="42.9978687" lon="-5.7664117">
        <ele>1256.71</ele>
        <time>2020-07-21T12:20:49.000Z</time>
      </trkpt>
      <trkpt lat="42.9978707" lon="-5.7664177">
        <ele>1256.4</ele>
        <time>2020-07-21T12:20:50.000Z</time>
      </trkpt>
      <trkpt lat="42.9978735" lon="-5.7664275">
        <ele>1256.4</ele>
        <time>2020-07-21T12:20:51.000Z</time>
      </trkpt>
      <trkpt lat="42.997877" lon="-5.7664388">
        <ele>1256.1</ele>
        <time>2020-07-21T12:20:52.000Z</time>
      </trkpt>
      <trkpt lat="42.9978805" lon="-5.7664495">
        <ele>1256.1</ele>
        <time>2020-07-21T12:20:53.000Z</time>
      </trkpt>
      <trkpt lat="42.9978832" lon="-5.7664568">
        <ele>1255.64</ele>
        <time>2020-07-21T12:20:54.000Z</time>
      </trkpt>
      <trkpt lat="42.9978847" lon="-5.7664635">
        <ele>1255.64</ele>
        <time>2020-07-21T12:20:55.000Z</time>
      </trkpt>
      <trkpt lat="42.9978855" lon="-5.766472">
        <ele>1255.33</ele>
        <time>2020-07-21T12:20:56.000Z</time>
      </trkpt>
      <trkpt lat="42.997886" lon="-5.7664805">
        <ele>1255.33</ele>
        <time>2020-07-21T12:20:57.000Z</time>
      </trkpt>
      <trkpt lat="42.9978872" lon="-5.7664895">
        <ele>1255.03</ele>
        <time>2020-07-21T12:20:58.000Z</time>
      </trkpt>
      <trkpt lat="42.9978878" lon="-5.7665003">
        <ele>1255.03</ele>
        <time>2020-07-21T12:20:59.000Z</time>
      </trkpt>
      <trkpt lat="42.9978897" lon="-5.7665143">
        <ele>1254.72</ele>
        <time>2020-07-21T12:21:00.000Z</time>
      </trkpt>
      <trkpt lat="42.9978922" lon="-5.7665295">
        <ele>1254.72</ele>
        <time>2020-07-21T12:21:01.000Z</time>
      </trkpt>
      <trkpt lat="42.9978962" lon="-5.7665427">
        <ele>1254.42</ele>
        <time>2020-07-21T12:21:02.000Z</time>
      </trkpt>
      <trkpt lat="42.9979002" lon="-5.7665557">
        <ele>1254.42</ele>
        <time>2020-07-21T12:21:03.000Z</time>
      </trkpt>
      <trkpt lat="42.9979037" lon="-5.7665687">
        <ele>1253.96</ele>
        <time>2020-07-21T12:21:04.000Z</time>
      </trkpt>
      <trkpt lat="42.9979062" lon="-5.7665823">
        <ele>1253.96</ele>
        <time>2020-07-21T12:21:05.000Z</time>
      </trkpt>
      <trkpt lat="42.9979073" lon="-5.7665975">
        <ele>1253.66</ele>
        <time>2020-07-21T12:21:06.000Z</time>
      </trkpt>
      <trkpt lat="42.9979068" lon="-5.766613">
        <ele>1253.66</ele>
        <time>2020-07-21T12:21:07.000Z</time>
      </trkpt>
      <trkpt lat="42.997905" lon="-5.7666282">
        <ele>1253.35</ele>
        <time>2020-07-21T12:21:08.000Z</time>
      </trkpt>
      <trkpt lat="42.9979027" lon="-5.7666427">
        <ele>1253.35</ele>
        <time>2020-07-21T12:21:09.000Z</time>
      </trkpt>
      <trkpt lat="42.9979005" lon="-5.7666578">
        <ele>1253.05</ele>
        <time>2020-07-21T12:21:10.000Z</time>
      </trkpt>
      <trkpt lat="42.9978998" lon="-5.7666743">
        <ele>1253.05</ele>
        <time>2020-07-21T12:21:11.000Z</time>
      </trkpt>
      <trkpt lat="42.9979" lon="-5.766692">
        <ele>1252.74</ele>
        <time>2020-07-21T12:21:12.000Z</time>
      </trkpt>
      <trkpt lat="42.9979" lon="-5.7667098">
        <ele>1252.74</ele>
        <time>2020-07-21T12:21:13.000Z</time>
      </trkpt>
      <trkpt lat="42.9978992" lon="-5.7667273">
        <ele>1252.29</ele>
        <time>2020-07-21T12:21:14.000Z</time>
      </trkpt>
      <trkpt lat="42.9978978" lon="-5.7667432">
        <ele>1252.29</ele>
        <time>2020-07-21T12:21:15.000Z</time>
      </trkpt>
      <trkpt lat="42.9978967" lon="-5.7667575">
        <ele>1251.98</ele>
        <time>2020-07-21T12:21:16.000Z</time>
      </trkpt>
      <trkpt lat="42.9978947" lon="-5.7667705">
        <ele>1251.98</ele>
        <time>2020-07-21T12:21:17.000Z</time>
      </trkpt>
      <trkpt lat="42.9978917" lon="-5.7667847">
        <ele>1251.68</ele>
        <time>2020-07-21T12:21:18.000Z</time>
      </trkpt>
      <trkpt lat="42.9978892" lon="-5.7667998">
        <ele>1251.68</ele>
        <time>2020-07-21T12:21:19.000Z</time>
      </trkpt>
      <trkpt lat="42.9978885" lon="-5.766816">
        <ele>1251.37</ele>
        <time>2020-07-21T12:21:20.000Z</time>
      </trkpt>
      <trkpt lat="42.9978897" lon="-5.7668322">
        <ele>1251.37</ele>
        <time>2020-07-21T12:21:21.000Z</time>
      </trkpt>
      <trkpt lat="42.997891" lon="-5.7668483">
        <ele>1251.07</ele>
        <time>2020-07-21T12:21:22.000Z</time>
      </trkpt>
      <trkpt lat="42.9978912" lon="-5.7668637">
        <ele>1251.07</ele>
        <time>2020-07-21T12:21:23.000Z</time>
      </trkpt>
      <trkpt lat="42.9978912" lon="-5.7668788">
        <ele>1250.61</ele>
        <time>2020-07-21T12:21:24.000Z</time>
      </trkpt>
      <trkpt lat="42.9978918" lon="-5.7668935">
        <ele>1250.61</ele>
        <time>2020-07-21T12:21:25.000Z</time>
      </trkpt>
      <trkpt lat="42.9978945" lon="-5.7669083">
        <ele>1250.31</ele>
        <time>2020-07-21T12:21:26.000Z</time>
      </trkpt>
      <trkpt lat="42.9978982" lon="-5.7669232">
        <ele>1250.31</ele>
        <time>2020-07-21T12:21:27.000Z</time>
      </trkpt>
      <trkpt lat="42.9979013" lon="-5.7669368">
        <ele>1250</ele>
        <time>2020-07-21T12:21:28.000Z</time>
      </trkpt>
      <trkpt lat="42.997902" lon="-5.7669497">
        <ele>1250</ele>
        <time>2020-07-21T12:21:29.000Z</time>
      </trkpt>
      <trkpt lat="42.997902" lon="-5.7669628">
        <ele>1249.54</ele>
        <time>2020-07-21T12:21:30.000Z</time>
      </trkpt>
      <trkpt lat="42.9979022" lon="-5.7669775">
        <ele>1249.54</ele>
        <time>2020-07-21T12:21:31.000Z</time>
      </trkpt>
      <trkpt lat="42.9979038" lon="-5.7669927">
        <ele>1249.24</ele>
        <time>2020-07-21T12:21:32.000Z</time>
      </trkpt>
      <trkpt lat="42.997904" lon="-5.7670072">
        <ele>1249.24</ele>
        <time>2020-07-21T12:21:33.000Z</time>
      </trkpt>
      <trkpt lat="42.9979023" lon="-5.767022">
        <ele>1248.78</ele>
        <time>2020-07-21T12:21:34.000Z</time>
      </trkpt>
      <trkpt lat="42.9978997" lon="-5.767039">
        <ele>1248.78</ele>
        <time>2020-07-21T12:21:35.000Z</time>
      </trkpt>
      <trkpt lat="42.9978975" lon="-5.7670553">
        <ele>1248.48</ele>
        <time>2020-07-21T12:21:36.000Z</time>
      </trkpt>
      <trkpt lat="42.9978973" lon="-5.7670718">
        <ele>1248.48</ele>
        <time>2020-07-21T12:21:37.000Z</time>
      </trkpt>
      <trkpt lat="42.9978978" lon="-5.7670858">
        <ele>1248.17</ele>
        <time>2020-07-21T12:21:38.000Z</time>
      </trkpt>
      <trkpt lat="42.9979" lon="-5.7671013">
        <ele>1248.17</ele>
        <time>2020-07-21T12:21:39.000Z</time>
      </trkpt>
      <trkpt lat="42.997903" lon="-5.7671177">
        <ele>1247.87</ele>
        <time>2020-07-21T12:21:40.000Z</time>
      </trkpt>
      <trkpt lat="42.9979062" lon="-5.7671368">
        <ele>1247.87</ele>
        <time>2020-07-21T12:21:41.000Z</time>
      </trkpt>
      <trkpt lat="42.99791" lon="-5.767156">
        <ele>1247.41</ele>
        <time>2020-07-21T12:21:42.000Z</time>
      </trkpt>
      <trkpt lat="42.9979138" lon="-5.7671725">
        <ele>1247.41</ele>
        <time>2020-07-21T12:21:43.000Z</time>
      </trkpt>
      <trkpt lat="42.9979173" lon="-5.7671838">
        <ele>1247.1</ele>
        <time>2020-07-21T12:21:44.000Z</time>
      </trkpt>
      <trkpt lat="42.9979205" lon="-5.7671922">
        <ele>1247.1</ele>
        <time>2020-07-21T12:21:45.000Z</time>
      </trkpt>
      <trkpt lat="42.9979225" lon="-5.7672022">
        <ele>1246.8</ele>
        <time>2020-07-21T12:21:46.000Z</time>
      </trkpt>
      <trkpt lat="42.9979255" lon="-5.7672115">
        <ele>1246.8</ele>
        <time>2020-07-21T12:21:47.000Z</time>
      </trkpt>
      <trkpt lat="42.997929" lon="-5.7672218">
        <ele>1246.49</ele>
        <time>2020-07-21T12:21:48.000Z</time>
      </trkpt>
      <trkpt lat="42.9979345" lon="-5.7672312">
        <ele>1246.49</ele>
        <time>2020-07-21T12:21:49.000Z</time>
      </trkpt>
      <trkpt lat="42.9979397" lon="-5.7672442">
        <ele>1246.19</ele>
        <time>2020-07-21T12:21:50.000Z</time>
      </trkpt>
      <trkpt lat="42.9979438" lon="-5.7672588">
        <ele>1246.19</ele>
        <time>2020-07-21T12:21:51.000Z</time>
      </trkpt>
      <trkpt lat="42.9979465" lon="-5.767274">
        <ele>1245.89</ele>
        <time>2020-07-21T12:21:52.000Z</time>
      </trkpt>
      <trkpt lat="42.9979487" lon="-5.7672895">
        <ele>1245.89</ele>
        <time>2020-07-21T12:21:53.000Z</time>
      </trkpt>
      <trkpt lat="42.9979515" lon="-5.7673057">
        <ele>1245.58</ele>
        <time>2020-07-21T12:21:54.000Z</time>
      </trkpt>
      <trkpt lat="42.997955" lon="-5.767321">
        <ele>1245.58</ele>
        <time>2020-07-21T12:21:55.000Z</time>
      </trkpt>
      <trkpt lat="42.9979593" lon="-5.7673383">
        <ele>1245.28</ele>
        <time>2020-07-21T12:21:56.000Z</time>
      </trkpt>
      <trkpt lat="42.9979645" lon="-5.7673573">
        <ele>1245.28</ele>
        <time>2020-07-21T12:21:57.000Z</time>
      </trkpt>
      <trkpt lat="42.9979693" lon="-5.7673777">
        <ele>1244.97</ele>
        <time>2020-07-21T12:21:58.000Z</time>
      </trkpt>
      <trkpt lat="42.9979745" lon="-5.7673957">
        <ele>1244.97</ele>
        <time>2020-07-21T12:21:59.000Z</time>
      </trkpt>
      <trkpt lat="42.9979793" lon="-5.7674115">
        <ele>1244.67</ele>
        <time>2020-07-21T12:22:00.000Z</time>
      </trkpt>
      <trkpt lat="42.997984" lon="-5.7674267">
        <ele>1244.67</ele>
        <time>2020-07-21T12:22:01.000Z</time>
      </trkpt>
      <trkpt lat="42.9979878" lon="-5.7674423">
        <ele>1244.36</ele>
        <time>2020-07-21T12:22:02.000Z</time>
      </trkpt>
      <trkpt lat="42.9979915" lon="-5.7674585">
        <ele>1244.36</ele>
        <time>2020-07-21T12:22:03.000Z</time>
      </trkpt>
      <trkpt lat="42.9979962" lon="-5.7674755">
        <ele>1244.06</ele>
        <time>2020-07-21T12:22:04.000Z</time>
      </trkpt>
      <trkpt lat="42.9980018" lon="-5.7674905">
        <ele>1244.06</ele>
        <time>2020-07-21T12:22:05.000Z</time>
      </trkpt>
      <trkpt lat="42.9980078" lon="-5.7675033">
        <ele>1243.75</ele>
        <time>2020-07-21T12:22:06.000Z</time>
      </trkpt>
      <trkpt lat="42.9980137" lon="-5.7675148">
        <ele>1243.75</ele>
        <time>2020-07-21T12:22:07.000Z</time>
      </trkpt>
      <trkpt lat="42.9980183" lon="-5.767526">
        <ele>1243.45</ele>
        <time>2020-07-21T12:22:08.000Z</time>
      </trkpt>
      <trkpt lat="42.9980218" lon="-5.7675378">
        <ele>1243.45</ele>
        <time>2020-07-21T12:22:09.000Z</time>
      </trkpt>
      <trkpt lat="42.9980228" lon="-5.7675488">
        <ele>1242.99</ele>
        <time>2020-07-21T12:22:10.000Z</time>
      </trkpt>
      <trkpt lat="42.9980218" lon="-5.767561">
        <ele>1242.99</ele>
        <time>2020-07-21T12:22:11.000Z</time>
      </trkpt>
      <trkpt lat="42.9980198" lon="-5.7675747">
        <ele>1242.69</ele>
        <time>2020-07-21T12:22:12.000Z</time>
      </trkpt>
      <trkpt lat="42.9980168" lon="-5.7675915">
        <ele>1242.69</ele>
        <time>2020-07-21T12:22:13.000Z</time>
      </trkpt>
      <trkpt lat="42.9980137" lon="-5.7676085">
        <ele>1242.23</ele>
        <time>2020-07-21T12:22:14.000Z</time>
      </trkpt>
      <trkpt lat="42.9980127" lon="-5.7676258">
        <ele>1242.23</ele>
        <time>2020-07-21T12:22:15.000Z</time>
      </trkpt>
      <trkpt lat="42.9980142" lon="-5.7676397">
        <ele>1241.92</ele>
        <time>2020-07-21T12:22:16.000Z</time>
      </trkpt>
      <trkpt lat="42.9980195" lon="-5.7676502">
        <ele>1241.92</ele>
        <time>2020-07-21T12:22:17.000Z</time>
      </trkpt>
      <trkpt lat="42.9980242" lon="-5.7676592">
        <ele>1241.46</ele>
        <time>2020-07-21T12:22:18.000Z</time>
      </trkpt>
      <trkpt lat="42.9980283" lon="-5.7676735">
        <ele>1241.46</ele>
        <time>2020-07-21T12:22:19.000Z</time>
      </trkpt>
      <trkpt lat="42.9980313" lon="-5.7676908">
        <ele>1241.16</ele>
        <time>2020-07-21T12:22:20.000Z</time>
      </trkpt>
      <trkpt lat="42.998036" lon="-5.7677097">
        <ele>1241.16</ele>
        <time>2020-07-21T12:22:21.000Z</time>
      </trkpt>
      <trkpt lat="42.9980423" lon="-5.767725">
        <ele>1240.7</ele>
        <time>2020-07-21T12:22:22.000Z</time>
      </trkpt>
      <trkpt lat="42.9980513" lon="-5.7677378">
        <ele>1240.7</ele>
        <time>2020-07-21T12:22:23.000Z</time>
      </trkpt>
      <trkpt lat="42.9980615" lon="-5.7677477">
        <ele>1240.4</ele>
        <time>2020-07-21T12:22:24.000Z</time>
      </trkpt>
      <trkpt lat="42.99807" lon="-5.7677565">
        <ele>1240.4</ele>
        <time>2020-07-21T12:22:25.000Z</time>
      </trkpt>
      <trkpt lat="42.9980762" lon="-5.7677677">
        <ele>1240.09</ele>
        <time>2020-07-21T12:22:26.000Z</time>
      </trkpt>
      <trkpt lat="42.9980787" lon="-5.7677817">
        <ele>1240.09</ele>
        <time>2020-07-21T12:22:27.000Z</time>
      </trkpt>
      <trkpt lat="42.998081" lon="-5.7677978">
        <ele>1239.64</ele>
        <time>2020-07-21T12:22:28.000Z</time>
      </trkpt>
      <trkpt lat="42.9980827" lon="-5.7678147">
        <ele>1239.64</ele>
        <time>2020-07-21T12:22:29.000Z</time>
      </trkpt>
      <trkpt lat="42.9980847" lon="-5.767831">
        <ele>1239.33</ele>
        <time>2020-07-21T12:22:30.000Z</time>
      </trkpt>
      <trkpt lat="42.9980868" lon="-5.7678472">
        <ele>1239.33</ele>
        <time>2020-07-21T12:22:31.000Z</time>
      </trkpt>
      <trkpt lat="42.99809" lon="-5.7678635">
        <ele>1238.88</ele>
        <time>2020-07-21T12:22:32.000Z</time>
      </trkpt>
      <trkpt lat="42.998095" lon="-5.7678797">
        <ele>1238.88</ele>
        <time>2020-07-21T12:22:33.000Z</time>
      </trkpt>
      <trkpt lat="42.9981007" lon="-5.7678955">
        <ele>1238.42</ele>
        <time>2020-07-21T12:22:34.000Z</time>
      </trkpt>
      <trkpt lat="42.9981058" lon="-5.7679107">
        <ele>1238.42</ele>
        <time>2020-07-21T12:22:35.000Z</time>
      </trkpt>
      <trkpt lat="42.9981108" lon="-5.7679275">
        <ele>1238.11</ele>
        <time>2020-07-21T12:22:36.000Z</time>
      </trkpt>
      <trkpt lat="42.998116" lon="-5.7679447">
        <ele>1238.11</ele>
        <time>2020-07-21T12:22:37.000Z</time>
      </trkpt>
      <trkpt lat="42.9981202" lon="-5.767962">
        <ele>1237.5</ele>
        <time>2020-07-21T12:22:38.000Z</time>
      </trkpt>
      <trkpt lat="42.9981232" lon="-5.7679777">
        <ele>1237.5</ele>
        <time>2020-07-21T12:22:39.000Z</time>
      </trkpt>
      <trkpt lat="42.9981248" lon="-5.7679917">
        <ele>1237.05</ele>
        <time>2020-07-21T12:22:40.000Z</time>
      </trkpt>
      <trkpt lat="42.9981268" lon="-5.7680055">
        <ele>1237.05</ele>
        <time>2020-07-21T12:22:41.000Z</time>
      </trkpt>
      <trkpt lat="42.9981288" lon="-5.7680187">
        <ele>1236.59</ele>
        <time>2020-07-21T12:22:42.000Z</time>
      </trkpt>
      <trkpt lat="42.9981307" lon="-5.7680327">
        <ele>1236.59</ele>
        <time>2020-07-21T12:22:43.000Z</time>
      </trkpt>
      <trkpt lat="42.9981333" lon="-5.7680462">
        <ele>1236.13</ele>
        <time>2020-07-21T12:22:44.000Z</time>
      </trkpt>
      <trkpt lat="42.9981372" lon="-5.7680595">
        <ele>1236.13</ele>
        <time>2020-07-21T12:22:45.000Z</time>
      </trkpt>
      <trkpt lat="42.9981422" lon="-5.7680723">
        <ele>1235.52</ele>
        <time>2020-07-21T12:22:46.000Z</time>
      </trkpt>
      <trkpt lat="42.9981475" lon="-5.7680845">
        <ele>1235.52</ele>
        <time>2020-07-21T12:22:47.000Z</time>
      </trkpt>
      <trkpt lat="42.9981515" lon="-5.768097">
        <ele>1235.06</ele>
        <time>2020-07-21T12:22:48.000Z</time>
      </trkpt>
      <trkpt lat="42.998156" lon="-5.7681113">
        <ele>1235.06</ele>
        <time>2020-07-21T12:22:49.000Z</time>
      </trkpt>
      <trkpt lat="42.9981603" lon="-5.768127">
        <ele>1234.45</ele>
        <time>2020-07-21T12:22:50.000Z</time>
      </trkpt>
      <trkpt lat="42.998165" lon="-5.7681427">
        <ele>1234.45</ele>
        <time>2020-07-21T12:22:51.000Z</time>
      </trkpt>
      <trkpt lat="42.99817" lon="-5.7681578">
        <ele>1234</ele>
        <time>2020-07-21T12:22:52.000Z</time>
      </trkpt>
      <trkpt lat="42.9981738" lon="-5.7681723">
        <ele>1234</ele>
        <time>2020-07-21T12:22:53.000Z</time>
      </trkpt>
      <trkpt lat="42.998178" lon="-5.768185">
        <ele>1233.39</ele>
        <time>2020-07-21T12:22:54.000Z</time>
      </trkpt>
      <trkpt lat="42.9981812" lon="-5.7681935">
        <ele>1233.39</ele>
        <time>2020-07-21T12:22:55.000Z</time>
      </trkpt>
      <trkpt lat="42.9981843" lon="-5.7682015">
        <ele>1232.78</ele>
        <time>2020-07-21T12:22:56.000Z</time>
      </trkpt>
      <trkpt lat="42.9981857" lon="-5.768208">
        <ele>1232.78</ele>
        <time>2020-07-21T12:22:57.000Z</time>
      </trkpt>
      <trkpt lat="42.9981858" lon="-5.7682178">
        <ele>1232.17</ele>
        <time>2020-07-21T12:22:58.000Z</time>
      </trkpt>
      <trkpt lat="42.9981872" lon="-5.7682287">
        <ele>1232.17</ele>
        <time>2020-07-21T12:22:59.000Z</time>
      </trkpt>
      <trkpt lat="42.9981918" lon="-5.7682415">
        <ele>1231.71</ele>
        <time>2020-07-21T12:23:00.000Z</time>
      </trkpt>
      <trkpt lat="42.9981995" lon="-5.7682535">
        <ele>1231.71</ele>
        <time>2020-07-21T12:23:01.000Z</time>
      </trkpt>
      <trkpt lat="42.9982075" lon="-5.7682655">
        <ele>1231.1</ele>
        <time>2020-07-21T12:23:02.000Z</time>
      </trkpt>
      <trkpt lat="42.9982142" lon="-5.7682777">
        <ele>1231.1</ele>
        <time>2020-07-21T12:23:03.000Z</time>
      </trkpt>
      <trkpt lat="42.9982188" lon="-5.7682913">
        <ele>1230.49</ele>
        <time>2020-07-21T12:23:04.000Z</time>
      </trkpt>
      <trkpt lat="42.9982228" lon="-5.768304">
        <ele>1230.49</ele>
        <time>2020-07-21T12:23:05.000Z</time>
      </trkpt>
      <trkpt lat="42.9982268" lon="-5.768316">
        <ele>1230.04</ele>
        <time>2020-07-21T12:23:06.000Z</time>
      </trkpt>
      <trkpt lat="42.9982325" lon="-5.7683277">
        <ele>1230.04</ele>
        <time>2020-07-21T12:23:07.000Z</time>
      </trkpt>
      <trkpt lat="42.9982403" lon="-5.7683398">
        <ele>1229.43</ele>
        <time>2020-07-21T12:23:08.000Z</time>
      </trkpt>
      <trkpt lat="42.9982478" lon="-5.7683512">
        <ele>1229.43</ele>
        <time>2020-07-21T12:23:09.000Z</time>
      </trkpt>
      <trkpt lat="42.9982525" lon="-5.7683617">
        <ele>1228.82</ele>
        <time>2020-07-21T12:23:10.000Z</time>
      </trkpt>
      <trkpt lat="42.9982538" lon="-5.7683733">
        <ele>1228.82</ele>
        <time>2020-07-21T12:23:11.000Z</time>
      </trkpt>
      <trkpt lat="42.9982547" lon="-5.7683897">
        <ele>1228.21</ele>
        <time>2020-07-21T12:23:12.000Z</time>
      </trkpt>
      <trkpt lat="42.9982567" lon="-5.7684067">
        <ele>1228.21</ele>
        <time>2020-07-21T12:23:13.000Z</time>
      </trkpt>
      <trkpt lat="42.9982607" lon="-5.7684225">
        <ele>1227.75</ele>
        <time>2020-07-21T12:23:14.000Z</time>
      </trkpt>
      <trkpt lat="42.9982645" lon="-5.7684372">
        <ele>1227.75</ele>
        <time>2020-07-21T12:23:15.000Z</time>
      </trkpt>
      <trkpt lat="42.9982687" lon="-5.7684543">
        <ele>1227.14</ele>
        <time>2020-07-21T12:23:16.000Z</time>
      </trkpt>
      <trkpt lat="42.9982717" lon="-5.768472">
        <ele>1227.14</ele>
        <time>2020-07-21T12:23:17.000Z</time>
      </trkpt>
      <trkpt lat="42.9982757" lon="-5.7684893">
        <ele>1226.53</ele>
        <time>2020-07-21T12:23:18.000Z</time>
      </trkpt>
      <trkpt lat="42.9982805" lon="-5.7685052">
        <ele>1226.53</ele>
        <time>2020-07-21T12:23:19.000Z</time>
      </trkpt>
      <trkpt lat="42.9982895" lon="-5.7685213">
        <ele>1225.92</ele>
        <time>2020-07-21T12:23:20.000Z</time>
      </trkpt>
      <trkpt lat="42.9982993" lon="-5.7685363">
        <ele>1225.92</ele>
        <time>2020-07-21T12:23:21.000Z</time>
      </trkpt>
      <trkpt lat="42.99831" lon="-5.7685502">
        <ele>1225.31</ele>
        <time>2020-07-21T12:23:22.000Z</time>
      </trkpt>
      <trkpt lat="42.9983182" lon="-5.7685618">
        <ele>1225.31</ele>
        <time>2020-07-21T12:23:23.000Z</time>
      </trkpt>
      <trkpt lat="42.9983238" lon="-5.7685703">
        <ele>1224.85</ele>
        <time>2020-07-21T12:23:24.000Z</time>
      </trkpt>
      <trkpt lat="42.9983265" lon="-5.7685747">
        <ele>1224.85</ele>
        <time>2020-07-21T12:23:25.000Z</time>
      </trkpt>
      <trkpt lat="42.9983278" lon="-5.7685762">
        <ele>1224.24</ele>
        <time>2020-07-21T12:23:26.000Z</time>
      </trkpt>
      <trkpt lat="42.998331" lon="-5.76858">
        <ele>1224.24</ele>
        <time>2020-07-21T12:23:27.000Z</time>
      </trkpt>
      <trkpt lat="42.9983348" lon="-5.7685888">
        <ele>1223.63</ele>
        <time>2020-07-21T12:23:28.000Z</time>
      </trkpt>
      <trkpt lat="42.9983393" lon="-5.7686013">
        <ele>1223.63</ele>
        <time>2020-07-21T12:23:29.000Z</time>
      </trkpt>
      <trkpt lat="42.9983443" lon="-5.7686145">
        <ele>1223.03</ele>
        <time>2020-07-21T12:23:30.000Z</time>
      </trkpt>
      <trkpt lat="42.9983508" lon="-5.7686262">
        <ele>1223.03</ele>
        <time>2020-07-21T12:23:31.000Z</time>
      </trkpt>
      <trkpt lat="42.998358" lon="-5.7686385">
        <ele>1222.42</ele>
        <time>2020-07-21T12:23:32.000Z</time>
      </trkpt>
      <trkpt lat="42.9983653" lon="-5.7686508">
        <ele>1222.42</ele>
        <time>2020-07-21T12:23:33.000Z</time>
      </trkpt>
      <trkpt lat="42.9983742" lon="-5.7686658">
        <ele>1221.81</ele>
        <time>2020-07-21T12:23:34.000Z</time>
      </trkpt>
      <trkpt lat="42.998382" lon="-5.7686808">
        <ele>1221.81</ele>
        <time>2020-07-21T12:23:35.000Z</time>
      </trkpt>
      <trkpt lat="42.9983893" lon="-5.7686958">
        <ele>1221.04</ele>
        <time>2020-07-21T12:23:36.000Z</time>
      </trkpt>
      <trkpt lat="42.9983935" lon="-5.7687103">
        <ele>1221.04</ele>
        <time>2020-07-21T12:23:37.000Z</time>
      </trkpt>
      <trkpt lat="42.9983958" lon="-5.7687235">
        <ele>1220.43</ele>
        <time>2020-07-21T12:23:38.000Z</time>
      </trkpt>
      <trkpt lat="42.9983957" lon="-5.7687403">
        <ele>1220.43</ele>
        <time>2020-07-21T12:23:39.000Z</time>
      </trkpt>
      <trkpt lat="42.9983957" lon="-5.7687548">
        <ele>1219.82</ele>
        <time>2020-07-21T12:23:40.000Z</time>
      </trkpt>
      <trkpt lat="42.9983957" lon="-5.7687705">
        <ele>1219.82</ele>
        <time>2020-07-21T12:23:41.000Z</time>
      </trkpt>
      <trkpt lat="42.9983975" lon="-5.7687855">
        <ele>1219.21</ele>
        <time>2020-07-21T12:23:42.000Z</time>
      </trkpt>
      <trkpt lat="42.9984018" lon="-5.7688012">
        <ele>1219.21</ele>
        <time>2020-07-21T12:23:43.000Z</time>
      </trkpt>
      <trkpt lat="42.9984083" lon="-5.7688167">
        <ele>1218.6</ele>
        <time>2020-07-21T12:23:44.000Z</time>
      </trkpt>
      <trkpt lat="42.9984167" lon="-5.768829">
        <ele>1218.6</ele>
        <time>2020-07-21T12:23:45.000Z</time>
      </trkpt>
      <trkpt lat="42.9984237" lon="-5.7688402">
        <ele>1218</ele>
        <time>2020-07-21T12:23:46.000Z</time>
      </trkpt>
      <trkpt lat="42.9984295" lon="-5.7688478">
        <ele>1218</ele>
        <time>2020-07-21T12:23:47.000Z</time>
      </trkpt>
      <trkpt lat="42.9984313" lon="-5.7688547">
        <ele>1217.39</ele>
        <time>2020-07-21T12:23:48.000Z</time>
      </trkpt>
      <trkpt lat="42.99843" lon="-5.7688612">
        <ele>1217.39</ele>
        <time>2020-07-21T12:23:49.000Z</time>
      </trkpt>
      <trkpt lat="42.998425" lon="-5.7688707">
        <ele>1216.93</ele>
        <time>2020-07-21T12:23:50.000Z</time>
      </trkpt>
      <trkpt lat="42.998418" lon="-5.7688847">
        <ele>1216.93</ele>
        <time>2020-07-21T12:23:51.000Z</time>
      </trkpt>
      <trkpt lat="42.9984103" lon="-5.7689007">
        <ele>1216.32</ele>
        <time>2020-07-21T12:23:52.000Z</time>
      </trkpt>
      <trkpt lat="42.9984095" lon="-5.7689215">
        <ele>1216.32</ele>
        <time>2020-07-21T12:23:53.000Z</time>
      </trkpt>
      <trkpt lat="42.9984127" lon="-5.7689422">
        <ele>1215.71</ele>
        <time>2020-07-21T12:23:54.000Z</time>
      </trkpt>
      <trkpt lat="42.998418" lon="-5.7689645">
        <ele>1215.71</ele>
        <time>2020-07-21T12:23:55.000Z</time>
      </trkpt>
      <trkpt lat="42.9984208" lon="-5.7689843">
        <ele>1215.1</ele>
        <time>2020-07-21T12:23:56.000Z</time>
      </trkpt>
      <trkpt lat="42.9984245" lon="-5.7690015">
        <ele>1215.1</ele>
        <time>2020-07-21T12:23:57.000Z</time>
      </trkpt>
      <trkpt lat="42.9984277" lon="-5.7690125">
        <ele>1214.64</ele>
        <time>2020-07-21T12:23:58.000Z</time>
      </trkpt>
      <trkpt lat="42.9984322" lon="-5.7690183">
        <ele>1214.64</ele>
        <time>2020-07-21T12:23:59.000Z</time>
      </trkpt>
      <trkpt lat="42.998438" lon="-5.7690222">
        <ele>1214.03</ele>
        <time>2020-07-21T12:24:00.000Z</time>
      </trkpt>
      <trkpt lat="42.998445" lon="-5.769032">
        <ele>1214.03</ele>
        <time>2020-07-21T12:24:01.000Z</time>
      </trkpt>
      <trkpt lat="42.998451" lon="-5.7690447">
        <ele>1213.42</ele>
        <time>2020-07-21T12:24:02.000Z</time>
      </trkpt>
      <trkpt lat="42.9984567" lon="-5.7690578">
        <ele>1213.42</ele>
        <time>2020-07-21T12:24:03.000Z</time>
      </trkpt>
      <trkpt lat="42.9984625" lon="-5.7690673">
        <ele>1212.81</ele>
        <time>2020-07-21T12:24:04.000Z</time>
      </trkpt>
      <trkpt lat="42.9984673" lon="-5.769076">
        <ele>1212.81</ele>
        <time>2020-07-21T12:24:05.000Z</time>
      </trkpt>
      <trkpt lat="42.9984703" lon="-5.7690852">
        <ele>1212.2</ele>
        <time>2020-07-21T12:24:06.000Z</time>
      </trkpt>
      <trkpt lat="42.9984738" lon="-5.7690945">
        <ele>1212.2</ele>
        <time>2020-07-21T12:24:07.000Z</time>
      </trkpt>
      <trkpt lat="42.9984773" lon="-5.769103">
        <ele>1211.75</ele>
        <time>2020-07-21T12:24:08.000Z</time>
      </trkpt>
      <trkpt lat="42.9984815" lon="-5.7691118">
        <ele>1211.75</ele>
        <time>2020-07-21T12:24:09.000Z</time>
      </trkpt>
      <trkpt lat="42.9984842" lon="-5.7691222">
        <ele>1211.14</ele>
        <time>2020-07-21T12:24:10.000Z</time>
      </trkpt>
      <trkpt lat="42.9984877" lon="-5.769135">
        <ele>1211.14</ele>
        <time>2020-07-21T12:24:11.000Z</time>
      </trkpt>
      <trkpt lat="42.9984932" lon="-5.7691467">
        <ele>1210.68</ele>
        <time>2020-07-21T12:24:12.000Z</time>
      </trkpt>
      <trkpt lat="42.9985008" lon="-5.7691578">
        <ele>1210.68</ele>
        <time>2020-07-21T12:24:13.000Z</time>
      </trkpt>
      <trkpt lat="42.9985103" lon="-5.7691663">
        <ele>1210.07</ele>
        <time>2020-07-21T12:24:14.000Z</time>
      </trkpt>
      <trkpt lat="42.998519" lon="-5.769175">
        <ele>1210.07</ele>
        <time>2020-07-21T12:24:15.000Z</time>
      </trkpt>
      <trkpt lat="42.998527" lon="-5.7691825">
        <ele>1209.61</ele>
        <time>2020-07-21T12:24:16.000Z</time>
      </trkpt>
      <trkpt lat="42.9985338" lon="-5.7691913">
        <ele>1209.61</ele>
        <time>2020-07-21T12:24:17.000Z</time>
      </trkpt>
      <trkpt lat="42.9985393" lon="-5.7692013">
        <ele>1209</ele>
        <time>2020-07-21T12:24:18.000Z</time>
      </trkpt>
      <trkpt lat="42.9985435" lon="-5.7692128">
        <ele>1209</ele>
        <time>2020-07-21T12:24:19.000Z</time>
      </trkpt>
      <trkpt lat="42.9985463" lon="-5.7692243">
        <ele>1208.55</ele>
        <time>2020-07-21T12:24:20.000Z</time>
      </trkpt>
      <trkpt lat="42.9985488" lon="-5.7692367">
        <ele>1208.55</ele>
        <time>2020-07-21T12:24:21.000Z</time>
      </trkpt>
      <trkpt lat="42.9985528" lon="-5.7692487">
        <ele>1207.94</ele>
        <time>2020-07-21T12:24:22.000Z</time>
      </trkpt>
      <trkpt lat="42.9985585" lon="-5.7692603">
        <ele>1207.94</ele>
        <time>2020-07-21T12:24:23.000Z</time>
      </trkpt>
      <trkpt lat="42.9985665" lon="-5.7692703">
        <ele>1207.48</ele>
        <time>2020-07-21T12:24:24.000Z</time>
      </trkpt>
      <trkpt lat="42.9985755" lon="-5.7692788">
        <ele>1207.48</ele>
        <time>2020-07-21T12:24:25.000Z</time>
      </trkpt>
      <trkpt lat="42.9985847" lon="-5.7692855">
        <ele>1206.87</ele>
        <time>2020-07-21T12:24:26.000Z</time>
      </trkpt>
      <trkpt lat="42.998594" lon="-5.7692918">
        <ele>1206.87</ele>
        <time>2020-07-21T12:24:27.000Z</time>
      </trkpt>
      <trkpt lat="42.9986022" lon="-5.7692987">
        <ele>1206.26</ele>
        <time>2020-07-21T12:24:28.000Z</time>
      </trkpt>
      <trkpt lat="42.9986068" lon="-5.7693067">
        <ele>1206.26</ele>
        <time>2020-07-21T12:24:29.000Z</time>
      </trkpt>
      <trkpt lat="42.9986088" lon="-5.769315">
        <ele>1205.65</ele>
        <time>2020-07-21T12:24:30.000Z</time>
      </trkpt>
      <trkpt lat="42.9986097" lon="-5.7693232">
        <ele>1205.65</ele>
        <time>2020-07-21T12:24:31.000Z</time>
      </trkpt>
      <trkpt lat="42.9986118" lon="-5.7693323">
        <ele>1205.04</ele>
        <time>2020-07-21T12:24:32.000Z</time>
      </trkpt>
      <trkpt lat="42.9986147" lon="-5.7693435">
        <ele>1205.04</ele>
        <time>2020-07-21T12:24:33.000Z</time>
      </trkpt>
      <trkpt lat="42.9986165" lon="-5.7693582">
        <ele>1204.43</ele>
        <time>2020-07-21T12:24:34.000Z</time>
      </trkpt>
      <trkpt lat="42.998619" lon="-5.769373">
        <ele>1204.43</ele>
        <time>2020-07-21T12:24:35.000Z</time>
      </trkpt>
      <trkpt lat="42.9986233" lon="-5.7693858">
        <ele>1203.82</ele>
        <time>2020-07-21T12:24:36.000Z</time>
      </trkpt>
      <trkpt lat="42.9986313" lon="-5.7693962">
        <ele>1203.82</ele>
        <time>2020-07-21T12:24:37.000Z</time>
      </trkpt>
      <trkpt lat="42.9986408" lon="-5.7694072">
        <ele>1203.06</ele>
        <time>2020-07-21T12:24:38.000Z</time>
      </trkpt>
      <trkpt lat="42.9986503" lon="-5.7694198">
        <ele>1203.06</ele>
        <time>2020-07-21T12:24:39.000Z</time>
      </trkpt>
      <trkpt lat="42.9986598" lon="-5.7694323">
        <ele>1202.45</ele>
        <time>2020-07-21T12:24:40.000Z</time>
      </trkpt>
      <trkpt lat="42.9986697" lon="-5.7694438">
        <ele>1202.45</ele>
        <time>2020-07-21T12:24:41.000Z</time>
      </trkpt>
      <trkpt lat="42.9986812" lon="-5.7694558">
        <ele>1201.84</ele>
        <time>2020-07-21T12:24:42.000Z</time>
      </trkpt>
      <trkpt lat="42.99869" lon="-5.7694665">
        <ele>1201.84</ele>
        <time>2020-07-21T12:24:43.000Z</time>
      </trkpt>
      <trkpt lat="42.998697" lon="-5.7694783">
        <ele>1201.38</ele>
        <time>2020-07-21T12:24:44.000Z</time>
      </trkpt>
      <trkpt lat="42.998702" lon="-5.7694908">
        <ele>1201.38</ele>
        <time>2020-07-21T12:24:45.000Z</time>
      </trkpt>
      <trkpt lat="42.9987102" lon="-5.7695045">
        <ele>1200.77</ele>
        <time>2020-07-21T12:24:46.000Z</time>
      </trkpt>
      <trkpt lat="42.99872" lon="-5.7695163">
        <ele>1200.77</ele>
        <time>2020-07-21T12:24:47.000Z</time>
      </trkpt>
      <trkpt lat="42.9987307" lon="-5.769527">
        <ele>1200.17</ele>
        <time>2020-07-21T12:24:48.000Z</time>
      </trkpt>
      <trkpt lat="42.9987408" lon="-5.7695377">
        <ele>1200.17</ele>
        <time>2020-07-21T12:24:49.000Z</time>
      </trkpt>
      <trkpt lat="42.99875" lon="-5.7695455">
        <ele>1199.56</ele>
        <time>2020-07-21T12:24:50.000Z</time>
      </trkpt>
      <trkpt lat="42.9987548" lon="-5.7695485">
        <ele>1199.56</ele>
        <time>2020-07-21T12:24:51.000Z</time>
      </trkpt>
      <trkpt lat="42.9987578" lon="-5.7695507">
        <ele>1198.94</ele>
        <time>2020-07-21T12:24:52.000Z</time>
      </trkpt>
      <trkpt lat="42.9987597" lon="-5.7695535">
        <ele>1198.94</ele>
        <time>2020-07-21T12:24:53.000Z</time>
      </trkpt>
      <trkpt lat="42.998762" lon="-5.769561">
        <ele>1198.34</ele>
        <time>2020-07-21T12:24:54.000Z</time>
      </trkpt>
      <trkpt lat="42.9987607" lon="-5.7695732">
        <ele>1198.34</ele>
        <time>2020-07-21T12:24:55.000Z</time>
      </trkpt>
      <trkpt lat="42.9987568" lon="-5.769593">
        <ele>1197.73</ele>
        <time>2020-07-21T12:24:56.000Z</time>
      </trkpt>
      <trkpt lat="42.9987537" lon="-5.7696173">
        <ele>1197.73</ele>
        <time>2020-07-21T12:24:57.000Z</time>
      </trkpt>
      <trkpt lat="42.998752" lon="-5.769643">
        <ele>1197.12</ele>
        <time>2020-07-21T12:24:58.000Z</time>
      </trkpt>
      <trkpt lat="42.9987522" lon="-5.769666">
        <ele>1197.12</ele>
        <time>2020-07-21T12:24:59.000Z</time>
      </trkpt>
      <trkpt lat="42.9987522" lon="-5.769687">
        <ele>1196.51</ele>
        <time>2020-07-21T12:25:00.000Z</time>
      </trkpt>
      <trkpt lat="42.9987545" lon="-5.769703">
        <ele>1196.51</ele>
        <time>2020-07-21T12:25:01.000Z</time>
      </trkpt>
      <trkpt lat="42.9987595" lon="-5.7697187">
        <ele>1195.74</ele>
        <time>2020-07-21T12:25:02.000Z</time>
      </trkpt>
      <trkpt lat="42.9987693" lon="-5.7697342">
        <ele>1195.74</ele>
        <time>2020-07-21T12:25:03.000Z</time>
      </trkpt>
      <trkpt lat="42.9987797" lon="-5.7697513">
        <ele>1195.14</ele>
        <time>2020-07-21T12:25:04.000Z</time>
      </trkpt>
      <trkpt lat="42.99879" lon="-5.7697663">
        <ele>1195.14</ele>
        <time>2020-07-21T12:25:05.000Z</time>
      </trkpt>
      <trkpt lat="42.9987985" lon="-5.7697802">
        <ele>1194.53</ele>
        <time>2020-07-21T12:25:06.000Z</time>
      </trkpt>
      <trkpt lat="42.9988063" lon="-5.7697943">
        <ele>1194.53</ele>
        <time>2020-07-21T12:25:07.000Z</time>
      </trkpt>
      <trkpt lat="42.9988138" lon="-5.7698115">
        <ele>1193.92</ele>
        <time>2020-07-21T12:25:08.000Z</time>
      </trkpt>
      <trkpt lat="42.9988212" lon="-5.769831">
        <ele>1193.92</ele>
        <time>2020-07-21T12:25:09.000Z</time>
      </trkpt>
      <trkpt lat="42.9988307" lon="-5.7698518">
        <ele>1193.15</ele>
        <time>2020-07-21T12:25:10.000Z</time>
      </trkpt>
      <trkpt lat="42.998841" lon="-5.7698718">
        <ele>1193.15</ele>
        <time>2020-07-21T12:25:11.000Z</time>
      </trkpt>
      <trkpt lat="42.998852" lon="-5.7698898">
        <ele>1192.54</ele>
        <time>2020-07-21T12:25:12.000Z</time>
      </trkpt>
      <trkpt lat="42.9988618" lon="-5.7699065">
        <ele>1192.54</ele>
        <time>2020-07-21T12:25:13.000Z</time>
      </trkpt>
      <trkpt lat="42.9988712" lon="-5.7699227">
        <ele>1191.94</ele>
        <time>2020-07-21T12:25:14.000Z</time>
      </trkpt>
      <trkpt lat="42.9988805" lon="-5.7699398">
        <ele>1191.94</ele>
        <time>2020-07-21T12:25:15.000Z</time>
      </trkpt>
      <trkpt lat="42.9988897" lon="-5.7699565">
        <ele>1191.17</ele>
        <time>2020-07-21T12:25:16.000Z</time>
      </trkpt>
      <trkpt lat="42.9988982" lon="-5.7699738">
        <ele>1191.17</ele>
        <time>2020-07-21T12:25:17.000Z</time>
      </trkpt>
      <trkpt lat="42.9989055" lon="-5.7699905">
        <ele>1190.56</ele>
        <time>2020-07-21T12:25:18.000Z</time>
      </trkpt>
      <trkpt lat="42.9989115" lon="-5.770007">
        <ele>1190.56</ele>
        <time>2020-07-21T12:25:19.000Z</time>
      </trkpt>
      <trkpt lat="42.9989175" lon="-5.7700228">
        <ele>1189.95</ele>
        <time>2020-07-21T12:25:20.000Z</time>
      </trkpt>
      <trkpt lat="42.9989235" lon="-5.7700363">
        <ele>1189.95</ele>
        <time>2020-07-21T12:25:21.000Z</time>
      </trkpt>
      <trkpt lat="42.9989305" lon="-5.770047">
        <ele>1189.34</ele>
        <time>2020-07-21T12:25:22.000Z</time>
      </trkpt>
      <trkpt lat="42.9989377" lon="-5.7700527">
        <ele>1189.34</ele>
        <time>2020-07-21T12:25:23.000Z</time>
      </trkpt>
      <trkpt lat="42.9989443" lon="-5.7700592">
        <ele>1188.58</ele>
        <time>2020-07-21T12:25:24.000Z</time>
      </trkpt>
      <trkpt lat="42.9989503" lon="-5.7700678">
        <ele>1188.58</ele>
        <time>2020-07-21T12:25:25.000Z</time>
      </trkpt>
      <trkpt lat="42.9989575" lon="-5.7700803">
        <ele>1187.97</ele>
        <time>2020-07-21T12:25:26.000Z</time>
      </trkpt>
      <trkpt lat="42.9989665" lon="-5.7700908">
        <ele>1187.97</ele>
        <time>2020-07-21T12:25:27.000Z</time>
      </trkpt>
      <trkpt lat="42.998976" lon="-5.7700953">
        <ele>1187.36</ele>
        <time>2020-07-21T12:25:28.000Z</time>
      </trkpt>
      <trkpt lat="42.9989838" lon="-5.7700955">
        <ele>1187.36</ele>
        <time>2020-07-21T12:25:29.000Z</time>
      </trkpt>
      <trkpt lat="42.9989917" lon="-5.7700965">
        <ele>1186.75</ele>
        <time>2020-07-21T12:25:30.000Z</time>
      </trkpt>
      <trkpt lat="42.9990008" lon="-5.7701032">
        <ele>1186.75</ele>
        <time>2020-07-21T12:25:31.000Z</time>
      </trkpt>
      <trkpt lat="42.9990103" lon="-5.7701132">
        <ele>1186.3</ele>
        <time>2020-07-21T12:25:32.000Z</time>
      </trkpt>
      <trkpt lat="42.999016" lon="-5.770126">
        <ele>1186.3</ele>
        <time>2020-07-21T12:25:33.000Z</time>
      </trkpt>
      <trkpt lat="42.999018" lon="-5.7701387">
        <ele>1185.69</ele>
        <time>2020-07-21T12:25:34.000Z</time>
      </trkpt>
      <trkpt lat="42.9990188" lon="-5.7701527">
        <ele>1185.69</ele>
        <time>2020-07-21T12:25:35.000Z</time>
      </trkpt>
      <trkpt lat="42.999021" lon="-5.7701655">
        <ele>1185.08</ele>
        <time>2020-07-21T12:25:36.000Z</time>
      </trkpt>
      <trkpt lat="42.9990222" lon="-5.7701785">
        <ele>1185.08</ele>
        <time>2020-07-21T12:25:37.000Z</time>
      </trkpt>
      <trkpt lat="42.9990228" lon="-5.7701905">
        <ele>1184.62</ele>
        <time>2020-07-21T12:25:38.000Z</time>
      </trkpt>
      <trkpt lat="42.9990217" lon="-5.7701993">
        <ele>1184.62</ele>
        <time>2020-07-21T12:25:39.000Z</time>
      </trkpt>
      <trkpt lat="42.999021" lon="-5.7702048">
        <ele>1184.16</ele>
        <time>2020-07-21T12:25:40.000Z</time>
      </trkpt>
      <trkpt lat="42.999019" lon="-5.7702125">
        <ele>1184.16</ele>
        <time>2020-07-21T12:25:41.000Z</time>
      </trkpt>
      <trkpt lat="42.9990153" lon="-5.7702237">
        <ele>1183.55</ele>
        <time>2020-07-21T12:25:42.000Z</time>
      </trkpt>
      <trkpt lat="42.9990107" lon="-5.7702375">
        <ele>1183.55</ele>
        <time>2020-07-21T12:25:43.000Z</time>
      </trkpt>
      <trkpt lat="42.999005" lon="-5.7702505">
        <ele>1183.1</ele>
        <time>2020-07-21T12:25:44.000Z</time>
      </trkpt>
      <trkpt lat="42.9990002" lon="-5.7702638">
        <ele>1183.1</ele>
        <time>2020-07-21T12:25:45.000Z</time>
      </trkpt>
      <trkpt lat="42.9989947" lon="-5.7702763">
        <ele>1182.64</ele>
        <time>2020-07-21T12:25:46.000Z</time>
      </trkpt>
      <trkpt lat="42.9989895" lon="-5.770287">
        <ele>1182.64</ele>
        <time>2020-07-21T12:25:47.000Z</time>
      </trkpt>
      <trkpt lat="42.9989837" lon="-5.7702967">
        <ele>1182.03</ele>
        <time>2020-07-21T12:25:48.000Z</time>
      </trkpt>
      <trkpt lat="42.9989802" lon="-5.7703085">
        <ele>1182.03</ele>
        <time>2020-07-21T12:25:49.000Z</time>
      </trkpt>
      <trkpt lat="42.9989768" lon="-5.77032">
        <ele>1181.57</ele>
        <time>2020-07-21T12:25:50.000Z</time>
      </trkpt>
      <trkpt lat="42.998973" lon="-5.770332">
        <ele>1181.57</ele>
        <time>2020-07-21T12:25:51.000Z</time>
      </trkpt>
      <trkpt lat="42.9989698" lon="-5.7703437">
        <ele>1181.11</ele>
        <time>2020-07-21T12:25:52.000Z</time>
      </trkpt>
      <trkpt lat="42.9989695" lon="-5.7703518">
        <ele>1181.11</ele>
        <time>2020-07-21T12:25:53.000Z</time>
      </trkpt>
      <trkpt lat="42.9989743" lon="-5.7703567">
        <ele>1180.51</ele>
        <time>2020-07-21T12:25:54.000Z</time>
      </trkpt>
      <trkpt lat="42.998981" lon="-5.7703587">
        <ele>1180.51</ele>
        <time>2020-07-21T12:25:55.000Z</time>
      </trkpt>
      <trkpt lat="42.9989888" lon="-5.7703633">
        <ele>1180.05</ele>
        <time>2020-07-21T12:25:56.000Z</time>
      </trkpt>
      <trkpt lat="42.998997" lon="-5.7703688">
        <ele>1180.05</ele>
        <time>2020-07-21T12:25:57.000Z</time>
      </trkpt>
      <trkpt lat="42.9990067" lon="-5.770375">
        <ele>1179.44</ele>
        <time>2020-07-21T12:25:58.000Z</time>
      </trkpt>
      <trkpt lat="42.9990178" lon="-5.7703793">
        <ele>1179.44</ele>
        <time>2020-07-21T12:25:59.000Z</time>
      </trkpt>
      <trkpt lat="42.9990258" lon="-5.7703813">
        <ele>1178.98</ele>
        <time>2020-07-21T12:26:00.000Z</time>
      </trkpt>
      <trkpt lat="42.9990292" lon="-5.7703858">
        <ele>1178.98</ele>
        <time>2020-07-21T12:26:01.000Z</time>
      </trkpt>
      <trkpt lat="42.9990257" lon="-5.770396">
        <ele>1178.37</ele>
        <time>2020-07-21T12:26:02.000Z</time>
      </trkpt>
      <trkpt lat="42.9990187" lon="-5.7704105">
        <ele>1178.37</ele>
        <time>2020-07-21T12:26:03.000Z</time>
      </trkpt>
      <trkpt lat="42.9990102" lon="-5.770424">
        <ele>1177.91</ele>
        <time>2020-07-21T12:26:04.000Z</time>
      </trkpt>
      <trkpt lat="42.9990022" lon="-5.770435">
        <ele>1177.91</ele>
        <time>2020-07-21T12:26:05.000Z</time>
      </trkpt>
      <trkpt lat="42.998995" lon="-5.770445">
        <ele>1177.3</ele>
        <time>2020-07-21T12:26:06.000Z</time>
      </trkpt>
      <trkpt lat="42.9989905" lon="-5.7704555">
        <ele>1177.3</ele>
        <time>2020-07-21T12:26:07.000Z</time>
      </trkpt>
      <trkpt lat="42.9989872" lon="-5.7704673">
        <ele>1176.85</ele>
        <time>2020-07-21T12:26:08.000Z</time>
      </trkpt>
      <trkpt lat="42.9989852" lon="-5.7704823">
        <ele>1176.85</ele>
        <time>2020-07-21T12:26:09.000Z</time>
      </trkpt>
      <trkpt lat="42.9989835" lon="-5.7704905">
        <ele>1176.39</ele>
        <time>2020-07-21T12:26:10.000Z</time>
      </trkpt>
      <trkpt lat="42.9989835" lon="-5.7704927">
        <ele>1176.39</ele>
        <time>2020-07-21T12:26:11.000Z</time>
      </trkpt>
      <trkpt lat="42.9989847" lon="-5.7704902">
        <ele>1175.78</ele>
        <time>2020-07-21T12:26:12.000Z</time>
      </trkpt>
      <trkpt lat="42.9989857" lon="-5.770491">
        <ele>1175.78</ele>
        <time>2020-07-21T12:26:13.000Z</time>
      </trkpt>
      <trkpt lat="42.9989902" lon="-5.7704952">
        <ele>1175.32</ele>
        <time>2020-07-21T12:26:14.000Z</time>
      </trkpt>
      <trkpt lat="42.9989975" lon="-5.770499">
        <ele>1175.32</ele>
        <time>2020-07-21T12:26:15.000Z</time>
      </trkpt>
      <trkpt lat="42.9990082" lon="-5.7705033">
        <ele>1174.87</ele>
        <time>2020-07-21T12:26:16.000Z</time>
      </trkpt>
      <trkpt lat="42.9990175" lon="-5.7705062">
        <ele>1174.87</ele>
        <time>2020-07-21T12:26:17.000Z</time>
      </trkpt>
      <trkpt lat="42.9990272" lon="-5.7705095">
        <ele>1174.41</ele>
        <time>2020-07-21T12:26:18.000Z</time>
      </trkpt>
      <trkpt lat="42.9990367" lon="-5.7705137">
        <ele>1174.41</ele>
        <time>2020-07-21T12:26:19.000Z</time>
      </trkpt>
      <trkpt lat="42.9990452" lon="-5.7705192">
        <ele>1173.95</ele>
        <time>2020-07-21T12:26:20.000Z</time>
      </trkpt>
      <trkpt lat="42.999055" lon="-5.7705278">
        <ele>1173.95</ele>
        <time>2020-07-21T12:26:21.000Z</time>
      </trkpt>
      <trkpt lat="42.9990642" lon="-5.7705355">
        <ele>1173.49</ele>
        <time>2020-07-21T12:26:22.000Z</time>
      </trkpt>
      <trkpt lat="42.9990755" lon="-5.7705417">
        <ele>1173.49</ele>
        <time>2020-07-21T12:26:23.000Z</time>
      </trkpt>
      <trkpt lat="42.9990863" lon="-5.7705443">
        <ele>1173.04</ele>
        <time>2020-07-21T12:26:24.000Z</time>
      </trkpt>
      <trkpt lat="42.9990973" lon="-5.7705487">
        <ele>1173.04</ele>
        <time>2020-07-21T12:26:25.000Z</time>
      </trkpt>
      <trkpt lat="42.9991067" lon="-5.7705558">
        <ele>1172.58</ele>
        <time>2020-07-21T12:26:26.000Z</time>
      </trkpt>
      <trkpt lat="42.9991153" lon="-5.7705652">
        <ele>1172.58</ele>
        <time>2020-07-21T12:26:27.000Z</time>
      </trkpt>
      <trkpt lat="42.9991238" lon="-5.7705743">
        <ele>1172.12</ele>
        <time>2020-07-21T12:26:28.000Z</time>
      </trkpt>
      <trkpt lat="42.9991322" lon="-5.7705807">
        <ele>1172.12</ele>
        <time>2020-07-21T12:26:29.000Z</time>
      </trkpt>
      <trkpt lat="42.9991395" lon="-5.7705835">
        <ele>1171.67</ele>
        <time>2020-07-21T12:26:30.000Z</time>
      </trkpt>
      <trkpt lat="42.9991465" lon="-5.7705847">
        <ele>1171.67</ele>
        <time>2020-07-21T12:26:31.000Z</time>
      </trkpt>
      <trkpt lat="42.9991533" lon="-5.770585">
        <ele>1171.21</ele>
        <time>2020-07-21T12:26:32.000Z</time>
      </trkpt>
      <trkpt lat="42.9991573" lon="-5.7705868">
        <ele>1171.21</ele>
        <time>2020-07-21T12:26:33.000Z</time>
      </trkpt>
      <trkpt lat="42.9991592" lon="-5.7705882">
        <ele>1170.75</ele>
        <time>2020-07-21T12:26:34.000Z</time>
      </trkpt>
      <trkpt lat="42.9991592" lon="-5.7705897">
        <ele>1170.75</ele>
        <time>2020-07-21T12:26:35.000Z</time>
      </trkpt>
      <trkpt lat="42.9991593" lon="-5.7705903">
        <ele>1170.29</ele>
        <time>2020-07-21T12:26:36.000Z</time>
      </trkpt>
      <trkpt lat="42.9991595" lon="-5.7705907">
        <ele>1170.29</ele>
        <time>2020-07-21T12:26:37.000Z</time>
      </trkpt>
      <trkpt lat="42.9991602" lon="-5.7705903">
        <ele>1169.84</ele>
        <time>2020-07-21T12:26:38.000Z</time>
      </trkpt>
      <trkpt lat="42.9991613" lon="-5.7705898">
        <ele>1169.84</ele>
        <time>2020-07-21T12:26:39.000Z</time>
      </trkpt>
      <trkpt lat="42.9991623" lon="-5.7705892">
        <ele>1169.38</ele>
        <time>2020-07-21T12:26:40.000Z</time>
      </trkpt>
      <trkpt lat="42.9991628" lon="-5.7705893">
        <ele>1169.38</ele>
        <time>2020-07-21T12:26:41.000Z</time>
      </trkpt>
      <trkpt lat="42.999163" lon="-5.7705895">
        <ele>1169.07</ele>
        <time>2020-07-21T12:26:42.000Z</time>
      </trkpt>
      <trkpt lat="42.9991632" lon="-5.7705898">
        <ele>1169.07</ele>
        <time>2020-07-21T12:26:43.000Z</time>
      </trkpt>
      <trkpt lat="42.9991633" lon="-5.7705905">
        <ele>1168.62</ele>
        <time>2020-07-21T12:26:44.000Z</time>
      </trkpt>
      <trkpt lat="42.999164" lon="-5.770592">
        <ele>1168.62</ele>
        <time>2020-07-21T12:26:45.000Z</time>
      </trkpt>
      <trkpt lat="42.9991665" lon="-5.770595">
        <ele>1168.16</ele>
        <time>2020-07-21T12:26:46.000Z</time>
      </trkpt>
      <trkpt lat="42.9991703" lon="-5.7706007">
        <ele>1168.16</ele>
        <time>2020-07-21T12:26:47.000Z</time>
      </trkpt>
      <trkpt lat="42.9991745" lon="-5.7706087">
        <ele>1167.7</ele>
        <time>2020-07-21T12:26:48.000Z</time>
      </trkpt>
      <trkpt lat="42.9991773" lon="-5.7706205">
        <ele>1167.7</ele>
        <time>2020-07-21T12:26:49.000Z</time>
      </trkpt>
      <trkpt lat="42.9991798" lon="-5.7706355">
        <ele>1167.25</ele>
        <time>2020-07-21T12:26:50.000Z</time>
      </trkpt>
      <trkpt lat="42.9991833" lon="-5.7706522">
        <ele>1167.25</ele>
        <time>2020-07-21T12:26:51.000Z</time>
      </trkpt>
      <trkpt lat="42.9991893" lon="-5.770666">
        <ele>1166.64</ele>
        <time>2020-07-21T12:26:52.000Z</time>
      </trkpt>
      <trkpt lat="42.9991988" lon="-5.7706698">
        <ele>1166.64</ele>
        <time>2020-07-21T12:26:53.000Z</time>
      </trkpt>
      <trkpt lat="42.9992077" lon="-5.7706715">
        <ele>1166.03</ele>
        <time>2020-07-21T12:26:54.000Z</time>
      </trkpt>
      <trkpt lat="42.9992158" lon="-5.7706717">
        <ele>1166.03</ele>
        <time>2020-07-21T12:26:55.000Z</time>
      </trkpt>
      <trkpt lat="42.999223" lon="-5.7706782">
        <ele>1165.57</ele>
        <time>2020-07-21T12:26:56.000Z</time>
      </trkpt>
      <trkpt lat="42.9992307" lon="-5.7706845">
        <ele>1165.57</ele>
        <time>2020-07-21T12:26:57.000Z</time>
      </trkpt>
      <trkpt lat="42.999239" lon="-5.7706942">
        <ele>1164.96</ele>
        <time>2020-07-21T12:26:58.000Z</time>
      </trkpt>
      <trkpt lat="42.9992455" lon="-5.770704">
        <ele>1164.96</ele>
        <time>2020-07-21T12:26:59.000Z</time>
      </trkpt>
      <trkpt lat="42.9992523" lon="-5.7707135">
        <ele>1164.35</ele>
        <time>2020-07-21T12:27:00.000Z</time>
      </trkpt>
      <trkpt lat="42.9992577" lon="-5.7707227">
        <ele>1164.35</ele>
        <time>2020-07-21T12:27:01.000Z</time>
      </trkpt>
      <trkpt lat="42.9992645" lon="-5.7707312">
        <ele>1163.74</ele>
        <time>2020-07-21T12:27:02.000Z</time>
      </trkpt>
      <trkpt lat="42.9992718" lon="-5.7707423">
        <ele>1163.74</ele>
        <time>2020-07-21T12:27:03.000Z</time>
      </trkpt>
      <trkpt lat="42.9992805" lon="-5.7707525">
        <ele>1163.13</ele>
        <time>2020-07-21T12:27:04.000Z</time>
      </trkpt>
      <trkpt lat="42.999289" lon="-5.7707623">
        <ele>1163.13</ele>
        <time>2020-07-21T12:27:05.000Z</time>
      </trkpt>
      <trkpt lat="42.9992972" lon="-5.7707702">
        <ele>1162.52</ele>
        <time>2020-07-21T12:27:06.000Z</time>
      </trkpt>
      <trkpt lat="42.9993062" lon="-5.7707778">
        <ele>1162.52</ele>
        <time>2020-07-21T12:27:07.000Z</time>
      </trkpt>
      <trkpt lat="42.9993157" lon="-5.7707852">
        <ele>1162.06</ele>
        <time>2020-07-21T12:27:08.000Z</time>
      </trkpt>
      <trkpt lat="42.9993253" lon="-5.7707918">
        <ele>1162.06</ele>
        <time>2020-07-21T12:27:09.000Z</time>
      </trkpt>
      <trkpt lat="42.9993318" lon="-5.7707958">
        <ele>1161.45</ele>
        <time>2020-07-21T12:27:10.000Z</time>
      </trkpt>
      <trkpt lat="42.9993353" lon="-5.7707982">
        <ele>1161.45</ele>
        <time>2020-07-21T12:27:11.000Z</time>
      </trkpt>
      <trkpt lat="42.9993403" lon="-5.7707958">
        <ele>1161</ele>
        <time>2020-07-21T12:27:12.000Z</time>
      </trkpt>
      <trkpt lat="42.9993483" lon="-5.7707922">
        <ele>1161</ele>
        <time>2020-07-21T12:27:13.000Z</time>
      </trkpt>
      <trkpt lat="42.9993592" lon="-5.7707862">
        <ele>1160.54</ele>
        <time>2020-07-21T12:27:14.000Z</time>
      </trkpt>
      <trkpt lat="42.9993683" lon="-5.770781">
        <ele>1160.54</ele>
        <time>2020-07-21T12:27:15.000Z</time>
      </trkpt>
      <trkpt lat="42.9993767" lon="-5.7707748">
        <ele>1160.08</ele>
        <time>2020-07-21T12:27:16.000Z</time>
      </trkpt>
      <trkpt lat="42.9993843" lon="-5.7707695">
        <ele>1160.08</ele>
        <time>2020-07-21T12:27:17.000Z</time>
      </trkpt>
      <trkpt lat="42.9993878" lon="-5.7707687">
        <ele>1159.78</ele>
        <time>2020-07-21T12:27:18.000Z</time>
      </trkpt>
      <trkpt lat="42.99939" lon="-5.7707692">
        <ele>1159.78</ele>
        <time>2020-07-21T12:27:19.000Z</time>
      </trkpt>
      <trkpt lat="42.9993907" lon="-5.7707703">
        <ele>1159.47</ele>
        <time>2020-07-21T12:27:20.000Z</time>
      </trkpt>
      <trkpt lat="42.9993947" lon="-5.7707697">
        <ele>1159.47</ele>
        <time>2020-07-21T12:27:21.000Z</time>
      </trkpt>
      <trkpt lat="42.9994013" lon="-5.7707688">
        <ele>1159.02</ele>
        <time>2020-07-21T12:27:22.000Z</time>
      </trkpt>
      <trkpt lat="42.9994105" lon="-5.7707678">
        <ele>1159.02</ele>
        <time>2020-07-21T12:27:23.000Z</time>
      </trkpt>
      <trkpt lat="42.9994215" lon="-5.7707655">
        <ele>1158.71</ele>
        <time>2020-07-21T12:27:24.000Z</time>
      </trkpt>
      <trkpt lat="42.9994327" lon="-5.7707613">
        <ele>1158.71</ele>
        <time>2020-07-21T12:27:25.000Z</time>
      </trkpt>
      <trkpt lat="42.9994437" lon="-5.7707548">
        <ele>1158.56</ele>
        <time>2020-07-21T12:27:26.000Z</time>
      </trkpt>
      <trkpt lat="42.9994535" lon="-5.7707448">
        <ele>1158.56</ele>
        <time>2020-07-21T12:27:27.000Z</time>
      </trkpt>
      <trkpt lat="42.9994622" lon="-5.7707338">
        <ele>1158.25</ele>
        <time>2020-07-21T12:27:28.000Z</time>
      </trkpt>
      <trkpt lat="42.9994677" lon="-5.7707268">
        <ele>1158.25</ele>
        <time>2020-07-21T12:27:29.000Z</time>
      </trkpt>
      <trkpt lat="42.9994693" lon="-5.7707232">
        <ele>1158.1</ele>
        <time>2020-07-21T12:27:30.000Z</time>
      </trkpt>
      <trkpt lat="42.9994692" lon="-5.7707232">
        <ele>1158.1</ele>
        <time>2020-07-21T12:27:31.000Z</time>
      </trkpt>
      <trkpt lat="42.9994692" lon="-5.7707213">
        <ele>1157.95</ele>
        <time>2020-07-21T12:27:32.000Z</time>
      </trkpt>
      <trkpt lat="42.99947" lon="-5.7707208">
        <ele>1157.95</ele>
        <time>2020-07-21T12:27:33.000Z</time>
      </trkpt>
      <trkpt lat="42.9994703" lon="-5.7707198">
        <ele>1157.64</ele>
        <time>2020-07-21T12:27:34.000Z</time>
      </trkpt>
      <trkpt lat="42.9994713" lon="-5.7707177">
        <ele>1157.64</ele>
        <time>2020-07-21T12:27:35.000Z</time>
      </trkpt>
      <trkpt lat="42.9994728" lon="-5.770713">
        <ele>1157.49</ele>
        <time>2020-07-21T12:27:36.000Z</time>
      </trkpt>
      <trkpt lat="42.999475" lon="-5.7707052">
        <ele>1157.49</ele>
        <time>2020-07-21T12:27:37.000Z</time>
      </trkpt>
      <trkpt lat="42.9994767" lon="-5.7706953">
        <ele>1157.49</ele>
        <time>2020-07-21T12:27:38.000Z</time>
      </trkpt>
      <trkpt lat="42.9994782" lon="-5.7706837">
        <ele>1157.49</ele>
        <time>2020-07-21T12:27:39.000Z</time>
      </trkpt>
      <trkpt lat="42.99948" lon="-5.7706733">
        <ele>1157.34</ele>
        <time>2020-07-21T12:27:40.000Z</time>
      </trkpt>
      <trkpt lat="42.999482" lon="-5.7706633">
        <ele>1157.34</ele>
        <time>2020-07-21T12:27:41.000Z</time>
      </trkpt>
      <trkpt lat="42.9994862" lon="-5.7706533">
        <ele>1157.19</ele>
        <time>2020-07-21T12:27:42.000Z</time>
      </trkpt>
      <trkpt lat="42.9994905" lon="-5.7706437">
        <ele>1157.19</ele>
        <time>2020-07-21T12:27:43.000Z</time>
      </trkpt>
      <trkpt lat="42.9994947" lon="-5.7706345">
        <ele>1157.19</ele>
        <time>2020-07-21T12:27:44.000Z</time>
      </trkpt>
      <trkpt lat="42.9994975" lon="-5.7706288">
        <ele>1157.19</ele>
        <time>2020-07-21T12:27:45.000Z</time>
      </trkpt>
      <trkpt lat="42.9995017" lon="-5.7706245">
        <ele>1157.19</ele>
        <time>2020-07-21T12:27:46.000Z</time>
      </trkpt>
      <trkpt lat="42.9995075" lon="-5.7706198">
        <ele>1157.19</ele>
        <time>2020-07-21T12:27:47.000Z</time>
      </trkpt>
      <trkpt lat="42.9995147" lon="-5.770613">
        <ele>1157.19</ele>
        <time>2020-07-21T12:27:48.000Z</time>
      </trkpt>
      <trkpt lat="42.9995202" lon="-5.7706038">
        <ele>1157.19</ele>
        <time>2020-07-21T12:27:49.000Z</time>
      </trkpt>
      <trkpt lat="42.9995223" lon="-5.7705918">
        <ele>1157.19</ele>
        <time>2020-07-21T12:27:50.000Z</time>
      </trkpt>
      <trkpt lat="42.9995252" lon="-5.7705817">
        <ele>1157.19</ele>
        <time>2020-07-21T12:27:51.000Z</time>
      </trkpt>
      <trkpt lat="42.9995295" lon="-5.7705707">
        <ele>1157.34</ele>
        <time>2020-07-21T12:27:52.000Z</time>
      </trkpt>
      <trkpt lat="42.9995373" lon="-5.7705618">
        <ele>1157.34</ele>
        <time>2020-07-21T12:27:53.000Z</time>
      </trkpt>
      <trkpt lat="42.9995458" lon="-5.7705507">
        <ele>1157.34</ele>
        <time>2020-07-21T12:27:54.000Z</time>
      </trkpt>
      <trkpt lat="42.9995518" lon="-5.7705392">
        <ele>1157.34</ele>
        <time>2020-07-21T12:27:55.000Z</time>
      </trkpt>
      <trkpt lat="42.9995562" lon="-5.7705278">
        <ele>1157.49</ele>
        <time>2020-07-21T12:27:56.000Z</time>
      </trkpt>
      <trkpt lat="42.999559" lon="-5.7705162">
        <ele>1157.49</ele>
        <time>2020-07-21T12:27:57.000Z</time>
      </trkpt>
      <trkpt lat="42.9995647" lon="-5.7705055">
        <ele>1157.64</ele>
        <time>2020-07-21T12:27:58.000Z</time>
      </trkpt>
      <trkpt lat="42.9995698" lon="-5.7704928">
        <ele>1157.64</ele>
        <time>2020-07-21T12:27:59.000Z</time>
      </trkpt>
      <trkpt lat="42.9995745" lon="-5.7704812">
        <ele>1157.8</ele>
        <time>2020-07-21T12:28:00.000Z</time>
      </trkpt>
      <trkpt lat="42.999578" lon="-5.7704693">
        <ele>1157.8</ele>
        <time>2020-07-21T12:28:01.000Z</time>
      </trkpt>
      <trkpt lat="42.9995828" lon="-5.7704583">
        <ele>1157.95</ele>
        <time>2020-07-21T12:28:02.000Z</time>
      </trkpt>
      <trkpt lat="42.9995877" lon="-5.7704473">
        <ele>1157.95</ele>
        <time>2020-07-21T12:28:03.000Z</time>
      </trkpt>
      <trkpt lat="42.9995922" lon="-5.7704347">
        <ele>1158.1</ele>
        <time>2020-07-21T12:28:04.000Z</time>
      </trkpt>
      <trkpt lat="42.9995958" lon="-5.7704222">
        <ele>1158.1</ele>
        <time>2020-07-21T12:28:05.000Z</time>
      </trkpt>
      <trkpt lat="42.9996007" lon="-5.7704077">
        <ele>1158.25</ele>
        <time>2020-07-21T12:28:06.000Z</time>
      </trkpt>
      <trkpt lat="42.9996053" lon="-5.7703945">
        <ele>1158.25</ele>
        <time>2020-07-21T12:28:07.000Z</time>
      </trkpt>
      <trkpt lat="42.9996105" lon="-5.7703813">
        <ele>1158.41</ele>
        <time>2020-07-21T12:28:08.000Z</time>
      </trkpt>
      <trkpt lat="42.999614" lon="-5.7703697">
        <ele>1158.41</ele>
        <time>2020-07-21T12:28:09.000Z</time>
      </trkpt>
      <trkpt lat="42.9996153" lon="-5.770358">
        <ele>1158.56</ele>
        <time>2020-07-21T12:28:10.000Z</time>
      </trkpt>
      <trkpt lat="42.9996153" lon="-5.7703465">
        <ele>1158.56</ele>
        <time>2020-07-21T12:28:11.000Z</time>
      </trkpt>
      <trkpt lat="42.9996142" lon="-5.7703327">
        <ele>1158.56</ele>
        <time>2020-07-21T12:28:12.000Z</time>
      </trkpt>
      <trkpt lat="42.9996115" lon="-5.7703157">
        <ele>1158.56</ele>
        <time>2020-07-21T12:28:13.000Z</time>
      </trkpt>
      <trkpt lat="42.9996082" lon="-5.770297">
        <ele>1158.71</ele>
        <time>2020-07-21T12:28:14.000Z</time>
      </trkpt>
      <trkpt lat="42.9996058" lon="-5.770279">
        <ele>1158.71</ele>
        <time>2020-07-21T12:28:15.000Z</time>
      </trkpt>
      <trkpt lat="42.9996075" lon="-5.7702623">
        <ele>1158.71</ele>
        <time>2020-07-21T12:28:16.000Z</time>
      </trkpt>
      <trkpt lat="42.9996112" lon="-5.7702443">
        <ele>1158.71</ele>
        <time>2020-07-21T12:28:17.000Z</time>
      </trkpt>
      <trkpt lat="42.9996127" lon="-5.7702255">
        <ele>1158.86</ele>
        <time>2020-07-21T12:28:18.000Z</time>
      </trkpt>
      <trkpt lat="42.999614" lon="-5.7702062">
        <ele>1158.86</ele>
        <time>2020-07-21T12:28:19.000Z</time>
      </trkpt>
      <trkpt lat="42.9996168" lon="-5.770189">
        <ele>1158.86</ele>
        <time>2020-07-21T12:28:20.000Z</time>
      </trkpt>
      <trkpt lat="42.9996228" lon="-5.7701735">
        <ele>1158.86</ele>
        <time>2020-07-21T12:28:21.000Z</time>
      </trkpt>
      <trkpt lat="42.9996285" lon="-5.7701593">
        <ele>1159.02</ele>
        <time>2020-07-21T12:28:22.000Z</time>
      </trkpt>
      <trkpt lat="42.9996275" lon="-5.7701477">
        <ele>1159.02</ele>
        <time>2020-07-21T12:28:23.000Z</time>
      </trkpt>
      <trkpt lat="42.999628" lon="-5.7701365">
        <ele>1159.02</ele>
        <time>2020-07-21T12:28:24.000Z</time>
      </trkpt>
      <trkpt lat="42.9996302" lon="-5.7701263">
        <ele>1159.02</ele>
        <time>2020-07-21T12:28:25.000Z</time>
      </trkpt>
      <trkpt lat="42.9996368" lon="-5.7701135">
        <ele>1159.17</ele>
        <time>2020-07-21T12:28:26.000Z</time>
      </trkpt>
      <trkpt lat="42.9996427" lon="-5.7701007">
        <ele>1159.17</ele>
        <time>2020-07-21T12:28:27.000Z</time>
      </trkpt>
      <trkpt lat="42.9996498" lon="-5.7700862">
        <ele>1159.32</ele>
        <time>2020-07-21T12:28:28.000Z</time>
      </trkpt>
      <trkpt lat="42.9996622" lon="-5.7700713">
        <ele>1159.32</ele>
        <time>2020-07-21T12:28:29.000Z</time>
      </trkpt>
      <trkpt lat="42.9996725" lon="-5.7700568">
        <ele>1159.32</ele>
        <time>2020-07-21T12:28:30.000Z</time>
      </trkpt>
      <trkpt lat="42.9996787" lon="-5.7700448">
        <ele>1159.32</ele>
        <time>2020-07-21T12:28:31.000Z</time>
      </trkpt>
      <trkpt lat="42.9996817" lon="-5.7700343">
        <ele>1159.47</ele>
        <time>2020-07-21T12:28:32.000Z</time>
      </trkpt>
      <trkpt lat="42.9996893" lon="-5.770024">
        <ele>1159.47</ele>
        <time>2020-07-21T12:28:33.000Z</time>
      </trkpt>
      <trkpt lat="42.9996993" lon="-5.7700138">
        <ele>1159.47</ele>
        <time>2020-07-21T12:28:34.000Z</time>
      </trkpt>
      <trkpt lat="42.99971" lon="-5.7700047">
        <ele>1159.47</ele>
        <time>2020-07-21T12:28:35.000Z</time>
      </trkpt>
      <trkpt lat="42.9997195" lon="-5.7699942">
        <ele>1159.63</ele>
        <time>2020-07-21T12:28:36.000Z</time>
      </trkpt>
      <trkpt lat="42.9997285" lon="-5.7699843">
        <ele>1159.63</ele>
        <time>2020-07-21T12:28:37.000Z</time>
      </trkpt>
      <trkpt lat="42.9997377" lon="-5.769973">
        <ele>1159.63</ele>
        <time>2020-07-21T12:28:38.000Z</time>
      </trkpt>
      <trkpt lat="42.999747" lon="-5.7699622">
        <ele>1159.63</ele>
        <time>2020-07-21T12:28:39.000Z</time>
      </trkpt>
      <trkpt lat="42.9997565" lon="-5.7699502">
        <ele>1159.78</ele>
        <time>2020-07-21T12:28:40.000Z</time>
      </trkpt>
      <trkpt lat="42.999763" lon="-5.7699402">
        <ele>1159.78</ele>
        <time>2020-07-21T12:28:41.000Z</time>
      </trkpt>
      <trkpt lat="42.9997667" lon="-5.7699302">
        <ele>1159.78</ele>
        <time>2020-07-21T12:28:42.000Z</time>
      </trkpt>
      <trkpt lat="42.9997665" lon="-5.7699198">
        <ele>1159.78</ele>
        <time>2020-07-21T12:28:43.000Z</time>
      </trkpt>
      <trkpt lat="42.9997673" lon="-5.7699093">
        <ele>1159.78</ele>
        <time>2020-07-21T12:28:44.000Z</time>
      </trkpt>
      <trkpt lat="42.9997692" lon="-5.7699023">
        <ele>1159.78</ele>
        <time>2020-07-21T12:28:45.000Z</time>
      </trkpt>
      <trkpt lat="42.9997772" lon="-5.7698977">
        <ele>1159.93</ele>
        <time>2020-07-21T12:28:46.000Z</time>
      </trkpt>
      <trkpt lat="42.9997855" lon="-5.7698943">
        <ele>1159.93</ele>
        <time>2020-07-21T12:28:47.000Z</time>
      </trkpt>
      <trkpt lat="42.9997928" lon="-5.7698902">
        <ele>1159.93</ele>
        <time>2020-07-21T12:28:48.000Z</time>
      </trkpt>
      <trkpt lat="42.9997945" lon="-5.7698855">
        <ele>1159.93</ele>
        <time>2020-07-21T12:28:49.000Z</time>
      </trkpt>
      <trkpt lat="42.9997895" lon="-5.7698815">
        <ele>1159.93</ele>
        <time>2020-07-21T12:28:50.000Z</time>
      </trkpt>
      <trkpt lat="42.9997857" lon="-5.769879">
        <ele>1159.93</ele>
        <time>2020-07-21T12:28:51.000Z</time>
      </trkpt>
      <trkpt lat="42.9997837" lon="-5.7698768">
        <ele>1159.93</ele>
        <time>2020-07-21T12:28:52.000Z</time>
      </trkpt>
      <trkpt lat="42.9997882" lon="-5.769877">
        <ele>1159.93</ele>
        <time>2020-07-21T12:28:53.000Z</time>
      </trkpt>
      <trkpt lat="42.9997902" lon="-5.7698798">
        <ele>1159.93</ele>
        <time>2020-07-21T12:28:54.000Z</time>
      </trkpt>
      <trkpt lat="42.9997917" lon="-5.7698847">
        <ele>1159.93</ele>
        <time>2020-07-21T12:28:55.000Z</time>
      </trkpt>
      <trkpt lat="42.9997905" lon="-5.7698873">
        <ele>1159.93</ele>
        <time>2020-07-21T12:28:56.000Z</time>
      </trkpt>
      <trkpt lat="42.999791" lon="-5.7698892">
        <ele>1159.93</ele>
        <time>2020-07-21T12:28:57.000Z</time>
      </trkpt>
      <trkpt lat="42.9997908" lon="-5.7698902">
        <ele>1159.93</ele>
        <time>2020-07-21T12:28:58.000Z</time>
      </trkpt>
      <trkpt lat="42.999791" lon="-5.7698922">
        <ele>1159.93</ele>
        <time>2020-07-21T12:28:59.000Z</time>
      </trkpt>
      <trkpt lat="42.9997918" lon="-5.7698927">
        <ele>1159.93</ele>
        <time>2020-07-21T12:29:00.000Z</time>
      </trkpt>
      <trkpt lat="42.9997912" lon="-5.7698918">
        <ele>1159.93</ele>
        <time>2020-07-21T12:29:01.000Z</time>
      </trkpt>
      <trkpt lat="42.9997917" lon="-5.7698898">
        <ele>1159.78</ele>
        <time>2020-07-21T12:29:02.000Z</time>
      </trkpt>
      <trkpt lat="42.9997903" lon="-5.7698873">
        <ele>1159.78</ele>
        <time>2020-07-21T12:29:03.000Z</time>
      </trkpt>
      <trkpt lat="42.9997922" lon="-5.7698847">
        <ele>1159.78</ele>
        <time>2020-07-21T12:29:04.000Z</time>
      </trkpt>
      <trkpt lat="42.9997943" lon="-5.7698832">
        <ele>1159.78</ele>
        <time>2020-07-21T12:29:05.000Z</time>
      </trkpt>
      <trkpt lat="42.9997982" lon="-5.7698813">
        <ele>1159.63</ele>
        <time>2020-07-21T12:29:06.000Z</time>
      </trkpt>
      <trkpt lat="42.9998" lon="-5.7698787">
        <ele>1159.63</ele>
        <time>2020-07-21T12:29:07.000Z</time>
      </trkpt>
      <trkpt lat="42.9998007" lon="-5.7698733">
        <ele>1159.47</ele>
        <time>2020-07-21T12:29:08.000Z</time>
      </trkpt>
      <trkpt lat="42.9998022" lon="-5.7698687">
        <ele>1159.47</ele>
        <time>2020-07-21T12:29:09.000Z</time>
      </trkpt>
      <trkpt lat="42.9998072" lon="-5.7698635">
        <ele>1159.17</ele>
        <time>2020-07-21T12:29:10.000Z</time>
      </trkpt>
      <trkpt lat="42.9998143" lon="-5.769859">
        <ele>1159.17</ele>
        <time>2020-07-21T12:29:11.000Z</time>
      </trkpt>
      <trkpt lat="42.9998205" lon="-5.7698525">
        <ele>1159.02</ele>
        <time>2020-07-21T12:29:12.000Z</time>
      </trkpt>
      <trkpt lat="42.9998253" lon="-5.7698453">
        <ele>1159.02</ele>
        <time>2020-07-21T12:29:13.000Z</time>
      </trkpt>
      <trkpt lat="42.9998277" lon="-5.7698385">
        <ele>1158.86</ele>
        <time>2020-07-21T12:29:14.000Z</time>
      </trkpt>
      <trkpt lat="42.9998312" lon="-5.7698332">
        <ele>1158.86</ele>
        <time>2020-07-21T12:29:15.000Z</time>
      </trkpt>
      <trkpt lat="42.999833" lon="-5.7698275">
        <ele>1158.56</ele>
        <time>2020-07-21T12:29:16.000Z</time>
      </trkpt>
      <trkpt lat="42.999835" lon="-5.769819">
        <ele>1158.56</ele>
        <time>2020-07-21T12:29:17.000Z</time>
      </trkpt>
      <trkpt lat="42.9998362" lon="-5.769809">
        <ele>1158.41</ele>
        <time>2020-07-21T12:29:18.000Z</time>
      </trkpt>
      <trkpt lat="42.9998388" lon="-5.7698007">
        <ele>1158.41</ele>
        <time>2020-07-21T12:29:19.000Z</time>
      </trkpt>
      <trkpt lat="42.9998425" lon="-5.7697957">
        <ele>1158.1</ele>
        <time>2020-07-21T12:29:20.000Z</time>
      </trkpt>
      <trkpt lat="42.9998452" lon="-5.7697908">
        <ele>1158.1</ele>
        <time>2020-07-21T12:29:21.000Z</time>
      </trkpt>
      <trkpt lat="42.9998477" lon="-5.7697867">
        <ele>1157.8</ele>
        <time>2020-07-21T12:29:22.000Z</time>
      </trkpt>
      <trkpt lat="42.9998505" lon="-5.7697833">
        <ele>1157.8</ele>
        <time>2020-07-21T12:29:23.000Z</time>
      </trkpt>
      <trkpt lat="42.9998525" lon="-5.7697812">
        <ele>1157.49</ele>
        <time>2020-07-21T12:29:24.000Z</time>
      </trkpt>
      <trkpt lat="42.9998538" lon="-5.7697793">
        <ele>1157.49</ele>
        <time>2020-07-21T12:29:25.000Z</time>
      </trkpt>
      <trkpt lat="42.9998538" lon="-5.7697788">
        <ele>1157.19</ele>
        <time>2020-07-21T12:29:26.000Z</time>
      </trkpt>
      <trkpt lat="42.9998557" lon="-5.76978">
        <ele>1157.19</ele>
        <time>2020-07-21T12:29:27.000Z</time>
      </trkpt>
      <trkpt lat="42.9998568" lon="-5.7697808">
        <ele>1156.88</ele>
        <time>2020-07-21T12:29:28.000Z</time>
      </trkpt>
      <trkpt lat="42.99986" lon="-5.76978">
        <ele>1156.88</ele>
        <time>2020-07-21T12:29:29.000Z</time>
      </trkpt>
      <trkpt lat="42.999864" lon="-5.7697787">
        <ele>1156.58</ele>
        <time>2020-07-21T12:29:30.000Z</time>
      </trkpt>
      <trkpt lat="42.9998695" lon="-5.7697775">
        <ele>1156.58</ele>
        <time>2020-07-21T12:29:31.000Z</time>
      </trkpt>
      <trkpt lat="42.999873" lon="-5.7697762">
        <ele>1156.12</ele>
        <time>2020-07-21T12:29:32.000Z</time>
      </trkpt>
      <trkpt lat="42.9998743" lon="-5.7697732">
        <ele>1156.12</ele>
        <time>2020-07-21T12:29:33.000Z</time>
      </trkpt>
      <trkpt lat="42.9998742" lon="-5.769769">
        <ele>1155.82</ele>
        <time>2020-07-21T12:29:34.000Z</time>
      </trkpt>
      <trkpt lat="42.9998743" lon="-5.7697643">
        <ele>1155.82</ele>
        <time>2020-07-21T12:29:35.000Z</time>
      </trkpt>
      <trkpt lat="42.9998745" lon="-5.7697623">
        <ele>1155.36</ele>
        <time>2020-07-21T12:29:36.000Z</time>
      </trkpt>
      <trkpt lat="42.999875" lon="-5.7697627">
        <ele>1155.36</ele>
        <time>2020-07-21T12:29:37.000Z</time>
      </trkpt>
      <trkpt lat="42.9998732" lon="-5.7697645">
        <ele>1155.05</ele>
        <time>2020-07-21T12:29:38.000Z</time>
      </trkpt>
      <trkpt lat="42.9998708" lon="-5.7697655">
        <ele>1155.05</ele>
        <time>2020-07-21T12:29:39.000Z</time>
      </trkpt>
      <trkpt lat="42.9998677" lon="-5.7697655">
        <ele>1154.6</ele>
        <time>2020-07-21T12:29:40.000Z</time>
      </trkpt>
      <trkpt lat="42.9998678" lon="-5.7697668">
        <ele>1154.6</ele>
        <time>2020-07-21T12:29:41.000Z</time>
      </trkpt>
      <trkpt lat="42.9998697" lon="-5.769768">
        <ele>1154.29</ele>
        <time>2020-07-21T12:29:42.000Z</time>
      </trkpt>
      <trkpt lat="42.9998728" lon="-5.7697695">
        <ele>1154.29</ele>
        <time>2020-07-21T12:29:43.000Z</time>
      </trkpt>
      <trkpt lat="42.9998743" lon="-5.7697693">
        <ele>1153.99</ele>
        <time>2020-07-21T12:29:44.000Z</time>
      </trkpt>
      <trkpt lat="42.9998755" lon="-5.7697687">
        <ele>1153.99</ele>
        <time>2020-07-21T12:29:45.000Z</time>
      </trkpt>
      <trkpt lat="42.999877" lon="-5.7697675">
        <ele>1153.68</ele>
        <time>2020-07-21T12:29:46.000Z</time>
      </trkpt>
      <trkpt lat="42.99988" lon="-5.769767">
        <ele>1153.68</ele>
        <time>2020-07-21T12:29:47.000Z</time>
      </trkpt>
      <trkpt lat="42.9998837" lon="-5.7697655">
        <ele>1153.38</ele>
        <time>2020-07-21T12:29:48.000Z</time>
      </trkpt>
      <trkpt lat="42.9998865" lon="-5.7697637">
        <ele>1153.38</ele>
        <time>2020-07-21T12:29:49.000Z</time>
      </trkpt>
      <trkpt lat="42.9998905" lon="-5.7697593">
        <ele>1153.07</ele>
        <time>2020-07-21T12:29:50.000Z</time>
      </trkpt>
      <trkpt lat="42.9998947" lon="-5.7697557">
        <ele>1153.07</ele>
        <time>2020-07-21T12:29:51.000Z</time>
      </trkpt>
      <trkpt lat="42.9999022" lon="-5.7697517">
        <ele>1152.77</ele>
        <time>2020-07-21T12:29:52.000Z</time>
      </trkpt>
      <trkpt lat="42.999909" lon="-5.7697518">
        <ele>1152.77</ele>
        <time>2020-07-21T12:29:53.000Z</time>
      </trkpt>
      <trkpt lat="42.999918" lon="-5.7697542">
        <ele>1152.31</ele>
        <time>2020-07-21T12:29:54.000Z</time>
      </trkpt>
      <trkpt lat="42.9999257" lon="-5.7697582">
        <ele>1152.31</ele>
        <time>2020-07-21T12:29:55.000Z</time>
      </trkpt>
      <trkpt lat="42.9999325" lon="-5.7697598">
        <ele>1152.01</ele>
        <time>2020-07-21T12:29:56.000Z</time>
      </trkpt>
      <trkpt lat="42.9999368" lon="-5.7697592">
        <ele>1152.01</ele>
        <time>2020-07-21T12:29:57.000Z</time>
      </trkpt>
      <trkpt lat="42.9999407" lon="-5.7697588">
        <ele>1151.55</ele>
        <time>2020-07-21T12:29:58.000Z</time>
      </trkpt>
      <trkpt lat="42.999945" lon="-5.7697597">
        <ele>1151.55</ele>
        <time>2020-07-21T12:29:59.000Z</time>
      </trkpt>
      <trkpt lat="42.9999488" lon="-5.7697593">
        <ele>1151.09</ele>
        <time>2020-07-21T12:30:00.000Z</time>
      </trkpt>
      <trkpt lat="42.9999548" lon="-5.7697592">
        <ele>1151.09</ele>
        <time>2020-07-21T12:30:01.000Z</time>
      </trkpt>
      <trkpt lat="42.9999613" lon="-5.7697587">
        <ele>1150.63</ele>
        <time>2020-07-21T12:30:02.000Z</time>
      </trkpt>
      <trkpt lat="42.9999685" lon="-5.7697607">
        <ele>1150.63</ele>
        <time>2020-07-21T12:30:03.000Z</time>
      </trkpt>
      <trkpt lat="42.9999718" lon="-5.769762">
        <ele>1150.18</ele>
        <time>2020-07-21T12:30:04.000Z</time>
      </trkpt>
      <trkpt lat="42.9999758" lon="-5.7697643">
        <ele>1150.18</ele>
        <time>2020-07-21T12:30:05.000Z</time>
      </trkpt>
      <trkpt lat="42.9999818" lon="-5.7697692">
        <ele>1149.72</ele>
        <time>2020-07-21T12:30:06.000Z</time>
      </trkpt>
      <trkpt lat="42.9999903" lon="-5.7697748">
        <ele>1149.72</ele>
        <time>2020-07-21T12:30:07.000Z</time>
      </trkpt>
      <trkpt lat="43.000002" lon="-5.7697753">
        <ele>1149.26</ele>
        <time>2020-07-21T12:30:08.000Z</time>
      </trkpt>
      <trkpt lat="43.0000117" lon="-5.7697683">
        <ele>1149.26</ele>
        <time>2020-07-21T12:30:09.000Z</time>
      </trkpt>
      <trkpt lat="43.0000198" lon="-5.7697608">
        <ele>1148.81</ele>
        <time>2020-07-21T12:30:10.000Z</time>
      </trkpt>
      <trkpt lat="43.0000245" lon="-5.7697572">
        <ele>1148.81</ele>
        <time>2020-07-21T12:30:11.000Z</time>
      </trkpt>
      <trkpt lat="43.000028" lon="-5.7697585">
        <ele>1148.35</ele>
        <time>2020-07-21T12:30:12.000Z</time>
      </trkpt>
      <trkpt lat="43.0000305" lon="-5.7697602">
        <ele>1148.35</ele>
        <time>2020-07-21T12:30:13.000Z</time>
      </trkpt>
      <trkpt lat="43.0000313" lon="-5.7697623">
        <ele>1148.04</ele>
        <time>2020-07-21T12:30:14.000Z</time>
      </trkpt>
      <trkpt lat="43.0000318" lon="-5.7697625">
        <ele>1148.04</ele>
        <time>2020-07-21T12:30:15.000Z</time>
      </trkpt>
      <trkpt lat="43.0000325" lon="-5.7697613">
        <ele>1147.59</ele>
        <time>2020-07-21T12:30:16.000Z</time>
      </trkpt>
      <trkpt lat="43.0000333" lon="-5.7697582">
        <ele>1147.59</ele>
        <time>2020-07-21T12:30:17.000Z</time>
      </trkpt>
      <trkpt lat="43.0000342" lon="-5.7697557">
        <ele>1147.13</ele>
        <time>2020-07-21T12:30:18.000Z</time>
      </trkpt>
      <trkpt lat="43.000037" lon="-5.7697518">
        <ele>1147.13</ele>
        <time>2020-07-21T12:30:19.000Z</time>
      </trkpt>
      <trkpt lat="43.0000415" lon="-5.769748">
        <ele>1146.82</ele>
        <time>2020-07-21T12:30:20.000Z</time>
      </trkpt>
      <trkpt lat="43.0000443" lon="-5.769743">
        <ele>1146.82</ele>
        <time>2020-07-21T12:30:21.000Z</time>
      </trkpt>
      <trkpt lat="43.0000467" lon="-5.7697392">
        <ele>1146.37</ele>
        <time>2020-07-21T12:30:22.000Z</time>
      </trkpt>
      <trkpt lat="43.0000487" lon="-5.7697373">
        <ele>1146.37</ele>
        <time>2020-07-21T12:30:23.000Z</time>
      </trkpt>
      <trkpt lat="43.0000538" lon="-5.7697365">
        <ele>1145.91</ele>
        <time>2020-07-21T12:30:24.000Z</time>
      </trkpt>
      <trkpt lat="43.0000605" lon="-5.7697352">
        <ele>1145.91</ele>
        <time>2020-07-21T12:30:25.000Z</time>
      </trkpt>
      <trkpt lat="43.000067" lon="-5.7697315">
        <ele>1145.45</ele>
        <time>2020-07-21T12:30:26.000Z</time>
      </trkpt>
      <trkpt lat="43.0000742" lon="-5.7697263">
        <ele>1145.45</ele>
        <time>2020-07-21T12:30:27.000Z</time>
      </trkpt>
      <trkpt lat="43.0000805" lon="-5.7697202">
        <ele>1145.15</ele>
        <time>2020-07-21T12:30:28.000Z</time>
      </trkpt>
      <trkpt lat="43.0000888" lon="-5.7697157">
        <ele>1145.15</ele>
        <time>2020-07-21T12:30:29.000Z</time>
      </trkpt>
      <trkpt lat="43.000097" lon="-5.7697113">
        <ele>1144.69</ele>
        <time>2020-07-21T12:30:30.000Z</time>
      </trkpt>
      <trkpt lat="43.0001068" lon="-5.7697065">
        <ele>1144.69</ele>
        <time>2020-07-21T12:30:31.000Z</time>
      </trkpt>
      <trkpt lat="43.0001187" lon="-5.7697013">
        <ele>1144.23</ele>
        <time>2020-07-21T12:30:32.000Z</time>
      </trkpt>
      <trkpt lat="43.0001322" lon="-5.7696977">
        <ele>1144.23</ele>
        <time>2020-07-21T12:30:33.000Z</time>
      </trkpt>
      <trkpt lat="43.0001468" lon="-5.7696943">
        <ele>1143.78</ele>
        <time>2020-07-21T12:30:34.000Z</time>
      </trkpt>
      <trkpt lat="43.0001612" lon="-5.7696883">
        <ele>1143.78</ele>
        <time>2020-07-21T12:30:35.000Z</time>
      </trkpt>
      <trkpt lat="43.0001733" lon="-5.7696823">
        <ele>1143.47</ele>
        <time>2020-07-21T12:30:36.000Z</time>
      </trkpt>
      <trkpt lat="43.0001827" lon="-5.769677">
        <ele>1143.47</ele>
        <time>2020-07-21T12:30:37.000Z</time>
      </trkpt>
      <trkpt lat="43.000187" lon="-5.7696737">
        <ele>1143.01</ele>
        <time>2020-07-21T12:30:38.000Z</time>
      </trkpt>
      <trkpt lat="43.0001915" lon="-5.769672">
        <ele>1143.01</ele>
        <time>2020-07-21T12:30:39.000Z</time>
      </trkpt>
      <trkpt lat="43.0001915" lon="-5.7696727">
        <ele>1142.71</ele>
        <time>2020-07-21T12:30:40.000Z</time>
      </trkpt>
      <trkpt lat="43.000186" lon="-5.7696722">
        <ele>1142.71</ele>
        <time>2020-07-21T12:30:41.000Z</time>
      </trkpt>
      <trkpt lat="43.000175" lon="-5.7696703">
        <ele>1142.25</ele>
        <time>2020-07-21T12:30:42.000Z</time>
      </trkpt>
      <trkpt lat="43.0001633" lon="-5.7696663">
        <ele>1142.25</ele>
        <time>2020-07-21T12:30:43.000Z</time>
      </trkpt>
      <trkpt lat="43.000158" lon="-5.7696638">
        <ele>1141.95</ele>
        <time>2020-07-21T12:30:44.000Z</time>
      </trkpt>
      <trkpt lat="43.0001562" lon="-5.7696618">
        <ele>1141.95</ele>
        <time>2020-07-21T12:30:45.000Z</time>
      </trkpt>
      <trkpt lat="43.0001593" lon="-5.7696608">
        <ele>1141.49</ele>
        <time>2020-07-21T12:30:46.000Z</time>
      </trkpt>
      <trkpt lat="43.0001638" lon="-5.7696592">
        <ele>1141.49</ele>
        <time>2020-07-21T12:30:47.000Z</time>
      </trkpt>
      <trkpt lat="43.0001698" lon="-5.7696555">
        <ele>1141.19</ele>
        <time>2020-07-21T12:30:48.000Z</time>
      </trkpt>
      <trkpt lat="43.0001778" lon="-5.7696487">
        <ele>1141.19</ele>
        <time>2020-07-21T12:30:49.000Z</time>
      </trkpt>
      <trkpt lat="43.0001872" lon="-5.7696403">
        <ele>1140.73</ele>
        <time>2020-07-21T12:30:50.000Z</time>
      </trkpt>
      <trkpt lat="43.0001953" lon="-5.7696303">
        <ele>1140.73</ele>
        <time>2020-07-21T12:30:51.000Z</time>
      </trkpt>
      <trkpt lat="43.0002025" lon="-5.7696217">
        <ele>1140.27</ele>
        <time>2020-07-21T12:30:52.000Z</time>
      </trkpt>
      <trkpt lat="43.0002078" lon="-5.7696137">
        <ele>1140.27</ele>
        <time>2020-07-21T12:30:53.000Z</time>
      </trkpt>
      <trkpt lat="43.0002138" lon="-5.7696067">
        <ele>1139.81</ele>
        <time>2020-07-21T12:30:54.000Z</time>
      </trkpt>
      <trkpt lat="43.0002198" lon="-5.7695985">
        <ele>1139.81</ele>
        <time>2020-07-21T12:30:55.000Z</time>
      </trkpt>
      <trkpt lat="43.0002262" lon="-5.7695905">
        <ele>1139.36</ele>
        <time>2020-07-21T12:30:56.000Z</time>
      </trkpt>
      <trkpt lat="43.000233" lon="-5.7695855">
        <ele>1139.36</ele>
        <time>2020-07-21T12:30:57.000Z</time>
      </trkpt>
      <trkpt lat="43.0002387" lon="-5.7695837">
        <ele>1138.9</ele>
        <time>2020-07-21T12:30:58.000Z</time>
      </trkpt>
      <trkpt lat="43.0002463" lon="-5.7695848">
        <ele>1138.9</ele>
        <time>2020-07-21T12:30:59.000Z</time>
      </trkpt>
      <trkpt lat="43.0002578" lon="-5.769582">
        <ele>1138.44</ele>
        <time>2020-07-21T12:31:00.000Z</time>
      </trkpt>
      <trkpt lat="43.0002738" lon="-5.7695745">
        <ele>1138.44</ele>
        <time>2020-07-21T12:31:01.000Z</time>
      </trkpt>
      <trkpt lat="43.0002883" lon="-5.7695617">
        <ele>1137.98</ele>
        <time>2020-07-21T12:31:02.000Z</time>
      </trkpt>
      <trkpt lat="43.0002968" lon="-5.769548">
        <ele>1137.98</ele>
        <time>2020-07-21T12:31:03.000Z</time>
      </trkpt>
      <trkpt lat="43.000302" lon="-5.7695375">
        <ele>1137.53</ele>
        <time>2020-07-21T12:31:04.000Z</time>
      </trkpt>
      <trkpt lat="43.0003088" lon="-5.7695317">
        <ele>1137.53</ele>
        <time>2020-07-21T12:31:05.000Z</time>
      </trkpt>
      <trkpt lat="43.0003158" lon="-5.7695307">
        <ele>1136.92</ele>
        <time>2020-07-21T12:31:06.000Z</time>
      </trkpt>
      <trkpt lat="43.00032" lon="-5.7695302">
        <ele>1136.92</ele>
        <time>2020-07-21T12:31:07.000Z</time>
      </trkpt>
      <trkpt lat="43.0003267" lon="-5.7695318">
        <ele>1136.46</ele>
        <time>2020-07-21T12:31:08.000Z</time>
      </trkpt>
      <trkpt lat="43.0003343" lon="-5.7695343">
        <ele>1136.46</ele>
        <time>2020-07-21T12:31:09.000Z</time>
      </trkpt>
      <trkpt lat="43.0003425" lon="-5.7695388">
        <ele>1136</ele>
        <time>2020-07-21T12:31:10.000Z</time>
      </trkpt>
      <trkpt lat="43.0003447" lon="-5.7695407">
        <ele>1136</ele>
        <time>2020-07-21T12:31:11.000Z</time>
      </trkpt>
      <trkpt lat="43.0003508" lon="-5.7695433">
        <ele>1135.39</ele>
        <time>2020-07-21T12:31:12.000Z</time>
      </trkpt>
      <trkpt lat="43.000358" lon="-5.7695468">
        <ele>1135.39</ele>
        <time>2020-07-21T12:31:13.000Z</time>
      </trkpt>
      <trkpt lat="43.0003657" lon="-5.7695512">
        <ele>1134.94</ele>
        <time>2020-07-21T12:31:14.000Z</time>
      </trkpt>
      <trkpt lat="43.0003673" lon="-5.7695558">
        <ele>1134.94</ele>
        <time>2020-07-21T12:31:15.000Z</time>
      </trkpt>
      <trkpt lat="43.0003705" lon="-5.7695632">
        <ele>1134.33</ele>
        <time>2020-07-21T12:31:16.000Z</time>
      </trkpt>
      <trkpt lat="43.0003762" lon="-5.7695738">
        <ele>1134.33</ele>
        <time>2020-07-21T12:31:17.000Z</time>
      </trkpt>
      <trkpt lat="43.0003865" lon="-5.769586">
        <ele>1133.87</ele>
        <time>2020-07-21T12:31:18.000Z</time>
      </trkpt>
      <trkpt lat="43.0003965" lon="-5.7695955">
        <ele>1133.87</ele>
        <time>2020-07-21T12:31:19.000Z</time>
      </trkpt>
      <trkpt lat="43.0004045" lon="-5.7696042">
        <ele>1133.26</ele>
        <time>2020-07-21T12:31:20.000Z</time>
      </trkpt>
      <trkpt lat="43.0004115" lon="-5.7696123">
        <ele>1133.26</ele>
        <time>2020-07-21T12:31:21.000Z</time>
      </trkpt>
      <trkpt lat="43.0004207" lon="-5.7696227">
        <ele>1132.65</ele>
        <time>2020-07-21T12:31:22.000Z</time>
      </trkpt>
      <trkpt lat="43.0004332" lon="-5.7696322">
        <ele>1132.65</ele>
        <time>2020-07-21T12:31:23.000Z</time>
      </trkpt>
      <trkpt lat="43.000447" lon="-5.7696425">
        <ele>1132.04</ele>
        <time>2020-07-21T12:31:24.000Z</time>
      </trkpt>
      <trkpt lat="43.0004585" lon="-5.7696523">
        <ele>1132.04</ele>
        <time>2020-07-21T12:31:25.000Z</time>
      </trkpt>
      <trkpt lat="43.0004685" lon="-5.7696623">
        <ele>1131.43</ele>
        <time>2020-07-21T12:31:26.000Z</time>
      </trkpt>
      <trkpt lat="43.0004777" lon="-5.7696723">
        <ele>1131.43</ele>
        <time>2020-07-21T12:31:27.000Z</time>
      </trkpt>
      <trkpt lat="43.0004875" lon="-5.7696837">
        <ele>1130.97</ele>
        <time>2020-07-21T12:31:28.000Z</time>
      </trkpt>
      <trkpt lat="43.0004962" lon="-5.7696942">
        <ele>1130.97</ele>
        <time>2020-07-21T12:31:29.000Z</time>
      </trkpt>
      <trkpt lat="43.0005055" lon="-5.7697038">
        <ele>1130.36</ele>
        <time>2020-07-21T12:31:30.000Z</time>
      </trkpt>
      <trkpt lat="43.0005133" lon="-5.7697108">
        <ele>1130.36</ele>
        <time>2020-07-21T12:31:31.000Z</time>
      </trkpt>
      <trkpt lat="43.0005218" lon="-5.7697187">
        <ele>1129.76</ele>
        <time>2020-07-21T12:31:32.000Z</time>
      </trkpt>
      <trkpt lat="43.0005293" lon="-5.7697268">
        <ele>1129.76</ele>
        <time>2020-07-21T12:31:33.000Z</time>
      </trkpt>
      <trkpt lat="43.0005362" lon="-5.7697353">
        <ele>1129.15</ele>
        <time>2020-07-21T12:31:34.000Z</time>
      </trkpt>
      <trkpt lat="43.0005373" lon="-5.769739">
        <ele>1129.15</ele>
        <time>2020-07-21T12:31:35.000Z</time>
      </trkpt>
      <trkpt lat="43.0005367" lon="-5.7697398">
        <ele>1128.38</ele>
        <time>2020-07-21T12:31:36.000Z</time>
      </trkpt>
      <trkpt lat="43.0005345" lon="-5.7697392">
        <ele>1128.38</ele>
        <time>2020-07-21T12:31:37.000Z</time>
      </trkpt>
      <trkpt lat="43.0005342" lon="-5.76974">
        <ele>1127.77</ele>
        <time>2020-07-21T12:31:38.000Z</time>
      </trkpt>
      <trkpt lat="43.0005342" lon="-5.7697405">
        <ele>1127.77</ele>
        <time>2020-07-21T12:31:39.000Z</time>
      </trkpt>
      <trkpt lat="43.000536" lon="-5.769742">
        <ele>1127.16</ele>
        <time>2020-07-21T12:31:40.000Z</time>
      </trkpt>
      <trkpt lat="43.0005408" lon="-5.769746">
        <ele>1127.16</ele>
        <time>2020-07-21T12:31:41.000Z</time>
      </trkpt>
      <trkpt lat="43.0005467" lon="-5.7697537">
        <ele>1126.4</ele>
        <time>2020-07-21T12:31:42.000Z</time>
      </trkpt>
      <trkpt lat="43.0005535" lon="-5.7697638">
        <ele>1126.4</ele>
        <time>2020-07-21T12:31:43.000Z</time>
      </trkpt>
      <trkpt lat="43.0005607" lon="-5.7697763">
        <ele>1125.79</ele>
        <time>2020-07-21T12:31:44.000Z</time>
      </trkpt>
      <trkpt lat="43.0005697" lon="-5.7697888">
        <ele>1125.79</ele>
        <time>2020-07-21T12:31:45.000Z</time>
      </trkpt>
      <trkpt lat="43.000579" lon="-5.7698003">
        <ele>1125.18</ele>
        <time>2020-07-21T12:31:46.000Z</time>
      </trkpt>
      <trkpt lat="43.0005892" lon="-5.7698105">
        <ele>1125.18</ele>
        <time>2020-07-21T12:31:47.000Z</time>
      </trkpt>
      <trkpt lat="43.0006002" lon="-5.7698203">
        <ele>1124.42</ele>
        <time>2020-07-21T12:31:48.000Z</time>
      </trkpt>
      <trkpt lat="43.0006105" lon="-5.7698302">
        <ele>1124.42</ele>
        <time>2020-07-21T12:31:49.000Z</time>
      </trkpt>
      <trkpt lat="43.0006207" lon="-5.7698393">
        <ele>1123.81</ele>
        <time>2020-07-21T12:31:50.000Z</time>
      </trkpt>
      <trkpt lat="43.0006287" lon="-5.7698473">
        <ele>1123.81</ele>
        <time>2020-07-21T12:31:51.000Z</time>
      </trkpt>
      <trkpt lat="43.0006377" lon="-5.7698543">
        <ele>1123.2</ele>
        <time>2020-07-21T12:31:52.000Z</time>
      </trkpt>
      <trkpt lat="43.0006457" lon="-5.769861">
        <ele>1123.2</ele>
        <time>2020-07-21T12:31:53.000Z</time>
      </trkpt>
      <trkpt lat="43.0006545" lon="-5.769868">
        <ele>1122.59</ele>
        <time>2020-07-21T12:31:54.000Z</time>
      </trkpt>
      <trkpt lat="43.0006645" lon="-5.769877">
        <ele>1122.59</ele>
        <time>2020-07-21T12:31:55.000Z</time>
      </trkpt>
      <trkpt lat="43.0006767" lon="-5.769889">
        <ele>1121.98</ele>
        <time>2020-07-21T12:31:56.000Z</time>
      </trkpt>
      <trkpt lat="43.0006888" lon="-5.7699022">
        <ele>1121.98</ele>
        <time>2020-07-21T12:31:57.000Z</time>
      </trkpt>
      <trkpt lat="43.0006992" lon="-5.7699157">
        <ele>1121.37</ele>
        <time>2020-07-21T12:31:58.000Z</time>
      </trkpt>
      <trkpt lat="43.000708" lon="-5.7699268">
        <ele>1121.37</ele>
        <time>2020-07-21T12:31:59.000Z</time>
      </trkpt>
      <trkpt lat="43.0007175" lon="-5.7699365">
        <ele>1120.76</ele>
        <time>2020-07-21T12:32:00.000Z</time>
      </trkpt>
      <trkpt lat="43.0007278" lon="-5.7699445">
        <ele>1120.76</ele>
        <time>2020-07-21T12:32:01.000Z</time>
      </trkpt>
      <trkpt lat="43.0007373" lon="-5.7699528">
        <ele>1120.15</ele>
        <time>2020-07-21T12:32:02.000Z</time>
      </trkpt>
      <trkpt lat="43.0007443" lon="-5.7699628">
        <ele>1120.15</ele>
        <time>2020-07-21T12:32:03.000Z</time>
      </trkpt>
      <trkpt lat="43.0007508" lon="-5.7699753">
        <ele>1119.54</ele>
        <time>2020-07-21T12:32:04.000Z</time>
      </trkpt>
      <trkpt lat="43.0007593" lon="-5.769989">
        <ele>1119.54</ele>
        <time>2020-07-21T12:32:05.000Z</time>
      </trkpt>
      <trkpt lat="43.00077" lon="-5.7700002">
        <ele>1118.93</ele>
        <time>2020-07-21T12:32:06.000Z</time>
      </trkpt>
      <trkpt lat="43.0007787" lon="-5.7700092">
        <ele>1118.93</ele>
        <time>2020-07-21T12:32:07.000Z</time>
      </trkpt>
      <trkpt lat="43.0007872" lon="-5.7700195">
        <ele>1118.32</ele>
        <time>2020-07-21T12:32:08.000Z</time>
      </trkpt>
      <trkpt lat="43.0007945" lon="-5.7700312">
        <ele>1118.32</ele>
        <time>2020-07-21T12:32:09.000Z</time>
      </trkpt>
      <trkpt lat="43.0008048" lon="-5.7700445">
        <ele>1117.71</ele>
        <time>2020-07-21T12:32:10.000Z</time>
      </trkpt>
      <trkpt lat="43.0008137" lon="-5.7700572">
        <ele>1117.71</ele>
        <time>2020-07-21T12:32:11.000Z</time>
      </trkpt>
      <trkpt lat="43.0008223" lon="-5.7700712">
        <ele>1117.26</ele>
        <time>2020-07-21T12:32:12.000Z</time>
      </trkpt>
      <trkpt lat="43.0008297" lon="-5.770084">
        <ele>1117.26</ele>
        <time>2020-07-21T12:32:13.000Z</time>
      </trkpt>
      <trkpt lat="43.0008375" lon="-5.7700965">
        <ele>1116.65</ele>
        <time>2020-07-21T12:32:14.000Z</time>
      </trkpt>
      <trkpt lat="43.0008457" lon="-5.7701082">
        <ele>1116.65</ele>
        <time>2020-07-21T12:32:15.000Z</time>
      </trkpt>
      <trkpt lat="43.0008537" lon="-5.7701218">
        <ele>1116.04</ele>
        <time>2020-07-21T12:32:16.000Z</time>
      </trkpt>
      <trkpt lat="43.0008612" lon="-5.7701338">
        <ele>1116.04</ele>
        <time>2020-07-21T12:32:17.000Z</time>
      </trkpt>
      <trkpt lat="43.0008687" lon="-5.7701458">
        <ele>1115.43</ele>
        <time>2020-07-21T12:32:18.000Z</time>
      </trkpt>
      <trkpt lat="43.0008778" lon="-5.7701572">
        <ele>1115.43</ele>
        <time>2020-07-21T12:32:19.000Z</time>
      </trkpt>
      <trkpt lat="43.0008882" lon="-5.7701697">
        <ele>1114.97</ele>
        <time>2020-07-21T12:32:20.000Z</time>
      </trkpt>
      <trkpt lat="43.0008975" lon="-5.770182">
        <ele>1114.97</ele>
        <time>2020-07-21T12:32:21.000Z</time>
      </trkpt>
      <trkpt lat="43.0009055" lon="-5.7701943">
        <ele>1114.36</ele>
        <time>2020-07-21T12:32:22.000Z</time>
      </trkpt>
      <trkpt lat="43.0009142" lon="-5.7702065">
        <ele>1114.36</ele>
        <time>2020-07-21T12:32:23.000Z</time>
      </trkpt>
      <trkpt lat="43.000925" lon="-5.7702187">
        <ele>1113.75</ele>
        <time>2020-07-21T12:32:24.000Z</time>
      </trkpt>
      <trkpt lat="43.0009363" lon="-5.7702313">
        <ele>1113.75</ele>
        <time>2020-07-21T12:32:25.000Z</time>
      </trkpt>
      <trkpt lat="43.0009465" lon="-5.7702445">
        <ele>1113.3</ele>
        <time>2020-07-21T12:32:26.000Z</time>
      </trkpt>
      <trkpt lat="43.0009562" lon="-5.7702583">
        <ele>1113.3</ele>
        <time>2020-07-21T12:32:27.000Z</time>
      </trkpt>
      <trkpt lat="43.0009653" lon="-5.7702693">
        <ele>1112.69</ele>
        <time>2020-07-21T12:32:28.000Z</time>
      </trkpt>
      <trkpt lat="43.0009753" lon="-5.7702797">
        <ele>1112.69</ele>
        <time>2020-07-21T12:32:29.000Z</time>
      </trkpt>
      <trkpt lat="43.0009848" lon="-5.7702902">
        <ele>1112.08</ele>
        <time>2020-07-21T12:32:30.000Z</time>
      </trkpt>
      <trkpt lat="43.0009938" lon="-5.7703015">
        <ele>1112.08</ele>
        <time>2020-07-21T12:32:31.000Z</time>
      </trkpt>
      <trkpt lat="43.0010015" lon="-5.7703135">
        <ele>1111.31</ele>
        <time>2020-07-21T12:32:32.000Z</time>
      </trkpt>
      <trkpt lat="43.0010082" lon="-5.770326">
        <ele>1111.31</ele>
        <time>2020-07-21T12:32:33.000Z</time>
      </trkpt>
      <trkpt lat="43.001015" lon="-5.7703393">
        <ele>1110.7</ele>
        <time>2020-07-21T12:32:34.000Z</time>
      </trkpt>
      <trkpt lat="43.0010212" lon="-5.7703532">
        <ele>1110.7</ele>
        <time>2020-07-21T12:32:35.000Z</time>
      </trkpt>
      <trkpt lat="43.0010263" lon="-5.7703662">
        <ele>1110.09</ele>
        <time>2020-07-21T12:32:36.000Z</time>
      </trkpt>
      <trkpt lat="43.0010305" lon="-5.7703787">
        <ele>1110.09</ele>
        <time>2020-07-21T12:32:37.000Z</time>
      </trkpt>
      <trkpt lat="43.0010343" lon="-5.7703942">
        <ele>1109.33</ele>
        <time>2020-07-21T12:32:38.000Z</time>
      </trkpt>
      <trkpt lat="43.001038" lon="-5.770413">
        <ele>1109.33</ele>
        <time>2020-07-21T12:32:39.000Z</time>
      </trkpt>
      <trkpt lat="43.001041" lon="-5.770432">
        <ele>1108.72</ele>
        <time>2020-07-21T12:32:40.000Z</time>
      </trkpt>
      <trkpt lat="43.001044" lon="-5.770449">
        <ele>1108.72</ele>
        <time>2020-07-21T12:32:41.000Z</time>
      </trkpt>
      <trkpt lat="43.0010478" lon="-5.7704662">
        <ele>1108.11</ele>
        <time>2020-07-21T12:32:42.000Z</time>
      </trkpt>
      <trkpt lat="43.0010528" lon="-5.7704838">
        <ele>1108.11</ele>
        <time>2020-07-21T12:32:43.000Z</time>
      </trkpt>
      <trkpt lat="43.0010577" lon="-5.7705008">
        <ele>1107.5</ele>
        <time>2020-07-21T12:32:44.000Z</time>
      </trkpt>
      <trkpt lat="43.0010612" lon="-5.7705167">
        <ele>1107.5</ele>
        <time>2020-07-21T12:32:45.000Z</time>
      </trkpt>
      <trkpt lat="43.0010643" lon="-5.7705345">
        <ele>1106.9</ele>
        <time>2020-07-21T12:32:46.000Z</time>
      </trkpt>
      <trkpt lat="43.0010678" lon="-5.7705548">
        <ele>1106.9</ele>
        <time>2020-07-21T12:32:47.000Z</time>
      </trkpt>
      <trkpt lat="43.0010715" lon="-5.770575">
        <ele>1106.29</ele>
        <time>2020-07-21T12:32:48.000Z</time>
      </trkpt>
      <trkpt lat="43.0010753" lon="-5.7705968">
        <ele>1106.29</ele>
        <time>2020-07-21T12:32:49.000Z</time>
      </trkpt>
      <trkpt lat="43.0010805" lon="-5.7706177">
        <ele>1105.68</ele>
        <time>2020-07-21T12:32:50.000Z</time>
      </trkpt>
      <trkpt lat="43.0010883" lon="-5.7706322">
        <ele>1105.68</ele>
        <time>2020-07-21T12:32:51.000Z</time>
      </trkpt>
      <trkpt lat="43.0010962" lon="-5.7706388">
        <ele>1105.07</ele>
        <time>2020-07-21T12:32:52.000Z</time>
      </trkpt>
      <trkpt lat="43.0011022" lon="-5.7706398">
        <ele>1105.07</ele>
        <time>2020-07-21T12:32:53.000Z</time>
      </trkpt>
      <trkpt lat="43.0011062" lon="-5.7706427">
        <ele>1104.46</ele>
        <time>2020-07-21T12:32:54.000Z</time>
      </trkpt>
      <trkpt lat="43.0011098" lon="-5.7706427">
        <ele>1104.46</ele>
        <time>2020-07-21T12:32:55.000Z</time>
      </trkpt>
      <trkpt lat="43.0011128" lon="-5.7706415">
        <ele>1104</ele>
        <time>2020-07-21T12:32:56.000Z</time>
      </trkpt>
      <trkpt lat="43.0011148" lon="-5.7706388">
        <ele>1104</ele>
        <time>2020-07-21T12:32:57.000Z</time>
      </trkpt>
      <trkpt lat="43.0011158" lon="-5.7706387">
        <ele>1103.39</ele>
        <time>2020-07-21T12:32:58.000Z</time>
      </trkpt>
      <trkpt lat="43.0011168" lon="-5.7706408">
        <ele>1103.39</ele>
        <time>2020-07-21T12:32:59.000Z</time>
      </trkpt>
      <trkpt lat="43.0011218" lon="-5.7706483">
        <ele>1102.93</ele>
        <time>2020-07-21T12:33:00.000Z</time>
      </trkpt>
      <trkpt lat="43.0011297" lon="-5.7706617">
        <ele>1102.93</ele>
        <time>2020-07-21T12:33:01.000Z</time>
      </trkpt>
      <trkpt lat="43.001139" lon="-5.7706782">
        <ele>1102.32</ele>
        <time>2020-07-21T12:33:02.000Z</time>
      </trkpt>
      <trkpt lat="43.0011465" lon="-5.7706942">
        <ele>1102.32</ele>
        <time>2020-07-21T12:33:03.000Z</time>
      </trkpt>
      <trkpt lat="43.0011542" lon="-5.7707085">
        <ele>1101.86</ele>
        <time>2020-07-21T12:33:04.000Z</time>
      </trkpt>
      <trkpt lat="43.0011622" lon="-5.770721">
        <ele>1101.86</ele>
        <time>2020-07-21T12:33:05.000Z</time>
      </trkpt>
      <trkpt lat="43.0011708" lon="-5.7707323">
        <ele>1101.41</ele>
        <time>2020-07-21T12:33:06.000Z</time>
      </trkpt>
      <trkpt lat="43.0011797" lon="-5.7707438">
        <ele>1101.41</ele>
        <time>2020-07-21T12:33:07.000Z</time>
      </trkpt>
      <trkpt lat="43.00119" lon="-5.7707563">
        <ele>1100.95</ele>
        <time>2020-07-21T12:33:08.000Z</time>
      </trkpt>
      <trkpt lat="43.0012" lon="-5.7707675">
        <ele>1100.95</ele>
        <time>2020-07-21T12:33:09.000Z</time>
      </trkpt>
      <trkpt lat="43.00121" lon="-5.7707772">
        <ele>1100.49</ele>
        <time>2020-07-21T12:33:10.000Z</time>
      </trkpt>
      <trkpt lat="43.0012197" lon="-5.7707865">
        <ele>1100.49</ele>
        <time>2020-07-21T12:33:11.000Z</time>
      </trkpt>
      <trkpt lat="43.0012312" lon="-5.770797">
        <ele>1100.04</ele>
        <time>2020-07-21T12:33:12.000Z</time>
      </trkpt>
      <trkpt lat="43.001243" lon="-5.7708082">
        <ele>1100.04</ele>
        <time>2020-07-21T12:33:13.000Z</time>
      </trkpt>
      <trkpt lat="43.001256" lon="-5.7708188">
        <ele>1099.58</ele>
        <time>2020-07-21T12:33:14.000Z</time>
      </trkpt>
      <trkpt lat="43.0012658" lon="-5.770829">
        <ele>1099.58</ele>
        <time>2020-07-21T12:33:15.000Z</time>
      </trkpt>
      <trkpt lat="43.0012743" lon="-5.7708372">
        <ele>1099.12</ele>
        <time>2020-07-21T12:33:16.000Z</time>
      </trkpt>
      <trkpt lat="43.0012808" lon="-5.7708445">
        <ele>1099.12</ele>
        <time>2020-07-21T12:33:17.000Z</time>
      </trkpt>
      <trkpt lat="43.0012893" lon="-5.7708513">
        <ele>1098.67</ele>
        <time>2020-07-21T12:33:18.000Z</time>
      </trkpt>
      <trkpt lat="43.001299" lon="-5.77086">
        <ele>1098.67</ele>
        <time>2020-07-21T12:33:19.000Z</time>
      </trkpt>
      <trkpt lat="43.0013093" lon="-5.7708685">
        <ele>1098.21</ele>
        <time>2020-07-21T12:33:20.000Z</time>
      </trkpt>
      <trkpt lat="43.0013202" lon="-5.7708785">
        <ele>1098.21</ele>
        <time>2020-07-21T12:33:21.000Z</time>
      </trkpt>
      <trkpt lat="43.0013307" lon="-5.7708888">
        <ele>1097.75</ele>
        <time>2020-07-21T12:33:22.000Z</time>
      </trkpt>
      <trkpt lat="43.0013412" lon="-5.7709">
        <ele>1097.75</ele>
        <time>2020-07-21T12:33:23.000Z</time>
      </trkpt>
      <trkpt lat="43.0013497" lon="-5.770911">
        <ele>1097.29</ele>
        <time>2020-07-21T12:33:24.000Z</time>
      </trkpt>
      <trkpt lat="43.0013583" lon="-5.7709225">
        <ele>1097.29</ele>
        <time>2020-07-21T12:33:25.000Z</time>
      </trkpt>
      <trkpt lat="43.0013667" lon="-5.7709345">
        <ele>1096.84</ele>
        <time>2020-07-21T12:33:26.000Z</time>
      </trkpt>
      <trkpt lat="43.0013762" lon="-5.770949">
        <ele>1096.84</ele>
        <time>2020-07-21T12:33:27.000Z</time>
      </trkpt>
      <trkpt lat="43.0013862" lon="-5.7709658">
        <ele>1096.38</ele>
        <time>2020-07-21T12:33:28.000Z</time>
      </trkpt>
      <trkpt lat="43.0013987" lon="-5.7709895">
        <ele>1096.38</ele>
        <time>2020-07-21T12:33:29.000Z</time>
      </trkpt>
      <trkpt lat="43.0014117" lon="-5.7710167">
        <ele>1095.92</ele>
        <time>2020-07-21T12:33:30.000Z</time>
      </trkpt>
      <trkpt lat="43.001425" lon="-5.7710455">
        <ele>1095.92</ele>
        <time>2020-07-21T12:33:31.000Z</time>
      </trkpt>
      <trkpt lat="43.001438" lon="-5.7710735">
        <ele>1095.46</ele>
        <time>2020-07-21T12:33:32.000Z</time>
      </trkpt>
      <trkpt lat="43.0014525" lon="-5.7711017">
        <ele>1095.46</ele>
        <time>2020-07-21T12:33:33.000Z</time>
      </trkpt>
      <trkpt lat="43.0014673" lon="-5.7711303">
        <ele>1095.16</ele>
        <time>2020-07-21T12:33:34.000Z</time>
      </trkpt>
      <trkpt lat="43.0014797" lon="-5.7711605">
        <ele>1095.16</ele>
        <time>2020-07-21T12:33:35.000Z</time>
      </trkpt>
      <trkpt lat="43.0014905" lon="-5.7711932">
        <ele>1094.7</ele>
        <time>2020-07-21T12:33:36.000Z</time>
      </trkpt>
      <trkpt lat="43.0015018" lon="-5.7712248">
        <ele>1094.7</ele>
        <time>2020-07-21T12:33:37.000Z</time>
      </trkpt>
      <trkpt lat="43.0015155" lon="-5.7712523">
        <ele>1094.24</ele>
        <time>2020-07-21T12:33:38.000Z</time>
      </trkpt>
      <trkpt lat="43.001529" lon="-5.7712722">
        <ele>1094.24</ele>
        <time>2020-07-21T12:33:39.000Z</time>
      </trkpt>
      <trkpt lat="43.001539" lon="-5.7712857">
        <ele>1093.94</ele>
        <time>2020-07-21T12:33:40.000Z</time>
      </trkpt>
      <trkpt lat="43.0015442" lon="-5.7712915">
        <ele>1093.94</ele>
        <time>2020-07-21T12:33:41.000Z</time>
      </trkpt>
      <trkpt lat="43.001547" lon="-5.7712903">
        <ele>1093.64</ele>
        <time>2020-07-21T12:33:42.000Z</time>
      </trkpt>
      <trkpt lat="43.0015522" lon="-5.7712833">
        <ele>1093.64</ele>
        <time>2020-07-21T12:33:43.000Z</time>
      </trkpt>
      <trkpt lat="43.0015607" lon="-5.7712745">
        <ele>1093.18</ele>
        <time>2020-07-21T12:33:44.000Z</time>
      </trkpt>
      <trkpt lat="43.0015715" lon="-5.7712652">
        <ele>1093.18</ele>
        <time>2020-07-21T12:33:45.000Z</time>
      </trkpt>
      <trkpt lat="43.0015818" lon="-5.771257">
        <ele>1092.87</ele>
        <time>2020-07-21T12:33:46.000Z</time>
      </trkpt>
      <trkpt lat="43.001591" lon="-5.7712488">
        <ele>1092.87</ele>
        <time>2020-07-21T12:33:47.000Z</time>
      </trkpt>
      <trkpt lat="43.0015992" lon="-5.7712413">
        <ele>1092.42</ele>
        <time>2020-07-21T12:33:48.000Z</time>
      </trkpt>
      <trkpt lat="43.001608" lon="-5.7712335">
        <ele>1092.42</ele>
        <time>2020-07-21T12:33:49.000Z</time>
      </trkpt>
      <trkpt lat="43.001618" lon="-5.7712277">
        <ele>1091.96</ele>
        <time>2020-07-21T12:33:50.000Z</time>
      </trkpt>
      <trkpt lat="43.001627" lon="-5.7712217">
        <ele>1091.96</ele>
        <time>2020-07-21T12:33:51.000Z</time>
      </trkpt>
      <trkpt lat="43.0016353" lon="-5.7712175">
        <ele>1091.65</ele>
        <time>2020-07-21T12:33:52.000Z</time>
      </trkpt>
      <trkpt lat="43.0016433" lon="-5.7712112">
        <ele>1091.65</ele>
        <time>2020-07-21T12:33:53.000Z</time>
      </trkpt>
      <trkpt lat="43.0016523" lon="-5.7712037">
        <ele>1091.2</ele>
        <time>2020-07-21T12:33:54.000Z</time>
      </trkpt>
      <trkpt lat="43.0016605" lon="-5.7711927">
        <ele>1091.2</ele>
        <time>2020-07-21T12:33:55.000Z</time>
      </trkpt>
      <trkpt lat="43.0016682" lon="-5.7711823">
        <ele>1090.89</ele>
        <time>2020-07-21T12:33:56.000Z</time>
      </trkpt>
      <trkpt lat="43.0016762" lon="-5.7711732">
        <ele>1090.89</ele>
        <time>2020-07-21T12:33:57.000Z</time>
      </trkpt>
      <trkpt lat="43.001687" lon="-5.7711653">
        <ele>1090.44</ele>
        <time>2020-07-21T12:33:58.000Z</time>
      </trkpt>
      <trkpt lat="43.0017005" lon="-5.771155">
        <ele>1090.44</ele>
        <time>2020-07-21T12:33:59.000Z</time>
      </trkpt>
      <trkpt lat="43.0017153" lon="-5.7711445">
        <ele>1089.98</ele>
        <time>2020-07-21T12:34:00.000Z</time>
      </trkpt>
      <trkpt lat="43.0017303" lon="-5.7711368">
        <ele>1089.98</ele>
        <time>2020-07-21T12:34:01.000Z</time>
      </trkpt>
      <trkpt lat="43.0017432" lon="-5.7711328">
        <ele>1089.67</ele>
        <time>2020-07-21T12:34:02.000Z</time>
      </trkpt>
      <trkpt lat="43.0017558" lon="-5.771132">
        <ele>1089.67</ele>
        <time>2020-07-21T12:34:03.000Z</time>
      </trkpt>
      <trkpt lat="43.001768" lon="-5.7711333">
        <ele>1089.22</ele>
        <time>2020-07-21T12:34:04.000Z</time>
      </trkpt>
      <trkpt lat="43.0017818" lon="-5.7711363">
        <ele>1089.22</ele>
        <time>2020-07-21T12:34:05.000Z</time>
      </trkpt>
      <trkpt lat="43.0017973" lon="-5.7711397">
        <ele>1088.76</ele>
        <time>2020-07-21T12:34:06.000Z</time>
      </trkpt>
      <trkpt lat="43.0018098" lon="-5.7711427">
        <ele>1088.76</ele>
        <time>2020-07-21T12:34:07.000Z</time>
      </trkpt>
      <trkpt lat="43.0018222" lon="-5.7711455">
        <ele>1088.3</ele>
        <time>2020-07-21T12:34:08.000Z</time>
      </trkpt>
      <trkpt lat="43.001832" lon="-5.7711485">
        <ele>1088.3</ele>
        <time>2020-07-21T12:34:09.000Z</time>
      </trkpt>
      <trkpt lat="43.0018428" lon="-5.7711522">
        <ele>1087.84</ele>
        <time>2020-07-21T12:34:10.000Z</time>
      </trkpt>
      <trkpt lat="43.001854" lon="-5.771154">
        <ele>1087.84</ele>
        <time>2020-07-21T12:34:11.000Z</time>
      </trkpt>
      <trkpt lat="43.0018665" lon="-5.771156">
        <ele>1087.39</ele>
        <time>2020-07-21T12:34:12.000Z</time>
      </trkpt>
      <trkpt lat="43.0018807" lon="-5.7711607">
        <ele>1087.39</ele>
        <time>2020-07-21T12:34:13.000Z</time>
      </trkpt>
      <trkpt lat="43.0018947" lon="-5.7711658">
        <ele>1086.93</ele>
        <time>2020-07-21T12:34:14.000Z</time>
      </trkpt>
      <trkpt lat="43.0019013" lon="-5.7711702">
        <ele>1086.93</ele>
        <time>2020-07-21T12:34:15.000Z</time>
      </trkpt>
      <trkpt lat="43.0019025" lon="-5.7711705">
        <ele>1086.47</ele>
        <time>2020-07-21T12:34:16.000Z</time>
      </trkpt>
      <trkpt lat="43.0019" lon="-5.771171">
        <ele>1086.47</ele>
        <time>2020-07-21T12:34:17.000Z</time>
      </trkpt>
      <trkpt lat="43.0018987" lon="-5.7711687">
        <ele>1086.02</ele>
        <time>2020-07-21T12:34:18.000Z</time>
      </trkpt>
      <trkpt lat="43.0018942" lon="-5.7711645">
        <ele>1086.02</ele>
        <time>2020-07-21T12:34:19.000Z</time>
      </trkpt>
      <trkpt lat="43.001888" lon="-5.7711598">
        <ele>1085.56</ele>
        <time>2020-07-21T12:34:20.000Z</time>
      </trkpt>
      <trkpt lat="43.0018795" lon="-5.7711563">
        <ele>1085.56</ele>
        <time>2020-07-21T12:34:21.000Z</time>
      </trkpt>
      <trkpt lat="43.0018717" lon="-5.7711537">
        <ele>1084.95</ele>
        <time>2020-07-21T12:34:22.000Z</time>
      </trkpt>
      <trkpt lat="43.0018615" lon="-5.7711502">
        <ele>1084.95</ele>
        <time>2020-07-21T12:34:23.000Z</time>
      </trkpt>
      <trkpt lat="43.001853" lon="-5.771148">
        <ele>1084.49</ele>
        <time>2020-07-21T12:34:24.000Z</time>
      </trkpt>
      <trkpt lat="43.0018473" lon="-5.771144">
        <ele>1084.49</ele>
        <time>2020-07-21T12:34:25.000Z</time>
      </trkpt>
      <trkpt lat="43.0018438" lon="-5.7711452">
        <ele>1083.88</ele>
        <time>2020-07-21T12:34:26.000Z</time>
      </trkpt>
      <trkpt lat="43.0018403" lon="-5.7711453">
        <ele>1083.88</ele>
        <time>2020-07-21T12:34:27.000Z</time>
      </trkpt>
      <trkpt lat="43.0018363" lon="-5.7711475">
        <ele>1083.43</ele>
        <time>2020-07-21T12:34:28.000Z</time>
      </trkpt>
      <trkpt lat="43.0018333" lon="-5.771146">
        <ele>1083.43</ele>
        <time>2020-07-21T12:34:29.000Z</time>
      </trkpt>
      <trkpt lat="43.0018318" lon="-5.7711457">
        <ele>1082.81</ele>
        <time>2020-07-21T12:34:30.000Z</time>
      </trkpt>
      <trkpt lat="43.001831" lon="-5.7711462">
        <ele>1082.81</ele>
        <time>2020-07-21T12:34:31.000Z</time>
      </trkpt>
      <trkpt lat="43.0018325" lon="-5.7711482">
        <ele>1082.36</ele>
        <time>2020-07-21T12:34:32.000Z</time>
      </trkpt>
      <trkpt lat="43.0018368" lon="-5.7711498">
        <ele>1082.36</ele>
        <time>2020-07-21T12:34:33.000Z</time>
      </trkpt>
      <trkpt lat="43.0018432" lon="-5.7711525">
        <ele>1081.75</ele>
        <time>2020-07-21T12:34:34.000Z</time>
      </trkpt>
      <trkpt lat="43.0018507" lon="-5.771156">
        <ele>1081.75</ele>
        <time>2020-07-21T12:34:35.000Z</time>
      </trkpt>
      <trkpt lat="43.0018595" lon="-5.7711607">
        <ele>1081.14</ele>
        <time>2020-07-21T12:34:36.000Z</time>
      </trkpt>
      <trkpt lat="43.00187" lon="-5.771165">
        <ele>1081.14</ele>
        <time>2020-07-21T12:34:37.000Z</time>
      </trkpt>
      <trkpt lat="43.0018828" lon="-5.7711708">
        <ele>1080.53</ele>
        <time>2020-07-21T12:34:38.000Z</time>
      </trkpt>
      <trkpt lat="43.0018953" lon="-5.7711752">
        <ele>1080.53</ele>
        <time>2020-07-21T12:34:39.000Z</time>
      </trkpt>
      <trkpt lat="43.0019085" lon="-5.7711803">
        <ele>1079.92</ele>
        <time>2020-07-21T12:34:40.000Z</time>
      </trkpt>
      <trkpt lat="43.001923" lon="-5.7711857">
        <ele>1079.92</ele>
        <time>2020-07-21T12:34:41.000Z</time>
      </trkpt>
      <trkpt lat="43.0019388" lon="-5.7711935">
        <ele>1079.46</ele>
        <time>2020-07-21T12:34:42.000Z</time>
      </trkpt>
      <trkpt lat="43.0019557" lon="-5.7711992">
        <ele>1079.46</ele>
        <time>2020-07-21T12:34:43.000Z</time>
      </trkpt>
      <trkpt lat="43.0019705" lon="-5.7712015">
        <ele>1078.85</ele>
        <time>2020-07-21T12:34:44.000Z</time>
      </trkpt>
      <trkpt lat="43.0019857" lon="-5.7712012">
        <ele>1078.85</ele>
        <time>2020-07-21T12:34:45.000Z</time>
      </trkpt>
      <trkpt lat="43.0020013" lon="-5.771201">
        <ele>1078.24</ele>
        <time>2020-07-21T12:34:46.000Z</time>
      </trkpt>
      <trkpt lat="43.002018" lon="-5.7712008">
        <ele>1078.24</ele>
        <time>2020-07-21T12:34:47.000Z</time>
      </trkpt>
      <trkpt lat="43.002034" lon="-5.7711998">
        <ele>1077.63</ele>
        <time>2020-07-21T12:34:48.000Z</time>
      </trkpt>
      <trkpt lat="43.0020502" lon="-5.771198">
        <ele>1077.63</ele>
        <time>2020-07-21T12:34:49.000Z</time>
      </trkpt>
      <trkpt lat="43.0020648" lon="-5.7711947">
        <ele>1077.18</ele>
        <time>2020-07-21T12:34:50.000Z</time>
      </trkpt>
      <trkpt lat="43.0020805" lon="-5.7711928">
        <ele>1077.18</ele>
        <time>2020-07-21T12:34:51.000Z</time>
      </trkpt>
      <trkpt lat="43.0020973" lon="-5.7711913">
        <ele>1076.57</ele>
        <time>2020-07-21T12:34:52.000Z</time>
      </trkpt>
      <trkpt lat="43.0021153" lon="-5.7711927">
        <ele>1076.57</ele>
        <time>2020-07-21T12:34:53.000Z</time>
      </trkpt>
      <trkpt lat="43.0021325" lon="-5.7711942">
        <ele>1075.96</ele>
        <time>2020-07-21T12:34:54.000Z</time>
      </trkpt>
      <trkpt lat="43.002148" lon="-5.7711968">
        <ele>1075.96</ele>
        <time>2020-07-21T12:34:55.000Z</time>
      </trkpt>
      <trkpt lat="43.0021635" lon="-5.771199">
        <ele>1075.5</ele>
        <time>2020-07-21T12:34:56.000Z</time>
      </trkpt>
      <trkpt lat="43.0021788" lon="-5.7712005">
        <ele>1075.5</ele>
        <time>2020-07-21T12:34:57.000Z</time>
      </trkpt>
      <trkpt lat="43.0021942" lon="-5.771202">
        <ele>1075.04</ele>
        <time>2020-07-21T12:34:58.000Z</time>
      </trkpt>
      <trkpt lat="43.0022095" lon="-5.7712032">
        <ele>1075.04</ele>
        <time>2020-07-21T12:34:59.000Z</time>
      </trkpt>
      <trkpt lat="43.0022258" lon="-5.7712053">
        <ele>1074.58</ele>
        <time>2020-07-21T12:35:00.000Z</time>
      </trkpt>
      <trkpt lat="43.0022423" lon="-5.771208">
        <ele>1074.58</ele>
        <time>2020-07-21T12:35:01.000Z</time>
      </trkpt>
      <trkpt lat="43.0022592" lon="-5.771211">
        <ele>1073.98</ele>
        <time>2020-07-21T12:35:02.000Z</time>
      </trkpt>
      <trkpt lat="43.002275" lon="-5.771213">
        <ele>1073.98</ele>
        <time>2020-07-21T12:35:03.000Z</time>
      </trkpt>
      <trkpt lat="43.0022907" lon="-5.7712095">
        <ele>1073.52</ele>
        <time>2020-07-21T12:35:04.000Z</time>
      </trkpt>
      <trkpt lat="43.0023052" lon="-5.7712038">
        <ele>1073.52</ele>
        <time>2020-07-21T12:35:05.000Z</time>
      </trkpt>
      <trkpt lat="43.0023195" lon="-5.7711953">
        <ele>1073.21</ele>
        <time>2020-07-21T12:35:06.000Z</time>
      </trkpt>
      <trkpt lat="43.0023325" lon="-5.7711885">
        <ele>1073.21</ele>
        <time>2020-07-21T12:35:07.000Z</time>
      </trkpt>
      <trkpt lat="43.002346" lon="-5.7711807">
        <ele>1072.76</ele>
        <time>2020-07-21T12:35:08.000Z</time>
      </trkpt>
      <trkpt lat="43.0023595" lon="-5.7711738">
        <ele>1072.76</ele>
        <time>2020-07-21T12:35:09.000Z</time>
      </trkpt>
      <trkpt lat="43.002372" lon="-5.7711667">
        <ele>1072.3</ele>
        <time>2020-07-21T12:35:10.000Z</time>
      </trkpt>
      <trkpt lat="43.0023837" lon="-5.7711595">
        <ele>1072.3</ele>
        <time>2020-07-21T12:35:11.000Z</time>
      </trkpt>
      <trkpt lat="43.0023962" lon="-5.7711522">
        <ele>1071.99</ele>
        <time>2020-07-21T12:35:12.000Z</time>
      </trkpt>
      <trkpt lat="43.0024085" lon="-5.7711453">
        <ele>1071.99</ele>
        <time>2020-07-21T12:35:13.000Z</time>
      </trkpt>
      <trkpt lat="43.002422" lon="-5.7711378">
        <ele>1071.54</ele>
        <time>2020-07-21T12:35:14.000Z</time>
      </trkpt>
      <trkpt lat="43.0024337" lon="-5.7711297">
        <ele>1071.54</ele>
        <time>2020-07-21T12:35:15.000Z</time>
      </trkpt>
      <trkpt lat="43.0024482" lon="-5.7711218">
        <ele>1071.08</ele>
        <time>2020-07-21T12:35:16.000Z</time>
      </trkpt>
      <trkpt lat="43.0024608" lon="-5.771114">
        <ele>1071.08</ele>
        <time>2020-07-21T12:35:17.000Z</time>
      </trkpt>
      <trkpt lat="43.0024735" lon="-5.7711068">
        <ele>1070.78</ele>
        <time>2020-07-21T12:35:18.000Z</time>
      </trkpt>
      <trkpt lat="43.0024833" lon="-5.7710993">
        <ele>1070.78</ele>
        <time>2020-07-21T12:35:19.000Z</time>
      </trkpt>
      <trkpt lat="43.0024947" lon="-5.771092">
        <ele>1070.32</ele>
        <time>2020-07-21T12:35:20.000Z</time>
      </trkpt>
      <trkpt lat="43.0025068" lon="-5.7710833">
        <ele>1070.32</ele>
        <time>2020-07-21T12:35:21.000Z</time>
      </trkpt>
      <trkpt lat="43.0025202" lon="-5.7710728">
        <ele>1070.01</ele>
        <time>2020-07-21T12:35:22.000Z</time>
      </trkpt>
      <trkpt lat="43.0025333" lon="-5.7710612">
        <ele>1070.01</ele>
        <time>2020-07-21T12:35:23.000Z</time>
      </trkpt>
      <trkpt lat="43.002546" lon="-5.7710492">
        <ele>1069.56</ele>
        <time>2020-07-21T12:35:24.000Z</time>
      </trkpt>
      <trkpt lat="43.0025593" lon="-5.7710378">
        <ele>1069.56</ele>
        <time>2020-07-21T12:35:25.000Z</time>
      </trkpt>
      <trkpt lat="43.0025727" lon="-5.7710265">
        <ele>1069.1</ele>
        <time>2020-07-21T12:35:26.000Z</time>
      </trkpt>
      <trkpt lat="43.0025858" lon="-5.7710138">
        <ele>1069.1</ele>
        <time>2020-07-21T12:35:27.000Z</time>
      </trkpt>
      <trkpt lat="43.0025978" lon="-5.7709983">
        <ele>1068.79</ele>
        <time>2020-07-21T12:35:28.000Z</time>
      </trkpt>
      <trkpt lat="43.0026085" lon="-5.7709808">
        <ele>1068.79</ele>
        <time>2020-07-21T12:35:29.000Z</time>
      </trkpt>
      <trkpt lat="43.0026188" lon="-5.770962">
        <ele>1068.34</ele>
        <time>2020-07-21T12:35:30.000Z</time>
      </trkpt>
      <trkpt lat="43.0026272" lon="-5.770942">
        <ele>1068.34</ele>
        <time>2020-07-21T12:35:31.000Z</time>
      </trkpt>
      <trkpt lat="43.0026348" lon="-5.7709215">
        <ele>1067.88</ele>
        <time>2020-07-21T12:35:32.000Z</time>
      </trkpt>
      <trkpt lat="43.0026407" lon="-5.7708995">
        <ele>1067.88</ele>
        <time>2020-07-21T12:35:33.000Z</time>
      </trkpt>
      <trkpt lat="43.0026445" lon="-5.7708775">
        <ele>1067.42</ele>
        <time>2020-07-21T12:35:34.000Z</time>
      </trkpt>
      <trkpt lat="43.0026472" lon="-5.7708548">
        <ele>1067.42</ele>
        <time>2020-07-21T12:35:35.000Z</time>
      </trkpt>
      <trkpt lat="43.002649" lon="-5.7708327">
        <ele>1067.12</ele>
        <time>2020-07-21T12:35:36.000Z</time>
      </trkpt>
      <trkpt lat="43.0026528" lon="-5.7708108">
        <ele>1067.12</ele>
        <time>2020-07-21T12:35:37.000Z</time>
      </trkpt>
      <trkpt lat="43.0026565" lon="-5.7707895">
        <ele>1066.66</ele>
        <time>2020-07-21T12:35:38.000Z</time>
      </trkpt>
      <trkpt lat="43.0026607" lon="-5.770768">
        <ele>1066.66</ele>
        <time>2020-07-21T12:35:39.000Z</time>
      </trkpt>
      <trkpt lat="43.0026647" lon="-5.7707445">
        <ele>1066.2</ele>
        <time>2020-07-21T12:35:40.000Z</time>
      </trkpt>
      <trkpt lat="43.00267" lon="-5.7707212">
        <ele>1066.2</ele>
        <time>2020-07-21T12:35:41.000Z</time>
      </trkpt>
      <trkpt lat="43.0026765" lon="-5.7706998">
        <ele>1065.75</ele>
        <time>2020-07-21T12:35:42.000Z</time>
      </trkpt>
      <trkpt lat="43.0026855" lon="-5.7706838">
        <ele>1065.75</ele>
        <time>2020-07-21T12:35:43.000Z</time>
      </trkpt>
      <trkpt lat="43.0026965" lon="-5.7706715">
        <ele>1065.29</ele>
        <time>2020-07-21T12:35:44.000Z</time>
      </trkpt>
      <trkpt lat="43.0027072" lon="-5.7706623">
        <ele>1065.29</ele>
        <time>2020-07-21T12:35:45.000Z</time>
      </trkpt>
      <trkpt lat="43.0027165" lon="-5.770655">
        <ele>1064.98</ele>
        <time>2020-07-21T12:35:46.000Z</time>
      </trkpt>
      <trkpt lat="43.0027252" lon="-5.7706505">
        <ele>1064.98</ele>
        <time>2020-07-21T12:35:47.000Z</time>
      </trkpt>
      <trkpt lat="43.002732" lon="-5.7706477">
        <ele>1064.53</ele>
        <time>2020-07-21T12:35:48.000Z</time>
      </trkpt>
      <trkpt lat="43.0027362" lon="-5.7706458">
        <ele>1064.53</ele>
        <time>2020-07-21T12:35:49.000Z</time>
      </trkpt>
      <trkpt lat="43.0027385" lon="-5.7706443">
        <ele>1064.22</ele>
        <time>2020-07-21T12:35:50.000Z</time>
      </trkpt>
      <trkpt lat="43.0027415" lon="-5.7706435">
        <ele>1064.22</ele>
        <time>2020-07-21T12:35:51.000Z</time>
      </trkpt>
      <trkpt lat="43.0027465" lon="-5.7706445">
        <ele>1063.92</ele>
        <time>2020-07-21T12:35:52.000Z</time>
      </trkpt>
      <trkpt lat="43.0027522" lon="-5.7706457">
        <ele>1063.92</ele>
        <time>2020-07-21T12:35:53.000Z</time>
      </trkpt>
      <trkpt lat="43.0027588" lon="-5.7706467">
        <ele>1063.61</ele>
        <time>2020-07-21T12:35:54.000Z</time>
      </trkpt>
      <trkpt lat="43.0027653" lon="-5.7706448">
        <ele>1063.61</ele>
        <time>2020-07-21T12:35:55.000Z</time>
      </trkpt>
      <trkpt lat="43.0027712" lon="-5.7706427">
        <ele>1063.31</ele>
        <time>2020-07-21T12:35:56.000Z</time>
      </trkpt>
      <trkpt lat="43.0027765" lon="-5.77064">
        <ele>1063.31</ele>
        <time>2020-07-21T12:35:57.000Z</time>
      </trkpt>
      <trkpt lat="43.0027817" lon="-5.770637">
        <ele>1063</ele>
        <time>2020-07-21T12:35:58.000Z</time>
      </trkpt>
      <trkpt lat="43.0027858" lon="-5.7706332">
        <ele>1063</ele>
        <time>2020-07-21T12:35:59.000Z</time>
      </trkpt>
      <trkpt lat="43.00279" lon="-5.7706292">
        <ele>1062.7</ele>
        <time>2020-07-21T12:36:00.000Z</time>
      </trkpt>
      <trkpt lat="43.0027943" lon="-5.7706275">
        <ele>1062.7</ele>
        <time>2020-07-21T12:36:01.000Z</time>
      </trkpt>
      <trkpt lat="43.0028003" lon="-5.7706267">
        <ele>1062.39</ele>
        <time>2020-07-21T12:36:02.000Z</time>
      </trkpt>
      <trkpt lat="43.002807" lon="-5.7706243">
        <ele>1062.39</ele>
        <time>2020-07-21T12:36:03.000Z</time>
      </trkpt>
      <trkpt lat="43.0028145" lon="-5.7706202">
        <ele>1062.09</ele>
        <time>2020-07-21T12:36:04.000Z</time>
      </trkpt>
      <trkpt lat="43.0028203" lon="-5.770615">
        <ele>1062.09</ele>
        <time>2020-07-21T12:36:05.000Z</time>
      </trkpt>
      <trkpt lat="43.0028258" lon="-5.7706113">
        <ele>1061.78</ele>
        <time>2020-07-21T12:36:06.000Z</time>
      </trkpt>
      <trkpt lat="43.0028298" lon="-5.7706092">
        <ele>1061.78</ele>
        <time>2020-07-21T12:36:07.000Z</time>
      </trkpt>
      <trkpt lat="43.0028348" lon="-5.7706077">
        <ele>1061.48</ele>
        <time>2020-07-21T12:36:08.000Z</time>
      </trkpt>
      <trkpt lat="43.0028405" lon="-5.7706053">
        <ele>1061.48</ele>
        <time>2020-07-21T12:36:09.000Z</time>
      </trkpt>
      <trkpt lat="43.0028477" lon="-5.7706022">
        <ele>1061.02</ele>
        <time>2020-07-21T12:36:10.000Z</time>
      </trkpt>
      <trkpt lat="43.0028547" lon="-5.7706">
        <ele>1061.02</ele>
        <time>2020-07-21T12:36:11.000Z</time>
      </trkpt>
      <trkpt lat="43.0028622" lon="-5.770599">
        <ele>1060.72</ele>
        <time>2020-07-21T12:36:12.000Z</time>
      </trkpt>
      <trkpt lat="43.0028692" lon="-5.7705978">
        <ele>1060.72</ele>
        <time>2020-07-21T12:36:13.000Z</time>
      </trkpt>
      <trkpt lat="43.0028783" lon="-5.7705938">
        <ele>1060.41</ele>
        <time>2020-07-21T12:36:14.000Z</time>
      </trkpt>
      <trkpt lat="43.002889" lon="-5.7705862">
        <ele>1060.41</ele>
        <time>2020-07-21T12:36:15.000Z</time>
      </trkpt>
      <trkpt lat="43.0029007" lon="-5.770577">
        <ele>1059.95</ele>
        <time>2020-07-21T12:36:16.000Z</time>
      </trkpt>
      <trkpt lat="43.0029105" lon="-5.7705687">
        <ele>1059.95</ele>
        <time>2020-07-21T12:36:17.000Z</time>
      </trkpt>
      <trkpt lat="43.0029188" lon="-5.7705617">
        <ele>1059.65</ele>
        <time>2020-07-21T12:36:18.000Z</time>
      </trkpt>
      <trkpt lat="43.0029262" lon="-5.7705585">
        <ele>1059.65</ele>
        <time>2020-07-21T12:36:19.000Z</time>
      </trkpt>
      <trkpt lat="43.0029362" lon="-5.770556">
        <ele>1059.19</ele>
        <time>2020-07-21T12:36:20.000Z</time>
      </trkpt>
      <trkpt lat="43.0029468" lon="-5.770555">
        <ele>1059.19</ele>
        <time>2020-07-21T12:36:21.000Z</time>
      </trkpt>
      <trkpt lat="43.002958" lon="-5.7705483">
        <ele>1058.89</ele>
        <time>2020-07-21T12:36:22.000Z</time>
      </trkpt>
      <trkpt lat="43.0029677" lon="-5.770541">
        <ele>1058.89</ele>
        <time>2020-07-21T12:36:23.000Z</time>
      </trkpt>
      <trkpt lat="43.0029763" lon="-5.770533">
        <ele>1058.43</ele>
        <time>2020-07-21T12:36:24.000Z</time>
      </trkpt>
      <trkpt lat="43.0029858" lon="-5.7705298">
        <ele>1058.43</ele>
        <time>2020-07-21T12:36:25.000Z</time>
      </trkpt>
      <trkpt lat="43.0029938" lon="-5.7705288">
        <ele>1057.97</ele>
        <time>2020-07-21T12:36:26.000Z</time>
      </trkpt>
      <trkpt lat="43.0030055" lon="-5.7705303">
        <ele>1057.97</ele>
        <time>2020-07-21T12:36:27.000Z</time>
      </trkpt>
      <trkpt lat="43.0030167" lon="-5.7705328">
        <ele>1057.52</ele>
        <time>2020-07-21T12:36:28.000Z</time>
      </trkpt>
      <trkpt lat="43.0030295" lon="-5.770537">
        <ele>1057.52</ele>
        <time>2020-07-21T12:36:29.000Z</time>
      </trkpt>
      <trkpt lat="43.0030392" lon="-5.7705403">
        <ele>1057.06</ele>
        <time>2020-07-21T12:36:30.000Z</time>
      </trkpt>
      <trkpt lat="43.0030485" lon="-5.7705408">
        <ele>1057.06</ele>
        <time>2020-07-21T12:36:31.000Z</time>
      </trkpt>
      <trkpt lat="43.0030585" lon="-5.7705403">
        <ele>1056.6</ele>
        <time>2020-07-21T12:36:32.000Z</time>
      </trkpt>
      <trkpt lat="43.0030673" lon="-5.7705395">
        <ele>1056.6</ele>
        <time>2020-07-21T12:36:33.000Z</time>
      </trkpt>
      <trkpt lat="43.0030753" lon="-5.7705385">
        <ele>1056.15</ele>
        <time>2020-07-21T12:36:34.000Z</time>
      </trkpt>
      <trkpt lat="43.0030848" lon="-5.7705367">
        <ele>1056.15</ele>
        <time>2020-07-21T12:36:35.000Z</time>
      </trkpt>
      <trkpt lat="43.0030977" lon="-5.7705352">
        <ele>1055.84</ele>
        <time>2020-07-21T12:36:36.000Z</time>
      </trkpt>
      <trkpt lat="43.0031115" lon="-5.7705348">
        <ele>1055.84</ele>
        <time>2020-07-21T12:36:37.000Z</time>
      </trkpt>
      <trkpt lat="43.0031238" lon="-5.7705343">
        <ele>1055.38</ele>
        <time>2020-07-21T12:36:38.000Z</time>
      </trkpt>
      <trkpt lat="43.0031355" lon="-5.7705352">
        <ele>1055.38</ele>
        <time>2020-07-21T12:36:39.000Z</time>
      </trkpt>
      <trkpt lat="43.0031495" lon="-5.7705353">
        <ele>1054.93</ele>
        <time>2020-07-21T12:36:40.000Z</time>
      </trkpt>
      <trkpt lat="43.0031663" lon="-5.7705342">
        <ele>1054.93</ele>
        <time>2020-07-21T12:36:41.000Z</time>
      </trkpt>
      <trkpt lat="43.0031845" lon="-5.7705305">
        <ele>1054.62</ele>
        <time>2020-07-21T12:36:42.000Z</time>
      </trkpt>
      <trkpt lat="43.0032035" lon="-5.7705258">
        <ele>1054.62</ele>
        <time>2020-07-21T12:36:43.000Z</time>
      </trkpt>
      <trkpt lat="43.0032227" lon="-5.7705213">
        <ele>1054.16</ele>
        <time>2020-07-21T12:36:44.000Z</time>
      </trkpt>
      <trkpt lat="43.0032408" lon="-5.7705183">
        <ele>1054.16</ele>
        <time>2020-07-21T12:36:45.000Z</time>
      </trkpt>
      <trkpt lat="43.0032585" lon="-5.7705162">
        <ele>1053.71</ele>
        <time>2020-07-21T12:36:46.000Z</time>
      </trkpt>
      <trkpt lat="43.0032745" lon="-5.7705148">
        <ele>1053.71</ele>
        <time>2020-07-21T12:36:47.000Z</time>
      </trkpt>
      <trkpt lat="43.0032902" lon="-5.7705125">
        <ele>1053.4</ele>
        <time>2020-07-21T12:36:48.000Z</time>
      </trkpt>
      <trkpt lat="43.003306" lon="-5.7705122">
        <ele>1053.4</ele>
        <time>2020-07-21T12:36:49.000Z</time>
      </trkpt>
      <trkpt lat="43.0033232" lon="-5.7705162">
        <ele>1052.94</ele>
        <time>2020-07-21T12:36:50.000Z</time>
      </trkpt>
      <trkpt lat="43.0033407" lon="-5.7705238">
        <ele>1052.94</ele>
        <time>2020-07-21T12:36:51.000Z</time>
      </trkpt>
      <trkpt lat="43.0033565" lon="-5.7705322">
        <ele>1052.64</ele>
        <time>2020-07-21T12:36:52.000Z</time>
      </trkpt>
      <trkpt lat="43.0033705" lon="-5.770539">
        <ele>1052.64</ele>
        <time>2020-07-21T12:36:53.000Z</time>
      </trkpt>
      <trkpt lat="43.003383" lon="-5.7705445">
        <ele>1052.33</ele>
        <time>2020-07-21T12:36:54.000Z</time>
      </trkpt>
      <trkpt lat="43.0033945" lon="-5.7705493">
        <ele>1052.33</ele>
        <time>2020-07-21T12:36:55.000Z</time>
      </trkpt>
      <trkpt lat="43.0034052" lon="-5.7705548">
        <ele>1052.03</ele>
        <time>2020-07-21T12:36:56.000Z</time>
      </trkpt>
      <trkpt lat="43.0034148" lon="-5.770561">
        <ele>1052.03</ele>
        <time>2020-07-21T12:36:57.000Z</time>
      </trkpt>
      <trkpt lat="43.0034237" lon="-5.7705693">
        <ele>1051.57</ele>
        <time>2020-07-21T12:36:58.000Z</time>
      </trkpt>
      <trkpt lat="43.0034313" lon="-5.7705778">
        <ele>1051.57</ele>
        <time>2020-07-21T12:36:59.000Z</time>
      </trkpt>
      <trkpt lat="43.0034387" lon="-5.7705873">
        <ele>1051.27</ele>
        <time>2020-07-21T12:37:00.000Z</time>
      </trkpt>
      <trkpt lat="43.0034452" lon="-5.7705985">
        <ele>1051.27</ele>
        <time>2020-07-21T12:37:01.000Z</time>
      </trkpt>
      <trkpt lat="43.0034508" lon="-5.7706105">
        <ele>1050.96</ele>
        <time>2020-07-21T12:37:02.000Z</time>
      </trkpt>
      <trkpt lat="43.0034543" lon="-5.770625">
        <ele>1050.96</ele>
        <time>2020-07-21T12:37:03.000Z</time>
      </trkpt>
      <trkpt lat="43.0034572" lon="-5.7706387">
        <ele>1050.66</ele>
        <time>2020-07-21T12:37:04.000Z</time>
      </trkpt>
      <trkpt lat="43.0034595" lon="-5.7706515">
        <ele>1050.66</ele>
        <time>2020-07-21T12:37:05.000Z</time>
      </trkpt>
      <trkpt lat="43.0034638" lon="-5.7706625">
        <ele>1050.35</ele>
        <time>2020-07-21T12:37:06.000Z</time>
      </trkpt>
      <trkpt lat="43.0034693" lon="-5.7706735">
        <ele>1050.35</ele>
        <time>2020-07-21T12:37:07.000Z</time>
      </trkpt>
      <trkpt lat="43.0034762" lon="-5.7706855">
        <ele>1050.05</ele>
        <time>2020-07-21T12:37:08.000Z</time>
      </trkpt>
      <trkpt lat="43.0034833" lon="-5.7706987">
        <ele>1050.05</ele>
        <time>2020-07-21T12:37:09.000Z</time>
      </trkpt>
      <trkpt lat="43.003491" lon="-5.7707113">
        <ele>1049.9</ele>
        <time>2020-07-21T12:37:10.000Z</time>
      </trkpt>
      <trkpt lat="43.0034982" lon="-5.7707247">
        <ele>1049.9</ele>
        <time>2020-07-21T12:37:11.000Z</time>
      </trkpt>
      <trkpt lat="43.0035053" lon="-5.7707372">
        <ele>1049.59</ele>
        <time>2020-07-21T12:37:12.000Z</time>
      </trkpt>
      <trkpt lat="43.0035108" lon="-5.7707508">
        <ele>1049.59</ele>
        <time>2020-07-21T12:37:13.000Z</time>
      </trkpt>
      <trkpt lat="43.0035163" lon="-5.770766">
        <ele>1049.29</ele>
        <time>2020-07-21T12:37:14.000Z</time>
      </trkpt>
      <trkpt lat="43.0035217" lon="-5.7707807">
        <ele>1049.29</ele>
        <time>2020-07-21T12:37:15.000Z</time>
      </trkpt>
      <trkpt lat="43.0035287" lon="-5.7707943">
        <ele>1049.13</ele>
        <time>2020-07-21T12:37:16.000Z</time>
      </trkpt>
      <trkpt lat="43.0035377" lon="-5.770805">
        <ele>1049.13</ele>
        <time>2020-07-21T12:37:17.000Z</time>
      </trkpt>
      <trkpt lat="43.0035475" lon="-5.7708153">
        <ele>1048.83</ele>
        <time>2020-07-21T12:37:18.000Z</time>
      </trkpt>
      <trkpt lat="43.0035572" lon="-5.7708248">
        <ele>1048.83</ele>
        <time>2020-07-21T12:37:19.000Z</time>
      </trkpt>
      <trkpt lat="43.0035668" lon="-5.7708357">
        <ele>1048.68</ele>
        <time>2020-07-21T12:37:20.000Z</time>
      </trkpt>
      <trkpt lat="43.0035765" lon="-5.7708445">
        <ele>1048.68</ele>
        <time>2020-07-21T12:37:21.000Z</time>
      </trkpt>
      <trkpt lat="43.0035845" lon="-5.7708565">
        <ele>1048.37</ele>
        <time>2020-07-21T12:37:22.000Z</time>
      </trkpt>
      <trkpt lat="43.0035913" lon="-5.7708678">
        <ele>1048.37</ele>
        <time>2020-07-21T12:37:23.000Z</time>
      </trkpt>
      <trkpt lat="43.0035975" lon="-5.7708803">
        <ele>1048.22</ele>
        <time>2020-07-21T12:37:24.000Z</time>
      </trkpt>
      <trkpt lat="43.0036028" lon="-5.7708912">
        <ele>1048.22</ele>
        <time>2020-07-21T12:37:25.000Z</time>
      </trkpt>
      <trkpt lat="43.0036067" lon="-5.7708997">
        <ele>1047.92</ele>
        <time>2020-07-21T12:37:26.000Z</time>
      </trkpt>
      <trkpt lat="43.0036107" lon="-5.7709075">
        <ele>1047.92</ele>
        <time>2020-07-21T12:37:27.000Z</time>
      </trkpt>
      <trkpt lat="43.0036145" lon="-5.7709128">
        <ele>1047.76</ele>
        <time>2020-07-21T12:37:28.000Z</time>
      </trkpt>
      <trkpt lat="43.0036198" lon="-5.7709208">
        <ele>1047.76</ele>
        <time>2020-07-21T12:37:29.000Z</time>
      </trkpt>
      <trkpt lat="43.0036267" lon="-5.7709307">
        <ele>1047.61</ele>
        <time>2020-07-21T12:37:30.000Z</time>
      </trkpt>
      <trkpt lat="43.0036377" lon="-5.7709417">
        <ele>1047.61</ele>
        <time>2020-07-21T12:37:31.000Z</time>
      </trkpt>
      <trkpt lat="43.0036513" lon="-5.7709517">
        <ele>1047.46</ele>
        <time>2020-07-21T12:37:32.000Z</time>
      </trkpt>
      <trkpt lat="43.0036663" lon="-5.7709573">
        <ele>1047.46</ele>
        <time>2020-07-21T12:37:33.000Z</time>
      </trkpt>
      <trkpt lat="43.0036795" lon="-5.7709593">
        <ele>1047.15</ele>
        <time>2020-07-21T12:37:34.000Z</time>
      </trkpt>
      <trkpt lat="43.0036882" lon="-5.7709608">
        <ele>1047.15</ele>
        <time>2020-07-21T12:37:35.000Z</time>
      </trkpt>
      <trkpt lat="43.0036943" lon="-5.7709692">
        <ele>1047</ele>
        <time>2020-07-21T12:37:36.000Z</time>
      </trkpt>
      <trkpt lat="43.0037005" lon="-5.7709807">
        <ele>1047</ele>
        <time>2020-07-21T12:37:37.000Z</time>
      </trkpt>
      <trkpt lat="43.0037092" lon="-5.7709962">
        <ele>1046.85</ele>
        <time>2020-07-21T12:37:38.000Z</time>
      </trkpt>
      <trkpt lat="43.0037195" lon="-5.7710077">
        <ele>1046.85</ele>
        <time>2020-07-21T12:37:39.000Z</time>
      </trkpt>
      <trkpt lat="43.003732" lon="-5.7710188">
        <ele>1046.7</ele>
        <time>2020-07-21T12:37:40.000Z</time>
      </trkpt>
      <trkpt lat="43.0037462" lon="-5.7710255">
        <ele>1046.7</ele>
        <time>2020-07-21T12:37:41.000Z</time>
      </trkpt>
      <trkpt lat="43.0037628" lon="-5.7710318">
        <ele>1046.54</ele>
        <time>2020-07-21T12:37:42.000Z</time>
      </trkpt>
      <trkpt lat="43.00378" lon="-5.771036">
        <ele>1046.54</ele>
        <time>2020-07-21T12:37:43.000Z</time>
      </trkpt>
      <trkpt lat="43.0037965" lon="-5.7710373">
        <ele>1046.39</ele>
        <time>2020-07-21T12:37:44.000Z</time>
      </trkpt>
      <trkpt lat="43.0038102" lon="-5.771032">
        <ele>1046.39</ele>
        <time>2020-07-21T12:37:45.000Z</time>
      </trkpt>
      <trkpt lat="43.003824" lon="-5.7710242">
        <ele>1046.24</ele>
        <time>2020-07-21T12:37:46.000Z</time>
      </trkpt>
      <trkpt lat="43.0038387" lon="-5.7710142">
        <ele>1046.24</ele>
        <time>2020-07-21T12:37:47.000Z</time>
      </trkpt>
      <trkpt lat="43.0038528" lon="-5.7710067">
        <ele>1046.09</ele>
        <time>2020-07-21T12:37:48.000Z</time>
      </trkpt>
      <trkpt lat="43.0038658" lon="-5.7710002">
        <ele>1046.09</ele>
        <time>2020-07-21T12:37:49.000Z</time>
      </trkpt>
      <trkpt lat="43.0038788" lon="-5.7709983">
        <ele>1046.09</ele>
        <time>2020-07-21T12:37:50.000Z</time>
      </trkpt>
      <trkpt lat="43.0038923" lon="-5.7709982">
        <ele>1046.09</ele>
        <time>2020-07-21T12:37:51.000Z</time>
      </trkpt>
      <trkpt lat="43.0039065" lon="-5.7709977">
        <ele>1045.93</ele>
        <time>2020-07-21T12:37:52.000Z</time>
      </trkpt>
      <trkpt lat="43.0039207" lon="-5.7709948">
        <ele>1045.93</ele>
        <time>2020-07-21T12:37:53.000Z</time>
      </trkpt>
      <trkpt lat="43.003936" lon="-5.7709907">
        <ele>1045.78</ele>
        <time>2020-07-21T12:37:54.000Z</time>
      </trkpt>
      <trkpt lat="43.0039503" lon="-5.7709858">
        <ele>1045.78</ele>
        <time>2020-07-21T12:37:55.000Z</time>
      </trkpt>
      <trkpt lat="43.0039638" lon="-5.7709795">
        <ele>1045.78</ele>
        <time>2020-07-21T12:37:56.000Z</time>
      </trkpt>
      <trkpt lat="43.0039747" lon="-5.7709725">
        <ele>1045.78</ele>
        <time>2020-07-21T12:37:57.000Z</time>
      </trkpt>
      <trkpt lat="43.0039852" lon="-5.7709647">
        <ele>1045.63</ele>
        <time>2020-07-21T12:37:58.000Z</time>
      </trkpt>
      <trkpt lat="43.0039948" lon="-5.7709545">
        <ele>1045.63</ele>
        <time>2020-07-21T12:37:59.000Z</time>
      </trkpt>
      <trkpt lat="43.0040052" lon="-5.7709413">
        <ele>1045.63</ele>
        <time>2020-07-21T12:38:00.000Z</time>
      </trkpt>
      <trkpt lat="43.0040148" lon="-5.7709253">
        <ele>1045.63</ele>
        <time>2020-07-21T12:38:01.000Z</time>
      </trkpt>
      <trkpt lat="43.0040243" lon="-5.7709097">
        <ele>1045.48</ele>
        <time>2020-07-21T12:38:02.000Z</time>
      </trkpt>
      <trkpt lat="43.0040337" lon="-5.7708957">
        <ele>1045.48</ele>
        <time>2020-07-21T12:38:03.000Z</time>
      </trkpt>
      <trkpt lat="43.0040432" lon="-5.7708842">
        <ele>1045.48</ele>
        <time>2020-07-21T12:38:04.000Z</time>
      </trkpt>
      <trkpt lat="43.0040538" lon="-5.7708717">
        <ele>1045.48</ele>
        <time>2020-07-21T12:38:05.000Z</time>
      </trkpt>
      <trkpt lat="43.004065" lon="-5.7708577">
        <ele>1045.32</ele>
        <time>2020-07-21T12:38:06.000Z</time>
      </trkpt>
      <trkpt lat="43.0040755" lon="-5.7708432">
        <ele>1045.32</ele>
        <time>2020-07-21T12:38:07.000Z</time>
      </trkpt>
      <trkpt lat="43.0040838" lon="-5.7708303">
        <ele>1045.32</ele>
        <time>2020-07-21T12:38:08.000Z</time>
      </trkpt>
      <trkpt lat="43.00409" lon="-5.7708188">
        <ele>1045.32</ele>
        <time>2020-07-21T12:38:09.000Z</time>
      </trkpt>
      <trkpt lat="43.0040963" lon="-5.7708065">
        <ele>1045.32</ele>
        <time>2020-07-21T12:38:10.000Z</time>
      </trkpt>
      <trkpt lat="43.0041027" lon="-5.7707928">
        <ele>1045.32</ele>
        <time>2020-07-21T12:38:11.000Z</time>
      </trkpt>
      <trkpt lat="43.0041103" lon="-5.7707783">
        <ele>1045.32</ele>
        <time>2020-07-21T12:38:12.000Z</time>
      </trkpt>
      <trkpt lat="43.0041178" lon="-5.7707653">
        <ele>1045.32</ele>
        <time>2020-07-21T12:38:13.000Z</time>
      </trkpt>
      <trkpt lat="43.0041255" lon="-5.7707537">
        <ele>1045.32</ele>
        <time>2020-07-21T12:38:14.000Z</time>
      </trkpt>
      <trkpt lat="43.004133" lon="-5.7707403">
        <ele>1045.32</ele>
        <time>2020-07-21T12:38:15.000Z</time>
      </trkpt>
      <trkpt lat="43.00414" lon="-5.7707265">
        <ele>1045.32</ele>
        <time>2020-07-21T12:38:16.000Z</time>
      </trkpt>
      <trkpt lat="43.004148" lon="-5.7707113">
        <ele>1045.32</ele>
        <time>2020-07-21T12:38:17.000Z</time>
      </trkpt>
      <trkpt lat="43.0041563" lon="-5.7706977">
        <ele>1045.32</ele>
        <time>2020-07-21T12:38:18.000Z</time>
      </trkpt>
      <trkpt lat="43.0041653" lon="-5.7706843">
        <ele>1045.32</ele>
        <time>2020-07-21T12:38:19.000Z</time>
      </trkpt>
      <trkpt lat="43.0041727" lon="-5.770672">
        <ele>1045.32</ele>
        <time>2020-07-21T12:38:20.000Z</time>
      </trkpt>
      <trkpt lat="43.0041793" lon="-5.7706592">
        <ele>1045.32</ele>
        <time>2020-07-21T12:38:21.000Z</time>
      </trkpt>
      <trkpt lat="43.004186" lon="-5.770646">
        <ele>1045.32</ele>
        <time>2020-07-21T12:38:22.000Z</time>
      </trkpt>
      <trkpt lat="43.004193" lon="-5.7706318">
        <ele>1045.32</ele>
        <time>2020-07-21T12:38:23.000Z</time>
      </trkpt>
      <trkpt lat="43.0042003" lon="-5.7706167">
        <ele>1045.32</ele>
        <time>2020-07-21T12:38:24.000Z</time>
      </trkpt>
      <trkpt lat="43.0042068" lon="-5.7706017">
        <ele>1045.32</ele>
        <time>2020-07-21T12:38:25.000Z</time>
      </trkpt>
      <trkpt lat="43.0042138" lon="-5.7705873">
        <ele>1045.17</ele>
        <time>2020-07-21T12:38:26.000Z</time>
      </trkpt>
      <trkpt lat="43.0042203" lon="-5.7705742">
        <ele>1045.17</ele>
        <time>2020-07-21T12:38:27.000Z</time>
      </trkpt>
      <trkpt lat="43.0042282" lon="-5.7705617">
        <ele>1045.17</ele>
        <time>2020-07-21T12:38:28.000Z</time>
      </trkpt>
      <trkpt lat="43.0042357" lon="-5.7705485">
        <ele>1045.17</ele>
        <time>2020-07-21T12:38:29.000Z</time>
      </trkpt>
      <trkpt lat="43.004244" lon="-5.770534">
        <ele>1045.17</ele>
        <time>2020-07-21T12:38:30.000Z</time>
      </trkpt>
      <trkpt lat="43.0042515" lon="-5.770519">
        <ele>1045.17</ele>
        <time>2020-07-21T12:38:31.000Z</time>
      </trkpt>
      <trkpt lat="43.0042595" lon="-5.7705037">
        <ele>1045.17</ele>
        <time>2020-07-21T12:38:32.000Z</time>
      </trkpt>
      <trkpt lat="43.0042677" lon="-5.770489">
        <ele>1045.17</ele>
        <time>2020-07-21T12:38:33.000Z</time>
      </trkpt>
      <trkpt lat="43.0042748" lon="-5.7704732">
        <ele>1045.02</ele>
        <time>2020-07-21T12:38:34.000Z</time>
      </trkpt>
      <trkpt lat="43.0042813" lon="-5.7704572">
        <ele>1045.02</ele>
        <time>2020-07-21T12:38:35.000Z</time>
      </trkpt>
      <trkpt lat="43.0042865" lon="-5.7704415">
        <ele>1045.02</ele>
        <time>2020-07-21T12:38:36.000Z</time>
      </trkpt>
      <trkpt lat="43.0042935" lon="-5.7704255">
        <ele>1045.02</ele>
        <time>2020-07-21T12:38:37.000Z</time>
      </trkpt>
      <trkpt lat="43.0043002" lon="-5.77041">
        <ele>1044.87</ele>
        <time>2020-07-21T12:38:38.000Z</time>
      </trkpt>
      <trkpt lat="43.0043078" lon="-5.7703948">
        <ele>1044.87</ele>
        <time>2020-07-21T12:38:39.000Z</time>
      </trkpt>
      <trkpt lat="43.0043153" lon="-5.770381">
        <ele>1044.87</ele>
        <time>2020-07-21T12:38:40.000Z</time>
      </trkpt>
      <trkpt lat="43.0043243" lon="-5.770367">
        <ele>1044.87</ele>
        <time>2020-07-21T12:38:41.000Z</time>
      </trkpt>
      <trkpt lat="43.0043342" lon="-5.770353">
        <ele>1044.71</ele>
        <time>2020-07-21T12:38:42.000Z</time>
      </trkpt>
      <trkpt lat="43.004344" lon="-5.7703388">
        <ele>1044.71</ele>
        <time>2020-07-21T12:38:43.000Z</time>
      </trkpt>
      <trkpt lat="43.0043537" lon="-5.770325">
        <ele>1044.71</ele>
        <time>2020-07-21T12:38:44.000Z</time>
      </trkpt>
      <trkpt lat="43.0043625" lon="-5.7703102">
        <ele>1044.71</ele>
        <time>2020-07-21T12:38:45.000Z</time>
      </trkpt>
      <trkpt lat="43.0043707" lon="-5.7702953">
        <ele>1044.56</ele>
        <time>2020-07-21T12:38:46.000Z</time>
      </trkpt>
      <trkpt lat="43.0043792" lon="-5.7702808">
        <ele>1044.56</ele>
        <time>2020-07-21T12:38:47.000Z</time>
      </trkpt>
      <trkpt lat="43.0043898" lon="-5.7702673">
        <ele>1044.56</ele>
        <time>2020-07-21T12:38:48.000Z</time>
      </trkpt>
      <trkpt lat="43.0044003" lon="-5.7702552">
        <ele>1044.56</ele>
        <time>2020-07-21T12:38:49.000Z</time>
      </trkpt>
      <trkpt lat="43.0044122" lon="-5.7702445">
        <ele>1044.41</ele>
        <time>2020-07-21T12:38:50.000Z</time>
      </trkpt>
      <trkpt lat="43.0044235" lon="-5.7702357">
        <ele>1044.41</ele>
        <time>2020-07-21T12:38:51.000Z</time>
      </trkpt>
      <trkpt lat="43.0044362" lon="-5.7702292">
        <ele>1044.41</ele>
        <time>2020-07-21T12:38:52.000Z</time>
      </trkpt>
      <trkpt lat="43.004449" lon="-5.7702243">
        <ele>1044.41</ele>
        <time>2020-07-21T12:38:53.000Z</time>
      </trkpt>
      <trkpt lat="43.0044623" lon="-5.7702203">
        <ele>1044.26</ele>
        <time>2020-07-21T12:38:54.000Z</time>
      </trkpt>
      <trkpt lat="43.0044748" lon="-5.7702178">
        <ele>1044.26</ele>
        <time>2020-07-21T12:38:55.000Z</time>
      </trkpt>
      <trkpt lat="43.004487" lon="-5.7702167">
        <ele>1044.1</ele>
        <time>2020-07-21T12:38:56.000Z</time>
      </trkpt>
      <trkpt lat="43.0044985" lon="-5.7702173">
        <ele>1044.1</ele>
        <time>2020-07-21T12:38:57.000Z</time>
      </trkpt>
      <trkpt lat="43.0045105" lon="-5.7702182">
        <ele>1044.1</ele>
        <time>2020-07-21T12:38:58.000Z</time>
      </trkpt>
      <trkpt lat="43.0045227" lon="-5.770219">
        <ele>1044.1</ele>
        <time>2020-07-21T12:38:59.000Z</time>
      </trkpt>
      <trkpt lat="43.0045355" lon="-5.7702195">
        <ele>1043.95</ele>
        <time>2020-07-21T12:39:00.000Z</time>
      </trkpt>
      <trkpt lat="43.0045488" lon="-5.7702207">
        <ele>1043.95</ele>
        <time>2020-07-21T12:39:01.000Z</time>
      </trkpt>
      <trkpt lat="43.0045613" lon="-5.7702233">
        <ele>1043.8</ele>
        <time>2020-07-21T12:39:02.000Z</time>
      </trkpt>
      <trkpt lat="43.0045738" lon="-5.7702275">
        <ele>1043.8</ele>
        <time>2020-07-21T12:39:03.000Z</time>
      </trkpt>
      <trkpt lat="43.004587" lon="-5.7702322">
        <ele>1043.65</ele>
        <time>2020-07-21T12:39:04.000Z</time>
      </trkpt>
      <trkpt lat="43.0046017" lon="-5.7702362">
        <ele>1043.65</ele>
        <time>2020-07-21T12:39:05.000Z</time>
      </trkpt>
      <trkpt lat="43.0046175" lon="-5.7702395">
        <ele>1043.49</ele>
        <time>2020-07-21T12:39:06.000Z</time>
      </trkpt>
      <trkpt lat="43.0046333" lon="-5.7702423">
        <ele>1043.49</ele>
        <time>2020-07-21T12:39:07.000Z</time>
      </trkpt>
      <trkpt lat="43.0046493" lon="-5.7702448">
        <ele>1043.49</ele>
        <time>2020-07-21T12:39:08.000Z</time>
      </trkpt>
      <trkpt lat="43.004665" lon="-5.7702472">
        <ele>1043.49</ele>
        <time>2020-07-21T12:39:09.000Z</time>
      </trkpt>
      <trkpt lat="43.0046823" lon="-5.7702493">
        <ele>1043.34</ele>
        <time>2020-07-21T12:39:10.000Z</time>
      </trkpt>
      <trkpt lat="43.0046993" lon="-5.7702533">
        <ele>1043.34</ele>
        <time>2020-07-21T12:39:11.000Z</time>
      </trkpt>
      <trkpt lat="43.0047168" lon="-5.7702582">
        <ele>1043.19</ele>
        <time>2020-07-21T12:39:12.000Z</time>
      </trkpt>
      <trkpt lat="43.0047333" lon="-5.7702628">
        <ele>1043.19</ele>
        <time>2020-07-21T12:39:13.000Z</time>
      </trkpt>
      <trkpt lat="43.0047497" lon="-5.7702663">
        <ele>1043.04</ele>
        <time>2020-07-21T12:39:14.000Z</time>
      </trkpt>
      <trkpt lat="43.0047648" lon="-5.7702707">
        <ele>1043.04</ele>
        <time>2020-07-21T12:39:15.000Z</time>
      </trkpt>
      <trkpt lat="43.0047802" lon="-5.7702752">
        <ele>1043.04</ele>
        <time>2020-07-21T12:39:16.000Z</time>
      </trkpt>
      <trkpt lat="43.0047953" lon="-5.770281">
        <ele>1043.04</ele>
        <time>2020-07-21T12:39:17.000Z</time>
      </trkpt>
      <trkpt lat="43.0048118" lon="-5.7702855">
        <ele>1042.89</ele>
        <time>2020-07-21T12:39:18.000Z</time>
      </trkpt>
      <trkpt lat="43.004827" lon="-5.7702907">
        <ele>1042.89</ele>
        <time>2020-07-21T12:39:19.000Z</time>
      </trkpt>
      <trkpt lat="43.0048425" lon="-5.7702952">
        <ele>1042.89</ele>
        <time>2020-07-21T12:39:20.000Z</time>
      </trkpt>
      <trkpt lat="43.0048563" lon="-5.7703002">
        <ele>1042.89</ele>
        <time>2020-07-21T12:39:21.000Z</time>
      </trkpt>
      <trkpt lat="43.00487" lon="-5.7703052">
        <ele>1042.73</ele>
        <time>2020-07-21T12:39:22.000Z</time>
      </trkpt>
      <trkpt lat="43.0048837" lon="-5.7703103">
        <ele>1042.73</ele>
        <time>2020-07-21T12:39:23.000Z</time>
      </trkpt>
      <trkpt lat="43.0048973" lon="-5.7703165">
        <ele>1042.58</ele>
        <time>2020-07-21T12:39:24.000Z</time>
      </trkpt>
      <trkpt lat="43.0049118" lon="-5.7703235">
        <ele>1042.58</ele>
        <time>2020-07-21T12:39:25.000Z</time>
      </trkpt>
      <trkpt lat="43.004927" lon="-5.7703307">
        <ele>1042.58</ele>
        <time>2020-07-21T12:39:26.000Z</time>
      </trkpt>
      <trkpt lat="43.0049422" lon="-5.7703377">
        <ele>1042.58</ele>
        <time>2020-07-21T12:39:27.000Z</time>
      </trkpt>
      <trkpt lat="43.0049562" lon="-5.7703435">
        <ele>1042.43</ele>
        <time>2020-07-21T12:39:28.000Z</time>
      </trkpt>
      <trkpt lat="43.0049687" lon="-5.7703495">
        <ele>1042.43</ele>
        <time>2020-07-21T12:39:29.000Z</time>
      </trkpt>
      <trkpt lat="43.00498" lon="-5.7703552">
        <ele>1042.43</ele>
        <time>2020-07-21T12:39:30.000Z</time>
      </trkpt>
      <trkpt lat="43.0049927" lon="-5.7703603">
        <ele>1042.43</ele>
        <time>2020-07-21T12:39:31.000Z</time>
      </trkpt>
      <trkpt lat="43.0050055" lon="-5.7703662">
        <ele>1042.43</ele>
        <time>2020-07-21T12:39:32.000Z</time>
      </trkpt>
      <trkpt lat="43.0050197" lon="-5.7703717">
        <ele>1042.43</ele>
        <time>2020-07-21T12:39:33.000Z</time>
      </trkpt>
      <trkpt lat="43.0050338" lon="-5.7703777">
        <ele>1042.28</ele>
        <time>2020-07-21T12:39:34.000Z</time>
      </trkpt>
      <trkpt lat="43.0050495" lon="-5.7703828">
        <ele>1042.28</ele>
        <time>2020-07-21T12:39:35.000Z</time>
      </trkpt>
      <trkpt lat="43.0050643" lon="-5.7703882">
        <ele>1042.28</ele>
        <time>2020-07-21T12:39:36.000Z</time>
      </trkpt>
      <trkpt lat="43.0050787" lon="-5.770393">
        <ele>1042.28</ele>
        <time>2020-07-21T12:39:37.000Z</time>
      </trkpt>
      <trkpt lat="43.005092" lon="-5.7703977">
        <ele>1042.28</ele>
        <time>2020-07-21T12:39:38.000Z</time>
      </trkpt>
      <trkpt lat="43.005106" lon="-5.7704032">
        <ele>1042.28</ele>
        <time>2020-07-21T12:39:39.000Z</time>
      </trkpt>
      <trkpt lat="43.0051203" lon="-5.7704093">
        <ele>1042.12</ele>
        <time>2020-07-21T12:39:40.000Z</time>
      </trkpt>
      <trkpt lat="43.0051348" lon="-5.7704155">
        <ele>1042.12</ele>
        <time>2020-07-21T12:39:41.000Z</time>
      </trkpt>
      <trkpt lat="43.0051492" lon="-5.7704212">
        <ele>1042.12</ele>
        <time>2020-07-21T12:39:42.000Z</time>
      </trkpt>
      <trkpt lat="43.0051632" lon="-5.7704267">
        <ele>1042.12</ele>
        <time>2020-07-21T12:39:43.000Z</time>
      </trkpt>
      <trkpt lat="43.005177" lon="-5.7704323">
        <ele>1042.12</ele>
        <time>2020-07-21T12:39:44.000Z</time>
      </trkpt>
      <trkpt lat="43.005191" lon="-5.770437">
        <ele>1042.12</ele>
        <time>2020-07-21T12:39:45.000Z</time>
      </trkpt>
      <trkpt lat="43.0052053" lon="-5.7704412">
        <ele>1042.12</ele>
        <time>2020-07-21T12:39:46.000Z</time>
      </trkpt>
      <trkpt lat="43.0052197" lon="-5.7704455">
        <ele>1042.12</ele>
        <time>2020-07-21T12:39:47.000Z</time>
      </trkpt>
      <trkpt lat="43.0052352" lon="-5.7704502">
        <ele>1042.12</ele>
        <time>2020-07-21T12:39:48.000Z</time>
      </trkpt>
      <trkpt lat="43.0052503" lon="-5.7704552">
        <ele>1042.12</ele>
        <time>2020-07-21T12:39:49.000Z</time>
      </trkpt>
      <trkpt lat="43.0052652" lon="-5.7704588">
        <ele>1042.12</ele>
        <time>2020-07-21T12:39:50.000Z</time>
      </trkpt>
      <trkpt lat="43.0052795" lon="-5.770463">
        <ele>1042.12</ele>
        <time>2020-07-21T12:39:51.000Z</time>
      </trkpt>
      <trkpt lat="43.0052943" lon="-5.7704632">
        <ele>1042.12</ele>
        <time>2020-07-21T12:39:52.000Z</time>
      </trkpt>
      <trkpt lat="43.0053095" lon="-5.7704625">
        <ele>1042.12</ele>
        <time>2020-07-21T12:39:53.000Z</time>
      </trkpt>
      <trkpt lat="43.005325" lon="-5.7704602">
        <ele>1042.12</ele>
        <time>2020-07-21T12:39:54.000Z</time>
      </trkpt>
      <trkpt lat="43.0053405" lon="-5.7704592">
        <ele>1042.12</ele>
        <time>2020-07-21T12:39:55.000Z</time>
      </trkpt>
      <trkpt lat="43.0053568" lon="-5.7704567">
        <ele>1042.12</ele>
        <time>2020-07-21T12:39:56.000Z</time>
      </trkpt>
      <trkpt lat="43.0053723" lon="-5.770453">
        <ele>1042.12</ele>
        <time>2020-07-21T12:39:57.000Z</time>
      </trkpt>
      <trkpt lat="43.0053873" lon="-5.7704492">
        <ele>1042.12</ele>
        <time>2020-07-21T12:39:58.000Z</time>
      </trkpt>
      <trkpt lat="43.0054022" lon="-5.7704463">
        <ele>1042.12</ele>
        <time>2020-07-21T12:39:59.000Z</time>
      </trkpt>
      <trkpt lat="43.0054172" lon="-5.7704447">
        <ele>1042.12</ele>
        <time>2020-07-21T12:40:00.000Z</time>
      </trkpt>
      <trkpt lat="43.0054322" lon="-5.7704442">
        <ele>1042.12</ele>
        <time>2020-07-21T12:40:01.000Z</time>
      </trkpt>
      <trkpt lat="43.005447" lon="-5.7704423">
        <ele>1042.12</ele>
        <time>2020-07-21T12:40:02.000Z</time>
      </trkpt>
      <trkpt lat="43.0054627" lon="-5.7704393">
        <ele>1042.12</ele>
        <time>2020-07-21T12:40:03.000Z</time>
      </trkpt>
      <trkpt lat="43.0054788" lon="-5.7704367">
        <ele>1042.12</ele>
        <time>2020-07-21T12:40:04.000Z</time>
      </trkpt>
      <trkpt lat="43.005495" lon="-5.7704347">
        <ele>1042.12</ele>
        <time>2020-07-21T12:40:05.000Z</time>
      </trkpt>
      <trkpt lat="43.005511" lon="-5.7704323">
        <ele>1042.12</ele>
        <time>2020-07-21T12:40:06.000Z</time>
      </trkpt>
      <trkpt lat="43.0055257" lon="-5.770429">
        <ele>1042.12</ele>
        <time>2020-07-21T12:40:07.000Z</time>
      </trkpt>
      <trkpt lat="43.0055385" lon="-5.7704258">
        <ele>1042.12</ele>
        <time>2020-07-21T12:40:08.000Z</time>
      </trkpt>
      <trkpt lat="43.0055505" lon="-5.7704232">
        <ele>1042.12</ele>
        <time>2020-07-21T12:40:09.000Z</time>
      </trkpt>
      <trkpt lat="43.0055637" lon="-5.7704208">
        <ele>1042.12</ele>
        <time>2020-07-21T12:40:10.000Z</time>
      </trkpt>
      <trkpt lat="43.0055777" lon="-5.7704183">
        <ele>1042.12</ele>
        <time>2020-07-21T12:40:11.000Z</time>
      </trkpt>
      <trkpt lat="43.0055918" lon="-5.770416">
        <ele>1042.12</ele>
        <time>2020-07-21T12:40:12.000Z</time>
      </trkpt>
      <trkpt lat="43.0056065" lon="-5.7704143">
        <ele>1042.12</ele>
        <time>2020-07-21T12:40:13.000Z</time>
      </trkpt>
      <trkpt lat="43.0056217" lon="-5.7704123">
        <ele>1042.12</ele>
        <time>2020-07-21T12:40:14.000Z</time>
      </trkpt>
      <trkpt lat="43.0056367" lon="-5.7704102">
        <ele>1042.12</ele>
        <time>2020-07-21T12:40:15.000Z</time>
      </trkpt>
      <trkpt lat="43.0056507" lon="-5.7704075">
        <ele>1042.12</ele>
        <time>2020-07-21T12:40:16.000Z</time>
      </trkpt>
      <trkpt lat="43.0056642" lon="-5.7704052">
        <ele>1042.12</ele>
        <time>2020-07-21T12:40:17.000Z</time>
      </trkpt>
      <trkpt lat="43.0056775" lon="-5.770403">
        <ele>1042.12</ele>
        <time>2020-07-21T12:40:18.000Z</time>
      </trkpt>
      <trkpt lat="43.0056913" lon="-5.7704007">
        <ele>1042.12</ele>
        <time>2020-07-21T12:40:19.000Z</time>
      </trkpt>
      <trkpt lat="43.0057053" lon="-5.7703985">
        <ele>1042.12</ele>
        <time>2020-07-21T12:40:20.000Z</time>
      </trkpt>
      <trkpt lat="43.0057192" lon="-5.770396">
        <ele>1042.12</ele>
        <time>2020-07-21T12:40:21.000Z</time>
      </trkpt>
      <trkpt lat="43.0057327" lon="-5.7703937">
        <ele>1042.12</ele>
        <time>2020-07-21T12:40:22.000Z</time>
      </trkpt>
      <trkpt lat="43.0057458" lon="-5.7703903">
        <ele>1042.12</ele>
        <time>2020-07-21T12:40:23.000Z</time>
      </trkpt>
      <trkpt lat="43.0057592" lon="-5.7703858">
        <ele>1042.12</ele>
        <time>2020-07-21T12:40:24.000Z</time>
      </trkpt>
      <trkpt lat="43.0057723" lon="-5.7703808">
        <ele>1042.12</ele>
        <time>2020-07-21T12:40:25.000Z</time>
      </trkpt>
      <trkpt lat="43.0057853" lon="-5.7703758">
        <ele>1042.12</ele>
        <time>2020-07-21T12:40:26.000Z</time>
      </trkpt>
      <trkpt lat="43.0057988" lon="-5.77037">
        <ele>1042.12</ele>
        <time>2020-07-21T12:40:27.000Z</time>
      </trkpt>
      <trkpt lat="43.0058122" lon="-5.7703632">
        <ele>1042.12</ele>
        <time>2020-07-21T12:40:28.000Z</time>
      </trkpt>
      <trkpt lat="43.0058257" lon="-5.7703552">
        <ele>1042.12</ele>
        <time>2020-07-21T12:40:29.000Z</time>
      </trkpt>
      <trkpt lat="43.0058388" lon="-5.7703477">
        <ele>1042.12</ele>
        <time>2020-07-21T12:40:30.000Z</time>
      </trkpt>
      <trkpt lat="43.005852" lon="-5.7703402">
        <ele>1042.12</ele>
        <time>2020-07-21T12:40:31.000Z</time>
      </trkpt>
      <trkpt lat="43.0058657" lon="-5.7703332">
        <ele>1042.12</ele>
        <time>2020-07-21T12:40:32.000Z</time>
      </trkpt>
      <trkpt lat="43.0058797" lon="-5.7703263">
        <ele>1042.12</ele>
        <time>2020-07-21T12:40:33.000Z</time>
      </trkpt>
      <trkpt lat="43.0058933" lon="-5.7703198">
        <ele>1042.12</ele>
        <time>2020-07-21T12:40:34.000Z</time>
      </trkpt>
      <trkpt lat="43.0059063" lon="-5.770312">
        <ele>1042.12</ele>
        <time>2020-07-21T12:40:35.000Z</time>
      </trkpt>
      <trkpt lat="43.0059185" lon="-5.7703038">
        <ele>1042.12</ele>
        <time>2020-07-21T12:40:36.000Z</time>
      </trkpt>
      <trkpt lat="43.0059307" lon="-5.7702955">
        <ele>1042.12</ele>
        <time>2020-07-21T12:40:37.000Z</time>
      </trkpt>
      <trkpt lat="43.0059425" lon="-5.7702878">
        <ele>1042.28</ele>
        <time>2020-07-21T12:40:38.000Z</time>
      </trkpt>
      <trkpt lat="43.005955" lon="-5.77028">
        <ele>1042.28</ele>
        <time>2020-07-21T12:40:39.000Z</time>
      </trkpt>
      <trkpt lat="43.0059672" lon="-5.7702715">
        <ele>1042.28</ele>
        <time>2020-07-21T12:40:40.000Z</time>
      </trkpt>
      <trkpt lat="43.0059797" lon="-5.7702628">
        <ele>1042.28</ele>
        <time>2020-07-21T12:40:41.000Z</time>
      </trkpt>
      <trkpt lat="43.0059918" lon="-5.7702542">
        <ele>1042.28</ele>
        <time>2020-07-21T12:40:42.000Z</time>
      </trkpt>
      <trkpt lat="43.006004" lon="-5.7702453">
        <ele>1042.28</ele>
        <time>2020-07-21T12:40:43.000Z</time>
      </trkpt>
      <trkpt lat="43.006016" lon="-5.7702358">
        <ele>1042.43</ele>
        <time>2020-07-21T12:40:44.000Z</time>
      </trkpt>
      <trkpt lat="43.0060283" lon="-5.7702257">
        <ele>1042.43</ele>
        <time>2020-07-21T12:40:45.000Z</time>
      </trkpt>
      <trkpt lat="43.0060407" lon="-5.7702152">
        <ele>1042.43</ele>
        <time>2020-07-21T12:40:46.000Z</time>
      </trkpt>
      <trkpt lat="43.0060523" lon="-5.7702045">
        <ele>1042.43</ele>
        <time>2020-07-21T12:40:47.000Z</time>
      </trkpt>
      <trkpt lat="43.0060633" lon="-5.7701958">
        <ele>1042.43</ele>
        <time>2020-07-21T12:40:48.000Z</time>
      </trkpt>
      <trkpt lat="43.0060748" lon="-5.7701863">
        <ele>1042.43</ele>
        <time>2020-07-21T12:40:49.000Z</time>
      </trkpt>
      <trkpt lat="43.0060865" lon="-5.770177">
        <ele>1042.43</ele>
        <time>2020-07-21T12:40:50.000Z</time>
      </trkpt>
      <trkpt lat="43.0060978" lon="-5.7701658">
        <ele>1042.43</ele>
        <time>2020-07-21T12:40:51.000Z</time>
      </trkpt>
      <trkpt lat="43.006108" lon="-5.7701543">
        <ele>1042.58</ele>
        <time>2020-07-21T12:40:52.000Z</time>
      </trkpt>
      <trkpt lat="43.0061178" lon="-5.7701435">
        <ele>1042.58</ele>
        <time>2020-07-21T12:40:53.000Z</time>
      </trkpt>
      <trkpt lat="43.0061283" lon="-5.7701323">
        <ele>1042.58</ele>
        <time>2020-07-21T12:40:54.000Z</time>
      </trkpt>
      <trkpt lat="43.006139" lon="-5.7701207">
        <ele>1042.58</ele>
        <time>2020-07-21T12:40:55.000Z</time>
      </trkpt>
      <trkpt lat="43.0061498" lon="-5.7701077">
        <ele>1042.73</ele>
        <time>2020-07-21T12:40:56.000Z</time>
      </trkpt>
      <trkpt lat="43.0061603" lon="-5.770094">
        <ele>1042.73</ele>
        <time>2020-07-21T12:40:57.000Z</time>
      </trkpt>
      <trkpt lat="43.0061702" lon="-5.7700805">
        <ele>1042.73</ele>
        <time>2020-07-21T12:40:58.000Z</time>
      </trkpt>
      <trkpt lat="43.0061797" lon="-5.7700673">
        <ele>1042.73</ele>
        <time>2020-07-21T12:40:59.000Z</time>
      </trkpt>
      <trkpt lat="43.0061883" lon="-5.7700545">
        <ele>1042.73</ele>
        <time>2020-07-21T12:41:00.000Z</time>
      </trkpt>
      <trkpt lat="43.0061973" lon="-5.7700417">
        <ele>1042.73</ele>
        <time>2020-07-21T12:41:01.000Z</time>
      </trkpt>
      <trkpt lat="43.0062065" lon="-5.7700278">
        <ele>1042.89</ele>
        <time>2020-07-21T12:41:02.000Z</time>
      </trkpt>
      <trkpt lat="43.0062162" lon="-5.7700135">
        <ele>1042.89</ele>
        <time>2020-07-21T12:41:03.000Z</time>
      </trkpt>
      <trkpt lat="43.0062253" lon="-5.7699985">
        <ele>1042.89</ele>
        <time>2020-07-21T12:41:04.000Z</time>
      </trkpt>
      <trkpt lat="43.0062335" lon="-5.7699838">
        <ele>1042.89</ele>
        <time>2020-07-21T12:41:05.000Z</time>
      </trkpt>
      <trkpt lat="43.0062413" lon="-5.7699697">
        <ele>1043.04</ele>
        <time>2020-07-21T12:41:06.000Z</time>
      </trkpt>
      <trkpt lat="43.006249" lon="-5.7699558">
        <ele>1043.04</ele>
        <time>2020-07-21T12:41:07.000Z</time>
      </trkpt>
      <trkpt lat="43.006257" lon="-5.7699417">
        <ele>1043.04</ele>
        <time>2020-07-21T12:41:08.000Z</time>
      </trkpt>
      <trkpt lat="43.0062652" lon="-5.7699275">
        <ele>1043.04</ele>
        <time>2020-07-21T12:41:09.000Z</time>
      </trkpt>
      <trkpt lat="43.0062737" lon="-5.7699133">
        <ele>1043.04</ele>
        <time>2020-07-21T12:41:10.000Z</time>
      </trkpt>
      <trkpt lat="43.0062822" lon="-5.7698983">
        <ele>1043.04</ele>
        <time>2020-07-21T12:41:11.000Z</time>
      </trkpt>
      <trkpt lat="43.0062905" lon="-5.7698823">
        <ele>1043.04</ele>
        <time>2020-07-21T12:41:12.000Z</time>
      </trkpt>
      <trkpt lat="43.0062985" lon="-5.7698652">
        <ele>1043.04</ele>
        <time>2020-07-21T12:41:13.000Z</time>
      </trkpt>
      <trkpt lat="43.006306" lon="-5.7698483">
        <ele>1043.04</ele>
        <time>2020-07-21T12:41:14.000Z</time>
      </trkpt>
      <trkpt lat="43.0063128" lon="-5.7698328">
        <ele>1043.04</ele>
        <time>2020-07-21T12:41:15.000Z</time>
      </trkpt>
      <trkpt lat="43.00632" lon="-5.7698177">
        <ele>1043.19</ele>
        <time>2020-07-21T12:41:16.000Z</time>
      </trkpt>
      <trkpt lat="43.006327" lon="-5.7698025">
        <ele>1043.19</ele>
        <time>2020-07-21T12:41:17.000Z</time>
      </trkpt>
      <trkpt lat="43.0063347" lon="-5.7697863">
        <ele>1043.19</ele>
        <time>2020-07-21T12:41:18.000Z</time>
      </trkpt>
      <trkpt lat="43.0063435" lon="-5.7697703">
        <ele>1043.19</ele>
        <time>2020-07-21T12:41:19.000Z</time>
      </trkpt>
      <trkpt lat="43.006353" lon="-5.7697537">
        <ele>1043.19</ele>
        <time>2020-07-21T12:41:20.000Z</time>
      </trkpt>
      <trkpt lat="43.0063622" lon="-5.7697368">
        <ele>1043.19</ele>
        <time>2020-07-21T12:41:21.000Z</time>
      </trkpt>
      <trkpt lat="43.0063707" lon="-5.7697198">
        <ele>1043.19</ele>
        <time>2020-07-21T12:41:22.000Z</time>
      </trkpt>
      <trkpt lat="43.0063793" lon="-5.769704">
        <ele>1043.19</ele>
        <time>2020-07-21T12:41:23.000Z</time>
      </trkpt>
      <trkpt lat="43.0063883" lon="-5.7696903">
        <ele>1043.19</ele>
        <time>2020-07-21T12:41:24.000Z</time>
      </trkpt>
      <trkpt lat="43.006398" lon="-5.7696768">
        <ele>1043.19</ele>
        <time>2020-07-21T12:41:25.000Z</time>
      </trkpt>
      <trkpt lat="43.0064073" lon="-5.7696622">
        <ele>1043.19</ele>
        <time>2020-07-21T12:41:26.000Z</time>
      </trkpt>
      <trkpt lat="43.0064165" lon="-5.7696457">
        <ele>1043.19</ele>
        <time>2020-07-21T12:41:27.000Z</time>
      </trkpt>
      <trkpt lat="43.006425" lon="-5.7696293">
        <ele>1043.19</ele>
        <time>2020-07-21T12:41:28.000Z</time>
      </trkpt>
      <trkpt lat="43.0064345" lon="-5.7696147">
        <ele>1043.19</ele>
        <time>2020-07-21T12:41:29.000Z</time>
      </trkpt>
      <trkpt lat="43.0064453" lon="-5.7696007">
        <ele>1043.19</ele>
        <time>2020-07-21T12:41:30.000Z</time>
      </trkpt>
      <trkpt lat="43.0064562" lon="-5.7695877">
        <ele>1043.19</ele>
        <time>2020-07-21T12:41:31.000Z</time>
      </trkpt>
      <trkpt lat="43.0064662" lon="-5.7695748">
        <ele>1043.19</ele>
        <time>2020-07-21T12:41:32.000Z</time>
      </trkpt>
      <trkpt lat="43.0064755" lon="-5.7695623">
        <ele>1043.19</ele>
        <time>2020-07-21T12:41:33.000Z</time>
      </trkpt>
      <trkpt lat="43.0064852" lon="-5.76955">
        <ele>1043.19</ele>
        <time>2020-07-21T12:41:34.000Z</time>
      </trkpt>
      <trkpt lat="43.0064955" lon="-5.769538">
        <ele>1043.19</ele>
        <time>2020-07-21T12:41:35.000Z</time>
      </trkpt>
      <trkpt lat="43.0065058" lon="-5.7695263">
        <ele>1043.19</ele>
        <time>2020-07-21T12:41:36.000Z</time>
      </trkpt>
      <trkpt lat="43.0065167" lon="-5.7695153">
        <ele>1043.19</ele>
        <time>2020-07-21T12:41:37.000Z</time>
      </trkpt>
      <trkpt lat="43.006527" lon="-5.7695045">
        <ele>1043.19</ele>
        <time>2020-07-21T12:41:38.000Z</time>
      </trkpt>
      <trkpt lat="43.0065375" lon="-5.7694937">
        <ele>1043.19</ele>
        <time>2020-07-21T12:41:39.000Z</time>
      </trkpt>
      <trkpt lat="43.006548" lon="-5.769482">
        <ele>1043.19</ele>
        <time>2020-07-21T12:41:40.000Z</time>
      </trkpt>
      <trkpt lat="43.0065585" lon="-5.7694698">
        <ele>1043.19</ele>
        <time>2020-07-21T12:41:41.000Z</time>
      </trkpt>
      <trkpt lat="43.0065692" lon="-5.769458">
        <ele>1043.19</ele>
        <time>2020-07-21T12:41:42.000Z</time>
      </trkpt>
      <trkpt lat="43.0065803" lon="-5.7694468">
        <ele>1043.19</ele>
        <time>2020-07-21T12:41:43.000Z</time>
      </trkpt>
      <trkpt lat="43.0065915" lon="-5.769436">
        <ele>1043.19</ele>
        <time>2020-07-21T12:41:44.000Z</time>
      </trkpt>
      <trkpt lat="43.0066025" lon="-5.7694252">
        <ele>1043.19</ele>
        <time>2020-07-21T12:41:45.000Z</time>
      </trkpt>
      <trkpt lat="43.0066128" lon="-5.769414">
        <ele>1043.19</ele>
        <time>2020-07-21T12:41:46.000Z</time>
      </trkpt>
      <trkpt lat="43.0066232" lon="-5.7694032">
        <ele>1043.19</ele>
        <time>2020-07-21T12:41:47.000Z</time>
      </trkpt>
      <trkpt lat="43.0066338" lon="-5.7693922">
        <ele>1043.19</ele>
        <time>2020-07-21T12:41:48.000Z</time>
      </trkpt>
      <trkpt lat="43.0066445" lon="-5.7693815">
        <ele>1043.19</ele>
        <time>2020-07-21T12:41:49.000Z</time>
      </trkpt>
      <trkpt lat="43.0066553" lon="-5.7693708">
        <ele>1043.04</ele>
        <time>2020-07-21T12:41:50.000Z</time>
      </trkpt>
      <trkpt lat="43.0066663" lon="-5.7693608">
        <ele>1043.04</ele>
        <time>2020-07-21T12:41:51.000Z</time>
      </trkpt>
      <trkpt lat="43.0066773" lon="-5.7693507">
        <ele>1043.04</ele>
        <time>2020-07-21T12:41:52.000Z</time>
      </trkpt>
      <trkpt lat="43.0066882" lon="-5.7693413">
        <ele>1043.04</ele>
        <time>2020-07-21T12:41:53.000Z</time>
      </trkpt>
      <trkpt lat="43.0066993" lon="-5.7693315">
        <ele>1043.04</ele>
        <time>2020-07-21T12:41:54.000Z</time>
      </trkpt>
      <trkpt lat="43.0067108" lon="-5.7693213">
        <ele>1043.04</ele>
        <time>2020-07-21T12:41:55.000Z</time>
      </trkpt>
      <trkpt lat="43.0067228" lon="-5.76931">
        <ele>1042.89</ele>
        <time>2020-07-21T12:41:56.000Z</time>
      </trkpt>
      <trkpt lat="43.0067343" lon="-5.7692987">
        <ele>1042.89</ele>
        <time>2020-07-21T12:41:57.000Z</time>
      </trkpt>
      <trkpt lat="43.006746" lon="-5.769288">
        <ele>1042.89</ele>
        <time>2020-07-21T12:41:58.000Z</time>
      </trkpt>
      <trkpt lat="43.0067585" lon="-5.769278">
        <ele>1042.89</ele>
        <time>2020-07-21T12:41:59.000Z</time>
      </trkpt>
      <trkpt lat="43.006771" lon="-5.7692688">
        <ele>1042.73</ele>
        <time>2020-07-21T12:42:00.000Z</time>
      </trkpt>
      <trkpt lat="43.0067832" lon="-5.7692593">
        <ele>1042.73</ele>
        <time>2020-07-21T12:42:01.000Z</time>
      </trkpt>
      <trkpt lat="43.006794" lon="-5.7692483">
        <ele>1042.73</ele>
        <time>2020-07-21T12:42:02.000Z</time>
      </trkpt>
      <trkpt lat="43.006804" lon="-5.7692357">
        <ele>1042.73</ele>
        <time>2020-07-21T12:42:03.000Z</time>
      </trkpt>
      <trkpt lat="43.0068132" lon="-5.7692218">
        <ele>1042.58</ele>
        <time>2020-07-21T12:42:04.000Z</time>
      </trkpt>
      <trkpt lat="43.006822" lon="-5.769208">
        <ele>1042.58</ele>
        <time>2020-07-21T12:42:05.000Z</time>
      </trkpt>
      <trkpt lat="43.0068322" lon="-5.7691948">
        <ele>1042.58</ele>
        <time>2020-07-21T12:42:06.000Z</time>
      </trkpt>
      <trkpt lat="43.0068427" lon="-5.7691822">
        <ele>1042.58</ele>
        <time>2020-07-21T12:42:07.000Z</time>
      </trkpt>
      <trkpt lat="43.0068535" lon="-5.7691697">
        <ele>1042.43</ele>
        <time>2020-07-21T12:42:08.000Z</time>
      </trkpt>
      <trkpt lat="43.0068635" lon="-5.769157">
        <ele>1042.43</ele>
        <time>2020-07-21T12:42:09.000Z</time>
      </trkpt>
      <trkpt lat="43.006873" lon="-5.7691438">
        <ele>1042.43</ele>
        <time>2020-07-21T12:42:10.000Z</time>
      </trkpt>
      <trkpt lat="43.0068812" lon="-5.7691303">
        <ele>1042.43</ele>
        <time>2020-07-21T12:42:11.000Z</time>
      </trkpt>
      <trkpt lat="43.0068892" lon="-5.7691162">
        <ele>1042.43</ele>
        <time>2020-07-21T12:42:12.000Z</time>
      </trkpt>
      <trkpt lat="43.006897" lon="-5.7691022">
        <ele>1042.43</ele>
        <time>2020-07-21T12:42:13.000Z</time>
      </trkpt>
      <trkpt lat="43.0069067" lon="-5.7690893">
        <ele>1042.28</ele>
        <time>2020-07-21T12:42:14.000Z</time>
      </trkpt>
      <trkpt lat="43.0069188" lon="-5.7690765">
        <ele>1042.28</ele>
        <time>2020-07-21T12:42:15.000Z</time>
      </trkpt>
      <trkpt lat="43.0069305" lon="-5.7690628">
        <ele>1042.28</ele>
        <time>2020-07-21T12:42:16.000Z</time>
      </trkpt>
      <trkpt lat="43.0069413" lon="-5.7690478">
        <ele>1042.28</ele>
        <time>2020-07-21T12:42:17.000Z</time>
      </trkpt>
      <trkpt lat="43.0069497" lon="-5.7690328">
        <ele>1042.12</ele>
        <time>2020-07-21T12:42:18.000Z</time>
      </trkpt>
      <trkpt lat="43.0069588" lon="-5.769019">
        <ele>1042.12</ele>
        <time>2020-07-21T12:42:19.000Z</time>
      </trkpt>
      <trkpt lat="43.0069693" lon="-5.7690055">
        <ele>1042.12</ele>
        <time>2020-07-21T12:42:20.000Z</time>
      </trkpt>
      <trkpt lat="43.0069807" lon="-5.7689922">
        <ele>1042.12</ele>
        <time>2020-07-21T12:42:21.000Z</time>
      </trkpt>
      <trkpt lat="43.0069927" lon="-5.7689788">
        <ele>1041.97</ele>
        <time>2020-07-21T12:42:22.000Z</time>
      </trkpt>
      <trkpt lat="43.0070037" lon="-5.7689643">
        <ele>1041.97</ele>
        <time>2020-07-21T12:42:23.000Z</time>
      </trkpt>
      <trkpt lat="43.0070143" lon="-5.7689482">
        <ele>1041.97</ele>
        <time>2020-07-21T12:42:24.000Z</time>
      </trkpt>
      <trkpt lat="43.0070238" lon="-5.768932">
        <ele>1041.97</ele>
        <time>2020-07-21T12:42:25.000Z</time>
      </trkpt>
      <trkpt lat="43.0070323" lon="-5.768917">
        <ele>1041.97</ele>
        <time>2020-07-21T12:42:26.000Z</time>
      </trkpt>
      <trkpt lat="43.0070392" lon="-5.7689025">
        <ele>1041.97</ele>
        <time>2020-07-21T12:42:27.000Z</time>
      </trkpt>
      <trkpt lat="43.0070463" lon="-5.7688857">
        <ele>1041.82</ele>
        <time>2020-07-21T12:42:28.000Z</time>
      </trkpt>
      <trkpt lat="43.0070547" lon="-5.7688673">
        <ele>1041.82</ele>
        <time>2020-07-21T12:42:29.000Z</time>
      </trkpt>
      <trkpt lat="43.0070643" lon="-5.768848">
        <ele>1041.82</ele>
        <time>2020-07-21T12:42:30.000Z</time>
      </trkpt>
      <trkpt lat="43.0070738" lon="-5.7688288">
        <ele>1041.82</ele>
        <time>2020-07-21T12:42:31.000Z</time>
      </trkpt>
      <trkpt lat="43.0070827" lon="-5.768809">
        <ele>1041.67</ele>
        <time>2020-07-21T12:42:32.000Z</time>
      </trkpt>
      <trkpt lat="43.0070913" lon="-5.7687908">
        <ele>1041.67</ele>
        <time>2020-07-21T12:42:33.000Z</time>
      </trkpt>
      <trkpt lat="43.0070997" lon="-5.7687743">
        <ele>1041.67</ele>
        <time>2020-07-21T12:42:34.000Z</time>
      </trkpt>
      <trkpt lat="43.0071073" lon="-5.7687593">
        <ele>1041.67</ele>
        <time>2020-07-21T12:42:35.000Z</time>
      </trkpt>
      <trkpt lat="43.0071142" lon="-5.7687435">
        <ele>1041.51</ele>
        <time>2020-07-21T12:42:36.000Z</time>
      </trkpt>
      <trkpt lat="43.007121" lon="-5.7687273">
        <ele>1041.51</ele>
        <time>2020-07-21T12:42:37.000Z</time>
      </trkpt>
      <trkpt lat="43.0071288" lon="-5.7687113">
        <ele>1041.51</ele>
        <time>2020-07-21T12:42:38.000Z</time>
      </trkpt>
      <trkpt lat="43.0071373" lon="-5.768696">
        <ele>1041.51</ele>
        <time>2020-07-21T12:42:39.000Z</time>
      </trkpt>
      <trkpt lat="43.0071458" lon="-5.76868">
        <ele>1041.51</ele>
        <time>2020-07-21T12:42:40.000Z</time>
      </trkpt>
      <trkpt lat="43.007154" lon="-5.7686645">
        <ele>1041.51</ele>
        <time>2020-07-21T12:42:41.000Z</time>
      </trkpt>
      <trkpt lat="43.0071625" lon="-5.7686495">
        <ele>1041.36</ele>
        <time>2020-07-21T12:42:42.000Z</time>
      </trkpt>
      <trkpt lat="43.0071712" lon="-5.7686355">
        <ele>1041.36</ele>
        <time>2020-07-21T12:42:43.000Z</time>
      </trkpt>
      <trkpt lat="43.0071802" lon="-5.7686217">
        <ele>1041.21</ele>
        <time>2020-07-21T12:42:44.000Z</time>
      </trkpt>
      <trkpt lat="43.0071885" lon="-5.7686073">
        <ele>1041.21</ele>
        <time>2020-07-21T12:42:45.000Z</time>
      </trkpt>
      <trkpt lat="43.0071973" lon="-5.7685933">
        <ele>1041.21</ele>
        <time>2020-07-21T12:42:46.000Z</time>
      </trkpt>
      <trkpt lat="43.0072063" lon="-5.7685792">
        <ele>1041.21</ele>
        <time>2020-07-21T12:42:47.000Z</time>
      </trkpt>
      <trkpt lat="43.0072158" lon="-5.7685667">
        <ele>1041.06</ele>
        <time>2020-07-21T12:42:48.000Z</time>
      </trkpt>
      <trkpt lat="43.0072257" lon="-5.7685548">
        <ele>1041.06</ele>
        <time>2020-07-21T12:42:49.000Z</time>
      </trkpt>
      <trkpt lat="43.0072352" lon="-5.768544">
        <ele>1040.91</ele>
        <time>2020-07-21T12:42:50.000Z</time>
      </trkpt>
      <trkpt lat="43.0072448" lon="-5.768533">
        <ele>1040.91</ele>
        <time>2020-07-21T12:42:51.000Z</time>
      </trkpt>
      <trkpt lat="43.0072543" lon="-5.7685212">
        <ele>1040.91</ele>
        <time>2020-07-21T12:42:52.000Z</time>
      </trkpt>
      <trkpt lat="43.007264" lon="-5.7685093">
        <ele>1040.91</ele>
        <time>2020-07-21T12:42:53.000Z</time>
      </trkpt>
      <trkpt lat="43.0072732" lon="-5.7684972">
        <ele>1040.75</ele>
        <time>2020-07-21T12:42:54.000Z</time>
      </trkpt>
      <trkpt lat="43.0072822" lon="-5.7684848">
        <ele>1040.75</ele>
        <time>2020-07-21T12:42:55.000Z</time>
      </trkpt>
      <trkpt lat="43.0072918" lon="-5.768472">
        <ele>1040.6</ele>
        <time>2020-07-21T12:42:56.000Z</time>
      </trkpt>
      <trkpt lat="43.007302" lon="-5.7684592">
        <ele>1040.6</ele>
        <time>2020-07-21T12:42:57.000Z</time>
      </trkpt>
      <trkpt lat="43.0073117" lon="-5.7684475">
        <ele>1040.45</ele>
        <time>2020-07-21T12:42:58.000Z</time>
      </trkpt>
      <trkpt lat="43.007321" lon="-5.7684355">
        <ele>1040.45</ele>
        <time>2020-07-21T12:42:59.000Z</time>
      </trkpt>
      <trkpt lat="43.0073295" lon="-5.7684238">
        <ele>1040.3</ele>
        <time>2020-07-21T12:43:00.000Z</time>
      </trkpt>
      <trkpt lat="43.0073392" lon="-5.7684117">
        <ele>1040.3</ele>
        <time>2020-07-21T12:43:01.000Z</time>
      </trkpt>
      <trkpt lat="43.0073495" lon="-5.7684003">
        <ele>1040.14</ele>
        <time>2020-07-21T12:43:02.000Z</time>
      </trkpt>
      <trkpt lat="43.00736" lon="-5.7683898">
        <ele>1040.14</ele>
        <time>2020-07-21T12:43:03.000Z</time>
      </trkpt>
      <trkpt lat="43.007371" lon="-5.76838">
        <ele>1039.99</ele>
        <time>2020-07-21T12:43:04.000Z</time>
      </trkpt>
      <trkpt lat="43.0073818" lon="-5.7683703">
        <ele>1039.99</ele>
        <time>2020-07-21T12:43:05.000Z</time>
      </trkpt>
      <trkpt lat="43.0073937" lon="-5.7683593">
        <ele>1039.84</ele>
        <time>2020-07-21T12:43:06.000Z</time>
      </trkpt>
      <trkpt lat="43.0074057" lon="-5.7683472">
        <ele>1039.84</ele>
        <time>2020-07-21T12:43:07.000Z</time>
      </trkpt>
      <trkpt lat="43.0074188" lon="-5.768335">
        <ele>1039.69</ele>
        <time>2020-07-21T12:43:08.000Z</time>
      </trkpt>
      <trkpt lat="43.0074323" lon="-5.7683233">
        <ele>1039.69</ele>
        <time>2020-07-21T12:43:09.000Z</time>
      </trkpt>
      <trkpt lat="43.0074453" lon="-5.7683117">
        <ele>1039.38</ele>
        <time>2020-07-21T12:43:10.000Z</time>
      </trkpt>
      <trkpt lat="43.0074568" lon="-5.7682992">
        <ele>1039.38</ele>
        <time>2020-07-21T12:43:11.000Z</time>
      </trkpt>
      <trkpt lat="43.0074678" lon="-5.768286">
        <ele>1039.23</ele>
        <time>2020-07-21T12:43:12.000Z</time>
      </trkpt>
      <trkpt lat="43.0074787" lon="-5.7682728">
        <ele>1039.23</ele>
        <time>2020-07-21T12:43:13.000Z</time>
      </trkpt>
      <trkpt lat="43.0074892" lon="-5.7682597">
        <ele>1039.08</ele>
        <time>2020-07-21T12:43:14.000Z</time>
      </trkpt>
      <trkpt lat="43.0075" lon="-5.7682465">
        <ele>1039.08</ele>
        <time>2020-07-21T12:43:15.000Z</time>
      </trkpt>
      <trkpt lat="43.0075108" lon="-5.7682327">
        <ele>1038.92</ele>
        <time>2020-07-21T12:43:16.000Z</time>
      </trkpt>
      <trkpt lat="43.007522" lon="-5.7682182">
        <ele>1038.92</ele>
        <time>2020-07-21T12:43:17.000Z</time>
      </trkpt>
      <trkpt lat="43.0075323" lon="-5.7682032">
        <ele>1038.77</ele>
        <time>2020-07-21T12:43:18.000Z</time>
      </trkpt>
      <trkpt lat="43.007542" lon="-5.7681888">
        <ele>1038.77</ele>
        <time>2020-07-21T12:43:19.000Z</time>
      </trkpt>
      <trkpt lat="43.0075513" lon="-5.7681738">
        <ele>1038.62</ele>
        <time>2020-07-21T12:43:20.000Z</time>
      </trkpt>
      <trkpt lat="43.0075603" lon="-5.768158">
        <ele>1038.62</ele>
        <time>2020-07-21T12:43:21.000Z</time>
      </trkpt>
      <trkpt lat="43.0075697" lon="-5.7681408">
        <ele>1038.47</ele>
        <time>2020-07-21T12:43:22.000Z</time>
      </trkpt>
      <trkpt lat="43.007579" lon="-5.7681213">
        <ele>1038.47</ele>
        <time>2020-07-21T12:43:23.000Z</time>
      </trkpt>
      <trkpt lat="43.007589" lon="-5.7681027">
        <ele>1038.31</ele>
        <time>2020-07-21T12:43:24.000Z</time>
      </trkpt>
      <trkpt lat="43.0075982" lon="-5.7680838">
        <ele>1038.31</ele>
        <time>2020-07-21T12:43:25.000Z</time>
      </trkpt>
      <trkpt lat="43.0076068" lon="-5.7680673">
        <ele>1038.01</ele>
        <time>2020-07-21T12:43:26.000Z</time>
      </trkpt>
      <trkpt lat="43.0076135" lon="-5.768051">
        <ele>1038.01</ele>
        <time>2020-07-21T12:43:27.000Z</time>
      </trkpt>
      <trkpt lat="43.0076198" lon="-5.7680372">
        <ele>1037.86</ele>
        <time>2020-07-21T12:43:28.000Z</time>
      </trkpt>
      <trkpt lat="43.0076272" lon="-5.7680212">
        <ele>1037.86</ele>
        <time>2020-07-21T12:43:29.000Z</time>
      </trkpt>
      <trkpt lat="43.0076355" lon="-5.7680045">
        <ele>1037.7</ele>
        <time>2020-07-21T12:43:30.000Z</time>
      </trkpt>
      <trkpt lat="43.0076455" lon="-5.767985">
        <ele>1037.7</ele>
        <time>2020-07-21T12:43:31.000Z</time>
      </trkpt>
      <trkpt lat="43.0076543" lon="-5.7679672">
        <ele>1037.4</ele>
        <time>2020-07-21T12:43:32.000Z</time>
      </trkpt>
      <trkpt lat="43.0076628" lon="-5.7679512">
        <ele>1037.4</ele>
        <time>2020-07-21T12:43:33.000Z</time>
      </trkpt>
      <trkpt lat="43.0076715" lon="-5.7679383">
        <ele>1037.25</ele>
        <time>2020-07-21T12:43:34.000Z</time>
      </trkpt>
      <trkpt lat="43.0076823" lon="-5.7679268">
        <ele>1037.25</ele>
        <time>2020-07-21T12:43:35.000Z</time>
      </trkpt>
      <trkpt lat="43.0076933" lon="-5.7679143">
        <ele>1037.09</ele>
        <time>2020-07-21T12:43:36.000Z</time>
      </trkpt>
      <trkpt lat="43.0077043" lon="-5.7679">
        <ele>1037.09</ele>
        <time>2020-07-21T12:43:37.000Z</time>
      </trkpt>
      <trkpt lat="43.0077138" lon="-5.7678855">
        <ele>1036.94</ele>
        <time>2020-07-21T12:43:38.000Z</time>
      </trkpt>
      <trkpt lat="43.0077237" lon="-5.7678717">
        <ele>1036.94</ele>
        <time>2020-07-21T12:43:39.000Z</time>
      </trkpt>
      <trkpt lat="43.007732" lon="-5.7678572">
        <ele>1036.79</ele>
        <time>2020-07-21T12:43:40.000Z</time>
      </trkpt>
      <trkpt lat="43.0077405" lon="-5.7678418">
        <ele>1036.79</ele>
        <time>2020-07-21T12:43:41.000Z</time>
      </trkpt>
      <trkpt lat="43.0077483" lon="-5.7678258">
        <ele>1036.79</ele>
        <time>2020-07-21T12:43:42.000Z</time>
      </trkpt>
      <trkpt lat="43.0077563" lon="-5.76781">
        <ele>1036.79</ele>
        <time>2020-07-21T12:43:43.000Z</time>
      </trkpt>
      <trkpt lat="43.007764" lon="-5.7677947">
        <ele>1036.64</ele>
        <time>2020-07-21T12:43:44.000Z</time>
      </trkpt>
      <trkpt lat="43.007772" lon="-5.7677793">
        <ele>1036.64</ele>
        <time>2020-07-21T12:43:45.000Z</time>
      </trkpt>
      <trkpt lat="43.0077802" lon="-5.767765">
        <ele>1036.64</ele>
        <time>2020-07-21T12:43:46.000Z</time>
      </trkpt>
      <trkpt lat="43.0077883" lon="-5.7677502">
        <ele>1036.64</ele>
        <time>2020-07-21T12:43:47.000Z</time>
      </trkpt>
      <trkpt lat="43.0077962" lon="-5.7677348">
        <ele>1036.64</ele>
        <time>2020-07-21T12:43:48.000Z</time>
      </trkpt>
      <trkpt lat="43.0078045" lon="-5.7677188">
        <ele>1036.64</ele>
        <time>2020-07-21T12:43:49.000Z</time>
      </trkpt>
      <trkpt lat="43.007812" lon="-5.7677022">
        <ele>1036.64</ele>
        <time>2020-07-21T12:43:50.000Z</time>
      </trkpt>
      <trkpt lat="43.007819" lon="-5.7676852">
        <ele>1036.64</ele>
        <time>2020-07-21T12:43:51.000Z</time>
      </trkpt>
      <trkpt lat="43.0078258" lon="-5.7676688">
        <ele>1036.64</ele>
        <time>2020-07-21T12:43:52.000Z</time>
      </trkpt>
      <trkpt lat="43.0078335" lon="-5.7676532">
        <ele>1036.64</ele>
        <time>2020-07-21T12:43:53.000Z</time>
      </trkpt>
      <trkpt lat="43.0078418" lon="-5.7676373">
        <ele>1036.79</ele>
        <time>2020-07-21T12:43:54.000Z</time>
      </trkpt>
      <trkpt lat="43.0078507" lon="-5.767621">
        <ele>1036.79</ele>
        <time>2020-07-21T12:43:55.000Z</time>
      </trkpt>
      <trkpt lat="43.0078598" lon="-5.767604">
        <ele>1036.79</ele>
        <time>2020-07-21T12:43:56.000Z</time>
      </trkpt>
      <trkpt lat="43.0078697" lon="-5.7675873">
        <ele>1036.79</ele>
        <time>2020-07-21T12:43:57.000Z</time>
      </trkpt>
      <trkpt lat="43.007879" lon="-5.7675705">
        <ele>1036.94</ele>
        <time>2020-07-21T12:43:58.000Z</time>
      </trkpt>
      <trkpt lat="43.0078885" lon="-5.7675538">
        <ele>1036.94</ele>
        <time>2020-07-21T12:43:59.000Z</time>
      </trkpt>
      <trkpt lat="43.0078973" lon="-5.7675368">
        <ele>1036.94</ele>
        <time>2020-07-21T12:44:00.000Z</time>
      </trkpt>
      <trkpt lat="43.0079058" lon="-5.7675208">
        <ele>1036.94</ele>
        <time>2020-07-21T12:44:01.000Z</time>
      </trkpt>
      <trkpt lat="43.0079142" lon="-5.767506">
        <ele>1037.09</ele>
        <time>2020-07-21T12:44:02.000Z</time>
      </trkpt>
      <trkpt lat="43.0079245" lon="-5.7674918">
        <ele>1037.09</ele>
        <time>2020-07-21T12:44:03.000Z</time>
      </trkpt>
      <trkpt lat="43.0079357" lon="-5.7674778">
        <ele>1037.09</ele>
        <time>2020-07-21T12:44:04.000Z</time>
      </trkpt>
      <trkpt lat="43.0079467" lon="-5.767464">
        <ele>1037.09</ele>
        <time>2020-07-21T12:44:05.000Z</time>
      </trkpt>
      <trkpt lat="43.0079567" lon="-5.7674503">
        <ele>1037.25</ele>
        <time>2020-07-21T12:44:06.000Z</time>
      </trkpt>
      <trkpt lat="43.0079668" lon="-5.7674368">
        <ele>1037.25</ele>
        <time>2020-07-21T12:44:07.000Z</time>
      </trkpt>
      <trkpt lat="43.0079772" lon="-5.7674252">
        <ele>1037.4</ele>
        <time>2020-07-21T12:44:08.000Z</time>
      </trkpt>
      <trkpt lat="43.0079878" lon="-5.7674152">
        <ele>1037.4</ele>
        <time>2020-07-21T12:44:09.000Z</time>
      </trkpt>
      <trkpt lat="43.0079988" lon="-5.767408">
        <ele>1037.4</ele>
        <time>2020-07-21T12:44:10.000Z</time>
      </trkpt>
      <trkpt lat="43.0080102" lon="-5.767401">
        <ele>1037.4</ele>
        <time>2020-07-21T12:44:11.000Z</time>
      </trkpt>
      <trkpt lat="43.0080215" lon="-5.7673955">
        <ele>1037.55</ele>
        <time>2020-07-21T12:44:12.000Z</time>
      </trkpt>
      <trkpt lat="43.0080332" lon="-5.767392">
        <ele>1037.55</ele>
        <time>2020-07-21T12:44:13.000Z</time>
      </trkpt>
      <trkpt lat="43.0080445" lon="-5.767393">
        <ele>1037.7</ele>
        <time>2020-07-21T12:44:14.000Z</time>
      </trkpt>
      <trkpt lat="43.0080623" lon="-5.7673968">
        <ele>1037.7</ele>
        <time>2020-07-21T12:44:15.000Z</time>
      </trkpt>
      <trkpt lat="43.0080795" lon="-5.7674007">
        <ele>1037.86</ele>
        <time>2020-07-21T12:44:16.000Z</time>
      </trkpt>
      <trkpt lat="43.0080977" lon="-5.7674048">
        <ele>1037.86</ele>
        <time>2020-07-21T12:44:17.000Z</time>
      </trkpt>
      <trkpt lat="43.0081088" lon="-5.767408">
        <ele>1038.01</ele>
        <time>2020-07-21T12:44:18.000Z</time>
      </trkpt>
      <trkpt lat="43.0081222" lon="-5.7674152">
        <ele>1038.01</ele>
        <time>2020-07-21T12:44:19.000Z</time>
      </trkpt>
      <trkpt lat="43.0081343" lon="-5.767425">
        <ele>1038.01</ele>
        <time>2020-07-21T12:44:20.000Z</time>
      </trkpt>
      <trkpt lat="43.0081465" lon="-5.7674395">
        <ele>1038.01</ele>
        <time>2020-07-21T12:44:21.000Z</time>
      </trkpt>
      <trkpt lat="43.0081558" lon="-5.7674547">
        <ele>1038.16</ele>
        <time>2020-07-21T12:44:22.000Z</time>
      </trkpt>
      <trkpt lat="43.0081647" lon="-5.7674707">
        <ele>1038.16</ele>
        <time>2020-07-21T12:44:23.000Z</time>
      </trkpt>
      <trkpt lat="43.008171" lon="-5.7674867">
        <ele>1038.31</ele>
        <time>2020-07-21T12:44:24.000Z</time>
      </trkpt>
      <trkpt lat="43.0081767" lon="-5.7675023">
        <ele>1038.31</ele>
        <time>2020-07-21T12:44:25.000Z</time>
      </trkpt>
      <trkpt lat="43.0081823" lon="-5.767517">
        <ele>1038.31</ele>
        <time>2020-07-21T12:44:26.000Z</time>
      </trkpt>
      <trkpt lat="43.0081857" lon="-5.7675352">
        <ele>1038.31</ele>
        <time>2020-07-21T12:44:27.000Z</time>
      </trkpt>
      <trkpt lat="43.0081862" lon="-5.767555">
        <ele>1038.47</ele>
        <time>2020-07-21T12:44:28.000Z</time>
      </trkpt>
      <trkpt lat="43.0081847" lon="-5.7675782">
        <ele>1038.47</ele>
        <time>2020-07-21T12:44:29.000Z</time>
      </trkpt>
      <trkpt lat="43.0081853" lon="-5.7675987">
        <ele>1038.47</ele>
        <time>2020-07-21T12:44:30.000Z</time>
      </trkpt>
      <trkpt lat="43.0081862" lon="-5.7676172">
        <ele>1038.47</ele>
        <time>2020-07-21T12:44:31.000Z</time>
      </trkpt>
      <trkpt lat="43.0081868" lon="-5.7676337">
        <ele>1038.47</ele>
        <time>2020-07-21T12:44:32.000Z</time>
      </trkpt>
      <trkpt lat="43.0081872" lon="-5.7676508">
        <ele>1038.47</ele>
        <time>2020-07-21T12:44:33.000Z</time>
      </trkpt>
      <trkpt lat="43.0081885" lon="-5.7676683">
        <ele>1038.47</ele>
        <time>2020-07-21T12:44:34.000Z</time>
      </trkpt>
      <trkpt lat="43.0081893" lon="-5.7676872">
        <ele>1038.47</ele>
        <time>2020-07-21T12:44:35.000Z</time>
      </trkpt>
      <trkpt lat="43.008189" lon="-5.7677072">
        <ele>1038.47</ele>
        <time>2020-07-21T12:44:36.000Z</time>
      </trkpt>
      <trkpt lat="43.008188" lon="-5.7677282">
        <ele>1038.47</ele>
        <time>2020-07-21T12:44:37.000Z</time>
      </trkpt>
      <trkpt lat="43.008187" lon="-5.7677488">
        <ele>1038.62</ele>
        <time>2020-07-21T12:44:38.000Z</time>
      </trkpt>
      <trkpt lat="43.0081862" lon="-5.767767">
        <ele>1038.62</ele>
        <time>2020-07-21T12:44:39.000Z</time>
      </trkpt>
      <trkpt lat="43.0081857" lon="-5.767785">
        <ele>1038.62</ele>
        <time>2020-07-21T12:44:40.000Z</time>
      </trkpt>
      <trkpt lat="43.0081867" lon="-5.7678038">
        <ele>1038.62</ele>
        <time>2020-07-21T12:44:41.000Z</time>
      </trkpt>
      <trkpt lat="43.0081883" lon="-5.7678233">
        <ele>1038.62</ele>
        <time>2020-07-21T12:44:42.000Z</time>
      </trkpt>
      <trkpt lat="43.0081893" lon="-5.7678418">
        <ele>1038.62</ele>
        <time>2020-07-21T12:44:43.000Z</time>
      </trkpt>
      <trkpt lat="43.0081918" lon="-5.767861">
        <ele>1038.62</ele>
        <time>2020-07-21T12:44:44.000Z</time>
      </trkpt>
      <trkpt lat="43.0081958" lon="-5.76788">
        <ele>1038.62</ele>
        <time>2020-07-21T12:44:45.000Z</time>
      </trkpt>
      <trkpt lat="43.008204" lon="-5.7678987">
        <ele>1038.62</ele>
        <time>2020-07-21T12:44:46.000Z</time>
      </trkpt>
      <trkpt lat="43.0082098" lon="-5.7679157">
        <ele>1038.62</ele>
        <time>2020-07-21T12:44:47.000Z</time>
      </trkpt>
      <trkpt lat="43.0082143" lon="-5.7679313">
        <ele>1038.62</ele>
        <time>2020-07-21T12:44:48.000Z</time>
      </trkpt>
      <trkpt lat="43.0082172" lon="-5.7679463">
        <ele>1038.62</ele>
        <time>2020-07-21T12:44:49.000Z</time>
      </trkpt>
      <trkpt lat="43.008222" lon="-5.7679603">
        <ele>1038.62</ele>
        <time>2020-07-21T12:44:50.000Z</time>
      </trkpt>
      <trkpt lat="43.0082268" lon="-5.7679747">
        <ele>1038.62</ele>
        <time>2020-07-21T12:44:51.000Z</time>
      </trkpt>
      <trkpt lat="43.0082317" lon="-5.7679903">
        <ele>1038.62</ele>
        <time>2020-07-21T12:44:52.000Z</time>
      </trkpt>
      <trkpt lat="43.0082367" lon="-5.7680048">
        <ele>1038.62</ele>
        <time>2020-07-21T12:44:53.000Z</time>
      </trkpt>
      <trkpt lat="43.008242" lon="-5.7680178">
        <ele>1038.62</ele>
        <time>2020-07-21T12:44:54.000Z</time>
      </trkpt>
      <trkpt lat="43.0082475" lon="-5.7680297">
        <ele>1038.62</ele>
        <time>2020-07-21T12:44:55.000Z</time>
      </trkpt>
      <trkpt lat="43.0082533" lon="-5.768042">
        <ele>1038.62</ele>
        <time>2020-07-21T12:44:56.000Z</time>
      </trkpt>
      <trkpt lat="43.0082598" lon="-5.7680547">
        <ele>1038.62</ele>
        <time>2020-07-21T12:44:57.000Z</time>
      </trkpt>
      <trkpt lat="43.0082673" lon="-5.7680675">
        <ele>1038.62</ele>
        <time>2020-07-21T12:44:58.000Z</time>
      </trkpt>
      <trkpt lat="43.0082783" lon="-5.7680788">
        <ele>1038.62</ele>
        <time>2020-07-21T12:44:59.000Z</time>
      </trkpt>
      <trkpt lat="43.0082902" lon="-5.7680898">
        <ele>1038.62</ele>
        <time>2020-07-21T12:45:00.000Z</time>
      </trkpt>
      <trkpt lat="43.0083015" lon="-5.7681005">
        <ele>1038.62</ele>
        <time>2020-07-21T12:45:01.000Z</time>
      </trkpt>
      <trkpt lat="43.0083093" lon="-5.7681117">
        <ele>1038.62</ele>
        <time>2020-07-21T12:45:02.000Z</time>
      </trkpt>
      <trkpt lat="43.0083175" lon="-5.7681225">
        <ele>1038.62</ele>
        <time>2020-07-21T12:45:03.000Z</time>
      </trkpt>
      <trkpt lat="43.0083277" lon="-5.7681333">
        <ele>1038.77</ele>
        <time>2020-07-21T12:45:04.000Z</time>
      </trkpt>
      <trkpt lat="43.0083393" lon="-5.768144">
        <ele>1038.77</ele>
        <time>2020-07-21T12:45:05.000Z</time>
      </trkpt>
      <trkpt lat="43.0083495" lon="-5.768154">
        <ele>1038.77</ele>
        <time>2020-07-21T12:45:06.000Z</time>
      </trkpt>
      <trkpt lat="43.0083582" lon="-5.7681642">
        <ele>1038.77</ele>
        <time>2020-07-21T12:45:07.000Z</time>
      </trkpt>
      <trkpt lat="43.0083662" lon="-5.7681742">
        <ele>1038.77</ele>
        <time>2020-07-21T12:45:08.000Z</time>
      </trkpt>
      <trkpt lat="43.0083758" lon="-5.7681842">
        <ele>1038.77</ele>
        <time>2020-07-21T12:45:09.000Z</time>
      </trkpt>
      <trkpt lat="43.0083878" lon="-5.768192">
        <ele>1038.92</ele>
        <time>2020-07-21T12:45:10.000Z</time>
      </trkpt>
      <trkpt lat="43.0084005" lon="-5.7681993">
        <ele>1038.92</ele>
        <time>2020-07-21T12:45:11.000Z</time>
      </trkpt>
      <trkpt lat="43.0084137" lon="-5.7682065">
        <ele>1038.92</ele>
        <time>2020-07-21T12:45:12.000Z</time>
      </trkpt>
      <trkpt lat="43.0084258" lon="-5.7682145">
        <ele>1038.92</ele>
        <time>2020-07-21T12:45:13.000Z</time>
      </trkpt>
      <trkpt lat="43.0084378" lon="-5.7682223">
        <ele>1038.92</ele>
        <time>2020-07-21T12:45:14.000Z</time>
      </trkpt>
      <trkpt lat="43.0084495" lon="-5.7682295">
        <ele>1038.92</ele>
        <time>2020-07-21T12:45:15.000Z</time>
      </trkpt>
      <trkpt lat="43.0084613" lon="-5.7682373">
        <ele>1038.92</ele>
        <time>2020-07-21T12:45:16.000Z</time>
      </trkpt>
      <trkpt lat="43.0084732" lon="-5.7682468">
        <ele>1038.92</ele>
        <time>2020-07-21T12:45:17.000Z</time>
      </trkpt>
      <trkpt lat="43.0084858" lon="-5.7682562">
        <ele>1038.92</ele>
        <time>2020-07-21T12:45:18.000Z</time>
      </trkpt>
      <trkpt lat="43.0085002" lon="-5.7682633">
        <ele>1038.92</ele>
        <time>2020-07-21T12:45:19.000Z</time>
      </trkpt>
      <trkpt lat="43.008515" lon="-5.7682672">
        <ele>1039.08</ele>
        <time>2020-07-21T12:45:20.000Z</time>
      </trkpt>
      <trkpt lat="43.008529" lon="-5.7682698">
        <ele>1039.08</ele>
        <time>2020-07-21T12:45:21.000Z</time>
      </trkpt>
      <trkpt lat="43.0085417" lon="-5.7682727">
        <ele>1039.08</ele>
        <time>2020-07-21T12:45:22.000Z</time>
      </trkpt>
      <trkpt lat="43.0085552" lon="-5.7682747">
        <ele>1039.08</ele>
        <time>2020-07-21T12:45:23.000Z</time>
      </trkpt>
      <trkpt lat="43.00857" lon="-5.7682748">
        <ele>1039.08</ele>
        <time>2020-07-21T12:45:24.000Z</time>
      </trkpt>
      <trkpt lat="43.0085855" lon="-5.7682742">
        <ele>1039.08</ele>
        <time>2020-07-21T12:45:25.000Z</time>
      </trkpt>
      <trkpt lat="43.008601" lon="-5.7682737">
        <ele>1039.23</ele>
        <time>2020-07-21T12:45:26.000Z</time>
      </trkpt>
      <trkpt lat="43.0086162" lon="-5.768274">
        <ele>1039.23</ele>
        <time>2020-07-21T12:45:27.000Z</time>
      </trkpt>
      <trkpt lat="43.0086313" lon="-5.7682732">
        <ele>1039.23</ele>
        <time>2020-07-21T12:45:28.000Z</time>
      </trkpt>
      <trkpt lat="43.0086453" lon="-5.7682737">
        <ele>1039.23</ele>
        <time>2020-07-21T12:45:29.000Z</time>
      </trkpt>
      <trkpt lat="43.0086587" lon="-5.7682742">
        <ele>1039.23</ele>
        <time>2020-07-21T12:45:30.000Z</time>
      </trkpt>
      <trkpt lat="43.0086715" lon="-5.768276">
        <ele>1039.23</ele>
        <time>2020-07-21T12:45:31.000Z</time>
      </trkpt>
      <trkpt lat="43.0086855" lon="-5.7682768">
        <ele>1039.38</ele>
        <time>2020-07-21T12:45:32.000Z</time>
      </trkpt>
      <trkpt lat="43.0086995" lon="-5.7682752">
        <ele>1039.38</ele>
        <time>2020-07-21T12:45:33.000Z</time>
      </trkpt>
      <trkpt lat="43.0087138" lon="-5.7682718">
        <ele>1039.38</ele>
        <time>2020-07-21T12:45:34.000Z</time>
      </trkpt>
      <trkpt lat="43.0087292" lon="-5.7682682">
        <ele>1039.38</ele>
        <time>2020-07-21T12:45:35.000Z</time>
      </trkpt>
      <trkpt lat="43.0087445" lon="-5.7682668">
        <ele>1039.53</ele>
        <time>2020-07-21T12:45:36.000Z</time>
      </trkpt>
      <trkpt lat="43.008759" lon="-5.768267">
        <ele>1039.53</ele>
        <time>2020-07-21T12:45:37.000Z</time>
      </trkpt>
      <trkpt lat="43.0087717" lon="-5.7682673">
        <ele>1039.69</ele>
        <time>2020-07-21T12:45:38.000Z</time>
      </trkpt>
      <trkpt lat="43.0087847" lon="-5.768269">
        <ele>1039.69</ele>
        <time>2020-07-21T12:45:39.000Z</time>
      </trkpt>
      <trkpt lat="43.0087978" lon="-5.7682713">
        <ele>1039.69</ele>
        <time>2020-07-21T12:45:40.000Z</time>
      </trkpt>
      <trkpt lat="43.0088112" lon="-5.7682743">
        <ele>1039.69</ele>
        <time>2020-07-21T12:45:41.000Z</time>
      </trkpt>
      <trkpt lat="43.0088243" lon="-5.7682767">
        <ele>1039.84</ele>
        <time>2020-07-21T12:45:42.000Z</time>
      </trkpt>
      <trkpt lat="43.008837" lon="-5.7682795">
        <ele>1039.84</ele>
        <time>2020-07-21T12:45:43.000Z</time>
      </trkpt>
      <trkpt lat="43.0088492" lon="-5.7682825">
        <ele>1039.99</ele>
        <time>2020-07-21T12:45:44.000Z</time>
      </trkpt>
      <trkpt lat="43.0088612" lon="-5.7682855">
        <ele>1039.99</ele>
        <time>2020-07-21T12:45:45.000Z</time>
      </trkpt>
      <trkpt lat="43.0088725" lon="-5.768288">
        <ele>1040.14</ele>
        <time>2020-07-21T12:45:46.000Z</time>
      </trkpt>
      <trkpt lat="43.0088835" lon="-5.7682912">
        <ele>1040.14</ele>
        <time>2020-07-21T12:45:47.000Z</time>
      </trkpt>
      <trkpt lat="43.0088937" lon="-5.7682962">
        <ele>1040.3</ele>
        <time>2020-07-21T12:45:48.000Z</time>
      </trkpt>
      <trkpt lat="43.0089033" lon="-5.7683005">
        <ele>1040.3</ele>
        <time>2020-07-21T12:45:49.000Z</time>
      </trkpt>
      <trkpt lat="43.0089117" lon="-5.7683045">
        <ele>1040.6</ele>
        <time>2020-07-21T12:45:50.000Z</time>
      </trkpt>
      <trkpt lat="43.0089155" lon="-5.7683078">
        <ele>1040.6</ele>
        <time>2020-07-21T12:45:51.000Z</time>
      </trkpt>
      <trkpt lat="43.0089183" lon="-5.7683092">
        <ele>1040.75</ele>
        <time>2020-07-21T12:45:52.000Z</time>
      </trkpt>
      <trkpt lat="43.0089192" lon="-5.7683103">
        <ele>1040.75</ele>
        <time>2020-07-21T12:45:53.000Z</time>
      </trkpt>
      <trkpt lat="43.0089203" lon="-5.7683102">
        <ele>1040.91</ele>
        <time>2020-07-21T12:45:54.000Z</time>
      </trkpt>
      <trkpt lat="43.0089208" lon="-5.7683108">
        <ele>1040.91</ele>
        <time>2020-07-21T12:45:55.000Z</time>
      </trkpt>
      <trkpt lat="43.0089215" lon="-5.7683108">
        <ele>1041.21</ele>
        <time>2020-07-21T12:45:56.000Z</time>
      </trkpt>
      <trkpt lat="43.0089232" lon="-5.7683105">
        <ele>1041.21</ele>
        <time>2020-07-21T12:45:57.000Z</time>
      </trkpt>
      <trkpt lat="43.0089247" lon="-5.7683112">
        <ele>1041.36</ele>
        <time>2020-07-21T12:45:58.000Z</time>
      </trkpt>
      <trkpt lat="43.0089258" lon="-5.7683112">
        <ele>1041.36</ele>
        <time>2020-07-21T12:45:59.000Z</time>
      </trkpt>
      <trkpt lat="43.0089282" lon="-5.7683098">
        <ele>1041.67</ele>
        <time>2020-07-21T12:46:00.000Z</time>
      </trkpt>
      <trkpt lat="43.00893" lon="-5.7683087">
        <ele>1041.67</ele>
        <time>2020-07-21T12:46:01.000Z</time>
      </trkpt>
      <trkpt lat="43.0089317" lon="-5.7683075">
        <ele>1041.82</ele>
        <time>2020-07-21T12:46:02.000Z</time>
      </trkpt>
      <trkpt lat="43.0089317" lon="-5.7683068">
        <ele>1041.82</ele>
        <time>2020-07-21T12:46:03.000Z</time>
      </trkpt>
      <trkpt lat="43.0089315" lon="-5.7683057">
        <ele>1042.12</ele>
        <time>2020-07-21T12:46:04.000Z</time>
      </trkpt>
      <trkpt lat="43.0089308" lon="-5.7683043">
        <ele>1042.12</ele>
        <time>2020-07-21T12:46:05.000Z</time>
      </trkpt>
      <trkpt lat="43.0089312" lon="-5.7683045">
        <ele>1042.28</ele>
        <time>2020-07-21T12:46:06.000Z</time>
      </trkpt>
      <trkpt lat="43.0089328" lon="-5.7683108">
        <ele>1042.28</ele>
        <time>2020-07-21T12:46:07.000Z</time>
      </trkpt>
      <trkpt lat="43.0089365" lon="-5.7683203">
        <ele>1042.58</ele>
        <time>2020-07-21T12:46:08.000Z</time>
      </trkpt>
      <trkpt lat="43.0089422" lon="-5.7683317">
        <ele>1042.58</ele>
        <time>2020-07-21T12:46:09.000Z</time>
      </trkpt>
      <trkpt lat="43.0089488" lon="-5.7683412">
        <ele>1042.73</ele>
        <time>2020-07-21T12:46:10.000Z</time>
      </trkpt>
      <trkpt lat="43.0089573" lon="-5.768351">
        <ele>1042.73</ele>
        <time>2020-07-21T12:46:11.000Z</time>
      </trkpt>
      <trkpt lat="43.0089657" lon="-5.768361">
        <ele>1043.04</ele>
        <time>2020-07-21T12:46:12.000Z</time>
      </trkpt>
      <trkpt lat="43.0089747" lon="-5.7683703">
        <ele>1043.04</ele>
        <time>2020-07-21T12:46:13.000Z</time>
      </trkpt>
      <trkpt lat="43.0089825" lon="-5.768379">
        <ele>1043.19</ele>
        <time>2020-07-21T12:46:14.000Z</time>
      </trkpt>
      <trkpt lat="43.0089905" lon="-5.768387">
        <ele>1043.19</ele>
        <time>2020-07-21T12:46:15.000Z</time>
      </trkpt>
      <trkpt lat="43.0090005" lon="-5.7683957">
        <ele>1043.49</ele>
        <time>2020-07-21T12:46:16.000Z</time>
      </trkpt>
      <trkpt lat="43.0090117" lon="-5.7684043">
        <ele>1043.49</ele>
        <time>2020-07-21T12:46:17.000Z</time>
      </trkpt>
      <trkpt lat="43.009023" lon="-5.7684143">
        <ele>1043.65</ele>
        <time>2020-07-21T12:46:18.000Z</time>
      </trkpt>
      <trkpt lat="43.0090328" lon="-5.7684245">
        <ele>1043.65</ele>
        <time>2020-07-21T12:46:19.000Z</time>
      </trkpt>
      <trkpt lat="43.0090418" lon="-5.7684347">
        <ele>1043.8</ele>
        <time>2020-07-21T12:46:20.000Z</time>
      </trkpt>
      <trkpt lat="43.0090508" lon="-5.7684442">
        <ele>1043.8</ele>
        <time>2020-07-21T12:46:21.000Z</time>
      </trkpt>
      <trkpt lat="43.009063" lon="-5.768454">
        <ele>1044.1</ele>
        <time>2020-07-21T12:46:22.000Z</time>
      </trkpt>
      <trkpt lat="43.0090757" lon="-5.7684645">
        <ele>1044.1</ele>
        <time>2020-07-21T12:46:23.000Z</time>
      </trkpt>
      <trkpt lat="43.009089" lon="-5.7684743">
        <ele>1044.26</ele>
        <time>2020-07-21T12:46:24.000Z</time>
      </trkpt>
      <trkpt lat="43.0091" lon="-5.7684818">
        <ele>1044.26</ele>
        <time>2020-07-21T12:46:25.000Z</time>
      </trkpt>
      <trkpt lat="43.009112" lon="-5.7684883">
        <ele>1044.56</ele>
        <time>2020-07-21T12:46:26.000Z</time>
      </trkpt>
      <trkpt lat="43.0091235" lon="-5.7684953">
        <ele>1044.56</ele>
        <time>2020-07-21T12:46:27.000Z</time>
      </trkpt>
      <trkpt lat="43.009134" lon="-5.7685042">
        <ele>1044.71</ele>
        <time>2020-07-21T12:46:28.000Z</time>
      </trkpt>
      <trkpt lat="43.0091432" lon="-5.768514">
        <ele>1044.71</ele>
        <time>2020-07-21T12:46:29.000Z</time>
      </trkpt>
      <trkpt lat="43.009153" lon="-5.7685237">
        <ele>1044.87</ele>
        <time>2020-07-21T12:46:30.000Z</time>
      </trkpt>
      <trkpt lat="43.0091632" lon="-5.7685333">
        <ele>1044.87</ele>
        <time>2020-07-21T12:46:31.000Z</time>
      </trkpt>
      <trkpt lat="43.0091752" lon="-5.7685418">
        <ele>1045.17</ele>
        <time>2020-07-21T12:46:32.000Z</time>
      </trkpt>
      <trkpt lat="43.009189" lon="-5.7685498">
        <ele>1045.17</ele>
        <time>2020-07-21T12:46:33.000Z</time>
      </trkpt>
      <trkpt lat="43.009205" lon="-5.7685568">
        <ele>1045.32</ele>
        <time>2020-07-21T12:46:34.000Z</time>
      </trkpt>
      <trkpt lat="43.0092203" lon="-5.7685633">
        <ele>1045.32</ele>
        <time>2020-07-21T12:46:35.000Z</time>
      </trkpt>
      <trkpt lat="43.0092342" lon="-5.7685703">
        <ele>1045.63</ele>
        <time>2020-07-21T12:46:36.000Z</time>
      </trkpt>
      <trkpt lat="43.0092463" lon="-5.768576">
        <ele>1045.63</ele>
        <time>2020-07-21T12:46:37.000Z</time>
      </trkpt>
      <trkpt lat="43.0092583" lon="-5.7685818">
        <ele>1045.78</ele>
        <time>2020-07-21T12:46:38.000Z</time>
      </trkpt>
      <trkpt lat="43.0092703" lon="-5.7685878">
        <ele>1045.78</ele>
        <time>2020-07-21T12:46:39.000Z</time>
      </trkpt>
      <trkpt lat="43.009282" lon="-5.7685953">
        <ele>1046.09</ele>
        <time>2020-07-21T12:46:40.000Z</time>
      </trkpt>
      <trkpt lat="43.0092928" lon="-5.768605">
        <ele>1046.09</ele>
        <time>2020-07-21T12:46:41.000Z</time>
      </trkpt>
      <trkpt lat="43.0093045" lon="-5.768616">
        <ele>1046.39</ele>
        <time>2020-07-21T12:46:42.000Z</time>
      </trkpt>
      <trkpt lat="43.0093162" lon="-5.768628">
        <ele>1046.39</ele>
        <time>2020-07-21T12:46:43.000Z</time>
      </trkpt>
      <trkpt lat="43.0093277" lon="-5.768638">
        <ele>1046.54</ele>
        <time>2020-07-21T12:46:44.000Z</time>
      </trkpt>
      <trkpt lat="43.0093378" lon="-5.7686482">
        <ele>1046.54</ele>
        <time>2020-07-21T12:46:45.000Z</time>
      </trkpt>
      <trkpt lat="43.0093472" lon="-5.768658">
        <ele>1046.85</ele>
        <time>2020-07-21T12:46:46.000Z</time>
      </trkpt>
      <trkpt lat="43.0093558" lon="-5.7686687">
        <ele>1046.85</ele>
        <time>2020-07-21T12:46:47.000Z</time>
      </trkpt>
      <trkpt lat="43.009364" lon="-5.7686782">
        <ele>1047.15</ele>
        <time>2020-07-21T12:46:48.000Z</time>
      </trkpt>
      <trkpt lat="43.0093717" lon="-5.7686877">
        <ele>1047.15</ele>
        <time>2020-07-21T12:46:49.000Z</time>
      </trkpt>
      <trkpt lat="43.0093803" lon="-5.7686982">
        <ele>1047.46</ele>
        <time>2020-07-21T12:46:50.000Z</time>
      </trkpt>
      <trkpt lat="43.0093897" lon="-5.7687103">
        <ele>1047.46</ele>
        <time>2020-07-21T12:46:51.000Z</time>
      </trkpt>
      <trkpt lat="43.0093993" lon="-5.768723">
        <ele>1047.76</ele>
        <time>2020-07-21T12:46:52.000Z</time>
      </trkpt>
      <trkpt lat="43.0094085" lon="-5.7687345">
        <ele>1047.76</ele>
        <time>2020-07-21T12:46:53.000Z</time>
      </trkpt>
      <trkpt lat="43.009418" lon="-5.7687458">
        <ele>1048.07</ele>
        <time>2020-07-21T12:46:54.000Z</time>
      </trkpt>
      <trkpt lat="43.0094287" lon="-5.7687565">
        <ele>1048.07</ele>
        <time>2020-07-21T12:46:55.000Z</time>
      </trkpt>
      <trkpt lat="43.0094405" lon="-5.7687665">
        <ele>1048.37</ele>
        <time>2020-07-21T12:46:56.000Z</time>
      </trkpt>
      <trkpt lat="43.0094523" lon="-5.768775">
        <ele>1048.37</ele>
        <time>2020-07-21T12:46:57.000Z</time>
      </trkpt>
      <trkpt lat="43.0094635" lon="-5.7687833">
        <ele>1048.53</ele>
        <time>2020-07-21T12:46:58.000Z</time>
      </trkpt>
      <trkpt lat="43.0094752" lon="-5.7687908">
        <ele>1048.53</ele>
        <time>2020-07-21T12:46:59.000Z</time>
      </trkpt>
      <trkpt lat="43.0094872" lon="-5.768798">
        <ele>1048.83</ele>
        <time>2020-07-21T12:47:00.000Z</time>
      </trkpt>
      <trkpt lat="43.0094995" lon="-5.7688048">
        <ele>1048.83</ele>
        <time>2020-07-21T12:47:01.000Z</time>
      </trkpt>
      <trkpt lat="43.0095118" lon="-5.768812">
        <ele>1048.98</ele>
        <time>2020-07-21T12:47:02.000Z</time>
      </trkpt>
      <trkpt lat="43.0095247" lon="-5.768819">
        <ele>1048.98</ele>
        <time>2020-07-21T12:47:03.000Z</time>
      </trkpt>
      <trkpt lat="43.0095377" lon="-5.7688257">
        <ele>1049.13</ele>
        <time>2020-07-21T12:47:04.000Z</time>
      </trkpt>
      <trkpt lat="43.0095505" lon="-5.768831">
        <ele>1049.13</ele>
        <time>2020-07-21T12:47:05.000Z</time>
      </trkpt>
      <trkpt lat="43.0095637" lon="-5.7688357">
        <ele>1049.29</ele>
        <time>2020-07-21T12:47:06.000Z</time>
      </trkpt>
      <trkpt lat="43.009577" lon="-5.7688383">
        <ele>1049.29</ele>
        <time>2020-07-21T12:47:07.000Z</time>
      </trkpt>
      <trkpt lat="43.0095898" lon="-5.76884">
        <ele>1049.44</ele>
        <time>2020-07-21T12:47:08.000Z</time>
      </trkpt>
      <trkpt lat="43.0096028" lon="-5.7688408">
        <ele>1049.44</ele>
        <time>2020-07-21T12:47:09.000Z</time>
      </trkpt>
      <trkpt lat="43.0096157" lon="-5.7688423">
        <ele>1049.59</ele>
        <time>2020-07-21T12:47:10.000Z</time>
      </trkpt>
      <trkpt lat="43.0096295" lon="-5.7688438">
        <ele>1049.59</ele>
        <time>2020-07-21T12:47:11.000Z</time>
      </trkpt>
      <trkpt lat="43.0096433" lon="-5.7688442">
        <ele>1049.74</ele>
        <time>2020-07-21T12:47:12.000Z</time>
      </trkpt>
      <trkpt lat="43.0096567" lon="-5.7688435">
        <ele>1049.74</ele>
        <time>2020-07-21T12:47:13.000Z</time>
      </trkpt>
      <trkpt lat="43.0096698" lon="-5.7688448">
        <ele>1049.9</ele>
        <time>2020-07-21T12:47:14.000Z</time>
      </trkpt>
      <trkpt lat="43.009683" lon="-5.7688472">
        <ele>1049.9</ele>
        <time>2020-07-21T12:47:15.000Z</time>
      </trkpt>
      <trkpt lat="43.009696" lon="-5.7688497">
        <ele>1049.9</ele>
        <time>2020-07-21T12:47:16.000Z</time>
      </trkpt>
      <trkpt lat="43.0097083" lon="-5.768851">
        <ele>1049.9</ele>
        <time>2020-07-21T12:47:17.000Z</time>
      </trkpt>
      <trkpt lat="43.0097203" lon="-5.7688523">
        <ele>1050.05</ele>
        <time>2020-07-21T12:47:18.000Z</time>
      </trkpt>
      <trkpt lat="43.009733" lon="-5.7688547">
        <ele>1050.05</ele>
        <time>2020-07-21T12:47:19.000Z</time>
      </trkpt>
      <trkpt lat="43.0097457" lon="-5.7688573">
        <ele>1050.05</ele>
        <time>2020-07-21T12:47:20.000Z</time>
      </trkpt>
      <trkpt lat="43.0097588" lon="-5.7688602">
        <ele>1050.05</ele>
        <time>2020-07-21T12:47:21.000Z</time>
      </trkpt>
      <trkpt lat="43.0097727" lon="-5.7688628">
        <ele>1050.2</ele>
        <time>2020-07-21T12:47:22.000Z</time>
      </trkpt>
      <trkpt lat="43.009787" lon="-5.7688637">
        <ele>1050.2</ele>
        <time>2020-07-21T12:47:23.000Z</time>
      </trkpt>
      <trkpt lat="43.0098012" lon="-5.7688635">
        <ele>1050.2</ele>
        <time>2020-07-21T12:47:24.000Z</time>
      </trkpt>
      <trkpt lat="43.0098138" lon="-5.768863">
        <ele>1050.2</ele>
        <time>2020-07-21T12:47:25.000Z</time>
      </trkpt>
      <trkpt lat="43.0098253" lon="-5.7688638">
        <ele>1050.35</ele>
        <time>2020-07-21T12:47:26.000Z</time>
      </trkpt>
      <trkpt lat="43.0098365" lon="-5.7688647">
        <ele>1050.35</ele>
        <time>2020-07-21T12:47:27.000Z</time>
      </trkpt>
      <trkpt lat="43.0098477" lon="-5.7688655">
        <ele>1050.35</ele>
        <time>2020-07-21T12:47:28.000Z</time>
      </trkpt>
      <trkpt lat="43.0098592" lon="-5.768866">
        <ele>1050.35</ele>
        <time>2020-07-21T12:47:29.000Z</time>
      </trkpt>
      <trkpt lat="43.0098702" lon="-5.7688678">
        <ele>1050.51</ele>
        <time>2020-07-21T12:47:30.000Z</time>
      </trkpt>
      <trkpt lat="43.009881" lon="-5.7688697">
        <ele>1050.51</ele>
        <time>2020-07-21T12:47:31.000Z</time>
      </trkpt>
      <trkpt lat="43.0098922" lon="-5.7688727">
        <ele>1050.51</ele>
        <time>2020-07-21T12:47:32.000Z</time>
      </trkpt>
      <trkpt lat="43.0099033" lon="-5.7688753">
        <ele>1050.51</ele>
        <time>2020-07-21T12:47:33.000Z</time>
      </trkpt>
      <trkpt lat="43.0099147" lon="-5.7688783">
        <ele>1050.66</ele>
        <time>2020-07-21T12:47:34.000Z</time>
      </trkpt>
      <trkpt lat="43.0099265" lon="-5.7688812">
        <ele>1050.66</ele>
        <time>2020-07-21T12:47:35.000Z</time>
      </trkpt>
      <trkpt lat="43.0099387" lon="-5.768884">
        <ele>1050.81</ele>
        <time>2020-07-21T12:47:36.000Z</time>
      </trkpt>
      <trkpt lat="43.0099523" lon="-5.7688887">
        <ele>1050.81</ele>
        <time>2020-07-21T12:47:37.000Z</time>
      </trkpt>
      <trkpt lat="43.0099655" lon="-5.7688932">
        <ele>1050.81</ele>
        <time>2020-07-21T12:47:38.000Z</time>
      </trkpt>
      <trkpt lat="43.009978" lon="-5.7688982">
        <ele>1050.81</ele>
        <time>2020-07-21T12:47:39.000Z</time>
      </trkpt>
      <trkpt lat="43.0099888" lon="-5.7689038">
        <ele>1050.96</ele>
        <time>2020-07-21T12:47:40.000Z</time>
      </trkpt>
      <trkpt lat="43.0099993" lon="-5.7689103">
        <ele>1050.96</ele>
        <time>2020-07-21T12:47:41.000Z</time>
      </trkpt>
      <trkpt lat="43.0100087" lon="-5.768917">
        <ele>1051.12</ele>
        <time>2020-07-21T12:47:42.000Z</time>
      </trkpt>
      <trkpt lat="43.0100173" lon="-5.7689225">
        <ele>1051.12</ele>
        <time>2020-07-21T12:47:43.000Z</time>
      </trkpt>
      <trkpt lat="43.010025" lon="-5.7689282">
        <ele>1051.12</ele>
        <time>2020-07-21T12:47:44.000Z</time>
      </trkpt>
      <trkpt lat="43.010033" lon="-5.768935">
        <ele>1051.12</ele>
        <time>2020-07-21T12:47:45.000Z</time>
      </trkpt>
      <trkpt lat="43.0100407" lon="-5.7689447">
        <ele>1051.27</ele>
        <time>2020-07-21T12:47:46.000Z</time>
      </trkpt>
      <trkpt lat="43.010048" lon="-5.768957">
        <ele>1051.27</ele>
        <time>2020-07-21T12:47:47.000Z</time>
      </trkpt>
      <trkpt lat="43.0100537" lon="-5.76897">
        <ele>1051.42</ele>
        <time>2020-07-21T12:47:48.000Z</time>
      </trkpt>
      <trkpt lat="43.0100593" lon="-5.7689825">
        <ele>1051.42</ele>
        <time>2020-07-21T12:47:49.000Z</time>
      </trkpt>
      <trkpt lat="43.0100657" lon="-5.7689943">
        <ele>1051.42</ele>
        <time>2020-07-21T12:47:50.000Z</time>
      </trkpt>
      <trkpt lat="43.010074" lon="-5.7690075">
        <ele>1051.42</ele>
        <time>2020-07-21T12:47:51.000Z</time>
      </trkpt>
      <trkpt lat="43.0100828" lon="-5.769022">
        <ele>1051.57</ele>
        <time>2020-07-21T12:47:52.000Z</time>
      </trkpt>
      <trkpt lat="43.0100912" lon="-5.7690362">
        <ele>1051.57</ele>
        <time>2020-07-21T12:47:53.000Z</time>
      </trkpt>
      <trkpt lat="43.0101" lon="-5.7690497">
        <ele>1051.72</ele>
        <time>2020-07-21T12:47:54.000Z</time>
      </trkpt>
      <trkpt lat="43.0101088" lon="-5.7690637">
        <ele>1051.72</ele>
        <time>2020-07-21T12:47:55.000Z</time>
      </trkpt>
      <trkpt lat="43.0101195" lon="-5.7690792">
        <ele>1051.72</ele>
        <time>2020-07-21T12:47:56.000Z</time>
      </trkpt>
      <trkpt lat="43.0101288" lon="-5.7690973">
        <ele>1051.72</ele>
        <time>2020-07-21T12:47:57.000Z</time>
      </trkpt>
      <trkpt lat="43.0101377" lon="-5.7691172">
        <ele>1051.88</ele>
        <time>2020-07-21T12:47:58.000Z</time>
      </trkpt>
      <trkpt lat="43.0101455" lon="-5.769139">
        <ele>1051.88</ele>
        <time>2020-07-21T12:47:59.000Z</time>
      </trkpt>
      <trkpt lat="43.0101535" lon="-5.769159">
        <ele>1051.88</ele>
        <time>2020-07-21T12:48:00.000Z</time>
      </trkpt>
      <trkpt lat="43.0101628" lon="-5.7691767">
        <ele>1051.88</ele>
        <time>2020-07-21T12:48:01.000Z</time>
      </trkpt>
      <trkpt lat="43.0101717" lon="-5.769193">
        <ele>1052.03</ele>
        <time>2020-07-21T12:48:02.000Z</time>
      </trkpt>
      <trkpt lat="43.0101803" lon="-5.7692108">
        <ele>1052.03</ele>
        <time>2020-07-21T12:48:03.000Z</time>
      </trkpt>
      <trkpt lat="43.0101875" lon="-5.7692298">
        <ele>1052.03</ele>
        <time>2020-07-21T12:48:04.000Z</time>
      </trkpt>
      <trkpt lat="43.0101942" lon="-5.7692493">
        <ele>1052.03</ele>
        <time>2020-07-21T12:48:05.000Z</time>
      </trkpt>
      <trkpt lat="43.0101997" lon="-5.7692692">
        <ele>1052.18</ele>
        <time>2020-07-21T12:48:06.000Z</time>
      </trkpt>
      <trkpt lat="43.0102038" lon="-5.769289">
        <ele>1052.18</ele>
        <time>2020-07-21T12:48:07.000Z</time>
      </trkpt>
      <trkpt lat="43.010208" lon="-5.7693097">
        <ele>1052.33</ele>
        <time>2020-07-21T12:48:08.000Z</time>
      </trkpt>
      <trkpt lat="43.0102118" lon="-5.7693313">
        <ele>1052.33</ele>
        <time>2020-07-21T12:48:09.000Z</time>
      </trkpt>
      <trkpt lat="43.0102157" lon="-5.7693538">
        <ele>1052.33</ele>
        <time>2020-07-21T12:48:10.000Z</time>
      </trkpt>
      <trkpt lat="43.0102182" lon="-5.769375">
        <ele>1052.33</ele>
        <time>2020-07-21T12:48:11.000Z</time>
      </trkpt>
      <trkpt lat="43.0102205" lon="-5.7693955">
        <ele>1052.49</ele>
        <time>2020-07-21T12:48:12.000Z</time>
      </trkpt>
      <trkpt lat="43.010222" lon="-5.7694155">
        <ele>1052.49</ele>
        <time>2020-07-21T12:48:13.000Z</time>
      </trkpt>
      <trkpt lat="43.0102233" lon="-5.7694365">
        <ele>1052.49</ele>
        <time>2020-07-21T12:48:14.000Z</time>
      </trkpt>
      <trkpt lat="43.0102235" lon="-5.7694563">
        <ele>1052.49</ele>
        <time>2020-07-21T12:48:15.000Z</time>
      </trkpt>
      <trkpt lat="43.0102247" lon="-5.7694755">
        <ele>1052.64</ele>
        <time>2020-07-21T12:48:16.000Z</time>
      </trkpt>
      <trkpt lat="43.010226" lon="-5.7694937">
        <ele>1052.64</ele>
        <time>2020-07-21T12:48:17.000Z</time>
      </trkpt>
      <trkpt lat="43.010228" lon="-5.7695128">
        <ele>1052.64</ele>
        <time>2020-07-21T12:48:18.000Z</time>
      </trkpt>
      <trkpt lat="43.01023" lon="-5.7695322">
        <ele>1052.64</ele>
        <time>2020-07-21T12:48:19.000Z</time>
      </trkpt>
      <trkpt lat="43.0102327" lon="-5.769552">
        <ele>1052.79</ele>
        <time>2020-07-21T12:48:20.000Z</time>
      </trkpt>
      <trkpt lat="43.0102355" lon="-5.769572">
        <ele>1052.79</ele>
        <time>2020-07-21T12:48:21.000Z</time>
      </trkpt>
      <trkpt lat="43.0102382" lon="-5.7695922">
        <ele>1052.94</ele>
        <time>2020-07-21T12:48:22.000Z</time>
      </trkpt>
      <trkpt lat="43.0102402" lon="-5.7696125">
        <ele>1052.94</ele>
        <time>2020-07-21T12:48:23.000Z</time>
      </trkpt>
      <trkpt lat="43.0102427" lon="-5.7696318">
        <ele>1052.94</ele>
        <time>2020-07-21T12:48:24.000Z</time>
      </trkpt>
      <trkpt lat="43.0102458" lon="-5.769651">
        <ele>1052.94</ele>
        <time>2020-07-21T12:48:25.000Z</time>
      </trkpt>
      <trkpt lat="43.0102495" lon="-5.7696693">
        <ele>1053.1</ele>
        <time>2020-07-21T12:48:26.000Z</time>
      </trkpt>
      <trkpt lat="43.0102523" lon="-5.769688">
        <ele>1053.1</ele>
        <time>2020-07-21T12:48:27.000Z</time>
      </trkpt>
      <trkpt lat="43.0102543" lon="-5.7697048">
        <ele>1053.25</ele>
        <time>2020-07-21T12:48:28.000Z</time>
      </trkpt>
      <trkpt lat="43.0102558" lon="-5.7697233">
        <ele>1053.25</ele>
        <time>2020-07-21T12:48:29.000Z</time>
      </trkpt>
      <trkpt lat="43.0102593" lon="-5.7697432">
        <ele>1053.25</ele>
        <time>2020-07-21T12:48:30.000Z</time>
      </trkpt>
      <trkpt lat="43.0102647" lon="-5.7697647">
        <ele>1053.25</ele>
        <time>2020-07-21T12:48:31.000Z</time>
      </trkpt>
      <trkpt lat="43.0102707" lon="-5.7697847">
        <ele>1053.4</ele>
        <time>2020-07-21T12:48:32.000Z</time>
      </trkpt>
      <trkpt lat="43.0102748" lon="-5.7698033">
        <ele>1053.4</ele>
        <time>2020-07-21T12:48:33.000Z</time>
      </trkpt>
      <trkpt lat="43.0102777" lon="-5.7698213">
        <ele>1053.4</ele>
        <time>2020-07-21T12:48:34.000Z</time>
      </trkpt>
      <trkpt lat="43.0102807" lon="-5.7698383">
        <ele>1053.4</ele>
        <time>2020-07-21T12:48:35.000Z</time>
      </trkpt>
      <trkpt lat="43.0102855" lon="-5.7698545">
        <ele>1053.4</ele>
        <time>2020-07-21T12:48:36.000Z</time>
      </trkpt>
      <trkpt lat="43.0102913" lon="-5.7698705">
        <ele>1053.4</ele>
        <time>2020-07-21T12:48:37.000Z</time>
      </trkpt>
      <trkpt lat="43.0102973" lon="-5.7698852">
        <ele>1053.55</ele>
        <time>2020-07-21T12:48:38.000Z</time>
      </trkpt>
      <trkpt lat="43.0103027" lon="-5.7698977">
        <ele>1053.55</ele>
        <time>2020-07-21T12:48:39.000Z</time>
      </trkpt>
      <trkpt lat="43.0103067" lon="-5.7699083">
        <ele>1053.55</ele>
        <time>2020-07-21T12:48:40.000Z</time>
      </trkpt>
      <trkpt lat="43.0103097" lon="-5.7699172">
        <ele>1053.55</ele>
        <time>2020-07-21T12:48:41.000Z</time>
      </trkpt>
      <trkpt lat="43.010311" lon="-5.7699222">
        <ele>1053.71</ele>
        <time>2020-07-21T12:48:42.000Z</time>
      </trkpt>
      <trkpt lat="43.010312" lon="-5.769923">
        <ele>1053.71</ele>
        <time>2020-07-21T12:48:43.000Z</time>
      </trkpt>
      <trkpt lat="43.0103125" lon="-5.7699217">
        <ele>1053.71</ele>
        <time>2020-07-21T12:48:44.000Z</time>
      </trkpt>
      <trkpt lat="43.0103132" lon="-5.7699207">
        <ele>1053.71</ele>
        <time>2020-07-21T12:48:45.000Z</time>
      </trkpt>
      <trkpt lat="43.0103128" lon="-5.7699193">
        <ele>1053.71</ele>
        <time>2020-07-21T12:48:46.000Z</time>
      </trkpt>
      <trkpt lat="43.0103123" lon="-5.7699185">
        <ele>1053.71</ele>
        <time>2020-07-21T12:48:47.000Z</time>
      </trkpt>
      <trkpt lat="43.010312" lon="-5.7699183">
        <ele>1053.86</ele>
        <time>2020-07-21T12:48:48.000Z</time>
      </trkpt>
      <trkpt lat="43.010312" lon="-5.769919">
        <ele>1053.86</ele>
        <time>2020-07-21T12:48:49.000Z</time>
      </trkpt>
      <trkpt lat="43.0103123" lon="-5.7699198">
        <ele>1053.86</ele>
        <time>2020-07-21T12:48:50.000Z</time>
      </trkpt>
      <trkpt lat="43.0103125" lon="-5.7699203">
        <ele>1053.86</ele>
        <time>2020-07-21T12:48:51.000Z</time>
      </trkpt>
      <trkpt lat="43.0103127" lon="-5.7699205">
        <ele>1053.86</ele>
        <time>2020-07-21T12:48:52.000Z</time>
      </trkpt>
      <trkpt lat="43.0103127" lon="-5.7699205">
        <ele>1053.86</ele>
        <time>2020-07-21T12:48:53.000Z</time>
      </trkpt>
      <trkpt lat="43.0103128" lon="-5.7699203">
        <ele>1053.86</ele>
        <time>2020-07-21T12:48:54.000Z</time>
      </trkpt>
      <trkpt lat="43.0103128" lon="-5.7699202">
        <ele>1053.86</ele>
        <time>2020-07-21T12:48:55.000Z</time>
      </trkpt>
      <trkpt lat="43.0103133" lon="-5.769921">
        <ele>1054.01</ele>
        <time>2020-07-21T12:48:56.000Z</time>
      </trkpt>
      <trkpt lat="43.010315" lon="-5.7699243">
        <ele>1054.01</ele>
        <time>2020-07-21T12:48:57.000Z</time>
      </trkpt>
      <trkpt lat="43.0103185" lon="-5.7699307">
        <ele>1054.01</ele>
        <time>2020-07-21T12:48:58.000Z</time>
      </trkpt>
      <trkpt lat="43.0103225" lon="-5.7699393">
        <ele>1054.01</ele>
        <time>2020-07-21T12:48:59.000Z</time>
      </trkpt>
      <trkpt lat="43.0103278" lon="-5.7699512">
        <ele>1054.16</ele>
        <time>2020-07-21T12:49:00.000Z</time>
      </trkpt>
      <trkpt lat="43.0103338" lon="-5.7699643">
        <ele>1054.16</ele>
        <time>2020-07-21T12:49:01.000Z</time>
      </trkpt>
      <trkpt lat="43.0103415" lon="-5.7699782">
        <ele>1054.16</ele>
        <time>2020-07-21T12:49:02.000Z</time>
      </trkpt>
      <trkpt lat="43.010349" lon="-5.7699912">
        <ele>1054.16</ele>
        <time>2020-07-21T12:49:03.000Z</time>
      </trkpt>
      <trkpt lat="43.0103552" lon="-5.7700042">
        <ele>1054.32</ele>
        <time>2020-07-21T12:49:04.000Z</time>
      </trkpt>
      <trkpt lat="43.01036" lon="-5.7700182">
        <ele>1054.32</ele>
        <time>2020-07-21T12:49:05.000Z</time>
      </trkpt>
      <trkpt lat="43.0103638" lon="-5.7700322">
        <ele>1054.32</ele>
        <time>2020-07-21T12:49:06.000Z</time>
      </trkpt>
      <trkpt lat="43.010368" lon="-5.7700462">
        <ele>1054.32</ele>
        <time>2020-07-21T12:49:07.000Z</time>
      </trkpt>
      <trkpt lat="43.0103725" lon="-5.7700593">
        <ele>1054.32</ele>
        <time>2020-07-21T12:49:08.000Z</time>
      </trkpt>
      <trkpt lat="43.0103765" lon="-5.7700733">
        <ele>1054.32</ele>
        <time>2020-07-21T12:49:09.000Z</time>
      </trkpt>
      <trkpt lat="43.0103802" lon="-5.770088">
        <ele>1054.47</ele>
        <time>2020-07-21T12:49:10.000Z</time>
      </trkpt>
      <trkpt lat="43.0103833" lon="-5.7701025">
        <ele>1054.47</ele>
        <time>2020-07-21T12:49:11.000Z</time>
      </trkpt>
      <trkpt lat="43.010387" lon="-5.7701168">
        <ele>1054.62</ele>
        <time>2020-07-21T12:49:12.000Z</time>
      </trkpt>
      <trkpt lat="43.0103913" lon="-5.7701335">
        <ele>1054.62</ele>
        <time>2020-07-21T12:49:13.000Z</time>
      </trkpt>
      <trkpt lat="43.0103958" lon="-5.7701508">
        <ele>1054.62</ele>
        <time>2020-07-21T12:49:14.000Z</time>
      </trkpt>
      <trkpt lat="43.0103997" lon="-5.7701682">
        <ele>1054.62</ele>
        <time>2020-07-21T12:49:15.000Z</time>
      </trkpt>
      <trkpt lat="43.0104032" lon="-5.770184">
        <ele>1054.77</ele>
        <time>2020-07-21T12:49:16.000Z</time>
      </trkpt>
      <trkpt lat="43.0104058" lon="-5.7702007">
        <ele>1054.77</ele>
        <time>2020-07-21T12:49:17.000Z</time>
      </trkpt>
      <trkpt lat="43.0104085" lon="-5.7702182">
        <ele>1054.77</ele>
        <time>2020-07-21T12:49:18.000Z</time>
      </trkpt>
      <trkpt lat="43.0104105" lon="-5.7702358">
        <ele>1054.77</ele>
        <time>2020-07-21T12:49:19.000Z</time>
      </trkpt>
      <trkpt lat="43.0104137" lon="-5.7702535">
        <ele>1054.93</ele>
        <time>2020-07-21T12:49:20.000Z</time>
      </trkpt>
      <trkpt lat="43.0104175" lon="-5.7702718">
        <ele>1054.93</ele>
        <time>2020-07-21T12:49:21.000Z</time>
      </trkpt>
      <trkpt lat="43.0104218" lon="-5.77029">
        <ele>1055.08</ele>
        <time>2020-07-21T12:49:22.000Z</time>
      </trkpt>
      <trkpt lat="43.0104257" lon="-5.770308">
        <ele>1055.08</ele>
        <time>2020-07-21T12:49:23.000Z</time>
      </trkpt>
      <trkpt lat="43.010429" lon="-5.7703245">
        <ele>1055.08</ele>
        <time>2020-07-21T12:49:24.000Z</time>
      </trkpt>
      <trkpt lat="43.0104323" lon="-5.7703407">
        <ele>1055.08</ele>
        <time>2020-07-21T12:49:25.000Z</time>
      </trkpt>
      <trkpt lat="43.0104363" lon="-5.7703573">
        <ele>1055.23</ele>
        <time>2020-07-21T12:49:26.000Z</time>
      </trkpt>
      <trkpt lat="43.010442" lon="-5.770375">
        <ele>1055.23</ele>
        <time>2020-07-21T12:49:27.000Z</time>
      </trkpt>
      <trkpt lat="43.010448" lon="-5.7703925">
        <ele>1055.23</ele>
        <time>2020-07-21T12:49:28.000Z</time>
      </trkpt>
      <trkpt lat="43.010454" lon="-5.770409">
        <ele>1055.23</ele>
        <time>2020-07-21T12:49:29.000Z</time>
      </trkpt>
      <trkpt lat="43.0104595" lon="-5.7704247">
        <ele>1055.38</ele>
        <time>2020-07-21T12:49:30.000Z</time>
      </trkpt>
      <trkpt lat="43.0104643" lon="-5.770439">
        <ele>1055.38</ele>
        <time>2020-07-21T12:49:31.000Z</time>
      </trkpt>
      <trkpt lat="43.0104693" lon="-5.7704573">
        <ele>1055.38</ele>
        <time>2020-07-21T12:49:32.000Z</time>
      </trkpt>
      <trkpt lat="43.0104743" lon="-5.7704753">
        <ele>1055.38</ele>
        <time>2020-07-21T12:49:33.000Z</time>
      </trkpt>
      <trkpt lat="43.0104788" lon="-5.7704953">
        <ele>1055.54</ele>
        <time>2020-07-21T12:49:34.000Z</time>
      </trkpt>
      <trkpt lat="43.0104835" lon="-5.7705135">
        <ele>1055.54</ele>
        <time>2020-07-21T12:49:35.000Z</time>
      </trkpt>
      <trkpt lat="43.0104878" lon="-5.7705323">
        <ele>1055.54</ele>
        <time>2020-07-21T12:49:36.000Z</time>
      </trkpt>
      <trkpt lat="43.010493" lon="-5.7705505">
        <ele>1055.54</ele>
        <time>2020-07-21T12:49:37.000Z</time>
      </trkpt>
      <trkpt lat="43.0104982" lon="-5.7705675">
        <ele>1055.69</ele>
        <time>2020-07-21T12:49:38.000Z</time>
      </trkpt>
      <trkpt lat="43.0105028" lon="-5.770585">
        <ele>1055.69</ele>
        <time>2020-07-21T12:49:39.000Z</time>
      </trkpt>
      <trkpt lat="43.0105067" lon="-5.7706037">
        <ele>1055.69</ele>
        <time>2020-07-21T12:49:40.000Z</time>
      </trkpt>
      <trkpt lat="43.0105097" lon="-5.7706225">
        <ele>1055.69</ele>
        <time>2020-07-21T12:49:41.000Z</time>
      </trkpt>
      <trkpt lat="43.0105123" lon="-5.7706405">
        <ele>1055.84</ele>
        <time>2020-07-21T12:49:42.000Z</time>
      </trkpt>
      <trkpt lat="43.0105155" lon="-5.7706573">
        <ele>1055.84</ele>
        <time>2020-07-21T12:49:43.000Z</time>
      </trkpt>
      <trkpt lat="43.0105188" lon="-5.7706737">
        <ele>1055.84</ele>
        <time>2020-07-21T12:49:44.000Z</time>
      </trkpt>
      <trkpt lat="43.0105228" lon="-5.7706908">
        <ele>1055.84</ele>
        <time>2020-07-21T12:49:45.000Z</time>
      </trkpt>
      <trkpt lat="43.0105263" lon="-5.7707078">
        <ele>1055.99</ele>
        <time>2020-07-21T12:49:46.000Z</time>
      </trkpt>
      <trkpt lat="43.0105292" lon="-5.770724">
        <ele>1055.99</ele>
        <time>2020-07-21T12:49:47.000Z</time>
      </trkpt>
      <trkpt lat="43.010532" lon="-5.7707398">
        <ele>1056.15</ele>
        <time>2020-07-21T12:49:48.000Z</time>
      </trkpt>
      <trkpt lat="43.0105367" lon="-5.770758">
        <ele>1056.15</ele>
        <time>2020-07-21T12:49:49.000Z</time>
      </trkpt>
      <trkpt lat="43.0105423" lon="-5.7707767">
        <ele>1056.15</ele>
        <time>2020-07-21T12:49:50.000Z</time>
      </trkpt>
      <trkpt lat="43.0105493" lon="-5.7707957">
        <ele>1056.15</ele>
        <time>2020-07-21T12:49:51.000Z</time>
      </trkpt>
      <trkpt lat="43.010555" lon="-5.770813">
        <ele>1056.3</ele>
        <time>2020-07-21T12:49:52.000Z</time>
      </trkpt>
      <trkpt lat="43.01056" lon="-5.7708302">
        <ele>1056.3</ele>
        <time>2020-07-21T12:49:53.000Z</time>
      </trkpt>
      <trkpt lat="43.0105638" lon="-5.7708463">
        <ele>1056.3</ele>
        <time>2020-07-21T12:49:54.000Z</time>
      </trkpt>
      <trkpt lat="43.0105673" lon="-5.7708618">
        <ele>1056.3</ele>
        <time>2020-07-21T12:49:55.000Z</time>
      </trkpt>
      <trkpt lat="43.0105713" lon="-5.770877">
        <ele>1056.45</ele>
        <time>2020-07-21T12:49:56.000Z</time>
      </trkpt>
      <trkpt lat="43.0105763" lon="-5.7708917">
        <ele>1056.45</ele>
        <time>2020-07-21T12:49:57.000Z</time>
      </trkpt>
      <trkpt lat="43.010582" lon="-5.7709063">
        <ele>1056.45</ele>
        <time>2020-07-21T12:49:58.000Z</time>
      </trkpt>
      <trkpt lat="43.0105868" lon="-5.7709223">
        <ele>1056.45</ele>
        <time>2020-07-21T12:49:59.000Z</time>
      </trkpt>
      <trkpt lat="43.0105905" lon="-5.7709388">
        <ele>1056.6</ele>
        <time>2020-07-21T12:50:00.000Z</time>
      </trkpt>
      <trkpt lat="43.0105928" lon="-5.7709575">
        <ele>1056.6</ele>
        <time>2020-07-21T12:50:01.000Z</time>
      </trkpt>
      <trkpt lat="43.0105952" lon="-5.7709767">
        <ele>1056.75</ele>
        <time>2020-07-21T12:50:02.000Z</time>
      </trkpt>
      <trkpt lat="43.0105987" lon="-5.7709968">
        <ele>1056.75</ele>
        <time>2020-07-21T12:50:03.000Z</time>
      </trkpt>
      <trkpt lat="43.0106033" lon="-5.7710155">
        <ele>1056.75</ele>
        <time>2020-07-21T12:50:04.000Z</time>
      </trkpt>
      <trkpt lat="43.0106082" lon="-5.7710338">
        <ele>1056.75</ele>
        <time>2020-07-21T12:50:05.000Z</time>
      </trkpt>
      <trkpt lat="43.010613" lon="-5.7710508">
        <ele>1056.91</ele>
        <time>2020-07-21T12:50:06.000Z</time>
      </trkpt>
      <trkpt lat="43.0106175" lon="-5.7710672">
        <ele>1056.91</ele>
        <time>2020-07-21T12:50:07.000Z</time>
      </trkpt>
      <trkpt lat="43.0106227" lon="-5.7710837">
        <ele>1056.91</ele>
        <time>2020-07-21T12:50:08.000Z</time>
      </trkpt>
      <trkpt lat="43.010628" lon="-5.7711013">
        <ele>1056.91</ele>
        <time>2020-07-21T12:50:09.000Z</time>
      </trkpt>
      <trkpt lat="43.0106337" lon="-5.7711197">
        <ele>1057.06</ele>
        <time>2020-07-21T12:50:10.000Z</time>
      </trkpt>
      <trkpt lat="43.010639" lon="-5.7711375">
        <ele>1057.06</ele>
        <time>2020-07-21T12:50:11.000Z</time>
      </trkpt>
      <trkpt lat="43.0106438" lon="-5.771155">
        <ele>1057.21</ele>
        <time>2020-07-21T12:50:12.000Z</time>
      </trkpt>
      <trkpt lat="43.010649" lon="-5.7711723">
        <ele>1057.21</ele>
        <time>2020-07-21T12:50:13.000Z</time>
      </trkpt>
      <trkpt lat="43.010655" lon="-5.7711895">
        <ele>1057.21</ele>
        <time>2020-07-21T12:50:14.000Z</time>
      </trkpt>
      <trkpt lat="43.0106615" lon="-5.7712067">
        <ele>1057.21</ele>
        <time>2020-07-21T12:50:15.000Z</time>
      </trkpt>
      <trkpt lat="43.0106683" lon="-5.7712235">
        <ele>1057.21</ele>
        <time>2020-07-21T12:50:16.000Z</time>
      </trkpt>
      <trkpt lat="43.0106753" lon="-5.7712402">
        <ele>1057.21</ele>
        <time>2020-07-21T12:50:17.000Z</time>
      </trkpt>
      <trkpt lat="43.0106828" lon="-5.7712557">
        <ele>1057.21</ele>
        <time>2020-07-21T12:50:18.000Z</time>
      </trkpt>
      <trkpt lat="43.0106903" lon="-5.7712705">
        <ele>1057.21</ele>
        <time>2020-07-21T12:50:19.000Z</time>
      </trkpt>
      <trkpt lat="43.010698" lon="-5.7712847">
        <ele>1057.21</ele>
        <time>2020-07-21T12:50:20.000Z</time>
      </trkpt>
      <trkpt lat="43.0107062" lon="-5.7712987">
        <ele>1057.21</ele>
        <time>2020-07-21T12:50:21.000Z</time>
      </trkpt>
      <trkpt lat="43.0107148" lon="-5.7713118">
        <ele>1057.36</ele>
        <time>2020-07-21T12:50:22.000Z</time>
      </trkpt>
      <trkpt lat="43.0107248" lon="-5.771324">
        <ele>1057.36</ele>
        <time>2020-07-21T12:50:23.000Z</time>
      </trkpt>
      <trkpt lat="43.0107353" lon="-5.7713348">
        <ele>1057.36</ele>
        <time>2020-07-21T12:50:24.000Z</time>
      </trkpt>
      <trkpt lat="43.0107462" lon="-5.771346">
        <ele>1057.36</ele>
        <time>2020-07-21T12:50:25.000Z</time>
      </trkpt>
      <trkpt lat="43.0107565" lon="-5.7713565">
        <ele>1057.36</ele>
        <time>2020-07-21T12:50:26.000Z</time>
      </trkpt>
      <trkpt lat="43.0107672" lon="-5.7713672">
        <ele>1057.36</ele>
        <time>2020-07-21T12:50:27.000Z</time>
      </trkpt>
      <trkpt lat="43.0107785" lon="-5.771377">
        <ele>1057.36</ele>
        <time>2020-07-21T12:50:28.000Z</time>
      </trkpt>
      <trkpt lat="43.0107908" lon="-5.7713858">
        <ele>1057.36</ele>
        <time>2020-07-21T12:50:29.000Z</time>
      </trkpt>
      <trkpt lat="43.010803" lon="-5.771395">
        <ele>1057.36</ele>
        <time>2020-07-21T12:50:30.000Z</time>
      </trkpt>
      <trkpt lat="43.0108153" lon="-5.7714042">
        <ele>1057.36</ele>
        <time>2020-07-21T12:50:31.000Z</time>
      </trkpt>
      <trkpt lat="43.0108268" lon="-5.7714152">
        <ele>1057.36</ele>
        <time>2020-07-21T12:50:32.000Z</time>
      </trkpt>
      <trkpt lat="43.010838" lon="-5.7714265">
        <ele>1057.36</ele>
        <time>2020-07-21T12:50:33.000Z</time>
      </trkpt>
      <trkpt lat="43.010848" lon="-5.7714388">
        <ele>1057.36</ele>
        <time>2020-07-21T12:50:34.000Z</time>
      </trkpt>
      <trkpt lat="43.0108583" lon="-5.7714507">
        <ele>1057.36</ele>
        <time>2020-07-21T12:50:35.000Z</time>
      </trkpt>
      <trkpt lat="43.0108688" lon="-5.7714618">
        <ele>1057.36</ele>
        <time>2020-07-21T12:50:36.000Z</time>
      </trkpt>
      <trkpt lat="43.0108805" lon="-5.7714727">
        <ele>1057.36</ele>
        <time>2020-07-21T12:50:37.000Z</time>
      </trkpt>
      <trkpt lat="43.010891" lon="-5.7714845">
        <ele>1057.36</ele>
        <time>2020-07-21T12:50:38.000Z</time>
      </trkpt>
      <trkpt lat="43.0109012" lon="-5.771497">
        <ele>1057.36</ele>
        <time>2020-07-21T12:50:39.000Z</time>
      </trkpt>
      <trkpt lat="43.0109112" lon="-5.7715088">
        <ele>1057.21</ele>
        <time>2020-07-21T12:50:40.000Z</time>
      </trkpt>
      <trkpt lat="43.0109222" lon="-5.7715198">
        <ele>1057.21</ele>
        <time>2020-07-21T12:50:41.000Z</time>
      </trkpt>
      <trkpt lat="43.0109332" lon="-5.7715303">
        <ele>1057.21</ele>
        <time>2020-07-21T12:50:42.000Z</time>
      </trkpt>
      <trkpt lat="43.0109433" lon="-5.7715425">
        <ele>1057.21</ele>
        <time>2020-07-21T12:50:43.000Z</time>
      </trkpt>
      <trkpt lat="43.0109527" lon="-5.771556">
        <ele>1057.21</ele>
        <time>2020-07-21T12:50:44.000Z</time>
      </trkpt>
      <trkpt lat="43.0109612" lon="-5.7715715">
        <ele>1057.21</ele>
        <time>2020-07-21T12:50:45.000Z</time>
      </trkpt>
      <trkpt lat="43.0109697" lon="-5.7715865">
        <ele>1057.06</ele>
        <time>2020-07-21T12:50:46.000Z</time>
      </trkpt>
      <trkpt lat="43.010977" lon="-5.7716017">
        <ele>1057.06</ele>
        <time>2020-07-21T12:50:47.000Z</time>
      </trkpt>
      <trkpt lat="43.0109823" lon="-5.7716167">
        <ele>1057.06</ele>
        <time>2020-07-21T12:50:48.000Z</time>
      </trkpt>
      <trkpt lat="43.0109862" lon="-5.7716322">
        <ele>1057.06</ele>
        <time>2020-07-21T12:50:49.000Z</time>
      </trkpt>
      <trkpt lat="43.0109892" lon="-5.7716483">
        <ele>1056.91</ele>
        <time>2020-07-21T12:50:50.000Z</time>
      </trkpt>
      <trkpt lat="43.0109928" lon="-5.7716635">
        <ele>1056.91</ele>
        <time>2020-07-21T12:50:51.000Z</time>
      </trkpt>
      <trkpt lat="43.010997" lon="-5.7716777">
        <ele>1056.91</ele>
        <time>2020-07-21T12:50:52.000Z</time>
      </trkpt>
      <trkpt lat="43.0110003" lon="-5.7716882">
        <ele>1056.91</ele>
        <time>2020-07-21T12:50:53.000Z</time>
      </trkpt>
      <trkpt lat="43.0110035" lon="-5.7716963">
        <ele>1056.75</ele>
        <time>2020-07-21T12:50:54.000Z</time>
      </trkpt>
      <trkpt lat="43.011005" lon="-5.7717032">
        <ele>1056.75</ele>
        <time>2020-07-21T12:50:55.000Z</time>
      </trkpt>
      <trkpt lat="43.0110063" lon="-5.7717115">
        <ele>1056.6</ele>
        <time>2020-07-21T12:50:56.000Z</time>
      </trkpt>
      <trkpt lat="43.0110073" lon="-5.7717213">
        <ele>1056.6</ele>
        <time>2020-07-21T12:50:57.000Z</time>
      </trkpt>
      <trkpt lat="43.0110073" lon="-5.7717298">
        <ele>1056.45</ele>
        <time>2020-07-21T12:50:58.000Z</time>
      </trkpt>
      <trkpt lat="43.011007" lon="-5.7717342">
        <ele>1056.45</ele>
        <time>2020-07-21T12:50:59.000Z</time>
      </trkpt>
      <trkpt lat="43.0110053" lon="-5.771735">
        <ele>1056.3</ele>
        <time>2020-07-21T12:51:00.000Z</time>
      </trkpt>
      <trkpt lat="43.0110047" lon="-5.7717348">
        <ele>1056.3</ele>
        <time>2020-07-21T12:51:01.000Z</time>
      </trkpt>
      <trkpt lat="43.0110032" lon="-5.7717332">
        <ele>1056.15</ele>
        <time>2020-07-21T12:51:02.000Z</time>
      </trkpt>
      <trkpt lat="43.0110003" lon="-5.7717302">
        <ele>1056.15</ele>
        <time>2020-07-21T12:51:03.000Z</time>
      </trkpt>
      <trkpt lat="43.0109957" lon="-5.7717235">
        <ele>1055.84</ele>
        <time>2020-07-21T12:51:04.000Z</time>
      </trkpt>
      <trkpt lat="43.0109905" lon="-5.7717183">
        <ele>1055.84</ele>
        <time>2020-07-21T12:51:05.000Z</time>
      </trkpt>
      <trkpt lat="43.0109857" lon="-5.7717142">
        <ele>1055.69</ele>
        <time>2020-07-21T12:51:06.000Z</time>
      </trkpt>
      <trkpt lat="43.0109825" lon="-5.7717123">
        <ele>1055.69</ele>
        <time>2020-07-21T12:51:07.000Z</time>
      </trkpt>
      <trkpt lat="43.0109812" lon="-5.7717115">
        <ele>1055.38</ele>
        <time>2020-07-21T12:51:08.000Z</time>
      </trkpt>
      <trkpt lat="43.0109817" lon="-5.7717102">
        <ele>1055.38</ele>
        <time>2020-07-21T12:51:09.000Z</time>
      </trkpt>
      <trkpt lat="43.0109818" lon="-5.7717093">
        <ele>1055.08</ele>
        <time>2020-07-21T12:51:10.000Z</time>
      </trkpt>
      <trkpt lat="43.0109813" lon="-5.7717102">
        <ele>1055.08</ele>
        <time>2020-07-21T12:51:11.000Z</time>
      </trkpt>
      <trkpt lat="43.0109802" lon="-5.7717133">
        <ele>1054.77</ele>
        <time>2020-07-21T12:51:12.000Z</time>
      </trkpt>
      <trkpt lat="43.0109793" lon="-5.77172">
        <ele>1054.77</ele>
        <time>2020-07-21T12:51:13.000Z</time>
      </trkpt>
      <trkpt lat="43.0109775" lon="-5.7717283">
        <ele>1054.47</ele>
        <time>2020-07-21T12:51:14.000Z</time>
      </trkpt>
      <trkpt lat="43.0109753" lon="-5.771738">
        <ele>1054.47</ele>
        <time>2020-07-21T12:51:15.000Z</time>
      </trkpt>
      <trkpt lat="43.0109732" lon="-5.7717463">
        <ele>1054.16</ele>
        <time>2020-07-21T12:51:16.000Z</time>
      </trkpt>
      <trkpt lat="43.010972" lon="-5.7717543">
        <ele>1054.16</ele>
        <time>2020-07-21T12:51:17.000Z</time>
      </trkpt>
      <trkpt lat="43.0109712" lon="-5.7717625">
        <ele>1053.71</ele>
        <time>2020-07-21T12:51:18.000Z</time>
      </trkpt>
      <trkpt lat="43.0109712" lon="-5.771771">
        <ele>1053.71</ele>
        <time>2020-07-21T12:51:19.000Z</time>
      </trkpt>
      <trkpt lat="43.0109717" lon="-5.7717755">
        <ele>1053.4</ele>
        <time>2020-07-21T12:51:20.000Z</time>
      </trkpt>
      <trkpt lat="43.0109723" lon="-5.7717778">
        <ele>1053.4</ele>
        <time>2020-07-21T12:51:21.000Z</time>
      </trkpt>
      <trkpt lat="43.010972" lon="-5.771779">
        <ele>1052.94</ele>
        <time>2020-07-21T12:51:22.000Z</time>
      </trkpt>
      <trkpt lat="43.0109705" lon="-5.771781">
        <ele>1052.94</ele>
        <time>2020-07-21T12:51:23.000Z</time>
      </trkpt>
      <trkpt lat="43.0109688" lon="-5.7717818">
        <ele>1052.49</ele>
        <time>2020-07-21T12:51:24.000Z</time>
      </trkpt>
      <trkpt lat="43.0109675" lon="-5.771782">
        <ele>1052.49</ele>
        <time>2020-07-21T12:51:25.000Z</time>
      </trkpt>
      <trkpt lat="43.0109668" lon="-5.7717825">
        <ele>1052.03</ele>
        <time>2020-07-21T12:51:26.000Z</time>
      </trkpt>
      <trkpt lat="43.010967" lon="-5.7717832">
        <ele>1052.03</ele>
        <time>2020-07-21T12:51:27.000Z</time>
      </trkpt>
      <trkpt lat="43.0109673" lon="-5.7717838">
        <ele>1051.57</ele>
        <time>2020-07-21T12:51:28.000Z</time>
      </trkpt>
      <trkpt lat="43.0109677" lon="-5.7717848">
        <ele>1051.57</ele>
        <time>2020-07-21T12:51:29.000Z</time>
      </trkpt>
      <trkpt lat="43.010968" lon="-5.7717862">
        <ele>1050.96</ele>
        <time>2020-07-21T12:51:30.000Z</time>
      </trkpt>
      <trkpt lat="43.0109683" lon="-5.7717873">
        <ele>1050.96</ele>
        <time>2020-07-21T12:51:31.000Z</time>
      </trkpt>
      <trkpt lat="43.0109692" lon="-5.7717885">
        <ele>1050.51</ele>
        <time>2020-07-21T12:51:32.000Z</time>
      </trkpt>
      <trkpt lat="43.0109698" lon="-5.7717895">
        <ele>1050.51</ele>
        <time>2020-07-21T12:51:33.000Z</time>
      </trkpt>
      <trkpt lat="43.0109707" lon="-5.7717908">
        <ele>1050.05</ele>
        <time>2020-07-21T12:51:34.000Z</time>
      </trkpt>
      <trkpt lat="43.0109715" lon="-5.771792">
        <ele>1050.05</ele>
        <time>2020-07-21T12:51:35.000Z</time>
      </trkpt>
      <trkpt lat="43.0109723" lon="-5.7717935">
        <ele>1049.59</ele>
        <time>2020-07-21T12:51:36.000Z</time>
      </trkpt>
      <trkpt lat="43.0109732" lon="-5.7717947">
        <ele>1049.59</ele>
        <time>2020-07-21T12:51:37.000Z</time>
      </trkpt>
      <trkpt lat="43.0109742" lon="-5.771796">
        <ele>1049.29</ele>
        <time>2020-07-21T12:51:38.000Z</time>
      </trkpt>
      <trkpt lat="43.010975" lon="-5.7717968">
        <ele>1049.29</ele>
        <time>2020-07-21T12:51:39.000Z</time>
      </trkpt>
      <trkpt lat="43.010976" lon="-5.7717978">
        <ele>1048.98</ele>
        <time>2020-07-21T12:51:40.000Z</time>
      </trkpt>
      <trkpt lat="43.0109768" lon="-5.7717985">
        <ele>1048.98</ele>
        <time>2020-07-21T12:51:41.000Z</time>
      </trkpt>
      <trkpt lat="43.0109775" lon="-5.771799">
        <ele>1048.83</ele>
        <time>2020-07-21T12:51:42.000Z</time>
      </trkpt>
      <trkpt lat="43.0109778" lon="-5.771799">
        <ele>1048.83</ele>
        <time>2020-07-21T12:51:43.000Z</time>
      </trkpt>
      <trkpt lat="43.010978" lon="-5.7717988">
        <ele>1048.53</ele>
        <time>2020-07-21T12:51:44.000Z</time>
      </trkpt>
      <trkpt lat="43.0109782" lon="-5.7717985">
        <ele>1048.53</ele>
        <time>2020-07-21T12:51:45.000Z</time>
      </trkpt>
      <trkpt lat="43.0109783" lon="-5.7717983">
        <ele>1048.37</ele>
        <time>2020-07-21T12:51:46.000Z</time>
      </trkpt>
      <trkpt lat="43.0109785" lon="-5.7717983">
        <ele>1048.37</ele>
        <time>2020-07-21T12:51:47.000Z</time>
      </trkpt>
      <trkpt lat="43.0109783" lon="-5.771798">
        <ele>1048.07</ele>
        <time>2020-07-21T12:51:48.000Z</time>
      </trkpt>
      <trkpt lat="43.0109782" lon="-5.7717975">
        <ele>1048.07</ele>
        <time>2020-07-21T12:51:49.000Z</time>
      </trkpt>
      <trkpt lat="43.010978" lon="-5.771797">
        <ele>1047.76</ele>
        <time>2020-07-21T12:51:50.000Z</time>
      </trkpt>
      <trkpt lat="43.010978" lon="-5.771797">
        <ele>1047.76</ele>
        <time>2020-07-21T12:51:51.000Z</time>
      </trkpt>
      <trkpt lat="43.0109778" lon="-5.7717975">
        <ele>1047.46</ele>
        <time>2020-07-21T12:51:52.000Z</time>
      </trkpt>
      <trkpt lat="43.0109767" lon="-5.7717983">
        <ele>1047.46</ele>
        <time>2020-07-21T12:51:53.000Z</time>
      </trkpt>
      <trkpt lat="43.0109753" lon="-5.771801">
        <ele>1047.31</ele>
        <time>2020-07-21T12:51:54.000Z</time>
      </trkpt>
      <trkpt lat="43.0109742" lon="-5.7718082">
        <ele>1047.31</ele>
        <time>2020-07-21T12:51:55.000Z</time>
      </trkpt>
      <trkpt lat="43.0109747" lon="-5.7718202">
        <ele>1047</ele>
        <time>2020-07-21T12:51:56.000Z</time>
      </trkpt>
      <trkpt lat="43.0109758" lon="-5.7718345">
        <ele>1047</ele>
        <time>2020-07-21T12:51:57.000Z</time>
      </trkpt>
      <trkpt lat="43.010977" lon="-5.7718495">
        <ele>1046.7</ele>
        <time>2020-07-21T12:51:58.000Z</time>
      </trkpt>
      <trkpt lat="43.0109777" lon="-5.7718643">
        <ele>1046.7</ele>
        <time>2020-07-21T12:51:59.000Z</time>
      </trkpt>
      <trkpt lat="43.0109775" lon="-5.7718797">
        <ele>1046.39</ele>
        <time>2020-07-21T12:52:00.000Z</time>
      </trkpt>
      <trkpt lat="43.0109768" lon="-5.7718935">
        <ele>1046.39</ele>
        <time>2020-07-21T12:52:01.000Z</time>
      </trkpt>
      <trkpt lat="43.0109753" lon="-5.7719057">
        <ele>1046.09</ele>
        <time>2020-07-21T12:52:02.000Z</time>
      </trkpt>
      <trkpt lat="43.0109747" lon="-5.7719188">
        <ele>1046.09</ele>
        <time>2020-07-21T12:52:03.000Z</time>
      </trkpt>
      <trkpt lat="43.010975" lon="-5.7719332">
        <ele>1045.93</ele>
        <time>2020-07-21T12:52:04.000Z</time>
      </trkpt>
      <trkpt lat="43.0109757" lon="-5.77195">
        <ele>1045.93</ele>
        <time>2020-07-21T12:52:05.000Z</time>
      </trkpt>
      <trkpt lat="43.0109753" lon="-5.771966">
        <ele>1045.63</ele>
        <time>2020-07-21T12:52:06.000Z</time>
      </trkpt>
      <trkpt lat="43.0109732" lon="-5.7719812">
        <ele>1045.63</ele>
        <time>2020-07-21T12:52:07.000Z</time>
      </trkpt>
      <trkpt lat="43.0109685" lon="-5.7719943">
        <ele>1045.32</ele>
        <time>2020-07-21T12:52:08.000Z</time>
      </trkpt>
      <trkpt lat="43.0109628" lon="-5.7720073">
        <ele>1045.32</ele>
        <time>2020-07-21T12:52:09.000Z</time>
      </trkpt>
      <trkpt lat="43.0109578" lon="-5.7720188">
        <ele>1045.17</ele>
        <time>2020-07-21T12:52:10.000Z</time>
      </trkpt>
      <trkpt lat="43.0109533" lon="-5.7720293">
        <ele>1045.17</ele>
        <time>2020-07-21T12:52:11.000Z</time>
      </trkpt>
      <trkpt lat="43.0109485" lon="-5.7720395">
        <ele>1044.87</ele>
        <time>2020-07-21T12:52:12.000Z</time>
      </trkpt>
      <trkpt lat="43.0109423" lon="-5.7720487">
        <ele>1044.87</ele>
        <time>2020-07-21T12:52:13.000Z</time>
      </trkpt>
      <trkpt lat="43.0109363" lon="-5.7720575">
        <ele>1044.56</ele>
        <time>2020-07-21T12:52:14.000Z</time>
      </trkpt>
      <trkpt lat="43.0109297" lon="-5.772064">
        <ele>1044.56</ele>
        <time>2020-07-21T12:52:15.000Z</time>
      </trkpt>
      <trkpt lat="43.010923" lon="-5.7720702">
        <ele>1044.41</ele>
        <time>2020-07-21T12:52:16.000Z</time>
      </trkpt>
      <trkpt lat="43.0109165" lon="-5.7720758">
        <ele>1044.41</ele>
        <time>2020-07-21T12:52:17.000Z</time>
      </trkpt>
      <trkpt lat="43.0109107" lon="-5.7720805">
        <ele>1044.1</ele>
        <time>2020-07-21T12:52:18.000Z</time>
      </trkpt>
      <trkpt lat="43.0109048" lon="-5.772086">
        <ele>1044.1</ele>
        <time>2020-07-21T12:52:19.000Z</time>
      </trkpt>
      <trkpt lat="43.0108983" lon="-5.7720912">
        <ele>1043.8</ele>
        <time>2020-07-21T12:52:20.000Z</time>
      </trkpt>
      <trkpt lat="43.010891" lon="-5.7720968">
        <ele>1043.8</ele>
        <time>2020-07-21T12:52:21.000Z</time>
      </trkpt>
      <trkpt lat="43.0108845" lon="-5.7721013">
        <ele>1043.49</ele>
        <time>2020-07-21T12:52:22.000Z</time>
      </trkpt>
      <trkpt lat="43.0108772" lon="-5.772108">
        <ele>1043.49</ele>
        <time>2020-07-21T12:52:23.000Z</time>
      </trkpt>
      <trkpt lat="43.0108692" lon="-5.7721162">
        <ele>1043.04</ele>
        <time>2020-07-21T12:52:24.000Z</time>
      </trkpt>
      <trkpt lat="43.0108598" lon="-5.7721257">
        <ele>1043.04</ele>
        <time>2020-07-21T12:52:25.000Z</time>
      </trkpt>
      <trkpt lat="43.0108505" lon="-5.7721342">
        <ele>1042.73</ele>
        <time>2020-07-21T12:52:26.000Z</time>
      </trkpt>
      <trkpt lat="43.0108423" lon="-5.7721425">
        <ele>1042.73</ele>
        <time>2020-07-21T12:52:27.000Z</time>
      </trkpt>
      <trkpt lat="43.0108338" lon="-5.7721527">
        <ele>1042.43</ele>
        <time>2020-07-21T12:52:28.000Z</time>
      </trkpt>
      <trkpt lat="43.010826" lon="-5.7721635">
        <ele>1042.43</ele>
        <time>2020-07-21T12:52:29.000Z</time>
      </trkpt>
      <trkpt lat="43.0108182" lon="-5.772176">
        <ele>1042.28</ele>
        <time>2020-07-21T12:52:30.000Z</time>
      </trkpt>
      <trkpt lat="43.0108123" lon="-5.7721873">
        <ele>1042.28</ele>
        <time>2020-07-21T12:52:31.000Z</time>
      </trkpt>
      <trkpt lat="43.0108065" lon="-5.7721983">
        <ele>1041.97</ele>
        <time>2020-07-21T12:52:32.000Z</time>
      </trkpt>
      <trkpt lat="43.0108003" lon="-5.7722093">
        <ele>1041.97</ele>
        <time>2020-07-21T12:52:33.000Z</time>
      </trkpt>
      <trkpt lat="43.0107922" lon="-5.7722205">
        <ele>1041.67</ele>
        <time>2020-07-21T12:52:34.000Z</time>
      </trkpt>
      <trkpt lat="43.010782" lon="-5.7722322">
        <ele>1041.67</ele>
        <time>2020-07-21T12:52:35.000Z</time>
      </trkpt>
      <trkpt lat="43.010771" lon="-5.772242">
        <ele>1041.51</ele>
        <time>2020-07-21T12:52:36.000Z</time>
      </trkpt>
      <trkpt lat="43.0107613" lon="-5.7722515">
        <ele>1041.51</ele>
        <time>2020-07-21T12:52:37.000Z</time>
      </trkpt>
      <trkpt lat="43.0107525" lon="-5.7722577">
        <ele>1041.21</ele>
        <time>2020-07-21T12:52:38.000Z</time>
      </trkpt>
      <trkpt lat="43.0107423" lon="-5.7722648">
        <ele>1041.21</ele>
        <time>2020-07-21T12:52:39.000Z</time>
      </trkpt>
      <trkpt lat="43.0107318" lon="-5.7722693">
        <ele>1041.06</ele>
        <time>2020-07-21T12:52:40.000Z</time>
      </trkpt>
      <trkpt lat="43.010723" lon="-5.7722737">
        <ele>1041.06</ele>
        <time>2020-07-21T12:52:41.000Z</time>
      </trkpt>
      <trkpt lat="43.0107173" lon="-5.7722727">
        <ele>1040.75</ele>
        <time>2020-07-21T12:52:42.000Z</time>
      </trkpt>
      <trkpt lat="43.0107138" lon="-5.7722708">
        <ele>1040.75</ele>
        <time>2020-07-21T12:52:43.000Z</time>
      </trkpt>
      <trkpt lat="43.0107113" lon="-5.7722688">
        <ele>1040.6</ele>
        <time>2020-07-21T12:52:44.000Z</time>
      </trkpt>
      <trkpt lat="43.0107115" lon="-5.7722702">
        <ele>1040.6</ele>
        <time>2020-07-21T12:52:45.000Z</time>
      </trkpt>
      <trkpt lat="43.010713" lon="-5.772274">
        <ele>1040.45</ele>
        <time>2020-07-21T12:52:46.000Z</time>
      </trkpt>
      <trkpt lat="43.0107165" lon="-5.7722792">
        <ele>1040.45</ele>
        <time>2020-07-21T12:52:47.000Z</time>
      </trkpt>
      <trkpt lat="43.0107215" lon="-5.7722875">
        <ele>1040.14</ele>
        <time>2020-07-21T12:52:48.000Z</time>
      </trkpt>
      <trkpt lat="43.0107285" lon="-5.7722958">
        <ele>1040.14</ele>
        <time>2020-07-21T12:52:49.000Z</time>
      </trkpt>
      <trkpt lat="43.0107363" lon="-5.7723055">
        <ele>1039.99</ele>
        <time>2020-07-21T12:52:50.000Z</time>
      </trkpt>
      <trkpt lat="43.010744" lon="-5.7723142">
        <ele>1039.99</ele>
        <time>2020-07-21T12:52:51.000Z</time>
      </trkpt>
      <trkpt lat="43.0107512" lon="-5.7723248">
        <ele>1039.69</ele>
        <time>2020-07-21T12:52:52.000Z</time>
      </trkpt>
      <trkpt lat="43.0107573" lon="-5.7723333">
        <ele>1039.69</ele>
        <time>2020-07-21T12:52:53.000Z</time>
      </trkpt>
      <trkpt lat="43.0107613" lon="-5.7723388">
        <ele>1039.53</ele>
        <time>2020-07-21T12:52:54.000Z</time>
      </trkpt>
      <trkpt lat="43.0107632" lon="-5.7723415">
        <ele>1039.53</ele>
        <time>2020-07-21T12:52:55.000Z</time>
      </trkpt>
      <trkpt lat="43.0107648" lon="-5.7723465">
        <ele>1039.38</ele>
        <time>2020-07-21T12:52:56.000Z</time>
      </trkpt>
      <trkpt lat="43.0107668" lon="-5.7723522">
        <ele>1039.38</ele>
        <time>2020-07-21T12:52:57.000Z</time>
      </trkpt>
      <trkpt lat="43.0107688" lon="-5.7723563">
        <ele>1039.23</ele>
        <time>2020-07-21T12:52:58.000Z</time>
      </trkpt>
      <trkpt lat="43.0107712" lon="-5.772358">
        <ele>1039.23</ele>
        <time>2020-07-21T12:52:59.000Z</time>
      </trkpt>
      <trkpt lat="43.0107723" lon="-5.7723587">
        <ele>1039.08</ele>
        <time>2020-07-21T12:53:00.000Z</time>
      </trkpt>
      <trkpt lat="43.0107727" lon="-5.7723593">
        <ele>1039.08</ele>
        <time>2020-07-21T12:53:01.000Z</time>
      </trkpt>
      <trkpt lat="43.0107717" lon="-5.7723598">
        <ele>1038.92</ele>
        <time>2020-07-21T12:53:02.000Z</time>
      </trkpt>
      <trkpt lat="43.0107717" lon="-5.7723602">
        <ele>1038.92</ele>
        <time>2020-07-21T12:53:03.000Z</time>
      </trkpt>
      <trkpt lat="43.0107718" lon="-5.7723605">
        <ele>1038.77</ele>
        <time>2020-07-21T12:53:04.000Z</time>
      </trkpt>
      <trkpt lat="43.0107722" lon="-5.7723613">
        <ele>1038.77</ele>
        <time>2020-07-21T12:53:05.000Z</time>
      </trkpt>
      <trkpt lat="43.0107727" lon="-5.7723617">
        <ele>1038.62</ele>
        <time>2020-07-21T12:53:06.000Z</time>
      </trkpt>
      <trkpt lat="43.0107733" lon="-5.772362">
        <ele>1038.62</ele>
        <time>2020-07-21T12:53:07.000Z</time>
      </trkpt>
      <trkpt lat="43.010774" lon="-5.7723625">
        <ele>1038.47</ele>
        <time>2020-07-21T12:53:08.000Z</time>
      </trkpt>
      <trkpt lat="43.0107747" lon="-5.7723632">
        <ele>1038.47</ele>
        <time>2020-07-21T12:53:09.000Z</time>
      </trkpt>
      <trkpt lat="43.0107753" lon="-5.7723642">
        <ele>1038.16</ele>
        <time>2020-07-21T12:53:10.000Z</time>
      </trkpt>
      <trkpt lat="43.0107758" lon="-5.7723648">
        <ele>1038.16</ele>
        <time>2020-07-21T12:53:11.000Z</time>
      </trkpt>
      <trkpt lat="43.010776" lon="-5.7723662">
        <ele>1038.01</ele>
        <time>2020-07-21T12:53:12.000Z</time>
      </trkpt>
      <trkpt lat="43.0107768" lon="-5.7723688">
        <ele>1038.01</ele>
        <time>2020-07-21T12:53:13.000Z</time>
      </trkpt>
      <trkpt lat="43.0107805" lon="-5.772375">
        <ele>1037.86</ele>
        <time>2020-07-21T12:53:14.000Z</time>
      </trkpt>
      <trkpt lat="43.0107852" lon="-5.772383">
        <ele>1037.86</ele>
        <time>2020-07-21T12:53:15.000Z</time>
      </trkpt>
      <trkpt lat="43.0107895" lon="-5.7723913">
        <ele>1037.7</ele>
        <time>2020-07-21T12:53:16.000Z</time>
      </trkpt>
      <trkpt lat="43.0107927" lon="-5.7724003">
        <ele>1037.7</ele>
        <time>2020-07-21T12:53:17.000Z</time>
      </trkpt>
      <trkpt lat="43.0107965" lon="-5.772412">
        <ele>1037.55</ele>
        <time>2020-07-21T12:53:18.000Z</time>
      </trkpt>
      <trkpt lat="43.0108012" lon="-5.7724255">
        <ele>1037.55</ele>
        <time>2020-07-21T12:53:19.000Z</time>
      </trkpt>
      <trkpt lat="43.0108058" lon="-5.772439">
        <ele>1037.4</ele>
        <time>2020-07-21T12:53:20.000Z</time>
      </trkpt>
      <trkpt lat="43.0108105" lon="-5.7724527">
        <ele>1037.4</ele>
        <time>2020-07-21T12:53:21.000Z</time>
      </trkpt>
      <trkpt lat="43.0108162" lon="-5.7724668">
        <ele>1037.09</ele>
        <time>2020-07-21T12:53:22.000Z</time>
      </trkpt>
      <trkpt lat="43.010821" lon="-5.7724822">
        <ele>1037.09</ele>
        <time>2020-07-21T12:53:23.000Z</time>
      </trkpt>
      <trkpt lat="43.0108255" lon="-5.7725">
        <ele>1036.94</ele>
        <time>2020-07-21T12:53:24.000Z</time>
      </trkpt>
      <trkpt lat="43.0108298" lon="-5.772521">
        <ele>1036.94</ele>
        <time>2020-07-21T12:53:25.000Z</time>
      </trkpt>
      <trkpt lat="43.0108345" lon="-5.7725408">
        <ele>1036.79</ele>
        <time>2020-07-21T12:53:26.000Z</time>
      </trkpt>
      <trkpt lat="43.0108388" lon="-5.7725557">
        <ele>1036.79</ele>
        <time>2020-07-21T12:53:27.000Z</time>
      </trkpt>
      <trkpt lat="43.0108428" lon="-5.7725667">
        <ele>1036.64</ele>
        <time>2020-07-21T12:53:28.000Z</time>
      </trkpt>
      <trkpt lat="43.0108453" lon="-5.7725777">
        <ele>1036.64</ele>
        <time>2020-07-21T12:53:29.000Z</time>
      </trkpt>
      <trkpt lat="43.0108475" lon="-5.7725892">
        <ele>1036.48</ele>
        <time>2020-07-21T12:53:30.000Z</time>
      </trkpt>
      <trkpt lat="43.0108478" lon="-5.7725997">
        <ele>1036.48</ele>
        <time>2020-07-21T12:53:31.000Z</time>
      </trkpt>
      <trkpt lat="43.0108495" lon="-5.7726087">
        <ele>1036.18</ele>
        <time>2020-07-21T12:53:32.000Z</time>
      </trkpt>
      <trkpt lat="43.01085" lon="-5.7726147">
        <ele>1036.18</ele>
        <time>2020-07-21T12:53:33.000Z</time>
      </trkpt>
      <trkpt lat="43.0108498" lon="-5.7726182">
        <ele>1036.03</ele>
        <time>2020-07-21T12:53:34.000Z</time>
      </trkpt>
      <trkpt lat="43.010849" lon="-5.7726193">
        <ele>1036.03</ele>
        <time>2020-07-21T12:53:35.000Z</time>
      </trkpt>
      <trkpt lat="43.0108495" lon="-5.772621">
        <ele>1035.72</ele>
        <time>2020-07-21T12:53:36.000Z</time>
      </trkpt>
      <trkpt lat="43.010851" lon="-5.7726247">
        <ele>1035.72</ele>
        <time>2020-07-21T12:53:37.000Z</time>
      </trkpt>
      <trkpt lat="43.0108527" lon="-5.7726295">
        <ele>1035.57</ele>
        <time>2020-07-21T12:53:38.000Z</time>
      </trkpt>
      <trkpt lat="43.0108535" lon="-5.7726342">
        <ele>1035.57</ele>
        <time>2020-07-21T12:53:39.000Z</time>
      </trkpt>
      <trkpt lat="43.0108538" lon="-5.7726375">
        <ele>1035.27</ele>
        <time>2020-07-21T12:53:40.000Z</time>
      </trkpt>
      <trkpt lat="43.0108538" lon="-5.7726393">
        <ele>1035.27</ele>
        <time>2020-07-21T12:53:41.000Z</time>
      </trkpt>
      <trkpt lat="43.0108535" lon="-5.772641">
        <ele>1035.11</ele>
        <time>2020-07-21T12:53:42.000Z</time>
      </trkpt>
      <trkpt lat="43.010853" lon="-5.7726425">
        <ele>1035.11</ele>
        <time>2020-07-21T12:53:43.000Z</time>
      </trkpt>
      <trkpt lat="43.0108525" lon="-5.7726448">
        <ele>1034.81</ele>
        <time>2020-07-21T12:53:44.000Z</time>
      </trkpt>
      <trkpt lat="43.0108512" lon="-5.7726468">
        <ele>1034.81</ele>
        <time>2020-07-21T12:53:45.000Z</time>
      </trkpt>
      <trkpt lat="43.0108498" lon="-5.7726495">
        <ele>1034.66</ele>
        <time>2020-07-21T12:53:46.000Z</time>
      </trkpt>
      <trkpt lat="43.0108485" lon="-5.7726532">
        <ele>1034.66</ele>
        <time>2020-07-21T12:53:47.000Z</time>
      </trkpt>
      <trkpt lat="43.0108473" lon="-5.772659">
        <ele>1034.35</ele>
        <time>2020-07-21T12:53:48.000Z</time>
      </trkpt>
      <trkpt lat="43.0108457" lon="-5.7726667">
        <ele>1034.35</ele>
        <time>2020-07-21T12:53:49.000Z</time>
      </trkpt>
      <trkpt lat="43.0108452" lon="-5.7726797">
        <ele>1034.05</ele>
        <time>2020-07-21T12:53:50.000Z</time>
      </trkpt>
      <trkpt lat="43.0108453" lon="-5.7726937">
        <ele>1034.05</ele>
        <time>2020-07-21T12:53:51.000Z</time>
      </trkpt>
      <trkpt lat="43.0108468" lon="-5.7727077">
        <ele>1033.74</ele>
        <time>2020-07-21T12:53:52.000Z</time>
      </trkpt>
      <trkpt lat="43.0108495" lon="-5.7727192">
        <ele>1033.74</ele>
        <time>2020-07-21T12:53:53.000Z</time>
      </trkpt>
      <trkpt lat="43.0108532" lon="-5.7727313">
        <ele>1033.59</ele>
        <time>2020-07-21T12:53:54.000Z</time>
      </trkpt>
      <trkpt lat="43.0108592" lon="-5.7727452">
        <ele>1033.59</ele>
        <time>2020-07-21T12:53:55.000Z</time>
      </trkpt>
      <trkpt lat="43.010866" lon="-5.7727572">
        <ele>1033.29</ele>
        <time>2020-07-21T12:53:56.000Z</time>
      </trkpt>
      <trkpt lat="43.0108742" lon="-5.7727673">
        <ele>1033.29</ele>
        <time>2020-07-21T12:53:57.000Z</time>
      </trkpt>
      <trkpt lat="43.0108817" lon="-5.7727757">
        <ele>1032.98</ele>
        <time>2020-07-21T12:53:58.000Z</time>
      </trkpt>
      <trkpt lat="43.0108883" lon="-5.772783">
        <ele>1032.98</ele>
        <time>2020-07-21T12:53:59.000Z</time>
      </trkpt>
      <trkpt lat="43.0108948" lon="-5.7727925">
        <ele>1032.68</ele>
        <time>2020-07-21T12:54:00.000Z</time>
      </trkpt>
      <trkpt lat="43.0108982" lon="-5.7728015">
        <ele>1032.68</ele>
        <time>2020-07-21T12:54:01.000Z</time>
      </trkpt>
      <trkpt lat="43.0109022" lon="-5.7728135">
        <ele>1032.37</ele>
        <time>2020-07-21T12:54:02.000Z</time>
      </trkpt>
      <trkpt lat="43.010906" lon="-5.7728245">
        <ele>1032.37</ele>
        <time>2020-07-21T12:54:03.000Z</time>
      </trkpt>
      <trkpt lat="43.0109125" lon="-5.7728385">
        <ele>1032.22</ele>
        <time>2020-07-21T12:54:04.000Z</time>
      </trkpt>
      <trkpt lat="43.0109185" lon="-5.7728517">
        <ele>1032.22</ele>
        <time>2020-07-21T12:54:05.000Z</time>
      </trkpt>
      <trkpt lat="43.010925" lon="-5.7728655">
        <ele>1031.91</ele>
        <time>2020-07-21T12:54:06.000Z</time>
      </trkpt>
      <trkpt lat="43.0109322" lon="-5.7728778">
        <ele>1031.91</ele>
        <time>2020-07-21T12:54:07.000Z</time>
      </trkpt>
      <trkpt lat="43.0109408" lon="-5.7728908">
        <ele>1031.76</ele>
        <time>2020-07-21T12:54:08.000Z</time>
      </trkpt>
      <trkpt lat="43.0109515" lon="-5.7729032">
        <ele>1031.76</ele>
        <time>2020-07-21T12:54:09.000Z</time>
      </trkpt>
      <trkpt lat="43.0109625" lon="-5.7729157">
        <ele>1031.61</ele>
        <time>2020-07-21T12:54:10.000Z</time>
      </trkpt>
      <trkpt lat="43.0109735" lon="-5.7729267">
        <ele>1031.61</ele>
        <time>2020-07-21T12:54:11.000Z</time>
      </trkpt>
      <trkpt lat="43.010983" lon="-5.772937">
        <ele>1031.3</ele>
        <time>2020-07-21T12:54:12.000Z</time>
      </trkpt>
      <trkpt lat="43.0109925" lon="-5.772946">
        <ele>1031.3</ele>
        <time>2020-07-21T12:54:13.000Z</time>
      </trkpt>
      <trkpt lat="43.0110007" lon="-5.7729538">
        <ele>1031.15</ele>
        <time>2020-07-21T12:54:14.000Z</time>
      </trkpt>
      <trkpt lat="43.011009" lon="-5.7729632">
        <ele>1031.15</ele>
        <time>2020-07-21T12:54:15.000Z</time>
      </trkpt>
      <trkpt lat="43.0110165" lon="-5.7729778">
        <ele>1031</ele>
        <time>2020-07-21T12:54:16.000Z</time>
      </trkpt>
      <trkpt lat="43.0110237" lon="-5.772996">
        <ele>1031</ele>
        <time>2020-07-21T12:54:17.000Z</time>
      </trkpt>
      <trkpt lat="43.0110302" lon="-5.773016">
        <ele>1030.69</ele>
        <time>2020-07-21T12:54:18.000Z</time>
      </trkpt>
      <trkpt lat="43.0110348" lon="-5.7730345">
        <ele>1030.69</ele>
        <time>2020-07-21T12:54:19.000Z</time>
      </trkpt>
      <trkpt lat="43.011038" lon="-5.7730527">
        <ele>1030.54</ele>
        <time>2020-07-21T12:54:20.000Z</time>
      </trkpt>
      <trkpt lat="43.0110402" lon="-5.7730702">
        <ele>1030.54</ele>
        <time>2020-07-21T12:54:21.000Z</time>
      </trkpt>
      <trkpt lat="43.0110433" lon="-5.773087">
        <ele>1030.39</ele>
        <time>2020-07-21T12:54:22.000Z</time>
      </trkpt>
      <trkpt lat="43.011047" lon="-5.7731025">
        <ele>1030.39</ele>
        <time>2020-07-21T12:54:23.000Z</time>
      </trkpt>
      <trkpt lat="43.011049" lon="-5.7731172">
        <ele>1030.08</ele>
        <time>2020-07-21T12:54:24.000Z</time>
      </trkpt>
      <trkpt lat="43.0110505" lon="-5.7731307">
        <ele>1030.08</ele>
        <time>2020-07-21T12:54:25.000Z</time>
      </trkpt>
      <trkpt lat="43.0110523" lon="-5.773146">
        <ele>1029.93</ele>
        <time>2020-07-21T12:54:26.000Z</time>
      </trkpt>
      <trkpt lat="43.0110558" lon="-5.7731622">
        <ele>1029.93</ele>
        <time>2020-07-21T12:54:27.000Z</time>
      </trkpt>
      <trkpt lat="43.011061" lon="-5.7731798">
        <ele>1029.78</ele>
        <time>2020-07-21T12:54:28.000Z</time>
      </trkpt>
      <trkpt lat="43.0110663" lon="-5.7731967">
        <ele>1029.78</ele>
        <time>2020-07-21T12:54:29.000Z</time>
      </trkpt>
      <trkpt lat="43.0110703" lon="-5.773215">
        <ele>1029.47</ele>
        <time>2020-07-21T12:54:30.000Z</time>
      </trkpt>
      <trkpt lat="43.0110727" lon="-5.773233">
        <ele>1029.47</ele>
        <time>2020-07-21T12:54:31.000Z</time>
      </trkpt>
      <trkpt lat="43.0110742" lon="-5.7732522">
        <ele>1029.32</ele>
        <time>2020-07-21T12:54:32.000Z</time>
      </trkpt>
      <trkpt lat="43.011075" lon="-5.7732698">
        <ele>1029.32</ele>
        <time>2020-07-21T12:54:33.000Z</time>
      </trkpt>
      <trkpt lat="43.0110745" lon="-5.7732868">
        <ele>1029.17</ele>
        <time>2020-07-21T12:54:34.000Z</time>
      </trkpt>
      <trkpt lat="43.0110725" lon="-5.7733052">
        <ele>1029.17</ele>
        <time>2020-07-21T12:54:35.000Z</time>
      </trkpt>
      <trkpt lat="43.0110727" lon="-5.7733257">
        <ele>1029.02</ele>
        <time>2020-07-21T12:54:36.000Z</time>
      </trkpt>
      <trkpt lat="43.0110732" lon="-5.7733473">
        <ele>1029.02</ele>
        <time>2020-07-21T12:54:37.000Z</time>
      </trkpt>
      <trkpt lat="43.0110745" lon="-5.7733657">
        <ele>1028.86</ele>
        <time>2020-07-21T12:54:38.000Z</time>
      </trkpt>
      <trkpt lat="43.011073" lon="-5.7733822">
        <ele>1028.86</ele>
        <time>2020-07-21T12:54:39.000Z</time>
      </trkpt>
      <trkpt lat="43.0110705" lon="-5.7733975">
        <ele>1028.71</ele>
        <time>2020-07-21T12:54:40.000Z</time>
      </trkpt>
      <trkpt lat="43.0110665" lon="-5.7734133">
        <ele>1028.71</ele>
        <time>2020-07-21T12:54:41.000Z</time>
      </trkpt>
      <trkpt lat="43.0110608" lon="-5.7734277">
        <ele>1028.56</ele>
        <time>2020-07-21T12:54:42.000Z</time>
      </trkpt>
      <trkpt lat="43.0110552" lon="-5.7734418">
        <ele>1028.56</ele>
        <time>2020-07-21T12:54:43.000Z</time>
      </trkpt>
      <trkpt lat="43.0110487" lon="-5.773456">
        <ele>1028.41</ele>
        <time>2020-07-21T12:54:44.000Z</time>
      </trkpt>
      <trkpt lat="43.0110437" lon="-5.7734712">
        <ele>1028.41</ele>
        <time>2020-07-21T12:54:45.000Z</time>
      </trkpt>
      <trkpt lat="43.0110387" lon="-5.7734862">
        <ele>1028.26</ele>
        <time>2020-07-21T12:54:46.000Z</time>
      </trkpt>
      <trkpt lat="43.011035" lon="-5.7735028">
        <ele>1028.26</ele>
        <time>2020-07-21T12:54:47.000Z</time>
      </trkpt>
      <trkpt lat="43.0110337" lon="-5.7735217">
        <ele>1028.1</ele>
        <time>2020-07-21T12:54:48.000Z</time>
      </trkpt>
      <trkpt lat="43.0110352" lon="-5.7735413">
        <ele>1028.1</ele>
        <time>2020-07-21T12:54:49.000Z</time>
      </trkpt>
      <trkpt lat="43.0110378" lon="-5.7735595">
        <ele>1027.95</ele>
        <time>2020-07-21T12:54:50.000Z</time>
      </trkpt>
      <trkpt lat="43.011042" lon="-5.773576">
        <ele>1027.95</ele>
        <time>2020-07-21T12:54:51.000Z</time>
      </trkpt>
      <trkpt lat="43.0110477" lon="-5.7735913">
        <ele>1027.95</ele>
        <time>2020-07-21T12:54:52.000Z</time>
      </trkpt>
      <trkpt lat="43.0110548" lon="-5.7736055">
        <ele>1027.95</ele>
        <time>2020-07-21T12:54:53.000Z</time>
      </trkpt>
      <trkpt lat="43.0110613" lon="-5.7736188">
        <ele>1027.8</ele>
        <time>2020-07-21T12:54:54.000Z</time>
      </trkpt>
      <trkpt lat="43.0110668" lon="-5.7736315">
        <ele>1027.8</ele>
        <time>2020-07-21T12:54:55.000Z</time>
      </trkpt>
      <trkpt lat="43.0110723" lon="-5.773643">
        <ele>1027.65</ele>
        <time>2020-07-21T12:54:56.000Z</time>
      </trkpt>
      <trkpt lat="43.0110777" lon="-5.7736545">
        <ele>1027.65</ele>
        <time>2020-07-21T12:54:57.000Z</time>
      </trkpt>
      <trkpt lat="43.0110825" lon="-5.773667">
        <ele>1027.49</ele>
        <time>2020-07-21T12:54:58.000Z</time>
      </trkpt>
      <trkpt lat="43.0110873" lon="-5.7736818">
        <ele>1027.49</ele>
        <time>2020-07-21T12:54:59.000Z</time>
      </trkpt>
      <trkpt lat="43.0110923" lon="-5.7736963">
        <ele>1027.49</ele>
        <time>2020-07-21T12:55:00.000Z</time>
      </trkpt>
      <trkpt lat="43.0110983" lon="-5.7737095">
        <ele>1027.49</ele>
        <time>2020-07-21T12:55:01.000Z</time>
      </trkpt>
      <trkpt lat="43.0111037" lon="-5.773721">
        <ele>1027.34</ele>
        <time>2020-07-21T12:55:02.000Z</time>
      </trkpt>
      <trkpt lat="43.0111083" lon="-5.7737318">
        <ele>1027.34</ele>
        <time>2020-07-21T12:55:03.000Z</time>
      </trkpt>
      <trkpt lat="43.0111112" lon="-5.7737415">
        <ele>1027.19</ele>
        <time>2020-07-21T12:55:04.000Z</time>
      </trkpt>
      <trkpt lat="43.011112" lon="-5.7737515">
        <ele>1027.19</ele>
        <time>2020-07-21T12:55:05.000Z</time>
      </trkpt>
      <trkpt lat="43.0111088" lon="-5.7737627">
        <ele>1027.19</ele>
        <time>2020-07-21T12:55:06.000Z</time>
      </trkpt>
      <trkpt lat="43.0111037" lon="-5.7737748">
        <ele>1027.19</ele>
        <time>2020-07-21T12:55:07.000Z</time>
      </trkpt>
      <trkpt lat="43.0110973" lon="-5.773785">
        <ele>1027.04</ele>
        <time>2020-07-21T12:55:08.000Z</time>
      </trkpt>
      <trkpt lat="43.0110908" lon="-5.7737953">
        <ele>1027.04</ele>
        <time>2020-07-21T12:55:09.000Z</time>
      </trkpt>
      <trkpt lat="43.0110835" lon="-5.7738065">
        <ele>1027.04</ele>
        <time>2020-07-21T12:55:10.000Z</time>
      </trkpt>
      <trkpt lat="43.011075" lon="-5.7738193">
        <ele>1027.04</ele>
        <time>2020-07-21T12:55:11.000Z</time>
      </trkpt>
      <trkpt lat="43.0110658" lon="-5.7738318">
        <ele>1026.88</ele>
        <time>2020-07-21T12:55:12.000Z</time>
      </trkpt>
      <trkpt lat="43.0110573" lon="-5.7738453">
        <ele>1026.88</ele>
        <time>2020-07-21T12:55:13.000Z</time>
      </trkpt>
      <trkpt lat="43.0110502" lon="-5.7738595">
        <ele>1026.88</ele>
        <time>2020-07-21T12:55:14.000Z</time>
      </trkpt>
      <trkpt lat="43.0110458" lon="-5.7738747">
        <ele>1026.88</ele>
        <time>2020-07-21T12:55:15.000Z</time>
      </trkpt>
      <trkpt lat="43.011041" lon="-5.773889">
        <ele>1026.73</ele>
        <time>2020-07-21T12:55:16.000Z</time>
      </trkpt>
      <trkpt lat="43.0110363" lon="-5.7739048">
        <ele>1026.73</ele>
        <time>2020-07-21T12:55:17.000Z</time>
      </trkpt>
      <trkpt lat="43.0110317" lon="-5.7739197">
        <ele>1026.73</ele>
        <time>2020-07-21T12:55:18.000Z</time>
      </trkpt>
      <trkpt lat="43.0110288" lon="-5.7739333">
        <ele>1026.73</ele>
        <time>2020-07-21T12:55:19.000Z</time>
      </trkpt>
      <trkpt lat="43.0110272" lon="-5.7739445">
        <ele>1026.58</ele>
        <time>2020-07-21T12:55:20.000Z</time>
      </trkpt>
      <trkpt lat="43.0110252" lon="-5.7739563">
        <ele>1026.58</ele>
        <time>2020-07-21T12:55:21.000Z</time>
      </trkpt>
      <trkpt lat="43.0110223" lon="-5.773969">
        <ele>1026.58</ele>
        <time>2020-07-21T12:55:22.000Z</time>
      </trkpt>
      <trkpt lat="43.0110172" lon="-5.7739815">
        <ele>1026.58</ele>
        <time>2020-07-21T12:55:23.000Z</time>
      </trkpt>
      <trkpt lat="43.0110117" lon="-5.7739945">
        <ele>1026.43</ele>
        <time>2020-07-21T12:55:24.000Z</time>
      </trkpt>
      <trkpt lat="43.0110057" lon="-5.7740077">
        <ele>1026.43</ele>
        <time>2020-07-21T12:55:25.000Z</time>
      </trkpt>
      <trkpt lat="43.0109988" lon="-5.7740238">
        <ele>1026.43</ele>
        <time>2020-07-21T12:55:26.000Z</time>
      </trkpt>
      <trkpt lat="43.0109908" lon="-5.7740402">
        <ele>1026.43</ele>
        <time>2020-07-21T12:55:27.000Z</time>
      </trkpt>
      <trkpt lat="43.010982" lon="-5.7740573">
        <ele>1026.27</ele>
        <time>2020-07-21T12:55:28.000Z</time>
      </trkpt>
      <trkpt lat="43.0109745" lon="-5.7740733">
        <ele>1026.27</ele>
        <time>2020-07-21T12:55:29.000Z</time>
      </trkpt>
      <trkpt lat="43.0109693" lon="-5.7740882">
        <ele>1026.12</ele>
        <time>2020-07-21T12:55:30.000Z</time>
      </trkpt>
      <trkpt lat="43.0109655" lon="-5.7741042">
        <ele>1026.12</ele>
        <time>2020-07-21T12:55:31.000Z</time>
      </trkpt>
      <trkpt lat="43.010962" lon="-5.7741218">
        <ele>1025.97</ele>
        <time>2020-07-21T12:55:32.000Z</time>
      </trkpt>
      <trkpt lat="43.0109563" lon="-5.7741413">
        <ele>1025.97</ele>
        <time>2020-07-21T12:55:33.000Z</time>
      </trkpt>
      <trkpt lat="43.010951" lon="-5.7741618">
        <ele>1025.97</ele>
        <time>2020-07-21T12:55:34.000Z</time>
      </trkpt>
      <trkpt lat="43.0109455" lon="-5.7741803">
        <ele>1025.97</ele>
        <time>2020-07-21T12:55:35.000Z</time>
      </trkpt>
      <trkpt lat="43.0109442" lon="-5.7741993">
        <ele>1025.82</ele>
        <time>2020-07-21T12:55:36.000Z</time>
      </trkpt>
      <trkpt lat="43.0109448" lon="-5.7742152">
        <ele>1025.82</ele>
        <time>2020-07-21T12:55:37.000Z</time>
      </trkpt>
      <trkpt lat="43.010947" lon="-5.7742285">
        <ele>1025.66</ele>
        <time>2020-07-21T12:55:38.000Z</time>
      </trkpt>
      <trkpt lat="43.0109485" lon="-5.7742333">
        <ele>1025.66</ele>
        <time>2020-07-21T12:55:39.000Z</time>
      </trkpt>
      <trkpt lat="43.0109485" lon="-5.7742348">
        <ele>1025.66</ele>
        <time>2020-07-21T12:55:40.000Z</time>
      </trkpt>
      <trkpt lat="43.0109493" lon="-5.774234">
        <ele>1025.66</ele>
        <time>2020-07-21T12:55:41.000Z</time>
      </trkpt>
      <trkpt lat="43.0109505" lon="-5.7742357">
        <ele>1025.51</ele>
        <time>2020-07-21T12:55:42.000Z</time>
      </trkpt>
      <trkpt lat="43.0109517" lon="-5.7742372">
        <ele>1025.51</ele>
        <time>2020-07-21T12:55:43.000Z</time>
      </trkpt>
      <trkpt lat="43.0109522" lon="-5.7742385">
        <ele>1025.36</ele>
        <time>2020-07-21T12:55:44.000Z</time>
      </trkpt>
      <trkpt lat="43.0109522" lon="-5.7742392">
        <ele>1025.36</ele>
        <time>2020-07-21T12:55:45.000Z</time>
      </trkpt>
      <trkpt lat="43.010952" lon="-5.7742395">
        <ele>1025.36</ele>
        <time>2020-07-21T12:55:46.000Z</time>
      </trkpt>
      <trkpt lat="43.0109517" lon="-5.7742398">
        <ele>1025.36</ele>
        <time>2020-07-21T12:55:47.000Z</time>
      </trkpt>
      <trkpt lat="43.0109515" lon="-5.7742403">
        <ele>1025.21</ele>
        <time>2020-07-21T12:55:48.000Z</time>
      </trkpt>
      <trkpt lat="43.0109515" lon="-5.7742405">
        <ele>1025.21</ele>
        <time>2020-07-21T12:55:49.000Z</time>
      </trkpt>
      <trkpt lat="43.0109515" lon="-5.7742402">
        <ele>1025.06</ele>
        <time>2020-07-21T12:55:50.000Z</time>
      </trkpt>
      <trkpt lat="43.010951" lon="-5.7742393">
        <ele>1025.06</ele>
        <time>2020-07-21T12:55:51.000Z</time>
      </trkpt>
      <trkpt lat="43.0109502" lon="-5.7742382">
        <ele>1024.9</ele>
        <time>2020-07-21T12:55:52.000Z</time>
      </trkpt>
      <trkpt lat="43.0109495" lon="-5.7742378">
        <ele>1024.9</ele>
        <time>2020-07-21T12:55:53.000Z</time>
      </trkpt>
      <trkpt lat="43.0109498" lon="-5.7742382">
        <ele>1024.75</ele>
        <time>2020-07-21T12:55:54.000Z</time>
      </trkpt>
      <trkpt lat="43.0109502" lon="-5.774239">
        <ele>1024.75</ele>
        <time>2020-07-21T12:55:55.000Z</time>
      </trkpt>
      <trkpt lat="43.0109502" lon="-5.7742397">
        <ele>1024.6</ele>
        <time>2020-07-21T12:55:56.000Z</time>
      </trkpt>
      <trkpt lat="43.0109493" lon="-5.7742415">
        <ele>1024.6</ele>
        <time>2020-07-21T12:55:57.000Z</time>
      </trkpt>
      <trkpt lat="43.0109498" lon="-5.7742457">
        <ele>1024.44</ele>
        <time>2020-07-21T12:55:58.000Z</time>
      </trkpt>
      <trkpt lat="43.0109505" lon="-5.774252">
        <ele>1024.44</ele>
        <time>2020-07-21T12:55:59.000Z</time>
      </trkpt>
      <trkpt lat="43.0109558" lon="-5.774265">
        <ele>1024.29</ele>
        <time>2020-07-21T12:56:00.000Z</time>
      </trkpt>
      <trkpt lat="43.0109605" lon="-5.7742802">
        <ele>1024.29</ele>
        <time>2020-07-21T12:56:01.000Z</time>
      </trkpt>
      <trkpt lat="43.0109657" lon="-5.7742972">
        <ele>1024.14</ele>
        <time>2020-07-21T12:56:02.000Z</time>
      </trkpt>
      <trkpt lat="43.0109685" lon="-5.7743107">
        <ele>1024.14</ele>
        <time>2020-07-21T12:56:03.000Z</time>
      </trkpt>
      <trkpt lat="43.0109717" lon="-5.7743228">
        <ele>1023.99</ele>
        <time>2020-07-21T12:56:04.000Z</time>
      </trkpt>
      <trkpt lat="43.0109755" lon="-5.7743348">
        <ele>1023.99</ele>
        <time>2020-07-21T12:56:05.000Z</time>
      </trkpt>
      <trkpt lat="43.0109777" lon="-5.7743448">
        <ele>1023.84</ele>
        <time>2020-07-21T12:56:06.000Z</time>
      </trkpt>
      <trkpt lat="43.0109805" lon="-5.7743563">
        <ele>1023.84</ele>
        <time>2020-07-21T12:56:07.000Z</time>
      </trkpt>
      <trkpt lat="43.010983" lon="-5.7743687">
        <ele>1023.68</ele>
        <time>2020-07-21T12:56:08.000Z</time>
      </trkpt>
      <trkpt lat="43.0109863" lon="-5.7743833">
        <ele>1023.68</ele>
        <time>2020-07-21T12:56:09.000Z</time>
      </trkpt>
      <trkpt lat="43.0109887" lon="-5.7743928">
        <ele>1023.53</ele>
        <time>2020-07-21T12:56:10.000Z</time>
      </trkpt>
      <trkpt lat="43.010989" lon="-5.7743992">
        <ele>1023.53</ele>
        <time>2020-07-21T12:56:11.000Z</time>
      </trkpt>
      <trkpt lat="43.0109882" lon="-5.774401">
        <ele>1023.38</ele>
        <time>2020-07-21T12:56:12.000Z</time>
      </trkpt>
      <trkpt lat="43.0109873" lon="-5.7744028">
        <ele>1023.38</ele>
        <time>2020-07-21T12:56:13.000Z</time>
      </trkpt>
      <trkpt lat="43.0109872" lon="-5.7744028">
        <ele>1023.23</ele>
        <time>2020-07-21T12:56:14.000Z</time>
      </trkpt>
      <trkpt lat="43.0109867" lon="-5.7744055">
        <ele>1023.23</ele>
        <time>2020-07-21T12:56:15.000Z</time>
      </trkpt>
      <trkpt lat="43.0109853" lon="-5.7744085">
        <ele>1023.07</ele>
        <time>2020-07-21T12:56:16.000Z</time>
      </trkpt>
      <trkpt lat="43.010985" lon="-5.7744135">
        <ele>1023.07</ele>
        <time>2020-07-21T12:56:17.000Z</time>
      </trkpt>
      <trkpt lat="43.0109865" lon="-5.7744205">
        <ele>1022.92</ele>
        <time>2020-07-21T12:56:18.000Z</time>
      </trkpt>
      <trkpt lat="43.0109897" lon="-5.7744322">
        <ele>1022.92</ele>
        <time>2020-07-21T12:56:19.000Z</time>
      </trkpt>
      <trkpt lat="43.010993" lon="-5.774447">
        <ele>1022.77</ele>
        <time>2020-07-21T12:56:20.000Z</time>
      </trkpt>
      <trkpt lat="43.0109968" lon="-5.7744612">
        <ele>1022.77</ele>
        <time>2020-07-21T12:56:21.000Z</time>
      </trkpt>
      <trkpt lat="43.0110015" lon="-5.7744757">
        <ele>1022.62</ele>
        <time>2020-07-21T12:56:22.000Z</time>
      </trkpt>
      <trkpt lat="43.0110068" lon="-5.7744902">
        <ele>1022.62</ele>
        <time>2020-07-21T12:56:23.000Z</time>
      </trkpt>
      <trkpt lat="43.0110135" lon="-5.7745045">
        <ele>1022.46</ele>
        <time>2020-07-21T12:56:24.000Z</time>
      </trkpt>
      <trkpt lat="43.0110207" lon="-5.7745182">
        <ele>1022.46</ele>
        <time>2020-07-21T12:56:25.000Z</time>
      </trkpt>
      <trkpt lat="43.0110283" lon="-5.7745313">
        <ele>1022.16</ele>
        <time>2020-07-21T12:56:26.000Z</time>
      </trkpt>
      <trkpt lat="43.0110357" lon="-5.7745443">
        <ele>1022.16</ele>
        <time>2020-07-21T12:56:27.000Z</time>
      </trkpt>
      <trkpt lat="43.0110432" lon="-5.774557">
        <ele>1022.01</ele>
        <time>2020-07-21T12:56:28.000Z</time>
      </trkpt>
      <trkpt lat="43.0110517" lon="-5.774571">
        <ele>1022.01</ele>
        <time>2020-07-21T12:56:29.000Z</time>
      </trkpt>
      <trkpt lat="43.0110607" lon="-5.7745847">
        <ele>1021.85</ele>
        <time>2020-07-21T12:56:30.000Z</time>
      </trkpt>
      <trkpt lat="43.0110692" lon="-5.7745972">
        <ele>1021.85</ele>
        <time>2020-07-21T12:56:31.000Z</time>
      </trkpt>
      <trkpt lat="43.0110775" lon="-5.7746083">
        <ele>1021.7</ele>
        <time>2020-07-21T12:56:32.000Z</time>
      </trkpt>
      <trkpt lat="43.0110855" lon="-5.7746193">
        <ele>1021.7</ele>
        <time>2020-07-21T12:56:33.000Z</time>
      </trkpt>
      <trkpt lat="43.0110933" lon="-5.7746305">
        <ele>1021.4</ele>
        <time>2020-07-21T12:56:34.000Z</time>
      </trkpt>
      <trkpt lat="43.0111007" lon="-5.7746408">
        <ele>1021.4</ele>
        <time>2020-07-21T12:56:35.000Z</time>
      </trkpt>
      <trkpt lat="43.0111075" lon="-5.7746515">
        <ele>1021.24</ele>
        <time>2020-07-21T12:56:36.000Z</time>
      </trkpt>
      <trkpt lat="43.0111133" lon="-5.774664">
        <ele>1021.24</ele>
        <time>2020-07-21T12:56:37.000Z</time>
      </trkpt>
      <trkpt lat="43.0111185" lon="-5.7746787">
        <ele>1020.94</ele>
        <time>2020-07-21T12:56:38.000Z</time>
      </trkpt>
      <trkpt lat="43.0111238" lon="-5.7746933">
        <ele>1020.94</ele>
        <time>2020-07-21T12:56:39.000Z</time>
      </trkpt>
      <trkpt lat="43.01113" lon="-5.7747072">
        <ele>1020.64</ele>
        <time>2020-07-21T12:56:40.000Z</time>
      </trkpt>
      <trkpt lat="43.0111368" lon="-5.7747185">
        <ele>1020.64</ele>
        <time>2020-07-21T12:56:41.000Z</time>
      </trkpt>
      <trkpt lat="43.0111458" lon="-5.7747315">
        <ele>1020.33</ele>
        <time>2020-07-21T12:56:42.000Z</time>
      </trkpt>
      <trkpt lat="43.0111583" lon="-5.7747472">
        <ele>1020.33</ele>
        <time>2020-07-21T12:56:43.000Z</time>
      </trkpt>
      <trkpt lat="43.0111713" lon="-5.7747642">
        <ele>1020.03</ele>
        <time>2020-07-21T12:56:44.000Z</time>
      </trkpt>
      <trkpt lat="43.0111843" lon="-5.7747795">
        <ele>1020.03</ele>
        <time>2020-07-21T12:56:45.000Z</time>
      </trkpt>
      <trkpt lat="43.0111953" lon="-5.7747928">
        <ele>1019.72</ele>
        <time>2020-07-21T12:56:46.000Z</time>
      </trkpt>
      <trkpt lat="43.0112063" lon="-5.7748048">
        <ele>1019.72</ele>
        <time>2020-07-21T12:56:47.000Z</time>
      </trkpt>
      <trkpt lat="43.0112163" lon="-5.774816">
        <ele>1019.42</ele>
        <time>2020-07-21T12:56:48.000Z</time>
      </trkpt>
      <trkpt lat="43.0112277" lon="-5.7748237">
        <ele>1019.42</ele>
        <time>2020-07-21T12:56:49.000Z</time>
      </trkpt>
      <trkpt lat="43.0112402" lon="-5.7748315">
        <ele>1019.11</ele>
        <time>2020-07-21T12:56:50.000Z</time>
      </trkpt>
      <trkpt lat="43.0112537" lon="-5.7748387">
        <ele>1019.11</ele>
        <time>2020-07-21T12:56:51.000Z</time>
      </trkpt>
      <trkpt lat="43.0112658" lon="-5.7748468">
        <ele>1018.81</ele>
        <time>2020-07-21T12:56:52.000Z</time>
      </trkpt>
      <trkpt lat="43.0112763" lon="-5.7748552">
        <ele>1018.81</ele>
        <time>2020-07-21T12:56:53.000Z</time>
      </trkpt>
      <trkpt lat="43.0112857" lon="-5.7748642">
        <ele>1018.5</ele>
        <time>2020-07-21T12:56:54.000Z</time>
      </trkpt>
      <trkpt lat="43.0112932" lon="-5.774875">
        <ele>1018.5</ele>
        <time>2020-07-21T12:56:55.000Z</time>
      </trkpt>
      <trkpt lat="43.0112993" lon="-5.774885">
        <ele>1018.2</ele>
        <time>2020-07-21T12:56:56.000Z</time>
      </trkpt>
      <trkpt lat="43.011304" lon="-5.7748953">
        <ele>1018.2</ele>
        <time>2020-07-21T12:56:57.000Z</time>
      </trkpt>
      <trkpt lat="43.0113083" lon="-5.7749052">
        <ele>1017.89</ele>
        <time>2020-07-21T12:56:58.000Z</time>
      </trkpt>
      <trkpt lat="43.011313" lon="-5.7749172">
        <ele>1017.89</ele>
        <time>2020-07-21T12:56:59.000Z</time>
      </trkpt>
      <trkpt lat="43.0113182" lon="-5.77493">
        <ele>1017.59</ele>
        <time>2020-07-21T12:57:00.000Z</time>
      </trkpt>
      <trkpt lat="43.0113248" lon="-5.7749438">
        <ele>1017.59</ele>
        <time>2020-07-21T12:57:01.000Z</time>
      </trkpt>
      <trkpt lat="43.0113327" lon="-5.7749573">
        <ele>1017.28</ele>
        <time>2020-07-21T12:57:02.000Z</time>
      </trkpt>
      <trkpt lat="43.011341" lon="-5.7749707">
        <ele>1017.28</ele>
        <time>2020-07-21T12:57:03.000Z</time>
      </trkpt>
      <trkpt lat="43.0113502" lon="-5.7749858">
        <ele>1017.13</ele>
        <time>2020-07-21T12:57:04.000Z</time>
      </trkpt>
      <trkpt lat="43.0113583" lon="-5.7750003">
        <ele>1017.13</ele>
        <time>2020-07-21T12:57:05.000Z</time>
      </trkpt>
      <trkpt lat="43.0113657" lon="-5.7750155">
        <ele>1016.83</ele>
        <time>2020-07-21T12:57:06.000Z</time>
      </trkpt>
      <trkpt lat="43.0113713" lon="-5.7750297">
        <ele>1016.83</ele>
        <time>2020-07-21T12:57:07.000Z</time>
      </trkpt>
      <trkpt lat="43.0113775" lon="-5.7750432">
        <ele>1016.67</ele>
        <time>2020-07-21T12:57:08.000Z</time>
      </trkpt>
      <trkpt lat="43.0113872" lon="-5.7750583">
        <ele>1016.67</ele>
        <time>2020-07-21T12:57:09.000Z</time>
      </trkpt>
      <trkpt lat="43.0113988" lon="-5.7750727">
        <ele>1016.52</ele>
        <time>2020-07-21T12:57:10.000Z</time>
      </trkpt>
      <trkpt lat="43.011411" lon="-5.7750868">
        <ele>1016.52</ele>
        <time>2020-07-21T12:57:11.000Z</time>
      </trkpt>
      <trkpt lat="43.0114228" lon="-5.7750995">
        <ele>1016.37</ele>
        <time>2020-07-21T12:57:12.000Z</time>
      </trkpt>
      <trkpt lat="43.0114347" lon="-5.775112">
        <ele>1016.37</ele>
        <time>2020-07-21T12:57:13.000Z</time>
      </trkpt>
      <trkpt lat="43.0114462" lon="-5.775125">
        <ele>1016.22</ele>
        <time>2020-07-21T12:57:14.000Z</time>
      </trkpt>
      <trkpt lat="43.0114552" lon="-5.7751363">
        <ele>1016.22</ele>
        <time>2020-07-21T12:57:15.000Z</time>
      </trkpt>
      <trkpt lat="43.0114622" lon="-5.7751467">
        <ele>1016.06</ele>
        <time>2020-07-21T12:57:16.000Z</time>
      </trkpt>
      <trkpt lat="43.0114698" lon="-5.7751595">
        <ele>1016.06</ele>
        <time>2020-07-21T12:57:17.000Z</time>
      </trkpt>
      <trkpt lat="43.011477" lon="-5.775177">
        <ele>1015.91</ele>
        <time>2020-07-21T12:57:18.000Z</time>
      </trkpt>
      <trkpt lat="43.011485" lon="-5.7751953">
        <ele>1015.91</ele>
        <time>2020-07-21T12:57:19.000Z</time>
      </trkpt>
      <trkpt lat="43.0114915" lon="-5.7752113">
        <ele>1015.76</ele>
        <time>2020-07-21T12:57:20.000Z</time>
      </trkpt>
      <trkpt lat="43.0114982" lon="-5.7752252">
        <ele>1015.76</ele>
        <time>2020-07-21T12:57:21.000Z</time>
      </trkpt>
      <trkpt lat="43.011504" lon="-5.7752383">
        <ele>1015.76</ele>
        <time>2020-07-21T12:57:22.000Z</time>
      </trkpt>
      <trkpt lat="43.0115105" lon="-5.7752505">
        <ele>1015.76</ele>
        <time>2020-07-21T12:57:23.000Z</time>
      </trkpt>
      <trkpt lat="43.011517" lon="-5.7752612">
        <ele>1015.61</ele>
        <time>2020-07-21T12:57:24.000Z</time>
      </trkpt>
      <trkpt lat="43.0115247" lon="-5.7752723">
        <ele>1015.61</ele>
        <time>2020-07-21T12:57:25.000Z</time>
      </trkpt>
      <trkpt lat="43.0115325" lon="-5.7752848">
        <ele>1015.45</ele>
        <time>2020-07-21T12:57:26.000Z</time>
      </trkpt>
      <trkpt lat="43.0115405" lon="-5.7752962">
        <ele>1015.45</ele>
        <time>2020-07-21T12:57:27.000Z</time>
      </trkpt>
      <trkpt lat="43.011548" lon="-5.775308">
        <ele>1015.45</ele>
        <time>2020-07-21T12:57:28.000Z</time>
      </trkpt>
      <trkpt lat="43.011555" lon="-5.77532">
        <ele>1015.45</ele>
        <time>2020-07-21T12:57:29.000Z</time>
      </trkpt>
      <trkpt lat="43.0115627" lon="-5.7753338">
        <ele>1015.3</ele>
        <time>2020-07-21T12:57:30.000Z</time>
      </trkpt>
      <trkpt lat="43.0115707" lon="-5.7753473">
        <ele>1015.3</ele>
        <time>2020-07-21T12:57:31.000Z</time>
      </trkpt>
      <trkpt lat="43.0115777" lon="-5.7753615">
        <ele>1015.15</ele>
        <time>2020-07-21T12:57:32.000Z</time>
      </trkpt>
      <trkpt lat="43.0115833" lon="-5.775376">
        <ele>1015.15</ele>
        <time>2020-07-21T12:57:33.000Z</time>
      </trkpt>
      <trkpt lat="43.0115875" lon="-5.7753908">
        <ele>1015.15</ele>
        <time>2020-07-21T12:57:34.000Z</time>
      </trkpt>
      <trkpt lat="43.011591" lon="-5.7754058">
        <ele>1015.15</ele>
        <time>2020-07-21T12:57:35.000Z</time>
      </trkpt>
      <trkpt lat="43.0115947" lon="-5.775421">
        <ele>1015</ele>
        <time>2020-07-21T12:57:36.000Z</time>
      </trkpt>
      <trkpt lat="43.0115992" lon="-5.7754358">
        <ele>1015</ele>
        <time>2020-07-21T12:57:37.000Z</time>
      </trkpt>
      <trkpt lat="43.0116047" lon="-5.7754495">
        <ele>1014.84</ele>
        <time>2020-07-21T12:57:38.000Z</time>
      </trkpt>
      <trkpt lat="43.0116132" lon="-5.775461">
        <ele>1014.84</ele>
        <time>2020-07-21T12:57:39.000Z</time>
      </trkpt>
      <trkpt lat="43.0116242" lon="-5.7754717">
        <ele>1014.84</ele>
        <time>2020-07-21T12:57:40.000Z</time>
      </trkpt>
      <trkpt lat="43.0116363" lon="-5.775481">
        <ele>1014.84</ele>
        <time>2020-07-21T12:57:41.000Z</time>
      </trkpt>
      <trkpt lat="43.0116467" lon="-5.7754885">
        <ele>1014.69</ele>
        <time>2020-07-21T12:57:42.000Z</time>
      </trkpt>
      <trkpt lat="43.0116557" lon="-5.7754928">
        <ele>1014.69</ele>
        <time>2020-07-21T12:57:43.000Z</time>
      </trkpt>
      <trkpt lat="43.0116645" lon="-5.7754947">
        <ele>1014.54</ele>
        <time>2020-07-21T12:57:44.000Z</time>
      </trkpt>
      <trkpt lat="43.0116737" lon="-5.7754967">
        <ele>1014.54</ele>
        <time>2020-07-21T12:57:45.000Z</time>
      </trkpt>
      <trkpt lat="43.0116832" lon="-5.7754983">
        <ele>1014.39</ele>
        <time>2020-07-21T12:57:46.000Z</time>
      </trkpt>
      <trkpt lat="43.0116923" lon="-5.7755013">
        <ele>1014.39</ele>
        <time>2020-07-21T12:57:47.000Z</time>
      </trkpt>
      <trkpt lat="43.0117003" lon="-5.7755035">
        <ele>1014.39</ele>
        <time>2020-07-21T12:57:48.000Z</time>
      </trkpt>
      <trkpt lat="43.011708" lon="-5.7755047">
        <ele>1014.39</ele>
        <time>2020-07-21T12:57:49.000Z</time>
      </trkpt>
      <trkpt lat="43.0117155" lon="-5.7755042">
        <ele>1014.23</ele>
        <time>2020-07-21T12:57:50.000Z</time>
      </trkpt>
      <trkpt lat="43.0117243" lon="-5.7755033">
        <ele>1014.23</ele>
        <time>2020-07-21T12:57:51.000Z</time>
      </trkpt>
      <trkpt lat="43.0117353" lon="-5.7755033">
        <ele>1014.08</ele>
        <time>2020-07-21T12:57:52.000Z</time>
      </trkpt>
      <trkpt lat="43.0117475" lon="-5.7755028">
        <ele>1014.08</ele>
        <time>2020-07-21T12:57:53.000Z</time>
      </trkpt>
      <trkpt lat="43.0117608" lon="-5.775502">
        <ele>1014.08</ele>
        <time>2020-07-21T12:57:54.000Z</time>
      </trkpt>
      <trkpt lat="43.0117725" lon="-5.775501">
        <ele>1014.08</ele>
        <time>2020-07-21T12:57:55.000Z</time>
      </trkpt>
      <trkpt lat="43.011785" lon="-5.7755007">
        <ele>1013.93</ele>
        <time>2020-07-21T12:57:56.000Z</time>
      </trkpt>
      <trkpt lat="43.0117967" lon="-5.775501">
        <ele>1013.93</ele>
        <time>2020-07-21T12:57:57.000Z</time>
      </trkpt>
      <trkpt lat="43.0118088" lon="-5.7755018">
        <ele>1013.93</ele>
        <time>2020-07-21T12:57:58.000Z</time>
      </trkpt>
      <trkpt lat="43.0118198" lon="-5.7755022">
        <ele>1013.93</ele>
        <time>2020-07-21T12:57:59.000Z</time>
      </trkpt>
      <trkpt lat="43.0118317" lon="-5.7755025">
        <ele>1013.78</ele>
        <time>2020-07-21T12:58:00.000Z</time>
      </trkpt>
      <trkpt lat="43.0118432" lon="-5.7755023">
        <ele>1013.78</ele>
        <time>2020-07-21T12:58:01.000Z</time>
      </trkpt>
      <trkpt lat="43.0118558" lon="-5.7755015">
        <ele>1013.78</ele>
        <time>2020-07-21T12:58:02.000Z</time>
      </trkpt>
      <trkpt lat="43.0118693" lon="-5.7755003">
        <ele>1013.78</ele>
        <time>2020-07-21T12:58:03.000Z</time>
      </trkpt>
      <trkpt lat="43.0118835" lon="-5.775499">
        <ele>1013.62</ele>
        <time>2020-07-21T12:58:04.000Z</time>
      </trkpt>
      <trkpt lat="43.011899" lon="-5.775498">
        <ele>1013.62</ele>
        <time>2020-07-21T12:58:05.000Z</time>
      </trkpt>
      <trkpt lat="43.0119117" lon="-5.7754972">
        <ele>1013.62</ele>
        <time>2020-07-21T12:58:06.000Z</time>
      </trkpt>
      <trkpt lat="43.0119215" lon="-5.7754962">
        <ele>1013.62</ele>
        <time>2020-07-21T12:58:07.000Z</time>
      </trkpt>
      <trkpt lat="43.0119293" lon="-5.7754958">
        <ele>1013.47</ele>
        <time>2020-07-21T12:58:08.000Z</time>
      </trkpt>
      <trkpt lat="43.0119385" lon="-5.7754958">
        <ele>1013.47</ele>
        <time>2020-07-21T12:58:09.000Z</time>
      </trkpt>
      <trkpt lat="43.0119512" lon="-5.7754975">
        <ele>1013.32</ele>
        <time>2020-07-21T12:58:10.000Z</time>
      </trkpt>
      <trkpt lat="43.0119642" lon="-5.7755003">
        <ele>1013.32</ele>
        <time>2020-07-21T12:58:11.000Z</time>
      </trkpt>
      <trkpt lat="43.0119772" lon="-5.775505">
        <ele>1013.32</ele>
        <time>2020-07-21T12:58:12.000Z</time>
      </trkpt>
      <trkpt lat="43.0119882" lon="-5.7755093">
        <ele>1013.32</ele>
        <time>2020-07-21T12:58:13.000Z</time>
      </trkpt>
      <trkpt lat="43.0119993" lon="-5.7755148">
        <ele>1013.17</ele>
        <time>2020-07-21T12:58:14.000Z</time>
      </trkpt>
      <trkpt lat="43.0120092" lon="-5.7755192">
        <ele>1013.17</ele>
        <time>2020-07-21T12:58:15.000Z</time>
      </trkpt>
      <trkpt lat="43.0120148" lon="-5.7755228">
        <ele>1013.17</ele>
        <time>2020-07-21T12:58:16.000Z</time>
      </trkpt>
      <trkpt lat="43.0120167" lon="-5.7755242">
        <ele>1013.17</ele>
        <time>2020-07-21T12:58:17.000Z</time>
      </trkpt>
      <trkpt lat="43.0120163" lon="-5.7755248">
        <ele>1013.02</ele>
        <time>2020-07-21T12:58:18.000Z</time>
      </trkpt>
      <trkpt lat="43.0120178" lon="-5.7755262">
        <ele>1013.02</ele>
        <time>2020-07-21T12:58:19.000Z</time>
      </trkpt>
      <trkpt lat="43.0120183" lon="-5.7755263">
        <ele>1013.02</ele>
        <time>2020-07-21T12:58:20.000Z</time>
      </trkpt>
      <trkpt lat="43.0120188" lon="-5.7755282">
        <ele>1013.02</ele>
        <time>2020-07-21T12:58:21.000Z</time>
      </trkpt>
      <trkpt lat="43.0120188" lon="-5.7755298">
        <ele>1012.86</ele>
        <time>2020-07-21T12:58:22.000Z</time>
      </trkpt>
      <trkpt lat="43.0120195" lon="-5.7755337">
        <ele>1012.86</ele>
        <time>2020-07-21T12:58:23.000Z</time>
      </trkpt>
      <trkpt lat="43.01202" lon="-5.7755362">
        <ele>1012.86</ele>
        <time>2020-07-21T12:58:24.000Z</time>
      </trkpt>
      <trkpt lat="43.012021" lon="-5.7755393">
        <ele>1012.86</ele>
        <time>2020-07-21T12:58:25.000Z</time>
      </trkpt>
      <trkpt lat="43.0120222" lon="-5.7755422">
        <ele>1012.71</ele>
        <time>2020-07-21T12:58:26.000Z</time>
      </trkpt>
      <trkpt lat="43.0120233" lon="-5.7755447">
        <ele>1012.71</ele>
        <time>2020-07-21T12:58:27.000Z</time>
      </trkpt>
      <trkpt lat="43.0120242" lon="-5.775546">
        <ele>1012.71</ele>
        <time>2020-07-21T12:58:28.000Z</time>
      </trkpt>
      <trkpt lat="43.0120245" lon="-5.775547">
        <ele>1012.71</ele>
        <time>2020-07-21T12:58:29.000Z</time>
      </trkpt>
      <trkpt lat="43.012025" lon="-5.7755483">
        <ele>1012.56</ele>
        <time>2020-07-21T12:58:30.000Z</time>
      </trkpt>
      <trkpt lat="43.0120253" lon="-5.7755503">
        <ele>1012.56</ele>
        <time>2020-07-21T12:58:31.000Z</time>
      </trkpt>
      <trkpt lat="43.0120257" lon="-5.775552">
        <ele>1012.56</ele>
        <time>2020-07-21T12:58:32.000Z</time>
      </trkpt>
      <trkpt lat="43.0120258" lon="-5.7755535">
        <ele>1012.56</ele>
        <time>2020-07-21T12:58:33.000Z</time>
      </trkpt>
      <trkpt lat="43.0120257" lon="-5.7755545">
        <ele>1012.41</ele>
        <time>2020-07-21T12:58:34.000Z</time>
      </trkpt>
      <trkpt lat="43.0120255" lon="-5.7755555">
        <ele>1012.41</ele>
        <time>2020-07-21T12:58:35.000Z</time>
      </trkpt>
      <trkpt lat="43.0120265" lon="-5.7755568">
        <ele>1012.25</ele>
        <time>2020-07-21T12:58:36.000Z</time>
      </trkpt>
      <trkpt lat="43.0120287" lon="-5.7755568">
        <ele>1012.25</ele>
        <time>2020-07-21T12:58:37.000Z</time>
      </trkpt>
      <trkpt lat="43.0120322" lon="-5.7755563">
        <ele>1012.1</ele>
        <time>2020-07-21T12:58:38.000Z</time>
      </trkpt>
      <trkpt lat="43.0120353" lon="-5.7755547">
        <ele>1012.1</ele>
        <time>2020-07-21T12:58:39.000Z</time>
      </trkpt>
      <trkpt lat="43.0120377" lon="-5.7755542">
        <ele>1011.95</ele>
        <time>2020-07-21T12:58:40.000Z</time>
      </trkpt>
      <trkpt lat="43.0120395" lon="-5.7755535">
        <ele>1011.95</ele>
        <time>2020-07-21T12:58:41.000Z</time>
      </trkpt>
      <trkpt lat="43.0120407" lon="-5.7755533">
        <ele>1011.8</ele>
        <time>2020-07-21T12:58:42.000Z</time>
      </trkpt>
      <trkpt lat="43.0120418" lon="-5.7755525">
        <ele>1011.8</ele>
        <time>2020-07-21T12:58:43.000Z</time>
      </trkpt>
      <trkpt lat="43.0120432" lon="-5.7755523">
        <ele>1011.64</ele>
        <time>2020-07-21T12:58:44.000Z</time>
      </trkpt>
      <trkpt lat="43.0120448" lon="-5.775552">
        <ele>1011.64</ele>
        <time>2020-07-21T12:58:45.000Z</time>
      </trkpt>
      <trkpt lat="43.0120465" lon="-5.775552">
        <ele>1011.49</ele>
        <time>2020-07-21T12:58:46.000Z</time>
      </trkpt>
      <trkpt lat="43.0120482" lon="-5.7755527">
        <ele>1011.49</ele>
        <time>2020-07-21T12:58:47.000Z</time>
      </trkpt>
      <trkpt lat="43.0120487" lon="-5.7755538">
        <ele>1011.34</ele>
        <time>2020-07-21T12:58:48.000Z</time>
      </trkpt>
      <trkpt lat="43.0120492" lon="-5.7755548">
        <ele>1011.34</ele>
        <time>2020-07-21T12:58:49.000Z</time>
      </trkpt>
      <trkpt lat="43.0120495" lon="-5.7755553">
        <ele>1011.19</ele>
        <time>2020-07-21T12:58:50.000Z</time>
      </trkpt>
      <trkpt lat="43.0120498" lon="-5.7755557">
        <ele>1011.19</ele>
        <time>2020-07-21T12:58:51.000Z</time>
      </trkpt>
      <trkpt lat="43.0120493" lon="-5.7755568">
        <ele>1011.03</ele>
        <time>2020-07-21T12:58:52.000Z</time>
      </trkpt>
      <trkpt lat="43.0120485" lon="-5.775558">
        <ele>1011.03</ele>
        <time>2020-07-21T12:58:53.000Z</time>
      </trkpt>
      <trkpt lat="43.0120482" lon="-5.7755588">
        <ele>1010.88</ele>
        <time>2020-07-21T12:58:54.000Z</time>
      </trkpt>
      <trkpt lat="43.012048" lon="-5.7755602">
        <ele>1010.88</ele>
        <time>2020-07-21T12:58:55.000Z</time>
      </trkpt>
      <trkpt lat="43.0120475" lon="-5.7755603">
        <ele>1010.73</ele>
        <time>2020-07-21T12:58:56.000Z</time>
      </trkpt>
      <trkpt lat="43.0120468" lon="-5.77556">
        <ele>1010.73</ele>
        <time>2020-07-21T12:58:57.000Z</time>
      </trkpt>
      <trkpt lat="43.012046" lon="-5.7755588">
        <ele>1010.58</ele>
        <time>2020-07-21T12:58:58.000Z</time>
      </trkpt>
      <trkpt lat="43.0120457" lon="-5.7755575">
        <ele>1010.58</ele>
        <time>2020-07-21T12:58:59.000Z</time>
      </trkpt>
      <trkpt lat="43.0120453" lon="-5.7755558">
        <ele>1010.58</ele>
        <time>2020-07-21T12:59:00.000Z</time>
      </trkpt>
      <trkpt lat="43.0120448" lon="-5.775554">
        <ele>1010.58</ele>
        <time>2020-07-21T12:59:01.000Z</time>
      </trkpt>
      <trkpt lat="43.0120443" lon="-5.7755528">
        <ele>1010.42</ele>
        <time>2020-07-21T12:59:02.000Z</time>
      </trkpt>
      <trkpt lat="43.012044" lon="-5.7755528">
        <ele>1010.42</ele>
        <time>2020-07-21T12:59:03.000Z</time>
      </trkpt>
      <trkpt lat="43.0120438" lon="-5.7755533">
        <ele>1010.42</ele>
        <time>2020-07-21T12:59:04.000Z</time>
      </trkpt>
      <trkpt lat="43.0120433" lon="-5.775554">
        <ele>1010.42</ele>
        <time>2020-07-21T12:59:05.000Z</time>
      </trkpt>
      <trkpt lat="43.0120428" lon="-5.775555">
        <ele>1010.42</ele>
        <time>2020-07-21T12:59:06.000Z</time>
      </trkpt>
      <trkpt lat="43.012042" lon="-5.7755563">
        <ele>1010.42</ele>
        <time>2020-07-21T12:59:07.000Z</time>
      </trkpt>
      <trkpt lat="43.0120417" lon="-5.775558">
        <ele>1010.42</ele>
        <time>2020-07-21T12:59:08.000Z</time>
      </trkpt>
      <trkpt lat="43.0120413" lon="-5.7755592">
        <ele>1010.42</ele>
        <time>2020-07-21T12:59:09.000Z</time>
      </trkpt>
      <trkpt lat="43.0120413" lon="-5.7755595">
        <ele>1010.27</ele>
        <time>2020-07-21T12:59:10.000Z</time>
      </trkpt>
      <trkpt lat="43.0120418" lon="-5.7755593">
        <ele>1010.27</ele>
        <time>2020-07-21T12:59:11.000Z</time>
      </trkpt>
      <trkpt lat="43.0120422" lon="-5.7755587">
        <ele>1010.27</ele>
        <time>2020-07-21T12:59:12.000Z</time>
      </trkpt>
      <trkpt lat="43.0120427" lon="-5.7755587">
        <ele>1010.27</ele>
        <time>2020-07-21T12:59:13.000Z</time>
      </trkpt>
      <trkpt lat="43.0120422" lon="-5.7755588">
        <ele>1010.12</ele>
        <time>2020-07-21T12:59:14.000Z</time>
      </trkpt>
      <trkpt lat="43.012042" lon="-5.7755595">
        <ele>1010.12</ele>
        <time>2020-07-21T12:59:15.000Z</time>
      </trkpt>
      <trkpt lat="43.0120417" lon="-5.775559">
        <ele>1010.12</ele>
        <time>2020-07-21T12:59:16.000Z</time>
      </trkpt>
      <trkpt lat="43.0120423" lon="-5.7755578">
        <ele>1010.12</ele>
        <time>2020-07-21T12:59:17.000Z</time>
      </trkpt>
      <trkpt lat="43.012043" lon="-5.7755577">
        <ele>1009.97</ele>
        <time>2020-07-21T12:59:18.000Z</time>
      </trkpt>
      <trkpt lat="43.0120433" lon="-5.7755588">
        <ele>1009.97</ele>
        <time>2020-07-21T12:59:19.000Z</time>
      </trkpt>
      <trkpt lat="43.0120442" lon="-5.7755603">
        <ele>1009.97</ele>
        <time>2020-07-21T12:59:20.000Z</time>
      </trkpt>
      <trkpt lat="43.0120453" lon="-5.77556">
        <ele>1009.97</ele>
        <time>2020-07-21T12:59:21.000Z</time>
      </trkpt>
      <trkpt lat="43.012048" lon="-5.775558">
        <ele>1009.82</ele>
        <time>2020-07-21T12:59:22.000Z</time>
      </trkpt>
      <trkpt lat="43.0120517" lon="-5.775556">
        <ele>1009.82</ele>
        <time>2020-07-21T12:59:23.000Z</time>
      </trkpt>
      <trkpt lat="43.0120575" lon="-5.7755572">
        <ele>1009.82</ele>
        <time>2020-07-21T12:59:24.000Z</time>
      </trkpt>
      <trkpt lat="43.0120658" lon="-5.7755623">
        <ele>1009.82</ele>
        <time>2020-07-21T12:59:25.000Z</time>
      </trkpt>
      <trkpt lat="43.0120758" lon="-5.7755688">
        <ele>1009.66</ele>
        <time>2020-07-21T12:59:26.000Z</time>
      </trkpt>
      <trkpt lat="43.0120872" lon="-5.7755733">
        <ele>1009.66</ele>
        <time>2020-07-21T12:59:27.000Z</time>
      </trkpt>
      <trkpt lat="43.012099" lon="-5.7755748">
        <ele>1009.51</ele>
        <time>2020-07-21T12:59:28.000Z</time>
      </trkpt>
      <trkpt lat="43.0121098" lon="-5.7755765">
        <ele>1009.51</ele>
        <time>2020-07-21T12:59:29.000Z</time>
      </trkpt>
      <trkpt lat="43.0121202" lon="-5.7755792">
        <ele>1009.51</ele>
        <time>2020-07-21T12:59:30.000Z</time>
      </trkpt>
      <trkpt lat="43.0121295" lon="-5.7755837">
        <ele>1009.51</ele>
        <time>2020-07-21T12:59:31.000Z</time>
      </trkpt>
      <trkpt lat="43.0121393" lon="-5.7755883">
        <ele>1009.36</ele>
        <time>2020-07-21T12:59:32.000Z</time>
      </trkpt>
      <trkpt lat="43.0121478" lon="-5.7755927">
        <ele>1009.36</ele>
        <time>2020-07-21T12:59:33.000Z</time>
      </trkpt>
      <trkpt lat="43.0121558" lon="-5.7755968">
        <ele>1009.36</ele>
        <time>2020-07-21T12:59:34.000Z</time>
      </trkpt>
      <trkpt lat="43.0121638" lon="-5.7756012">
        <ele>1009.36</ele>
        <time>2020-07-21T12:59:35.000Z</time>
      </trkpt>
      <trkpt lat="43.0121728" lon="-5.7756075">
        <ele>1009.21</ele>
        <time>2020-07-21T12:59:36.000Z</time>
      </trkpt>
      <trkpt lat="43.0121843" lon="-5.7756138">
        <ele>1009.21</ele>
        <time>2020-07-21T12:59:37.000Z</time>
      </trkpt>
      <trkpt lat="43.0121968" lon="-5.775617">
        <ele>1009.05</ele>
        <time>2020-07-21T12:59:38.000Z</time>
      </trkpt>
      <trkpt lat="43.0122103" lon="-5.7756193">
        <ele>1009.05</ele>
        <time>2020-07-21T12:59:39.000Z</time>
      </trkpt>
      <trkpt lat="43.0122243" lon="-5.7756227">
        <ele>1008.9</ele>
        <time>2020-07-21T12:59:40.000Z</time>
      </trkpt>
      <trkpt lat="43.0122392" lon="-5.7756298">
        <ele>1008.9</ele>
        <time>2020-07-21T12:59:41.000Z</time>
      </trkpt>
      <trkpt lat="43.0122527" lon="-5.7756368">
        <ele>1008.75</ele>
        <time>2020-07-21T12:59:42.000Z</time>
      </trkpt>
      <trkpt lat="43.0122648" lon="-5.7756437">
        <ele>1008.75</ele>
        <time>2020-07-21T12:59:43.000Z</time>
      </trkpt>
      <trkpt lat="43.0122768" lon="-5.7756522">
        <ele>1008.59</ele>
        <time>2020-07-21T12:59:44.000Z</time>
      </trkpt>
      <trkpt lat="43.0122883" lon="-5.7756603">
        <ele>1008.59</ele>
        <time>2020-07-21T12:59:45.000Z</time>
      </trkpt>
      <trkpt lat="43.012301" lon="-5.775669">
        <ele>1008.44</ele>
        <time>2020-07-21T12:59:46.000Z</time>
      </trkpt>
      <trkpt lat="43.0123133" lon="-5.7756768">
        <ele>1008.44</ele>
        <time>2020-07-21T12:59:47.000Z</time>
      </trkpt>
      <trkpt lat="43.0123272" lon="-5.7756857">
        <ele>1008.29</ele>
        <time>2020-07-21T12:59:48.000Z</time>
      </trkpt>
      <trkpt lat="43.0123402" lon="-5.7756945">
        <ele>1008.29</ele>
        <time>2020-07-21T12:59:49.000Z</time>
      </trkpt>
      <trkpt lat="43.0123547" lon="-5.7757017">
        <ele>1008.14</ele>
        <time>2020-07-21T12:59:50.000Z</time>
      </trkpt>
      <trkpt lat="43.012369" lon="-5.7757078">
        <ele>1008.14</ele>
        <time>2020-07-21T12:59:51.000Z</time>
      </trkpt>
      <trkpt lat="43.0123842" lon="-5.7757147">
        <ele>1007.83</ele>
        <time>2020-07-21T12:59:52.000Z</time>
      </trkpt>
      <trkpt lat="43.0123983" lon="-5.7757262">
        <ele>1007.83</ele>
        <time>2020-07-21T12:59:53.000Z</time>
      </trkpt>
      <trkpt lat="43.012412" lon="-5.7757388">
        <ele>1007.68</ele>
        <time>2020-07-21T12:59:54.000Z</time>
      </trkpt>
      <trkpt lat="43.0124242" lon="-5.7757508">
        <ele>1007.68</ele>
        <time>2020-07-21T12:59:55.000Z</time>
      </trkpt>
      <trkpt lat="43.0124355" lon="-5.7757587">
        <ele>1007.53</ele>
        <time>2020-07-21T12:59:56.000Z</time>
      </trkpt>
      <trkpt lat="43.0124472" lon="-5.7757653">
        <ele>1007.53</ele>
        <time>2020-07-21T12:59:57.000Z</time>
      </trkpt>
      <trkpt lat="43.0124593" lon="-5.7757725">
        <ele>1007.22</ele>
        <time>2020-07-21T12:59:58.000Z</time>
      </trkpt>
      <trkpt lat="43.0124715" lon="-5.7757795">
        <ele>1007.22</ele>
        <time>2020-07-21T12:59:59.000Z</time>
      </trkpt>
      <trkpt lat="43.0124843" lon="-5.775786">
        <ele>1007.07</ele>
        <time>2020-07-21T13:00:00.000Z</time>
      </trkpt>
      <trkpt lat="43.0124987" lon="-5.775792">
        <ele>1007.07</ele>
        <time>2020-07-21T13:00:01.000Z</time>
      </trkpt>
      <trkpt lat="43.0125118" lon="-5.7757977">
        <ele>1006.77</ele>
        <time>2020-07-21T13:00:02.000Z</time>
      </trkpt>
      <trkpt lat="43.0125253" lon="-5.775806">
        <ele>1006.77</ele>
        <time>2020-07-21T13:00:03.000Z</time>
      </trkpt>
      <trkpt lat="43.0125373" lon="-5.7758145">
        <ele>1006.61</ele>
        <time>2020-07-21T13:00:04.000Z</time>
      </trkpt>
      <trkpt lat="43.0125513" lon="-5.775826">
        <ele>1006.61</ele>
        <time>2020-07-21T13:00:05.000Z</time>
      </trkpt>
      <trkpt lat="43.012565" lon="-5.7758362">
        <ele>1006.46</ele>
        <time>2020-07-21T13:00:06.000Z</time>
      </trkpt>
      <trkpt lat="43.012579" lon="-5.7758463">
        <ele>1006.46</ele>
        <time>2020-07-21T13:00:07.000Z</time>
      </trkpt>
      <trkpt lat="43.012593" lon="-5.7758533">
        <ele>1006.16</ele>
        <time>2020-07-21T13:00:08.000Z</time>
      </trkpt>
      <trkpt lat="43.0126068" lon="-5.7758597">
        <ele>1006.16</ele>
        <time>2020-07-21T13:00:09.000Z</time>
      </trkpt>
      <trkpt lat="43.0126228" lon="-5.775865">
        <ele>1005.85</ele>
        <time>2020-07-21T13:00:10.000Z</time>
      </trkpt>
      <trkpt lat="43.0126387" lon="-5.7758717">
        <ele>1005.85</ele>
        <time>2020-07-21T13:00:11.000Z</time>
      </trkpt>
      <trkpt lat="43.0126542" lon="-5.775878">
        <ele>1005.7</ele>
        <time>2020-07-21T13:00:12.000Z</time>
      </trkpt>
      <trkpt lat="43.0126675" lon="-5.7758848">
        <ele>1005.7</ele>
        <time>2020-07-21T13:00:13.000Z</time>
      </trkpt>
      <trkpt lat="43.0126803" lon="-5.775892">
        <ele>1005.4</ele>
        <time>2020-07-21T13:00:14.000Z</time>
      </trkpt>
      <trkpt lat="43.0126935" lon="-5.7759002">
        <ele>1005.4</ele>
        <time>2020-07-21T13:00:15.000Z</time>
      </trkpt>
      <trkpt lat="43.0127065" lon="-5.77591">
        <ele>1005.24</ele>
        <time>2020-07-21T13:00:16.000Z</time>
      </trkpt>
      <trkpt lat="43.0127197" lon="-5.7759195">
        <ele>1005.24</ele>
        <time>2020-07-21T13:00:17.000Z</time>
      </trkpt>
      <trkpt lat="43.0127332" lon="-5.7759287">
        <ele>1004.94</ele>
        <time>2020-07-21T13:00:18.000Z</time>
      </trkpt>
      <trkpt lat="43.0127473" lon="-5.7759367">
        <ele>1004.94</ele>
        <time>2020-07-21T13:00:19.000Z</time>
      </trkpt>
      <trkpt lat="43.0127617" lon="-5.7759452">
        <ele>1004.63</ele>
        <time>2020-07-21T13:00:20.000Z</time>
      </trkpt>
      <trkpt lat="43.0127757" lon="-5.7759543">
        <ele>1004.63</ele>
        <time>2020-07-21T13:00:21.000Z</time>
      </trkpt>
      <trkpt lat="43.012789" lon="-5.7759642">
        <ele>1004.33</ele>
        <time>2020-07-21T13:00:22.000Z</time>
      </trkpt>
      <trkpt lat="43.012801" lon="-5.7759737">
        <ele>1004.33</ele>
        <time>2020-07-21T13:00:23.000Z</time>
      </trkpt>
      <trkpt lat="43.0128125" lon="-5.7759827">
        <ele>1004.02</ele>
        <time>2020-07-21T13:00:24.000Z</time>
      </trkpt>
      <trkpt lat="43.0128245" lon="-5.7759925">
        <ele>1004.02</ele>
        <time>2020-07-21T13:00:25.000Z</time>
      </trkpt>
      <trkpt lat="43.0128378" lon="-5.7760025">
        <ele>1003.72</ele>
        <time>2020-07-21T13:00:26.000Z</time>
      </trkpt>
      <trkpt lat="43.012852" lon="-5.7760135">
        <ele>1003.72</ele>
        <time>2020-07-21T13:00:27.000Z</time>
      </trkpt>
      <trkpt lat="43.0128648" lon="-5.7760257">
        <ele>1003.26</ele>
        <time>2020-07-21T13:00:28.000Z</time>
      </trkpt>
      <trkpt lat="43.0128765" lon="-5.776037">
        <ele>1003.26</ele>
        <time>2020-07-21T13:00:29.000Z</time>
      </trkpt>
      <trkpt lat="43.0128867" lon="-5.7760477">
        <ele>1002.96</ele>
        <time>2020-07-21T13:00:30.000Z</time>
      </trkpt>
      <trkpt lat="43.0128972" lon="-5.776058">
        <ele>1002.96</ele>
        <time>2020-07-21T13:00:31.000Z</time>
      </trkpt>
      <trkpt lat="43.0129077" lon="-5.7760707">
        <ele>1002.5</ele>
        <time>2020-07-21T13:00:32.000Z</time>
      </trkpt>
      <trkpt lat="43.012918" lon="-5.7760837">
        <ele>1002.5</ele>
        <time>2020-07-21T13:00:33.000Z</time>
      </trkpt>
      <trkpt lat="43.0129282" lon="-5.7760962">
        <ele>1002.2</ele>
        <time>2020-07-21T13:00:34.000Z</time>
      </trkpt>
      <trkpt lat="43.012938" lon="-5.7761063">
        <ele>1002.2</ele>
        <time>2020-07-21T13:00:35.000Z</time>
      </trkpt>
      <trkpt lat="43.012947" lon="-5.7761167">
        <ele>1001.74</ele>
        <time>2020-07-21T13:00:36.000Z</time>
      </trkpt>
      <trkpt lat="43.012956" lon="-5.7761265">
        <ele>1001.74</ele>
        <time>2020-07-21T13:00:37.000Z</time>
      </trkpt>
      <trkpt lat="43.0129652" lon="-5.7761383">
        <ele>1001.28</ele>
        <time>2020-07-21T13:00:38.000Z</time>
      </trkpt>
      <trkpt lat="43.0129753" lon="-5.7761505">
        <ele>1001.28</ele>
        <time>2020-07-21T13:00:39.000Z</time>
      </trkpt>
      <trkpt lat="43.012985" lon="-5.7761623">
        <ele>1000.82</ele>
        <time>2020-07-21T13:00:40.000Z</time>
      </trkpt>
      <trkpt lat="43.0129953" lon="-5.7761738">
        <ele>1000.82</ele>
        <time>2020-07-21T13:00:41.000Z</time>
      </trkpt>
      <trkpt lat="43.013006" lon="-5.7761845">
        <ele>1000.52</ele>
        <time>2020-07-21T13:00:42.000Z</time>
      </trkpt>
      <trkpt lat="43.0130167" lon="-5.7761952">
        <ele>1000.52</ele>
        <time>2020-07-21T13:00:43.000Z</time>
      </trkpt>
      <trkpt lat="43.0130268" lon="-5.7762032">
        <ele>1000.06</ele>
        <time>2020-07-21T13:00:44.000Z</time>
      </trkpt>
      <trkpt lat="43.0130352" lon="-5.7762102">
        <ele>1000.06</ele>
        <time>2020-07-21T13:00:45.000Z</time>
      </trkpt>
      <trkpt lat="43.0130428" lon="-5.7762173">
        <ele>999.6</ele>
        <time>2020-07-21T13:00:46.000Z</time>
      </trkpt>
      <trkpt lat="43.0130505" lon="-5.7762267">
        <ele>999.6</ele>
        <time>2020-07-21T13:00:47.000Z</time>
      </trkpt>
      <trkpt lat="43.0130592" lon="-5.776236">
        <ele>999.3</ele>
        <time>2020-07-21T13:00:48.000Z</time>
      </trkpt>
      <trkpt lat="43.0130682" lon="-5.7762443">
        <ele>999.3</ele>
        <time>2020-07-21T13:00:49.000Z</time>
      </trkpt>
      <trkpt lat="43.0130762" lon="-5.7762522">
        <ele>998.84</ele>
        <time>2020-07-21T13:00:50.000Z</time>
      </trkpt>
      <trkpt lat="43.0130837" lon="-5.776262">
        <ele>998.84</ele>
        <time>2020-07-21T13:00:51.000Z</time>
      </trkpt>
      <trkpt lat="43.0130907" lon="-5.7762727">
        <ele>998.39</ele>
        <time>2020-07-21T13:00:52.000Z</time>
      </trkpt>
      <trkpt lat="43.0130973" lon="-5.776284">
        <ele>998.39</ele>
        <time>2020-07-21T13:00:53.000Z</time>
      </trkpt>
      <trkpt lat="43.0131037" lon="-5.7762955">
        <ele>998.08</ele>
        <time>2020-07-21T13:00:54.000Z</time>
      </trkpt>
      <trkpt lat="43.0131105" lon="-5.7763088">
        <ele>998.08</ele>
        <time>2020-07-21T13:00:55.000Z</time>
      </trkpt>
      <trkpt lat="43.0131187" lon="-5.7763227">
        <ele>997.62</ele>
        <time>2020-07-21T13:00:56.000Z</time>
      </trkpt>
      <trkpt lat="43.013128" lon="-5.7763372">
        <ele>997.62</ele>
        <time>2020-07-21T13:00:57.000Z</time>
      </trkpt>
      <trkpt lat="43.0131378" lon="-5.7763508">
        <ele>997.32</ele>
        <time>2020-07-21T13:00:58.000Z</time>
      </trkpt>
      <trkpt lat="43.0131472" lon="-5.7763633">
        <ele>997.32</ele>
        <time>2020-07-21T13:00:59.000Z</time>
      </trkpt>
      <trkpt lat="43.013156" lon="-5.7763725">
        <ele>996.86</ele>
        <time>2020-07-21T13:01:00.000Z</time>
      </trkpt>
      <trkpt lat="43.0131655" lon="-5.7763798">
        <ele>996.86</ele>
        <time>2020-07-21T13:01:01.000Z</time>
      </trkpt>
      <trkpt lat="43.0131753" lon="-5.7763852">
        <ele>996.56</ele>
        <time>2020-07-21T13:01:02.000Z</time>
      </trkpt>
      <trkpt lat="43.0131862" lon="-5.7763898">
        <ele>996.56</ele>
        <time>2020-07-21T13:01:03.000Z</time>
      </trkpt>
      <trkpt lat="43.0131975" lon="-5.7763917">
        <ele>996.25</ele>
        <time>2020-07-21T13:01:04.000Z</time>
      </trkpt>
      <trkpt lat="43.0132092" lon="-5.7763923">
        <ele>996.25</ele>
        <time>2020-07-21T13:01:05.000Z</time>
      </trkpt>
      <trkpt lat="43.0132213" lon="-5.7763922">
        <ele>995.79</ele>
        <time>2020-07-21T13:01:06.000Z</time>
      </trkpt>
      <trkpt lat="43.0132328" lon="-5.7763913">
        <ele>995.79</ele>
        <time>2020-07-21T13:01:07.000Z</time>
      </trkpt>
      <trkpt lat="43.0132437" lon="-5.7763882">
        <ele>995.49</ele>
        <time>2020-07-21T13:01:08.000Z</time>
      </trkpt>
      <trkpt lat="43.0132538" lon="-5.7763843">
        <ele>995.49</ele>
        <time>2020-07-21T13:01:09.000Z</time>
      </trkpt>
      <trkpt lat="43.0132632" lon="-5.7763802">
        <ele>995.18</ele>
        <time>2020-07-21T13:01:10.000Z</time>
      </trkpt>
      <trkpt lat="43.0132733" lon="-5.776378">
        <ele>995.18</ele>
        <time>2020-07-21T13:01:11.000Z</time>
      </trkpt>
      <trkpt lat="43.0132843" lon="-5.7763768">
        <ele>994.73</ele>
        <time>2020-07-21T13:01:12.000Z</time>
      </trkpt>
      <trkpt lat="43.0132958" lon="-5.776375">
        <ele>994.73</ele>
        <time>2020-07-21T13:01:13.000Z</time>
      </trkpt>
      <trkpt lat="43.0133063" lon="-5.7763718">
        <ele>994.42</ele>
        <time>2020-07-21T13:01:14.000Z</time>
      </trkpt>
      <trkpt lat="43.0133162" lon="-5.7763658">
        <ele>994.42</ele>
        <time>2020-07-21T13:01:15.000Z</time>
      </trkpt>
      <trkpt lat="43.0133252" lon="-5.7763613">
        <ele>993.97</ele>
        <time>2020-07-21T13:01:16.000Z</time>
      </trkpt>
      <trkpt lat="43.0133333" lon="-5.7763577">
        <ele>993.97</ele>
        <time>2020-07-21T13:01:17.000Z</time>
      </trkpt>
      <trkpt lat="43.0133422" lon="-5.7763543">
        <ele>993.66</ele>
        <time>2020-07-21T13:01:18.000Z</time>
      </trkpt>
      <trkpt lat="43.0133527" lon="-5.7763485">
        <ele>993.66</ele>
        <time>2020-07-21T13:01:19.000Z</time>
      </trkpt>
      <trkpt lat="43.0133635" lon="-5.776343">
        <ele>993.2</ele>
        <time>2020-07-21T13:01:20.000Z</time>
      </trkpt>
      <trkpt lat="43.0133728" lon="-5.7763382">
        <ele>993.2</ele>
        <time>2020-07-21T13:01:21.000Z</time>
      </trkpt>
      <trkpt lat="43.0133803" lon="-5.7763355">
        <ele>992.9</ele>
        <time>2020-07-21T13:01:22.000Z</time>
      </trkpt>
      <trkpt lat="43.0133883" lon="-5.776331">
        <ele>992.9</ele>
        <time>2020-07-21T13:01:23.000Z</time>
      </trkpt>
      <trkpt lat="43.0133947" lon="-5.7763248">
        <ele>992.44</ele>
        <time>2020-07-21T13:01:24.000Z</time>
      </trkpt>
      <trkpt lat="43.0134005" lon="-5.7763178">
        <ele>992.44</ele>
        <time>2020-07-21T13:01:25.000Z</time>
      </trkpt>
      <trkpt lat="43.0134075" lon="-5.7763082">
        <ele>992.14</ele>
        <time>2020-07-21T13:01:26.000Z</time>
      </trkpt>
      <trkpt lat="43.0134163" lon="-5.776299">
        <ele>992.14</ele>
        <time>2020-07-21T13:01:27.000Z</time>
      </trkpt>
      <trkpt lat="43.013425" lon="-5.7762883">
        <ele>991.68</ele>
        <time>2020-07-21T13:01:28.000Z</time>
      </trkpt>
      <trkpt lat="43.0134307" lon="-5.7762777">
        <ele>991.68</ele>
        <time>2020-07-21T13:01:29.000Z</time>
      </trkpt>
      <trkpt lat="43.013435" lon="-5.7762653">
        <ele>991.37</ele>
        <time>2020-07-21T13:01:30.000Z</time>
      </trkpt>
      <trkpt lat="43.0134417" lon="-5.7762497">
        <ele>991.37</ele>
        <time>2020-07-21T13:01:31.000Z</time>
      </trkpt>
      <trkpt lat="43.0134483" lon="-5.7762323">
        <ele>990.92</ele>
        <time>2020-07-21T13:01:32.000Z</time>
      </trkpt>
      <trkpt lat="43.0134557" lon="-5.7762135">
        <ele>990.92</ele>
        <time>2020-07-21T13:01:33.000Z</time>
      </trkpt>
      <trkpt lat="43.0134633" lon="-5.7761943">
        <ele>990.61</ele>
        <time>2020-07-21T13:01:34.000Z</time>
      </trkpt>
      <trkpt lat="43.0134722" lon="-5.776176">
        <ele>990.61</ele>
        <time>2020-07-21T13:01:35.000Z</time>
      </trkpt>
      <trkpt lat="43.0134795" lon="-5.7761575">
        <ele>990.16</ele>
        <time>2020-07-21T13:01:36.000Z</time>
      </trkpt>
      <trkpt lat="43.0134847" lon="-5.7761417">
        <ele>990.16</ele>
        <time>2020-07-21T13:01:37.000Z</time>
      </trkpt>
      <trkpt lat="43.0134887" lon="-5.7761243">
        <ele>989.85</ele>
        <time>2020-07-21T13:01:38.000Z</time>
      </trkpt>
      <trkpt lat="43.013492" lon="-5.7761055">
        <ele>989.85</ele>
        <time>2020-07-21T13:01:39.000Z</time>
      </trkpt>
      <trkpt lat="43.0134928" lon="-5.776084">
        <ele>989.54</ele>
        <time>2020-07-21T13:01:40.000Z</time>
      </trkpt>
      <trkpt lat="43.0134948" lon="-5.7760643">
        <ele>989.54</ele>
        <time>2020-07-21T13:01:41.000Z</time>
      </trkpt>
      <trkpt lat="43.0134982" lon="-5.776047">
        <ele>989.24</ele>
        <time>2020-07-21T13:01:42.000Z</time>
      </trkpt>
      <trkpt lat="43.0135045" lon="-5.7760295">
        <ele>989.24</ele>
        <time>2020-07-21T13:01:43.000Z</time>
      </trkpt>
      <trkpt lat="43.0135092" lon="-5.7760097">
        <ele>988.94</ele>
        <time>2020-07-21T13:01:44.000Z</time>
      </trkpt>
      <trkpt lat="43.0135142" lon="-5.7759892">
        <ele>988.94</ele>
        <time>2020-07-21T13:01:45.000Z</time>
      </trkpt>
      <trkpt lat="43.0135182" lon="-5.7759697">
        <ele>988.63</ele>
        <time>2020-07-21T13:01:46.000Z</time>
      </trkpt>
      <trkpt lat="43.0135238" lon="-5.7759532">
        <ele>988.63</ele>
        <time>2020-07-21T13:01:47.000Z</time>
      </trkpt>
      <trkpt lat="43.0135287" lon="-5.7759373">
        <ele>988.33</ele>
        <time>2020-07-21T13:01:48.000Z</time>
      </trkpt>
      <trkpt lat="43.013533" lon="-5.7759223">
        <ele>988.33</ele>
        <time>2020-07-21T13:01:49.000Z</time>
      </trkpt>
      <trkpt lat="43.0135358" lon="-5.7759068">
        <ele>988.02</ele>
        <time>2020-07-21T13:01:50.000Z</time>
      </trkpt>
      <trkpt lat="43.0135387" lon="-5.7758915">
        <ele>988.02</ele>
        <time>2020-07-21T13:01:51.000Z</time>
      </trkpt>
      <trkpt lat="43.0135425" lon="-5.7758753">
        <ele>987.72</ele>
        <time>2020-07-21T13:01:52.000Z</time>
      </trkpt>
      <trkpt lat="43.0135457" lon="-5.7758582">
        <ele>987.72</ele>
        <time>2020-07-21T13:01:53.000Z</time>
      </trkpt>
      <trkpt lat="43.0135473" lon="-5.7758408">
        <ele>987.41</ele>
        <time>2020-07-21T13:01:54.000Z</time>
      </trkpt>
      <trkpt lat="43.0135482" lon="-5.7758233">
        <ele>987.41</ele>
        <time>2020-07-21T13:01:55.000Z</time>
      </trkpt>
      <trkpt lat="43.0135497" lon="-5.775807">
        <ele>987.11</ele>
        <time>2020-07-21T13:01:56.000Z</time>
      </trkpt>
      <trkpt lat="43.0135538" lon="-5.7757925">
        <ele>987.11</ele>
        <time>2020-07-21T13:01:57.000Z</time>
      </trkpt>
      <trkpt lat="43.0135587" lon="-5.7757783">
        <ele>986.8</ele>
        <time>2020-07-21T13:01:58.000Z</time>
      </trkpt>
      <trkpt lat="43.013565" lon="-5.7757635">
        <ele>986.8</ele>
        <time>2020-07-21T13:01:59.000Z</time>
      </trkpt>
      <trkpt lat="43.0135713" lon="-5.7757472">
        <ele>986.65</ele>
        <time>2020-07-21T13:02:00.000Z</time>
      </trkpt>
      <trkpt lat="43.0135803" lon="-5.7757297">
        <ele>986.65</ele>
        <time>2020-07-21T13:02:01.000Z</time>
      </trkpt>
      <trkpt lat="43.0135895" lon="-5.7757117">
        <ele>986.34</ele>
        <time>2020-07-21T13:02:02.000Z</time>
      </trkpt>
      <trkpt lat="43.0135987" lon="-5.7756937">
        <ele>986.34</ele>
        <time>2020-07-21T13:02:03.000Z</time>
      </trkpt>
      <trkpt lat="43.0136038" lon="-5.7756743">
        <ele>986.04</ele>
        <time>2020-07-21T13:02:04.000Z</time>
      </trkpt>
      <trkpt lat="43.0136082" lon="-5.775655">
        <ele>986.04</ele>
        <time>2020-07-21T13:02:05.000Z</time>
      </trkpt>
      <trkpt lat="43.0136107" lon="-5.7756352">
        <ele>985.73</ele>
        <time>2020-07-21T13:02:06.000Z</time>
      </trkpt>
      <trkpt lat="43.0136152" lon="-5.7756168">
        <ele>985.73</ele>
        <time>2020-07-21T13:02:07.000Z</time>
      </trkpt>
      <trkpt lat="43.0136197" lon="-5.7755987">
        <ele>985.43</ele>
        <time>2020-07-21T13:02:08.000Z</time>
      </trkpt>
      <trkpt lat="43.0136242" lon="-5.7755822">
        <ele>985.43</ele>
        <time>2020-07-21T13:02:09.000Z</time>
      </trkpt>
      <trkpt lat="43.0136272" lon="-5.7755652">
        <ele>985.13</ele>
        <time>2020-07-21T13:02:10.000Z</time>
      </trkpt>
      <trkpt lat="43.0136327" lon="-5.7755468">
        <ele>985.13</ele>
        <time>2020-07-21T13:02:11.000Z</time>
      </trkpt>
      <trkpt lat="43.0136393" lon="-5.7755265">
        <ele>984.82</ele>
        <time>2020-07-21T13:02:12.000Z</time>
      </trkpt>
      <trkpt lat="43.0136468" lon="-5.7755063">
        <ele>984.82</ele>
        <time>2020-07-21T13:02:13.000Z</time>
      </trkpt>
      <trkpt lat="43.013652" lon="-5.7754862">
        <ele>984.52</ele>
        <time>2020-07-21T13:02:14.000Z</time>
      </trkpt>
      <trkpt lat="43.013656" lon="-5.7754675">
        <ele>984.52</ele>
        <time>2020-07-21T13:02:15.000Z</time>
      </trkpt>
      <trkpt lat="43.0136605" lon="-5.7754508">
        <ele>984.36</ele>
        <time>2020-07-21T13:02:16.000Z</time>
      </trkpt>
      <trkpt lat="43.013664" lon="-5.7754362">
        <ele>984.36</ele>
        <time>2020-07-21T13:02:17.000Z</time>
      </trkpt>
      <trkpt lat="43.0136663" lon="-5.7754208">
        <ele>984.06</ele>
        <time>2020-07-21T13:02:18.000Z</time>
      </trkpt>
      <trkpt lat="43.0136665" lon="-5.7754037">
        <ele>984.06</ele>
        <time>2020-07-21T13:02:19.000Z</time>
      </trkpt>
      <trkpt lat="43.0136677" lon="-5.7753852">
        <ele>983.75</ele>
        <time>2020-07-21T13:02:20.000Z</time>
      </trkpt>
      <trkpt lat="43.0136695" lon="-5.7753663">
        <ele>983.75</ele>
        <time>2020-07-21T13:02:21.000Z</time>
      </trkpt>
      <trkpt lat="43.0136733" lon="-5.7753487">
        <ele>983.45</ele>
        <time>2020-07-21T13:02:22.000Z</time>
      </trkpt>
      <trkpt lat="43.0136753" lon="-5.7753312">
        <ele>983.45</ele>
        <time>2020-07-21T13:02:23.000Z</time>
      </trkpt>
      <trkpt lat="43.0136773" lon="-5.7753137">
        <ele>983.14</ele>
        <time>2020-07-21T13:02:24.000Z</time>
      </trkpt>
      <trkpt lat="43.0136788" lon="-5.7752957">
        <ele>983.14</ele>
        <time>2020-07-21T13:02:25.000Z</time>
      </trkpt>
      <trkpt lat="43.0136812" lon="-5.7752767">
        <ele>982.84</ele>
        <time>2020-07-21T13:02:26.000Z</time>
      </trkpt>
      <trkpt lat="43.0136827" lon="-5.7752565">
        <ele>982.84</ele>
        <time>2020-07-21T13:02:27.000Z</time>
      </trkpt>
      <trkpt lat="43.013683" lon="-5.775237">
        <ele>982.69</ele>
        <time>2020-07-21T13:02:28.000Z</time>
      </trkpt>
      <trkpt lat="43.0136825" lon="-5.7752192">
        <ele>982.69</ele>
        <time>2020-07-21T13:02:29.000Z</time>
      </trkpt>
      <trkpt lat="43.0136822" lon="-5.7752022">
        <ele>982.38</ele>
        <time>2020-07-21T13:02:30.000Z</time>
      </trkpt>
      <trkpt lat="43.0136835" lon="-5.7751842">
        <ele>982.38</ele>
        <time>2020-07-21T13:02:31.000Z</time>
      </trkpt>
      <trkpt lat="43.0136852" lon="-5.7751655">
        <ele>982.08</ele>
        <time>2020-07-21T13:02:32.000Z</time>
      </trkpt>
      <trkpt lat="43.0136863" lon="-5.7751468">
        <ele>982.08</ele>
        <time>2020-07-21T13:02:33.000Z</time>
      </trkpt>
      <trkpt lat="43.013688" lon="-5.775128">
        <ele>981.77</ele>
        <time>2020-07-21T13:02:34.000Z</time>
      </trkpt>
      <trkpt lat="43.0136902" lon="-5.7751098">
        <ele>981.77</ele>
        <time>2020-07-21T13:02:35.000Z</time>
      </trkpt>
      <trkpt lat="43.013694" lon="-5.7750922">
        <ele>981.47</ele>
        <time>2020-07-21T13:02:36.000Z</time>
      </trkpt>
      <trkpt lat="43.0136957" lon="-5.7750748">
        <ele>981.47</ele>
        <time>2020-07-21T13:02:37.000Z</time>
      </trkpt>
      <trkpt lat="43.0136975" lon="-5.7750583">
        <ele>981.32</ele>
        <time>2020-07-21T13:02:38.000Z</time>
      </trkpt>
      <trkpt lat="43.0136993" lon="-5.7750405">
        <ele>981.32</ele>
        <time>2020-07-21T13:02:39.000Z</time>
      </trkpt>
      <trkpt lat="43.0137032" lon="-5.7750235">
        <ele>981.01</ele>
        <time>2020-07-21T13:02:40.000Z</time>
      </trkpt>
      <trkpt lat="43.0137077" lon="-5.7750055">
        <ele>981.01</ele>
        <time>2020-07-21T13:02:41.000Z</time>
      </trkpt>
      <trkpt lat="43.0137117" lon="-5.7749878">
        <ele>980.71</ele>
        <time>2020-07-21T13:02:42.000Z</time>
      </trkpt>
      <trkpt lat="43.0137152" lon="-5.77497">
        <ele>980.71</ele>
        <time>2020-07-21T13:02:43.000Z</time>
      </trkpt>
      <trkpt lat="43.0137177" lon="-5.7749515">
        <ele>980.4</ele>
        <time>2020-07-21T13:02:44.000Z</time>
      </trkpt>
      <trkpt lat="43.013721" lon="-5.7749332">
        <ele>980.4</ele>
        <time>2020-07-21T13:02:45.000Z</time>
      </trkpt>
      <trkpt lat="43.0137247" lon="-5.7749137">
        <ele>980.25</ele>
        <time>2020-07-21T13:02:46.000Z</time>
      </trkpt>
      <trkpt lat="43.0137282" lon="-5.7748947">
        <ele>980.25</ele>
        <time>2020-07-21T13:02:47.000Z</time>
      </trkpt>
      <trkpt lat="43.013732" lon="-5.7748755">
        <ele>979.94</ele>
        <time>2020-07-21T13:02:48.000Z</time>
      </trkpt>
      <trkpt lat="43.0137367" lon="-5.7748575">
        <ele>979.94</ele>
        <time>2020-07-21T13:02:49.000Z</time>
      </trkpt>
      <trkpt lat="43.0137428" lon="-5.7748405">
        <ele>979.64</ele>
        <time>2020-07-21T13:02:50.000Z</time>
      </trkpt>
      <trkpt lat="43.0137477" lon="-5.7748235">
        <ele>979.64</ele>
        <time>2020-07-21T13:02:51.000Z</time>
      </trkpt>
      <trkpt lat="43.0137527" lon="-5.7748072">
        <ele>979.49</ele>
        <time>2020-07-21T13:02:52.000Z</time>
      </trkpt>
      <trkpt lat="43.0137567" lon="-5.7747923">
        <ele>979.49</ele>
        <time>2020-07-21T13:02:53.000Z</time>
      </trkpt>
      <trkpt lat="43.0137613" lon="-5.7747785">
        <ele>979.18</ele>
        <time>2020-07-21T13:02:54.000Z</time>
      </trkpt>
      <trkpt lat="43.013764" lon="-5.7747632">
        <ele>979.18</ele>
        <time>2020-07-21T13:02:55.000Z</time>
      </trkpt>
      <trkpt lat="43.0137693" lon="-5.7747427">
        <ele>979.03</ele>
        <time>2020-07-21T13:02:56.000Z</time>
      </trkpt>
      <trkpt lat="43.0137727" lon="-5.7747205">
        <ele>979.03</ele>
        <time>2020-07-21T13:02:57.000Z</time>
      </trkpt>
      <trkpt lat="43.0137768" lon="-5.7746992">
        <ele>978.72</ele>
        <time>2020-07-21T13:02:58.000Z</time>
      </trkpt>
      <trkpt lat="43.013779" lon="-5.7746808">
        <ele>978.72</ele>
        <time>2020-07-21T13:02:59.000Z</time>
      </trkpt>
      <trkpt lat="43.0137833" lon="-5.7746632">
        <ele>978.57</ele>
        <time>2020-07-21T13:03:00.000Z</time>
      </trkpt>
      <trkpt lat="43.0137867" lon="-5.7746442">
        <ele>978.57</ele>
        <time>2020-07-21T13:03:01.000Z</time>
      </trkpt>
      <trkpt lat="43.0137887" lon="-5.7746255">
        <ele>978.27</ele>
        <time>2020-07-21T13:03:02.000Z</time>
      </trkpt>
      <trkpt lat="43.0137902" lon="-5.7746073">
        <ele>978.27</ele>
        <time>2020-07-21T13:03:03.000Z</time>
      </trkpt>
      <trkpt lat="43.0137943" lon="-5.7745912">
        <ele>978.11</ele>
        <time>2020-07-21T13:03:04.000Z</time>
      </trkpt>
      <trkpt lat="43.0137997" lon="-5.7745763">
        <ele>978.11</ele>
        <time>2020-07-21T13:03:05.000Z</time>
      </trkpt>
      <trkpt lat="43.0138058" lon="-5.7745618">
        <ele>977.81</ele>
        <time>2020-07-21T13:03:06.000Z</time>
      </trkpt>
      <trkpt lat="43.0138122" lon="-5.7745482">
        <ele>977.81</ele>
        <time>2020-07-21T13:03:07.000Z</time>
      </trkpt>
      <trkpt lat="43.0138193" lon="-5.7745345">
        <ele>977.66</ele>
        <time>2020-07-21T13:03:08.000Z</time>
      </trkpt>
      <trkpt lat="43.0138273" lon="-5.7745213">
        <ele>977.66</ele>
        <time>2020-07-21T13:03:09.000Z</time>
      </trkpt>
      <trkpt lat="43.0138353" lon="-5.7745068">
        <ele>977.35</ele>
        <time>2020-07-21T13:03:10.000Z</time>
      </trkpt>
      <trkpt lat="43.0138442" lon="-5.7744918">
        <ele>977.35</ele>
        <time>2020-07-21T13:03:11.000Z</time>
      </trkpt>
      <trkpt lat="43.0138525" lon="-5.7744767">
        <ele>977.2</ele>
        <time>2020-07-21T13:03:12.000Z</time>
      </trkpt>
      <trkpt lat="43.0138612" lon="-5.7744635">
        <ele>977.2</ele>
        <time>2020-07-21T13:03:13.000Z</time>
      </trkpt>
      <trkpt lat="43.0138697" lon="-5.774451">
        <ele>976.9</ele>
        <time>2020-07-21T13:03:14.000Z</time>
      </trkpt>
      <trkpt lat="43.0138788" lon="-5.7744385">
        <ele>976.9</ele>
        <time>2020-07-21T13:03:15.000Z</time>
      </trkpt>
      <trkpt lat="43.0138882" lon="-5.7744258">
        <ele>976.59</ele>
        <time>2020-07-21T13:03:16.000Z</time>
      </trkpt>
      <trkpt lat="43.0138985" lon="-5.7744138">
        <ele>976.59</ele>
        <time>2020-07-21T13:03:17.000Z</time>
      </trkpt>
      <trkpt lat="43.013909" lon="-5.7744047">
        <ele>976.44</ele>
        <time>2020-07-21T13:03:18.000Z</time>
      </trkpt>
      <trkpt lat="43.0139193" lon="-5.7743958">
        <ele>976.44</ele>
        <time>2020-07-21T13:03:19.000Z</time>
      </trkpt>
      <trkpt lat="43.0139285" lon="-5.7743865">
        <ele>976.13</ele>
        <time>2020-07-21T13:03:20.000Z</time>
      </trkpt>
      <trkpt lat="43.0139377" lon="-5.7743748">
        <ele>976.13</ele>
        <time>2020-07-21T13:03:21.000Z</time>
      </trkpt>
      <trkpt lat="43.0139458" lon="-5.7743622">
        <ele>975.98</ele>
        <time>2020-07-21T13:03:22.000Z</time>
      </trkpt>
      <trkpt lat="43.0139557" lon="-5.7743498">
        <ele>975.98</ele>
        <time>2020-07-21T13:03:23.000Z</time>
      </trkpt>
      <trkpt lat="43.0139658" lon="-5.7743382">
        <ele>975.68</ele>
        <time>2020-07-21T13:03:24.000Z</time>
      </trkpt>
      <trkpt lat="43.0139768" lon="-5.7743268">
        <ele>975.68</ele>
        <time>2020-07-21T13:03:25.000Z</time>
      </trkpt>
      <trkpt lat="43.0139867" lon="-5.774315">
        <ele>975.52</ele>
        <time>2020-07-21T13:03:26.000Z</time>
      </trkpt>
      <trkpt lat="43.0139953" lon="-5.774303">
        <ele>975.52</ele>
        <time>2020-07-21T13:03:27.000Z</time>
      </trkpt>
      <trkpt lat="43.0140037" lon="-5.7742915">
        <ele>975.37</ele>
        <time>2020-07-21T13:03:28.000Z</time>
      </trkpt>
      <trkpt lat="43.014012" lon="-5.7742795">
        <ele>975.37</ele>
        <time>2020-07-21T13:03:29.000Z</time>
      </trkpt>
      <trkpt lat="43.0140213" lon="-5.7742683">
        <ele>975.22</ele>
        <time>2020-07-21T13:03:30.000Z</time>
      </trkpt>
      <trkpt lat="43.0140322" lon="-5.7742575">
        <ele>975.22</ele>
        <time>2020-07-21T13:03:31.000Z</time>
      </trkpt>
      <trkpt lat="43.0140435" lon="-5.7742475">
        <ele>975.07</ele>
        <time>2020-07-21T13:03:32.000Z</time>
      </trkpt>
      <trkpt lat="43.014055" lon="-5.7742377">
        <ele>975.07</ele>
        <time>2020-07-21T13:03:33.000Z</time>
      </trkpt>
      <trkpt lat="43.0140665" lon="-5.7742285">
        <ele>974.91</ele>
        <time>2020-07-21T13:03:34.000Z</time>
      </trkpt>
      <trkpt lat="43.01408" lon="-5.7742203">
        <ele>974.91</ele>
        <time>2020-07-21T13:03:35.000Z</time>
      </trkpt>
      <trkpt lat="43.0140938" lon="-5.7742103">
        <ele>974.76</ele>
        <time>2020-07-21T13:03:36.000Z</time>
      </trkpt>
      <trkpt lat="43.014107" lon="-5.7741997">
        <ele>974.76</ele>
        <time>2020-07-21T13:03:37.000Z</time>
      </trkpt>
      <trkpt lat="43.0141177" lon="-5.7741873">
        <ele>974.61</ele>
        <time>2020-07-21T13:03:38.000Z</time>
      </trkpt>
      <trkpt lat="43.0141288" lon="-5.7741763">
        <ele>974.61</ele>
        <time>2020-07-21T13:03:39.000Z</time>
      </trkpt>
      <trkpt lat="43.0141393" lon="-5.7741655">
        <ele>974.61</ele>
        <time>2020-07-21T13:03:40.000Z</time>
      </trkpt>
      <trkpt lat="43.0141498" lon="-5.7741552">
        <ele>974.61</ele>
        <time>2020-07-21T13:03:41.000Z</time>
      </trkpt>
      <trkpt lat="43.0141595" lon="-5.7741465">
        <ele>974.46</ele>
        <time>2020-07-21T13:03:42.000Z</time>
      </trkpt>
      <trkpt lat="43.0141695" lon="-5.7741392">
        <ele>974.46</ele>
        <time>2020-07-21T13:03:43.000Z</time>
      </trkpt>
      <trkpt lat="43.0141812" lon="-5.7741323">
        <ele>974.46</ele>
        <time>2020-07-21T13:03:44.000Z</time>
      </trkpt>
      <trkpt lat="43.0141943" lon="-5.7741252">
        <ele>974.46</ele>
        <time>2020-07-21T13:03:45.000Z</time>
      </trkpt>
      <trkpt lat="43.0142077" lon="-5.7741182">
        <ele>974.46</ele>
        <time>2020-07-21T13:03:46.000Z</time>
      </trkpt>
      <trkpt lat="43.0142197" lon="-5.774111">
        <ele>974.46</ele>
        <time>2020-07-21T13:03:47.000Z</time>
      </trkpt>
      <trkpt lat="43.0142288" lon="-5.774104">
        <ele>974.3</ele>
        <time>2020-07-21T13:03:48.000Z</time>
      </trkpt>
      <trkpt lat="43.0142377" lon="-5.7740955">
        <ele>974.3</ele>
        <time>2020-07-21T13:03:49.000Z</time>
      </trkpt>
      <trkpt lat="43.0142465" lon="-5.7740877">
        <ele>974.3</ele>
        <time>2020-07-21T13:03:50.000Z</time>
      </trkpt>
      <trkpt lat="43.0142562" lon="-5.77408">
        <ele>974.3</ele>
        <time>2020-07-21T13:03:51.000Z</time>
      </trkpt>
      <trkpt lat="43.0142658" lon="-5.7740728">
        <ele>974.3</ele>
        <time>2020-07-21T13:03:52.000Z</time>
      </trkpt>
      <trkpt lat="43.0142767" lon="-5.7740642">
        <ele>974.3</ele>
        <time>2020-07-21T13:03:53.000Z</time>
      </trkpt>
      <trkpt lat="43.0142873" lon="-5.7740525">
        <ele>974.3</ele>
        <time>2020-07-21T13:03:54.000Z</time>
      </trkpt>
      <trkpt lat="43.0142968" lon="-5.7740395">
        <ele>974.3</ele>
        <time>2020-07-21T13:03:55.000Z</time>
      </trkpt>
      <trkpt lat="43.0143045" lon="-5.7740262">
        <ele>974.15</ele>
        <time>2020-07-21T13:03:56.000Z</time>
      </trkpt>
      <trkpt lat="43.0143123" lon="-5.7740138">
        <ele>974.15</ele>
        <time>2020-07-21T13:03:57.000Z</time>
      </trkpt>
      <trkpt lat="43.0143213" lon="-5.7740005">
        <ele>974.15</ele>
        <time>2020-07-21T13:03:58.000Z</time>
      </trkpt>
      <trkpt lat="43.014331" lon="-5.7739877">
        <ele>974.15</ele>
        <time>2020-07-21T13:03:59.000Z</time>
      </trkpt>
      <trkpt lat="43.0143428" lon="-5.7739747">
        <ele>974.15</ele>
        <time>2020-07-21T13:04:00.000Z</time>
      </trkpt>
      <trkpt lat="43.0143542" lon="-5.7739603">
        <ele>974.15</ele>
        <time>2020-07-21T13:04:01.000Z</time>
      </trkpt>
      <trkpt lat="43.0143638" lon="-5.7739433">
        <ele>974.15</ele>
        <time>2020-07-21T13:04:02.000Z</time>
      </trkpt>
      <trkpt lat="43.0143708" lon="-5.7739258">
        <ele>974.15</ele>
        <time>2020-07-21T13:04:03.000Z</time>
      </trkpt>
      <trkpt lat="43.0143773" lon="-5.7739098">
        <ele>974.15</ele>
        <time>2020-07-21T13:04:04.000Z</time>
      </trkpt>
      <trkpt lat="43.0143837" lon="-5.7738947">
        <ele>974.15</ele>
        <time>2020-07-21T13:04:05.000Z</time>
      </trkpt>
      <trkpt lat="43.0143903" lon="-5.7738757">
        <ele>974</ele>
        <time>2020-07-21T13:04:06.000Z</time>
      </trkpt>
      <trkpt lat="43.0143965" lon="-5.7738558">
        <ele>974</ele>
        <time>2020-07-21T13:04:07.000Z</time>
      </trkpt>
      <trkpt lat="43.014401" lon="-5.7738352">
        <ele>974</ele>
        <time>2020-07-21T13:04:08.000Z</time>
      </trkpt>
      <trkpt lat="43.0144052" lon="-5.7738188">
        <ele>974</ele>
        <time>2020-07-21T13:04:09.000Z</time>
      </trkpt>
      <trkpt lat="43.014408" lon="-5.7738015">
        <ele>974</ele>
        <time>2020-07-21T13:04:10.000Z</time>
      </trkpt>
      <trkpt lat="43.0144108" lon="-5.7737817">
        <ele>974</ele>
        <time>2020-07-21T13:04:11.000Z</time>
      </trkpt>
      <trkpt lat="43.0144128" lon="-5.773761">
        <ele>974</ele>
        <time>2020-07-21T13:04:12.000Z</time>
      </trkpt>
      <trkpt lat="43.0144163" lon="-5.773742">
        <ele>974</ele>
        <time>2020-07-21T13:04:13.000Z</time>
      </trkpt>
      <trkpt lat="43.014421" lon="-5.773727">
        <ele>974</ele>
        <time>2020-07-21T13:04:14.000Z</time>
      </trkpt>
      <trkpt lat="43.0144258" lon="-5.773713">
        <ele>974</ele>
        <time>2020-07-21T13:04:15.000Z</time>
      </trkpt>
      <trkpt lat="43.0144305" lon="-5.7737002">
        <ele>974</ele>
        <time>2020-07-21T13:04:16.000Z</time>
      </trkpt>
      <trkpt lat="43.0144363" lon="-5.7736868">
        <ele>974</ele>
        <time>2020-07-21T13:04:17.000Z</time>
      </trkpt>
      <trkpt lat="43.0144422" lon="-5.7736725">
        <ele>974</ele>
        <time>2020-07-21T13:04:18.000Z</time>
      </trkpt>
      <trkpt lat="43.0144483" lon="-5.7736565">
        <ele>974</ele>
        <time>2020-07-21T13:04:19.000Z</time>
      </trkpt>
      <trkpt lat="43.0144548" lon="-5.7736413">
        <ele>974</ele>
        <time>2020-07-21T13:04:20.000Z</time>
      </trkpt>
      <trkpt lat="43.0144628" lon="-5.7736282">
        <ele>974</ele>
        <time>2020-07-21T13:04:21.000Z</time>
      </trkpt>
      <trkpt lat="43.0144715" lon="-5.7736153">
        <ele>974</ele>
        <time>2020-07-21T13:04:22.000Z</time>
      </trkpt>
      <trkpt lat="43.0144798" lon="-5.7736032">
        <ele>974</ele>
        <time>2020-07-21T13:04:23.000Z</time>
      </trkpt>
      <trkpt lat="43.0144902" lon="-5.7735913">
        <ele>974</ele>
        <time>2020-07-21T13:04:24.000Z</time>
      </trkpt>
      <trkpt lat="43.0145007" lon="-5.7735797">
        <ele>974</ele>
        <time>2020-07-21T13:04:25.000Z</time>
      </trkpt>
      <trkpt lat="43.0145113" lon="-5.7735688">
        <ele>974</ele>
        <time>2020-07-21T13:04:26.000Z</time>
      </trkpt>
      <trkpt lat="43.0145213" lon="-5.7735568">
        <ele>974</ele>
        <time>2020-07-21T13:04:27.000Z</time>
      </trkpt>
      <trkpt lat="43.0145347" lon="-5.7735458">
        <ele>974</ele>
        <time>2020-07-21T13:04:28.000Z</time>
      </trkpt>
      <trkpt lat="43.0145498" lon="-5.773534">
        <ele>974</ele>
        <time>2020-07-21T13:04:29.000Z</time>
      </trkpt>
      <trkpt lat="43.0145645" lon="-5.773523">
        <ele>973.85</ele>
        <time>2020-07-21T13:04:30.000Z</time>
      </trkpt>
      <trkpt lat="43.0145763" lon="-5.7735135">
        <ele>973.85</ele>
        <time>2020-07-21T13:04:31.000Z</time>
      </trkpt>
      <trkpt lat="43.0145877" lon="-5.7735045">
        <ele>973.85</ele>
        <time>2020-07-21T13:04:32.000Z</time>
      </trkpt>
      <trkpt lat="43.0145972" lon="-5.7734953">
        <ele>973.85</ele>
        <time>2020-07-21T13:04:33.000Z</time>
      </trkpt>
      <trkpt lat="43.0146067" lon="-5.7734858">
        <ele>973.85</ele>
        <time>2020-07-21T13:04:34.000Z</time>
      </trkpt>
      <trkpt lat="43.0146157" lon="-5.7734767">
        <ele>973.85</ele>
        <time>2020-07-21T13:04:35.000Z</time>
      </trkpt>
      <trkpt lat="43.0146257" lon="-5.7734683">
        <ele>973.85</ele>
        <time>2020-07-21T13:04:36.000Z</time>
      </trkpt>
      <trkpt lat="43.0146368" lon="-5.7734607">
        <ele>973.85</ele>
        <time>2020-07-21T13:04:37.000Z</time>
      </trkpt>
      <trkpt lat="43.01465" lon="-5.7734538">
        <ele>973.85</ele>
        <time>2020-07-21T13:04:38.000Z</time>
      </trkpt>
      <trkpt lat="43.0146653" lon="-5.7734468">
        <ele>973.85</ele>
        <time>2020-07-21T13:04:39.000Z</time>
      </trkpt>
      <trkpt lat="43.0146817" lon="-5.7734393">
        <ele>973.85</ele>
        <time>2020-07-21T13:04:40.000Z</time>
      </trkpt>
      <trkpt lat="43.0146977" lon="-5.7734313">
        <ele>973.85</ele>
        <time>2020-07-21T13:04:41.000Z</time>
      </trkpt>
      <trkpt lat="43.0147132" lon="-5.7734237">
        <ele>973.85</ele>
        <time>2020-07-21T13:04:42.000Z</time>
      </trkpt>
      <trkpt lat="43.0147272" lon="-5.7734167">
        <ele>973.85</ele>
        <time>2020-07-21T13:04:43.000Z</time>
      </trkpt>
      <trkpt lat="43.0147407" lon="-5.7734115">
        <ele>973.85</ele>
        <time>2020-07-21T13:04:44.000Z</time>
      </trkpt>
      <trkpt lat="43.014754" lon="-5.7734065">
        <ele>973.85</ele>
        <time>2020-07-21T13:04:45.000Z</time>
      </trkpt>
      <trkpt lat="43.0147672" lon="-5.7734003">
        <ele>973.85</ele>
        <time>2020-07-21T13:04:46.000Z</time>
      </trkpt>
      <trkpt lat="43.0147792" lon="-5.7733933">
        <ele>973.85</ele>
        <time>2020-07-21T13:04:47.000Z</time>
      </trkpt>
      <trkpt lat="43.014791" lon="-5.7733868">
        <ele>973.85</ele>
        <time>2020-07-21T13:04:48.000Z</time>
      </trkpt>
      <trkpt lat="43.0148023" lon="-5.7733803">
        <ele>973.85</ele>
        <time>2020-07-21T13:04:49.000Z</time>
      </trkpt>
      <trkpt lat="43.0148137" lon="-5.773373">
        <ele>973.85</ele>
        <time>2020-07-21T13:04:50.000Z</time>
      </trkpt>
      <trkpt lat="43.0148247" lon="-5.7733633">
        <ele>973.85</ele>
        <time>2020-07-21T13:04:51.000Z</time>
      </trkpt>
      <trkpt lat="43.0148358" lon="-5.773354">
        <ele>973.85</ele>
        <time>2020-07-21T13:04:52.000Z</time>
      </trkpt>
      <trkpt lat="43.014847" lon="-5.773344">
        <ele>973.85</ele>
        <time>2020-07-21T13:04:53.000Z</time>
      </trkpt>
      <trkpt lat="43.0148577" lon="-5.7733348">
        <ele>973.85</ele>
        <time>2020-07-21T13:04:54.000Z</time>
      </trkpt>
      <trkpt lat="43.0148685" lon="-5.7733252">
        <ele>973.85</ele>
        <time>2020-07-21T13:04:55.000Z</time>
      </trkpt>
      <trkpt lat="43.0148798" lon="-5.7733168">
        <ele>973.85</ele>
        <time>2020-07-21T13:04:56.000Z</time>
      </trkpt>
      <trkpt lat="43.0148923" lon="-5.7733072">
        <ele>973.85</ele>
        <time>2020-07-21T13:04:57.000Z</time>
      </trkpt>
      <trkpt lat="43.014904" lon="-5.7732965">
        <ele>973.85</ele>
        <time>2020-07-21T13:04:58.000Z</time>
      </trkpt>
      <trkpt lat="43.0149143" lon="-5.7732837">
        <ele>973.85</ele>
        <time>2020-07-21T13:04:59.000Z</time>
      </trkpt>
      <trkpt lat="43.0149227" lon="-5.7732702">
        <ele>973.85</ele>
        <time>2020-07-21T13:05:00.000Z</time>
      </trkpt>
      <trkpt lat="43.0149312" lon="-5.7732563">
        <ele>973.85</ele>
        <time>2020-07-21T13:05:01.000Z</time>
      </trkpt>
      <trkpt lat="43.0149398" lon="-5.7732418">
        <ele>973.85</ele>
        <time>2020-07-21T13:05:02.000Z</time>
      </trkpt>
      <trkpt lat="43.014949" lon="-5.7732275">
        <ele>973.85</ele>
        <time>2020-07-21T13:05:03.000Z</time>
      </trkpt>
      <trkpt lat="43.0149578" lon="-5.7732127">
        <ele>973.85</ele>
        <time>2020-07-21T13:05:04.000Z</time>
      </trkpt>
      <trkpt lat="43.014966" lon="-5.7731972">
        <ele>973.85</ele>
        <time>2020-07-21T13:05:05.000Z</time>
      </trkpt>
      <trkpt lat="43.014973" lon="-5.7731803">
        <ele>974</ele>
        <time>2020-07-21T13:05:06.000Z</time>
      </trkpt>
      <trkpt lat="43.014979" lon="-5.7731632">
        <ele>974</ele>
        <time>2020-07-21T13:05:07.000Z</time>
      </trkpt>
      <trkpt lat="43.0149845" lon="-5.7731472">
        <ele>974</ele>
        <time>2020-07-21T13:05:08.000Z</time>
      </trkpt>
      <trkpt lat="43.0149895" lon="-5.7731303">
        <ele>974</ele>
        <time>2020-07-21T13:05:09.000Z</time>
      </trkpt>
      <trkpt lat="43.0149942" lon="-5.773113">
        <ele>974</ele>
        <time>2020-07-21T13:05:10.000Z</time>
      </trkpt>
      <trkpt lat="43.0149983" lon="-5.7730955">
        <ele>974</ele>
        <time>2020-07-21T13:05:11.000Z</time>
      </trkpt>
      <trkpt lat="43.0150042" lon="-5.7730803">
        <ele>974</ele>
        <time>2020-07-21T13:05:12.000Z</time>
      </trkpt>
      <trkpt lat="43.0150117" lon="-5.7730662">
        <ele>974</ele>
        <time>2020-07-21T13:05:13.000Z</time>
      </trkpt>
      <trkpt lat="43.01502" lon="-5.7730525">
        <ele>974.15</ele>
        <time>2020-07-21T13:05:14.000Z</time>
      </trkpt>
      <trkpt lat="43.015027" lon="-5.7730387">
        <ele>974.15</ele>
        <time>2020-07-21T13:05:15.000Z</time>
      </trkpt>
      <trkpt lat="43.015034" lon="-5.7730262">
        <ele>974.15</ele>
        <time>2020-07-21T13:05:16.000Z</time>
      </trkpt>
      <trkpt lat="43.0150415" lon="-5.7730147">
        <ele>974.15</ele>
        <time>2020-07-21T13:05:17.000Z</time>
      </trkpt>
      <trkpt lat="43.0150497" lon="-5.7730027">
        <ele>974.15</ele>
        <time>2020-07-21T13:05:18.000Z</time>
      </trkpt>
      <trkpt lat="43.0150573" lon="-5.7729898">
        <ele>974.15</ele>
        <time>2020-07-21T13:05:19.000Z</time>
      </trkpt>
      <trkpt lat="43.015064" lon="-5.7729755">
        <ele>974.3</ele>
        <time>2020-07-21T13:05:20.000Z</time>
      </trkpt>
      <trkpt lat="43.0150708" lon="-5.7729615">
        <ele>974.3</ele>
        <time>2020-07-21T13:05:21.000Z</time>
      </trkpt>
      <trkpt lat="43.0150775" lon="-5.7729483">
        <ele>974.3</ele>
        <time>2020-07-21T13:05:22.000Z</time>
      </trkpt>
      <trkpt lat="43.0150872" lon="-5.7729342">
        <ele>974.3</ele>
        <time>2020-07-21T13:05:23.000Z</time>
      </trkpt>
      <trkpt lat="43.0150972" lon="-5.7729187">
        <ele>974.46</ele>
        <time>2020-07-21T13:05:24.000Z</time>
      </trkpt>
      <trkpt lat="43.015106" lon="-5.7729018">
        <ele>974.46</ele>
        <time>2020-07-21T13:05:25.000Z</time>
      </trkpt>
      <trkpt lat="43.0151112" lon="-5.7728843">
        <ele>974.61</ele>
        <time>2020-07-21T13:05:26.000Z</time>
      </trkpt>
      <trkpt lat="43.0151155" lon="-5.7728687">
        <ele>974.61</ele>
        <time>2020-07-21T13:05:27.000Z</time>
      </trkpt>
      <trkpt lat="43.015121" lon="-5.7728532">
        <ele>974.61</ele>
        <time>2020-07-21T13:05:28.000Z</time>
      </trkpt>
      <trkpt lat="43.015129" lon="-5.7728397">
        <ele>974.61</ele>
        <time>2020-07-21T13:05:29.000Z</time>
      </trkpt>
      <trkpt lat="43.0151373" lon="-5.7728257">
        <ele>974.76</ele>
        <time>2020-07-21T13:05:30.000Z</time>
      </trkpt>
      <trkpt lat="43.0151463" lon="-5.772812">
        <ele>974.76</ele>
        <time>2020-07-21T13:05:31.000Z</time>
      </trkpt>
      <trkpt lat="43.0151547" lon="-5.7727983">
        <ele>974.91</ele>
        <time>2020-07-21T13:05:32.000Z</time>
      </trkpt>
      <trkpt lat="43.0151638" lon="-5.7727845">
        <ele>974.91</ele>
        <time>2020-07-21T13:05:33.000Z</time>
      </trkpt>
      <trkpt lat="43.015173" lon="-5.7727705">
        <ele>975.07</ele>
        <time>2020-07-21T13:05:34.000Z</time>
      </trkpt>
      <trkpt lat="43.0151825" lon="-5.7727567">
        <ele>975.07</ele>
        <time>2020-07-21T13:05:35.000Z</time>
      </trkpt>
      <trkpt lat="43.0151917" lon="-5.7727432">
        <ele>975.07</ele>
        <time>2020-07-21T13:05:36.000Z</time>
      </trkpt>
      <trkpt lat="43.0152008" lon="-5.77273">
        <ele>975.07</ele>
        <time>2020-07-21T13:05:37.000Z</time>
      </trkpt>
      <trkpt lat="43.0152103" lon="-5.7727178">
        <ele>975.22</ele>
        <time>2020-07-21T13:05:38.000Z</time>
      </trkpt>
      <trkpt lat="43.0152198" lon="-5.772706">
        <ele>975.22</ele>
        <time>2020-07-21T13:05:39.000Z</time>
      </trkpt>
      <trkpt lat="43.0152298" lon="-5.7726945">
        <ele>975.37</ele>
        <time>2020-07-21T13:05:40.000Z</time>
      </trkpt>
      <trkpt lat="43.0152402" lon="-5.7726833">
        <ele>975.37</ele>
        <time>2020-07-21T13:05:41.000Z</time>
      </trkpt>
      <trkpt lat="43.0152507" lon="-5.7726723">
        <ele>975.37</ele>
        <time>2020-07-21T13:05:42.000Z</time>
      </trkpt>
      <trkpt lat="43.0152612" lon="-5.7726618">
        <ele>975.37</ele>
        <time>2020-07-21T13:05:43.000Z</time>
      </trkpt>
      <trkpt lat="43.0152715" lon="-5.7726517">
        <ele>975.52</ele>
        <time>2020-07-21T13:05:44.000Z</time>
      </trkpt>
      <trkpt lat="43.0152818" lon="-5.7726417">
        <ele>975.52</ele>
        <time>2020-07-21T13:05:45.000Z</time>
      </trkpt>
      <trkpt lat="43.015292" lon="-5.772632">
        <ele>975.52</ele>
        <time>2020-07-21T13:05:46.000Z</time>
      </trkpt>
      <trkpt lat="43.015303" lon="-5.7726228">
        <ele>975.52</ele>
        <time>2020-07-21T13:05:47.000Z</time>
      </trkpt>
      <trkpt lat="43.015314" lon="-5.7726142">
        <ele>975.68</ele>
        <time>2020-07-21T13:05:48.000Z</time>
      </trkpt>
      <trkpt lat="43.0153265" lon="-5.7726032">
        <ele>975.68</ele>
        <time>2020-07-21T13:05:49.000Z</time>
      </trkpt>
      <trkpt lat="43.0153387" lon="-5.772592">
        <ele>975.83</ele>
        <time>2020-07-21T13:05:50.000Z</time>
      </trkpt>
      <trkpt lat="43.0153507" lon="-5.7725822">
        <ele>975.83</ele>
        <time>2020-07-21T13:05:51.000Z</time>
      </trkpt>
      <trkpt lat="43.015362" lon="-5.7725758">
        <ele>975.83</ele>
        <time>2020-07-21T13:05:52.000Z</time>
      </trkpt>
      <trkpt lat="43.015374" lon="-5.7725697">
        <ele>975.83</ele>
        <time>2020-07-21T13:05:53.000Z</time>
      </trkpt>
      <trkpt lat="43.0153863" lon="-5.7725638">
        <ele>975.98</ele>
        <time>2020-07-21T13:05:54.000Z</time>
      </trkpt>
      <trkpt lat="43.0153987" lon="-5.7725562">
        <ele>975.98</ele>
        <time>2020-07-21T13:05:55.000Z</time>
      </trkpt>
      <trkpt lat="43.0154108" lon="-5.7725477">
        <ele>976.13</ele>
        <time>2020-07-21T13:05:56.000Z</time>
      </trkpt>
      <trkpt lat="43.0154245" lon="-5.7725373">
        <ele>976.13</ele>
        <time>2020-07-21T13:05:57.000Z</time>
      </trkpt>
      <trkpt lat="43.0154377" lon="-5.7725275">
        <ele>976.29</ele>
        <time>2020-07-21T13:05:58.000Z</time>
      </trkpt>
      <trkpt lat="43.0154515" lon="-5.7725172">
        <ele>976.29</ele>
        <time>2020-07-21T13:05:59.000Z</time>
      </trkpt>
      <trkpt lat="43.0154643" lon="-5.7725082">
        <ele>976.44</ele>
        <time>2020-07-21T13:06:00.000Z</time>
      </trkpt>
      <trkpt lat="43.0154785" lon="-5.7725003">
        <ele>976.44</ele>
        <time>2020-07-21T13:06:01.000Z</time>
      </trkpt>
      <trkpt lat="43.015492" lon="-5.7724943">
        <ele>976.59</ele>
        <time>2020-07-21T13:06:02.000Z</time>
      </trkpt>
      <trkpt lat="43.0155048" lon="-5.7724882">
        <ele>976.59</ele>
        <time>2020-07-21T13:06:03.000Z</time>
      </trkpt>
      <trkpt lat="43.0155178" lon="-5.7724803">
        <ele>976.59</ele>
        <time>2020-07-21T13:06:04.000Z</time>
      </trkpt>
      <trkpt lat="43.0155307" lon="-5.7724722">
        <ele>976.59</ele>
        <time>2020-07-21T13:06:05.000Z</time>
      </trkpt>
      <trkpt lat="43.015543" lon="-5.7724625">
        <ele>976.74</ele>
        <time>2020-07-21T13:06:06.000Z</time>
      </trkpt>
      <trkpt lat="43.015553" lon="-5.7724553">
        <ele>976.74</ele>
        <time>2020-07-21T13:06:07.000Z</time>
      </trkpt>
      <trkpt lat="43.0155637" lon="-5.7724495">
        <ele>976.9</ele>
        <time>2020-07-21T13:06:08.000Z</time>
      </trkpt>
      <trkpt lat="43.015575" lon="-5.772445">
        <ele>976.9</ele>
        <time>2020-07-21T13:06:09.000Z</time>
      </trkpt>
      <trkpt lat="43.0155873" lon="-5.7724385">
        <ele>977.2</ele>
        <time>2020-07-21T13:06:10.000Z</time>
      </trkpt>
      <trkpt lat="43.0155988" lon="-5.772431">
        <ele>977.2</ele>
        <time>2020-07-21T13:06:11.000Z</time>
      </trkpt>
      <trkpt lat="43.0156102" lon="-5.7724238">
        <ele>977.35</ele>
        <time>2020-07-21T13:06:12.000Z</time>
      </trkpt>
      <trkpt lat="43.0156205" lon="-5.7724185">
        <ele>977.35</ele>
        <time>2020-07-21T13:06:13.000Z</time>
      </trkpt>
      <trkpt lat="43.0156315" lon="-5.772415">
        <ele>977.51</ele>
        <time>2020-07-21T13:06:14.000Z</time>
      </trkpt>
      <trkpt lat="43.0156425" lon="-5.7724115">
        <ele>977.51</ele>
        <time>2020-07-21T13:06:15.000Z</time>
      </trkpt>
      <trkpt lat="43.015655" lon="-5.7724067">
        <ele>977.66</ele>
        <time>2020-07-21T13:06:16.000Z</time>
      </trkpt>
      <trkpt lat="43.0156672" lon="-5.7723992">
        <ele>977.66</ele>
        <time>2020-07-21T13:06:17.000Z</time>
      </trkpt>
      <trkpt lat="43.015679" lon="-5.7723908">
        <ele>977.81</ele>
        <time>2020-07-21T13:06:18.000Z</time>
      </trkpt>
      <trkpt lat="43.0156917" lon="-5.7723837">
        <ele>977.81</ele>
        <time>2020-07-21T13:06:19.000Z</time>
      </trkpt>
      <trkpt lat="43.0157038" lon="-5.7723772">
        <ele>978.11</ele>
        <time>2020-07-21T13:06:20.000Z</time>
      </trkpt>
      <trkpt lat="43.0157162" lon="-5.7723715">
        <ele>978.11</ele>
        <time>2020-07-21T13:06:21.000Z</time>
      </trkpt>
      <trkpt lat="43.0157263" lon="-5.7723647">
        <ele>978.27</ele>
        <time>2020-07-21T13:06:22.000Z</time>
      </trkpt>
      <trkpt lat="43.0157377" lon="-5.772357">
        <ele>978.27</ele>
        <time>2020-07-21T13:06:23.000Z</time>
      </trkpt>
      <trkpt lat="43.015749" lon="-5.7723473">
        <ele>978.42</ele>
        <time>2020-07-21T13:06:24.000Z</time>
      </trkpt>
      <trkpt lat="43.0157607" lon="-5.7723358">
        <ele>978.42</ele>
        <time>2020-07-21T13:06:25.000Z</time>
      </trkpt>
      <trkpt lat="43.0157717" lon="-5.7723245">
        <ele>978.57</ele>
        <time>2020-07-21T13:06:26.000Z</time>
      </trkpt>
      <trkpt lat="43.0157822" lon="-5.772314">
        <ele>978.57</ele>
        <time>2020-07-21T13:06:27.000Z</time>
      </trkpt>
      <trkpt lat="43.0157925" lon="-5.772303">
        <ele>978.72</ele>
        <time>2020-07-21T13:06:28.000Z</time>
      </trkpt>
      <trkpt lat="43.015802" lon="-5.772291">
        <ele>978.72</ele>
        <time>2020-07-21T13:06:29.000Z</time>
      </trkpt>
      <trkpt lat="43.015811" lon="-5.7722775">
        <ele>978.88</ele>
        <time>2020-07-21T13:06:30.000Z</time>
      </trkpt>
      <trkpt lat="43.0158198" lon="-5.7722653">
        <ele>978.88</ele>
        <time>2020-07-21T13:06:31.000Z</time>
      </trkpt>
      <trkpt lat="43.0158293" lon="-5.7722535">
        <ele>979.03</ele>
        <time>2020-07-21T13:06:32.000Z</time>
      </trkpt>
      <trkpt lat="43.0158392" lon="-5.7722423">
        <ele>979.03</ele>
        <time>2020-07-21T13:06:33.000Z</time>
      </trkpt>
      <trkpt lat="43.015848" lon="-5.7722312">
        <ele>979.18</ele>
        <time>2020-07-21T13:06:34.000Z</time>
      </trkpt>
      <trkpt lat="43.0158567" lon="-5.77222">
        <ele>979.18</ele>
        <time>2020-07-21T13:06:35.000Z</time>
      </trkpt>
      <trkpt lat="43.0158647" lon="-5.7722097">
        <ele>979.33</ele>
        <time>2020-07-21T13:06:36.000Z</time>
      </trkpt>
      <trkpt lat="43.0158732" lon="-5.7722003">
        <ele>979.33</ele>
        <time>2020-07-21T13:06:37.000Z</time>
      </trkpt>
      <trkpt lat="43.0158803" lon="-5.7721902">
        <ele>979.49</ele>
        <time>2020-07-21T13:06:38.000Z</time>
      </trkpt>
      <trkpt lat="43.0158875" lon="-5.7721788">
        <ele>979.49</ele>
        <time>2020-07-21T13:06:39.000Z</time>
      </trkpt>
      <trkpt lat="43.0158932" lon="-5.7721653">
        <ele>979.49</ele>
        <time>2020-07-21T13:06:40.000Z</time>
      </trkpt>
      <trkpt lat="43.015898" lon="-5.772151">
        <ele>979.49</ele>
        <time>2020-07-21T13:06:41.000Z</time>
      </trkpt>
      <trkpt lat="43.0159022" lon="-5.7721365">
        <ele>979.64</ele>
        <time>2020-07-21T13:06:42.000Z</time>
      </trkpt>
      <trkpt lat="43.0159068" lon="-5.7721225">
        <ele>979.64</ele>
        <time>2020-07-21T13:06:43.000Z</time>
      </trkpt>
      <trkpt lat="43.0159118" lon="-5.7721087">
        <ele>979.64</ele>
        <time>2020-07-21T13:06:44.000Z</time>
      </trkpt>
      <trkpt lat="43.0159162" lon="-5.7720947">
        <ele>979.64</ele>
        <time>2020-07-21T13:06:45.000Z</time>
      </trkpt>
      <trkpt lat="43.0159192" lon="-5.7720798">
        <ele>979.79</ele>
        <time>2020-07-21T13:06:46.000Z</time>
      </trkpt>
      <trkpt lat="43.0159215" lon="-5.772065">
        <ele>979.79</ele>
        <time>2020-07-21T13:06:47.000Z</time>
      </trkpt>
      <trkpt lat="43.0159232" lon="-5.7720483">
        <ele>979.94</ele>
        <time>2020-07-21T13:06:48.000Z</time>
      </trkpt>
      <trkpt lat="43.015925" lon="-5.7720313">
        <ele>979.94</ele>
        <time>2020-07-21T13:06:49.000Z</time>
      </trkpt>
      <trkpt lat="43.0159275" lon="-5.7720135">
        <ele>979.94</ele>
        <time>2020-07-21T13:06:50.000Z</time>
      </trkpt>
      <trkpt lat="43.01593" lon="-5.7719955">
        <ele>979.94</ele>
        <time>2020-07-21T13:06:51.000Z</time>
      </trkpt>
      <trkpt lat="43.015932" lon="-5.7719768">
        <ele>980.1</ele>
        <time>2020-07-21T13:06:52.000Z</time>
      </trkpt>
      <trkpt lat="43.0159337" lon="-5.7719592">
        <ele>980.1</ele>
        <time>2020-07-21T13:06:53.000Z</time>
      </trkpt>
      <trkpt lat="43.0159358" lon="-5.7719413">
        <ele>980.25</ele>
        <time>2020-07-21T13:06:54.000Z</time>
      </trkpt>
      <trkpt lat="43.0159385" lon="-5.7719243">
        <ele>980.25</ele>
        <time>2020-07-21T13:06:55.000Z</time>
      </trkpt>
      <trkpt lat="43.0159408" lon="-5.7719068">
        <ele>980.25</ele>
        <time>2020-07-21T13:06:56.000Z</time>
      </trkpt>
      <trkpt lat="43.0159418" lon="-5.7718888">
        <ele>980.25</ele>
        <time>2020-07-21T13:06:57.000Z</time>
      </trkpt>
      <trkpt lat="43.015942" lon="-5.771871">
        <ele>980.4</ele>
        <time>2020-07-21T13:06:58.000Z</time>
      </trkpt>
      <trkpt lat="43.0159412" lon="-5.7718532">
        <ele>980.4</ele>
        <time>2020-07-21T13:06:59.000Z</time>
      </trkpt>
      <trkpt lat="43.0159407" lon="-5.7718372">
        <ele>980.55</ele>
        <time>2020-07-21T13:07:00.000Z</time>
      </trkpt>
      <trkpt lat="43.0159398" lon="-5.7718207">
        <ele>980.55</ele>
        <time>2020-07-21T13:07:01.000Z</time>
      </trkpt>
      <trkpt lat="43.0159382" lon="-5.7718043">
        <ele>980.71</ele>
        <time>2020-07-21T13:07:02.000Z</time>
      </trkpt>
      <trkpt lat="43.0159362" lon="-5.7717877">
        <ele>980.71</ele>
        <time>2020-07-21T13:07:03.000Z</time>
      </trkpt>
      <trkpt lat="43.0159335" lon="-5.7717707">
        <ele>980.86</ele>
        <time>2020-07-21T13:07:04.000Z</time>
      </trkpt>
      <trkpt lat="43.0159315" lon="-5.7717538">
        <ele>980.86</ele>
        <time>2020-07-21T13:07:05.000Z</time>
      </trkpt>
      <trkpt lat="43.01593" lon="-5.7717373">
        <ele>980.86</ele>
        <time>2020-07-21T13:07:06.000Z</time>
      </trkpt>
      <trkpt lat="43.0159293" lon="-5.7717217">
        <ele>980.86</ele>
        <time>2020-07-21T13:07:07.000Z</time>
      </trkpt>
      <trkpt lat="43.01593" lon="-5.7717052">
        <ele>981.01</ele>
        <time>2020-07-21T13:07:08.000Z</time>
      </trkpt>
      <trkpt lat="43.0159325" lon="-5.7716892">
        <ele>981.01</ele>
        <time>2020-07-21T13:07:09.000Z</time>
      </trkpt>
      <trkpt lat="43.015936" lon="-5.7716732">
        <ele>981.01</ele>
        <time>2020-07-21T13:07:10.000Z</time>
      </trkpt>
      <trkpt lat="43.0159395" lon="-5.771658">
        <ele>981.01</ele>
        <time>2020-07-21T13:07:11.000Z</time>
      </trkpt>
      <trkpt lat="43.0159427" lon="-5.7716428">
        <ele>981.16</ele>
        <time>2020-07-21T13:07:12.000Z</time>
      </trkpt>
      <trkpt lat="43.0159463" lon="-5.7716278">
        <ele>981.16</ele>
        <time>2020-07-21T13:07:13.000Z</time>
      </trkpt>
      <trkpt lat="43.0159507" lon="-5.7716133">
        <ele>981.16</ele>
        <time>2020-07-21T13:07:14.000Z</time>
      </trkpt>
      <trkpt lat="43.0159547" lon="-5.7715985">
        <ele>981.16</ele>
        <time>2020-07-21T13:07:15.000Z</time>
      </trkpt>
      <trkpt lat="43.0159583" lon="-5.7715843">
        <ele>981.16</ele>
        <time>2020-07-21T13:07:16.000Z</time>
      </trkpt>
      <trkpt lat="43.0159617" lon="-5.7715707">
        <ele>981.16</ele>
        <time>2020-07-21T13:07:17.000Z</time>
      </trkpt>
      <trkpt lat="43.0159652" lon="-5.7715585">
        <ele>981.16</ele>
        <time>2020-07-21T13:07:18.000Z</time>
      </trkpt>
      <trkpt lat="43.0159687" lon="-5.7715463">
        <ele>981.16</ele>
        <time>2020-07-21T13:07:19.000Z</time>
      </trkpt>
      <trkpt lat="43.015974" lon="-5.7715332">
        <ele>981.16</ele>
        <time>2020-07-21T13:07:20.000Z</time>
      </trkpt>
      <trkpt lat="43.01598" lon="-5.7715187">
        <ele>981.16</ele>
        <time>2020-07-21T13:07:21.000Z</time>
      </trkpt>
      <trkpt lat="43.0159867" lon="-5.7715037">
        <ele>981.16</ele>
        <time>2020-07-21T13:07:22.000Z</time>
      </trkpt>
      <trkpt lat="43.0159918" lon="-5.7714887">
        <ele>981.16</ele>
        <time>2020-07-21T13:07:23.000Z</time>
      </trkpt>
      <trkpt lat="43.0159968" lon="-5.7714742">
        <ele>981.16</ele>
        <time>2020-07-21T13:07:24.000Z</time>
      </trkpt>
      <trkpt lat="43.016002" lon="-5.7714603">
        <ele>981.16</ele>
        <time>2020-07-21T13:07:25.000Z</time>
      </trkpt>
      <trkpt lat="43.0160083" lon="-5.7714473">
        <ele>981.16</ele>
        <time>2020-07-21T13:07:26.000Z</time>
      </trkpt>
      <trkpt lat="43.0160155" lon="-5.7714345">
        <ele>981.16</ele>
        <time>2020-07-21T13:07:27.000Z</time>
      </trkpt>
      <trkpt lat="43.016024" lon="-5.7714223">
        <ele>981.16</ele>
        <time>2020-07-21T13:07:28.000Z</time>
      </trkpt>
      <trkpt lat="43.0160328" lon="-5.7714103">
        <ele>981.16</ele>
        <time>2020-07-21T13:07:29.000Z</time>
      </trkpt>
      <trkpt lat="43.016041" lon="-5.7713993">
        <ele>981.16</ele>
        <time>2020-07-21T13:07:30.000Z</time>
      </trkpt>
      <trkpt lat="43.0160482" lon="-5.7713882">
        <ele>981.16</ele>
        <time>2020-07-21T13:07:31.000Z</time>
      </trkpt>
      <trkpt lat="43.0160552" lon="-5.7713777">
        <ele>981.16</ele>
        <time>2020-07-21T13:07:32.000Z</time>
      </trkpt>
      <trkpt lat="43.0160637" lon="-5.7713675">
        <ele>981.16</ele>
        <time>2020-07-21T13:07:33.000Z</time>
      </trkpt>
      <trkpt lat="43.016075" lon="-5.7713582">
        <ele>981.16</ele>
        <time>2020-07-21T13:07:34.000Z</time>
      </trkpt>
      <trkpt lat="43.0160873" lon="-5.7713497">
        <ele>981.16</ele>
        <time>2020-07-21T13:07:35.000Z</time>
      </trkpt>
      <trkpt lat="43.0160988" lon="-5.7713428">
        <ele>981.16</ele>
        <time>2020-07-21T13:07:36.000Z</time>
      </trkpt>
      <trkpt lat="43.016109" lon="-5.7713368">
        <ele>981.16</ele>
        <time>2020-07-21T13:07:37.000Z</time>
      </trkpt>
      <trkpt lat="43.016119" lon="-5.771332">
        <ele>981.16</ele>
        <time>2020-07-21T13:07:38.000Z</time>
      </trkpt>
      <trkpt lat="43.0161302" lon="-5.7713262">
        <ele>981.16</ele>
        <time>2020-07-21T13:07:39.000Z</time>
      </trkpt>
      <trkpt lat="43.016141" lon="-5.7713195">
        <ele>981.16</ele>
        <time>2020-07-21T13:07:40.000Z</time>
      </trkpt>
      <trkpt lat="43.0161527" lon="-5.7713117">
        <ele>981.16</ele>
        <time>2020-07-21T13:07:41.000Z</time>
      </trkpt>
      <trkpt lat="43.016164" lon="-5.7713042">
        <ele>981.16</ele>
        <time>2020-07-21T13:07:42.000Z</time>
      </trkpt>
      <trkpt lat="43.0161748" lon="-5.7712968">
        <ele>981.16</ele>
        <time>2020-07-21T13:07:43.000Z</time>
      </trkpt>
      <trkpt lat="43.0161838" lon="-5.7712898">
        <ele>981.16</ele>
        <time>2020-07-21T13:07:44.000Z</time>
      </trkpt>
      <trkpt lat="43.016192" lon="-5.7712825">
        <ele>981.16</ele>
        <time>2020-07-21T13:07:45.000Z</time>
      </trkpt>
      <trkpt lat="43.0162003" lon="-5.7712757">
        <ele>981.16</ele>
        <time>2020-07-21T13:07:46.000Z</time>
      </trkpt>
      <trkpt lat="43.0162095" lon="-5.7712695">
        <ele>981.16</ele>
        <time>2020-07-21T13:07:47.000Z</time>
      </trkpt>
      <trkpt lat="43.0162173" lon="-5.7712643">
        <ele>981.16</ele>
        <time>2020-07-21T13:07:48.000Z</time>
      </trkpt>
      <trkpt lat="43.0162213" lon="-5.7712618">
        <ele>981.16</ele>
        <time>2020-07-21T13:07:49.000Z</time>
      </trkpt>
      <trkpt lat="43.016225" lon="-5.771259">
        <ele>981.16</ele>
        <time>2020-07-21T13:07:50.000Z</time>
      </trkpt>
      <trkpt lat="43.0162305" lon="-5.7712542">
        <ele>981.16</ele>
        <time>2020-07-21T13:07:51.000Z</time>
      </trkpt>
      <trkpt lat="43.0162407" lon="-5.7712462">
        <ele>981.16</ele>
        <time>2020-07-21T13:07:52.000Z</time>
      </trkpt>
      <trkpt lat="43.016252" lon="-5.7712388">
        <ele>981.16</ele>
        <time>2020-07-21T13:07:53.000Z</time>
      </trkpt>
      <trkpt lat="43.0162617" lon="-5.7712327">
        <ele>981.16</ele>
        <time>2020-07-21T13:07:54.000Z</time>
      </trkpt>
      <trkpt lat="43.01627" lon="-5.7712257">
        <ele>981.16</ele>
        <time>2020-07-21T13:07:55.000Z</time>
      </trkpt>
      <trkpt lat="43.0162775" lon="-5.7712187">
        <ele>981.16</ele>
        <time>2020-07-21T13:07:56.000Z</time>
      </trkpt>
      <trkpt lat="43.0162858" lon="-5.7712115">
        <ele>981.16</ele>
        <time>2020-07-21T13:07:57.000Z</time>
      </trkpt>
      <trkpt lat="43.0162943" lon="-5.7712048">
        <ele>981.16</ele>
        <time>2020-07-21T13:07:58.000Z</time>
      </trkpt>
      <trkpt lat="43.0163033" lon="-5.7711955">
        <ele>981.16</ele>
        <time>2020-07-21T13:07:59.000Z</time>
      </trkpt>
      <trkpt lat="43.0163122" lon="-5.7711848">
        <ele>981.16</ele>
        <time>2020-07-21T13:08:00.000Z</time>
      </trkpt>
      <trkpt lat="43.0163217" lon="-5.7711705">
        <ele>981.16</ele>
        <time>2020-07-21T13:08:01.000Z</time>
      </trkpt>
      <trkpt lat="43.0163315" lon="-5.7711568">
        <ele>981.16</ele>
        <time>2020-07-21T13:08:02.000Z</time>
      </trkpt>
      <trkpt lat="43.0163417" lon="-5.7711423">
        <ele>981.16</ele>
        <time>2020-07-21T13:08:03.000Z</time>
      </trkpt>
      <trkpt lat="43.0163523" lon="-5.7711247">
        <ele>981.01</ele>
        <time>2020-07-21T13:08:04.000Z</time>
      </trkpt>
      <trkpt lat="43.0163617" lon="-5.7711038">
        <ele>981.01</ele>
        <time>2020-07-21T13:08:05.000Z</time>
      </trkpt>
      <trkpt lat="43.0163703" lon="-5.7710833">
        <ele>981.01</ele>
        <time>2020-07-21T13:08:06.000Z</time>
      </trkpt>
      <trkpt lat="43.0163765" lon="-5.7710668">
        <ele>981.01</ele>
        <time>2020-07-21T13:08:07.000Z</time>
      </trkpt>
      <trkpt lat="43.016379" lon="-5.7710533">
        <ele>980.86</ele>
        <time>2020-07-21T13:08:08.000Z</time>
      </trkpt>
      <trkpt lat="43.016378" lon="-5.7710422">
        <ele>980.86</ele>
        <time>2020-07-21T13:08:09.000Z</time>
      </trkpt>
      <trkpt lat="43.0163763" lon="-5.7710327">
        <ele>980.86</ele>
        <time>2020-07-21T13:08:10.000Z</time>
      </trkpt>
      <trkpt lat="43.0163772" lon="-5.7710243">
        <ele>980.86</ele>
        <time>2020-07-21T13:08:11.000Z</time>
      </trkpt>
      <trkpt lat="43.0163828" lon="-5.7710138">
        <ele>980.71</ele>
        <time>2020-07-21T13:08:12.000Z</time>
      </trkpt>
      <trkpt lat="43.0163902" lon="-5.7710013">
        <ele>980.71</ele>
        <time>2020-07-21T13:08:13.000Z</time>
      </trkpt>
      <trkpt lat="43.0163968" lon="-5.7709877">
        <ele>980.71</ele>
        <time>2020-07-21T13:08:14.000Z</time>
      </trkpt>
      <trkpt lat="43.0164013" lon="-5.7709732">
        <ele>980.71</ele>
        <time>2020-07-21T13:08:15.000Z</time>
      </trkpt>
      <trkpt lat="43.0164053" lon="-5.7709623">
        <ele>980.55</ele>
        <time>2020-07-21T13:08:16.000Z</time>
      </trkpt>
      <trkpt lat="43.0164098" lon="-5.7709523">
        <ele>980.55</ele>
        <time>2020-07-21T13:08:17.000Z</time>
      </trkpt>
      <trkpt lat="43.0164143" lon="-5.7709445">
        <ele>980.55</ele>
        <time>2020-07-21T13:08:18.000Z</time>
      </trkpt>
      <trkpt lat="43.0164212" lon="-5.7709335">
        <ele>980.55</ele>
        <time>2020-07-21T13:08:19.000Z</time>
      </trkpt>
      <trkpt lat="43.0164307" lon="-5.7709193">
        <ele>980.4</ele>
        <time>2020-07-21T13:08:20.000Z</time>
      </trkpt>
      <trkpt lat="43.0164437" lon="-5.770901">
        <ele>980.4</ele>
        <time>2020-07-21T13:08:21.000Z</time>
      </trkpt>
      <trkpt lat="43.0164552" lon="-5.7708823">
        <ele>980.4</ele>
        <time>2020-07-21T13:08:22.000Z</time>
      </trkpt>
      <trkpt lat="43.0164648" lon="-5.7708645">
        <ele>980.4</ele>
        <time>2020-07-21T13:08:23.000Z</time>
      </trkpt>
      <trkpt lat="43.0164737" lon="-5.7708487">
        <ele>980.25</ele>
        <time>2020-07-21T13:08:24.000Z</time>
      </trkpt>
      <trkpt lat="43.0164832" lon="-5.7708332">
        <ele>980.25</ele>
        <time>2020-07-21T13:08:25.000Z</time>
      </trkpt>
      <trkpt lat="43.0164943" lon="-5.7708183">
        <ele>980.25</ele>
        <time>2020-07-21T13:08:26.000Z</time>
      </trkpt>
      <trkpt lat="43.0165052" lon="-5.770806">
        <ele>980.25</ele>
        <time>2020-07-21T13:08:27.000Z</time>
      </trkpt>
      <trkpt lat="43.0165158" lon="-5.7707947">
        <ele>980.25</ele>
        <time>2020-07-21T13:08:28.000Z</time>
      </trkpt>
      <trkpt lat="43.016526" lon="-5.770783">
        <ele>980.25</ele>
        <time>2020-07-21T13:08:29.000Z</time>
      </trkpt>
      <trkpt lat="43.016536" lon="-5.7707713">
        <ele>980.25</ele>
        <time>2020-07-21T13:08:30.000Z</time>
      </trkpt>
      <trkpt lat="43.0165455" lon="-5.77076">
        <ele>980.25</ele>
        <time>2020-07-21T13:08:31.000Z</time>
      </trkpt>
      <trkpt lat="43.0165548" lon="-5.7707485">
        <ele>980.25</ele>
        <time>2020-07-21T13:08:32.000Z</time>
      </trkpt>
      <trkpt lat="43.0165642" lon="-5.7707368">
        <ele>980.25</ele>
        <time>2020-07-21T13:08:33.000Z</time>
      </trkpt>
      <trkpt lat="43.0165747" lon="-5.770724">
        <ele>980.25</ele>
        <time>2020-07-21T13:08:34.000Z</time>
      </trkpt>
      <trkpt lat="43.016586" lon="-5.770713">
        <ele>980.25</ele>
        <time>2020-07-21T13:08:35.000Z</time>
      </trkpt>
      <trkpt lat="43.0165988" lon="-5.770702">
        <ele>980.25</ele>
        <time>2020-07-21T13:08:36.000Z</time>
      </trkpt>
      <trkpt lat="43.0166117" lon="-5.7706928">
        <ele>980.25</ele>
        <time>2020-07-21T13:08:37.000Z</time>
      </trkpt>
      <trkpt lat="43.0166235" lon="-5.7706828">
        <ele>980.25</ele>
        <time>2020-07-21T13:08:38.000Z</time>
      </trkpt>
      <trkpt lat="43.0166347" lon="-5.7706732">
        <ele>980.25</ele>
        <time>2020-07-21T13:08:39.000Z</time>
      </trkpt>
      <trkpt lat="43.0166455" lon="-5.7706643">
        <ele>980.25</ele>
        <time>2020-07-21T13:08:40.000Z</time>
      </trkpt>
      <trkpt lat="43.0166573" lon="-5.770656">
        <ele>980.25</ele>
        <time>2020-07-21T13:08:41.000Z</time>
      </trkpt>
      <trkpt lat="43.01667" lon="-5.7706473">
        <ele>980.25</ele>
        <time>2020-07-21T13:08:42.000Z</time>
      </trkpt>
      <trkpt lat="43.0166833" lon="-5.7706388">
        <ele>980.25</ele>
        <time>2020-07-21T13:08:43.000Z</time>
      </trkpt>
      <trkpt lat="43.0166968" lon="-5.770632">
        <ele>980.25</ele>
        <time>2020-07-21T13:08:44.000Z</time>
      </trkpt>
      <trkpt lat="43.01671" lon="-5.7706305">
        <ele>980.25</ele>
        <time>2020-07-21T13:08:45.000Z</time>
      </trkpt>
      <trkpt lat="43.0167228" lon="-5.77063">
        <ele>980.25</ele>
        <time>2020-07-21T13:08:46.000Z</time>
      </trkpt>
      <trkpt lat="43.016735" lon="-5.7706298">
        <ele>980.25</ele>
        <time>2020-07-21T13:08:47.000Z</time>
      </trkpt>
      <trkpt lat="43.016748" lon="-5.7706248">
        <ele>980.4</ele>
        <time>2020-07-21T13:08:48.000Z</time>
      </trkpt>
      <trkpt lat="43.0167597" lon="-5.7706158">
        <ele>980.4</ele>
        <time>2020-07-21T13:08:49.000Z</time>
      </trkpt>
      <trkpt lat="43.0167708" lon="-5.7706005">
        <ele>980.4</ele>
        <time>2020-07-21T13:08:50.000Z</time>
      </trkpt>
      <trkpt lat="43.0167797" lon="-5.7705838">
        <ele>980.4</ele>
        <time>2020-07-21T13:08:51.000Z</time>
      </trkpt>
      <trkpt lat="43.0167877" lon="-5.7705688">
        <ele>980.4</ele>
        <time>2020-07-21T13:08:52.000Z</time>
      </trkpt>
      <trkpt lat="43.0167942" lon="-5.7705588">
        <ele>980.4</ele>
        <time>2020-07-21T13:08:53.000Z</time>
      </trkpt>
      <trkpt lat="43.0168023" lon="-5.7705522">
        <ele>980.4</ele>
        <time>2020-07-21T13:08:54.000Z</time>
      </trkpt>
      <trkpt lat="43.0168108" lon="-5.770548">
        <ele>980.4</ele>
        <time>2020-07-21T13:08:55.000Z</time>
      </trkpt>
      <trkpt lat="43.01682" lon="-5.7705423">
        <ele>980.4</ele>
        <time>2020-07-21T13:08:56.000Z</time>
      </trkpt>
      <trkpt lat="43.0168277" lon="-5.7705342">
        <ele>980.4</ele>
        <time>2020-07-21T13:08:57.000Z</time>
      </trkpt>
      <trkpt lat="43.016836" lon="-5.770526">
        <ele>980.4</ele>
        <time>2020-07-21T13:08:58.000Z</time>
      </trkpt>
      <trkpt lat="43.0168412" lon="-5.7705198">
        <ele>980.4</ele>
        <time>2020-07-21T13:08:59.000Z</time>
      </trkpt>
      <trkpt lat="43.0168467" lon="-5.7705182">
        <ele>980.4</ele>
        <time>2020-07-21T13:09:00.000Z</time>
      </trkpt>
      <trkpt lat="43.0168507" lon="-5.7705155">
        <ele>980.4</ele>
        <time>2020-07-21T13:09:01.000Z</time>
      </trkpt>
      <trkpt lat="43.0168552" lon="-5.7705153">
        <ele>980.4</ele>
        <time>2020-07-21T13:09:02.000Z</time>
      </trkpt>
      <trkpt lat="43.0168573" lon="-5.7705122">
        <ele>980.4</ele>
        <time>2020-07-21T13:09:03.000Z</time>
      </trkpt>
      <trkpt lat="43.0168588" lon="-5.7705113">
        <ele>980.4</ele>
        <time>2020-07-21T13:09:04.000Z</time>
      </trkpt>
      <trkpt lat="43.016861" lon="-5.770509">
        <ele>980.4</ele>
        <time>2020-07-21T13:09:05.000Z</time>
      </trkpt>
      <trkpt lat="43.0168633" lon="-5.770508">
        <ele>980.4</ele>
        <time>2020-07-21T13:09:06.000Z</time>
      </trkpt>
      <trkpt lat="43.0168655" lon="-5.7705065">
        <ele>980.4</ele>
        <time>2020-07-21T13:09:07.000Z</time>
      </trkpt>
      <trkpt lat="43.0168672" lon="-5.7705052">
        <ele>980.55</ele>
        <time>2020-07-21T13:09:08.000Z</time>
      </trkpt>
      <trkpt lat="43.0168687" lon="-5.7705055">
        <ele>980.55</ele>
        <time>2020-07-21T13:09:09.000Z</time>
      </trkpt>
      <trkpt lat="43.0168703" lon="-5.7705027">
        <ele>980.55</ele>
        <time>2020-07-21T13:09:10.000Z</time>
      </trkpt>
      <trkpt lat="43.0168707" lon="-5.7704977">
        <ele>980.55</ele>
        <time>2020-07-21T13:09:11.000Z</time>
      </trkpt>
      <trkpt lat="43.0168668" lon="-5.7704942">
        <ele>980.55</ele>
        <time>2020-07-21T13:09:12.000Z</time>
      </trkpt>
      <trkpt lat="43.0168612" lon="-5.770494">
        <ele>980.55</ele>
        <time>2020-07-21T13:09:13.000Z</time>
      </trkpt>
      <trkpt lat="43.0168567" lon="-5.7704957">
        <ele>980.71</ele>
        <time>2020-07-21T13:09:14.000Z</time>
      </trkpt>
      <trkpt lat="43.0168548" lon="-5.770496">
        <ele>980.71</ele>
        <time>2020-07-21T13:09:15.000Z</time>
      </trkpt>
      <trkpt lat="43.0168552" lon="-5.7704963">
        <ele>980.71</ele>
        <time>2020-07-21T13:09:16.000Z</time>
      </trkpt>
      <trkpt lat="43.0168552" lon="-5.770497">
        <ele>980.71</ele>
        <time>2020-07-21T13:09:17.000Z</time>
      </trkpt>
      <trkpt lat="43.016855" lon="-5.7704982">
        <ele>980.71</ele>
        <time>2020-07-21T13:09:18.000Z</time>
      </trkpt>
      <trkpt lat="43.0168547" lon="-5.7705002">
        <ele>980.71</ele>
        <time>2020-07-21T13:09:19.000Z</time>
      </trkpt>
      <trkpt lat="43.0168557" lon="-5.7705033">
        <ele>980.86</ele>
        <time>2020-07-21T13:09:20.000Z</time>
      </trkpt>
      <trkpt lat="43.016859" lon="-5.7705053">
        <ele>980.86</ele>
        <time>2020-07-21T13:09:21.000Z</time>
      </trkpt>
      <trkpt lat="43.0168627" lon="-5.770505">
        <ele>980.86</ele>
        <time>2020-07-21T13:09:22.000Z</time>
      </trkpt>
      <trkpt lat="43.0168653" lon="-5.7705018">
        <ele>980.86</ele>
        <time>2020-07-21T13:09:23.000Z</time>
      </trkpt>
      <trkpt lat="43.016866" lon="-5.7704995">
        <ele>981.01</ele>
        <time>2020-07-21T13:09:24.000Z</time>
      </trkpt>
      <trkpt lat="43.016865" lon="-5.7704992">
        <ele>981.01</ele>
        <time>2020-07-21T13:09:25.000Z</time>
      </trkpt>
      <trkpt lat="43.0168637" lon="-5.7704993">
        <ele>981.01</ele>
        <time>2020-07-21T13:09:26.000Z</time>
      </trkpt>
      <trkpt lat="43.0168628" lon="-5.7704993">
        <ele>981.01</ele>
        <time>2020-07-21T13:09:27.000Z</time>
      </trkpt>
      <trkpt lat="43.0168625" lon="-5.7704982">
        <ele>981.16</ele>
        <time>2020-07-21T13:09:28.000Z</time>
      </trkpt>
      <trkpt lat="43.016862" lon="-5.7704993">
        <ele>981.16</ele>
        <time>2020-07-21T13:09:29.000Z</time>
      </trkpt>
      <trkpt lat="43.0168618" lon="-5.7705005">
        <ele>981.32</ele>
        <time>2020-07-21T13:09:30.000Z</time>
      </trkpt>
      <trkpt lat="43.0168612" lon="-5.7705027">
        <ele>981.32</ele>
        <time>2020-07-21T13:09:31.000Z</time>
      </trkpt>
      <trkpt lat="43.0168612" lon="-5.7705035">
        <ele>981.47</ele>
        <time>2020-07-21T13:09:32.000Z</time>
      </trkpt>
      <trkpt lat="43.0168612" lon="-5.7705042">
        <ele>981.47</ele>
        <time>2020-07-21T13:09:33.000Z</time>
      </trkpt>
      <trkpt lat="43.0168612" lon="-5.7705038">
        <ele>981.47</ele>
        <time>2020-07-21T13:09:34.000Z</time>
      </trkpt>
      <trkpt lat="43.0168602" lon="-5.7705023">
        <ele>981.47</ele>
        <time>2020-07-21T13:09:35.000Z</time>
      </trkpt>
      <trkpt lat="43.0168602" lon="-5.770501">
        <ele>981.62</ele>
        <time>2020-07-21T13:09:36.000Z</time>
      </trkpt>
      <trkpt lat="43.0168605" lon="-5.7704993">
        <ele>981.62</ele>
        <time>2020-07-21T13:09:37.000Z</time>
      </trkpt>
      <trkpt lat="43.0168622" lon="-5.7704988">
        <ele>981.77</ele>
        <time>2020-07-21T13:09:38.000Z</time>
      </trkpt>
      <trkpt lat="43.0168622" lon="-5.7704982">
        <ele>981.77</ele>
        <time>2020-07-21T13:09:39.000Z</time>
      </trkpt>
      <trkpt lat="43.0168615" lon="-5.7704978">
        <ele>981.92</ele>
        <time>2020-07-21T13:09:40.000Z</time>
      </trkpt>
      <trkpt lat="43.0168583" lon="-5.7704993">
        <ele>981.92</ele>
        <time>2020-07-21T13:09:41.000Z</time>
      </trkpt>
      <trkpt lat="43.0168555" lon="-5.7705008">
        <ele>981.92</ele>
        <time>2020-07-21T13:09:42.000Z</time>
      </trkpt>
      <trkpt lat="43.0168552" lon="-5.7705015">
        <ele>981.92</ele>
        <time>2020-07-21T13:09:43.000Z</time>
      </trkpt>
      <trkpt lat="43.0168577" lon="-5.7705007">
        <ele>982.08</ele>
        <time>2020-07-21T13:09:44.000Z</time>
      </trkpt>
      <trkpt lat="43.016859" lon="-5.7705008">
        <ele>982.08</ele>
        <time>2020-07-21T13:09:45.000Z</time>
      </trkpt>
      <trkpt lat="43.0168592" lon="-5.770502">
        <ele>982.23</ele>
        <time>2020-07-21T13:09:46.000Z</time>
      </trkpt>
      <trkpt lat="43.0168588" lon="-5.7705032">
        <ele>982.23</ele>
        <time>2020-07-21T13:09:47.000Z</time>
      </trkpt>
      <trkpt lat="43.0168603" lon="-5.770504">
        <ele>982.38</ele>
        <time>2020-07-21T13:09:48.000Z</time>
      </trkpt>
      <trkpt lat="43.0168615" lon="-5.7705033">
        <ele>982.38</ele>
        <time>2020-07-21T13:09:49.000Z</time>
      </trkpt>
      <trkpt lat="43.0168622" lon="-5.7705008">
        <ele>982.38</ele>
        <time>2020-07-21T13:09:50.000Z</time>
      </trkpt>
      <trkpt lat="43.016862" lon="-5.7704968">
        <ele>982.38</ele>
        <time>2020-07-21T13:09:51.000Z</time>
      </trkpt>
      <trkpt lat="43.0168592" lon="-5.7704947">
        <ele>982.53</ele>
        <time>2020-07-21T13:09:52.000Z</time>
      </trkpt>
      <trkpt lat="43.0168548" lon="-5.770497">
        <ele>982.53</ele>
        <time>2020-07-21T13:09:53.000Z</time>
      </trkpt>
      <trkpt lat="43.0168453" lon="-5.7705033">
        <ele>982.69</ele>
        <time>2020-07-21T13:09:54.000Z</time>
      </trkpt>
      <trkpt lat="43.016837" lon="-5.7705107">
        <ele>982.69</ele>
        <time>2020-07-21T13:09:55.000Z</time>
      </trkpt>
      <trkpt lat="43.016828" lon="-5.7705168">
        <ele>982.69</ele>
        <time>2020-07-21T13:09:56.000Z</time>
      </trkpt>
      <trkpt lat="43.0168218" lon="-5.7705207">
        <ele>982.69</ele>
        <time>2020-07-21T13:09:57.000Z</time>
      </trkpt>
      <trkpt lat="43.0168135" lon="-5.7705265">
        <ele>982.69</ele>
        <time>2020-07-21T13:09:58.000Z</time>
      </trkpt>
      <trkpt lat="43.0168052" lon="-5.7705343">
        <ele>982.69</ele>
        <time>2020-07-21T13:09:59.000Z</time>
      </trkpt>
      <trkpt lat="43.0167953" lon="-5.7705438">
        <ele>982.84</ele>
        <time>2020-07-21T13:10:00.000Z</time>
      </trkpt>
      <trkpt lat="43.0167877" lon="-5.7705505">
        <ele>982.84</ele>
        <time>2020-07-21T13:10:01.000Z</time>
      </trkpt>
      <trkpt lat="43.0167812" lon="-5.7705575">
        <ele>982.84</ele>
        <time>2020-07-21T13:10:02.000Z</time>
      </trkpt>
      <trkpt lat="43.0167788" lon="-5.7705685">
        <ele>982.84</ele>
        <time>2020-07-21T13:10:03.000Z</time>
      </trkpt>
      <trkpt lat="43.0167782" lon="-5.7705822">
        <ele>982.84</ele>
        <time>2020-07-21T13:10:04.000Z</time>
      </trkpt>
      <trkpt lat="43.0167788" lon="-5.7705948">
        <ele>982.84</ele>
        <time>2020-07-21T13:10:05.000Z</time>
      </trkpt>
      <trkpt lat="43.0167817" lon="-5.7706033">
        <ele>982.99</ele>
        <time>2020-07-21T13:10:06.000Z</time>
      </trkpt>
      <trkpt lat="43.016788" lon="-5.7706113">
        <ele>982.99</ele>
        <time>2020-07-21T13:10:07.000Z</time>
      </trkpt>
      <trkpt lat="43.0167982" lon="-5.770621">
        <ele>982.99</ele>
        <time>2020-07-21T13:10:08.000Z</time>
      </trkpt>
      <trkpt lat="43.0168082" lon="-5.7706308">
        <ele>982.99</ele>
        <time>2020-07-21T13:10:09.000Z</time>
      </trkpt>
      <trkpt lat="43.0168163" lon="-5.7706413">
        <ele>982.99</ele>
        <time>2020-07-21T13:10:10.000Z</time>
      </trkpt>
      <trkpt lat="43.0168247" lon="-5.7706498">
        <ele>982.99</ele>
        <time>2020-07-21T13:10:11.000Z</time>
      </trkpt>
      <trkpt lat="43.0168332" lon="-5.7706597">
        <ele>983.14</ele>
        <time>2020-07-21T13:10:12.000Z</time>
      </trkpt>
      <trkpt lat="43.0168427" lon="-5.7706685">
        <ele>983.14</ele>
        <time>2020-07-21T13:10:13.000Z</time>
      </trkpt>
      <trkpt lat="43.016852" lon="-5.7706765">
        <ele>983.14</ele>
        <time>2020-07-21T13:10:14.000Z</time>
      </trkpt>
      <trkpt lat="43.0168613" lon="-5.7706867">
        <ele>983.14</ele>
        <time>2020-07-21T13:10:15.000Z</time>
      </trkpt>
      <trkpt lat="43.0168693" lon="-5.770702">
        <ele>983.14</ele>
        <time>2020-07-21T13:10:16.000Z</time>
      </trkpt>
      <trkpt lat="43.016875" lon="-5.7707198">
        <ele>983.14</ele>
        <time>2020-07-21T13:10:17.000Z</time>
      </trkpt>
      <trkpt lat="43.0168798" lon="-5.770737">
        <ele>983.3</ele>
        <time>2020-07-21T13:10:18.000Z</time>
      </trkpt>
      <trkpt lat="43.016885" lon="-5.7707505">
        <ele>983.3</ele>
        <time>2020-07-21T13:10:19.000Z</time>
      </trkpt>
      <trkpt lat="43.0168907" lon="-5.7707647">
        <ele>983.3</ele>
        <time>2020-07-21T13:10:20.000Z</time>
      </trkpt>
      <trkpt lat="43.0168955" lon="-5.7707775">
        <ele>983.3</ele>
        <time>2020-07-21T13:10:21.000Z</time>
      </trkpt>
      <trkpt lat="43.0168982" lon="-5.7707913">
        <ele>983.3</ele>
        <time>2020-07-21T13:10:22.000Z</time>
      </trkpt>
      <trkpt lat="43.0169007" lon="-5.7708048">
        <ele>983.3</ele>
        <time>2020-07-21T13:10:23.000Z</time>
      </trkpt>
      <trkpt lat="43.0169047" lon="-5.7708197">
        <ele>983.45</ele>
        <time>2020-07-21T13:10:24.000Z</time>
      </trkpt>
      <trkpt lat="43.01691" lon="-5.7708337">
        <ele>983.45</ele>
        <time>2020-07-21T13:10:25.000Z</time>
      </trkpt>
      <trkpt lat="43.0169145" lon="-5.7708482">
        <ele>983.45</ele>
        <time>2020-07-21T13:10:26.000Z</time>
      </trkpt>
      <trkpt lat="43.0169177" lon="-5.7708623">
        <ele>983.45</ele>
        <time>2020-07-21T13:10:27.000Z</time>
      </trkpt>
      <trkpt lat="43.0169198" lon="-5.7708773">
        <ele>983.45</ele>
        <time>2020-07-21T13:10:28.000Z</time>
      </trkpt>
      <trkpt lat="43.016922" lon="-5.7708932">
        <ele>983.45</ele>
        <time>2020-07-21T13:10:29.000Z</time>
      </trkpt>
      <trkpt lat="43.0169232" lon="-5.77091">
        <ele>983.6</ele>
        <time>2020-07-21T13:10:30.000Z</time>
      </trkpt>
      <trkpt lat="43.0169247" lon="-5.770928">
        <ele>983.6</ele>
        <time>2020-07-21T13:10:31.000Z</time>
      </trkpt>
      <trkpt lat="43.0169278" lon="-5.7709455">
        <ele>983.75</ele>
        <time>2020-07-21T13:10:32.000Z</time>
      </trkpt>
      <trkpt lat="43.0169333" lon="-5.770962">
        <ele>983.75</ele>
        <time>2020-07-21T13:10:33.000Z</time>
      </trkpt>
      <trkpt lat="43.0169393" lon="-5.7709755">
        <ele>983.91</ele>
        <time>2020-07-21T13:10:34.000Z</time>
      </trkpt>
      <trkpt lat="43.0169462" lon="-5.7709897">
        <ele>983.91</ele>
        <time>2020-07-21T13:10:35.000Z</time>
      </trkpt>
      <trkpt lat="43.0169533" lon="-5.771">
        <ele>984.06</ele>
        <time>2020-07-21T13:10:36.000Z</time>
      </trkpt>
      <trkpt lat="43.01696" lon="-5.7710127">
        <ele>984.06</ele>
        <time>2020-07-21T13:10:37.000Z</time>
      </trkpt>
      <trkpt lat="43.0169662" lon="-5.771025">
        <ele>984.21</ele>
        <time>2020-07-21T13:10:38.000Z</time>
      </trkpt>
      <trkpt lat="43.0169718" lon="-5.7710413">
        <ele>984.21</ele>
        <time>2020-07-21T13:10:39.000Z</time>
      </trkpt>
      <trkpt lat="43.0169803" lon="-5.7710562">
        <ele>984.36</ele>
        <time>2020-07-21T13:10:40.000Z</time>
      </trkpt>
      <trkpt lat="43.0169893" lon="-5.7710715">
        <ele>984.36</ele>
        <time>2020-07-21T13:10:41.000Z</time>
      </trkpt>
      <trkpt lat="43.0169973" lon="-5.7710873">
        <ele>984.52</ele>
        <time>2020-07-21T13:10:42.000Z</time>
      </trkpt>
      <trkpt lat="43.0170033" lon="-5.7711027">
        <ele>984.52</ele>
        <time>2020-07-21T13:10:43.000Z</time>
      </trkpt>
      <trkpt lat="43.0170087" lon="-5.7711175">
        <ele>984.67</ele>
        <time>2020-07-21T13:10:44.000Z</time>
      </trkpt>
      <trkpt lat="43.0170137" lon="-5.7711318">
        <ele>984.67</ele>
        <time>2020-07-21T13:10:45.000Z</time>
      </trkpt>
      <trkpt lat="43.0170192" lon="-5.7711467">
        <ele>984.82</ele>
        <time>2020-07-21T13:10:46.000Z</time>
      </trkpt>
      <trkpt lat="43.0170243" lon="-5.7711612">
        <ele>984.82</ele>
        <time>2020-07-21T13:10:47.000Z</time>
      </trkpt>
      <trkpt lat="43.0170313" lon="-5.771175">
        <ele>984.97</ele>
        <time>2020-07-21T13:10:48.000Z</time>
      </trkpt>
      <trkpt lat="43.0170403" lon="-5.7711892">
        <ele>984.97</ele>
        <time>2020-07-21T13:10:49.000Z</time>
      </trkpt>
      <trkpt lat="43.0170492" lon="-5.7712053">
        <ele>985.13</ele>
        <time>2020-07-21T13:10:50.000Z</time>
      </trkpt>
      <trkpt lat="43.017057" lon="-5.7712215">
        <ele>985.13</ele>
        <time>2020-07-21T13:10:51.000Z</time>
      </trkpt>
      <trkpt lat="43.0170618" lon="-5.7712378">
        <ele>985.28</ele>
        <time>2020-07-21T13:10:52.000Z</time>
      </trkpt>
      <trkpt lat="43.0170648" lon="-5.7712522">
        <ele>985.28</ele>
        <time>2020-07-21T13:10:53.000Z</time>
      </trkpt>
      <trkpt lat="43.0170667" lon="-5.7712683">
        <ele>985.43</ele>
        <time>2020-07-21T13:10:54.000Z</time>
      </trkpt>
      <trkpt lat="43.0170708" lon="-5.7712852">
        <ele>985.43</ele>
        <time>2020-07-21T13:10:55.000Z</time>
      </trkpt>
      <trkpt lat="43.017077" lon="-5.7713007">
        <ele>985.58</ele>
        <time>2020-07-21T13:10:56.000Z</time>
      </trkpt>
      <trkpt lat="43.0170817" lon="-5.7713162">
        <ele>985.58</ele>
        <time>2020-07-21T13:10:57.000Z</time>
      </trkpt>
      <trkpt lat="43.0170825" lon="-5.7713307">
        <ele>985.73</ele>
        <time>2020-07-21T13:10:58.000Z</time>
      </trkpt>
      <trkpt lat="43.0170823" lon="-5.7713465">
        <ele>985.73</ele>
        <time>2020-07-21T13:10:59.000Z</time>
      </trkpt>
      <trkpt lat="43.0170847" lon="-5.7713608">
        <ele>985.89</ele>
        <time>2020-07-21T13:11:00.000Z</time>
      </trkpt>
      <trkpt lat="43.0170883" lon="-5.7713765">
        <ele>985.89</ele>
        <time>2020-07-21T13:11:01.000Z</time>
      </trkpt>
      <trkpt lat="43.0170922" lon="-5.7713937">
        <ele>986.04</ele>
        <time>2020-07-21T13:11:02.000Z</time>
      </trkpt>
      <trkpt lat="43.0170957" lon="-5.7714142">
        <ele>986.04</ele>
        <time>2020-07-21T13:11:03.000Z</time>
      </trkpt>
      <trkpt lat="43.017099" lon="-5.771434">
        <ele>986.19</ele>
        <time>2020-07-21T13:11:04.000Z</time>
      </trkpt>
      <trkpt lat="43.0171035" lon="-5.7714518">
        <ele>986.19</ele>
        <time>2020-07-21T13:11:05.000Z</time>
      </trkpt>
      <trkpt lat="43.0171088" lon="-5.7714675">
        <ele>986.34</ele>
        <time>2020-07-21T13:11:06.000Z</time>
      </trkpt>
      <trkpt lat="43.0171165" lon="-5.7714823">
        <ele>986.34</ele>
        <time>2020-07-21T13:11:07.000Z</time>
      </trkpt>
      <trkpt lat="43.0171243" lon="-5.771497">
        <ele>986.5</ele>
        <time>2020-07-21T13:11:08.000Z</time>
      </trkpt>
      <trkpt lat="43.0171325" lon="-5.7715105">
        <ele>986.5</ele>
        <time>2020-07-21T13:11:09.000Z</time>
      </trkpt>
      <trkpt lat="43.0171372" lon="-5.7715228">
        <ele>986.65</ele>
        <time>2020-07-21T13:11:10.000Z</time>
      </trkpt>
      <trkpt lat="43.0171375" lon="-5.771535">
        <ele>986.65</ele>
        <time>2020-07-21T13:11:11.000Z</time>
      </trkpt>
      <trkpt lat="43.0171345" lon="-5.7715475">
        <ele>986.8</ele>
        <time>2020-07-21T13:11:12.000Z</time>
      </trkpt>
      <trkpt lat="43.0171305" lon="-5.7715618">
        <ele>986.8</ele>
        <time>2020-07-21T13:11:13.000Z</time>
      </trkpt>
      <trkpt lat="43.0171272" lon="-5.7715768">
        <ele>986.95</ele>
        <time>2020-07-21T13:11:14.000Z</time>
      </trkpt>
      <trkpt lat="43.0171243" lon="-5.771591">
        <ele>986.95</ele>
        <time>2020-07-21T13:11:15.000Z</time>
      </trkpt>
      <trkpt lat="43.0171222" lon="-5.7716052">
        <ele>987.11</ele>
        <time>2020-07-21T13:11:16.000Z</time>
      </trkpt>
      <trkpt lat="43.017121" lon="-5.7716198">
        <ele>987.11</ele>
        <time>2020-07-21T13:11:17.000Z</time>
      </trkpt>
      <trkpt lat="43.0171202" lon="-5.7716358">
        <ele>987.26</ele>
        <time>2020-07-21T13:11:18.000Z</time>
      </trkpt>
      <trkpt lat="43.0171202" lon="-5.771652">
        <ele>987.26</ele>
        <time>2020-07-21T13:11:19.000Z</time>
      </trkpt>
      <trkpt lat="43.0171197" lon="-5.7716675">
        <ele>987.41</ele>
        <time>2020-07-21T13:11:20.000Z</time>
      </trkpt>
      <trkpt lat="43.01712" lon="-5.7716833">
        <ele>987.41</ele>
        <time>2020-07-21T13:11:21.000Z</time>
      </trkpt>
      <trkpt lat="43.017121" lon="-5.7716985">
        <ele>987.56</ele>
        <time>2020-07-21T13:11:22.000Z</time>
      </trkpt>
      <trkpt lat="43.017123" lon="-5.7717137">
        <ele>987.56</ele>
        <time>2020-07-21T13:11:23.000Z</time>
      </trkpt>
      <trkpt lat="43.0171255" lon="-5.7717287">
        <ele>987.72</ele>
        <time>2020-07-21T13:11:24.000Z</time>
      </trkpt>
      <trkpt lat="43.0171288" lon="-5.7717435">
        <ele>987.72</ele>
        <time>2020-07-21T13:11:25.000Z</time>
      </trkpt>
      <trkpt lat="43.0171328" lon="-5.771758">
        <ele>987.72</ele>
        <time>2020-07-21T13:11:26.000Z</time>
      </trkpt>
      <trkpt lat="43.0171368" lon="-5.7717727">
        <ele>987.72</ele>
        <time>2020-07-21T13:11:27.000Z</time>
      </trkpt>
      <trkpt lat="43.01714" lon="-5.7717865">
        <ele>987.87</ele>
        <time>2020-07-21T13:11:28.000Z</time>
      </trkpt>
      <trkpt lat="43.017142" lon="-5.7718022">
        <ele>987.87</ele>
        <time>2020-07-21T13:11:29.000Z</time>
      </trkpt>
      <trkpt lat="43.0171428" lon="-5.7718177">
        <ele>988.02</ele>
        <time>2020-07-21T13:11:30.000Z</time>
      </trkpt>
      <trkpt lat="43.0171418" lon="-5.7718338">
        <ele>988.02</ele>
        <time>2020-07-21T13:11:31.000Z</time>
      </trkpt>
      <trkpt lat="43.0171397" lon="-5.7718515">
        <ele>988.02</ele>
        <time>2020-07-21T13:11:32.000Z</time>
      </trkpt>
      <trkpt lat="43.017137" lon="-5.771868">
        <ele>988.02</ele>
        <time>2020-07-21T13:11:33.000Z</time>
      </trkpt>
      <trkpt lat="43.0171362" lon="-5.7718842">
        <ele>988.17</ele>
        <time>2020-07-21T13:11:34.000Z</time>
      </trkpt>
      <trkpt lat="43.0171355" lon="-5.771897">
        <ele>988.17</ele>
        <time>2020-07-21T13:11:35.000Z</time>
      </trkpt>
      <trkpt lat="43.0171378" lon="-5.7719122">
        <ele>988.33</ele>
        <time>2020-07-21T13:11:36.000Z</time>
      </trkpt>
      <trkpt lat="43.0171413" lon="-5.7719282">
        <ele>988.33</ele>
        <time>2020-07-21T13:11:37.000Z</time>
      </trkpt>
      <trkpt lat="43.0171468" lon="-5.7719452">
        <ele>988.48</ele>
        <time>2020-07-21T13:11:38.000Z</time>
      </trkpt>
      <trkpt lat="43.0171503" lon="-5.7719595">
        <ele>988.48</ele>
        <time>2020-07-21T13:11:39.000Z</time>
      </trkpt>
      <trkpt lat="43.0171532" lon="-5.7719742">
        <ele>988.63</ele>
        <time>2020-07-21T13:11:40.000Z</time>
      </trkpt>
      <trkpt lat="43.0171558" lon="-5.7719888">
        <ele>988.63</ele>
        <time>2020-07-21T13:11:41.000Z</time>
      </trkpt>
      <trkpt lat="43.01716" lon="-5.7720062">
        <ele>988.78</ele>
        <time>2020-07-21T13:11:42.000Z</time>
      </trkpt>
      <trkpt lat="43.0171648" lon="-5.7720225">
        <ele>988.78</ele>
        <time>2020-07-21T13:11:43.000Z</time>
      </trkpt>
      <trkpt lat="43.0171695" lon="-5.7720378">
        <ele>988.94</ele>
        <time>2020-07-21T13:11:44.000Z</time>
      </trkpt>
      <trkpt lat="43.017175" lon="-5.7720517">
        <ele>988.94</ele>
        <time>2020-07-21T13:11:45.000Z</time>
      </trkpt>
      <trkpt lat="43.017181" lon="-5.7720655">
        <ele>988.94</ele>
        <time>2020-07-21T13:11:46.000Z</time>
      </trkpt>
      <trkpt lat="43.0171878" lon="-5.7720805">
        <ele>988.94</ele>
        <time>2020-07-21T13:11:47.000Z</time>
      </trkpt>
      <trkpt lat="43.0171933" lon="-5.772095">
        <ele>989.09</ele>
        <time>2020-07-21T13:11:48.000Z</time>
      </trkpt>
      <trkpt lat="43.0171968" lon="-5.7721097">
        <ele>989.09</ele>
        <time>2020-07-21T13:11:49.000Z</time>
      </trkpt>
      <trkpt lat="43.0172007" lon="-5.7721237">
        <ele>989.24</ele>
        <time>2020-07-21T13:11:50.000Z</time>
      </trkpt>
      <trkpt lat="43.0172047" lon="-5.7721383">
        <ele>989.24</ele>
        <time>2020-07-21T13:11:51.000Z</time>
      </trkpt>
      <trkpt lat="43.0172097" lon="-5.7721535">
        <ele>989.39</ele>
        <time>2020-07-21T13:11:52.000Z</time>
      </trkpt>
      <trkpt lat="43.017214" lon="-5.7721675">
        <ele>989.39</ele>
        <time>2020-07-21T13:11:53.000Z</time>
      </trkpt>
      <trkpt lat="43.017218" lon="-5.7721805">
        <ele>989.54</ele>
        <time>2020-07-21T13:11:54.000Z</time>
      </trkpt>
      <trkpt lat="43.017222" lon="-5.7721922">
        <ele>989.54</ele>
        <time>2020-07-21T13:11:55.000Z</time>
      </trkpt>
      <trkpt lat="43.017227" lon="-5.7722038">
        <ele>989.54</ele>
        <time>2020-07-21T13:11:56.000Z</time>
      </trkpt>
      <trkpt lat="43.0172333" lon="-5.7722158">
        <ele>989.54</ele>
        <time>2020-07-21T13:11:57.000Z</time>
      </trkpt>
      <trkpt lat="43.0172395" lon="-5.772228">
        <ele>989.7</ele>
        <time>2020-07-21T13:11:58.000Z</time>
      </trkpt>
      <trkpt lat="43.0172447" lon="-5.772241">
        <ele>989.7</ele>
        <time>2020-07-21T13:11:59.000Z</time>
      </trkpt>
      <trkpt lat="43.0172503" lon="-5.7722545">
        <ele>989.7</ele>
        <time>2020-07-21T13:12:00.000Z</time>
      </trkpt>
      <trkpt lat="43.017258" lon="-5.7722675">
        <ele>989.7</ele>
        <time>2020-07-21T13:12:01.000Z</time>
      </trkpt>
      <trkpt lat="43.0172683" lon="-5.7722777">
        <ele>989.85</ele>
        <time>2020-07-21T13:12:02.000Z</time>
      </trkpt>
      <trkpt lat="43.0172782" lon="-5.7722838">
        <ele>989.85</ele>
        <time>2020-07-21T13:12:03.000Z</time>
      </trkpt>
      <trkpt lat="43.0172865" lon="-5.7722892">
        <ele>990</ele>
        <time>2020-07-21T13:12:04.000Z</time>
      </trkpt>
      <trkpt lat="43.0172933" lon="-5.7722948">
        <ele>990</ele>
        <time>2020-07-21T13:12:05.000Z</time>
      </trkpt>
      <trkpt lat="43.0173" lon="-5.7723015">
        <ele>990</ele>
        <time>2020-07-21T13:12:06.000Z</time>
      </trkpt>
      <trkpt lat="43.0173065" lon="-5.7723058">
        <ele>990</ele>
        <time>2020-07-21T13:12:07.000Z</time>
      </trkpt>
      <trkpt lat="43.0173122" lon="-5.77231">
        <ele>990.16</ele>
        <time>2020-07-21T13:12:08.000Z</time>
      </trkpt>
      <trkpt lat="43.0173152" lon="-5.7723145">
        <ele>990.16</ele>
        <time>2020-07-21T13:12:09.000Z</time>
      </trkpt>
      <trkpt lat="43.017319" lon="-5.7723243">
        <ele>990.31</ele>
        <time>2020-07-21T13:12:10.000Z</time>
      </trkpt>
      <trkpt lat="43.0173238" lon="-5.7723353">
        <ele>990.31</ele>
        <time>2020-07-21T13:12:11.000Z</time>
      </trkpt>
      <trkpt lat="43.0173313" lon="-5.772348">
        <ele>990.31</ele>
        <time>2020-07-21T13:12:12.000Z</time>
      </trkpt>
      <trkpt lat="43.0173388" lon="-5.7723582">
        <ele>990.31</ele>
        <time>2020-07-21T13:12:13.000Z</time>
      </trkpt>
      <trkpt lat="43.0173472" lon="-5.772368">
        <ele>990.46</ele>
        <time>2020-07-21T13:12:14.000Z</time>
      </trkpt>
      <trkpt lat="43.0173555" lon="-5.7723768">
        <ele>990.46</ele>
        <time>2020-07-21T13:12:15.000Z</time>
      </trkpt>
      <trkpt lat="43.0173638" lon="-5.772385">
        <ele>990.46</ele>
        <time>2020-07-21T13:12:16.000Z</time>
      </trkpt>
      <trkpt lat="43.0173713" lon="-5.772393">
        <ele>990.46</ele>
        <time>2020-07-21T13:12:17.000Z</time>
      </trkpt>
      <trkpt lat="43.0173792" lon="-5.772402">
        <ele>990.46</ele>
        <time>2020-07-21T13:12:18.000Z</time>
      </trkpt>
      <trkpt lat="43.0173868" lon="-5.7724117">
        <ele>990.46</ele>
        <time>2020-07-21T13:12:19.000Z</time>
      </trkpt>
      <trkpt lat="43.0173945" lon="-5.7724227">
        <ele>990.46</ele>
        <time>2020-07-21T13:12:20.000Z</time>
      </trkpt>
      <trkpt lat="43.0174013" lon="-5.7724338">
        <ele>990.46</ele>
        <time>2020-07-21T13:12:21.000Z</time>
      </trkpt>
      <trkpt lat="43.0174088" lon="-5.7724447">
        <ele>990.61</ele>
        <time>2020-07-21T13:12:22.000Z</time>
      </trkpt>
      <trkpt lat="43.0174167" lon="-5.772455">
        <ele>990.61</ele>
        <time>2020-07-21T13:12:23.000Z</time>
      </trkpt>
      <trkpt lat="43.017425" lon="-5.7724638">
        <ele>990.61</ele>
        <time>2020-07-21T13:12:24.000Z</time>
      </trkpt>
      <trkpt lat="43.0174332" lon="-5.7724725">
        <ele>990.61</ele>
        <time>2020-07-21T13:12:25.000Z</time>
      </trkpt>
      <trkpt lat="43.017442" lon="-5.7724813">
        <ele>990.76</ele>
        <time>2020-07-21T13:12:26.000Z</time>
      </trkpt>
      <trkpt lat="43.0174507" lon="-5.7724905">
        <ele>990.76</ele>
        <time>2020-07-21T13:12:27.000Z</time>
      </trkpt>
      <trkpt lat="43.0174583" lon="-5.7724998">
        <ele>990.76</ele>
        <time>2020-07-21T13:12:28.000Z</time>
      </trkpt>
      <trkpt lat="43.0174662" lon="-5.7725088">
        <ele>990.76</ele>
        <time>2020-07-21T13:12:29.000Z</time>
      </trkpt>
      <trkpt lat="43.0174745" lon="-5.772517">
        <ele>990.92</ele>
        <time>2020-07-21T13:12:30.000Z</time>
      </trkpt>
      <trkpt lat="43.0174847" lon="-5.7725233">
        <ele>990.92</ele>
        <time>2020-07-21T13:12:31.000Z</time>
      </trkpt>
      <trkpt lat="43.0174945" lon="-5.7725275">
        <ele>990.92</ele>
        <time>2020-07-21T13:12:32.000Z</time>
      </trkpt>
      <trkpt lat="43.0175043" lon="-5.7725308">
        <ele>990.92</ele>
        <time>2020-07-21T13:12:33.000Z</time>
      </trkpt>
      <trkpt lat="43.0175128" lon="-5.7725348">
        <ele>991.07</ele>
        <time>2020-07-21T13:12:34.000Z</time>
      </trkpt>
      <trkpt lat="43.0175215" lon="-5.7725377">
        <ele>991.07</ele>
        <time>2020-07-21T13:12:35.000Z</time>
      </trkpt>
      <trkpt lat="43.0175312" lon="-5.7725387">
        <ele>991.07</ele>
        <time>2020-07-21T13:12:36.000Z</time>
      </trkpt>
      <trkpt lat="43.0175395" lon="-5.7725402">
        <ele>991.07</ele>
        <time>2020-07-21T13:12:37.000Z</time>
      </trkpt>
      <trkpt lat="43.0175463" lon="-5.7725425">
        <ele>991.07</ele>
        <time>2020-07-21T13:12:38.000Z</time>
      </trkpt>
      <trkpt lat="43.0175492" lon="-5.772545">
        <ele>991.07</ele>
        <time>2020-07-21T13:12:39.000Z</time>
      </trkpt>
      <trkpt lat="43.0175515" lon="-5.7725455">
        <ele>991.22</ele>
        <time>2020-07-21T13:12:40.000Z</time>
      </trkpt>
      <trkpt lat="43.0175532" lon="-5.7725445">
        <ele>991.22</ele>
        <time>2020-07-21T13:12:41.000Z</time>
      </trkpt>
      <trkpt lat="43.0175545" lon="-5.7725438">
        <ele>991.22</ele>
        <time>2020-07-21T13:12:42.000Z</time>
      </trkpt>
      <trkpt lat="43.0175547" lon="-5.7725425">
        <ele>991.22</ele>
        <time>2020-07-21T13:12:43.000Z</time>
      </trkpt>
      <trkpt lat="43.0175547" lon="-5.7725422">
        <ele>991.22</ele>
        <time>2020-07-21T13:12:44.000Z</time>
      </trkpt>
      <trkpt lat="43.0175545" lon="-5.7725418">
        <ele>991.22</ele>
        <time>2020-07-21T13:12:45.000Z</time>
      </trkpt>
      <trkpt lat="43.0175543" lon="-5.772542">
        <ele>991.37</ele>
        <time>2020-07-21T13:12:46.000Z</time>
      </trkpt>
      <trkpt lat="43.0175538" lon="-5.7725418">
        <ele>991.37</ele>
        <time>2020-07-21T13:12:47.000Z</time>
      </trkpt>
      <trkpt lat="43.017553" lon="-5.7725415">
        <ele>991.37</ele>
        <time>2020-07-21T13:12:48.000Z</time>
      </trkpt>
      <trkpt lat="43.0175527" lon="-5.7725407">
        <ele>991.37</ele>
        <time>2020-07-21T13:12:49.000Z</time>
      </trkpt>
      <trkpt lat="43.017553" lon="-5.7725408">
        <ele>991.53</ele>
        <time>2020-07-21T13:12:50.000Z</time>
      </trkpt>
      <trkpt lat="43.0175535" lon="-5.7725395">
        <ele>991.53</ele>
        <time>2020-07-21T13:12:51.000Z</time>
      </trkpt>
      <trkpt lat="43.017554" lon="-5.7725378">
        <ele>991.53</ele>
        <time>2020-07-21T13:12:52.000Z</time>
      </trkpt>
      <trkpt lat="43.0175543" lon="-5.7725365">
        <ele>991.53</ele>
        <time>2020-07-21T13:12:53.000Z</time>
      </trkpt>
      <trkpt lat="43.0175557" lon="-5.7725358">
        <ele>991.68</ele>
        <time>2020-07-21T13:12:54.000Z</time>
      </trkpt>
      <trkpt lat="43.0175582" lon="-5.7725363">
        <ele>991.68</ele>
        <time>2020-07-21T13:12:55.000Z</time>
      </trkpt>
      <trkpt lat="43.0175588" lon="-5.7725373">
        <ele>991.68</ele>
        <time>2020-07-21T13:12:56.000Z</time>
      </trkpt>
      <trkpt lat="43.0175588" lon="-5.7725392">
        <ele>991.68</ele>
        <time>2020-07-21T13:12:57.000Z</time>
      </trkpt>
      <trkpt lat="43.0175548" lon="-5.7725435">
        <ele>991.83</ele>
        <time>2020-07-21T13:12:58.000Z</time>
      </trkpt>
      <trkpt lat="43.0175535" lon="-5.7725457">
        <ele>991.83</ele>
        <time>2020-07-21T13:12:59.000Z</time>
      </trkpt>
      <trkpt lat="43.0175517" lon="-5.772547">
        <ele>991.83</ele>
        <time>2020-07-21T13:13:00.000Z</time>
      </trkpt>
      <trkpt lat="43.0175535" lon="-5.7725458">
        <ele>991.83</ele>
        <time>2020-07-21T13:13:01.000Z</time>
      </trkpt>
      <trkpt lat="43.0175535" lon="-5.7725447">
        <ele>991.98</ele>
        <time>2020-07-21T13:13:02.000Z</time>
      </trkpt>
      <trkpt lat="43.0175527" lon="-5.7725458">
        <ele>991.98</ele>
        <time>2020-07-21T13:13:03.000Z</time>
      </trkpt>
      <trkpt lat="43.0175495" lon="-5.772546">
        <ele>992.14</ele>
        <time>2020-07-21T13:13:04.000Z</time>
      </trkpt>
      <trkpt lat="43.017548" lon="-5.7725465">
        <ele>992.14</ele>
        <time>2020-07-21T13:13:05.000Z</time>
      </trkpt>
      <trkpt lat="43.0175488" lon="-5.7725465">
        <ele>992.14</ele>
        <time>2020-07-21T13:13:06.000Z</time>
      </trkpt>
      <trkpt lat="43.0175522" lon="-5.772547">
        <ele>992.14</ele>
        <time>2020-07-21T13:13:07.000Z</time>
      </trkpt>
      <trkpt lat="43.0175548" lon="-5.7725488">
        <ele>992.29</ele>
        <time>2020-07-21T13:13:08.000Z</time>
      </trkpt>
      <trkpt lat="43.0175553" lon="-5.7725508">
        <ele>992.29</ele>
        <time>2020-07-21T13:13:09.000Z</time>
      </trkpt>
      <trkpt lat="43.0175563" lon="-5.7725585">
        <ele>992.44</ele>
        <time>2020-07-21T13:13:10.000Z</time>
      </trkpt>
      <trkpt lat="43.01756" lon="-5.7725688">
        <ele>992.44</ele>
        <time>2020-07-21T13:13:11.000Z</time>
      </trkpt>
      <trkpt lat="43.0175675" lon="-5.7725818">
        <ele>992.44</ele>
        <time>2020-07-21T13:13:12.000Z</time>
      </trkpt>
      <trkpt lat="43.0175763" lon="-5.7725897">
        <ele>992.44</ele>
        <time>2020-07-21T13:13:13.000Z</time>
      </trkpt>
      <trkpt lat="43.0175843" lon="-5.7725957">
        <ele>992.59</ele>
        <time>2020-07-21T13:13:14.000Z</time>
      </trkpt>
      <trkpt lat="43.0175927" lon="-5.772601">
        <ele>992.59</ele>
        <time>2020-07-21T13:13:15.000Z</time>
      </trkpt>
      <trkpt lat="43.0175998" lon="-5.7726077">
        <ele>992.59</ele>
        <time>2020-07-21T13:13:16.000Z</time>
      </trkpt>
      <trkpt lat="43.017606" lon="-5.7726145">
        <ele>992.59</ele>
        <time>2020-07-21T13:13:17.000Z</time>
      </trkpt>
      <trkpt lat="43.0176102" lon="-5.772622">
        <ele>992.75</ele>
        <time>2020-07-21T13:13:18.000Z</time>
      </trkpt>
      <trkpt lat="43.0176143" lon="-5.7726313">
        <ele>992.75</ele>
        <time>2020-07-21T13:13:19.000Z</time>
      </trkpt>
      <trkpt lat="43.0176197" lon="-5.7726402">
        <ele>992.75</ele>
        <time>2020-07-21T13:13:20.000Z</time>
      </trkpt>
      <trkpt lat="43.0176245" lon="-5.7726477">
        <ele>992.75</ele>
        <time>2020-07-21T13:13:21.000Z</time>
      </trkpt>
      <trkpt lat="43.0176263" lon="-5.7726548">
        <ele>992.75</ele>
        <time>2020-07-21T13:13:22.000Z</time>
      </trkpt>
      <trkpt lat="43.0176258" lon="-5.7726635">
        <ele>992.75</ele>
        <time>2020-07-21T13:13:23.000Z</time>
      </trkpt>
      <trkpt lat="43.0176257" lon="-5.7726742">
        <ele>992.9</ele>
        <time>2020-07-21T13:13:24.000Z</time>
      </trkpt>
      <trkpt lat="43.0176275" lon="-5.7726847">
        <ele>992.9</ele>
        <time>2020-07-21T13:13:25.000Z</time>
      </trkpt>
      <trkpt lat="43.017631" lon="-5.7726942">
        <ele>992.9</ele>
        <time>2020-07-21T13:13:26.000Z</time>
      </trkpt>
      <trkpt lat="43.0176363" lon="-5.7727025">
        <ele>992.9</ele>
        <time>2020-07-21T13:13:27.000Z</time>
      </trkpt>
      <trkpt lat="43.0176422" lon="-5.7727105">
        <ele>992.9</ele>
        <time>2020-07-21T13:13:28.000Z</time>
      </trkpt>
      <trkpt lat="43.0176488" lon="-5.7727188">
        <ele>992.9</ele>
        <time>2020-07-21T13:13:29.000Z</time>
      </trkpt>
      <trkpt lat="43.0176552" lon="-5.7727267">
        <ele>993.05</ele>
        <time>2020-07-21T13:13:30.000Z</time>
      </trkpt>
      <trkpt lat="43.0176617" lon="-5.772734">
        <ele>993.05</ele>
        <time>2020-07-21T13:13:31.000Z</time>
      </trkpt>
      <trkpt lat="43.0176668" lon="-5.7727395">
        <ele>993.05</ele>
        <time>2020-07-21T13:13:32.000Z</time>
      </trkpt>
      <trkpt lat="43.0176695" lon="-5.7727437">
        <ele>993.05</ele>
        <time>2020-07-21T13:13:33.000Z</time>
      </trkpt>
      <trkpt lat="43.0176693" lon="-5.7727472">
        <ele>993.05</ele>
        <time>2020-07-21T13:13:34.000Z</time>
      </trkpt>
      <trkpt lat="43.0176687" lon="-5.7727533">
        <ele>993.05</ele>
        <time>2020-07-21T13:13:35.000Z</time>
      </trkpt>
      <trkpt lat="43.0176683" lon="-5.7727627">
        <ele>993.05</ele>
        <time>2020-07-21T13:13:36.000Z</time>
      </trkpt>
      <trkpt lat="43.01767" lon="-5.7727737">
        <ele>993.05</ele>
        <time>2020-07-21T13:13:37.000Z</time>
      </trkpt>
      <trkpt lat="43.017672" lon="-5.7727838">
        <ele>993.2</ele>
        <time>2020-07-21T13:13:38.000Z</time>
      </trkpt>
      <trkpt lat="43.0176753" lon="-5.772793">
        <ele>993.2</ele>
        <time>2020-07-21T13:13:39.000Z</time>
      </trkpt>
      <trkpt lat="43.0176795" lon="-5.7728023">
        <ele>993.2</ele>
        <time>2020-07-21T13:13:40.000Z</time>
      </trkpt>
      <trkpt lat="43.0176847" lon="-5.772811">
        <ele>993.2</ele>
        <time>2020-07-21T13:13:41.000Z</time>
      </trkpt>
      <trkpt lat="43.0176902" lon="-5.7728188">
        <ele>993.2</ele>
        <time>2020-07-21T13:13:42.000Z</time>
      </trkpt>
      <trkpt lat="43.0176975" lon="-5.772826">
        <ele>993.2</ele>
        <time>2020-07-21T13:13:43.000Z</time>
      </trkpt>
      <trkpt lat="43.0177043" lon="-5.7728338">
        <ele>993.2</ele>
        <time>2020-07-21T13:13:44.000Z</time>
      </trkpt>
      <trkpt lat="43.0177115" lon="-5.7728425">
        <ele>993.2</ele>
        <time>2020-07-21T13:13:45.000Z</time>
      </trkpt>
      <trkpt lat="43.0177168" lon="-5.7728518">
        <ele>993.2</ele>
        <time>2020-07-21T13:13:46.000Z</time>
      </trkpt>
      <trkpt lat="43.0177232" lon="-5.7728608">
        <ele>993.2</ele>
        <time>2020-07-21T13:13:47.000Z</time>
      </trkpt>
      <trkpt lat="43.0177278" lon="-5.7728662">
        <ele>993.35</ele>
        <time>2020-07-21T13:13:48.000Z</time>
      </trkpt>
      <trkpt lat="43.0177317" lon="-5.772869">
        <ele>993.35</ele>
        <time>2020-07-21T13:13:49.000Z</time>
      </trkpt>
      <trkpt lat="43.0177328" lon="-5.7728688">
        <ele>993.35</ele>
        <time>2020-07-21T13:13:50.000Z</time>
      </trkpt>
      <trkpt lat="43.0177337" lon="-5.7728697">
        <ele>993.35</ele>
        <time>2020-07-21T13:13:51.000Z</time>
      </trkpt>
      <trkpt lat="43.0177335" lon="-5.7728697">
        <ele>993.35</ele>
        <time>2020-07-21T13:13:52.000Z</time>
      </trkpt>
      <trkpt lat="43.0177335" lon="-5.7728698">
        <ele>993.35</ele>
        <time>2020-07-21T13:13:53.000Z</time>
      </trkpt>
      <trkpt lat="43.0177335" lon="-5.7728702">
        <ele>993.35</ele>
        <time>2020-07-21T13:13:54.000Z</time>
      </trkpt>
      <trkpt lat="43.0177338" lon="-5.7728705">
        <ele>993.35</ele>
        <time>2020-07-21T13:13:55.000Z</time>
      </trkpt>
      <trkpt lat="43.0177333" lon="-5.7728703">
        <ele>993.35</ele>
        <time>2020-07-21T13:13:56.000Z</time>
      </trkpt>
      <trkpt lat="43.0177327" lon="-5.7728727">
        <ele>993.35</ele>
        <time>2020-07-21T13:13:57.000Z</time>
      </trkpt>
      <trkpt lat="43.0177335" lon="-5.772879">
        <ele>993.35</ele>
        <time>2020-07-21T13:13:58.000Z</time>
      </trkpt>
      <trkpt lat="43.017736" lon="-5.7728885">
        <ele>993.35</ele>
        <time>2020-07-21T13:13:59.000Z</time>
      </trkpt>
      <trkpt lat="43.0177407" lon="-5.7728978">
        <ele>993.35</ele>
        <time>2020-07-21T13:14:00.000Z</time>
      </trkpt>
      <trkpt lat="43.0177458" lon="-5.7729052">
        <ele>993.35</ele>
        <time>2020-07-21T13:14:01.000Z</time>
      </trkpt>
      <trkpt lat="43.0177518" lon="-5.7729108">
        <ele>993.35</ele>
        <time>2020-07-21T13:14:02.000Z</time>
      </trkpt>
      <trkpt lat="43.017757" lon="-5.7729155">
        <ele>993.35</ele>
        <time>2020-07-21T13:14:03.000Z</time>
      </trkpt>
      <trkpt lat="43.0177608" lon="-5.7729182">
        <ele>993.35</ele>
        <time>2020-07-21T13:14:04.000Z</time>
      </trkpt>
      <trkpt lat="43.0177622" lon="-5.7729197">
        <ele>993.35</ele>
        <time>2020-07-21T13:14:05.000Z</time>
      </trkpt>
      <trkpt lat="43.0177628" lon="-5.7729197">
        <ele>993.35</ele>
        <time>2020-07-21T13:14:06.000Z</time>
      </trkpt>
      <trkpt lat="43.0177633" lon="-5.7729195">
        <ele>993.35</ele>
        <time>2020-07-21T13:14:07.000Z</time>
      </trkpt>
      <trkpt lat="43.0177635" lon="-5.7729198">
        <ele>993.35</ele>
        <time>2020-07-21T13:14:08.000Z</time>
      </trkpt>
      <trkpt lat="43.0177627" lon="-5.7729203">
        <ele>993.35</ele>
        <time>2020-07-21T13:14:09.000Z</time>
      </trkpt>
      <trkpt lat="43.0177615" lon="-5.772921">
        <ele>993.35</ele>
        <time>2020-07-21T13:14:10.000Z</time>
      </trkpt>
      <trkpt lat="43.0177607" lon="-5.772921">
        <ele>993.35</ele>
        <time>2020-07-21T13:14:11.000Z</time>
      </trkpt>
      <trkpt lat="43.0177602" lon="-5.7729207">
        <ele>993.35</ele>
        <time>2020-07-21T13:14:12.000Z</time>
      </trkpt>
      <trkpt lat="43.0177597" lon="-5.7729205">
        <ele>993.35</ele>
        <time>2020-07-21T13:14:13.000Z</time>
      </trkpt>
      <trkpt lat="43.0177593" lon="-5.7729205">
        <ele>993.35</ele>
        <time>2020-07-21T13:14:14.000Z</time>
      </trkpt>
      <trkpt lat="43.017759" lon="-5.7729205">
        <ele>993.35</ele>
        <time>2020-07-21T13:14:15.000Z</time>
      </trkpt>
      <trkpt lat="43.017759" lon="-5.7729203">
        <ele>993.35</ele>
        <time>2020-07-21T13:14:16.000Z</time>
      </trkpt>
      <trkpt lat="43.017759" lon="-5.77292">
        <ele>993.35</ele>
        <time>2020-07-21T13:14:17.000Z</time>
      </trkpt>
      <trkpt lat="43.0177595" lon="-5.7729197">
        <ele>993.2</ele>
        <time>2020-07-21T13:14:18.000Z</time>
      </trkpt>
      <trkpt lat="43.0177607" lon="-5.7729193">
        <ele>993.2</ele>
        <time>2020-07-21T13:14:19.000Z</time>
      </trkpt>
      <trkpt lat="43.017762" lon="-5.7729183">
        <ele>993.2</ele>
        <time>2020-07-21T13:14:20.000Z</time>
      </trkpt>
      <trkpt lat="43.0177633" lon="-5.7729173">
        <ele>993.2</ele>
        <time>2020-07-21T13:14:21.000Z</time>
      </trkpt>
      <trkpt lat="43.0177642" lon="-5.7729163">
        <ele>993.2</ele>
        <time>2020-07-21T13:14:22.000Z</time>
      </trkpt>
      <trkpt lat="43.0177657" lon="-5.772916">
        <ele>993.2</ele>
        <time>2020-07-21T13:14:23.000Z</time>
      </trkpt>
      <trkpt lat="43.0177665" lon="-5.7729148">
        <ele>993.05</ele>
        <time>2020-07-21T13:14:24.000Z</time>
      </trkpt>
      <trkpt lat="43.0177668" lon="-5.7729153">
        <ele>993.05</ele>
        <time>2020-07-21T13:14:25.000Z</time>
      </trkpt>
      <trkpt lat="43.0177673" lon="-5.772916">
        <ele>993.05</ele>
        <time>2020-07-21T13:14:26.000Z</time>
      </trkpt>
      <trkpt lat="43.017768" lon="-5.7729192">
        <ele>993.05</ele>
        <time>2020-07-21T13:14:27.000Z</time>
      </trkpt>
      <trkpt lat="43.0177693" lon="-5.7729207">
        <ele>993.05</ele>
        <time>2020-07-21T13:14:28.000Z</time>
      </trkpt>
      <trkpt lat="43.0177695" lon="-5.7729222">
        <ele>993.05</ele>
        <time>2020-07-21T13:14:29.000Z</time>
      </trkpt>
      <trkpt lat="43.0177698" lon="-5.7729227">
        <ele>992.9</ele>
        <time>2020-07-21T13:14:30.000Z</time>
      </trkpt>
      <trkpt lat="43.0177693" lon="-5.7729245">
        <ele>992.9</ele>
        <time>2020-07-21T13:14:31.000Z</time>
      </trkpt>
      <trkpt lat="43.0177678" lon="-5.7729277">
        <ele>992.9</ele>
        <time>2020-07-21T13:14:32.000Z</time>
      </trkpt>
      <trkpt lat="43.0177667" lon="-5.772931">
        <ele>992.9</ele>
        <time>2020-07-21T13:14:33.000Z</time>
      </trkpt>
      <trkpt lat="43.0177662" lon="-5.7729332">
        <ele>992.9</ele>
        <time>2020-07-21T13:14:34.000Z</time>
      </trkpt>
      <trkpt lat="43.0177663" lon="-5.7729345">
        <ele>992.9</ele>
        <time>2020-07-21T13:14:35.000Z</time>
      </trkpt>
      <trkpt lat="43.017767" lon="-5.7729352">
        <ele>992.9</ele>
        <time>2020-07-21T13:14:36.000Z</time>
      </trkpt>
      <trkpt lat="43.0177678" lon="-5.7729357">
        <ele>992.9</ele>
        <time>2020-07-21T13:14:37.000Z</time>
      </trkpt>
      <trkpt lat="43.0177688" lon="-5.7729362">
        <ele>992.9</ele>
        <time>2020-07-21T13:14:38.000Z</time>
      </trkpt>
      <trkpt lat="43.0177697" lon="-5.7729372">
        <ele>992.9</ele>
        <time>2020-07-21T13:14:39.000Z</time>
      </trkpt>
      <trkpt lat="43.0177708" lon="-5.772941">
        <ele>992.9</ele>
        <time>2020-07-21T13:14:40.000Z</time>
      </trkpt>
      <trkpt lat="43.0177743" lon="-5.772947">
        <ele>992.9</ele>
        <time>2020-07-21T13:14:41.000Z</time>
      </trkpt>
      <trkpt lat="43.0177805" lon="-5.7729545">
        <ele>992.9</ele>
        <time>2020-07-21T13:14:42.000Z</time>
      </trkpt>
      <trkpt lat="43.0177892" lon="-5.7729605">
        <ele>992.9</ele>
        <time>2020-07-21T13:14:43.000Z</time>
      </trkpt>
      <trkpt lat="43.0177983" lon="-5.7729663">
        <ele>992.9</ele>
        <time>2020-07-21T13:14:44.000Z</time>
      </trkpt>
      <trkpt lat="43.0178077" lon="-5.7729718">
        <ele>992.9</ele>
        <time>2020-07-21T13:14:45.000Z</time>
      </trkpt>
      <trkpt lat="43.0178173" lon="-5.772979">
        <ele>992.9</ele>
        <time>2020-07-21T13:14:46.000Z</time>
      </trkpt>
      <trkpt lat="43.0178275" lon="-5.7729863">
        <ele>992.9</ele>
        <time>2020-07-21T13:14:47.000Z</time>
      </trkpt>
      <trkpt lat="43.0178377" lon="-5.7729957">
        <ele>992.9</ele>
        <time>2020-07-21T13:14:48.000Z</time>
      </trkpt>
      <trkpt lat="43.017848" lon="-5.7730045">
        <ele>992.9</ele>
        <time>2020-07-21T13:14:49.000Z</time>
      </trkpt>
      <trkpt lat="43.0178577" lon="-5.7730137">
        <ele>992.9</ele>
        <time>2020-07-21T13:14:50.000Z</time>
      </trkpt>
      <trkpt lat="43.0178683" lon="-5.7730225">
        <ele>992.9</ele>
        <time>2020-07-21T13:14:51.000Z</time>
      </trkpt>
      <trkpt lat="43.0178793" lon="-5.773032">
        <ele>992.9</ele>
        <time>2020-07-21T13:14:52.000Z</time>
      </trkpt>
      <trkpt lat="43.0178912" lon="-5.7730423">
        <ele>992.9</ele>
        <time>2020-07-21T13:14:53.000Z</time>
      </trkpt>
      <trkpt lat="43.0179023" lon="-5.7730523">
        <ele>992.75</ele>
        <time>2020-07-21T13:14:54.000Z</time>
      </trkpt>
      <trkpt lat="43.0179128" lon="-5.7730625">
        <ele>992.75</ele>
        <time>2020-07-21T13:14:55.000Z</time>
      </trkpt>
      <trkpt lat="43.017923" lon="-5.7730725">
        <ele>992.75</ele>
        <time>2020-07-21T13:14:56.000Z</time>
      </trkpt>
      <trkpt lat="43.0179328" lon="-5.7730825">
        <ele>992.75</ele>
        <time>2020-07-21T13:14:57.000Z</time>
      </trkpt>
      <trkpt lat="43.0179427" lon="-5.7730932">
        <ele>992.75</ele>
        <time>2020-07-21T13:14:58.000Z</time>
      </trkpt>
      <trkpt lat="43.0179518" lon="-5.773104">
        <ele>992.75</ele>
        <time>2020-07-21T13:14:59.000Z</time>
      </trkpt>
      <trkpt lat="43.0179612" lon="-5.7731163">
        <ele>992.59</ele>
        <time>2020-07-21T13:15:00.000Z</time>
      </trkpt>
      <trkpt lat="43.0179702" lon="-5.7731275">
        <ele>992.59</ele>
        <time>2020-07-21T13:15:01.000Z</time>
      </trkpt>
      <trkpt lat="43.0179793" lon="-5.7731378">
        <ele>992.59</ele>
        <time>2020-07-21T13:15:02.000Z</time>
      </trkpt>
      <trkpt lat="43.017988" lon="-5.7731458">
        <ele>992.59</ele>
        <time>2020-07-21T13:15:03.000Z</time>
      </trkpt>
      <trkpt lat="43.0179965" lon="-5.7731538">
        <ele>992.59</ele>
        <time>2020-07-21T13:15:04.000Z</time>
      </trkpt>
      <trkpt lat="43.0180022" lon="-5.7731598">
        <ele>992.59</ele>
        <time>2020-07-21T13:15:05.000Z</time>
      </trkpt>
      <trkpt lat="43.0180055" lon="-5.773164">
        <ele>992.44</ele>
        <time>2020-07-21T13:15:06.000Z</time>
      </trkpt>
      <trkpt lat="43.0180057" lon="-5.7731653">
        <ele>992.44</ele>
        <time>2020-07-21T13:15:07.000Z</time>
      </trkpt>
      <trkpt lat="43.0180057" lon="-5.7731658">
        <ele>992.44</ele>
        <time>2020-07-21T13:15:08.000Z</time>
      </trkpt>
      <trkpt lat="43.0180053" lon="-5.7731653">
        <ele>992.44</ele>
        <time>2020-07-21T13:15:09.000Z</time>
      </trkpt>
      <trkpt lat="43.0180057" lon="-5.7731642">
        <ele>992.29</ele>
        <time>2020-07-21T13:15:10.000Z</time>
      </trkpt>
      <trkpt lat="43.0180065" lon="-5.7731632">
        <ele>992.29</ele>
        <time>2020-07-21T13:15:11.000Z</time>
      </trkpt>
      <trkpt lat="43.0180073" lon="-5.7731623">
        <ele>992.14</ele>
        <time>2020-07-21T13:15:12.000Z</time>
      </trkpt>
      <trkpt lat="43.018008" lon="-5.7731617">
        <ele>992.14</ele>
        <time>2020-07-21T13:15:13.000Z</time>
      </trkpt>
      <trkpt lat="43.0180073" lon="-5.7731598">
        <ele>992.14</ele>
        <time>2020-07-21T13:15:14.000Z</time>
      </trkpt>
      <trkpt lat="43.0180052" lon="-5.7731565">
        <ele>992.14</ele>
        <time>2020-07-21T13:15:15.000Z</time>
      </trkpt>
      <trkpt lat="43.0180012" lon="-5.7731537">
        <ele>991.98</ele>
        <time>2020-07-21T13:15:16.000Z</time>
      </trkpt>
      <trkpt lat="43.0179998" lon="-5.7731538">
        <ele>991.98</ele>
        <time>2020-07-21T13:15:17.000Z</time>
      </trkpt>
      <trkpt lat="43.0180043" lon="-5.7731592">
        <ele>991.83</ele>
        <time>2020-07-21T13:15:18.000Z</time>
      </trkpt>
      <trkpt lat="43.0180138" lon="-5.7731672">
        <ele>991.83</ele>
        <time>2020-07-21T13:15:19.000Z</time>
      </trkpt>
      <trkpt lat="43.0180243" lon="-5.7731757">
        <ele>991.68</ele>
        <time>2020-07-21T13:15:20.000Z</time>
      </trkpt>
      <trkpt lat="43.0180332" lon="-5.7731833">
        <ele>991.68</ele>
        <time>2020-07-21T13:15:21.000Z</time>
      </trkpt>
      <trkpt lat="43.0180415" lon="-5.7731908">
        <ele>991.68</ele>
        <time>2020-07-21T13:15:22.000Z</time>
      </trkpt>
      <trkpt lat="43.0180507" lon="-5.7731998">
        <ele>991.68</ele>
        <time>2020-07-21T13:15:23.000Z</time>
      </trkpt>
      <trkpt lat="43.0180603" lon="-5.7732095">
        <ele>991.53</ele>
        <time>2020-07-21T13:15:24.000Z</time>
      </trkpt>
      <trkpt lat="43.0180702" lon="-5.7732197">
        <ele>991.53</ele>
        <time>2020-07-21T13:15:25.000Z</time>
      </trkpt>
      <trkpt lat="43.01808" lon="-5.7732285">
        <ele>991.37</ele>
        <time>2020-07-21T13:15:26.000Z</time>
      </trkpt>
      <trkpt lat="43.0180902" lon="-5.7732368">
        <ele>991.37</ele>
        <time>2020-07-21T13:15:27.000Z</time>
      </trkpt>
      <trkpt lat="43.0181003" lon="-5.7732453">
        <ele>991.37</ele>
        <time>2020-07-21T13:15:28.000Z</time>
      </trkpt>
      <trkpt lat="43.0181102" lon="-5.7732553">
        <ele>991.37</ele>
        <time>2020-07-21T13:15:29.000Z</time>
      </trkpt>
      <trkpt lat="43.018119" lon="-5.7732668">
        <ele>991.22</ele>
        <time>2020-07-21T13:15:30.000Z</time>
      </trkpt>
      <trkpt lat="43.0181268" lon="-5.7732782">
        <ele>991.22</ele>
        <time>2020-07-21T13:15:31.000Z</time>
      </trkpt>
      <trkpt lat="43.0181333" lon="-5.7732888">
        <ele>991.22</ele>
        <time>2020-07-21T13:15:32.000Z</time>
      </trkpt>
      <trkpt lat="43.0181372" lon="-5.7732965">
        <ele>991.22</ele>
        <time>2020-07-21T13:15:33.000Z</time>
      </trkpt>
      <trkpt lat="43.0181387" lon="-5.7733015">
        <ele>991.07</ele>
        <time>2020-07-21T13:15:34.000Z</time>
      </trkpt>
      <trkpt lat="43.0181383" lon="-5.7733035">
        <ele>991.07</ele>
        <time>2020-07-21T13:15:35.000Z</time>
      </trkpt>
      <trkpt lat="43.0181377" lon="-5.7733048">
        <ele>991.07</ele>
        <time>2020-07-21T13:15:36.000Z</time>
      </trkpt>
      <trkpt lat="43.0181375" lon="-5.7733047">
        <ele>991.07</ele>
        <time>2020-07-21T13:15:37.000Z</time>
      </trkpt>
      <trkpt lat="43.0181408" lon="-5.7733097">
        <ele>990.92</ele>
        <time>2020-07-21T13:15:38.000Z</time>
      </trkpt>
      <trkpt lat="43.0181477" lon="-5.7733163">
        <ele>990.92</ele>
        <time>2020-07-21T13:15:39.000Z</time>
      </trkpt>
      <trkpt lat="43.0181583" lon="-5.7733263">
        <ele>990.92</ele>
        <time>2020-07-21T13:15:40.000Z</time>
      </trkpt>
      <trkpt lat="43.0181682" lon="-5.7733342">
        <ele>990.92</ele>
        <time>2020-07-21T13:15:41.000Z</time>
      </trkpt>
      <trkpt lat="43.0181778" lon="-5.7733432">
        <ele>990.92</ele>
        <time>2020-07-21T13:15:42.000Z</time>
      </trkpt>
      <trkpt lat="43.0181862" lon="-5.773353">
        <ele>990.92</ele>
        <time>2020-07-21T13:15:43.000Z</time>
      </trkpt>
      <trkpt lat="43.018195" lon="-5.7733625">
        <ele>990.76</ele>
        <time>2020-07-21T13:15:44.000Z</time>
      </trkpt>
      <trkpt lat="43.0182045" lon="-5.773372">
        <ele>990.76</ele>
        <time>2020-07-21T13:15:45.000Z</time>
      </trkpt>
      <trkpt lat="43.0182128" lon="-5.7733822">
        <ele>990.76</ele>
        <time>2020-07-21T13:15:46.000Z</time>
      </trkpt>
      <trkpt lat="43.0182207" lon="-5.7733943">
        <ele>990.76</ele>
        <time>2020-07-21T13:15:47.000Z</time>
      </trkpt>
      <trkpt lat="43.0182277" lon="-5.773409">
        <ele>990.76</ele>
        <time>2020-07-21T13:15:48.000Z</time>
      </trkpt>
      <trkpt lat="43.0182367" lon="-5.773425">
        <ele>990.76</ele>
        <time>2020-07-21T13:15:49.000Z</time>
      </trkpt>
      <trkpt lat="43.0182458" lon="-5.7734405">
        <ele>990.76</ele>
        <time>2020-07-21T13:15:50.000Z</time>
      </trkpt>
      <trkpt lat="43.0182553" lon="-5.7734545">
        <ele>990.76</ele>
        <time>2020-07-21T13:15:51.000Z</time>
      </trkpt>
      <trkpt lat="43.0182633" lon="-5.7734693">
        <ele>990.61</ele>
        <time>2020-07-21T13:15:52.000Z</time>
      </trkpt>
      <trkpt lat="43.018272" lon="-5.7734843">
        <ele>990.61</ele>
        <time>2020-07-21T13:15:53.000Z</time>
      </trkpt>
      <trkpt lat="43.0182795" lon="-5.7735002">
        <ele>990.61</ele>
        <time>2020-07-21T13:15:54.000Z</time>
      </trkpt>
      <trkpt lat="43.018288" lon="-5.7735147">
        <ele>990.61</ele>
        <time>2020-07-21T13:15:55.000Z</time>
      </trkpt>
      <trkpt lat="43.0182957" lon="-5.7735285">
        <ele>990.61</ele>
        <time>2020-07-21T13:15:56.000Z</time>
      </trkpt>
      <trkpt lat="43.0183038" lon="-5.773542">
        <ele>990.61</ele>
        <time>2020-07-21T13:15:57.000Z</time>
      </trkpt>
      <trkpt lat="43.0183122" lon="-5.7735555">
        <ele>990.61</ele>
        <time>2020-07-21T13:15:58.000Z</time>
      </trkpt>
      <trkpt lat="43.0183197" lon="-5.7735685">
        <ele>990.61</ele>
        <time>2020-07-21T13:15:59.000Z</time>
      </trkpt>
      <trkpt lat="43.018328" lon="-5.7735817">
        <ele>990.61</ele>
        <time>2020-07-21T13:16:00.000Z</time>
      </trkpt>
      <trkpt lat="43.0183365" lon="-5.7735953">
        <ele>990.61</ele>
        <time>2020-07-21T13:16:01.000Z</time>
      </trkpt>
      <trkpt lat="43.0183443" lon="-5.7736095">
        <ele>990.61</ele>
        <time>2020-07-21T13:16:02.000Z</time>
      </trkpt>
      <trkpt lat="43.0183507" lon="-5.773623">
        <ele>990.61</ele>
        <time>2020-07-21T13:16:03.000Z</time>
      </trkpt>
      <trkpt lat="43.0183548" lon="-5.7736362">
        <ele>990.46</ele>
        <time>2020-07-21T13:16:04.000Z</time>
      </trkpt>
      <trkpt lat="43.0183592" lon="-5.7736493">
        <ele>990.46</ele>
        <time>2020-07-21T13:16:05.000Z</time>
      </trkpt>
      <trkpt lat="43.0183628" lon="-5.7736618">
        <ele>990.46</ele>
        <time>2020-07-21T13:16:06.000Z</time>
      </trkpt>
      <trkpt lat="43.018366" lon="-5.7736725">
        <ele>990.46</ele>
        <time>2020-07-21T13:16:07.000Z</time>
      </trkpt>
      <trkpt lat="43.0183683" lon="-5.7736812">
        <ele>990.46</ele>
        <time>2020-07-21T13:16:08.000Z</time>
      </trkpt>
      <trkpt lat="43.0183698" lon="-5.773689">
        <ele>990.46</ele>
        <time>2020-07-21T13:16:09.000Z</time>
      </trkpt>
      <trkpt lat="43.0183708" lon="-5.7736942">
        <ele>990.46</ele>
        <time>2020-07-21T13:16:10.000Z</time>
      </trkpt>
      <trkpt lat="43.0183712" lon="-5.7736985">
        <ele>990.46</ele>
        <time>2020-07-21T13:16:11.000Z</time>
      </trkpt>
      <trkpt lat="43.0183708" lon="-5.7737">
        <ele>990.46</ele>
        <time>2020-07-21T13:16:12.000Z</time>
      </trkpt>
      <trkpt lat="43.0183703" lon="-5.7737005">
        <ele>990.46</ele>
        <time>2020-07-21T13:16:13.000Z</time>
      </trkpt>
      <trkpt lat="43.0183693" lon="-5.7736987">
        <ele>990.46</ele>
        <time>2020-07-21T13:16:14.000Z</time>
      </trkpt>
      <trkpt lat="43.0183693" lon="-5.7736943">
        <ele>990.46</ele>
        <time>2020-07-21T13:16:15.000Z</time>
      </trkpt>
      <trkpt lat="43.0183687" lon="-5.7736898">
        <ele>990.46</ele>
        <time>2020-07-21T13:16:16.000Z</time>
      </trkpt>
      <trkpt lat="43.0183675" lon="-5.7736865">
        <ele>990.46</ele>
        <time>2020-07-21T13:16:17.000Z</time>
      </trkpt>
      <trkpt lat="43.018366" lon="-5.773685">
        <ele>990.46</ele>
        <time>2020-07-21T13:16:18.000Z</time>
      </trkpt>
      <trkpt lat="43.0183653" lon="-5.773684">
        <ele>990.46</ele>
        <time>2020-07-21T13:16:19.000Z</time>
      </trkpt>
      <trkpt lat="43.0183643" lon="-5.7736833">
        <ele>990.31</ele>
        <time>2020-07-21T13:16:20.000Z</time>
      </trkpt>
      <trkpt lat="43.0183635" lon="-5.773683">
        <ele>990.31</ele>
        <time>2020-07-21T13:16:21.000Z</time>
      </trkpt>
      <trkpt lat="43.0183633" lon="-5.7736843">
        <ele>990.31</ele>
        <time>2020-07-21T13:16:22.000Z</time>
      </trkpt>
      <trkpt lat="43.0183638" lon="-5.7736868">
        <ele>990.31</ele>
        <time>2020-07-21T13:16:23.000Z</time>
      </trkpt>
      <trkpt lat="43.0183648" lon="-5.7736905">
        <ele>990.31</ele>
        <time>2020-07-21T13:16:24.000Z</time>
      </trkpt>
      <trkpt lat="43.0183653" lon="-5.7736923">
        <ele>990.31</ele>
        <time>2020-07-21T13:16:25.000Z</time>
      </trkpt>
      <trkpt lat="43.0183657" lon="-5.7736928">
        <ele>990.31</ele>
        <time>2020-07-21T13:16:26.000Z</time>
      </trkpt>
      <trkpt lat="43.018366" lon="-5.7736928">
        <ele>990.31</ele>
        <time>2020-07-21T13:16:27.000Z</time>
      </trkpt>
      <trkpt lat="43.018366" lon="-5.7736932">
        <ele>990.31</ele>
        <time>2020-07-21T13:16:28.000Z</time>
      </trkpt>
      <trkpt lat="43.0183662" lon="-5.7736938">
        <ele>990.31</ele>
        <time>2020-07-21T13:16:29.000Z</time>
      </trkpt>
      <trkpt lat="43.0183657" lon="-5.773694">
        <ele>990.31</ele>
        <time>2020-07-21T13:16:30.000Z</time>
      </trkpt>
      <trkpt lat="43.0183645" lon="-5.7736943">
        <ele>990.31</ele>
        <time>2020-07-21T13:16:31.000Z</time>
      </trkpt>
      <trkpt lat="43.0183633" lon="-5.7736947">
        <ele>990.16</ele>
        <time>2020-07-21T13:16:32.000Z</time>
      </trkpt>
      <trkpt lat="43.0183623" lon="-5.7736947">
        <ele>990.16</ele>
        <time>2020-07-21T13:16:33.000Z</time>
      </trkpt>
      <trkpt lat="43.0183617" lon="-5.7736947">
        <ele>990.16</ele>
        <time>2020-07-21T13:16:34.000Z</time>
      </trkpt>
      <trkpt lat="43.0183615" lon="-5.7736945">
        <ele>990.16</ele>
        <time>2020-07-21T13:16:35.000Z</time>
      </trkpt>
      <trkpt lat="43.0183615" lon="-5.7736945">
        <ele>990.16</ele>
        <time>2020-07-21T13:16:36.000Z</time>
      </trkpt>
      <trkpt lat="43.0183613" lon="-5.7736947">
        <ele>990.16</ele>
        <time>2020-07-21T13:16:37.000Z</time>
      </trkpt>
      <trkpt lat="43.0183612" lon="-5.7736952">
        <ele>990.16</ele>
        <time>2020-07-21T13:16:38.000Z</time>
      </trkpt>
      <trkpt lat="43.0183617" lon="-5.773696">
        <ele>990.16</ele>
        <time>2020-07-21T13:16:39.000Z</time>
      </trkpt>
      <trkpt lat="43.0183632" lon="-5.7736965">
        <ele>990.16</ele>
        <time>2020-07-21T13:16:40.000Z</time>
      </trkpt>
      <trkpt lat="43.0183653" lon="-5.7736972">
        <ele>990.16</ele>
        <time>2020-07-21T13:16:41.000Z</time>
      </trkpt>
      <trkpt lat="43.0183668" lon="-5.773698">
        <ele>990.16</ele>
        <time>2020-07-21T13:16:42.000Z</time>
      </trkpt>
      <trkpt lat="43.0183677" lon="-5.7737">
        <ele>990.16</ele>
        <time>2020-07-21T13:16:43.000Z</time>
      </trkpt>
      <trkpt lat="43.0183678" lon="-5.7737017">
        <ele>990</ele>
        <time>2020-07-21T13:16:44.000Z</time>
      </trkpt>
      <trkpt lat="43.0183677" lon="-5.7737025">
        <ele>990</ele>
        <time>2020-07-21T13:16:45.000Z</time>
      </trkpt>
      <trkpt lat="43.0183673" lon="-5.7737018">
        <ele>990</ele>
        <time>2020-07-21T13:16:46.000Z</time>
      </trkpt>
      <trkpt lat="43.0183673" lon="-5.7736998">
        <ele>990</ele>
        <time>2020-07-21T13:16:47.000Z</time>
      </trkpt>
      <trkpt lat="43.0183677" lon="-5.7736973">
        <ele>989.85</ele>
        <time>2020-07-21T13:16:48.000Z</time>
      </trkpt>
      <trkpt lat="43.0183687" lon="-5.7736963">
        <ele>989.85</ele>
        <time>2020-07-21T13:16:49.000Z</time>
      </trkpt>
      <trkpt lat="43.0183712" lon="-5.7736968">
        <ele>989.85</ele>
        <time>2020-07-21T13:16:50.000Z</time>
      </trkpt>
      <trkpt lat="43.018375" lon="-5.7737003">
        <ele>989.85</ele>
        <time>2020-07-21T13:16:51.000Z</time>
      </trkpt>
      <trkpt lat="43.0183793" lon="-5.7737033">
        <ele>989.85</ele>
        <time>2020-07-21T13:16:52.000Z</time>
      </trkpt>
      <trkpt lat="43.0183837" lon="-5.7737097">
        <ele>989.85</ele>
        <time>2020-07-21T13:16:53.000Z</time>
      </trkpt>
      <trkpt lat="43.0183875" lon="-5.7737165">
        <ele>989.85</ele>
        <time>2020-07-21T13:16:54.000Z</time>
      </trkpt>
      <trkpt lat="43.0183915" lon="-5.773726">
        <ele>989.85</ele>
        <time>2020-07-21T13:16:55.000Z</time>
      </trkpt>
      <trkpt lat="43.0183942" lon="-5.773736">
        <ele>989.85</ele>
        <time>2020-07-21T13:16:56.000Z</time>
      </trkpt>
      <trkpt lat="43.0183975" lon="-5.7737487">
        <ele>989.85</ele>
        <time>2020-07-21T13:16:57.000Z</time>
      </trkpt>
      <trkpt lat="43.0184013" lon="-5.773763">
        <ele>989.7</ele>
        <time>2020-07-21T13:16:58.000Z</time>
      </trkpt>
      <trkpt lat="43.018407" lon="-5.7737772">
        <ele>989.7</ele>
        <time>2020-07-21T13:16:59.000Z</time>
      </trkpt>
      <trkpt lat="43.0184165" lon="-5.7737887">
        <ele>989.7</ele>
        <time>2020-07-21T13:17:00.000Z</time>
      </trkpt>
      <trkpt lat="43.0184255" lon="-5.7738012">
        <ele>989.7</ele>
        <time>2020-07-21T13:17:01.000Z</time>
      </trkpt>
      <trkpt lat="43.0184342" lon="-5.7738135">
        <ele>989.7</ele>
        <time>2020-07-21T13:17:02.000Z</time>
      </trkpt>
      <trkpt lat="43.0184405" lon="-5.7738262">
        <ele>989.7</ele>
        <time>2020-07-21T13:17:03.000Z</time>
      </trkpt>
      <trkpt lat="43.0184483" lon="-5.7738375">
        <ele>989.7</ele>
        <time>2020-07-21T13:17:04.000Z</time>
      </trkpt>
      <trkpt lat="43.0184572" lon="-5.7738477">
        <ele>989.7</ele>
        <time>2020-07-21T13:17:05.000Z</time>
      </trkpt>
      <trkpt lat="43.0184647" lon="-5.7738605">
        <ele>989.7</ele>
        <time>2020-07-21T13:17:06.000Z</time>
      </trkpt>
      <trkpt lat="43.018472" lon="-5.7738738">
        <ele>989.7</ele>
        <time>2020-07-21T13:17:07.000Z</time>
      </trkpt>
      <trkpt lat="43.0184792" lon="-5.7738882">
        <ele>989.54</ele>
        <time>2020-07-21T13:17:08.000Z</time>
      </trkpt>
      <trkpt lat="43.018487" lon="-5.7739005">
        <ele>989.54</ele>
        <time>2020-07-21T13:17:09.000Z</time>
      </trkpt>
      <trkpt lat="43.018495" lon="-5.7739123">
        <ele>989.54</ele>
        <time>2020-07-21T13:17:10.000Z</time>
      </trkpt>
      <trkpt lat="43.0185012" lon="-5.7739242">
        <ele>989.54</ele>
        <time>2020-07-21T13:17:11.000Z</time>
      </trkpt>
      <trkpt lat="43.0185052" lon="-5.7739368">
        <ele>989.54</ele>
        <time>2020-07-21T13:17:12.000Z</time>
      </trkpt>
      <trkpt lat="43.0185082" lon="-5.7739488">
        <ele>989.54</ele>
        <time>2020-07-21T13:17:13.000Z</time>
      </trkpt>
      <trkpt lat="43.0185113" lon="-5.77396">
        <ele>989.54</ele>
        <time>2020-07-21T13:17:14.000Z</time>
      </trkpt>
      <trkpt lat="43.0185152" lon="-5.773972">
        <ele>989.54</ele>
        <time>2020-07-21T13:17:15.000Z</time>
      </trkpt>
      <trkpt lat="43.0185178" lon="-5.7739853">
        <ele>989.54</ele>
        <time>2020-07-21T13:17:16.000Z</time>
      </trkpt>
      <trkpt lat="43.0185202" lon="-5.773999">
        <ele>989.54</ele>
        <time>2020-07-21T13:17:17.000Z</time>
      </trkpt>
      <trkpt lat="43.0185218" lon="-5.7740115">
        <ele>989.54</ele>
        <time>2020-07-21T13:17:18.000Z</time>
      </trkpt>
      <trkpt lat="43.0185235" lon="-5.7740237">
        <ele>989.54</ele>
        <time>2020-07-21T13:17:19.000Z</time>
      </trkpt>
      <trkpt lat="43.0185247" lon="-5.7740373">
        <ele>989.54</ele>
        <time>2020-07-21T13:17:20.000Z</time>
      </trkpt>
      <trkpt lat="43.0185252" lon="-5.7740532">
        <ele>989.54</ele>
        <time>2020-07-21T13:17:21.000Z</time>
      </trkpt>
      <trkpt lat="43.0185265" lon="-5.7740693">
        <ele>989.54</ele>
        <time>2020-07-21T13:17:22.000Z</time>
      </trkpt>
      <trkpt lat="43.0185288" lon="-5.7740855">
        <ele>989.54</ele>
        <time>2020-07-21T13:17:23.000Z</time>
      </trkpt>
      <trkpt lat="43.018532" lon="-5.7741002">
        <ele>989.54</ele>
        <time>2020-07-21T13:17:24.000Z</time>
      </trkpt>
      <trkpt lat="43.018535" lon="-5.7741143">
        <ele>989.54</ele>
        <time>2020-07-21T13:17:25.000Z</time>
      </trkpt>
      <trkpt lat="43.0185375" lon="-5.7741278">
        <ele>989.54</ele>
        <time>2020-07-21T13:17:26.000Z</time>
      </trkpt>
      <trkpt lat="43.0185395" lon="-5.7741427">
        <ele>989.54</ele>
        <time>2020-07-21T13:17:27.000Z</time>
      </trkpt>
      <trkpt lat="43.0185425" lon="-5.7741578">
        <ele>989.54</ele>
        <time>2020-07-21T13:17:28.000Z</time>
      </trkpt>
      <trkpt lat="43.0185458" lon="-5.774173">
        <ele>989.54</ele>
        <time>2020-07-21T13:17:29.000Z</time>
      </trkpt>
      <trkpt lat="43.01855" lon="-5.7741888">
        <ele>989.39</ele>
        <time>2020-07-21T13:17:30.000Z</time>
      </trkpt>
      <trkpt lat="43.0185517" lon="-5.7742058">
        <ele>989.39</ele>
        <time>2020-07-21T13:17:31.000Z</time>
      </trkpt>
      <trkpt lat="43.0185532" lon="-5.7742233">
        <ele>989.39</ele>
        <time>2020-07-21T13:17:32.000Z</time>
      </trkpt>
      <trkpt lat="43.018554" lon="-5.774239">
        <ele>989.39</ele>
        <time>2020-07-21T13:17:33.000Z</time>
      </trkpt>
      <trkpt lat="43.0185563" lon="-5.7742532">
        <ele>989.39</ele>
        <time>2020-07-21T13:17:34.000Z</time>
      </trkpt>
      <trkpt lat="43.018559" lon="-5.7742675">
        <ele>989.39</ele>
        <time>2020-07-21T13:17:35.000Z</time>
      </trkpt>
      <trkpt lat="43.018562" lon="-5.7742823">
        <ele>989.24</ele>
        <time>2020-07-21T13:17:36.000Z</time>
      </trkpt>
      <trkpt lat="43.018564" lon="-5.774297">
        <ele>989.24</ele>
        <time>2020-07-21T13:17:37.000Z</time>
      </trkpt>
      <trkpt lat="43.018565" lon="-5.7743117">
        <ele>989.24</ele>
        <time>2020-07-21T13:17:38.000Z</time>
      </trkpt>
      <trkpt lat="43.0185668" lon="-5.7743247">
        <ele>989.24</ele>
        <time>2020-07-21T13:17:39.000Z</time>
      </trkpt>
      <trkpt lat="43.0185728" lon="-5.7743378">
        <ele>989.09</ele>
        <time>2020-07-21T13:17:40.000Z</time>
      </trkpt>
      <trkpt lat="43.0185788" lon="-5.7743493">
        <ele>989.09</ele>
        <time>2020-07-21T13:17:41.000Z</time>
      </trkpt>
      <trkpt lat="43.0185853" lon="-5.7743613">
        <ele>989.09</ele>
        <time>2020-07-21T13:17:42.000Z</time>
      </trkpt>
      <trkpt lat="43.01859" lon="-5.7743748">
        <ele>989.09</ele>
        <time>2020-07-21T13:17:43.000Z</time>
      </trkpt>
      <trkpt lat="43.0185965" lon="-5.7743905">
        <ele>988.94</ele>
        <time>2020-07-21T13:17:44.000Z</time>
      </trkpt>
      <trkpt lat="43.018603" lon="-5.7744073">
        <ele>988.94</ele>
        <time>2020-07-21T13:17:45.000Z</time>
      </trkpt>
      <trkpt lat="43.0186088" lon="-5.7744233">
        <ele>988.78</ele>
        <time>2020-07-21T13:17:46.000Z</time>
      </trkpt>
      <trkpt lat="43.0186127" lon="-5.7744368">
        <ele>988.78</ele>
        <time>2020-07-21T13:17:47.000Z</time>
      </trkpt>
      <trkpt lat="43.0186165" lon="-5.7744503">
        <ele>988.78</ele>
        <time>2020-07-21T13:17:48.000Z</time>
      </trkpt>
      <trkpt lat="43.0186208" lon="-5.7744632">
        <ele>988.78</ele>
        <time>2020-07-21T13:17:49.000Z</time>
      </trkpt>
      <trkpt lat="43.0186263" lon="-5.7744768">
        <ele>988.63</ele>
        <time>2020-07-21T13:17:50.000Z</time>
      </trkpt>
      <trkpt lat="43.0186315" lon="-5.7744893">
        <ele>988.63</ele>
        <time>2020-07-21T13:17:51.000Z</time>
      </trkpt>
      <trkpt lat="43.0186368" lon="-5.774502">
        <ele>988.48</ele>
        <time>2020-07-21T13:17:52.000Z</time>
      </trkpt>
      <trkpt lat="43.018642" lon="-5.7745138">
        <ele>988.48</ele>
        <time>2020-07-21T13:17:53.000Z</time>
      </trkpt>
      <trkpt lat="43.0186472" lon="-5.7745257">
        <ele>988.33</ele>
        <time>2020-07-21T13:17:54.000Z</time>
      </trkpt>
      <trkpt lat="43.018653" lon="-5.7745372">
        <ele>988.33</ele>
        <time>2020-07-21T13:17:55.000Z</time>
      </trkpt>
      <trkpt lat="43.0186598" lon="-5.7745495">
        <ele>988.17</ele>
        <time>2020-07-21T13:17:56.000Z</time>
      </trkpt>
      <trkpt lat="43.018668" lon="-5.7745608">
        <ele>988.17</ele>
        <time>2020-07-21T13:17:57.000Z</time>
      </trkpt>
      <trkpt lat="43.018676" lon="-5.774571">
        <ele>988.02</ele>
        <time>2020-07-21T13:17:58.000Z</time>
      </trkpt>
      <trkpt lat="43.0186842" lon="-5.7745812">
        <ele>988.02</ele>
        <time>2020-07-21T13:17:59.000Z</time>
      </trkpt>
      <trkpt lat="43.0186928" lon="-5.7745917">
        <ele>988.02</ele>
        <time>2020-07-21T13:18:00.000Z</time>
      </trkpt>
      <trkpt lat="43.0187035" lon="-5.7746062">
        <ele>988.02</ele>
        <time>2020-07-21T13:18:01.000Z</time>
      </trkpt>
      <trkpt lat="43.0187137" lon="-5.7746185">
        <ele>987.87</ele>
        <time>2020-07-21T13:18:02.000Z</time>
      </trkpt>
      <trkpt lat="43.0187238" lon="-5.7746298">
        <ele>987.87</ele>
        <time>2020-07-21T13:18:03.000Z</time>
      </trkpt>
      <trkpt lat="43.0187327" lon="-5.7746382">
        <ele>987.72</ele>
        <time>2020-07-21T13:18:04.000Z</time>
      </trkpt>
      <trkpt lat="43.018744" lon="-5.7746482">
        <ele>987.72</ele>
        <time>2020-07-21T13:18:05.000Z</time>
      </trkpt>
      <trkpt lat="43.0187563" lon="-5.7746583">
        <ele>987.56</ele>
        <time>2020-07-21T13:18:06.000Z</time>
      </trkpt>
      <trkpt lat="43.0187673" lon="-5.7746693">
        <ele>987.56</ele>
        <time>2020-07-21T13:18:07.000Z</time>
      </trkpt>
      <trkpt lat="43.0187765" lon="-5.7746807">
        <ele>987.56</ele>
        <time>2020-07-21T13:18:08.000Z</time>
      </trkpt>
      <trkpt lat="43.0187847" lon="-5.7746928">
        <ele>987.56</ele>
        <time>2020-07-21T13:18:09.000Z</time>
      </trkpt>
      <trkpt lat="43.0187935" lon="-5.774704">
        <ele>987.41</ele>
        <time>2020-07-21T13:18:10.000Z</time>
      </trkpt>
      <trkpt lat="43.0188027" lon="-5.7747148">
        <ele>987.41</ele>
        <time>2020-07-21T13:18:11.000Z</time>
      </trkpt>
      <trkpt lat="43.0188117" lon="-5.7747253">
        <ele>987.26</ele>
        <time>2020-07-21T13:18:12.000Z</time>
      </trkpt>
      <trkpt lat="43.018821" lon="-5.7747352">
        <ele>987.26</ele>
        <time>2020-07-21T13:18:13.000Z</time>
      </trkpt>
      <trkpt lat="43.0188297" lon="-5.7747445">
        <ele>987.26</ele>
        <time>2020-07-21T13:18:14.000Z</time>
      </trkpt>
      <trkpt lat="43.0188382" lon="-5.774754">
        <ele>987.26</ele>
        <time>2020-07-21T13:18:15.000Z</time>
      </trkpt>
      <trkpt lat="43.0188465" lon="-5.7747647">
        <ele>987.11</ele>
        <time>2020-07-21T13:18:16.000Z</time>
      </trkpt>
      <trkpt lat="43.0188553" lon="-5.7747758">
        <ele>987.11</ele>
        <time>2020-07-21T13:18:17.000Z</time>
      </trkpt>
      <trkpt lat="43.0188645" lon="-5.7747872">
        <ele>986.95</ele>
        <time>2020-07-21T13:18:18.000Z</time>
      </trkpt>
      <trkpt lat="43.0188737" lon="-5.7747972">
        <ele>986.95</ele>
        <time>2020-07-21T13:18:19.000Z</time>
      </trkpt>
      <trkpt lat="43.0188828" lon="-5.7748068">
        <ele>986.95</ele>
        <time>2020-07-21T13:18:20.000Z</time>
      </trkpt>
      <trkpt lat="43.0188918" lon="-5.7748163">
        <ele>986.95</ele>
        <time>2020-07-21T13:18:21.000Z</time>
      </trkpt>
      <trkpt lat="43.0189012" lon="-5.7748263">
        <ele>986.8</ele>
        <time>2020-07-21T13:18:22.000Z</time>
      </trkpt>
      <trkpt lat="43.0189103" lon="-5.774836">
        <ele>986.8</ele>
        <time>2020-07-21T13:18:23.000Z</time>
      </trkpt>
      <trkpt lat="43.0189193" lon="-5.7748455">
        <ele>986.8</ele>
        <time>2020-07-21T13:18:24.000Z</time>
      </trkpt>
      <trkpt lat="43.0189277" lon="-5.774854">
        <ele>986.8</ele>
        <time>2020-07-21T13:18:25.000Z</time>
      </trkpt>
      <trkpt lat="43.018937" lon="-5.774863">
        <ele>986.65</ele>
        <time>2020-07-21T13:18:26.000Z</time>
      </trkpt>
      <trkpt lat="43.0189462" lon="-5.7748728">
        <ele>986.65</ele>
        <time>2020-07-21T13:18:27.000Z</time>
      </trkpt>
      <trkpt lat="43.0189548" lon="-5.7748847">
        <ele>986.5</ele>
        <time>2020-07-21T13:18:28.000Z</time>
      </trkpt>
      <trkpt lat="43.0189622" lon="-5.7748962">
        <ele>986.5</ele>
        <time>2020-07-21T13:18:29.000Z</time>
      </trkpt>
      <trkpt lat="43.0189702" lon="-5.7749072">
        <ele>986.5</ele>
        <time>2020-07-21T13:18:30.000Z</time>
      </trkpt>
      <trkpt lat="43.0189787" lon="-5.7749173">
        <ele>986.5</ele>
        <time>2020-07-21T13:18:31.000Z</time>
      </trkpt>
      <trkpt lat="43.0189878" lon="-5.7749275">
        <ele>986.34</ele>
        <time>2020-07-21T13:18:32.000Z</time>
      </trkpt>
      <trkpt lat="43.0189958" lon="-5.7749383">
        <ele>986.34</ele>
        <time>2020-07-21T13:18:33.000Z</time>
      </trkpt>
      <trkpt lat="43.0190037" lon="-5.7749502">
        <ele>986.34</ele>
        <time>2020-07-21T13:18:34.000Z</time>
      </trkpt>
      <trkpt lat="43.0190117" lon="-5.7749615">
        <ele>986.34</ele>
        <time>2020-07-21T13:18:35.000Z</time>
      </trkpt>
      <trkpt lat="43.0190198" lon="-5.7749722">
        <ele>986.19</ele>
        <time>2020-07-21T13:18:36.000Z</time>
      </trkpt>
      <trkpt lat="43.0190275" lon="-5.7749822">
        <ele>986.19</ele>
        <time>2020-07-21T13:18:37.000Z</time>
      </trkpt>
      <trkpt lat="43.0190348" lon="-5.7749933">
        <ele>986.19</ele>
        <time>2020-07-21T13:18:38.000Z</time>
      </trkpt>
      <trkpt lat="43.0190423" lon="-5.7750052">
        <ele>986.19</ele>
        <time>2020-07-21T13:18:39.000Z</time>
      </trkpt>
      <trkpt lat="43.0190498" lon="-5.7750168">
        <ele>986.19</ele>
        <time>2020-07-21T13:18:40.000Z</time>
      </trkpt>
      <trkpt lat="43.0190575" lon="-5.775028">
        <ele>986.19</ele>
        <time>2020-07-21T13:18:41.000Z</time>
      </trkpt>
      <trkpt lat="43.0190657" lon="-5.7750372">
        <ele>986.19</ele>
        <time>2020-07-21T13:18:42.000Z</time>
      </trkpt>
      <trkpt lat="43.0190743" lon="-5.7750457">
        <ele>986.19</ele>
        <time>2020-07-21T13:18:43.000Z</time>
      </trkpt>
      <trkpt lat="43.0190832" lon="-5.775053">
        <ele>986.19</ele>
        <time>2020-07-21T13:18:44.000Z</time>
      </trkpt>
      <trkpt lat="43.0190922" lon="-5.775061">
        <ele>986.19</ele>
        <time>2020-07-21T13:18:45.000Z</time>
      </trkpt>
      <trkpt lat="43.019101" lon="-5.7750693">
        <ele>986.19</ele>
        <time>2020-07-21T13:18:46.000Z</time>
      </trkpt>
      <trkpt lat="43.0191097" lon="-5.7750773">
        <ele>986.19</ele>
        <time>2020-07-21T13:18:47.000Z</time>
      </trkpt>
      <trkpt lat="43.019119" lon="-5.775084">
        <ele>986.19</ele>
        <time>2020-07-21T13:18:48.000Z</time>
      </trkpt>
      <trkpt lat="43.0191282" lon="-5.7750902">
        <ele>986.19</ele>
        <time>2020-07-21T13:18:49.000Z</time>
      </trkpt>
      <trkpt lat="43.0191377" lon="-5.7750958">
        <ele>986.19</ele>
        <time>2020-07-21T13:18:50.000Z</time>
      </trkpt>
      <trkpt lat="43.0191453" lon="-5.7751025">
        <ele>986.19</ele>
        <time>2020-07-21T13:18:51.000Z</time>
      </trkpt>
      <trkpt lat="43.0191515" lon="-5.7751112">
        <ele>986.19</ele>
        <time>2020-07-21T13:18:52.000Z</time>
      </trkpt>
      <trkpt lat="43.0191567" lon="-5.7751235">
        <ele>986.19</ele>
        <time>2020-07-21T13:18:53.000Z</time>
      </trkpt>
      <trkpt lat="43.0191622" lon="-5.7751377">
        <ele>986.19</ele>
        <time>2020-07-21T13:18:54.000Z</time>
      </trkpt>
      <trkpt lat="43.0191692" lon="-5.7751507">
        <ele>986.19</ele>
        <time>2020-07-21T13:18:55.000Z</time>
      </trkpt>
      <trkpt lat="43.0191772" lon="-5.7751597">
        <ele>986.34</ele>
        <time>2020-07-21T13:18:56.000Z</time>
      </trkpt>
      <trkpt lat="43.0191843" lon="-5.7751658">
        <ele>986.34</ele>
        <time>2020-07-21T13:18:57.000Z</time>
      </trkpt>
      <trkpt lat="43.0191905" lon="-5.7751705">
        <ele>986.34</ele>
        <time>2020-07-21T13:18:58.000Z</time>
      </trkpt>
      <trkpt lat="43.0191938" lon="-5.7751738">
        <ele>986.34</ele>
        <time>2020-07-21T13:18:59.000Z</time>
      </trkpt>
      <trkpt lat="43.0191962" lon="-5.775175">
        <ele>986.34</ele>
        <time>2020-07-21T13:19:00.000Z</time>
      </trkpt>
      <trkpt lat="43.0191968" lon="-5.7751747">
        <ele>986.34</ele>
        <time>2020-07-21T13:19:01.000Z</time>
      </trkpt>
      <trkpt lat="43.0191973" lon="-5.7751738">
        <ele>986.34</ele>
        <time>2020-07-21T13:19:02.000Z</time>
      </trkpt>
      <trkpt lat="43.0191972" lon="-5.7751728">
        <ele>986.34</ele>
        <time>2020-07-21T13:19:03.000Z</time>
      </trkpt>
      <trkpt lat="43.0191972" lon="-5.7751737">
        <ele>986.5</ele>
        <time>2020-07-21T13:19:04.000Z</time>
      </trkpt>
      <trkpt lat="43.0191975" lon="-5.7751758">
        <ele>986.5</ele>
        <time>2020-07-21T13:19:05.000Z</time>
      </trkpt>
      <trkpt lat="43.019198" lon="-5.7751793">
        <ele>986.34</ele>
        <time>2020-07-21T13:19:06.000Z</time>
      </trkpt>
      <trkpt lat="43.0191982" lon="-5.775181">
        <ele>986.34</ele>
        <time>2020-07-21T13:19:07.000Z</time>
      </trkpt>
      <trkpt lat="43.019198" lon="-5.7751792">
        <ele>986.34</ele>
        <time>2020-07-21T13:19:08.000Z</time>
      </trkpt>
      <trkpt lat="43.0191977" lon="-5.7751762">
        <ele>986.34</ele>
        <time>2020-07-21T13:19:09.000Z</time>
      </trkpt>
      <trkpt lat="43.0191978" lon="-5.7751725">
        <ele>986.34</ele>
        <time>2020-07-21T13:19:10.000Z</time>
      </trkpt>
      <trkpt lat="43.0191982" lon="-5.7751708">
        <ele>986.34</ele>
        <time>2020-07-21T13:19:11.000Z</time>
      </trkpt>
      <trkpt lat="43.0191973" lon="-5.7751708">
        <ele>986.34</ele>
        <time>2020-07-21T13:19:12.000Z</time>
      </trkpt>
      <trkpt lat="43.019197" lon="-5.7751725">
        <ele>986.34</ele>
        <time>2020-07-21T13:19:13.000Z</time>
      </trkpt>
      <trkpt lat="43.0191963" lon="-5.7751753">
        <ele>986.34</ele>
        <time>2020-07-21T13:19:14.000Z</time>
      </trkpt>
      <trkpt lat="43.019196" lon="-5.7751763">
        <ele>986.34</ele>
        <time>2020-07-21T13:19:15.000Z</time>
      </trkpt>
      <trkpt lat="43.0191943" lon="-5.7751753">
        <ele>986.34</ele>
        <time>2020-07-21T13:19:16.000Z</time>
      </trkpt>
      <trkpt lat="43.0191927" lon="-5.775173">
        <ele>986.34</ele>
        <time>2020-07-21T13:19:17.000Z</time>
      </trkpt>
      <trkpt lat="43.0191917" lon="-5.7751703">
        <ele>986.34</ele>
        <time>2020-07-21T13:19:18.000Z</time>
      </trkpt>
      <trkpt lat="43.0191925" lon="-5.775168">
        <ele>986.34</ele>
        <time>2020-07-21T13:19:19.000Z</time>
      </trkpt>
      <trkpt lat="43.0191933" lon="-5.7751667">
        <ele>986.19</ele>
        <time>2020-07-21T13:19:20.000Z</time>
      </trkpt>
      <trkpt lat="43.0191942" lon="-5.775166">
        <ele>986.19</ele>
        <time>2020-07-21T13:19:21.000Z</time>
      </trkpt>
      <trkpt lat="43.0191945" lon="-5.7751648">
        <ele>986.19</ele>
        <time>2020-07-21T13:19:22.000Z</time>
      </trkpt>
      <trkpt lat="43.019195" lon="-5.7751638">
        <ele>986.19</ele>
        <time>2020-07-21T13:19:23.000Z</time>
      </trkpt>
      <trkpt lat="43.0191957" lon="-5.7751633">
        <ele>986.04</ele>
        <time>2020-07-21T13:19:24.000Z</time>
      </trkpt>
      <trkpt lat="43.0191962" lon="-5.7751633">
        <ele>986.04</ele>
        <time>2020-07-21T13:19:25.000Z</time>
      </trkpt>
      <trkpt lat="43.0191962" lon="-5.7751633">
        <ele>986.04</ele>
        <time>2020-07-21T13:19:26.000Z</time>
      </trkpt>
      <trkpt lat="43.0191953" lon="-5.775163">
        <ele>986.04</ele>
        <time>2020-07-21T13:19:27.000Z</time>
      </trkpt>
      <trkpt lat="43.019194" lon="-5.7751622">
        <ele>985.89</ele>
        <time>2020-07-21T13:19:28.000Z</time>
      </trkpt>
      <trkpt lat="43.0191913" lon="-5.7751598">
        <ele>985.89</ele>
        <time>2020-07-21T13:19:29.000Z</time>
      </trkpt>
      <trkpt lat="43.0191885" lon="-5.7751572">
        <ele>985.89</ele>
        <time>2020-07-21T13:19:30.000Z</time>
      </trkpt>
      <trkpt lat="43.0191862" lon="-5.775155">
        <ele>985.89</ele>
        <time>2020-07-21T13:19:31.000Z</time>
      </trkpt>
      <trkpt lat="43.0191868" lon="-5.7751553">
        <ele>985.73</ele>
        <time>2020-07-21T13:19:32.000Z</time>
      </trkpt>
      <trkpt lat="43.0191888" lon="-5.7751562">
        <ele>985.73</ele>
        <time>2020-07-21T13:19:33.000Z</time>
      </trkpt>
      <trkpt lat="43.0191903" lon="-5.775158">
        <ele>985.58</ele>
        <time>2020-07-21T13:19:34.000Z</time>
      </trkpt>
      <trkpt lat="43.0191907" lon="-5.7751587">
        <ele>985.58</ele>
        <time>2020-07-21T13:19:35.000Z</time>
      </trkpt>
      <trkpt lat="43.0191907" lon="-5.7751595">
        <ele>985.58</ele>
        <time>2020-07-21T13:19:36.000Z</time>
      </trkpt>
      <trkpt lat="43.019191" lon="-5.7751603">
        <ele>985.58</ele>
        <time>2020-07-21T13:19:37.000Z</time>
      </trkpt>
      <trkpt lat="43.0191903" lon="-5.7751618">
        <ele>985.43</ele>
        <time>2020-07-21T13:19:38.000Z</time>
      </trkpt>
      <trkpt lat="43.0191892" lon="-5.7751638">
        <ele>985.43</ele>
        <time>2020-07-21T13:19:39.000Z</time>
      </trkpt>
      <trkpt lat="43.0191885" lon="-5.7751653">
        <ele>985.28</ele>
        <time>2020-07-21T13:19:40.000Z</time>
      </trkpt>
      <trkpt lat="43.0191887" lon="-5.7751663">
        <ele>985.28</ele>
        <time>2020-07-21T13:19:41.000Z</time>
      </trkpt>
      <trkpt lat="43.0191893" lon="-5.775167">
        <ele>985.13</ele>
        <time>2020-07-21T13:19:42.000Z</time>
      </trkpt>
      <trkpt lat="43.0191892" lon="-5.7751695">
        <ele>985.13</ele>
        <time>2020-07-21T13:19:43.000Z</time>
      </trkpt>
      <trkpt lat="43.0191892" lon="-5.7751737">
        <ele>984.97</ele>
        <time>2020-07-21T13:19:44.000Z</time>
      </trkpt>
      <trkpt lat="43.019189" lon="-5.7751792">
        <ele>984.97</ele>
        <time>2020-07-21T13:19:45.000Z</time>
      </trkpt>
      <trkpt lat="43.019189" lon="-5.7751835">
        <ele>984.97</ele>
        <time>2020-07-21T13:19:46.000Z</time>
      </trkpt>
      <trkpt lat="43.0191888" lon="-5.7751862">
        <ele>984.97</ele>
        <time>2020-07-21T13:19:47.000Z</time>
      </trkpt>
      <trkpt lat="43.019188" lon="-5.7751865">
        <ele>984.82</ele>
        <time>2020-07-21T13:19:48.000Z</time>
      </trkpt>
      <trkpt lat="43.0191872" lon="-5.7751858">
        <ele>984.82</ele>
        <time>2020-07-21T13:19:49.000Z</time>
      </trkpt>
      <trkpt lat="43.019186" lon="-5.7751853">
        <ele>984.67</ele>
        <time>2020-07-21T13:19:50.000Z</time>
      </trkpt>
      <trkpt lat="43.0191848" lon="-5.7751858">
        <ele>984.67</ele>
        <time>2020-07-21T13:19:51.000Z</time>
      </trkpt>
      <trkpt lat="43.0191835" lon="-5.7751883">
        <ele>984.52</ele>
        <time>2020-07-21T13:19:52.000Z</time>
      </trkpt>
      <trkpt lat="43.0191827" lon="-5.7751902">
        <ele>984.52</ele>
        <time>2020-07-21T13:19:53.000Z</time>
      </trkpt>
      <trkpt lat="43.0191822" lon="-5.7751918">
        <ele>984.36</ele>
        <time>2020-07-21T13:19:54.000Z</time>
      </trkpt>
      <trkpt lat="43.0191817" lon="-5.775192">
        <ele>984.36</ele>
        <time>2020-07-21T13:19:55.000Z</time>
      </trkpt>
      <trkpt lat="43.0191813" lon="-5.7751928">
        <ele>984.21</ele>
        <time>2020-07-21T13:19:56.000Z</time>
      </trkpt>
      <trkpt lat="43.0191817" lon="-5.7751935">
        <ele>984.21</ele>
        <time>2020-07-21T13:19:57.000Z</time>
      </trkpt>
      <trkpt lat="43.0191832" lon="-5.775193">
        <ele>984.06</ele>
        <time>2020-07-21T13:19:58.000Z</time>
      </trkpt>
      <trkpt lat="43.019184" lon="-5.7751917">
        <ele>984.06</ele>
        <time>2020-07-21T13:19:59.000Z</time>
      </trkpt>
      <trkpt lat="43.0191797" lon="-5.7751957">
        <ele>983.91</ele>
        <time>2020-07-21T13:20:00.000Z</time>
      </trkpt>
      <trkpt lat="43.0191758" lon="-5.7752015">
        <ele>983.91</ele>
        <time>2020-07-21T13:20:01.000Z</time>
      </trkpt>
      <trkpt lat="43.0191752" lon="-5.7752088">
        <ele>983.91</ele>
        <time>2020-07-21T13:20:02.000Z</time>
      </trkpt>
      <trkpt lat="43.0191808" lon="-5.7752112">
        <ele>983.91</ele>
        <time>2020-07-21T13:20:03.000Z</time>
      </trkpt>
      <trkpt lat="43.0191865" lon="-5.775213">
        <ele>983.75</ele>
        <time>2020-07-21T13:20:04.000Z</time>
      </trkpt>
      <trkpt lat="43.01919" lon="-5.7752138">
        <ele>983.75</ele>
        <time>2020-07-21T13:20:05.000Z</time>
      </trkpt>
      <trkpt lat="43.0191915" lon="-5.775215">
        <ele>983.75</ele>
        <time>2020-07-21T13:20:06.000Z</time>
      </trkpt>
      <trkpt lat="43.0191913" lon="-5.775213">
        <ele>983.75</ele>
        <time>2020-07-21T13:20:07.000Z</time>
      </trkpt>
      <trkpt lat="43.0191908" lon="-5.7752083">
        <ele>983.75</ele>
        <time>2020-07-21T13:20:08.000Z</time>
      </trkpt>
      <trkpt lat="43.0191905" lon="-5.7752022">
        <ele>983.75</ele>
        <time>2020-07-21T13:20:09.000Z</time>
      </trkpt>
      <trkpt lat="43.0191907" lon="-5.7751992">
        <ele>983.6</ele>
        <time>2020-07-21T13:20:10.000Z</time>
      </trkpt>
      <trkpt lat="43.0191908" lon="-5.7751985">
        <ele>983.6</ele>
        <time>2020-07-21T13:20:11.000Z</time>
      </trkpt>
      <trkpt lat="43.019191" lon="-5.775199">
        <ele>983.6</ele>
        <time>2020-07-21T13:20:12.000Z</time>
      </trkpt>
      <trkpt lat="43.0191905" lon="-5.775199">
        <ele>983.6</ele>
        <time>2020-07-21T13:20:13.000Z</time>
      </trkpt>
      <trkpt lat="43.0191888" lon="-5.7751988">
        <ele>983.6</ele>
        <time>2020-07-21T13:20:14.000Z</time>
      </trkpt>
      <trkpt lat="43.0191872" lon="-5.7751998">
        <ele>983.6</ele>
        <time>2020-07-21T13:20:15.000Z</time>
      </trkpt>
      <trkpt lat="43.0191862" lon="-5.7752003">
        <ele>983.6</ele>
        <time>2020-07-21T13:20:16.000Z</time>
      </trkpt>
      <trkpt lat="43.0191862" lon="-5.7752008">
        <ele>983.6</ele>
        <time>2020-07-21T13:20:17.000Z</time>
      </trkpt>
      <trkpt lat="43.0191868" lon="-5.7751997">
        <ele>983.6</ele>
        <time>2020-07-21T13:20:18.000Z</time>
      </trkpt>
      <trkpt lat="43.0191868" lon="-5.7751985">
        <ele>983.6</ele>
        <time>2020-07-21T13:20:19.000Z</time>
      </trkpt>
      <trkpt lat="43.0191887" lon="-5.7752003">
        <ele>983.6</ele>
        <time>2020-07-21T13:20:20.000Z</time>
      </trkpt>
      <trkpt lat="43.0191928" lon="-5.7752057">
        <ele>983.6</ele>
        <time>2020-07-21T13:20:21.000Z</time>
      </trkpt>
      <trkpt lat="43.0191987" lon="-5.7752145">
        <ele>983.6</ele>
        <time>2020-07-21T13:20:22.000Z</time>
      </trkpt>
      <trkpt lat="43.0192033" lon="-5.7752218">
        <ele>983.6</ele>
        <time>2020-07-21T13:20:23.000Z</time>
      </trkpt>
      <trkpt lat="43.019206" lon="-5.7752252">
        <ele>983.6</ele>
        <time>2020-07-21T13:20:24.000Z</time>
      </trkpt>
      <trkpt lat="43.019206" lon="-5.7752272">
        <ele>983.6</ele>
        <time>2020-07-21T13:20:25.000Z</time>
      </trkpt>
      <trkpt lat="43.0192073" lon="-5.7752325">
        <ele>983.6</ele>
        <time>2020-07-21T13:20:26.000Z</time>
      </trkpt>
      <trkpt lat="43.019209" lon="-5.7752425">
        <ele>983.6</ele>
        <time>2020-07-21T13:20:27.000Z</time>
      </trkpt>
      <trkpt lat="43.0192143" lon="-5.775254">
        <ele>983.6</ele>
        <time>2020-07-21T13:20:28.000Z</time>
      </trkpt>
      <trkpt lat="43.0192198" lon="-5.7752645">
        <ele>983.6</ele>
        <time>2020-07-21T13:20:29.000Z</time>
      </trkpt>
      <trkpt lat="43.0192253" lon="-5.7752753">
        <ele>983.6</ele>
        <time>2020-07-21T13:20:30.000Z</time>
      </trkpt>
      <trkpt lat="43.0192292" lon="-5.7752872">
        <ele>983.6</ele>
        <time>2020-07-21T13:20:31.000Z</time>
      </trkpt>
      <trkpt lat="43.0192322" lon="-5.7752993">
        <ele>983.6</ele>
        <time>2020-07-21T13:20:32.000Z</time>
      </trkpt>
      <trkpt lat="43.0192355" lon="-5.7753113">
        <ele>983.6</ele>
        <time>2020-07-21T13:20:33.000Z</time>
      </trkpt>
      <trkpt lat="43.01924" lon="-5.7753248">
        <ele>983.6</ele>
        <time>2020-07-21T13:20:34.000Z</time>
      </trkpt>
      <trkpt lat="43.0192452" lon="-5.7753388">
        <ele>983.6</ele>
        <time>2020-07-21T13:20:35.000Z</time>
      </trkpt>
      <trkpt lat="43.0192505" lon="-5.7753543">
        <ele>983.6</ele>
        <time>2020-07-21T13:20:36.000Z</time>
      </trkpt>
      <trkpt lat="43.0192558" lon="-5.7753685">
        <ele>983.6</ele>
        <time>2020-07-21T13:20:37.000Z</time>
      </trkpt>
      <trkpt lat="43.0192603" lon="-5.7753832">
        <ele>983.6</ele>
        <time>2020-07-21T13:20:38.000Z</time>
      </trkpt>
      <trkpt lat="43.0192648" lon="-5.7753978">
        <ele>983.6</ele>
        <time>2020-07-21T13:20:39.000Z</time>
      </trkpt>
      <trkpt lat="43.0192675" lon="-5.7754143">
        <ele>983.6</ele>
        <time>2020-07-21T13:20:40.000Z</time>
      </trkpt>
      <trkpt lat="43.0192702" lon="-5.7754303">
        <ele>983.6</ele>
        <time>2020-07-21T13:20:41.000Z</time>
      </trkpt>
      <trkpt lat="43.0192723" lon="-5.7754452">
        <ele>983.6</ele>
        <time>2020-07-21T13:20:42.000Z</time>
      </trkpt>
      <trkpt lat="43.0192765" lon="-5.775458">
        <ele>983.6</ele>
        <time>2020-07-21T13:20:43.000Z</time>
      </trkpt>
      <trkpt lat="43.0192808" lon="-5.7754702">
        <ele>983.75</ele>
        <time>2020-07-21T13:20:44.000Z</time>
      </trkpt>
      <trkpt lat="43.0192847" lon="-5.7754823">
        <ele>983.75</ele>
        <time>2020-07-21T13:20:45.000Z</time>
      </trkpt>
      <trkpt lat="43.0192873" lon="-5.775496">
        <ele>983.75</ele>
        <time>2020-07-21T13:20:46.000Z</time>
      </trkpt>
      <trkpt lat="43.0192887" lon="-5.7755108">
        <ele>983.75</ele>
        <time>2020-07-21T13:20:47.000Z</time>
      </trkpt>
      <trkpt lat="43.0192897" lon="-5.7755265">
        <ele>983.75</ele>
        <time>2020-07-21T13:20:48.000Z</time>
      </trkpt>
      <trkpt lat="43.0192902" lon="-5.7755415">
        <ele>983.75</ele>
        <time>2020-07-21T13:20:49.000Z</time>
      </trkpt>
      <trkpt lat="43.0192907" lon="-5.7755578">
        <ele>983.75</ele>
        <time>2020-07-21T13:20:50.000Z</time>
      </trkpt>
      <trkpt lat="43.0192905" lon="-5.7755742">
        <ele>983.75</ele>
        <time>2020-07-21T13:20:51.000Z</time>
      </trkpt>
      <trkpt lat="43.01929" lon="-5.7755907">
        <ele>983.75</ele>
        <time>2020-07-21T13:20:52.000Z</time>
      </trkpt>
      <trkpt lat="43.0192892" lon="-5.7756048">
        <ele>983.75</ele>
        <time>2020-07-21T13:20:53.000Z</time>
      </trkpt>
      <trkpt lat="43.0192873" lon="-5.7756173">
        <ele>983.75</ele>
        <time>2020-07-21T13:20:54.000Z</time>
      </trkpt>
      <trkpt lat="43.0192843" lon="-5.77563">
        <ele>983.75</ele>
        <time>2020-07-21T13:20:55.000Z</time>
      </trkpt>
      <trkpt lat="43.0192822" lon="-5.7756448">
        <ele>983.75</ele>
        <time>2020-07-21T13:20:56.000Z</time>
      </trkpt>
      <trkpt lat="43.0192818" lon="-5.7756608">
        <ele>983.75</ele>
        <time>2020-07-21T13:20:57.000Z</time>
      </trkpt>
      <trkpt lat="43.0192837" lon="-5.7756762">
        <ele>983.75</ele>
        <time>2020-07-21T13:20:58.000Z</time>
      </trkpt>
      <trkpt lat="43.0192847" lon="-5.7756893">
        <ele>983.75</ele>
        <time>2020-07-21T13:20:59.000Z</time>
      </trkpt>
      <trkpt lat="43.019284" lon="-5.7757018">
        <ele>983.75</ele>
        <time>2020-07-21T13:21:00.000Z</time>
      </trkpt>
      <trkpt lat="43.0192822" lon="-5.7757133">
        <ele>983.75</ele>
        <time>2020-07-21T13:21:01.000Z</time>
      </trkpt>
      <trkpt lat="43.0192815" lon="-5.7757248">
        <ele>983.75</ele>
        <time>2020-07-21T13:21:02.000Z</time>
      </trkpt>
      <trkpt lat="43.0192838" lon="-5.7757375">
        <ele>983.75</ele>
        <time>2020-07-21T13:21:03.000Z</time>
      </trkpt>
      <trkpt lat="43.0192868" lon="-5.7757505">
        <ele>983.6</ele>
        <time>2020-07-21T13:21:04.000Z</time>
      </trkpt>
      <trkpt lat="43.0192895" lon="-5.7757633">
        <ele>983.6</ele>
        <time>2020-07-21T13:21:05.000Z</time>
      </trkpt>
      <trkpt lat="43.0192907" lon="-5.7757752">
        <ele>983.6</ele>
        <time>2020-07-21T13:21:06.000Z</time>
      </trkpt>
      <trkpt lat="43.0192935" lon="-5.7757873">
        <ele>983.6</ele>
        <time>2020-07-21T13:21:07.000Z</time>
      </trkpt>
      <trkpt lat="43.019298" lon="-5.7757995">
        <ele>983.6</ele>
        <time>2020-07-21T13:21:08.000Z</time>
      </trkpt>
      <trkpt lat="43.0193045" lon="-5.7758113">
        <ele>983.6</ele>
        <time>2020-07-21T13:21:09.000Z</time>
      </trkpt>
      <trkpt lat="43.0193107" lon="-5.7758223">
        <ele>983.6</ele>
        <time>2020-07-21T13:21:10.000Z</time>
      </trkpt>
      <trkpt lat="43.0193172" lon="-5.7758323">
        <ele>983.6</ele>
        <time>2020-07-21T13:21:11.000Z</time>
      </trkpt>
      <trkpt lat="43.0193242" lon="-5.7758413">
        <ele>983.6</ele>
        <time>2020-07-21T13:21:12.000Z</time>
      </trkpt>
      <trkpt lat="43.0193328" lon="-5.77585">
        <ele>983.6</ele>
        <time>2020-07-21T13:21:13.000Z</time>
      </trkpt>
      <trkpt lat="43.0193427" lon="-5.7758585">
        <ele>983.6</ele>
        <time>2020-07-21T13:21:14.000Z</time>
      </trkpt>
      <trkpt lat="43.0193525" lon="-5.775867">
        <ele>983.6</ele>
        <time>2020-07-21T13:21:15.000Z</time>
      </trkpt>
      <trkpt lat="43.0193618" lon="-5.7758748">
        <ele>983.45</ele>
        <time>2020-07-21T13:21:16.000Z</time>
      </trkpt>
      <trkpt lat="43.0193708" lon="-5.7758812">
        <ele>983.45</ele>
        <time>2020-07-21T13:21:17.000Z</time>
      </trkpt>
      <trkpt lat="43.019379" lon="-5.7758873">
        <ele>983.45</ele>
        <time>2020-07-21T13:21:18.000Z</time>
      </trkpt>
      <trkpt lat="43.0193863" lon="-5.7758948">
        <ele>983.45</ele>
        <time>2020-07-21T13:21:19.000Z</time>
      </trkpt>
      <trkpt lat="43.0193922" lon="-5.775905">
        <ele>983.45</ele>
        <time>2020-07-21T13:21:20.000Z</time>
      </trkpt>
      <trkpt lat="43.0193983" lon="-5.7759143">
        <ele>983.45</ele>
        <time>2020-07-21T13:21:21.000Z</time>
      </trkpt>
      <trkpt lat="43.019405" lon="-5.7759222">
        <ele>983.45</ele>
        <time>2020-07-21T13:21:22.000Z</time>
      </trkpt>
      <trkpt lat="43.0194112" lon="-5.7759285">
        <ele>983.45</ele>
        <time>2020-07-21T13:21:23.000Z</time>
      </trkpt>
      <trkpt lat="43.0194155" lon="-5.7759338">
        <ele>983.3</ele>
        <time>2020-07-21T13:21:24.000Z</time>
      </trkpt>
      <trkpt lat="43.019418" lon="-5.7759355">
        <ele>983.3</ele>
        <time>2020-07-21T13:21:25.000Z</time>
      </trkpt>
      <trkpt lat="43.0194197" lon="-5.7759345">
        <ele>983.3</ele>
        <time>2020-07-21T13:21:26.000Z</time>
      </trkpt>
      <trkpt lat="43.0194203" lon="-5.7759323">
        <ele>983.3</ele>
        <time>2020-07-21T13:21:27.000Z</time>
      </trkpt>
      <trkpt lat="43.0194213" lon="-5.7759327">
        <ele>983.14</ele>
        <time>2020-07-21T13:21:28.000Z</time>
      </trkpt>
      <trkpt lat="43.0194233" lon="-5.775934">
        <ele>983.14</ele>
        <time>2020-07-21T13:21:29.000Z</time>
      </trkpt>
      <trkpt lat="43.0194267" lon="-5.7759367">
        <ele>983.14</ele>
        <time>2020-07-21T13:21:30.000Z</time>
      </trkpt>
      <trkpt lat="43.0194297" lon="-5.7759387">
        <ele>983.14</ele>
        <time>2020-07-21T13:21:31.000Z</time>
      </trkpt>
      <trkpt lat="43.0194325" lon="-5.7759397">
        <ele>982.99</ele>
        <time>2020-07-21T13:21:32.000Z</time>
      </trkpt>
      <trkpt lat="43.0194337" lon="-5.77594">
        <ele>982.99</ele>
        <time>2020-07-21T13:21:33.000Z</time>
      </trkpt>
      <trkpt lat="43.019434" lon="-5.7759405">
        <ele>982.99</ele>
        <time>2020-07-21T13:21:34.000Z</time>
      </trkpt>
      <trkpt lat="43.0194333" lon="-5.7759377">
        <ele>982.99</ele>
        <time>2020-07-21T13:21:35.000Z</time>
      </trkpt>
      <trkpt lat="43.0194325" lon="-5.775931">
        <ele>982.84</ele>
        <time>2020-07-21T13:21:36.000Z</time>
      </trkpt>
      <trkpt lat="43.0194317" lon="-5.7759208">
        <ele>982.84</ele>
        <time>2020-07-21T13:21:37.000Z</time>
      </trkpt>
      <trkpt lat="43.0194302" lon="-5.7759112">
        <ele>982.84</ele>
        <time>2020-07-21T13:21:38.000Z</time>
      </trkpt>
      <trkpt lat="43.0194288" lon="-5.7759002">
        <ele>982.84</ele>
        <time>2020-07-21T13:21:39.000Z</time>
      </trkpt>
      <trkpt lat="43.0194282" lon="-5.7758888">
        <ele>982.84</ele>
        <time>2020-07-21T13:21:40.000Z</time>
      </trkpt>
      <trkpt lat="43.019427" lon="-5.7758757">
        <ele>982.84</ele>
        <time>2020-07-21T13:21:41.000Z</time>
      </trkpt>
      <trkpt lat="43.0194258" lon="-5.7758632">
        <ele>982.69</ele>
        <time>2020-07-21T13:21:42.000Z</time>
      </trkpt>
      <trkpt lat="43.019424" lon="-5.7758503">
        <ele>982.69</ele>
        <time>2020-07-21T13:21:43.000Z</time>
      </trkpt>
      <trkpt lat="43.019423" lon="-5.7758402">
        <ele>982.69</ele>
        <time>2020-07-21T13:21:44.000Z</time>
      </trkpt>
      <trkpt lat="43.0194225" lon="-5.7758328">
        <ele>982.69</ele>
        <time>2020-07-21T13:21:45.000Z</time>
      </trkpt>
      <trkpt lat="43.0194227" lon="-5.775828">
        <ele>982.69</ele>
        <time>2020-07-21T13:21:46.000Z</time>
      </trkpt>
      <trkpt lat="43.0194238" lon="-5.7758238">
        <ele>982.69</ele>
        <time>2020-07-21T13:21:47.000Z</time>
      </trkpt>
      <trkpt lat="43.0194268" lon="-5.7758188">
        <ele>982.53</ele>
        <time>2020-07-21T13:21:48.000Z</time>
      </trkpt>
      <trkpt lat="43.0194318" lon="-5.7758113">
        <ele>982.53</ele>
        <time>2020-07-21T13:21:49.000Z</time>
      </trkpt>
      <trkpt lat="43.0194387" lon="-5.7758015">
        <ele>982.53</ele>
        <time>2020-07-21T13:21:50.000Z</time>
      </trkpt>
      <trkpt lat="43.0194453" lon="-5.7757905">
        <ele>982.53</ele>
        <time>2020-07-21T13:21:51.000Z</time>
      </trkpt>
      <trkpt lat="43.0194528" lon="-5.7757795">
        <ele>982.53</ele>
        <time>2020-07-21T13:21:52.000Z</time>
      </trkpt>
      <trkpt lat="43.0194598" lon="-5.7757707">
        <ele>982.53</ele>
        <time>2020-07-21T13:21:53.000Z</time>
      </trkpt>
      <trkpt lat="43.019466" lon="-5.7757635">
        <ele>982.53</ele>
        <time>2020-07-21T13:21:54.000Z</time>
      </trkpt>
      <trkpt lat="43.019471" lon="-5.7757573">
        <ele>982.53</ele>
        <time>2020-07-21T13:21:55.000Z</time>
      </trkpt>
      <trkpt lat="43.019475" lon="-5.7757508">
        <ele>982.53</ele>
        <time>2020-07-21T13:21:56.000Z</time>
      </trkpt>
      <trkpt lat="43.0194793" lon="-5.7757443">
        <ele>982.53</ele>
        <time>2020-07-21T13:21:57.000Z</time>
      </trkpt>
      <trkpt lat="43.0194828" lon="-5.7757393">
        <ele>982.53</ele>
        <time>2020-07-21T13:21:58.000Z</time>
      </trkpt>
      <trkpt lat="43.0194858" lon="-5.775737">
        <ele>982.53</ele>
        <time>2020-07-21T13:21:59.000Z</time>
      </trkpt>
      <trkpt lat="43.0194878" lon="-5.7757363">
        <ele>982.69</ele>
        <time>2020-07-21T13:22:00.000Z</time>
      </trkpt>
      <trkpt lat="43.01949" lon="-5.7757367">
        <ele>982.69</ele>
        <time>2020-07-21T13:22:01.000Z</time>
      </trkpt>
      <trkpt lat="43.0194935" lon="-5.7757358">
        <ele>982.69</ele>
        <time>2020-07-21T13:22:02.000Z</time>
      </trkpt>
      <trkpt lat="43.0194968" lon="-5.7757367">
        <ele>982.69</ele>
        <time>2020-07-21T13:22:03.000Z</time>
      </trkpt>
      <trkpt lat="43.0195" lon="-5.7757382">
        <ele>982.69</ele>
        <time>2020-07-21T13:22:04.000Z</time>
      </trkpt>
      <trkpt lat="43.0195023" lon="-5.7757398">
        <ele>982.69</ele>
        <time>2020-07-21T13:22:05.000Z</time>
      </trkpt>
      <trkpt lat="43.019505" lon="-5.7757397">
        <ele>982.69</ele>
        <time>2020-07-21T13:22:06.000Z</time>
      </trkpt>
      <trkpt lat="43.0195068" lon="-5.7757397">
        <ele>982.69</ele>
        <time>2020-07-21T13:22:07.000Z</time>
      </trkpt>
      <trkpt lat="43.0195075" lon="-5.7757402">
        <ele>982.84</ele>
        <time>2020-07-21T13:22:08.000Z</time>
      </trkpt>
      <trkpt lat="43.0195063" lon="-5.775741">
        <ele>982.84</ele>
        <time>2020-07-21T13:22:09.000Z</time>
      </trkpt>
      <trkpt lat="43.0195055" lon="-5.7757402">
        <ele>982.84</ele>
        <time>2020-07-21T13:22:10.000Z</time>
      </trkpt>
      <trkpt lat="43.0195052" lon="-5.7757398">
        <ele>982.84</ele>
        <time>2020-07-21T13:22:11.000Z</time>
      </trkpt>
      <trkpt lat="43.019506" lon="-5.7757403">
        <ele>982.84</ele>
        <time>2020-07-21T13:22:12.000Z</time>
      </trkpt>
      <trkpt lat="43.019508" lon="-5.7757457">
        <ele>982.84</ele>
        <time>2020-07-21T13:22:13.000Z</time>
      </trkpt>
      <trkpt lat="43.0195088" lon="-5.7757538">
        <ele>982.99</ele>
        <time>2020-07-21T13:22:14.000Z</time>
      </trkpt>
      <trkpt lat="43.0195092" lon="-5.7757642">
        <ele>982.99</ele>
        <time>2020-07-21T13:22:15.000Z</time>
      </trkpt>
      <trkpt lat="43.0195065" lon="-5.775773">
        <ele>982.99</ele>
        <time>2020-07-21T13:22:16.000Z</time>
      </trkpt>
      <trkpt lat="43.019503" lon="-5.7757822">
        <ele>982.99</ele>
        <time>2020-07-21T13:22:17.000Z</time>
      </trkpt>
      <trkpt lat="43.0194995" lon="-5.7757917">
        <ele>982.99</ele>
        <time>2020-07-21T13:22:18.000Z</time>
      </trkpt>
      <trkpt lat="43.0194978" lon="-5.7758023">
        <ele>982.99</ele>
        <time>2020-07-21T13:22:19.000Z</time>
      </trkpt>
      <trkpt lat="43.0194975" lon="-5.775812">
        <ele>983.14</ele>
        <time>2020-07-21T13:22:20.000Z</time>
      </trkpt>
      <trkpt lat="43.0194985" lon="-5.77582">
        <ele>983.14</ele>
        <time>2020-07-21T13:22:21.000Z</time>
      </trkpt>
      <trkpt lat="43.0194995" lon="-5.7758233">
        <ele>983.14</ele>
        <time>2020-07-21T13:22:22.000Z</time>
      </trkpt>
      <trkpt lat="43.019502" lon="-5.7758187">
        <ele>983.14</ele>
        <time>2020-07-21T13:22:23.000Z</time>
      </trkpt>
      <trkpt lat="43.0195037" lon="-5.7758082">
        <ele>983.14</ele>
        <time>2020-07-21T13:22:24.000Z</time>
      </trkpt>
      <trkpt lat="43.019504" lon="-5.7757962">
        <ele>983.14</ele>
        <time>2020-07-21T13:22:25.000Z</time>
      </trkpt>
      <trkpt lat="43.019502" lon="-5.7757862">
        <ele>983.3</ele>
        <time>2020-07-21T13:22:26.000Z</time>
      </trkpt>
      <trkpt lat="43.0194998" lon="-5.7757785">
        <ele>983.3</ele>
        <time>2020-07-21T13:22:27.000Z</time>
      </trkpt>
      <trkpt lat="43.0194975" lon="-5.775773">
        <ele>983.45</ele>
        <time>2020-07-21T13:22:28.000Z</time>
      </trkpt>
      <trkpt lat="43.0194945" lon="-5.7757692">
        <ele>983.45</ele>
        <time>2020-07-21T13:22:29.000Z</time>
      </trkpt>
      <trkpt lat="43.0194922" lon="-5.7757655">
        <ele>983.45</ele>
        <time>2020-07-21T13:22:30.000Z</time>
      </trkpt>
      <trkpt lat="43.0194917" lon="-5.7757603">
        <ele>983.45</ele>
        <time>2020-07-21T13:22:31.000Z</time>
      </trkpt>
      <trkpt lat="43.019493" lon="-5.775756">
        <ele>983.6</ele>
        <time>2020-07-21T13:22:32.000Z</time>
      </trkpt>
      <trkpt lat="43.0194935" lon="-5.7757542">
        <ele>983.6</ele>
        <time>2020-07-21T13:22:33.000Z</time>
      </trkpt>
      <trkpt lat="43.0194933" lon="-5.775755">
        <ele>983.75</ele>
        <time>2020-07-21T13:22:34.000Z</time>
      </trkpt>
      <trkpt lat="43.0194925" lon="-5.775757">
        <ele>983.75</ele>
        <time>2020-07-21T13:22:35.000Z</time>
      </trkpt>
      <trkpt lat="43.0194918" lon="-5.7757587">
        <ele>983.75</ele>
        <time>2020-07-21T13:22:36.000Z</time>
      </trkpt>
      <trkpt lat="43.0194913" lon="-5.7757597">
        <ele>983.75</ele>
        <time>2020-07-21T13:22:37.000Z</time>
      </trkpt>
      <trkpt lat="43.0194912" lon="-5.7757605">
        <ele>983.91</ele>
        <time>2020-07-21T13:22:38.000Z</time>
      </trkpt>
      <trkpt lat="43.0194915" lon="-5.7757612">
        <ele>983.91</ele>
        <time>2020-07-21T13:22:39.000Z</time>
      </trkpt>
      <trkpt lat="43.019492" lon="-5.7757615">
        <ele>984.06</ele>
        <time>2020-07-21T13:22:40.000Z</time>
      </trkpt>
      <trkpt lat="43.0194922" lon="-5.775762">
        <ele>984.06</ele>
        <time>2020-07-21T13:22:41.000Z</time>
      </trkpt>
      <trkpt lat="43.0194923" lon="-5.7757627">
        <ele>984.21</ele>
        <time>2020-07-21T13:22:42.000Z</time>
      </trkpt>
      <trkpt lat="43.0194923" lon="-5.7757635">
        <ele>984.21</ele>
        <time>2020-07-21T13:22:43.000Z</time>
      </trkpt>
      <trkpt lat="43.0194927" lon="-5.7757647">
        <ele>984.36</ele>
        <time>2020-07-21T13:22:44.000Z</time>
      </trkpt>
      <trkpt lat="43.0194933" lon="-5.7757655">
        <ele>984.36</ele>
        <time>2020-07-21T13:22:45.000Z</time>
      </trkpt>
      <trkpt lat="43.0194942" lon="-5.7757665">
        <ele>984.52</ele>
        <time>2020-07-21T13:22:46.000Z</time>
      </trkpt>
      <trkpt lat="43.019495" lon="-5.7757673">
        <ele>984.52</ele>
        <time>2020-07-21T13:22:47.000Z</time>
      </trkpt>
      <trkpt lat="43.0194955" lon="-5.7757682">
        <ele>984.82</ele>
        <time>2020-07-21T13:22:48.000Z</time>
      </trkpt>
      <trkpt lat="43.0194955" lon="-5.7757687">
        <ele>984.82</ele>
        <time>2020-07-21T13:22:49.000Z</time>
      </trkpt>
      <trkpt lat="43.0194957" lon="-5.7757688">
        <ele>984.97</ele>
        <time>2020-07-21T13:22:50.000Z</time>
      </trkpt>
      <trkpt lat="43.0194958" lon="-5.7757692">
        <ele>984.97</ele>
        <time>2020-07-21T13:22:51.000Z</time>
      </trkpt>
      <trkpt lat="43.0194965" lon="-5.7757693">
        <ele>985.13</ele>
        <time>2020-07-21T13:22:52.000Z</time>
      </trkpt>
      <trkpt lat="43.0194968" lon="-5.7757695">
        <ele>985.13</ele>
        <time>2020-07-21T13:22:53.000Z</time>
      </trkpt>
      <trkpt lat="43.0194972" lon="-5.7757697">
        <ele>985.43</ele>
        <time>2020-07-21T13:22:54.000Z</time>
      </trkpt>
      <trkpt lat="43.0194975" lon="-5.7757697">
        <ele>985.43</ele>
        <time>2020-07-21T13:22:55.000Z</time>
      </trkpt>
      <trkpt lat="43.019498" lon="-5.7757695">
        <ele>985.58</ele>
        <time>2020-07-21T13:22:56.000Z</time>
      </trkpt>
      <trkpt lat="43.0194982" lon="-5.7757693">
        <ele>985.58</ele>
        <time>2020-07-21T13:22:57.000Z</time>
      </trkpt>
      <trkpt lat="43.0194977" lon="-5.7757695">
        <ele>985.73</ele>
        <time>2020-07-21T13:22:58.000Z</time>
      </trkpt>
      <trkpt lat="43.019497" lon="-5.7757698">
        <ele>985.73</ele>
        <time>2020-07-21T13:22:59.000Z</time>
      </trkpt>
      <trkpt lat="43.0194963" lon="-5.7757697">
        <ele>985.89</ele>
        <time>2020-07-21T13:23:00.000Z</time>
      </trkpt>
      <trkpt lat="43.019496" lon="-5.7757693">
        <ele>985.89</ele>
        <time>2020-07-21T13:23:01.000Z</time>
      </trkpt>
      <trkpt lat="43.0194958" lon="-5.775769">
        <ele>986.19</ele>
        <time>2020-07-21T13:23:02.000Z</time>
      </trkpt>
      <trkpt lat="43.0194958" lon="-5.7757687">
        <ele>986.19</ele>
        <time>2020-07-21T13:23:03.000Z</time>
      </trkpt>
      <trkpt lat="43.0194958" lon="-5.7757682">
        <ele>986.34</ele>
        <time>2020-07-21T13:23:04.000Z</time>
      </trkpt>
      <trkpt lat="43.0194958" lon="-5.7757677">
        <ele>986.34</ele>
        <time>2020-07-21T13:23:05.000Z</time>
      </trkpt>
      <trkpt lat="43.0194963" lon="-5.7757673">
        <ele>986.5</ele>
        <time>2020-07-21T13:23:06.000Z</time>
      </trkpt>
      <trkpt lat="43.0194968" lon="-5.7757672">
        <ele>986.5</ele>
        <time>2020-07-21T13:23:07.000Z</time>
      </trkpt>
      <trkpt lat="43.019498" lon="-5.7757663">
        <ele>986.65</ele>
        <time>2020-07-21T13:23:08.000Z</time>
      </trkpt>
      <trkpt lat="43.0194992" lon="-5.7757645">
        <ele>986.65</ele>
        <time>2020-07-21T13:23:09.000Z</time>
      </trkpt>
      <trkpt lat="43.0195005" lon="-5.7757623">
        <ele>986.65</ele>
        <time>2020-07-21T13:23:10.000Z</time>
      </trkpt>
      <trkpt lat="43.0195012" lon="-5.7757593">
        <ele>986.65</ele>
        <time>2020-07-21T13:23:11.000Z</time>
      </trkpt>
      <trkpt lat="43.0195015" lon="-5.7757568">
        <ele>986.8</ele>
        <time>2020-07-21T13:23:12.000Z</time>
      </trkpt>
      <trkpt lat="43.0195012" lon="-5.7757543">
        <ele>986.8</ele>
        <time>2020-07-21T13:23:13.000Z</time>
      </trkpt>
      <trkpt lat="43.0195" lon="-5.7757533">
        <ele>986.8</ele>
        <time>2020-07-21T13:23:14.000Z</time>
      </trkpt>
      <trkpt lat="43.0194987" lon="-5.7757532">
        <ele>986.8</ele>
        <time>2020-07-21T13:23:15.000Z</time>
      </trkpt>
      <trkpt lat="43.0194968" lon="-5.7757548">
        <ele>986.95</ele>
        <time>2020-07-21T13:23:16.000Z</time>
      </trkpt>
      <trkpt lat="43.019494" lon="-5.7757595">
        <ele>986.95</ele>
        <time>2020-07-21T13:23:17.000Z</time>
      </trkpt>
      <trkpt lat="43.01949" lon="-5.7757642">
        <ele>986.95</ele>
        <time>2020-07-21T13:23:18.000Z</time>
      </trkpt>
      <trkpt lat="43.0194857" lon="-5.775768">
        <ele>986.95</ele>
        <time>2020-07-21T13:23:19.000Z</time>
      </trkpt>
      <trkpt lat="43.0194817" lon="-5.7757693">
        <ele>986.95</ele>
        <time>2020-07-21T13:23:20.000Z</time>
      </trkpt>
      <trkpt lat="43.0194782" lon="-5.775771">
        <ele>986.95</ele>
        <time>2020-07-21T13:23:21.000Z</time>
      </trkpt>
      <trkpt lat="43.019476" lon="-5.775773">
        <ele>986.95</ele>
        <time>2020-07-21T13:23:22.000Z</time>
      </trkpt>
      <trkpt lat="43.019475" lon="-5.7757742">
        <ele>986.95</ele>
        <time>2020-07-21T13:23:23.000Z</time>
      </trkpt>
      <trkpt lat="43.0194742" lon="-5.7757748">
        <ele>986.95</ele>
        <time>2020-07-21T13:23:24.000Z</time>
      </trkpt>
      <trkpt lat="43.0194732" lon="-5.7757747">
        <ele>986.95</ele>
        <time>2020-07-21T13:23:25.000Z</time>
      </trkpt>
      <trkpt lat="43.0194723" lon="-5.7757745">
        <ele>986.8</ele>
        <time>2020-07-21T13:23:26.000Z</time>
      </trkpt>
      <trkpt lat="43.0194718" lon="-5.7757743">
        <ele>986.8</ele>
        <time>2020-07-21T13:23:27.000Z</time>
      </trkpt>
      <trkpt lat="43.0194712" lon="-5.7757742">
        <ele>986.8</ele>
        <time>2020-07-21T13:23:28.000Z</time>
      </trkpt>
      <trkpt lat="43.0194702" lon="-5.7757743">
        <ele>986.8</ele>
        <time>2020-07-21T13:23:29.000Z</time>
      </trkpt>
      <trkpt lat="43.0194687" lon="-5.7757745">
        <ele>986.65</ele>
        <time>2020-07-21T13:23:30.000Z</time>
      </trkpt>
      <trkpt lat="43.0194672" lon="-5.7757745">
        <ele>986.65</ele>
        <time>2020-07-21T13:23:31.000Z</time>
      </trkpt>
      <trkpt lat="43.0194658" lon="-5.7757743">
        <ele>986.65</ele>
        <time>2020-07-21T13:23:32.000Z</time>
      </trkpt>
      <trkpt lat="43.0194648" lon="-5.7757738">
        <ele>986.65</ele>
        <time>2020-07-21T13:23:33.000Z</time>
      </trkpt>
      <trkpt lat="43.0194642" lon="-5.7757735">
        <ele>986.5</ele>
        <time>2020-07-21T13:23:34.000Z</time>
      </trkpt>
      <trkpt lat="43.0194633" lon="-5.7757735">
        <ele>986.5</ele>
        <time>2020-07-21T13:23:35.000Z</time>
      </trkpt>
      <trkpt lat="43.0194625" lon="-5.7757738">
        <ele>986.34</ele>
        <time>2020-07-21T13:23:36.000Z</time>
      </trkpt>
      <trkpt lat="43.0194615" lon="-5.7757745">
        <ele>986.34</ele>
        <time>2020-07-21T13:23:37.000Z</time>
      </trkpt>
      <trkpt lat="43.019461" lon="-5.7757748">
        <ele>986.34</ele>
        <time>2020-07-21T13:23:38.000Z</time>
      </trkpt>
      <trkpt lat="43.0194602" lon="-5.7757755">
        <ele>986.34</ele>
        <time>2020-07-21T13:23:39.000Z</time>
      </trkpt>
      <trkpt lat="43.0194597" lon="-5.7757757">
        <ele>986.19</ele>
        <time>2020-07-21T13:23:40.000Z</time>
      </trkpt>
      <trkpt lat="43.0194588" lon="-5.775776">
        <ele>986.19</ele>
        <time>2020-07-21T13:23:41.000Z</time>
      </trkpt>
      <trkpt lat="43.0194583" lon="-5.7757758">
        <ele>986.19</ele>
        <time>2020-07-21T13:23:42.000Z</time>
      </trkpt>
      <trkpt lat="43.0194578" lon="-5.7757755">
        <ele>986.19</ele>
        <time>2020-07-21T13:23:43.000Z</time>
      </trkpt>
      <trkpt lat="43.0194578" lon="-5.7757752">
        <ele>986.04</ele>
        <time>2020-07-21T13:23:44.000Z</time>
      </trkpt>
      <trkpt lat="43.0194577" lon="-5.775775">
        <ele>986.04</ele>
        <time>2020-07-21T13:23:45.000Z</time>
      </trkpt>
      <trkpt lat="43.0194572" lon="-5.775775">
        <ele>985.89</ele>
        <time>2020-07-21T13:23:46.000Z</time>
      </trkpt>
      <trkpt lat="43.0194553" lon="-5.7757757">
        <ele>985.89</ele>
        <time>2020-07-21T13:23:47.000Z</time>
      </trkpt>
      <trkpt lat="43.0194535" lon="-5.7757763">
        <ele>985.89</ele>
        <time>2020-07-21T13:23:48.000Z</time>
      </trkpt>
      <trkpt lat="43.0194513" lon="-5.775777">
        <ele>985.89</ele>
        <time>2020-07-21T13:23:49.000Z</time>
      </trkpt>
      <trkpt lat="43.0194502" lon="-5.7757767">
        <ele>985.73</ele>
        <time>2020-07-21T13:23:50.000Z</time>
      </trkpt>
      <trkpt lat="43.0194492" lon="-5.7757757">
        <ele>985.73</ele>
        <time>2020-07-21T13:23:51.000Z</time>
      </trkpt>
      <trkpt lat="43.0194487" lon="-5.7757742">
        <ele>985.73</ele>
        <time>2020-07-21T13:23:52.000Z</time>
      </trkpt>
      <trkpt lat="43.0194485" lon="-5.775773">
        <ele>985.73</ele>
        <time>2020-07-21T13:23:53.000Z</time>
      </trkpt>
      <trkpt lat="43.0194483" lon="-5.7757722">
        <ele>985.58</ele>
        <time>2020-07-21T13:23:54.000Z</time>
      </trkpt>
      <trkpt lat="43.0194485" lon="-5.7757717">
        <ele>985.58</ele>
        <time>2020-07-21T13:23:55.000Z</time>
      </trkpt>
      <trkpt lat="43.0194492" lon="-5.7757713">
        <ele>985.58</ele>
        <time>2020-07-21T13:23:56.000Z</time>
      </trkpt>
      <trkpt lat="43.01945" lon="-5.7757713">
        <ele>985.58</ele>
        <time>2020-07-21T13:23:57.000Z</time>
      </trkpt>
      <trkpt lat="43.0194502" lon="-5.7757713">
        <ele>985.43</ele>
        <time>2020-07-21T13:23:58.000Z</time>
      </trkpt>
      <trkpt lat="43.01945" lon="-5.7757712">
        <ele>985.43</ele>
        <time>2020-07-21T13:23:59.000Z</time>
      </trkpt>
      <trkpt lat="43.0194495" lon="-5.775771">
        <ele>985.28</ele>
        <time>2020-07-21T13:24:00.000Z</time>
      </trkpt>
      <trkpt lat="43.0194495" lon="-5.7757707">
        <ele>985.28</ele>
        <time>2020-07-21T13:24:01.000Z</time>
      </trkpt>
      <trkpt lat="43.0194497" lon="-5.7757702">
        <ele>985.28</ele>
        <time>2020-07-21T13:24:02.000Z</time>
      </trkpt>
      <trkpt lat="43.0194503" lon="-5.77577">
        <ele>985.28</ele>
        <time>2020-07-21T13:24:03.000Z</time>
      </trkpt>
      <trkpt lat="43.0194517" lon="-5.7757702">
        <ele>985.13</ele>
        <time>2020-07-21T13:24:04.000Z</time>
      </trkpt>
      <trkpt lat="43.0194533" lon="-5.775771">
        <ele>985.13</ele>
        <time>2020-07-21T13:24:05.000Z</time>
      </trkpt>
      <trkpt lat="43.019455" lon="-5.7757713">
        <ele>984.97</ele>
        <time>2020-07-21T13:24:06.000Z</time>
      </trkpt>
      <trkpt lat="43.019457" lon="-5.7757712">
        <ele>984.97</ele>
        <time>2020-07-21T13:24:07.000Z</time>
      </trkpt>
      <trkpt lat="43.0194588" lon="-5.7757705">
        <ele>984.82</ele>
        <time>2020-07-21T13:24:08.000Z</time>
      </trkpt>
      <trkpt lat="43.0194602" lon="-5.7757698">
        <ele>984.82</ele>
        <time>2020-07-21T13:24:09.000Z</time>
      </trkpt>
      <trkpt lat="43.0194613" lon="-5.7757693">
        <ele>984.82</ele>
        <time>2020-07-21T13:24:10.000Z</time>
      </trkpt>
      <trkpt lat="43.0194628" lon="-5.7757687">
        <ele>984.82</ele>
        <time>2020-07-21T13:24:11.000Z</time>
      </trkpt>
      <trkpt lat="43.0194647" lon="-5.7757677">
        <ele>984.67</ele>
        <time>2020-07-21T13:24:12.000Z</time>
      </trkpt>
      <trkpt lat="43.0194665" lon="-5.7757663">
        <ele>984.67</ele>
        <time>2020-07-21T13:24:13.000Z</time>
      </trkpt>
      <trkpt lat="43.0194682" lon="-5.7757668">
        <ele>984.52</ele>
        <time>2020-07-21T13:24:14.000Z</time>
      </trkpt>
      <trkpt lat="43.0194693" lon="-5.7757685">
        <ele>984.52</ele>
        <time>2020-07-21T13:24:15.000Z</time>
      </trkpt>
      <trkpt lat="43.0194702" lon="-5.7757745">
        <ele>984.36</ele>
        <time>2020-07-21T13:24:16.000Z</time>
      </trkpt>
      <trkpt lat="43.0194715" lon="-5.7757838">
        <ele>984.36</ele>
        <time>2020-07-21T13:24:17.000Z</time>
      </trkpt>
      <trkpt lat="43.0194733" lon="-5.7757987">
        <ele>984.21</ele>
        <time>2020-07-21T13:24:18.000Z</time>
      </trkpt>
      <trkpt lat="43.0194755" lon="-5.7758162">
        <ele>984.21</ele>
        <time>2020-07-21T13:24:19.000Z</time>
      </trkpt>
      <trkpt lat="43.0194767" lon="-5.7758353">
        <ele>984.06</ele>
        <time>2020-07-21T13:24:20.000Z</time>
      </trkpt>
      <trkpt lat="43.0194775" lon="-5.7758542">
        <ele>984.06</ele>
        <time>2020-07-21T13:24:21.000Z</time>
      </trkpt>
      <trkpt lat="43.0194783" lon="-5.7758727">
        <ele>984.06</ele>
        <time>2020-07-21T13:24:22.000Z</time>
      </trkpt>
      <trkpt lat="43.0194823" lon="-5.7758915">
        <ele>984.06</ele>
        <time>2020-07-21T13:24:23.000Z</time>
      </trkpt>
      <trkpt lat="43.0194877" lon="-5.7759103">
        <ele>983.91</ele>
        <time>2020-07-21T13:24:24.000Z</time>
      </trkpt>
      <trkpt lat="43.0194935" lon="-5.7759297">
        <ele>983.91</ele>
        <time>2020-07-21T13:24:25.000Z</time>
      </trkpt>
      <trkpt lat="43.0194985" lon="-5.7759488">
        <ele>983.75</ele>
        <time>2020-07-21T13:24:26.000Z</time>
      </trkpt>
      <trkpt lat="43.019503" lon="-5.7759677">
        <ele>983.75</ele>
        <time>2020-07-21T13:24:27.000Z</time>
      </trkpt>
      <trkpt lat="43.019507" lon="-5.775986">
        <ele>983.6</ele>
        <time>2020-07-21T13:24:28.000Z</time>
      </trkpt>
      <trkpt lat="43.0195108" lon="-5.7760035">
        <ele>983.6</ele>
        <time>2020-07-21T13:24:29.000Z</time>
      </trkpt>
      <trkpt lat="43.0195138" lon="-5.776022">
        <ele>983.45</ele>
        <time>2020-07-21T13:24:30.000Z</time>
      </trkpt>
      <trkpt lat="43.0195182" lon="-5.7760408">
        <ele>983.45</ele>
        <time>2020-07-21T13:24:31.000Z</time>
      </trkpt>
      <trkpt lat="43.0195207" lon="-5.7760583">
        <ele>983.45</ele>
        <time>2020-07-21T13:24:32.000Z</time>
      </trkpt>
      <trkpt lat="43.0195228" lon="-5.7760745">
        <ele>983.45</ele>
        <time>2020-07-21T13:24:33.000Z</time>
      </trkpt>
      <trkpt lat="43.0195225" lon="-5.77609">
        <ele>983.3</ele>
        <time>2020-07-21T13:24:34.000Z</time>
      </trkpt>
      <trkpt lat="43.0195215" lon="-5.7761057">
        <ele>983.3</ele>
        <time>2020-07-21T13:24:35.000Z</time>
      </trkpt>
      <trkpt lat="43.0195205" lon="-5.7761217">
        <ele>983.14</ele>
        <time>2020-07-21T13:24:36.000Z</time>
      </trkpt>
      <trkpt lat="43.0195207" lon="-5.7761373">
        <ele>983.14</ele>
        <time>2020-07-21T13:24:37.000Z</time>
      </trkpt>
      <trkpt lat="43.0195222" lon="-5.7761542">
        <ele>983.14</ele>
        <time>2020-07-21T13:24:38.000Z</time>
      </trkpt>
      <trkpt lat="43.0195243" lon="-5.7761677">
        <ele>983.14</ele>
        <time>2020-07-21T13:24:39.000Z</time>
      </trkpt>
      <trkpt lat="43.0195265" lon="-5.7761777">
        <ele>982.99</ele>
        <time>2020-07-21T13:24:40.000Z</time>
      </trkpt>
      <trkpt lat="43.0195272" lon="-5.7761862">
        <ele>982.99</ele>
        <time>2020-07-21T13:24:41.000Z</time>
      </trkpt>
      <trkpt lat="43.019528" lon="-5.776198">
        <ele>982.84</ele>
        <time>2020-07-21T13:24:42.000Z</time>
      </trkpt>
      <trkpt lat="43.0195293" lon="-5.7762137">
        <ele>982.84</ele>
        <time>2020-07-21T13:24:43.000Z</time>
      </trkpt>
      <trkpt lat="43.0195313" lon="-5.7762303">
        <ele>982.84</ele>
        <time>2020-07-21T13:24:44.000Z</time>
      </trkpt>
      <trkpt lat="43.0195332" lon="-5.7762473">
        <ele>982.69</ele>
        <time>2020-07-21T13:24:45.000Z</time>
      </trkpt>
      <trkpt lat="43.0195338" lon="-5.7762643">
        <ele>982.69</ele>
        <time>2020-07-21T13:24:46.000Z</time>
      </trkpt>
      <trkpt lat="43.0195347" lon="-5.7762818">
        <ele>982.69</ele>
        <time>2020-07-21T13:24:47.000Z</time>
      </trkpt>
      <trkpt lat="43.0195345" lon="-5.7762993">
        <time>2020-07-21T13:24:48.000Z</time>
      </trkpt>
      <trkpt lat="43.0195345" lon="-5.7763163">
        <time>2020-07-21T13:24:49.000Z</time>
      </trkpt>
      <trkpt lat="43.0195317" lon="-5.7763337">
        <time>2020-07-21T13:24:50.000Z</time>
      </trkpt>
      <trkpt lat="43.0195293" lon="-5.7763515">
        <time>2020-07-21T13:24:51.000Z</time>
      </trkpt>
      <trkpt lat="43.019528" lon="-5.776372">
        <time>2020-07-21T13:24:52.000Z</time>
      </trkpt>
      <trkpt lat="43.019531" lon="-5.7763928">
        <time>2020-07-21T13:24:53.000Z</time>
      </trkpt>
      <trkpt lat="43.019533" lon="-5.7764117">
        <time>2020-07-21T13:24:54.000Z</time>
      </trkpt>
      <trkpt lat="43.0195328" lon="-5.7764287">
        <time>2020-07-21T13:24:55.000Z</time>
      </trkpt>
      <trkpt lat="43.0195305" lon="-5.7764445">
        <time>2020-07-21T13:24:56.000Z</time>
      </trkpt>
      <trkpt lat="43.0195295" lon="-5.7764618">
        <time>2020-07-21T13:24:57.000Z</time>
      </trkpt>
      <trkpt lat="43.0195292" lon="-5.7764795">
        <time>2020-07-21T13:24:58.000Z</time>
      </trkpt>
      <trkpt lat="43.0195282" lon="-5.7764962">
        <time>2020-07-21T13:24:59.000Z</time>
      </trkpt>
      <trkpt lat="43.0195258" lon="-5.7765122">
        <time>2020-07-21T13:25:00.000Z</time>
      </trkpt>
      <trkpt lat="43.0195227" lon="-5.7765287">
        <time>2020-07-21T13:25:01.000Z</time>
      </trkpt>
      <trkpt lat="43.0195187" lon="-5.7765455">
        <time>2020-07-21T13:25:02.000Z</time>
      </trkpt>
      <trkpt lat="43.0195152" lon="-5.7765623">
        <time>2020-07-21T13:25:03.000Z</time>
      </trkpt>
      <trkpt lat="43.019512" lon="-5.7765787">
        <time>2020-07-21T13:25:04.000Z</time>
      </trkpt>
      <trkpt lat="43.0195095" lon="-5.7765952">
        <time>2020-07-21T13:25:05.000Z</time>
      </trkpt>
      <trkpt lat="43.0195078" lon="-5.7766118">
        <time>2020-07-21T13:25:06.000Z</time>
      </trkpt>
      <trkpt lat="43.0195068" lon="-5.7766278">
        <time>2020-07-21T13:25:07.000Z</time>
      </trkpt>
      <trkpt lat="43.0195062" lon="-5.7766437">
        <time>2020-07-21T13:25:08.000Z</time>
      </trkpt>
      <trkpt lat="43.0195048" lon="-5.7766587">
        <time>2020-07-21T13:25:09.000Z</time>
      </trkpt>
      <trkpt lat="43.0195023" lon="-5.7766732">
        <time>2020-07-21T13:25:10.000Z</time>
      </trkpt>
      <trkpt lat="43.0194978" lon="-5.776686">
        <time>2020-07-21T13:25:11.000Z</time>
      </trkpt>
      <trkpt lat="43.0194923" lon="-5.7766973">
        <time>2020-07-21T13:25:12.000Z</time>
      </trkpt>
      <trkpt lat="43.0194845" lon="-5.7767062">
        <time>2020-07-21T13:25:13.000Z</time>
      </trkpt>
      <trkpt lat="43.0194737" lon="-5.7767127">
        <time>2020-07-21T13:25:14.000Z</time>
      </trkpt>
      <trkpt lat="43.019461" lon="-5.7767173">
        <time>2020-07-21T13:25:15.000Z</time>
      </trkpt>
      <trkpt lat="43.0194483" lon="-5.776722">
        <time>2020-07-21T13:25:16.000Z</time>
      </trkpt>
      <trkpt lat="43.019437" lon="-5.7767285">
        <time>2020-07-21T13:25:17.000Z</time>
      </trkpt>
      <trkpt lat="43.0194288" lon="-5.776739">
        <time>2020-07-21T13:25:18.000Z</time>
      </trkpt>
      <trkpt lat="43.0194242" lon="-5.7767523">
        <time>2020-07-21T13:25:19.000Z</time>
      </trkpt>
      <trkpt lat="43.0194217" lon="-5.7767665">
        <time>2020-07-21T13:25:20.000Z</time>
      </trkpt>
      <trkpt lat="43.0194197" lon="-5.7767807">
        <time>2020-07-21T13:25:21.000Z</time>
      </trkpt>
      <trkpt lat="43.0194173" lon="-5.7767948">
        <time>2020-07-21T13:25:22.000Z</time>
      </trkpt>
      <trkpt lat="43.0194155" lon="-5.7768103">
        <time>2020-07-21T13:25:23.000Z</time>
      </trkpt>
      <trkpt lat="43.0194132" lon="-5.7768255">
        <time>2020-07-21T13:25:24.000Z</time>
      </trkpt>
      <trkpt lat="43.0194115" lon="-5.7768417">
        <time>2020-07-21T13:25:25.000Z</time>
      </trkpt>
      <trkpt lat="43.0194103" lon="-5.7768578">
        <time>2020-07-21T13:25:26.000Z</time>
      </trkpt>
      <trkpt lat="43.0194098" lon="-5.7768748">
        <time>2020-07-21T13:25:27.000Z</time>
      </trkpt>
      <trkpt lat="43.0194097" lon="-5.776891">
        <time>2020-07-21T13:25:28.000Z</time>
      </trkpt>
      <trkpt lat="43.0194095" lon="-5.7769073">
        <time>2020-07-21T13:25:29.000Z</time>
      </trkpt>
      <trkpt lat="43.0194093" lon="-5.7769237">
        <time>2020-07-21T13:25:30.000Z</time>
      </trkpt>
      <trkpt lat="43.0194098" lon="-5.7769412">
        <time>2020-07-21T13:25:31.000Z</time>
      </trkpt>
      <trkpt lat="43.0194105" lon="-5.7769585">
        <time>2020-07-21T13:25:32.000Z</time>
      </trkpt>
      <trkpt lat="43.0194118" lon="-5.776977">
        <time>2020-07-21T13:25:33.000Z</time>
      </trkpt>
      <trkpt lat="43.0194135" lon="-5.7769952">
        <time>2020-07-21T13:25:34.000Z</time>
      </trkpt>
      <trkpt lat="43.0194162" lon="-5.7770135">
        <time>2020-07-21T13:25:35.000Z</time>
      </trkpt>
      <trkpt lat="43.0194188" lon="-5.777031">
        <time>2020-07-21T13:25:36.000Z</time>
      </trkpt>
      <trkpt lat="43.019421" lon="-5.7770493">
        <time>2020-07-21T13:25:37.000Z</time>
      </trkpt>
      <trkpt lat="43.019423" lon="-5.7770682">
        <time>2020-07-21T13:25:38.000Z</time>
      </trkpt>
      <trkpt lat="43.019425" lon="-5.7770868">
        <time>2020-07-21T13:25:39.000Z</time>
      </trkpt>
      <trkpt lat="43.0194275" lon="-5.7771052">
        <time>2020-07-21T13:25:40.000Z</time>
      </trkpt>
      <trkpt lat="43.01943" lon="-5.777123">
        <time>2020-07-21T13:25:41.000Z</time>
      </trkpt>
      <trkpt lat="43.0194328" lon="-5.7771407">
        <time>2020-07-21T13:25:42.000Z</time>
      </trkpt>
      <trkpt lat="43.0194362" lon="-5.7771582">
        <time>2020-07-21T13:25:43.000Z</time>
      </trkpt>
      <trkpt lat="43.0194402" lon="-5.777176">
        <time>2020-07-21T13:25:44.000Z</time>
      </trkpt>
      <trkpt lat="43.0194442" lon="-5.7771947">
        <time>2020-07-21T13:25:45.000Z</time>
      </trkpt>
      <trkpt lat="43.019449" lon="-5.7772113">
        <time>2020-07-21T13:25:46.000Z</time>
      </trkpt>
      <trkpt lat="43.019449" lon="-5.7772113">
        <time>2020-07-21T13:25:47.000Z</time>
      </trkpt>
      <trkpt lat="43.019449" lon="-5.7772113">
        <time>2020-07-21T13:25:48.000Z</time>
      </trkpt>
      <trkpt lat="43.019449" lon="-5.7772113">
        <time>2020-07-21T13:25:49.000Z</time>
      </trkpt>
      <trkpt lat="43.019449" lon="-5.7772113">
        <time>2020-07-21T13:25:50.000Z</time>
      </trkpt>
      <trkpt lat="43.019449" lon="-5.7772113">
        <time>2020-07-21T13:25:51.000Z</time>
      </trkpt>
      <trkpt lat="43.019449" lon="-5.7772113">
        <time>2020-07-21T13:25:52.000Z</time>
      </trkpt>
      <trkpt lat="43.019449" lon="-5.7772113">
        <time>2020-07-21T13:25:53.000Z</time>
      </trkpt>
      <trkpt lat="43.019449" lon="-5.7772113">
        <time>2020-07-21T13:25:54.000Z</time>
      </trkpt>
      <trkpt lat="43.019449" lon="-5.7772113">
        <time>2020-07-21T13:25:55.000Z</time>
      </trkpt>
      <trkpt lat="43.019449" lon="-5.7772113">
        <time>2020-07-21T13:25:56.000Z</time>
      </trkpt>
      <trkpt lat="43.019449" lon="-5.7772113">
        <time>2020-07-21T13:25:57.000Z</time>
      </trkpt>
      <trkpt lat="43.019449" lon="-5.7772113">
        <time>2020-07-21T13:25:58.000Z</time>
      </trkpt>
      <trkpt lat="43.019449" lon="-5.7772113">
        <time>2020-07-21T13:25:59.000Z</time>
      </trkpt>
      <trkpt lat="43.019449" lon="-5.7772113">
        <time>2020-07-21T13:26:00.000Z</time>
      </trkpt>
      <trkpt lat="43.019449" lon="-5.7772113">
        <time>2020-07-21T13:26:01.000Z</time>
      </trkpt>
      <trkpt lat="43.019274" lon="-5.778058">
        <ele>1008.24</ele>
        <time>2020-07-21T13:27:57.000Z</time>
      </trkpt>
      <trkpt lat="43.019248" lon="-5.77811">
        <ele>1006.77</ele>
        <time>2020-07-21T13:28:08.000Z</time>
      </trkpt>
      <trkpt lat="43.019211" lon="-5.778155">
        <ele>1006.29</ele>
        <time>2020-07-21T13:28:14.000Z</time>
      </trkpt>
      <trkpt lat="43.019208" lon="-5.778259">
        <ele>1006.58</ele>
        <time>2020-07-21T13:28:20.000Z</time>
      </trkpt>
      <trkpt lat="43.019172" lon="-5.778329">
        <ele>1004.86</ele>
        <time>2020-07-21T13:28:23.000Z</time>
      </trkpt>
      <trkpt lat="43.019133" lon="-5.778371">
        <ele>1002.89</ele>
        <time>2020-07-21T13:28:26.000Z</time>
      </trkpt>
      <trkpt lat="43.019101" lon="-5.778411">
        <ele>1001.11</ele>
        <time>2020-07-21T13:28:29.000Z</time>
      </trkpt>
      <trkpt lat="43.019062" lon="-5.778449">
        <ele>1001.41</ele>
        <time>2020-07-21T13:28:33.000Z</time>
      </trkpt>
      <trkpt lat="43.019052" lon="-5.778519">
        <ele>1002.24</ele>
        <time>2020-07-21T13:28:36.000Z</time>
      </trkpt>
      <trkpt lat="43.019013" lon="-5.778555">
        <ele>1001.1</ele>
        <time>2020-07-21T13:28:40.000Z</time>
      </trkpt>
      <trkpt lat="43.018993" lon="-5.778577">
        <ele>998.74</ele>
        <time>2020-07-21T13:28:43.000Z</time>
      </trkpt>
      <trkpt lat="43.018975" lon="-5.778649">
        <ele>997.52</ele>
        <time>2020-07-21T13:28:48.000Z</time>
      </trkpt>
      <trkpt lat="43.018971" lon="-5.778726">
        <ele>999.15</ele>
        <time>2020-07-21T13:28:51.000Z</time>
      </trkpt>
      <trkpt lat="43.018984" lon="-5.778796">
        <ele>1001.27</ele>
        <time>2020-07-21T13:28:56.000Z</time>
      </trkpt>
      <trkpt lat="43.01901" lon="-5.778857">
        <ele>1002.59</ele>
        <time>2020-07-21T13:29:01.000Z</time>
      </trkpt>
      <trkpt lat="43.019024" lon="-5.778889">
        <ele>1003.46</ele>
        <time>2020-07-21T13:29:04.000Z</time>
      </trkpt>
      <trkpt lat="43.019041" lon="-5.778967">
        <ele>1001.86</ele>
        <time>2020-07-21T13:29:09.000Z</time>
      </trkpt>
      <trkpt lat="43.019044" lon="-5.779039">
        <ele>1002.02</ele>
        <time>2020-07-21T13:29:14.000Z</time>
      </trkpt>
      <trkpt lat="43.019046" lon="-5.779073">
        <ele>1002.25</ele>
        <time>2020-07-21T13:29:16.000Z</time>
      </trkpt>
      <trkpt lat="43.019049" lon="-5.779129">
        <ele>1001.51</ele>
        <time>2020-07-21T13:29:19.000Z</time>
      </trkpt>
      <trkpt lat="43.019029" lon="-5.779214">
        <ele>1000.73</ele>
        <time>2020-07-21T13:29:25.000Z</time>
      </trkpt>
      <trkpt lat="43.018963" lon="-5.77921">
        <ele>994.09</ele>
        <time>2020-07-21T13:29:31.000Z</time>
      </trkpt>
      <trkpt lat="43.018928" lon="-5.779207">
        <ele>991.94</ele>
        <time>2020-07-21T13:29:33.000Z</time>
      </trkpt>
      <trkpt lat="43.018899" lon="-5.779203">
        <ele>991</ele>
        <time>2020-07-21T13:29:35.000Z</time>
      </trkpt>
      <trkpt lat="43.018847" lon="-5.779219">
        <ele>989</ele>
        <time>2020-07-21T13:29:39.000Z</time>
      </trkpt>
      <trkpt lat="43.018806" lon="-5.779246">
        <ele>984</ele>
        <time>2020-07-21T13:29:44.000Z</time>
      </trkpt>
      <trkpt lat="43.018781" lon="-5.77931">
        <ele>984.07</ele>
        <time>2020-07-21T13:29:48.000Z</time>
      </trkpt>
      <trkpt lat="43.018778" lon="-5.779384">
        <ele>982.22</ele>
        <time>2020-07-21T13:29:52.000Z</time>
      </trkpt>
      <trkpt lat="43.018794" lon="-5.779459">
        <ele>983.94</ele>
        <time>2020-07-21T13:29:57.000Z</time>
      </trkpt>
      <trkpt lat="43.018803" lon="-5.779521">
        <ele>983.53</ele>
        <time>2020-07-21T13:30:00.000Z</time>
      </trkpt>
      <trkpt lat="43.018811" lon="-5.779561">
        <ele>981.88</ele>
        <time>2020-07-21T13:30:02.000Z</time>
      </trkpt>
      <trkpt lat="43.018846" lon="-5.779639">
        <ele>980.18</ele>
        <time>2020-07-21T13:30:07.000Z</time>
      </trkpt>
      <trkpt lat="43.018872" lon="-5.779701">
        <ele>978.82</ele>
        <time>2020-07-21T13:30:10.000Z</time>
      </trkpt>
      <trkpt lat="43.018898" lon="-5.779757">
        <ele>981.65</ele>
        <time>2020-07-21T13:30:13.000Z</time>
      </trkpt>
      <trkpt lat="43.018899" lon="-5.779854">
        <ele>977.16</ele>
        <time>2020-07-21T13:30:17.000Z</time>
      </trkpt>
      <trkpt lat="43.018899" lon="-5.779854">
        <ele>977.16</ele>
        <time>2020-07-21T13:30:25.000Z</time>
      </trkpt>
      <trkpt lat="43.018899" lon="-5.779854">
        <ele>977.16</ele>
        <time>2020-07-21T13:30:26.000Z</time>
      </trkpt>
      <trkpt lat="43.018923" lon="-5.779922">
        <ele>970.79</ele>
        <time>2020-07-21T13:30:29.000Z</time>
      </trkpt>
      <trkpt lat="43.018914" lon="-5.78001">
        <ele>971.56</ele>
        <time>2020-07-21T13:30:33.000Z</time>
      </trkpt>
      <trkpt lat="43.018879" lon="-5.780063">
        <ele>964.96</ele>
        <time>2020-07-21T13:30:41.000Z</time>
      </trkpt>
      <trkpt lat="43.018857" lon="-5.780132">
        <ele>964.53</ele>
        <time>2020-07-21T13:30:44.000Z</time>
      </trkpt>
      <trkpt lat="43.018822" lon="-5.780173">
        <ele>964.75</ele>
        <time>2020-07-21T13:30:47.000Z</time>
      </trkpt>
      <trkpt lat="43.018785" lon="-5.780207">
        <ele>963.75</ele>
        <time>2020-07-21T13:30:52.000Z</time>
      </trkpt>
      <trkpt lat="43.018785" lon="-5.780207">
        <ele>963.75</ele>
        <time>2020-07-21T13:31:00.000Z</time>
      </trkpt>
      <trkpt lat="43.018785" lon="-5.780207">
        <ele>963.75</ele>
        <time>2020-07-21T13:31:01.000Z</time>
      </trkpt>
      <trkpt lat="43.01868" lon="-5.780194">
        <ele>953.31</ele>
        <time>2020-07-21T13:31:34.000Z</time>
      </trkpt>
      <trkpt lat="43.018639" lon="-5.780169">
        <ele>951.85</ele>
        <time>2020-07-21T13:31:37.000Z</time>
      </trkpt>
      <trkpt lat="43.018607" lon="-5.780154">
        <ele>951.3</ele>
        <time>2020-07-21T13:31:39.000Z</time>
      </trkpt>
      <trkpt lat="43.018557" lon="-5.780163">
        <ele>953.67</ele>
        <time>2020-07-21T13:31:43.000Z</time>
      </trkpt>
      <trkpt lat="43.018531" lon="-5.780213">
        <ele>952.15</ele>
        <time>2020-07-21T13:31:47.000Z</time>
      </trkpt>
      <trkpt lat="43.01852" lon="-5.780274">
        <ele>952.54</ele>
        <time>2020-07-21T13:31:51.000Z</time>
      </trkpt>
      <trkpt lat="43.018496" lon="-5.780337">
        <ele>951.28</ele>
        <time>2020-07-21T13:31:56.000Z</time>
      </trkpt>
      <trkpt lat="43.018466" lon="-5.780395">
        <ele>950.58</ele>
        <time>2020-07-21T13:32:00.000Z</time>
      </trkpt>
      <trkpt lat="43.018442" lon="-5.78046">
        <ele>949.48</ele>
        <time>2020-07-21T13:32:04.000Z</time>
      </trkpt>
      <trkpt lat="43.018426" lon="-5.780519">
        <ele>948.01</ele>
        <time>2020-07-21T13:32:07.000Z</time>
      </trkpt>
      <trkpt lat="43.018416" lon="-5.780548">
        <ele>946.9</ele>
        <time>2020-07-21T13:32:09.000Z</time>
      </trkpt>
      <trkpt lat="43.01839" lon="-5.78061">
        <ele>948.42</ele>
        <time>2020-07-21T13:32:13.000Z</time>
      </trkpt>
      <trkpt lat="43.01837" lon="-5.780656">
        <ele>947.48</ele>
        <time>2020-07-21T13:32:15.000Z</time>
      </trkpt>
      <trkpt lat="43.018353" lon="-5.780726">
        <ele>945.47</ele>
        <time>2020-07-21T13:32:21.000Z</time>
      </trkpt>
      <trkpt lat="43.018351" lon="-5.780797">
        <ele>943.16</ele>
        <time>2020-07-21T13:32:24.000Z</time>
      </trkpt>
      <trkpt lat="43.018335" lon="-5.780868">
        <ele>942.89</ele>
        <time>2020-07-21T13:32:28.000Z</time>
      </trkpt>
      <trkpt lat="43.018327" lon="-5.780899">
        <ele>941.78</ele>
        <time>2020-07-21T13:32:30.000Z</time>
      </trkpt>
      <trkpt lat="43.018296" lon="-5.780956">
        <ele>940.63</ele>
        <time>2020-07-21T13:32:34.000Z</time>
      </trkpt>
      <trkpt lat="43.018261" lon="-5.781014">
        <ele>939.68</ele>
        <time>2020-07-21T13:32:39.000Z</time>
      </trkpt>
      <trkpt lat="43.018247" lon="-5.781041">
        <ele>938.89</ele>
        <time>2020-07-21T13:32:41.000Z</time>
      </trkpt>
      <trkpt lat="43.018231" lon="-5.781114">
        <ele>937.1</ele>
        <time>2020-07-21T13:32:46.000Z</time>
      </trkpt>
      <trkpt lat="43.018221" lon="-5.78118">
        <ele>936.6</ele>
        <time>2020-07-21T13:32:50.000Z</time>
      </trkpt>
      <trkpt lat="43.018212" lon="-5.781263">
        <ele>936.8</ele>
        <time>2020-07-21T13:32:54.000Z</time>
      </trkpt>
      <trkpt lat="43.018194" lon="-5.781334">
        <ele>934.83</ele>
        <time>2020-07-21T13:32:58.000Z</time>
      </trkpt>
      <trkpt lat="43.01817" lon="-5.781397">
        <ele>932.47</ele>
        <time>2020-07-21T13:33:03.000Z</time>
      </trkpt>
      <trkpt lat="43.01816" lon="-5.781485">
        <ele>930.71</ele>
        <time>2020-07-21T13:33:08.000Z</time>
      </trkpt>
      <trkpt lat="43.018155" lon="-5.781524">
        <ele>929.32</ele>
        <time>2020-07-21T13:33:10.000Z</time>
      </trkpt>
      <trkpt lat="43.018139" lon="-5.781598">
        <ele>927.63</ele>
        <time>2020-07-21T13:33:14.000Z</time>
      </trkpt>
      <trkpt lat="43.01813" lon="-5.781649">
        <ele>926.62</ele>
        <time>2020-07-21T13:33:16.000Z</time>
      </trkpt>
      <trkpt lat="43.018106" lon="-5.781711">
        <ele>924.08</ele>
        <time>2020-07-21T13:33:20.000Z</time>
      </trkpt>
      <trkpt lat="43.018066" lon="-5.781756">
        <ele>925.58</ele>
        <time>2020-07-21T13:33:24.000Z</time>
      </trkpt>
      <trkpt lat="43.018042" lon="-5.781786">
        <ele>924.29</ele>
        <time>2020-07-21T13:33:26.000Z</time>
      </trkpt>
      <trkpt lat="43.018" lon="-5.78184">
        <ele>924.54</ele>
        <time>2020-07-21T13:33:30.000Z</time>
      </trkpt>
      <trkpt lat="43.017972" lon="-5.781898">
        <ele>924.22</ele>
        <time>2020-07-21T13:33:33.000Z</time>
      </trkpt>
      <trkpt lat="43.017938" lon="-5.781944">
        <ele>923.42</ele>
        <time>2020-07-21T13:33:36.000Z</time>
      </trkpt>
      <trkpt lat="43.017918" lon="-5.782001">
        <ele>923.22</ele>
        <time>2020-07-21T13:33:40.000Z</time>
      </trkpt>
      <trkpt lat="43.017905" lon="-5.782038">
        <ele>922.09</ele>
        <time>2020-07-21T13:33:42.000Z</time>
      </trkpt>
      <trkpt lat="43.017892" lon="-5.782073">
        <ele>919.9</ele>
        <time>2020-07-21T13:33:44.000Z</time>
      </trkpt>
      <trkpt lat="43.017884" lon="-5.782101">
        <ele>917.68</ele>
        <time>2020-07-21T13:33:46.000Z</time>
      </trkpt>
      <trkpt lat="43.01787" lon="-5.782169">
        <ele>916.4</ele>
        <time>2020-07-21T13:33:50.000Z</time>
      </trkpt>
      <trkpt lat="43.017854" lon="-5.782188">
        <ele>915.05</ele>
        <time>2020-07-21T13:33:56.000Z</time>
      </trkpt>
      <trkpt lat="43.017823" lon="-5.782245">
        <ele>914.22</ele>
        <time>2020-07-21T13:34:04.000Z</time>
      </trkpt>
      <trkpt lat="43.017766" lon="-5.782272">
        <ele>912.55</ele>
        <time>2020-07-21T13:34:07.000Z</time>
      </trkpt>
      <trkpt lat="43.017711" lon="-5.7823">
        <ele>913.42</ele>
        <time>2020-07-21T13:34:11.000Z</time>
      </trkpt>
      <trkpt lat="43.017658" lon="-5.782333">
        <ele>914.78</ele>
        <time>2020-07-21T13:34:14.000Z</time>
      </trkpt>
      <trkpt lat="43.017606" lon="-5.782342">
        <ele>912.95</ele>
        <time>2020-07-21T13:34:18.000Z</time>
      </trkpt>
      <trkpt lat="43.017542" lon="-5.782328">
        <ele>913.23</ele>
        <time>2020-07-21T13:34:22.000Z</time>
      </trkpt>
      <trkpt lat="43.017502" lon="-5.782289">
        <ele>912.53</ele>
        <time>2020-07-21T13:34:27.000Z</time>
      </trkpt>
      <trkpt lat="43.017478" lon="-5.782261">
        <ele>910.55</ele>
        <time>2020-07-21T13:34:29.000Z</time>
      </trkpt>
      <trkpt lat="43.017458" lon="-5.782198">
        <ele>910.94</ele>
        <time>2020-07-21T13:34:34.000Z</time>
      </trkpt>
      <trkpt lat="43.017437" lon="-5.782142">
        <ele>909.48</ele>
        <time>2020-07-21T13:34:38.000Z</time>
      </trkpt>
      <trkpt lat="43.017424" lon="-5.782105">
        <ele>908.56</ele>
        <time>2020-07-21T13:34:41.000Z</time>
      </trkpt>
      <trkpt lat="43.017391" lon="-5.782059">
        <ele>908.52</ele>
        <time>2020-07-21T13:34:45.000Z</time>
      </trkpt>
      <trkpt lat="43.017359" lon="-5.782004">
        <ele>908.41</ele>
        <time>2020-07-21T13:34:48.000Z</time>
      </trkpt>
      <trkpt lat="43.017325" lon="-5.781963">
        <ele>907.78</ele>
        <time>2020-07-21T13:34:51.000Z</time>
      </trkpt>
      <trkpt lat="43.017288" lon="-5.781893">
        <ele>908.14</ele>
        <time>2020-07-21T13:34:55.000Z</time>
      </trkpt>
      <trkpt lat="43.017278" lon="-5.781829">
        <ele>906.09</ele>
        <time>2020-07-21T13:34:59.000Z</time>
      </trkpt>
      <trkpt lat="43.017276" lon="-5.78176">
        <ele>904.6</ele>
        <time>2020-07-21T13:35:04.000Z</time>
      </trkpt>
      <trkpt lat="43.017258" lon="-5.781677">
        <ele>903.64</ele>
        <time>2020-07-21T13:35:07.000Z</time>
      </trkpt>
      <trkpt lat="43.017252" lon="-5.781645">
        <ele>902.78</ele>
        <time>2020-07-21T13:35:09.000Z</time>
      </trkpt>
      <trkpt lat="43.01725" lon="-5.781583">
        <ele>903.14</ele>
        <time>2020-07-21T13:35:12.000Z</time>
      </trkpt>
      <trkpt lat="43.017237" lon="-5.781518">
        <ele>901.82</ele>
        <time>2020-07-21T13:35:15.000Z</time>
      </trkpt>
      <trkpt lat="43.017228" lon="-5.781463">
        <ele>900.93</ele>
        <time>2020-07-21T13:35:18.000Z</time>
      </trkpt>
      <trkpt lat="43.017204" lon="-5.781402">
        <ele>898.56</ele>
        <time>2020-07-21T13:35:21.000Z</time>
      </trkpt>
      <trkpt lat="43.017195" lon="-5.781323">
        <ele>896.53</ele>
        <time>2020-07-21T13:35:27.000Z</time>
      </trkpt>
      <trkpt lat="43.017179" lon="-5.781256">
        <ele>895.05</ele>
        <time>2020-07-21T13:35:30.000Z</time>
      </trkpt>
      <trkpt lat="43.017154" lon="-5.781188">
        <ele>893.45</ele>
        <time>2020-07-21T13:35:33.000Z</time>
      </trkpt>
      <trkpt lat="43.017139" lon="-5.7811">
        <ele>892.6</ele>
        <time>2020-07-21T13:35:38.000Z</time>
      </trkpt>
      <trkpt lat="43.017134" lon="-5.781036">
        <ele>890.65</ele>
        <time>2020-07-21T13:35:42.000Z</time>
      </trkpt>
      <trkpt lat="43.017123" lon="-5.780953">
        <ele>888.8</ele>
        <time>2020-07-21T13:35:45.000Z</time>
      </trkpt>
      <trkpt lat="43.017105" lon="-5.780873">
        <ele>888.49</ele>
        <time>2020-07-21T13:35:49.000Z</time>
      </trkpt>
      <trkpt lat="43.017101" lon="-5.780806">
        <ele>888.98</ele>
        <time>2020-07-21T13:35:53.000Z</time>
      </trkpt>
      <trkpt lat="43.017103" lon="-5.780743">
        <ele>886.34</ele>
        <time>2020-07-21T13:35:56.000Z</time>
      </trkpt>
      <trkpt lat="43.017095" lon="-5.780663">
        <ele>885.13</ele>
        <time>2020-07-21T13:35:59.000Z</time>
      </trkpt>
      <trkpt lat="43.01709" lon="-5.780633">
        <ele>885.83</ele>
        <time>2020-07-21T13:36:00.000Z</time>
      </trkpt>
      <trkpt lat="43.017086" lon="-5.780602">
        <ele>885.7</ele>
        <time>2020-07-21T13:36:01.000Z</time>
      </trkpt>
      <trkpt lat="43.017081" lon="-5.780535">
        <ele>883.26</ele>
        <time>2020-07-21T13:36:05.000Z</time>
      </trkpt>
      <trkpt lat="43.017052" lon="-5.780467">
        <ele>880.97</ele>
        <time>2020-07-21T13:36:09.000Z</time>
      </trkpt>
      <trkpt lat="43.01703" lon="-5.780423">
        <ele>885.22</ele>
        <time>2020-07-21T13:36:11.000Z</time>
      </trkpt>
      <trkpt lat="43.01701" lon="-5.780365">
        <ele>881.18</ele>
        <time>2020-07-21T13:36:15.000Z</time>
      </trkpt>
      <trkpt lat="43.016997" lon="-5.780325">
        <ele>881.05</ele>
        <time>2020-07-21T13:36:17.000Z</time>
      </trkpt>
      <trkpt lat="43.016984" lon="-5.780262">
        <ele>880.22</ele>
        <time>2020-07-21T13:36:20.000Z</time>
      </trkpt>
      <trkpt lat="43.016979" lon="-5.780229">
        <ele>879.35</ele>
        <time>2020-07-21T13:36:22.000Z</time>
      </trkpt>
      <trkpt lat="43.016962" lon="-5.780162">
        <ele>879.55</ele>
        <time>2020-07-21T13:36:26.000Z</time>
      </trkpt>
      <trkpt lat="43.016951" lon="-5.78009">
        <ele>881.43</ele>
        <time>2020-07-21T13:36:29.000Z</time>
      </trkpt>
      <trkpt lat="43.016941" lon="-5.780046">
        <ele>881.2</ele>
        <time>2020-07-21T13:36:31.000Z</time>
      </trkpt>
      <trkpt lat="43.016916" lon="-5.779981">
        <ele>876.73</ele>
        <time>2020-07-21T13:36:37.000Z</time>
      </trkpt>
      <trkpt lat="43.016891" lon="-5.779926">
        <ele>875.83</ele>
        <time>2020-07-21T13:36:40.000Z</time>
      </trkpt>
      <trkpt lat="43.016872" lon="-5.779889">
        <ele>876.26</ele>
        <time>2020-07-21T13:36:42.000Z</time>
      </trkpt>
      <trkpt lat="43.016853" lon="-5.779854">
        <ele>875.56</ele>
        <time>2020-07-21T13:36:44.000Z</time>
      </trkpt>
      <trkpt lat="43.016836" lon="-5.77982">
        <ele>873.25</ele>
        <time>2020-07-21T13:36:46.000Z</time>
      </trkpt>
      <trkpt lat="43.016784" lon="-5.779792">
        <ele>873.65</ele>
        <time>2020-07-21T13:36:50.000Z</time>
      </trkpt>
      <trkpt lat="43.016712" lon="-5.779793">
        <ele>874.32</ele>
        <time>2020-07-21T13:36:53.000Z</time>
      </trkpt>
      <trkpt lat="43.016675" lon="-5.779843">
        <ele>873.03</ele>
        <time>2020-07-21T13:36:56.000Z</time>
      </trkpt>
      <trkpt lat="43.016669" lon="-5.779918">
        <ele>873.93</ele>
        <time>2020-07-21T13:37:00.000Z</time>
      </trkpt>
      <trkpt lat="43.016668" lon="-5.78">
        <ele>872.8</ele>
        <time>2020-07-21T13:37:03.000Z</time>
      </trkpt>
      <trkpt lat="43.016644" lon="-5.780095">
        <ele>872.39</ele>
        <time>2020-07-21T13:37:06.000Z</time>
      </trkpt>
      <trkpt lat="43.016633" lon="-5.780136">
        <ele>871.45</ele>
        <time>2020-07-21T13:37:08.000Z</time>
      </trkpt>
      <trkpt lat="43.016626" lon="-5.780168">
        <ele>871.44</ele>
        <time>2020-07-21T13:37:09.000Z</time>
      </trkpt>
      <trkpt lat="43.016618" lon="-5.780207">
        <ele>868.35</ele>
        <time>2020-07-21T13:37:12.000Z</time>
      </trkpt>
      <trkpt lat="43.016612" lon="-5.780245">
        <ele>868.36</ele>
        <time>2020-07-21T13:37:14.000Z</time>
      </trkpt>
      <trkpt lat="43.016593" lon="-5.780316">
        <ele>867.85</ele>
        <time>2020-07-21T13:37:17.000Z</time>
      </trkpt>
      <trkpt lat="43.016575" lon="-5.780384">
        <ele>866.79</ele>
        <time>2020-07-21T13:37:20.000Z</time>
      </trkpt>
      <trkpt lat="43.016565" lon="-5.780431">
        <ele>864.77</ele>
        <time>2020-07-21T13:37:22.000Z</time>
      </trkpt>
      <trkpt lat="43.016546" lon="-5.78049">
        <ele>865</ele>
        <time>2020-07-21T13:37:24.000Z</time>
      </trkpt>
      <trkpt lat="43.01653" lon="-5.780532">
        <ele>863.67</ele>
        <time>2020-07-21T13:37:26.000Z</time>
      </trkpt>
      <trkpt lat="43.016514" lon="-5.780569">
        <ele>864.22</ele>
        <time>2020-07-21T13:37:28.000Z</time>
      </trkpt>
      <trkpt lat="43.016475" lon="-5.780642">
        <ele>864.54</ele>
        <time>2020-07-21T13:37:31.000Z</time>
      </trkpt>
      <trkpt lat="43.016461" lon="-5.78067">
        <ele>863.65</ele>
        <time>2020-07-21T13:37:32.000Z</time>
      </trkpt>
      <trkpt lat="43.016434" lon="-5.780746">
        <ele>862.09</ele>
        <time>2020-07-21T13:37:35.000Z</time>
      </trkpt>
      <trkpt lat="43.016421" lon="-5.780819">
        <ele>860.43</ele>
        <time>2020-07-21T13:37:38.000Z</time>
      </trkpt>
      <trkpt lat="43.016413" lon="-5.780868">
        <ele>859.64</ele>
        <time>2020-07-21T13:37:40.000Z</time>
      </trkpt>
      <trkpt lat="43.016395" lon="-5.780945">
        <ele>858.29</ele>
        <time>2020-07-21T13:37:43.000Z</time>
      </trkpt>
      <trkpt lat="43.016389" lon="-5.780974">
        <ele>857.44</ele>
        <time>2020-07-21T13:37:44.000Z</time>
      </trkpt>
      <trkpt lat="43.016377" lon="-5.781014">
        <ele>854.98</ele>
        <time>2020-07-21T13:37:46.000Z</time>
      </trkpt>
      <trkpt lat="43.016351" lon="-5.781087">
        <ele>856.06</ele>
        <time>2020-07-21T13:37:50.000Z</time>
      </trkpt>
      <trkpt lat="43.016345" lon="-5.781194">
        <ele>855.71</ele>
        <time>2020-07-21T13:37:54.000Z</time>
      </trkpt>
      <trkpt lat="43.016362" lon="-5.781252">
        <ele>853.59</ele>
        <time>2020-07-21T13:37:57.000Z</time>
      </trkpt>
      <trkpt lat="43.016372" lon="-5.781326">
        <ele>852.28</ele>
        <time>2020-07-21T13:38:01.000Z</time>
      </trkpt>
      <trkpt lat="43.016367" lon="-5.781387">
        <ele>850.57</ele>
        <time>2020-07-21T13:38:04.000Z</time>
      </trkpt>
      <trkpt lat="43.016349" lon="-5.781463">
        <ele>847.35</ele>
        <time>2020-07-21T13:38:07.000Z</time>
      </trkpt>
      <trkpt lat="43.016336" lon="-5.781521">
        <ele>846.57</ele>
        <time>2020-07-21T13:38:09.000Z</time>
      </trkpt>
      <trkpt lat="43.016323" lon="-5.781628">
        <ele>846.59</ele>
        <time>2020-07-21T13:38:13.000Z</time>
      </trkpt>
      <trkpt lat="43.016315" lon="-5.781677">
        <ele>847.23</ele>
        <time>2020-07-21T13:38:16.000Z</time>
      </trkpt>
      <trkpt lat="43.016307" lon="-5.781767">
        <ele>849.16</ele>
        <time>2020-07-21T13:38:20.000Z</time>
      </trkpt>
      <trkpt lat="43.01631" lon="-5.781853">
        <ele>847.55</ele>
        <time>2020-07-21T13:38:24.000Z</time>
      </trkpt>
      <trkpt lat="43.016304" lon="-5.781939">
        <ele>844.14</ele>
        <time>2020-07-21T13:38:28.000Z</time>
      </trkpt>
      <trkpt lat="43.016285" lon="-5.782035">
        <ele>863.56</ele>
        <time>2020-07-21T13:38:33.000Z</time>
      </trkpt>
      <trkpt lat="43.016265" lon="-5.782101">
        <ele>849.96</ele>
        <time>2020-07-21T13:38:36.000Z</time>
      </trkpt>
      <trkpt lat="43.01624" lon="-5.782152">
        <ele>840.89</ele>
        <time>2020-07-21T13:38:39.000Z</time>
      </trkpt>
      <trkpt lat="43.016185" lon="-5.782204">
        <ele>836.11</ele>
        <time>2020-07-21T13:38:43.000Z</time>
      </trkpt>
      <trkpt lat="43.016154" lon="-5.782249">
        <ele>834.65</ele>
        <time>2020-07-21T13:38:46.000Z</time>
      </trkpt>
      <trkpt lat="43.016138" lon="-5.782311">
        <ele>831.67</ele>
        <time>2020-07-21T13:38:49.000Z</time>
      </trkpt>
      <trkpt lat="43.016128" lon="-5.782357">
        <ele>832.47</ele>
        <time>2020-07-21T13:38:51.000Z</time>
      </trkpt>
      <trkpt lat="43.0161" lon="-5.782434">
        <ele>830.94</ele>
        <time>2020-07-21T13:38:54.000Z</time>
      </trkpt>
      <trkpt lat="43.016065" lon="-5.782514">
        <ele>828.97</ele>
        <time>2020-07-21T13:38:57.000Z</time>
      </trkpt>
      <trkpt lat="43.016044" lon="-5.782567">
        <ele>827.54</ele>
        <time>2020-07-21T13:38:59.000Z</time>
      </trkpt>
      <trkpt lat="43.016033" lon="-5.782595">
        <ele>826.74</ele>
        <time>2020-07-21T13:39:00.000Z</time>
      </trkpt>
      <trkpt lat="43.016014" lon="-5.782652">
        <ele>824.24</ele>
        <time>2020-07-21T13:39:02.000Z</time>
      </trkpt>
      <trkpt lat="43.015994" lon="-5.782736">
        <ele>823.26</ele>
        <time>2020-07-21T13:39:05.000Z</time>
      </trkpt>
      <trkpt lat="43.015956" lon="-5.782803">
        <ele>823.32</ele>
        <time>2020-07-21T13:39:08.000Z</time>
      </trkpt>
      <trkpt lat="43.015918" lon="-5.782855">
        <ele>822.23</ele>
        <time>2020-07-21T13:39:11.000Z</time>
      </trkpt>
      <trkpt lat="43.015892" lon="-5.78293">
        <ele>821.2</ele>
        <time>2020-07-21T13:39:14.000Z</time>
      </trkpt>
      <trkpt lat="43.015882" lon="-5.782959">
        <ele>821.2</ele>
        <time>2020-07-21T13:39:15.000Z</time>
      </trkpt>
      <trkpt lat="43.015865" lon="-5.783014">
        <ele>820.97</ele>
        <time>2020-07-21T13:39:17.000Z</time>
      </trkpt>
      <trkpt lat="43.015851" lon="-5.783061">
        <ele>821.02</ele>
        <time>2020-07-21T13:39:19.000Z</time>
      </trkpt>
      <trkpt lat="43.015843" lon="-5.783123">
        <ele>821.4</ele>
        <time>2020-07-21T13:39:22.000Z</time>
      </trkpt>
      <trkpt lat="43.015839" lon="-5.78317">
        <ele>820.72</ele>
        <time>2020-07-21T13:39:24.000Z</time>
      </trkpt>
      <trkpt lat="43.015835" lon="-5.783216">
        <ele>819.34</ele>
        <time>2020-07-21T13:39:26.000Z</time>
      </trkpt>
      <trkpt lat="43.01584" lon="-5.783279">
        <ele>816.75</ele>
        <time>2020-07-21T13:39:29.000Z</time>
      </trkpt>
      <trkpt lat="43.015823" lon="-5.783346">
        <ele>814.77</ele>
        <time>2020-07-21T13:39:32.000Z</time>
      </trkpt>
      <trkpt lat="43.015799" lon="-5.783417">
        <ele>811.03</ele>
        <time>2020-07-21T13:39:35.000Z</time>
      </trkpt>
      <trkpt lat="43.015769" lon="-5.783506">
        <ele>810.36</ele>
        <time>2020-07-21T13:39:39.000Z</time>
      </trkpt>
      <trkpt lat="43.015755" lon="-5.783541">
        <ele>810.21</ele>
        <time>2020-07-21T13:39:41.000Z</time>
      </trkpt>
      <trkpt lat="43.015741" lon="-5.783619">
        <ele>809.38</ele>
        <time>2020-07-21T13:39:45.000Z</time>
      </trkpt>
      <trkpt lat="43.015734" lon="-5.783659">
        <ele>808.54</ele>
        <time>2020-07-21T13:39:47.000Z</time>
      </trkpt>
      <trkpt lat="43.015727" lon="-5.783696">
        <ele>807.67</ele>
        <time>2020-07-21T13:39:49.000Z</time>
      </trkpt>
      <trkpt lat="43.015713" lon="-5.783756">
        <ele>806.28</ele>
        <time>2020-07-21T13:39:52.000Z</time>
      </trkpt>
      <trkpt lat="43.015706" lon="-5.783797">
        <ele>806.33</ele>
        <time>2020-07-21T13:39:54.000Z</time>
      </trkpt>
      <trkpt lat="43.015687" lon="-5.783858">
        <ele>804.87</ele>
        <time>2020-07-21T13:39:57.000Z</time>
      </trkpt>
      <trkpt lat="43.015678" lon="-5.783929">
        <ele>804.11</ele>
        <time>2020-07-21T13:40:01.000Z</time>
      </trkpt>
      <trkpt lat="43.015676" lon="-5.783964">
        <ele>803.79</ele>
        <time>2020-07-21T13:40:03.000Z</time>
      </trkpt>
      <trkpt lat="43.015674" lon="-5.783997">
        <ele>803</ele>
        <time>2020-07-21T13:40:05.000Z</time>
      </trkpt>
      <trkpt lat="43.015665" lon="-5.784059">
        <ele>802.18</ele>
        <time>2020-07-21T13:40:09.000Z</time>
      </trkpt>
      <trkpt lat="43.015659" lon="-5.784096">
        <ele>800.76</ele>
        <time>2020-07-21T13:40:11.000Z</time>
      </trkpt>
      <trkpt lat="43.015651" lon="-5.784133">
        <ele>799.6</ele>
        <time>2020-07-21T13:40:13.000Z</time>
      </trkpt>
      <trkpt lat="43.015629" lon="-5.784198">
        <ele>798.08</ele>
        <time>2020-07-21T13:40:17.000Z</time>
      </trkpt>
      <trkpt lat="43.01562" lon="-5.784227">
        <ele>796.94</ele>
        <time>2020-07-21T13:40:19.000Z</time>
      </trkpt>
      <trkpt lat="43.015608" lon="-5.784268">
        <ele>797.15</ele>
        <time>2020-07-21T13:40:22.000Z</time>
      </trkpt>
      <trkpt lat="43.015608" lon="-5.784333">
        <ele>796.02</ele>
        <time>2020-07-21T13:40:26.000Z</time>
      </trkpt>
      <trkpt lat="43.015607" lon="-5.784374">
        <ele>793.97</ele>
        <time>2020-07-21T13:40:29.000Z</time>
      </trkpt>
      <trkpt lat="43.015589" lon="-5.784434">
        <ele>792.26</ele>
        <time>2020-07-21T13:40:33.000Z</time>
      </trkpt>
      <trkpt lat="43.01554" lon="-5.784445">
        <ele>789.79</ele>
        <time>2020-07-21T13:40:38.000Z</time>
      </trkpt>
      <trkpt lat="43.015508" lon="-5.784453">
        <ele>788.23</ele>
        <time>2020-07-21T13:40:41.000Z</time>
      </trkpt>
      <trkpt lat="43.015461" lon="-5.78443">
        <ele>787.02</ele>
        <time>2020-07-21T13:40:45.000Z</time>
      </trkpt>
      <trkpt lat="43.015421" lon="-5.784404">
        <ele>787.38</ele>
        <time>2020-07-21T13:40:49.000Z</time>
      </trkpt>
      <trkpt lat="43.015386" lon="-5.784381">
        <ele>788.88</ele>
        <time>2020-07-21T13:40:58.000Z</time>
      </trkpt>
      <trkpt lat="43.015356" lon="-5.784434">
        <ele>791.14</ele>
        <time>2020-07-21T13:41:09.000Z</time>
      </trkpt>
      <trkpt lat="43.01537" lon="-5.784498">
        <ele>789.87</ele>
        <time>2020-07-21T13:41:12.000Z</time>
      </trkpt>
      <trkpt lat="43.015399" lon="-5.784554">
        <ele>789.46</ele>
        <time>2020-07-21T13:41:16.000Z</time>
      </trkpt>
      <trkpt lat="43.015428" lon="-5.78461">
        <ele>788.09</ele>
        <time>2020-07-21T13:41:22.000Z</time>
      </trkpt>
      <trkpt lat="43.015443" lon="-5.784675">
        <ele>789.87</ele>
        <time>2020-07-21T13:41:28.000Z</time>
      </trkpt>
      <trkpt lat="43.015453" lon="-5.784747">
        <ele>789.5</ele>
        <time>2020-07-21T13:41:31.000Z</time>
      </trkpt>
      <trkpt lat="43.015453" lon="-5.784747">
        <ele>789.5</ele>
        <time>2020-07-21T13:41:36.000Z</time>
      </trkpt>
      <trkpt lat="43.015453" lon="-5.784747">
        <ele>789.5</ele>
        <time>2020-07-21T13:41:37.000Z</time>
      </trkpt>
      <trkpt lat="43.015454" lon="-5.784828">
        <ele>787.96</ele>
        <time>2020-07-21T13:41:39.000Z</time>
      </trkpt>
      <trkpt lat="43.015439" lon="-5.784901">
        <ele>788.14</ele>
        <time>2020-07-21T13:41:44.000Z</time>
      </trkpt>
      <trkpt lat="43.015475" lon="-5.784945">
        <ele>783.66</ele>
        <time>2020-07-21T13:41:52.000Z</time>
      </trkpt>
      <trkpt lat="43.015475" lon="-5.784945">
        <ele>783.66</ele>
        <time>2020-07-21T13:44:02.000Z</time>
      </trkpt>
      <trkpt lat="43.015697" lon="-5.785225">
        <ele>784.48</ele>
        <time>2020-07-21T13:44:07.000Z</time>
      </trkpt>
      <trkpt lat="43.015748" lon="-5.785231">
        <ele>782.32</ele>
        <time>2020-07-21T13:44:11.000Z</time>
      </trkpt>
      <trkpt lat="43.015748" lon="-5.785231">
        <ele>782.32</ele>
        <time>2020-07-21T13:44:18.000Z</time>
      </trkpt>
      <trkpt lat="43.015748" lon="-5.785231">
        <ele>782.32</ele>
        <time>2020-07-21T13:44:19.000Z</time>
      </trkpt>
      <trkpt lat="43.015807" lon="-5.785186">
        <ele>779.65</ele>
        <time>2020-07-21T13:44:23.000Z</time>
      </trkpt>
      <trkpt lat="43.015853" lon="-5.785131">
        <ele>778.45</ele>
        <time>2020-07-21T13:44:27.000Z</time>
      </trkpt>
      <trkpt lat="43.015901" lon="-5.785098">
        <ele>778.51</ele>
        <time>2020-07-21T13:44:30.000Z</time>
      </trkpt>
      <trkpt lat="43.015921" lon="-5.785083">
        <ele>778.62</ele>
        <time>2020-07-21T13:44:31.000Z</time>
      </trkpt>
      <trkpt lat="43.015968" lon="-5.785061">
        <ele>778.98</ele>
        <time>2020-07-21T13:44:33.000Z</time>
      </trkpt>
      <trkpt lat="43.016007" lon="-5.785046">
        <ele>778.18</ele>
        <time>2020-07-21T13:44:35.000Z</time>
      </trkpt>
      <trkpt lat="43.016036" lon="-5.785033">
        <ele>778.03</ele>
        <time>2020-07-21T13:44:37.000Z</time>
      </trkpt>
      <trkpt lat="43.016068" lon="-5.785021">
        <ele>778.47</ele>
        <time>2020-07-21T13:44:39.000Z</time>
      </trkpt>
      <trkpt lat="43.016068" lon="-5.785021">
        <ele>778.47</ele>
        <time>2020-07-21T13:44:47.000Z</time>
      </trkpt>
      <trkpt lat="43.016123" lon="-5.785025">
        <ele>775.35</ele>
        <time>2020-07-21T13:44:48.000Z</time>
      </trkpt>
      <trkpt lat="43.016167" lon="-5.78501">
        <ele>775.56</ele>
        <time>2020-07-21T13:44:51.000Z</time>
      </trkpt>
      <trkpt lat="43.016214" lon="-5.784985">
        <ele>774.65</ele>
        <time>2020-07-21T13:44:54.000Z</time>
      </trkpt>
      <trkpt lat="43.016241" lon="-5.784971">
        <ele>776.46</ele>
        <time>2020-07-21T13:44:56.000Z</time>
      </trkpt>
      <trkpt lat="43.016301" lon="-5.784957">
        <ele>776.17</ele>
        <time>2020-07-21T13:45:02.000Z</time>
      </trkpt>
      <trkpt lat="43.016349" lon="-5.784944">
        <ele>774.45</ele>
        <time>2020-07-21T13:45:06.000Z</time>
      </trkpt>
      <trkpt lat="43.016406" lon="-5.784914">
        <ele>775.01</ele>
        <time>2020-07-21T13:45:10.000Z</time>
      </trkpt>
      <trkpt lat="43.016435" lon="-5.784896">
        <ele>774.69</ele>
        <time>2020-07-21T13:45:12.000Z</time>
      </trkpt>
      <trkpt lat="43.016478" lon="-5.784843">
        <ele>772.97</ele>
        <time>2020-07-21T13:45:16.000Z</time>
      </trkpt>
      <trkpt lat="43.016526" lon="-5.78482">
        <ele>773.32</ele>
        <time>2020-07-21T13:45:20.000Z</time>
      </trkpt>
      <trkpt lat="43.01658" lon="-5.784811">
        <ele>773.05</ele>
        <time>2020-07-21T13:45:25.000Z</time>
      </trkpt>
      <trkpt lat="43.016643" lon="-5.78483">
        <ele>773.56</ele>
        <time>2020-07-21T13:45:30.000Z</time>
      </trkpt>
      <trkpt lat="43.016696" lon="-5.784842">
        <ele>772.27</ele>
        <time>2020-07-21T13:45:34.000Z</time>
      </trkpt>
      <trkpt lat="43.016751" lon="-5.784861">
        <ele>772.36</ele>
        <time>2020-07-21T13:45:38.000Z</time>
      </trkpt>
      <trkpt lat="43.016792" lon="-5.784879">
        <ele>771.23</ele>
        <time>2020-07-21T13:45:42.000Z</time>
      </trkpt>
      <trkpt lat="43.016833" lon="-5.784904">
        <ele>770.23</ele>
        <time>2020-07-21T13:45:46.000Z</time>
      </trkpt>
      <trkpt lat="43.016885" lon="-5.784923">
        <ele>769.82</ele>
        <time>2020-07-21T13:45:50.000Z</time>
      </trkpt>
      <trkpt lat="43.016909" lon="-5.784933">
        <ele>769.89</ele>
        <time>2020-07-21T13:45:52.000Z</time>
      </trkpt>
      <trkpt lat="43.016955" lon="-5.784971">
        <ele>773.34</ele>
        <time>2020-07-21T13:45:56.000Z</time>
      </trkpt>
      <trkpt lat="43.016986" lon="-5.785019">
        <ele>773.03</ele>
        <time>2020-07-21T13:45:59.000Z</time>
      </trkpt>
      <trkpt lat="43.017034" lon="-5.785066">
        <ele>773.99</ele>
        <time>2020-07-21T13:46:03.000Z</time>
      </trkpt>
      <trkpt lat="43.017073" lon="-5.785098">
        <ele>771.72</ele>
        <time>2020-07-21T13:46:06.000Z</time>
      </trkpt>
      <trkpt lat="43.017122" lon="-5.785088">
        <ele>771.39</ele>
        <time>2020-07-21T13:46:09.000Z</time>
      </trkpt>
      <trkpt lat="43.017166" lon="-5.785102">
        <ele>771.35</ele>
        <time>2020-07-21T13:46:12.000Z</time>
      </trkpt>
      <trkpt lat="43.017206" lon="-5.785135">
        <ele>771.52</ele>
        <time>2020-07-21T13:46:16.000Z</time>
      </trkpt>
      <trkpt lat="43.017241" lon="-5.785183">
        <ele>772.75</ele>
        <time>2020-07-21T13:46:19.000Z</time>
      </trkpt>
      <trkpt lat="43.017261" lon="-5.785212">
        <ele>771.69</ele>
        <time>2020-07-21T13:46:21.000Z</time>
      </trkpt>
      <trkpt lat="43.017317" lon="-5.785265">
        <ele>773.34</ele>
        <time>2020-07-21T13:46:26.000Z</time>
      </trkpt>
      <trkpt lat="43.01734" lon="-5.785288">
        <ele>775.37</ele>
        <time>2020-07-21T13:46:28.000Z</time>
      </trkpt>
      <trkpt lat="43.017389" lon="-5.785319">
        <ele>773.34</ele>
        <time>2020-07-21T13:46:32.000Z</time>
      </trkpt>
      <trkpt lat="43.017419" lon="-5.785338">
        <ele>774.08</ele>
        <time>2020-07-21T13:46:34.000Z</time>
      </trkpt>
      <trkpt lat="43.017442" lon="-5.785352">
        <ele>773.29</ele>
        <time>2020-07-21T13:46:36.000Z</time>
      </trkpt>
      <trkpt lat="43.01749" lon="-5.785367">
        <ele>772.15</ele>
        <time>2020-07-21T13:46:39.000Z</time>
      </trkpt>
      <trkpt lat="43.017539" lon="-5.785394">
        <ele>773.18</ele>
        <time>2020-07-21T13:46:42.000Z</time>
      </trkpt>
      <trkpt lat="43.017586" lon="-5.785387">
        <ele>772.12</ele>
        <time>2020-07-21T13:46:45.000Z</time>
      </trkpt>
      <trkpt lat="43.017643" lon="-5.785395">
        <ele>775.4</ele>
        <time>2020-07-21T13:46:49.000Z</time>
      </trkpt>
      <trkpt lat="43.0177" lon="-5.785384">
        <ele>775.47</ele>
        <time>2020-07-21T13:46:53.000Z</time>
      </trkpt>
      <trkpt lat="43.017758" lon="-5.785395">
        <ele>777.47</ele>
        <time>2020-07-21T13:46:57.000Z</time>
      </trkpt>
      <trkpt lat="43.017793" lon="-5.7854">
        <ele>775.66</ele>
        <time>2020-07-21T13:47:00.000Z</time>
      </trkpt>
      <trkpt lat="43.017822" lon="-5.785404">
        <ele>774.73</ele>
        <time>2020-07-21T13:47:02.000Z</time>
      </trkpt>
      <trkpt lat="43.017849" lon="-5.785411">
        <ele>775.29</ele>
        <time>2020-07-21T13:47:04.000Z</time>
      </trkpt>
      <trkpt lat="43.017899" lon="-5.785417">
        <ele>774.43</ele>
        <time>2020-07-21T13:47:08.000Z</time>
      </trkpt>
      <trkpt lat="43.01792" lon="-5.785435">
        <ele>773.97</ele>
        <time>2020-07-21T13:47:17.000Z</time>
      </trkpt>
      <trkpt lat="43.017962" lon="-5.785474">
        <ele>772.75</ele>
        <time>2020-07-21T13:47:22.000Z</time>
      </trkpt>
      <trkpt lat="43.017994" lon="-5.7855">
        <ele>771.44</ele>
        <time>2020-07-21T13:47:26.000Z</time>
      </trkpt>
      <trkpt lat="43.018032" lon="-5.785557">
        <ele>772.49</ele>
        <time>2020-07-21T13:47:30.000Z</time>
      </trkpt>
      <trkpt lat="43.01808" lon="-5.785588">
        <ele>774.61</ele>
        <time>2020-07-21T13:47:34.000Z</time>
      </trkpt>
      <trkpt lat="43.018122" lon="-5.785612">
        <ele>773.25</ele>
        <time>2020-07-21T13:47:38.000Z</time>
      </trkpt>
      <trkpt lat="43.01817" lon="-5.785609">
        <ele>772.81</ele>
        <time>2020-07-21T13:47:42.000Z</time>
      </trkpt>
      <trkpt lat="43.018221" lon="-5.78559">
        <ele>773.43</ele>
        <time>2020-07-21T13:47:48.000Z</time>
      </trkpt>
      <trkpt lat="43.018254" lon="-5.785579">
        <ele>774.82</ele>
        <time>2020-07-21T13:47:50.000Z</time>
      </trkpt>
      <trkpt lat="43.018283" lon="-5.785567">
        <ele>774.02</ele>
        <time>2020-07-21T13:47:52.000Z</time>
      </trkpt>
      <trkpt lat="43.018319" lon="-5.785546">
        <ele>771.87</ele>
        <time>2020-07-21T13:47:55.000Z</time>
      </trkpt>
      <trkpt lat="43.018343" lon="-5.785531">
        <ele>770.48</ele>
        <time>2020-07-21T13:47:57.000Z</time>
      </trkpt>
      <trkpt lat="43.0184" lon="-5.785508">
        <ele>773.07</ele>
        <time>2020-07-21T13:48:01.000Z</time>
      </trkpt>
      <trkpt lat="43.018443" lon="-5.785492">
        <ele>773.38</ele>
        <time>2020-07-21T13:48:04.000Z</time>
      </trkpt>
      <trkpt lat="43.018503" lon="-5.785481">
        <ele>771.7</ele>
        <time>2020-07-21T13:48:09.000Z</time>
      </trkpt>
      <trkpt lat="43.018563" lon="-5.785489">
        <ele>771.83</ele>
        <time>2020-07-21T13:48:13.000Z</time>
      </trkpt>
      <trkpt lat="43.018574" lon="-5.78547">
        <ele>769.1</ele>
        <time>2020-07-21T13:48:22.000Z</time>
      </trkpt>
      <trkpt lat="43.018629" lon="-5.785449">
        <ele>765.95</ele>
        <time>2020-07-21T13:48:37.000Z</time>
      </trkpt>
      <trkpt lat="43.018664" lon="-5.78544">
        <ele>765.83</ele>
        <time>2020-07-21T13:48:40.000Z</time>
      </trkpt>
      <trkpt lat="43.018701" lon="-5.785434">
        <ele>767.83</ele>
        <time>2020-07-21T13:48:43.000Z</time>
      </trkpt>
      <trkpt lat="43.018725" lon="-5.785427">
        <ele>769.19</ele>
        <time>2020-07-21T13:48:45.000Z</time>
      </trkpt>
      <trkpt lat="43.018766" lon="-5.785394">
        <ele>766.82</ele>
        <time>2020-07-21T13:48:48.000Z</time>
      </trkpt>
      <trkpt lat="43.018797" lon="-5.785367">
        <ele>765.66</ele>
        <time>2020-07-21T13:48:50.000Z</time>
      </trkpt>
      <trkpt lat="43.01885" lon="-5.785329">
        <ele>766.62</ele>
        <time>2020-07-21T13:48:54.000Z</time>
      </trkpt>
      <trkpt lat="43.018875" lon="-5.785313">
        <ele>766.87</ele>
        <time>2020-07-21T13:48:57.000Z</time>
      </trkpt>
      <trkpt lat="43.018913" lon="-5.785291">
        <ele>766.23</ele>
        <time>2020-07-21T13:49:01.000Z</time>
      </trkpt>
      <trkpt lat="43.018929" lon="-5.785295">
        <ele>765.66</ele>
        <time>2020-07-21T13:49:09.000Z</time>
      </trkpt>
      <trkpt lat="43.018982" lon="-5.785226">
        <ele>762.16</ele>
        <time>2020-07-21T13:49:15.000Z</time>
      </trkpt>
      <trkpt lat="43.019007" lon="-5.785197">
        <ele>760.06</ele>
        <time>2020-07-21T13:49:17.000Z</time>
      </trkpt>
      <trkpt lat="43.019033" lon="-5.785169">
        <ele>756.66</ele>
        <time>2020-07-21T13:49:19.000Z</time>
      </trkpt>
      <trkpt lat="43.019084" lon="-5.785126">
        <ele>757.66</ele>
        <time>2020-07-21T13:49:23.000Z</time>
      </trkpt>
      <trkpt lat="43.019113" lon="-5.785101">
        <ele>758.13</ele>
        <time>2020-07-21T13:49:25.000Z</time>
      </trkpt>
      <trkpt lat="43.019139" lon="-5.785078">
        <ele>757.29</ele>
        <time>2020-07-21T13:49:28.000Z</time>
      </trkpt>
      <trkpt lat="43.019165" lon="-5.785051">
        <ele>759.05</ele>
        <time>2020-07-21T13:49:31.000Z</time>
      </trkpt>
      <trkpt lat="43.019214" lon="-5.785019">
        <ele>760.61</ele>
        <time>2020-07-21T13:49:36.000Z</time>
      </trkpt>
      <trkpt lat="43.019273" lon="-5.784991">
        <ele>759.62</ele>
        <time>2020-07-21T13:49:41.000Z</time>
      </trkpt>
      <trkpt lat="43.019346" lon="-5.784976">
        <ele>763.04</ele>
        <time>2020-07-21T13:49:48.000Z</time>
      </trkpt>
      <trkpt lat="43.01938" lon="-5.784972">
        <ele>763.86</ele>
        <time>2020-07-21T13:49:51.000Z</time>
      </trkpt>
      <trkpt lat="43.019436" lon="-5.784976">
        <ele>767.07</ele>
        <time>2020-07-21T13:49:57.000Z</time>
      </trkpt>
      <trkpt lat="43.019497" lon="-5.784988">
        <ele>768.59</ele>
        <time>2020-07-21T13:50:02.000Z</time>
      </trkpt>
      <trkpt lat="43.019549" lon="-5.784981">
        <ele>766.52</ele>
        <time>2020-07-21T13:50:07.000Z</time>
      </trkpt>
      <trkpt lat="43.019574" lon="-5.784977">
        <ele>767.48</ele>
        <time>2020-07-21T13:50:09.000Z</time>
      </trkpt>
      <trkpt lat="43.019631" lon="-5.785">
        <ele>767</ele>
        <time>2020-07-21T13:50:14.000Z</time>
      </trkpt>
      <trkpt lat="43.019665" lon="-5.785009">
        <ele>766.12</ele>
        <time>2020-07-21T13:50:17.000Z</time>
      </trkpt>
      <trkpt lat="43.019708" lon="-5.785029">
        <ele>766.38</ele>
        <time>2020-07-21T13:50:20.000Z</time>
      </trkpt>
      <trkpt lat="43.019736" lon="-5.785042">
        <ele>766.23</ele>
        <time>2020-07-21T13:50:22.000Z</time>
      </trkpt>
      <trkpt lat="43.01978" lon="-5.785059">
        <ele>765.27</ele>
        <time>2020-07-21T13:50:25.000Z</time>
      </trkpt>
      <trkpt lat="43.019851" lon="-5.785047">
        <ele>766.27</ele>
        <time>2020-07-21T13:50:29.000Z</time>
      </trkpt>
      <trkpt lat="43.019896" lon="-5.785058">
        <ele>767.03</ele>
        <time>2020-07-21T13:50:32.000Z</time>
      </trkpt>
      <trkpt lat="43.019896" lon="-5.785058">
        <ele>767.03</ele>
        <time>2020-07-21T13:50:37.000Z</time>
      </trkpt>
      <trkpt lat="43.019971" lon="-5.785091">
        <ele>763.86</ele>
        <time>2020-07-21T13:50:40.000Z</time>
      </trkpt>
      <trkpt lat="43.019993" lon="-5.7851">
        <ele>763.02</ele>
        <time>2020-07-21T13:50:42.000Z</time>
      </trkpt>
      <trkpt lat="43.020039" lon="-5.785125">
        <ele>762.52</ele>
        <time>2020-07-21T13:50:45.000Z</time>
      </trkpt>
      <trkpt lat="43.020109" lon="-5.785165">
        <ele>764.5</ele>
        <time>2020-07-21T13:50:50.000Z</time>
      </trkpt>
      <trkpt lat="43.020154" lon="-5.785203">
        <ele>764.67</ele>
        <time>2020-07-21T13:50:53.000Z</time>
      </trkpt>
      <trkpt lat="43.020202" lon="-5.785258">
        <ele>766.33</ele>
        <time>2020-07-21T13:50:58.000Z</time>
      </trkpt>
      <trkpt lat="43.020245" lon="-5.785308">
        <ele>764.04</ele>
        <time>2020-07-21T13:51:02.000Z</time>
      </trkpt>
      <trkpt lat="43.020292" lon="-5.78534">
        <ele>764.24</ele>
        <time>2020-07-21T13:51:06.000Z</time>
      </trkpt>
      <trkpt lat="43.020341" lon="-5.785388">
        <ele>764.14</ele>
        <time>2020-07-21T13:51:10.000Z</time>
      </trkpt>
      <trkpt lat="43.020398" lon="-5.785428">
        <ele>764.93</ele>
        <time>2020-07-21T13:51:13.000Z</time>
      </trkpt>
      <trkpt lat="43.020451" lon="-5.785452">
        <ele>765.31</ele>
        <time>2020-07-21T13:51:17.000Z</time>
      </trkpt>
      <trkpt lat="43.020479" lon="-5.785461">
        <ele>765.09</ele>
        <time>2020-07-21T13:51:19.000Z</time>
      </trkpt>
      <trkpt lat="43.020508" lon="-5.785472">
        <ele>764.23</ele>
        <time>2020-07-21T13:51:21.000Z</time>
      </trkpt>
      <trkpt lat="43.020535" lon="-5.785482">
        <ele>763.64</ele>
        <time>2020-07-21T13:51:23.000Z</time>
      </trkpt>
      <trkpt lat="43.020567" lon="-5.785527">
        <ele>764.59</ele>
        <time>2020-07-21T13:51:26.000Z</time>
      </trkpt>
      <trkpt lat="43.020611" lon="-5.785582">
        <ele>763.78</ele>
        <time>2020-07-21T13:51:30.000Z</time>
      </trkpt>
      <trkpt lat="43.020641" lon="-5.785626">
        <ele>763.26</ele>
        <time>2020-07-21T13:51:33.000Z</time>
      </trkpt>
      <trkpt lat="43.02066" lon="-5.785653">
        <ele>762.78</ele>
        <time>2020-07-21T13:51:35.000Z</time>
      </trkpt>
      <trkpt lat="43.02068" lon="-5.78568">
        <ele>761.31</ele>
        <time>2020-07-21T13:51:37.000Z</time>
      </trkpt>
      <trkpt lat="43.020699" lon="-5.785707">
        <ele>759.59</ele>
        <time>2020-07-21T13:51:39.000Z</time>
      </trkpt>
      <trkpt lat="43.020726" lon="-5.785761">
        <ele>757.59</ele>
        <time>2020-07-21T13:51:43.000Z</time>
      </trkpt>
      <trkpt lat="43.020763" lon="-5.785816">
        <ele>758.51</ele>
        <time>2020-07-21T13:51:47.000Z</time>
      </trkpt>
      <trkpt lat="43.020781" lon="-5.785848">
        <ele>757.92</ele>
        <time>2020-07-21T13:51:49.000Z</time>
      </trkpt>
      <trkpt lat="43.020802" lon="-5.785882">
        <ele>758.28</ele>
        <time>2020-07-21T13:51:51.000Z</time>
      </trkpt>
      <trkpt lat="43.020845" lon="-5.785931">
        <ele>757.72</ele>
        <time>2020-07-21T13:51:55.000Z</time>
      </trkpt>
      <trkpt lat="43.020877" lon="-5.785962">
        <ele>756.67</ele>
        <time>2020-07-21T13:51:58.000Z</time>
      </trkpt>
      <trkpt lat="43.020918" lon="-5.785994">
        <ele>755.72</ele>
        <time>2020-07-21T13:52:01.000Z</time>
      </trkpt>
      <trkpt lat="43.020942" lon="-5.786016">
        <ele>755.76</ele>
        <time>2020-07-21T13:52:03.000Z</time>
      </trkpt>
      <trkpt lat="43.020973" lon="-5.78605">
        <ele>756.15</ele>
        <time>2020-07-21T13:52:06.000Z</time>
      </trkpt>
      <trkpt lat="43.020998" lon="-5.786078">
        <ele>755.6</ele>
        <time>2020-07-21T13:52:08.000Z</time>
      </trkpt>
      <trkpt lat="43.021029" lon="-5.786133">
        <ele>755.85</ele>
        <time>2020-07-21T13:52:12.000Z</time>
      </trkpt>
      <trkpt lat="43.021071" lon="-5.786188">
        <ele>755.62</ele>
        <time>2020-07-21T13:52:16.000Z</time>
      </trkpt>
      <trkpt lat="43.02109" lon="-5.786214">
        <ele>755.97</ele>
        <time>2020-07-21T13:52:18.000Z</time>
      </trkpt>
      <trkpt lat="43.021109" lon="-5.786244">
        <ele>756.52</ele>
        <time>2020-07-21T13:52:20.000Z</time>
      </trkpt>
      <trkpt lat="43.02114" lon="-5.7863">
        <ele>754.75</ele>
        <time>2020-07-21T13:52:25.000Z</time>
      </trkpt>
      <trkpt lat="43.021193" lon="-5.786338">
        <ele>754.28</ele>
        <time>2020-07-21T13:52:29.000Z</time>
      </trkpt>
      <trkpt lat="43.021224" lon="-5.78636">
        <ele>754.38</ele>
        <time>2020-07-21T13:52:32.000Z</time>
      </trkpt>
      <trkpt lat="43.021258" lon="-5.786406">
        <ele>753.54</ele>
        <time>2020-07-21T13:52:35.000Z</time>
      </trkpt>
      <trkpt lat="43.021275" lon="-5.786471">
        <ele>755.48</ele>
        <time>2020-07-21T13:52:39.000Z</time>
      </trkpt>
      <trkpt lat="43.021312" lon="-5.78651">
        <ele>753.47</ele>
        <time>2020-07-21T13:52:42.000Z</time>
      </trkpt>
      <trkpt lat="43.021359" lon="-5.786539">
        <ele>755.04</ele>
        <time>2020-07-21T13:52:45.000Z</time>
      </trkpt>
      <trkpt lat="43.021403" lon="-5.786568">
        <ele>756</ele>
        <time>2020-07-21T13:52:48.000Z</time>
      </trkpt>
      <trkpt lat="43.02143" lon="-5.786586">
        <ele>754.06</ele>
        <time>2020-07-21T13:52:50.000Z</time>
      </trkpt>
      <trkpt lat="43.021482" lon="-5.786609">
        <ele>754.01</ele>
        <time>2020-07-21T13:52:54.000Z</time>
      </trkpt>
      <trkpt lat="43.021519" lon="-5.78665">
        <ele>756.56</ele>
        <time>2020-07-21T13:52:59.000Z</time>
      </trkpt>
      <trkpt lat="43.021552" lon="-5.786712">
        <ele>756.16</ele>
        <time>2020-07-21T13:53:04.000Z</time>
      </trkpt>
      <trkpt lat="43.021552" lon="-5.786712">
        <ele>756.16</ele>
        <time>2020-07-21T13:53:11.000Z</time>
      </trkpt>
      <trkpt lat="43.021552" lon="-5.786712">
        <ele>756.16</ele>
        <time>2020-07-21T13:53:13.000Z</time>
      </trkpt>
      <trkpt lat="43.021605" lon="-5.786796">
        <ele>759.29</ele>
        <time>2020-07-21T13:53:17.000Z</time>
      </trkpt>
      <trkpt lat="43.021623" lon="-5.786827">
        <ele>758.96</ele>
        <time>2020-07-21T13:53:20.000Z</time>
      </trkpt>
      <trkpt lat="43.021644" lon="-5.786858">
        <ele>759.68</ele>
        <time>2020-07-21T13:53:25.000Z</time>
      </trkpt>
      <trkpt lat="43.021694" lon="-5.786877">
        <ele>763.67</ele>
        <time>2020-07-21T13:53:31.000Z</time>
      </trkpt>
      <trkpt lat="43.021741" lon="-5.78689">
        <ele>764.61</ele>
        <time>2020-07-21T13:53:34.000Z</time>
      </trkpt>
      <trkpt lat="43.021784" lon="-5.786921">
        <ele>762.96</ele>
        <time>2020-07-21T13:53:38.000Z</time>
      </trkpt>
      <trkpt lat="43.021838" lon="-5.786943">
        <ele>765.9</ele>
        <time>2020-07-21T13:53:43.000Z</time>
      </trkpt>
      <trkpt lat="43.021862" lon="-5.786951">
        <ele>764.97</ele>
        <time>2020-07-21T13:53:45.000Z</time>
      </trkpt>
      <trkpt lat="43.021913" lon="-5.786978">
        <ele>766.47</ele>
        <time>2020-07-21T13:53:49.000Z</time>
      </trkpt>
      <trkpt lat="43.021965" lon="-5.786988">
        <ele>766.3</ele>
        <time>2020-07-21T13:53:53.000Z</time>
      </trkpt>
      <trkpt lat="43.022023" lon="-5.787006">
        <ele>766.44</ele>
        <time>2020-07-21T13:53:58.000Z</time>
      </trkpt>
      <trkpt lat="43.02208" lon="-5.78699">
        <ele>765.35</ele>
        <time>2020-07-21T13:54:02.000Z</time>
      </trkpt>
      <trkpt lat="43.022128" lon="-5.786958">
        <ele>768.41</ele>
        <time>2020-07-21T13:54:07.000Z</time>
      </trkpt>
      <trkpt lat="43.022174" lon="-5.786933">
        <ele>765.37</ele>
        <time>2020-07-21T13:54:13.000Z</time>
      </trkpt>
      <trkpt lat="43.022242" lon="-5.786933">
        <ele>765.01</ele>
        <time>2020-07-21T13:54:20.000Z</time>
      </trkpt>
      <trkpt lat="43.022287" lon="-5.786911">
        <ele>766.99</ele>
        <time>2020-07-21T13:54:26.000Z</time>
      </trkpt>
      <trkpt lat="43.022314" lon="-5.786896">
        <ele>768.24</ele>
        <time>2020-07-21T13:54:29.000Z</time>
      </trkpt>
      <trkpt lat="43.022336" lon="-5.786883">
        <ele>768.22</ele>
        <time>2020-07-21T13:54:31.000Z</time>
      </trkpt>
      <trkpt lat="43.022398" lon="-5.786868">
        <ele>770.19</ele>
        <time>2020-07-21T13:54:36.000Z</time>
      </trkpt>
      <trkpt lat="43.022446" lon="-5.786867">
        <ele>773.11</ele>
        <time>2020-07-21T13:54:41.000Z</time>
      </trkpt>
      <trkpt lat="43.022496" lon="-5.786894">
        <ele>771.92</ele>
        <time>2020-07-21T13:54:46.000Z</time>
      </trkpt>
      <trkpt lat="43.022534" lon="-5.786935">
        <ele>771.13</ele>
        <time>2020-07-21T13:54:51.000Z</time>
      </trkpt>
      <trkpt lat="43.022558" lon="-5.786958">
        <ele>770.64</ele>
        <time>2020-07-21T13:54:54.000Z</time>
      </trkpt>
      <trkpt lat="43.022608" lon="-5.786998">
        <ele>768.5</ele>
        <time>2020-07-21T13:55:00.000Z</time>
      </trkpt>
      <trkpt lat="43.022627" lon="-5.787016">
        <ele>767.75</ele>
        <time>2020-07-21T13:55:02.000Z</time>
      </trkpt>
      <trkpt lat="43.022651" lon="-5.787037">
        <ele>769.41</ele>
        <time>2020-07-21T13:55:05.000Z</time>
      </trkpt>
      <trkpt lat="43.022684" lon="-5.787062">
        <ele>769.45</ele>
        <time>2020-07-21T13:55:09.000Z</time>
      </trkpt>
      <trkpt lat="43.022721" lon="-5.787104">
        <ele>771.17</ele>
        <time>2020-07-21T13:55:14.000Z</time>
      </trkpt>
      <trkpt lat="43.022768" lon="-5.787133">
        <ele>773.82</ele>
        <time>2020-07-21T13:55:20.000Z</time>
      </trkpt>
      <trkpt lat="43.022816" lon="-5.787149">
        <ele>771.35</ele>
        <time>2020-07-21T13:55:27.000Z</time>
      </trkpt>
      <trkpt lat="43.022848" lon="-5.787162">
        <ele>774.89</ele>
        <time>2020-07-21T13:55:31.000Z</time>
      </trkpt>
      <trkpt lat="43.022907" lon="-5.787166">
        <ele>779.28</ele>
        <time>2020-07-21T13:55:37.000Z</time>
      </trkpt>
      <trkpt lat="43.022941" lon="-5.787217">
        <ele>781.28</ele>
        <time>2020-07-21T13:55:41.000Z</time>
      </trkpt>
      <trkpt lat="43.022962" lon="-5.787273">
        <ele>782.77</ele>
        <time>2020-07-21T13:55:45.000Z</time>
      </trkpt>
      <trkpt lat="43.02298" lon="-5.787319">
        <ele>781.97</ele>
        <time>2020-07-21T13:55:48.000Z</time>
      </trkpt>
      <trkpt lat="43.02299" lon="-5.787348">
        <ele>780.18</ele>
        <time>2020-07-21T13:55:49.000Z</time>
      </trkpt>
      <trkpt lat="43.023021" lon="-5.787407">
        <ele>785.65</ele>
        <time>2020-07-21T13:55:55.000Z</time>
      </trkpt>
      <trkpt lat="43.023059" lon="-5.787455">
        <ele>787</ele>
        <time>2020-07-21T13:56:02.000Z</time>
      </trkpt>
      <trkpt lat="43.023089" lon="-5.787503">
        <ele>789.37</ele>
        <time>2020-07-21T13:56:08.000Z</time>
      </trkpt>
      <trkpt lat="43.023124" lon="-5.787513">
        <ele>789.24</ele>
        <time>2020-07-21T13:56:16.000Z</time>
      </trkpt>
      <trkpt lat="43.023174" lon="-5.78754">
        <ele>789.46</ele>
        <time>2020-07-21T13:56:22.000Z</time>
      </trkpt>
      <trkpt lat="43.023204" lon="-5.787597">
        <ele>794.08</ele>
        <time>2020-07-21T13:56:27.000Z</time>
      </trkpt>
      <trkpt lat="43.023224" lon="-5.787633">
        <ele>795.27</ele>
        <time>2020-07-21T13:56:30.000Z</time>
      </trkpt>
      <trkpt lat="43.023241" lon="-5.787663">
        <ele>793.76</ele>
        <time>2020-07-21T13:56:33.000Z</time>
      </trkpt>
      <trkpt lat="43.02329" lon="-5.787693">
        <ele>796.39</ele>
        <time>2020-07-21T13:56:40.000Z</time>
      </trkpt>
      <trkpt lat="43.023344" lon="-5.787688">
        <ele>796.96</ele>
        <time>2020-07-21T13:56:45.000Z</time>
      </trkpt>
      <trkpt lat="43.023386" lon="-5.787743">
        <ele>800.87</ele>
        <time>2020-07-21T13:56:53.000Z</time>
      </trkpt>
      <trkpt lat="43.023391" lon="-5.787806">
        <ele>801.29</ele>
        <time>2020-07-21T13:56:58.000Z</time>
      </trkpt>
      <trkpt lat="43.023425" lon="-5.787875">
        <ele>803.23</ele>
        <time>2020-07-21T13:57:03.000Z</time>
      </trkpt>
      <trkpt lat="43.023456" lon="-5.787938">
        <ele>802.79</ele>
        <time>2020-07-21T13:57:09.000Z</time>
      </trkpt>
      <trkpt lat="43.023461" lon="-5.788005">
        <ele>804.34</ele>
        <time>2020-07-21T13:57:14.000Z</time>
      </trkpt>
      <trkpt lat="43.02352" lon="-5.788061">
        <ele>789.71</ele>
        <time>2020-07-21T13:57:18.000Z</time>
      </trkpt>
      <trkpt lat="43.023549" lon="-5.788092">
        <ele>795.67</ele>
        <time>2020-07-21T13:57:20.000Z</time>
      </trkpt>
      <trkpt lat="43.023573" lon="-5.788147">
        <ele>801.26</ele>
        <time>2020-07-21T13:57:24.000Z</time>
      </trkpt>
      <trkpt lat="43.023612" lon="-5.788191">
        <ele>805.68</ele>
        <time>2020-07-21T13:57:28.000Z</time>
      </trkpt>
      <trkpt lat="43.023632" lon="-5.788212">
        <ele>809.9</ele>
        <time>2020-07-21T13:57:31.000Z</time>
      </trkpt>
      <trkpt lat="43.023647" lon="-5.78829">
        <ele>816.24</ele>
        <time>2020-07-21T13:57:38.000Z</time>
      </trkpt>
      <trkpt lat="43.023689" lon="-5.788317">
        <ele>821.65</ele>
        <time>2020-07-21T13:57:42.000Z</time>
      </trkpt>
      <trkpt lat="43.023738" lon="-5.788352">
        <ele>821.6</ele>
        <time>2020-07-21T13:57:47.000Z</time>
      </trkpt>
      <trkpt lat="43.023808" lon="-5.788349">
        <ele>825.9</ele>
        <time>2020-07-21T13:57:51.000Z</time>
      </trkpt>
      <trkpt lat="43.023863" lon="-5.788334">
        <ele>825.13</ele>
        <time>2020-07-21T13:57:54.000Z</time>
      </trkpt>
      <trkpt lat="43.023904" lon="-5.788297">
        <ele>822.21</ele>
        <time>2020-07-21T13:57:59.000Z</time>
      </trkpt>
      <trkpt lat="43.02395" lon="-5.788279">
        <ele>821.17</ele>
        <time>2020-07-21T13:58:04.000Z</time>
      </trkpt>
      <trkpt lat="43.023995" lon="-5.788264">
        <ele>819.52</ele>
        <time>2020-07-21T13:58:08.000Z</time>
      </trkpt>
      <trkpt lat="43.024002" lon="-5.78824">
        <ele>811.23</ele>
        <time>2020-07-21T13:58:17.000Z</time>
      </trkpt>
      <trkpt lat="43.024056" lon="-5.788214">
        <ele>813.48</ele>
        <time>2020-07-21T13:58:52.000Z</time>
      </trkpt>
      <trkpt lat="43.024113" lon="-5.788207">
        <ele>815.7</ele>
        <time>2020-07-21T13:58:57.000Z</time>
      </trkpt>
      <trkpt lat="43.024144" lon="-5.788202">
        <ele>813.74</ele>
        <time>2020-07-21T13:58:59.000Z</time>
      </trkpt>
      <trkpt lat="43.024175" lon="-5.788199">
        <ele>811.93</ele>
        <time>2020-07-21T13:59:02.000Z</time>
      </trkpt>
      <trkpt lat="43.02422" lon="-5.788177">
        <ele>813.95</ele>
        <time>2020-07-21T13:59:06.000Z</time>
      </trkpt>
      <trkpt lat="43.024255" lon="-5.788157">
        <ele>815.75</ele>
        <time>2020-07-21T13:59:09.000Z</time>
      </trkpt>
      <trkpt lat="43.024305" lon="-5.788161">
        <ele>820.86</ele>
        <time>2020-07-21T13:59:17.000Z</time>
      </trkpt>
      <trkpt lat="43.024356" lon="-5.788197">
        <ele>821.29</ele>
        <time>2020-07-21T13:59:24.000Z</time>
      </trkpt>
      <trkpt lat="43.024406" lon="-5.788209">
        <ele>820.13</ele>
        <time>2020-07-21T13:59:29.000Z</time>
      </trkpt>
      <trkpt lat="43.02444" lon="-5.788217">
        <ele>820.89</ele>
        <time>2020-07-21T13:59:32.000Z</time>
      </trkpt>
      <trkpt lat="43.02448" lon="-5.788223">
        <ele>822.32</ele>
        <time>2020-07-21T13:59:35.000Z</time>
      </trkpt>
      <trkpt lat="43.024537" lon="-5.788228">
        <ele>823.24</ele>
        <time>2020-07-21T13:59:38.000Z</time>
      </trkpt>
      <trkpt lat="43.024603" lon="-5.788234">
        <ele>824.47</ele>
        <time>2020-07-21T13:59:44.000Z</time>
      </trkpt>
      <trkpt lat="43.024648" lon="-5.788255">
        <ele>825.34</ele>
        <time>2020-07-21T13:59:47.000Z</time>
      </trkpt>
      <trkpt lat="43.024676" lon="-5.788269">
        <ele>826.55</ele>
        <time>2020-07-21T13:59:49.000Z</time>
      </trkpt>
      <trkpt lat="43.024723" lon="-5.788279">
        <ele>826</ele>
        <time>2020-07-21T13:59:53.000Z</time>
      </trkpt>
      <trkpt lat="43.024771" lon="-5.7883">
        <ele>825.38</ele>
        <time>2020-07-21T13:59:59.000Z</time>
      </trkpt>
      <trkpt lat="43.024821" lon="-5.788311">
        <ele>823.9</ele>
        <time>2020-07-21T14:00:04.000Z</time>
      </trkpt>
      <trkpt lat="43.024847" lon="-5.788318">
        <ele>822.57</ele>
        <time>2020-07-21T14:00:06.000Z</time>
      </trkpt>
      <trkpt lat="43.024874" lon="-5.788325">
        <ele>822</ele>
        <time>2020-07-21T14:00:09.000Z</time>
      </trkpt>
      <trkpt lat="43.024922" lon="-5.788331">
        <ele>823.02</ele>
        <time>2020-07-21T14:00:12.000Z</time>
      </trkpt>
      <trkpt lat="43.02497" lon="-5.78834">
        <ele>824.62</ele>
        <time>2020-07-21T14:00:16.000Z</time>
      </trkpt>
      <trkpt lat="43.025007" lon="-5.788345">
        <ele>825.01</ele>
        <time>2020-07-21T14:00:19.000Z</time>
      </trkpt>
      <trkpt lat="43.02503" lon="-5.788347">
        <ele>825.05</ele>
        <time>2020-07-21T14:00:21.000Z</time>
      </trkpt>
      <trkpt lat="43.025069" lon="-5.788348">
        <ele>824.83</ele>
        <time>2020-07-21T14:00:24.000Z</time>
      </trkpt>
      <trkpt lat="43.025113" lon="-5.788349">
        <ele>819.16</ele>
        <time>2020-07-21T14:00:28.000Z</time>
      </trkpt>
      <trkpt lat="43.02516" lon="-5.788354">
        <ele>822.87</ele>
        <time>2020-07-21T14:00:32.000Z</time>
      </trkpt>
      <trkpt lat="43.025188" lon="-5.788354">
        <ele>824.41</ele>
        <time>2020-07-21T14:00:34.000Z</time>
      </trkpt>
      <trkpt lat="43.025235" lon="-5.78832">
        <ele>829.99</ele>
        <time>2020-07-21T14:00:42.000Z</time>
      </trkpt>
      <trkpt lat="43.02528" lon="-5.788346">
        <ele>830.17</ele>
        <time>2020-07-21T14:00:48.000Z</time>
      </trkpt>
      <trkpt lat="43.02528" lon="-5.788346">
        <ele>830.17</ele>
        <time>2020-07-21T14:00:56.000Z</time>
      </trkpt>
      <trkpt lat="43.02528" lon="-5.788346">
        <ele>830.17</ele>
        <time>2020-07-21T14:00:57.000Z</time>
      </trkpt>
      <trkpt lat="43.025278" lon="-5.788511">
        <ele>831.59</ele>
        <time>2020-07-21T14:01:34.000Z</time>
      </trkpt>
      <trkpt lat="43.025227" lon="-5.788507">
        <ele>833.21</ele>
        <time>2020-07-21T14:01:39.000Z</time>
      </trkpt>
      <trkpt lat="43.025195" lon="-5.788503">
        <ele>832.87</ele>
        <time>2020-07-21T14:01:42.000Z</time>
      </trkpt>
      <trkpt lat="43.025138" lon="-5.788503">
        <ele>834.63</ele>
        <time>2020-07-21T14:01:47.000Z</time>
      </trkpt>
      <trkpt lat="43.025105" lon="-5.788506">
        <ele>834.71</ele>
        <time>2020-07-21T14:01:51.000Z</time>
      </trkpt>
      <trkpt lat="43.025076" lon="-5.788508">
        <ele>834.43</ele>
        <time>2020-07-21T14:01:54.000Z</time>
      </trkpt>
      <trkpt lat="43.025032" lon="-5.78853">
        <ele>834.74</ele>
        <time>2020-07-21T14:01:58.000Z</time>
      </trkpt>
      <trkpt lat="43.025032" lon="-5.78853">
        <ele>834.74</ele>
        <time>2020-07-21T14:02:05.000Z</time>
      </trkpt>
      <trkpt lat="43.025032" lon="-5.78853">
        <ele>834.74</ele>
        <time>2020-07-21T14:02:06.000Z</time>
      </trkpt>
      <trkpt lat="43.025079" lon="-5.788526">
        <ele>832.24</ele>
        <time>2020-07-21T14:02:18.000Z</time>
      </trkpt>
      <trkpt lat="43.025119" lon="-5.788523">
        <ele>833.38</ele>
        <time>2020-07-21T14:02:22.000Z</time>
      </trkpt>
      <trkpt lat="43.025172" lon="-5.788528">
        <ele>834.29</ele>
        <time>2020-07-21T14:02:26.000Z</time>
      </trkpt>
      <trkpt lat="43.0252" lon="-5.788533">
        <ele>833.58</ele>
        <time>2020-07-21T14:02:28.000Z</time>
      </trkpt>
      <trkpt lat="43.025222" lon="-5.78854">
        <ele>832.46</ele>
        <time>2020-07-21T14:02:30.000Z</time>
      </trkpt>
      <trkpt lat="43.025269" lon="-5.788545">
        <ele>831.42</ele>
        <time>2020-07-21T14:02:34.000Z</time>
      </trkpt>
      <trkpt lat="43.025301" lon="-5.788553">
        <ele>829.78</ele>
        <time>2020-07-21T14:02:37.000Z</time>
      </trkpt>
      <trkpt lat="43.025333" lon="-5.788558">
        <ele>829.45</ele>
        <time>2020-07-21T14:02:40.000Z</time>
      </trkpt>
      <trkpt lat="43.025389" lon="-5.788558">
        <ele>828.47</ele>
        <time>2020-07-21T14:02:44.000Z</time>
      </trkpt>
      <trkpt lat="43.025434" lon="-5.78856">
        <ele>828.32</ele>
        <time>2020-07-21T14:02:47.000Z</time>
      </trkpt>
      <trkpt lat="43.025479" lon="-5.788524">
        <ele>829.66</ele>
        <time>2020-07-21T14:02:56.000Z</time>
      </trkpt>
      <trkpt lat="43.025525" lon="-5.788511">
        <ele>828.65</ele>
        <time>2020-07-21T14:03:00.000Z</time>
      </trkpt>
      <trkpt lat="43.025525" lon="-5.788511">
        <ele>828.65</ele>
        <time>2020-07-21T14:03:08.000Z</time>
      </trkpt>
      <trkpt lat="43.025525" lon="-5.788511">
        <ele>828.65</ele>
        <time>2020-07-21T14:03:09.000Z</time>
      </trkpt>
      <trkpt lat="43.02559" lon="-5.788486">
        <ele>830.79</ele>
        <time>2020-07-21T14:03:44.000Z</time>
      </trkpt>
      <trkpt lat="43.025636" lon="-5.788482">
        <ele>830.37</ele>
        <time>2020-07-21T14:03:47.000Z</time>
      </trkpt>
      <trkpt lat="43.025676" lon="-5.788477">
        <ele>831.92</ele>
        <time>2020-07-21T14:03:51.000Z</time>
      </trkpt>
      <trkpt lat="43.025702" lon="-5.788475">
        <ele>830.59</ele>
        <time>2020-07-21T14:03:59.000Z</time>
      </trkpt>
      <trkpt lat="43.025733" lon="-5.78847">
        <ele>830.9</ele>
        <time>2020-07-21T14:04:04.000Z</time>
      </trkpt>
      <trkpt lat="43.025756" lon="-5.788465">
        <ele>830.86</ele>
        <time>2020-07-21T14:04:06.000Z</time>
      </trkpt>
      <trkpt lat="43.025803" lon="-5.788447">
        <ele>828.36</ele>
        <time>2020-07-21T14:04:11.000Z</time>
      </trkpt>
      <trkpt lat="43.025844" lon="-5.788423">
        <ele>828.28</ele>
        <time>2020-07-21T14:04:14.000Z</time>
      </trkpt>
      <trkpt lat="43.025892" lon="-5.788386">
        <ele>830.75</ele>
        <time>2020-07-21T14:04:17.000Z</time>
      </trkpt>
      <trkpt lat="43.025939" lon="-5.788359">
        <ele>832</ele>
        <time>2020-07-21T14:04:20.000Z</time>
      </trkpt>
      <trkpt lat="43.025964" lon="-5.788346">
        <ele>830.15</ele>
        <time>2020-07-21T14:04:23.000Z</time>
      </trkpt>
      <trkpt lat="43.02597" lon="-5.78835">
        <ele>827.97</ele>
        <time>2020-07-21T14:04:31.000Z</time>
      </trkpt>
      <trkpt lat="43.026029" lon="-5.788333">
        <ele>825.71</ele>
        <time>2020-07-21T14:04:37.000Z</time>
      </trkpt>
      <trkpt lat="43.026065" lon="-5.788326">
        <ele>824.42</ele>
        <time>2020-07-21T14:04:40.000Z</time>
      </trkpt>
      <trkpt lat="43.026102" lon="-5.788314">
        <ele>823.15</ele>
        <time>2020-07-21T14:04:43.000Z</time>
      </trkpt>
      <trkpt lat="43.026127" lon="-5.788305">
        <ele>821.61</ele>
        <time>2020-07-21T14:04:45.000Z</time>
      </trkpt>
      <trkpt lat="43.026174" lon="-5.788293">
        <ele>821.31</ele>
        <time>2020-07-21T14:04:48.000Z</time>
      </trkpt>
      <trkpt lat="43.026207" lon="-5.788286">
        <ele>820.05</ele>
        <time>2020-07-21T14:04:50.000Z</time>
      </trkpt>
      <trkpt lat="43.026254" lon="-5.788279">
        <ele>819.84</ele>
        <time>2020-07-21T14:04:54.000Z</time>
      </trkpt>
      <trkpt lat="43.026298" lon="-5.788269">
        <ele>818.88</ele>
        <time>2020-07-21T14:05:01.000Z</time>
      </trkpt>
      <trkpt lat="43.026307" lon="-5.788277">
        <ele>819.22</ele>
        <time>2020-07-21T14:05:09.000Z</time>
      </trkpt>
      <trkpt lat="43.026338" lon="-5.788323">
        <ele>817.47</ele>
        <time>2020-07-21T14:05:18.000Z</time>
      </trkpt>
      <trkpt lat="43.026355" lon="-5.788345">
        <ele>817.08</ele>
        <time>2020-07-21T14:05:20.000Z</time>
      </trkpt>
      <trkpt lat="43.02638" lon="-5.788381">
        <ele>816.94</ele>
        <time>2020-07-21T14:05:24.000Z</time>
      </trkpt>
      <trkpt lat="43.026379" lon="-5.788467">
        <ele>816.25</ele>
        <time>2020-07-21T14:05:31.000Z</time>
      </trkpt>
      <trkpt lat="43.02639" lon="-5.788536">
        <ele>817.71</ele>
        <time>2020-07-21T14:05:36.000Z</time>
      </trkpt>
      <trkpt lat="43.026415" lon="-5.788597">
        <ele>812.71</ele>
        <time>2020-07-21T14:05:42.000Z</time>
      </trkpt>
      <trkpt lat="43.026435" lon="-5.788657">
        <ele>811.67</ele>
        <time>2020-07-21T14:05:48.000Z</time>
      </trkpt>
      <trkpt lat="43.026466" lon="-5.788723">
        <ele>808.81</ele>
        <time>2020-07-21T14:05:54.000Z</time>
      </trkpt>
      <trkpt lat="43.026483" lon="-5.788788">
        <ele>808.28</ele>
        <time>2020-07-21T14:05:59.000Z</time>
      </trkpt>
      <trkpt lat="43.026514" lon="-5.788837">
        <ele>808.6</ele>
        <time>2020-07-21T14:06:03.000Z</time>
      </trkpt>
      <trkpt lat="43.026532" lon="-5.788865">
        <ele>808.41</ele>
        <time>2020-07-21T14:06:06.000Z</time>
      </trkpt>
      <trkpt lat="43.026549" lon="-5.78889">
        <ele>807.91</ele>
        <time>2020-07-21T14:06:08.000Z</time>
      </trkpt>
      <trkpt lat="43.026586" lon="-5.788932">
        <ele>808.66</ele>
        <time>2020-07-21T14:06:13.000Z</time>
      </trkpt>
      <trkpt lat="43.026601" lon="-5.788985">
        <ele>808.24</ele>
        <time>2020-07-21T14:06:22.000Z</time>
      </trkpt>
      <trkpt lat="43.026624" lon="-5.789041">
        <ele>805.01</ele>
        <time>2020-07-21T14:06:35.000Z</time>
      </trkpt>
      <trkpt lat="43.026642" lon="-5.789105">
        <ele>804.51</ele>
        <time>2020-07-21T14:06:38.000Z</time>
      </trkpt>
      <trkpt lat="43.026658" lon="-5.789145">
        <ele>803.07</ele>
        <time>2020-07-21T14:06:40.000Z</time>
      </trkpt>
      <trkpt lat="43.026691" lon="-5.789203">
        <ele>802.62</ele>
        <time>2020-07-21T14:06:44.000Z</time>
      </trkpt>
      <trkpt lat="43.026728" lon="-5.789262">
        <ele>804.26</ele>
        <time>2020-07-21T14:06:50.000Z</time>
      </trkpt>
      <trkpt lat="43.026747" lon="-5.789319">
        <ele>806.68</ele>
        <time>2020-07-21T14:06:55.000Z</time>
      </trkpt>
      <trkpt lat="43.02678" lon="-5.789371">
        <ele>808.01</ele>
        <time>2020-07-21T14:06:59.000Z</time>
      </trkpt>
      <trkpt lat="43.026804" lon="-5.789436">
        <ele>808.03</ele>
        <time>2020-07-21T14:07:04.000Z</time>
      </trkpt>
      <trkpt lat="43.026846" lon="-5.789479">
        <ele>811.35</ele>
        <time>2020-07-21T14:07:08.000Z</time>
      </trkpt>
      <trkpt lat="43.026894" lon="-5.789477">
        <ele>809.67</ele>
        <time>2020-07-21T14:07:13.000Z</time>
      </trkpt>
      <trkpt lat="43.02695" lon="-5.789445">
        <ele>810.18</ele>
        <time>2020-07-21T14:07:20.000Z</time>
      </trkpt>
      <trkpt lat="43.02699" lon="-5.789407">
        <ele>810.42</ele>
        <time>2020-07-21T14:07:23.000Z</time>
      </trkpt>
      <trkpt lat="43.027043" lon="-5.789399">
        <ele>810.19</ele>
        <time>2020-07-21T14:07:26.000Z</time>
      </trkpt>
      <trkpt lat="43.027095" lon="-5.789418">
        <ele>810.74</ele>
        <time>2020-07-21T14:07:30.000Z</time>
      </trkpt>
      <trkpt lat="43.027144" lon="-5.789417">
        <ele>810.15</ele>
        <time>2020-07-21T14:07:35.000Z</time>
      </trkpt>
      <trkpt lat="43.027192" lon="-5.78944">
        <ele>812.66</ele>
        <time>2020-07-21T14:07:39.000Z</time>
      </trkpt>
      <trkpt lat="43.027242" lon="-5.789444">
        <ele>811.86</ele>
        <time>2020-07-21T14:07:46.000Z</time>
      </trkpt>
      <trkpt lat="43.027289" lon="-5.789466">
        <ele>810.42</ele>
        <time>2020-07-21T14:07:50.000Z</time>
      </trkpt>
      <trkpt lat="43.027327" lon="-5.789498">
        <ele>811.15</ele>
        <time>2020-07-21T14:07:57.000Z</time>
      </trkpt>
      <trkpt lat="43.02737" lon="-5.789531">
        <ele>811.28</ele>
        <time>2020-07-21T14:08:01.000Z</time>
      </trkpt>
      <trkpt lat="43.027398" lon="-5.789549">
        <ele>812.03</ele>
        <time>2020-07-21T14:08:03.000Z</time>
      </trkpt>
      <trkpt lat="43.027445" lon="-5.789525">
        <ele>810.76</ele>
        <time>2020-07-21T14:08:07.000Z</time>
      </trkpt>
      <trkpt lat="43.02747" lon="-5.78951">
        <ele>811.52</ele>
        <time>2020-07-21T14:08:09.000Z</time>
      </trkpt>
      <trkpt lat="43.02754" lon="-5.78948">
        <ele>808.16</ele>
        <time>2020-07-21T14:08:14.000Z</time>
      </trkpt>
      <trkpt lat="43.027597" lon="-5.78949">
        <ele>807.74</ele>
        <time>2020-07-21T14:08:18.000Z</time>
      </trkpt>
      <trkpt lat="43.027642" lon="-5.789474">
        <ele>803.32</ele>
        <time>2020-07-21T14:08:22.000Z</time>
      </trkpt>
      <trkpt lat="43.027665" lon="-5.789468">
        <ele>802.95</ele>
        <time>2020-07-21T14:08:24.000Z</time>
      </trkpt>
      <trkpt lat="43.027689" lon="-5.789462">
        <ele>804.68</ele>
        <time>2020-07-21T14:08:26.000Z</time>
      </trkpt>
      <trkpt lat="43.027736" lon="-5.789435">
        <ele>802.86</ele>
        <time>2020-07-21T14:08:31.000Z</time>
      </trkpt>
      <trkpt lat="43.027782" lon="-5.789417">
        <ele>800.66</ele>
        <time>2020-07-21T14:08:37.000Z</time>
      </trkpt>
      <trkpt lat="43.027834" lon="-5.789416">
        <ele>798.17</ele>
        <time>2020-07-21T14:08:41.000Z</time>
      </trkpt>
      <trkpt lat="43.027874" lon="-5.789376">
        <ele>798.34</ele>
        <time>2020-07-21T14:08:47.000Z</time>
      </trkpt>
      <trkpt lat="43.027919" lon="-5.789356">
        <ele>798.58</ele>
        <time>2020-07-21T14:08:52.000Z</time>
      </trkpt>
      <trkpt lat="43.027975" lon="-5.789368">
        <ele>799.44</ele>
        <time>2020-07-21T14:08:59.000Z</time>
      </trkpt>
      <trkpt lat="43.028026" lon="-5.78939">
        <ele>800.13</ele>
        <time>2020-07-21T14:09:03.000Z</time>
      </trkpt>
      <trkpt lat="43.028068" lon="-5.789436">
        <ele>798.8</ele>
        <time>2020-07-21T14:09:06.000Z</time>
      </trkpt>
      <trkpt lat="43.028114" lon="-5.789455">
        <ele>799.47</ele>
        <time>2020-07-21T14:09:09.000Z</time>
      </trkpt>
      <trkpt lat="43.028181" lon="-5.789466">
        <ele>800.06</ele>
        <time>2020-07-21T14:09:12.000Z</time>
      </trkpt>
      <trkpt lat="43.028228" lon="-5.789475">
        <ele>799.75</ele>
        <time>2020-07-21T14:09:14.000Z</time>
      </trkpt>
      <trkpt lat="43.028251" lon="-5.789477">
        <ele>800.3</ele>
        <time>2020-07-21T14:09:15.000Z</time>
      </trkpt>
      <trkpt lat="43.028284" lon="-5.789478">
        <ele>799.57</ele>
        <time>2020-07-21T14:09:17.000Z</time>
      </trkpt>
      <trkpt lat="43.028328" lon="-5.789512">
        <ele>801.74</ele>
        <time>2020-07-21T14:09:23.000Z</time>
      </trkpt>
      <trkpt lat="43.02839" lon="-5.789573">
        <ele>800.37</ele>
        <time>2020-07-21T14:09:31.000Z</time>
      </trkpt>
      <trkpt lat="43.028418" lon="-5.789599">
        <ele>802</ele>
        <time>2020-07-21T14:09:33.000Z</time>
      </trkpt>
      <trkpt lat="43.028448" lon="-5.789621">
        <ele>798.66</ele>
        <time>2020-07-21T14:09:36.000Z</time>
      </trkpt>
      <trkpt lat="43.028487" lon="-5.789648">
        <ele>798.68</ele>
        <time>2020-07-21T14:09:40.000Z</time>
      </trkpt>
      <trkpt lat="43.028546" lon="-5.789676">
        <ele>797.74</ele>
        <time>2020-07-21T14:09:46.000Z</time>
      </trkpt>
      <trkpt lat="43.028595" lon="-5.789687">
        <ele>797.52</ele>
        <time>2020-07-21T14:09:50.000Z</time>
      </trkpt>
      <trkpt lat="43.028654" lon="-5.789689">
        <ele>800.43</ele>
        <time>2020-07-21T14:09:55.000Z</time>
      </trkpt>
      <trkpt lat="43.02868" lon="-5.78969">
        <ele>798.78</ele>
        <time>2020-07-21T14:09:57.000Z</time>
      </trkpt>
      <trkpt lat="43.028697" lon="-5.789708">
        <ele>798.71</ele>
        <time>2020-07-21T14:10:05.000Z</time>
      </trkpt>
      <trkpt lat="43.028725" lon="-5.789722">
        <ele>799.2</ele>
        <time>2020-07-21T14:10:11.000Z</time>
      </trkpt>
      <trkpt lat="43.028767" lon="-5.78974">
        <ele>799.6</ele>
        <time>2020-07-21T14:10:14.000Z</time>
      </trkpt>
      <trkpt lat="43.028788" lon="-5.789751">
        <ele>800.35</ele>
        <time>2020-07-21T14:10:15.000Z</time>
      </trkpt>
      <trkpt lat="43.028815" lon="-5.789768">
        <ele>798.85</ele>
        <time>2020-07-21T14:10:17.000Z</time>
      </trkpt>
      <trkpt lat="43.028866" lon="-5.789781">
        <ele>796.74</ele>
        <time>2020-07-21T14:10:20.000Z</time>
      </trkpt>
      <trkpt lat="43.028921" lon="-5.789768">
        <ele>798.66</ele>
        <time>2020-07-21T14:10:23.000Z</time>
      </trkpt>
      <trkpt lat="43.028973" lon="-5.789763">
        <ele>796.26</ele>
        <time>2020-07-21T14:10:27.000Z</time>
      </trkpt>
      <trkpt lat="43.029022" lon="-5.789758">
        <ele>795.52</ele>
        <time>2020-07-21T14:10:30.000Z</time>
      </trkpt>
      <trkpt lat="43.029022" lon="-5.789758">
        <ele>795.52</ele>
        <time>2020-07-21T14:10:35.000Z</time>
      </trkpt>
      <trkpt lat="43.029068" lon="-5.789769">
        <ele>791.43</ele>
        <time>2020-07-21T14:10:36.000Z</time>
      </trkpt>
      <trkpt lat="43.02912" lon="-5.789751">
        <ele>791.3</ele>
        <time>2020-07-21T14:10:40.000Z</time>
      </trkpt>
      <trkpt lat="43.029162" lon="-5.789724">
        <ele>792.31</ele>
        <time>2020-07-21T14:10:43.000Z</time>
      </trkpt>
      <trkpt lat="43.029221" lon="-5.789728">
        <ele>794.01</ele>
        <time>2020-07-21T14:10:47.000Z</time>
      </trkpt>
      <trkpt lat="43.029269" lon="-5.789749">
        <ele>793.85</ele>
        <time>2020-07-21T14:10:50.000Z</time>
      </trkpt>
      <trkpt lat="43.029315" lon="-5.789761">
        <ele>794.85</ele>
        <time>2020-07-21T14:10:54.000Z</time>
      </trkpt>
      <trkpt lat="43.029369" lon="-5.789767">
        <ele>794.32</ele>
        <time>2020-07-21T14:10:58.000Z</time>
      </trkpt>
      <trkpt lat="43.029396" lon="-5.789768">
        <ele>795.79</ele>
        <time>2020-07-21T14:11:00.000Z</time>
      </trkpt>
      <trkpt lat="43.029454" lon="-5.789756">
        <ele>797.01</ele>
        <time>2020-07-21T14:11:05.000Z</time>
      </trkpt>
      <trkpt lat="43.029497" lon="-5.789751">
        <ele>797.1</ele>
        <time>2020-07-21T14:11:09.000Z</time>
      </trkpt>
      <trkpt lat="43.029539" lon="-5.789714">
        <ele>797.89</ele>
        <time>2020-07-21T14:11:12.000Z</time>
      </trkpt>
      <trkpt lat="43.029592" lon="-5.789684">
        <ele>797.9</ele>
        <time>2020-07-21T14:11:17.000Z</time>
      </trkpt>
      <trkpt lat="43.029641" lon="-5.789673">
        <ele>796.88</ele>
        <time>2020-07-21T14:11:21.000Z</time>
      </trkpt>
      <trkpt lat="43.029687" lon="-5.789652">
        <ele>795.75</ele>
        <time>2020-07-21T14:11:25.000Z</time>
      </trkpt>
      <trkpt lat="43.029736" lon="-5.78965">
        <ele>796.35</ele>
        <time>2020-07-21T14:11:29.000Z</time>
      </trkpt>
      <trkpt lat="43.029778" lon="-5.789644">
        <ele>796.19</ele>
        <time>2020-07-21T14:11:33.000Z</time>
      </trkpt>
      <trkpt lat="43.029825" lon="-5.78967">
        <ele>793.47</ele>
        <time>2020-07-21T14:11:37.000Z</time>
      </trkpt>
      <trkpt lat="43.02986" lon="-5.789719">
        <ele>794.64</ele>
        <time>2020-07-21T14:11:43.000Z</time>
      </trkpt>
      <trkpt lat="43.029878" lon="-5.789778">
        <ele>793.7</ele>
        <time>2020-07-21T14:11:48.000Z</time>
      </trkpt>
      <trkpt lat="43.029906" lon="-5.789838">
        <ele>792.19</ele>
        <time>2020-07-21T14:11:55.000Z</time>
      </trkpt>
      <trkpt lat="43.029943" lon="-5.789873">
        <ele>794.5</ele>
        <time>2020-07-21T14:12:00.000Z</time>
      </trkpt>
      <trkpt lat="43.029969" lon="-5.789931">
        <ele>794.78</ele>
        <time>2020-07-21T14:12:05.000Z</time>
      </trkpt>
      <trkpt lat="43.029981" lon="-5.789965">
        <ele>794.74</ele>
        <time>2020-07-21T14:12:08.000Z</time>
      </trkpt>
      <trkpt lat="43.029993" lon="-5.789996">
        <ele>795.58</ele>
        <time>2020-07-21T14:12:14.000Z</time>
      </trkpt>
      <trkpt lat="43.030052" lon="-5.789987">
        <ele>795.85</ele>
        <time>2020-07-21T14:12:19.000Z</time>
      </trkpt>
      <trkpt lat="43.030104" lon="-5.789992">
        <ele>798.84</ele>
        <time>2020-07-21T14:12:24.000Z</time>
      </trkpt>
      <trkpt lat="43.030132" lon="-5.789997">
        <ele>799.94</ele>
        <time>2020-07-21T14:12:26.000Z</time>
      </trkpt>
      <trkpt lat="43.030185" lon="-5.790004">
        <ele>801.29</ele>
        <time>2020-07-21T14:12:32.000Z</time>
      </trkpt>
      <trkpt lat="43.030225" lon="-5.789996">
        <ele>801.31</ele>
        <time>2020-07-21T14:12:41.000Z</time>
      </trkpt>
      <trkpt lat="43.030279" lon="-5.790021">
        <ele>803.48</ele>
        <time>2020-07-21T14:12:46.000Z</time>
      </trkpt>
      <trkpt lat="43.030333" lon="-5.790053">
        <ele>800.35</ele>
        <time>2020-07-21T14:12:49.000Z</time>
      </trkpt>
      <trkpt lat="43.030388" lon="-5.79006">
        <ele>802.03</ele>
        <time>2020-07-21T14:12:53.000Z</time>
      </trkpt>
      <trkpt lat="43.030423" lon="-5.790064">
        <ele>803.14</ele>
        <time>2020-07-21T14:12:56.000Z</time>
      </trkpt>
      <trkpt lat="43.03047" lon="-5.790089">
        <ele>802.37</ele>
        <time>2020-07-21T14:12:59.000Z</time>
      </trkpt>
      <trkpt lat="43.030496" lon="-5.7901">
        <ele>801.41</ele>
        <time>2020-07-21T14:13:01.000Z</time>
      </trkpt>
      <trkpt lat="43.030565" lon="-5.790116">
        <ele>802.25</ele>
        <time>2020-07-21T14:13:04.000Z</time>
      </trkpt>
      <trkpt lat="43.030608" lon="-5.790132">
        <ele>803.82</ele>
        <time>2020-07-21T14:13:07.000Z</time>
      </trkpt>
      <trkpt lat="43.030652" lon="-5.790165">
        <ele>804.91</ele>
        <time>2020-07-21T14:13:10.000Z</time>
      </trkpt>
      <trkpt lat="43.030677" lon="-5.790181">
        <ele>806.29</ele>
        <time>2020-07-21T14:13:13.000Z</time>
      </trkpt>
      <trkpt lat="43.030675" lon="-5.790201">
        <ele>805.19</ele>
        <time>2020-07-21T14:13:19.000Z</time>
      </trkpt>
      <trkpt lat="43.030713" lon="-5.790251">
        <ele>811.48</ele>
        <time>2020-07-21T14:13:33.000Z</time>
      </trkpt>
      <trkpt lat="43.030739" lon="-5.790284">
        <ele>809.72</ele>
        <time>2020-07-21T14:13:35.000Z</time>
      </trkpt>
      <trkpt lat="43.030765" lon="-5.790335">
        <ele>811.04</ele>
        <time>2020-07-21T14:13:38.000Z</time>
      </trkpt>
      <trkpt lat="43.030794" lon="-5.790386">
        <ele>811.07</ele>
        <time>2020-07-21T14:13:41.000Z</time>
      </trkpt>
      <trkpt lat="43.030831" lon="-5.790434">
        <ele>811.49</ele>
        <time>2020-07-21T14:13:44.000Z</time>
      </trkpt>
      <trkpt lat="43.030852" lon="-5.790463">
        <ele>810.72</ele>
        <time>2020-07-21T14:13:46.000Z</time>
      </trkpt>
      <trkpt lat="43.030893" lon="-5.790521">
        <ele>813.22</ele>
        <time>2020-07-21T14:13:50.000Z</time>
      </trkpt>
      <trkpt lat="43.030943" lon="-5.790553">
        <ele>814.04</ele>
        <time>2020-07-21T14:13:53.000Z</time>
      </trkpt>
      <trkpt lat="43.030974" lon="-5.790577">
        <ele>813.61</ele>
        <time>2020-07-21T14:13:55.000Z</time>
      </trkpt>
      <trkpt lat="43.031009" lon="-5.790627">
        <ele>813.66</ele>
        <time>2020-07-21T14:13:57.000Z</time>
      </trkpt>
      <trkpt lat="43.031018" lon="-5.790692">
        <ele>815.64</ele>
        <time>2020-07-21T14:14:02.000Z</time>
      </trkpt>
      <trkpt lat="43.031059" lon="-5.790747">
        <ele>816.83</ele>
        <time>2020-07-21T14:14:06.000Z</time>
      </trkpt>
      <trkpt lat="43.03111" lon="-5.790785">
        <ele>818.99</ele>
        <time>2020-07-21T14:14:09.000Z</time>
      </trkpt>
      <trkpt lat="43.03113" lon="-5.790802">
        <ele>819.45</ele>
        <time>2020-07-21T14:14:10.000Z</time>
      </trkpt>
      <trkpt lat="43.03116" lon="-5.79083">
        <ele>820.43</ele>
        <time>2020-07-21T14:14:12.000Z</time>
      </trkpt>
      <trkpt lat="43.031186" lon="-5.790856">
        <ele>820.64</ele>
        <time>2020-07-21T14:14:14.000Z</time>
      </trkpt>
      <trkpt lat="43.031217" lon="-5.790911">
        <ele>820.29</ele>
        <time>2020-07-21T14:14:17.000Z</time>
      </trkpt>
      <trkpt lat="43.031221" lon="-5.790977">
        <ele>818.69</ele>
        <time>2020-07-21T14:14:22.000Z</time>
      </trkpt>
      <trkpt lat="43.031234" lon="-5.791046">
        <ele>818.98</ele>
        <time>2020-07-21T14:14:26.000Z</time>
      </trkpt>
      <trkpt lat="43.031284" lon="-5.791095">
        <ele>818.16</ele>
        <time>2020-07-21T14:14:29.000Z</time>
      </trkpt>
      <trkpt lat="43.031307" lon="-5.79109">
        <ele>815.51</ele>
        <time>2020-07-21T14:14:38.000Z</time>
      </trkpt>
      <trkpt lat="43.031442" lon="-5.790864">
        <ele>814.7</ele>
        <time>2020-07-21T14:16:12.000Z</time>
      </trkpt>
      <trkpt lat="43.031484" lon="-5.790841">
        <ele>812.15</ele>
        <time>2020-07-21T14:16:26.000Z</time>
      </trkpt>
      <trkpt lat="43.03152" lon="-5.790794">
        <ele>812.98</ele>
        <time>2020-07-21T14:16:32.000Z</time>
      </trkpt>
      <trkpt lat="43.031564" lon="-5.790764">
        <ele>814.73</ele>
        <time>2020-07-21T14:16:40.000Z</time>
      </trkpt>
      <trkpt lat="43.031607" lon="-5.790728">
        <ele>813.75</ele>
        <time>2020-07-21T14:16:45.000Z</time>
      </trkpt>
      <trkpt lat="43.031628" lon="-5.790708">
        <ele>812.01</ele>
        <time>2020-07-21T14:16:48.000Z</time>
      </trkpt>
      <trkpt lat="43.031679" lon="-5.790692">
        <ele>813.12</ele>
        <time>2020-07-21T14:16:55.000Z</time>
      </trkpt>
      <trkpt lat="43.031724" lon="-5.790671">
        <ele>810.15</ele>
        <time>2020-07-21T14:17:01.000Z</time>
      </trkpt>
      <trkpt lat="43.031765" lon="-5.790706">
        <ele>814.13</ele>
        <time>2020-07-21T14:17:10.000Z</time>
      </trkpt>
      <trkpt lat="43.031818" lon="-5.790693">
        <ele>817.43</ele>
        <time>2020-07-21T14:17:17.000Z</time>
      </trkpt>
      <trkpt lat="43.03185" lon="-5.790689">
        <ele>821.41</ele>
        <time>2020-07-21T14:17:25.000Z</time>
      </trkpt>
      <trkpt lat="43.031899" lon="-5.790697">
        <ele>824</ele>
        <time>2020-07-21T14:17:31.000Z</time>
      </trkpt>
      <trkpt lat="43.031942" lon="-5.790667">
        <ele>827.07</ele>
        <time>2020-07-21T14:17:34.000Z</time>
      </trkpt>
      <trkpt lat="43.031986" lon="-5.790678">
        <ele>826.12</ele>
        <time>2020-07-21T14:17:38.000Z</time>
      </trkpt>
      <trkpt lat="43.032035" lon="-5.790678">
        <ele>826.57</ele>
        <time>2020-07-21T14:17:44.000Z</time>
      </trkpt>
      <trkpt lat="43.032076" lon="-5.790653">
        <ele>828.07</ele>
        <time>2020-07-21T14:17:48.000Z</time>
      </trkpt>
      <trkpt lat="43.032119" lon="-5.790618">
        <ele>829.7</ele>
        <time>2020-07-21T14:17:52.000Z</time>
      </trkpt>
      <trkpt lat="43.032173" lon="-5.790609">
        <ele>832.04</ele>
        <time>2020-07-21T14:17:58.000Z</time>
      </trkpt>
      <trkpt lat="43.032229" lon="-5.79059">
        <ele>830.07</ele>
        <time>2020-07-21T14:18:03.000Z</time>
      </trkpt>
      <trkpt lat="43.032274" lon="-5.790593">
        <ele>829.24</ele>
        <time>2020-07-21T14:18:06.000Z</time>
      </trkpt>
      <trkpt lat="43.03232" lon="-5.790637">
        <ele>831.09</ele>
        <time>2020-07-21T14:18:11.000Z</time>
      </trkpt>
      <trkpt lat="43.032339" lon="-5.790659">
        <ele>829.84</ele>
        <time>2020-07-21T14:18:17.000Z</time>
      </trkpt>
      <trkpt lat="43.032371" lon="-5.790699">
        <ele>828.32</ele>
        <time>2020-07-21T14:18:21.000Z</time>
      </trkpt>
      <trkpt lat="43.032416" lon="-5.790731">
        <ele>833.12</ele>
        <time>2020-07-21T14:18:26.000Z</time>
      </trkpt>
      <trkpt lat="43.032438" lon="-5.790748">
        <ele>834.66</ele>
        <time>2020-07-21T14:18:28.000Z</time>
      </trkpt>
      <trkpt lat="43.032488" lon="-5.790733">
        <ele>833.43</ele>
        <time>2020-07-21T14:18:33.000Z</time>
      </trkpt>
      <trkpt lat="43.032543" lon="-5.790787">
        <ele>833.83</ele>
        <time>2020-07-21T14:18:39.000Z</time>
      </trkpt>
      <trkpt lat="43.032553" lon="-5.790852">
        <ele>833.81</ele>
        <time>2020-07-21T14:18:46.000Z</time>
      </trkpt>
      <trkpt lat="43.032591" lon="-5.790892">
        <ele>834.04</ele>
        <time>2020-07-21T14:18:50.000Z</time>
      </trkpt>
      <trkpt lat="43.032611" lon="-5.790948">
        <ele>830.74</ele>
        <time>2020-07-21T14:18:57.000Z</time>
      </trkpt>
      <trkpt lat="43.032649" lon="-5.790984">
        <ele>831.2</ele>
        <time>2020-07-21T14:19:19.000Z</time>
      </trkpt>
      <trkpt lat="43.032682" lon="-5.791034">
        <ele>836.3</ele>
        <time>2020-07-21T14:19:24.000Z</time>
      </trkpt>
      <trkpt lat="43.032744" lon="-5.791035">
        <ele>842.38</ele>
        <time>2020-07-21T14:19:28.000Z</time>
      </trkpt>
      <trkpt lat="43.032792" lon="-5.791067">
        <ele>843.72</ele>
        <time>2020-07-21T14:19:32.000Z</time>
      </trkpt>
      <trkpt lat="43.032824" lon="-5.791085">
        <ele>843.98</ele>
        <time>2020-07-21T14:19:35.000Z</time>
      </trkpt>
      <trkpt lat="43.032872" lon="-5.791086">
        <ele>844.33</ele>
        <time>2020-07-21T14:19:40.000Z</time>
      </trkpt>
      <trkpt lat="43.032887" lon="-5.791102">
        <ele>844.05</ele>
        <time>2020-07-21T14:19:48.000Z</time>
      </trkpt>
      <trkpt lat="43.032936" lon="-5.791062">
        <ele>842.6</ele>
        <time>2020-07-21T14:19:54.000Z</time>
      </trkpt>
      <trkpt lat="43.032981" lon="-5.79103">
        <ele>841.46</ele>
        <time>2020-07-21T14:19:58.000Z</time>
      </trkpt>
      <trkpt lat="43.033032" lon="-5.79103">
        <ele>839.78</ele>
        <time>2020-07-21T14:20:02.000Z</time>
      </trkpt>
      <trkpt lat="43.033079" lon="-5.791008">
        <ele>841.33</ele>
        <time>2020-07-21T14:20:07.000Z</time>
      </trkpt>
      <trkpt lat="43.033101" lon="-5.790998">
        <ele>844.03</ele>
        <time>2020-07-21T14:20:10.000Z</time>
      </trkpt>
      <trkpt lat="43.033132" lon="-5.790951">
        <ele>845.78</ele>
        <time>2020-07-21T14:20:15.000Z</time>
      </trkpt>
      <trkpt lat="43.033182" lon="-5.790935">
        <ele>843.13</ele>
        <time>2020-07-21T14:20:21.000Z</time>
      </trkpt>
      <trkpt lat="43.033224" lon="-5.7909">
        <ele>844.53</ele>
        <time>2020-07-21T14:20:24.000Z</time>
      </trkpt>
      <trkpt lat="43.03327" lon="-5.790861">
        <ele>848.46</ele>
        <time>2020-07-21T14:20:29.000Z</time>
      </trkpt>
      <trkpt lat="43.033316" lon="-5.790871">
        <ele>846.76</ele>
        <time>2020-07-21T14:20:33.000Z</time>
      </trkpt>
      <trkpt lat="43.033341" lon="-5.790875">
        <ele>843.71</ele>
        <time>2020-07-21T14:20:35.000Z</time>
      </trkpt>
      <trkpt lat="43.033375" lon="-5.790882">
        <ele>844.61</ele>
        <time>2020-07-21T14:20:38.000Z</time>
      </trkpt>
      <trkpt lat="43.033431" lon="-5.790856">
        <ele>843.1</ele>
        <time>2020-07-21T14:20:42.000Z</time>
      </trkpt>
      <trkpt lat="43.033478" lon="-5.790871">
        <ele>841.17</ele>
        <time>2020-07-21T14:20:45.000Z</time>
      </trkpt>
      <trkpt lat="43.033516" lon="-5.790882">
        <ele>840.52</ele>
        <time>2020-07-21T14:20:48.000Z</time>
      </trkpt>
      <trkpt lat="43.03356" lon="-5.790832">
        <ele>842.22</ele>
        <time>2020-07-21T14:20:56.000Z</time>
      </trkpt>
      <trkpt lat="43.033611" lon="-5.790786">
        <ele>845.66</ele>
        <time>2020-07-21T14:21:01.000Z</time>
      </trkpt>
      <trkpt lat="43.033629" lon="-5.790769">
        <ele>845.37</ele>
        <time>2020-07-21T14:21:03.000Z</time>
      </trkpt>
      <trkpt lat="43.033664" lon="-5.790737">
        <ele>845.6</ele>
        <time>2020-07-21T14:21:07.000Z</time>
      </trkpt>
      <trkpt lat="43.033711" lon="-5.790731">
        <ele>846.02</ele>
        <time>2020-07-21T14:21:11.000Z</time>
      </trkpt>
      <trkpt lat="43.033759" lon="-5.790716">
        <ele>847.53</ele>
        <time>2020-07-21T14:21:16.000Z</time>
      </trkpt>
      <trkpt lat="43.033801" lon="-5.79069">
        <ele>848.2</ele>
        <time>2020-07-21T14:21:20.000Z</time>
      </trkpt>
      <trkpt lat="43.033843" lon="-5.790654">
        <ele>851.03</ele>
        <time>2020-07-21T14:21:25.000Z</time>
      </trkpt>
      <trkpt lat="43.033895" lon="-5.79064">
        <ele>849.65</ele>
        <time>2020-07-21T14:21:32.000Z</time>
      </trkpt>
      <trkpt lat="43.033929" lon="-5.790578">
        <ele>853.26</ele>
        <time>2020-07-21T14:21:36.000Z</time>
      </trkpt>
      <trkpt lat="43.033971" lon="-5.79053">
        <ele>855.22</ele>
        <time>2020-07-21T14:21:41.000Z</time>
      </trkpt>
      <trkpt lat="43.034014" lon="-5.790501">
        <ele>853.92</ele>
        <time>2020-07-21T14:21:47.000Z</time>
      </trkpt>
      <trkpt lat="43.034051" lon="-5.790455">
        <ele>853.32</ele>
        <time>2020-07-21T14:21:52.000Z</time>
      </trkpt>
      <trkpt lat="43.034076" lon="-5.790462">
        <ele>853.43</ele>
        <time>2020-07-21T14:22:01.000Z</time>
      </trkpt>
      <trkpt lat="43.034114" lon="-5.790442">
        <ele>852.62</ele>
        <time>2020-07-21T14:22:05.000Z</time>
      </trkpt>
      <trkpt lat="43.03414" lon="-5.790428">
        <ele>851.41</ele>
        <time>2020-07-21T14:22:07.000Z</time>
      </trkpt>
      <trkpt lat="43.034163" lon="-5.790412">
        <ele>851.36</ele>
        <time>2020-07-21T14:22:09.000Z</time>
      </trkpt>
      <trkpt lat="43.034187" lon="-5.790392">
        <ele>851.28</ele>
        <time>2020-07-21T14:22:11.000Z</time>
      </trkpt>
      <trkpt lat="43.034243" lon="-5.790374">
        <ele>851.7</ele>
        <time>2020-07-21T14:22:17.000Z</time>
      </trkpt>
      <trkpt lat="43.034295" lon="-5.790349">
        <ele>852.73</ele>
        <time>2020-07-21T14:22:22.000Z</time>
      </trkpt>
      <trkpt lat="43.034339" lon="-5.790313">
        <ele>852.2</ele>
        <time>2020-07-21T14:22:27.000Z</time>
      </trkpt>
      <trkpt lat="43.034389" lon="-5.790322">
        <ele>852.11</ele>
        <time>2020-07-21T14:22:33.000Z</time>
      </trkpt>
      <trkpt lat="43.034437" lon="-5.790339">
        <ele>852.75</ele>
        <time>2020-07-21T14:22:39.000Z</time>
      </trkpt>
      <trkpt lat="43.034487" lon="-5.790314">
        <ele>854.11</ele>
        <time>2020-07-21T14:22:43.000Z</time>
      </trkpt>
      <trkpt lat="43.034526" lon="-5.79028">
        <ele>853.65</ele>
        <time>2020-07-21T14:22:48.000Z</time>
      </trkpt>
      <trkpt lat="43.034571" lon="-5.790258">
        <ele>857</ele>
        <time>2020-07-21T14:22:57.000Z</time>
      </trkpt>
      <trkpt lat="43.034599" lon="-5.790243">
        <ele>857.01</ele>
        <time>2020-07-21T14:23:00.000Z</time>
      </trkpt>
      <trkpt lat="43.034644" lon="-5.790226">
        <ele>860.77</ele>
        <time>2020-07-21T14:23:05.000Z</time>
      </trkpt>
      <trkpt lat="43.034686" lon="-5.790214">
        <ele>860.21</ele>
        <time>2020-07-21T14:23:09.000Z</time>
      </trkpt>
      <trkpt lat="43.034736" lon="-5.790205">
        <ele>864.04</ele>
        <time>2020-07-21T14:23:15.000Z</time>
      </trkpt>
      <trkpt lat="43.034762" lon="-5.790203">
        <ele>863.39</ele>
        <time>2020-07-21T14:23:19.000Z</time>
      </trkpt>
      <trkpt lat="43.034805" lon="-5.790204">
        <ele>865.53</ele>
        <time>2020-07-21T14:23:22.000Z</time>
      </trkpt>
      <trkpt lat="43.034846" lon="-5.790204">
        <ele>869.07</ele>
        <time>2020-07-21T14:23:30.000Z</time>
      </trkpt>
      <trkpt lat="43.034901" lon="-5.790171">
        <ele>870.46</ele>
        <time>2020-07-21T14:23:38.000Z</time>
      </trkpt>
      <trkpt lat="43.034939" lon="-5.790153">
        <ele>871.93</ele>
        <time>2020-07-21T14:23:41.000Z</time>
      </trkpt>
      <trkpt lat="43.034988" lon="-5.790184">
        <ele>870.99</ele>
        <time>2020-07-21T14:23:45.000Z</time>
      </trkpt>
      <trkpt lat="43.035035" lon="-5.79019">
        <ele>872.29</ele>
        <time>2020-07-21T14:23:50.000Z</time>
      </trkpt>
      <trkpt lat="43.035062" lon="-5.790195">
        <ele>870.63</ele>
        <time>2020-07-21T14:23:53.000Z</time>
      </trkpt>
      <trkpt lat="43.035118" lon="-5.790182">
        <ele>872.67</ele>
        <time>2020-07-21T14:23:56.000Z</time>
      </trkpt>
      <trkpt lat="43.035171" lon="-5.790208">
        <ele>876.28</ele>
        <time>2020-07-21T14:24:01.000Z</time>
      </trkpt>
      <trkpt lat="43.035207" lon="-5.790263">
        <ele>879.41</ele>
        <time>2020-07-21T14:24:08.000Z</time>
      </trkpt>
      <trkpt lat="43.035228" lon="-5.790299">
        <ele>879.23</ele>
        <time>2020-07-21T14:24:11.000Z</time>
      </trkpt>
      <trkpt lat="43.035269" lon="-5.790345">
        <ele>880.48</ele>
        <time>2020-07-21T14:24:16.000Z</time>
      </trkpt>
      <trkpt lat="43.035287" lon="-5.790368">
        <ele>880.94</ele>
        <time>2020-07-21T14:24:18.000Z</time>
      </trkpt>
      <trkpt lat="43.035317" lon="-5.790413">
        <ele>880.51</ele>
        <time>2020-07-21T14:24:22.000Z</time>
      </trkpt>
      <trkpt lat="43.035357" lon="-5.790458">
        <ele>878.66</ele>
        <time>2020-07-21T14:24:26.000Z</time>
      </trkpt>
      <trkpt lat="43.035383" lon="-5.790526">
        <ele>877.68</ele>
        <time>2020-07-21T14:24:30.000Z</time>
      </trkpt>
      <trkpt lat="43.035425" lon="-5.790587">
        <ele>878.36</ele>
        <time>2020-07-21T14:24:36.000Z</time>
      </trkpt>
      <trkpt lat="43.035456" lon="-5.790642">
        <ele>877.89</ele>
        <time>2020-07-21T14:24:42.000Z</time>
      </trkpt>
      <trkpt lat="43.035469" lon="-5.790703">
        <ele>874.08</ele>
        <time>2020-07-21T14:24:47.000Z</time>
      </trkpt>
      <trkpt lat="43.035507" lon="-5.790756">
        <ele>876.36</ele>
        <time>2020-07-21T14:24:52.000Z</time>
      </trkpt>
      <trkpt lat="43.035544" lon="-5.790819">
        <ele>878.17</ele>
        <time>2020-07-21T14:24:56.000Z</time>
      </trkpt>
      <trkpt lat="43.035597" lon="-5.790875">
        <ele>878.28</ele>
        <time>2020-07-21T14:24:59.000Z</time>
      </trkpt>
      <trkpt lat="43.035611" lon="-5.790946">
        <ele>875.19</ele>
        <time>2020-07-21T14:25:04.000Z</time>
      </trkpt>
      <trkpt lat="43.035637" lon="-5.791003">
        <ele>877.15</ele>
        <time>2020-07-21T14:25:07.000Z</time>
      </trkpt>
      <trkpt lat="43.03566" lon="-5.791051">
        <ele>876.85</ele>
        <time>2020-07-21T14:25:10.000Z</time>
      </trkpt>
      <trkpt lat="43.035722" lon="-5.791111">
        <ele>877.23</ele>
        <time>2020-07-21T14:25:18.000Z</time>
      </trkpt>
      <trkpt lat="43.035769" lon="-5.791136">
        <ele>877.49</ele>
        <time>2020-07-21T14:25:20.000Z</time>
      </trkpt>
      <trkpt lat="43.03582" lon="-5.791189">
        <ele>878.03</ele>
        <time>2020-07-21T14:25:24.000Z</time>
      </trkpt>
      <trkpt lat="43.035871" lon="-5.791251">
        <ele>879.14</ele>
        <time>2020-07-21T14:25:30.000Z</time>
      </trkpt>
      <trkpt lat="43.035877" lon="-5.791317">
        <ele>880.49</ele>
        <time>2020-07-21T14:25:34.000Z</time>
      </trkpt>
      <trkpt lat="43.035881" lon="-5.791353">
        <ele>879.93</ele>
        <time>2020-07-21T14:25:37.000Z</time>
      </trkpt>
      <trkpt lat="43.035918" lon="-5.79141">
        <ele>879.72</ele>
        <time>2020-07-21T14:25:42.000Z</time>
      </trkpt>
      <trkpt lat="43.035946" lon="-5.791456">
        <ele>880.5</ele>
        <time>2020-07-21T14:25:46.000Z</time>
      </trkpt>
      <trkpt lat="43.035969" lon="-5.79151">
        <ele>881.3</ele>
        <time>2020-07-21T14:25:51.000Z</time>
      </trkpt>
      <trkpt lat="43.036004" lon="-5.791565">
        <ele>884</ele>
        <time>2020-07-21T14:25:56.000Z</time>
      </trkpt>
      <trkpt lat="43.036047" lon="-5.791604">
        <ele>886.44</ele>
        <time>2020-07-21T14:26:01.000Z</time>
      </trkpt>
      <trkpt lat="43.036073" lon="-5.791631">
        <ele>883.41</ele>
        <time>2020-07-21T14:26:04.000Z</time>
      </trkpt>
      <trkpt lat="43.036093" lon="-5.791649">
        <ele>878.02</ele>
        <time>2020-07-21T14:26:12.000Z</time>
      </trkpt>
      <trkpt lat="43.036185" lon="-5.791599">
        <ele>870.22</ele>
        <time>2020-07-21T14:27:28.000Z</time>
      </trkpt>
      <trkpt lat="43.03622" lon="-5.791538">
        <ele>868.53</ele>
        <time>2020-07-21T14:27:31.000Z</time>
      </trkpt>
      <trkpt lat="43.036261" lon="-5.791483">
        <ele>868.98</ele>
        <time>2020-07-21T14:27:37.000Z</time>
      </trkpt>
      <trkpt lat="43.036281" lon="-5.791459">
        <ele>871.3</ele>
        <time>2020-07-21T14:28:06.000Z</time>
      </trkpt>
      <trkpt lat="43.036308" lon="-5.791392">
        <ele>873.78</ele>
        <time>2020-07-21T14:28:09.000Z</time>
      </trkpt>
      <trkpt lat="43.036319" lon="-5.791359">
        <ele>875.18</ele>
        <time>2020-07-21T14:28:11.000Z</time>
      </trkpt>
      <trkpt lat="43.036331" lon="-5.791327">
        <ele>876.29</ele>
        <time>2020-07-21T14:28:13.000Z</time>
      </trkpt>
      <trkpt lat="43.036355" lon="-5.791254">
        <ele>879.38</ele>
        <time>2020-07-21T14:28:16.000Z</time>
      </trkpt>
      <trkpt lat="43.036399" lon="-5.79121">
        <ele>880.81</ele>
        <time>2020-07-21T14:28:20.000Z</time>
      </trkpt>
      <trkpt lat="43.036424" lon="-5.791186">
        <ele>882.08</ele>
        <time>2020-07-21T14:28:23.000Z</time>
      </trkpt>
      <trkpt lat="43.036461" lon="-5.791129">
        <ele>882.34</ele>
        <time>2020-07-21T14:28:26.000Z</time>
      </trkpt>
      <trkpt lat="43.036485" lon="-5.791074">
        <ele>879.37</ele>
        <time>2020-07-21T14:28:30.000Z</time>
      </trkpt>
      <trkpt lat="43.036532" lon="-5.791039">
        <ele>878.92</ele>
        <time>2020-07-21T14:28:33.000Z</time>
      </trkpt>
      <trkpt lat="43.036566" lon="-5.790999">
        <ele>879.66</ele>
        <time>2020-07-21T14:28:37.000Z</time>
      </trkpt>
      <trkpt lat="43.036609" lon="-5.790979">
        <ele>879.15</ele>
        <time>2020-07-21T14:28:40.000Z</time>
      </trkpt>
      <trkpt lat="43.036656" lon="-5.790948">
        <ele>876.71</ele>
        <time>2020-07-21T14:28:44.000Z</time>
      </trkpt>
      <trkpt lat="43.036699" lon="-5.790925">
        <ele>876.9</ele>
        <time>2020-07-21T14:28:49.000Z</time>
      </trkpt>
      <trkpt lat="43.036741" lon="-5.790894">
        <ele>876.26</ele>
        <time>2020-07-21T14:28:53.000Z</time>
      </trkpt>
      <trkpt lat="43.036759" lon="-5.790837">
        <ele>878</ele>
        <time>2020-07-21T14:28:56.000Z</time>
      </trkpt>
      <trkpt lat="43.036794" lon="-5.790785">
        <ele>877.88</ele>
        <time>2020-07-21T14:29:03.000Z</time>
      </trkpt>
      <trkpt lat="43.036821" lon="-5.790744">
        <ele>879.93</ele>
        <time>2020-07-21T14:29:06.000Z</time>
      </trkpt>
      <trkpt lat="43.036854" lon="-5.79068">
        <ele>880.29</ele>
        <time>2020-07-21T14:29:10.000Z</time>
      </trkpt>
      <trkpt lat="43.03687" lon="-5.790651">
        <ele>878.96</ele>
        <time>2020-07-21T14:29:12.000Z</time>
      </trkpt>
      <trkpt lat="43.036883" lon="-5.790591">
        <ele>878.65</ele>
        <time>2020-07-21T14:29:16.000Z</time>
      </trkpt>
      <trkpt lat="43.036921" lon="-5.790552">
        <ele>880.19</ele>
        <time>2020-07-21T14:29:21.000Z</time>
      </trkpt>
      <trkpt lat="43.036941" lon="-5.790534">
        <ele>880.31</ele>
        <time>2020-07-21T14:29:24.000Z</time>
      </trkpt>
      <trkpt lat="43.036985" lon="-5.790511">
        <ele>879.7</ele>
        <time>2020-07-21T14:29:28.000Z</time>
      </trkpt>
      <trkpt lat="43.037009" lon="-5.790499">
        <ele>879.54</ele>
        <time>2020-07-21T14:29:31.000Z</time>
      </trkpt>
      <trkpt lat="43.037031" lon="-5.790442">
        <ele>880.78</ele>
        <time>2020-07-21T14:29:37.000Z</time>
      </trkpt>
      <trkpt lat="43.037082" lon="-5.790392">
        <ele>881.23</ele>
        <time>2020-07-21T14:29:43.000Z</time>
      </trkpt>
      <trkpt lat="43.037125" lon="-5.790364">
        <ele>880.98</ele>
        <time>2020-07-21T14:29:48.000Z</time>
      </trkpt>
      <trkpt lat="43.037153" lon="-5.790346">
        <ele>881.6</ele>
        <time>2020-07-21T14:29:51.000Z</time>
      </trkpt>
      <trkpt lat="43.037204" lon="-5.790327">
        <ele>886.88</ele>
        <time>2020-07-21T14:29:59.000Z</time>
      </trkpt>
      <trkpt lat="43.037244" lon="-5.790315">
        <ele>885.66</ele>
        <time>2020-07-21T14:30:03.000Z</time>
      </trkpt>
      <trkpt lat="43.03727" lon="-5.790308">
        <ele>888.28</ele>
        <time>2020-07-21T14:30:05.000Z</time>
      </trkpt>
      <trkpt lat="43.037267" lon="-5.790292">
        <ele>889.68</ele>
        <time>2020-07-21T14:30:13.000Z</time>
      </trkpt>
      <trkpt lat="43.037294" lon="-5.790279">
        <ele>891.42</ele>
        <time>2020-07-21T14:30:19.000Z</time>
      </trkpt>
      <trkpt lat="43.037343" lon="-5.790285">
        <ele>899.35</ele>
        <time>2020-07-21T14:30:31.000Z</time>
      </trkpt>
      <trkpt lat="43.037397" lon="-5.790286">
        <ele>895.88</ele>
        <time>2020-07-21T14:30:36.000Z</time>
      </trkpt>
      <trkpt lat="43.037442" lon="-5.790303">
        <ele>895.65</ele>
        <time>2020-07-21T14:30:38.000Z</time>
      </trkpt>
      <trkpt lat="43.037473" lon="-5.790311">
        <ele>896.53</ele>
        <time>2020-07-21T14:30:40.000Z</time>
      </trkpt>
      <trkpt lat="43.037525" lon="-5.790294">
        <ele>896.86</ele>
        <time>2020-07-21T14:30:44.000Z</time>
      </trkpt>
      <trkpt lat="43.037572" lon="-5.790298">
        <ele>898.5</ele>
        <time>2020-07-21T14:30:48.000Z</time>
      </trkpt>
      <trkpt lat="43.037619" lon="-5.790332">
        <ele>892.07</ele>
        <time>2020-07-21T14:30:53.000Z</time>
      </trkpt>
      <trkpt lat="43.037655" lon="-5.790359">
        <ele>890.96</ele>
        <time>2020-07-21T14:30:57.000Z</time>
      </trkpt>
      <trkpt lat="43.037655" lon="-5.790359">
        <ele>890.96</ele>
        <time>2020-07-21T14:31:05.000Z</time>
      </trkpt>
      <trkpt lat="43.037655" lon="-5.790359">
        <ele>890.96</ele>
        <time>2020-07-21T14:31:06.000Z</time>
      </trkpt>
      <trkpt lat="43.037852" lon="-5.790366">
        <ele>891.86</ele>
        <time>2020-07-21T14:31:54.000Z</time>
      </trkpt>
      <trkpt lat="43.037907" lon="-5.79035">
        <ele>894.57</ele>
        <time>2020-07-21T14:32:05.000Z</time>
      </trkpt>
      <trkpt lat="43.037969" lon="-5.790337">
        <ele>892.16</ele>
        <time>2020-07-21T14:32:10.000Z</time>
      </trkpt>
      <trkpt lat="43.038024" lon="-5.790307">
        <ele>894.12</ele>
        <time>2020-07-21T14:32:13.000Z</time>
      </trkpt>
      <trkpt lat="43.038081" lon="-5.790296">
        <ele>896.37</ele>
        <time>2020-07-21T14:32:17.000Z</time>
      </trkpt>
      <trkpt lat="43.038113" lon="-5.790292">
        <ele>896.65</ele>
        <time>2020-07-21T14:32:19.000Z</time>
      </trkpt>
      <trkpt lat="43.038161" lon="-5.790302">
        <ele>897.87</ele>
        <time>2020-07-21T14:32:23.000Z</time>
      </trkpt>
      <trkpt lat="43.038208" lon="-5.790295">
        <ele>895.92</ele>
        <time>2020-07-21T14:32:28.000Z</time>
      </trkpt>
      <trkpt lat="43.038234" lon="-5.790292">
        <ele>895.18</ele>
        <time>2020-07-21T14:32:30.000Z</time>
      </trkpt>
      <trkpt lat="43.038267" lon="-5.790285">
        <ele>897.87</ele>
        <time>2020-07-21T14:32:33.000Z</time>
      </trkpt>
      <trkpt lat="43.038312" lon="-5.790263">
        <ele>898.79</ele>
        <time>2020-07-21T14:32:37.000Z</time>
      </trkpt>
      <trkpt lat="43.038341" lon="-5.790252">
        <ele>899.47</ele>
        <time>2020-07-21T14:32:40.000Z</time>
      </trkpt>
      <trkpt lat="43.038367" lon="-5.790244">
        <ele>898.16</ele>
        <time>2020-07-21T14:32:42.000Z</time>
      </trkpt>
      <trkpt lat="43.038403" lon="-5.790237">
        <ele>897.25</ele>
        <time>2020-07-21T14:32:46.000Z</time>
      </trkpt>
      <trkpt lat="43.03845" lon="-5.79021">
        <ele>897.91</ele>
        <time>2020-07-21T14:32:50.000Z</time>
      </trkpt>
      <trkpt lat="43.038482" lon="-5.790193">
        <ele>896.84</ele>
        <time>2020-07-21T14:32:52.000Z</time>
      </trkpt>
      <trkpt lat="43.038525" lon="-5.790161">
        <ele>895.02</ele>
        <time>2020-07-21T14:32:57.000Z</time>
      </trkpt>
      <trkpt lat="43.038574" lon="-5.790146">
        <ele>895.05</ele>
        <time>2020-07-21T14:33:01.000Z</time>
      </trkpt>
      <trkpt lat="43.038614" lon="-5.790114">
        <ele>894.43</ele>
        <time>2020-07-21T14:33:04.000Z</time>
      </trkpt>
      <trkpt lat="43.038663" lon="-5.790104">
        <ele>895.41</ele>
        <time>2020-07-21T14:33:07.000Z</time>
      </trkpt>
      <trkpt lat="43.038707" lon="-5.790081">
        <ele>895.68</ele>
        <time>2020-07-21T14:33:11.000Z</time>
      </trkpt>
      <trkpt lat="43.038761" lon="-5.790074">
        <ele>895.37</ele>
        <time>2020-07-21T14:33:14.000Z</time>
      </trkpt>
      <trkpt lat="43.038796" lon="-5.790068">
        <ele>896.5</ele>
        <time>2020-07-21T14:33:16.000Z</time>
      </trkpt>
      <trkpt lat="43.038849" lon="-5.790067">
        <ele>895.76</ele>
        <time>2020-07-21T14:33:21.000Z</time>
      </trkpt>
      <trkpt lat="43.038893" lon="-5.790061">
        <ele>895.39</ele>
        <time>2020-07-21T14:33:24.000Z</time>
      </trkpt>
      <trkpt lat="43.038918" lon="-5.790059">
        <ele>895.9</ele>
        <time>2020-07-21T14:33:26.000Z</time>
      </trkpt>
      <trkpt lat="43.038967" lon="-5.790051">
        <ele>896.46</ele>
        <time>2020-07-21T14:33:30.000Z</time>
      </trkpt>
      <trkpt lat="43.039018" lon="-5.790053">
        <ele>896.03</ele>
        <time>2020-07-21T14:33:34.000Z</time>
      </trkpt>
      <trkpt lat="43.039071" lon="-5.790048">
        <ele>896.07</ele>
        <time>2020-07-21T14:33:38.000Z</time>
      </trkpt>
      <trkpt lat="43.039099" lon="-5.790065">
        <ele>894.29</ele>
        <time>2020-07-21T14:33:47.000Z</time>
      </trkpt>
      <trkpt lat="43.039124" lon="-5.790063">
        <ele>893.89</ele>
        <time>2020-07-21T14:33:49.000Z</time>
      </trkpt>
      <trkpt lat="43.039179" lon="-5.79007">
        <ele>893.58</ele>
        <time>2020-07-21T14:33:53.000Z</time>
      </trkpt>
      <trkpt lat="43.039226" lon="-5.79007">
        <ele>893.58</ele>
        <time>2020-07-21T14:33:56.000Z</time>
      </trkpt>
      <trkpt lat="43.039279" lon="-5.790085">
        <ele>893.64</ele>
        <time>2020-07-21T14:34:00.000Z</time>
      </trkpt>
      <trkpt lat="43.039341" lon="-5.790085">
        <ele>893.97</ele>
        <time>2020-07-21T14:34:04.000Z</time>
      </trkpt>
      <trkpt lat="43.039395" lon="-5.790093">
        <ele>893.93</ele>
        <time>2020-07-21T14:34:08.000Z</time>
      </trkpt>
      <trkpt lat="43.039443" lon="-5.790085">
        <ele>894.28</ele>
        <time>2020-07-21T14:34:12.000Z</time>
      </trkpt>
      <trkpt lat="43.039499" lon="-5.790083">
        <ele>896.67</ele>
        <time>2020-07-21T14:34:19.000Z</time>
      </trkpt>
      <trkpt lat="43.039524" lon="-5.790081">
        <ele>897.6</ele>
        <time>2020-07-21T14:34:21.000Z</time>
      </trkpt>
      <trkpt lat="43.039567" lon="-5.790076">
        <ele>895.98</ele>
        <time>2020-07-21T14:34:25.000Z</time>
      </trkpt>
      <trkpt lat="43.0396" lon="-5.790069">
        <ele>897.19</ele>
        <time>2020-07-21T14:34:27.000Z</time>
      </trkpt>
      <trkpt lat="43.039642" lon="-5.790042">
        <ele>895.98</ele>
        <time>2020-07-21T14:34:30.000Z</time>
      </trkpt>
      <trkpt lat="43.039668" lon="-5.790028">
        <ele>896.62</ele>
        <time>2020-07-21T14:34:32.000Z</time>
      </trkpt>
      <trkpt lat="43.039698" lon="-5.790013">
        <ele>895.73</ele>
        <time>2020-07-21T14:34:35.000Z</time>
      </trkpt>
      <trkpt lat="43.039756" lon="-5.789997">
        <ele>894.58</ele>
        <time>2020-07-21T14:34:38.000Z</time>
      </trkpt>
      <trkpt lat="43.039807" lon="-5.789985">
        <ele>894.03</ele>
        <time>2020-07-21T14:34:42.000Z</time>
      </trkpt>
      <trkpt lat="43.039859" lon="-5.789949">
        <ele>895.52</ele>
        <time>2020-07-21T14:34:46.000Z</time>
      </trkpt>
      <trkpt lat="43.039909" lon="-5.789941">
        <ele>893.34</ele>
        <time>2020-07-21T14:34:50.000Z</time>
      </trkpt>
      <trkpt lat="43.039957" lon="-5.789924">
        <ele>892.38</ele>
        <time>2020-07-21T14:34:54.000Z</time>
      </trkpt>
      <trkpt lat="43.040022" lon="-5.789878">
        <ele>893.05</ele>
        <time>2020-07-21T14:34:59.000Z</time>
      </trkpt>
      <trkpt lat="43.04007" lon="-5.78983">
        <ele>895.58</ele>
        <time>2020-07-21T14:35:04.000Z</time>
      </trkpt>
      <trkpt lat="43.040092" lon="-5.789807">
        <ele>894.72</ele>
        <time>2020-07-21T14:35:06.000Z</time>
      </trkpt>
      <trkpt lat="43.040111" lon="-5.789789">
        <ele>895.59</ele>
        <time>2020-07-21T14:35:08.000Z</time>
      </trkpt>
      <trkpt lat="43.040137" lon="-5.789766">
        <ele>894.3</ele>
        <time>2020-07-21T14:35:11.000Z</time>
      </trkpt>
      <trkpt lat="43.040158" lon="-5.789745">
        <ele>895.14</ele>
        <time>2020-07-21T14:35:13.000Z</time>
      </trkpt>
      <trkpt lat="43.04018" lon="-5.789726">
        <ele>896.83</ele>
        <time>2020-07-21T14:35:15.000Z</time>
      </trkpt>
      <trkpt lat="43.040212" lon="-5.789699">
        <ele>898.4</ele>
        <time>2020-07-21T14:35:20.000Z</time>
      </trkpt>
      <trkpt lat="43.04027" lon="-5.789694">
        <ele>899.49</ele>
        <time>2020-07-21T14:35:24.000Z</time>
      </trkpt>
      <trkpt lat="43.040341" lon="-5.789682">
        <ele>896.61</ele>
        <time>2020-07-21T14:35:30.000Z</time>
      </trkpt>
      <trkpt lat="43.040393" lon="-5.78968">
        <ele>899.46</ele>
        <time>2020-07-21T14:35:35.000Z</time>
      </trkpt>
      <trkpt lat="43.040444" lon="-5.789671">
        <ele>898.65</ele>
        <time>2020-07-21T14:35:41.000Z</time>
      </trkpt>
      <trkpt lat="43.040469" lon="-5.789665">
        <ele>900.75</ele>
        <time>2020-07-21T14:35:44.000Z</time>
      </trkpt>
      <trkpt lat="43.04051" lon="-5.789659">
        <ele>903.68</ele>
        <time>2020-07-21T14:35:49.000Z</time>
      </trkpt>
      <trkpt lat="43.040546" lon="-5.78965">
        <ele>904.14</ele>
        <time>2020-07-21T14:35:55.000Z</time>
      </trkpt>
      <trkpt lat="43.040569" lon="-5.789645">
        <ele>902.61</ele>
        <time>2020-07-21T14:35:59.000Z</time>
      </trkpt>
      <trkpt lat="43.040619" lon="-5.789625">
        <ele>904.29</ele>
        <time>2020-07-21T14:36:07.000Z</time>
      </trkpt>
      <trkpt lat="43.040644" lon="-5.789614">
        <ele>904.86</ele>
        <time>2020-07-21T14:36:10.000Z</time>
      </trkpt>
      <trkpt lat="43.040691" lon="-5.78957">
        <ele>904.05</ele>
        <time>2020-07-21T14:36:37.000Z</time>
      </trkpt>
      <trkpt lat="43.040761" lon="-5.789534">
        <ele>907.25</ele>
        <time>2020-07-21T14:36:42.000Z</time>
      </trkpt>
      <trkpt lat="43.040816" lon="-5.789537">
        <ele>905</ele>
        <time>2020-07-21T14:36:50.000Z</time>
      </trkpt>
      <trkpt lat="43.040873" lon="-5.789532">
        <ele>905.91</ele>
        <time>2020-07-21T14:36:55.000Z</time>
      </trkpt>
      <trkpt lat="43.040911" lon="-5.789526">
        <ele>906.4</ele>
        <time>2020-07-21T14:36:59.000Z</time>
      </trkpt>
      <trkpt lat="43.040929" lon="-5.789537">
        <ele>906.72</ele>
        <time>2020-07-21T14:37:07.000Z</time>
      </trkpt>
      <trkpt lat="43.041001" lon="-5.789581">
        <ele>904.45</ele>
        <time>2020-07-21T14:37:46.000Z</time>
      </trkpt>
      <trkpt lat="43.041051" lon="-5.789545">
        <ele>903.42</ele>
        <time>2020-07-21T14:37:50.000Z</time>
      </trkpt>
      <trkpt lat="43.041105" lon="-5.789525">
        <ele>902.66</ele>
        <time>2020-07-21T14:37:54.000Z</time>
      </trkpt>
      <trkpt lat="43.041127" lon="-5.789516">
        <ele>901.02</ele>
        <time>2020-07-21T14:38:01.000Z</time>
      </trkpt>
      <trkpt lat="43.041172" lon="-5.789487">
        <ele>903</ele>
        <time>2020-07-21T14:38:08.000Z</time>
      </trkpt>
      <trkpt lat="43.041207" lon="-5.789466">
        <ele>904.4</ele>
        <time>2020-07-21T14:38:11.000Z</time>
      </trkpt>
      <trkpt lat="43.041262" lon="-5.789433">
        <ele>903.17</ele>
        <time>2020-07-21T14:38:16.000Z</time>
      </trkpt>
      <trkpt lat="43.041299" lon="-5.789379">
        <ele>904.98</ele>
        <time>2020-07-21T14:38:21.000Z</time>
      </trkpt>
      <trkpt lat="43.041344" lon="-5.789333">
        <ele>906.23</ele>
        <time>2020-07-21T14:38:24.000Z</time>
      </trkpt>
      <trkpt lat="43.041375" lon="-5.789305">
        <ele>909.07</ele>
        <time>2020-07-21T14:38:29.000Z</time>
      </trkpt>
      <trkpt lat="43.041409" lon="-5.789287">
        <ele>910.4</ele>
        <time>2020-07-21T14:38:38.000Z</time>
      </trkpt>
      <trkpt lat="43.041461" lon="-5.789264">
        <ele>911.5</ele>
        <time>2020-07-21T14:38:42.000Z</time>
      </trkpt>
      <trkpt lat="43.041498" lon="-5.789252">
        <ele>911.74</ele>
        <time>2020-07-21T14:38:45.000Z</time>
      </trkpt>
      <trkpt lat="43.041531" lon="-5.789244">
        <ele>911.09</ele>
        <time>2020-07-21T14:38:48.000Z</time>
      </trkpt>
      <trkpt lat="43.041576" lon="-5.789242">
        <ele>911.85</ele>
        <time>2020-07-21T14:38:52.000Z</time>
      </trkpt>
      <trkpt lat="43.041627" lon="-5.789265">
        <ele>910.79</ele>
        <time>2020-07-21T14:38:56.000Z</time>
      </trkpt>
      <trkpt lat="43.041677" lon="-5.789253">
        <ele>905.7</ele>
        <time>2020-07-21T14:39:01.000Z</time>
      </trkpt>
      <trkpt lat="43.041715" lon="-5.789195">
        <ele>908.53</ele>
        <time>2020-07-21T14:39:07.000Z</time>
      </trkpt>
      <trkpt lat="43.041765" lon="-5.789171">
        <ele>912.15</ele>
        <time>2020-07-21T14:39:12.000Z</time>
      </trkpt>
      <trkpt lat="43.041765" lon="-5.789171">
        <ele>912.15</ele>
        <time>2020-07-21T14:39:19.000Z</time>
      </trkpt>
      <trkpt lat="43.041765" lon="-5.789171">
        <ele>912.15</ele>
        <time>2020-07-21T14:39:20.000Z</time>
      </trkpt>
      <trkpt lat="43.041828" lon="-5.789148">
        <ele>914.52</ele>
        <time>2020-07-21T14:39:22.000Z</time>
      </trkpt>
      <trkpt lat="43.041856" lon="-5.789095">
        <ele>912.84</ele>
        <time>2020-07-21T14:39:26.000Z</time>
      </trkpt>
      <trkpt lat="43.041872" lon="-5.789066">
        <ele>914.01</ele>
        <time>2020-07-21T14:39:28.000Z</time>
      </trkpt>
      <trkpt lat="43.041872" lon="-5.789066">
        <ele>914.01</ele>
        <time>2020-07-21T14:39:33.000Z</time>
      </trkpt>
      <trkpt lat="43.041872" lon="-5.789066">
        <ele>914.01</ele>
        <time>2020-07-21T14:39:34.000Z</time>
      </trkpt>
      <trkpt lat="43.04189" lon="-5.789124">
        <ele>914.28</ele>
        <time>2020-07-21T14:39:44.000Z</time>
      </trkpt>
      <trkpt lat="43.04188" lon="-5.789185">
        <ele>913.02</ele>
        <time>2020-07-21T14:39:48.000Z</time>
      </trkpt>
      <trkpt lat="43.04185" lon="-5.789233">
        <ele>906.68</ele>
        <time>2020-07-21T14:39:52.000Z</time>
      </trkpt>
      <trkpt lat="43.041829" lon="-5.789262">
        <ele>906.66</ele>
        <time>2020-07-21T14:39:56.000Z</time>
      </trkpt>
      <trkpt lat="43.041807" lon="-5.789327">
        <ele>908.6</ele>
        <time>2020-07-21T14:40:03.000Z</time>
      </trkpt>
      <trkpt lat="43.041791" lon="-5.789366">
        <ele>909.37</ele>
        <time>2020-07-21T14:40:08.000Z</time>
      </trkpt>
      <trkpt lat="43.041785" lon="-5.789435">
        <ele>908.56</ele>
        <time>2020-07-21T14:40:14.000Z</time>
      </trkpt>
      <trkpt lat="43.04177" lon="-5.789499">
        <ele>909.79</ele>
        <time>2020-07-21T14:40:18.000Z</time>
      </trkpt>
      <trkpt lat="43.04178" lon="-5.789567">
        <ele>913.3</ele>
        <time>2020-07-21T14:40:24.000Z</time>
      </trkpt>
      <trkpt lat="43.041825" lon="-5.789605">
        <ele>913.12</ele>
        <time>2020-07-21T14:40:29.000Z</time>
      </trkpt>
      <trkpt lat="43.041863" lon="-5.789638">
        <ele>912.49</ele>
        <time>2020-07-21T14:40:33.000Z</time>
      </trkpt>
      <trkpt lat="43.04189" lon="-5.789666">
        <ele>914.91</ele>
        <time>2020-07-21T14:40:37.000Z</time>
      </trkpt>
      <trkpt lat="43.041939" lon="-5.78966">
        <ele>914.43</ele>
        <time>2020-07-21T14:40:42.000Z</time>
      </trkpt>
      <trkpt lat="43.041998" lon="-5.789624">
        <ele>913.46</ele>
        <time>2020-07-21T14:40:47.000Z</time>
      </trkpt>
      <trkpt lat="43.042035" lon="-5.789646">
        <ele>910.07</ele>
        <time>2020-07-21T14:40:56.000Z</time>
      </trkpt>
      <trkpt lat="43.042035" lon="-5.789646">
        <time>2020-07-21T14:41:18.000Z</time>
      </trkpt>
      <trkpt lat="43.042035" lon="-5.789646">
        <time>2020-07-21T14:41:20.000Z</time>
      </trkpt>
    </trkseg>
  </trk>
</gpx>
